<?xml version="1.0" encoding="UTF-8" standalone="no" ?>
<gpx xmlns="http://www.topografix.com/GPX/1/1" xmlns:xsi="http://www.w3.org/2001/XMLSchema-instance" xsi:schemaLocation="http://www.topografix.com/GPX/1/1 http://www.topografix.com/GPX/1/1/gpx.xsd" version="1.1" creator="VisuGPX - https://www.visugpx.com">
  <metadata>
    <name>tour bpf 69</name>
  </metadata>
  <wpt lat="46.29197" lon="4.69488">
    <ele>523</ele>
    <name><![CDATA[FR-69-0590]]></name>
    <desc><![CDATA[D23, GR76a, GR76d]]></desc>
  </wpt>
  <wpt lat="46.54966" lon="4.87274">
    <ele>307.5</ele>
    <name><![CDATA[FR-71-0303]]></name>
    <desc><![CDATA[D14]]></desc>
  </wpt>
  <wpt lat="45.91551" lon="4.34583">
    <ele>759.5</ele>
    <name><![CDATA[FR-42-0759]]></name>
    <desc><![CDATA[N7, GR7]]></desc>
  </wpt>
  <wpt lat="45.75825" lon="4.81318">
    <ele>265.6</ele>
    <name><![CDATA[FR-69-0266]]></name>
    <desc><![CDATA[Chemin de Choulans]]></desc>
  </wpt>
  <wpt lat="46.17913" lon="4.64237">
    <ele>477.8</ele>
    <name><![CDATA[FR-69-0445]]></name>
    <desc><![CDATA[D18/D26]]></desc>
  </wpt>
  <wpt lat="46.1925" lon="4.64835">
    <ele>542</ele>
    <name><![CDATA[FR-69-0541]]></name>
    <desc><![CDATA[D26/D86/D18e]]></desc>
  </wpt>
  <wpt lat="46.29197" lon="4.69488">
    <ele>523</ele>
    <name><![CDATA[FR-69-0590]]></name>
    <desc><![CDATA[D23, GR76a, GR76d]]></desc>
  </wpt>
  <wpt lat="45.91617" lon="4.4393">
    <ele>598.2</ele>
    <name><![CDATA[FR-69-0598a]]></name>
    <desc><![CDATA[D56E/CV]]></desc>
  </wpt>
  <wpt lat="46.26105" lon="4.66028">
    <ele>612.5</ele>
    <name><![CDATA[FR-69-0613]]></name>
    <desc><![CDATA[D68/D137]]></desc>
  </wpt>
  <wpt lat="46.25468" lon="4.64336">
    <ele>609.6</ele>
    <name><![CDATA[FR-69-0615]]></name>
    <desc><![CDATA[D17/D644]]></desc>
  </wpt>
  <wpt lat="45.93039" lon="4.4264">
    <ele>622.6</ele>
    <name><![CDATA[FR-69-0623]]></name>
    <desc><![CDATA[D56/D82]]></desc>
  </wpt>
  <wpt lat="45.92717" lon="4.43084">
    <ele>638.4</ele>
    <name><![CDATA[FR-69-0635]]></name>
    <desc><![CDATA[CV]]></desc>
  </wpt>
  <wpt lat="46.2582" lon="4.62244">
    <ele>646.9</ele>
    <name><![CDATA[FR-69-0638]]></name>
    <desc><![CDATA[D17/D23, GR76a]]></desc>
  </wpt>
  <wpt lat="46.23965" lon="4.62245">
    <ele>663.3</ele>
    <name><![CDATA[FR-69-0680b]]></name>
    <desc><![CDATA[D32]]></desc>
  </wpt>
  <wpt lat="45.92694" lon="4.37858">
    <ele>723</ele>
    <name><![CDATA[FR-69-0723]]></name>
    <desc><![CDATA[D8/D121, GR7]]></desc>
  </wpt>
  <wpt lat="45.72084" lon="4.56836">
    <ele>811.1</ele>
    <name><![CDATA[FR-69-0811]]></name>
    <desc><![CDATA[D25, GRP Tour des Monts du Lyonnais]]></desc>
  </wpt>
  <wpt lat="45.91551" lon="4.34583">
    <ele>759.5</ele>
    <name><![CDATA[FR-42-0759]]></name>
    <desc><![CDATA[N7, GR7]]></desc>
  </wpt>
  <wpt lat="45.85501" lon="4.36399">
    <ele>864.6</ele>
    <name><![CDATA[FR-42-0865]]></name>
    <desc><![CDATA[D1, GR7]]></desc>
  </wpt>
  <trk>
    <name><![CDATA[tour bpf 69 jour 1]]></name>
    <extensions>
      <line xmlns="http://www.topografix.com/GPX/gpx_style/0/2">
        <color>00FFFF</color>
        <width>4</width>
      </line>
    </extensions>
    <trkseg>
      <trkpt lat="46.67043" lon="5.55154">
        <ele>262.8</ele>
        <time>2022-06-25T06:02:58Z</time>
      </trkpt>
      <trkpt lat="46.67042" lon="5.55154">
        <ele>262.8</ele>
        <time>2022-06-25T06:02:59Z</time>
      </trkpt>
      <trkpt lat="46.67042" lon="5.55153">
        <ele>262.8</ele>
        <time>2022-06-25T06:03:00Z</time>
      </trkpt>
      <trkpt lat="46.67038" lon="5.55152">
        <ele>263</ele>
        <time>2022-06-25T06:03:13Z</time>
      </trkpt>
      <trkpt lat="46.67037" lon="5.55152">
        <ele>263</ele>
        <time>2022-06-25T06:03:14Z</time>
      </trkpt>
      <trkpt lat="46.67035" lon="5.55152">
        <ele>263</ele>
        <time>2022-06-25T06:03:15Z</time>
      </trkpt>
      <trkpt lat="46.67033" lon="5.55152">
        <ele>263</ele>
        <time>2022-06-25T06:03:16Z</time>
      </trkpt>
      <trkpt lat="46.6703" lon="5.55152">
        <ele>263.2</ele>
        <time>2022-06-25T06:03:17Z</time>
      </trkpt>
      <trkpt lat="46.67028" lon="5.55151">
        <ele>263.2</ele>
        <time>2022-06-25T06:03:18Z</time>
      </trkpt>
      <trkpt lat="46.67025" lon="5.55151">
        <ele>263.2</ele>
        <time>2022-06-25T06:03:19Z</time>
      </trkpt>
      <trkpt lat="46.67022" lon="5.5515">
        <ele>263.4</ele>
        <time>2022-06-25T06:03:20Z</time>
      </trkpt>
      <trkpt lat="46.6702" lon="5.5515">
        <ele>263.4</ele>
        <time>2022-06-25T06:03:21Z</time>
      </trkpt>
      <trkpt lat="46.67016" lon="5.55149">
        <ele>263.4</ele>
        <time>2022-06-25T06:03:22Z</time>
      </trkpt>
      <trkpt lat="46.67014" lon="5.55149">
        <ele>263.4</ele>
        <time>2022-06-25T06:03:23Z</time>
      </trkpt>
      <trkpt lat="46.67011" lon="5.55149">
        <ele>263.8</ele>
        <time>2022-06-25T06:03:24Z</time>
      </trkpt>
      <trkpt lat="46.67008" lon="5.55148">
        <ele>263.8</ele>
        <time>2022-06-25T06:03:25Z</time>
      </trkpt>
      <trkpt lat="46.67004" lon="5.55148">
        <ele>264.2</ele>
        <time>2022-06-25T06:03:26Z</time>
      </trkpt>
      <trkpt lat="46.67" lon="5.55147">
        <ele>264.2</ele>
        <time>2022-06-25T06:03:27Z</time>
      </trkpt>
      <trkpt lat="46.66997" lon="5.55147">
        <ele>264.4</ele>
        <time>2022-06-25T06:03:28Z</time>
      </trkpt>
      <trkpt lat="46.66994" lon="5.55147">
        <ele>264.4</ele>
        <time>2022-06-25T06:03:29Z</time>
      </trkpt>
      <trkpt lat="46.6699" lon="5.55147">
        <ele>264.6</ele>
        <time>2022-06-25T06:03:30Z</time>
      </trkpt>
      <trkpt lat="46.66987" lon="5.55147">
        <ele>264.6</ele>
        <time>2022-06-25T06:03:31Z</time>
      </trkpt>
      <trkpt lat="46.66983" lon="5.55147">
        <ele>265</ele>
        <time>2022-06-25T06:03:32Z</time>
      </trkpt>
      <trkpt lat="46.6698" lon="5.55146">
        <ele>265</ele>
        <time>2022-06-25T06:03:33Z</time>
      </trkpt>
      <trkpt lat="46.66976" lon="5.55146">
        <ele>265.2</ele>
        <time>2022-06-25T06:03:34Z</time>
      </trkpt>
      <trkpt lat="46.66973" lon="5.55144">
        <ele>265.4</ele>
        <time>2022-06-25T06:03:35Z</time>
      </trkpt>
      <trkpt lat="46.66969" lon="5.55143">
        <ele>265.4</ele>
        <time>2022-06-25T06:03:36Z</time>
      </trkpt>
      <trkpt lat="46.66965" lon="5.55143">
        <ele>265.8</ele>
        <time>2022-06-25T06:03:37Z</time>
      </trkpt>
      <trkpt lat="46.66961" lon="5.55142">
        <ele>265.8</ele>
        <time>2022-06-25T06:03:38Z</time>
      </trkpt>
      <trkpt lat="46.66957" lon="5.55141">
        <ele>265.8</ele>
        <time>2022-06-25T06:03:39Z</time>
      </trkpt>
      <trkpt lat="46.66953" lon="5.5514">
        <ele>266</ele>
        <time>2022-06-25T06:03:40Z</time>
      </trkpt>
      <trkpt lat="46.66949" lon="5.55139">
        <ele>266</ele>
        <time>2022-06-25T06:03:41Z</time>
      </trkpt>
      <trkpt lat="46.66945" lon="5.55138">
        <ele>266.2</ele>
        <time>2022-06-25T06:03:42Z</time>
      </trkpt>
      <trkpt lat="46.66941" lon="5.55137">
        <ele>266.2</ele>
        <time>2022-06-25T06:03:43Z</time>
      </trkpt>
      <trkpt lat="46.66938" lon="5.55137">
        <ele>266.2</ele>
        <time>2022-06-25T06:03:44Z</time>
      </trkpt>
      <trkpt lat="46.66935" lon="5.55136">
        <ele>266.4</ele>
        <time>2022-06-25T06:03:45Z</time>
      </trkpt>
      <trkpt lat="46.66932" lon="5.55136">
        <ele>266.4</ele>
        <time>2022-06-25T06:03:46Z</time>
      </trkpt>
      <trkpt lat="46.66928" lon="5.55136">
        <ele>266.8</ele>
        <time>2022-06-25T06:03:47Z</time>
      </trkpt>
      <trkpt lat="46.66926" lon="5.55137">
        <ele>266.8</ele>
        <time>2022-06-25T06:03:48Z</time>
      </trkpt>
      <trkpt lat="46.66923" lon="5.55138">
        <ele>266.8</ele>
        <time>2022-06-25T06:03:49Z</time>
      </trkpt>
      <trkpt lat="46.6692" lon="5.55137">
        <ele>266.8</ele>
        <time>2022-06-25T06:03:50Z</time>
      </trkpt>
      <trkpt lat="46.66918" lon="5.55135">
        <ele>267</ele>
        <time>2022-06-25T06:03:51Z</time>
      </trkpt>
      <trkpt lat="46.66915" lon="5.55133">
        <ele>267</ele>
        <time>2022-06-25T06:03:52Z</time>
      </trkpt>
      <trkpt lat="46.66914" lon="5.5513">
        <ele>267.4</ele>
        <time>2022-06-25T06:03:53Z</time>
      </trkpt>
      <trkpt lat="46.66913" lon="5.55125">
        <ele>267.4</ele>
        <time>2022-06-25T06:03:54Z</time>
      </trkpt>
      <trkpt lat="46.66912" lon="5.55121">
        <ele>267.4</ele>
        <time>2022-06-25T06:03:55Z</time>
      </trkpt>
      <trkpt lat="46.66911" lon="5.55116">
        <ele>267.6</ele>
        <time>2022-06-25T06:03:56Z</time>
      </trkpt>
      <trkpt lat="46.6691" lon="5.55111">
        <ele>267.6</ele>
        <time>2022-06-25T06:03:57Z</time>
      </trkpt>
      <trkpt lat="46.66908" lon="5.55105">
        <ele>267.6</ele>
        <time>2022-06-25T06:03:58Z</time>
      </trkpt>
      <trkpt lat="46.66907" lon="5.551">
        <ele>267.6</ele>
        <time>2022-06-25T06:03:59Z</time>
      </trkpt>
      <trkpt lat="46.66906" lon="5.55094">
        <ele>267.6</ele>
        <time>2022-06-25T06:04:00Z</time>
      </trkpt>
      <trkpt lat="46.66905" lon="5.55089">
        <ele>267.6</ele>
        <time>2022-06-25T06:04:01Z</time>
      </trkpt>
      <trkpt lat="46.66905" lon="5.55083">
        <ele>267.6</ele>
        <time>2022-06-25T06:04:02Z</time>
      </trkpt>
      <trkpt lat="46.66905" lon="5.55078">
        <ele>267.8</ele>
        <time>2022-06-25T06:04:03Z</time>
      </trkpt>
      <trkpt lat="46.66904" lon="5.55072">
        <ele>267.8</ele>
        <time>2022-06-25T06:04:04Z</time>
      </trkpt>
      <trkpt lat="46.66904" lon="5.55065">
        <ele>267.8</ele>
        <time>2022-06-25T06:04:05Z</time>
      </trkpt>
      <trkpt lat="46.66904" lon="5.55059">
        <ele>267.8</ele>
        <time>2022-06-25T06:04:06Z</time>
      </trkpt>
      <trkpt lat="46.66904" lon="5.55052">
        <ele>267.8</ele>
        <time>2022-06-25T06:04:07Z</time>
      </trkpt>
      <trkpt lat="46.66904" lon="5.55046">
        <ele>267.8</ele>
        <time>2022-06-25T06:04:08Z</time>
      </trkpt>
      <trkpt lat="46.66904" lon="5.55039">
        <ele>267.8</ele>
        <time>2022-06-25T06:04:09Z</time>
      </trkpt>
      <trkpt lat="46.66904" lon="5.55032">
        <ele>267.8</ele>
        <time>2022-06-25T06:04:10Z</time>
      </trkpt>
      <trkpt lat="46.66905" lon="5.55025">
        <ele>267.8</ele>
        <time>2022-06-25T06:04:11Z</time>
      </trkpt>
      <trkpt lat="46.66906" lon="5.55018">
        <ele>267.8</ele>
        <time>2022-06-25T06:04:12Z</time>
      </trkpt>
      <trkpt lat="46.66906" lon="5.55011">
        <ele>267.8</ele>
        <time>2022-06-25T06:04:13Z</time>
      </trkpt>
      <trkpt lat="46.66907" lon="5.55003">
        <ele>267.8</ele>
        <time>2022-06-25T06:04:14Z</time>
      </trkpt>
      <trkpt lat="46.66908" lon="5.54996">
        <ele>267.8</ele>
        <time>2022-06-25T06:04:15Z</time>
      </trkpt>
      <trkpt lat="46.66909" lon="5.54988">
        <ele>267.8</ele>
        <time>2022-06-25T06:04:16Z</time>
      </trkpt>
      <trkpt lat="46.66909" lon="5.5498">
        <ele>267.8</ele>
        <time>2022-06-25T06:04:17Z</time>
      </trkpt>
      <trkpt lat="46.6691" lon="5.54973">
        <ele>268.2</ele>
        <time>2022-06-25T06:04:18Z</time>
      </trkpt>
      <trkpt lat="46.66911" lon="5.54965">
        <ele>268.2</ele>
        <time>2022-06-25T06:04:19Z</time>
      </trkpt>
      <trkpt lat="46.66912" lon="5.54958">
        <ele>268.2</ele>
        <time>2022-06-25T06:04:20Z</time>
      </trkpt>
      <trkpt lat="46.66912" lon="5.5495">
        <ele>268.2</ele>
        <time>2022-06-25T06:04:21Z</time>
      </trkpt>
      <trkpt lat="46.66913" lon="5.54942">
        <ele>268.2</ele>
        <time>2022-06-25T06:04:22Z</time>
      </trkpt>
      <trkpt lat="46.66914" lon="5.54935">
        <ele>268.2</ele>
        <time>2022-06-25T06:04:23Z</time>
      </trkpt>
      <trkpt lat="46.66915" lon="5.54927">
        <ele>268.2</ele>
        <time>2022-06-25T06:04:24Z</time>
      </trkpt>
      <trkpt lat="46.66915" lon="5.54919">
        <ele>268.2</ele>
        <time>2022-06-25T06:04:25Z</time>
      </trkpt>
      <trkpt lat="46.66916" lon="5.54911">
        <ele>268.2</ele>
        <time>2022-06-25T06:04:26Z</time>
      </trkpt>
      <trkpt lat="46.66917" lon="5.54904">
        <ele>268.2</ele>
        <time>2022-06-25T06:04:27Z</time>
      </trkpt>
      <trkpt lat="46.66918" lon="5.54896">
        <ele>268.2</ele>
        <time>2022-06-25T06:04:28Z</time>
      </trkpt>
      <trkpt lat="46.66919" lon="5.54887">
        <ele>268</ele>
        <time>2022-06-25T06:04:29Z</time>
      </trkpt>
      <trkpt lat="46.66919" lon="5.54879">
        <ele>268</ele>
        <time>2022-06-25T06:04:30Z</time>
      </trkpt>
      <trkpt lat="46.6692" lon="5.54871">
        <ele>268</ele>
        <time>2022-06-25T06:04:31Z</time>
      </trkpt>
      <trkpt lat="46.66921" lon="5.54862">
        <ele>267.8</ele>
        <time>2022-06-25T06:04:32Z</time>
      </trkpt>
      <trkpt lat="46.66922" lon="5.54853">
        <ele>267.8</ele>
        <time>2022-06-25T06:04:33Z</time>
      </trkpt>
      <trkpt lat="46.66923" lon="5.54845">
        <ele>267.8</ele>
        <time>2022-06-25T06:04:34Z</time>
      </trkpt>
      <trkpt lat="46.66924" lon="5.54837">
        <ele>267.4</ele>
        <time>2022-06-25T06:04:35Z</time>
      </trkpt>
      <trkpt lat="46.66925" lon="5.54829">
        <ele>267.4</ele>
        <time>2022-06-25T06:04:36Z</time>
      </trkpt>
      <trkpt lat="46.66926" lon="5.54821">
        <ele>267.4</ele>
        <time>2022-06-25T06:04:37Z</time>
      </trkpt>
      <trkpt lat="46.66926" lon="5.54814">
        <ele>267.2</ele>
        <time>2022-06-25T06:04:38Z</time>
      </trkpt>
      <trkpt lat="46.66927" lon="5.54807">
        <ele>267.2</ele>
        <time>2022-06-25T06:04:39Z</time>
      </trkpt>
      <trkpt lat="46.66928" lon="5.548">
        <ele>267.2</ele>
        <time>2022-06-25T06:04:40Z</time>
      </trkpt>
      <trkpt lat="46.66929" lon="5.54793">
        <ele>267</ele>
        <time>2022-06-25T06:04:41Z</time>
      </trkpt>
      <trkpt lat="46.66929" lon="5.54787">
        <ele>267</ele>
        <time>2022-06-25T06:04:42Z</time>
      </trkpt>
      <trkpt lat="46.6693" lon="5.5478">
        <ele>266.6</ele>
        <time>2022-06-25T06:04:43Z</time>
      </trkpt>
      <trkpt lat="46.66931" lon="5.54773">
        <ele>266.6</ele>
        <time>2022-06-25T06:04:44Z</time>
      </trkpt>
      <trkpt lat="46.66932" lon="5.54766">
        <ele>266.6</ele>
        <time>2022-06-25T06:04:45Z</time>
      </trkpt>
      <trkpt lat="46.66933" lon="5.54758">
        <ele>266.6</ele>
        <time>2022-06-25T06:04:46Z</time>
      </trkpt>
      <trkpt lat="46.66935" lon="5.54751">
        <ele>266.4</ele>
        <time>2022-06-25T06:04:47Z</time>
      </trkpt>
      <trkpt lat="46.66937" lon="5.54743">
        <ele>266.4</ele>
        <time>2022-06-25T06:04:48Z</time>
      </trkpt>
      <trkpt lat="46.66939" lon="5.54735">
        <ele>266.4</ele>
        <time>2022-06-25T06:04:49Z</time>
      </trkpt>
      <trkpt lat="46.66942" lon="5.54728">
        <ele>266.2</ele>
        <time>2022-06-25T06:04:50Z</time>
      </trkpt>
      <trkpt lat="46.66946" lon="5.5472">
        <ele>265.8</ele>
        <time>2022-06-25T06:04:51Z</time>
      </trkpt>
      <trkpt lat="46.6695" lon="5.54713">
        <ele>265.8</ele>
        <time>2022-06-25T06:04:52Z</time>
      </trkpt>
      <trkpt lat="46.66955" lon="5.54706">
        <ele>265.4</ele>
        <time>2022-06-25T06:04:53Z</time>
      </trkpt>
      <trkpt lat="46.6696" lon="5.54699">
        <ele>265.4</ele>
        <time>2022-06-25T06:04:54Z</time>
      </trkpt>
      <trkpt lat="46.66965" lon="5.54692">
        <ele>265.2</ele>
        <time>2022-06-25T06:04:55Z</time>
      </trkpt>
      <trkpt lat="46.6697" lon="5.54684">
        <ele>265</ele>
        <time>2022-06-25T06:04:56Z</time>
      </trkpt>
      <trkpt lat="46.66974" lon="5.54677">
        <ele>264.8</ele>
        <time>2022-06-25T06:04:57Z</time>
      </trkpt>
      <trkpt lat="46.66979" lon="5.54669">
        <ele>264.4</ele>
        <time>2022-06-25T06:04:58Z</time>
      </trkpt>
      <trkpt lat="46.66984" lon="5.54661">
        <ele>264.2</ele>
        <time>2022-06-25T06:04:59Z</time>
      </trkpt>
      <trkpt lat="46.66989" lon="5.54653">
        <ele>264.2</ele>
        <time>2022-06-25T06:05:00Z</time>
      </trkpt>
      <trkpt lat="46.66994" lon="5.54645">
        <ele>263.8</ele>
        <time>2022-06-25T06:05:01Z</time>
      </trkpt>
      <trkpt lat="46.67" lon="5.54637">
        <ele>263.8</ele>
        <time>2022-06-25T06:05:02Z</time>
      </trkpt>
      <trkpt lat="46.67005" lon="5.54629">
        <ele>263.4</ele>
        <time>2022-06-25T06:05:03Z</time>
      </trkpt>
      <trkpt lat="46.6701" lon="5.54621">
        <ele>263.2</ele>
        <time>2022-06-25T06:05:04Z</time>
      </trkpt>
      <trkpt lat="46.67016" lon="5.54613">
        <ele>262.8</ele>
        <time>2022-06-25T06:05:05Z</time>
      </trkpt>
      <trkpt lat="46.67022" lon="5.54605">
        <ele>262.8</ele>
        <time>2022-06-25T06:05:06Z</time>
      </trkpt>
      <trkpt lat="46.67028" lon="5.54597">
        <ele>262.4</ele>
        <time>2022-06-25T06:05:07Z</time>
      </trkpt>
      <trkpt lat="46.67034" lon="5.54588">
        <ele>262.2</ele>
        <time>2022-06-25T06:05:08Z</time>
      </trkpt>
      <trkpt lat="46.67039" lon="5.5458">
        <ele>262</ele>
        <time>2022-06-25T06:05:09Z</time>
      </trkpt>
      <trkpt lat="46.67045" lon="5.54573">
        <ele>261.6</ele>
        <time>2022-06-25T06:05:10Z</time>
      </trkpt>
      <trkpt lat="46.6705" lon="5.54566">
        <ele>261.4</ele>
        <time>2022-06-25T06:05:11Z</time>
      </trkpt>
      <trkpt lat="46.67055" lon="5.54559">
        <ele>261</ele>
        <time>2022-06-25T06:05:12Z</time>
      </trkpt>
      <trkpt lat="46.67059" lon="5.54552">
        <ele>260.8</ele>
        <time>2022-06-25T06:05:13Z</time>
      </trkpt>
      <trkpt lat="46.67062" lon="5.54545">
        <ele>260.6</ele>
        <time>2022-06-25T06:05:14Z</time>
      </trkpt>
      <trkpt lat="46.67063" lon="5.54538">
        <ele>260.4</ele>
        <time>2022-06-25T06:05:15Z</time>
      </trkpt>
      <trkpt lat="46.67063" lon="5.54531">
        <ele>260.2</ele>
        <time>2022-06-25T06:05:16Z</time>
      </trkpt>
      <trkpt lat="46.67061" lon="5.54524">
        <ele>260.2</ele>
        <time>2022-06-25T06:05:17Z</time>
      </trkpt>
      <trkpt lat="46.67058" lon="5.54519">
        <ele>260.2</ele>
        <time>2022-06-25T06:05:18Z</time>
      </trkpt>
      <trkpt lat="46.67055" lon="5.54513">
        <ele>260.2</ele>
        <time>2022-06-25T06:05:19Z</time>
      </trkpt>
      <trkpt lat="46.67053" lon="5.54508">
        <ele>260.2</ele>
        <time>2022-06-25T06:05:20Z</time>
      </trkpt>
      <trkpt lat="46.6705" lon="5.54503">
        <ele>260.4</ele>
        <time>2022-06-25T06:05:21Z</time>
      </trkpt>
      <trkpt lat="46.67047" lon="5.54498">
        <ele>260.4</ele>
        <time>2022-06-25T06:05:22Z</time>
      </trkpt>
      <trkpt lat="46.67045" lon="5.54493">
        <ele>260.6</ele>
        <time>2022-06-25T06:05:23Z</time>
      </trkpt>
      <trkpt lat="46.67042" lon="5.54487">
        <ele>260.6</ele>
        <time>2022-06-25T06:05:24Z</time>
      </trkpt>
      <trkpt lat="46.6704" lon="5.54482">
        <ele>261.2</ele>
        <time>2022-06-25T06:05:25Z</time>
      </trkpt>
      <trkpt lat="46.67037" lon="5.54477">
        <ele>261.2</ele>
        <time>2022-06-25T06:05:26Z</time>
      </trkpt>
      <trkpt lat="46.67035" lon="5.54471">
        <ele>261.6</ele>
        <time>2022-06-25T06:05:27Z</time>
      </trkpt>
      <trkpt lat="46.67032" lon="5.54466">
        <ele>261.8</ele>
        <time>2022-06-25T06:05:28Z</time>
      </trkpt>
      <trkpt lat="46.6703" lon="5.5446">
        <ele>262</ele>
        <time>2022-06-25T06:05:29Z</time>
      </trkpt>
      <trkpt lat="46.67028" lon="5.54455">
        <ele>262.2</ele>
        <time>2022-06-25T06:05:30Z</time>
      </trkpt>
      <trkpt lat="46.67026" lon="5.5445">
        <ele>262.4</ele>
        <time>2022-06-25T06:05:31Z</time>
      </trkpt>
      <trkpt lat="46.67023" lon="5.54444">
        <ele>262.8</ele>
        <time>2022-06-25T06:05:32Z</time>
      </trkpt>
      <trkpt lat="46.67021" lon="5.54439">
        <ele>263</ele>
        <time>2022-06-25T06:05:33Z</time>
      </trkpt>
      <trkpt lat="46.67018" lon="5.54434">
        <ele>263.4</ele>
        <time>2022-06-25T06:05:34Z</time>
      </trkpt>
      <trkpt lat="46.67017" lon="5.5443">
        <ele>263.6</ele>
        <time>2022-06-25T06:05:35Z</time>
      </trkpt>
      <trkpt lat="46.67016" lon="5.54425">
        <ele>263.8</ele>
        <time>2022-06-25T06:05:36Z</time>
      </trkpt>
      <trkpt lat="46.67016" lon="5.5442">
        <ele>264.2</ele>
        <time>2022-06-25T06:05:37Z</time>
      </trkpt>
      <trkpt lat="46.67017" lon="5.54416">
        <ele>264.4</ele>
        <time>2022-06-25T06:05:38Z</time>
      </trkpt>
      <trkpt lat="46.67018" lon="5.54411">
        <ele>264.6</ele>
        <time>2022-06-25T06:05:39Z</time>
      </trkpt>
      <trkpt lat="46.67019" lon="5.54407">
        <ele>264.6</ele>
        <time>2022-06-25T06:05:40Z</time>
      </trkpt>
      <trkpt lat="46.67021" lon="5.54402">
        <ele>265</ele>
        <time>2022-06-25T06:05:41Z</time>
      </trkpt>
      <trkpt lat="46.67023" lon="5.54397">
        <ele>265</ele>
        <time>2022-06-25T06:05:42Z</time>
      </trkpt>
      <trkpt lat="46.67025" lon="5.54391">
        <ele>265</ele>
        <time>2022-06-25T06:05:43Z</time>
      </trkpt>
      <trkpt lat="46.67027" lon="5.54385">
        <ele>265</ele>
        <time>2022-06-25T06:05:44Z</time>
      </trkpt>
      <trkpt lat="46.6703" lon="5.54379">
        <ele>265</ele>
        <time>2022-06-25T06:05:45Z</time>
      </trkpt>
      <trkpt lat="46.67032" lon="5.54373">
        <ele>265</ele>
        <time>2022-06-25T06:05:46Z</time>
      </trkpt>
      <trkpt lat="46.67035" lon="5.54366">
        <ele>265</ele>
        <time>2022-06-25T06:05:47Z</time>
      </trkpt>
      <trkpt lat="46.67037" lon="5.54358">
        <ele>265</ele>
        <time>2022-06-25T06:05:48Z</time>
      </trkpt>
      <trkpt lat="46.67039" lon="5.54351">
        <ele>264.6</ele>
        <time>2022-06-25T06:05:49Z</time>
      </trkpt>
      <trkpt lat="46.67042" lon="5.54343">
        <ele>264.6</ele>
        <time>2022-06-25T06:05:50Z</time>
      </trkpt>
      <trkpt lat="46.67044" lon="5.54335">
        <ele>264.4</ele>
        <time>2022-06-25T06:05:51Z</time>
      </trkpt>
      <trkpt lat="46.67047" lon="5.54326">
        <ele>264.4</ele>
        <time>2022-06-25T06:05:52Z</time>
      </trkpt>
      <trkpt lat="46.67049" lon="5.54318">
        <ele>264</ele>
        <time>2022-06-25T06:05:53Z</time>
      </trkpt>
      <trkpt lat="46.67052" lon="5.5431">
        <ele>264</ele>
        <time>2022-06-25T06:05:54Z</time>
      </trkpt>
      <trkpt lat="46.67054" lon="5.54301">
        <ele>263.8</ele>
        <time>2022-06-25T06:05:55Z</time>
      </trkpt>
      <trkpt lat="46.67057" lon="5.54292">
        <ele>263.8</ele>
        <time>2022-06-25T06:05:56Z</time>
      </trkpt>
      <trkpt lat="46.6706" lon="5.54283">
        <ele>263.6</ele>
        <time>2022-06-25T06:05:57Z</time>
      </trkpt>
      <trkpt lat="46.67062" lon="5.54274">
        <ele>263.6</ele>
        <time>2022-06-25T06:05:58Z</time>
      </trkpt>
      <trkpt lat="46.67065" lon="5.54265">
        <ele>263.4</ele>
        <time>2022-06-25T06:05:59Z</time>
      </trkpt>
      <trkpt lat="46.67068" lon="5.54256">
        <ele>263.4</ele>
        <time>2022-06-25T06:06:00Z</time>
      </trkpt>
      <trkpt lat="46.67071" lon="5.54247">
        <ele>263</ele>
        <time>2022-06-25T06:06:01Z</time>
      </trkpt>
      <trkpt lat="46.67074" lon="5.54238">
        <ele>263</ele>
        <time>2022-06-25T06:06:02Z</time>
      </trkpt>
      <trkpt lat="46.67077" lon="5.54228">
        <ele>263</ele>
        <time>2022-06-25T06:06:03Z</time>
      </trkpt>
      <trkpt lat="46.6708" lon="5.54219">
        <ele>262.8</ele>
        <time>2022-06-25T06:06:04Z</time>
      </trkpt>
      <trkpt lat="46.67083" lon="5.5421">
        <ele>262.8</ele>
        <time>2022-06-25T06:06:05Z</time>
      </trkpt>
      <trkpt lat="46.67086" lon="5.54201">
        <ele>262.8</ele>
        <time>2022-06-25T06:06:06Z</time>
      </trkpt>
      <trkpt lat="46.67088" lon="5.54192">
        <ele>262.8</ele>
        <time>2022-06-25T06:06:07Z</time>
      </trkpt>
      <trkpt lat="46.67091" lon="5.54184">
        <ele>262.8</ele>
        <time>2022-06-25T06:06:08Z</time>
      </trkpt>
      <trkpt lat="46.67093" lon="5.54177">
        <ele>262.8</ele>
        <time>2022-06-25T06:06:09Z</time>
      </trkpt>
      <trkpt lat="46.67095" lon="5.54169">
        <ele>262.8</ele>
        <time>2022-06-25T06:06:10Z</time>
      </trkpt>
      <trkpt lat="46.67097" lon="5.54162">
        <ele>262.8</ele>
        <time>2022-06-25T06:06:11Z</time>
      </trkpt>
      <trkpt lat="46.67099" lon="5.54155">
        <ele>262.8</ele>
        <time>2022-06-25T06:06:12Z</time>
      </trkpt>
      <trkpt lat="46.67101" lon="5.54148">
        <ele>263.2</ele>
        <time>2022-06-25T06:06:13Z</time>
      </trkpt>
      <trkpt lat="46.67103" lon="5.54141">
        <ele>263.4</ele>
        <time>2022-06-25T06:06:14Z</time>
      </trkpt>
      <trkpt lat="46.67105" lon="5.54135">
        <ele>263.4</ele>
        <time>2022-06-25T06:06:15Z</time>
      </trkpt>
      <trkpt lat="46.67107" lon="5.54128">
        <ele>263.8</ele>
        <time>2022-06-25T06:06:16Z</time>
      </trkpt>
      <trkpt lat="46.67109" lon="5.54121">
        <ele>263.8</ele>
        <time>2022-06-25T06:06:17Z</time>
      </trkpt>
      <trkpt lat="46.67111" lon="5.54114">
        <ele>264.2</ele>
        <time>2022-06-25T06:06:18Z</time>
      </trkpt>
      <trkpt lat="46.67113" lon="5.54107">
        <ele>264.2</ele>
        <time>2022-06-25T06:06:19Z</time>
      </trkpt>
      <trkpt lat="46.67115" lon="5.54101">
        <ele>264.4</ele>
        <time>2022-06-25T06:06:20Z</time>
      </trkpt>
      <trkpt lat="46.67117" lon="5.54094">
        <ele>264.4</ele>
        <time>2022-06-25T06:06:21Z</time>
      </trkpt>
      <trkpt lat="46.67118" lon="5.54087">
        <ele>264.6</ele>
        <time>2022-06-25T06:06:22Z</time>
      </trkpt>
      <trkpt lat="46.6712" lon="5.54081">
        <ele>264.6</ele>
        <time>2022-06-25T06:06:23Z</time>
      </trkpt>
      <trkpt lat="46.67123" lon="5.54074">
        <ele>264.8</ele>
        <time>2022-06-25T06:06:24Z</time>
      </trkpt>
      <trkpt lat="46.67125" lon="5.54068">
        <ele>264.8</ele>
        <time>2022-06-25T06:06:25Z</time>
      </trkpt>
      <trkpt lat="46.67128" lon="5.54063">
        <ele>264.8</ele>
        <time>2022-06-25T06:06:26Z</time>
      </trkpt>
      <trkpt lat="46.67131" lon="5.54059">
        <ele>264.8</ele>
        <time>2022-06-25T06:06:27Z</time>
      </trkpt>
      <trkpt lat="46.67133" lon="5.54054">
        <ele>265.2</ele>
        <time>2022-06-25T06:06:28Z</time>
      </trkpt>
      <trkpt lat="46.67135" lon="5.54049">
        <ele>265.2</ele>
        <time>2022-06-25T06:06:29Z</time>
      </trkpt>
      <trkpt lat="46.67136" lon="5.54044">
        <ele>265.2</ele>
        <time>2022-06-25T06:06:30Z</time>
      </trkpt>
      <trkpt lat="46.67136" lon="5.5404">
        <ele>265.4</ele>
        <time>2022-06-25T06:06:31Z</time>
      </trkpt>
      <trkpt lat="46.67137" lon="5.54036">
        <ele>265.4</ele>
        <time>2022-06-25T06:06:32Z</time>
      </trkpt>
      <trkpt lat="46.67137" lon="5.54032">
        <ele>265.4</ele>
        <time>2022-06-25T06:06:33Z</time>
      </trkpt>
      <trkpt lat="46.67137" lon="5.5403">
        <ele>265.4</ele>
        <time>2022-06-25T06:06:34Z</time>
      </trkpt>
      <trkpt lat="46.67136" lon="5.54028">
        <ele>265.4</ele>
        <time>2022-06-25T06:06:35Z</time>
      </trkpt>
      <trkpt lat="46.67135" lon="5.54027">
        <ele>265.6</ele>
        <time>2022-06-25T06:06:36Z</time>
      </trkpt>
      <trkpt lat="46.67134" lon="5.54025">
        <ele>265.6</ele>
        <time>2022-06-25T06:06:37Z</time>
      </trkpt>
      <trkpt lat="46.67134" lon="5.54024">
        <ele>265.6</ele>
        <time>2022-06-25T06:06:38Z</time>
      </trkpt>
      <trkpt lat="46.67134" lon="5.54022">
        <ele>265.6</ele>
        <time>2022-06-25T06:06:39Z</time>
      </trkpt>
      <trkpt lat="46.67134" lon="5.5402">
        <ele>265.6</ele>
        <time>2022-06-25T06:06:40Z</time>
      </trkpt>
      <trkpt lat="46.67135" lon="5.54017">
        <ele>265.6</ele>
        <time>2022-06-25T06:06:41Z</time>
      </trkpt>
      <trkpt lat="46.67135" lon="5.54014">
        <ele>265.8</ele>
        <time>2022-06-25T06:06:42Z</time>
      </trkpt>
      <trkpt lat="46.67136" lon="5.5401">
        <ele>265.8</ele>
        <time>2022-06-25T06:06:43Z</time>
      </trkpt>
      <trkpt lat="46.67137" lon="5.54006">
        <ele>265.8</ele>
        <time>2022-06-25T06:06:44Z</time>
      </trkpt>
      <trkpt lat="46.67138" lon="5.54002">
        <ele>266.2</ele>
        <time>2022-06-25T06:06:45Z</time>
      </trkpt>
      <trkpt lat="46.67139" lon="5.53998">
        <ele>266.2</ele>
        <time>2022-06-25T06:06:46Z</time>
      </trkpt>
      <trkpt lat="46.6714" lon="5.53994">
        <ele>266.2</ele>
        <time>2022-06-25T06:06:47Z</time>
      </trkpt>
      <trkpt lat="46.67142" lon="5.5399">
        <ele>266.6</ele>
        <time>2022-06-25T06:06:48Z</time>
      </trkpt>
      <trkpt lat="46.67143" lon="5.53985">
        <ele>266.8</ele>
        <time>2022-06-25T06:06:49Z</time>
      </trkpt>
      <trkpt lat="46.67145" lon="5.5398">
        <ele>266.8</ele>
        <time>2022-06-25T06:06:50Z</time>
      </trkpt>
      <trkpt lat="46.67147" lon="5.53976">
        <ele>267</ele>
        <time>2022-06-25T06:06:51Z</time>
      </trkpt>
      <trkpt lat="46.67149" lon="5.53971">
        <ele>267</ele>
        <time>2022-06-25T06:06:52Z</time>
      </trkpt>
      <trkpt lat="46.67151" lon="5.53967">
        <ele>267</ele>
        <time>2022-06-25T06:06:53Z</time>
      </trkpt>
      <trkpt lat="46.67153" lon="5.53961">
        <ele>267</ele>
        <time>2022-06-25T06:06:54Z</time>
      </trkpt>
      <trkpt lat="46.67155" lon="5.53955">
        <ele>267</ele>
        <time>2022-06-25T06:06:55Z</time>
      </trkpt>
      <trkpt lat="46.67157" lon="5.53949">
        <ele>267.2</ele>
        <time>2022-06-25T06:06:56Z</time>
      </trkpt>
      <trkpt lat="46.67158" lon="5.53942">
        <ele>267.2</ele>
        <time>2022-06-25T06:06:57Z</time>
      </trkpt>
      <trkpt lat="46.6716" lon="5.53935">
        <ele>267.2</ele>
        <time>2022-06-25T06:06:58Z</time>
      </trkpt>
      <trkpt lat="46.6716" lon="5.53926">
        <ele>267.2</ele>
        <time>2022-06-25T06:06:59Z</time>
      </trkpt>
      <trkpt lat="46.67161" lon="5.53918">
        <ele>267.2</ele>
        <time>2022-06-25T06:07:00Z</time>
      </trkpt>
      <trkpt lat="46.67162" lon="5.5391">
        <ele>267.2</ele>
        <time>2022-06-25T06:07:01Z</time>
      </trkpt>
      <trkpt lat="46.67163" lon="5.53903">
        <ele>267.2</ele>
        <time>2022-06-25T06:07:02Z</time>
      </trkpt>
      <trkpt lat="46.67166" lon="5.53895">
        <ele>267.2</ele>
        <time>2022-06-25T06:07:03Z</time>
      </trkpt>
      <trkpt lat="46.67168" lon="5.53888">
        <ele>267.2</ele>
        <time>2022-06-25T06:07:04Z</time>
      </trkpt>
      <trkpt lat="46.67171" lon="5.5388">
        <ele>267.2</ele>
        <time>2022-06-25T06:07:05Z</time>
      </trkpt>
      <trkpt lat="46.67173" lon="5.53871">
        <ele>267.2</ele>
        <time>2022-06-25T06:07:06Z</time>
      </trkpt>
      <trkpt lat="46.67177" lon="5.53862">
        <ele>267.2</ele>
        <time>2022-06-25T06:07:07Z</time>
      </trkpt>
      <trkpt lat="46.67179" lon="5.53853">
        <ele>267.2</ele>
        <time>2022-06-25T06:07:08Z</time>
      </trkpt>
      <trkpt lat="46.67182" lon="5.53844">
        <ele>267.2</ele>
        <time>2022-06-25T06:07:09Z</time>
      </trkpt>
      <trkpt lat="46.67184" lon="5.53836">
        <ele>267.2</ele>
        <time>2022-06-25T06:07:10Z</time>
      </trkpt>
      <trkpt lat="46.67186" lon="5.53827">
        <ele>267.4</ele>
        <time>2022-06-25T06:07:11Z</time>
      </trkpt>
      <trkpt lat="46.67188" lon="5.53819">
        <ele>267.4</ele>
        <time>2022-06-25T06:07:12Z</time>
      </trkpt>
      <trkpt lat="46.67191" lon="5.5381">
        <ele>267.4</ele>
        <time>2022-06-25T06:07:13Z</time>
      </trkpt>
      <trkpt lat="46.67193" lon="5.53801">
        <ele>267.4</ele>
        <time>2022-06-25T06:07:14Z</time>
      </trkpt>
      <trkpt lat="46.67196" lon="5.53792">
        <ele>267.4</ele>
        <time>2022-06-25T06:07:15Z</time>
      </trkpt>
      <trkpt lat="46.67198" lon="5.53783">
        <ele>267.4</ele>
        <time>2022-06-25T06:07:16Z</time>
      </trkpt>
      <trkpt lat="46.67201" lon="5.53775">
        <ele>267.4</ele>
        <time>2022-06-25T06:07:17Z</time>
      </trkpt>
      <trkpt lat="46.67203" lon="5.53766">
        <ele>267.4</ele>
        <time>2022-06-25T06:07:18Z</time>
      </trkpt>
      <trkpt lat="46.67206" lon="5.53757">
        <ele>267.4</ele>
        <time>2022-06-25T06:07:19Z</time>
      </trkpt>
      <trkpt lat="46.67208" lon="5.53748">
        <ele>267.4</ele>
        <time>2022-06-25T06:07:20Z</time>
      </trkpt>
      <trkpt lat="46.67211" lon="5.53739">
        <ele>267.4</ele>
        <time>2022-06-25T06:07:21Z</time>
      </trkpt>
      <trkpt lat="46.67214" lon="5.5373">
        <ele>267.4</ele>
        <time>2022-06-25T06:07:22Z</time>
      </trkpt>
      <trkpt lat="46.67216" lon="5.53722">
        <ele>267.4</ele>
        <time>2022-06-25T06:07:23Z</time>
      </trkpt>
      <trkpt lat="46.67219" lon="5.53713">
        <ele>267.4</ele>
        <time>2022-06-25T06:07:24Z</time>
      </trkpt>
      <trkpt lat="46.67221" lon="5.53703">
        <ele>267.4</ele>
        <time>2022-06-25T06:07:25Z</time>
      </trkpt>
      <trkpt lat="46.67224" lon="5.53694">
        <ele>267.4</ele>
        <time>2022-06-25T06:07:26Z</time>
      </trkpt>
      <trkpt lat="46.67226" lon="5.53685">
        <ele>267.4</ele>
        <time>2022-06-25T06:07:27Z</time>
      </trkpt>
      <trkpt lat="46.67228" lon="5.53676">
        <ele>267.4</ele>
        <time>2022-06-25T06:07:28Z</time>
      </trkpt>
      <trkpt lat="46.67231" lon="5.53668">
        <ele>267.4</ele>
        <time>2022-06-25T06:07:29Z</time>
      </trkpt>
      <trkpt lat="46.67233" lon="5.53659">
        <ele>267.4</ele>
        <time>2022-06-25T06:07:30Z</time>
      </trkpt>
      <trkpt lat="46.67235" lon="5.53651">
        <ele>267.4</ele>
        <time>2022-06-25T06:07:31Z</time>
      </trkpt>
      <trkpt lat="46.67238" lon="5.53642">
        <ele>267.4</ele>
        <time>2022-06-25T06:07:32Z</time>
      </trkpt>
      <trkpt lat="46.6724" lon="5.53633">
        <ele>267.4</ele>
        <time>2022-06-25T06:07:33Z</time>
      </trkpt>
      <trkpt lat="46.67242" lon="5.53624">
        <ele>267.4</ele>
        <time>2022-06-25T06:07:34Z</time>
      </trkpt>
      <trkpt lat="46.67244" lon="5.53615">
        <ele>267.4</ele>
        <time>2022-06-25T06:07:35Z</time>
      </trkpt>
      <trkpt lat="46.67247" lon="5.53606">
        <ele>267.4</ele>
        <time>2022-06-25T06:07:36Z</time>
      </trkpt>
      <trkpt lat="46.6725" lon="5.53597">
        <ele>267.4</ele>
        <time>2022-06-25T06:07:37Z</time>
      </trkpt>
      <trkpt lat="46.67253" lon="5.53588">
        <ele>267.4</ele>
        <time>2022-06-25T06:07:38Z</time>
      </trkpt>
      <trkpt lat="46.67255" lon="5.53579">
        <ele>267.4</ele>
        <time>2022-06-25T06:07:39Z</time>
      </trkpt>
      <trkpt lat="46.67258" lon="5.5357">
        <ele>267.4</ele>
        <time>2022-06-25T06:07:40Z</time>
      </trkpt>
      <trkpt lat="46.67261" lon="5.5356">
        <ele>267.4</ele>
        <time>2022-06-25T06:07:41Z</time>
      </trkpt>
      <trkpt lat="46.67264" lon="5.53551">
        <ele>267.4</ele>
        <time>2022-06-25T06:07:42Z</time>
      </trkpt>
      <trkpt lat="46.67267" lon="5.53541">
        <ele>267.4</ele>
        <time>2022-06-25T06:07:43Z</time>
      </trkpt>
      <trkpt lat="46.6727" lon="5.53531">
        <ele>267.4</ele>
        <time>2022-06-25T06:07:44Z</time>
      </trkpt>
      <trkpt lat="46.67272" lon="5.53521">
        <ele>267.2</ele>
        <time>2022-06-25T06:07:45Z</time>
      </trkpt>
      <trkpt lat="46.67275" lon="5.53511">
        <ele>267.2</ele>
        <time>2022-06-25T06:07:46Z</time>
      </trkpt>
      <trkpt lat="46.67277" lon="5.53499">
        <ele>267.2</ele>
        <time>2022-06-25T06:07:47Z</time>
      </trkpt>
      <trkpt lat="46.67279" lon="5.53488">
        <ele>266.8</ele>
        <time>2022-06-25T06:07:48Z</time>
      </trkpt>
      <trkpt lat="46.67281" lon="5.53476">
        <ele>266.8</ele>
        <time>2022-06-25T06:07:49Z</time>
      </trkpt>
      <trkpt lat="46.67282" lon="5.53464">
        <ele>266.8</ele>
        <time>2022-06-25T06:07:50Z</time>
      </trkpt>
      <trkpt lat="46.67283" lon="5.53453">
        <ele>266.8</ele>
        <time>2022-06-25T06:07:51Z</time>
      </trkpt>
      <trkpt lat="46.67284" lon="5.53441">
        <ele>266.6</ele>
        <time>2022-06-25T06:07:52Z</time>
      </trkpt>
      <trkpt lat="46.67285" lon="5.53429">
        <ele>266.6</ele>
        <time>2022-06-25T06:07:53Z</time>
      </trkpt>
      <trkpt lat="46.67286" lon="5.53417">
        <ele>266.6</ele>
        <time>2022-06-25T06:07:54Z</time>
      </trkpt>
      <trkpt lat="46.67287" lon="5.53405">
        <ele>266.4</ele>
        <time>2022-06-25T06:07:55Z</time>
      </trkpt>
      <trkpt lat="46.67287" lon="5.53393">
        <ele>266.4</ele>
        <time>2022-06-25T06:07:56Z</time>
      </trkpt>
      <trkpt lat="46.67287" lon="5.53382">
        <ele>266.2</ele>
        <time>2022-06-25T06:07:57Z</time>
      </trkpt>
      <trkpt lat="46.67287" lon="5.5337">
        <ele>266.2</ele>
        <time>2022-06-25T06:07:58Z</time>
      </trkpt>
      <trkpt lat="46.67287" lon="5.53358">
        <ele>266</ele>
        <time>2022-06-25T06:07:59Z</time>
      </trkpt>
      <trkpt lat="46.67287" lon="5.53346">
        <ele>266</ele>
        <time>2022-06-25T06:08:00Z</time>
      </trkpt>
      <trkpt lat="46.67286" lon="5.53334">
        <ele>265.8</ele>
        <time>2022-06-25T06:08:02Z</time>
      </trkpt>
      <trkpt lat="46.67286" lon="5.53322">
        <ele>265.8</ele>
        <time>2022-06-25T06:08:03Z</time>
      </trkpt>
      <trkpt lat="46.67285" lon="5.5331">
        <ele>265.8</ele>
        <time>2022-06-25T06:08:04Z</time>
      </trkpt>
      <trkpt lat="46.67285" lon="5.53299">
        <ele>265.8</ele>
        <time>2022-06-25T06:08:05Z</time>
      </trkpt>
      <trkpt lat="46.67284" lon="5.53288">
        <ele>265.8</ele>
        <time>2022-06-25T06:08:06Z</time>
      </trkpt>
      <trkpt lat="46.67283" lon="5.53277">
        <ele>265.6</ele>
        <time>2022-06-25T06:08:07Z</time>
      </trkpt>
      <trkpt lat="46.67282" lon="5.53267">
        <ele>265.6</ele>
        <time>2022-06-25T06:08:08Z</time>
      </trkpt>
      <trkpt lat="46.67281" lon="5.53257">
        <ele>265.6</ele>
        <time>2022-06-25T06:08:09Z</time>
      </trkpt>
      <trkpt lat="46.6728" lon="5.53247">
        <ele>265.2</ele>
        <time>2022-06-25T06:08:10Z</time>
      </trkpt>
      <trkpt lat="46.6728" lon="5.53238">
        <ele>265.2</ele>
        <time>2022-06-25T06:08:11Z</time>
      </trkpt>
      <trkpt lat="46.67279" lon="5.53229">
        <ele>265.2</ele>
        <time>2022-06-25T06:08:12Z</time>
      </trkpt>
      <trkpt lat="46.67279" lon="5.5322">
        <ele>265.2</ele>
        <time>2022-06-25T06:08:13Z</time>
      </trkpt>
      <trkpt lat="46.67278" lon="5.53212">
        <ele>265</ele>
        <time>2022-06-25T06:08:14Z</time>
      </trkpt>
      <trkpt lat="46.67277" lon="5.53203">
        <ele>265</ele>
        <time>2022-06-25T06:08:15Z</time>
      </trkpt>
      <trkpt lat="46.67276" lon="5.53194">
        <ele>265</ele>
        <time>2022-06-25T06:08:16Z</time>
      </trkpt>
      <trkpt lat="46.67275" lon="5.53184">
        <ele>265</ele>
        <time>2022-06-25T06:08:17Z</time>
      </trkpt>
      <trkpt lat="46.67275" lon="5.53175">
        <ele>265</ele>
        <time>2022-06-25T06:08:18Z</time>
      </trkpt>
      <trkpt lat="46.67275" lon="5.53164">
        <ele>265</ele>
        <time>2022-06-25T06:08:19Z</time>
      </trkpt>
      <trkpt lat="46.67274" lon="5.53154">
        <ele>265</ele>
        <time>2022-06-25T06:08:20Z</time>
      </trkpt>
      <trkpt lat="46.67274" lon="5.53143">
        <ele>265</ele>
        <time>2022-06-25T06:08:21Z</time>
      </trkpt>
      <trkpt lat="46.67274" lon="5.53133">
        <ele>265</ele>
        <time>2022-06-25T06:08:22Z</time>
      </trkpt>
      <trkpt lat="46.67274" lon="5.53122">
        <ele>264.8</ele>
        <time>2022-06-25T06:08:23Z</time>
      </trkpt>
      <trkpt lat="46.67274" lon="5.5311">
        <ele>264.8</ele>
        <time>2022-06-25T06:08:24Z</time>
      </trkpt>
      <trkpt lat="46.67274" lon="5.53099">
        <ele>264.8</ele>
        <time>2022-06-25T06:08:25Z</time>
      </trkpt>
      <trkpt lat="46.67274" lon="5.53088">
        <ele>264.8</ele>
        <time>2022-06-25T06:08:26Z</time>
      </trkpt>
      <trkpt lat="46.67274" lon="5.53076">
        <ele>264.8</ele>
        <time>2022-06-25T06:08:27Z</time>
      </trkpt>
      <trkpt lat="46.67273" lon="5.53064">
        <ele>264.8</ele>
        <time>2022-06-25T06:08:28Z</time>
      </trkpt>
      <trkpt lat="46.67273" lon="5.53052">
        <ele>264.4</ele>
        <time>2022-06-25T06:08:29Z</time>
      </trkpt>
      <trkpt lat="46.67272" lon="5.53041">
        <ele>264.4</ele>
        <time>2022-06-25T06:08:30Z</time>
      </trkpt>
      <trkpt lat="46.67272" lon="5.53029">
        <ele>264.4</ele>
        <time>2022-06-25T06:08:31Z</time>
      </trkpt>
      <trkpt lat="46.67271" lon="5.53017">
        <ele>264.4</ele>
        <time>2022-06-25T06:08:32Z</time>
      </trkpt>
      <trkpt lat="46.6727" lon="5.53005">
        <ele>264.2</ele>
        <time>2022-06-25T06:08:33Z</time>
      </trkpt>
      <trkpt lat="46.6727" lon="5.52993">
        <ele>264.2</ele>
        <time>2022-06-25T06:08:34Z</time>
      </trkpt>
      <trkpt lat="46.67269" lon="5.52981">
        <ele>264.2</ele>
        <time>2022-06-25T06:08:35Z</time>
      </trkpt>
      <trkpt lat="46.67268" lon="5.52969">
        <ele>264</ele>
        <time>2022-06-25T06:08:36Z</time>
      </trkpt>
      <trkpt lat="46.67268" lon="5.52958">
        <ele>264</ele>
        <time>2022-06-25T06:08:37Z</time>
      </trkpt>
      <trkpt lat="46.67267" lon="5.52946">
        <ele>264</ele>
        <time>2022-06-25T06:08:38Z</time>
      </trkpt>
      <trkpt lat="46.67266" lon="5.52934">
        <ele>264</ele>
        <time>2022-06-25T06:08:39Z</time>
      </trkpt>
      <trkpt lat="46.67266" lon="5.52922">
        <ele>263.8</ele>
        <time>2022-06-25T06:08:40Z</time>
      </trkpt>
      <trkpt lat="46.67265" lon="5.5291">
        <ele>263.8</ele>
        <time>2022-06-25T06:08:41Z</time>
      </trkpt>
      <trkpt lat="46.67264" lon="5.52899">
        <ele>263.8</ele>
        <time>2022-06-25T06:08:42Z</time>
      </trkpt>
      <trkpt lat="46.67264" lon="5.52888">
        <ele>263.8</ele>
        <time>2022-06-25T06:08:43Z</time>
      </trkpt>
      <trkpt lat="46.67263" lon="5.52876">
        <ele>263.8</ele>
        <time>2022-06-25T06:08:44Z</time>
      </trkpt>
      <trkpt lat="46.67262" lon="5.52864">
        <ele>263.4</ele>
        <time>2022-06-25T06:08:45Z</time>
      </trkpt>
      <trkpt lat="46.67262" lon="5.52853">
        <ele>263.4</ele>
        <time>2022-06-25T06:08:46Z</time>
      </trkpt>
      <trkpt lat="46.67261" lon="5.52841">
        <ele>263.2</ele>
        <time>2022-06-25T06:08:47Z</time>
      </trkpt>
      <trkpt lat="46.67261" lon="5.52829">
        <ele>263.2</ele>
        <time>2022-06-25T06:08:48Z</time>
      </trkpt>
      <trkpt lat="46.6726" lon="5.52817">
        <ele>263.2</ele>
        <time>2022-06-25T06:08:49Z</time>
      </trkpt>
      <trkpt lat="46.6726" lon="5.52806">
        <ele>262.8</ele>
        <time>2022-06-25T06:08:50Z</time>
      </trkpt>
      <trkpt lat="46.67259" lon="5.52794">
        <ele>262.8</ele>
        <time>2022-06-25T06:08:51Z</time>
      </trkpt>
      <trkpt lat="46.67258" lon="5.52782">
        <ele>262.6</ele>
        <time>2022-06-25T06:08:52Z</time>
      </trkpt>
      <trkpt lat="46.67257" lon="5.5277">
        <ele>262.6</ele>
        <time>2022-06-25T06:08:53Z</time>
      </trkpt>
      <trkpt lat="46.67257" lon="5.52758">
        <ele>262.2</ele>
        <time>2022-06-25T06:08:54Z</time>
      </trkpt>
      <trkpt lat="46.67256" lon="5.52746">
        <ele>262.2</ele>
        <time>2022-06-25T06:08:55Z</time>
      </trkpt>
      <trkpt lat="46.67255" lon="5.52734">
        <ele>262.2</ele>
        <time>2022-06-25T06:08:56Z</time>
      </trkpt>
      <trkpt lat="46.67255" lon="5.52722">
        <ele>262</ele>
        <time>2022-06-25T06:08:57Z</time>
      </trkpt>
      <trkpt lat="46.67254" lon="5.5271">
        <ele>262</ele>
        <time>2022-06-25T06:08:58Z</time>
      </trkpt>
      <trkpt lat="46.67254" lon="5.52697">
        <ele>261.6</ele>
        <time>2022-06-25T06:08:59Z</time>
      </trkpt>
      <trkpt lat="46.67253" lon="5.52685">
        <ele>261.6</ele>
        <time>2022-06-25T06:09:00Z</time>
      </trkpt>
      <trkpt lat="46.67253" lon="5.52673">
        <ele>261.6</ele>
        <time>2022-06-25T06:09:01Z</time>
      </trkpt>
      <trkpt lat="46.67253" lon="5.52661">
        <ele>261.4</ele>
        <time>2022-06-25T06:09:02Z</time>
      </trkpt>
      <trkpt lat="46.67253" lon="5.52649">
        <ele>261.4</ele>
        <time>2022-06-25T06:09:03Z</time>
      </trkpt>
      <trkpt lat="46.67252" lon="5.52636">
        <ele>261.2</ele>
        <time>2022-06-25T06:09:04Z</time>
      </trkpt>
      <trkpt lat="46.67252" lon="5.52624">
        <ele>261.2</ele>
        <time>2022-06-25T06:09:05Z</time>
      </trkpt>
      <trkpt lat="46.67252" lon="5.52612">
        <ele>260.8</ele>
        <time>2022-06-25T06:09:06Z</time>
      </trkpt>
      <trkpt lat="46.67253" lon="5.526">
        <ele>260.6</ele>
        <time>2022-06-25T06:09:07Z</time>
      </trkpt>
      <trkpt lat="46.67254" lon="5.52588">
        <ele>260.6</ele>
        <time>2022-06-25T06:09:08Z</time>
      </trkpt>
      <trkpt lat="46.67254" lon="5.52576">
        <ele>260.4</ele>
        <time>2022-06-25T06:09:09Z</time>
      </trkpt>
      <trkpt lat="46.67255" lon="5.52565">
        <ele>260.4</ele>
        <time>2022-06-25T06:09:10Z</time>
      </trkpt>
      <trkpt lat="46.67256" lon="5.52554">
        <ele>260</ele>
        <time>2022-06-25T06:09:11Z</time>
      </trkpt>
      <trkpt lat="46.67257" lon="5.52543">
        <ele>260</ele>
        <time>2022-06-25T06:09:12Z</time>
      </trkpt>
      <trkpt lat="46.67258" lon="5.52532">
        <ele>259.8</ele>
        <time>2022-06-25T06:09:13Z</time>
      </trkpt>
      <trkpt lat="46.6726" lon="5.52521">
        <ele>259.8</ele>
        <time>2022-06-25T06:09:14Z</time>
      </trkpt>
      <trkpt lat="46.67262" lon="5.5251">
        <ele>259.8</ele>
        <time>2022-06-25T06:09:15Z</time>
      </trkpt>
      <trkpt lat="46.67263" lon="5.525">
        <ele>259.4</ele>
        <time>2022-06-25T06:09:16Z</time>
      </trkpt>
      <trkpt lat="46.67265" lon="5.52489">
        <ele>259.4</ele>
        <time>2022-06-25T06:09:17Z</time>
      </trkpt>
      <trkpt lat="46.67267" lon="5.52479">
        <ele>259.2</ele>
        <time>2022-06-25T06:09:18Z</time>
      </trkpt>
      <trkpt lat="46.67269" lon="5.52469">
        <ele>259.2</ele>
        <time>2022-06-25T06:09:19Z</time>
      </trkpt>
      <trkpt lat="46.67271" lon="5.52459">
        <ele>259.2</ele>
        <time>2022-06-25T06:09:20Z</time>
      </trkpt>
      <trkpt lat="46.67272" lon="5.52449">
        <ele>259.2</ele>
        <time>2022-06-25T06:09:21Z</time>
      </trkpt>
      <trkpt lat="46.67275" lon="5.52439">
        <ele>259.2</ele>
        <time>2022-06-25T06:09:22Z</time>
      </trkpt>
      <trkpt lat="46.67277" lon="5.52429">
        <ele>259</ele>
        <time>2022-06-25T06:09:23Z</time>
      </trkpt>
      <trkpt lat="46.67279" lon="5.52419">
        <ele>259</ele>
        <time>2022-06-25T06:09:24Z</time>
      </trkpt>
      <trkpt lat="46.67282" lon="5.5241">
        <ele>259</ele>
        <time>2022-06-25T06:09:25Z</time>
      </trkpt>
      <trkpt lat="46.67284" lon="5.524">
        <ele>259</ele>
        <time>2022-06-25T06:09:26Z</time>
      </trkpt>
      <trkpt lat="46.67287" lon="5.52391">
        <ele>259</ele>
        <time>2022-06-25T06:09:27Z</time>
      </trkpt>
      <trkpt lat="46.67289" lon="5.52383">
        <ele>259</ele>
        <time>2022-06-25T06:09:28Z</time>
      </trkpt>
      <trkpt lat="46.67292" lon="5.52375">
        <ele>259</ele>
        <time>2022-06-25T06:09:29Z</time>
      </trkpt>
      <trkpt lat="46.67295" lon="5.52367">
        <ele>259</ele>
        <time>2022-06-25T06:09:30Z</time>
      </trkpt>
      <trkpt lat="46.67298" lon="5.5236">
        <ele>259</ele>
        <time>2022-06-25T06:09:31Z</time>
      </trkpt>
      <trkpt lat="46.67301" lon="5.52351">
        <ele>258.8</ele>
        <time>2022-06-25T06:09:32Z</time>
      </trkpt>
      <trkpt lat="46.67304" lon="5.52342">
        <ele>258.8</ele>
        <time>2022-06-25T06:09:33Z</time>
      </trkpt>
      <trkpt lat="46.67307" lon="5.52333">
        <ele>258.8</ele>
        <time>2022-06-25T06:09:34Z</time>
      </trkpt>
      <trkpt lat="46.67311" lon="5.52324">
        <ele>258.8</ele>
        <time>2022-06-25T06:09:35Z</time>
      </trkpt>
      <trkpt lat="46.67314" lon="5.52315">
        <ele>258.8</ele>
        <time>2022-06-25T06:09:36Z</time>
      </trkpt>
      <trkpt lat="46.67318" lon="5.52306">
        <ele>258.4</ele>
        <time>2022-06-25T06:09:37Z</time>
      </trkpt>
      <trkpt lat="46.67321" lon="5.52297">
        <ele>258.4</ele>
        <time>2022-06-25T06:09:38Z</time>
      </trkpt>
      <trkpt lat="46.67324" lon="5.52287">
        <ele>258.4</ele>
        <time>2022-06-25T06:09:39Z</time>
      </trkpt>
      <trkpt lat="46.67328" lon="5.52278">
        <ele>258.2</ele>
        <time>2022-06-25T06:09:40Z</time>
      </trkpt>
      <trkpt lat="46.67331" lon="5.52269">
        <ele>258.2</ele>
        <time>2022-06-25T06:09:41Z</time>
      </trkpt>
      <trkpt lat="46.67335" lon="5.52259">
        <ele>258.2</ele>
        <time>2022-06-25T06:09:42Z</time>
      </trkpt>
      <trkpt lat="46.67338" lon="5.5225">
        <ele>258.2</ele>
        <time>2022-06-25T06:09:43Z</time>
      </trkpt>
      <trkpt lat="46.67342" lon="5.5224">
        <ele>258.2</ele>
        <time>2022-06-25T06:09:44Z</time>
      </trkpt>
      <trkpt lat="46.67346" lon="5.5223">
        <ele>258.2</ele>
        <time>2022-06-25T06:09:45Z</time>
      </trkpt>
      <trkpt lat="46.67349" lon="5.5222">
        <ele>258.2</ele>
        <time>2022-06-25T06:09:46Z</time>
      </trkpt>
      <trkpt lat="46.67353" lon="5.52211">
        <ele>258</ele>
        <time>2022-06-25T06:09:47Z</time>
      </trkpt>
      <trkpt lat="46.67356" lon="5.52201">
        <ele>258</ele>
        <time>2022-06-25T06:09:48Z</time>
      </trkpt>
      <trkpt lat="46.6736" lon="5.52191">
        <ele>257.8</ele>
        <time>2022-06-25T06:09:49Z</time>
      </trkpt>
      <trkpt lat="46.67364" lon="5.52182">
        <ele>257.8</ele>
        <time>2022-06-25T06:09:50Z</time>
      </trkpt>
      <trkpt lat="46.67367" lon="5.52172">
        <ele>257.8</ele>
        <time>2022-06-25T06:09:51Z</time>
      </trkpt>
      <trkpt lat="46.6737" lon="5.52162">
        <ele>257.8</ele>
        <time>2022-06-25T06:09:52Z</time>
      </trkpt>
      <trkpt lat="46.67374" lon="5.52153">
        <ele>257.6</ele>
        <time>2022-06-25T06:09:53Z</time>
      </trkpt>
      <trkpt lat="46.67378" lon="5.52143">
        <ele>257.6</ele>
        <time>2022-06-25T06:09:54Z</time>
      </trkpt>
      <trkpt lat="46.67382" lon="5.52134">
        <ele>257.6</ele>
        <time>2022-06-25T06:09:55Z</time>
      </trkpt>
      <trkpt lat="46.67385" lon="5.52124">
        <ele>257.2</ele>
        <time>2022-06-25T06:09:56Z</time>
      </trkpt>
      <trkpt lat="46.67389" lon="5.52115">
        <ele>257.2</ele>
        <time>2022-06-25T06:09:57Z</time>
      </trkpt>
      <trkpt lat="46.67393" lon="5.52105">
        <ele>257.2</ele>
        <time>2022-06-25T06:09:58Z</time>
      </trkpt>
      <trkpt lat="46.67396" lon="5.52096">
        <ele>257.2</ele>
        <time>2022-06-25T06:09:59Z</time>
      </trkpt>
      <trkpt lat="46.674" lon="5.52086">
        <ele>257.2</ele>
        <time>2022-06-25T06:10:00Z</time>
      </trkpt>
      <trkpt lat="46.67403" lon="5.52077">
        <ele>256.8</ele>
        <time>2022-06-25T06:10:01Z</time>
      </trkpt>
      <trkpt lat="46.67407" lon="5.52067">
        <ele>256.8</ele>
        <time>2022-06-25T06:10:02Z</time>
      </trkpt>
      <trkpt lat="46.67411" lon="5.52058">
        <ele>256.8</ele>
        <time>2022-06-25T06:10:03Z</time>
      </trkpt>
      <trkpt lat="46.67415" lon="5.5205">
        <ele>256.6</ele>
        <time>2022-06-25T06:10:04Z</time>
      </trkpt>
      <trkpt lat="46.67419" lon="5.5204">
        <ele>256.6</ele>
        <time>2022-06-25T06:10:05Z</time>
      </trkpt>
      <trkpt lat="46.67423" lon="5.52031">
        <ele>256.6</ele>
        <time>2022-06-25T06:10:06Z</time>
      </trkpt>
      <trkpt lat="46.67427" lon="5.52022">
        <ele>256.4</ele>
        <time>2022-06-25T06:10:07Z</time>
      </trkpt>
      <trkpt lat="46.67431" lon="5.52013">
        <ele>256.4</ele>
        <time>2022-06-25T06:10:08Z</time>
      </trkpt>
      <trkpt lat="46.67435" lon="5.52004">
        <ele>256.2</ele>
        <time>2022-06-25T06:10:09Z</time>
      </trkpt>
      <trkpt lat="46.67439" lon="5.51995">
        <ele>256.2</ele>
        <time>2022-06-25T06:10:10Z</time>
      </trkpt>
      <trkpt lat="46.67443" lon="5.51986">
        <ele>256.2</ele>
        <time>2022-06-25T06:10:11Z</time>
      </trkpt>
      <trkpt lat="46.67446" lon="5.51977">
        <ele>256.2</ele>
        <time>2022-06-25T06:10:12Z</time>
      </trkpt>
      <trkpt lat="46.6745" lon="5.51968">
        <ele>255.8</ele>
        <time>2022-06-25T06:10:13Z</time>
      </trkpt>
      <trkpt lat="46.67453" lon="5.51959">
        <ele>255.8</ele>
        <time>2022-06-25T06:10:14Z</time>
      </trkpt>
      <trkpt lat="46.67457" lon="5.51951">
        <ele>255.8</ele>
        <time>2022-06-25T06:10:15Z</time>
      </trkpt>
      <trkpt lat="46.6746" lon="5.51942">
        <ele>255.6</ele>
        <time>2022-06-25T06:10:16Z</time>
      </trkpt>
      <trkpt lat="46.67463" lon="5.51933">
        <ele>255.6</ele>
        <time>2022-06-25T06:10:17Z</time>
      </trkpt>
      <trkpt lat="46.67466" lon="5.51924">
        <ele>255.6</ele>
        <time>2022-06-25T06:10:18Z</time>
      </trkpt>
      <trkpt lat="46.67469" lon="5.51915">
        <ele>255.6</ele>
        <time>2022-06-25T06:10:19Z</time>
      </trkpt>
      <trkpt lat="46.67472" lon="5.51905">
        <ele>255.4</ele>
        <time>2022-06-25T06:10:20Z</time>
      </trkpt>
      <trkpt lat="46.67476" lon="5.51896">
        <ele>255.4</ele>
        <time>2022-06-25T06:10:21Z</time>
      </trkpt>
      <trkpt lat="46.67479" lon="5.51886">
        <ele>255</ele>
        <time>2022-06-25T06:10:22Z</time>
      </trkpt>
      <trkpt lat="46.67482" lon="5.51876">
        <ele>254.8</ele>
        <time>2022-06-25T06:10:23Z</time>
      </trkpt>
      <trkpt lat="46.67485" lon="5.51867">
        <ele>254.8</ele>
        <time>2022-06-25T06:10:24Z</time>
      </trkpt>
      <trkpt lat="46.67488" lon="5.51857">
        <ele>254.6</ele>
        <time>2022-06-25T06:10:25Z</time>
      </trkpt>
      <trkpt lat="46.67491" lon="5.51847">
        <ele>254.6</ele>
        <time>2022-06-25T06:10:26Z</time>
      </trkpt>
      <trkpt lat="46.67494" lon="5.51837">
        <ele>254.4</ele>
        <time>2022-06-25T06:10:27Z</time>
      </trkpt>
      <trkpt lat="46.67498" lon="5.51828">
        <ele>254.4</ele>
        <time>2022-06-25T06:10:28Z</time>
      </trkpt>
      <trkpt lat="46.67501" lon="5.51818">
        <ele>254</ele>
        <time>2022-06-25T06:10:29Z</time>
      </trkpt>
      <trkpt lat="46.67504" lon="5.51809">
        <ele>254</ele>
        <time>2022-06-25T06:10:30Z</time>
      </trkpt>
      <trkpt lat="46.67507" lon="5.518">
        <ele>254</ele>
        <time>2022-06-25T06:10:31Z</time>
      </trkpt>
      <trkpt lat="46.67509" lon="5.51789">
        <ele>253.8</ele>
        <time>2022-06-25T06:10:32Z</time>
      </trkpt>
      <trkpt lat="46.67512" lon="5.5178">
        <ele>253.8</ele>
        <time>2022-06-25T06:10:33Z</time>
      </trkpt>
      <trkpt lat="46.67514" lon="5.5177">
        <ele>253.8</ele>
        <time>2022-06-25T06:10:34Z</time>
      </trkpt>
      <trkpt lat="46.67517" lon="5.5176">
        <ele>253.4</ele>
        <time>2022-06-25T06:10:35Z</time>
      </trkpt>
      <trkpt lat="46.67519" lon="5.51751">
        <ele>253.4</ele>
        <time>2022-06-25T06:10:36Z</time>
      </trkpt>
      <trkpt lat="46.67521" lon="5.51741">
        <ele>253.4</ele>
        <time>2022-06-25T06:10:37Z</time>
      </trkpt>
      <trkpt lat="46.67522" lon="5.51728">
        <ele>253.2</ele>
        <time>2022-06-25T06:10:38Z</time>
      </trkpt>
      <trkpt lat="46.67523" lon="5.51716">
        <ele>253.2</ele>
        <time>2022-06-25T06:10:39Z</time>
      </trkpt>
      <trkpt lat="46.67524" lon="5.51705">
        <ele>253.2</ele>
        <time>2022-06-25T06:10:40Z</time>
      </trkpt>
      <trkpt lat="46.67526" lon="5.51693">
        <ele>253.2</ele>
        <time>2022-06-25T06:10:41Z</time>
      </trkpt>
      <trkpt lat="46.67527" lon="5.51682">
        <ele>253</ele>
        <time>2022-06-25T06:10:42Z</time>
      </trkpt>
      <trkpt lat="46.67529" lon="5.51672">
        <ele>253</ele>
        <time>2022-06-25T06:10:43Z</time>
      </trkpt>
      <trkpt lat="46.6753" lon="5.51663">
        <ele>253</ele>
        <time>2022-06-25T06:10:44Z</time>
      </trkpt>
      <trkpt lat="46.67532" lon="5.51652">
        <ele>253</ele>
        <time>2022-06-25T06:10:45Z</time>
      </trkpt>
      <trkpt lat="46.67533" lon="5.51642">
        <ele>252.8</ele>
        <time>2022-06-25T06:10:46Z</time>
      </trkpt>
      <trkpt lat="46.67535" lon="5.51632">
        <ele>252.8</ele>
        <time>2022-06-25T06:10:47Z</time>
      </trkpt>
      <trkpt lat="46.67537" lon="5.51623">
        <ele>252.8</ele>
        <time>2022-06-25T06:10:48Z</time>
      </trkpt>
      <trkpt lat="46.67538" lon="5.51612">
        <ele>252.8</ele>
        <time>2022-06-25T06:10:49Z</time>
      </trkpt>
      <trkpt lat="46.67539" lon="5.51603">
        <ele>252.8</ele>
        <time>2022-06-25T06:10:50Z</time>
      </trkpt>
      <trkpt lat="46.6754" lon="5.51593">
        <ele>252.8</ele>
        <time>2022-06-25T06:10:51Z</time>
      </trkpt>
      <trkpt lat="46.67543" lon="5.51574">
        <ele>252.6</ele>
        <time>2022-06-25T06:10:52Z</time>
      </trkpt>
      <trkpt lat="46.67544" lon="5.51564">
        <ele>252.6</ele>
        <time>2022-06-25T06:10:53Z</time>
      </trkpt>
      <trkpt lat="46.67545" lon="5.51553">
        <ele>252.6</ele>
        <time>2022-06-25T06:10:54Z</time>
      </trkpt>
      <trkpt lat="46.67545" lon="5.51543">
        <ele>252.6</ele>
        <time>2022-06-25T06:10:55Z</time>
      </trkpt>
      <trkpt lat="46.67546" lon="5.51533">
        <ele>252.6</ele>
        <time>2022-06-25T06:10:56Z</time>
      </trkpt>
      <trkpt lat="46.67547" lon="5.51524">
        <ele>252.6</ele>
        <time>2022-06-25T06:10:57Z</time>
      </trkpt>
      <trkpt lat="46.67548" lon="5.51514">
        <ele>252.4</ele>
        <time>2022-06-25T06:10:58Z</time>
      </trkpt>
      <trkpt lat="46.67548" lon="5.51505">
        <ele>252.4</ele>
        <time>2022-06-25T06:10:59Z</time>
      </trkpt>
      <trkpt lat="46.6755" lon="5.51496">
        <ele>252.4</ele>
        <time>2022-06-25T06:11:00Z</time>
      </trkpt>
      <trkpt lat="46.67551" lon="5.51487">
        <ele>252.4</ele>
        <time>2022-06-25T06:11:01Z</time>
      </trkpt>
      <trkpt lat="46.67552" lon="5.51477">
        <ele>252</ele>
        <time>2022-06-25T06:11:02Z</time>
      </trkpt>
      <trkpt lat="46.67552" lon="5.51466">
        <ele>252</ele>
        <time>2022-06-25T06:11:03Z</time>
      </trkpt>
      <trkpt lat="46.67552" lon="5.51455">
        <ele>252</ele>
        <time>2022-06-25T06:11:04Z</time>
      </trkpt>
      <trkpt lat="46.67553" lon="5.51444">
        <ele>252</ele>
        <time>2022-06-25T06:11:05Z</time>
      </trkpt>
      <trkpt lat="46.67553" lon="5.51433">
        <ele>252</ele>
        <time>2022-06-25T06:11:06Z</time>
      </trkpt>
      <trkpt lat="46.67554" lon="5.51423">
        <ele>252</ele>
        <time>2022-06-25T06:11:07Z</time>
      </trkpt>
      <trkpt lat="46.67555" lon="5.51412">
        <ele>252</ele>
        <time>2022-06-25T06:11:08Z</time>
      </trkpt>
      <trkpt lat="46.67555" lon="5.51401">
        <ele>251.8</ele>
        <time>2022-06-25T06:11:09Z</time>
      </trkpt>
      <trkpt lat="46.67556" lon="5.5139">
        <ele>251.8</ele>
        <time>2022-06-25T06:11:10Z</time>
      </trkpt>
      <trkpt lat="46.67557" lon="5.51379">
        <ele>251.6</ele>
        <time>2022-06-25T06:11:11Z</time>
      </trkpt>
      <trkpt lat="46.67558" lon="5.51368">
        <ele>251.6</ele>
        <time>2022-06-25T06:11:12Z</time>
      </trkpt>
      <trkpt lat="46.67559" lon="5.51358">
        <ele>251.4</ele>
        <time>2022-06-25T06:11:13Z</time>
      </trkpt>
      <trkpt lat="46.6756" lon="5.51347">
        <ele>251.4</ele>
        <time>2022-06-25T06:11:14Z</time>
      </trkpt>
      <trkpt lat="46.6756" lon="5.51336">
        <ele>251.2</ele>
        <time>2022-06-25T06:11:15Z</time>
      </trkpt>
      <trkpt lat="46.6756" lon="5.51326">
        <ele>251.2</ele>
        <time>2022-06-25T06:11:16Z</time>
      </trkpt>
      <trkpt lat="46.67561" lon="5.51315">
        <ele>251.2</ele>
        <time>2022-06-25T06:11:17Z</time>
      </trkpt>
      <trkpt lat="46.67562" lon="5.51304">
        <ele>251.2</ele>
        <time>2022-06-25T06:11:18Z</time>
      </trkpt>
      <trkpt lat="46.67562" lon="5.51294">
        <ele>250.8</ele>
        <time>2022-06-25T06:11:19Z</time>
      </trkpt>
      <trkpt lat="46.67562" lon="5.51284">
        <ele>250.8</ele>
        <time>2022-06-25T06:11:20Z</time>
      </trkpt>
      <trkpt lat="46.67563" lon="5.51273">
        <ele>250.6</ele>
        <time>2022-06-25T06:11:21Z</time>
      </trkpt>
      <trkpt lat="46.67563" lon="5.51263">
        <ele>250.6</ele>
        <time>2022-06-25T06:11:22Z</time>
      </trkpt>
      <trkpt lat="46.67563" lon="5.51253">
        <ele>250.6</ele>
        <time>2022-06-25T06:11:23Z</time>
      </trkpt>
      <trkpt lat="46.67564" lon="5.51242">
        <ele>250.4</ele>
        <time>2022-06-25T06:11:24Z</time>
      </trkpt>
      <trkpt lat="46.67565" lon="5.51232">
        <ele>250.4</ele>
        <time>2022-06-25T06:11:25Z</time>
      </trkpt>
      <trkpt lat="46.67565" lon="5.51222">
        <ele>250.4</ele>
        <time>2022-06-25T06:11:26Z</time>
      </trkpt>
      <trkpt lat="46.67566" lon="5.51212">
        <ele>250.4</ele>
        <time>2022-06-25T06:11:27Z</time>
      </trkpt>
      <trkpt lat="46.67566" lon="5.51203">
        <ele>250.2</ele>
        <time>2022-06-25T06:11:28Z</time>
      </trkpt>
      <trkpt lat="46.67567" lon="5.51193">
        <ele>250.2</ele>
        <time>2022-06-25T06:11:29Z</time>
      </trkpt>
      <trkpt lat="46.67567" lon="5.51183">
        <ele>250.2</ele>
        <time>2022-06-25T06:11:30Z</time>
      </trkpt>
      <trkpt lat="46.67568" lon="5.51172">
        <ele>250</ele>
        <time>2022-06-25T06:11:31Z</time>
      </trkpt>
      <trkpt lat="46.67568" lon="5.51161">
        <ele>250</ele>
        <time>2022-06-25T06:11:32Z</time>
      </trkpt>
      <trkpt lat="46.67569" lon="5.5115">
        <ele>249.6</ele>
        <time>2022-06-25T06:11:33Z</time>
      </trkpt>
      <trkpt lat="46.6757" lon="5.51137">
        <ele>249.6</ele>
        <time>2022-06-25T06:11:34Z</time>
      </trkpt>
      <trkpt lat="46.67571" lon="5.51125">
        <ele>249.6</ele>
        <time>2022-06-25T06:11:35Z</time>
      </trkpt>
      <trkpt lat="46.67571" lon="5.51113">
        <ele>249.4</ele>
        <time>2022-06-25T06:11:36Z</time>
      </trkpt>
      <trkpt lat="46.67572" lon="5.51101">
        <ele>249.4</ele>
        <time>2022-06-25T06:11:37Z</time>
      </trkpt>
      <trkpt lat="46.67573" lon="5.51089">
        <ele>249.4</ele>
        <time>2022-06-25T06:11:38Z</time>
      </trkpt>
      <trkpt lat="46.67574" lon="5.51078">
        <ele>249.4</ele>
        <time>2022-06-25T06:11:39Z</time>
      </trkpt>
      <trkpt lat="46.67574" lon="5.51067">
        <ele>249.4</ele>
        <time>2022-06-25T06:11:40Z</time>
      </trkpt>
      <trkpt lat="46.67574" lon="5.51056">
        <ele>249</ele>
        <time>2022-06-25T06:11:41Z</time>
      </trkpt>
      <trkpt lat="46.67575" lon="5.51045">
        <ele>249</ele>
        <time>2022-06-25T06:11:42Z</time>
      </trkpt>
      <trkpt lat="46.67576" lon="5.51034">
        <ele>249</ele>
        <time>2022-06-25T06:11:43Z</time>
      </trkpt>
      <trkpt lat="46.67577" lon="5.51023">
        <ele>248.8</ele>
        <time>2022-06-25T06:11:44Z</time>
      </trkpt>
      <trkpt lat="46.67577" lon="5.51013">
        <ele>248.8</ele>
        <time>2022-06-25T06:11:45Z</time>
      </trkpt>
      <trkpt lat="46.67578" lon="5.51002">
        <ele>248.8</ele>
        <time>2022-06-25T06:11:46Z</time>
      </trkpt>
      <trkpt lat="46.67579" lon="5.50992">
        <ele>248.6</ele>
        <time>2022-06-25T06:11:47Z</time>
      </trkpt>
      <trkpt lat="46.6758" lon="5.50981">
        <ele>248.6</ele>
        <time>2022-06-25T06:11:48Z</time>
      </trkpt>
      <trkpt lat="46.6758" lon="5.50971">
        <ele>248.6</ele>
        <time>2022-06-25T06:11:49Z</time>
      </trkpt>
      <trkpt lat="46.67581" lon="5.50961">
        <ele>248.6</ele>
        <time>2022-06-25T06:11:50Z</time>
      </trkpt>
      <trkpt lat="46.67582" lon="5.5095">
        <ele>248.6</ele>
        <time>2022-06-25T06:11:51Z</time>
      </trkpt>
      <trkpt lat="46.67583" lon="5.50941">
        <ele>248.6</ele>
        <time>2022-06-25T06:11:52Z</time>
      </trkpt>
      <trkpt lat="46.67583" lon="5.50931">
        <ele>248.6</ele>
        <time>2022-06-25T06:11:53Z</time>
      </trkpt>
      <trkpt lat="46.67584" lon="5.50921">
        <ele>248.6</ele>
        <time>2022-06-25T06:11:54Z</time>
      </trkpt>
      <trkpt lat="46.67585" lon="5.50911">
        <ele>248.6</ele>
        <time>2022-06-25T06:11:55Z</time>
      </trkpt>
      <trkpt lat="46.67586" lon="5.50901">
        <ele>248.2</ele>
        <time>2022-06-25T06:11:56Z</time>
      </trkpt>
      <trkpt lat="46.67587" lon="5.50891">
        <ele>248.2</ele>
        <time>2022-06-25T06:11:57Z</time>
      </trkpt>
      <trkpt lat="46.67588" lon="5.5088">
        <ele>248</ele>
        <time>2022-06-25T06:11:58Z</time>
      </trkpt>
      <trkpt lat="46.67588" lon="5.50869">
        <ele>248</ele>
        <time>2022-06-25T06:11:59Z</time>
      </trkpt>
      <trkpt lat="46.67589" lon="5.50858">
        <ele>247.8</ele>
        <time>2022-06-25T06:12:00Z</time>
      </trkpt>
      <trkpt lat="46.6759" lon="5.50846">
        <ele>247.8</ele>
        <time>2022-06-25T06:12:01Z</time>
      </trkpt>
      <trkpt lat="46.67591" lon="5.50835">
        <ele>247.4</ele>
        <time>2022-06-25T06:12:02Z</time>
      </trkpt>
      <trkpt lat="46.67592" lon="5.50823">
        <ele>247.4</ele>
        <time>2022-06-25T06:12:03Z</time>
      </trkpt>
      <trkpt lat="46.67593" lon="5.50812">
        <ele>247.4</ele>
        <time>2022-06-25T06:12:04Z</time>
      </trkpt>
      <trkpt lat="46.67593" lon="5.508">
        <ele>247.4</ele>
        <time>2022-06-25T06:12:05Z</time>
      </trkpt>
      <trkpt lat="46.67594" lon="5.50788">
        <ele>247.4</ele>
        <time>2022-06-25T06:12:06Z</time>
      </trkpt>
      <trkpt lat="46.67594" lon="5.50777">
        <ele>247.2</ele>
        <time>2022-06-25T06:12:07Z</time>
      </trkpt>
      <trkpt lat="46.67594" lon="5.50766">
        <ele>247.2</ele>
        <time>2022-06-25T06:12:08Z</time>
      </trkpt>
      <trkpt lat="46.67595" lon="5.50754">
        <ele>247.2</ele>
        <time>2022-06-25T06:12:09Z</time>
      </trkpt>
      <trkpt lat="46.67595" lon="5.50743">
        <ele>247</ele>
        <time>2022-06-25T06:12:10Z</time>
      </trkpt>
      <trkpt lat="46.67596" lon="5.50731">
        <ele>247</ele>
        <time>2022-06-25T06:12:11Z</time>
      </trkpt>
      <trkpt lat="46.67596" lon="5.5072">
        <ele>247</ele>
        <time>2022-06-25T06:12:12Z</time>
      </trkpt>
      <trkpt lat="46.67596" lon="5.50708">
        <ele>247</ele>
        <time>2022-06-25T06:12:13Z</time>
      </trkpt>
      <trkpt lat="46.67597" lon="5.50697">
        <ele>246.6</ele>
        <time>2022-06-25T06:12:14Z</time>
      </trkpt>
      <trkpt lat="46.67597" lon="5.50685">
        <ele>246.6</ele>
        <time>2022-06-25T06:12:15Z</time>
      </trkpt>
      <trkpt lat="46.67598" lon="5.50674">
        <ele>246.6</ele>
        <time>2022-06-25T06:12:16Z</time>
      </trkpt>
      <trkpt lat="46.67598" lon="5.50662">
        <ele>246.6</ele>
        <time>2022-06-25T06:12:17Z</time>
      </trkpt>
      <trkpt lat="46.67599" lon="5.50651">
        <ele>246.4</ele>
        <time>2022-06-25T06:12:18Z</time>
      </trkpt>
      <trkpt lat="46.67599" lon="5.5064">
        <ele>246.4</ele>
        <time>2022-06-25T06:12:19Z</time>
      </trkpt>
      <trkpt lat="46.676" lon="5.50628">
        <ele>246.2</ele>
        <time>2022-06-25T06:12:20Z</time>
      </trkpt>
      <trkpt lat="46.67601" lon="5.50617">
        <ele>246.2</ele>
        <time>2022-06-25T06:12:21Z</time>
      </trkpt>
      <trkpt lat="46.67602" lon="5.50605">
        <ele>246</ele>
        <time>2022-06-25T06:12:22Z</time>
      </trkpt>
      <trkpt lat="46.67602" lon="5.50594">
        <ele>246</ele>
        <time>2022-06-25T06:12:23Z</time>
      </trkpt>
      <trkpt lat="46.67603" lon="5.50582">
        <ele>246</ele>
        <time>2022-06-25T06:12:24Z</time>
      </trkpt>
      <trkpt lat="46.67604" lon="5.50571">
        <ele>246</ele>
        <time>2022-06-25T06:12:25Z</time>
      </trkpt>
      <trkpt lat="46.67604" lon="5.50559">
        <ele>245.8</ele>
        <time>2022-06-25T06:12:26Z</time>
      </trkpt>
      <trkpt lat="46.67605" lon="5.50548">
        <ele>245.8</ele>
        <time>2022-06-25T06:12:27Z</time>
      </trkpt>
      <trkpt lat="46.67605" lon="5.50536">
        <ele>245.4</ele>
        <time>2022-06-25T06:12:28Z</time>
      </trkpt>
      <trkpt lat="46.67606" lon="5.50524">
        <ele>245.4</ele>
        <time>2022-06-25T06:12:29Z</time>
      </trkpt>
      <trkpt lat="46.67607" lon="5.50513">
        <ele>245.4</ele>
        <time>2022-06-25T06:12:30Z</time>
      </trkpt>
      <trkpt lat="46.67607" lon="5.50501">
        <ele>245.2</ele>
        <time>2022-06-25T06:12:31Z</time>
      </trkpt>
      <trkpt lat="46.67608" lon="5.5049">
        <ele>245.2</ele>
        <time>2022-06-25T06:12:32Z</time>
      </trkpt>
      <trkpt lat="46.67609" lon="5.50478">
        <ele>245.2</ele>
        <time>2022-06-25T06:12:33Z</time>
      </trkpt>
      <trkpt lat="46.6761" lon="5.50466">
        <ele>245</ele>
        <time>2022-06-25T06:12:34Z</time>
      </trkpt>
      <trkpt lat="46.6761" lon="5.50455">
        <ele>245</ele>
        <time>2022-06-25T06:12:35Z</time>
      </trkpt>
      <trkpt lat="46.67611" lon="5.50443">
        <ele>245</ele>
        <time>2022-06-25T06:12:36Z</time>
      </trkpt>
      <trkpt lat="46.67611" lon="5.50432">
        <ele>244.6</ele>
        <time>2022-06-25T06:12:37Z</time>
      </trkpt>
      <trkpt lat="46.67612" lon="5.5042">
        <ele>244.6</ele>
        <time>2022-06-25T06:12:38Z</time>
      </trkpt>
      <trkpt lat="46.67613" lon="5.50409">
        <ele>244.4</ele>
        <time>2022-06-25T06:12:39Z</time>
      </trkpt>
      <trkpt lat="46.67614" lon="5.50397">
        <ele>244.4</ele>
        <time>2022-06-25T06:12:40Z</time>
      </trkpt>
      <trkpt lat="46.67614" lon="5.50386">
        <ele>244</ele>
        <time>2022-06-25T06:12:41Z</time>
      </trkpt>
      <trkpt lat="46.67615" lon="5.50374">
        <ele>244</ele>
        <time>2022-06-25T06:12:42Z</time>
      </trkpt>
      <trkpt lat="46.67615" lon="5.50363">
        <ele>244</ele>
        <time>2022-06-25T06:12:43Z</time>
      </trkpt>
      <trkpt lat="46.67615" lon="5.50351">
        <ele>243.8</ele>
        <time>2022-06-25T06:12:44Z</time>
      </trkpt>
      <trkpt lat="46.67615" lon="5.5034">
        <ele>243.8</ele>
        <time>2022-06-25T06:12:45Z</time>
      </trkpt>
      <trkpt lat="46.67615" lon="5.50328">
        <ele>243.8</ele>
        <time>2022-06-25T06:12:46Z</time>
      </trkpt>
      <trkpt lat="46.67615" lon="5.50317">
        <ele>243.8</ele>
        <time>2022-06-25T06:12:47Z</time>
      </trkpt>
      <trkpt lat="46.67616" lon="5.50306">
        <ele>243.6</ele>
        <time>2022-06-25T06:12:48Z</time>
      </trkpt>
      <trkpt lat="46.67616" lon="5.50295">
        <ele>243.6</ele>
        <time>2022-06-25T06:12:49Z</time>
      </trkpt>
      <trkpt lat="46.67615" lon="5.50284">
        <ele>243.4</ele>
        <time>2022-06-25T06:12:50Z</time>
      </trkpt>
      <trkpt lat="46.67615" lon="5.50274">
        <ele>243.4</ele>
        <time>2022-06-25T06:12:51Z</time>
      </trkpt>
      <trkpt lat="46.67614" lon="5.50263">
        <ele>243.4</ele>
        <time>2022-06-25T06:12:52Z</time>
      </trkpt>
      <trkpt lat="46.67614" lon="5.50252">
        <ele>243.4</ele>
        <time>2022-06-25T06:12:53Z</time>
      </trkpt>
      <trkpt lat="46.67614" lon="5.50241">
        <ele>243.2</ele>
        <time>2022-06-25T06:12:54Z</time>
      </trkpt>
      <trkpt lat="46.67613" lon="5.50231">
        <ele>243.2</ele>
        <time>2022-06-25T06:12:55Z</time>
      </trkpt>
      <trkpt lat="46.67612" lon="5.5022">
        <ele>243.2</ele>
        <time>2022-06-25T06:12:56Z</time>
      </trkpt>
      <trkpt lat="46.6761" lon="5.50209">
        <ele>243.2</ele>
        <time>2022-06-25T06:12:57Z</time>
      </trkpt>
      <trkpt lat="46.67609" lon="5.50199">
        <ele>243.2</ele>
        <time>2022-06-25T06:12:58Z</time>
      </trkpt>
      <trkpt lat="46.67608" lon="5.50188">
        <ele>243.2</ele>
        <time>2022-06-25T06:12:59Z</time>
      </trkpt>
      <trkpt lat="46.67606" lon="5.50178">
        <ele>242.8</ele>
        <time>2022-06-25T06:13:00Z</time>
      </trkpt>
      <trkpt lat="46.67605" lon="5.50168">
        <ele>242.8</ele>
        <time>2022-06-25T06:13:01Z</time>
      </trkpt>
      <trkpt lat="46.67603" lon="5.50157">
        <ele>242.6</ele>
        <time>2022-06-25T06:13:02Z</time>
      </trkpt>
      <trkpt lat="46.67602" lon="5.50147">
        <ele>242.6</ele>
        <time>2022-06-25T06:13:03Z</time>
      </trkpt>
      <trkpt lat="46.676" lon="5.50137">
        <ele>242.6</ele>
        <time>2022-06-25T06:13:04Z</time>
      </trkpt>
      <trkpt lat="46.67598" lon="5.50127">
        <ele>242.6</ele>
        <time>2022-06-25T06:13:05Z</time>
      </trkpt>
      <trkpt lat="46.67595" lon="5.50117">
        <ele>242.6</ele>
        <time>2022-06-25T06:13:06Z</time>
      </trkpt>
      <trkpt lat="46.67593" lon="5.50107">
        <ele>242.6</ele>
        <time>2022-06-25T06:13:07Z</time>
      </trkpt>
      <trkpt lat="46.67591" lon="5.50097">
        <ele>242.6</ele>
        <time>2022-06-25T06:13:08Z</time>
      </trkpt>
      <trkpt lat="46.67588" lon="5.50087">
        <ele>242.6</ele>
        <time>2022-06-25T06:13:09Z</time>
      </trkpt>
      <trkpt lat="46.67585" lon="5.50077">
        <ele>242.6</ele>
        <time>2022-06-25T06:13:10Z</time>
      </trkpt>
      <trkpt lat="46.67583" lon="5.50068">
        <ele>242.4</ele>
        <time>2022-06-25T06:13:11Z</time>
      </trkpt>
      <trkpt lat="46.6758" lon="5.50059">
        <ele>242.4</ele>
        <time>2022-06-25T06:13:12Z</time>
      </trkpt>
      <trkpt lat="46.67577" lon="5.5005">
        <ele>242.4</ele>
        <time>2022-06-25T06:13:13Z</time>
      </trkpt>
      <trkpt lat="46.67574" lon="5.5004">
        <ele>242.4</ele>
        <time>2022-06-25T06:13:14Z</time>
      </trkpt>
      <trkpt lat="46.67571" lon="5.50031">
        <ele>242.4</ele>
        <time>2022-06-25T06:13:15Z</time>
      </trkpt>
      <trkpt lat="46.67568" lon="5.50022">
        <ele>242.2</ele>
        <time>2022-06-25T06:13:16Z</time>
      </trkpt>
      <trkpt lat="46.67565" lon="5.50013">
        <ele>242.2</ele>
        <time>2022-06-25T06:13:17Z</time>
      </trkpt>
      <trkpt lat="46.67562" lon="5.50004">
        <ele>242.2</ele>
        <time>2022-06-25T06:13:18Z</time>
      </trkpt>
      <trkpt lat="46.67559" lon="5.49996">
        <ele>242.2</ele>
        <time>2022-06-25T06:13:19Z</time>
      </trkpt>
      <trkpt lat="46.67556" lon="5.49987">
        <ele>242.2</ele>
        <time>2022-06-25T06:13:20Z</time>
      </trkpt>
      <trkpt lat="46.67553" lon="5.49978">
        <ele>242.2</ele>
        <time>2022-06-25T06:13:21Z</time>
      </trkpt>
      <trkpt lat="46.6755" lon="5.4997">
        <ele>242.2</ele>
        <time>2022-06-25T06:13:22Z</time>
      </trkpt>
      <trkpt lat="46.67547" lon="5.49961">
        <ele>242.2</ele>
        <time>2022-06-25T06:13:23Z</time>
      </trkpt>
      <trkpt lat="46.67543" lon="5.49952">
        <ele>242.2</ele>
        <time>2022-06-25T06:13:24Z</time>
      </trkpt>
      <trkpt lat="46.6754" lon="5.49944">
        <ele>242.2</ele>
        <time>2022-06-25T06:13:25Z</time>
      </trkpt>
      <trkpt lat="46.67537" lon="5.49935">
        <ele>242.2</ele>
        <time>2022-06-25T06:13:26Z</time>
      </trkpt>
      <trkpt lat="46.67533" lon="5.49926">
        <ele>242.2</ele>
        <time>2022-06-25T06:13:27Z</time>
      </trkpt>
      <trkpt lat="46.6753" lon="5.49918">
        <ele>242.2</ele>
        <time>2022-06-25T06:13:28Z</time>
      </trkpt>
      <trkpt lat="46.67527" lon="5.49909">
        <ele>242.2</ele>
        <time>2022-06-25T06:13:29Z</time>
      </trkpt>
      <trkpt lat="46.67524" lon="5.499">
        <ele>242</ele>
        <time>2022-06-25T06:13:30Z</time>
      </trkpt>
      <trkpt lat="46.67521" lon="5.49891">
        <ele>242</ele>
        <time>2022-06-25T06:13:31Z</time>
      </trkpt>
      <trkpt lat="46.67518" lon="5.49882">
        <ele>241.8</ele>
        <time>2022-06-25T06:13:32Z</time>
      </trkpt>
      <trkpt lat="46.67515" lon="5.49873">
        <ele>241.8</ele>
        <time>2022-06-25T06:13:33Z</time>
      </trkpt>
      <trkpt lat="46.67512" lon="5.49864">
        <ele>241.8</ele>
        <time>2022-06-25T06:13:34Z</time>
      </trkpt>
      <trkpt lat="46.67508" lon="5.49856">
        <ele>241.8</ele>
        <time>2022-06-25T06:13:35Z</time>
      </trkpt>
      <trkpt lat="46.67506" lon="5.49847">
        <ele>241.8</ele>
        <time>2022-06-25T06:13:36Z</time>
      </trkpt>
      <trkpt lat="46.67503" lon="5.49837">
        <ele>241.8</ele>
        <time>2022-06-25T06:13:37Z</time>
      </trkpt>
      <trkpt lat="46.67501" lon="5.49828">
        <ele>241.6</ele>
        <time>2022-06-25T06:13:38Z</time>
      </trkpt>
      <trkpt lat="46.67498" lon="5.49819">
        <ele>241.6</ele>
        <time>2022-06-25T06:13:39Z</time>
      </trkpt>
      <trkpt lat="46.67495" lon="5.4981">
        <ele>241.6</ele>
        <time>2022-06-25T06:13:40Z</time>
      </trkpt>
      <trkpt lat="46.67493" lon="5.49801">
        <ele>241.6</ele>
        <time>2022-06-25T06:13:41Z</time>
      </trkpt>
      <trkpt lat="46.67491" lon="5.49792">
        <ele>241.6</ele>
        <time>2022-06-25T06:13:42Z</time>
      </trkpt>
      <trkpt lat="46.67488" lon="5.49783">
        <ele>241.6</ele>
        <time>2022-06-25T06:13:43Z</time>
      </trkpt>
      <trkpt lat="46.67486" lon="5.49774">
        <ele>241.6</ele>
        <time>2022-06-25T06:13:44Z</time>
      </trkpt>
      <trkpt lat="46.67484" lon="5.49765">
        <ele>241.6</ele>
        <time>2022-06-25T06:13:45Z</time>
      </trkpt>
      <trkpt lat="46.67482" lon="5.49756">
        <ele>241.6</ele>
        <time>2022-06-25T06:13:46Z</time>
      </trkpt>
      <trkpt lat="46.6748" lon="5.49746">
        <ele>241.6</ele>
        <time>2022-06-25T06:13:47Z</time>
      </trkpt>
      <trkpt lat="46.67479" lon="5.49737">
        <ele>241.6</ele>
        <time>2022-06-25T06:13:48Z</time>
      </trkpt>
      <trkpt lat="46.67477" lon="5.49728">
        <ele>241.6</ele>
        <time>2022-06-25T06:13:49Z</time>
      </trkpt>
      <trkpt lat="46.67476" lon="5.4972">
        <ele>241.6</ele>
        <time>2022-06-25T06:13:50Z</time>
      </trkpt>
      <trkpt lat="46.67475" lon="5.49712">
        <ele>241.6</ele>
        <time>2022-06-25T06:13:51Z</time>
      </trkpt>
      <trkpt lat="46.67473" lon="5.49703">
        <ele>241.6</ele>
        <time>2022-06-25T06:13:52Z</time>
      </trkpt>
      <trkpt lat="46.67472" lon="5.49694">
        <ele>241.6</ele>
        <time>2022-06-25T06:13:53Z</time>
      </trkpt>
      <trkpt lat="46.67471" lon="5.49685">
        <ele>241.6</ele>
        <time>2022-06-25T06:13:54Z</time>
      </trkpt>
      <trkpt lat="46.6747" lon="5.49676">
        <ele>241.6</ele>
        <time>2022-06-25T06:13:55Z</time>
      </trkpt>
      <trkpt lat="46.67469" lon="5.49667">
        <ele>241.6</ele>
        <time>2022-06-25T06:13:56Z</time>
      </trkpt>
      <trkpt lat="46.67469" lon="5.49658">
        <ele>241.8</ele>
        <time>2022-06-25T06:13:57Z</time>
      </trkpt>
      <trkpt lat="46.67468" lon="5.49649">
        <ele>241.8</ele>
        <time>2022-06-25T06:13:58Z</time>
      </trkpt>
      <trkpt lat="46.67467" lon="5.4964">
        <ele>241.8</ele>
        <time>2022-06-25T06:13:59Z</time>
      </trkpt>
      <trkpt lat="46.67466" lon="5.49631">
        <ele>241.8</ele>
        <time>2022-06-25T06:14:00Z</time>
      </trkpt>
      <trkpt lat="46.67466" lon="5.49622">
        <ele>241.8</ele>
        <time>2022-06-25T06:14:01Z</time>
      </trkpt>
      <trkpt lat="46.67465" lon="5.49614">
        <ele>241.8</ele>
        <time>2022-06-25T06:14:02Z</time>
      </trkpt>
      <trkpt lat="46.67465" lon="5.49605">
        <ele>241.8</ele>
        <time>2022-06-25T06:14:03Z</time>
      </trkpt>
      <trkpt lat="46.67465" lon="5.49597">
        <ele>241.8</ele>
        <time>2022-06-25T06:14:04Z</time>
      </trkpt>
      <trkpt lat="46.67465" lon="5.49589">
        <ele>241.6</ele>
        <time>2022-06-25T06:14:05Z</time>
      </trkpt>
      <trkpt lat="46.67465" lon="5.49582">
        <ele>241.6</ele>
        <time>2022-06-25T06:14:06Z</time>
      </trkpt>
      <trkpt lat="46.67464" lon="5.49574">
        <ele>241.6</ele>
        <time>2022-06-25T06:14:07Z</time>
      </trkpt>
      <trkpt lat="46.67464" lon="5.49566">
        <ele>241.6</ele>
        <time>2022-06-25T06:14:08Z</time>
      </trkpt>
      <trkpt lat="46.67464" lon="5.49559">
        <ele>241.6</ele>
        <time>2022-06-25T06:14:09Z</time>
      </trkpt>
      <trkpt lat="46.67464" lon="5.49552">
        <ele>241.6</ele>
        <time>2022-06-25T06:14:10Z</time>
      </trkpt>
      <trkpt lat="46.67464" lon="5.49545">
        <ele>241.6</ele>
        <time>2022-06-25T06:14:11Z</time>
      </trkpt>
      <trkpt lat="46.67464" lon="5.49539">
        <ele>241.6</ele>
        <time>2022-06-25T06:14:12Z</time>
      </trkpt>
      <trkpt lat="46.67464" lon="5.49534">
        <ele>241.6</ele>
        <time>2022-06-25T06:14:13Z</time>
      </trkpt>
      <trkpt lat="46.67464" lon="5.49529">
        <ele>241.6</ele>
        <time>2022-06-25T06:14:14Z</time>
      </trkpt>
      <trkpt lat="46.67464" lon="5.49524">
        <ele>241.6</ele>
        <time>2022-06-25T06:14:15Z</time>
      </trkpt>
      <trkpt lat="46.67463" lon="5.49519">
        <ele>241.6</ele>
        <time>2022-06-25T06:14:16Z</time>
      </trkpt>
      <trkpt lat="46.67461" lon="5.49515">
        <ele>241.6</ele>
        <time>2022-06-25T06:14:17Z</time>
      </trkpt>
      <trkpt lat="46.67459" lon="5.49513">
        <ele>241.6</ele>
        <time>2022-06-25T06:14:18Z</time>
      </trkpt>
      <trkpt lat="46.67455" lon="5.49512">
        <ele>241.6</ele>
        <time>2022-06-25T06:14:19Z</time>
      </trkpt>
      <trkpt lat="46.67452" lon="5.49513">
        <ele>241.6</ele>
        <time>2022-06-25T06:14:20Z</time>
      </trkpt>
      <trkpt lat="46.67448" lon="5.49515">
        <ele>241.6</ele>
        <time>2022-06-25T06:14:21Z</time>
      </trkpt>
      <trkpt lat="46.67444" lon="5.49518">
        <ele>241.6</ele>
        <time>2022-06-25T06:14:22Z</time>
      </trkpt>
      <trkpt lat="46.67442" lon="5.49522">
        <ele>241.6</ele>
        <time>2022-06-25T06:14:23Z</time>
      </trkpt>
      <trkpt lat="46.67439" lon="5.49525">
        <ele>241.4</ele>
        <time>2022-06-25T06:14:24Z</time>
      </trkpt>
      <trkpt lat="46.67436" lon="5.49527">
        <ele>241.4</ele>
        <time>2022-06-25T06:14:25Z</time>
      </trkpt>
      <trkpt lat="46.67433" lon="5.49526">
        <ele>241.2</ele>
        <time>2022-06-25T06:14:26Z</time>
      </trkpt>
      <trkpt lat="46.6743" lon="5.49524">
        <ele>241.2</ele>
        <time>2022-06-25T06:14:27Z</time>
      </trkpt>
      <trkpt lat="46.67427" lon="5.49519">
        <ele>240.8</ele>
        <time>2022-06-25T06:14:28Z</time>
      </trkpt>
      <trkpt lat="46.67425" lon="5.49513">
        <ele>240.8</ele>
        <time>2022-06-25T06:14:29Z</time>
      </trkpt>
      <trkpt lat="46.67423" lon="5.49505">
        <ele>240.4</ele>
        <time>2022-06-25T06:14:30Z</time>
      </trkpt>
      <trkpt lat="46.67421" lon="5.49498">
        <ele>240.4</ele>
        <time>2022-06-25T06:14:31Z</time>
      </trkpt>
      <trkpt lat="46.6742" lon="5.4949">
        <ele>240.2</ele>
        <time>2022-06-25T06:14:32Z</time>
      </trkpt>
      <trkpt lat="46.67419" lon="5.49482">
        <ele>240.2</ele>
        <time>2022-06-25T06:14:33Z</time>
      </trkpt>
      <trkpt lat="46.67417" lon="5.49474">
        <ele>240.2</ele>
        <time>2022-06-25T06:14:34Z</time>
      </trkpt>
      <trkpt lat="46.67415" lon="5.49465">
        <ele>240.2</ele>
        <time>2022-06-25T06:14:35Z</time>
      </trkpt>
      <trkpt lat="46.67413" lon="5.49457">
        <ele>240</ele>
        <time>2022-06-25T06:14:36Z</time>
      </trkpt>
      <trkpt lat="46.67412" lon="5.49449">
        <ele>240</ele>
        <time>2022-06-25T06:14:37Z</time>
      </trkpt>
      <trkpt lat="46.6741" lon="5.49441">
        <ele>240</ele>
        <time>2022-06-25T06:14:38Z</time>
      </trkpt>
      <trkpt lat="46.67409" lon="5.49432">
        <ele>240</ele>
        <time>2022-06-25T06:14:39Z</time>
      </trkpt>
      <trkpt lat="46.67407" lon="5.49423">
        <ele>240</ele>
        <time>2022-06-25T06:14:40Z</time>
      </trkpt>
      <trkpt lat="46.67405" lon="5.49415">
        <ele>240</ele>
        <time>2022-06-25T06:14:41Z</time>
      </trkpt>
      <trkpt lat="46.67403" lon="5.49406">
        <ele>239.8</ele>
        <time>2022-06-25T06:14:42Z</time>
      </trkpt>
      <trkpt lat="46.67401" lon="5.49397">
        <ele>239.8</ele>
        <time>2022-06-25T06:14:43Z</time>
      </trkpt>
      <trkpt lat="46.67399" lon="5.49388">
        <ele>239.8</ele>
        <time>2022-06-25T06:14:44Z</time>
      </trkpt>
      <trkpt lat="46.67396" lon="5.4938">
        <ele>239.8</ele>
        <time>2022-06-25T06:14:45Z</time>
      </trkpt>
      <trkpt lat="46.67393" lon="5.49371">
        <ele>239.8</ele>
        <time>2022-06-25T06:14:46Z</time>
      </trkpt>
      <trkpt lat="46.6739" lon="5.49362">
        <ele>239.6</ele>
        <time>2022-06-25T06:14:47Z</time>
      </trkpt>
      <trkpt lat="46.67387" lon="5.49354">
        <ele>239.6</ele>
        <time>2022-06-25T06:14:48Z</time>
      </trkpt>
      <trkpt lat="46.67383" lon="5.49346">
        <ele>239.4</ele>
        <time>2022-06-25T06:14:49Z</time>
      </trkpt>
      <trkpt lat="46.67379" lon="5.49338">
        <ele>239.4</ele>
        <time>2022-06-25T06:14:50Z</time>
      </trkpt>
      <trkpt lat="46.67375" lon="5.49331">
        <ele>239.4</ele>
        <time>2022-06-25T06:14:51Z</time>
      </trkpt>
      <trkpt lat="46.67371" lon="5.49323">
        <ele>239.4</ele>
        <time>2022-06-25T06:14:52Z</time>
      </trkpt>
      <trkpt lat="46.67367" lon="5.49315">
        <ele>239</ele>
        <time>2022-06-25T06:14:53Z</time>
      </trkpt>
      <trkpt lat="46.67363" lon="5.49307">
        <ele>239</ele>
        <time>2022-06-25T06:14:54Z</time>
      </trkpt>
      <trkpt lat="46.67359" lon="5.49299">
        <ele>239</ele>
        <time>2022-06-25T06:14:55Z</time>
      </trkpt>
      <trkpt lat="46.67355" lon="5.49291">
        <ele>239</ele>
        <time>2022-06-25T06:14:56Z</time>
      </trkpt>
      <trkpt lat="46.67351" lon="5.49283">
        <ele>239</ele>
        <time>2022-06-25T06:14:57Z</time>
      </trkpt>
      <trkpt lat="46.67347" lon="5.49275">
        <ele>238.8</ele>
        <time>2022-06-25T06:14:58Z</time>
      </trkpt>
      <trkpt lat="46.67343" lon="5.49267">
        <ele>238.8</ele>
        <time>2022-06-25T06:14:59Z</time>
      </trkpt>
      <trkpt lat="46.67338" lon="5.49259">
        <ele>238.8</ele>
        <time>2022-06-25T06:15:00Z</time>
      </trkpt>
      <trkpt lat="46.67334" lon="5.49251">
        <ele>238.6</ele>
        <time>2022-06-25T06:15:01Z</time>
      </trkpt>
      <trkpt lat="46.6733" lon="5.49243">
        <ele>238.6</ele>
        <time>2022-06-25T06:15:02Z</time>
      </trkpt>
      <trkpt lat="46.67325" lon="5.49235">
        <ele>238.6</ele>
        <time>2022-06-25T06:15:03Z</time>
      </trkpt>
      <trkpt lat="46.67321" lon="5.49227">
        <ele>238.2</ele>
        <time>2022-06-25T06:15:04Z</time>
      </trkpt>
      <trkpt lat="46.67316" lon="5.49219">
        <ele>238.2</ele>
        <time>2022-06-25T06:15:05Z</time>
      </trkpt>
      <trkpt lat="46.67312" lon="5.4921">
        <ele>238</ele>
        <time>2022-06-25T06:15:06Z</time>
      </trkpt>
      <trkpt lat="46.67307" lon="5.49202">
        <ele>238</ele>
        <time>2022-06-25T06:15:07Z</time>
      </trkpt>
      <trkpt lat="46.67302" lon="5.49194">
        <ele>238</ele>
        <time>2022-06-25T06:15:08Z</time>
      </trkpt>
      <trkpt lat="46.67297" lon="5.49186">
        <ele>237.8</ele>
        <time>2022-06-25T06:15:09Z</time>
      </trkpt>
      <trkpt lat="46.67293" lon="5.49177">
        <ele>237.8</ele>
        <time>2022-06-25T06:15:10Z</time>
      </trkpt>
      <trkpt lat="46.67288" lon="5.49168">
        <ele>237.8</ele>
        <time>2022-06-25T06:15:11Z</time>
      </trkpt>
      <trkpt lat="46.67284" lon="5.49159">
        <ele>237.4</ele>
        <time>2022-06-25T06:15:12Z</time>
      </trkpt>
      <trkpt lat="46.67279" lon="5.4915">
        <ele>237.4</ele>
        <time>2022-06-25T06:15:13Z</time>
      </trkpt>
      <trkpt lat="46.67275" lon="5.4914">
        <ele>237.2</ele>
        <time>2022-06-25T06:15:14Z</time>
      </trkpt>
      <trkpt lat="46.67271" lon="5.49131">
        <ele>237.2</ele>
        <time>2022-06-25T06:15:15Z</time>
      </trkpt>
      <trkpt lat="46.67267" lon="5.4912">
        <ele>237</ele>
        <time>2022-06-25T06:15:16Z</time>
      </trkpt>
      <trkpt lat="46.67264" lon="5.4911">
        <ele>237</ele>
        <time>2022-06-25T06:15:17Z</time>
      </trkpt>
      <trkpt lat="46.67261" lon="5.49099">
        <ele>236.6</ele>
        <time>2022-06-25T06:15:18Z</time>
      </trkpt>
      <trkpt lat="46.67259" lon="5.49088">
        <ele>236.4</ele>
        <time>2022-06-25T06:15:19Z</time>
      </trkpt>
      <trkpt lat="46.67257" lon="5.49076">
        <ele>236.4</ele>
        <time>2022-06-25T06:15:20Z</time>
      </trkpt>
      <trkpt lat="46.67255" lon="5.49065">
        <ele>236</ele>
        <time>2022-06-25T06:15:21Z</time>
      </trkpt>
      <trkpt lat="46.67254" lon="5.49054">
        <ele>236</ele>
        <time>2022-06-25T06:15:22Z</time>
      </trkpt>
      <trkpt lat="46.67253" lon="5.49043">
        <ele>235.8</ele>
        <time>2022-06-25T06:15:23Z</time>
      </trkpt>
      <trkpt lat="46.67252" lon="5.49033">
        <ele>235.4</ele>
        <time>2022-06-25T06:15:24Z</time>
      </trkpt>
      <trkpt lat="46.6725" lon="5.49023">
        <ele>235</ele>
        <time>2022-06-25T06:15:25Z</time>
      </trkpt>
      <trkpt lat="46.67247" lon="5.49013">
        <ele>234.6</ele>
        <time>2022-06-25T06:15:26Z</time>
      </trkpt>
      <trkpt lat="46.67244" lon="5.49003">
        <ele>234</ele>
        <time>2022-06-25T06:15:27Z</time>
      </trkpt>
      <trkpt lat="46.6724" lon="5.48993">
        <ele>233.6</ele>
        <time>2022-06-25T06:15:28Z</time>
      </trkpt>
      <trkpt lat="46.67237" lon="5.48985">
        <ele>233.2</ele>
        <time>2022-06-25T06:15:29Z</time>
      </trkpt>
      <trkpt lat="46.67233" lon="5.48977">
        <ele>232.8</ele>
        <time>2022-06-25T06:15:30Z</time>
      </trkpt>
      <trkpt lat="46.67228" lon="5.4897">
        <ele>232.4</ele>
        <time>2022-06-25T06:15:31Z</time>
      </trkpt>
      <trkpt lat="46.67225" lon="5.48962">
        <ele>232</ele>
        <time>2022-06-25T06:15:32Z</time>
      </trkpt>
      <trkpt lat="46.67221" lon="5.48954">
        <ele>231.6</ele>
        <time>2022-06-25T06:15:33Z</time>
      </trkpt>
      <trkpt lat="46.67218" lon="5.48946">
        <ele>231.2</ele>
        <time>2022-06-25T06:15:34Z</time>
      </trkpt>
      <trkpt lat="46.67215" lon="5.4894">
        <ele>230.8</ele>
        <time>2022-06-25T06:15:35Z</time>
      </trkpt>
      <trkpt lat="46.67212" lon="5.48935">
        <ele>230.2</ele>
        <time>2022-06-25T06:15:36Z</time>
      </trkpt>
      <trkpt lat="46.6721" lon="5.48931">
        <ele>229.8</ele>
        <time>2022-06-25T06:15:37Z</time>
      </trkpt>
      <trkpt lat="46.67208" lon="5.48928">
        <ele>229.4</ele>
        <time>2022-06-25T06:15:38Z</time>
      </trkpt>
      <trkpt lat="46.67205" lon="5.48928">
        <ele>229.2</ele>
        <time>2022-06-25T06:15:39Z</time>
      </trkpt>
      <trkpt lat="46.67203" lon="5.48928">
        <ele>229</ele>
        <time>2022-06-25T06:15:40Z</time>
      </trkpt>
      <trkpt lat="46.67201" lon="5.48931">
        <ele>229</ele>
        <time>2022-06-25T06:15:41Z</time>
      </trkpt>
      <trkpt lat="46.67199" lon="5.48935">
        <ele>228.4</ele>
        <time>2022-06-25T06:15:42Z</time>
      </trkpt>
      <trkpt lat="46.67198" lon="5.4894">
        <ele>228.4</ele>
        <time>2022-06-25T06:15:43Z</time>
      </trkpt>
      <trkpt lat="46.67196" lon="5.48946">
        <ele>228.2</ele>
        <time>2022-06-25T06:15:44Z</time>
      </trkpt>
      <trkpt lat="46.67194" lon="5.48951">
        <ele>228.2</ele>
        <time>2022-06-25T06:15:45Z</time>
      </trkpt>
      <trkpt lat="46.67192" lon="5.48958">
        <ele>228.2</ele>
        <time>2022-06-25T06:15:46Z</time>
      </trkpt>
      <trkpt lat="46.6719" lon="5.48964">
        <ele>228</ele>
        <time>2022-06-25T06:15:47Z</time>
      </trkpt>
      <trkpt lat="46.67187" lon="5.4897">
        <ele>228</ele>
        <time>2022-06-25T06:15:48Z</time>
      </trkpt>
      <trkpt lat="46.67185" lon="5.48976">
        <ele>228</ele>
        <time>2022-06-25T06:15:49Z</time>
      </trkpt>
      <trkpt lat="46.67183" lon="5.48982">
        <ele>228</ele>
        <time>2022-06-25T06:15:50Z</time>
      </trkpt>
      <trkpt lat="46.67181" lon="5.48988">
        <ele>227.6</ele>
        <time>2022-06-25T06:15:51Z</time>
      </trkpt>
      <trkpt lat="46.6718" lon="5.48993">
        <ele>227.6</ele>
        <time>2022-06-25T06:15:52Z</time>
      </trkpt>
      <trkpt lat="46.67178" lon="5.48997">
        <ele>227.4</ele>
        <time>2022-06-25T06:15:53Z</time>
      </trkpt>
      <trkpt lat="46.67175" lon="5.48998">
        <ele>227.4</ele>
        <time>2022-06-25T06:15:54Z</time>
      </trkpt>
      <trkpt lat="46.67171" lon="5.48996">
        <ele>227.4</ele>
        <time>2022-06-25T06:15:55Z</time>
      </trkpt>
      <trkpt lat="46.67169" lon="5.48992">
        <ele>227.4</ele>
        <time>2022-06-25T06:15:56Z</time>
      </trkpt>
      <trkpt lat="46.67167" lon="5.48987">
        <ele>227.2</ele>
        <time>2022-06-25T06:15:57Z</time>
      </trkpt>
      <trkpt lat="46.67165" lon="5.4898">
        <ele>227.2</ele>
        <time>2022-06-25T06:15:58Z</time>
      </trkpt>
      <trkpt lat="46.67164" lon="5.48973">
        <ele>227.2</ele>
        <time>2022-06-25T06:15:59Z</time>
      </trkpt>
      <trkpt lat="46.67162" lon="5.48965">
        <ele>227.2</ele>
        <time>2022-06-25T06:16:00Z</time>
      </trkpt>
      <trkpt lat="46.6716" lon="5.48958">
        <ele>227.2</ele>
        <time>2022-06-25T06:16:01Z</time>
      </trkpt>
      <trkpt lat="46.67159" lon="5.4895">
        <ele>227.2</ele>
        <time>2022-06-25T06:16:02Z</time>
      </trkpt>
      <trkpt lat="46.67156" lon="5.48943">
        <ele>227.2</ele>
        <time>2022-06-25T06:16:03Z</time>
      </trkpt>
      <trkpt lat="46.67154" lon="5.48935">
        <ele>227.2</ele>
        <time>2022-06-25T06:16:04Z</time>
      </trkpt>
      <trkpt lat="46.67152" lon="5.48927">
        <ele>227.2</ele>
        <time>2022-06-25T06:16:05Z</time>
      </trkpt>
      <trkpt lat="46.6715" lon="5.48918">
        <ele>227.2</ele>
        <time>2022-06-25T06:16:06Z</time>
      </trkpt>
      <trkpt lat="46.67147" lon="5.4891">
        <ele>227.2</ele>
        <time>2022-06-25T06:16:07Z</time>
      </trkpt>
      <trkpt lat="46.67144" lon="5.48902">
        <ele>227.2</ele>
        <time>2022-06-25T06:16:08Z</time>
      </trkpt>
      <trkpt lat="46.67142" lon="5.48894">
        <ele>227.2</ele>
        <time>2022-06-25T06:16:09Z</time>
      </trkpt>
      <trkpt lat="46.67139" lon="5.48886">
        <ele>227.2</ele>
        <time>2022-06-25T06:16:10Z</time>
      </trkpt>
      <trkpt lat="46.67137" lon="5.48877">
        <ele>227.4</ele>
        <time>2022-06-25T06:16:11Z</time>
      </trkpt>
      <trkpt lat="46.67134" lon="5.48869">
        <ele>227.4</ele>
        <time>2022-06-25T06:16:12Z</time>
      </trkpt>
      <trkpt lat="46.67132" lon="5.48862">
        <ele>227.4</ele>
        <time>2022-06-25T06:16:13Z</time>
      </trkpt>
      <trkpt lat="46.67129" lon="5.48854">
        <ele>227.8</ele>
        <time>2022-06-25T06:16:14Z</time>
      </trkpt>
      <trkpt lat="46.67127" lon="5.48847">
        <ele>227.8</ele>
        <time>2022-06-25T06:16:15Z</time>
      </trkpt>
      <trkpt lat="46.67124" lon="5.4884">
        <ele>227.8</ele>
        <time>2022-06-25T06:16:16Z</time>
      </trkpt>
      <trkpt lat="46.67121" lon="5.48833">
        <ele>228</ele>
        <time>2022-06-25T06:16:17Z</time>
      </trkpt>
      <trkpt lat="46.67119" lon="5.48825">
        <ele>228</ele>
        <time>2022-06-25T06:16:18Z</time>
      </trkpt>
      <trkpt lat="46.67116" lon="5.48818">
        <ele>228.4</ele>
        <time>2022-06-25T06:16:19Z</time>
      </trkpt>
      <trkpt lat="46.67114" lon="5.48811">
        <ele>228.4</ele>
        <time>2022-06-25T06:16:20Z</time>
      </trkpt>
      <trkpt lat="46.67112" lon="5.48804">
        <ele>228.6</ele>
        <time>2022-06-25T06:16:21Z</time>
      </trkpt>
      <trkpt lat="46.67109" lon="5.48796">
        <ele>228.6</ele>
        <time>2022-06-25T06:16:22Z</time>
      </trkpt>
      <trkpt lat="46.67107" lon="5.48789">
        <ele>229</ele>
        <time>2022-06-25T06:16:23Z</time>
      </trkpt>
      <trkpt lat="46.67105" lon="5.48781">
        <ele>229</ele>
        <time>2022-06-25T06:16:24Z</time>
      </trkpt>
      <trkpt lat="46.67102" lon="5.48774">
        <ele>229</ele>
        <time>2022-06-25T06:16:25Z</time>
      </trkpt>
      <trkpt lat="46.67099" lon="5.48766">
        <ele>229</ele>
        <time>2022-06-25T06:16:26Z</time>
      </trkpt>
      <trkpt lat="46.67096" lon="5.48758">
        <ele>229</ele>
        <time>2022-06-25T06:16:27Z</time>
      </trkpt>
      <trkpt lat="46.67093" lon="5.48751">
        <ele>229</ele>
        <time>2022-06-25T06:16:28Z</time>
      </trkpt>
      <trkpt lat="46.67089" lon="5.48743">
        <ele>229</ele>
        <time>2022-06-25T06:16:29Z</time>
      </trkpt>
      <trkpt lat="46.67085" lon="5.48736">
        <ele>229</ele>
        <time>2022-06-25T06:16:30Z</time>
      </trkpt>
      <trkpt lat="46.67081" lon="5.48729">
        <ele>229</ele>
        <time>2022-06-25T06:16:31Z</time>
      </trkpt>
      <trkpt lat="46.67078" lon="5.48721">
        <ele>229</ele>
        <time>2022-06-25T06:16:32Z</time>
      </trkpt>
      <trkpt lat="46.67074" lon="5.48714">
        <ele>229</ele>
        <time>2022-06-25T06:16:33Z</time>
      </trkpt>
      <trkpt lat="46.6707" lon="5.48706">
        <ele>229</ele>
        <time>2022-06-25T06:16:34Z</time>
      </trkpt>
      <trkpt lat="46.67066" lon="5.48699">
        <ele>229</ele>
        <time>2022-06-25T06:16:35Z</time>
      </trkpt>
      <trkpt lat="46.67062" lon="5.48692">
        <ele>229</ele>
        <time>2022-06-25T06:16:36Z</time>
      </trkpt>
      <trkpt lat="46.67058" lon="5.48684">
        <ele>229</ele>
        <time>2022-06-25T06:16:37Z</time>
      </trkpt>
      <trkpt lat="46.67054" lon="5.48677">
        <ele>229.2</ele>
        <time>2022-06-25T06:16:38Z</time>
      </trkpt>
      <trkpt lat="46.6705" lon="5.4867">
        <ele>229.2</ele>
        <time>2022-06-25T06:16:39Z</time>
      </trkpt>
      <trkpt lat="46.67046" lon="5.48662">
        <ele>229.2</ele>
        <time>2022-06-25T06:16:40Z</time>
      </trkpt>
      <trkpt lat="46.67043" lon="5.48655">
        <ele>229.2</ele>
        <time>2022-06-25T06:16:41Z</time>
      </trkpt>
      <trkpt lat="46.6704" lon="5.48647">
        <ele>229.2</ele>
        <time>2022-06-25T06:16:42Z</time>
      </trkpt>
      <trkpt lat="46.67037" lon="5.48639">
        <ele>229.2</ele>
        <time>2022-06-25T06:16:43Z</time>
      </trkpt>
      <trkpt lat="46.67034" lon="5.4863">
        <ele>229.2</ele>
        <time>2022-06-25T06:16:44Z</time>
      </trkpt>
      <trkpt lat="46.67031" lon="5.48622">
        <ele>229.2</ele>
        <time>2022-06-25T06:16:45Z</time>
      </trkpt>
      <trkpt lat="46.67028" lon="5.48613">
        <ele>229.2</ele>
        <time>2022-06-25T06:16:46Z</time>
      </trkpt>
      <trkpt lat="46.67025" lon="5.48605">
        <ele>229.2</ele>
        <time>2022-06-25T06:16:47Z</time>
      </trkpt>
      <trkpt lat="46.67022" lon="5.48597">
        <ele>229.2</ele>
        <time>2022-06-25T06:16:48Z</time>
      </trkpt>
      <trkpt lat="46.67019" lon="5.48588">
        <ele>229.2</ele>
        <time>2022-06-25T06:16:49Z</time>
      </trkpt>
      <trkpt lat="46.67016" lon="5.4858">
        <ele>229.2</ele>
        <time>2022-06-25T06:16:50Z</time>
      </trkpt>
      <trkpt lat="46.67013" lon="5.48571">
        <ele>229.2</ele>
        <time>2022-06-25T06:16:51Z</time>
      </trkpt>
      <trkpt lat="46.6701" lon="5.48563">
        <ele>229.2</ele>
        <time>2022-06-25T06:16:52Z</time>
      </trkpt>
      <trkpt lat="46.67007" lon="5.48554">
        <ele>229.2</ele>
        <time>2022-06-25T06:16:53Z</time>
      </trkpt>
      <trkpt lat="46.67004" lon="5.48545">
        <ele>229.2</ele>
        <time>2022-06-25T06:16:54Z</time>
      </trkpt>
      <trkpt lat="46.67001" lon="5.48537">
        <ele>229.2</ele>
        <time>2022-06-25T06:16:55Z</time>
      </trkpt>
      <trkpt lat="46.66998" lon="5.48528">
        <ele>229.2</ele>
        <time>2022-06-25T06:16:56Z</time>
      </trkpt>
      <trkpt lat="46.66995" lon="5.48519">
        <ele>229.2</ele>
        <time>2022-06-25T06:16:57Z</time>
      </trkpt>
      <trkpt lat="46.66993" lon="5.4851">
        <ele>229.2</ele>
        <time>2022-06-25T06:16:58Z</time>
      </trkpt>
      <trkpt lat="46.6699" lon="5.48501">
        <ele>229.2</ele>
        <time>2022-06-25T06:16:59Z</time>
      </trkpt>
      <trkpt lat="46.66987" lon="5.48492">
        <ele>229.2</ele>
        <time>2022-06-25T06:17:00Z</time>
      </trkpt>
      <trkpt lat="46.66984" lon="5.48483">
        <ele>229.2</ele>
        <time>2022-06-25T06:17:01Z</time>
      </trkpt>
      <trkpt lat="46.66982" lon="5.48474">
        <ele>229.2</ele>
        <time>2022-06-25T06:17:02Z</time>
      </trkpt>
      <trkpt lat="46.6698" lon="5.48465">
        <ele>229.2</ele>
        <time>2022-06-25T06:17:03Z</time>
      </trkpt>
      <trkpt lat="46.66977" lon="5.48457">
        <ele>229.4</ele>
        <time>2022-06-25T06:17:04Z</time>
      </trkpt>
      <trkpt lat="46.66975" lon="5.48448">
        <ele>229.4</ele>
        <time>2022-06-25T06:17:05Z</time>
      </trkpt>
      <trkpt lat="46.66972" lon="5.4844">
        <ele>229.6</ele>
        <time>2022-06-25T06:17:06Z</time>
      </trkpt>
      <trkpt lat="46.66969" lon="5.48432">
        <ele>229.6</ele>
        <time>2022-06-25T06:17:07Z</time>
      </trkpt>
      <trkpt lat="46.66966" lon="5.48425">
        <ele>229.8</ele>
        <time>2022-06-25T06:17:08Z</time>
      </trkpt>
      <trkpt lat="46.66963" lon="5.48417">
        <ele>229.8</ele>
        <time>2022-06-25T06:17:09Z</time>
      </trkpt>
      <trkpt lat="46.66959" lon="5.4841">
        <ele>230.2</ele>
        <time>2022-06-25T06:17:10Z</time>
      </trkpt>
      <trkpt lat="46.66956" lon="5.48403">
        <ele>230.4</ele>
        <time>2022-06-25T06:17:11Z</time>
      </trkpt>
      <trkpt lat="46.66953" lon="5.48396">
        <ele>230.4</ele>
        <time>2022-06-25T06:17:12Z</time>
      </trkpt>
      <trkpt lat="46.66949" lon="5.48389">
        <ele>230.8</ele>
        <time>2022-06-25T06:17:13Z</time>
      </trkpt>
      <trkpt lat="46.66946" lon="5.48383">
        <ele>230.8</ele>
        <time>2022-06-25T06:17:14Z</time>
      </trkpt>
      <trkpt lat="46.66943" lon="5.48377">
        <ele>231</ele>
        <time>2022-06-25T06:17:15Z</time>
      </trkpt>
      <trkpt lat="46.66939" lon="5.4837">
        <ele>231</ele>
        <time>2022-06-25T06:17:16Z</time>
      </trkpt>
      <trkpt lat="46.66936" lon="5.48364">
        <ele>231.4</ele>
        <time>2022-06-25T06:17:17Z</time>
      </trkpt>
      <trkpt lat="46.66933" lon="5.48357">
        <ele>231.4</ele>
        <time>2022-06-25T06:17:18Z</time>
      </trkpt>
      <trkpt lat="46.66929" lon="5.48351">
        <ele>231.6</ele>
        <time>2022-06-25T06:17:19Z</time>
      </trkpt>
      <trkpt lat="46.66926" lon="5.48345">
        <ele>231.6</ele>
        <time>2022-06-25T06:17:20Z</time>
      </trkpt>
      <trkpt lat="46.66922" lon="5.48338">
        <ele>232</ele>
        <time>2022-06-25T06:17:21Z</time>
      </trkpt>
      <trkpt lat="46.66919" lon="5.48332">
        <ele>232</ele>
        <time>2022-06-25T06:17:22Z</time>
      </trkpt>
      <trkpt lat="46.66916" lon="5.48325">
        <ele>232.2</ele>
        <time>2022-06-25T06:17:23Z</time>
      </trkpt>
      <trkpt lat="46.66913" lon="5.48318">
        <ele>232.2</ele>
        <time>2022-06-25T06:17:24Z</time>
      </trkpt>
      <trkpt lat="46.6691" lon="5.48311">
        <ele>232.2</ele>
        <time>2022-06-25T06:17:25Z</time>
      </trkpt>
      <trkpt lat="46.66907" lon="5.48304">
        <ele>232.4</ele>
        <time>2022-06-25T06:17:26Z</time>
      </trkpt>
      <trkpt lat="46.66905" lon="5.48296">
        <ele>232.4</ele>
        <time>2022-06-25T06:17:27Z</time>
      </trkpt>
      <trkpt lat="46.66903" lon="5.48289">
        <ele>232.4</ele>
        <time>2022-06-25T06:17:28Z</time>
      </trkpt>
      <trkpt lat="46.66901" lon="5.4828">
        <ele>232.4</ele>
        <time>2022-06-25T06:17:29Z</time>
      </trkpt>
      <trkpt lat="46.66899" lon="5.48272">
        <ele>232.4</ele>
        <time>2022-06-25T06:17:30Z</time>
      </trkpt>
      <trkpt lat="46.66898" lon="5.48264">
        <ele>232.8</ele>
        <time>2022-06-25T06:17:31Z</time>
      </trkpt>
      <trkpt lat="46.66897" lon="5.48256">
        <ele>232.8</ele>
        <time>2022-06-25T06:17:32Z</time>
      </trkpt>
      <trkpt lat="46.66896" lon="5.48247">
        <ele>232.8</ele>
        <time>2022-06-25T06:17:33Z</time>
      </trkpt>
      <trkpt lat="46.66895" lon="5.48239">
        <ele>232.8</ele>
        <time>2022-06-25T06:17:34Z</time>
      </trkpt>
      <trkpt lat="46.66894" lon="5.48231">
        <ele>232.8</ele>
        <time>2022-06-25T06:17:35Z</time>
      </trkpt>
      <trkpt lat="46.66892" lon="5.48223">
        <ele>232.8</ele>
        <time>2022-06-25T06:17:36Z</time>
      </trkpt>
      <trkpt lat="46.66891" lon="5.48215">
        <ele>232.8</ele>
        <time>2022-06-25T06:17:37Z</time>
      </trkpt>
      <trkpt lat="46.6689" lon="5.48207">
        <ele>232.8</ele>
        <time>2022-06-25T06:17:38Z</time>
      </trkpt>
      <trkpt lat="46.66889" lon="5.48198">
        <ele>232.8</ele>
        <time>2022-06-25T06:17:39Z</time>
      </trkpt>
      <trkpt lat="46.66888" lon="5.4819">
        <ele>233</ele>
        <time>2022-06-25T06:17:40Z</time>
      </trkpt>
      <trkpt lat="46.66888" lon="5.48183">
        <ele>233</ele>
        <time>2022-06-25T06:17:41Z</time>
      </trkpt>
      <trkpt lat="46.66886" lon="5.48175">
        <ele>233</ele>
        <time>2022-06-25T06:17:42Z</time>
      </trkpt>
      <trkpt lat="46.66884" lon="5.48169">
        <ele>233</ele>
        <time>2022-06-25T06:17:43Z</time>
      </trkpt>
      <trkpt lat="46.6688" lon="5.48163">
        <ele>233</ele>
        <time>2022-06-25T06:17:44Z</time>
      </trkpt>
      <trkpt lat="46.66876" lon="5.48158">
        <ele>233</ele>
        <time>2022-06-25T06:17:45Z</time>
      </trkpt>
      <trkpt lat="46.66872" lon="5.48153">
        <ele>233</ele>
        <time>2022-06-25T06:17:46Z</time>
      </trkpt>
      <trkpt lat="46.66867" lon="5.48148">
        <ele>233</ele>
        <time>2022-06-25T06:17:47Z</time>
      </trkpt>
      <trkpt lat="46.66863" lon="5.48143">
        <ele>233</ele>
        <time>2022-06-25T06:17:48Z</time>
      </trkpt>
      <trkpt lat="46.66858" lon="5.48138">
        <ele>233</ele>
        <time>2022-06-25T06:17:49Z</time>
      </trkpt>
      <trkpt lat="46.66854" lon="5.48133">
        <ele>233</ele>
        <time>2022-06-25T06:17:50Z</time>
      </trkpt>
      <trkpt lat="46.66849" lon="5.48128">
        <ele>233</ele>
        <time>2022-06-25T06:17:51Z</time>
      </trkpt>
      <trkpt lat="46.66844" lon="5.48123">
        <ele>233.2</ele>
        <time>2022-06-25T06:17:52Z</time>
      </trkpt>
      <trkpt lat="46.66839" lon="5.48119">
        <ele>233.2</ele>
        <time>2022-06-25T06:17:53Z</time>
      </trkpt>
      <trkpt lat="46.66833" lon="5.48115">
        <ele>233.2</ele>
        <time>2022-06-25T06:17:54Z</time>
      </trkpt>
      <trkpt lat="46.66827" lon="5.48112">
        <ele>233.2</ele>
        <time>2022-06-25T06:17:55Z</time>
      </trkpt>
      <trkpt lat="46.66821" lon="5.48109">
        <ele>233.2</ele>
        <time>2022-06-25T06:17:56Z</time>
      </trkpt>
      <trkpt lat="46.66815" lon="5.48106">
        <ele>233.4</ele>
        <time>2022-06-25T06:17:57Z</time>
      </trkpt>
      <trkpt lat="46.66809" lon="5.48103">
        <ele>233.4</ele>
        <time>2022-06-25T06:17:58Z</time>
      </trkpt>
      <trkpt lat="46.66803" lon="5.481">
        <ele>233.4</ele>
        <time>2022-06-25T06:17:59Z</time>
      </trkpt>
      <trkpt lat="46.66797" lon="5.48097">
        <ele>233.4</ele>
        <time>2022-06-25T06:18:00Z</time>
      </trkpt>
      <trkpt lat="46.66791" lon="5.48094">
        <ele>233.4</ele>
        <time>2022-06-25T06:18:01Z</time>
      </trkpt>
      <trkpt lat="46.66785" lon="5.48091">
        <ele>233.4</ele>
        <time>2022-06-25T06:18:02Z</time>
      </trkpt>
      <trkpt lat="46.66779" lon="5.48088">
        <ele>233.4</ele>
        <time>2022-06-25T06:18:03Z</time>
      </trkpt>
      <trkpt lat="46.66773" lon="5.48085">
        <ele>233.4</ele>
        <time>2022-06-25T06:18:04Z</time>
      </trkpt>
      <trkpt lat="46.66767" lon="5.48082">
        <ele>233.4</ele>
        <time>2022-06-25T06:18:05Z</time>
      </trkpt>
      <trkpt lat="46.66761" lon="5.48079">
        <ele>233.4</ele>
        <time>2022-06-25T06:18:06Z</time>
      </trkpt>
      <trkpt lat="46.66755" lon="5.48076">
        <ele>233.4</ele>
        <time>2022-06-25T06:18:07Z</time>
      </trkpt>
      <trkpt lat="46.66749" lon="5.48073">
        <ele>233.4</ele>
        <time>2022-06-25T06:18:08Z</time>
      </trkpt>
      <trkpt lat="46.66743" lon="5.48069">
        <ele>233.4</ele>
        <time>2022-06-25T06:18:09Z</time>
      </trkpt>
      <trkpt lat="46.66737" lon="5.48066">
        <ele>233.4</ele>
        <time>2022-06-25T06:18:10Z</time>
      </trkpt>
      <trkpt lat="46.6673" lon="5.48063">
        <ele>233.4</ele>
        <time>2022-06-25T06:18:11Z</time>
      </trkpt>
      <trkpt lat="46.66724" lon="5.4806">
        <ele>233.4</ele>
        <time>2022-06-25T06:18:12Z</time>
      </trkpt>
      <trkpt lat="46.66718" lon="5.48057">
        <ele>233.4</ele>
        <time>2022-06-25T06:18:13Z</time>
      </trkpt>
      <trkpt lat="46.66712" lon="5.48053">
        <ele>233.4</ele>
        <time>2022-06-25T06:18:14Z</time>
      </trkpt>
      <trkpt lat="46.66706" lon="5.4805">
        <ele>233.2</ele>
        <time>2022-06-25T06:18:15Z</time>
      </trkpt>
      <trkpt lat="46.66699" lon="5.48047">
        <ele>233.2</ele>
        <time>2022-06-25T06:18:16Z</time>
      </trkpt>
      <trkpt lat="46.66693" lon="5.48043">
        <ele>233.2</ele>
        <time>2022-06-25T06:18:17Z</time>
      </trkpt>
      <trkpt lat="46.66687" lon="5.4804">
        <ele>233.2</ele>
        <time>2022-06-25T06:18:18Z</time>
      </trkpt>
      <trkpt lat="46.6668" lon="5.48036">
        <ele>233.2</ele>
        <time>2022-06-25T06:18:19Z</time>
      </trkpt>
      <trkpt lat="46.66674" lon="5.48033">
        <ele>233.2</ele>
        <time>2022-06-25T06:18:20Z</time>
      </trkpt>
      <trkpt lat="46.66668" lon="5.48029">
        <ele>233.2</ele>
        <time>2022-06-25T06:18:21Z</time>
      </trkpt>
      <trkpt lat="46.66661" lon="5.48026">
        <ele>233.2</ele>
        <time>2022-06-25T06:18:22Z</time>
      </trkpt>
      <trkpt lat="46.66655" lon="5.48023">
        <ele>233.2</ele>
        <time>2022-06-25T06:18:23Z</time>
      </trkpt>
      <trkpt lat="46.66648" lon="5.4802">
        <ele>233.2</ele>
        <time>2022-06-25T06:18:24Z</time>
      </trkpt>
      <trkpt lat="46.66642" lon="5.48016">
        <ele>233.2</ele>
        <time>2022-06-25T06:18:25Z</time>
      </trkpt>
      <trkpt lat="46.66635" lon="5.48013">
        <ele>233.2</ele>
        <time>2022-06-25T06:18:26Z</time>
      </trkpt>
      <trkpt lat="46.66629" lon="5.4801">
        <ele>233.2</ele>
        <time>2022-06-25T06:18:27Z</time>
      </trkpt>
      <trkpt lat="46.66623" lon="5.48007">
        <ele>233.2</ele>
        <time>2022-06-25T06:18:28Z</time>
      </trkpt>
      <trkpt lat="46.66616" lon="5.48003">
        <ele>233.2</ele>
        <time>2022-06-25T06:18:29Z</time>
      </trkpt>
      <trkpt lat="46.6661" lon="5.48">
        <ele>233</ele>
        <time>2022-06-25T06:18:30Z</time>
      </trkpt>
      <trkpt lat="46.66604" lon="5.47996">
        <ele>233</ele>
        <time>2022-06-25T06:18:31Z</time>
      </trkpt>
      <trkpt lat="46.66597" lon="5.47993">
        <ele>232.8</ele>
        <time>2022-06-25T06:18:32Z</time>
      </trkpt>
      <trkpt lat="46.66591" lon="5.47989">
        <ele>232.8</ele>
        <time>2022-06-25T06:18:33Z</time>
      </trkpt>
      <trkpt lat="46.66585" lon="5.47987">
        <ele>232.8</ele>
        <time>2022-06-25T06:18:34Z</time>
      </trkpt>
      <trkpt lat="46.6658" lon="5.47984">
        <ele>232.6</ele>
        <time>2022-06-25T06:18:35Z</time>
      </trkpt>
      <trkpt lat="46.66574" lon="5.47982">
        <ele>232.4</ele>
        <time>2022-06-25T06:18:36Z</time>
      </trkpt>
      <trkpt lat="46.6657" lon="5.47979">
        <ele>232.4</ele>
        <time>2022-06-25T06:18:37Z</time>
      </trkpt>
      <trkpt lat="46.66567" lon="5.47975">
        <ele>232.2</ele>
        <time>2022-06-25T06:18:38Z</time>
      </trkpt>
      <trkpt lat="46.66565" lon="5.47969">
        <ele>232.2</ele>
        <time>2022-06-25T06:18:39Z</time>
      </trkpt>
      <trkpt lat="46.66565" lon="5.47962">
        <ele>232.2</ele>
        <time>2022-06-25T06:18:40Z</time>
      </trkpt>
      <trkpt lat="46.66565" lon="5.47955">
        <ele>232.2</ele>
        <time>2022-06-25T06:18:41Z</time>
      </trkpt>
      <trkpt lat="46.66566" lon="5.47948">
        <ele>231.8</ele>
        <time>2022-06-25T06:18:42Z</time>
      </trkpt>
      <trkpt lat="46.66568" lon="5.47941">
        <ele>231.8</ele>
        <time>2022-06-25T06:18:43Z</time>
      </trkpt>
      <trkpt lat="46.66569" lon="5.47934">
        <ele>231.8</ele>
        <time>2022-06-25T06:18:44Z</time>
      </trkpt>
      <trkpt lat="46.6657" lon="5.47926">
        <ele>231.8</ele>
        <time>2022-06-25T06:18:45Z</time>
      </trkpt>
      <trkpt lat="46.66571" lon="5.47918">
        <ele>231.8</ele>
        <time>2022-06-25T06:18:46Z</time>
      </trkpt>
      <trkpt lat="46.66572" lon="5.47911">
        <ele>231.6</ele>
        <time>2022-06-25T06:18:47Z</time>
      </trkpt>
      <trkpt lat="46.66574" lon="5.47903">
        <ele>231.6</ele>
        <time>2022-06-25T06:18:48Z</time>
      </trkpt>
      <trkpt lat="46.66575" lon="5.47895">
        <ele>231.6</ele>
        <time>2022-06-25T06:18:49Z</time>
      </trkpt>
      <trkpt lat="46.66576" lon="5.47887">
        <ele>231.6</ele>
        <time>2022-06-25T06:18:50Z</time>
      </trkpt>
      <trkpt lat="46.66578" lon="5.47879">
        <ele>231.6</ele>
        <time>2022-06-25T06:18:51Z</time>
      </trkpt>
      <trkpt lat="46.66579" lon="5.47871">
        <ele>231.6</ele>
        <time>2022-06-25T06:18:52Z</time>
      </trkpt>
      <trkpt lat="46.6658" lon="5.47863">
        <ele>231.6</ele>
        <time>2022-06-25T06:18:53Z</time>
      </trkpt>
      <trkpt lat="46.66581" lon="5.47855">
        <ele>231.6</ele>
        <time>2022-06-25T06:18:54Z</time>
      </trkpt>
      <trkpt lat="46.66582" lon="5.47847">
        <ele>231.6</ele>
        <time>2022-06-25T06:18:55Z</time>
      </trkpt>
      <trkpt lat="46.66583" lon="5.47839">
        <ele>231.6</ele>
        <time>2022-06-25T06:18:56Z</time>
      </trkpt>
      <trkpt lat="46.66584" lon="5.4783">
        <ele>231.6</ele>
        <time>2022-06-25T06:18:57Z</time>
      </trkpt>
      <trkpt lat="46.66586" lon="5.47822">
        <ele>231.6</ele>
        <time>2022-06-25T06:18:58Z</time>
      </trkpt>
      <trkpt lat="46.66587" lon="5.47814">
        <ele>231.6</ele>
        <time>2022-06-25T06:18:59Z</time>
      </trkpt>
      <trkpt lat="46.66588" lon="5.47806">
        <ele>232</ele>
        <time>2022-06-25T06:19:00Z</time>
      </trkpt>
      <trkpt lat="46.66591" lon="5.47789">
        <ele>232</ele>
        <time>2022-06-25T06:19:01Z</time>
      </trkpt>
      <trkpt lat="46.66592" lon="5.47781">
        <ele>232</ele>
        <time>2022-06-25T06:19:02Z</time>
      </trkpt>
      <trkpt lat="46.66594" lon="5.47772">
        <ele>231.6</ele>
        <time>2022-06-25T06:19:03Z</time>
      </trkpt>
      <trkpt lat="46.66595" lon="5.47764">
        <ele>231.6</ele>
        <time>2022-06-25T06:19:04Z</time>
      </trkpt>
      <trkpt lat="46.66597" lon="5.47755">
        <ele>231.6</ele>
        <time>2022-06-25T06:19:05Z</time>
      </trkpt>
      <trkpt lat="46.66598" lon="5.47747">
        <ele>231.6</ele>
        <time>2022-06-25T06:19:06Z</time>
      </trkpt>
      <trkpt lat="46.666" lon="5.47739">
        <ele>231.6</ele>
        <time>2022-06-25T06:19:07Z</time>
      </trkpt>
      <trkpt lat="46.66601" lon="5.4773">
        <ele>231.6</ele>
        <time>2022-06-25T06:19:08Z</time>
      </trkpt>
      <trkpt lat="46.66603" lon="5.47722">
        <ele>231.6</ele>
        <time>2022-06-25T06:19:09Z</time>
      </trkpt>
      <trkpt lat="46.66604" lon="5.47715">
        <ele>231.6</ele>
        <time>2022-06-25T06:19:10Z</time>
      </trkpt>
      <trkpt lat="46.66605" lon="5.47707">
        <ele>231.6</ele>
        <time>2022-06-25T06:19:11Z</time>
      </trkpt>
      <trkpt lat="46.66606" lon="5.47699">
        <ele>231.6</ele>
        <time>2022-06-25T06:19:12Z</time>
      </trkpt>
      <trkpt lat="46.66608" lon="5.47691">
        <ele>231.6</ele>
        <time>2022-06-25T06:19:13Z</time>
      </trkpt>
      <trkpt lat="46.66609" lon="5.47684">
        <ele>231.6</ele>
        <time>2022-06-25T06:19:14Z</time>
      </trkpt>
      <trkpt lat="46.6661" lon="5.47676">
        <ele>231.6</ele>
        <time>2022-06-25T06:19:15Z</time>
      </trkpt>
      <trkpt lat="46.66612" lon="5.47669">
        <ele>231.6</ele>
        <time>2022-06-25T06:19:16Z</time>
      </trkpt>
      <trkpt lat="46.66613" lon="5.47661">
        <ele>231.4</ele>
        <time>2022-06-25T06:19:17Z</time>
      </trkpt>
      <trkpt lat="46.66614" lon="5.47654">
        <ele>231.4</ele>
        <time>2022-06-25T06:19:18Z</time>
      </trkpt>
      <trkpt lat="46.66615" lon="5.47645">
        <ele>231.4</ele>
        <time>2022-06-25T06:19:19Z</time>
      </trkpt>
      <trkpt lat="46.66616" lon="5.47637">
        <ele>231.4</ele>
        <time>2022-06-25T06:19:20Z</time>
      </trkpt>
      <trkpt lat="46.66617" lon="5.47629">
        <ele>231.4</ele>
        <time>2022-06-25T06:19:21Z</time>
      </trkpt>
      <trkpt lat="46.66619" lon="5.47621">
        <ele>231.4</ele>
        <time>2022-06-25T06:19:22Z</time>
      </trkpt>
      <trkpt lat="46.66621" lon="5.47612">
        <ele>231</ele>
        <time>2022-06-25T06:19:24Z</time>
      </trkpt>
      <trkpt lat="46.66622" lon="5.47603">
        <ele>230.8</ele>
        <time>2022-06-25T06:19:25Z</time>
      </trkpt>
      <trkpt lat="46.66624" lon="5.47593">
        <ele>230.8</ele>
        <time>2022-06-25T06:19:26Z</time>
      </trkpt>
      <trkpt lat="46.66625" lon="5.47584">
        <ele>230.4</ele>
        <time>2022-06-25T06:19:27Z</time>
      </trkpt>
      <trkpt lat="46.66627" lon="5.47573">
        <ele>230.2</ele>
        <time>2022-06-25T06:19:28Z</time>
      </trkpt>
      <trkpt lat="46.66628" lon="5.47562">
        <ele>229.8</ele>
        <time>2022-06-25T06:19:29Z</time>
      </trkpt>
      <trkpt lat="46.66631" lon="5.47552">
        <ele>229.4</ele>
        <time>2022-06-25T06:19:30Z</time>
      </trkpt>
      <trkpt lat="46.66634" lon="5.47541">
        <ele>229.2</ele>
        <time>2022-06-25T06:19:31Z</time>
      </trkpt>
      <trkpt lat="46.66638" lon="5.4753">
        <ele>228.8</ele>
        <time>2022-06-25T06:19:32Z</time>
      </trkpt>
      <trkpt lat="46.66642" lon="5.47518">
        <ele>228.4</ele>
        <time>2022-06-25T06:19:33Z</time>
      </trkpt>
      <trkpt lat="46.66647" lon="5.47506">
        <ele>227.8</ele>
        <time>2022-06-25T06:19:34Z</time>
      </trkpt>
      <trkpt lat="46.66653" lon="5.47494">
        <ele>227.4</ele>
        <time>2022-06-25T06:19:35Z</time>
      </trkpt>
      <trkpt lat="46.66658" lon="5.47481">
        <ele>226.8</ele>
        <time>2022-06-25T06:19:36Z</time>
      </trkpt>
      <trkpt lat="46.66664" lon="5.47469">
        <ele>226.4</ele>
        <time>2022-06-25T06:19:37Z</time>
      </trkpt>
      <trkpt lat="46.66669" lon="5.47456">
        <ele>226</ele>
        <time>2022-06-25T06:19:38Z</time>
      </trkpt>
      <trkpt lat="46.66676" lon="5.47445">
        <ele>225.6</ele>
        <time>2022-06-25T06:19:39Z</time>
      </trkpt>
      <trkpt lat="46.66683" lon="5.47432">
        <ele>225.2</ele>
        <time>2022-06-25T06:19:40Z</time>
      </trkpt>
      <trkpt lat="46.6669" lon="5.47422">
        <ele>224.8</ele>
        <time>2022-06-25T06:19:41Z</time>
      </trkpt>
      <trkpt lat="46.66697" lon="5.47411">
        <ele>224.4</ele>
        <time>2022-06-25T06:19:42Z</time>
      </trkpt>
      <trkpt lat="46.66704" lon="5.47401">
        <ele>224.4</ele>
        <time>2022-06-25T06:19:43Z</time>
      </trkpt>
      <trkpt lat="46.66712" lon="5.47394">
        <ele>224.2</ele>
        <time>2022-06-25T06:19:44Z</time>
      </trkpt>
      <trkpt lat="46.66718" lon="5.47386">
        <ele>224.2</ele>
        <time>2022-06-25T06:19:45Z</time>
      </trkpt>
      <trkpt lat="46.66725" lon="5.47378">
        <ele>224.2</ele>
        <time>2022-06-25T06:19:46Z</time>
      </trkpt>
      <trkpt lat="46.66732" lon="5.47371">
        <ele>223.8</ele>
        <time>2022-06-25T06:19:47Z</time>
      </trkpt>
      <trkpt lat="46.66738" lon="5.47364">
        <ele>223.8</ele>
        <time>2022-06-25T06:19:48Z</time>
      </trkpt>
      <trkpt lat="46.66743" lon="5.47357">
        <ele>223.8</ele>
        <time>2022-06-25T06:19:49Z</time>
      </trkpt>
      <trkpt lat="46.66748" lon="5.47349">
        <ele>223.6</ele>
        <time>2022-06-25T06:19:50Z</time>
      </trkpt>
      <trkpt lat="46.66752" lon="5.47342">
        <ele>223.6</ele>
        <time>2022-06-25T06:19:51Z</time>
      </trkpt>
      <trkpt lat="46.66756" lon="5.47334">
        <ele>223.6</ele>
        <time>2022-06-25T06:19:52Z</time>
      </trkpt>
      <trkpt lat="46.6676" lon="5.47326">
        <ele>223.6</ele>
        <time>2022-06-25T06:19:53Z</time>
      </trkpt>
      <trkpt lat="46.66762" lon="5.47317">
        <ele>223.6</ele>
        <time>2022-06-25T06:19:54Z</time>
      </trkpt>
      <trkpt lat="46.66763" lon="5.47308">
        <ele>223.6</ele>
        <time>2022-06-25T06:19:55Z</time>
      </trkpt>
      <trkpt lat="46.66763" lon="5.47299">
        <ele>223.8</ele>
        <time>2022-06-25T06:19:56Z</time>
      </trkpt>
      <trkpt lat="46.66763" lon="5.47291">
        <ele>223.8</ele>
        <time>2022-06-25T06:19:57Z</time>
      </trkpt>
      <trkpt lat="46.66762" lon="5.47283">
        <ele>224.2</ele>
        <time>2022-06-25T06:19:58Z</time>
      </trkpt>
      <trkpt lat="46.66761" lon="5.47276">
        <ele>224.4</ele>
        <time>2022-06-25T06:19:59Z</time>
      </trkpt>
      <trkpt lat="46.66759" lon="5.47269">
        <ele>224.6</ele>
        <time>2022-06-25T06:20:00Z</time>
      </trkpt>
      <trkpt lat="46.66758" lon="5.47263">
        <ele>224.6</ele>
        <time>2022-06-25T06:20:01Z</time>
      </trkpt>
      <trkpt lat="46.66756" lon="5.47257">
        <ele>225</ele>
        <time>2022-06-25T06:20:02Z</time>
      </trkpt>
      <trkpt lat="46.66754" lon="5.47251">
        <ele>225.4</ele>
        <time>2022-06-25T06:20:03Z</time>
      </trkpt>
      <trkpt lat="46.66752" lon="5.47245">
        <ele>225.6</ele>
        <time>2022-06-25T06:20:04Z</time>
      </trkpt>
      <trkpt lat="46.6675" lon="5.47238">
        <ele>225.6</ele>
        <time>2022-06-25T06:20:05Z</time>
      </trkpt>
      <trkpt lat="46.66748" lon="5.47232">
        <ele>225.8</ele>
        <time>2022-06-25T06:20:06Z</time>
      </trkpt>
      <trkpt lat="46.66746" lon="5.47226">
        <ele>225.8</ele>
        <time>2022-06-25T06:20:07Z</time>
      </trkpt>
      <trkpt lat="46.66743" lon="5.4722">
        <ele>226.2</ele>
        <time>2022-06-25T06:20:08Z</time>
      </trkpt>
      <trkpt lat="46.66741" lon="5.47214">
        <ele>226.2</ele>
        <time>2022-06-25T06:20:09Z</time>
      </trkpt>
      <trkpt lat="46.66739" lon="5.47208">
        <ele>226.4</ele>
        <time>2022-06-25T06:20:10Z</time>
      </trkpt>
      <trkpt lat="46.66737" lon="5.47202">
        <ele>226.4</ele>
        <time>2022-06-25T06:20:11Z</time>
      </trkpt>
      <trkpt lat="46.66735" lon="5.47197">
        <ele>227</ele>
        <time>2022-06-25T06:20:12Z</time>
      </trkpt>
      <trkpt lat="46.66732" lon="5.47191">
        <ele>227.2</ele>
        <time>2022-06-25T06:20:13Z</time>
      </trkpt>
      <trkpt lat="46.6673" lon="5.47186">
        <ele>227.4</ele>
        <time>2022-06-25T06:20:14Z</time>
      </trkpt>
      <trkpt lat="46.66728" lon="5.4718">
        <ele>227.8</ele>
        <time>2022-06-25T06:20:15Z</time>
      </trkpt>
      <trkpt lat="46.66726" lon="5.47175">
        <ele>228</ele>
        <time>2022-06-25T06:20:16Z</time>
      </trkpt>
      <trkpt lat="46.66724" lon="5.47169">
        <ele>228.2</ele>
        <time>2022-06-25T06:20:17Z</time>
      </trkpt>
      <trkpt lat="46.66722" lon="5.47164">
        <ele>228.6</ele>
        <time>2022-06-25T06:20:18Z</time>
      </trkpt>
      <trkpt lat="46.66719" lon="5.47158">
        <ele>228.6</ele>
        <time>2022-06-25T06:20:19Z</time>
      </trkpt>
      <trkpt lat="46.66717" lon="5.47153">
        <ele>228.8</ele>
        <time>2022-06-25T06:20:20Z</time>
      </trkpt>
      <trkpt lat="46.66714" lon="5.47149">
        <ele>228.8</ele>
        <time>2022-06-25T06:20:21Z</time>
      </trkpt>
      <trkpt lat="46.66712" lon="5.47144">
        <ele>229</ele>
        <time>2022-06-25T06:20:22Z</time>
      </trkpt>
      <trkpt lat="46.6671" lon="5.47138">
        <ele>229</ele>
        <time>2022-06-25T06:20:23Z</time>
      </trkpt>
      <trkpt lat="46.66709" lon="5.47133">
        <ele>229</ele>
        <time>2022-06-25T06:20:24Z</time>
      </trkpt>
      <trkpt lat="46.66707" lon="5.47127">
        <ele>229.4</ele>
        <time>2022-06-25T06:20:25Z</time>
      </trkpt>
      <trkpt lat="46.66705" lon="5.47122">
        <ele>229.4</ele>
        <time>2022-06-25T06:20:26Z</time>
      </trkpt>
      <trkpt lat="46.66703" lon="5.47116">
        <ele>229.4</ele>
        <time>2022-06-25T06:20:27Z</time>
      </trkpt>
      <trkpt lat="46.667" lon="5.47111">
        <ele>229.6</ele>
        <time>2022-06-25T06:20:28Z</time>
      </trkpt>
      <trkpt lat="46.66697" lon="5.47105">
        <ele>229.6</ele>
        <time>2022-06-25T06:20:29Z</time>
      </trkpt>
      <trkpt lat="46.66695" lon="5.471">
        <ele>229.8</ele>
        <time>2022-06-25T06:20:30Z</time>
      </trkpt>
      <trkpt lat="46.66693" lon="5.47094">
        <ele>229.8</ele>
        <time>2022-06-25T06:20:31Z</time>
      </trkpt>
      <trkpt lat="46.6669" lon="5.47088">
        <ele>229.8</ele>
        <time>2022-06-25T06:20:32Z</time>
      </trkpt>
      <trkpt lat="46.66688" lon="5.47082">
        <ele>229.8</ele>
        <time>2022-06-25T06:20:33Z</time>
      </trkpt>
      <trkpt lat="46.66685" lon="5.47076">
        <ele>229.8</ele>
        <time>2022-06-25T06:20:34Z</time>
      </trkpt>
      <trkpt lat="46.66683" lon="5.4707">
        <ele>229.8</ele>
        <time>2022-06-25T06:20:35Z</time>
      </trkpt>
      <trkpt lat="46.66681" lon="5.47064">
        <ele>230</ele>
        <time>2022-06-25T06:20:36Z</time>
      </trkpt>
      <trkpt lat="46.66678" lon="5.47058">
        <ele>230</ele>
        <time>2022-06-25T06:20:37Z</time>
      </trkpt>
      <trkpt lat="46.66676" lon="5.47052">
        <ele>230</ele>
        <time>2022-06-25T06:20:38Z</time>
      </trkpt>
      <trkpt lat="46.66673" lon="5.47047">
        <ele>230</ele>
        <time>2022-06-25T06:20:39Z</time>
      </trkpt>
      <trkpt lat="46.66671" lon="5.47041">
        <ele>230</ele>
        <time>2022-06-25T06:20:40Z</time>
      </trkpt>
      <trkpt lat="46.66668" lon="5.47035">
        <ele>230</ele>
        <time>2022-06-25T06:20:41Z</time>
      </trkpt>
      <trkpt lat="46.66666" lon="5.47029">
        <ele>230</ele>
        <time>2022-06-25T06:20:42Z</time>
      </trkpt>
      <trkpt lat="46.66663" lon="5.47022">
        <ele>230</ele>
        <time>2022-06-25T06:20:43Z</time>
      </trkpt>
      <trkpt lat="46.66661" lon="5.47016">
        <ele>230</ele>
        <time>2022-06-25T06:20:44Z</time>
      </trkpt>
      <trkpt lat="46.66659" lon="5.4701">
        <ele>230</ele>
        <time>2022-06-25T06:20:45Z</time>
      </trkpt>
      <trkpt lat="46.66656" lon="5.47004">
        <ele>229.8</ele>
        <time>2022-06-25T06:20:46Z</time>
      </trkpt>
      <trkpt lat="46.66653" lon="5.46999">
        <ele>229.8</ele>
        <time>2022-06-25T06:20:47Z</time>
      </trkpt>
      <trkpt lat="46.6665" lon="5.46995">
        <ele>229.4</ele>
        <time>2022-06-25T06:20:48Z</time>
      </trkpt>
      <trkpt lat="46.66646" lon="5.46994">
        <ele>229.4</ele>
        <time>2022-06-25T06:20:49Z</time>
      </trkpt>
      <trkpt lat="46.66641" lon="5.46996">
        <ele>229.2</ele>
        <time>2022-06-25T06:20:50Z</time>
      </trkpt>
      <trkpt lat="46.66636" lon="5.46998">
        <ele>229</ele>
        <time>2022-06-25T06:20:51Z</time>
      </trkpt>
      <trkpt lat="46.6663" lon="5.47001">
        <ele>229</ele>
        <time>2022-06-25T06:20:52Z</time>
      </trkpt>
      <trkpt lat="46.66625" lon="5.47003">
        <ele>228.6</ele>
        <time>2022-06-25T06:20:53Z</time>
      </trkpt>
      <trkpt lat="46.66619" lon="5.47005">
        <ele>228.6</ele>
        <time>2022-06-25T06:20:54Z</time>
      </trkpt>
      <trkpt lat="46.66613" lon="5.47006">
        <ele>228.6</ele>
        <time>2022-06-25T06:20:55Z</time>
      </trkpt>
      <trkpt lat="46.66607" lon="5.47007">
        <ele>228.4</ele>
        <time>2022-06-25T06:20:56Z</time>
      </trkpt>
      <trkpt lat="46.66601" lon="5.47008">
        <ele>228.4</ele>
        <time>2022-06-25T06:20:57Z</time>
      </trkpt>
      <trkpt lat="46.66594" lon="5.47009">
        <ele>228</ele>
        <time>2022-06-25T06:20:58Z</time>
      </trkpt>
      <trkpt lat="46.66588" lon="5.47009">
        <ele>228</ele>
        <time>2022-06-25T06:20:59Z</time>
      </trkpt>
      <trkpt lat="46.66581" lon="5.4701">
        <ele>227.8</ele>
        <time>2022-06-25T06:21:00Z</time>
      </trkpt>
      <trkpt lat="46.66575" lon="5.47011">
        <ele>227.8</ele>
        <time>2022-06-25T06:21:01Z</time>
      </trkpt>
      <trkpt lat="46.66568" lon="5.47011">
        <ele>227.6</ele>
        <time>2022-06-25T06:21:02Z</time>
      </trkpt>
      <trkpt lat="46.66562" lon="5.47011">
        <ele>227.6</ele>
        <time>2022-06-25T06:21:03Z</time>
      </trkpt>
      <trkpt lat="46.66555" lon="5.4701">
        <ele>227.4</ele>
        <time>2022-06-25T06:21:04Z</time>
      </trkpt>
      <trkpt lat="46.66548" lon="5.4701">
        <ele>227</ele>
        <time>2022-06-25T06:21:05Z</time>
      </trkpt>
      <trkpt lat="46.66541" lon="5.4701">
        <ele>226.8</ele>
        <time>2022-06-25T06:21:06Z</time>
      </trkpt>
      <trkpt lat="46.66534" lon="5.47009">
        <ele>226.2</ele>
        <time>2022-06-25T06:21:07Z</time>
      </trkpt>
      <trkpt lat="46.66527" lon="5.47008">
        <ele>225.8</ele>
        <time>2022-06-25T06:21:08Z</time>
      </trkpt>
      <trkpt lat="46.6652" lon="5.47008">
        <ele>225.4</ele>
        <time>2022-06-25T06:21:09Z</time>
      </trkpt>
      <trkpt lat="46.66514" lon="5.47007">
        <ele>224.8</ele>
        <time>2022-06-25T06:21:10Z</time>
      </trkpt>
      <trkpt lat="46.66509" lon="5.47006">
        <ele>224.4</ele>
        <time>2022-06-25T06:21:11Z</time>
      </trkpt>
      <trkpt lat="46.66505" lon="5.47003">
        <ele>224</ele>
        <time>2022-06-25T06:21:12Z</time>
      </trkpt>
      <trkpt lat="46.66502" lon="5.47">
        <ele>223.8</ele>
        <time>2022-06-25T06:21:13Z</time>
      </trkpt>
      <trkpt lat="46.66499" lon="5.46995">
        <ele>223.6</ele>
        <time>2022-06-25T06:21:14Z</time>
      </trkpt>
      <trkpt lat="46.66498" lon="5.46989">
        <ele>223.6</ele>
        <time>2022-06-25T06:21:15Z</time>
      </trkpt>
      <trkpt lat="46.66496" lon="5.46981">
        <ele>223.2</ele>
        <time>2022-06-25T06:21:16Z</time>
      </trkpt>
      <trkpt lat="46.66495" lon="5.46974">
        <ele>223.2</ele>
        <time>2022-06-25T06:21:17Z</time>
      </trkpt>
      <trkpt lat="46.66495" lon="5.46966">
        <ele>223</ele>
        <time>2022-06-25T06:21:18Z</time>
      </trkpt>
      <trkpt lat="46.66494" lon="5.46957">
        <ele>223</ele>
        <time>2022-06-25T06:21:19Z</time>
      </trkpt>
      <trkpt lat="46.66494" lon="5.46949">
        <ele>223</ele>
        <time>2022-06-25T06:21:20Z</time>
      </trkpt>
      <trkpt lat="46.66493" lon="5.4694">
        <ele>223</ele>
        <time>2022-06-25T06:21:21Z</time>
      </trkpt>
      <trkpt lat="46.66493" lon="5.46931">
        <ele>223</ele>
        <time>2022-06-25T06:21:22Z</time>
      </trkpt>
      <trkpt lat="46.66492" lon="5.46923">
        <ele>222.8</ele>
        <time>2022-06-25T06:21:23Z</time>
      </trkpt>
      <trkpt lat="46.66491" lon="5.46914">
        <ele>222.8</ele>
        <time>2022-06-25T06:21:24Z</time>
      </trkpt>
      <trkpt lat="46.6649" lon="5.46905">
        <ele>222.8</ele>
        <time>2022-06-25T06:21:25Z</time>
      </trkpt>
      <trkpt lat="46.6649" lon="5.46896">
        <ele>222.8</ele>
        <time>2022-06-25T06:21:26Z</time>
      </trkpt>
      <trkpt lat="46.66489" lon="5.46887">
        <ele>222.8</ele>
        <time>2022-06-25T06:21:27Z</time>
      </trkpt>
      <trkpt lat="46.66488" lon="5.46878">
        <ele>222.8</ele>
        <time>2022-06-25T06:21:28Z</time>
      </trkpt>
      <trkpt lat="46.66487" lon="5.46869">
        <ele>222.8</ele>
        <time>2022-06-25T06:21:29Z</time>
      </trkpt>
      <trkpt lat="46.66487" lon="5.4686">
        <ele>222.8</ele>
        <time>2022-06-25T06:21:30Z</time>
      </trkpt>
      <trkpt lat="46.66486" lon="5.46851">
        <ele>222.8</ele>
        <time>2022-06-25T06:21:31Z</time>
      </trkpt>
      <trkpt lat="46.66486" lon="5.46841">
        <ele>222.8</ele>
        <time>2022-06-25T06:21:32Z</time>
      </trkpt>
      <trkpt lat="46.66485" lon="5.46832">
        <ele>222.8</ele>
        <time>2022-06-25T06:21:33Z</time>
      </trkpt>
      <trkpt lat="46.66484" lon="5.46823">
        <ele>222.8</ele>
        <time>2022-06-25T06:21:34Z</time>
      </trkpt>
      <trkpt lat="46.66483" lon="5.46813">
        <ele>222.8</ele>
        <time>2022-06-25T06:21:35Z</time>
      </trkpt>
      <trkpt lat="46.66482" lon="5.46804">
        <ele>222.8</ele>
        <time>2022-06-25T06:21:36Z</time>
      </trkpt>
      <trkpt lat="46.66482" lon="5.46795">
        <ele>222.8</ele>
        <time>2022-06-25T06:21:37Z</time>
      </trkpt>
      <trkpt lat="46.66481" lon="5.46785">
        <ele>222.6</ele>
        <time>2022-06-25T06:21:38Z</time>
      </trkpt>
      <trkpt lat="46.6648" lon="5.46776">
        <ele>222.6</ele>
        <time>2022-06-25T06:21:39Z</time>
      </trkpt>
      <trkpt lat="46.66479" lon="5.46766">
        <ele>222.6</ele>
        <time>2022-06-25T06:21:40Z</time>
      </trkpt>
      <trkpt lat="46.66479" lon="5.46757">
        <ele>222.6</ele>
        <time>2022-06-25T06:21:41Z</time>
      </trkpt>
      <trkpt lat="46.66478" lon="5.46747">
        <ele>222.6</ele>
        <time>2022-06-25T06:21:42Z</time>
      </trkpt>
      <trkpt lat="46.66477" lon="5.46738">
        <ele>222.6</ele>
        <time>2022-06-25T06:21:43Z</time>
      </trkpt>
      <trkpt lat="46.66477" lon="5.46729">
        <ele>222.6</ele>
        <time>2022-06-25T06:21:44Z</time>
      </trkpt>
      <trkpt lat="46.66476" lon="5.46719">
        <ele>222.6</ele>
        <time>2022-06-25T06:21:45Z</time>
      </trkpt>
      <trkpt lat="46.66475" lon="5.4671">
        <ele>222.6</ele>
        <time>2022-06-25T06:21:46Z</time>
      </trkpt>
      <trkpt lat="46.66475" lon="5.467">
        <ele>222.6</ele>
        <time>2022-06-25T06:21:47Z</time>
      </trkpt>
      <trkpt lat="46.66473" lon="5.46691">
        <ele>222.6</ele>
        <time>2022-06-25T06:21:48Z</time>
      </trkpt>
      <trkpt lat="46.66472" lon="5.46681">
        <ele>222.6</ele>
        <time>2022-06-25T06:21:49Z</time>
      </trkpt>
      <trkpt lat="46.66471" lon="5.46671">
        <ele>222.6</ele>
        <time>2022-06-25T06:21:50Z</time>
      </trkpt>
      <trkpt lat="46.6647" lon="5.46661">
        <ele>222.6</ele>
        <time>2022-06-25T06:21:51Z</time>
      </trkpt>
      <trkpt lat="46.66468" lon="5.46651">
        <ele>222.6</ele>
        <time>2022-06-25T06:21:52Z</time>
      </trkpt>
      <trkpt lat="46.66467" lon="5.46642">
        <ele>222.6</ele>
        <time>2022-06-25T06:21:53Z</time>
      </trkpt>
      <trkpt lat="46.66467" lon="5.46632">
        <ele>222.4</ele>
        <time>2022-06-25T06:21:54Z</time>
      </trkpt>
      <trkpt lat="46.66466" lon="5.46622">
        <ele>222.4</ele>
        <time>2022-06-25T06:21:55Z</time>
      </trkpt>
      <trkpt lat="46.66465" lon="5.46612">
        <ele>222.4</ele>
        <time>2022-06-25T06:21:56Z</time>
      </trkpt>
      <trkpt lat="46.66463" lon="5.46602">
        <ele>222.4</ele>
        <time>2022-06-25T06:21:57Z</time>
      </trkpt>
      <trkpt lat="46.66462" lon="5.46592">
        <ele>222</ele>
        <time>2022-06-25T06:21:58Z</time>
      </trkpt>
      <trkpt lat="46.6646" lon="5.46582">
        <ele>222</ele>
        <time>2022-06-25T06:21:59Z</time>
      </trkpt>
      <trkpt lat="46.66458" lon="5.46572">
        <ele>222</ele>
        <time>2022-06-25T06:22:00Z</time>
      </trkpt>
      <trkpt lat="46.66456" lon="5.46562">
        <ele>222</ele>
        <time>2022-06-25T06:22:01Z</time>
      </trkpt>
      <trkpt lat="46.66454" lon="5.46552">
        <ele>221.8</ele>
        <time>2022-06-25T06:22:02Z</time>
      </trkpt>
      <trkpt lat="46.66452" lon="5.46542">
        <ele>221.8</ele>
        <time>2022-06-25T06:22:03Z</time>
      </trkpt>
      <trkpt lat="46.66449" lon="5.46532">
        <ele>221.8</ele>
        <time>2022-06-25T06:22:04Z</time>
      </trkpt>
      <trkpt lat="46.66447" lon="5.46522">
        <ele>221.8</ele>
        <time>2022-06-25T06:22:05Z</time>
      </trkpt>
      <trkpt lat="46.66445" lon="5.46512">
        <ele>221.8</ele>
        <time>2022-06-25T06:22:06Z</time>
      </trkpt>
      <trkpt lat="46.66443" lon="5.46502">
        <ele>221.6</ele>
        <time>2022-06-25T06:22:07Z</time>
      </trkpt>
      <trkpt lat="46.66441" lon="5.46492">
        <ele>221.6</ele>
        <time>2022-06-25T06:22:08Z</time>
      </trkpt>
      <trkpt lat="46.66439" lon="5.46482">
        <ele>221.6</ele>
        <time>2022-06-25T06:22:09Z</time>
      </trkpt>
      <trkpt lat="46.66437" lon="5.46472">
        <ele>221.6</ele>
        <time>2022-06-25T06:22:10Z</time>
      </trkpt>
      <trkpt lat="46.66434" lon="5.46462">
        <ele>221.4</ele>
        <time>2022-06-25T06:22:11Z</time>
      </trkpt>
      <trkpt lat="46.66432" lon="5.46453">
        <ele>221.4</ele>
        <time>2022-06-25T06:22:12Z</time>
      </trkpt>
      <trkpt lat="46.6643" lon="5.46444">
        <ele>221.4</ele>
        <time>2022-06-25T06:22:13Z</time>
      </trkpt>
      <trkpt lat="46.66428" lon="5.46434">
        <ele>221.4</ele>
        <time>2022-06-25T06:22:14Z</time>
      </trkpt>
      <trkpt lat="46.66426" lon="5.46425">
        <ele>221.2</ele>
        <time>2022-06-25T06:22:15Z</time>
      </trkpt>
      <trkpt lat="46.66424" lon="5.46416">
        <ele>221.2</ele>
        <time>2022-06-25T06:22:16Z</time>
      </trkpt>
      <trkpt lat="46.66422" lon="5.46407">
        <ele>221.2</ele>
        <time>2022-06-25T06:22:17Z</time>
      </trkpt>
      <trkpt lat="46.66421" lon="5.46398">
        <ele>221.2</ele>
        <time>2022-06-25T06:22:18Z</time>
      </trkpt>
      <trkpt lat="46.66419" lon="5.4639">
        <ele>220.8</ele>
        <time>2022-06-25T06:22:19Z</time>
      </trkpt>
      <trkpt lat="46.66418" lon="5.46382">
        <ele>220.8</ele>
        <time>2022-06-25T06:22:20Z</time>
      </trkpt>
      <trkpt lat="46.66417" lon="5.46374">
        <ele>220.8</ele>
        <time>2022-06-25T06:22:21Z</time>
      </trkpt>
      <trkpt lat="46.66416" lon="5.46367">
        <ele>220.8</ele>
        <time>2022-06-25T06:22:22Z</time>
      </trkpt>
      <trkpt lat="46.66416" lon="5.46361">
        <ele>220.8</ele>
        <time>2022-06-25T06:22:23Z</time>
      </trkpt>
      <trkpt lat="46.66416" lon="5.46356">
        <ele>220.8</ele>
        <time>2022-06-25T06:22:24Z</time>
      </trkpt>
      <trkpt lat="46.66416" lon="5.46352">
        <ele>220.8</ele>
        <time>2022-06-25T06:22:25Z</time>
      </trkpt>
      <trkpt lat="46.66415" lon="5.46348">
        <ele>220.8</ele>
        <time>2022-06-25T06:22:26Z</time>
      </trkpt>
      <trkpt lat="46.66415" lon="5.46343">
        <ele>220.8</ele>
        <time>2022-06-25T06:22:27Z</time>
      </trkpt>
      <trkpt lat="46.66414" lon="5.46339">
        <ele>220.8</ele>
        <time>2022-06-25T06:22:28Z</time>
      </trkpt>
      <trkpt lat="46.66413" lon="5.46334">
        <ele>220.8</ele>
        <time>2022-06-25T06:22:29Z</time>
      </trkpt>
      <trkpt lat="46.66412" lon="5.46328">
        <ele>220.8</ele>
        <time>2022-06-25T06:22:30Z</time>
      </trkpt>
      <trkpt lat="46.66411" lon="5.46321">
        <ele>220.8</ele>
        <time>2022-06-25T06:22:31Z</time>
      </trkpt>
      <trkpt lat="46.66411" lon="5.46314">
        <ele>220.8</ele>
        <time>2022-06-25T06:22:32Z</time>
      </trkpt>
      <trkpt lat="46.6641" lon="5.46307">
        <ele>220.8</ele>
        <time>2022-06-25T06:22:33Z</time>
      </trkpt>
      <trkpt lat="46.6641" lon="5.46299">
        <ele>221</ele>
        <time>2022-06-25T06:22:34Z</time>
      </trkpt>
      <trkpt lat="46.66409" lon="5.46291">
        <ele>221</ele>
        <time>2022-06-25T06:22:35Z</time>
      </trkpt>
      <trkpt lat="46.66409" lon="5.46283">
        <ele>221</ele>
        <time>2022-06-25T06:22:36Z</time>
      </trkpt>
      <trkpt lat="46.66408" lon="5.46275">
        <ele>221.4</ele>
        <time>2022-06-25T06:22:37Z</time>
      </trkpt>
      <trkpt lat="46.66407" lon="5.46266">
        <ele>221.4</ele>
        <time>2022-06-25T06:22:38Z</time>
      </trkpt>
      <trkpt lat="46.66407" lon="5.46258">
        <ele>221.4</ele>
        <time>2022-06-25T06:22:39Z</time>
      </trkpt>
      <trkpt lat="46.66406" lon="5.4625">
        <ele>221.4</ele>
        <time>2022-06-25T06:22:40Z</time>
      </trkpt>
      <trkpt lat="46.66407" lon="5.46241">
        <ele>221.4</ele>
        <time>2022-06-25T06:22:41Z</time>
      </trkpt>
      <trkpt lat="46.66407" lon="5.46233">
        <ele>221.4</ele>
        <time>2022-06-25T06:22:42Z</time>
      </trkpt>
      <trkpt lat="46.66407" lon="5.46224">
        <ele>221.6</ele>
        <time>2022-06-25T06:22:43Z</time>
      </trkpt>
      <trkpt lat="46.66408" lon="5.46215">
        <ele>221.6</ele>
        <time>2022-06-25T06:22:44Z</time>
      </trkpt>
      <trkpt lat="46.66408" lon="5.46206">
        <ele>221.6</ele>
        <time>2022-06-25T06:22:45Z</time>
      </trkpt>
      <trkpt lat="46.66409" lon="5.46197">
        <ele>221.6</ele>
        <time>2022-06-25T06:22:46Z</time>
      </trkpt>
      <trkpt lat="46.6641" lon="5.46188">
        <ele>221.6</ele>
        <time>2022-06-25T06:22:47Z</time>
      </trkpt>
      <trkpt lat="46.66411" lon="5.46178">
        <ele>221.6</ele>
        <time>2022-06-25T06:22:48Z</time>
      </trkpt>
      <trkpt lat="46.66412" lon="5.46168">
        <ele>221.8</ele>
        <time>2022-06-25T06:22:49Z</time>
      </trkpt>
      <trkpt lat="46.66413" lon="5.46159">
        <ele>221.8</ele>
        <time>2022-06-25T06:22:50Z</time>
      </trkpt>
      <trkpt lat="46.66414" lon="5.46149">
        <ele>221.8</ele>
        <time>2022-06-25T06:22:51Z</time>
      </trkpt>
      <trkpt lat="46.66416" lon="5.46139">
        <ele>221.8</ele>
        <time>2022-06-25T06:22:52Z</time>
      </trkpt>
      <trkpt lat="46.66417" lon="5.46129">
        <ele>221.8</ele>
        <time>2022-06-25T06:22:53Z</time>
      </trkpt>
      <trkpt lat="46.66418" lon="5.46119">
        <ele>222</ele>
        <time>2022-06-25T06:22:54Z</time>
      </trkpt>
      <trkpt lat="46.66419" lon="5.46108">
        <ele>222</ele>
        <time>2022-06-25T06:22:55Z</time>
      </trkpt>
      <trkpt lat="46.6642" lon="5.46098">
        <ele>222</ele>
        <time>2022-06-25T06:22:56Z</time>
      </trkpt>
      <trkpt lat="46.66421" lon="5.46088">
        <ele>222</ele>
        <time>2022-06-25T06:22:57Z</time>
      </trkpt>
      <trkpt lat="46.66423" lon="5.46077">
        <ele>222</ele>
        <time>2022-06-25T06:22:58Z</time>
      </trkpt>
      <trkpt lat="46.66424" lon="5.46067">
        <ele>222</ele>
        <time>2022-06-25T06:22:59Z</time>
      </trkpt>
      <trkpt lat="46.66425" lon="5.46056">
        <ele>222</ele>
        <time>2022-06-25T06:23:00Z</time>
      </trkpt>
      <trkpt lat="46.66426" lon="5.46046">
        <ele>221.8</ele>
        <time>2022-06-25T06:23:01Z</time>
      </trkpt>
      <trkpt lat="46.66427" lon="5.46036">
        <ele>221.8</ele>
        <time>2022-06-25T06:23:02Z</time>
      </trkpt>
      <trkpt lat="46.66429" lon="5.46026">
        <ele>221.8</ele>
        <time>2022-06-25T06:23:03Z</time>
      </trkpt>
      <trkpt lat="46.6643" lon="5.46015">
        <ele>221.8</ele>
        <time>2022-06-25T06:23:04Z</time>
      </trkpt>
      <trkpt lat="46.66431" lon="5.46005">
        <ele>221.8</ele>
        <time>2022-06-25T06:23:05Z</time>
      </trkpt>
      <trkpt lat="46.66432" lon="5.45995">
        <ele>221.8</ele>
        <time>2022-06-25T06:23:06Z</time>
      </trkpt>
      <trkpt lat="46.66433" lon="5.45984">
        <ele>221.8</ele>
        <time>2022-06-25T06:23:07Z</time>
      </trkpt>
      <trkpt lat="46.66434" lon="5.45974">
        <ele>221.8</ele>
        <time>2022-06-25T06:23:08Z</time>
      </trkpt>
      <trkpt lat="46.66434" lon="5.45964">
        <ele>221.8</ele>
        <time>2022-06-25T06:23:09Z</time>
      </trkpt>
      <trkpt lat="46.66435" lon="5.45955">
        <ele>221.8</ele>
        <time>2022-06-25T06:23:10Z</time>
      </trkpt>
      <trkpt lat="46.66436" lon="5.45945">
        <ele>221.8</ele>
        <time>2022-06-25T06:23:11Z</time>
      </trkpt>
      <trkpt lat="46.66437" lon="5.45935">
        <ele>221.8</ele>
        <time>2022-06-25T06:23:12Z</time>
      </trkpt>
      <trkpt lat="46.66437" lon="5.45926">
        <ele>221.6</ele>
        <time>2022-06-25T06:23:13Z</time>
      </trkpt>
      <trkpt lat="46.66438" lon="5.45916">
        <ele>221.6</ele>
        <time>2022-06-25T06:23:14Z</time>
      </trkpt>
      <trkpt lat="46.66439" lon="5.45907">
        <ele>221.6</ele>
        <time>2022-06-25T06:23:15Z</time>
      </trkpt>
      <trkpt lat="46.6644" lon="5.45897">
        <ele>221.6</ele>
        <time>2022-06-25T06:23:16Z</time>
      </trkpt>
      <trkpt lat="46.6644" lon="5.45888">
        <ele>221.6</ele>
        <time>2022-06-25T06:23:17Z</time>
      </trkpt>
      <trkpt lat="46.66441" lon="5.4588">
        <ele>221.6</ele>
        <time>2022-06-25T06:23:18Z</time>
      </trkpt>
      <trkpt lat="46.66441" lon="5.45871">
        <ele>221.4</ele>
        <time>2022-06-25T06:23:19Z</time>
      </trkpt>
      <trkpt lat="46.66441" lon="5.45864">
        <ele>221.4</ele>
        <time>2022-06-25T06:23:20Z</time>
      </trkpt>
      <trkpt lat="46.66441" lon="5.45857">
        <ele>221.4</ele>
        <time>2022-06-25T06:23:21Z</time>
      </trkpt>
      <trkpt lat="46.66442" lon="5.45851">
        <ele>221.4</ele>
        <time>2022-06-25T06:23:22Z</time>
      </trkpt>
      <trkpt lat="46.66443" lon="5.45846">
        <ele>221.4</ele>
        <time>2022-06-25T06:23:23Z</time>
      </trkpt>
      <trkpt lat="46.66444" lon="5.45841">
        <ele>221.4</ele>
        <time>2022-06-25T06:23:24Z</time>
      </trkpt>
      <trkpt lat="46.66445" lon="5.45835">
        <ele>221.4</ele>
        <time>2022-06-25T06:23:25Z</time>
      </trkpt>
      <trkpt lat="46.66444" lon="5.4583">
        <ele>221.4</ele>
        <time>2022-06-25T06:23:26Z</time>
      </trkpt>
      <trkpt lat="46.66444" lon="5.45824">
        <ele>221.4</ele>
        <time>2022-06-25T06:23:27Z</time>
      </trkpt>
      <trkpt lat="46.66444" lon="5.45818">
        <ele>221.4</ele>
        <time>2022-06-25T06:23:28Z</time>
      </trkpt>
      <trkpt lat="46.66445" lon="5.45811">
        <ele>221.4</ele>
        <time>2022-06-25T06:23:29Z</time>
      </trkpt>
      <trkpt lat="46.66445" lon="5.45804">
        <ele>221.4</ele>
        <time>2022-06-25T06:23:30Z</time>
      </trkpt>
      <trkpt lat="46.66445" lon="5.45796">
        <ele>221.4</ele>
        <time>2022-06-25T06:23:31Z</time>
      </trkpt>
      <trkpt lat="46.66445" lon="5.45788">
        <ele>221.4</ele>
        <time>2022-06-25T06:23:32Z</time>
      </trkpt>
      <trkpt lat="46.66446" lon="5.45779">
        <ele>221.4</ele>
        <time>2022-06-25T06:23:33Z</time>
      </trkpt>
      <trkpt lat="46.66446" lon="5.45771">
        <ele>221.4</ele>
        <time>2022-06-25T06:23:34Z</time>
      </trkpt>
      <trkpt lat="46.66447" lon="5.45762">
        <ele>221.4</ele>
        <time>2022-06-25T06:23:35Z</time>
      </trkpt>
      <trkpt lat="46.66447" lon="5.45754">
        <ele>221.4</ele>
        <time>2022-06-25T06:23:36Z</time>
      </trkpt>
      <trkpt lat="46.66448" lon="5.45745">
        <ele>221.4</ele>
        <time>2022-06-25T06:23:37Z</time>
      </trkpt>
      <trkpt lat="46.66449" lon="5.45736">
        <ele>221.6</ele>
        <time>2022-06-25T06:23:38Z</time>
      </trkpt>
      <trkpt lat="46.6645" lon="5.45727">
        <ele>221.6</ele>
        <time>2022-06-25T06:23:39Z</time>
      </trkpt>
      <trkpt lat="46.6645" lon="5.45718">
        <ele>221.6</ele>
        <time>2022-06-25T06:23:40Z</time>
      </trkpt>
      <trkpt lat="46.66451" lon="5.45709">
        <ele>221.6</ele>
        <time>2022-06-25T06:23:41Z</time>
      </trkpt>
      <trkpt lat="46.66451" lon="5.45699">
        <ele>221.6</ele>
        <time>2022-06-25T06:23:42Z</time>
      </trkpt>
      <trkpt lat="46.66452" lon="5.4569">
        <ele>221.6</ele>
        <time>2022-06-25T06:23:43Z</time>
      </trkpt>
      <trkpt lat="46.66452" lon="5.45681">
        <ele>221.6</ele>
        <time>2022-06-25T06:23:44Z</time>
      </trkpt>
      <trkpt lat="46.66453" lon="5.45671">
        <ele>221.6</ele>
        <time>2022-06-25T06:23:45Z</time>
      </trkpt>
      <trkpt lat="46.66453" lon="5.45662">
        <ele>221.6</ele>
        <time>2022-06-25T06:23:46Z</time>
      </trkpt>
      <trkpt lat="46.66454" lon="5.45652">
        <ele>221.6</ele>
        <time>2022-06-25T06:23:47Z</time>
      </trkpt>
      <trkpt lat="46.66455" lon="5.45642">
        <ele>221.6</ele>
        <time>2022-06-25T06:23:48Z</time>
      </trkpt>
      <trkpt lat="46.66455" lon="5.45633">
        <ele>221.6</ele>
        <time>2022-06-25T06:23:49Z</time>
      </trkpt>
      <trkpt lat="46.66456" lon="5.45623">
        <ele>221.6</ele>
        <time>2022-06-25T06:23:50Z</time>
      </trkpt>
      <trkpt lat="46.66456" lon="5.45613">
        <ele>221.6</ele>
        <time>2022-06-25T06:23:51Z</time>
      </trkpt>
      <trkpt lat="46.66457" lon="5.45603">
        <ele>221.6</ele>
        <time>2022-06-25T06:23:52Z</time>
      </trkpt>
      <trkpt lat="46.66457" lon="5.45594">
        <ele>221.6</ele>
        <time>2022-06-25T06:23:53Z</time>
      </trkpt>
      <trkpt lat="46.66458" lon="5.45584">
        <ele>221.6</ele>
        <time>2022-06-25T06:23:54Z</time>
      </trkpt>
      <trkpt lat="46.66458" lon="5.45574">
        <ele>221.4</ele>
        <time>2022-06-25T06:23:55Z</time>
      </trkpt>
      <trkpt lat="46.66459" lon="5.45564">
        <ele>221.4</ele>
        <time>2022-06-25T06:23:56Z</time>
      </trkpt>
      <trkpt lat="46.6646" lon="5.45554">
        <ele>221.4</ele>
        <time>2022-06-25T06:23:57Z</time>
      </trkpt>
      <trkpt lat="46.66461" lon="5.45544">
        <ele>221.4</ele>
        <time>2022-06-25T06:23:58Z</time>
      </trkpt>
      <trkpt lat="46.66461" lon="5.45534">
        <ele>221</ele>
        <time>2022-06-25T06:23:59Z</time>
      </trkpt>
      <trkpt lat="46.66462" lon="5.45524">
        <ele>221</ele>
        <time>2022-06-25T06:24:00Z</time>
      </trkpt>
      <trkpt lat="46.66463" lon="5.45514">
        <ele>220.8</ele>
        <time>2022-06-25T06:24:01Z</time>
      </trkpt>
      <trkpt lat="46.66464" lon="5.45504">
        <ele>220.8</ele>
        <time>2022-06-25T06:24:02Z</time>
      </trkpt>
      <trkpt lat="46.66464" lon="5.45493">
        <ele>220.8</ele>
        <time>2022-06-25T06:24:03Z</time>
      </trkpt>
      <trkpt lat="46.66465" lon="5.45483">
        <ele>220.6</ele>
        <time>2022-06-25T06:24:04Z</time>
      </trkpt>
      <trkpt lat="46.66465" lon="5.45472">
        <ele>220.6</ele>
        <time>2022-06-25T06:24:05Z</time>
      </trkpt>
      <trkpt lat="46.66466" lon="5.45462">
        <ele>220.6</ele>
        <time>2022-06-25T06:24:06Z</time>
      </trkpt>
      <trkpt lat="46.66466" lon="5.45451">
        <ele>220.4</ele>
        <time>2022-06-25T06:24:07Z</time>
      </trkpt>
      <trkpt lat="46.66467" lon="5.4544">
        <ele>220.4</ele>
        <time>2022-06-25T06:24:08Z</time>
      </trkpt>
      <trkpt lat="46.66468" lon="5.4543">
        <ele>220.4</ele>
        <time>2022-06-25T06:24:09Z</time>
      </trkpt>
      <trkpt lat="46.66468" lon="5.45419">
        <ele>220.4</ele>
        <time>2022-06-25T06:24:10Z</time>
      </trkpt>
      <trkpt lat="46.66469" lon="5.45408">
        <ele>220.2</ele>
        <time>2022-06-25T06:24:11Z</time>
      </trkpt>
      <trkpt lat="46.66469" lon="5.45397">
        <ele>220.2</ele>
        <time>2022-06-25T06:24:12Z</time>
      </trkpt>
      <trkpt lat="46.6647" lon="5.45387">
        <ele>219.8</ele>
        <time>2022-06-25T06:24:13Z</time>
      </trkpt>
      <trkpt lat="46.66471" lon="5.45376">
        <ele>219.8</ele>
        <time>2022-06-25T06:24:14Z</time>
      </trkpt>
      <trkpt lat="46.66471" lon="5.45365">
        <ele>219.8</ele>
        <time>2022-06-25T06:24:15Z</time>
      </trkpt>
      <trkpt lat="46.66472" lon="5.45354">
        <ele>219.6</ele>
        <time>2022-06-25T06:24:16Z</time>
      </trkpt>
      <trkpt lat="46.66473" lon="5.45343">
        <ele>219.6</ele>
        <time>2022-06-25T06:24:17Z</time>
      </trkpt>
      <trkpt lat="46.66474" lon="5.45332">
        <ele>219.6</ele>
        <time>2022-06-25T06:24:18Z</time>
      </trkpt>
      <trkpt lat="46.66474" lon="5.45321">
        <ele>219.4</ele>
        <time>2022-06-25T06:24:19Z</time>
      </trkpt>
      <trkpt lat="46.66475" lon="5.4531">
        <ele>219.4</ele>
        <time>2022-06-25T06:24:20Z</time>
      </trkpt>
      <trkpt lat="46.66476" lon="5.45299">
        <ele>219.4</ele>
        <time>2022-06-25T06:24:21Z</time>
      </trkpt>
      <trkpt lat="46.66477" lon="5.45289">
        <ele>219.4</ele>
        <time>2022-06-25T06:24:22Z</time>
      </trkpt>
      <trkpt lat="46.66477" lon="5.45278">
        <ele>219.2</ele>
        <time>2022-06-25T06:24:23Z</time>
      </trkpt>
      <trkpt lat="46.66478" lon="5.45266">
        <ele>218.8</ele>
        <time>2022-06-25T06:24:24Z</time>
      </trkpt>
      <trkpt lat="46.66478" lon="5.45256">
        <ele>218.8</ele>
        <time>2022-06-25T06:24:25Z</time>
      </trkpt>
      <trkpt lat="46.66479" lon="5.45245">
        <ele>218.6</ele>
        <time>2022-06-25T06:24:26Z</time>
      </trkpt>
      <trkpt lat="46.66479" lon="5.45234">
        <ele>218.6</ele>
        <time>2022-06-25T06:24:27Z</time>
      </trkpt>
      <trkpt lat="46.6648" lon="5.45223">
        <ele>218.4</ele>
        <time>2022-06-25T06:24:28Z</time>
      </trkpt>
      <trkpt lat="46.66481" lon="5.45212">
        <ele>218.4</ele>
        <time>2022-06-25T06:24:29Z</time>
      </trkpt>
      <trkpt lat="46.66482" lon="5.45201">
        <ele>218.2</ele>
        <time>2022-06-25T06:24:30Z</time>
      </trkpt>
      <trkpt lat="46.66482" lon="5.4519">
        <ele>218.2</ele>
        <time>2022-06-25T06:24:31Z</time>
      </trkpt>
      <trkpt lat="46.66483" lon="5.45179">
        <ele>218</ele>
        <time>2022-06-25T06:24:32Z</time>
      </trkpt>
      <trkpt lat="46.66484" lon="5.45169">
        <ele>218</ele>
        <time>2022-06-25T06:24:33Z</time>
      </trkpt>
      <trkpt lat="46.66485" lon="5.45158">
        <ele>218</ele>
        <time>2022-06-25T06:24:34Z</time>
      </trkpt>
      <trkpt lat="46.66486" lon="5.45147">
        <ele>218</ele>
        <time>2022-06-25T06:24:35Z</time>
      </trkpt>
      <trkpt lat="46.66487" lon="5.45136">
        <ele>217.8</ele>
        <time>2022-06-25T06:24:36Z</time>
      </trkpt>
      <trkpt lat="46.66488" lon="5.45125">
        <ele>217.8</ele>
        <time>2022-06-25T06:24:37Z</time>
      </trkpt>
      <trkpt lat="46.66489" lon="5.45115">
        <ele>217.8</ele>
        <time>2022-06-25T06:24:38Z</time>
      </trkpt>
      <trkpt lat="46.6649" lon="5.45104">
        <ele>217.4</ele>
        <time>2022-06-25T06:24:39Z</time>
      </trkpt>
      <trkpt lat="46.66491" lon="5.45093">
        <ele>217.4</ele>
        <time>2022-06-25T06:24:40Z</time>
      </trkpt>
      <trkpt lat="46.66492" lon="5.45082">
        <ele>217.4</ele>
        <time>2022-06-25T06:24:41Z</time>
      </trkpt>
      <trkpt lat="46.66493" lon="5.45072">
        <ele>217.2</ele>
        <time>2022-06-25T06:24:42Z</time>
      </trkpt>
      <trkpt lat="46.66494" lon="5.45061">
        <ele>217.2</ele>
        <time>2022-06-25T06:24:43Z</time>
      </trkpt>
      <trkpt lat="46.66495" lon="5.45051">
        <ele>217.2</ele>
        <time>2022-06-25T06:24:44Z</time>
      </trkpt>
      <trkpt lat="46.66496" lon="5.4504">
        <ele>217.2</ele>
        <time>2022-06-25T06:24:45Z</time>
      </trkpt>
      <trkpt lat="46.66497" lon="5.45029">
        <ele>217.2</ele>
        <time>2022-06-25T06:24:46Z</time>
      </trkpt>
      <trkpt lat="46.66498" lon="5.45019">
        <ele>216.8</ele>
        <time>2022-06-25T06:24:47Z</time>
      </trkpt>
      <trkpt lat="46.66499" lon="5.45008">
        <ele>216.8</ele>
        <time>2022-06-25T06:24:48Z</time>
      </trkpt>
      <trkpt lat="46.665" lon="5.44998">
        <ele>216.8</ele>
        <time>2022-06-25T06:24:49Z</time>
      </trkpt>
      <trkpt lat="46.66502" lon="5.44987">
        <ele>216.8</ele>
        <time>2022-06-25T06:24:50Z</time>
      </trkpt>
      <trkpt lat="46.66503" lon="5.44977">
        <ele>216.6</ele>
        <time>2022-06-25T06:24:51Z</time>
      </trkpt>
      <trkpt lat="46.66504" lon="5.44966">
        <ele>216.6</ele>
        <time>2022-06-25T06:24:52Z</time>
      </trkpt>
      <trkpt lat="46.66505" lon="5.44956">
        <ele>216.6</ele>
        <time>2022-06-25T06:24:53Z</time>
      </trkpt>
      <trkpt lat="46.66506" lon="5.44945">
        <ele>216.6</ele>
        <time>2022-06-25T06:24:54Z</time>
      </trkpt>
      <trkpt lat="46.66507" lon="5.44935">
        <ele>216.2</ele>
        <time>2022-06-25T06:24:55Z</time>
      </trkpt>
      <trkpt lat="46.66508" lon="5.44924">
        <ele>216.2</ele>
        <time>2022-06-25T06:24:56Z</time>
      </trkpt>
      <trkpt lat="46.66509" lon="5.44913">
        <ele>216.2</ele>
        <time>2022-06-25T06:24:57Z</time>
      </trkpt>
      <trkpt lat="46.6651" lon="5.44903">
        <ele>216.2</ele>
        <time>2022-06-25T06:24:58Z</time>
      </trkpt>
      <trkpt lat="46.66511" lon="5.44893">
        <ele>216</ele>
        <time>2022-06-25T06:24:59Z</time>
      </trkpt>
      <trkpt lat="46.66512" lon="5.44883">
        <ele>216</ele>
        <time>2022-06-25T06:25:00Z</time>
      </trkpt>
      <trkpt lat="46.66513" lon="5.44872">
        <ele>216</ele>
        <time>2022-06-25T06:25:01Z</time>
      </trkpt>
      <trkpt lat="46.66513" lon="5.44862">
        <ele>216</ele>
        <time>2022-06-25T06:25:02Z</time>
      </trkpt>
      <trkpt lat="46.66513" lon="5.44852">
        <ele>216</ele>
        <time>2022-06-25T06:25:03Z</time>
      </trkpt>
      <trkpt lat="46.66514" lon="5.44842">
        <ele>215.8</ele>
        <time>2022-06-25T06:25:04Z</time>
      </trkpt>
      <trkpt lat="46.66514" lon="5.44832">
        <ele>215.8</ele>
        <time>2022-06-25T06:25:05Z</time>
      </trkpt>
      <trkpt lat="46.66514" lon="5.44822">
        <ele>215.8</ele>
        <time>2022-06-25T06:25:06Z</time>
      </trkpt>
      <trkpt lat="46.66514" lon="5.44812">
        <ele>215.8</ele>
        <time>2022-06-25T06:25:07Z</time>
      </trkpt>
      <trkpt lat="46.66514" lon="5.44803">
        <ele>215.8</ele>
        <time>2022-06-25T06:25:08Z</time>
      </trkpt>
      <trkpt lat="46.66514" lon="5.44793">
        <ele>215.8</ele>
        <time>2022-06-25T06:25:09Z</time>
      </trkpt>
      <trkpt lat="46.66513" lon="5.44784">
        <ele>215.8</ele>
        <time>2022-06-25T06:25:10Z</time>
      </trkpt>
      <trkpt lat="46.66513" lon="5.44774">
        <ele>215.6</ele>
        <time>2022-06-25T06:25:11Z</time>
      </trkpt>
      <trkpt lat="46.66512" lon="5.44765">
        <ele>215.6</ele>
        <time>2022-06-25T06:25:12Z</time>
      </trkpt>
      <trkpt lat="46.66512" lon="5.44756">
        <ele>215.6</ele>
        <time>2022-06-25T06:25:13Z</time>
      </trkpt>
      <trkpt lat="46.66511" lon="5.44746">
        <ele>215.6</ele>
        <time>2022-06-25T06:25:14Z</time>
      </trkpt>
      <trkpt lat="46.6651" lon="5.44737">
        <ele>215.6</ele>
        <time>2022-06-25T06:25:15Z</time>
      </trkpt>
      <trkpt lat="46.6651" lon="5.44727">
        <ele>215.6</ele>
        <time>2022-06-25T06:25:16Z</time>
      </trkpt>
      <trkpt lat="46.66509" lon="5.44717">
        <ele>215.4</ele>
        <time>2022-06-25T06:25:17Z</time>
      </trkpt>
      <trkpt lat="46.66508" lon="5.44708">
        <ele>215.4</ele>
        <time>2022-06-25T06:25:18Z</time>
      </trkpt>
      <trkpt lat="46.66507" lon="5.44698">
        <ele>215.4</ele>
        <time>2022-06-25T06:25:19Z</time>
      </trkpt>
      <trkpt lat="46.66507" lon="5.44688">
        <ele>215.4</ele>
        <time>2022-06-25T06:25:20Z</time>
      </trkpt>
      <trkpt lat="46.66506" lon="5.44678">
        <ele>215.4</ele>
        <time>2022-06-25T06:25:21Z</time>
      </trkpt>
      <trkpt lat="46.66505" lon="5.44668">
        <ele>215.4</ele>
        <time>2022-06-25T06:25:22Z</time>
      </trkpt>
      <trkpt lat="46.66505" lon="5.44658">
        <ele>215.2</ele>
        <time>2022-06-25T06:25:23Z</time>
      </trkpt>
      <trkpt lat="46.66504" lon="5.44649">
        <ele>215.2</ele>
        <time>2022-06-25T06:25:24Z</time>
      </trkpt>
      <trkpt lat="46.66504" lon="5.44639">
        <ele>215.2</ele>
        <time>2022-06-25T06:25:25Z</time>
      </trkpt>
      <trkpt lat="46.66503" lon="5.44629">
        <ele>215.2</ele>
        <time>2022-06-25T06:25:26Z</time>
      </trkpt>
      <trkpt lat="46.66502" lon="5.44619">
        <ele>215.2</ele>
        <time>2022-06-25T06:25:27Z</time>
      </trkpt>
      <trkpt lat="46.66502" lon="5.44609">
        <ele>215</ele>
        <time>2022-06-25T06:25:28Z</time>
      </trkpt>
      <trkpt lat="46.66501" lon="5.44599">
        <ele>215</ele>
        <time>2022-06-25T06:25:29Z</time>
      </trkpt>
      <trkpt lat="46.665" lon="5.44589">
        <ele>215</ele>
        <time>2022-06-25T06:25:30Z</time>
      </trkpt>
      <trkpt lat="46.66499" lon="5.44579">
        <ele>215</ele>
        <time>2022-06-25T06:25:31Z</time>
      </trkpt>
      <trkpt lat="46.66499" lon="5.44569">
        <ele>215</ele>
        <time>2022-06-25T06:25:32Z</time>
      </trkpt>
      <trkpt lat="46.66498" lon="5.44559">
        <ele>215</ele>
        <time>2022-06-25T06:25:33Z</time>
      </trkpt>
      <trkpt lat="46.66497" lon="5.44548">
        <ele>215</ele>
        <time>2022-06-25T06:25:34Z</time>
      </trkpt>
      <trkpt lat="46.66497" lon="5.44538">
        <ele>214.6</ele>
        <time>2022-06-25T06:25:35Z</time>
      </trkpt>
      <trkpt lat="46.66496" lon="5.44528">
        <ele>214.6</ele>
        <time>2022-06-25T06:25:36Z</time>
      </trkpt>
      <trkpt lat="46.66495" lon="5.44518">
        <ele>214.6</ele>
        <time>2022-06-25T06:25:37Z</time>
      </trkpt>
      <trkpt lat="46.66494" lon="5.44508">
        <ele>214.6</ele>
        <time>2022-06-25T06:25:38Z</time>
      </trkpt>
      <trkpt lat="46.66493" lon="5.44498">
        <ele>214.6</ele>
        <time>2022-06-25T06:25:39Z</time>
      </trkpt>
      <trkpt lat="46.66492" lon="5.44488">
        <ele>214.6</ele>
        <time>2022-06-25T06:25:40Z</time>
      </trkpt>
      <trkpt lat="46.66492" lon="5.44478">
        <ele>214.6</ele>
        <time>2022-06-25T06:25:41Z</time>
      </trkpt>
      <trkpt lat="46.66491" lon="5.44469">
        <ele>214.6</ele>
        <time>2022-06-25T06:25:42Z</time>
      </trkpt>
      <trkpt lat="46.6649" lon="5.44459">
        <ele>214.6</ele>
        <time>2022-06-25T06:25:43Z</time>
      </trkpt>
      <trkpt lat="46.66489" lon="5.4445">
        <ele>214.6</ele>
        <time>2022-06-25T06:25:44Z</time>
      </trkpt>
      <trkpt lat="46.66489" lon="5.4444">
        <ele>214.6</ele>
        <time>2022-06-25T06:25:45Z</time>
      </trkpt>
      <trkpt lat="46.66488" lon="5.4443">
        <ele>214.6</ele>
        <time>2022-06-25T06:25:46Z</time>
      </trkpt>
      <trkpt lat="46.66487" lon="5.4442">
        <ele>214.6</ele>
        <time>2022-06-25T06:25:47Z</time>
      </trkpt>
      <trkpt lat="46.66486" lon="5.44411">
        <ele>214.6</ele>
        <time>2022-06-25T06:25:48Z</time>
      </trkpt>
      <trkpt lat="46.66485" lon="5.44401">
        <ele>214.6</ele>
        <time>2022-06-25T06:25:49Z</time>
      </trkpt>
      <trkpt lat="46.66483" lon="5.44391">
        <ele>214.6</ele>
        <time>2022-06-25T06:25:50Z</time>
      </trkpt>
      <trkpt lat="46.66482" lon="5.44382">
        <ele>214.4</ele>
        <time>2022-06-25T06:25:51Z</time>
      </trkpt>
      <trkpt lat="46.6648" lon="5.44372">
        <ele>214.4</ele>
        <time>2022-06-25T06:25:52Z</time>
      </trkpt>
      <trkpt lat="46.66478" lon="5.44363">
        <ele>214.4</ele>
        <time>2022-06-25T06:25:53Z</time>
      </trkpt>
      <trkpt lat="46.66477" lon="5.44354">
        <ele>214.4</ele>
        <time>2022-06-25T06:25:54Z</time>
      </trkpt>
      <trkpt lat="46.66474" lon="5.44345">
        <ele>214.4</ele>
        <time>2022-06-25T06:25:55Z</time>
      </trkpt>
      <trkpt lat="46.66472" lon="5.44335">
        <ele>214.4</ele>
        <time>2022-06-25T06:25:56Z</time>
      </trkpt>
      <trkpt lat="46.6647" lon="5.44326">
        <ele>214.4</ele>
        <time>2022-06-25T06:25:57Z</time>
      </trkpt>
      <trkpt lat="46.66468" lon="5.44317">
        <ele>214.4</ele>
        <time>2022-06-25T06:25:58Z</time>
      </trkpt>
      <trkpt lat="46.66465" lon="5.44308">
        <ele>214.4</ele>
        <time>2022-06-25T06:25:59Z</time>
      </trkpt>
      <trkpt lat="46.66463" lon="5.44299">
        <ele>214.4</ele>
        <time>2022-06-25T06:26:00Z</time>
      </trkpt>
      <trkpt lat="46.6646" lon="5.4429">
        <ele>214.2</ele>
        <time>2022-06-25T06:26:01Z</time>
      </trkpt>
      <trkpt lat="46.66458" lon="5.44281">
        <ele>214.2</ele>
        <time>2022-06-25T06:26:02Z</time>
      </trkpt>
      <trkpt lat="46.66455" lon="5.44272">
        <ele>214.2</ele>
        <time>2022-06-25T06:26:03Z</time>
      </trkpt>
      <trkpt lat="46.66453" lon="5.44264">
        <ele>214.2</ele>
        <time>2022-06-25T06:26:04Z</time>
      </trkpt>
      <trkpt lat="46.6645" lon="5.44256">
        <ele>214.2</ele>
        <time>2022-06-25T06:26:05Z</time>
      </trkpt>
      <trkpt lat="46.66447" lon="5.44248">
        <ele>214.2</ele>
        <time>2022-06-25T06:26:06Z</time>
      </trkpt>
      <trkpt lat="46.66445" lon="5.4424">
        <ele>214.2</ele>
        <time>2022-06-25T06:26:07Z</time>
      </trkpt>
      <trkpt lat="46.66442" lon="5.44232">
        <ele>214.2</ele>
        <time>2022-06-25T06:26:08Z</time>
      </trkpt>
      <trkpt lat="46.66438" lon="5.44224">
        <ele>214.2</ele>
        <time>2022-06-25T06:26:09Z</time>
      </trkpt>
      <trkpt lat="46.66435" lon="5.44216">
        <ele>214.2</ele>
        <time>2022-06-25T06:26:10Z</time>
      </trkpt>
      <trkpt lat="46.66431" lon="5.44208">
        <ele>214.2</ele>
        <time>2022-06-25T06:26:11Z</time>
      </trkpt>
      <trkpt lat="46.66427" lon="5.442">
        <ele>214.2</ele>
        <time>2022-06-25T06:26:12Z</time>
      </trkpt>
      <trkpt lat="46.66424" lon="5.44192">
        <ele>214.2</ele>
        <time>2022-06-25T06:26:13Z</time>
      </trkpt>
      <trkpt lat="46.6642" lon="5.44184">
        <ele>214.2</ele>
        <time>2022-06-25T06:26:14Z</time>
      </trkpt>
      <trkpt lat="46.66416" lon="5.44176">
        <ele>214.2</ele>
        <time>2022-06-25T06:26:15Z</time>
      </trkpt>
      <trkpt lat="46.66413" lon="5.44168">
        <ele>214.2</ele>
        <time>2022-06-25T06:26:16Z</time>
      </trkpt>
      <trkpt lat="46.66409" lon="5.44161">
        <ele>214</ele>
        <time>2022-06-25T06:26:17Z</time>
      </trkpt>
      <trkpt lat="46.66405" lon="5.44153">
        <ele>214</ele>
        <time>2022-06-25T06:26:18Z</time>
      </trkpt>
      <trkpt lat="46.66401" lon="5.44146">
        <ele>214</ele>
        <time>2022-06-25T06:26:19Z</time>
      </trkpt>
      <trkpt lat="46.66397" lon="5.44138">
        <ele>214</ele>
        <time>2022-06-25T06:26:20Z</time>
      </trkpt>
      <trkpt lat="46.66392" lon="5.4413">
        <ele>214</ele>
        <time>2022-06-25T06:26:21Z</time>
      </trkpt>
      <trkpt lat="46.66388" lon="5.44122">
        <ele>214</ele>
        <time>2022-06-25T06:26:22Z</time>
      </trkpt>
      <trkpt lat="46.66383" lon="5.44115">
        <ele>213.8</ele>
        <time>2022-06-25T06:26:23Z</time>
      </trkpt>
      <trkpt lat="46.66379" lon="5.44107">
        <ele>213.8</ele>
        <time>2022-06-25T06:26:24Z</time>
      </trkpt>
      <trkpt lat="46.66375" lon="5.44099">
        <ele>213.8</ele>
        <time>2022-06-25T06:26:25Z</time>
      </trkpt>
      <trkpt lat="46.6637" lon="5.44091">
        <ele>213.8</ele>
        <time>2022-06-25T06:26:26Z</time>
      </trkpt>
      <trkpt lat="46.66366" lon="5.44084">
        <ele>213.8</ele>
        <time>2022-06-25T06:26:27Z</time>
      </trkpt>
      <trkpt lat="46.66362" lon="5.44076">
        <ele>213.6</ele>
        <time>2022-06-25T06:26:28Z</time>
      </trkpt>
      <trkpt lat="46.66357" lon="5.44068">
        <ele>213.6</ele>
        <time>2022-06-25T06:26:29Z</time>
      </trkpt>
      <trkpt lat="46.66353" lon="5.4406">
        <ele>213.6</ele>
        <time>2022-06-25T06:26:30Z</time>
      </trkpt>
      <trkpt lat="46.66349" lon="5.44052">
        <ele>213.6</ele>
        <time>2022-06-25T06:26:31Z</time>
      </trkpt>
      <trkpt lat="46.66345" lon="5.44044">
        <ele>213.6</ele>
        <time>2022-06-25T06:26:32Z</time>
      </trkpt>
      <trkpt lat="46.66341" lon="5.44036">
        <ele>213.6</ele>
        <time>2022-06-25T06:26:33Z</time>
      </trkpt>
      <trkpt lat="46.66337" lon="5.44027">
        <ele>213.6</ele>
        <time>2022-06-25T06:26:34Z</time>
      </trkpt>
      <trkpt lat="46.66333" lon="5.44019">
        <ele>213.6</ele>
        <time>2022-06-25T06:26:35Z</time>
      </trkpt>
      <trkpt lat="46.6633" lon="5.4401">
        <ele>213.6</ele>
        <time>2022-06-25T06:26:36Z</time>
      </trkpt>
      <trkpt lat="46.66326" lon="5.44001">
        <ele>213.6</ele>
        <time>2022-06-25T06:26:37Z</time>
      </trkpt>
      <trkpt lat="46.66323" lon="5.43992">
        <ele>213.6</ele>
        <time>2022-06-25T06:26:38Z</time>
      </trkpt>
      <trkpt lat="46.6632" lon="5.43983">
        <ele>213.6</ele>
        <time>2022-06-25T06:26:39Z</time>
      </trkpt>
      <trkpt lat="46.66315" lon="5.4397">
        <ele>213.6</ele>
        <time>2022-06-25T06:26:40Z</time>
      </trkpt>
      <trkpt lat="46.66313" lon="5.43966">
        <ele>213.6</ele>
        <time>2022-06-25T06:26:41Z</time>
      </trkpt>
      <trkpt lat="46.6631" lon="5.43957">
        <ele>213.6</ele>
        <time>2022-06-25T06:26:42Z</time>
      </trkpt>
      <trkpt lat="46.66307" lon="5.43948">
        <ele>213.6</ele>
        <time>2022-06-25T06:26:43Z</time>
      </trkpt>
      <trkpt lat="46.66305" lon="5.43939">
        <ele>213.6</ele>
        <time>2022-06-25T06:26:44Z</time>
      </trkpt>
      <trkpt lat="46.66302" lon="5.43931">
        <ele>213.6</ele>
        <time>2022-06-25T06:26:45Z</time>
      </trkpt>
      <trkpt lat="46.663" lon="5.43922">
        <ele>213.6</ele>
        <time>2022-06-25T06:26:46Z</time>
      </trkpt>
      <trkpt lat="46.66298" lon="5.43914">
        <ele>213.6</ele>
        <time>2022-06-25T06:26:47Z</time>
      </trkpt>
      <trkpt lat="46.66296" lon="5.43906">
        <ele>213.6</ele>
        <time>2022-06-25T06:26:48Z</time>
      </trkpt>
      <trkpt lat="46.66294" lon="5.43898">
        <ele>213.6</ele>
        <time>2022-06-25T06:26:49Z</time>
      </trkpt>
      <trkpt lat="46.66293" lon="5.43889">
        <ele>213.4</ele>
        <time>2022-06-25T06:26:50Z</time>
      </trkpt>
      <trkpt lat="46.66291" lon="5.43881">
        <ele>213.4</ele>
        <time>2022-06-25T06:26:51Z</time>
      </trkpt>
      <trkpt lat="46.6629" lon="5.43873">
        <ele>213.4</ele>
        <time>2022-06-25T06:26:52Z</time>
      </trkpt>
      <trkpt lat="46.66288" lon="5.43866">
        <ele>213.4</ele>
        <time>2022-06-25T06:26:53Z</time>
      </trkpt>
      <trkpt lat="46.66287" lon="5.43859">
        <ele>213.4</ele>
        <time>2022-06-25T06:26:54Z</time>
      </trkpt>
      <trkpt lat="46.66285" lon="5.43852">
        <ele>213.4</ele>
        <time>2022-06-25T06:26:55Z</time>
      </trkpt>
      <trkpt lat="46.66284" lon="5.43846">
        <ele>213.4</ele>
        <time>2022-06-25T06:26:56Z</time>
      </trkpt>
      <trkpt lat="46.66282" lon="5.4384">
        <ele>213.4</ele>
        <time>2022-06-25T06:26:57Z</time>
      </trkpt>
      <trkpt lat="46.6628" lon="5.43835">
        <ele>213.4</ele>
        <time>2022-06-25T06:26:58Z</time>
      </trkpt>
      <trkpt lat="46.66279" lon="5.4383">
        <ele>213.4</ele>
        <time>2022-06-25T06:26:59Z</time>
      </trkpt>
      <trkpt lat="46.66277" lon="5.43825">
        <ele>213.4</ele>
        <time>2022-06-25T06:27:00Z</time>
      </trkpt>
      <trkpt lat="46.66276" lon="5.4382">
        <ele>213.4</ele>
        <time>2022-06-25T06:27:01Z</time>
      </trkpt>
      <trkpt lat="46.66274" lon="5.43814">
        <ele>213.4</ele>
        <time>2022-06-25T06:27:02Z</time>
      </trkpt>
      <trkpt lat="46.66272" lon="5.43807">
        <ele>213.4</ele>
        <time>2022-06-25T06:27:03Z</time>
      </trkpt>
      <trkpt lat="46.66271" lon="5.43799">
        <ele>213.4</ele>
        <time>2022-06-25T06:27:04Z</time>
      </trkpt>
      <trkpt lat="46.6627" lon="5.43791">
        <ele>213.4</ele>
        <time>2022-06-25T06:27:05Z</time>
      </trkpt>
      <trkpt lat="46.66268" lon="5.43783">
        <ele>213.4</ele>
        <time>2022-06-25T06:27:06Z</time>
      </trkpt>
      <trkpt lat="46.66267" lon="5.43775">
        <ele>213.4</ele>
        <time>2022-06-25T06:27:07Z</time>
      </trkpt>
      <trkpt lat="46.66265" lon="5.43767">
        <ele>213.4</ele>
        <time>2022-06-25T06:27:08Z</time>
      </trkpt>
      <trkpt lat="46.66262" lon="5.43751">
        <ele>213.4</ele>
        <time>2022-06-25T06:27:09Z</time>
      </trkpt>
      <trkpt lat="46.66261" lon="5.43743">
        <ele>213.4</ele>
        <time>2022-06-25T06:27:10Z</time>
      </trkpt>
      <trkpt lat="46.66259" lon="5.43735">
        <ele>213.4</ele>
        <time>2022-06-25T06:27:11Z</time>
      </trkpt>
      <trkpt lat="46.66258" lon="5.43727">
        <ele>213</ele>
        <time>2022-06-25T06:27:12Z</time>
      </trkpt>
      <trkpt lat="46.66257" lon="5.43718">
        <ele>213</ele>
        <time>2022-06-25T06:27:13Z</time>
      </trkpt>
      <trkpt lat="46.66255" lon="5.43709">
        <ele>213</ele>
        <time>2022-06-25T06:27:14Z</time>
      </trkpt>
      <trkpt lat="46.66254" lon="5.43701">
        <ele>213</ele>
        <time>2022-06-25T06:27:15Z</time>
      </trkpt>
      <trkpt lat="46.66253" lon="5.43692">
        <ele>213</ele>
        <time>2022-06-25T06:27:16Z</time>
      </trkpt>
      <trkpt lat="46.66253" lon="5.43684">
        <ele>213</ele>
        <time>2022-06-25T06:27:17Z</time>
      </trkpt>
      <trkpt lat="46.66253" lon="5.43675">
        <ele>213</ele>
        <time>2022-06-25T06:27:18Z</time>
      </trkpt>
      <trkpt lat="46.66253" lon="5.43666">
        <ele>213</ele>
        <time>2022-06-25T06:27:19Z</time>
      </trkpt>
      <trkpt lat="46.66253" lon="5.43658">
        <ele>213</ele>
        <time>2022-06-25T06:27:20Z</time>
      </trkpt>
      <trkpt lat="46.66252" lon="5.43649">
        <ele>213</ele>
        <time>2022-06-25T06:27:21Z</time>
      </trkpt>
      <trkpt lat="46.66252" lon="5.43641">
        <ele>213</ele>
        <time>2022-06-25T06:27:23Z</time>
      </trkpt>
      <trkpt lat="46.66252" lon="5.43632">
        <ele>213</ele>
        <time>2022-06-25T06:27:24Z</time>
      </trkpt>
      <trkpt lat="46.66252" lon="5.43623">
        <ele>213</ele>
        <time>2022-06-25T06:27:25Z</time>
      </trkpt>
      <trkpt lat="46.66253" lon="5.43614">
        <ele>213</ele>
        <time>2022-06-25T06:27:26Z</time>
      </trkpt>
      <trkpt lat="46.66254" lon="5.43604">
        <ele>213</ele>
        <time>2022-06-25T06:27:27Z</time>
      </trkpt>
      <trkpt lat="46.66254" lon="5.43594">
        <ele>213</ele>
        <time>2022-06-25T06:27:28Z</time>
      </trkpt>
      <trkpt lat="46.66255" lon="5.43583">
        <ele>213</ele>
        <time>2022-06-25T06:27:29Z</time>
      </trkpt>
      <trkpt lat="46.66256" lon="5.43572">
        <ele>212.8</ele>
        <time>2022-06-25T06:27:30Z</time>
      </trkpt>
      <trkpt lat="46.66256" lon="5.43562">
        <ele>212.8</ele>
        <time>2022-06-25T06:27:31Z</time>
      </trkpt>
      <trkpt lat="46.66256" lon="5.43551">
        <ele>212.8</ele>
        <time>2022-06-25T06:27:32Z</time>
      </trkpt>
      <trkpt lat="46.66256" lon="5.43541">
        <ele>212.6</ele>
        <time>2022-06-25T06:27:33Z</time>
      </trkpt>
      <trkpt lat="46.66256" lon="5.4353">
        <ele>212.6</ele>
        <time>2022-06-25T06:27:34Z</time>
      </trkpt>
      <trkpt lat="46.66257" lon="5.4352">
        <ele>212.6</ele>
        <time>2022-06-25T06:27:35Z</time>
      </trkpt>
      <trkpt lat="46.66258" lon="5.4351">
        <ele>212.6</ele>
        <time>2022-06-25T06:27:36Z</time>
      </trkpt>
      <trkpt lat="46.66259" lon="5.43499">
        <ele>212.6</ele>
        <time>2022-06-25T06:27:37Z</time>
      </trkpt>
      <trkpt lat="46.6626" lon="5.43489">
        <ele>212.4</ele>
        <time>2022-06-25T06:27:38Z</time>
      </trkpt>
      <trkpt lat="46.66261" lon="5.43479">
        <ele>212.4</ele>
        <time>2022-06-25T06:27:39Z</time>
      </trkpt>
      <trkpt lat="46.66261" lon="5.43469">
        <ele>212.4</ele>
        <time>2022-06-25T06:27:40Z</time>
      </trkpt>
      <trkpt lat="46.66262" lon="5.43459">
        <ele>212</ele>
        <time>2022-06-25T06:27:41Z</time>
      </trkpt>
      <trkpt lat="46.66263" lon="5.43449">
        <ele>212</ele>
        <time>2022-06-25T06:27:42Z</time>
      </trkpt>
      <trkpt lat="46.66263" lon="5.43438">
        <ele>212</ele>
        <time>2022-06-25T06:27:43Z</time>
      </trkpt>
      <trkpt lat="46.66264" lon="5.43429">
        <ele>211.8</ele>
        <time>2022-06-25T06:27:44Z</time>
      </trkpt>
      <trkpt lat="46.66264" lon="5.43419">
        <ele>211.8</ele>
        <time>2022-06-25T06:27:45Z</time>
      </trkpt>
      <trkpt lat="46.66265" lon="5.4341">
        <ele>211.8</ele>
        <time>2022-06-25T06:27:46Z</time>
      </trkpt>
      <trkpt lat="46.66265" lon="5.43401">
        <ele>211.6</ele>
        <time>2022-06-25T06:27:47Z</time>
      </trkpt>
      <trkpt lat="46.66266" lon="5.43391">
        <ele>211.6</ele>
        <time>2022-06-25T06:27:48Z</time>
      </trkpt>
      <trkpt lat="46.66267" lon="5.43382">
        <ele>211.6</ele>
        <time>2022-06-25T06:27:49Z</time>
      </trkpt>
      <trkpt lat="46.66267" lon="5.43372">
        <ele>211.6</ele>
        <time>2022-06-25T06:27:50Z</time>
      </trkpt>
      <trkpt lat="46.66268" lon="5.43362">
        <ele>211.6</ele>
        <time>2022-06-25T06:27:51Z</time>
      </trkpt>
      <trkpt lat="46.66269" lon="5.43353">
        <ele>211.6</ele>
        <time>2022-06-25T06:27:52Z</time>
      </trkpt>
      <trkpt lat="46.6627" lon="5.43343">
        <ele>211.6</ele>
        <time>2022-06-25T06:27:53Z</time>
      </trkpt>
      <trkpt lat="46.66271" lon="5.43334">
        <ele>211.6</ele>
        <time>2022-06-25T06:27:54Z</time>
      </trkpt>
      <trkpt lat="46.66271" lon="5.43324">
        <ele>211.4</ele>
        <time>2022-06-25T06:27:55Z</time>
      </trkpt>
      <trkpt lat="46.66272" lon="5.43314">
        <ele>211.4</ele>
        <time>2022-06-25T06:27:56Z</time>
      </trkpt>
      <trkpt lat="46.66272" lon="5.43305">
        <ele>211.4</ele>
        <time>2022-06-25T06:27:57Z</time>
      </trkpt>
      <trkpt lat="46.66272" lon="5.43296">
        <ele>211</ele>
        <time>2022-06-25T06:27:58Z</time>
      </trkpt>
      <trkpt lat="46.66273" lon="5.43286">
        <ele>211</ele>
        <time>2022-06-25T06:27:59Z</time>
      </trkpt>
      <trkpt lat="46.66273" lon="5.43276">
        <ele>211</ele>
        <time>2022-06-25T06:28:00Z</time>
      </trkpt>
      <trkpt lat="46.66273" lon="5.43266">
        <ele>211</ele>
        <time>2022-06-25T06:28:01Z</time>
      </trkpt>
      <trkpt lat="46.66273" lon="5.43257">
        <ele>211</ele>
        <time>2022-06-25T06:28:02Z</time>
      </trkpt>
      <trkpt lat="46.66274" lon="5.43247">
        <ele>210.8</ele>
        <time>2022-06-25T06:28:03Z</time>
      </trkpt>
      <trkpt lat="46.66274" lon="5.43237">
        <ele>210.8</ele>
        <time>2022-06-25T06:28:04Z</time>
      </trkpt>
      <trkpt lat="46.66274" lon="5.43227">
        <ele>210.8</ele>
        <time>2022-06-25T06:28:05Z</time>
      </trkpt>
      <trkpt lat="46.66274" lon="5.43217">
        <ele>210.8</ele>
        <time>2022-06-25T06:28:06Z</time>
      </trkpt>
      <trkpt lat="46.66273" lon="5.43208">
        <ele>210.6</ele>
        <time>2022-06-25T06:28:07Z</time>
      </trkpt>
      <trkpt lat="46.66273" lon="5.43198">
        <ele>210.6</ele>
        <time>2022-06-25T06:28:08Z</time>
      </trkpt>
      <trkpt lat="46.66273" lon="5.43188">
        <ele>210.6</ele>
        <time>2022-06-25T06:28:09Z</time>
      </trkpt>
      <trkpt lat="46.66272" lon="5.43177">
        <ele>210.6</ele>
        <time>2022-06-25T06:28:10Z</time>
      </trkpt>
      <trkpt lat="46.66272" lon="5.43167">
        <ele>210.6</ele>
        <time>2022-06-25T06:28:11Z</time>
      </trkpt>
      <trkpt lat="46.66271" lon="5.43157">
        <ele>210.6</ele>
        <time>2022-06-25T06:28:12Z</time>
      </trkpt>
      <trkpt lat="46.6627" lon="5.43148">
        <ele>210.6</ele>
        <time>2022-06-25T06:28:13Z</time>
      </trkpt>
      <trkpt lat="46.66269" lon="5.43138">
        <ele>210.6</ele>
        <time>2022-06-25T06:28:14Z</time>
      </trkpt>
      <trkpt lat="46.66268" lon="5.43128">
        <ele>210.6</ele>
        <time>2022-06-25T06:28:15Z</time>
      </trkpt>
      <trkpt lat="46.66267" lon="5.43119">
        <ele>210.6</ele>
        <time>2022-06-25T06:28:16Z</time>
      </trkpt>
      <trkpt lat="46.66266" lon="5.4311">
        <ele>210.6</ele>
        <time>2022-06-25T06:28:17Z</time>
      </trkpt>
      <trkpt lat="46.66264" lon="5.43101">
        <ele>210.6</ele>
        <time>2022-06-25T06:28:18Z</time>
      </trkpt>
      <trkpt lat="46.66263" lon="5.43091">
        <ele>210.6</ele>
        <time>2022-06-25T06:28:19Z</time>
      </trkpt>
      <trkpt lat="46.66262" lon="5.43082">
        <ele>210.6</ele>
        <time>2022-06-25T06:28:20Z</time>
      </trkpt>
      <trkpt lat="46.6626" lon="5.43073">
        <ele>210.6</ele>
        <time>2022-06-25T06:28:21Z</time>
      </trkpt>
      <trkpt lat="46.66258" lon="5.43064">
        <ele>210.4</ele>
        <time>2022-06-25T06:28:22Z</time>
      </trkpt>
      <trkpt lat="46.66256" lon="5.43055">
        <ele>210.4</ele>
        <time>2022-06-25T06:28:23Z</time>
      </trkpt>
      <trkpt lat="46.66255" lon="5.43045">
        <ele>210.4</ele>
        <time>2022-06-25T06:28:24Z</time>
      </trkpt>
      <trkpt lat="46.66253" lon="5.43037">
        <ele>210.4</ele>
        <time>2022-06-25T06:28:25Z</time>
      </trkpt>
      <trkpt lat="46.66251" lon="5.43028">
        <ele>210.4</ele>
        <time>2022-06-25T06:28:26Z</time>
      </trkpt>
      <trkpt lat="46.66249" lon="5.43019">
        <ele>210.4</ele>
        <time>2022-06-25T06:28:27Z</time>
      </trkpt>
      <trkpt lat="46.66246" lon="5.4301">
        <ele>210.4</ele>
        <time>2022-06-25T06:28:28Z</time>
      </trkpt>
      <trkpt lat="46.66243" lon="5.43001">
        <ele>210.4</ele>
        <time>2022-06-25T06:28:29Z</time>
      </trkpt>
      <trkpt lat="46.66241" lon="5.42993">
        <ele>210.4</ele>
        <time>2022-06-25T06:28:30Z</time>
      </trkpt>
      <trkpt lat="46.66238" lon="5.42984">
        <ele>210.4</ele>
        <time>2022-06-25T06:28:31Z</time>
      </trkpt>
      <trkpt lat="46.66235" lon="5.42975">
        <ele>210.4</ele>
        <time>2022-06-25T06:28:32Z</time>
      </trkpt>
      <trkpt lat="46.66232" lon="5.42967">
        <ele>210.4</ele>
        <time>2022-06-25T06:28:33Z</time>
      </trkpt>
      <trkpt lat="46.66228" lon="5.42958">
        <ele>210.4</ele>
        <time>2022-06-25T06:28:34Z</time>
      </trkpt>
      <trkpt lat="46.66225" lon="5.42949">
        <ele>210.4</ele>
        <time>2022-06-25T06:28:35Z</time>
      </trkpt>
      <trkpt lat="46.66222" lon="5.42941">
        <ele>210.4</ele>
        <time>2022-06-25T06:28:36Z</time>
      </trkpt>
      <trkpt lat="46.66218" lon="5.42933">
        <ele>210.4</ele>
        <time>2022-06-25T06:28:37Z</time>
      </trkpt>
      <trkpt lat="46.66214" lon="5.42925">
        <ele>210.4</ele>
        <time>2022-06-25T06:28:38Z</time>
      </trkpt>
      <trkpt lat="46.66211" lon="5.42917">
        <ele>210.4</ele>
        <time>2022-06-25T06:28:39Z</time>
      </trkpt>
      <trkpt lat="46.66207" lon="5.42909">
        <ele>210.2</ele>
        <time>2022-06-25T06:28:40Z</time>
      </trkpt>
      <trkpt lat="46.66203" lon="5.42901">
        <ele>210.2</ele>
        <time>2022-06-25T06:28:41Z</time>
      </trkpt>
      <trkpt lat="46.66199" lon="5.42893">
        <ele>210.2</ele>
        <time>2022-06-25T06:28:42Z</time>
      </trkpt>
      <trkpt lat="46.66195" lon="5.42886">
        <ele>210.2</ele>
        <time>2022-06-25T06:28:43Z</time>
      </trkpt>
      <trkpt lat="46.66191" lon="5.42878">
        <ele>210.2</ele>
        <time>2022-06-25T06:28:44Z</time>
      </trkpt>
      <trkpt lat="46.66186" lon="5.42871">
        <ele>210.2</ele>
        <time>2022-06-25T06:28:45Z</time>
      </trkpt>
      <trkpt lat="46.66182" lon="5.42863">
        <ele>210.2</ele>
        <time>2022-06-25T06:28:46Z</time>
      </trkpt>
      <trkpt lat="46.66178" lon="5.42856">
        <ele>210.2</ele>
        <time>2022-06-25T06:28:47Z</time>
      </trkpt>
      <trkpt lat="46.66174" lon="5.42849">
        <ele>210.2</ele>
        <time>2022-06-25T06:28:48Z</time>
      </trkpt>
      <trkpt lat="46.66169" lon="5.42842">
        <ele>210</ele>
        <time>2022-06-25T06:28:49Z</time>
      </trkpt>
      <trkpt lat="46.66165" lon="5.42835">
        <ele>210</ele>
        <time>2022-06-25T06:28:50Z</time>
      </trkpt>
      <trkpt lat="46.66161" lon="5.42827">
        <ele>210</ele>
        <time>2022-06-25T06:28:51Z</time>
      </trkpt>
      <trkpt lat="46.66156" lon="5.4282">
        <ele>210</ele>
        <time>2022-06-25T06:28:52Z</time>
      </trkpt>
      <trkpt lat="46.66152" lon="5.42813">
        <ele>210</ele>
        <time>2022-06-25T06:28:53Z</time>
      </trkpt>
      <trkpt lat="46.66147" lon="5.42807">
        <ele>210</ele>
        <time>2022-06-25T06:28:54Z</time>
      </trkpt>
      <trkpt lat="46.66143" lon="5.428">
        <ele>210</ele>
        <time>2022-06-25T06:28:55Z</time>
      </trkpt>
      <trkpt lat="46.66139" lon="5.42793">
        <ele>210</ele>
        <time>2022-06-25T06:28:56Z</time>
      </trkpt>
      <trkpt lat="46.66135" lon="5.42786">
        <ele>210</ele>
        <time>2022-06-25T06:28:57Z</time>
      </trkpt>
      <trkpt lat="46.66131" lon="5.42779">
        <ele>210</ele>
        <time>2022-06-25T06:28:58Z</time>
      </trkpt>
      <trkpt lat="46.66126" lon="5.42773">
        <ele>210</ele>
        <time>2022-06-25T06:28:59Z</time>
      </trkpt>
      <trkpt lat="46.66122" lon="5.42766">
        <ele>210</ele>
        <time>2022-06-25T06:29:00Z</time>
      </trkpt>
      <trkpt lat="46.66118" lon="5.42759">
        <ele>210</ele>
        <time>2022-06-25T06:29:01Z</time>
      </trkpt>
      <trkpt lat="46.66114" lon="5.42753">
        <ele>210</ele>
        <time>2022-06-25T06:29:02Z</time>
      </trkpt>
      <trkpt lat="46.6611" lon="5.42746">
        <ele>210</ele>
        <time>2022-06-25T06:29:03Z</time>
      </trkpt>
      <trkpt lat="46.66106" lon="5.4274">
        <ele>210</ele>
        <time>2022-06-25T06:29:04Z</time>
      </trkpt>
      <trkpt lat="46.66103" lon="5.42733">
        <ele>210</ele>
        <time>2022-06-25T06:29:05Z</time>
      </trkpt>
      <trkpt lat="46.66099" lon="5.42727">
        <ele>210</ele>
        <time>2022-06-25T06:29:06Z</time>
      </trkpt>
      <trkpt lat="46.66095" lon="5.42721">
        <ele>210</ele>
        <time>2022-06-25T06:29:07Z</time>
      </trkpt>
      <trkpt lat="46.66091" lon="5.42714">
        <ele>210</ele>
        <time>2022-06-25T06:29:08Z</time>
      </trkpt>
      <trkpt lat="46.66088" lon="5.42708">
        <ele>210</ele>
        <time>2022-06-25T06:29:09Z</time>
      </trkpt>
      <trkpt lat="46.66084" lon="5.42702">
        <ele>210</ele>
        <time>2022-06-25T06:29:10Z</time>
      </trkpt>
      <trkpt lat="46.6608" lon="5.42696">
        <ele>210</ele>
        <time>2022-06-25T06:29:11Z</time>
      </trkpt>
      <trkpt lat="46.66076" lon="5.4269">
        <ele>210</ele>
        <time>2022-06-25T06:29:12Z</time>
      </trkpt>
      <trkpt lat="46.66073" lon="5.42684">
        <ele>210</ele>
        <time>2022-06-25T06:29:13Z</time>
      </trkpt>
      <trkpt lat="46.66069" lon="5.42678">
        <ele>210</ele>
        <time>2022-06-25T06:29:14Z</time>
      </trkpt>
      <trkpt lat="46.66066" lon="5.42672">
        <ele>210</ele>
        <time>2022-06-25T06:29:15Z</time>
      </trkpt>
      <trkpt lat="46.66062" lon="5.42667">
        <ele>210</ele>
        <time>2022-06-25T06:29:16Z</time>
      </trkpt>
      <trkpt lat="46.66059" lon="5.42662">
        <ele>210</ele>
        <time>2022-06-25T06:29:17Z</time>
      </trkpt>
      <trkpt lat="46.66056" lon="5.42657">
        <ele>210</ele>
        <time>2022-06-25T06:29:18Z</time>
      </trkpt>
      <trkpt lat="46.66053" lon="5.42651">
        <ele>210</ele>
        <time>2022-06-25T06:29:19Z</time>
      </trkpt>
      <trkpt lat="46.6605" lon="5.42645">
        <ele>210</ele>
        <time>2022-06-25T06:29:20Z</time>
      </trkpt>
      <trkpt lat="46.66046" lon="5.42639">
        <ele>210</ele>
        <time>2022-06-25T06:29:21Z</time>
      </trkpt>
      <trkpt lat="46.66042" lon="5.42633">
        <ele>210</ele>
        <time>2022-06-25T06:29:22Z</time>
      </trkpt>
      <trkpt lat="46.66039" lon="5.42627">
        <ele>210</ele>
        <time>2022-06-25T06:29:23Z</time>
      </trkpt>
      <trkpt lat="46.66035" lon="5.4262">
        <ele>210</ele>
        <time>2022-06-25T06:29:24Z</time>
      </trkpt>
      <trkpt lat="46.66031" lon="5.42614">
        <ele>210</ele>
        <time>2022-06-25T06:29:25Z</time>
      </trkpt>
      <trkpt lat="46.66027" lon="5.42607">
        <ele>210</ele>
        <time>2022-06-25T06:29:26Z</time>
      </trkpt>
      <trkpt lat="46.66023" lon="5.42601">
        <ele>210</ele>
        <time>2022-06-25T06:29:27Z</time>
      </trkpt>
      <trkpt lat="46.66019" lon="5.42594">
        <ele>210</ele>
        <time>2022-06-25T06:29:28Z</time>
      </trkpt>
      <trkpt lat="46.66015" lon="5.42588">
        <ele>210.2</ele>
        <time>2022-06-25T06:29:29Z</time>
      </trkpt>
      <trkpt lat="46.66011" lon="5.42581">
        <ele>210.2</ele>
        <time>2022-06-25T06:29:30Z</time>
      </trkpt>
      <trkpt lat="46.66007" lon="5.42575">
        <ele>210.2</ele>
        <time>2022-06-25T06:29:31Z</time>
      </trkpt>
      <trkpt lat="46.66003" lon="5.42568">
        <ele>210.2</ele>
        <time>2022-06-25T06:29:32Z</time>
      </trkpt>
      <trkpt lat="46.65999" lon="5.42561">
        <ele>210.2</ele>
        <time>2022-06-25T06:29:33Z</time>
      </trkpt>
      <trkpt lat="46.65995" lon="5.42554">
        <ele>210.2</ele>
        <time>2022-06-25T06:29:34Z</time>
      </trkpt>
      <trkpt lat="46.65991" lon="5.42546">
        <ele>210.2</ele>
        <time>2022-06-25T06:29:35Z</time>
      </trkpt>
      <trkpt lat="46.65987" lon="5.42539">
        <ele>210.2</ele>
        <time>2022-06-25T06:29:36Z</time>
      </trkpt>
      <trkpt lat="46.65983" lon="5.42531">
        <ele>210.2</ele>
        <time>2022-06-25T06:29:37Z</time>
      </trkpt>
      <trkpt lat="46.65979" lon="5.42524">
        <ele>210.2</ele>
        <time>2022-06-25T06:29:38Z</time>
      </trkpt>
      <trkpt lat="46.65975" lon="5.42516">
        <ele>210.2</ele>
        <time>2022-06-25T06:29:39Z</time>
      </trkpt>
      <trkpt lat="46.65972" lon="5.42509">
        <ele>210.2</ele>
        <time>2022-06-25T06:29:40Z</time>
      </trkpt>
      <trkpt lat="46.65968" lon="5.42501">
        <ele>210.2</ele>
        <time>2022-06-25T06:29:41Z</time>
      </trkpt>
      <trkpt lat="46.65965" lon="5.42494">
        <ele>210.2</ele>
        <time>2022-06-25T06:29:42Z</time>
      </trkpt>
      <trkpt lat="46.65963" lon="5.42486">
        <ele>210</ele>
        <time>2022-06-25T06:29:43Z</time>
      </trkpt>
      <trkpt lat="46.6596" lon="5.42479">
        <ele>210</ele>
        <time>2022-06-25T06:29:44Z</time>
      </trkpt>
      <trkpt lat="46.65957" lon="5.42471">
        <ele>210</ele>
        <time>2022-06-25T06:29:45Z</time>
      </trkpt>
      <trkpt lat="46.65954" lon="5.42463">
        <ele>210</ele>
        <time>2022-06-25T06:29:46Z</time>
      </trkpt>
      <trkpt lat="46.65952" lon="5.42455">
        <ele>210</ele>
        <time>2022-06-25T06:29:47Z</time>
      </trkpt>
      <trkpt lat="46.65949" lon="5.42448">
        <ele>210</ele>
        <time>2022-06-25T06:29:48Z</time>
      </trkpt>
      <trkpt lat="46.65947" lon="5.4244">
        <ele>210</ele>
        <time>2022-06-25T06:29:49Z</time>
      </trkpt>
      <trkpt lat="46.65944" lon="5.42432">
        <ele>210</ele>
        <time>2022-06-25T06:29:50Z</time>
      </trkpt>
      <trkpt lat="46.65942" lon="5.42424">
        <ele>209.6</ele>
        <time>2022-06-25T06:29:51Z</time>
      </trkpt>
      <trkpt lat="46.6594" lon="5.42416">
        <ele>209.6</ele>
        <time>2022-06-25T06:29:52Z</time>
      </trkpt>
      <trkpt lat="46.65938" lon="5.42408">
        <ele>209.6</ele>
        <time>2022-06-25T06:29:53Z</time>
      </trkpt>
      <trkpt lat="46.65936" lon="5.424">
        <ele>209.6</ele>
        <time>2022-06-25T06:29:54Z</time>
      </trkpt>
      <trkpt lat="46.65934" lon="5.42392">
        <ele>209.6</ele>
        <time>2022-06-25T06:29:55Z</time>
      </trkpt>
      <trkpt lat="46.65933" lon="5.42385">
        <ele>209.6</ele>
        <time>2022-06-25T06:29:56Z</time>
      </trkpt>
      <trkpt lat="46.65931" lon="5.42377">
        <ele>209.6</ele>
        <time>2022-06-25T06:29:57Z</time>
      </trkpt>
      <trkpt lat="46.65929" lon="5.4237">
        <ele>209.6</ele>
        <time>2022-06-25T06:29:58Z</time>
      </trkpt>
      <trkpt lat="46.65928" lon="5.42363">
        <ele>209.6</ele>
        <time>2022-06-25T06:29:59Z</time>
      </trkpt>
      <trkpt lat="46.65927" lon="5.42355">
        <ele>209.6</ele>
        <time>2022-06-25T06:30:00Z</time>
      </trkpt>
      <trkpt lat="46.65926" lon="5.42348">
        <ele>209.6</ele>
        <time>2022-06-25T06:30:01Z</time>
      </trkpt>
      <trkpt lat="46.65925" lon="5.42341">
        <ele>209.4</ele>
        <time>2022-06-25T06:30:02Z</time>
      </trkpt>
      <trkpt lat="46.65924" lon="5.42334">
        <ele>209.4</ele>
        <time>2022-06-25T06:30:03Z</time>
      </trkpt>
      <trkpt lat="46.65923" lon="5.42326">
        <ele>209.4</ele>
        <time>2022-06-25T06:30:04Z</time>
      </trkpt>
      <trkpt lat="46.65922" lon="5.42319">
        <ele>209.4</ele>
        <time>2022-06-25T06:30:05Z</time>
      </trkpt>
      <trkpt lat="46.6592" lon="5.42311">
        <ele>209.4</ele>
        <time>2022-06-25T06:30:06Z</time>
      </trkpt>
      <trkpt lat="46.65919" lon="5.42303">
        <ele>209.4</ele>
        <time>2022-06-25T06:30:07Z</time>
      </trkpt>
      <trkpt lat="46.65918" lon="5.42295">
        <ele>209.4</ele>
        <time>2022-06-25T06:30:08Z</time>
      </trkpt>
      <trkpt lat="46.65917" lon="5.42286">
        <ele>209.4</ele>
        <time>2022-06-25T06:30:09Z</time>
      </trkpt>
      <trkpt lat="46.65915" lon="5.42278">
        <ele>209.4</ele>
        <time>2022-06-25T06:30:10Z</time>
      </trkpt>
      <trkpt lat="46.65914" lon="5.4227">
        <ele>209.4</ele>
        <time>2022-06-25T06:30:11Z</time>
      </trkpt>
      <trkpt lat="46.65913" lon="5.42262">
        <ele>209.4</ele>
        <time>2022-06-25T06:30:12Z</time>
      </trkpt>
      <trkpt lat="46.65911" lon="5.42253">
        <ele>209.4</ele>
        <time>2022-06-25T06:30:13Z</time>
      </trkpt>
      <trkpt lat="46.6591" lon="5.42245">
        <ele>209.4</ele>
        <time>2022-06-25T06:30:14Z</time>
      </trkpt>
      <trkpt lat="46.65908" lon="5.42236">
        <ele>209.4</ele>
        <time>2022-06-25T06:30:15Z</time>
      </trkpt>
      <trkpt lat="46.65907" lon="5.42227">
        <ele>209.4</ele>
        <time>2022-06-25T06:30:16Z</time>
      </trkpt>
      <trkpt lat="46.65905" lon="5.42219">
        <ele>209.4</ele>
        <time>2022-06-25T06:30:17Z</time>
      </trkpt>
      <trkpt lat="46.65903" lon="5.42211">
        <ele>209.4</ele>
        <time>2022-06-25T06:30:18Z</time>
      </trkpt>
      <trkpt lat="46.65901" lon="5.42202">
        <ele>209.4</ele>
        <time>2022-06-25T06:30:19Z</time>
      </trkpt>
      <trkpt lat="46.65899" lon="5.42194">
        <ele>209.4</ele>
        <time>2022-06-25T06:30:20Z</time>
      </trkpt>
      <trkpt lat="46.65897" lon="5.42185">
        <ele>209.4</ele>
        <time>2022-06-25T06:30:21Z</time>
      </trkpt>
      <trkpt lat="46.65895" lon="5.42177">
        <ele>209.4</ele>
        <time>2022-06-25T06:30:22Z</time>
      </trkpt>
      <trkpt lat="46.65892" lon="5.42169">
        <ele>209.4</ele>
        <time>2022-06-25T06:30:23Z</time>
      </trkpt>
      <trkpt lat="46.6589" lon="5.42161">
        <ele>209.4</ele>
        <time>2022-06-25T06:30:24Z</time>
      </trkpt>
      <trkpt lat="46.65887" lon="5.42153">
        <ele>209.4</ele>
        <time>2022-06-25T06:30:25Z</time>
      </trkpt>
      <trkpt lat="46.65884" lon="5.42145">
        <ele>209.4</ele>
        <time>2022-06-25T06:30:26Z</time>
      </trkpt>
      <trkpt lat="46.65882" lon="5.42137">
        <ele>209.4</ele>
        <time>2022-06-25T06:30:27Z</time>
      </trkpt>
      <trkpt lat="46.65879" lon="5.42129">
        <ele>209.4</ele>
        <time>2022-06-25T06:30:28Z</time>
      </trkpt>
      <trkpt lat="46.65876" lon="5.42121">
        <ele>209.4</ele>
        <time>2022-06-25T06:30:29Z</time>
      </trkpt>
      <trkpt lat="46.65873" lon="5.42113">
        <ele>209.4</ele>
        <time>2022-06-25T06:30:30Z</time>
      </trkpt>
      <trkpt lat="46.6587" lon="5.42106">
        <ele>209.4</ele>
        <time>2022-06-25T06:30:31Z</time>
      </trkpt>
      <trkpt lat="46.65867" lon="5.42098">
        <ele>209.4</ele>
        <time>2022-06-25T06:30:32Z</time>
      </trkpt>
      <trkpt lat="46.65864" lon="5.4209">
        <ele>209.4</ele>
        <time>2022-06-25T06:30:33Z</time>
      </trkpt>
      <trkpt lat="46.65861" lon="5.42083">
        <ele>209.4</ele>
        <time>2022-06-25T06:30:34Z</time>
      </trkpt>
      <trkpt lat="46.65858" lon="5.42075">
        <ele>209.4</ele>
        <time>2022-06-25T06:30:35Z</time>
      </trkpt>
      <trkpt lat="46.65854" lon="5.42067">
        <ele>209.4</ele>
        <time>2022-06-25T06:30:36Z</time>
      </trkpt>
      <trkpt lat="46.65851" lon="5.4206">
        <ele>209.4</ele>
        <time>2022-06-25T06:30:37Z</time>
      </trkpt>
      <trkpt lat="46.65847" lon="5.42053">
        <ele>209.4</ele>
        <time>2022-06-25T06:30:38Z</time>
      </trkpt>
      <trkpt lat="46.65843" lon="5.42046">
        <ele>209.4</ele>
        <time>2022-06-25T06:30:39Z</time>
      </trkpt>
      <trkpt lat="46.6584" lon="5.42039">
        <ele>209.4</ele>
        <time>2022-06-25T06:30:40Z</time>
      </trkpt>
      <trkpt lat="46.65836" lon="5.42032">
        <ele>209.4</ele>
        <time>2022-06-25T06:30:41Z</time>
      </trkpt>
      <trkpt lat="46.65832" lon="5.42025">
        <ele>209.4</ele>
        <time>2022-06-25T06:30:42Z</time>
      </trkpt>
      <trkpt lat="46.65828" lon="5.42018">
        <ele>209.4</ele>
        <time>2022-06-25T06:30:43Z</time>
      </trkpt>
      <trkpt lat="46.65823" lon="5.42012">
        <ele>209.4</ele>
        <time>2022-06-25T06:30:44Z</time>
      </trkpt>
      <trkpt lat="46.65819" lon="5.42006">
        <ele>209.4</ele>
        <time>2022-06-25T06:30:45Z</time>
      </trkpt>
      <trkpt lat="46.65815" lon="5.41999">
        <ele>209.4</ele>
        <time>2022-06-25T06:30:46Z</time>
      </trkpt>
      <trkpt lat="46.6581" lon="5.41993">
        <ele>209.4</ele>
        <time>2022-06-25T06:30:47Z</time>
      </trkpt>
      <trkpt lat="46.65806" lon="5.41987">
        <ele>209.4</ele>
        <time>2022-06-25T06:30:48Z</time>
      </trkpt>
      <trkpt lat="46.65801" lon="5.41981">
        <ele>209.4</ele>
        <time>2022-06-25T06:30:49Z</time>
      </trkpt>
      <trkpt lat="46.65797" lon="5.41975">
        <ele>209.4</ele>
        <time>2022-06-25T06:30:50Z</time>
      </trkpt>
      <trkpt lat="46.65792" lon="5.41969">
        <ele>209.6</ele>
        <time>2022-06-25T06:30:51Z</time>
      </trkpt>
      <trkpt lat="46.65787" lon="5.41963">
        <ele>209.6</ele>
        <time>2022-06-25T06:30:52Z</time>
      </trkpt>
      <trkpt lat="46.65783" lon="5.41957">
        <ele>209.6</ele>
        <time>2022-06-25T06:30:53Z</time>
      </trkpt>
      <trkpt lat="46.65778" lon="5.41951">
        <ele>209.6</ele>
        <time>2022-06-25T06:30:54Z</time>
      </trkpt>
      <trkpt lat="46.65773" lon="5.41945">
        <ele>209.6</ele>
        <time>2022-06-25T06:30:55Z</time>
      </trkpt>
      <trkpt lat="46.65769" lon="5.41938">
        <ele>209.6</ele>
        <time>2022-06-25T06:30:56Z</time>
      </trkpt>
      <trkpt lat="46.65764" lon="5.41932">
        <ele>209.6</ele>
        <time>2022-06-25T06:30:57Z</time>
      </trkpt>
      <trkpt lat="46.65759" lon="5.41926">
        <ele>209.6</ele>
        <time>2022-06-25T06:30:58Z</time>
      </trkpt>
      <trkpt lat="46.65754" lon="5.4192">
        <ele>209.6</ele>
        <time>2022-06-25T06:30:59Z</time>
      </trkpt>
      <trkpt lat="46.6575" lon="5.41914">
        <ele>209.8</ele>
        <time>2022-06-25T06:31:00Z</time>
      </trkpt>
      <trkpt lat="46.65745" lon="5.41908">
        <ele>209.8</ele>
        <time>2022-06-25T06:31:01Z</time>
      </trkpt>
      <trkpt lat="46.65741" lon="5.41901">
        <ele>209.8</ele>
        <time>2022-06-25T06:31:02Z</time>
      </trkpt>
      <trkpt lat="46.65736" lon="5.41895">
        <ele>209.8</ele>
        <time>2022-06-25T06:31:03Z</time>
      </trkpt>
      <trkpt lat="46.65732" lon="5.41889">
        <ele>209.8</ele>
        <time>2022-06-25T06:31:04Z</time>
      </trkpt>
      <trkpt lat="46.65727" lon="5.41883">
        <ele>209.6</ele>
        <time>2022-06-25T06:31:05Z</time>
      </trkpt>
      <trkpt lat="46.65723" lon="5.41877">
        <ele>209.6</ele>
        <time>2022-06-25T06:31:06Z</time>
      </trkpt>
      <trkpt lat="46.65718" lon="5.4187">
        <ele>209.6</ele>
        <time>2022-06-25T06:31:07Z</time>
      </trkpt>
      <trkpt lat="46.65714" lon="5.41864">
        <ele>209.6</ele>
        <time>2022-06-25T06:31:08Z</time>
      </trkpt>
      <trkpt lat="46.6571" lon="5.41857">
        <ele>209.6</ele>
        <time>2022-06-25T06:31:09Z</time>
      </trkpt>
      <trkpt lat="46.65705" lon="5.41851">
        <ele>209.6</ele>
        <time>2022-06-25T06:31:10Z</time>
      </trkpt>
      <trkpt lat="46.65701" lon="5.41844">
        <ele>209.6</ele>
        <time>2022-06-25T06:31:11Z</time>
      </trkpt>
      <trkpt lat="46.65697" lon="5.41838">
        <ele>209.6</ele>
        <time>2022-06-25T06:31:12Z</time>
      </trkpt>
      <trkpt lat="46.65693" lon="5.41831">
        <ele>209.6</ele>
        <time>2022-06-25T06:31:13Z</time>
      </trkpt>
      <trkpt lat="46.6569" lon="5.41825">
        <ele>209.6</ele>
        <time>2022-06-25T06:31:14Z</time>
      </trkpt>
      <trkpt lat="46.65687" lon="5.41819">
        <ele>209.6</ele>
        <time>2022-06-25T06:31:15Z</time>
      </trkpt>
      <trkpt lat="46.65684" lon="5.41813">
        <ele>209.8</ele>
        <time>2022-06-25T06:31:16Z</time>
      </trkpt>
      <trkpt lat="46.65681" lon="5.41808">
        <ele>209.8</ele>
        <time>2022-06-25T06:31:17Z</time>
      </trkpt>
      <trkpt lat="46.65679" lon="5.41802">
        <ele>209.8</ele>
        <time>2022-06-25T06:31:18Z</time>
      </trkpt>
      <trkpt lat="46.65676" lon="5.41797">
        <ele>209.8</ele>
        <time>2022-06-25T06:31:19Z</time>
      </trkpt>
      <trkpt lat="46.65673" lon="5.41791">
        <ele>209.8</ele>
        <time>2022-06-25T06:31:20Z</time>
      </trkpt>
      <trkpt lat="46.65671" lon="5.41785">
        <ele>209.8</ele>
        <time>2022-06-25T06:31:21Z</time>
      </trkpt>
      <trkpt lat="46.65668" lon="5.41779">
        <ele>209.8</ele>
        <time>2022-06-25T06:31:22Z</time>
      </trkpt>
      <trkpt lat="46.65666" lon="5.41773">
        <ele>209.8</ele>
        <time>2022-06-25T06:31:23Z</time>
      </trkpt>
      <trkpt lat="46.65663" lon="5.41767">
        <ele>209.8</ele>
        <time>2022-06-25T06:31:24Z</time>
      </trkpt>
      <trkpt lat="46.65661" lon="5.41761">
        <ele>209.8</ele>
        <time>2022-06-25T06:31:25Z</time>
      </trkpt>
      <trkpt lat="46.65658" lon="5.41753">
        <ele>209.8</ele>
        <time>2022-06-25T06:31:26Z</time>
      </trkpt>
      <trkpt lat="46.65656" lon="5.41746">
        <ele>209.8</ele>
        <time>2022-06-25T06:31:27Z</time>
      </trkpt>
      <trkpt lat="46.65653" lon="5.41738">
        <ele>209.8</ele>
        <time>2022-06-25T06:31:28Z</time>
      </trkpt>
      <trkpt lat="46.65651" lon="5.41731">
        <ele>209.8</ele>
        <time>2022-06-25T06:31:29Z</time>
      </trkpt>
      <trkpt lat="46.65648" lon="5.41723">
        <ele>209.8</ele>
        <time>2022-06-25T06:31:30Z</time>
      </trkpt>
      <trkpt lat="46.65646" lon="5.41715">
        <ele>209.6</ele>
        <time>2022-06-25T06:31:31Z</time>
      </trkpt>
      <trkpt lat="46.65644" lon="5.41708">
        <ele>209.6</ele>
        <time>2022-06-25T06:31:32Z</time>
      </trkpt>
      <trkpt lat="46.65643" lon="5.41701">
        <ele>209.6</ele>
        <time>2022-06-25T06:31:33Z</time>
      </trkpt>
      <trkpt lat="46.65644" lon="5.41695">
        <ele>209.8</ele>
        <time>2022-06-25T06:31:34Z</time>
      </trkpt>
      <trkpt lat="46.65645" lon="5.41691">
        <ele>209.8</ele>
        <time>2022-06-25T06:31:35Z</time>
      </trkpt>
      <trkpt lat="46.65647" lon="5.41689">
        <ele>210.2</ele>
        <time>2022-06-25T06:31:36Z</time>
      </trkpt>
      <trkpt lat="46.65649" lon="5.41689">
        <ele>210.2</ele>
        <time>2022-06-25T06:31:37Z</time>
      </trkpt>
      <trkpt lat="46.65651" lon="5.4169">
        <ele>210.4</ele>
        <time>2022-06-25T06:31:38Z</time>
      </trkpt>
      <trkpt lat="46.65654" lon="5.41692">
        <ele>210.4</ele>
        <time>2022-06-25T06:31:39Z</time>
      </trkpt>
      <trkpt lat="46.65656" lon="5.41695">
        <ele>210.6</ele>
        <time>2022-06-25T06:31:40Z</time>
      </trkpt>
      <trkpt lat="46.65658" lon="5.41698">
        <ele>210.6</ele>
        <time>2022-06-25T06:31:41Z</time>
      </trkpt>
      <trkpt lat="46.6566" lon="5.41701">
        <ele>210.6</ele>
        <time>2022-06-25T06:31:42Z</time>
      </trkpt>
      <trkpt lat="46.65662" lon="5.41705">
        <ele>210.6</ele>
        <time>2022-06-25T06:31:43Z</time>
      </trkpt>
      <trkpt lat="46.65664" lon="5.41709">
        <ele>211</ele>
        <time>2022-06-25T06:31:44Z</time>
      </trkpt>
      <trkpt lat="46.65666" lon="5.41713">
        <ele>211</ele>
        <time>2022-06-25T06:31:45Z</time>
      </trkpt>
      <trkpt lat="46.65668" lon="5.41717">
        <ele>211.2</ele>
        <time>2022-06-25T06:31:46Z</time>
      </trkpt>
      <trkpt lat="46.6567" lon="5.41722">
        <ele>211.2</ele>
        <time>2022-06-25T06:31:47Z</time>
      </trkpt>
      <trkpt lat="46.65672" lon="5.41726">
        <ele>211.2</ele>
        <time>2022-06-25T06:31:48Z</time>
      </trkpt>
      <trkpt lat="46.65674" lon="5.4173">
        <ele>211.2</ele>
        <time>2022-06-25T06:31:49Z</time>
      </trkpt>
      <trkpt lat="46.65676" lon="5.41734">
        <ele>211.4</ele>
        <time>2022-06-25T06:31:50Z</time>
      </trkpt>
      <trkpt lat="46.65679" lon="5.41738">
        <ele>211.4</ele>
        <time>2022-06-25T06:31:51Z</time>
      </trkpt>
      <trkpt lat="46.65681" lon="5.41742">
        <ele>211.4</ele>
        <time>2022-06-25T06:31:52Z</time>
      </trkpt>
      <trkpt lat="46.65683" lon="5.41746">
        <ele>211.4</ele>
        <time>2022-06-25T06:31:53Z</time>
      </trkpt>
      <trkpt lat="46.65685" lon="5.4175">
        <ele>211.6</ele>
        <time>2022-06-25T06:31:54Z</time>
      </trkpt>
      <trkpt lat="46.65688" lon="5.41754">
        <ele>211.6</ele>
        <time>2022-06-25T06:31:55Z</time>
      </trkpt>
      <trkpt lat="46.6569" lon="5.41758">
        <ele>211.6</ele>
        <time>2022-06-25T06:31:56Z</time>
      </trkpt>
      <trkpt lat="46.65693" lon="5.41762">
        <ele>212</ele>
        <time>2022-06-25T06:31:57Z</time>
      </trkpt>
      <trkpt lat="46.65695" lon="5.41767">
        <ele>212</ele>
        <time>2022-06-25T06:31:58Z</time>
      </trkpt>
      <trkpt lat="46.65697" lon="5.41771">
        <ele>212</ele>
        <time>2022-06-25T06:31:59Z</time>
      </trkpt>
      <trkpt lat="46.65699" lon="5.41775">
        <ele>212</ele>
        <time>2022-06-25T06:32:00Z</time>
      </trkpt>
      <trkpt lat="46.65701" lon="5.4178">
        <ele>212</ele>
        <time>2022-06-25T06:32:01Z</time>
      </trkpt>
      <trkpt lat="46.65703" lon="5.41784">
        <ele>212.2</ele>
        <time>2022-06-25T06:32:02Z</time>
      </trkpt>
      <trkpt lat="46.65706" lon="5.41789">
        <ele>212.2</ele>
        <time>2022-06-25T06:32:03Z</time>
      </trkpt>
      <trkpt lat="46.65708" lon="5.41793">
        <ele>212.2</ele>
        <time>2022-06-25T06:32:04Z</time>
      </trkpt>
      <trkpt lat="46.6571" lon="5.41797">
        <ele>212.2</ele>
        <time>2022-06-25T06:32:05Z</time>
      </trkpt>
      <trkpt lat="46.65713" lon="5.41802">
        <ele>212.2</ele>
        <time>2022-06-25T06:32:06Z</time>
      </trkpt>
      <trkpt lat="46.65715" lon="5.41806">
        <ele>212.2</ele>
        <time>2022-06-25T06:32:07Z</time>
      </trkpt>
      <trkpt lat="46.65718" lon="5.41811">
        <ele>212.2</ele>
        <time>2022-06-25T06:32:08Z</time>
      </trkpt>
      <trkpt lat="46.65721" lon="5.41815">
        <ele>212.4</ele>
        <time>2022-06-25T06:32:09Z</time>
      </trkpt>
      <trkpt lat="46.65723" lon="5.41819">
        <ele>212.4</ele>
        <time>2022-06-25T06:32:10Z</time>
      </trkpt>
      <trkpt lat="46.65726" lon="5.41824">
        <ele>212.4</ele>
        <time>2022-06-25T06:32:11Z</time>
      </trkpt>
      <trkpt lat="46.65728" lon="5.41828">
        <ele>212.6</ele>
        <time>2022-06-25T06:32:12Z</time>
      </trkpt>
      <trkpt lat="46.65731" lon="5.41833">
        <ele>212.6</ele>
        <time>2022-06-25T06:32:13Z</time>
      </trkpt>
      <trkpt lat="46.65733" lon="5.41837">
        <ele>212.6</ele>
        <time>2022-06-25T06:32:14Z</time>
      </trkpt>
      <trkpt lat="46.65736" lon="5.41842">
        <ele>212.6</ele>
        <time>2022-06-25T06:32:15Z</time>
      </trkpt>
      <trkpt lat="46.65739" lon="5.41846">
        <ele>212.6</ele>
        <time>2022-06-25T06:32:16Z</time>
      </trkpt>
      <trkpt lat="46.65742" lon="5.41851">
        <ele>212.8</ele>
        <time>2022-06-25T06:32:17Z</time>
      </trkpt>
      <trkpt lat="46.65744" lon="5.41855">
        <ele>212.8</ele>
        <time>2022-06-25T06:32:18Z</time>
      </trkpt>
      <trkpt lat="46.65747" lon="5.41859">
        <ele>212.8</ele>
        <time>2022-06-25T06:32:19Z</time>
      </trkpt>
      <trkpt lat="46.6575" lon="5.41864">
        <ele>212.8</ele>
        <time>2022-06-25T06:32:20Z</time>
      </trkpt>
      <trkpt lat="46.65753" lon="5.41868">
        <ele>213.2</ele>
        <time>2022-06-25T06:32:21Z</time>
      </trkpt>
      <trkpt lat="46.65756" lon="5.41872">
        <ele>213.2</ele>
        <time>2022-06-25T06:32:22Z</time>
      </trkpt>
      <trkpt lat="46.65759" lon="5.41876">
        <ele>213.2</ele>
        <time>2022-06-25T06:32:23Z</time>
      </trkpt>
      <trkpt lat="46.65762" lon="5.4188">
        <ele>213.2</ele>
        <time>2022-06-25T06:32:24Z</time>
      </trkpt>
      <trkpt lat="46.65765" lon="5.41884">
        <ele>213.2</ele>
        <time>2022-06-25T06:32:25Z</time>
      </trkpt>
      <trkpt lat="46.65768" lon="5.41888">
        <ele>213.2</ele>
        <time>2022-06-25T06:32:26Z</time>
      </trkpt>
      <trkpt lat="46.65772" lon="5.4189">
        <ele>213.2</ele>
        <time>2022-06-25T06:32:27Z</time>
      </trkpt>
      <trkpt lat="46.65776" lon="5.4189">
        <ele>213.2</ele>
        <time>2022-06-25T06:32:28Z</time>
      </trkpt>
      <trkpt lat="46.6578" lon="5.41888">
        <ele>213.2</ele>
        <time>2022-06-25T06:32:29Z</time>
      </trkpt>
      <trkpt lat="46.65783" lon="5.41884">
        <ele>213.4</ele>
        <time>2022-06-25T06:32:30Z</time>
      </trkpt>
      <trkpt lat="46.65785" lon="5.4188">
        <ele>213.6</ele>
        <time>2022-06-25T06:32:31Z</time>
      </trkpt>
      <trkpt lat="46.65787" lon="5.41876">
        <ele>213.8</ele>
        <time>2022-06-25T06:32:32Z</time>
      </trkpt>
      <trkpt lat="46.65789" lon="5.41871">
        <ele>214.2</ele>
        <time>2022-06-25T06:32:33Z</time>
      </trkpt>
      <trkpt lat="46.65791" lon="5.41866">
        <ele>214.4</ele>
        <time>2022-06-25T06:32:34Z</time>
      </trkpt>
      <trkpt lat="46.65792" lon="5.41862">
        <ele>214.6</ele>
        <time>2022-06-25T06:32:35Z</time>
      </trkpt>
      <trkpt lat="46.65794" lon="5.41858">
        <ele>214.8</ele>
        <time>2022-06-25T06:32:36Z</time>
      </trkpt>
      <trkpt lat="46.65796" lon="5.41854">
        <ele>215.2</ele>
        <time>2022-06-25T06:32:37Z</time>
      </trkpt>
      <trkpt lat="46.65797" lon="5.41852">
        <ele>215.6</ele>
        <time>2022-06-25T06:32:38Z</time>
      </trkpt>
      <trkpt lat="46.65799" lon="5.41848">
        <ele>215.8</ele>
        <time>2022-06-25T06:32:39Z</time>
      </trkpt>
      <trkpt lat="46.658" lon="5.41845">
        <ele>216.2</ele>
        <time>2022-06-25T06:32:40Z</time>
      </trkpt>
      <trkpt lat="46.65802" lon="5.41842">
        <ele>216.4</ele>
        <time>2022-06-25T06:32:41Z</time>
      </trkpt>
      <trkpt lat="46.65803" lon="5.41839">
        <ele>216.8</ele>
        <time>2022-06-25T06:32:42Z</time>
      </trkpt>
      <trkpt lat="46.65804" lon="5.41836">
        <ele>217</ele>
        <time>2022-06-25T06:32:43Z</time>
      </trkpt>
      <trkpt lat="46.65805" lon="5.41832">
        <ele>217</ele>
        <time>2022-06-25T06:32:44Z</time>
      </trkpt>
      <trkpt lat="46.65807" lon="5.41828">
        <ele>217.4</ele>
        <time>2022-06-25T06:32:45Z</time>
      </trkpt>
      <trkpt lat="46.65809" lon="5.41824">
        <ele>217.6</ele>
        <time>2022-06-25T06:32:46Z</time>
      </trkpt>
      <trkpt lat="46.65811" lon="5.4182">
        <ele>217.6</ele>
        <time>2022-06-25T06:32:47Z</time>
      </trkpt>
      <trkpt lat="46.65813" lon="5.41815">
        <ele>218</ele>
        <time>2022-06-25T06:32:48Z</time>
      </trkpt>
      <trkpt lat="46.65815" lon="5.41811">
        <ele>218.2</ele>
        <time>2022-06-25T06:32:49Z</time>
      </trkpt>
      <trkpt lat="46.65817" lon="5.41807">
        <ele>218.4</ele>
        <time>2022-06-25T06:32:50Z</time>
      </trkpt>
      <trkpt lat="46.65819" lon="5.41803">
        <ele>218.4</ele>
        <time>2022-06-25T06:32:51Z</time>
      </trkpt>
      <trkpt lat="46.65821" lon="5.41799">
        <ele>218.8</ele>
        <time>2022-06-25T06:32:52Z</time>
      </trkpt>
      <trkpt lat="46.65823" lon="5.41795">
        <ele>218.8</ele>
        <time>2022-06-25T06:32:53Z</time>
      </trkpt>
      <trkpt lat="46.65825" lon="5.41791">
        <ele>219</ele>
        <time>2022-06-25T06:32:54Z</time>
      </trkpt>
      <trkpt lat="46.65826" lon="5.41786">
        <ele>219.4</ele>
        <time>2022-06-25T06:32:55Z</time>
      </trkpt>
      <trkpt lat="46.65828" lon="5.41782">
        <ele>219.4</ele>
        <time>2022-06-25T06:32:56Z</time>
      </trkpt>
      <trkpt lat="46.6583" lon="5.41778">
        <ele>219.6</ele>
        <time>2022-06-25T06:32:57Z</time>
      </trkpt>
      <trkpt lat="46.65833" lon="5.41774">
        <ele>219.6</ele>
        <time>2022-06-25T06:32:58Z</time>
      </trkpt>
      <trkpt lat="46.65835" lon="5.4177">
        <ele>219.8</ele>
        <time>2022-06-25T06:32:59Z</time>
      </trkpt>
      <trkpt lat="46.65837" lon="5.41766">
        <ele>219.8</ele>
        <time>2022-06-25T06:33:00Z</time>
      </trkpt>
      <trkpt lat="46.65839" lon="5.41761">
        <ele>220</ele>
        <time>2022-06-25T06:33:01Z</time>
      </trkpt>
      <trkpt lat="46.65841" lon="5.41756">
        <ele>220</ele>
        <time>2022-06-25T06:33:02Z</time>
      </trkpt>
      <trkpt lat="46.65842" lon="5.41752">
        <ele>220.2</ele>
        <time>2022-06-25T06:33:03Z</time>
      </trkpt>
      <trkpt lat="46.65841" lon="5.41746">
        <ele>220.2</ele>
        <time>2022-06-25T06:33:04Z</time>
      </trkpt>
      <trkpt lat="46.6584" lon="5.41741">
        <ele>220.2</ele>
        <time>2022-06-25T06:33:05Z</time>
      </trkpt>
      <trkpt lat="46.65838" lon="5.41736">
        <ele>220.2</ele>
        <time>2022-06-25T06:33:06Z</time>
      </trkpt>
      <trkpt lat="46.65835" lon="5.41731">
        <ele>220.2</ele>
        <time>2022-06-25T06:33:07Z</time>
      </trkpt>
      <trkpt lat="46.65832" lon="5.41727">
        <ele>220.2</ele>
        <time>2022-06-25T06:33:08Z</time>
      </trkpt>
      <trkpt lat="46.65828" lon="5.41723">
        <ele>220.2</ele>
        <time>2022-06-25T06:33:09Z</time>
      </trkpt>
      <trkpt lat="46.65824" lon="5.4172">
        <ele>220.2</ele>
        <time>2022-06-25T06:33:10Z</time>
      </trkpt>
      <trkpt lat="46.65819" lon="5.41717">
        <ele>220.2</ele>
        <time>2022-06-25T06:33:11Z</time>
      </trkpt>
      <trkpt lat="46.65815" lon="5.41714">
        <ele>220.2</ele>
        <time>2022-06-25T06:33:12Z</time>
      </trkpt>
      <trkpt lat="46.65811" lon="5.41711">
        <ele>220.2</ele>
        <time>2022-06-25T06:33:13Z</time>
      </trkpt>
      <trkpt lat="46.65806" lon="5.41708">
        <ele>220</ele>
        <time>2022-06-25T06:33:14Z</time>
      </trkpt>
      <trkpt lat="46.65802" lon="5.41704">
        <ele>219.8</ele>
        <time>2022-06-25T06:33:15Z</time>
      </trkpt>
      <trkpt lat="46.65797" lon="5.417">
        <ele>219.6</ele>
        <time>2022-06-25T06:33:16Z</time>
      </trkpt>
      <trkpt lat="46.65793" lon="5.41696">
        <ele>219.2</ele>
        <time>2022-06-25T06:33:17Z</time>
      </trkpt>
      <trkpt lat="46.65789" lon="5.41692">
        <ele>219</ele>
        <time>2022-06-25T06:33:18Z</time>
      </trkpt>
      <trkpt lat="46.65784" lon="5.41687">
        <ele>218.8</ele>
        <time>2022-06-25T06:33:19Z</time>
      </trkpt>
      <trkpt lat="46.6578" lon="5.4168">
        <ele>218.6</ele>
        <time>2022-06-25T06:33:20Z</time>
      </trkpt>
      <trkpt lat="46.65776" lon="5.41673">
        <ele>218.6</ele>
        <time>2022-06-25T06:33:21Z</time>
      </trkpt>
      <trkpt lat="46.65773" lon="5.41666">
        <ele>218.2</ele>
        <time>2022-06-25T06:33:22Z</time>
      </trkpt>
      <trkpt lat="46.6577" lon="5.41658">
        <ele>218.2</ele>
        <time>2022-06-25T06:33:23Z</time>
      </trkpt>
      <trkpt lat="46.65767" lon="5.4165">
        <ele>218</ele>
        <time>2022-06-25T06:33:24Z</time>
      </trkpt>
      <trkpt lat="46.65765" lon="5.41642">
        <ele>218</ele>
        <time>2022-06-25T06:33:25Z</time>
      </trkpt>
      <trkpt lat="46.65762" lon="5.41635">
        <ele>218</ele>
        <time>2022-06-25T06:33:26Z</time>
      </trkpt>
      <trkpt lat="46.65759" lon="5.41628">
        <ele>218</ele>
        <time>2022-06-25T06:33:27Z</time>
      </trkpt>
      <trkpt lat="46.65755" lon="5.41621">
        <ele>218</ele>
        <time>2022-06-25T06:33:28Z</time>
      </trkpt>
      <trkpt lat="46.65752" lon="5.41613">
        <ele>218</ele>
        <time>2022-06-25T06:33:29Z</time>
      </trkpt>
      <trkpt lat="46.65749" lon="5.41605">
        <ele>218</ele>
        <time>2022-06-25T06:33:30Z</time>
      </trkpt>
      <trkpt lat="46.65746" lon="5.41597">
        <ele>218</ele>
        <time>2022-06-25T06:33:31Z</time>
      </trkpt>
      <trkpt lat="46.65743" lon="5.41589">
        <ele>218</ele>
        <time>2022-06-25T06:33:32Z</time>
      </trkpt>
      <trkpt lat="46.65741" lon="5.41581">
        <ele>218</ele>
        <time>2022-06-25T06:33:33Z</time>
      </trkpt>
      <trkpt lat="46.65738" lon="5.41573">
        <ele>218</ele>
        <time>2022-06-25T06:33:34Z</time>
      </trkpt>
      <trkpt lat="46.65736" lon="5.41564">
        <ele>217.8</ele>
        <time>2022-06-25T06:33:35Z</time>
      </trkpt>
      <trkpt lat="46.65734" lon="5.41556">
        <ele>217.8</ele>
        <time>2022-06-25T06:33:36Z</time>
      </trkpt>
      <trkpt lat="46.65733" lon="5.41547">
        <ele>217.8</ele>
        <time>2022-06-25T06:33:37Z</time>
      </trkpt>
      <trkpt lat="46.65731" lon="5.41539">
        <ele>217.8</ele>
        <time>2022-06-25T06:33:38Z</time>
      </trkpt>
      <trkpt lat="46.6573" lon="5.41531">
        <ele>217.8</ele>
        <time>2022-06-25T06:33:39Z</time>
      </trkpt>
      <trkpt lat="46.65728" lon="5.41522">
        <ele>217.8</ele>
        <time>2022-06-25T06:33:40Z</time>
      </trkpt>
      <trkpt lat="46.65727" lon="5.41514">
        <ele>217.8</ele>
        <time>2022-06-25T06:33:41Z</time>
      </trkpt>
      <trkpt lat="46.65725" lon="5.41506">
        <ele>217.8</ele>
        <time>2022-06-25T06:33:42Z</time>
      </trkpt>
      <trkpt lat="46.65724" lon="5.41497">
        <ele>217.8</ele>
        <time>2022-06-25T06:33:43Z</time>
      </trkpt>
      <trkpt lat="46.65722" lon="5.41489">
        <ele>217.8</ele>
        <time>2022-06-25T06:33:44Z</time>
      </trkpt>
      <trkpt lat="46.6572" lon="5.4148">
        <ele>217.8</ele>
        <time>2022-06-25T06:33:45Z</time>
      </trkpt>
      <trkpt lat="46.65717" lon="5.41472">
        <ele>217.6</ele>
        <time>2022-06-25T06:33:46Z</time>
      </trkpt>
      <trkpt lat="46.65714" lon="5.41465">
        <ele>217.6</ele>
        <time>2022-06-25T06:33:47Z</time>
      </trkpt>
      <trkpt lat="46.6571" lon="5.41457">
        <ele>217.6</ele>
        <time>2022-06-25T06:33:48Z</time>
      </trkpt>
      <trkpt lat="46.65707" lon="5.4145">
        <ele>217.6</ele>
        <time>2022-06-25T06:33:49Z</time>
      </trkpt>
      <trkpt lat="46.65703" lon="5.41442">
        <ele>217.6</ele>
        <time>2022-06-25T06:33:50Z</time>
      </trkpt>
      <trkpt lat="46.657" lon="5.41435">
        <ele>217.6</ele>
        <time>2022-06-25T06:33:51Z</time>
      </trkpt>
      <trkpt lat="46.65696" lon="5.41428">
        <ele>217.6</ele>
        <time>2022-06-25T06:33:52Z</time>
      </trkpt>
      <trkpt lat="46.65692" lon="5.41421">
        <ele>217.6</ele>
        <time>2022-06-25T06:33:53Z</time>
      </trkpt>
      <trkpt lat="46.65687" lon="5.41415">
        <ele>217.6</ele>
        <time>2022-06-25T06:33:54Z</time>
      </trkpt>
      <trkpt lat="46.65682" lon="5.41409">
        <ele>217.6</ele>
        <time>2022-06-25T06:33:55Z</time>
      </trkpt>
      <trkpt lat="46.65678" lon="5.41402">
        <ele>217.6</ele>
        <time>2022-06-25T06:33:56Z</time>
      </trkpt>
      <trkpt lat="46.65673" lon="5.41396">
        <ele>217.4</ele>
        <time>2022-06-25T06:33:57Z</time>
      </trkpt>
      <trkpt lat="46.65668" lon="5.41389">
        <ele>217.4</ele>
        <time>2022-06-25T06:33:58Z</time>
      </trkpt>
      <trkpt lat="46.65662" lon="5.41383">
        <ele>217.2</ele>
        <time>2022-06-25T06:33:59Z</time>
      </trkpt>
      <trkpt lat="46.65657" lon="5.41377">
        <ele>217.2</ele>
        <time>2022-06-25T06:34:00Z</time>
      </trkpt>
      <trkpt lat="46.65652" lon="5.4137">
        <ele>217</ele>
        <time>2022-06-25T06:34:01Z</time>
      </trkpt>
      <trkpt lat="46.65647" lon="5.41363">
        <ele>217</ele>
        <time>2022-06-25T06:34:02Z</time>
      </trkpt>
      <trkpt lat="46.65642" lon="5.41356">
        <ele>217</ele>
        <time>2022-06-25T06:34:03Z</time>
      </trkpt>
      <trkpt lat="46.65637" lon="5.41348">
        <ele>217</ele>
        <time>2022-06-25T06:34:04Z</time>
      </trkpt>
      <trkpt lat="46.65632" lon="5.41341">
        <ele>216.6</ele>
        <time>2022-06-25T06:34:05Z</time>
      </trkpt>
      <trkpt lat="46.65627" lon="5.41334">
        <ele>216.6</ele>
        <time>2022-06-25T06:34:06Z</time>
      </trkpt>
      <trkpt lat="46.65622" lon="5.41326">
        <ele>216.2</ele>
        <time>2022-06-25T06:34:07Z</time>
      </trkpt>
      <trkpt lat="46.65617" lon="5.41319">
        <ele>216</ele>
        <time>2022-06-25T06:34:08Z</time>
      </trkpt>
      <trkpt lat="46.65612" lon="5.41311">
        <ele>216</ele>
        <time>2022-06-25T06:34:09Z</time>
      </trkpt>
      <trkpt lat="46.65607" lon="5.41304">
        <ele>215.8</ele>
        <time>2022-06-25T06:34:10Z</time>
      </trkpt>
      <trkpt lat="46.65601" lon="5.41296">
        <ele>215.8</ele>
        <time>2022-06-25T06:34:11Z</time>
      </trkpt>
      <trkpt lat="46.65596" lon="5.41289">
        <ele>215.6</ele>
        <time>2022-06-25T06:34:12Z</time>
      </trkpt>
      <trkpt lat="46.65591" lon="5.41282">
        <ele>215.6</ele>
        <time>2022-06-25T06:34:13Z</time>
      </trkpt>
      <trkpt lat="46.65585" lon="5.41274">
        <ele>215</ele>
        <time>2022-06-25T06:34:14Z</time>
      </trkpt>
      <trkpt lat="46.6558" lon="5.41268">
        <ele>214.8</ele>
        <time>2022-06-25T06:34:15Z</time>
      </trkpt>
      <trkpt lat="46.65575" lon="5.41262">
        <ele>214.4</ele>
        <time>2022-06-25T06:34:16Z</time>
      </trkpt>
      <trkpt lat="46.65571" lon="5.41257">
        <ele>214.2</ele>
        <time>2022-06-25T06:34:17Z</time>
      </trkpt>
      <trkpt lat="46.65565" lon="5.41254">
        <ele>214</ele>
        <time>2022-06-25T06:34:18Z</time>
      </trkpt>
      <trkpt lat="46.65558" lon="5.41253">
        <ele>213.6</ele>
        <time>2022-06-25T06:34:19Z</time>
      </trkpt>
      <trkpt lat="46.65551" lon="5.41254">
        <ele>213.2</ele>
        <time>2022-06-25T06:34:20Z</time>
      </trkpt>
      <trkpt lat="46.65542" lon="5.41256">
        <ele>212.6</ele>
        <time>2022-06-25T06:34:21Z</time>
      </trkpt>
      <trkpt lat="46.65534" lon="5.4126">
        <ele>212</ele>
        <time>2022-06-25T06:34:22Z</time>
      </trkpt>
      <trkpt lat="46.65525" lon="5.41264">
        <ele>211.4</ele>
        <time>2022-06-25T06:34:23Z</time>
      </trkpt>
      <trkpt lat="46.65515" lon="5.41268">
        <ele>210.8</ele>
        <time>2022-06-25T06:34:24Z</time>
      </trkpt>
      <trkpt lat="46.65506" lon="5.41271">
        <ele>210.2</ele>
        <time>2022-06-25T06:34:25Z</time>
      </trkpt>
      <trkpt lat="46.65497" lon="5.41274">
        <ele>209.8</ele>
        <time>2022-06-25T06:34:26Z</time>
      </trkpt>
      <trkpt lat="46.65489" lon="5.41278">
        <ele>209.4</ele>
        <time>2022-06-25T06:34:27Z</time>
      </trkpt>
      <trkpt lat="46.65481" lon="5.41282">
        <ele>209</ele>
        <time>2022-06-25T06:34:28Z</time>
      </trkpt>
      <trkpt lat="46.65475" lon="5.41284">
        <ele>208.6</ele>
        <time>2022-06-25T06:34:29Z</time>
      </trkpt>
      <trkpt lat="46.65469" lon="5.41283">
        <ele>208.4</ele>
        <time>2022-06-25T06:34:30Z</time>
      </trkpt>
      <trkpt lat="46.65464" lon="5.4128">
        <ele>208</ele>
        <time>2022-06-25T06:34:31Z</time>
      </trkpt>
      <trkpt lat="46.65459" lon="5.41276">
        <ele>208</ele>
        <time>2022-06-25T06:34:32Z</time>
      </trkpt>
      <trkpt lat="46.65454" lon="5.41271">
        <ele>207.6</ele>
        <time>2022-06-25T06:34:33Z</time>
      </trkpt>
      <trkpt lat="46.6545" lon="5.41265">
        <ele>207.6</ele>
        <time>2022-06-25T06:34:34Z</time>
      </trkpt>
      <trkpt lat="46.65446" lon="5.41259">
        <ele>207.4</ele>
        <time>2022-06-25T06:34:35Z</time>
      </trkpt>
      <trkpt lat="46.65441" lon="5.41253">
        <ele>207.4</ele>
        <time>2022-06-25T06:34:36Z</time>
      </trkpt>
      <trkpt lat="46.65437" lon="5.41247">
        <ele>207.4</ele>
        <time>2022-06-25T06:34:37Z</time>
      </trkpt>
      <trkpt lat="46.65432" lon="5.4124">
        <ele>207.2</ele>
        <time>2022-06-25T06:34:38Z</time>
      </trkpt>
      <trkpt lat="46.65427" lon="5.41234">
        <ele>207.2</ele>
        <time>2022-06-25T06:34:39Z</time>
      </trkpt>
      <trkpt lat="46.65423" lon="5.41228">
        <ele>207.2</ele>
        <time>2022-06-25T06:34:40Z</time>
      </trkpt>
      <trkpt lat="46.65419" lon="5.41221">
        <ele>207</ele>
        <time>2022-06-25T06:34:41Z</time>
      </trkpt>
      <trkpt lat="46.65415" lon="5.41214">
        <ele>207</ele>
        <time>2022-06-25T06:34:42Z</time>
      </trkpt>
      <trkpt lat="46.65411" lon="5.41207">
        <ele>207</ele>
        <time>2022-06-25T06:34:43Z</time>
      </trkpt>
      <trkpt lat="46.65407" lon="5.41199">
        <ele>207</ele>
        <time>2022-06-25T06:34:44Z</time>
      </trkpt>
      <trkpt lat="46.65404" lon="5.41192">
        <ele>207</ele>
        <time>2022-06-25T06:34:45Z</time>
      </trkpt>
      <trkpt lat="46.654" lon="5.41185">
        <ele>207</ele>
        <time>2022-06-25T06:34:46Z</time>
      </trkpt>
      <trkpt lat="46.65397" lon="5.41177">
        <ele>207</ele>
        <time>2022-06-25T06:34:47Z</time>
      </trkpt>
      <trkpt lat="46.65394" lon="5.4117">
        <ele>207</ele>
        <time>2022-06-25T06:34:48Z</time>
      </trkpt>
      <trkpt lat="46.65391" lon="5.41162">
        <ele>206.8</ele>
        <time>2022-06-25T06:34:49Z</time>
      </trkpt>
      <trkpt lat="46.65387" lon="5.41154">
        <ele>206.8</ele>
        <time>2022-06-25T06:34:50Z</time>
      </trkpt>
      <trkpt lat="46.65385" lon="5.41146">
        <ele>206.8</ele>
        <time>2022-06-25T06:34:51Z</time>
      </trkpt>
      <trkpt lat="46.65382" lon="5.41138">
        <ele>206.8</ele>
        <time>2022-06-25T06:34:52Z</time>
      </trkpt>
      <trkpt lat="46.6538" lon="5.4113">
        <ele>206.6</ele>
        <time>2022-06-25T06:34:53Z</time>
      </trkpt>
      <trkpt lat="46.65377" lon="5.41121">
        <ele>206.6</ele>
        <time>2022-06-25T06:34:54Z</time>
      </trkpt>
      <trkpt lat="46.65374" lon="5.41113">
        <ele>206.6</ele>
        <time>2022-06-25T06:34:55Z</time>
      </trkpt>
      <trkpt lat="46.65371" lon="5.41104">
        <ele>206.6</ele>
        <time>2022-06-25T06:34:56Z</time>
      </trkpt>
      <trkpt lat="46.65368" lon="5.41095">
        <ele>206.4</ele>
        <time>2022-06-25T06:34:57Z</time>
      </trkpt>
      <trkpt lat="46.65366" lon="5.41086">
        <ele>206.4</ele>
        <time>2022-06-25T06:34:58Z</time>
      </trkpt>
      <trkpt lat="46.65364" lon="5.41076">
        <ele>206.4</ele>
        <time>2022-06-25T06:34:59Z</time>
      </trkpt>
      <trkpt lat="46.65361" lon="5.41066">
        <ele>206.4</ele>
        <time>2022-06-25T06:35:00Z</time>
      </trkpt>
      <trkpt lat="46.65359" lon="5.41055">
        <ele>206.4</ele>
        <time>2022-06-25T06:35:01Z</time>
      </trkpt>
      <trkpt lat="46.65357" lon="5.41045">
        <ele>206.4</ele>
        <time>2022-06-25T06:35:02Z</time>
      </trkpt>
      <trkpt lat="46.65355" lon="5.41035">
        <ele>206.4</ele>
        <time>2022-06-25T06:35:03Z</time>
      </trkpt>
      <trkpt lat="46.65354" lon="5.41025">
        <ele>206.4</ele>
        <time>2022-06-25T06:35:04Z</time>
      </trkpt>
      <trkpt lat="46.65352" lon="5.41015">
        <ele>206.4</ele>
        <time>2022-06-25T06:35:05Z</time>
      </trkpt>
      <trkpt lat="46.65351" lon="5.41005">
        <ele>206.4</ele>
        <time>2022-06-25T06:35:06Z</time>
      </trkpt>
      <trkpt lat="46.65349" lon="5.40995">
        <ele>206.4</ele>
        <time>2022-06-25T06:35:07Z</time>
      </trkpt>
      <trkpt lat="46.65348" lon="5.40985">
        <ele>206</ele>
        <time>2022-06-25T06:35:08Z</time>
      </trkpt>
      <trkpt lat="46.65346" lon="5.40966">
        <ele>206</ele>
        <time>2022-06-25T06:35:09Z</time>
      </trkpt>
      <trkpt lat="46.65346" lon="5.40957">
        <ele>206</ele>
        <time>2022-06-25T06:35:10Z</time>
      </trkpt>
      <trkpt lat="46.65346" lon="5.40947">
        <ele>206</ele>
        <time>2022-06-25T06:35:11Z</time>
      </trkpt>
      <trkpt lat="46.65345" lon="5.40937">
        <ele>206</ele>
        <time>2022-06-25T06:35:12Z</time>
      </trkpt>
      <trkpt lat="46.65345" lon="5.40928">
        <ele>206</ele>
        <time>2022-06-25T06:35:13Z</time>
      </trkpt>
      <trkpt lat="46.65346" lon="5.40919">
        <ele>206</ele>
        <time>2022-06-25T06:35:14Z</time>
      </trkpt>
      <trkpt lat="46.65346" lon="5.40909">
        <ele>206</ele>
        <time>2022-06-25T06:35:15Z</time>
      </trkpt>
      <trkpt lat="46.65347" lon="5.40899">
        <ele>205.8</ele>
        <time>2022-06-25T06:35:16Z</time>
      </trkpt>
      <trkpt lat="46.65347" lon="5.40889">
        <ele>205.8</ele>
        <time>2022-06-25T06:35:17Z</time>
      </trkpt>
      <trkpt lat="46.65347" lon="5.40879">
        <ele>205.8</ele>
        <time>2022-06-25T06:35:18Z</time>
      </trkpt>
      <trkpt lat="46.65346" lon="5.40869">
        <ele>205.8</ele>
        <time>2022-06-25T06:35:19Z</time>
      </trkpt>
      <trkpt lat="46.65346" lon="5.40859">
        <ele>205.8</ele>
        <time>2022-06-25T06:35:20Z</time>
      </trkpt>
      <trkpt lat="46.65346" lon="5.4085">
        <ele>205.6</ele>
        <time>2022-06-25T06:35:22Z</time>
      </trkpt>
      <trkpt lat="46.65346" lon="5.40841">
        <ele>205.6</ele>
        <time>2022-06-25T06:35:23Z</time>
      </trkpt>
      <trkpt lat="46.65346" lon="5.40832">
        <ele>205.6</ele>
        <time>2022-06-25T06:35:24Z</time>
      </trkpt>
      <trkpt lat="46.65345" lon="5.40823">
        <ele>205.6</ele>
        <time>2022-06-25T06:35:25Z</time>
      </trkpt>
      <trkpt lat="46.65345" lon="5.40814">
        <ele>205.6</ele>
        <time>2022-06-25T06:35:26Z</time>
      </trkpt>
      <trkpt lat="46.65345" lon="5.40805">
        <ele>205.6</ele>
        <time>2022-06-25T06:35:27Z</time>
      </trkpt>
      <trkpt lat="46.65345" lon="5.40796">
        <ele>205.6</ele>
        <time>2022-06-25T06:35:28Z</time>
      </trkpt>
      <trkpt lat="46.65345" lon="5.40787">
        <ele>205.6</ele>
        <time>2022-06-25T06:35:29Z</time>
      </trkpt>
      <trkpt lat="46.65344" lon="5.40778">
        <ele>205.6</ele>
        <time>2022-06-25T06:35:30Z</time>
      </trkpt>
      <trkpt lat="46.65345" lon="5.40769">
        <ele>205.6</ele>
        <time>2022-06-25T06:35:31Z</time>
      </trkpt>
      <trkpt lat="46.65344" lon="5.4076">
        <ele>205.6</ele>
        <time>2022-06-25T06:35:32Z</time>
      </trkpt>
      <trkpt lat="46.65344" lon="5.40751">
        <ele>205.6</ele>
        <time>2022-06-25T06:35:33Z</time>
      </trkpt>
      <trkpt lat="46.65344" lon="5.40742">
        <ele>205.6</ele>
        <time>2022-06-25T06:35:34Z</time>
      </trkpt>
      <trkpt lat="46.65344" lon="5.40733">
        <ele>205.6</ele>
        <time>2022-06-25T06:35:35Z</time>
      </trkpt>
      <trkpt lat="46.65344" lon="5.40725">
        <ele>205.6</ele>
        <time>2022-06-25T06:35:36Z</time>
      </trkpt>
      <trkpt lat="46.65344" lon="5.40716">
        <ele>205.6</ele>
        <time>2022-06-25T06:35:37Z</time>
      </trkpt>
      <trkpt lat="46.65344" lon="5.40707">
        <ele>205.6</ele>
        <time>2022-06-25T06:35:38Z</time>
      </trkpt>
      <trkpt lat="46.65344" lon="5.40698">
        <ele>205.6</ele>
        <time>2022-06-25T06:35:39Z</time>
      </trkpt>
      <trkpt lat="46.65343" lon="5.40689">
        <ele>205.6</ele>
        <time>2022-06-25T06:35:40Z</time>
      </trkpt>
      <trkpt lat="46.65343" lon="5.4068">
        <ele>205.6</ele>
        <time>2022-06-25T06:35:41Z</time>
      </trkpt>
      <trkpt lat="46.65343" lon="5.40671">
        <ele>205.6</ele>
        <time>2022-06-25T06:35:42Z</time>
      </trkpt>
      <trkpt lat="46.65343" lon="5.40662">
        <ele>205.6</ele>
        <time>2022-06-25T06:35:43Z</time>
      </trkpt>
      <trkpt lat="46.65343" lon="5.40653">
        <ele>205.6</ele>
        <time>2022-06-25T06:35:44Z</time>
      </trkpt>
      <trkpt lat="46.65343" lon="5.40645">
        <ele>205.6</ele>
        <time>2022-06-25T06:35:45Z</time>
      </trkpt>
      <trkpt lat="46.65343" lon="5.40636">
        <ele>205.6</ele>
        <time>2022-06-25T06:35:46Z</time>
      </trkpt>
      <trkpt lat="46.65343" lon="5.40627">
        <ele>205.6</ele>
        <time>2022-06-25T06:35:47Z</time>
      </trkpt>
      <trkpt lat="46.65343" lon="5.40619">
        <ele>205.6</ele>
        <time>2022-06-25T06:35:48Z</time>
      </trkpt>
      <trkpt lat="46.65342" lon="5.4061">
        <ele>205.6</ele>
        <time>2022-06-25T06:35:49Z</time>
      </trkpt>
      <trkpt lat="46.65342" lon="5.40601">
        <ele>205.6</ele>
        <time>2022-06-25T06:35:50Z</time>
      </trkpt>
      <trkpt lat="46.65342" lon="5.40592">
        <ele>205.6</ele>
        <time>2022-06-25T06:35:51Z</time>
      </trkpt>
      <trkpt lat="46.65342" lon="5.40583">
        <ele>205.6</ele>
        <time>2022-06-25T06:35:52Z</time>
      </trkpt>
      <trkpt lat="46.65342" lon="5.40575">
        <ele>205.6</ele>
        <time>2022-06-25T06:35:53Z</time>
      </trkpt>
      <trkpt lat="46.65342" lon="5.40566">
        <ele>205.6</ele>
        <time>2022-06-25T06:35:54Z</time>
      </trkpt>
      <trkpt lat="46.65341" lon="5.40557">
        <ele>205.6</ele>
        <time>2022-06-25T06:35:55Z</time>
      </trkpt>
      <trkpt lat="46.65341" lon="5.40549">
        <ele>205.4</ele>
        <time>2022-06-25T06:35:56Z</time>
      </trkpt>
      <trkpt lat="46.65341" lon="5.40541">
        <ele>205.4</ele>
        <time>2022-06-25T06:35:57Z</time>
      </trkpt>
      <trkpt lat="46.65341" lon="5.40533">
        <ele>205.4</ele>
        <time>2022-06-25T06:35:58Z</time>
      </trkpt>
      <trkpt lat="46.65341" lon="5.40526">
        <ele>205.4</ele>
        <time>2022-06-25T06:35:59Z</time>
      </trkpt>
      <trkpt lat="46.6534" lon="5.40519">
        <ele>205.2</ele>
        <time>2022-06-25T06:36:00Z</time>
      </trkpt>
      <trkpt lat="46.6534" lon="5.40514">
        <ele>205.2</ele>
        <time>2022-06-25T06:36:01Z</time>
      </trkpt>
      <trkpt lat="46.6534" lon="5.40509">
        <ele>205.2</ele>
        <time>2022-06-25T06:36:02Z</time>
      </trkpt>
      <trkpt lat="46.65338" lon="5.40504">
        <ele>205.2</ele>
        <time>2022-06-25T06:36:03Z</time>
      </trkpt>
      <trkpt lat="46.65337" lon="5.40499">
        <ele>205.2</ele>
        <time>2022-06-25T06:36:04Z</time>
      </trkpt>
      <trkpt lat="46.65336" lon="5.40493">
        <ele>205.2</ele>
        <time>2022-06-25T06:36:05Z</time>
      </trkpt>
      <trkpt lat="46.65335" lon="5.40486">
        <ele>205.2</ele>
        <time>2022-06-25T06:36:06Z</time>
      </trkpt>
      <trkpt lat="46.65334" lon="5.4048">
        <ele>205.2</ele>
        <time>2022-06-25T06:36:07Z</time>
      </trkpt>
      <trkpt lat="46.65333" lon="5.40472">
        <ele>205.2</ele>
        <time>2022-06-25T06:36:08Z</time>
      </trkpt>
      <trkpt lat="46.65333" lon="5.40465">
        <ele>205</ele>
        <time>2022-06-25T06:36:09Z</time>
      </trkpt>
      <trkpt lat="46.65332" lon="5.40457">
        <ele>205</ele>
        <time>2022-06-25T06:36:10Z</time>
      </trkpt>
      <trkpt lat="46.65332" lon="5.40449">
        <ele>205</ele>
        <time>2022-06-25T06:36:11Z</time>
      </trkpt>
      <trkpt lat="46.65331" lon="5.4044">
        <ele>205</ele>
        <time>2022-06-25T06:36:12Z</time>
      </trkpt>
      <trkpt lat="46.6533" lon="5.40432">
        <ele>205</ele>
        <time>2022-06-25T06:36:13Z</time>
      </trkpt>
      <trkpt lat="46.65328" lon="5.40424">
        <ele>205</ele>
        <time>2022-06-25T06:36:14Z</time>
      </trkpt>
      <trkpt lat="46.65327" lon="5.40415">
        <ele>205</ele>
        <time>2022-06-25T06:36:15Z</time>
      </trkpt>
      <trkpt lat="46.65325" lon="5.40407">
        <ele>205</ele>
        <time>2022-06-25T06:36:16Z</time>
      </trkpt>
      <trkpt lat="46.65323" lon="5.40398">
        <ele>205</ele>
        <time>2022-06-25T06:36:17Z</time>
      </trkpt>
      <trkpt lat="46.65321" lon="5.4039">
        <ele>205</ele>
        <time>2022-06-25T06:36:18Z</time>
      </trkpt>
      <trkpt lat="46.6532" lon="5.40381">
        <ele>205</ele>
        <time>2022-06-25T06:36:19Z</time>
      </trkpt>
      <trkpt lat="46.65318" lon="5.40372">
        <ele>205</ele>
        <time>2022-06-25T06:36:20Z</time>
      </trkpt>
      <trkpt lat="46.65315" lon="5.40364">
        <ele>205</ele>
        <time>2022-06-25T06:36:21Z</time>
      </trkpt>
      <trkpt lat="46.65313" lon="5.40355">
        <ele>205</ele>
        <time>2022-06-25T06:36:22Z</time>
      </trkpt>
      <trkpt lat="46.65311" lon="5.40347">
        <ele>205</ele>
        <time>2022-06-25T06:36:23Z</time>
      </trkpt>
      <trkpt lat="46.65308" lon="5.40339">
        <ele>205</ele>
        <time>2022-06-25T06:36:24Z</time>
      </trkpt>
      <trkpt lat="46.65305" lon="5.40331">
        <ele>205</ele>
        <time>2022-06-25T06:36:25Z</time>
      </trkpt>
      <trkpt lat="46.65303" lon="5.40322">
        <ele>205</ele>
        <time>2022-06-25T06:36:26Z</time>
      </trkpt>
      <trkpt lat="46.653" lon="5.40314">
        <ele>205</ele>
        <time>2022-06-25T06:36:27Z</time>
      </trkpt>
      <trkpt lat="46.65297" lon="5.40306">
        <ele>205</ele>
        <time>2022-06-25T06:36:28Z</time>
      </trkpt>
      <trkpt lat="46.65294" lon="5.40298">
        <ele>205</ele>
        <time>2022-06-25T06:36:29Z</time>
      </trkpt>
      <trkpt lat="46.65291" lon="5.4029">
        <ele>205.2</ele>
        <time>2022-06-25T06:36:30Z</time>
      </trkpt>
      <trkpt lat="46.65287" lon="5.40282">
        <ele>205.2</ele>
        <time>2022-06-25T06:36:31Z</time>
      </trkpt>
      <trkpt lat="46.65284" lon="5.40275">
        <ele>205.2</ele>
        <time>2022-06-25T06:36:32Z</time>
      </trkpt>
      <trkpt lat="46.6528" lon="5.40267">
        <ele>205.2</ele>
        <time>2022-06-25T06:36:33Z</time>
      </trkpt>
      <trkpt lat="46.65277" lon="5.40259">
        <ele>205.2</ele>
        <time>2022-06-25T06:36:34Z</time>
      </trkpt>
      <trkpt lat="46.65273" lon="5.40252">
        <ele>205.2</ele>
        <time>2022-06-25T06:36:35Z</time>
      </trkpt>
      <trkpt lat="46.65269" lon="5.40245">
        <ele>205.2</ele>
        <time>2022-06-25T06:36:36Z</time>
      </trkpt>
      <trkpt lat="46.65265" lon="5.40237">
        <ele>205.2</ele>
        <time>2022-06-25T06:36:37Z</time>
      </trkpt>
      <trkpt lat="46.65261" lon="5.4023">
        <ele>205.2</ele>
        <time>2022-06-25T06:36:38Z</time>
      </trkpt>
      <trkpt lat="46.65258" lon="5.40223">
        <ele>205.2</ele>
        <time>2022-06-25T06:36:39Z</time>
      </trkpt>
      <trkpt lat="46.65253" lon="5.40216">
        <ele>205.2</ele>
        <time>2022-06-25T06:36:40Z</time>
      </trkpt>
      <trkpt lat="46.65249" lon="5.40209">
        <ele>205.2</ele>
        <time>2022-06-25T06:36:41Z</time>
      </trkpt>
      <trkpt lat="46.65245" lon="5.40202">
        <ele>205.2</ele>
        <time>2022-06-25T06:36:42Z</time>
      </trkpt>
      <trkpt lat="46.6524" lon="5.40195">
        <ele>205.2</ele>
        <time>2022-06-25T06:36:43Z</time>
      </trkpt>
      <trkpt lat="46.65236" lon="5.40188">
        <ele>205.2</ele>
        <time>2022-06-25T06:36:44Z</time>
      </trkpt>
      <trkpt lat="46.65231" lon="5.40182">
        <ele>205.2</ele>
        <time>2022-06-25T06:36:45Z</time>
      </trkpt>
      <trkpt lat="46.65227" lon="5.40176">
        <ele>205.2</ele>
        <time>2022-06-25T06:36:46Z</time>
      </trkpt>
      <trkpt lat="46.65222" lon="5.4017">
        <ele>205.4</ele>
        <time>2022-06-25T06:36:47Z</time>
      </trkpt>
      <trkpt lat="46.65217" lon="5.40164">
        <ele>205.4</ele>
        <time>2022-06-25T06:36:48Z</time>
      </trkpt>
      <trkpt lat="46.65212" lon="5.40158">
        <ele>205.4</ele>
        <time>2022-06-25T06:36:49Z</time>
      </trkpt>
      <trkpt lat="46.65207" lon="5.40152">
        <ele>205.4</ele>
        <time>2022-06-25T06:36:50Z</time>
      </trkpt>
      <trkpt lat="46.65203" lon="5.40147">
        <ele>205.4</ele>
        <time>2022-06-25T06:36:51Z</time>
      </trkpt>
      <trkpt lat="46.65198" lon="5.40141">
        <ele>205.4</ele>
        <time>2022-06-25T06:36:52Z</time>
      </trkpt>
      <trkpt lat="46.65193" lon="5.40136">
        <ele>205.4</ele>
        <time>2022-06-25T06:36:53Z</time>
      </trkpt>
      <trkpt lat="46.65188" lon="5.40131">
        <ele>205.6</ele>
        <time>2022-06-25T06:36:54Z</time>
      </trkpt>
      <trkpt lat="46.65183" lon="5.40126">
        <ele>205.6</ele>
        <time>2022-06-25T06:36:55Z</time>
      </trkpt>
      <trkpt lat="46.65178" lon="5.40121">
        <ele>205.6</ele>
        <time>2022-06-25T06:36:56Z</time>
      </trkpt>
      <trkpt lat="46.65173" lon="5.40116">
        <ele>205.6</ele>
        <time>2022-06-25T06:36:57Z</time>
      </trkpt>
      <trkpt lat="46.65168" lon="5.40112">
        <ele>205.6</ele>
        <time>2022-06-25T06:36:58Z</time>
      </trkpt>
      <trkpt lat="46.65163" lon="5.40108">
        <ele>205.6</ele>
        <time>2022-06-25T06:36:59Z</time>
      </trkpt>
      <trkpt lat="46.65159" lon="5.40104">
        <ele>205.8</ele>
        <time>2022-06-25T06:37:00Z</time>
      </trkpt>
      <trkpt lat="46.65154" lon="5.401">
        <ele>205.8</ele>
        <time>2022-06-25T06:37:01Z</time>
      </trkpt>
      <trkpt lat="46.6515" lon="5.40096">
        <ele>205.8</ele>
        <time>2022-06-25T06:37:02Z</time>
      </trkpt>
      <trkpt lat="46.65145" lon="5.40091">
        <ele>205.8</ele>
        <time>2022-06-25T06:37:03Z</time>
      </trkpt>
      <trkpt lat="46.65141" lon="5.40087">
        <ele>205.8</ele>
        <time>2022-06-25T06:37:04Z</time>
      </trkpt>
      <trkpt lat="46.65136" lon="5.40082">
        <ele>205.8</ele>
        <time>2022-06-25T06:37:05Z</time>
      </trkpt>
      <trkpt lat="46.65131" lon="5.40078">
        <ele>205.8</ele>
        <time>2022-06-25T06:37:06Z</time>
      </trkpt>
      <trkpt lat="46.65127" lon="5.40074">
        <ele>206</ele>
        <time>2022-06-25T06:37:07Z</time>
      </trkpt>
      <trkpt lat="46.65122" lon="5.4007">
        <ele>206</ele>
        <time>2022-06-25T06:37:08Z</time>
      </trkpt>
      <trkpt lat="46.65118" lon="5.40066">
        <ele>206</ele>
        <time>2022-06-25T06:37:09Z</time>
      </trkpt>
      <trkpt lat="46.65113" lon="5.40061">
        <ele>206</ele>
        <time>2022-06-25T06:37:10Z</time>
      </trkpt>
      <trkpt lat="46.65107" lon="5.40057">
        <ele>206</ele>
        <time>2022-06-25T06:37:11Z</time>
      </trkpt>
      <trkpt lat="46.65103" lon="5.40052">
        <ele>206</ele>
        <time>2022-06-25T06:37:12Z</time>
      </trkpt>
      <trkpt lat="46.65098" lon="5.40048">
        <ele>206</ele>
        <time>2022-06-25T06:37:13Z</time>
      </trkpt>
      <trkpt lat="46.65093" lon="5.40043">
        <ele>206</ele>
        <time>2022-06-25T06:37:14Z</time>
      </trkpt>
      <trkpt lat="46.65088" lon="5.40039">
        <ele>206</ele>
        <time>2022-06-25T06:37:15Z</time>
      </trkpt>
      <trkpt lat="46.65083" lon="5.40034">
        <ele>206</ele>
        <time>2022-06-25T06:37:16Z</time>
      </trkpt>
      <trkpt lat="46.65078" lon="5.40029">
        <ele>206</ele>
        <time>2022-06-25T06:37:17Z</time>
      </trkpt>
      <trkpt lat="46.65073" lon="5.40024">
        <ele>206</ele>
        <time>2022-06-25T06:37:18Z</time>
      </trkpt>
      <trkpt lat="46.65068" lon="5.40018">
        <ele>206</ele>
        <time>2022-06-25T06:37:19Z</time>
      </trkpt>
      <trkpt lat="46.65063" lon="5.40013">
        <ele>206</ele>
        <time>2022-06-25T06:37:20Z</time>
      </trkpt>
      <trkpt lat="46.65058" lon="5.40007">
        <ele>206</ele>
        <time>2022-06-25T06:37:21Z</time>
      </trkpt>
      <trkpt lat="46.65052" lon="5.40001">
        <ele>206</ele>
        <time>2022-06-25T06:37:22Z</time>
      </trkpt>
      <trkpt lat="46.65047" lon="5.39995">
        <ele>206</ele>
        <time>2022-06-25T06:37:23Z</time>
      </trkpt>
      <trkpt lat="46.65042" lon="5.39989">
        <ele>206.2</ele>
        <time>2022-06-25T06:37:24Z</time>
      </trkpt>
      <trkpt lat="46.65037" lon="5.39984">
        <ele>206.2</ele>
        <time>2022-06-25T06:37:25Z</time>
      </trkpt>
      <trkpt lat="46.65032" lon="5.39977">
        <ele>206.2</ele>
        <time>2022-06-25T06:37:26Z</time>
      </trkpt>
      <trkpt lat="46.65027" lon="5.39971">
        <ele>206.2</ele>
        <time>2022-06-25T06:37:27Z</time>
      </trkpt>
      <trkpt lat="46.65023" lon="5.39964">
        <ele>206.2</ele>
        <time>2022-06-25T06:37:28Z</time>
      </trkpt>
      <trkpt lat="46.65018" lon="5.39957">
        <ele>206.2</ele>
        <time>2022-06-25T06:37:29Z</time>
      </trkpt>
      <trkpt lat="46.65014" lon="5.39951">
        <ele>206.2</ele>
        <time>2022-06-25T06:37:30Z</time>
      </trkpt>
      <trkpt lat="46.6501" lon="5.39944">
        <ele>206.2</ele>
        <time>2022-06-25T06:37:31Z</time>
      </trkpt>
      <trkpt lat="46.65005" lon="5.39937">
        <ele>206.2</ele>
        <time>2022-06-25T06:37:32Z</time>
      </trkpt>
      <trkpt lat="46.65001" lon="5.3993">
        <ele>206.2</ele>
        <time>2022-06-25T06:37:33Z</time>
      </trkpt>
      <trkpt lat="46.64998" lon="5.39924">
        <ele>206.2</ele>
        <time>2022-06-25T06:37:34Z</time>
      </trkpt>
      <trkpt lat="46.64995" lon="5.39918">
        <ele>206.2</ele>
        <time>2022-06-25T06:37:35Z</time>
      </trkpt>
      <trkpt lat="46.64992" lon="5.39911">
        <ele>206.2</ele>
        <time>2022-06-25T06:37:36Z</time>
      </trkpt>
      <trkpt lat="46.64989" lon="5.39905">
        <ele>206.2</ele>
        <time>2022-06-25T06:37:37Z</time>
      </trkpt>
      <trkpt lat="46.64986" lon="5.39898">
        <ele>206.2</ele>
        <time>2022-06-25T06:37:38Z</time>
      </trkpt>
      <trkpt lat="46.64983" lon="5.39891">
        <ele>206.2</ele>
        <time>2022-06-25T06:37:39Z</time>
      </trkpt>
      <trkpt lat="46.6498" lon="5.39884">
        <ele>206.2</ele>
        <time>2022-06-25T06:37:40Z</time>
      </trkpt>
      <trkpt lat="46.64977" lon="5.39876">
        <ele>206.2</ele>
        <time>2022-06-25T06:37:41Z</time>
      </trkpt>
      <trkpt lat="46.64975" lon="5.39869">
        <ele>206.2</ele>
        <time>2022-06-25T06:37:42Z</time>
      </trkpt>
      <trkpt lat="46.64973" lon="5.39862">
        <ele>206.2</ele>
        <time>2022-06-25T06:37:43Z</time>
      </trkpt>
      <trkpt lat="46.64971" lon="5.39854">
        <ele>206.2</ele>
        <time>2022-06-25T06:37:44Z</time>
      </trkpt>
      <trkpt lat="46.64968" lon="5.39847">
        <ele>206.2</ele>
        <time>2022-06-25T06:37:45Z</time>
      </trkpt>
      <trkpt lat="46.64966" lon="5.39839">
        <ele>206.2</ele>
        <time>2022-06-25T06:37:46Z</time>
      </trkpt>
      <trkpt lat="46.64963" lon="5.3983">
        <ele>206.2</ele>
        <time>2022-06-25T06:37:47Z</time>
      </trkpt>
      <trkpt lat="46.6496" lon="5.39821">
        <ele>206.2</ele>
        <time>2022-06-25T06:37:48Z</time>
      </trkpt>
      <trkpt lat="46.64957" lon="5.39813">
        <ele>206.6</ele>
        <time>2022-06-25T06:37:49Z</time>
      </trkpt>
      <trkpt lat="46.64955" lon="5.39805">
        <ele>206.6</ele>
        <time>2022-06-25T06:37:50Z</time>
      </trkpt>
      <trkpt lat="46.64952" lon="5.39796">
        <ele>206.6</ele>
        <time>2022-06-25T06:37:51Z</time>
      </trkpt>
      <trkpt lat="46.6495" lon="5.39788">
        <ele>206.6</ele>
        <time>2022-06-25T06:37:52Z</time>
      </trkpt>
      <trkpt lat="46.64947" lon="5.39779">
        <ele>206.6</ele>
        <time>2022-06-25T06:37:53Z</time>
      </trkpt>
      <trkpt lat="46.64945" lon="5.39771">
        <ele>206.6</ele>
        <time>2022-06-25T06:37:54Z</time>
      </trkpt>
      <trkpt lat="46.64944" lon="5.39762">
        <ele>206.6</ele>
        <time>2022-06-25T06:37:55Z</time>
      </trkpt>
      <trkpt lat="46.64942" lon="5.39754">
        <ele>206.6</ele>
        <time>2022-06-25T06:37:56Z</time>
      </trkpt>
      <trkpt lat="46.6494" lon="5.39745">
        <ele>206.6</ele>
        <time>2022-06-25T06:37:57Z</time>
      </trkpt>
      <trkpt lat="46.64938" lon="5.39737">
        <ele>206.6</ele>
        <time>2022-06-25T06:37:58Z</time>
      </trkpt>
      <trkpt lat="46.64937" lon="5.39728">
        <ele>206.6</ele>
        <time>2022-06-25T06:37:59Z</time>
      </trkpt>
      <trkpt lat="46.64935" lon="5.39719">
        <ele>206.6</ele>
        <time>2022-06-25T06:38:00Z</time>
      </trkpt>
      <trkpt lat="46.64934" lon="5.39709">
        <ele>206.6</ele>
        <time>2022-06-25T06:38:01Z</time>
      </trkpt>
      <trkpt lat="46.64931" lon="5.39698">
        <ele>206.6</ele>
        <time>2022-06-25T06:38:02Z</time>
      </trkpt>
      <trkpt lat="46.64929" lon="5.39688">
        <ele>206.6</ele>
        <time>2022-06-25T06:38:03Z</time>
      </trkpt>
      <trkpt lat="46.64928" lon="5.39679">
        <ele>206.6</ele>
        <time>2022-06-25T06:38:04Z</time>
      </trkpt>
      <trkpt lat="46.64928" lon="5.3967">
        <ele>206.6</ele>
        <time>2022-06-25T06:38:05Z</time>
      </trkpt>
      <trkpt lat="46.64927" lon="5.3966">
        <ele>206.2</ele>
        <time>2022-06-25T06:38:06Z</time>
      </trkpt>
      <trkpt lat="46.64926" lon="5.39651">
        <ele>206.2</ele>
        <time>2022-06-25T06:38:07Z</time>
      </trkpt>
      <trkpt lat="46.64926" lon="5.39641">
        <ele>206.2</ele>
        <time>2022-06-25T06:38:08Z</time>
      </trkpt>
      <trkpt lat="46.64926" lon="5.39632">
        <ele>206</ele>
        <time>2022-06-25T06:38:09Z</time>
      </trkpt>
      <trkpt lat="46.64925" lon="5.39622">
        <ele>206</ele>
        <time>2022-06-25T06:38:10Z</time>
      </trkpt>
      <trkpt lat="46.64925" lon="5.39612">
        <ele>206</ele>
        <time>2022-06-25T06:38:11Z</time>
      </trkpt>
      <trkpt lat="46.64926" lon="5.39603">
        <ele>205.6</ele>
        <time>2022-06-25T06:38:12Z</time>
      </trkpt>
      <trkpt lat="46.64926" lon="5.39593">
        <ele>205.6</ele>
        <time>2022-06-25T06:38:13Z</time>
      </trkpt>
      <trkpt lat="46.64926" lon="5.39583">
        <ele>205.6</ele>
        <time>2022-06-25T06:38:14Z</time>
      </trkpt>
      <trkpt lat="46.64926" lon="5.3957">
        <ele>205.4</ele>
        <time>2022-06-25T06:38:15Z</time>
      </trkpt>
      <trkpt lat="46.64926" lon="5.39558">
        <ele>205.4</ele>
        <time>2022-06-25T06:38:16Z</time>
      </trkpt>
      <trkpt lat="46.64926" lon="5.39546">
        <ele>205.4</ele>
        <time>2022-06-25T06:38:17Z</time>
      </trkpt>
      <trkpt lat="46.64926" lon="5.39535">
        <ele>205.4</ele>
        <time>2022-06-25T06:38:18Z</time>
      </trkpt>
      <trkpt lat="46.64927" lon="5.39523">
        <ele>205.4</ele>
        <time>2022-06-25T06:38:19Z</time>
      </trkpt>
      <trkpt lat="46.64928" lon="5.39512">
        <ele>205.2</ele>
        <time>2022-06-25T06:38:20Z</time>
      </trkpt>
      <trkpt lat="46.6493" lon="5.39501">
        <ele>205.2</ele>
        <time>2022-06-25T06:38:21Z</time>
      </trkpt>
      <trkpt lat="46.64931" lon="5.39491">
        <ele>205.2</ele>
        <time>2022-06-25T06:38:22Z</time>
      </trkpt>
      <trkpt lat="46.64933" lon="5.3948">
        <ele>205</ele>
        <time>2022-06-25T06:38:23Z</time>
      </trkpt>
      <trkpt lat="46.64934" lon="5.3947">
        <ele>205</ele>
        <time>2022-06-25T06:38:24Z</time>
      </trkpt>
      <trkpt lat="46.64934" lon="5.3946">
        <ele>205</ele>
        <time>2022-06-25T06:38:25Z</time>
      </trkpt>
      <trkpt lat="46.64934" lon="5.39451">
        <ele>204.6</ele>
        <time>2022-06-25T06:38:26Z</time>
      </trkpt>
      <trkpt lat="46.64935" lon="5.39442">
        <ele>204.6</ele>
        <time>2022-06-25T06:38:27Z</time>
      </trkpt>
      <trkpt lat="46.64937" lon="5.39434">
        <ele>204.6</ele>
        <time>2022-06-25T06:38:28Z</time>
      </trkpt>
      <trkpt lat="46.64939" lon="5.39427">
        <ele>204.6</ele>
        <time>2022-06-25T06:38:29Z</time>
      </trkpt>
      <trkpt lat="46.64941" lon="5.39419">
        <ele>204.6</ele>
        <time>2022-06-25T06:38:30Z</time>
      </trkpt>
      <trkpt lat="46.64942" lon="5.39412">
        <ele>204.6</ele>
        <time>2022-06-25T06:38:31Z</time>
      </trkpt>
      <trkpt lat="46.64945" lon="5.39405">
        <ele>204.6</ele>
        <time>2022-06-25T06:38:32Z</time>
      </trkpt>
      <trkpt lat="46.64947" lon="5.39398">
        <ele>204.6</ele>
        <time>2022-06-25T06:38:33Z</time>
      </trkpt>
      <trkpt lat="46.64948" lon="5.39391">
        <ele>204.6</ele>
        <time>2022-06-25T06:38:34Z</time>
      </trkpt>
      <trkpt lat="46.64951" lon="5.39384">
        <ele>204.6</ele>
        <time>2022-06-25T06:38:35Z</time>
      </trkpt>
      <trkpt lat="46.64953" lon="5.39377">
        <ele>204.6</ele>
        <time>2022-06-25T06:38:36Z</time>
      </trkpt>
      <trkpt lat="46.64954" lon="5.39369">
        <ele>204.8</ele>
        <time>2022-06-25T06:38:37Z</time>
      </trkpt>
      <trkpt lat="46.64957" lon="5.39362">
        <ele>204.8</ele>
        <time>2022-06-25T06:38:38Z</time>
      </trkpt>
      <trkpt lat="46.6496" lon="5.39354">
        <ele>204.8</ele>
        <time>2022-06-25T06:38:39Z</time>
      </trkpt>
      <trkpt lat="46.64963" lon="5.39347">
        <ele>204.8</ele>
        <time>2022-06-25T06:38:40Z</time>
      </trkpt>
      <trkpt lat="46.64966" lon="5.3934">
        <ele>204.8</ele>
        <time>2022-06-25T06:38:41Z</time>
      </trkpt>
      <trkpt lat="46.64969" lon="5.39333">
        <ele>204.8</ele>
        <time>2022-06-25T06:38:42Z</time>
      </trkpt>
      <trkpt lat="46.64973" lon="5.39326">
        <ele>204.6</ele>
        <time>2022-06-25T06:38:43Z</time>
      </trkpt>
      <trkpt lat="46.64976" lon="5.39319">
        <ele>204.6</ele>
        <time>2022-06-25T06:38:44Z</time>
      </trkpt>
      <trkpt lat="46.6498" lon="5.39313">
        <ele>204.6</ele>
        <time>2022-06-25T06:38:45Z</time>
      </trkpt>
      <trkpt lat="46.64983" lon="5.39306">
        <ele>204.6</ele>
        <time>2022-06-25T06:38:46Z</time>
      </trkpt>
      <trkpt lat="46.64987" lon="5.39299">
        <ele>204.6</ele>
        <time>2022-06-25T06:38:47Z</time>
      </trkpt>
      <trkpt lat="46.64991" lon="5.39293">
        <ele>204.6</ele>
        <time>2022-06-25T06:38:48Z</time>
      </trkpt>
      <trkpt lat="46.64995" lon="5.39286">
        <ele>204.6</ele>
        <time>2022-06-25T06:38:49Z</time>
      </trkpt>
      <trkpt lat="46.64999" lon="5.39278">
        <ele>204.6</ele>
        <time>2022-06-25T06:38:50Z</time>
      </trkpt>
      <trkpt lat="46.65003" lon="5.39271">
        <ele>204.6</ele>
        <time>2022-06-25T06:38:51Z</time>
      </trkpt>
      <trkpt lat="46.65007" lon="5.39265">
        <ele>204.6</ele>
        <time>2022-06-25T06:38:52Z</time>
      </trkpt>
      <trkpt lat="46.65011" lon="5.39258">
        <ele>204.6</ele>
        <time>2022-06-25T06:38:53Z</time>
      </trkpt>
      <trkpt lat="46.65015" lon="5.39252">
        <ele>204.6</ele>
        <time>2022-06-25T06:38:54Z</time>
      </trkpt>
      <trkpt lat="46.65019" lon="5.39246">
        <ele>204.6</ele>
        <time>2022-06-25T06:38:55Z</time>
      </trkpt>
      <trkpt lat="46.65024" lon="5.3924">
        <ele>204.6</ele>
        <time>2022-06-25T06:38:56Z</time>
      </trkpt>
      <trkpt lat="46.65026" lon="5.39232">
        <ele>204.6</ele>
        <time>2022-06-25T06:38:57Z</time>
      </trkpt>
      <trkpt lat="46.65029" lon="5.39223">
        <ele>204.6</ele>
        <time>2022-06-25T06:38:58Z</time>
      </trkpt>
      <trkpt lat="46.65032" lon="5.39216">
        <ele>204.6</ele>
        <time>2022-06-25T06:38:59Z</time>
      </trkpt>
      <trkpt lat="46.65035" lon="5.39207">
        <ele>204.6</ele>
        <time>2022-06-25T06:39:00Z</time>
      </trkpt>
      <trkpt lat="46.65038" lon="5.39199">
        <ele>204.6</ele>
        <time>2022-06-25T06:39:01Z</time>
      </trkpt>
      <trkpt lat="46.65041" lon="5.39191">
        <ele>204.6</ele>
        <time>2022-06-25T06:39:02Z</time>
      </trkpt>
      <trkpt lat="46.65045" lon="5.39183">
        <ele>204.6</ele>
        <time>2022-06-25T06:39:03Z</time>
      </trkpt>
      <trkpt lat="46.65048" lon="5.39176">
        <ele>204.6</ele>
        <time>2022-06-25T06:39:04Z</time>
      </trkpt>
      <trkpt lat="46.65053" lon="5.39169">
        <ele>204.6</ele>
        <time>2022-06-25T06:39:05Z</time>
      </trkpt>
      <trkpt lat="46.65057" lon="5.39162">
        <ele>204.6</ele>
        <time>2022-06-25T06:39:06Z</time>
      </trkpt>
      <trkpt lat="46.65061" lon="5.39156">
        <ele>204.6</ele>
        <time>2022-06-25T06:39:07Z</time>
      </trkpt>
      <trkpt lat="46.65065" lon="5.39148">
        <ele>204.6</ele>
        <time>2022-06-25T06:39:08Z</time>
      </trkpt>
      <trkpt lat="46.65068" lon="5.39141">
        <ele>204.6</ele>
        <time>2022-06-25T06:39:09Z</time>
      </trkpt>
      <trkpt lat="46.65072" lon="5.39134">
        <ele>204.8</ele>
        <time>2022-06-25T06:39:10Z</time>
      </trkpt>
      <trkpt lat="46.65075" lon="5.39128">
        <ele>204.8</ele>
        <time>2022-06-25T06:39:11Z</time>
      </trkpt>
      <trkpt lat="46.65077" lon="5.39121">
        <ele>204.8</ele>
        <time>2022-06-25T06:39:12Z</time>
      </trkpt>
      <trkpt lat="46.6508" lon="5.39114">
        <ele>204.8</ele>
        <time>2022-06-25T06:39:13Z</time>
      </trkpt>
      <trkpt lat="46.65082" lon="5.39107">
        <ele>204.8</ele>
        <time>2022-06-25T06:39:14Z</time>
      </trkpt>
      <trkpt lat="46.65085" lon="5.39101">
        <ele>204.8</ele>
        <time>2022-06-25T06:39:15Z</time>
      </trkpt>
      <trkpt lat="46.65088" lon="5.39093">
        <ele>205</ele>
        <time>2022-06-25T06:39:16Z</time>
      </trkpt>
      <trkpt lat="46.6509" lon="5.39086">
        <ele>205</ele>
        <time>2022-06-25T06:39:17Z</time>
      </trkpt>
      <trkpt lat="46.65093" lon="5.39078">
        <ele>205</ele>
        <time>2022-06-25T06:39:18Z</time>
      </trkpt>
      <trkpt lat="46.65095" lon="5.39071">
        <ele>205</ele>
        <time>2022-06-25T06:39:19Z</time>
      </trkpt>
      <trkpt lat="46.65098" lon="5.39064">
        <ele>205</ele>
        <time>2022-06-25T06:39:20Z</time>
      </trkpt>
      <trkpt lat="46.65101" lon="5.39057">
        <ele>205</ele>
        <time>2022-06-25T06:39:21Z</time>
      </trkpt>
      <trkpt lat="46.65103" lon="5.39049">
        <ele>205</ele>
        <time>2022-06-25T06:39:22Z</time>
      </trkpt>
      <trkpt lat="46.65106" lon="5.39041">
        <ele>205.4</ele>
        <time>2022-06-25T06:39:23Z</time>
      </trkpt>
      <trkpt lat="46.65108" lon="5.39034">
        <ele>205.4</ele>
        <time>2022-06-25T06:39:24Z</time>
      </trkpt>
      <trkpt lat="46.6511" lon="5.39027">
        <ele>205.4</ele>
        <time>2022-06-25T06:39:25Z</time>
      </trkpt>
      <trkpt lat="46.65112" lon="5.3902">
        <ele>205.4</ele>
        <time>2022-06-25T06:39:26Z</time>
      </trkpt>
      <trkpt lat="46.65115" lon="5.39013">
        <ele>205.4</ele>
        <time>2022-06-25T06:39:27Z</time>
      </trkpt>
      <trkpt lat="46.65117" lon="5.39005">
        <ele>205.4</ele>
        <time>2022-06-25T06:39:28Z</time>
      </trkpt>
      <trkpt lat="46.65119" lon="5.38998">
        <ele>205.4</ele>
        <time>2022-06-25T06:39:29Z</time>
      </trkpt>
      <trkpt lat="46.65121" lon="5.3899">
        <ele>205.4</ele>
        <time>2022-06-25T06:39:30Z</time>
      </trkpt>
      <trkpt lat="46.65122" lon="5.38983">
        <ele>205.6</ele>
        <time>2022-06-25T06:39:31Z</time>
      </trkpt>
      <trkpt lat="46.65124" lon="5.38974">
        <ele>205.6</ele>
        <time>2022-06-25T06:39:32Z</time>
      </trkpt>
      <trkpt lat="46.65127" lon="5.38966">
        <ele>205.6</ele>
        <time>2022-06-25T06:39:33Z</time>
      </trkpt>
      <trkpt lat="46.6513" lon="5.38958">
        <ele>205.6</ele>
        <time>2022-06-25T06:39:34Z</time>
      </trkpt>
      <trkpt lat="46.65132" lon="5.38949">
        <ele>205.6</ele>
        <time>2022-06-25T06:39:35Z</time>
      </trkpt>
      <trkpt lat="46.65134" lon="5.38939">
        <ele>205.6</ele>
        <time>2022-06-25T06:39:36Z</time>
      </trkpt>
      <trkpt lat="46.65135" lon="5.3893">
        <ele>205.6</ele>
        <time>2022-06-25T06:39:37Z</time>
      </trkpt>
      <trkpt lat="46.65137" lon="5.38921">
        <ele>205.6</ele>
        <time>2022-06-25T06:39:38Z</time>
      </trkpt>
      <trkpt lat="46.65139" lon="5.38913">
        <ele>205.6</ele>
        <time>2022-06-25T06:39:39Z</time>
      </trkpt>
      <trkpt lat="46.6514" lon="5.38904">
        <ele>205.4</ele>
        <time>2022-06-25T06:39:40Z</time>
      </trkpt>
      <trkpt lat="46.65142" lon="5.38895">
        <ele>205.4</ele>
        <time>2022-06-25T06:39:41Z</time>
      </trkpt>
      <trkpt lat="46.65144" lon="5.38886">
        <ele>205.4</ele>
        <time>2022-06-25T06:39:42Z</time>
      </trkpt>
      <trkpt lat="46.65145" lon="5.38877">
        <ele>205.4</ele>
        <time>2022-06-25T06:39:43Z</time>
      </trkpt>
      <trkpt lat="46.65147" lon="5.38868">
        <ele>205.2</ele>
        <time>2022-06-25T06:39:44Z</time>
      </trkpt>
      <trkpt lat="46.65149" lon="5.38859">
        <ele>205.2</ele>
        <time>2022-06-25T06:39:45Z</time>
      </trkpt>
      <trkpt lat="46.65152" lon="5.38849">
        <ele>205.2</ele>
        <time>2022-06-25T06:39:46Z</time>
      </trkpt>
      <trkpt lat="46.65155" lon="5.38838">
        <ele>205.2</ele>
        <time>2022-06-25T06:39:47Z</time>
      </trkpt>
      <trkpt lat="46.65158" lon="5.38828">
        <ele>205</ele>
        <time>2022-06-25T06:39:48Z</time>
      </trkpt>
      <trkpt lat="46.65161" lon="5.38817">
        <ele>205</ele>
        <time>2022-06-25T06:39:49Z</time>
      </trkpt>
      <trkpt lat="46.65164" lon="5.38807">
        <ele>205</ele>
        <time>2022-06-25T06:39:50Z</time>
      </trkpt>
      <trkpt lat="46.65167" lon="5.38798">
        <ele>204.6</ele>
        <time>2022-06-25T06:39:51Z</time>
      </trkpt>
      <trkpt lat="46.65171" lon="5.38787">
        <ele>204.6</ele>
        <time>2022-06-25T06:39:52Z</time>
      </trkpt>
      <trkpt lat="46.65174" lon="5.38776">
        <ele>204.6</ele>
        <time>2022-06-25T06:39:53Z</time>
      </trkpt>
      <trkpt lat="46.65178" lon="5.38765">
        <ele>204.4</ele>
        <time>2022-06-25T06:39:54Z</time>
      </trkpt>
      <trkpt lat="46.65181" lon="5.38756">
        <ele>204.4</ele>
        <time>2022-06-25T06:39:55Z</time>
      </trkpt>
      <trkpt lat="46.65184" lon="5.38747">
        <ele>204.4</ele>
        <time>2022-06-25T06:39:56Z</time>
      </trkpt>
      <trkpt lat="46.65186" lon="5.38738">
        <ele>204.4</ele>
        <time>2022-06-25T06:39:57Z</time>
      </trkpt>
      <trkpt lat="46.65189" lon="5.38729">
        <ele>204.4</ele>
        <time>2022-06-25T06:39:58Z</time>
      </trkpt>
      <trkpt lat="46.65192" lon="5.38721">
        <ele>204.4</ele>
        <time>2022-06-25T06:39:59Z</time>
      </trkpt>
      <trkpt lat="46.65195" lon="5.38713">
        <ele>204.2</ele>
        <time>2022-06-25T06:40:00Z</time>
      </trkpt>
      <trkpt lat="46.65198" lon="5.38705">
        <ele>204.2</ele>
        <time>2022-06-25T06:40:01Z</time>
      </trkpt>
      <trkpt lat="46.65201" lon="5.38697">
        <ele>204.2</ele>
        <time>2022-06-25T06:40:02Z</time>
      </trkpt>
      <trkpt lat="46.65203" lon="5.3869">
        <ele>204.2</ele>
        <time>2022-06-25T06:40:03Z</time>
      </trkpt>
      <trkpt lat="46.65206" lon="5.38683">
        <ele>204.2</ele>
        <time>2022-06-25T06:40:04Z</time>
      </trkpt>
      <trkpt lat="46.65209" lon="5.38676">
        <ele>204.2</ele>
        <time>2022-06-25T06:40:05Z</time>
      </trkpt>
      <trkpt lat="46.65211" lon="5.38668">
        <ele>204.2</ele>
        <time>2022-06-25T06:40:06Z</time>
      </trkpt>
      <trkpt lat="46.65213" lon="5.3866">
        <ele>204.2</ele>
        <time>2022-06-25T06:40:07Z</time>
      </trkpt>
      <trkpt lat="46.65215" lon="5.38652">
        <ele>204.2</ele>
        <time>2022-06-25T06:40:08Z</time>
      </trkpt>
      <trkpt lat="46.65217" lon="5.38645">
        <ele>204.2</ele>
        <time>2022-06-25T06:40:09Z</time>
      </trkpt>
      <trkpt lat="46.65219" lon="5.38637">
        <ele>204.2</ele>
        <time>2022-06-25T06:40:10Z</time>
      </trkpt>
      <trkpt lat="46.65221" lon="5.38629">
        <ele>204.2</ele>
        <time>2022-06-25T06:40:11Z</time>
      </trkpt>
      <trkpt lat="46.65223" lon="5.38621">
        <ele>204.2</ele>
        <time>2022-06-25T06:40:12Z</time>
      </trkpt>
      <trkpt lat="46.65225" lon="5.38614">
        <ele>204.2</ele>
        <time>2022-06-25T06:40:13Z</time>
      </trkpt>
      <trkpt lat="46.65227" lon="5.38606">
        <ele>204.2</ele>
        <time>2022-06-25T06:40:14Z</time>
      </trkpt>
      <trkpt lat="46.65229" lon="5.38598">
        <ele>204.2</ele>
        <time>2022-06-25T06:40:15Z</time>
      </trkpt>
      <trkpt lat="46.65231" lon="5.38591">
        <ele>204</ele>
        <time>2022-06-25T06:40:16Z</time>
      </trkpt>
      <trkpt lat="46.65233" lon="5.38583">
        <ele>204</ele>
        <time>2022-06-25T06:40:17Z</time>
      </trkpt>
      <trkpt lat="46.65234" lon="5.38575">
        <ele>204</ele>
        <time>2022-06-25T06:40:18Z</time>
      </trkpt>
      <trkpt lat="46.65238" lon="5.38567">
        <ele>204</ele>
        <time>2022-06-25T06:40:19Z</time>
      </trkpt>
      <trkpt lat="46.65242" lon="5.3856">
        <ele>203.6</ele>
        <time>2022-06-25T06:40:20Z</time>
      </trkpt>
      <trkpt lat="46.65248" lon="5.38554">
        <ele>203.6</ele>
        <time>2022-06-25T06:40:21Z</time>
      </trkpt>
      <trkpt lat="46.65252" lon="5.38548">
        <ele>203.4</ele>
        <time>2022-06-25T06:40:22Z</time>
      </trkpt>
      <trkpt lat="46.65259" lon="5.38542">
        <ele>203.4</ele>
        <time>2022-06-25T06:40:23Z</time>
      </trkpt>
      <trkpt lat="46.65263" lon="5.38536">
        <ele>203.4</ele>
        <time>2022-06-25T06:40:24Z</time>
      </trkpt>
      <trkpt lat="46.65267" lon="5.38525">
        <ele>203.2</ele>
        <time>2022-06-25T06:40:25Z</time>
      </trkpt>
      <trkpt lat="46.65268" lon="5.38521">
        <ele>203.2</ele>
        <time>2022-06-25T06:40:26Z</time>
      </trkpt>
      <trkpt lat="46.6527" lon="5.38513">
        <ele>203</ele>
        <time>2022-06-25T06:40:27Z</time>
      </trkpt>
      <trkpt lat="46.65272" lon="5.38505">
        <ele>203</ele>
        <time>2022-06-25T06:40:28Z</time>
      </trkpt>
      <trkpt lat="46.65274" lon="5.38496">
        <ele>203</ele>
        <time>2022-06-25T06:40:29Z</time>
      </trkpt>
      <trkpt lat="46.65274" lon="5.38486">
        <ele>203</ele>
        <time>2022-06-25T06:40:30Z</time>
      </trkpt>
      <trkpt lat="46.65276" lon="5.38477">
        <ele>203</ele>
        <time>2022-06-25T06:40:31Z</time>
      </trkpt>
      <trkpt lat="46.65277" lon="5.38467">
        <ele>203</ele>
        <time>2022-06-25T06:40:32Z</time>
      </trkpt>
      <trkpt lat="46.65277" lon="5.38456">
        <ele>203</ele>
        <time>2022-06-25T06:40:33Z</time>
      </trkpt>
      <trkpt lat="46.65277" lon="5.38445">
        <ele>203</ele>
        <time>2022-06-25T06:40:34Z</time>
      </trkpt>
      <trkpt lat="46.65277" lon="5.38435">
        <ele>203</ele>
        <time>2022-06-25T06:40:35Z</time>
      </trkpt>
      <trkpt lat="46.65278" lon="5.38424">
        <ele>202.8</ele>
        <time>2022-06-25T06:40:36Z</time>
      </trkpt>
      <trkpt lat="46.65278" lon="5.38415">
        <ele>202.8</ele>
        <time>2022-06-25T06:40:37Z</time>
      </trkpt>
      <trkpt lat="46.65278" lon="5.38406">
        <ele>202.8</ele>
        <time>2022-06-25T06:40:38Z</time>
      </trkpt>
      <trkpt lat="46.65278" lon="5.38396">
        <ele>202.8</ele>
        <time>2022-06-25T06:40:39Z</time>
      </trkpt>
      <trkpt lat="46.65277" lon="5.38386">
        <ele>202.8</ele>
        <time>2022-06-25T06:40:40Z</time>
      </trkpt>
      <trkpt lat="46.65277" lon="5.38376">
        <ele>202.8</ele>
        <time>2022-06-25T06:40:41Z</time>
      </trkpt>
      <trkpt lat="46.65277" lon="5.38366">
        <ele>202.6</ele>
        <time>2022-06-25T06:40:42Z</time>
      </trkpt>
      <trkpt lat="46.65277" lon="5.38356">
        <ele>202.6</ele>
        <time>2022-06-25T06:40:43Z</time>
      </trkpt>
      <trkpt lat="46.65277" lon="5.38346">
        <ele>202.4</ele>
        <time>2022-06-25T06:40:44Z</time>
      </trkpt>
      <trkpt lat="46.65276" lon="5.38331">
        <ele>202.4</ele>
        <time>2022-06-25T06:40:45Z</time>
      </trkpt>
      <trkpt lat="46.65276" lon="5.38326">
        <ele>202.4</ele>
        <time>2022-06-25T06:40:46Z</time>
      </trkpt>
      <trkpt lat="46.65276" lon="5.38316">
        <ele>202.4</ele>
        <time>2022-06-25T06:40:47Z</time>
      </trkpt>
      <trkpt lat="46.65275" lon="5.38306">
        <ele>202.4</ele>
        <time>2022-06-25T06:40:48Z</time>
      </trkpt>
      <trkpt lat="46.65275" lon="5.38295">
        <ele>202.4</ele>
        <time>2022-06-25T06:40:49Z</time>
      </trkpt>
      <trkpt lat="46.65275" lon="5.38285">
        <ele>202.4</ele>
        <time>2022-06-25T06:40:50Z</time>
      </trkpt>
      <trkpt lat="46.65274" lon="5.38276">
        <ele>202.4</ele>
        <time>2022-06-25T06:40:51Z</time>
      </trkpt>
      <trkpt lat="46.65273" lon="5.38266">
        <ele>202.4</ele>
        <time>2022-06-25T06:40:52Z</time>
      </trkpt>
      <trkpt lat="46.65273" lon="5.38256">
        <ele>202.4</ele>
        <time>2022-06-25T06:40:53Z</time>
      </trkpt>
      <trkpt lat="46.65272" lon="5.38246">
        <ele>202.4</ele>
        <time>2022-06-25T06:40:54Z</time>
      </trkpt>
      <trkpt lat="46.65271" lon="5.38237">
        <ele>202.4</ele>
        <time>2022-06-25T06:40:55Z</time>
      </trkpt>
      <trkpt lat="46.65269" lon="5.38227">
        <ele>202.4</ele>
        <time>2022-06-25T06:40:56Z</time>
      </trkpt>
      <trkpt lat="46.65268" lon="5.38218">
        <ele>202.4</ele>
        <time>2022-06-25T06:40:57Z</time>
      </trkpt>
      <trkpt lat="46.65267" lon="5.38209">
        <ele>202.4</ele>
        <time>2022-06-25T06:40:58Z</time>
      </trkpt>
      <trkpt lat="46.65266" lon="5.382">
        <ele>202.4</ele>
        <time>2022-06-25T06:40:59Z</time>
      </trkpt>
      <trkpt lat="46.65265" lon="5.3819">
        <ele>202.4</ele>
        <time>2022-06-25T06:41:00Z</time>
      </trkpt>
      <trkpt lat="46.65263" lon="5.38181">
        <ele>202.4</ele>
        <time>2022-06-25T06:41:01Z</time>
      </trkpt>
      <trkpt lat="46.65262" lon="5.38172">
        <ele>202.4</ele>
        <time>2022-06-25T06:41:02Z</time>
      </trkpt>
      <trkpt lat="46.6526" lon="5.38162">
        <ele>202.4</ele>
        <time>2022-06-25T06:41:03Z</time>
      </trkpt>
      <trkpt lat="46.65259" lon="5.38153">
        <ele>202.4</ele>
        <time>2022-06-25T06:41:04Z</time>
      </trkpt>
      <trkpt lat="46.65257" lon="5.38144">
        <ele>202.4</ele>
        <time>2022-06-25T06:41:05Z</time>
      </trkpt>
      <trkpt lat="46.65255" lon="5.38135">
        <ele>202.4</ele>
        <time>2022-06-25T06:41:06Z</time>
      </trkpt>
      <trkpt lat="46.65253" lon="5.38126">
        <ele>202.4</ele>
        <time>2022-06-25T06:41:07Z</time>
      </trkpt>
      <trkpt lat="46.6525" lon="5.38117">
        <ele>202.4</ele>
        <time>2022-06-25T06:41:08Z</time>
      </trkpt>
      <trkpt lat="46.65248" lon="5.38108">
        <ele>202.4</ele>
        <time>2022-06-25T06:41:09Z</time>
      </trkpt>
      <trkpt lat="46.65246" lon="5.38099">
        <ele>202.4</ele>
        <time>2022-06-25T06:41:10Z</time>
      </trkpt>
      <trkpt lat="46.65244" lon="5.3809">
        <ele>202.4</ele>
        <time>2022-06-25T06:41:11Z</time>
      </trkpt>
      <trkpt lat="46.65241" lon="5.3808">
        <ele>202.4</ele>
        <time>2022-06-25T06:41:12Z</time>
      </trkpt>
      <trkpt lat="46.65239" lon="5.38071">
        <ele>202.4</ele>
        <time>2022-06-25T06:41:13Z</time>
      </trkpt>
      <trkpt lat="46.65236" lon="5.38062">
        <ele>202.4</ele>
        <time>2022-06-25T06:41:14Z</time>
      </trkpt>
      <trkpt lat="46.65234" lon="5.38054">
        <ele>202.4</ele>
        <time>2022-06-25T06:41:15Z</time>
      </trkpt>
      <trkpt lat="46.65231" lon="5.38045">
        <ele>202.6</ele>
        <time>2022-06-25T06:41:16Z</time>
      </trkpt>
      <trkpt lat="46.65229" lon="5.38037">
        <ele>202.6</ele>
        <time>2022-06-25T06:41:17Z</time>
      </trkpt>
      <trkpt lat="46.65226" lon="5.38028">
        <ele>202.6</ele>
        <time>2022-06-25T06:41:18Z</time>
      </trkpt>
      <trkpt lat="46.65223" lon="5.3802">
        <ele>202.6</ele>
        <time>2022-06-25T06:41:19Z</time>
      </trkpt>
      <trkpt lat="46.6522" lon="5.38011">
        <ele>202.6</ele>
        <time>2022-06-25T06:41:20Z</time>
      </trkpt>
      <trkpt lat="46.65217" lon="5.38003">
        <ele>202.6</ele>
        <time>2022-06-25T06:41:21Z</time>
      </trkpt>
      <trkpt lat="46.65214" lon="5.37995">
        <ele>202.6</ele>
        <time>2022-06-25T06:41:22Z</time>
      </trkpt>
      <trkpt lat="46.65211" lon="5.37986">
        <ele>202.6</ele>
        <time>2022-06-25T06:41:23Z</time>
      </trkpt>
      <trkpt lat="46.65208" lon="5.37978">
        <ele>202.6</ele>
        <time>2022-06-25T06:41:24Z</time>
      </trkpt>
      <trkpt lat="46.65205" lon="5.37969">
        <ele>202.6</ele>
        <time>2022-06-25T06:41:25Z</time>
      </trkpt>
      <trkpt lat="46.65202" lon="5.37961">
        <ele>202.6</ele>
        <time>2022-06-25T06:41:26Z</time>
      </trkpt>
      <trkpt lat="46.65199" lon="5.37952">
        <ele>202.6</ele>
        <time>2022-06-25T06:41:27Z</time>
      </trkpt>
      <trkpt lat="46.65195" lon="5.37943">
        <ele>202.6</ele>
        <time>2022-06-25T06:41:28Z</time>
      </trkpt>
      <trkpt lat="46.65192" lon="5.37934">
        <ele>202.6</ele>
        <time>2022-06-25T06:41:29Z</time>
      </trkpt>
      <trkpt lat="46.65189" lon="5.37924">
        <ele>202.6</ele>
        <time>2022-06-25T06:41:30Z</time>
      </trkpt>
      <trkpt lat="46.65187" lon="5.37915">
        <ele>202.2</ele>
        <time>2022-06-25T06:41:31Z</time>
      </trkpt>
      <trkpt lat="46.65184" lon="5.37905">
        <ele>202.2</ele>
        <time>2022-06-25T06:41:32Z</time>
      </trkpt>
      <trkpt lat="46.65181" lon="5.37896">
        <ele>202.2</ele>
        <time>2022-06-25T06:41:33Z</time>
      </trkpt>
      <trkpt lat="46.65178" lon="5.37886">
        <ele>202.2</ele>
        <time>2022-06-25T06:41:34Z</time>
      </trkpt>
      <trkpt lat="46.65176" lon="5.37876">
        <ele>202.2</ele>
        <time>2022-06-25T06:41:35Z</time>
      </trkpt>
      <trkpt lat="46.65173" lon="5.37867">
        <ele>202</ele>
        <time>2022-06-25T06:41:36Z</time>
      </trkpt>
      <trkpt lat="46.65171" lon="5.37857">
        <ele>202</ele>
        <time>2022-06-25T06:41:37Z</time>
      </trkpt>
      <trkpt lat="46.65168" lon="5.37847">
        <ele>202</ele>
        <time>2022-06-25T06:41:38Z</time>
      </trkpt>
      <trkpt lat="46.65166" lon="5.37836">
        <ele>201.8</ele>
        <time>2022-06-25T06:41:39Z</time>
      </trkpt>
      <trkpt lat="46.65165" lon="5.37826">
        <ele>201.8</ele>
        <time>2022-06-25T06:41:40Z</time>
      </trkpt>
      <trkpt lat="46.65163" lon="5.37816">
        <ele>201.8</ele>
        <time>2022-06-25T06:41:41Z</time>
      </trkpt>
      <trkpt lat="46.65161" lon="5.37805">
        <ele>201.8</ele>
        <time>2022-06-25T06:41:42Z</time>
      </trkpt>
      <trkpt lat="46.65159" lon="5.37795">
        <ele>201.8</ele>
        <time>2022-06-25T06:41:43Z</time>
      </trkpt>
      <trkpt lat="46.65157" lon="5.37785">
        <ele>201.6</ele>
        <time>2022-06-25T06:41:44Z</time>
      </trkpt>
      <trkpt lat="46.65156" lon="5.37774">
        <ele>201.6</ele>
        <time>2022-06-25T06:41:45Z</time>
      </trkpt>
      <trkpt lat="46.65155" lon="5.37764">
        <ele>201.6</ele>
        <time>2022-06-25T06:41:46Z</time>
      </trkpt>
      <trkpt lat="46.65154" lon="5.37753">
        <ele>201.6</ele>
        <time>2022-06-25T06:41:47Z</time>
      </trkpt>
      <trkpt lat="46.65153" lon="5.37743">
        <ele>201.6</ele>
        <time>2022-06-25T06:41:48Z</time>
      </trkpt>
      <trkpt lat="46.65152" lon="5.37733">
        <ele>201.6</ele>
        <time>2022-06-25T06:41:49Z</time>
      </trkpt>
      <trkpt lat="46.65151" lon="5.37722">
        <ele>201.6</ele>
        <time>2022-06-25T06:41:50Z</time>
      </trkpt>
      <trkpt lat="46.6515" lon="5.37702">
        <ele>201.6</ele>
        <time>2022-06-25T06:41:51Z</time>
      </trkpt>
      <trkpt lat="46.6515" lon="5.37691">
        <ele>201.2</ele>
        <time>2022-06-25T06:41:52Z</time>
      </trkpt>
      <trkpt lat="46.6515" lon="5.37681">
        <ele>201.2</ele>
        <time>2022-06-25T06:41:53Z</time>
      </trkpt>
      <trkpt lat="46.6515" lon="5.37671">
        <ele>201.2</ele>
        <time>2022-06-25T06:41:54Z</time>
      </trkpt>
      <trkpt lat="46.6515" lon="5.37661">
        <ele>201.2</ele>
        <time>2022-06-25T06:41:55Z</time>
      </trkpt>
      <trkpt lat="46.6515" lon="5.3765">
        <ele>201.2</ele>
        <time>2022-06-25T06:41:56Z</time>
      </trkpt>
      <trkpt lat="46.65151" lon="5.3764">
        <ele>201.2</ele>
        <time>2022-06-25T06:41:57Z</time>
      </trkpt>
      <trkpt lat="46.65151" lon="5.3763">
        <ele>201</ele>
        <time>2022-06-25T06:41:58Z</time>
      </trkpt>
      <trkpt lat="46.65151" lon="5.3762">
        <ele>201</ele>
        <time>2022-06-25T06:41:59Z</time>
      </trkpt>
      <trkpt lat="46.65151" lon="5.37609">
        <ele>201</ele>
        <time>2022-06-25T06:42:00Z</time>
      </trkpt>
      <trkpt lat="46.65151" lon="5.37599">
        <ele>201</ele>
        <time>2022-06-25T06:42:01Z</time>
      </trkpt>
      <trkpt lat="46.65151" lon="5.37589">
        <ele>201</ele>
        <time>2022-06-25T06:42:02Z</time>
      </trkpt>
      <trkpt lat="46.65151" lon="5.37578">
        <ele>201</ele>
        <time>2022-06-25T06:42:03Z</time>
      </trkpt>
      <trkpt lat="46.65151" lon="5.37568">
        <ele>201</ele>
        <time>2022-06-25T06:42:04Z</time>
      </trkpt>
      <trkpt lat="46.65151" lon="5.3756">
        <ele>201</ele>
        <time>2022-06-25T06:42:05Z</time>
      </trkpt>
      <trkpt lat="46.65151" lon="5.37551">
        <ele>201</ele>
        <time>2022-06-25T06:42:06Z</time>
      </trkpt>
      <trkpt lat="46.65152" lon="5.37535">
        <ele>201</ele>
        <time>2022-06-25T06:42:07Z</time>
      </trkpt>
      <trkpt lat="46.65152" lon="5.37524">
        <ele>201.2</ele>
        <time>2022-06-25T06:42:08Z</time>
      </trkpt>
      <trkpt lat="46.65152" lon="5.37514">
        <ele>201.2</ele>
        <time>2022-06-25T06:42:09Z</time>
      </trkpt>
      <trkpt lat="46.65152" lon="5.37503">
        <ele>201.2</ele>
        <time>2022-06-25T06:42:10Z</time>
      </trkpt>
      <trkpt lat="46.65152" lon="5.37492">
        <ele>201.2</ele>
        <time>2022-06-25T06:42:11Z</time>
      </trkpt>
      <trkpt lat="46.65152" lon="5.37481">
        <ele>201.2</ele>
        <time>2022-06-25T06:42:12Z</time>
      </trkpt>
      <trkpt lat="46.65153" lon="5.3747">
        <ele>201.2</ele>
        <time>2022-06-25T06:42:13Z</time>
      </trkpt>
      <trkpt lat="46.65153" lon="5.37458">
        <ele>201.2</ele>
        <time>2022-06-25T06:42:14Z</time>
      </trkpt>
      <trkpt lat="46.65153" lon="5.37447">
        <ele>201.2</ele>
        <time>2022-06-25T06:42:15Z</time>
      </trkpt>
      <trkpt lat="46.65153" lon="5.37436">
        <ele>201.2</ele>
        <time>2022-06-25T06:42:17Z</time>
      </trkpt>
      <trkpt lat="46.65153" lon="5.37425">
        <ele>201.2</ele>
        <time>2022-06-25T06:42:18Z</time>
      </trkpt>
      <trkpt lat="46.65153" lon="5.37415">
        <ele>201.2</ele>
        <time>2022-06-25T06:42:19Z</time>
      </trkpt>
      <trkpt lat="46.65153" lon="5.37404">
        <ele>201.2</ele>
        <time>2022-06-25T06:42:20Z</time>
      </trkpt>
      <trkpt lat="46.65153" lon="5.37393">
        <ele>201</ele>
        <time>2022-06-25T06:42:21Z</time>
      </trkpt>
      <trkpt lat="46.65153" lon="5.37382">
        <ele>201</ele>
        <time>2022-06-25T06:42:22Z</time>
      </trkpt>
      <trkpt lat="46.65152" lon="5.37372">
        <ele>201</ele>
        <time>2022-06-25T06:42:23Z</time>
      </trkpt>
      <trkpt lat="46.65152" lon="5.37361">
        <ele>201</ele>
        <time>2022-06-25T06:42:24Z</time>
      </trkpt>
      <trkpt lat="46.65151" lon="5.37351">
        <ele>201</ele>
        <time>2022-06-25T06:42:25Z</time>
      </trkpt>
      <trkpt lat="46.6515" lon="5.37341">
        <ele>201</ele>
        <time>2022-06-25T06:42:26Z</time>
      </trkpt>
      <trkpt lat="46.65149" lon="5.3733">
        <ele>201</ele>
        <time>2022-06-25T06:42:27Z</time>
      </trkpt>
      <trkpt lat="46.65148" lon="5.3732">
        <ele>201</ele>
        <time>2022-06-25T06:42:28Z</time>
      </trkpt>
      <trkpt lat="46.65147" lon="5.3731">
        <ele>200.6</ele>
        <time>2022-06-25T06:42:29Z</time>
      </trkpt>
      <trkpt lat="46.65146" lon="5.37299">
        <ele>200.6</ele>
        <time>2022-06-25T06:42:30Z</time>
      </trkpt>
      <trkpt lat="46.65145" lon="5.37289">
        <ele>200.6</ele>
        <time>2022-06-25T06:42:31Z</time>
      </trkpt>
      <trkpt lat="46.65143" lon="5.37279">
        <ele>200.4</ele>
        <time>2022-06-25T06:42:32Z</time>
      </trkpt>
      <trkpt lat="46.65142" lon="5.37269">
        <ele>200.4</ele>
        <time>2022-06-25T06:42:33Z</time>
      </trkpt>
      <trkpt lat="46.6514" lon="5.37259">
        <ele>200.4</ele>
        <time>2022-06-25T06:42:34Z</time>
      </trkpt>
      <trkpt lat="46.65138" lon="5.37248">
        <ele>200.4</ele>
        <time>2022-06-25T06:42:35Z</time>
      </trkpt>
      <trkpt lat="46.65136" lon="5.37238">
        <ele>200.2</ele>
        <time>2022-06-25T06:42:36Z</time>
      </trkpt>
      <trkpt lat="46.65134" lon="5.37229">
        <ele>200.2</ele>
        <time>2022-06-25T06:42:37Z</time>
      </trkpt>
      <trkpt lat="46.65131" lon="5.37219">
        <ele>200</ele>
        <time>2022-06-25T06:42:38Z</time>
      </trkpt>
      <trkpt lat="46.65129" lon="5.37209">
        <ele>200</ele>
        <time>2022-06-25T06:42:39Z</time>
      </trkpt>
      <trkpt lat="46.65126" lon="5.37199">
        <ele>200</ele>
        <time>2022-06-25T06:42:40Z</time>
      </trkpt>
      <trkpt lat="46.65123" lon="5.37189">
        <ele>200</ele>
        <time>2022-06-25T06:42:41Z</time>
      </trkpt>
      <trkpt lat="46.65121" lon="5.37179">
        <ele>199.8</ele>
        <time>2022-06-25T06:42:42Z</time>
      </trkpt>
      <trkpt lat="46.65118" lon="5.37169">
        <ele>199.8</ele>
        <time>2022-06-25T06:42:43Z</time>
      </trkpt>
      <trkpt lat="46.65115" lon="5.37158">
        <ele>199.8</ele>
        <time>2022-06-25T06:42:44Z</time>
      </trkpt>
      <trkpt lat="46.65112" lon="5.37148">
        <ele>199.6</ele>
        <time>2022-06-25T06:42:45Z</time>
      </trkpt>
      <trkpt lat="46.6511" lon="5.37137">
        <ele>199.6</ele>
        <time>2022-06-25T06:42:46Z</time>
      </trkpt>
      <trkpt lat="46.65107" lon="5.37127">
        <ele>199.6</ele>
        <time>2022-06-25T06:42:47Z</time>
      </trkpt>
      <trkpt lat="46.65104" lon="5.37117">
        <ele>199.6</ele>
        <time>2022-06-25T06:42:48Z</time>
      </trkpt>
      <trkpt lat="46.65102" lon="5.37106">
        <ele>199.6</ele>
        <time>2022-06-25T06:42:49Z</time>
      </trkpt>
      <trkpt lat="46.65099" lon="5.37096">
        <ele>199.6</ele>
        <time>2022-06-25T06:42:50Z</time>
      </trkpt>
      <trkpt lat="46.65097" lon="5.37086">
        <ele>199.6</ele>
        <time>2022-06-25T06:42:51Z</time>
      </trkpt>
      <trkpt lat="46.65095" lon="5.37076">
        <ele>199.6</ele>
        <time>2022-06-25T06:42:52Z</time>
      </trkpt>
      <trkpt lat="46.65092" lon="5.37066">
        <ele>199.6</ele>
        <time>2022-06-25T06:42:53Z</time>
      </trkpt>
      <trkpt lat="46.6509" lon="5.37056">
        <ele>199.6</ele>
        <time>2022-06-25T06:42:54Z</time>
      </trkpt>
      <trkpt lat="46.65088" lon="5.37046">
        <ele>199.6</ele>
        <time>2022-06-25T06:42:55Z</time>
      </trkpt>
      <trkpt lat="46.65086" lon="5.37037">
        <ele>199.2</ele>
        <time>2022-06-25T06:42:56Z</time>
      </trkpt>
      <trkpt lat="46.65083" lon="5.37028">
        <ele>199.2</ele>
        <time>2022-06-25T06:42:57Z</time>
      </trkpt>
      <trkpt lat="46.65082" lon="5.37018">
        <ele>199.2</ele>
        <time>2022-06-25T06:42:58Z</time>
      </trkpt>
      <trkpt lat="46.65079" lon="5.37009">
        <ele>199.2</ele>
        <time>2022-06-25T06:42:59Z</time>
      </trkpt>
      <trkpt lat="46.65077" lon="5.36999">
        <ele>199.2</ele>
        <time>2022-06-25T06:43:00Z</time>
      </trkpt>
      <trkpt lat="46.65075" lon="5.3699">
        <ele>199.2</ele>
        <time>2022-06-25T06:43:01Z</time>
      </trkpt>
      <trkpt lat="46.65072" lon="5.36981">
        <ele>199.2</ele>
        <time>2022-06-25T06:43:02Z</time>
      </trkpt>
      <trkpt lat="46.6507" lon="5.36972">
        <ele>199.2</ele>
        <time>2022-06-25T06:43:03Z</time>
      </trkpt>
      <trkpt lat="46.65068" lon="5.36962">
        <ele>199.2</ele>
        <time>2022-06-25T06:43:04Z</time>
      </trkpt>
      <trkpt lat="46.65066" lon="5.36953">
        <ele>199.2</ele>
        <time>2022-06-25T06:43:05Z</time>
      </trkpt>
      <trkpt lat="46.65064" lon="5.36945">
        <ele>199.2</ele>
        <time>2022-06-25T06:43:06Z</time>
      </trkpt>
      <trkpt lat="46.65061" lon="5.36935">
        <ele>199.2</ele>
        <time>2022-06-25T06:43:07Z</time>
      </trkpt>
      <trkpt lat="46.65059" lon="5.36926">
        <ele>199.2</ele>
        <time>2022-06-25T06:43:08Z</time>
      </trkpt>
      <trkpt lat="46.65057" lon="5.36917">
        <ele>199.2</ele>
        <time>2022-06-25T06:43:09Z</time>
      </trkpt>
      <trkpt lat="46.65056" lon="5.36909">
        <ele>199.2</ele>
        <time>2022-06-25T06:43:10Z</time>
      </trkpt>
      <trkpt lat="46.65054" lon="5.369">
        <ele>199.2</ele>
        <time>2022-06-25T06:43:11Z</time>
      </trkpt>
      <trkpt lat="46.65053" lon="5.36892">
        <ele>199.2</ele>
        <time>2022-06-25T06:43:12Z</time>
      </trkpt>
      <trkpt lat="46.65052" lon="5.36883">
        <ele>199.2</ele>
        <time>2022-06-25T06:43:13Z</time>
      </trkpt>
      <trkpt lat="46.6505" lon="5.36874">
        <ele>199.2</ele>
        <time>2022-06-25T06:43:14Z</time>
      </trkpt>
      <trkpt lat="46.65049" lon="5.36866">
        <ele>199.2</ele>
        <time>2022-06-25T06:43:15Z</time>
      </trkpt>
      <trkpt lat="46.65047" lon="5.36857">
        <ele>199.2</ele>
        <time>2022-06-25T06:43:16Z</time>
      </trkpt>
      <trkpt lat="46.65046" lon="5.36849">
        <ele>199.2</ele>
        <time>2022-06-25T06:43:17Z</time>
      </trkpt>
      <trkpt lat="46.65044" lon="5.36841">
        <ele>199.2</ele>
        <time>2022-06-25T06:43:18Z</time>
      </trkpt>
      <trkpt lat="46.65042" lon="5.36834">
        <ele>199.2</ele>
        <time>2022-06-25T06:43:19Z</time>
      </trkpt>
      <trkpt lat="46.6504" lon="5.36826">
        <ele>199.2</ele>
        <time>2022-06-25T06:43:20Z</time>
      </trkpt>
      <trkpt lat="46.65038" lon="5.36818">
        <ele>199.2</ele>
        <time>2022-06-25T06:43:21Z</time>
      </trkpt>
      <trkpt lat="46.65035" lon="5.3681">
        <ele>199.2</ele>
        <time>2022-06-25T06:43:22Z</time>
      </trkpt>
      <trkpt lat="46.65033" lon="5.36802">
        <ele>199.2</ele>
        <time>2022-06-25T06:43:23Z</time>
      </trkpt>
      <trkpt lat="46.6503" lon="5.36795">
        <ele>199.2</ele>
        <time>2022-06-25T06:43:24Z</time>
      </trkpt>
      <trkpt lat="46.65028" lon="5.36787">
        <ele>199.2</ele>
        <time>2022-06-25T06:43:25Z</time>
      </trkpt>
      <trkpt lat="46.65026" lon="5.3678">
        <ele>199</ele>
        <time>2022-06-25T06:43:26Z</time>
      </trkpt>
      <trkpt lat="46.65024" lon="5.36773">
        <ele>199</ele>
        <time>2022-06-25T06:43:27Z</time>
      </trkpt>
      <trkpt lat="46.65022" lon="5.36767">
        <ele>199</ele>
        <time>2022-06-25T06:43:28Z</time>
      </trkpt>
      <trkpt lat="46.6502" lon="5.36761">
        <ele>198.8</ele>
        <time>2022-06-25T06:43:29Z</time>
      </trkpt>
      <trkpt lat="46.65018" lon="5.36755">
        <ele>198.8</ele>
        <time>2022-06-25T06:43:30Z</time>
      </trkpt>
      <trkpt lat="46.65016" lon="5.36749">
        <ele>198.8</ele>
        <time>2022-06-25T06:43:31Z</time>
      </trkpt>
      <trkpt lat="46.65015" lon="5.36744">
        <ele>198.8</ele>
        <time>2022-06-25T06:43:32Z</time>
      </trkpt>
      <trkpt lat="46.65013" lon="5.36738">
        <ele>198.8</ele>
        <time>2022-06-25T06:43:33Z</time>
      </trkpt>
      <trkpt lat="46.65011" lon="5.36732">
        <ele>198.8</ele>
        <time>2022-06-25T06:43:34Z</time>
      </trkpt>
      <trkpt lat="46.65009" lon="5.36725">
        <ele>198.8</ele>
        <time>2022-06-25T06:43:35Z</time>
      </trkpt>
      <trkpt lat="46.65006" lon="5.36717">
        <ele>198.8</ele>
        <time>2022-06-25T06:43:36Z</time>
      </trkpt>
      <trkpt lat="46.65004" lon="5.3671">
        <ele>198.8</ele>
        <time>2022-06-25T06:43:37Z</time>
      </trkpt>
      <trkpt lat="46.65002" lon="5.36701">
        <ele>198.8</ele>
        <time>2022-06-25T06:43:38Z</time>
      </trkpt>
      <trkpt lat="46.65" lon="5.36693">
        <ele>198.8</ele>
        <time>2022-06-25T06:43:39Z</time>
      </trkpt>
      <trkpt lat="46.64997" lon="5.36684">
        <ele>198.8</ele>
        <time>2022-06-25T06:43:40Z</time>
      </trkpt>
      <trkpt lat="46.64995" lon="5.36674">
        <ele>198.8</ele>
        <time>2022-06-25T06:43:41Z</time>
      </trkpt>
      <trkpt lat="46.64992" lon="5.36666">
        <ele>198.8</ele>
        <time>2022-06-25T06:43:42Z</time>
      </trkpt>
      <trkpt lat="46.6499" lon="5.36657">
        <ele>198.8</ele>
        <time>2022-06-25T06:43:43Z</time>
      </trkpt>
      <trkpt lat="46.64987" lon="5.36647">
        <ele>198.8</ele>
        <time>2022-06-25T06:43:44Z</time>
      </trkpt>
      <trkpt lat="46.64985" lon="5.36639">
        <ele>198.6</ele>
        <time>2022-06-25T06:43:45Z</time>
      </trkpt>
      <trkpt lat="46.64983" lon="5.3663">
        <ele>198.6</ele>
        <time>2022-06-25T06:43:46Z</time>
      </trkpt>
      <trkpt lat="46.64981" lon="5.36621">
        <ele>198.6</ele>
        <time>2022-06-25T06:43:47Z</time>
      </trkpt>
      <trkpt lat="46.64978" lon="5.36611">
        <ele>198.6</ele>
        <time>2022-06-25T06:43:48Z</time>
      </trkpt>
      <trkpt lat="46.64976" lon="5.36602">
        <ele>198.6</ele>
        <time>2022-06-25T06:43:49Z</time>
      </trkpt>
      <trkpt lat="46.64973" lon="5.36594">
        <ele>198.6</ele>
        <time>2022-06-25T06:43:50Z</time>
      </trkpt>
      <trkpt lat="46.6497" lon="5.36585">
        <ele>198.6</ele>
        <time>2022-06-25T06:43:51Z</time>
      </trkpt>
      <trkpt lat="46.64968" lon="5.36576">
        <ele>198.6</ele>
        <time>2022-06-25T06:43:52Z</time>
      </trkpt>
      <trkpt lat="46.64965" lon="5.36567">
        <ele>198.6</ele>
        <time>2022-06-25T06:43:53Z</time>
      </trkpt>
      <trkpt lat="46.64963" lon="5.36558">
        <ele>198.6</ele>
        <time>2022-06-25T06:43:54Z</time>
      </trkpt>
      <trkpt lat="46.64961" lon="5.36549">
        <ele>198.6</ele>
        <time>2022-06-25T06:43:55Z</time>
      </trkpt>
      <trkpt lat="46.64959" lon="5.3654">
        <ele>198.6</ele>
        <time>2022-06-25T06:43:56Z</time>
      </trkpt>
      <trkpt lat="46.64956" lon="5.36531">
        <ele>198.6</ele>
        <time>2022-06-25T06:43:57Z</time>
      </trkpt>
      <trkpt lat="46.64954" lon="5.36522">
        <ele>198.6</ele>
        <time>2022-06-25T06:43:58Z</time>
      </trkpt>
      <trkpt lat="46.64952" lon="5.36514">
        <ele>198.6</ele>
        <time>2022-06-25T06:43:59Z</time>
      </trkpt>
      <trkpt lat="46.64949" lon="5.365">
        <ele>198.6</ele>
        <time>2022-06-25T06:44:00Z</time>
      </trkpt>
      <trkpt lat="46.64948" lon="5.36496">
        <ele>198.8</ele>
        <time>2022-06-25T06:44:01Z</time>
      </trkpt>
      <trkpt lat="46.64945" lon="5.36487">
        <ele>198.8</ele>
        <time>2022-06-25T06:44:02Z</time>
      </trkpt>
      <trkpt lat="46.64943" lon="5.36478">
        <ele>198.8</ele>
        <time>2022-06-25T06:44:03Z</time>
      </trkpt>
      <trkpt lat="46.64941" lon="5.3647">
        <ele>198.8</ele>
        <time>2022-06-25T06:44:04Z</time>
      </trkpt>
      <trkpt lat="46.64939" lon="5.36462">
        <ele>199</ele>
        <time>2022-06-25T06:44:05Z</time>
      </trkpt>
      <trkpt lat="46.64937" lon="5.36453">
        <ele>199</ele>
        <time>2022-06-25T06:44:06Z</time>
      </trkpt>
      <trkpt lat="46.64935" lon="5.36445">
        <ele>199</ele>
        <time>2022-06-25T06:44:07Z</time>
      </trkpt>
      <trkpt lat="46.64933" lon="5.36437">
        <ele>199</ele>
        <time>2022-06-25T06:44:08Z</time>
      </trkpt>
      <trkpt lat="46.64932" lon="5.36429">
        <ele>199.2</ele>
        <time>2022-06-25T06:44:09Z</time>
      </trkpt>
      <trkpt lat="46.6493" lon="5.36421">
        <ele>199.2</ele>
        <time>2022-06-25T06:44:10Z</time>
      </trkpt>
      <trkpt lat="46.64928" lon="5.36414">
        <ele>199.2</ele>
        <time>2022-06-25T06:44:11Z</time>
      </trkpt>
      <trkpt lat="46.64926" lon="5.36407">
        <ele>199.2</ele>
        <time>2022-06-25T06:44:12Z</time>
      </trkpt>
      <trkpt lat="46.64924" lon="5.36399">
        <ele>199.4</ele>
        <time>2022-06-25T06:44:13Z</time>
      </trkpt>
      <trkpt lat="46.64922" lon="5.36392">
        <ele>199.4</ele>
        <time>2022-06-25T06:44:14Z</time>
      </trkpt>
      <trkpt lat="46.64921" lon="5.36385">
        <ele>199.4</ele>
        <time>2022-06-25T06:44:15Z</time>
      </trkpt>
      <trkpt lat="46.6492" lon="5.36378">
        <ele>199.4</ele>
        <time>2022-06-25T06:44:16Z</time>
      </trkpt>
      <trkpt lat="46.64919" lon="5.36372">
        <ele>199.4</ele>
        <time>2022-06-25T06:44:17Z</time>
      </trkpt>
      <trkpt lat="46.64918" lon="5.36365">
        <ele>199.6</ele>
        <time>2022-06-25T06:44:18Z</time>
      </trkpt>
      <trkpt lat="46.64917" lon="5.36357">
        <ele>199.6</ele>
        <time>2022-06-25T06:44:19Z</time>
      </trkpt>
      <trkpt lat="46.64915" lon="5.3635">
        <ele>199.6</ele>
        <time>2022-06-25T06:44:20Z</time>
      </trkpt>
      <trkpt lat="46.64913" lon="5.36342">
        <ele>199.6</ele>
        <time>2022-06-25T06:44:21Z</time>
      </trkpt>
      <trkpt lat="46.6491" lon="5.36335">
        <ele>199.8</ele>
        <time>2022-06-25T06:44:22Z</time>
      </trkpt>
      <trkpt lat="46.64908" lon="5.36327">
        <ele>199.8</ele>
        <time>2022-06-25T06:44:23Z</time>
      </trkpt>
      <trkpt lat="46.64907" lon="5.3632">
        <ele>199.8</ele>
        <time>2022-06-25T06:44:24Z</time>
      </trkpt>
      <trkpt lat="46.64905" lon="5.36313">
        <ele>199.8</ele>
        <time>2022-06-25T06:44:25Z</time>
      </trkpt>
      <trkpt lat="46.64903" lon="5.36306">
        <ele>199.8</ele>
        <time>2022-06-25T06:44:26Z</time>
      </trkpt>
      <trkpt lat="46.649" lon="5.36298">
        <ele>200</ele>
        <time>2022-06-25T06:44:27Z</time>
      </trkpt>
      <trkpt lat="46.64898" lon="5.36291">
        <ele>200</ele>
        <time>2022-06-25T06:44:28Z</time>
      </trkpt>
      <trkpt lat="46.64896" lon="5.36285">
        <ele>200</ele>
        <time>2022-06-25T06:44:29Z</time>
      </trkpt>
      <trkpt lat="46.64894" lon="5.36277">
        <ele>200</ele>
        <time>2022-06-25T06:44:30Z</time>
      </trkpt>
      <trkpt lat="46.64891" lon="5.3627">
        <ele>200</ele>
        <time>2022-06-25T06:44:31Z</time>
      </trkpt>
      <trkpt lat="46.64889" lon="5.36262">
        <ele>200</ele>
        <time>2022-06-25T06:44:32Z</time>
      </trkpt>
      <trkpt lat="46.64886" lon="5.36254">
        <ele>199.8</ele>
        <time>2022-06-25T06:44:33Z</time>
      </trkpt>
      <trkpt lat="46.64884" lon="5.36247">
        <ele>199.8</ele>
        <time>2022-06-25T06:44:34Z</time>
      </trkpt>
      <trkpt lat="46.64881" lon="5.36239">
        <ele>199.6</ele>
        <time>2022-06-25T06:44:35Z</time>
      </trkpt>
      <trkpt lat="46.64879" lon="5.36231">
        <ele>199.6</ele>
        <time>2022-06-25T06:44:36Z</time>
      </trkpt>
      <trkpt lat="46.64877" lon="5.36224">
        <ele>199.6</ele>
        <time>2022-06-25T06:44:37Z</time>
      </trkpt>
      <trkpt lat="46.64875" lon="5.36216">
        <ele>199.6</ele>
        <time>2022-06-25T06:44:38Z</time>
      </trkpt>
      <trkpt lat="46.64872" lon="5.36209">
        <ele>199.6</ele>
        <time>2022-06-25T06:44:39Z</time>
      </trkpt>
      <trkpt lat="46.64869" lon="5.36201">
        <ele>199.4</ele>
        <time>2022-06-25T06:44:40Z</time>
      </trkpt>
      <trkpt lat="46.64865" lon="5.36193">
        <ele>199.4</ele>
        <time>2022-06-25T06:44:41Z</time>
      </trkpt>
      <trkpt lat="46.64862" lon="5.36185">
        <ele>199.4</ele>
        <time>2022-06-25T06:44:42Z</time>
      </trkpt>
      <trkpt lat="46.64859" lon="5.36176">
        <ele>199.2</ele>
        <time>2022-06-25T06:44:43Z</time>
      </trkpt>
      <trkpt lat="46.64855" lon="5.36167">
        <ele>199.2</ele>
        <time>2022-06-25T06:44:44Z</time>
      </trkpt>
      <trkpt lat="46.64851" lon="5.36155">
        <ele>199.2</ele>
        <time>2022-06-25T06:44:45Z</time>
      </trkpt>
      <trkpt lat="46.64847" lon="5.36146">
        <ele>199.2</ele>
        <time>2022-06-25T06:44:46Z</time>
      </trkpt>
      <trkpt lat="46.64844" lon="5.36138">
        <ele>199</ele>
        <time>2022-06-25T06:44:47Z</time>
      </trkpt>
      <trkpt lat="46.6484" lon="5.36129">
        <ele>199</ele>
        <time>2022-06-25T06:44:48Z</time>
      </trkpt>
      <trkpt lat="46.64836" lon="5.36119">
        <ele>199</ele>
        <time>2022-06-25T06:44:49Z</time>
      </trkpt>
      <trkpt lat="46.64833" lon="5.36111">
        <ele>199</ele>
        <time>2022-06-25T06:44:50Z</time>
      </trkpt>
      <trkpt lat="46.6483" lon="5.36102">
        <ele>199</ele>
        <time>2022-06-25T06:44:51Z</time>
      </trkpt>
      <trkpt lat="46.64826" lon="5.36094">
        <ele>198.6</ele>
        <time>2022-06-25T06:44:52Z</time>
      </trkpt>
      <trkpt lat="46.64823" lon="5.36085">
        <ele>198.6</ele>
        <time>2022-06-25T06:44:53Z</time>
      </trkpt>
      <trkpt lat="46.64818" lon="5.36076">
        <ele>198.4</ele>
        <time>2022-06-25T06:44:54Z</time>
      </trkpt>
      <trkpt lat="46.64814" lon="5.36065">
        <ele>198.4</ele>
        <time>2022-06-25T06:44:55Z</time>
      </trkpt>
      <trkpt lat="46.6481" lon="5.36055">
        <ele>198.4</ele>
        <time>2022-06-25T06:44:56Z</time>
      </trkpt>
      <trkpt lat="46.64806" lon="5.36045">
        <ele>198.4</ele>
        <time>2022-06-25T06:44:57Z</time>
      </trkpt>
      <trkpt lat="46.64803" lon="5.36037">
        <ele>198.4</ele>
        <time>2022-06-25T06:44:58Z</time>
      </trkpt>
      <trkpt lat="46.648" lon="5.36029">
        <ele>198.4</ele>
        <time>2022-06-25T06:44:59Z</time>
      </trkpt>
      <trkpt lat="46.64797" lon="5.3602">
        <ele>198.4</ele>
        <time>2022-06-25T06:45:00Z</time>
      </trkpt>
      <trkpt lat="46.64793" lon="5.36012">
        <ele>198.4</ele>
        <time>2022-06-25T06:45:01Z</time>
      </trkpt>
      <trkpt lat="46.6479" lon="5.36004">
        <ele>198.6</ele>
        <time>2022-06-25T06:45:02Z</time>
      </trkpt>
      <trkpt lat="46.64787" lon="5.35996">
        <ele>198.6</ele>
        <time>2022-06-25T06:45:03Z</time>
      </trkpt>
      <trkpt lat="46.64784" lon="5.35988">
        <ele>198.6</ele>
        <time>2022-06-25T06:45:04Z</time>
      </trkpt>
      <trkpt lat="46.64781" lon="5.3598">
        <ele>199</ele>
        <time>2022-06-25T06:45:05Z</time>
      </trkpt>
      <trkpt lat="46.64778" lon="5.35973">
        <ele>199</ele>
        <time>2022-06-25T06:45:06Z</time>
      </trkpt>
      <trkpt lat="46.64774" lon="5.35965">
        <ele>199</ele>
        <time>2022-06-25T06:45:07Z</time>
      </trkpt>
      <trkpt lat="46.64772" lon="5.35958">
        <ele>199</ele>
        <time>2022-06-25T06:45:08Z</time>
      </trkpt>
      <trkpt lat="46.64769" lon="5.3595">
        <ele>199</ele>
        <time>2022-06-25T06:45:09Z</time>
      </trkpt>
      <trkpt lat="46.64766" lon="5.35943">
        <ele>199.2</ele>
        <time>2022-06-25T06:45:10Z</time>
      </trkpt>
      <trkpt lat="46.64764" lon="5.35936">
        <ele>199.2</ele>
        <time>2022-06-25T06:45:11Z</time>
      </trkpt>
      <trkpt lat="46.64761" lon="5.35929">
        <ele>199.2</ele>
        <time>2022-06-25T06:45:12Z</time>
      </trkpt>
      <trkpt lat="46.64759" lon="5.35922">
        <ele>199.2</ele>
        <time>2022-06-25T06:45:13Z</time>
      </trkpt>
      <trkpt lat="46.64756" lon="5.35915">
        <ele>199.4</ele>
        <time>2022-06-25T06:45:14Z</time>
      </trkpt>
      <trkpt lat="46.64754" lon="5.35908">
        <ele>199.4</ele>
        <time>2022-06-25T06:45:15Z</time>
      </trkpt>
      <trkpt lat="46.64751" lon="5.35902">
        <ele>199.4</ele>
        <time>2022-06-25T06:45:16Z</time>
      </trkpt>
      <trkpt lat="46.64748" lon="5.35896">
        <ele>199.4</ele>
        <time>2022-06-25T06:45:17Z</time>
      </trkpt>
      <trkpt lat="46.64745" lon="5.35888">
        <ele>199.4</ele>
        <time>2022-06-25T06:45:18Z</time>
      </trkpt>
      <trkpt lat="46.64742" lon="5.35881">
        <ele>199.4</ele>
        <time>2022-06-25T06:45:19Z</time>
      </trkpt>
      <trkpt lat="46.64739" lon="5.35874">
        <ele>199.4</ele>
        <time>2022-06-25T06:45:20Z</time>
      </trkpt>
      <trkpt lat="46.64736" lon="5.35866">
        <ele>199.4</ele>
        <time>2022-06-25T06:45:21Z</time>
      </trkpt>
      <trkpt lat="46.64732" lon="5.35858">
        <ele>199.8</ele>
        <time>2022-06-25T06:45:22Z</time>
      </trkpt>
      <trkpt lat="46.64729" lon="5.3585">
        <ele>199.8</ele>
        <time>2022-06-25T06:45:23Z</time>
      </trkpt>
      <trkpt lat="46.64725" lon="5.35841">
        <ele>199.8</ele>
        <time>2022-06-25T06:45:24Z</time>
      </trkpt>
      <trkpt lat="46.64721" lon="5.35832">
        <ele>199.6</ele>
        <time>2022-06-25T06:45:25Z</time>
      </trkpt>
      <trkpt lat="46.64717" lon="5.35822">
        <ele>199.6</ele>
        <time>2022-06-25T06:45:26Z</time>
      </trkpt>
      <trkpt lat="46.64713" lon="5.35813">
        <ele>199.6</ele>
        <time>2022-06-25T06:45:27Z</time>
      </trkpt>
      <trkpt lat="46.64709" lon="5.35804">
        <ele>199.2</ele>
        <time>2022-06-25T06:45:28Z</time>
      </trkpt>
      <trkpt lat="46.64706" lon="5.35795">
        <ele>199.2</ele>
        <time>2022-06-25T06:45:29Z</time>
      </trkpt>
      <trkpt lat="46.64702" lon="5.35785">
        <ele>199.2</ele>
        <time>2022-06-25T06:45:30Z</time>
      </trkpt>
      <trkpt lat="46.64699" lon="5.35776">
        <ele>199.2</ele>
        <time>2022-06-25T06:45:31Z</time>
      </trkpt>
      <trkpt lat="46.64695" lon="5.35767">
        <ele>199</ele>
        <time>2022-06-25T06:45:32Z</time>
      </trkpt>
      <trkpt lat="46.64692" lon="5.35757">
        <ele>199</ele>
        <time>2022-06-25T06:45:33Z</time>
      </trkpt>
      <trkpt lat="46.64689" lon="5.35748">
        <ele>199</ele>
        <time>2022-06-25T06:45:34Z</time>
      </trkpt>
      <trkpt lat="46.64687" lon="5.35738">
        <ele>199</ele>
        <time>2022-06-25T06:45:35Z</time>
      </trkpt>
      <trkpt lat="46.64684" lon="5.35728">
        <ele>198.8</ele>
        <time>2022-06-25T06:45:36Z</time>
      </trkpt>
      <trkpt lat="46.64682" lon="5.35719">
        <ele>198.8</ele>
        <time>2022-06-25T06:45:37Z</time>
      </trkpt>
      <trkpt lat="46.64679" lon="5.35709">
        <ele>198.6</ele>
        <time>2022-06-25T06:45:38Z</time>
      </trkpt>
      <trkpt lat="46.64677" lon="5.35699">
        <ele>198.6</ele>
        <time>2022-06-25T06:45:39Z</time>
      </trkpt>
      <trkpt lat="46.64674" lon="5.35689">
        <ele>198.6</ele>
        <time>2022-06-25T06:45:40Z</time>
      </trkpt>
      <trkpt lat="46.64672" lon="5.35679">
        <ele>198.2</ele>
        <time>2022-06-25T06:45:41Z</time>
      </trkpt>
      <trkpt lat="46.64669" lon="5.35668">
        <ele>198.2</ele>
        <time>2022-06-25T06:45:42Z</time>
      </trkpt>
      <trkpt lat="46.64667" lon="5.35658">
        <ele>198.2</ele>
        <time>2022-06-25T06:45:43Z</time>
      </trkpt>
      <trkpt lat="46.64665" lon="5.35648">
        <ele>198</ele>
        <time>2022-06-25T06:45:44Z</time>
      </trkpt>
      <trkpt lat="46.64664" lon="5.35638">
        <ele>198</ele>
        <time>2022-06-25T06:45:45Z</time>
      </trkpt>
      <trkpt lat="46.64662" lon="5.35628">
        <ele>198</ele>
        <time>2022-06-25T06:45:46Z</time>
      </trkpt>
      <trkpt lat="46.6466" lon="5.35618">
        <ele>198</ele>
        <time>2022-06-25T06:45:47Z</time>
      </trkpt>
      <trkpt lat="46.64659" lon="5.35607">
        <ele>198</ele>
        <time>2022-06-25T06:45:48Z</time>
      </trkpt>
      <trkpt lat="46.64657" lon="5.35597">
        <ele>197.6</ele>
        <time>2022-06-25T06:45:49Z</time>
      </trkpt>
      <trkpt lat="46.64656" lon="5.35587">
        <ele>197.6</ele>
        <time>2022-06-25T06:45:50Z</time>
      </trkpt>
      <trkpt lat="46.64655" lon="5.35576">
        <ele>197.6</ele>
        <time>2022-06-25T06:45:51Z</time>
      </trkpt>
      <trkpt lat="46.64654" lon="5.35566">
        <ele>197.6</ele>
        <time>2022-06-25T06:45:52Z</time>
      </trkpt>
      <trkpt lat="46.64653" lon="5.35556">
        <ele>197.6</ele>
        <time>2022-06-25T06:45:53Z</time>
      </trkpt>
      <trkpt lat="46.64652" lon="5.35545">
        <ele>197.6</ele>
        <time>2022-06-25T06:45:54Z</time>
      </trkpt>
      <trkpt lat="46.64652" lon="5.35535">
        <ele>197.4</ele>
        <time>2022-06-25T06:45:55Z</time>
      </trkpt>
      <trkpt lat="46.64651" lon="5.35524">
        <ele>197.4</ele>
        <time>2022-06-25T06:45:56Z</time>
      </trkpt>
      <trkpt lat="46.64651" lon="5.35514">
        <ele>197.2</ele>
        <time>2022-06-25T06:45:57Z</time>
      </trkpt>
      <trkpt lat="46.64651" lon="5.35503">
        <ele>197.2</ele>
        <time>2022-06-25T06:45:58Z</time>
      </trkpt>
      <trkpt lat="46.6465" lon="5.35493">
        <ele>197.2</ele>
        <time>2022-06-25T06:45:59Z</time>
      </trkpt>
      <trkpt lat="46.6465" lon="5.35482">
        <ele>197.2</ele>
        <time>2022-06-25T06:46:00Z</time>
      </trkpt>
      <trkpt lat="46.6465" lon="5.35472">
        <ele>196.8</ele>
        <time>2022-06-25T06:46:01Z</time>
      </trkpt>
      <trkpt lat="46.6465" lon="5.35462">
        <ele>196.8</ele>
        <time>2022-06-25T06:46:02Z</time>
      </trkpt>
      <trkpt lat="46.6465" lon="5.35452">
        <ele>196.6</ele>
        <time>2022-06-25T06:46:03Z</time>
      </trkpt>
      <trkpt lat="46.6465" lon="5.35442">
        <ele>196.6</ele>
        <time>2022-06-25T06:46:04Z</time>
      </trkpt>
      <trkpt lat="46.6465" lon="5.35432">
        <ele>196.4</ele>
        <time>2022-06-25T06:46:05Z</time>
      </trkpt>
      <trkpt lat="46.64649" lon="5.35423">
        <ele>196.4</ele>
        <time>2022-06-25T06:46:06Z</time>
      </trkpt>
      <trkpt lat="46.64649" lon="5.35414">
        <ele>196.4</ele>
        <time>2022-06-25T06:46:07Z</time>
      </trkpt>
      <trkpt lat="46.64649" lon="5.35406">
        <ele>196.4</ele>
        <time>2022-06-25T06:46:08Z</time>
      </trkpt>
      <trkpt lat="46.64649" lon="5.35398">
        <ele>196.4</ele>
        <time>2022-06-25T06:46:09Z</time>
      </trkpt>
      <trkpt lat="46.64649" lon="5.35392">
        <ele>196.4</ele>
        <time>2022-06-25T06:46:10Z</time>
      </trkpt>
      <trkpt lat="46.64649" lon="5.35387">
        <ele>196.2</ele>
        <time>2022-06-25T06:46:11Z</time>
      </trkpt>
      <trkpt lat="46.64649" lon="5.35382">
        <ele>196.2</ele>
        <time>2022-06-25T06:46:12Z</time>
      </trkpt>
      <trkpt lat="46.64649" lon="5.35378">
        <ele>196.2</ele>
        <time>2022-06-25T06:46:13Z</time>
      </trkpt>
      <trkpt lat="46.64649" lon="5.35375">
        <ele>195.8</ele>
        <time>2022-06-25T06:46:14Z</time>
      </trkpt>
      <trkpt lat="46.64649" lon="5.3537">
        <ele>195.8</ele>
        <time>2022-06-25T06:46:15Z</time>
      </trkpt>
      <trkpt lat="46.64649" lon="5.35365">
        <ele>195.8</ele>
        <time>2022-06-25T06:46:16Z</time>
      </trkpt>
      <trkpt lat="46.64648" lon="5.35359">
        <ele>195.6</ele>
        <time>2022-06-25T06:46:17Z</time>
      </trkpt>
      <trkpt lat="46.64648" lon="5.35353">
        <ele>195.6</ele>
        <time>2022-06-25T06:46:18Z</time>
      </trkpt>
      <trkpt lat="46.64647" lon="5.35347">
        <ele>196</ele>
        <time>2022-06-25T06:46:19Z</time>
      </trkpt>
      <trkpt lat="46.64647" lon="5.3534">
        <ele>196.2</ele>
        <time>2022-06-25T06:46:20Z</time>
      </trkpt>
      <trkpt lat="46.64646" lon="5.35333">
        <ele>196.2</ele>
        <time>2022-06-25T06:46:21Z</time>
      </trkpt>
      <trkpt lat="46.64646" lon="5.35326">
        <ele>196.4</ele>
        <time>2022-06-25T06:46:22Z</time>
      </trkpt>
      <trkpt lat="46.64646" lon="5.35318">
        <ele>196.4</ele>
        <time>2022-06-25T06:46:23Z</time>
      </trkpt>
      <trkpt lat="46.64646" lon="5.35311">
        <ele>196.4</ele>
        <time>2022-06-25T06:46:24Z</time>
      </trkpt>
      <trkpt lat="46.64646" lon="5.35303">
        <ele>196.6</ele>
        <time>2022-06-25T06:46:25Z</time>
      </trkpt>
      <trkpt lat="46.64645" lon="5.35296">
        <ele>196.6</ele>
        <time>2022-06-25T06:46:26Z</time>
      </trkpt>
      <trkpt lat="46.64644" lon="5.35289">
        <ele>196.6</ele>
        <time>2022-06-25T06:46:27Z</time>
      </trkpt>
      <trkpt lat="46.64644" lon="5.35281">
        <ele>196.8</ele>
        <time>2022-06-25T06:46:28Z</time>
      </trkpt>
      <trkpt lat="46.64643" lon="5.35274">
        <ele>196.8</ele>
        <time>2022-06-25T06:46:29Z</time>
      </trkpt>
      <trkpt lat="46.64643" lon="5.35266">
        <ele>196.8</ele>
        <time>2022-06-25T06:46:30Z</time>
      </trkpt>
      <trkpt lat="46.64642" lon="5.35258">
        <ele>196.8</ele>
        <time>2022-06-25T06:46:31Z</time>
      </trkpt>
      <trkpt lat="46.64641" lon="5.3525">
        <ele>197</ele>
        <time>2022-06-25T06:46:32Z</time>
      </trkpt>
      <trkpt lat="46.6464" lon="5.35243">
        <ele>197</ele>
        <time>2022-06-25T06:46:33Z</time>
      </trkpt>
      <trkpt lat="46.64639" lon="5.35235">
        <ele>197.4</ele>
        <time>2022-06-25T06:46:34Z</time>
      </trkpt>
      <trkpt lat="46.64638" lon="5.35226">
        <ele>197.4</ele>
        <time>2022-06-25T06:46:35Z</time>
      </trkpt>
      <trkpt lat="46.64637" lon="5.35218">
        <ele>197.4</ele>
        <time>2022-06-25T06:46:36Z</time>
      </trkpt>
      <trkpt lat="46.64636" lon="5.3521">
        <ele>197.4</ele>
        <time>2022-06-25T06:46:37Z</time>
      </trkpt>
      <trkpt lat="46.64634" lon="5.35202">
        <ele>197.4</ele>
        <time>2022-06-25T06:46:38Z</time>
      </trkpt>
      <trkpt lat="46.64633" lon="5.35194">
        <ele>197.4</ele>
        <time>2022-06-25T06:46:39Z</time>
      </trkpt>
      <trkpt lat="46.64631" lon="5.35186">
        <ele>197.4</ele>
        <time>2022-06-25T06:46:40Z</time>
      </trkpt>
      <trkpt lat="46.6463" lon="5.35178">
        <ele>197.6</ele>
        <time>2022-06-25T06:46:41Z</time>
      </trkpt>
      <trkpt lat="46.64628" lon="5.3517">
        <ele>197.6</ele>
        <time>2022-06-25T06:46:42Z</time>
      </trkpt>
      <trkpt lat="46.64626" lon="5.35162">
        <ele>197.6</ele>
        <time>2022-06-25T06:46:43Z</time>
      </trkpt>
      <trkpt lat="46.64624" lon="5.35153">
        <ele>197.6</ele>
        <time>2022-06-25T06:46:44Z</time>
      </trkpt>
      <trkpt lat="46.64622" lon="5.35145">
        <ele>197.6</ele>
        <time>2022-06-25T06:46:45Z</time>
      </trkpt>
      <trkpt lat="46.64621" lon="5.35137">
        <ele>197.6</ele>
        <time>2022-06-25T06:46:46Z</time>
      </trkpt>
      <trkpt lat="46.64619" lon="5.35129">
        <ele>197.6</ele>
        <time>2022-06-25T06:46:47Z</time>
      </trkpt>
      <trkpt lat="46.64617" lon="5.35121">
        <ele>197.4</ele>
        <time>2022-06-25T06:46:48Z</time>
      </trkpt>
      <trkpt lat="46.64615" lon="5.35113">
        <ele>197.4</ele>
        <time>2022-06-25T06:46:49Z</time>
      </trkpt>
      <trkpt lat="46.64613" lon="5.35105">
        <ele>197.4</ele>
        <time>2022-06-25T06:46:50Z</time>
      </trkpt>
      <trkpt lat="46.64611" lon="5.35096">
        <ele>197.4</ele>
        <time>2022-06-25T06:46:51Z</time>
      </trkpt>
      <trkpt lat="46.64609" lon="5.35087">
        <ele>197.4</ele>
        <time>2022-06-25T06:46:52Z</time>
      </trkpt>
      <trkpt lat="46.64607" lon="5.35078">
        <ele>197.4</ele>
        <time>2022-06-25T06:46:53Z</time>
      </trkpt>
      <trkpt lat="46.64604" lon="5.35069">
        <ele>197.4</ele>
        <time>2022-06-25T06:46:54Z</time>
      </trkpt>
      <trkpt lat="46.64602" lon="5.3506">
        <ele>197.2</ele>
        <time>2022-06-25T06:46:55Z</time>
      </trkpt>
      <trkpt lat="46.646" lon="5.35051">
        <ele>197.2</ele>
        <time>2022-06-25T06:46:56Z</time>
      </trkpt>
      <trkpt lat="46.64598" lon="5.35042">
        <ele>197.2</ele>
        <time>2022-06-25T06:46:57Z</time>
      </trkpt>
      <trkpt lat="46.64596" lon="5.35033">
        <ele>197.2</ele>
        <time>2022-06-25T06:46:58Z</time>
      </trkpt>
      <trkpt lat="46.64594" lon="5.35023">
        <ele>197.2</ele>
        <time>2022-06-25T06:46:59Z</time>
      </trkpt>
      <trkpt lat="46.64591" lon="5.35014">
        <ele>197.2</ele>
        <time>2022-06-25T06:47:00Z</time>
      </trkpt>
      <trkpt lat="46.64589" lon="5.35004">
        <ele>197.2</ele>
        <time>2022-06-25T06:47:01Z</time>
      </trkpt>
      <trkpt lat="46.64587" lon="5.34995">
        <ele>197.2</ele>
        <time>2022-06-25T06:47:02Z</time>
      </trkpt>
      <trkpt lat="46.64585" lon="5.34985">
        <ele>197.2</ele>
        <time>2022-06-25T06:47:03Z</time>
      </trkpt>
      <trkpt lat="46.64582" lon="5.34976">
        <ele>197.2</ele>
        <time>2022-06-25T06:47:04Z</time>
      </trkpt>
      <trkpt lat="46.6458" lon="5.34966">
        <ele>197.2</ele>
        <time>2022-06-25T06:47:05Z</time>
      </trkpt>
      <trkpt lat="46.64578" lon="5.34956">
        <ele>197.2</ele>
        <time>2022-06-25T06:47:06Z</time>
      </trkpt>
      <trkpt lat="46.64576" lon="5.34947">
        <ele>197.2</ele>
        <time>2022-06-25T06:47:07Z</time>
      </trkpt>
      <trkpt lat="46.64574" lon="5.34937">
        <ele>197.2</ele>
        <time>2022-06-25T06:47:08Z</time>
      </trkpt>
      <trkpt lat="46.64571" lon="5.34928">
        <ele>197</ele>
        <time>2022-06-25T06:47:10Z</time>
      </trkpt>
      <trkpt lat="46.64569" lon="5.34918">
        <ele>197</ele>
        <time>2022-06-25T06:47:11Z</time>
      </trkpt>
      <trkpt lat="46.64567" lon="5.34909">
        <ele>197</ele>
        <time>2022-06-25T06:47:12Z</time>
      </trkpt>
      <trkpt lat="46.64565" lon="5.34899">
        <ele>197</ele>
        <time>2022-06-25T06:47:13Z</time>
      </trkpt>
      <trkpt lat="46.64562" lon="5.3489">
        <ele>197</ele>
        <time>2022-06-25T06:47:14Z</time>
      </trkpt>
      <trkpt lat="46.6456" lon="5.3488">
        <ele>197</ele>
        <time>2022-06-25T06:47:15Z</time>
      </trkpt>
      <trkpt lat="46.64558" lon="5.34871">
        <ele>197</ele>
        <time>2022-06-25T06:47:16Z</time>
      </trkpt>
      <trkpt lat="46.64556" lon="5.34862">
        <ele>197</ele>
        <time>2022-06-25T06:47:17Z</time>
      </trkpt>
      <trkpt lat="46.64553" lon="5.34853">
        <ele>197</ele>
        <time>2022-06-25T06:47:18Z</time>
      </trkpt>
      <trkpt lat="46.64551" lon="5.34844">
        <ele>197</ele>
        <time>2022-06-25T06:47:19Z</time>
      </trkpt>
      <trkpt lat="46.64548" lon="5.34835">
        <ele>197</ele>
        <time>2022-06-25T06:47:20Z</time>
      </trkpt>
      <trkpt lat="46.64545" lon="5.34827">
        <ele>197.2</ele>
        <time>2022-06-25T06:47:21Z</time>
      </trkpt>
      <trkpt lat="46.64542" lon="5.34818">
        <ele>197.2</ele>
        <time>2022-06-25T06:47:22Z</time>
      </trkpt>
      <trkpt lat="46.6454" lon="5.3481">
        <ele>197.2</ele>
        <time>2022-06-25T06:47:23Z</time>
      </trkpt>
      <trkpt lat="46.64537" lon="5.34802">
        <ele>197.2</ele>
        <time>2022-06-25T06:47:24Z</time>
      </trkpt>
      <trkpt lat="46.64534" lon="5.34793">
        <ele>197.2</ele>
        <time>2022-06-25T06:47:25Z</time>
      </trkpt>
      <trkpt lat="46.64531" lon="5.34785">
        <ele>197.4</ele>
        <time>2022-06-25T06:47:26Z</time>
      </trkpt>
      <trkpt lat="46.64528" lon="5.34777">
        <ele>197.4</ele>
        <time>2022-06-25T06:47:27Z</time>
      </trkpt>
      <trkpt lat="46.64525" lon="5.3477">
        <ele>197.4</ele>
        <time>2022-06-25T06:47:28Z</time>
      </trkpt>
      <trkpt lat="46.64522" lon="5.34762">
        <ele>197.8</ele>
        <time>2022-06-25T06:47:29Z</time>
      </trkpt>
      <trkpt lat="46.64519" lon="5.34754">
        <ele>197.8</ele>
        <time>2022-06-25T06:47:30Z</time>
      </trkpt>
      <trkpt lat="46.64515" lon="5.34747">
        <ele>197.8</ele>
        <time>2022-06-25T06:47:31Z</time>
      </trkpt>
      <trkpt lat="46.64512" lon="5.34739">
        <ele>198</ele>
        <time>2022-06-25T06:47:32Z</time>
      </trkpt>
      <trkpt lat="46.64508" lon="5.34732">
        <ele>198</ele>
        <time>2022-06-25T06:47:33Z</time>
      </trkpt>
      <trkpt lat="46.64505" lon="5.34725">
        <ele>198</ele>
        <time>2022-06-25T06:47:34Z</time>
      </trkpt>
      <trkpt lat="46.64501" lon="5.34718">
        <ele>198.2</ele>
        <time>2022-06-25T06:47:35Z</time>
      </trkpt>
      <trkpt lat="46.64498" lon="5.3471">
        <ele>198.2</ele>
        <time>2022-06-25T06:47:36Z</time>
      </trkpt>
      <trkpt lat="46.64495" lon="5.34703">
        <ele>198.2</ele>
        <time>2022-06-25T06:47:37Z</time>
      </trkpt>
      <trkpt lat="46.64491" lon="5.34696">
        <ele>198.2</ele>
        <time>2022-06-25T06:47:38Z</time>
      </trkpt>
      <trkpt lat="46.64488" lon="5.34689">
        <ele>198.4</ele>
        <time>2022-06-25T06:47:39Z</time>
      </trkpt>
      <trkpt lat="46.64484" lon="5.34682">
        <ele>198.4</ele>
        <time>2022-06-25T06:47:40Z</time>
      </trkpt>
      <trkpt lat="46.64481" lon="5.34676">
        <ele>198.4</ele>
        <time>2022-06-25T06:47:41Z</time>
      </trkpt>
      <trkpt lat="46.64478" lon="5.34668">
        <ele>198.4</ele>
        <time>2022-06-25T06:47:42Z</time>
      </trkpt>
      <trkpt lat="46.64474" lon="5.34661">
        <ele>198.4</ele>
        <time>2022-06-25T06:47:43Z</time>
      </trkpt>
      <trkpt lat="46.64471" lon="5.34654">
        <ele>198.8</ele>
        <time>2022-06-25T06:47:44Z</time>
      </trkpt>
      <trkpt lat="46.64467" lon="5.34647">
        <ele>198.8</ele>
        <time>2022-06-25T06:47:45Z</time>
      </trkpt>
      <trkpt lat="46.64464" lon="5.3464">
        <ele>198.8</ele>
        <time>2022-06-25T06:47:46Z</time>
      </trkpt>
      <trkpt lat="46.64461" lon="5.34633">
        <ele>198.8</ele>
        <time>2022-06-25T06:47:47Z</time>
      </trkpt>
      <trkpt lat="46.64457" lon="5.34626">
        <ele>199</ele>
        <time>2022-06-25T06:47:48Z</time>
      </trkpt>
      <trkpt lat="46.64454" lon="5.34619">
        <ele>199</ele>
        <time>2022-06-25T06:47:49Z</time>
      </trkpt>
      <trkpt lat="46.6445" lon="5.34612">
        <ele>199</ele>
        <time>2022-06-25T06:47:50Z</time>
      </trkpt>
      <trkpt lat="46.64447" lon="5.34606">
        <ele>199</ele>
        <time>2022-06-25T06:47:51Z</time>
      </trkpt>
      <trkpt lat="46.64444" lon="5.34599">
        <ele>199</ele>
        <time>2022-06-25T06:47:52Z</time>
      </trkpt>
      <trkpt lat="46.64441" lon="5.34592">
        <ele>199</ele>
        <time>2022-06-25T06:47:53Z</time>
      </trkpt>
      <trkpt lat="46.64438" lon="5.34585">
        <ele>199.2</ele>
        <time>2022-06-25T06:47:54Z</time>
      </trkpt>
      <trkpt lat="46.64435" lon="5.34578">
        <ele>199.2</ele>
        <time>2022-06-25T06:47:55Z</time>
      </trkpt>
      <trkpt lat="46.64432" lon="5.34571">
        <ele>199.2</ele>
        <time>2022-06-25T06:47:56Z</time>
      </trkpt>
      <trkpt lat="46.64428" lon="5.34564">
        <ele>199.2</ele>
        <time>2022-06-25T06:47:57Z</time>
      </trkpt>
      <trkpt lat="46.64425" lon="5.34557">
        <ele>199.2</ele>
        <time>2022-06-25T06:47:58Z</time>
      </trkpt>
      <trkpt lat="46.64422" lon="5.3455">
        <ele>199.4</ele>
        <time>2022-06-25T06:47:59Z</time>
      </trkpt>
      <trkpt lat="46.64418" lon="5.34543">
        <ele>199.4</ele>
        <time>2022-06-25T06:48:00Z</time>
      </trkpt>
      <trkpt lat="46.64415" lon="5.34537">
        <ele>199.8</ele>
        <time>2022-06-25T06:48:01Z</time>
      </trkpt>
      <trkpt lat="46.64411" lon="5.3453">
        <ele>199.8</ele>
        <time>2022-06-25T06:48:02Z</time>
      </trkpt>
      <trkpt lat="46.64408" lon="5.34523">
        <ele>199.8</ele>
        <time>2022-06-25T06:48:03Z</time>
      </trkpt>
      <trkpt lat="46.64404" lon="5.34516">
        <ele>199.8</ele>
        <time>2022-06-25T06:48:04Z</time>
      </trkpt>
      <trkpt lat="46.644" lon="5.34508">
        <ele>200</ele>
        <time>2022-06-25T06:48:05Z</time>
      </trkpt>
      <trkpt lat="46.64397" lon="5.34501">
        <ele>200</ele>
        <time>2022-06-25T06:48:06Z</time>
      </trkpt>
      <trkpt lat="46.64394" lon="5.34494">
        <ele>200</ele>
        <time>2022-06-25T06:48:07Z</time>
      </trkpt>
      <trkpt lat="46.6439" lon="5.34486">
        <ele>200</ele>
        <time>2022-06-25T06:48:08Z</time>
      </trkpt>
      <trkpt lat="46.64387" lon="5.34478">
        <ele>200</ele>
        <time>2022-06-25T06:48:09Z</time>
      </trkpt>
      <trkpt lat="46.64384" lon="5.3447">
        <ele>200</ele>
        <time>2022-06-25T06:48:10Z</time>
      </trkpt>
      <trkpt lat="46.64381" lon="5.34462">
        <ele>200</ele>
        <time>2022-06-25T06:48:11Z</time>
      </trkpt>
      <trkpt lat="46.64377" lon="5.34454">
        <ele>200</ele>
        <time>2022-06-25T06:48:12Z</time>
      </trkpt>
      <trkpt lat="46.64374" lon="5.34445">
        <ele>200</ele>
        <time>2022-06-25T06:48:13Z</time>
      </trkpt>
      <trkpt lat="46.64371" lon="5.34437">
        <ele>200</ele>
        <time>2022-06-25T06:48:14Z</time>
      </trkpt>
      <trkpt lat="46.64368" lon="5.34429">
        <ele>200</ele>
        <time>2022-06-25T06:48:15Z</time>
      </trkpt>
      <trkpt lat="46.64364" lon="5.3442">
        <ele>200</ele>
        <time>2022-06-25T06:48:16Z</time>
      </trkpt>
      <trkpt lat="46.64361" lon="5.34412">
        <ele>200</ele>
        <time>2022-06-25T06:48:17Z</time>
      </trkpt>
      <trkpt lat="46.64358" lon="5.34403">
        <ele>199.6</ele>
        <time>2022-06-25T06:48:18Z</time>
      </trkpt>
      <trkpt lat="46.64355" lon="5.34394">
        <ele>199.6</ele>
        <time>2022-06-25T06:48:19Z</time>
      </trkpt>
      <trkpt lat="46.64352" lon="5.34385">
        <ele>199.6</ele>
        <time>2022-06-25T06:48:20Z</time>
      </trkpt>
      <trkpt lat="46.64349" lon="5.34376">
        <ele>199.4</ele>
        <time>2022-06-25T06:48:21Z</time>
      </trkpt>
      <trkpt lat="46.64346" lon="5.34367">
        <ele>199.4</ele>
        <time>2022-06-25T06:48:22Z</time>
      </trkpt>
      <trkpt lat="46.64343" lon="5.34357">
        <ele>199.4</ele>
        <time>2022-06-25T06:48:23Z</time>
      </trkpt>
      <trkpt lat="46.6434" lon="5.34348">
        <ele>199.4</ele>
        <time>2022-06-25T06:48:24Z</time>
      </trkpt>
      <trkpt lat="46.64337" lon="5.34338">
        <ele>199.2</ele>
        <time>2022-06-25T06:48:25Z</time>
      </trkpt>
      <trkpt lat="46.64335" lon="5.34328">
        <ele>199.2</ele>
        <time>2022-06-25T06:48:26Z</time>
      </trkpt>
      <trkpt lat="46.64332" lon="5.34318">
        <ele>199.2</ele>
        <time>2022-06-25T06:48:27Z</time>
      </trkpt>
      <trkpt lat="46.64329" lon="5.34308">
        <ele>199.2</ele>
        <time>2022-06-25T06:48:28Z</time>
      </trkpt>
      <trkpt lat="46.64327" lon="5.34297">
        <ele>199.2</ele>
        <time>2022-06-25T06:48:29Z</time>
      </trkpt>
      <trkpt lat="46.64324" lon="5.34287">
        <ele>198.8</ele>
        <time>2022-06-25T06:48:30Z</time>
      </trkpt>
      <trkpt lat="46.64322" lon="5.34277">
        <ele>198.8</ele>
        <time>2022-06-25T06:48:31Z</time>
      </trkpt>
      <trkpt lat="46.6432" lon="5.34267">
        <ele>198.8</ele>
        <time>2022-06-25T06:48:32Z</time>
      </trkpt>
      <trkpt lat="46.64317" lon="5.34258">
        <ele>198.4</ele>
        <time>2022-06-25T06:48:33Z</time>
      </trkpt>
      <trkpt lat="46.64315" lon="5.34248">
        <ele>198.4</ele>
        <time>2022-06-25T06:48:34Z</time>
      </trkpt>
      <trkpt lat="46.64313" lon="5.34238">
        <ele>198.4</ele>
        <time>2022-06-25T06:48:35Z</time>
      </trkpt>
      <trkpt lat="46.64311" lon="5.34229">
        <ele>198.4</ele>
        <time>2022-06-25T06:48:36Z</time>
      </trkpt>
      <trkpt lat="46.64309" lon="5.34219">
        <ele>198.2</ele>
        <time>2022-06-25T06:48:37Z</time>
      </trkpt>
      <trkpt lat="46.64307" lon="5.3421">
        <ele>198.2</ele>
        <time>2022-06-25T06:48:38Z</time>
      </trkpt>
      <trkpt lat="46.64305" lon="5.342">
        <ele>198.2</ele>
        <time>2022-06-25T06:48:39Z</time>
      </trkpt>
      <trkpt lat="46.64303" lon="5.34191">
        <ele>198.2</ele>
        <time>2022-06-25T06:48:40Z</time>
      </trkpt>
      <trkpt lat="46.643" lon="5.34181">
        <ele>198</ele>
        <time>2022-06-25T06:48:41Z</time>
      </trkpt>
      <trkpt lat="46.64298" lon="5.34171">
        <ele>198</ele>
        <time>2022-06-25T06:48:42Z</time>
      </trkpt>
      <trkpt lat="46.64296" lon="5.34161">
        <ele>198</ele>
        <time>2022-06-25T06:48:43Z</time>
      </trkpt>
      <trkpt lat="46.64294" lon="5.34151">
        <ele>197.8</ele>
        <time>2022-06-25T06:48:44Z</time>
      </trkpt>
      <trkpt lat="46.64291" lon="5.34142">
        <ele>197.8</ele>
        <time>2022-06-25T06:48:45Z</time>
      </trkpt>
      <trkpt lat="46.64289" lon="5.34132">
        <ele>197.8</ele>
        <time>2022-06-25T06:48:46Z</time>
      </trkpt>
      <trkpt lat="46.64286" lon="5.34122">
        <ele>197.6</ele>
        <time>2022-06-25T06:48:47Z</time>
      </trkpt>
      <trkpt lat="46.64284" lon="5.34111">
        <ele>197.6</ele>
        <time>2022-06-25T06:48:48Z</time>
      </trkpt>
      <trkpt lat="46.64282" lon="5.34101">
        <ele>197.6</ele>
        <time>2022-06-25T06:48:49Z</time>
      </trkpt>
      <trkpt lat="46.64279" lon="5.34091">
        <ele>197.6</ele>
        <time>2022-06-25T06:48:50Z</time>
      </trkpt>
      <trkpt lat="46.64277" lon="5.34081">
        <ele>197.6</ele>
        <time>2022-06-25T06:48:51Z</time>
      </trkpt>
      <trkpt lat="46.64275" lon="5.34071">
        <ele>197.4</ele>
        <time>2022-06-25T06:48:52Z</time>
      </trkpt>
      <trkpt lat="46.64273" lon="5.34061">
        <ele>197.4</ele>
        <time>2022-06-25T06:48:53Z</time>
      </trkpt>
      <trkpt lat="46.64271" lon="5.34051">
        <ele>197.4</ele>
        <time>2022-06-25T06:48:54Z</time>
      </trkpt>
      <trkpt lat="46.64269" lon="5.34041">
        <ele>197.4</ele>
        <time>2022-06-25T06:48:55Z</time>
      </trkpt>
      <trkpt lat="46.64267" lon="5.34031">
        <ele>197.4</ele>
        <time>2022-06-25T06:48:56Z</time>
      </trkpt>
      <trkpt lat="46.64266" lon="5.34021">
        <ele>197.4</ele>
        <time>2022-06-25T06:48:57Z</time>
      </trkpt>
      <trkpt lat="46.64264" lon="5.34011">
        <ele>197.4</ele>
        <time>2022-06-25T06:48:58Z</time>
      </trkpt>
      <trkpt lat="46.64263" lon="5.34001">
        <ele>197.2</ele>
        <time>2022-06-25T06:48:59Z</time>
      </trkpt>
      <trkpt lat="46.64262" lon="5.33991">
        <ele>197.2</ele>
        <time>2022-06-25T06:49:00Z</time>
      </trkpt>
      <trkpt lat="46.64261" lon="5.33981">
        <ele>197.2</ele>
        <time>2022-06-25T06:49:01Z</time>
      </trkpt>
      <trkpt lat="46.6426" lon="5.33971">
        <ele>196.8</ele>
        <time>2022-06-25T06:49:02Z</time>
      </trkpt>
      <trkpt lat="46.64259" lon="5.33961">
        <ele>196.8</ele>
        <time>2022-06-25T06:49:03Z</time>
      </trkpt>
      <trkpt lat="46.64258" lon="5.33951">
        <ele>196.8</ele>
        <time>2022-06-25T06:49:04Z</time>
      </trkpt>
      <trkpt lat="46.64257" lon="5.33941">
        <ele>196.8</ele>
        <time>2022-06-25T06:49:05Z</time>
      </trkpt>
      <trkpt lat="46.64256" lon="5.33931">
        <ele>196.8</ele>
        <time>2022-06-25T06:49:06Z</time>
      </trkpt>
      <trkpt lat="46.64256" lon="5.3392">
        <ele>196.8</ele>
        <time>2022-06-25T06:49:07Z</time>
      </trkpt>
      <trkpt lat="46.64255" lon="5.3391">
        <ele>196.6</ele>
        <time>2022-06-25T06:49:08Z</time>
      </trkpt>
      <trkpt lat="46.64254" lon="5.339">
        <ele>196.6</ele>
        <time>2022-06-25T06:49:09Z</time>
      </trkpt>
      <trkpt lat="46.64254" lon="5.3389">
        <ele>196.6</ele>
        <time>2022-06-25T06:49:10Z</time>
      </trkpt>
      <trkpt lat="46.64253" lon="5.3388">
        <ele>196.6</ele>
        <time>2022-06-25T06:49:11Z</time>
      </trkpt>
      <trkpt lat="46.64253" lon="5.33871">
        <ele>196.6</ele>
        <time>2022-06-25T06:49:12Z</time>
      </trkpt>
      <trkpt lat="46.64253" lon="5.33861">
        <ele>196.6</ele>
        <time>2022-06-25T06:49:13Z</time>
      </trkpt>
      <trkpt lat="46.64252" lon="5.33852">
        <ele>196.4</ele>
        <time>2022-06-25T06:49:14Z</time>
      </trkpt>
      <trkpt lat="46.64252" lon="5.33843">
        <ele>196.4</ele>
        <time>2022-06-25T06:49:15Z</time>
      </trkpt>
      <trkpt lat="46.64252" lon="5.33835">
        <ele>196.2</ele>
        <time>2022-06-25T06:49:16Z</time>
      </trkpt>
      <trkpt lat="46.64252" lon="5.33828">
        <ele>196.2</ele>
        <time>2022-06-25T06:49:17Z</time>
      </trkpt>
      <trkpt lat="46.64252" lon="5.33822">
        <ele>196.2</ele>
        <time>2022-06-25T06:49:18Z</time>
      </trkpt>
      <trkpt lat="46.64252" lon="5.33817">
        <ele>196.2</ele>
        <time>2022-06-25T06:49:19Z</time>
      </trkpt>
      <trkpt lat="46.64252" lon="5.33812">
        <ele>195.8</ele>
        <time>2022-06-25T06:49:20Z</time>
      </trkpt>
      <trkpt lat="46.64252" lon="5.33806">
        <ele>195.8</ele>
        <time>2022-06-25T06:49:21Z</time>
      </trkpt>
      <trkpt lat="46.64252" lon="5.33799">
        <ele>195.8</ele>
        <time>2022-06-25T06:49:22Z</time>
      </trkpt>
      <trkpt lat="46.64252" lon="5.33793">
        <ele>195.8</ele>
        <time>2022-06-25T06:49:23Z</time>
      </trkpt>
      <trkpt lat="46.64252" lon="5.33786">
        <ele>195.8</ele>
        <time>2022-06-25T06:49:24Z</time>
      </trkpt>
      <trkpt lat="46.64253" lon="5.33779">
        <ele>195.8</ele>
        <time>2022-06-25T06:49:25Z</time>
      </trkpt>
      <trkpt lat="46.64253" lon="5.33771">
        <ele>195.8</ele>
        <time>2022-06-25T06:49:26Z</time>
      </trkpt>
      <trkpt lat="46.64253" lon="5.33764">
        <ele>195.8</ele>
        <time>2022-06-25T06:49:27Z</time>
      </trkpt>
      <trkpt lat="46.64254" lon="5.33756">
        <ele>195.8</ele>
        <time>2022-06-25T06:49:28Z</time>
      </trkpt>
      <trkpt lat="46.64255" lon="5.33749">
        <ele>195.8</ele>
        <time>2022-06-25T06:49:29Z</time>
      </trkpt>
      <trkpt lat="46.64255" lon="5.33741">
        <ele>195.8</ele>
        <time>2022-06-25T06:49:30Z</time>
      </trkpt>
      <trkpt lat="46.64256" lon="5.33733">
        <ele>195.8</ele>
        <time>2022-06-25T06:49:31Z</time>
      </trkpt>
      <trkpt lat="46.64257" lon="5.33725">
        <ele>196</ele>
        <time>2022-06-25T06:49:32Z</time>
      </trkpt>
      <trkpt lat="46.64258" lon="5.33717">
        <ele>196</ele>
        <time>2022-06-25T06:49:33Z</time>
      </trkpt>
      <trkpt lat="46.64258" lon="5.33708">
        <ele>196</ele>
        <time>2022-06-25T06:49:34Z</time>
      </trkpt>
      <trkpt lat="46.64259" lon="5.337">
        <ele>196</ele>
        <time>2022-06-25T06:49:35Z</time>
      </trkpt>
      <trkpt lat="46.6426" lon="5.33692">
        <ele>196</ele>
        <time>2022-06-25T06:49:36Z</time>
      </trkpt>
      <trkpt lat="46.64261" lon="5.33683">
        <ele>196</ele>
        <time>2022-06-25T06:49:37Z</time>
      </trkpt>
      <trkpt lat="46.64262" lon="5.33675">
        <ele>196</ele>
        <time>2022-06-25T06:49:38Z</time>
      </trkpt>
      <trkpt lat="46.64263" lon="5.33666">
        <ele>196</ele>
        <time>2022-06-25T06:49:39Z</time>
      </trkpt>
      <trkpt lat="46.64264" lon="5.33658">
        <ele>196</ele>
        <time>2022-06-25T06:49:40Z</time>
      </trkpt>
      <trkpt lat="46.64265" lon="5.33649">
        <ele>196</ele>
        <time>2022-06-25T06:49:41Z</time>
      </trkpt>
      <trkpt lat="46.64266" lon="5.3364">
        <ele>196</ele>
        <time>2022-06-25T06:49:42Z</time>
      </trkpt>
      <trkpt lat="46.64268" lon="5.33632">
        <ele>196</ele>
        <time>2022-06-25T06:49:43Z</time>
      </trkpt>
      <trkpt lat="46.64269" lon="5.33623">
        <ele>196</ele>
        <time>2022-06-25T06:49:44Z</time>
      </trkpt>
      <trkpt lat="46.6427" lon="5.33615">
        <ele>196</ele>
        <time>2022-06-25T06:49:45Z</time>
      </trkpt>
      <trkpt lat="46.64272" lon="5.33606">
        <ele>196</ele>
        <time>2022-06-25T06:49:46Z</time>
      </trkpt>
      <trkpt lat="46.64273" lon="5.33598">
        <ele>196</ele>
        <time>2022-06-25T06:49:47Z</time>
      </trkpt>
      <trkpt lat="46.64274" lon="5.33589">
        <ele>196</ele>
        <time>2022-06-25T06:49:48Z</time>
      </trkpt>
      <trkpt lat="46.64276" lon="5.3358">
        <ele>196.2</ele>
        <time>2022-06-25T06:49:49Z</time>
      </trkpt>
      <trkpt lat="46.64277" lon="5.33572">
        <ele>196.2</ele>
        <time>2022-06-25T06:49:50Z</time>
      </trkpt>
      <trkpt lat="46.64278" lon="5.33563">
        <ele>196.2</ele>
        <time>2022-06-25T06:49:51Z</time>
      </trkpt>
      <trkpt lat="46.6428" lon="5.33555">
        <ele>196.2</ele>
        <time>2022-06-25T06:49:52Z</time>
      </trkpt>
      <trkpt lat="46.64281" lon="5.33546">
        <ele>196.2</ele>
        <time>2022-06-25T06:49:53Z</time>
      </trkpt>
      <trkpt lat="46.64283" lon="5.33537">
        <ele>196.2</ele>
        <time>2022-06-25T06:49:54Z</time>
      </trkpt>
      <trkpt lat="46.64284" lon="5.33529">
        <ele>196.2</ele>
        <time>2022-06-25T06:49:55Z</time>
      </trkpt>
      <trkpt lat="46.64287" lon="5.33511">
        <ele>196.2</ele>
        <time>2022-06-25T06:49:56Z</time>
      </trkpt>
      <trkpt lat="46.64288" lon="5.33502">
        <ele>196.2</ele>
        <time>2022-06-25T06:49:57Z</time>
      </trkpt>
      <trkpt lat="46.6429" lon="5.33494">
        <ele>196.2</ele>
        <time>2022-06-25T06:49:58Z</time>
      </trkpt>
      <trkpt lat="46.64291" lon="5.33485">
        <ele>196.2</ele>
        <time>2022-06-25T06:49:59Z</time>
      </trkpt>
      <trkpt lat="46.64292" lon="5.33476">
        <ele>196.2</ele>
        <time>2022-06-25T06:50:00Z</time>
      </trkpt>
      <trkpt lat="46.64294" lon="5.33468">
        <ele>196.2</ele>
        <time>2022-06-25T06:50:01Z</time>
      </trkpt>
      <trkpt lat="46.64295" lon="5.3346">
        <ele>196.2</ele>
        <time>2022-06-25T06:50:02Z</time>
      </trkpt>
      <trkpt lat="46.64296" lon="5.33452">
        <ele>196.2</ele>
        <time>2022-06-25T06:50:03Z</time>
      </trkpt>
      <trkpt lat="46.64298" lon="5.33444">
        <ele>196.2</ele>
        <time>2022-06-25T06:50:04Z</time>
      </trkpt>
      <trkpt lat="46.64299" lon="5.33436">
        <ele>196.2</ele>
        <time>2022-06-25T06:50:05Z</time>
      </trkpt>
      <trkpt lat="46.643" lon="5.33428">
        <ele>196.2</ele>
        <time>2022-06-25T06:50:06Z</time>
      </trkpt>
      <trkpt lat="46.643" lon="5.33421">
        <ele>196.2</ele>
        <time>2022-06-25T06:50:07Z</time>
      </trkpt>
      <trkpt lat="46.64301" lon="5.33413">
        <ele>196.2</ele>
        <time>2022-06-25T06:50:08Z</time>
      </trkpt>
      <trkpt lat="46.64302" lon="5.33405">
        <ele>196.2</ele>
        <time>2022-06-25T06:50:09Z</time>
      </trkpt>
      <trkpt lat="46.64303" lon="5.33398">
        <ele>196.2</ele>
        <time>2022-06-25T06:50:10Z</time>
      </trkpt>
      <trkpt lat="46.64304" lon="5.3339">
        <ele>196.2</ele>
        <time>2022-06-25T06:50:11Z</time>
      </trkpt>
      <trkpt lat="46.64305" lon="5.33382">
        <ele>196.2</ele>
        <time>2022-06-25T06:50:12Z</time>
      </trkpt>
      <trkpt lat="46.64305" lon="5.33374">
        <ele>196.2</ele>
        <time>2022-06-25T06:50:13Z</time>
      </trkpt>
      <trkpt lat="46.64306" lon="5.33366">
        <ele>196.2</ele>
        <time>2022-06-25T06:50:14Z</time>
      </trkpt>
      <trkpt lat="46.64306" lon="5.33359">
        <ele>196.2</ele>
        <time>2022-06-25T06:50:15Z</time>
      </trkpt>
      <trkpt lat="46.64306" lon="5.33351">
        <ele>196.2</ele>
        <time>2022-06-25T06:50:16Z</time>
      </trkpt>
      <trkpt lat="46.64307" lon="5.33343">
        <ele>196.2</ele>
        <time>2022-06-25T06:50:17Z</time>
      </trkpt>
      <trkpt lat="46.64307" lon="5.33335">
        <ele>196.2</ele>
        <time>2022-06-25T06:50:18Z</time>
      </trkpt>
      <trkpt lat="46.64307" lon="5.33328">
        <ele>196.2</ele>
        <time>2022-06-25T06:50:19Z</time>
      </trkpt>
      <trkpt lat="46.64307" lon="5.3332">
        <ele>196.2</ele>
        <time>2022-06-25T06:50:20Z</time>
      </trkpt>
      <trkpt lat="46.64307" lon="5.33312">
        <ele>196.2</ele>
        <time>2022-06-25T06:50:21Z</time>
      </trkpt>
      <trkpt lat="46.64307" lon="5.33305">
        <ele>196.2</ele>
        <time>2022-06-25T06:50:22Z</time>
      </trkpt>
      <trkpt lat="46.64307" lon="5.33297">
        <ele>196.2</ele>
        <time>2022-06-25T06:50:23Z</time>
      </trkpt>
      <trkpt lat="46.64307" lon="5.33289">
        <ele>196.2</ele>
        <time>2022-06-25T06:50:24Z</time>
      </trkpt>
      <trkpt lat="46.64307" lon="5.33281">
        <ele>196.2</ele>
        <time>2022-06-25T06:50:25Z</time>
      </trkpt>
      <trkpt lat="46.64307" lon="5.33273">
        <ele>196.2</ele>
        <time>2022-06-25T06:50:26Z</time>
      </trkpt>
      <trkpt lat="46.64307" lon="5.33265">
        <ele>196.2</ele>
        <time>2022-06-25T06:50:27Z</time>
      </trkpt>
      <trkpt lat="46.64306" lon="5.33258">
        <ele>196.2</ele>
        <time>2022-06-25T06:50:28Z</time>
      </trkpt>
      <trkpt lat="46.64306" lon="5.3325">
        <ele>196.2</ele>
        <time>2022-06-25T06:50:29Z</time>
      </trkpt>
      <trkpt lat="46.64305" lon="5.33242">
        <ele>196.2</ele>
        <time>2022-06-25T06:50:30Z</time>
      </trkpt>
      <trkpt lat="46.64305" lon="5.33234">
        <ele>196.2</ele>
        <time>2022-06-25T06:50:31Z</time>
      </trkpt>
      <trkpt lat="46.64304" lon="5.33226">
        <ele>196.2</ele>
        <time>2022-06-25T06:50:32Z</time>
      </trkpt>
      <trkpt lat="46.64304" lon="5.33218">
        <ele>196.2</ele>
        <time>2022-06-25T06:50:33Z</time>
      </trkpt>
      <trkpt lat="46.64303" lon="5.3321">
        <ele>196.2</ele>
        <time>2022-06-25T06:50:34Z</time>
      </trkpt>
      <trkpt lat="46.64302" lon="5.33203">
        <ele>196.2</ele>
        <time>2022-06-25T06:50:35Z</time>
      </trkpt>
      <trkpt lat="46.64301" lon="5.33195">
        <ele>196.2</ele>
        <time>2022-06-25T06:50:36Z</time>
      </trkpt>
      <trkpt lat="46.643" lon="5.33187">
        <ele>196.2</ele>
        <time>2022-06-25T06:50:37Z</time>
      </trkpt>
      <trkpt lat="46.64299" lon="5.33179">
        <ele>196.2</ele>
        <time>2022-06-25T06:50:38Z</time>
      </trkpt>
      <trkpt lat="46.64298" lon="5.33171">
        <ele>196.4</ele>
        <time>2022-06-25T06:50:39Z</time>
      </trkpt>
      <trkpt lat="46.64297" lon="5.33162">
        <ele>196.4</ele>
        <time>2022-06-25T06:50:40Z</time>
      </trkpt>
      <trkpt lat="46.64296" lon="5.33154">
        <ele>196.4</ele>
        <time>2022-06-25T06:50:41Z</time>
      </trkpt>
      <trkpt lat="46.64294" lon="5.33146">
        <ele>196.2</ele>
        <time>2022-06-25T06:50:42Z</time>
      </trkpt>
      <trkpt lat="46.64292" lon="5.33138">
        <ele>196.2</ele>
        <time>2022-06-25T06:50:43Z</time>
      </trkpt>
      <trkpt lat="46.64291" lon="5.3313">
        <ele>196.2</ele>
        <time>2022-06-25T06:50:44Z</time>
      </trkpt>
      <trkpt lat="46.64289" lon="5.33122">
        <ele>196.2</ele>
        <time>2022-06-25T06:50:45Z</time>
      </trkpt>
      <trkpt lat="46.64288" lon="5.33114">
        <ele>196.2</ele>
        <time>2022-06-25T06:50:46Z</time>
      </trkpt>
      <trkpt lat="46.64286" lon="5.33106">
        <ele>196.2</ele>
        <time>2022-06-25T06:50:47Z</time>
      </trkpt>
      <trkpt lat="46.64284" lon="5.33098">
        <ele>196.2</ele>
        <time>2022-06-25T06:50:48Z</time>
      </trkpt>
      <trkpt lat="46.64282" lon="5.3309">
        <ele>196</ele>
        <time>2022-06-25T06:50:49Z</time>
      </trkpt>
      <trkpt lat="46.6428" lon="5.33082">
        <ele>196</ele>
        <time>2022-06-25T06:50:50Z</time>
      </trkpt>
      <trkpt lat="46.64279" lon="5.33074">
        <ele>196</ele>
        <time>2022-06-25T06:50:51Z</time>
      </trkpt>
      <trkpt lat="46.64277" lon="5.33065">
        <ele>196</ele>
        <time>2022-06-25T06:50:52Z</time>
      </trkpt>
      <trkpt lat="46.64275" lon="5.33057">
        <ele>196</ele>
        <time>2022-06-25T06:50:53Z</time>
      </trkpt>
      <trkpt lat="46.64273" lon="5.33049">
        <ele>196</ele>
        <time>2022-06-25T06:50:54Z</time>
      </trkpt>
      <trkpt lat="46.64271" lon="5.3304">
        <ele>195.8</ele>
        <time>2022-06-25T06:50:55Z</time>
      </trkpt>
      <trkpt lat="46.64269" lon="5.33032">
        <ele>195.8</ele>
        <time>2022-06-25T06:50:56Z</time>
      </trkpt>
      <trkpt lat="46.64267" lon="5.33023">
        <ele>195.8</ele>
        <time>2022-06-25T06:50:57Z</time>
      </trkpt>
      <trkpt lat="46.64265" lon="5.33014">
        <ele>195.8</ele>
        <time>2022-06-25T06:50:58Z</time>
      </trkpt>
      <trkpt lat="46.64263" lon="5.33006">
        <ele>195.8</ele>
        <time>2022-06-25T06:50:59Z</time>
      </trkpt>
      <trkpt lat="46.64261" lon="5.32997">
        <ele>195.8</ele>
        <time>2022-06-25T06:51:00Z</time>
      </trkpt>
      <trkpt lat="46.64259" lon="5.32988">
        <ele>195.8</ele>
        <time>2022-06-25T06:51:01Z</time>
      </trkpt>
      <trkpt lat="46.64258" lon="5.3298">
        <ele>195.8</ele>
        <time>2022-06-25T06:51:02Z</time>
      </trkpt>
      <trkpt lat="46.64256" lon="5.32971">
        <ele>195.6</ele>
        <time>2022-06-25T06:51:03Z</time>
      </trkpt>
      <trkpt lat="46.64253" lon="5.32963">
        <ele>195.6</ele>
        <time>2022-06-25T06:51:04Z</time>
      </trkpt>
      <trkpt lat="46.64251" lon="5.32955">
        <ele>195.6</ele>
        <time>2022-06-25T06:51:05Z</time>
      </trkpt>
      <trkpt lat="46.64249" lon="5.32946">
        <ele>195.6</ele>
        <time>2022-06-25T06:51:06Z</time>
      </trkpt>
      <trkpt lat="46.64247" lon="5.32939">
        <ele>195.6</ele>
        <time>2022-06-25T06:51:07Z</time>
      </trkpt>
      <trkpt lat="46.64245" lon="5.32932">
        <ele>195.4</ele>
        <time>2022-06-25T06:51:08Z</time>
      </trkpt>
      <trkpt lat="46.64245" lon="5.32926">
        <ele>195.4</ele>
        <time>2022-06-25T06:51:09Z</time>
      </trkpt>
      <trkpt lat="46.64244" lon="5.32919">
        <ele>195.4</ele>
        <time>2022-06-25T06:51:10Z</time>
      </trkpt>
      <trkpt lat="46.64243" lon="5.32913">
        <ele>195.4</ele>
        <time>2022-06-25T06:51:11Z</time>
      </trkpt>
      <trkpt lat="46.64242" lon="5.32906">
        <ele>195.4</ele>
        <time>2022-06-25T06:51:12Z</time>
      </trkpt>
      <trkpt lat="46.6424" lon="5.32899">
        <ele>195.4</ele>
        <time>2022-06-25T06:51:13Z</time>
      </trkpt>
      <trkpt lat="46.64239" lon="5.32892">
        <ele>195.4</ele>
        <time>2022-06-25T06:51:14Z</time>
      </trkpt>
      <trkpt lat="46.64237" lon="5.32885">
        <ele>195.4</ele>
        <time>2022-06-25T06:51:15Z</time>
      </trkpt>
      <trkpt lat="46.64236" lon="5.32877">
        <ele>195.2</ele>
        <time>2022-06-25T06:51:16Z</time>
      </trkpt>
      <trkpt lat="46.64234" lon="5.3287">
        <ele>195.2</ele>
        <time>2022-06-25T06:51:17Z</time>
      </trkpt>
      <trkpt lat="46.64233" lon="5.32862">
        <ele>195.2</ele>
        <time>2022-06-25T06:51:18Z</time>
      </trkpt>
      <trkpt lat="46.64232" lon="5.32855">
        <ele>195.2</ele>
        <time>2022-06-25T06:51:19Z</time>
      </trkpt>
      <trkpt lat="46.6423" lon="5.32847">
        <ele>195.2</ele>
        <time>2022-06-25T06:51:20Z</time>
      </trkpt>
      <trkpt lat="46.64229" lon="5.3284">
        <ele>195.2</ele>
        <time>2022-06-25T06:51:21Z</time>
      </trkpt>
      <trkpt lat="46.64228" lon="5.32832">
        <ele>195.2</ele>
        <time>2022-06-25T06:51:22Z</time>
      </trkpt>
      <trkpt lat="46.64227" lon="5.32824">
        <ele>195.2</ele>
        <time>2022-06-25T06:51:23Z</time>
      </trkpt>
      <trkpt lat="46.64226" lon="5.32817">
        <ele>195.2</ele>
        <time>2022-06-25T06:51:24Z</time>
      </trkpt>
      <trkpt lat="46.64225" lon="5.3281">
        <ele>195.2</ele>
        <time>2022-06-25T06:51:25Z</time>
      </trkpt>
      <trkpt lat="46.64225" lon="5.32803">
        <ele>195.2</ele>
        <time>2022-06-25T06:51:26Z</time>
      </trkpt>
      <trkpt lat="46.64225" lon="5.32796">
        <ele>195.2</ele>
        <time>2022-06-25T06:51:27Z</time>
      </trkpt>
      <trkpt lat="46.64224" lon="5.32789">
        <ele>195.2</ele>
        <time>2022-06-25T06:51:28Z</time>
      </trkpt>
      <trkpt lat="46.64223" lon="5.32783">
        <ele>195.2</ele>
        <time>2022-06-25T06:51:29Z</time>
      </trkpt>
      <trkpt lat="46.64223" lon="5.32777">
        <ele>195.2</ele>
        <time>2022-06-25T06:51:30Z</time>
      </trkpt>
      <trkpt lat="46.64222" lon="5.32771">
        <ele>195.2</ele>
        <time>2022-06-25T06:51:31Z</time>
      </trkpt>
      <trkpt lat="46.64221" lon="5.32764">
        <ele>195.2</ele>
        <time>2022-06-25T06:51:32Z</time>
      </trkpt>
      <trkpt lat="46.64221" lon="5.32758">
        <ele>195.2</ele>
        <time>2022-06-25T06:51:33Z</time>
      </trkpt>
      <trkpt lat="46.64221" lon="5.32751">
        <ele>195.4</ele>
        <time>2022-06-25T06:51:34Z</time>
      </trkpt>
      <trkpt lat="46.6422" lon="5.32744">
        <ele>195.4</ele>
        <time>2022-06-25T06:51:35Z</time>
      </trkpt>
      <trkpt lat="46.6422" lon="5.32738">
        <ele>195.4</ele>
        <time>2022-06-25T06:51:36Z</time>
      </trkpt>
      <trkpt lat="46.6422" lon="5.32731">
        <ele>195.4</ele>
        <time>2022-06-25T06:51:37Z</time>
      </trkpt>
      <trkpt lat="46.6422" lon="5.32724">
        <ele>195.4</ele>
        <time>2022-06-25T06:51:38Z</time>
      </trkpt>
      <trkpt lat="46.64219" lon="5.32717">
        <ele>195.4</ele>
        <time>2022-06-25T06:51:39Z</time>
      </trkpt>
      <trkpt lat="46.64218" lon="5.3271">
        <ele>195.4</ele>
        <time>2022-06-25T06:51:40Z</time>
      </trkpt>
      <trkpt lat="46.64217" lon="5.32704">
        <ele>195.4</ele>
        <time>2022-06-25T06:51:41Z</time>
      </trkpt>
      <trkpt lat="46.64217" lon="5.32697">
        <ele>195.4</ele>
        <time>2022-06-25T06:51:42Z</time>
      </trkpt>
      <trkpt lat="46.64216" lon="5.32691">
        <ele>195.6</ele>
        <time>2022-06-25T06:51:43Z</time>
      </trkpt>
      <trkpt lat="46.64216" lon="5.32686">
        <ele>195.6</ele>
        <time>2022-06-25T06:51:44Z</time>
      </trkpt>
      <trkpt lat="46.64216" lon="5.32682">
        <ele>195.6</ele>
        <time>2022-06-25T06:51:45Z</time>
      </trkpt>
      <trkpt lat="46.64215" lon="5.32679">
        <ele>195.6</ele>
        <time>2022-06-25T06:51:46Z</time>
      </trkpt>
      <trkpt lat="46.64215" lon="5.32675">
        <ele>195.8</ele>
        <time>2022-06-25T06:51:47Z</time>
      </trkpt>
      <trkpt lat="46.64215" lon="5.32671">
        <ele>195.8</ele>
        <time>2022-06-25T06:51:48Z</time>
      </trkpt>
      <trkpt lat="46.64214" lon="5.32667">
        <ele>195.8</ele>
        <time>2022-06-25T06:51:49Z</time>
      </trkpt>
      <trkpt lat="46.64214" lon="5.32662">
        <ele>195.8</ele>
        <time>2022-06-25T06:51:50Z</time>
      </trkpt>
      <trkpt lat="46.64213" lon="5.32656">
        <ele>195.8</ele>
        <time>2022-06-25T06:51:51Z</time>
      </trkpt>
      <trkpt lat="46.64212" lon="5.32649">
        <ele>195.8</ele>
        <time>2022-06-25T06:51:52Z</time>
      </trkpt>
      <trkpt lat="46.64212" lon="5.32641">
        <ele>195.8</ele>
        <time>2022-06-25T06:51:53Z</time>
      </trkpt>
      <trkpt lat="46.64211" lon="5.32633">
        <ele>195.8</ele>
        <time>2022-06-25T06:51:54Z</time>
      </trkpt>
      <trkpt lat="46.6421" lon="5.32625">
        <ele>195.8</ele>
        <time>2022-06-25T06:51:55Z</time>
      </trkpt>
      <trkpt lat="46.6421" lon="5.32617">
        <ele>195.8</ele>
        <time>2022-06-25T06:51:56Z</time>
      </trkpt>
      <trkpt lat="46.64209" lon="5.32608">
        <ele>195.8</ele>
        <time>2022-06-25T06:51:57Z</time>
      </trkpt>
      <trkpt lat="46.64208" lon="5.32599">
        <ele>195.8</ele>
        <time>2022-06-25T06:51:58Z</time>
      </trkpt>
      <trkpt lat="46.64208" lon="5.32591">
        <ele>195.8</ele>
        <time>2022-06-25T06:51:59Z</time>
      </trkpt>
      <trkpt lat="46.64207" lon="5.32582">
        <ele>195.8</ele>
        <time>2022-06-25T06:52:00Z</time>
      </trkpt>
      <trkpt lat="46.64207" lon="5.32573">
        <ele>195.8</ele>
        <time>2022-06-25T06:52:01Z</time>
      </trkpt>
      <trkpt lat="46.64206" lon="5.32564">
        <ele>195.8</ele>
        <time>2022-06-25T06:52:02Z</time>
      </trkpt>
      <trkpt lat="46.64206" lon="5.32555">
        <ele>195.8</ele>
        <time>2022-06-25T06:52:03Z</time>
      </trkpt>
      <trkpt lat="46.64205" lon="5.32546">
        <ele>195.8</ele>
        <time>2022-06-25T06:52:04Z</time>
      </trkpt>
      <trkpt lat="46.64204" lon="5.32537">
        <ele>195.8</ele>
        <time>2022-06-25T06:52:05Z</time>
      </trkpt>
      <trkpt lat="46.64203" lon="5.32528">
        <ele>195.8</ele>
        <time>2022-06-25T06:52:06Z</time>
      </trkpt>
      <trkpt lat="46.64203" lon="5.32518">
        <ele>195.6</ele>
        <time>2022-06-25T06:52:07Z</time>
      </trkpt>
      <trkpt lat="46.64202" lon="5.32509">
        <ele>195.6</ele>
        <time>2022-06-25T06:52:08Z</time>
      </trkpt>
      <trkpt lat="46.64201" lon="5.325">
        <ele>195.6</ele>
        <time>2022-06-25T06:52:09Z</time>
      </trkpt>
      <trkpt lat="46.64201" lon="5.3249">
        <ele>195.6</ele>
        <time>2022-06-25T06:52:10Z</time>
      </trkpt>
      <trkpt lat="46.642" lon="5.32481">
        <ele>195.6</ele>
        <time>2022-06-25T06:52:11Z</time>
      </trkpt>
      <trkpt lat="46.642" lon="5.32472">
        <ele>195.6</ele>
        <time>2022-06-25T06:52:12Z</time>
      </trkpt>
      <trkpt lat="46.64199" lon="5.32462">
        <ele>195.6</ele>
        <time>2022-06-25T06:52:13Z</time>
      </trkpt>
      <trkpt lat="46.64198" lon="5.32453">
        <ele>195.6</ele>
        <time>2022-06-25T06:52:14Z</time>
      </trkpt>
      <trkpt lat="46.64198" lon="5.32444">
        <ele>195.6</ele>
        <time>2022-06-25T06:52:15Z</time>
      </trkpt>
      <trkpt lat="46.64197" lon="5.32434">
        <ele>195.6</ele>
        <time>2022-06-25T06:52:16Z</time>
      </trkpt>
      <trkpt lat="46.64196" lon="5.32425">
        <ele>195.6</ele>
        <time>2022-06-25T06:52:17Z</time>
      </trkpt>
      <trkpt lat="46.64196" lon="5.32416">
        <ele>195.6</ele>
        <time>2022-06-25T06:52:18Z</time>
      </trkpt>
      <trkpt lat="46.64195" lon="5.32406">
        <ele>195.6</ele>
        <time>2022-06-25T06:52:19Z</time>
      </trkpt>
      <trkpt lat="46.64194" lon="5.32397">
        <ele>195.6</ele>
        <time>2022-06-25T06:52:20Z</time>
      </trkpt>
      <trkpt lat="46.64194" lon="5.32388">
        <ele>195.6</ele>
        <time>2022-06-25T06:52:21Z</time>
      </trkpt>
      <trkpt lat="46.64193" lon="5.32378">
        <ele>195.6</ele>
        <time>2022-06-25T06:52:22Z</time>
      </trkpt>
      <trkpt lat="46.64192" lon="5.32369">
        <ele>195.6</ele>
        <time>2022-06-25T06:52:23Z</time>
      </trkpt>
      <trkpt lat="46.64192" lon="5.3236">
        <ele>195.6</ele>
        <time>2022-06-25T06:52:24Z</time>
      </trkpt>
      <trkpt lat="46.64191" lon="5.32351">
        <ele>195.6</ele>
        <time>2022-06-25T06:52:25Z</time>
      </trkpt>
      <trkpt lat="46.6419" lon="5.32341">
        <ele>195.4</ele>
        <time>2022-06-25T06:52:26Z</time>
      </trkpt>
      <trkpt lat="46.64189" lon="5.32332">
        <ele>195.4</ele>
        <time>2022-06-25T06:52:27Z</time>
      </trkpt>
      <trkpt lat="46.64189" lon="5.32323">
        <ele>195.4</ele>
        <time>2022-06-25T06:52:28Z</time>
      </trkpt>
      <trkpt lat="46.64188" lon="5.32314">
        <ele>195.4</ele>
        <time>2022-06-25T06:52:29Z</time>
      </trkpt>
      <trkpt lat="46.64187" lon="5.32305">
        <ele>195.4</ele>
        <time>2022-06-25T06:52:30Z</time>
      </trkpt>
      <trkpt lat="46.64186" lon="5.32296">
        <ele>195.4</ele>
        <time>2022-06-25T06:52:31Z</time>
      </trkpt>
      <trkpt lat="46.64184" lon="5.32287">
        <ele>195.4</ele>
        <time>2022-06-25T06:52:32Z</time>
      </trkpt>
      <trkpt lat="46.64183" lon="5.32277">
        <ele>195.4</ele>
        <time>2022-06-25T06:52:33Z</time>
      </trkpt>
      <trkpt lat="46.64181" lon="5.32268">
        <ele>195.4</ele>
        <time>2022-06-25T06:52:34Z</time>
      </trkpt>
      <trkpt lat="46.6418" lon="5.32259">
        <ele>195.4</ele>
        <time>2022-06-25T06:52:35Z</time>
      </trkpt>
      <trkpt lat="46.64178" lon="5.32251">
        <ele>195.6</ele>
        <time>2022-06-25T06:52:36Z</time>
      </trkpt>
      <trkpt lat="46.64175" lon="5.32242">
        <ele>195.6</ele>
        <time>2022-06-25T06:52:37Z</time>
      </trkpt>
      <trkpt lat="46.64173" lon="5.32233">
        <ele>195.6</ele>
        <time>2022-06-25T06:52:38Z</time>
      </trkpt>
      <trkpt lat="46.64171" lon="5.32224">
        <ele>195.6</ele>
        <time>2022-06-25T06:52:39Z</time>
      </trkpt>
      <trkpt lat="46.64169" lon="5.32215">
        <ele>195.6</ele>
        <time>2022-06-25T06:52:40Z</time>
      </trkpt>
      <trkpt lat="46.64167" lon="5.32207">
        <ele>195.6</ele>
        <time>2022-06-25T06:52:41Z</time>
      </trkpt>
      <trkpt lat="46.64164" lon="5.32199">
        <ele>195.6</ele>
        <time>2022-06-25T06:52:42Z</time>
      </trkpt>
      <trkpt lat="46.64162" lon="5.32191">
        <ele>195.6</ele>
        <time>2022-06-25T06:52:43Z</time>
      </trkpt>
      <trkpt lat="46.64159" lon="5.32182">
        <ele>195.6</ele>
        <time>2022-06-25T06:52:44Z</time>
      </trkpt>
      <trkpt lat="46.64157" lon="5.32174">
        <ele>195.6</ele>
        <time>2022-06-25T06:52:45Z</time>
      </trkpt>
      <trkpt lat="46.64154" lon="5.32166">
        <ele>196</ele>
        <time>2022-06-25T06:52:46Z</time>
      </trkpt>
      <trkpt lat="46.64152" lon="5.32158">
        <ele>196</ele>
        <time>2022-06-25T06:52:47Z</time>
      </trkpt>
      <trkpt lat="46.64149" lon="5.3215">
        <ele>196.2</ele>
        <time>2022-06-25T06:52:48Z</time>
      </trkpt>
      <trkpt lat="46.64146" lon="5.32142">
        <ele>196.2</ele>
        <time>2022-06-25T06:52:49Z</time>
      </trkpt>
      <trkpt lat="46.64143" lon="5.32134">
        <ele>196.2</ele>
        <time>2022-06-25T06:52:50Z</time>
      </trkpt>
      <trkpt lat="46.6414" lon="5.32126">
        <ele>196.2</ele>
        <time>2022-06-25T06:52:51Z</time>
      </trkpt>
      <trkpt lat="46.64136" lon="5.32119">
        <ele>196.4</ele>
        <time>2022-06-25T06:52:52Z</time>
      </trkpt>
      <trkpt lat="46.64133" lon="5.32111">
        <ele>196.4</ele>
        <time>2022-06-25T06:52:53Z</time>
      </trkpt>
      <trkpt lat="46.64129" lon="5.32104">
        <ele>196.4</ele>
        <time>2022-06-25T06:52:54Z</time>
      </trkpt>
      <trkpt lat="46.64126" lon="5.32097">
        <ele>196.6</ele>
        <time>2022-06-25T06:52:55Z</time>
      </trkpt>
      <trkpt lat="46.64122" lon="5.3209">
        <ele>196.6</ele>
        <time>2022-06-25T06:52:56Z</time>
      </trkpt>
      <trkpt lat="46.64119" lon="5.32083">
        <ele>196.6</ele>
        <time>2022-06-25T06:52:57Z</time>
      </trkpt>
      <trkpt lat="46.64115" lon="5.32076">
        <ele>196.6</ele>
        <time>2022-06-25T06:52:58Z</time>
      </trkpt>
      <trkpt lat="46.64111" lon="5.32069">
        <ele>196.6</ele>
        <time>2022-06-25T06:52:59Z</time>
      </trkpt>
      <trkpt lat="46.64106" lon="5.32062">
        <ele>196.6</ele>
        <time>2022-06-25T06:53:00Z</time>
      </trkpt>
      <trkpt lat="46.64102" lon="5.32055">
        <ele>196.6</ele>
        <time>2022-06-25T06:53:01Z</time>
      </trkpt>
      <trkpt lat="46.64098" lon="5.32048">
        <ele>196.6</ele>
        <time>2022-06-25T06:53:02Z</time>
      </trkpt>
      <trkpt lat="46.64093" lon="5.32042">
        <ele>196.6</ele>
        <time>2022-06-25T06:53:03Z</time>
      </trkpt>
      <trkpt lat="46.64088" lon="5.32035">
        <ele>196.6</ele>
        <time>2022-06-25T06:53:04Z</time>
      </trkpt>
      <trkpt lat="46.64083" lon="5.32028">
        <ele>196.6</ele>
        <time>2022-06-25T06:53:05Z</time>
      </trkpt>
      <trkpt lat="46.64078" lon="5.32021">
        <ele>196.6</ele>
        <time>2022-06-25T06:53:06Z</time>
      </trkpt>
      <trkpt lat="46.64073" lon="5.32014">
        <ele>196.6</ele>
        <time>2022-06-25T06:53:07Z</time>
      </trkpt>
      <trkpt lat="46.64068" lon="5.32007">
        <ele>196.4</ele>
        <time>2022-06-25T06:53:08Z</time>
      </trkpt>
      <trkpt lat="46.64063" lon="5.32001">
        <ele>196.4</ele>
        <time>2022-06-25T06:53:09Z</time>
      </trkpt>
      <trkpt lat="46.64058" lon="5.31994">
        <ele>196.4</ele>
        <time>2022-06-25T06:53:10Z</time>
      </trkpt>
      <trkpt lat="46.64052" lon="5.31988">
        <ele>196.4</ele>
        <time>2022-06-25T06:53:11Z</time>
      </trkpt>
      <trkpt lat="46.64047" lon="5.31982">
        <ele>196.4</ele>
        <time>2022-06-25T06:53:12Z</time>
      </trkpt>
      <trkpt lat="46.64041" lon="5.31976">
        <ele>196.4</ele>
        <time>2022-06-25T06:53:13Z</time>
      </trkpt>
      <trkpt lat="46.64035" lon="5.3197">
        <ele>196.4</ele>
        <time>2022-06-25T06:53:14Z</time>
      </trkpt>
      <trkpt lat="46.64029" lon="5.31965">
        <ele>196.4</ele>
        <time>2022-06-25T06:53:15Z</time>
      </trkpt>
      <trkpt lat="46.64023" lon="5.3196">
        <ele>196.4</ele>
        <time>2022-06-25T06:53:16Z</time>
      </trkpt>
      <trkpt lat="46.64017" lon="5.31954">
        <ele>196.4</ele>
        <time>2022-06-25T06:53:17Z</time>
      </trkpt>
      <trkpt lat="46.64011" lon="5.31949">
        <ele>196.4</ele>
        <time>2022-06-25T06:53:18Z</time>
      </trkpt>
      <trkpt lat="46.64005" lon="5.31943">
        <ele>196.2</ele>
        <time>2022-06-25T06:53:19Z</time>
      </trkpt>
      <trkpt lat="46.63999" lon="5.31938">
        <ele>196.2</ele>
        <time>2022-06-25T06:53:20Z</time>
      </trkpt>
      <trkpt lat="46.63993" lon="5.31932">
        <ele>196.2</ele>
        <time>2022-06-25T06:53:21Z</time>
      </trkpt>
      <trkpt lat="46.63987" lon="5.31926">
        <ele>196.2</ele>
        <time>2022-06-25T06:53:22Z</time>
      </trkpt>
      <trkpt lat="46.6398" lon="5.31921">
        <ele>196.2</ele>
        <time>2022-06-25T06:53:23Z</time>
      </trkpt>
      <trkpt lat="46.63974" lon="5.31915">
        <ele>196</ele>
        <time>2022-06-25T06:53:24Z</time>
      </trkpt>
      <trkpt lat="46.63968" lon="5.31909">
        <ele>196</ele>
        <time>2022-06-25T06:53:25Z</time>
      </trkpt>
      <trkpt lat="46.63962" lon="5.31903">
        <ele>196</ele>
        <time>2022-06-25T06:53:26Z</time>
      </trkpt>
      <trkpt lat="46.63956" lon="5.31898">
        <ele>195.6</ele>
        <time>2022-06-25T06:53:27Z</time>
      </trkpt>
      <trkpt lat="46.63949" lon="5.31892">
        <ele>195.6</ele>
        <time>2022-06-25T06:53:28Z</time>
      </trkpt>
      <trkpt lat="46.63943" lon="5.31886">
        <ele>195.6</ele>
        <time>2022-06-25T06:53:29Z</time>
      </trkpt>
      <trkpt lat="46.63937" lon="5.31879">
        <ele>195.6</ele>
        <time>2022-06-25T06:53:30Z</time>
      </trkpt>
      <trkpt lat="46.63931" lon="5.31873">
        <ele>195.4</ele>
        <time>2022-06-25T06:53:31Z</time>
      </trkpt>
      <trkpt lat="46.63926" lon="5.31867">
        <ele>195.4</ele>
        <time>2022-06-25T06:53:32Z</time>
      </trkpt>
      <trkpt lat="46.6392" lon="5.3186">
        <ele>195.4</ele>
        <time>2022-06-25T06:53:33Z</time>
      </trkpt>
      <trkpt lat="46.63914" lon="5.31853">
        <ele>195.4</ele>
        <time>2022-06-25T06:53:34Z</time>
      </trkpt>
      <trkpt lat="46.63909" lon="5.31846">
        <ele>195.2</ele>
        <time>2022-06-25T06:53:35Z</time>
      </trkpt>
      <trkpt lat="46.63903" lon="5.31839">
        <ele>195.2</ele>
        <time>2022-06-25T06:53:36Z</time>
      </trkpt>
      <trkpt lat="46.63898" lon="5.31831">
        <ele>195.2</ele>
        <time>2022-06-25T06:53:37Z</time>
      </trkpt>
      <trkpt lat="46.63893" lon="5.31824">
        <ele>195</ele>
        <time>2022-06-25T06:53:38Z</time>
      </trkpt>
      <trkpt lat="46.63888" lon="5.31816">
        <ele>195</ele>
        <time>2022-06-25T06:53:39Z</time>
      </trkpt>
      <trkpt lat="46.63883" lon="5.31808">
        <ele>195</ele>
        <time>2022-06-25T06:53:40Z</time>
      </trkpt>
      <trkpt lat="46.63878" lon="5.318">
        <ele>195</ele>
        <time>2022-06-25T06:53:41Z</time>
      </trkpt>
      <trkpt lat="46.63873" lon="5.31792">
        <ele>195</ele>
        <time>2022-06-25T06:53:42Z</time>
      </trkpt>
      <trkpt lat="46.63868" lon="5.31784">
        <ele>195</ele>
        <time>2022-06-25T06:53:43Z</time>
      </trkpt>
      <trkpt lat="46.63863" lon="5.31776">
        <ele>195</ele>
        <time>2022-06-25T06:53:44Z</time>
      </trkpt>
      <trkpt lat="46.63859" lon="5.31768">
        <ele>195</ele>
        <time>2022-06-25T06:53:45Z</time>
      </trkpt>
      <trkpt lat="46.63854" lon="5.31759">
        <ele>195</ele>
        <time>2022-06-25T06:53:46Z</time>
      </trkpt>
      <trkpt lat="46.6385" lon="5.3175">
        <ele>195</ele>
        <time>2022-06-25T06:53:47Z</time>
      </trkpt>
      <trkpt lat="46.63845" lon="5.31742">
        <ele>195</ele>
        <time>2022-06-25T06:53:48Z</time>
      </trkpt>
      <trkpt lat="46.63841" lon="5.31733">
        <ele>194.8</ele>
        <time>2022-06-25T06:53:49Z</time>
      </trkpt>
      <trkpt lat="46.63837" lon="5.31725">
        <ele>194.8</ele>
        <time>2022-06-25T06:53:50Z</time>
      </trkpt>
      <trkpt lat="46.63833" lon="5.31716">
        <ele>194.8</ele>
        <time>2022-06-25T06:53:51Z</time>
      </trkpt>
      <trkpt lat="46.6383" lon="5.31708">
        <ele>194.8</ele>
        <time>2022-06-25T06:53:52Z</time>
      </trkpt>
      <trkpt lat="46.63826" lon="5.31699">
        <ele>194.8</ele>
        <time>2022-06-25T06:53:53Z</time>
      </trkpt>
      <trkpt lat="46.63822" lon="5.31691">
        <ele>194.8</ele>
        <time>2022-06-25T06:53:54Z</time>
      </trkpt>
      <trkpt lat="46.63819" lon="5.31682">
        <ele>194.8</ele>
        <time>2022-06-25T06:53:55Z</time>
      </trkpt>
      <trkpt lat="46.63815" lon="5.31674">
        <ele>194.8</ele>
        <time>2022-06-25T06:53:56Z</time>
      </trkpt>
      <trkpt lat="46.63812" lon="5.31665">
        <ele>194.8</ele>
        <time>2022-06-25T06:53:57Z</time>
      </trkpt>
      <trkpt lat="46.63808" lon="5.31657">
        <ele>194.8</ele>
        <time>2022-06-25T06:53:58Z</time>
      </trkpt>
      <trkpt lat="46.63805" lon="5.31648">
        <ele>194.8</ele>
        <time>2022-06-25T06:53:59Z</time>
      </trkpt>
      <trkpt lat="46.63801" lon="5.3164">
        <ele>194.4</ele>
        <time>2022-06-25T06:54:00Z</time>
      </trkpt>
      <trkpt lat="46.63797" lon="5.31631">
        <ele>194.4</ele>
        <time>2022-06-25T06:54:01Z</time>
      </trkpt>
      <trkpt lat="46.63794" lon="5.31623">
        <ele>194.4</ele>
        <time>2022-06-25T06:54:02Z</time>
      </trkpt>
      <trkpt lat="46.6379" lon="5.31615">
        <ele>194.4</ele>
        <time>2022-06-25T06:54:03Z</time>
      </trkpt>
      <trkpt lat="46.63787" lon="5.31607">
        <ele>194.4</ele>
        <time>2022-06-25T06:54:04Z</time>
      </trkpt>
      <trkpt lat="46.63784" lon="5.31598">
        <ele>194.4</ele>
        <time>2022-06-25T06:54:05Z</time>
      </trkpt>
      <trkpt lat="46.63781" lon="5.3159">
        <ele>194.4</ele>
        <time>2022-06-25T06:54:06Z</time>
      </trkpt>
      <trkpt lat="46.63778" lon="5.31582">
        <ele>194.4</ele>
        <time>2022-06-25T06:54:07Z</time>
      </trkpt>
      <trkpt lat="46.63775" lon="5.31574">
        <ele>194.4</ele>
        <time>2022-06-25T06:54:08Z</time>
      </trkpt>
      <trkpt lat="46.63771" lon="5.31565">
        <ele>194.4</ele>
        <time>2022-06-25T06:54:09Z</time>
      </trkpt>
      <trkpt lat="46.63768" lon="5.31557">
        <ele>194.4</ele>
        <time>2022-06-25T06:54:10Z</time>
      </trkpt>
      <trkpt lat="46.63765" lon="5.31549">
        <ele>194.4</ele>
        <time>2022-06-25T06:54:11Z</time>
      </trkpt>
      <trkpt lat="46.63762" lon="5.31541">
        <ele>194.4</ele>
        <time>2022-06-25T06:54:12Z</time>
      </trkpt>
      <trkpt lat="46.63758" lon="5.31533">
        <ele>194.4</ele>
        <time>2022-06-25T06:54:13Z</time>
      </trkpt>
      <trkpt lat="46.63755" lon="5.31525">
        <ele>194.4</ele>
        <time>2022-06-25T06:54:14Z</time>
      </trkpt>
      <trkpt lat="46.63752" lon="5.31517">
        <ele>194.4</ele>
        <time>2022-06-25T06:54:15Z</time>
      </trkpt>
      <trkpt lat="46.63749" lon="5.3151">
        <ele>194.4</ele>
        <time>2022-06-25T06:54:16Z</time>
      </trkpt>
      <trkpt lat="46.63746" lon="5.31502">
        <ele>194.4</ele>
        <time>2022-06-25T06:54:17Z</time>
      </trkpt>
      <trkpt lat="46.63743" lon="5.31494">
        <ele>194.4</ele>
        <time>2022-06-25T06:54:18Z</time>
      </trkpt>
      <trkpt lat="46.6374" lon="5.31487">
        <ele>194.4</ele>
        <time>2022-06-25T06:54:19Z</time>
      </trkpt>
      <trkpt lat="46.63737" lon="5.3148">
        <ele>194.4</ele>
        <time>2022-06-25T06:54:20Z</time>
      </trkpt>
      <trkpt lat="46.63734" lon="5.31472">
        <ele>194.4</ele>
        <time>2022-06-25T06:54:21Z</time>
      </trkpt>
      <trkpt lat="46.63731" lon="5.31465">
        <ele>194.4</ele>
        <time>2022-06-25T06:54:22Z</time>
      </trkpt>
      <trkpt lat="46.63728" lon="5.31457">
        <ele>194.4</ele>
        <time>2022-06-25T06:54:23Z</time>
      </trkpt>
      <trkpt lat="46.63725" lon="5.3145">
        <ele>194.4</ele>
        <time>2022-06-25T06:54:24Z</time>
      </trkpt>
      <trkpt lat="46.63722" lon="5.31442">
        <ele>194.4</ele>
        <time>2022-06-25T06:54:25Z</time>
      </trkpt>
      <trkpt lat="46.63718" lon="5.31435">
        <ele>194.4</ele>
        <time>2022-06-25T06:54:26Z</time>
      </trkpt>
      <trkpt lat="46.63715" lon="5.31429">
        <ele>194.4</ele>
        <time>2022-06-25T06:54:27Z</time>
      </trkpt>
      <trkpt lat="46.63713" lon="5.31422">
        <ele>194.4</ele>
        <time>2022-06-25T06:54:28Z</time>
      </trkpt>
      <trkpt lat="46.63711" lon="5.31416">
        <ele>194.4</ele>
        <time>2022-06-25T06:54:29Z</time>
      </trkpt>
      <trkpt lat="46.63709" lon="5.3141">
        <ele>194.4</ele>
        <time>2022-06-25T06:54:30Z</time>
      </trkpt>
      <trkpt lat="46.63707" lon="5.31404">
        <ele>194.4</ele>
        <time>2022-06-25T06:54:31Z</time>
      </trkpt>
      <trkpt lat="46.63705" lon="5.31398">
        <ele>194.4</ele>
        <time>2022-06-25T06:54:32Z</time>
      </trkpt>
      <trkpt lat="46.63702" lon="5.31392">
        <ele>194.4</ele>
        <time>2022-06-25T06:54:33Z</time>
      </trkpt>
      <trkpt lat="46.63699" lon="5.31385">
        <ele>194.8</ele>
        <time>2022-06-25T06:54:34Z</time>
      </trkpt>
      <trkpt lat="46.63696" lon="5.31378">
        <ele>194.8</ele>
        <time>2022-06-25T06:54:35Z</time>
      </trkpt>
      <trkpt lat="46.63694" lon="5.31371">
        <ele>194.8</ele>
        <time>2022-06-25T06:54:36Z</time>
      </trkpt>
      <trkpt lat="46.63691" lon="5.31364">
        <ele>195</ele>
        <time>2022-06-25T06:54:37Z</time>
      </trkpt>
      <trkpt lat="46.6369" lon="5.31356">
        <ele>195</ele>
        <time>2022-06-25T06:54:38Z</time>
      </trkpt>
      <trkpt lat="46.63687" lon="5.31348">
        <ele>195</ele>
        <time>2022-06-25T06:54:39Z</time>
      </trkpt>
      <trkpt lat="46.63685" lon="5.3134">
        <ele>195</ele>
        <time>2022-06-25T06:54:40Z</time>
      </trkpt>
      <trkpt lat="46.63683" lon="5.31332">
        <ele>195</ele>
        <time>2022-06-25T06:54:41Z</time>
      </trkpt>
      <trkpt lat="46.6368" lon="5.31324">
        <ele>195</ele>
        <time>2022-06-25T06:54:42Z</time>
      </trkpt>
      <trkpt lat="46.63678" lon="5.31315">
        <ele>195</ele>
        <time>2022-06-25T06:54:43Z</time>
      </trkpt>
      <trkpt lat="46.63676" lon="5.31307">
        <ele>194.8</ele>
        <time>2022-06-25T06:54:44Z</time>
      </trkpt>
      <trkpt lat="46.63673" lon="5.31298">
        <ele>194.8</ele>
        <time>2022-06-25T06:54:45Z</time>
      </trkpt>
      <trkpt lat="46.63671" lon="5.31289">
        <ele>194.8</ele>
        <time>2022-06-25T06:54:46Z</time>
      </trkpt>
      <trkpt lat="46.63669" lon="5.31279">
        <ele>194.8</ele>
        <time>2022-06-25T06:54:47Z</time>
      </trkpt>
      <trkpt lat="46.63667" lon="5.3127">
        <ele>194.8</ele>
        <time>2022-06-25T06:54:48Z</time>
      </trkpt>
      <trkpt lat="46.63665" lon="5.31261">
        <ele>194.8</ele>
        <time>2022-06-25T06:54:49Z</time>
      </trkpt>
      <trkpt lat="46.63664" lon="5.31252">
        <ele>194.8</ele>
        <time>2022-06-25T06:54:50Z</time>
      </trkpt>
      <trkpt lat="46.63662" lon="5.31242">
        <ele>194.8</ele>
        <time>2022-06-25T06:54:51Z</time>
      </trkpt>
      <trkpt lat="46.6366" lon="5.31233">
        <ele>194.8</ele>
        <time>2022-06-25T06:54:52Z</time>
      </trkpt>
      <trkpt lat="46.63659" lon="5.31224">
        <ele>194.8</ele>
        <time>2022-06-25T06:54:53Z</time>
      </trkpt>
      <trkpt lat="46.63657" lon="5.31215">
        <ele>194.8</ele>
        <time>2022-06-25T06:54:54Z</time>
      </trkpt>
      <trkpt lat="46.63656" lon="5.31206">
        <ele>194.8</ele>
        <time>2022-06-25T06:54:55Z</time>
      </trkpt>
      <trkpt lat="46.63655" lon="5.31196">
        <ele>194.8</ele>
        <time>2022-06-25T06:54:56Z</time>
      </trkpt>
      <trkpt lat="46.63654" lon="5.31187">
        <ele>194.8</ele>
        <time>2022-06-25T06:54:57Z</time>
      </trkpt>
      <trkpt lat="46.63653" lon="5.31178">
        <ele>194.8</ele>
        <time>2022-06-25T06:54:58Z</time>
      </trkpt>
      <trkpt lat="46.63652" lon="5.31169">
        <ele>194.8</ele>
        <time>2022-06-25T06:54:59Z</time>
      </trkpt>
      <trkpt lat="46.6365" lon="5.3116">
        <ele>194.8</ele>
        <time>2022-06-25T06:55:00Z</time>
      </trkpt>
      <trkpt lat="46.63649" lon="5.31151">
        <ele>194.6</ele>
        <time>2022-06-25T06:55:01Z</time>
      </trkpt>
      <trkpt lat="46.63648" lon="5.31143">
        <ele>194.6</ele>
        <time>2022-06-25T06:55:02Z</time>
      </trkpt>
      <trkpt lat="46.63647" lon="5.31134">
        <ele>194.6</ele>
        <time>2022-06-25T06:55:03Z</time>
      </trkpt>
      <trkpt lat="46.63646" lon="5.31125">
        <ele>194.6</ele>
        <time>2022-06-25T06:55:04Z</time>
      </trkpt>
      <trkpt lat="46.63645" lon="5.31116">
        <ele>194.4</ele>
        <time>2022-06-25T06:55:06Z</time>
      </trkpt>
      <trkpt lat="46.63644" lon="5.31107">
        <ele>194.4</ele>
        <time>2022-06-25T06:55:07Z</time>
      </trkpt>
      <trkpt lat="46.63642" lon="5.31098">
        <ele>194.4</ele>
        <time>2022-06-25T06:55:08Z</time>
      </trkpt>
      <trkpt lat="46.63641" lon="5.31089">
        <ele>194.4</ele>
        <time>2022-06-25T06:55:09Z</time>
      </trkpt>
      <trkpt lat="46.6364" lon="5.3108">
        <ele>194.4</ele>
        <time>2022-06-25T06:55:10Z</time>
      </trkpt>
      <trkpt lat="46.63638" lon="5.31071">
        <ele>194.4</ele>
        <time>2022-06-25T06:55:11Z</time>
      </trkpt>
      <trkpt lat="46.63637" lon="5.31062">
        <ele>194.4</ele>
        <time>2022-06-25T06:55:12Z</time>
      </trkpt>
      <trkpt lat="46.63636" lon="5.31053">
        <ele>194.4</ele>
        <time>2022-06-25T06:55:13Z</time>
      </trkpt>
      <trkpt lat="46.63635" lon="5.31044">
        <ele>194.4</ele>
        <time>2022-06-25T06:55:14Z</time>
      </trkpt>
      <trkpt lat="46.63634" lon="5.31035">
        <ele>194.4</ele>
        <time>2022-06-25T06:55:15Z</time>
      </trkpt>
      <trkpt lat="46.63632" lon="5.31026">
        <ele>194.6</ele>
        <time>2022-06-25T06:55:16Z</time>
      </trkpt>
      <trkpt lat="46.63631" lon="5.31017">
        <ele>194.6</ele>
        <time>2022-06-25T06:55:17Z</time>
      </trkpt>
      <trkpt lat="46.6363" lon="5.31008">
        <ele>194.6</ele>
        <time>2022-06-25T06:55:18Z</time>
      </trkpt>
      <trkpt lat="46.63629" lon="5.30999">
        <ele>194.6</ele>
        <time>2022-06-25T06:55:19Z</time>
      </trkpt>
      <trkpt lat="46.63628" lon="5.3099">
        <ele>194.6</ele>
        <time>2022-06-25T06:55:20Z</time>
      </trkpt>
      <trkpt lat="46.63627" lon="5.30982">
        <ele>194.6</ele>
        <time>2022-06-25T06:55:21Z</time>
      </trkpt>
      <trkpt lat="46.63626" lon="5.30974">
        <ele>194.6</ele>
        <time>2022-06-25T06:55:22Z</time>
      </trkpt>
      <trkpt lat="46.63625" lon="5.30965">
        <ele>194.6</ele>
        <time>2022-06-25T06:55:23Z</time>
      </trkpt>
      <trkpt lat="46.63623" lon="5.30956">
        <ele>194.6</ele>
        <time>2022-06-25T06:55:24Z</time>
      </trkpt>
      <trkpt lat="46.63622" lon="5.30948">
        <ele>194.6</ele>
        <time>2022-06-25T06:55:25Z</time>
      </trkpt>
      <trkpt lat="46.63621" lon="5.30939">
        <ele>194.6</ele>
        <time>2022-06-25T06:55:26Z</time>
      </trkpt>
      <trkpt lat="46.6362" lon="5.3093">
        <ele>194.6</ele>
        <time>2022-06-25T06:55:27Z</time>
      </trkpt>
      <trkpt lat="46.63619" lon="5.30921">
        <ele>194.8</ele>
        <time>2022-06-25T06:55:28Z</time>
      </trkpt>
      <trkpt lat="46.63618" lon="5.30912">
        <ele>194.8</ele>
        <time>2022-06-25T06:55:29Z</time>
      </trkpt>
      <trkpt lat="46.63616" lon="5.30903">
        <ele>194.8</ele>
        <time>2022-06-25T06:55:30Z</time>
      </trkpt>
      <trkpt lat="46.63615" lon="5.30893">
        <ele>194.8</ele>
        <time>2022-06-25T06:55:31Z</time>
      </trkpt>
      <trkpt lat="46.63614" lon="5.30884">
        <ele>194.8</ele>
        <time>2022-06-25T06:55:32Z</time>
      </trkpt>
      <trkpt lat="46.63613" lon="5.30875">
        <ele>194.8</ele>
        <time>2022-06-25T06:55:33Z</time>
      </trkpt>
      <trkpt lat="46.63611" lon="5.30866">
        <ele>194.8</ele>
        <time>2022-06-25T06:55:34Z</time>
      </trkpt>
      <trkpt lat="46.6361" lon="5.30856">
        <ele>194.8</ele>
        <time>2022-06-25T06:55:35Z</time>
      </trkpt>
      <trkpt lat="46.63609" lon="5.30847">
        <ele>194.8</ele>
        <time>2022-06-25T06:55:36Z</time>
      </trkpt>
      <trkpt lat="46.63608" lon="5.30838">
        <ele>194.8</ele>
        <time>2022-06-25T06:55:37Z</time>
      </trkpt>
      <trkpt lat="46.63606" lon="5.30829">
        <ele>194.8</ele>
        <time>2022-06-25T06:55:38Z</time>
      </trkpt>
      <trkpt lat="46.63605" lon="5.3082">
        <ele>194.8</ele>
        <time>2022-06-25T06:55:39Z</time>
      </trkpt>
      <trkpt lat="46.63604" lon="5.30811">
        <ele>194.8</ele>
        <time>2022-06-25T06:55:40Z</time>
      </trkpt>
      <trkpt lat="46.63603" lon="5.30802">
        <ele>194.8</ele>
        <time>2022-06-25T06:55:41Z</time>
      </trkpt>
      <trkpt lat="46.63602" lon="5.30793">
        <ele>194.8</ele>
        <time>2022-06-25T06:55:42Z</time>
      </trkpt>
      <trkpt lat="46.636" lon="5.30784">
        <ele>194.8</ele>
        <time>2022-06-25T06:55:43Z</time>
      </trkpt>
      <trkpt lat="46.63599" lon="5.30775">
        <ele>194.8</ele>
        <time>2022-06-25T06:55:44Z</time>
      </trkpt>
      <trkpt lat="46.63598" lon="5.30766">
        <ele>194.8</ele>
        <time>2022-06-25T06:55:45Z</time>
      </trkpt>
      <trkpt lat="46.63597" lon="5.30757">
        <ele>194.8</ele>
        <time>2022-06-25T06:55:46Z</time>
      </trkpt>
      <trkpt lat="46.63596" lon="5.30747">
        <ele>194.8</ele>
        <time>2022-06-25T06:55:47Z</time>
      </trkpt>
      <trkpt lat="46.63595" lon="5.30738">
        <ele>194.8</ele>
        <time>2022-06-25T06:55:48Z</time>
      </trkpt>
      <trkpt lat="46.63594" lon="5.30729">
        <ele>194.8</ele>
        <time>2022-06-25T06:55:49Z</time>
      </trkpt>
      <trkpt lat="46.63594" lon="5.30719">
        <ele>194.6</ele>
        <time>2022-06-25T06:55:50Z</time>
      </trkpt>
      <trkpt lat="46.63593" lon="5.3071">
        <ele>194.6</ele>
        <time>2022-06-25T06:55:51Z</time>
      </trkpt>
      <trkpt lat="46.63593" lon="5.30701">
        <ele>194.6</ele>
        <time>2022-06-25T06:55:52Z</time>
      </trkpt>
      <trkpt lat="46.63592" lon="5.30692">
        <ele>194.6</ele>
        <time>2022-06-25T06:55:53Z</time>
      </trkpt>
      <trkpt lat="46.63591" lon="5.30683">
        <ele>194.6</ele>
        <time>2022-06-25T06:55:54Z</time>
      </trkpt>
      <trkpt lat="46.63591" lon="5.30674">
        <ele>194.6</ele>
        <time>2022-06-25T06:55:55Z</time>
      </trkpt>
      <trkpt lat="46.6359" lon="5.30665">
        <ele>194.6</ele>
        <time>2022-06-25T06:55:56Z</time>
      </trkpt>
      <trkpt lat="46.6359" lon="5.30655">
        <ele>194.6</ele>
        <time>2022-06-25T06:55:57Z</time>
      </trkpt>
      <trkpt lat="46.6359" lon="5.30645">
        <ele>194.6</ele>
        <time>2022-06-25T06:55:58Z</time>
      </trkpt>
      <trkpt lat="46.6359" lon="5.30636">
        <ele>194.6</ele>
        <time>2022-06-25T06:55:59Z</time>
      </trkpt>
      <trkpt lat="46.6359" lon="5.30626">
        <ele>194.6</ele>
        <time>2022-06-25T06:56:00Z</time>
      </trkpt>
      <trkpt lat="46.6359" lon="5.30616">
        <ele>194.6</ele>
        <time>2022-06-25T06:56:01Z</time>
      </trkpt>
      <trkpt lat="46.63591" lon="5.30606">
        <ele>194.6</ele>
        <time>2022-06-25T06:56:02Z</time>
      </trkpt>
      <trkpt lat="46.63591" lon="5.30597">
        <ele>194.6</ele>
        <time>2022-06-25T06:56:03Z</time>
      </trkpt>
      <trkpt lat="46.63592" lon="5.30587">
        <ele>194.6</ele>
        <time>2022-06-25T06:56:04Z</time>
      </trkpt>
      <trkpt lat="46.63593" lon="5.30577">
        <ele>194.6</ele>
        <time>2022-06-25T06:56:05Z</time>
      </trkpt>
      <trkpt lat="46.63594" lon="5.30568">
        <ele>194.6</ele>
        <time>2022-06-25T06:56:06Z</time>
      </trkpt>
      <trkpt lat="46.63595" lon="5.30558">
        <ele>194.6</ele>
        <time>2022-06-25T06:56:07Z</time>
      </trkpt>
      <trkpt lat="46.63596" lon="5.30548">
        <ele>194.6</ele>
        <time>2022-06-25T06:56:08Z</time>
      </trkpt>
      <trkpt lat="46.63597" lon="5.30539">
        <ele>194.4</ele>
        <time>2022-06-25T06:56:09Z</time>
      </trkpt>
      <trkpt lat="46.63598" lon="5.30529">
        <ele>194.4</ele>
        <time>2022-06-25T06:56:10Z</time>
      </trkpt>
      <trkpt lat="46.63599" lon="5.3052">
        <ele>194.4</ele>
        <time>2022-06-25T06:56:11Z</time>
      </trkpt>
      <trkpt lat="46.636" lon="5.30511">
        <ele>194</ele>
        <time>2022-06-25T06:56:12Z</time>
      </trkpt>
      <trkpt lat="46.63602" lon="5.30502">
        <ele>194</ele>
        <time>2022-06-25T06:56:13Z</time>
      </trkpt>
      <trkpt lat="46.63603" lon="5.30493">
        <ele>194</ele>
        <time>2022-06-25T06:56:14Z</time>
      </trkpt>
      <trkpt lat="46.63605" lon="5.30484">
        <ele>193.8</ele>
        <time>2022-06-25T06:56:15Z</time>
      </trkpt>
      <trkpt lat="46.63606" lon="5.30476">
        <ele>193.8</ele>
        <time>2022-06-25T06:56:16Z</time>
      </trkpt>
      <trkpt lat="46.63607" lon="5.30468">
        <ele>193.8</ele>
        <time>2022-06-25T06:56:17Z</time>
      </trkpt>
      <trkpt lat="46.63608" lon="5.30462">
        <ele>193.8</ele>
        <time>2022-06-25T06:56:18Z</time>
      </trkpt>
      <trkpt lat="46.63609" lon="5.30456">
        <ele>193.6</ele>
        <time>2022-06-25T06:56:19Z</time>
      </trkpt>
      <trkpt lat="46.6361" lon="5.30452">
        <ele>193.6</ele>
        <time>2022-06-25T06:56:20Z</time>
      </trkpt>
      <trkpt lat="46.63612" lon="5.30448">
        <ele>193.6</ele>
        <time>2022-06-25T06:56:21Z</time>
      </trkpt>
      <trkpt lat="46.63613" lon="5.30444">
        <ele>193.6</ele>
        <time>2022-06-25T06:56:22Z</time>
      </trkpt>
      <trkpt lat="46.63614" lon="5.30439">
        <ele>193.6</ele>
        <time>2022-06-25T06:56:23Z</time>
      </trkpt>
      <trkpt lat="46.63615" lon="5.30433">
        <ele>193.6</ele>
        <time>2022-06-25T06:56:24Z</time>
      </trkpt>
      <trkpt lat="46.63616" lon="5.30427">
        <ele>193.8</ele>
        <time>2022-06-25T06:56:25Z</time>
      </trkpt>
      <trkpt lat="46.63617" lon="5.30421">
        <ele>193.8</ele>
        <time>2022-06-25T06:56:26Z</time>
      </trkpt>
      <trkpt lat="46.63619" lon="5.30414">
        <ele>193.8</ele>
        <time>2022-06-25T06:56:27Z</time>
      </trkpt>
      <trkpt lat="46.63621" lon="5.30408">
        <ele>193.8</ele>
        <time>2022-06-25T06:56:28Z</time>
      </trkpt>
      <trkpt lat="46.63623" lon="5.30402">
        <ele>193.8</ele>
        <time>2022-06-25T06:56:29Z</time>
      </trkpt>
      <trkpt lat="46.63625" lon="5.30396">
        <ele>193.8</ele>
        <time>2022-06-25T06:56:30Z</time>
      </trkpt>
      <trkpt lat="46.63627" lon="5.3039">
        <ele>193.8</ele>
        <time>2022-06-25T06:56:31Z</time>
      </trkpt>
      <trkpt lat="46.63629" lon="5.30383">
        <ele>193.8</ele>
        <time>2022-06-25T06:56:32Z</time>
      </trkpt>
      <trkpt lat="46.63631" lon="5.30377">
        <ele>193.8</ele>
        <time>2022-06-25T06:56:33Z</time>
      </trkpt>
      <trkpt lat="46.63633" lon="5.3037">
        <ele>193.8</ele>
        <time>2022-06-25T06:56:34Z</time>
      </trkpt>
      <trkpt lat="46.63635" lon="5.30363">
        <ele>193.8</ele>
        <time>2022-06-25T06:56:35Z</time>
      </trkpt>
      <trkpt lat="46.63638" lon="5.30356">
        <ele>193.8</ele>
        <time>2022-06-25T06:56:36Z</time>
      </trkpt>
      <trkpt lat="46.6364" lon="5.30349">
        <ele>193.8</ele>
        <time>2022-06-25T06:56:37Z</time>
      </trkpt>
      <trkpt lat="46.63643" lon="5.30342">
        <ele>193.8</ele>
        <time>2022-06-25T06:56:38Z</time>
      </trkpt>
      <trkpt lat="46.63645" lon="5.30335">
        <ele>193.8</ele>
        <time>2022-06-25T06:56:39Z</time>
      </trkpt>
      <trkpt lat="46.63648" lon="5.30329">
        <ele>193.8</ele>
        <time>2022-06-25T06:56:40Z</time>
      </trkpt>
      <trkpt lat="46.63651" lon="5.30322">
        <ele>193.8</ele>
        <time>2022-06-25T06:56:41Z</time>
      </trkpt>
      <trkpt lat="46.63654" lon="5.30315">
        <ele>193.8</ele>
        <time>2022-06-25T06:56:42Z</time>
      </trkpt>
      <trkpt lat="46.63657" lon="5.30308">
        <ele>193.8</ele>
        <time>2022-06-25T06:56:43Z</time>
      </trkpt>
      <trkpt lat="46.63659" lon="5.30301">
        <ele>193.8</ele>
        <time>2022-06-25T06:56:44Z</time>
      </trkpt>
      <trkpt lat="46.63662" lon="5.30294">
        <ele>193.8</ele>
        <time>2022-06-25T06:56:45Z</time>
      </trkpt>
      <trkpt lat="46.63665" lon="5.30287">
        <ele>193.8</ele>
        <time>2022-06-25T06:56:46Z</time>
      </trkpt>
      <trkpt lat="46.63668" lon="5.30281">
        <ele>193.8</ele>
        <time>2022-06-25T06:56:47Z</time>
      </trkpt>
      <trkpt lat="46.63671" lon="5.30274">
        <ele>193.8</ele>
        <time>2022-06-25T06:56:48Z</time>
      </trkpt>
      <trkpt lat="46.63675" lon="5.30268">
        <ele>193.8</ele>
        <time>2022-06-25T06:56:49Z</time>
      </trkpt>
      <trkpt lat="46.63678" lon="5.30261">
        <ele>193.8</ele>
        <time>2022-06-25T06:56:50Z</time>
      </trkpt>
      <trkpt lat="46.63681" lon="5.30255">
        <ele>193.8</ele>
        <time>2022-06-25T06:56:51Z</time>
      </trkpt>
      <trkpt lat="46.63685" lon="5.30248">
        <ele>193.8</ele>
        <time>2022-06-25T06:56:52Z</time>
      </trkpt>
      <trkpt lat="46.63688" lon="5.30242">
        <ele>193.8</ele>
        <time>2022-06-25T06:56:53Z</time>
      </trkpt>
      <trkpt lat="46.63692" lon="5.30236">
        <ele>193.8</ele>
        <time>2022-06-25T06:56:54Z</time>
      </trkpt>
      <trkpt lat="46.63695" lon="5.30229">
        <ele>193.8</ele>
        <time>2022-06-25T06:56:55Z</time>
      </trkpt>
      <trkpt lat="46.63698" lon="5.30223">
        <ele>193.8</ele>
        <time>2022-06-25T06:56:56Z</time>
      </trkpt>
      <trkpt lat="46.63701" lon="5.30216">
        <ele>193.8</ele>
        <time>2022-06-25T06:56:57Z</time>
      </trkpt>
      <trkpt lat="46.63704" lon="5.3021">
        <ele>193.8</ele>
        <time>2022-06-25T06:56:58Z</time>
      </trkpt>
      <trkpt lat="46.63708" lon="5.30203">
        <ele>193.8</ele>
        <time>2022-06-25T06:56:59Z</time>
      </trkpt>
      <trkpt lat="46.63711" lon="5.30197">
        <ele>193.8</ele>
        <time>2022-06-25T06:57:00Z</time>
      </trkpt>
      <trkpt lat="46.63713" lon="5.30191">
        <ele>193.8</ele>
        <time>2022-06-25T06:57:01Z</time>
      </trkpt>
      <trkpt lat="46.63716" lon="5.30186">
        <ele>193.8</ele>
        <time>2022-06-25T06:57:02Z</time>
      </trkpt>
      <trkpt lat="46.63718" lon="5.30181">
        <ele>193.8</ele>
        <time>2022-06-25T06:57:03Z</time>
      </trkpt>
      <trkpt lat="46.6372" lon="5.30178">
        <ele>193.6</ele>
        <time>2022-06-25T06:57:04Z</time>
      </trkpt>
      <trkpt lat="46.63722" lon="5.30175">
        <ele>193.6</ele>
        <time>2022-06-25T06:57:05Z</time>
      </trkpt>
      <trkpt lat="46.63725" lon="5.30171">
        <ele>193.6</ele>
        <time>2022-06-25T06:57:06Z</time>
      </trkpt>
      <trkpt lat="46.63727" lon="5.30167">
        <ele>193.6</ele>
        <time>2022-06-25T06:57:07Z</time>
      </trkpt>
      <trkpt lat="46.6373" lon="5.30162">
        <ele>193.6</ele>
        <time>2022-06-25T06:57:08Z</time>
      </trkpt>
      <trkpt lat="46.63732" lon="5.30157">
        <ele>193.6</ele>
        <time>2022-06-25T06:57:09Z</time>
      </trkpt>
      <trkpt lat="46.63735" lon="5.30152">
        <ele>193.6</ele>
        <time>2022-06-25T06:57:10Z</time>
      </trkpt>
      <trkpt lat="46.63739" lon="5.30147">
        <ele>193.6</ele>
        <time>2022-06-25T06:57:11Z</time>
      </trkpt>
      <trkpt lat="46.63742" lon="5.30141">
        <ele>193.8</ele>
        <time>2022-06-25T06:57:12Z</time>
      </trkpt>
      <trkpt lat="46.63745" lon="5.30136">
        <ele>193.8</ele>
        <time>2022-06-25T06:57:13Z</time>
      </trkpt>
      <trkpt lat="46.63748" lon="5.3013">
        <ele>193.8</ele>
        <time>2022-06-25T06:57:14Z</time>
      </trkpt>
      <trkpt lat="46.63751" lon="5.30125">
        <ele>193.8</ele>
        <time>2022-06-25T06:57:15Z</time>
      </trkpt>
      <trkpt lat="46.63754" lon="5.30119">
        <ele>193.8</ele>
        <time>2022-06-25T06:57:16Z</time>
      </trkpt>
      <trkpt lat="46.63757" lon="5.30113">
        <ele>193.8</ele>
        <time>2022-06-25T06:57:17Z</time>
      </trkpt>
      <trkpt lat="46.6376" lon="5.30106">
        <ele>193.8</ele>
        <time>2022-06-25T06:57:18Z</time>
      </trkpt>
      <trkpt lat="46.63762" lon="5.301">
        <ele>193.8</ele>
        <time>2022-06-25T06:57:19Z</time>
      </trkpt>
      <trkpt lat="46.63765" lon="5.30093">
        <ele>193.8</ele>
        <time>2022-06-25T06:57:20Z</time>
      </trkpt>
      <trkpt lat="46.63768" lon="5.30087">
        <ele>193.8</ele>
        <time>2022-06-25T06:57:21Z</time>
      </trkpt>
      <trkpt lat="46.6377" lon="5.3008">
        <ele>193.8</ele>
        <time>2022-06-25T06:57:22Z</time>
      </trkpt>
      <trkpt lat="46.63773" lon="5.30073">
        <ele>193.8</ele>
        <time>2022-06-25T06:57:23Z</time>
      </trkpt>
      <trkpt lat="46.63775" lon="5.30066">
        <ele>193.8</ele>
        <time>2022-06-25T06:57:24Z</time>
      </trkpt>
      <trkpt lat="46.63777" lon="5.30058">
        <ele>193.8</ele>
        <time>2022-06-25T06:57:25Z</time>
      </trkpt>
      <trkpt lat="46.63779" lon="5.30051">
        <ele>193.8</ele>
        <time>2022-06-25T06:57:26Z</time>
      </trkpt>
      <trkpt lat="46.63781" lon="5.30044">
        <ele>193.8</ele>
        <time>2022-06-25T06:57:27Z</time>
      </trkpt>
      <trkpt lat="46.63783" lon="5.30037">
        <ele>193.8</ele>
        <time>2022-06-25T06:57:28Z</time>
      </trkpt>
      <trkpt lat="46.63785" lon="5.3003">
        <ele>193.8</ele>
        <time>2022-06-25T06:57:29Z</time>
      </trkpt>
      <trkpt lat="46.63786" lon="5.30024">
        <ele>193.8</ele>
        <time>2022-06-25T06:57:30Z</time>
      </trkpt>
      <trkpt lat="46.63788" lon="5.30017">
        <ele>193.8</ele>
        <time>2022-06-25T06:57:31Z</time>
      </trkpt>
      <trkpt lat="46.63789" lon="5.30011">
        <ele>193.8</ele>
        <time>2022-06-25T06:57:32Z</time>
      </trkpt>
      <trkpt lat="46.63791" lon="5.30004">
        <ele>193.8</ele>
        <time>2022-06-25T06:57:33Z</time>
      </trkpt>
      <trkpt lat="46.63793" lon="5.29997">
        <ele>193.8</ele>
        <time>2022-06-25T06:57:34Z</time>
      </trkpt>
      <trkpt lat="46.63795" lon="5.2999">
        <ele>193.8</ele>
        <time>2022-06-25T06:57:35Z</time>
      </trkpt>
      <trkpt lat="46.63798" lon="5.29983">
        <ele>193.8</ele>
        <time>2022-06-25T06:57:36Z</time>
      </trkpt>
      <trkpt lat="46.638" lon="5.29976">
        <ele>193.8</ele>
        <time>2022-06-25T06:57:37Z</time>
      </trkpt>
      <trkpt lat="46.63802" lon="5.29968">
        <ele>193.8</ele>
        <time>2022-06-25T06:57:38Z</time>
      </trkpt>
      <trkpt lat="46.63803" lon="5.2996">
        <ele>193.8</ele>
        <time>2022-06-25T06:57:39Z</time>
      </trkpt>
      <trkpt lat="46.63805" lon="5.29952">
        <ele>193.8</ele>
        <time>2022-06-25T06:57:40Z</time>
      </trkpt>
      <trkpt lat="46.63806" lon="5.29944">
        <ele>193.8</ele>
        <time>2022-06-25T06:57:41Z</time>
      </trkpt>
      <trkpt lat="46.63807" lon="5.29935">
        <ele>193.8</ele>
        <time>2022-06-25T06:57:42Z</time>
      </trkpt>
      <trkpt lat="46.63808" lon="5.29927">
        <ele>193.8</ele>
        <time>2022-06-25T06:57:43Z</time>
      </trkpt>
      <trkpt lat="46.63809" lon="5.29918">
        <ele>193.8</ele>
        <time>2022-06-25T06:57:44Z</time>
      </trkpt>
      <trkpt lat="46.63809" lon="5.2991">
        <ele>193.8</ele>
        <time>2022-06-25T06:57:45Z</time>
      </trkpt>
      <trkpt lat="46.6381" lon="5.29902">
        <ele>193.8</ele>
        <time>2022-06-25T06:57:46Z</time>
      </trkpt>
      <trkpt lat="46.6381" lon="5.29893">
        <ele>193.8</ele>
        <time>2022-06-25T06:57:47Z</time>
      </trkpt>
      <trkpt lat="46.63811" lon="5.29885">
        <ele>193.8</ele>
        <time>2022-06-25T06:57:48Z</time>
      </trkpt>
      <trkpt lat="46.63811" lon="5.29877">
        <ele>193.8</ele>
        <time>2022-06-25T06:57:49Z</time>
      </trkpt>
      <trkpt lat="46.63811" lon="5.29868">
        <ele>193.8</ele>
        <time>2022-06-25T06:57:50Z</time>
      </trkpt>
      <trkpt lat="46.63811" lon="5.29859">
        <ele>193.8</ele>
        <time>2022-06-25T06:57:51Z</time>
      </trkpt>
      <trkpt lat="46.63811" lon="5.29851">
        <ele>193.8</ele>
        <time>2022-06-25T06:57:52Z</time>
      </trkpt>
      <trkpt lat="46.63811" lon="5.29843">
        <ele>193.8</ele>
        <time>2022-06-25T06:57:53Z</time>
      </trkpt>
      <trkpt lat="46.63811" lon="5.29837">
        <ele>193.8</ele>
        <time>2022-06-25T06:57:54Z</time>
      </trkpt>
      <trkpt lat="46.63811" lon="5.29832">
        <ele>193.8</ele>
        <time>2022-06-25T06:57:55Z</time>
      </trkpt>
      <trkpt lat="46.63811" lon="5.29823">
        <ele>193.8</ele>
        <time>2022-06-25T06:57:56Z</time>
      </trkpt>
      <trkpt lat="46.63811" lon="5.29819">
        <ele>193.8</ele>
        <time>2022-06-25T06:57:57Z</time>
      </trkpt>
      <trkpt lat="46.63811" lon="5.29813">
        <ele>193.8</ele>
        <time>2022-06-25T06:57:58Z</time>
      </trkpt>
      <trkpt lat="46.6381" lon="5.29807">
        <ele>193.8</ele>
        <time>2022-06-25T06:57:59Z</time>
      </trkpt>
      <trkpt lat="46.6381" lon="5.298">
        <ele>193.8</ele>
        <time>2022-06-25T06:58:00Z</time>
      </trkpt>
      <trkpt lat="46.63809" lon="5.29793">
        <ele>193.8</ele>
        <time>2022-06-25T06:58:01Z</time>
      </trkpt>
      <trkpt lat="46.63808" lon="5.29785">
        <ele>193.8</ele>
        <time>2022-06-25T06:58:02Z</time>
      </trkpt>
      <trkpt lat="46.63808" lon="5.29776">
        <ele>193.8</ele>
        <time>2022-06-25T06:58:03Z</time>
      </trkpt>
      <trkpt lat="46.63807" lon="5.29768">
        <ele>193.8</ele>
        <time>2022-06-25T06:58:04Z</time>
      </trkpt>
      <trkpt lat="46.63806" lon="5.2976">
        <ele>193.8</ele>
        <time>2022-06-25T06:58:05Z</time>
      </trkpt>
      <trkpt lat="46.63805" lon="5.29751">
        <ele>193.8</ele>
        <time>2022-06-25T06:58:06Z</time>
      </trkpt>
      <trkpt lat="46.63804" lon="5.29743">
        <ele>193.8</ele>
        <time>2022-06-25T06:58:07Z</time>
      </trkpt>
      <trkpt lat="46.63803" lon="5.29735">
        <ele>193.8</ele>
        <time>2022-06-25T06:58:08Z</time>
      </trkpt>
      <trkpt lat="46.63802" lon="5.29727">
        <ele>193.8</ele>
        <time>2022-06-25T06:58:09Z</time>
      </trkpt>
      <trkpt lat="46.63801" lon="5.29719">
        <ele>193.8</ele>
        <time>2022-06-25T06:58:10Z</time>
      </trkpt>
      <trkpt lat="46.638" lon="5.29711">
        <ele>193.8</ele>
        <time>2022-06-25T06:58:11Z</time>
      </trkpt>
      <trkpt lat="46.63799" lon="5.29703">
        <ele>193.6</ele>
        <time>2022-06-25T06:58:12Z</time>
      </trkpt>
      <trkpt lat="46.63798" lon="5.29695">
        <ele>193.6</ele>
        <time>2022-06-25T06:58:13Z</time>
      </trkpt>
      <trkpt lat="46.63797" lon="5.29687">
        <ele>193.6</ele>
        <time>2022-06-25T06:58:14Z</time>
      </trkpt>
      <trkpt lat="46.63796" lon="5.29679">
        <ele>193.6</ele>
        <time>2022-06-25T06:58:15Z</time>
      </trkpt>
      <trkpt lat="46.63794" lon="5.29671">
        <ele>193.6</ele>
        <time>2022-06-25T06:58:16Z</time>
      </trkpt>
      <trkpt lat="46.63793" lon="5.29663">
        <ele>193.6</ele>
        <time>2022-06-25T06:58:17Z</time>
      </trkpt>
      <trkpt lat="46.63792" lon="5.29654">
        <ele>193.6</ele>
        <time>2022-06-25T06:58:18Z</time>
      </trkpt>
      <trkpt lat="46.63791" lon="5.29646">
        <ele>193.6</ele>
        <time>2022-06-25T06:58:19Z</time>
      </trkpt>
      <trkpt lat="46.63789" lon="5.29638">
        <ele>193.4</ele>
        <time>2022-06-25T06:58:20Z</time>
      </trkpt>
      <trkpt lat="46.63788" lon="5.2963">
        <ele>193.4</ele>
        <time>2022-06-25T06:58:21Z</time>
      </trkpt>
      <trkpt lat="46.63786" lon="5.29621">
        <ele>193.4</ele>
        <time>2022-06-25T06:58:22Z</time>
      </trkpt>
      <trkpt lat="46.63785" lon="5.29613">
        <ele>193.4</ele>
        <time>2022-06-25T06:58:23Z</time>
      </trkpt>
      <trkpt lat="46.63783" lon="5.29605">
        <ele>193.4</ele>
        <time>2022-06-25T06:58:24Z</time>
      </trkpt>
      <trkpt lat="46.63782" lon="5.29597">
        <ele>193.4</ele>
        <time>2022-06-25T06:58:25Z</time>
      </trkpt>
      <trkpt lat="46.6378" lon="5.29588">
        <ele>193.4</ele>
        <time>2022-06-25T06:58:26Z</time>
      </trkpt>
      <trkpt lat="46.63778" lon="5.2958">
        <ele>193.4</ele>
        <time>2022-06-25T06:58:27Z</time>
      </trkpt>
      <trkpt lat="46.63776" lon="5.29572">
        <ele>193.4</ele>
        <time>2022-06-25T06:58:28Z</time>
      </trkpt>
      <trkpt lat="46.63775" lon="5.29564">
        <ele>193.4</ele>
        <time>2022-06-25T06:58:29Z</time>
      </trkpt>
      <trkpt lat="46.63773" lon="5.29555">
        <ele>193.4</ele>
        <time>2022-06-25T06:58:30Z</time>
      </trkpt>
      <trkpt lat="46.63771" lon="5.29547">
        <ele>193.4</ele>
        <time>2022-06-25T06:58:31Z</time>
      </trkpt>
      <trkpt lat="46.63769" lon="5.29539">
        <ele>193.4</ele>
        <time>2022-06-25T06:58:32Z</time>
      </trkpt>
      <trkpt lat="46.63767" lon="5.29531">
        <ele>193.4</ele>
        <time>2022-06-25T06:58:33Z</time>
      </trkpt>
      <trkpt lat="46.63765" lon="5.29523">
        <ele>193.4</ele>
        <time>2022-06-25T06:58:34Z</time>
      </trkpt>
      <trkpt lat="46.63762" lon="5.29515">
        <ele>193.4</ele>
        <time>2022-06-25T06:58:35Z</time>
      </trkpt>
      <trkpt lat="46.6376" lon="5.29507">
        <ele>193.4</ele>
        <time>2022-06-25T06:58:36Z</time>
      </trkpt>
      <trkpt lat="46.63758" lon="5.29499">
        <ele>193.4</ele>
        <time>2022-06-25T06:58:37Z</time>
      </trkpt>
      <trkpt lat="46.63755" lon="5.29491">
        <ele>193</ele>
        <time>2022-06-25T06:58:38Z</time>
      </trkpt>
      <trkpt lat="46.63753" lon="5.29483">
        <ele>193</ele>
        <time>2022-06-25T06:58:39Z</time>
      </trkpt>
      <trkpt lat="46.63751" lon="5.29475">
        <ele>192.8</ele>
        <time>2022-06-25T06:58:40Z</time>
      </trkpt>
      <trkpt lat="46.63749" lon="5.29467">
        <ele>192.8</ele>
        <time>2022-06-25T06:58:41Z</time>
      </trkpt>
      <trkpt lat="46.63748" lon="5.2946">
        <ele>192.8</ele>
        <time>2022-06-25T06:58:42Z</time>
      </trkpt>
      <trkpt lat="46.63746" lon="5.29452">
        <ele>192.6</ele>
        <time>2022-06-25T06:58:43Z</time>
      </trkpt>
      <trkpt lat="46.63744" lon="5.29445">
        <ele>192.6</ele>
        <time>2022-06-25T06:58:44Z</time>
      </trkpt>
      <trkpt lat="46.63742" lon="5.29437">
        <ele>192.6</ele>
        <time>2022-06-25T06:58:45Z</time>
      </trkpt>
      <trkpt lat="46.6374" lon="5.29429">
        <ele>192.6</ele>
        <time>2022-06-25T06:58:46Z</time>
      </trkpt>
      <trkpt lat="46.63737" lon="5.29421">
        <ele>192.6</ele>
        <time>2022-06-25T06:58:47Z</time>
      </trkpt>
      <trkpt lat="46.63735" lon="5.29413">
        <ele>192.6</ele>
        <time>2022-06-25T06:58:48Z</time>
      </trkpt>
      <trkpt lat="46.63733" lon="5.29405">
        <ele>192.6</ele>
        <time>2022-06-25T06:58:49Z</time>
      </trkpt>
      <trkpt lat="46.63731" lon="5.29398">
        <ele>192.6</ele>
        <time>2022-06-25T06:58:50Z</time>
      </trkpt>
      <trkpt lat="46.63728" lon="5.29389">
        <ele>192.4</ele>
        <time>2022-06-25T06:58:51Z</time>
      </trkpt>
      <trkpt lat="46.63726" lon="5.29381">
        <ele>192.4</ele>
        <time>2022-06-25T06:58:52Z</time>
      </trkpt>
      <trkpt lat="46.63724" lon="5.29373">
        <ele>192.4</ele>
        <time>2022-06-25T06:58:53Z</time>
      </trkpt>
      <trkpt lat="46.63722" lon="5.29365">
        <ele>192.4</ele>
        <time>2022-06-25T06:58:54Z</time>
      </trkpt>
      <trkpt lat="46.6372" lon="5.29356">
        <ele>192.4</ele>
        <time>2022-06-25T06:58:55Z</time>
      </trkpt>
      <trkpt lat="46.63719" lon="5.29348">
        <ele>192.2</ele>
        <time>2022-06-25T06:58:56Z</time>
      </trkpt>
      <trkpt lat="46.63717" lon="5.2934">
        <ele>192.2</ele>
        <time>2022-06-25T06:58:57Z</time>
      </trkpt>
      <trkpt lat="46.63716" lon="5.29332">
        <ele>192</ele>
        <time>2022-06-25T06:58:58Z</time>
      </trkpt>
      <trkpt lat="46.63715" lon="5.29324">
        <ele>192</ele>
        <time>2022-06-25T06:58:59Z</time>
      </trkpt>
      <trkpt lat="46.63714" lon="5.29316">
        <ele>192</ele>
        <time>2022-06-25T06:59:00Z</time>
      </trkpt>
      <trkpt lat="46.63713" lon="5.29307">
        <ele>192</ele>
        <time>2022-06-25T06:59:01Z</time>
      </trkpt>
      <trkpt lat="46.63711" lon="5.29297">
        <ele>192</ele>
        <time>2022-06-25T06:59:02Z</time>
      </trkpt>
      <trkpt lat="46.6371" lon="5.29288">
        <ele>192</ele>
        <time>2022-06-25T06:59:03Z</time>
      </trkpt>
      <trkpt lat="46.63709" lon="5.29279">
        <ele>192</ele>
        <time>2022-06-25T06:59:04Z</time>
      </trkpt>
      <trkpt lat="46.63708" lon="5.2927">
        <ele>192</ele>
        <time>2022-06-25T06:59:05Z</time>
      </trkpt>
      <trkpt lat="46.63707" lon="5.29261">
        <ele>192</ele>
        <time>2022-06-25T06:59:06Z</time>
      </trkpt>
      <trkpt lat="46.63705" lon="5.29252">
        <ele>192</ele>
        <time>2022-06-25T06:59:07Z</time>
      </trkpt>
      <trkpt lat="46.63704" lon="5.29243">
        <ele>191.8</ele>
        <time>2022-06-25T06:59:08Z</time>
      </trkpt>
      <trkpt lat="46.63704" lon="5.29234">
        <ele>191.8</ele>
        <time>2022-06-25T06:59:09Z</time>
      </trkpt>
      <trkpt lat="46.63702" lon="5.29224">
        <ele>191.8</ele>
        <time>2022-06-25T06:59:10Z</time>
      </trkpt>
      <trkpt lat="46.63701" lon="5.29215">
        <ele>191.8</ele>
        <time>2022-06-25T06:59:11Z</time>
      </trkpt>
      <trkpt lat="46.63701" lon="5.29205">
        <ele>191.8</ele>
        <time>2022-06-25T06:59:12Z</time>
      </trkpt>
      <trkpt lat="46.637" lon="5.29196">
        <ele>191.8</ele>
        <time>2022-06-25T06:59:13Z</time>
      </trkpt>
      <trkpt lat="46.637" lon="5.29187">
        <ele>191.8</ele>
        <time>2022-06-25T06:59:14Z</time>
      </trkpt>
      <trkpt lat="46.63699" lon="5.29178">
        <ele>191.8</ele>
        <time>2022-06-25T06:59:15Z</time>
      </trkpt>
      <trkpt lat="46.63699" lon="5.29169">
        <ele>191.8</ele>
        <time>2022-06-25T06:59:16Z</time>
      </trkpt>
      <trkpt lat="46.63699" lon="5.2916">
        <ele>191.8</ele>
        <time>2022-06-25T06:59:17Z</time>
      </trkpt>
      <trkpt lat="46.63699" lon="5.29151">
        <ele>191.6</ele>
        <time>2022-06-25T06:59:18Z</time>
      </trkpt>
      <trkpt lat="46.63699" lon="5.29142">
        <ele>191.6</ele>
        <time>2022-06-25T06:59:19Z</time>
      </trkpt>
      <trkpt lat="46.63699" lon="5.29133">
        <ele>191.6</ele>
        <time>2022-06-25T06:59:20Z</time>
      </trkpt>
      <trkpt lat="46.63699" lon="5.29124">
        <ele>191.6</ele>
        <time>2022-06-25T06:59:21Z</time>
      </trkpt>
      <trkpt lat="46.63699" lon="5.29116">
        <ele>191.6</ele>
        <time>2022-06-25T06:59:22Z</time>
      </trkpt>
      <trkpt lat="46.637" lon="5.29107">
        <ele>191.6</ele>
        <time>2022-06-25T06:59:23Z</time>
      </trkpt>
      <trkpt lat="46.637" lon="5.29099">
        <ele>191.6</ele>
        <time>2022-06-25T06:59:24Z</time>
      </trkpt>
      <trkpt lat="46.63701" lon="5.2909">
        <ele>191.6</ele>
        <time>2022-06-25T06:59:25Z</time>
      </trkpt>
      <trkpt lat="46.63702" lon="5.29082">
        <ele>191.2</ele>
        <time>2022-06-25T06:59:26Z</time>
      </trkpt>
      <trkpt lat="46.63702" lon="5.29073">
        <ele>191.2</ele>
        <time>2022-06-25T06:59:27Z</time>
      </trkpt>
      <trkpt lat="46.63703" lon="5.29065">
        <ele>191.2</ele>
        <time>2022-06-25T06:59:28Z</time>
      </trkpt>
      <trkpt lat="46.63703" lon="5.29058">
        <ele>191.2</ele>
        <time>2022-06-25T06:59:29Z</time>
      </trkpt>
      <trkpt lat="46.63704" lon="5.29051">
        <ele>191.2</ele>
        <time>2022-06-25T06:59:30Z</time>
      </trkpt>
      <trkpt lat="46.63704" lon="5.29046">
        <ele>191</ele>
        <time>2022-06-25T06:59:31Z</time>
      </trkpt>
      <trkpt lat="46.63705" lon="5.29041">
        <ele>191</ele>
        <time>2022-06-25T06:59:32Z</time>
      </trkpt>
      <trkpt lat="46.63706" lon="5.29037">
        <ele>191</ele>
        <time>2022-06-25T06:59:33Z</time>
      </trkpt>
      <trkpt lat="46.63707" lon="5.29032">
        <ele>191</ele>
        <time>2022-06-25T06:59:34Z</time>
      </trkpt>
      <trkpt lat="46.63708" lon="5.29027">
        <ele>191</ele>
        <time>2022-06-25T06:59:35Z</time>
      </trkpt>
      <trkpt lat="46.63708" lon="5.29022">
        <ele>191</ele>
        <time>2022-06-25T06:59:36Z</time>
      </trkpt>
      <trkpt lat="46.63709" lon="5.29016">
        <ele>191</ele>
        <time>2022-06-25T06:59:37Z</time>
      </trkpt>
      <trkpt lat="46.63709" lon="5.2901">
        <ele>191</ele>
        <time>2022-06-25T06:59:38Z</time>
      </trkpt>
      <trkpt lat="46.6371" lon="5.29005">
        <ele>191</ele>
        <time>2022-06-25T06:59:39Z</time>
      </trkpt>
      <trkpt lat="46.6371" lon="5.28999">
        <ele>191</ele>
        <time>2022-06-25T06:59:40Z</time>
      </trkpt>
      <trkpt lat="46.63711" lon="5.28993">
        <ele>191</ele>
        <time>2022-06-25T06:59:41Z</time>
      </trkpt>
      <trkpt lat="46.63712" lon="5.28987">
        <ele>191</ele>
        <time>2022-06-25T06:59:42Z</time>
      </trkpt>
      <trkpt lat="46.63713" lon="5.28981">
        <ele>191</ele>
        <time>2022-06-25T06:59:43Z</time>
      </trkpt>
      <trkpt lat="46.63714" lon="5.28975">
        <ele>191</ele>
        <time>2022-06-25T06:59:44Z</time>
      </trkpt>
      <trkpt lat="46.63715" lon="5.28968">
        <ele>191</ele>
        <time>2022-06-25T06:59:45Z</time>
      </trkpt>
      <trkpt lat="46.63716" lon="5.28962">
        <ele>191</ele>
        <time>2022-06-25T06:59:46Z</time>
      </trkpt>
      <trkpt lat="46.63717" lon="5.28954">
        <ele>191</ele>
        <time>2022-06-25T06:59:47Z</time>
      </trkpt>
      <trkpt lat="46.63717" lon="5.28947">
        <ele>191.2</ele>
        <time>2022-06-25T06:59:48Z</time>
      </trkpt>
      <trkpt lat="46.63718" lon="5.2894">
        <ele>191.2</ele>
        <time>2022-06-25T06:59:49Z</time>
      </trkpt>
      <trkpt lat="46.63719" lon="5.28933">
        <ele>191.2</ele>
        <time>2022-06-25T06:59:50Z</time>
      </trkpt>
      <trkpt lat="46.6372" lon="5.28926">
        <ele>191.2</ele>
        <time>2022-06-25T06:59:51Z</time>
      </trkpt>
      <trkpt lat="46.6372" lon="5.28918">
        <ele>191.4</ele>
        <time>2022-06-25T06:59:52Z</time>
      </trkpt>
      <trkpt lat="46.63721" lon="5.28911">
        <ele>191.4</ele>
        <time>2022-06-25T06:59:53Z</time>
      </trkpt>
      <trkpt lat="46.63722" lon="5.28904">
        <ele>191.4</ele>
        <time>2022-06-25T06:59:54Z</time>
      </trkpt>
      <trkpt lat="46.63722" lon="5.28896">
        <ele>191.4</ele>
        <time>2022-06-25T06:59:55Z</time>
      </trkpt>
      <trkpt lat="46.63723" lon="5.28888">
        <ele>191.4</ele>
        <time>2022-06-25T06:59:56Z</time>
      </trkpt>
      <trkpt lat="46.63723" lon="5.28881">
        <ele>191.4</ele>
        <time>2022-06-25T06:59:57Z</time>
      </trkpt>
      <trkpt lat="46.63724" lon="5.28873">
        <ele>191.4</ele>
        <time>2022-06-25T06:59:58Z</time>
      </trkpt>
      <trkpt lat="46.63724" lon="5.28865">
        <ele>191.6</ele>
        <time>2022-06-25T06:59:59Z</time>
      </trkpt>
      <trkpt lat="46.63724" lon="5.28857">
        <ele>191.6</ele>
        <time>2022-06-25T07:00:00Z</time>
      </trkpt>
      <trkpt lat="46.63724" lon="5.28849">
        <ele>191.6</ele>
        <time>2022-06-25T07:00:01Z</time>
      </trkpt>
      <trkpt lat="46.63724" lon="5.28841">
        <ele>191.6</ele>
        <time>2022-06-25T07:00:02Z</time>
      </trkpt>
      <trkpt lat="46.63724" lon="5.28833">
        <ele>192</ele>
        <time>2022-06-25T07:00:03Z</time>
      </trkpt>
      <trkpt lat="46.63723" lon="5.28824">
        <ele>192</ele>
        <time>2022-06-25T07:00:04Z</time>
      </trkpt>
      <trkpt lat="46.63723" lon="5.28816">
        <ele>192</ele>
        <time>2022-06-25T07:00:05Z</time>
      </trkpt>
      <trkpt lat="46.63723" lon="5.28808">
        <ele>192</ele>
        <time>2022-06-25T07:00:06Z</time>
      </trkpt>
      <trkpt lat="46.63722" lon="5.28799">
        <ele>192</ele>
        <time>2022-06-25T07:00:07Z</time>
      </trkpt>
      <trkpt lat="46.63722" lon="5.28791">
        <ele>192</ele>
        <time>2022-06-25T07:00:08Z</time>
      </trkpt>
      <trkpt lat="46.63721" lon="5.28783">
        <ele>192</ele>
        <time>2022-06-25T07:00:09Z</time>
      </trkpt>
      <trkpt lat="46.63721" lon="5.28774">
        <ele>192</ele>
        <time>2022-06-25T07:00:10Z</time>
      </trkpt>
      <trkpt lat="46.6372" lon="5.28766">
        <ele>192</ele>
        <time>2022-06-25T07:00:11Z</time>
      </trkpt>
      <trkpt lat="46.63719" lon="5.28757">
        <ele>192</ele>
        <time>2022-06-25T07:00:12Z</time>
      </trkpt>
      <trkpt lat="46.63718" lon="5.28749">
        <ele>192</ele>
        <time>2022-06-25T07:00:13Z</time>
      </trkpt>
      <trkpt lat="46.63716" lon="5.28741">
        <ele>192</ele>
        <time>2022-06-25T07:00:14Z</time>
      </trkpt>
      <trkpt lat="46.63715" lon="5.28732">
        <ele>192</ele>
        <time>2022-06-25T07:00:15Z</time>
      </trkpt>
      <trkpt lat="46.63714" lon="5.28724">
        <ele>192</ele>
        <time>2022-06-25T07:00:16Z</time>
      </trkpt>
      <trkpt lat="46.63712" lon="5.28715">
        <ele>192</ele>
        <time>2022-06-25T07:00:17Z</time>
      </trkpt>
      <trkpt lat="46.63711" lon="5.28706">
        <ele>192</ele>
        <time>2022-06-25T07:00:18Z</time>
      </trkpt>
      <trkpt lat="46.63709" lon="5.28698">
        <ele>192</ele>
        <time>2022-06-25T07:00:19Z</time>
      </trkpt>
      <trkpt lat="46.63708" lon="5.28689">
        <ele>192</ele>
        <time>2022-06-25T07:00:20Z</time>
      </trkpt>
      <trkpt lat="46.63706" lon="5.28681">
        <ele>192</ele>
        <time>2022-06-25T07:00:21Z</time>
      </trkpt>
      <trkpt lat="46.63704" lon="5.28673">
        <ele>192</ele>
        <time>2022-06-25T07:00:22Z</time>
      </trkpt>
      <trkpt lat="46.63702" lon="5.28665">
        <ele>192</ele>
        <time>2022-06-25T07:00:23Z</time>
      </trkpt>
      <trkpt lat="46.637" lon="5.28657">
        <ele>192</ele>
        <time>2022-06-25T07:00:24Z</time>
      </trkpt>
      <trkpt lat="46.63698" lon="5.28649">
        <ele>191.8</ele>
        <time>2022-06-25T07:00:25Z</time>
      </trkpt>
      <trkpt lat="46.63696" lon="5.28641">
        <ele>191.8</ele>
        <time>2022-06-25T07:00:26Z</time>
      </trkpt>
      <trkpt lat="46.63694" lon="5.28633">
        <ele>191.8</ele>
        <time>2022-06-25T07:00:27Z</time>
      </trkpt>
      <trkpt lat="46.63692" lon="5.28625">
        <ele>191.8</ele>
        <time>2022-06-25T07:00:28Z</time>
      </trkpt>
      <trkpt lat="46.63689" lon="5.28618">
        <ele>191.8</ele>
        <time>2022-06-25T07:00:29Z</time>
      </trkpt>
      <trkpt lat="46.63686" lon="5.2861">
        <ele>191.8</ele>
        <time>2022-06-25T07:00:30Z</time>
      </trkpt>
      <trkpt lat="46.63684" lon="5.28603">
        <ele>191.8</ele>
        <time>2022-06-25T07:00:31Z</time>
      </trkpt>
      <trkpt lat="46.63681" lon="5.28596">
        <ele>191.4</ele>
        <time>2022-06-25T07:00:32Z</time>
      </trkpt>
      <trkpt lat="46.63678" lon="5.28588">
        <ele>191.4</ele>
        <time>2022-06-25T07:00:33Z</time>
      </trkpt>
      <trkpt lat="46.63675" lon="5.28581">
        <ele>191.4</ele>
        <time>2022-06-25T07:00:34Z</time>
      </trkpt>
      <trkpt lat="46.63672" lon="5.28575">
        <ele>191.4</ele>
        <time>2022-06-25T07:00:35Z</time>
      </trkpt>
      <trkpt lat="46.63669" lon="5.28568">
        <ele>191.4</ele>
        <time>2022-06-25T07:00:36Z</time>
      </trkpt>
      <trkpt lat="46.63666" lon="5.28562">
        <ele>191.4</ele>
        <time>2022-06-25T07:00:37Z</time>
      </trkpt>
      <trkpt lat="46.63663" lon="5.28556">
        <ele>191.4</ele>
        <time>2022-06-25T07:00:38Z</time>
      </trkpt>
      <trkpt lat="46.63661" lon="5.2855">
        <ele>191.4</ele>
        <time>2022-06-25T07:00:39Z</time>
      </trkpt>
      <trkpt lat="46.63659" lon="5.28545">
        <ele>191.4</ele>
        <time>2022-06-25T07:00:40Z</time>
      </trkpt>
      <trkpt lat="46.63657" lon="5.2854">
        <ele>191.4</ele>
        <time>2022-06-25T07:00:41Z</time>
      </trkpt>
      <trkpt lat="46.63656" lon="5.28536">
        <ele>191.4</ele>
        <time>2022-06-25T07:00:42Z</time>
      </trkpt>
      <trkpt lat="46.63654" lon="5.28533">
        <ele>191.4</ele>
        <time>2022-06-25T07:00:43Z</time>
      </trkpt>
      <trkpt lat="46.63652" lon="5.28529">
        <ele>191.4</ele>
        <time>2022-06-25T07:00:44Z</time>
      </trkpt>
      <trkpt lat="46.6365" lon="5.28524">
        <ele>191.2</ele>
        <time>2022-06-25T07:00:45Z</time>
      </trkpt>
      <trkpt lat="46.63647" lon="5.2852">
        <ele>191.2</ele>
        <time>2022-06-25T07:00:46Z</time>
      </trkpt>
      <trkpt lat="46.63644" lon="5.28515">
        <ele>191.2</ele>
        <time>2022-06-25T07:00:47Z</time>
      </trkpt>
      <trkpt lat="46.63641" lon="5.28511">
        <ele>191.2</ele>
        <time>2022-06-25T07:00:48Z</time>
      </trkpt>
      <trkpt lat="46.63637" lon="5.28506">
        <ele>191.2</ele>
        <time>2022-06-25T07:00:49Z</time>
      </trkpt>
      <trkpt lat="46.63634" lon="5.28501">
        <ele>191.2</ele>
        <time>2022-06-25T07:00:50Z</time>
      </trkpt>
      <trkpt lat="46.63631" lon="5.28495">
        <ele>191.2</ele>
        <time>2022-06-25T07:00:51Z</time>
      </trkpt>
      <trkpt lat="46.63628" lon="5.2849">
        <ele>191.2</ele>
        <time>2022-06-25T07:00:52Z</time>
      </trkpt>
      <trkpt lat="46.63625" lon="5.28484">
        <ele>191.2</ele>
        <time>2022-06-25T07:00:53Z</time>
      </trkpt>
      <trkpt lat="46.63621" lon="5.28479">
        <ele>191.2</ele>
        <time>2022-06-25T07:00:54Z</time>
      </trkpt>
      <trkpt lat="46.63617" lon="5.28473">
        <ele>191.2</ele>
        <time>2022-06-25T07:00:55Z</time>
      </trkpt>
      <trkpt lat="46.63613" lon="5.28468">
        <ele>191.2</ele>
        <time>2022-06-25T07:00:56Z</time>
      </trkpt>
      <trkpt lat="46.63609" lon="5.28463">
        <ele>191.2</ele>
        <time>2022-06-25T07:00:57Z</time>
      </trkpt>
      <trkpt lat="46.63605" lon="5.28458">
        <ele>191.2</ele>
        <time>2022-06-25T07:00:58Z</time>
      </trkpt>
      <trkpt lat="46.63601" lon="5.28453">
        <ele>191.2</ele>
        <time>2022-06-25T07:00:59Z</time>
      </trkpt>
      <trkpt lat="46.63597" lon="5.28447">
        <ele>191.2</ele>
        <time>2022-06-25T07:01:00Z</time>
      </trkpt>
      <trkpt lat="46.63592" lon="5.28442">
        <ele>191.2</ele>
        <time>2022-06-25T07:01:01Z</time>
      </trkpt>
      <trkpt lat="46.63588" lon="5.28436">
        <ele>191.2</ele>
        <time>2022-06-25T07:01:02Z</time>
      </trkpt>
      <trkpt lat="46.63583" lon="5.2843">
        <ele>191.2</ele>
        <time>2022-06-25T07:01:03Z</time>
      </trkpt>
      <trkpt lat="46.63578" lon="5.28425">
        <ele>191.2</ele>
        <time>2022-06-25T07:01:04Z</time>
      </trkpt>
      <trkpt lat="46.63574" lon="5.2842">
        <ele>191.2</ele>
        <time>2022-06-25T07:01:05Z</time>
      </trkpt>
      <trkpt lat="46.63569" lon="5.28414">
        <ele>191.2</ele>
        <time>2022-06-25T07:01:06Z</time>
      </trkpt>
      <trkpt lat="46.63564" lon="5.28409">
        <ele>191.2</ele>
        <time>2022-06-25T07:01:07Z</time>
      </trkpt>
      <trkpt lat="46.63559" lon="5.28404">
        <ele>191.2</ele>
        <time>2022-06-25T07:01:08Z</time>
      </trkpt>
      <trkpt lat="46.63554" lon="5.28399">
        <ele>191.2</ele>
        <time>2022-06-25T07:01:09Z</time>
      </trkpt>
      <trkpt lat="46.63549" lon="5.28394">
        <ele>191.2</ele>
        <time>2022-06-25T07:01:10Z</time>
      </trkpt>
      <trkpt lat="46.63544" lon="5.28389">
        <ele>191.2</ele>
        <time>2022-06-25T07:01:11Z</time>
      </trkpt>
      <trkpt lat="46.63539" lon="5.28384">
        <ele>191.4</ele>
        <time>2022-06-25T07:01:12Z</time>
      </trkpt>
      <trkpt lat="46.63534" lon="5.28379">
        <ele>191.4</ele>
        <time>2022-06-25T07:01:13Z</time>
      </trkpt>
      <trkpt lat="46.63529" lon="5.28373">
        <ele>191.4</ele>
        <time>2022-06-25T07:01:14Z</time>
      </trkpt>
      <trkpt lat="46.63523" lon="5.28368">
        <ele>191.4</ele>
        <time>2022-06-25T07:01:15Z</time>
      </trkpt>
      <trkpt lat="46.63518" lon="5.28364">
        <ele>191.4</ele>
        <time>2022-06-25T07:01:16Z</time>
      </trkpt>
      <trkpt lat="46.63513" lon="5.28359">
        <ele>191.4</ele>
        <time>2022-06-25T07:01:17Z</time>
      </trkpt>
      <trkpt lat="46.63508" lon="5.28354">
        <ele>191.4</ele>
        <time>2022-06-25T07:01:18Z</time>
      </trkpt>
      <trkpt lat="46.63503" lon="5.28349">
        <ele>191.4</ele>
        <time>2022-06-25T07:01:19Z</time>
      </trkpt>
      <trkpt lat="46.63498" lon="5.28344">
        <ele>191.4</ele>
        <time>2022-06-25T07:01:20Z</time>
      </trkpt>
      <trkpt lat="46.63493" lon="5.2834">
        <ele>191.4</ele>
        <time>2022-06-25T07:01:21Z</time>
      </trkpt>
      <trkpt lat="46.63488" lon="5.28335">
        <ele>191.4</ele>
        <time>2022-06-25T07:01:22Z</time>
      </trkpt>
      <trkpt lat="46.63483" lon="5.28331">
        <ele>191.4</ele>
        <time>2022-06-25T07:01:23Z</time>
      </trkpt>
      <trkpt lat="46.63478" lon="5.28326">
        <ele>191.4</ele>
        <time>2022-06-25T07:01:24Z</time>
      </trkpt>
      <trkpt lat="46.63473" lon="5.28321">
        <ele>191.4</ele>
        <time>2022-06-25T07:01:25Z</time>
      </trkpt>
      <trkpt lat="46.63468" lon="5.28317">
        <ele>191.4</ele>
        <time>2022-06-25T07:01:26Z</time>
      </trkpt>
      <trkpt lat="46.63464" lon="5.28312">
        <ele>191.4</ele>
        <time>2022-06-25T07:01:27Z</time>
      </trkpt>
      <trkpt lat="46.63459" lon="5.28308">
        <ele>191.4</ele>
        <time>2022-06-25T07:01:28Z</time>
      </trkpt>
      <trkpt lat="46.63454" lon="5.28304">
        <ele>191.4</ele>
        <time>2022-06-25T07:01:29Z</time>
      </trkpt>
      <trkpt lat="46.63449" lon="5.28299">
        <ele>191.4</ele>
        <time>2022-06-25T07:01:30Z</time>
      </trkpt>
      <trkpt lat="46.63445" lon="5.28295">
        <ele>191.4</ele>
        <time>2022-06-25T07:01:31Z</time>
      </trkpt>
      <trkpt lat="46.63441" lon="5.28291">
        <ele>191.4</ele>
        <time>2022-06-25T07:01:32Z</time>
      </trkpt>
      <trkpt lat="46.63436" lon="5.28287">
        <ele>191.4</ele>
        <time>2022-06-25T07:01:33Z</time>
      </trkpt>
      <trkpt lat="46.63432" lon="5.28282">
        <ele>191.4</ele>
        <time>2022-06-25T07:01:34Z</time>
      </trkpt>
      <trkpt lat="46.63427" lon="5.28278">
        <ele>191.4</ele>
        <time>2022-06-25T07:01:35Z</time>
      </trkpt>
      <trkpt lat="46.63423" lon="5.28273">
        <ele>191.2</ele>
        <time>2022-06-25T07:01:36Z</time>
      </trkpt>
      <trkpt lat="46.63418" lon="5.28268">
        <ele>191.2</ele>
        <time>2022-06-25T07:01:37Z</time>
      </trkpt>
      <trkpt lat="46.63413" lon="5.28263">
        <ele>191.2</ele>
        <time>2022-06-25T07:01:38Z</time>
      </trkpt>
      <trkpt lat="46.63409" lon="5.28258">
        <ele>191.2</ele>
        <time>2022-06-25T07:01:39Z</time>
      </trkpt>
      <trkpt lat="46.63404" lon="5.28254">
        <ele>191.2</ele>
        <time>2022-06-25T07:01:40Z</time>
      </trkpt>
      <trkpt lat="46.63399" lon="5.28249">
        <ele>191.2</ele>
        <time>2022-06-25T07:01:41Z</time>
      </trkpt>
      <trkpt lat="46.63394" lon="5.28243">
        <ele>191.2</ele>
        <time>2022-06-25T07:01:42Z</time>
      </trkpt>
      <trkpt lat="46.63388" lon="5.28236">
        <ele>191.2</ele>
        <time>2022-06-25T07:01:43Z</time>
      </trkpt>
      <trkpt lat="46.63382" lon="5.2823">
        <ele>191.2</ele>
        <time>2022-06-25T07:01:44Z</time>
      </trkpt>
      <trkpt lat="46.63377" lon="5.28225">
        <ele>191.2</ele>
        <time>2022-06-25T07:01:45Z</time>
      </trkpt>
      <trkpt lat="46.63371" lon="5.28219">
        <ele>191.2</ele>
        <time>2022-06-25T07:01:46Z</time>
      </trkpt>
      <trkpt lat="46.63366" lon="5.28213">
        <ele>191.2</ele>
        <time>2022-06-25T07:01:48Z</time>
      </trkpt>
      <trkpt lat="46.63361" lon="5.28208">
        <ele>191.2</ele>
        <time>2022-06-25T07:01:49Z</time>
      </trkpt>
      <trkpt lat="46.63356" lon="5.28203">
        <ele>191.2</ele>
        <time>2022-06-25T07:01:50Z</time>
      </trkpt>
      <trkpt lat="46.6335" lon="5.28197">
        <ele>191.2</ele>
        <time>2022-06-25T07:01:51Z</time>
      </trkpt>
      <trkpt lat="46.63345" lon="5.28192">
        <ele>191.2</ele>
        <time>2022-06-25T07:01:52Z</time>
      </trkpt>
      <trkpt lat="46.6334" lon="5.28186">
        <ele>191.2</ele>
        <time>2022-06-25T07:01:53Z</time>
      </trkpt>
      <trkpt lat="46.63334" lon="5.28181">
        <ele>191.2</ele>
        <time>2022-06-25T07:01:54Z</time>
      </trkpt>
      <trkpt lat="46.63329" lon="5.28175">
        <ele>191.2</ele>
        <time>2022-06-25T07:01:55Z</time>
      </trkpt>
      <trkpt lat="46.63323" lon="5.28169">
        <ele>191.2</ele>
        <time>2022-06-25T07:01:56Z</time>
      </trkpt>
      <trkpt lat="46.63317" lon="5.28163">
        <ele>191.2</ele>
        <time>2022-06-25T07:01:57Z</time>
      </trkpt>
      <trkpt lat="46.63311" lon="5.28157">
        <ele>191.2</ele>
        <time>2022-06-25T07:01:58Z</time>
      </trkpt>
      <trkpt lat="46.63305" lon="5.28151">
        <ele>191.2</ele>
        <time>2022-06-25T07:01:59Z</time>
      </trkpt>
      <trkpt lat="46.633" lon="5.28145">
        <ele>191.2</ele>
        <time>2022-06-25T07:02:00Z</time>
      </trkpt>
      <trkpt lat="46.63295" lon="5.28139">
        <ele>191.2</ele>
        <time>2022-06-25T07:02:01Z</time>
      </trkpt>
      <trkpt lat="46.6329" lon="5.28134">
        <ele>191.2</ele>
        <time>2022-06-25T07:02:02Z</time>
      </trkpt>
      <trkpt lat="46.63285" lon="5.28129">
        <ele>191.2</ele>
        <time>2022-06-25T07:02:03Z</time>
      </trkpt>
      <trkpt lat="46.63281" lon="5.28125">
        <ele>191.2</ele>
        <time>2022-06-25T07:02:04Z</time>
      </trkpt>
      <trkpt lat="46.63277" lon="5.28121">
        <ele>191.2</ele>
        <time>2022-06-25T07:02:05Z</time>
      </trkpt>
      <trkpt lat="46.63274" lon="5.28118">
        <ele>191</ele>
        <time>2022-06-25T07:02:06Z</time>
      </trkpt>
      <trkpt lat="46.63271" lon="5.28116">
        <ele>191</ele>
        <time>2022-06-25T07:02:07Z</time>
      </trkpt>
      <trkpt lat="46.63268" lon="5.28114">
        <ele>190.8</ele>
        <time>2022-06-25T07:02:08Z</time>
      </trkpt>
      <trkpt lat="46.63266" lon="5.28112">
        <ele>190.8</ele>
        <time>2022-06-25T07:02:09Z</time>
      </trkpt>
      <trkpt lat="46.63264" lon="5.2811">
        <ele>190.8</ele>
        <time>2022-06-25T07:02:10Z</time>
      </trkpt>
      <trkpt lat="46.63261" lon="5.28108">
        <ele>190.8</ele>
        <time>2022-06-25T07:02:11Z</time>
      </trkpt>
      <trkpt lat="46.63259" lon="5.28105">
        <ele>190.8</ele>
        <time>2022-06-25T07:02:12Z</time>
      </trkpt>
      <trkpt lat="46.63256" lon="5.28103">
        <ele>190.8</ele>
        <time>2022-06-25T07:02:13Z</time>
      </trkpt>
      <trkpt lat="46.63253" lon="5.28101">
        <ele>191.2</ele>
        <time>2022-06-25T07:02:14Z</time>
      </trkpt>
      <trkpt lat="46.6325" lon="5.28098">
        <ele>191.2</ele>
        <time>2022-06-25T07:02:15Z</time>
      </trkpt>
      <trkpt lat="46.63247" lon="5.28095">
        <ele>191.2</ele>
        <time>2022-06-25T07:02:16Z</time>
      </trkpt>
      <trkpt lat="46.63244" lon="5.28092">
        <ele>191.2</ele>
        <time>2022-06-25T07:02:17Z</time>
      </trkpt>
      <trkpt lat="46.63241" lon="5.28089">
        <ele>191.4</ele>
        <time>2022-06-25T07:02:18Z</time>
      </trkpt>
      <trkpt lat="46.63238" lon="5.28086">
        <ele>191.4</ele>
        <time>2022-06-25T07:02:19Z</time>
      </trkpt>
      <trkpt lat="46.63235" lon="5.28082">
        <ele>191.4</ele>
        <time>2022-06-25T07:02:20Z</time>
      </trkpt>
      <trkpt lat="46.63231" lon="5.28078">
        <ele>191.4</ele>
        <time>2022-06-25T07:02:21Z</time>
      </trkpt>
      <trkpt lat="46.63227" lon="5.28074">
        <ele>191.4</ele>
        <time>2022-06-25T07:02:22Z</time>
      </trkpt>
      <trkpt lat="46.63223" lon="5.28069">
        <ele>191.4</ele>
        <time>2022-06-25T07:02:23Z</time>
      </trkpt>
      <trkpt lat="46.63219" lon="5.28064">
        <ele>191.4</ele>
        <time>2022-06-25T07:02:24Z</time>
      </trkpt>
      <trkpt lat="46.63215" lon="5.2806">
        <ele>191.4</ele>
        <time>2022-06-25T07:02:25Z</time>
      </trkpt>
      <trkpt lat="46.63212" lon="5.28055">
        <ele>191.4</ele>
        <time>2022-06-25T07:02:26Z</time>
      </trkpt>
      <trkpt lat="46.63209" lon="5.28052">
        <ele>191.4</ele>
        <time>2022-06-25T07:02:27Z</time>
      </trkpt>
      <trkpt lat="46.63206" lon="5.28047">
        <ele>191.4</ele>
        <time>2022-06-25T07:02:28Z</time>
      </trkpt>
      <trkpt lat="46.63203" lon="5.28042">
        <ele>191.4</ele>
        <time>2022-06-25T07:02:29Z</time>
      </trkpt>
      <trkpt lat="46.63199" lon="5.28038">
        <ele>191.6</ele>
        <time>2022-06-25T07:02:30Z</time>
      </trkpt>
      <trkpt lat="46.63196" lon="5.28033">
        <ele>191.6</ele>
        <time>2022-06-25T07:02:31Z</time>
      </trkpt>
      <trkpt lat="46.63193" lon="5.28028">
        <ele>191.6</ele>
        <time>2022-06-25T07:02:32Z</time>
      </trkpt>
      <trkpt lat="46.63189" lon="5.28022">
        <ele>191.6</ele>
        <time>2022-06-25T07:02:33Z</time>
      </trkpt>
      <trkpt lat="46.63185" lon="5.28016">
        <ele>191.8</ele>
        <time>2022-06-25T07:02:34Z</time>
      </trkpt>
      <trkpt lat="46.63181" lon="5.28011">
        <ele>191.8</ele>
        <time>2022-06-25T07:02:35Z</time>
      </trkpt>
      <trkpt lat="46.63177" lon="5.28005">
        <ele>191.8</ele>
        <time>2022-06-25T07:02:36Z</time>
      </trkpt>
      <trkpt lat="46.63174" lon="5.28">
        <ele>191.8</ele>
        <time>2022-06-25T07:02:37Z</time>
      </trkpt>
      <trkpt lat="46.6317" lon="5.27994">
        <ele>191.8</ele>
        <time>2022-06-25T07:02:38Z</time>
      </trkpt>
      <trkpt lat="46.63167" lon="5.27988">
        <ele>191.8</ele>
        <time>2022-06-25T07:02:39Z</time>
      </trkpt>
      <trkpt lat="46.63162" lon="5.27982">
        <ele>191.8</ele>
        <time>2022-06-25T07:02:40Z</time>
      </trkpt>
      <trkpt lat="46.63159" lon="5.27977">
        <ele>191.8</ele>
        <time>2022-06-25T07:02:41Z</time>
      </trkpt>
      <trkpt lat="46.63156" lon="5.27972">
        <ele>191.8</ele>
        <time>2022-06-25T07:02:42Z</time>
      </trkpt>
      <trkpt lat="46.63153" lon="5.27966">
        <ele>191.8</ele>
        <time>2022-06-25T07:02:43Z</time>
      </trkpt>
      <trkpt lat="46.6315" lon="5.2796">
        <ele>191.8</ele>
        <time>2022-06-25T07:02:44Z</time>
      </trkpt>
      <trkpt lat="46.63147" lon="5.27954">
        <ele>192</ele>
        <time>2022-06-25T07:02:45Z</time>
      </trkpt>
      <trkpt lat="46.63144" lon="5.27948">
        <ele>192</ele>
        <time>2022-06-25T07:02:46Z</time>
      </trkpt>
      <trkpt lat="46.63141" lon="5.27942">
        <ele>192</ele>
        <time>2022-06-25T07:02:47Z</time>
      </trkpt>
      <trkpt lat="46.63138" lon="5.27936">
        <ele>192</ele>
        <time>2022-06-25T07:02:48Z</time>
      </trkpt>
      <trkpt lat="46.63135" lon="5.2793">
        <ele>192.2</ele>
        <time>2022-06-25T07:02:49Z</time>
      </trkpt>
      <trkpt lat="46.63132" lon="5.27923">
        <ele>192.2</ele>
        <time>2022-06-25T07:02:50Z</time>
      </trkpt>
      <trkpt lat="46.63129" lon="5.27917">
        <ele>192.2</ele>
        <time>2022-06-25T07:02:51Z</time>
      </trkpt>
      <trkpt lat="46.63127" lon="5.27911">
        <ele>192.2</ele>
        <time>2022-06-25T07:02:52Z</time>
      </trkpt>
      <trkpt lat="46.63124" lon="5.27905">
        <ele>192.2</ele>
        <time>2022-06-25T07:02:53Z</time>
      </trkpt>
      <trkpt lat="46.63122" lon="5.27899">
        <ele>192.2</ele>
        <time>2022-06-25T07:02:54Z</time>
      </trkpt>
      <trkpt lat="46.63119" lon="5.27893">
        <ele>192.4</ele>
        <time>2022-06-25T07:02:55Z</time>
      </trkpt>
      <trkpt lat="46.63116" lon="5.27886">
        <ele>192.4</ele>
        <time>2022-06-25T07:02:56Z</time>
      </trkpt>
      <trkpt lat="46.63113" lon="5.2788">
        <ele>192.4</ele>
        <time>2022-06-25T07:02:57Z</time>
      </trkpt>
      <trkpt lat="46.63111" lon="5.27873">
        <ele>192.4</ele>
        <time>2022-06-25T07:02:58Z</time>
      </trkpt>
      <trkpt lat="46.63109" lon="5.27867">
        <ele>192.4</ele>
        <time>2022-06-25T07:02:59Z</time>
      </trkpt>
      <trkpt lat="46.63106" lon="5.27859">
        <ele>192.4</ele>
        <time>2022-06-25T07:03:00Z</time>
      </trkpt>
      <trkpt lat="46.63103" lon="5.2785">
        <ele>192.4</ele>
        <time>2022-06-25T07:03:01Z</time>
      </trkpt>
      <trkpt lat="46.631" lon="5.27842">
        <ele>192.4</ele>
        <time>2022-06-25T07:03:02Z</time>
      </trkpt>
      <trkpt lat="46.63097" lon="5.27834">
        <ele>192.4</ele>
        <time>2022-06-25T07:03:03Z</time>
      </trkpt>
      <trkpt lat="46.63095" lon="5.27826">
        <ele>192.4</ele>
        <time>2022-06-25T07:03:04Z</time>
      </trkpt>
      <trkpt lat="46.63092" lon="5.27818">
        <ele>192.2</ele>
        <time>2022-06-25T07:03:05Z</time>
      </trkpt>
      <trkpt lat="46.6309" lon="5.2781">
        <ele>192.2</ele>
        <time>2022-06-25T07:03:06Z</time>
      </trkpt>
      <trkpt lat="46.63087" lon="5.27802">
        <ele>192</ele>
        <time>2022-06-25T07:03:07Z</time>
      </trkpt>
      <trkpt lat="46.63085" lon="5.27794">
        <ele>192</ele>
        <time>2022-06-25T07:03:08Z</time>
      </trkpt>
      <trkpt lat="46.63082" lon="5.27786">
        <ele>191.8</ele>
        <time>2022-06-25T07:03:09Z</time>
      </trkpt>
      <trkpt lat="46.6308" lon="5.27777">
        <ele>191.8</ele>
        <time>2022-06-25T07:03:10Z</time>
      </trkpt>
      <trkpt lat="46.63078" lon="5.27768">
        <ele>191.8</ele>
        <time>2022-06-25T07:03:11Z</time>
      </trkpt>
      <trkpt lat="46.63076" lon="5.2776">
        <ele>191.4</ele>
        <time>2022-06-25T07:03:12Z</time>
      </trkpt>
      <trkpt lat="46.63074" lon="5.27752">
        <ele>191.4</ele>
        <time>2022-06-25T07:03:13Z</time>
      </trkpt>
      <trkpt lat="46.63071" lon="5.27744">
        <ele>191.4</ele>
        <time>2022-06-25T07:03:14Z</time>
      </trkpt>
      <trkpt lat="46.63069" lon="5.27736">
        <ele>191.4</ele>
        <time>2022-06-25T07:03:15Z</time>
      </trkpt>
      <trkpt lat="46.63067" lon="5.27728">
        <ele>191.4</ele>
        <time>2022-06-25T07:03:16Z</time>
      </trkpt>
      <trkpt lat="46.63065" lon="5.27721">
        <ele>191.4</ele>
        <time>2022-06-25T07:03:17Z</time>
      </trkpt>
      <trkpt lat="46.63063" lon="5.27713">
        <ele>191.4</ele>
        <time>2022-06-25T07:03:18Z</time>
      </trkpt>
      <trkpt lat="46.63062" lon="5.27707">
        <ele>191.4</ele>
        <time>2022-06-25T07:03:19Z</time>
      </trkpt>
      <trkpt lat="46.6306" lon="5.277">
        <ele>191.4</ele>
        <time>2022-06-25T07:03:20Z</time>
      </trkpt>
      <trkpt lat="46.63058" lon="5.27693">
        <ele>191.4</ele>
        <time>2022-06-25T07:03:21Z</time>
      </trkpt>
      <trkpt lat="46.63055" lon="5.27686">
        <ele>191.4</ele>
        <time>2022-06-25T07:03:22Z</time>
      </trkpt>
      <trkpt lat="46.63053" lon="5.27679">
        <ele>191.4</ele>
        <time>2022-06-25T07:03:23Z</time>
      </trkpt>
      <trkpt lat="46.63051" lon="5.27672">
        <ele>191.4</ele>
        <time>2022-06-25T07:03:24Z</time>
      </trkpt>
      <trkpt lat="46.6305" lon="5.27665">
        <ele>191.4</ele>
        <time>2022-06-25T07:03:25Z</time>
      </trkpt>
      <trkpt lat="46.63048" lon="5.27659">
        <ele>191.4</ele>
        <time>2022-06-25T07:03:26Z</time>
      </trkpt>
      <trkpt lat="46.63046" lon="5.27651">
        <ele>191.4</ele>
        <time>2022-06-25T07:03:27Z</time>
      </trkpt>
      <trkpt lat="46.63043" lon="5.27644">
        <ele>191.2</ele>
        <time>2022-06-25T07:03:28Z</time>
      </trkpt>
      <trkpt lat="46.63041" lon="5.27638">
        <ele>191.2</ele>
        <time>2022-06-25T07:03:29Z</time>
      </trkpt>
      <trkpt lat="46.63038" lon="5.27632">
        <ele>191.2</ele>
        <time>2022-06-25T07:03:30Z</time>
      </trkpt>
      <trkpt lat="46.63035" lon="5.27625">
        <ele>191.2</ele>
        <time>2022-06-25T07:03:31Z</time>
      </trkpt>
      <trkpt lat="46.63033" lon="5.27619">
        <ele>191.2</ele>
        <time>2022-06-25T07:03:32Z</time>
      </trkpt>
      <trkpt lat="46.63032" lon="5.27613">
        <ele>191.2</ele>
        <time>2022-06-25T07:03:33Z</time>
      </trkpt>
      <trkpt lat="46.63031" lon="5.27608">
        <ele>191</ele>
        <time>2022-06-25T07:03:34Z</time>
      </trkpt>
      <trkpt lat="46.63029" lon="5.27603">
        <ele>191</ele>
        <time>2022-06-25T07:03:35Z</time>
      </trkpt>
      <trkpt lat="46.63027" lon="5.27598">
        <ele>191</ele>
        <time>2022-06-25T07:03:36Z</time>
      </trkpt>
      <trkpt lat="46.63024" lon="5.27592">
        <ele>190.8</ele>
        <time>2022-06-25T07:03:37Z</time>
      </trkpt>
      <trkpt lat="46.63021" lon="5.27586">
        <ele>190.8</ele>
        <time>2022-06-25T07:03:38Z</time>
      </trkpt>
      <trkpt lat="46.63019" lon="5.27578">
        <ele>190.8</ele>
        <time>2022-06-25T07:03:39Z</time>
      </trkpt>
      <trkpt lat="46.63017" lon="5.2757">
        <ele>190.8</ele>
        <time>2022-06-25T07:03:40Z</time>
      </trkpt>
      <trkpt lat="46.63016" lon="5.27564">
        <ele>190.8</ele>
        <time>2022-06-25T07:03:41Z</time>
      </trkpt>
      <trkpt lat="46.63014" lon="5.27556">
        <ele>190.8</ele>
        <time>2022-06-25T07:03:42Z</time>
      </trkpt>
      <trkpt lat="46.63012" lon="5.2755">
        <ele>190.8</ele>
        <time>2022-06-25T07:03:43Z</time>
      </trkpt>
      <trkpt lat="46.63008" lon="5.27542">
        <ele>190.8</ele>
        <time>2022-06-25T07:03:44Z</time>
      </trkpt>
      <trkpt lat="46.63004" lon="5.27535">
        <ele>190.8</ele>
        <time>2022-06-25T07:03:45Z</time>
      </trkpt>
      <trkpt lat="46.62996" lon="5.2752">
        <ele>190.8</ele>
        <time>2022-06-25T07:03:46Z</time>
      </trkpt>
      <trkpt lat="46.62992" lon="5.27514">
        <ele>190.6</ele>
        <time>2022-06-25T07:03:47Z</time>
      </trkpt>
      <trkpt lat="46.62989" lon="5.27507">
        <ele>190.6</ele>
        <time>2022-06-25T07:03:48Z</time>
      </trkpt>
      <trkpt lat="46.62984" lon="5.27499">
        <ele>190.6</ele>
        <time>2022-06-25T07:03:49Z</time>
      </trkpt>
      <trkpt lat="46.62981" lon="5.27492">
        <ele>190.6</ele>
        <time>2022-06-25T07:03:50Z</time>
      </trkpt>
      <trkpt lat="46.62978" lon="5.27485">
        <ele>190.6</ele>
        <time>2022-06-25T07:03:51Z</time>
      </trkpt>
      <trkpt lat="46.62975" lon="5.27479">
        <ele>190.6</ele>
        <time>2022-06-25T07:03:52Z</time>
      </trkpt>
      <trkpt lat="46.62972" lon="5.27471">
        <ele>190.6</ele>
        <time>2022-06-25T07:03:53Z</time>
      </trkpt>
      <trkpt lat="46.62968" lon="5.27463">
        <ele>190.6</ele>
        <time>2022-06-25T07:03:54Z</time>
      </trkpt>
      <trkpt lat="46.62965" lon="5.27456">
        <ele>190.6</ele>
        <time>2022-06-25T07:03:55Z</time>
      </trkpt>
      <trkpt lat="46.62961" lon="5.27449">
        <ele>190.6</ele>
        <time>2022-06-25T07:03:56Z</time>
      </trkpt>
      <trkpt lat="46.62957" lon="5.27443">
        <ele>190.6</ele>
        <time>2022-06-25T07:03:57Z</time>
      </trkpt>
      <trkpt lat="46.62954" lon="5.27438">
        <ele>190.6</ele>
        <time>2022-06-25T07:03:58Z</time>
      </trkpt>
      <trkpt lat="46.62951" lon="5.27434">
        <ele>190.6</ele>
        <time>2022-06-25T07:03:59Z</time>
      </trkpt>
      <trkpt lat="46.62948" lon="5.27427">
        <ele>190.6</ele>
        <time>2022-06-25T07:04:00Z</time>
      </trkpt>
      <trkpt lat="46.62944" lon="5.27422">
        <ele>190.6</ele>
        <time>2022-06-25T07:04:01Z</time>
      </trkpt>
      <trkpt lat="46.6294" lon="5.27416">
        <ele>190.6</ele>
        <time>2022-06-25T07:04:02Z</time>
      </trkpt>
      <trkpt lat="46.62937" lon="5.27411">
        <ele>190.6</ele>
        <time>2022-06-25T07:04:03Z</time>
      </trkpt>
      <trkpt lat="46.62935" lon="5.27405">
        <ele>190.6</ele>
        <time>2022-06-25T07:04:04Z</time>
      </trkpt>
      <trkpt lat="46.62931" lon="5.27399">
        <ele>190.6</ele>
        <time>2022-06-25T07:04:05Z</time>
      </trkpt>
      <trkpt lat="46.62927" lon="5.27393">
        <ele>190.6</ele>
        <time>2022-06-25T07:04:06Z</time>
      </trkpt>
      <trkpt lat="46.62923" lon="5.27388">
        <ele>190.6</ele>
        <time>2022-06-25T07:04:07Z</time>
      </trkpt>
      <trkpt lat="46.62918" lon="5.27381">
        <ele>190.6</ele>
        <time>2022-06-25T07:04:08Z</time>
      </trkpt>
      <trkpt lat="46.62914" lon="5.27375">
        <ele>190.6</ele>
        <time>2022-06-25T07:04:09Z</time>
      </trkpt>
      <trkpt lat="46.62909" lon="5.2737">
        <ele>190.6</ele>
        <time>2022-06-25T07:04:10Z</time>
      </trkpt>
      <trkpt lat="46.62904" lon="5.27362">
        <ele>190.6</ele>
        <time>2022-06-25T07:04:11Z</time>
      </trkpt>
      <trkpt lat="46.629" lon="5.27357">
        <ele>190.6</ele>
        <time>2022-06-25T07:04:12Z</time>
      </trkpt>
      <trkpt lat="46.62896" lon="5.2735">
        <ele>190.6</ele>
        <time>2022-06-25T07:04:13Z</time>
      </trkpt>
      <trkpt lat="46.6289" lon="5.27343">
        <ele>190.6</ele>
        <time>2022-06-25T07:04:14Z</time>
      </trkpt>
      <trkpt lat="46.62883" lon="5.27332">
        <ele>190.6</ele>
        <time>2022-06-25T07:04:15Z</time>
      </trkpt>
      <trkpt lat="46.62878" lon="5.27325">
        <ele>190.6</ele>
        <time>2022-06-25T07:04:16Z</time>
      </trkpt>
      <trkpt lat="46.62874" lon="5.27319">
        <ele>190.6</ele>
        <time>2022-06-25T07:04:17Z</time>
      </trkpt>
      <trkpt lat="46.62868" lon="5.27311">
        <ele>190.6</ele>
        <time>2022-06-25T07:04:18Z</time>
      </trkpt>
      <trkpt lat="46.62862" lon="5.27306">
        <ele>190.6</ele>
        <time>2022-06-25T07:04:19Z</time>
      </trkpt>
      <trkpt lat="46.62855" lon="5.27299">
        <ele>190.8</ele>
        <time>2022-06-25T07:04:20Z</time>
      </trkpt>
      <trkpt lat="46.62849" lon="5.27293">
        <ele>190.8</ele>
        <time>2022-06-25T07:04:21Z</time>
      </trkpt>
      <trkpt lat="46.62843" lon="5.27287">
        <ele>190.8</ele>
        <time>2022-06-25T07:04:22Z</time>
      </trkpt>
      <trkpt lat="46.62837" lon="5.2728">
        <ele>190.8</ele>
        <time>2022-06-25T07:04:23Z</time>
      </trkpt>
      <trkpt lat="46.62831" lon="5.27274">
        <ele>190.8</ele>
        <time>2022-06-25T07:04:24Z</time>
      </trkpt>
      <trkpt lat="46.62826" lon="5.27268">
        <ele>190.8</ele>
        <time>2022-06-25T07:04:25Z</time>
      </trkpt>
      <trkpt lat="46.6282" lon="5.27262">
        <ele>190.8</ele>
        <time>2022-06-25T07:04:26Z</time>
      </trkpt>
      <trkpt lat="46.62816" lon="5.27256">
        <ele>190.8</ele>
        <time>2022-06-25T07:04:27Z</time>
      </trkpt>
      <trkpt lat="46.62811" lon="5.27249">
        <ele>190.8</ele>
        <time>2022-06-25T07:04:28Z</time>
      </trkpt>
      <trkpt lat="46.62806" lon="5.27243">
        <ele>190.8</ele>
        <time>2022-06-25T07:04:29Z</time>
      </trkpt>
      <trkpt lat="46.62803" lon="5.27236">
        <ele>190.8</ele>
        <time>2022-06-25T07:04:30Z</time>
      </trkpt>
      <trkpt lat="46.62798" lon="5.27229">
        <ele>190.8</ele>
        <time>2022-06-25T07:04:31Z</time>
      </trkpt>
      <trkpt lat="46.62793" lon="5.27221">
        <ele>190.8</ele>
        <time>2022-06-25T07:04:32Z</time>
      </trkpt>
      <trkpt lat="46.62788" lon="5.27213">
        <ele>190.8</ele>
        <time>2022-06-25T07:04:33Z</time>
      </trkpt>
      <trkpt lat="46.62783" lon="5.27206">
        <ele>190.8</ele>
        <time>2022-06-25T07:04:34Z</time>
      </trkpt>
      <trkpt lat="46.62778" lon="5.27197">
        <ele>190.8</ele>
        <time>2022-06-25T07:04:35Z</time>
      </trkpt>
      <trkpt lat="46.62772" lon="5.27187">
        <ele>190.8</ele>
        <time>2022-06-25T07:04:36Z</time>
      </trkpt>
      <trkpt lat="46.62763" lon="5.2717">
        <ele>190.8</ele>
        <time>2022-06-25T07:04:37Z</time>
      </trkpt>
      <trkpt lat="46.62759" lon="5.27162">
        <ele>190.8</ele>
        <time>2022-06-25T07:04:38Z</time>
      </trkpt>
      <trkpt lat="46.62755" lon="5.27154">
        <ele>190.8</ele>
        <time>2022-06-25T07:04:39Z</time>
      </trkpt>
      <trkpt lat="46.62752" lon="5.27148">
        <ele>190.8</ele>
        <time>2022-06-25T07:04:40Z</time>
      </trkpt>
      <trkpt lat="46.62749" lon="5.27142">
        <ele>190.8</ele>
        <time>2022-06-25T07:04:41Z</time>
      </trkpt>
      <trkpt lat="46.62746" lon="5.27136">
        <ele>191</ele>
        <time>2022-06-25T07:04:42Z</time>
      </trkpt>
      <trkpt lat="46.62743" lon="5.2713">
        <ele>191</ele>
        <time>2022-06-25T07:04:43Z</time>
      </trkpt>
      <trkpt lat="46.6274" lon="5.27124">
        <ele>191</ele>
        <time>2022-06-25T07:04:44Z</time>
      </trkpt>
      <trkpt lat="46.62737" lon="5.27117">
        <ele>191</ele>
        <time>2022-06-25T07:04:45Z</time>
      </trkpt>
      <trkpt lat="46.62734" lon="5.27111">
        <ele>191</ele>
        <time>2022-06-25T07:04:46Z</time>
      </trkpt>
      <trkpt lat="46.6273" lon="5.27105">
        <ele>191</ele>
        <time>2022-06-25T07:04:47Z</time>
      </trkpt>
      <trkpt lat="46.62727" lon="5.27098">
        <ele>191</ele>
        <time>2022-06-25T07:04:48Z</time>
      </trkpt>
      <trkpt lat="46.62724" lon="5.27093">
        <ele>191</ele>
        <time>2022-06-25T07:04:49Z</time>
      </trkpt>
      <trkpt lat="46.62722" lon="5.27088">
        <ele>191</ele>
        <time>2022-06-25T07:04:50Z</time>
      </trkpt>
      <trkpt lat="46.62719" lon="5.27082">
        <ele>191</ele>
        <time>2022-06-25T07:04:51Z</time>
      </trkpt>
      <trkpt lat="46.62716" lon="5.27076">
        <ele>191</ele>
        <time>2022-06-25T07:04:52Z</time>
      </trkpt>
      <trkpt lat="46.62712" lon="5.2707">
        <ele>191.2</ele>
        <time>2022-06-25T07:04:53Z</time>
      </trkpt>
      <trkpt lat="46.62709" lon="5.27064">
        <ele>191.2</ele>
        <time>2022-06-25T07:04:54Z</time>
      </trkpt>
      <trkpt lat="46.62705" lon="5.27057">
        <ele>191.2</ele>
        <time>2022-06-25T07:04:55Z</time>
      </trkpt>
      <trkpt lat="46.62702" lon="5.27051">
        <ele>191.2</ele>
        <time>2022-06-25T07:04:56Z</time>
      </trkpt>
      <trkpt lat="46.62699" lon="5.27046">
        <ele>191.2</ele>
        <time>2022-06-25T07:04:57Z</time>
      </trkpt>
      <trkpt lat="46.62697" lon="5.2704">
        <ele>191.4</ele>
        <time>2022-06-25T07:04:58Z</time>
      </trkpt>
      <trkpt lat="46.62694" lon="5.27033">
        <ele>191.4</ele>
        <time>2022-06-25T07:04:59Z</time>
      </trkpt>
      <trkpt lat="46.62691" lon="5.27027">
        <ele>191.4</ele>
        <time>2022-06-25T07:05:00Z</time>
      </trkpt>
      <trkpt lat="46.62688" lon="5.27018">
        <ele>191.4</ele>
        <time>2022-06-25T07:05:01Z</time>
      </trkpt>
      <trkpt lat="46.62685" lon="5.2701">
        <ele>191.4</ele>
        <time>2022-06-25T07:05:02Z</time>
      </trkpt>
      <trkpt lat="46.62682" lon="5.27002">
        <ele>191.6</ele>
        <time>2022-06-25T07:05:03Z</time>
      </trkpt>
      <trkpt lat="46.62679" lon="5.26995">
        <ele>191.6</ele>
        <time>2022-06-25T07:05:04Z</time>
      </trkpt>
      <trkpt lat="46.62676" lon="5.26988">
        <ele>191.6</ele>
        <time>2022-06-25T07:05:05Z</time>
      </trkpt>
      <trkpt lat="46.62673" lon="5.26981">
        <ele>191.6</ele>
        <time>2022-06-25T07:05:06Z</time>
      </trkpt>
      <trkpt lat="46.62669" lon="5.26974">
        <ele>191.6</ele>
        <time>2022-06-25T07:05:07Z</time>
      </trkpt>
      <trkpt lat="46.62666" lon="5.26968">
        <ele>191.6</ele>
        <time>2022-06-25T07:05:08Z</time>
      </trkpt>
      <trkpt lat="46.62663" lon="5.26963">
        <ele>191.6</ele>
        <time>2022-06-25T07:05:09Z</time>
      </trkpt>
      <trkpt lat="46.62661" lon="5.26958">
        <ele>191.6</ele>
        <time>2022-06-25T07:05:10Z</time>
      </trkpt>
      <trkpt lat="46.62658" lon="5.26954">
        <ele>191.6</ele>
        <time>2022-06-25T07:05:11Z</time>
      </trkpt>
      <trkpt lat="46.62656" lon="5.26949">
        <ele>191.6</ele>
        <time>2022-06-25T07:05:12Z</time>
      </trkpt>
      <trkpt lat="46.62654" lon="5.26945">
        <ele>191.6</ele>
        <time>2022-06-25T07:05:13Z</time>
      </trkpt>
      <trkpt lat="46.62653" lon="5.26941">
        <ele>191.6</ele>
        <time>2022-06-25T07:05:14Z</time>
      </trkpt>
      <trkpt lat="46.62651" lon="5.26937">
        <ele>191.6</ele>
        <time>2022-06-25T07:05:15Z</time>
      </trkpt>
      <trkpt lat="46.62649" lon="5.26933">
        <ele>191.8</ele>
        <time>2022-06-25T07:05:16Z</time>
      </trkpt>
      <trkpt lat="46.62647" lon="5.26927">
        <ele>191.8</ele>
        <time>2022-06-25T07:05:17Z</time>
      </trkpt>
      <trkpt lat="46.62644" lon="5.26923">
        <ele>191.8</ele>
        <time>2022-06-25T07:05:18Z</time>
      </trkpt>
      <trkpt lat="46.62641" lon="5.26917">
        <ele>191.8</ele>
        <time>2022-06-25T07:05:19Z</time>
      </trkpt>
      <trkpt lat="46.62639" lon="5.26912">
        <ele>191.8</ele>
        <time>2022-06-25T07:05:20Z</time>
      </trkpt>
      <trkpt lat="46.62637" lon="5.26906">
        <ele>191.8</ele>
        <time>2022-06-25T07:05:21Z</time>
      </trkpt>
      <trkpt lat="46.62634" lon="5.26901">
        <ele>191.8</ele>
        <time>2022-06-25T07:05:22Z</time>
      </trkpt>
      <trkpt lat="46.62632" lon="5.26894">
        <ele>191.8</ele>
        <time>2022-06-25T07:05:23Z</time>
      </trkpt>
      <trkpt lat="46.62629" lon="5.26887">
        <ele>191.8</ele>
        <time>2022-06-25T07:05:24Z</time>
      </trkpt>
      <trkpt lat="46.62627" lon="5.26879">
        <ele>192</ele>
        <time>2022-06-25T07:05:25Z</time>
      </trkpt>
      <trkpt lat="46.62624" lon="5.26872">
        <ele>192</ele>
        <time>2022-06-25T07:05:26Z</time>
      </trkpt>
      <trkpt lat="46.62621" lon="5.26865">
        <ele>192</ele>
        <time>2022-06-25T07:05:27Z</time>
      </trkpt>
      <trkpt lat="46.62619" lon="5.26858">
        <ele>192</ele>
        <time>2022-06-25T07:05:28Z</time>
      </trkpt>
      <trkpt lat="46.62616" lon="5.26851">
        <ele>192</ele>
        <time>2022-06-25T07:05:29Z</time>
      </trkpt>
      <trkpt lat="46.62614" lon="5.26844">
        <ele>192</ele>
        <time>2022-06-25T07:05:30Z</time>
      </trkpt>
      <trkpt lat="46.62612" lon="5.26837">
        <ele>192</ele>
        <time>2022-06-25T07:05:31Z</time>
      </trkpt>
      <trkpt lat="46.6261" lon="5.26829">
        <ele>192.4</ele>
        <time>2022-06-25T07:05:32Z</time>
      </trkpt>
      <trkpt lat="46.62608" lon="5.26821">
        <ele>192.4</ele>
        <time>2022-06-25T07:05:33Z</time>
      </trkpt>
      <trkpt lat="46.62605" lon="5.26813">
        <ele>192.4</ele>
        <time>2022-06-25T07:05:34Z</time>
      </trkpt>
      <trkpt lat="46.62604" lon="5.26805">
        <ele>192.6</ele>
        <time>2022-06-25T07:05:35Z</time>
      </trkpt>
      <trkpt lat="46.62602" lon="5.26799">
        <ele>192.6</ele>
        <time>2022-06-25T07:05:36Z</time>
      </trkpt>
      <trkpt lat="46.626" lon="5.26792">
        <ele>192.6</ele>
        <time>2022-06-25T07:05:37Z</time>
      </trkpt>
      <trkpt lat="46.62599" lon="5.26785">
        <ele>192.6</ele>
        <time>2022-06-25T07:05:38Z</time>
      </trkpt>
      <trkpt lat="46.62598" lon="5.26778">
        <ele>192.8</ele>
        <time>2022-06-25T07:05:39Z</time>
      </trkpt>
      <trkpt lat="46.62596" lon="5.26771">
        <ele>192.8</ele>
        <time>2022-06-25T07:05:40Z</time>
      </trkpt>
      <trkpt lat="46.62594" lon="5.26764">
        <ele>192.8</ele>
        <time>2022-06-25T07:05:41Z</time>
      </trkpt>
      <trkpt lat="46.62593" lon="5.26756">
        <ele>192.8</ele>
        <time>2022-06-25T07:05:42Z</time>
      </trkpt>
      <trkpt lat="46.62591" lon="5.26747">
        <ele>192.8</ele>
        <time>2022-06-25T07:05:43Z</time>
      </trkpt>
      <trkpt lat="46.62589" lon="5.26738">
        <ele>192.8</ele>
        <time>2022-06-25T07:05:44Z</time>
      </trkpt>
      <trkpt lat="46.62587" lon="5.2673">
        <ele>192.8</ele>
        <time>2022-06-25T07:05:45Z</time>
      </trkpt>
      <trkpt lat="46.62586" lon="5.26722">
        <ele>192.8</ele>
        <time>2022-06-25T07:05:46Z</time>
      </trkpt>
      <trkpt lat="46.62584" lon="5.26713">
        <ele>192.8</ele>
        <time>2022-06-25T07:05:47Z</time>
      </trkpt>
      <trkpt lat="46.62583" lon="5.26705">
        <ele>193</ele>
        <time>2022-06-25T07:05:48Z</time>
      </trkpt>
      <trkpt lat="46.62582" lon="5.26696">
        <ele>193</ele>
        <time>2022-06-25T07:05:49Z</time>
      </trkpt>
      <trkpt lat="46.62581" lon="5.26687">
        <ele>193</ele>
        <time>2022-06-25T07:05:50Z</time>
      </trkpt>
      <trkpt lat="46.6258" lon="5.26678">
        <ele>193</ele>
        <time>2022-06-25T07:05:51Z</time>
      </trkpt>
      <trkpt lat="46.62579" lon="5.26668">
        <ele>193</ele>
        <time>2022-06-25T07:05:52Z</time>
      </trkpt>
      <trkpt lat="46.62577" lon="5.26659">
        <ele>193</ele>
        <time>2022-06-25T07:05:53Z</time>
      </trkpt>
      <trkpt lat="46.62576" lon="5.2665">
        <ele>193</ele>
        <time>2022-06-25T07:05:54Z</time>
      </trkpt>
      <trkpt lat="46.62574" lon="5.26642">
        <ele>193</ele>
        <time>2022-06-25T07:05:55Z</time>
      </trkpt>
      <trkpt lat="46.62574" lon="5.26634">
        <ele>193</ele>
        <time>2022-06-25T07:05:56Z</time>
      </trkpt>
      <trkpt lat="46.62573" lon="5.26626">
        <ele>193.2</ele>
        <time>2022-06-25T07:05:57Z</time>
      </trkpt>
      <trkpt lat="46.62573" lon="5.26617">
        <ele>193.2</ele>
        <time>2022-06-25T07:05:58Z</time>
      </trkpt>
      <trkpt lat="46.62573" lon="5.26609">
        <ele>193.2</ele>
        <time>2022-06-25T07:05:59Z</time>
      </trkpt>
      <trkpt lat="46.62573" lon="5.26601">
        <ele>193.2</ele>
        <time>2022-06-25T07:06:00Z</time>
      </trkpt>
      <trkpt lat="46.62573" lon="5.26593">
        <ele>193.2</ele>
        <time>2022-06-25T07:06:01Z</time>
      </trkpt>
      <trkpt lat="46.62573" lon="5.26584">
        <ele>193.2</ele>
        <time>2022-06-25T07:06:02Z</time>
      </trkpt>
      <trkpt lat="46.62574" lon="5.26575">
        <ele>193.2</ele>
        <time>2022-06-25T07:06:03Z</time>
      </trkpt>
      <trkpt lat="46.62574" lon="5.26566">
        <ele>193.2</ele>
        <time>2022-06-25T07:06:04Z</time>
      </trkpt>
      <trkpt lat="46.62575" lon="5.26556">
        <ele>193.4</ele>
        <time>2022-06-25T07:06:05Z</time>
      </trkpt>
      <trkpt lat="46.62575" lon="5.26547">
        <ele>193.4</ele>
        <time>2022-06-25T07:06:06Z</time>
      </trkpt>
      <trkpt lat="46.62576" lon="5.26539">
        <ele>193.4</ele>
        <time>2022-06-25T07:06:07Z</time>
      </trkpt>
      <trkpt lat="46.62578" lon="5.2653">
        <ele>193.4</ele>
        <time>2022-06-25T07:06:08Z</time>
      </trkpt>
      <trkpt lat="46.62579" lon="5.26521">
        <ele>193.4</ele>
        <time>2022-06-25T07:06:09Z</time>
      </trkpt>
      <trkpt lat="46.6258" lon="5.26512">
        <ele>193.4</ele>
        <time>2022-06-25T07:06:10Z</time>
      </trkpt>
      <trkpt lat="46.62581" lon="5.26504">
        <ele>193.4</ele>
        <time>2022-06-25T07:06:11Z</time>
      </trkpt>
      <trkpt lat="46.62583" lon="5.26495">
        <ele>193.4</ele>
        <time>2022-06-25T07:06:12Z</time>
      </trkpt>
      <trkpt lat="46.62584" lon="5.26486">
        <ele>193.4</ele>
        <time>2022-06-25T07:06:13Z</time>
      </trkpt>
      <trkpt lat="46.62585" lon="5.26478">
        <ele>193.4</ele>
        <time>2022-06-25T07:06:14Z</time>
      </trkpt>
      <trkpt lat="46.62587" lon="5.26469">
        <ele>193.4</ele>
        <time>2022-06-25T07:06:15Z</time>
      </trkpt>
      <trkpt lat="46.62589" lon="5.26461">
        <ele>193.4</ele>
        <time>2022-06-25T07:06:16Z</time>
      </trkpt>
      <trkpt lat="46.62591" lon="5.26452">
        <ele>193.4</ele>
        <time>2022-06-25T07:06:17Z</time>
      </trkpt>
      <trkpt lat="46.62593" lon="5.26444">
        <ele>193.4</ele>
        <time>2022-06-25T07:06:18Z</time>
      </trkpt>
      <trkpt lat="46.62595" lon="5.26435">
        <ele>193.4</ele>
        <time>2022-06-25T07:06:19Z</time>
      </trkpt>
      <trkpt lat="46.62598" lon="5.26427">
        <ele>193.4</ele>
        <time>2022-06-25T07:06:20Z</time>
      </trkpt>
      <trkpt lat="46.626" lon="5.26419">
        <ele>193.4</ele>
        <time>2022-06-25T07:06:21Z</time>
      </trkpt>
      <trkpt lat="46.62603" lon="5.26411">
        <ele>193.4</ele>
        <time>2022-06-25T07:06:22Z</time>
      </trkpt>
      <trkpt lat="46.62605" lon="5.26402">
        <ele>193.2</ele>
        <time>2022-06-25T07:06:23Z</time>
      </trkpt>
      <trkpt lat="46.62607" lon="5.26394">
        <ele>193.2</ele>
        <time>2022-06-25T07:06:24Z</time>
      </trkpt>
      <trkpt lat="46.6261" lon="5.26385">
        <ele>193.2</ele>
        <time>2022-06-25T07:06:25Z</time>
      </trkpt>
      <trkpt lat="46.62613" lon="5.26377">
        <ele>193.2</ele>
        <time>2022-06-25T07:06:26Z</time>
      </trkpt>
      <trkpt lat="46.62615" lon="5.26369">
        <ele>193.2</ele>
        <time>2022-06-25T07:06:27Z</time>
      </trkpt>
      <trkpt lat="46.62618" lon="5.2636">
        <ele>193.2</ele>
        <time>2022-06-25T07:06:28Z</time>
      </trkpt>
      <trkpt lat="46.6262" lon="5.26352">
        <ele>193.2</ele>
        <time>2022-06-25T07:06:29Z</time>
      </trkpt>
      <trkpt lat="46.62623" lon="5.26344">
        <ele>193.2</ele>
        <time>2022-06-25T07:06:30Z</time>
      </trkpt>
      <trkpt lat="46.62626" lon="5.26336">
        <ele>193.2</ele>
        <time>2022-06-25T07:06:31Z</time>
      </trkpt>
      <trkpt lat="46.62629" lon="5.26328">
        <ele>193.2</ele>
        <time>2022-06-25T07:06:32Z</time>
      </trkpt>
      <trkpt lat="46.62632" lon="5.2632">
        <ele>193.2</ele>
        <time>2022-06-25T07:06:33Z</time>
      </trkpt>
      <trkpt lat="46.62635" lon="5.26312">
        <ele>193.2</ele>
        <time>2022-06-25T07:06:34Z</time>
      </trkpt>
      <trkpt lat="46.62638" lon="5.26304">
        <ele>193.2</ele>
        <time>2022-06-25T07:06:35Z</time>
      </trkpt>
      <trkpt lat="46.62641" lon="5.26296">
        <ele>193</ele>
        <time>2022-06-25T07:06:36Z</time>
      </trkpt>
      <trkpt lat="46.62645" lon="5.26289">
        <ele>193</ele>
        <time>2022-06-25T07:06:37Z</time>
      </trkpt>
      <trkpt lat="46.62649" lon="5.26281">
        <ele>193</ele>
        <time>2022-06-25T07:06:38Z</time>
      </trkpt>
      <trkpt lat="46.62653" lon="5.26273">
        <ele>193</ele>
        <time>2022-06-25T07:06:39Z</time>
      </trkpt>
      <trkpt lat="46.62657" lon="5.26266">
        <ele>193</ele>
        <time>2022-06-25T07:06:40Z</time>
      </trkpt>
      <trkpt lat="46.62661" lon="5.26259">
        <ele>193</ele>
        <time>2022-06-25T07:06:41Z</time>
      </trkpt>
      <trkpt lat="46.62666" lon="5.26251">
        <ele>193</ele>
        <time>2022-06-25T07:06:42Z</time>
      </trkpt>
      <trkpt lat="46.6267" lon="5.26244">
        <ele>193</ele>
        <time>2022-06-25T07:06:43Z</time>
      </trkpt>
      <trkpt lat="46.62674" lon="5.26238">
        <ele>192.8</ele>
        <time>2022-06-25T07:06:44Z</time>
      </trkpt>
      <trkpt lat="46.62679" lon="5.26231">
        <ele>192.8</ele>
        <time>2022-06-25T07:06:45Z</time>
      </trkpt>
      <trkpt lat="46.62683" lon="5.26224">
        <ele>192.8</ele>
        <time>2022-06-25T07:06:46Z</time>
      </trkpt>
      <trkpt lat="46.62688" lon="5.26217">
        <ele>192.8</ele>
        <time>2022-06-25T07:06:47Z</time>
      </trkpt>
      <trkpt lat="46.62692" lon="5.2621">
        <ele>192.8</ele>
        <time>2022-06-25T07:06:48Z</time>
      </trkpt>
      <trkpt lat="46.62697" lon="5.26203">
        <ele>192.8</ele>
        <time>2022-06-25T07:06:49Z</time>
      </trkpt>
      <trkpt lat="46.62701" lon="5.26196">
        <ele>192.6</ele>
        <time>2022-06-25T07:06:50Z</time>
      </trkpt>
      <trkpt lat="46.62706" lon="5.26189">
        <ele>192.6</ele>
        <time>2022-06-25T07:06:51Z</time>
      </trkpt>
      <trkpt lat="46.6271" lon="5.26182">
        <ele>192.6</ele>
        <time>2022-06-25T07:06:52Z</time>
      </trkpt>
      <trkpt lat="46.62714" lon="5.26175">
        <ele>192.4</ele>
        <time>2022-06-25T07:06:53Z</time>
      </trkpt>
      <trkpt lat="46.62718" lon="5.26167">
        <ele>192.4</ele>
        <time>2022-06-25T07:06:54Z</time>
      </trkpt>
      <trkpt lat="46.62723" lon="5.2616">
        <ele>192.4</ele>
        <time>2022-06-25T07:06:55Z</time>
      </trkpt>
      <trkpt lat="46.62727" lon="5.26152">
        <ele>192.2</ele>
        <time>2022-06-25T07:06:56Z</time>
      </trkpt>
      <trkpt lat="46.62731" lon="5.26144">
        <ele>192.2</ele>
        <time>2022-06-25T07:06:57Z</time>
      </trkpt>
      <trkpt lat="46.62735" lon="5.26136">
        <ele>191.8</ele>
        <time>2022-06-25T07:06:58Z</time>
      </trkpt>
      <trkpt lat="46.6274" lon="5.26129">
        <ele>191.8</ele>
        <time>2022-06-25T07:06:59Z</time>
      </trkpt>
      <trkpt lat="46.62744" lon="5.26121">
        <ele>191.8</ele>
        <time>2022-06-25T07:07:00Z</time>
      </trkpt>
      <trkpt lat="46.62748" lon="5.26112">
        <ele>191.8</ele>
        <time>2022-06-25T07:07:01Z</time>
      </trkpt>
      <trkpt lat="46.62751" lon="5.26104">
        <ele>191.6</ele>
        <time>2022-06-25T07:07:02Z</time>
      </trkpt>
      <trkpt lat="46.62755" lon="5.26095">
        <ele>191.6</ele>
        <time>2022-06-25T07:07:03Z</time>
      </trkpt>
      <trkpt lat="46.62759" lon="5.26086">
        <ele>191.6</ele>
        <time>2022-06-25T07:07:04Z</time>
      </trkpt>
      <trkpt lat="46.62762" lon="5.26077">
        <ele>191.6</ele>
        <time>2022-06-25T07:07:05Z</time>
      </trkpt>
      <trkpt lat="46.62765" lon="5.26068">
        <ele>191.6</ele>
        <time>2022-06-25T07:07:06Z</time>
      </trkpt>
      <trkpt lat="46.62768" lon="5.2606">
        <ele>191.6</ele>
        <time>2022-06-25T07:07:07Z</time>
      </trkpt>
      <trkpt lat="46.62772" lon="5.26051">
        <ele>191.6</ele>
        <time>2022-06-25T07:07:08Z</time>
      </trkpt>
      <trkpt lat="46.62775" lon="5.26042">
        <ele>191.6</ele>
        <time>2022-06-25T07:07:09Z</time>
      </trkpt>
      <trkpt lat="46.62778" lon="5.26034">
        <ele>191.6</ele>
        <time>2022-06-25T07:07:10Z</time>
      </trkpt>
      <trkpt lat="46.62781" lon="5.26026">
        <ele>191.6</ele>
        <time>2022-06-25T07:07:11Z</time>
      </trkpt>
      <trkpt lat="46.62784" lon="5.26018">
        <ele>191.6</ele>
        <time>2022-06-25T07:07:12Z</time>
      </trkpt>
      <trkpt lat="46.62787" lon="5.26011">
        <ele>191.6</ele>
        <time>2022-06-25T07:07:13Z</time>
      </trkpt>
      <trkpt lat="46.62789" lon="5.26003">
        <ele>191.6</ele>
        <time>2022-06-25T07:07:14Z</time>
      </trkpt>
      <trkpt lat="46.62791" lon="5.25996">
        <ele>191.6</ele>
        <time>2022-06-25T07:07:15Z</time>
      </trkpt>
      <trkpt lat="46.62793" lon="5.25987">
        <ele>191.6</ele>
        <time>2022-06-25T07:07:16Z</time>
      </trkpt>
      <trkpt lat="46.62795" lon="5.25978">
        <ele>191.6</ele>
        <time>2022-06-25T07:07:17Z</time>
      </trkpt>
      <trkpt lat="46.62796" lon="5.25971">
        <ele>191.6</ele>
        <time>2022-06-25T07:07:18Z</time>
      </trkpt>
      <trkpt lat="46.62799" lon="5.25962">
        <ele>191.6</ele>
        <time>2022-06-25T07:07:19Z</time>
      </trkpt>
      <trkpt lat="46.62801" lon="5.25954">
        <ele>191.8</ele>
        <time>2022-06-25T07:07:20Z</time>
      </trkpt>
      <trkpt lat="46.62803" lon="5.25946">
        <ele>191.8</ele>
        <time>2022-06-25T07:07:21Z</time>
      </trkpt>
      <trkpt lat="46.62805" lon="5.25938">
        <ele>191.8</ele>
        <time>2022-06-25T07:07:22Z</time>
      </trkpt>
      <trkpt lat="46.62808" lon="5.2593">
        <ele>191.8</ele>
        <time>2022-06-25T07:07:23Z</time>
      </trkpt>
      <trkpt lat="46.6281" lon="5.25922">
        <ele>192</ele>
        <time>2022-06-25T07:07:24Z</time>
      </trkpt>
      <trkpt lat="46.62812" lon="5.25914">
        <ele>192</ele>
        <time>2022-06-25T07:07:25Z</time>
      </trkpt>
      <trkpt lat="46.62813" lon="5.25905">
        <ele>192.4</ele>
        <time>2022-06-25T07:07:26Z</time>
      </trkpt>
      <trkpt lat="46.62814" lon="5.25896">
        <ele>192.4</ele>
        <time>2022-06-25T07:07:27Z</time>
      </trkpt>
      <trkpt lat="46.62815" lon="5.25887">
        <ele>192.4</ele>
        <time>2022-06-25T07:07:28Z</time>
      </trkpt>
      <trkpt lat="46.62816" lon="5.25878">
        <ele>192.4</ele>
        <time>2022-06-25T07:07:29Z</time>
      </trkpt>
      <trkpt lat="46.62817" lon="5.25869">
        <ele>192.4</ele>
        <time>2022-06-25T07:07:30Z</time>
      </trkpt>
      <trkpt lat="46.62818" lon="5.25861">
        <ele>192.4</ele>
        <time>2022-06-25T07:07:31Z</time>
      </trkpt>
      <trkpt lat="46.62819" lon="5.25851">
        <ele>192.4</ele>
        <time>2022-06-25T07:07:32Z</time>
      </trkpt>
      <trkpt lat="46.6282" lon="5.25842">
        <ele>192.4</ele>
        <time>2022-06-25T07:07:33Z</time>
      </trkpt>
      <trkpt lat="46.6282" lon="5.25834">
        <ele>192.6</ele>
        <time>2022-06-25T07:07:34Z</time>
      </trkpt>
      <trkpt lat="46.62821" lon="5.25825">
        <ele>192.6</ele>
        <time>2022-06-25T07:07:35Z</time>
      </trkpt>
      <trkpt lat="46.62822" lon="5.25816">
        <ele>192.6</ele>
        <time>2022-06-25T07:07:36Z</time>
      </trkpt>
      <trkpt lat="46.62823" lon="5.25807">
        <ele>192.8</ele>
        <time>2022-06-25T07:07:37Z</time>
      </trkpt>
      <trkpt lat="46.62824" lon="5.25798">
        <ele>192.8</ele>
        <time>2022-06-25T07:07:38Z</time>
      </trkpt>
      <trkpt lat="46.62825" lon="5.25789">
        <ele>192.8</ele>
        <time>2022-06-25T07:07:39Z</time>
      </trkpt>
      <trkpt lat="46.62826" lon="5.2578">
        <ele>193.2</ele>
        <time>2022-06-25T07:07:40Z</time>
      </trkpt>
      <trkpt lat="46.62827" lon="5.25772">
        <ele>193.2</ele>
        <time>2022-06-25T07:07:41Z</time>
      </trkpt>
      <trkpt lat="46.62828" lon="5.25763">
        <ele>193.4</ele>
        <time>2022-06-25T07:07:42Z</time>
      </trkpt>
      <trkpt lat="46.6283" lon="5.25755">
        <ele>193.4</ele>
        <time>2022-06-25T07:07:43Z</time>
      </trkpt>
      <trkpt lat="46.62831" lon="5.25747">
        <ele>193.6</ele>
        <time>2022-06-25T07:07:44Z</time>
      </trkpt>
      <trkpt lat="46.62832" lon="5.25739">
        <ele>193.6</ele>
        <time>2022-06-25T07:07:45Z</time>
      </trkpt>
      <trkpt lat="46.62833" lon="5.25731">
        <ele>193.6</ele>
        <time>2022-06-25T07:07:46Z</time>
      </trkpt>
      <trkpt lat="46.62834" lon="5.25724">
        <ele>193.6</ele>
        <time>2022-06-25T07:07:47Z</time>
      </trkpt>
      <trkpt lat="46.62836" lon="5.25717">
        <ele>194</ele>
        <time>2022-06-25T07:07:48Z</time>
      </trkpt>
      <trkpt lat="46.62838" lon="5.25709">
        <ele>194</ele>
        <time>2022-06-25T07:07:49Z</time>
      </trkpt>
      <trkpt lat="46.62839" lon="5.25702">
        <ele>194</ele>
        <time>2022-06-25T07:07:50Z</time>
      </trkpt>
      <trkpt lat="46.62841" lon="5.25695">
        <ele>194</ele>
        <time>2022-06-25T07:07:51Z</time>
      </trkpt>
      <trkpt lat="46.62844" lon="5.25688">
        <ele>194.2</ele>
        <time>2022-06-25T07:07:52Z</time>
      </trkpt>
      <trkpt lat="46.62846" lon="5.25681">
        <ele>194.2</ele>
        <time>2022-06-25T07:07:53Z</time>
      </trkpt>
      <trkpt lat="46.62848" lon="5.25674">
        <ele>194.2</ele>
        <time>2022-06-25T07:07:54Z</time>
      </trkpt>
      <trkpt lat="46.6285" lon="5.25667">
        <ele>194.2</ele>
        <time>2022-06-25T07:07:55Z</time>
      </trkpt>
      <trkpt lat="46.62852" lon="5.2566">
        <ele>194.4</ele>
        <time>2022-06-25T07:07:56Z</time>
      </trkpt>
      <trkpt lat="46.62854" lon="5.25653">
        <ele>194.4</ele>
        <time>2022-06-25T07:07:57Z</time>
      </trkpt>
      <trkpt lat="46.62856" lon="5.25645">
        <ele>194.4</ele>
        <time>2022-06-25T07:07:58Z</time>
      </trkpt>
      <trkpt lat="46.62859" lon="5.25639">
        <ele>194.8</ele>
        <time>2022-06-25T07:07:59Z</time>
      </trkpt>
      <trkpt lat="46.62861" lon="5.25632">
        <ele>194.8</ele>
        <time>2022-06-25T07:08:00Z</time>
      </trkpt>
      <trkpt lat="46.62864" lon="5.25625">
        <ele>194.8</ele>
        <time>2022-06-25T07:08:01Z</time>
      </trkpt>
      <trkpt lat="46.62866" lon="5.25618">
        <ele>194.8</ele>
        <time>2022-06-25T07:08:02Z</time>
      </trkpt>
      <trkpt lat="46.62869" lon="5.25611">
        <ele>194.8</ele>
        <time>2022-06-25T07:08:03Z</time>
      </trkpt>
      <trkpt lat="46.62871" lon="5.25604">
        <ele>195</ele>
        <time>2022-06-25T07:08:04Z</time>
      </trkpt>
      <trkpt lat="46.62874" lon="5.25598">
        <ele>195</ele>
        <time>2022-06-25T07:08:05Z</time>
      </trkpt>
      <trkpt lat="46.62876" lon="5.25593">
        <ele>195</ele>
        <time>2022-06-25T07:08:06Z</time>
      </trkpt>
      <trkpt lat="46.62878" lon="5.25588">
        <ele>195</ele>
        <time>2022-06-25T07:08:07Z</time>
      </trkpt>
      <trkpt lat="46.6288" lon="5.25583">
        <ele>195</ele>
        <time>2022-06-25T07:08:08Z</time>
      </trkpt>
      <trkpt lat="46.62882" lon="5.2558">
        <ele>195</ele>
        <time>2022-06-25T07:08:09Z</time>
      </trkpt>
      <trkpt lat="46.62883" lon="5.25576">
        <ele>195</ele>
        <time>2022-06-25T07:08:10Z</time>
      </trkpt>
      <trkpt lat="46.62884" lon="5.25573">
        <ele>195</ele>
        <time>2022-06-25T07:08:11Z</time>
      </trkpt>
      <trkpt lat="46.62885" lon="5.25567">
        <ele>195</ele>
        <time>2022-06-25T07:08:12Z</time>
      </trkpt>
      <trkpt lat="46.62887" lon="5.25562">
        <ele>195</ele>
        <time>2022-06-25T07:08:13Z</time>
      </trkpt>
      <trkpt lat="46.62888" lon="5.25556">
        <ele>195</ele>
        <time>2022-06-25T07:08:14Z</time>
      </trkpt>
      <trkpt lat="46.6289" lon="5.25549">
        <ele>195</ele>
        <time>2022-06-25T07:08:15Z</time>
      </trkpt>
      <trkpt lat="46.62892" lon="5.25542">
        <ele>195</ele>
        <time>2022-06-25T07:08:16Z</time>
      </trkpt>
      <trkpt lat="46.62894" lon="5.25536">
        <ele>195</ele>
        <time>2022-06-25T07:08:17Z</time>
      </trkpt>
      <trkpt lat="46.62896" lon="5.2553">
        <ele>195.2</ele>
        <time>2022-06-25T07:08:18Z</time>
      </trkpt>
      <trkpt lat="46.62898" lon="5.25523">
        <ele>195.2</ele>
        <time>2022-06-25T07:08:19Z</time>
      </trkpt>
      <trkpt lat="46.629" lon="5.25517">
        <ele>195.2</ele>
        <time>2022-06-25T07:08:20Z</time>
      </trkpt>
      <trkpt lat="46.62902" lon="5.25511">
        <ele>195.2</ele>
        <time>2022-06-25T07:08:21Z</time>
      </trkpt>
      <trkpt lat="46.62905" lon="5.25505">
        <ele>195.2</ele>
        <time>2022-06-25T07:08:22Z</time>
      </trkpt>
      <trkpt lat="46.62907" lon="5.25498">
        <ele>195.2</ele>
        <time>2022-06-25T07:08:23Z</time>
      </trkpt>
      <trkpt lat="46.62909" lon="5.25492">
        <ele>195.4</ele>
        <time>2022-06-25T07:08:24Z</time>
      </trkpt>
      <trkpt lat="46.62911" lon="5.25485">
        <ele>195.4</ele>
        <time>2022-06-25T07:08:25Z</time>
      </trkpt>
      <trkpt lat="46.62913" lon="5.25479">
        <ele>195.4</ele>
        <time>2022-06-25T07:08:26Z</time>
      </trkpt>
      <trkpt lat="46.62915" lon="5.25472">
        <ele>195.4</ele>
        <time>2022-06-25T07:08:27Z</time>
      </trkpt>
      <trkpt lat="46.62918" lon="5.25465">
        <ele>195.6</ele>
        <time>2022-06-25T07:08:28Z</time>
      </trkpt>
      <trkpt lat="46.6292" lon="5.25458">
        <ele>195.6</ele>
        <time>2022-06-25T07:08:29Z</time>
      </trkpt>
      <trkpt lat="46.62923" lon="5.25452">
        <ele>195.6</ele>
        <time>2022-06-25T07:08:30Z</time>
      </trkpt>
      <trkpt lat="46.62925" lon="5.25445">
        <ele>195.6</ele>
        <time>2022-06-25T07:08:31Z</time>
      </trkpt>
      <trkpt lat="46.62927" lon="5.25438">
        <ele>195.6</ele>
        <time>2022-06-25T07:08:32Z</time>
      </trkpt>
      <trkpt lat="46.62928" lon="5.25431">
        <ele>195.6</ele>
        <time>2022-06-25T07:08:33Z</time>
      </trkpt>
      <trkpt lat="46.6293" lon="5.25424">
        <ele>196</ele>
        <time>2022-06-25T07:08:34Z</time>
      </trkpt>
      <trkpt lat="46.62932" lon="5.25418">
        <ele>196</ele>
        <time>2022-06-25T07:08:35Z</time>
      </trkpt>
      <trkpt lat="46.62934" lon="5.25411">
        <ele>196</ele>
        <time>2022-06-25T07:08:36Z</time>
      </trkpt>
      <trkpt lat="46.62936" lon="5.25405">
        <ele>196.2</ele>
        <time>2022-06-25T07:08:37Z</time>
      </trkpt>
      <trkpt lat="46.62937" lon="5.25398">
        <ele>196.2</ele>
        <time>2022-06-25T07:08:38Z</time>
      </trkpt>
      <trkpt lat="46.62939" lon="5.25391">
        <ele>196.4</ele>
        <time>2022-06-25T07:08:39Z</time>
      </trkpt>
      <trkpt lat="46.62941" lon="5.25384">
        <ele>196.4</ele>
        <time>2022-06-25T07:08:40Z</time>
      </trkpt>
      <trkpt lat="46.62942" lon="5.25376">
        <ele>196.4</ele>
        <time>2022-06-25T07:08:41Z</time>
      </trkpt>
      <trkpt lat="46.62943" lon="5.25369">
        <ele>196.4</ele>
        <time>2022-06-25T07:08:42Z</time>
      </trkpt>
      <trkpt lat="46.62945" lon="5.25361">
        <ele>196.6</ele>
        <time>2022-06-25T07:08:43Z</time>
      </trkpt>
      <trkpt lat="46.62946" lon="5.25352">
        <ele>196.6</ele>
        <time>2022-06-25T07:08:44Z</time>
      </trkpt>
      <trkpt lat="46.62947" lon="5.25344">
        <ele>196.6</ele>
        <time>2022-06-25T07:08:45Z</time>
      </trkpt>
      <trkpt lat="46.62948" lon="5.25337">
        <ele>196.6</ele>
        <time>2022-06-25T07:08:46Z</time>
      </trkpt>
      <trkpt lat="46.62948" lon="5.25329">
        <ele>196.8</ele>
        <time>2022-06-25T07:08:47Z</time>
      </trkpt>
      <trkpt lat="46.62949" lon="5.25321">
        <ele>196.8</ele>
        <time>2022-06-25T07:08:48Z</time>
      </trkpt>
      <trkpt lat="46.6295" lon="5.25313">
        <ele>196.8</ele>
        <time>2022-06-25T07:08:49Z</time>
      </trkpt>
      <trkpt lat="46.6295" lon="5.25305">
        <ele>196.8</ele>
        <time>2022-06-25T07:08:50Z</time>
      </trkpt>
      <trkpt lat="46.62951" lon="5.25297">
        <ele>196.8</ele>
        <time>2022-06-25T07:08:51Z</time>
      </trkpt>
      <trkpt lat="46.62951" lon="5.2529">
        <ele>196.8</ele>
        <time>2022-06-25T07:08:52Z</time>
      </trkpt>
      <trkpt lat="46.62951" lon="5.25283">
        <ele>197</ele>
        <time>2022-06-25T07:08:53Z</time>
      </trkpt>
      <trkpt lat="46.62951" lon="5.25276">
        <ele>197</ele>
        <time>2022-06-25T07:08:54Z</time>
      </trkpt>
      <trkpt lat="46.62952" lon="5.25268">
        <ele>197</ele>
        <time>2022-06-25T07:08:55Z</time>
      </trkpt>
      <trkpt lat="46.62952" lon="5.25262">
        <ele>197</ele>
        <time>2022-06-25T07:08:56Z</time>
      </trkpt>
      <trkpt lat="46.62953" lon="5.25256">
        <ele>197</ele>
        <time>2022-06-25T07:08:57Z</time>
      </trkpt>
      <trkpt lat="46.62953" lon="5.25249">
        <ele>197.4</ele>
        <time>2022-06-25T07:08:58Z</time>
      </trkpt>
      <trkpt lat="46.62954" lon="5.25244">
        <ele>197.4</ele>
        <time>2022-06-25T07:08:59Z</time>
      </trkpt>
      <trkpt lat="46.62954" lon="5.25238">
        <ele>197.4</ele>
        <time>2022-06-25T07:09:00Z</time>
      </trkpt>
      <trkpt lat="46.62953" lon="5.25233">
        <ele>197.4</ele>
        <time>2022-06-25T07:09:01Z</time>
      </trkpt>
      <trkpt lat="46.62953" lon="5.25227">
        <ele>197.4</ele>
        <time>2022-06-25T07:09:02Z</time>
      </trkpt>
      <trkpt lat="46.62953" lon="5.25222">
        <ele>197.4</ele>
        <time>2022-06-25T07:09:03Z</time>
      </trkpt>
      <trkpt lat="46.62954" lon="5.25218">
        <ele>197.6</ele>
        <time>2022-06-25T07:09:04Z</time>
      </trkpt>
      <trkpt lat="46.62953" lon="5.25213">
        <ele>197.6</ele>
        <time>2022-06-25T07:09:05Z</time>
      </trkpt>
      <trkpt lat="46.62953" lon="5.25209">
        <ele>197.6</ele>
        <time>2022-06-25T07:09:06Z</time>
      </trkpt>
      <trkpt lat="46.62954" lon="5.25205">
        <ele>197.6</ele>
        <time>2022-06-25T07:09:07Z</time>
      </trkpt>
      <trkpt lat="46.62954" lon="5.25202">
        <ele>197.8</ele>
        <time>2022-06-25T07:09:08Z</time>
      </trkpt>
      <trkpt lat="46.62954" lon="5.25198">
        <ele>197.8</ele>
        <time>2022-06-25T07:09:09Z</time>
      </trkpt>
      <trkpt lat="46.62955" lon="5.25193">
        <ele>197.8</ele>
        <time>2022-06-25T07:09:10Z</time>
      </trkpt>
      <trkpt lat="46.62955" lon="5.25185">
        <ele>198</ele>
        <time>2022-06-25T07:09:11Z</time>
      </trkpt>
      <trkpt lat="46.62956" lon="5.25177">
        <ele>198</ele>
        <time>2022-06-25T07:09:12Z</time>
      </trkpt>
      <trkpt lat="46.62956" lon="5.2517">
        <ele>198</ele>
        <time>2022-06-25T07:09:13Z</time>
      </trkpt>
      <trkpt lat="46.62957" lon="5.25162">
        <ele>198</ele>
        <time>2022-06-25T07:09:14Z</time>
      </trkpt>
      <trkpt lat="46.62957" lon="5.25156">
        <ele>198.4</ele>
        <time>2022-06-25T07:09:15Z</time>
      </trkpt>
      <trkpt lat="46.62958" lon="5.2515">
        <ele>198.4</ele>
        <time>2022-06-25T07:09:16Z</time>
      </trkpt>
      <trkpt lat="46.62958" lon="5.25144">
        <ele>198.4</ele>
        <time>2022-06-25T07:09:17Z</time>
      </trkpt>
      <trkpt lat="46.62959" lon="5.25137">
        <ele>198.6</ele>
        <time>2022-06-25T07:09:18Z</time>
      </trkpt>
      <trkpt lat="46.6296" lon="5.2513">
        <ele>198.6</ele>
        <time>2022-06-25T07:09:19Z</time>
      </trkpt>
      <trkpt lat="46.6296" lon="5.25123">
        <ele>198.6</ele>
        <time>2022-06-25T07:09:20Z</time>
      </trkpt>
      <trkpt lat="46.62961" lon="5.25116">
        <ele>198.8</ele>
        <time>2022-06-25T07:09:21Z</time>
      </trkpt>
      <trkpt lat="46.62961" lon="5.2511">
        <ele>198.8</ele>
        <time>2022-06-25T07:09:22Z</time>
      </trkpt>
      <trkpt lat="46.62961" lon="5.25103">
        <ele>198.8</ele>
        <time>2022-06-25T07:09:23Z</time>
      </trkpt>
      <trkpt lat="46.62962" lon="5.25097">
        <ele>198.8</ele>
        <time>2022-06-25T07:09:24Z</time>
      </trkpt>
      <trkpt lat="46.62963" lon="5.25091">
        <ele>198.8</ele>
        <time>2022-06-25T07:09:25Z</time>
      </trkpt>
      <trkpt lat="46.62964" lon="5.25086">
        <ele>198.8</ele>
        <time>2022-06-25T07:09:26Z</time>
      </trkpt>
      <trkpt lat="46.62965" lon="5.2508">
        <ele>198.8</ele>
        <time>2022-06-25T07:09:27Z</time>
      </trkpt>
      <trkpt lat="46.62965" lon="5.25073">
        <ele>198.8</ele>
        <time>2022-06-25T07:09:28Z</time>
      </trkpt>
      <trkpt lat="46.62966" lon="5.25066">
        <ele>199</ele>
        <time>2022-06-25T07:09:29Z</time>
      </trkpt>
      <trkpt lat="46.62966" lon="5.2506">
        <ele>199</ele>
        <time>2022-06-25T07:09:30Z</time>
      </trkpt>
      <trkpt lat="46.62967" lon="5.25052">
        <ele>199</ele>
        <time>2022-06-25T07:09:31Z</time>
      </trkpt>
      <trkpt lat="46.62967" lon="5.25044">
        <ele>199.2</ele>
        <time>2022-06-25T07:09:32Z</time>
      </trkpt>
      <trkpt lat="46.62968" lon="5.25037">
        <ele>199.2</ele>
        <time>2022-06-25T07:09:33Z</time>
      </trkpt>
      <trkpt lat="46.62968" lon="5.25029">
        <ele>199.4</ele>
        <time>2022-06-25T07:09:34Z</time>
      </trkpt>
      <trkpt lat="46.62968" lon="5.25021">
        <ele>199.4</ele>
        <time>2022-06-25T07:09:36Z</time>
      </trkpt>
      <trkpt lat="46.62968" lon="5.25014">
        <ele>199.6</ele>
        <time>2022-06-25T07:09:37Z</time>
      </trkpt>
      <trkpt lat="46.62968" lon="5.25005">
        <ele>199.6</ele>
        <time>2022-06-25T07:09:38Z</time>
      </trkpt>
      <trkpt lat="46.62969" lon="5.24997">
        <ele>199.6</ele>
        <time>2022-06-25T07:09:39Z</time>
      </trkpt>
      <trkpt lat="46.62969" lon="5.24988">
        <ele>200</ele>
        <time>2022-06-25T07:09:40Z</time>
      </trkpt>
      <trkpt lat="46.62968" lon="5.24979">
        <ele>200</ele>
        <time>2022-06-25T07:09:41Z</time>
      </trkpt>
      <trkpt lat="46.62968" lon="5.24972">
        <ele>200.4</ele>
        <time>2022-06-25T07:09:42Z</time>
      </trkpt>
      <trkpt lat="46.62968" lon="5.24965">
        <ele>200.4</ele>
        <time>2022-06-25T07:09:43Z</time>
      </trkpt>
      <trkpt lat="46.62968" lon="5.24959">
        <ele>200.6</ele>
        <time>2022-06-25T07:09:44Z</time>
      </trkpt>
      <trkpt lat="46.62968" lon="5.24954">
        <ele>200.6</ele>
        <time>2022-06-25T07:09:45Z</time>
      </trkpt>
      <trkpt lat="46.62968" lon="5.24947">
        <ele>201</ele>
        <time>2022-06-25T07:09:46Z</time>
      </trkpt>
      <trkpt lat="46.62968" lon="5.24941">
        <ele>201.4</ele>
        <time>2022-06-25T07:09:47Z</time>
      </trkpt>
      <trkpt lat="46.62967" lon="5.24935">
        <ele>201.6</ele>
        <time>2022-06-25T07:09:48Z</time>
      </trkpt>
      <trkpt lat="46.62967" lon="5.24929">
        <ele>201.8</ele>
        <time>2022-06-25T07:09:49Z</time>
      </trkpt>
      <trkpt lat="46.62967" lon="5.24924">
        <ele>202.2</ele>
        <time>2022-06-25T07:09:50Z</time>
      </trkpt>
      <trkpt lat="46.62967" lon="5.24919">
        <ele>202.4</ele>
        <time>2022-06-25T07:09:51Z</time>
      </trkpt>
      <trkpt lat="46.62967" lon="5.24914">
        <ele>202.6</ele>
        <time>2022-06-25T07:09:52Z</time>
      </trkpt>
      <trkpt lat="46.62967" lon="5.2491">
        <ele>203</ele>
        <time>2022-06-25T07:09:53Z</time>
      </trkpt>
      <trkpt lat="46.62968" lon="5.24904">
        <ele>203.2</ele>
        <time>2022-06-25T07:09:54Z</time>
      </trkpt>
      <trkpt lat="46.62968" lon="5.24899">
        <ele>203.4</ele>
        <time>2022-06-25T07:09:55Z</time>
      </trkpt>
      <trkpt lat="46.62969" lon="5.24894">
        <ele>203.6</ele>
        <time>2022-06-25T07:09:56Z</time>
      </trkpt>
      <trkpt lat="46.62969" lon="5.24888">
        <ele>203.8</ele>
        <time>2022-06-25T07:09:57Z</time>
      </trkpt>
      <trkpt lat="46.62969" lon="5.2488">
        <ele>203.8</ele>
        <time>2022-06-25T07:09:58Z</time>
      </trkpt>
      <trkpt lat="46.62969" lon="5.24872">
        <ele>204</ele>
        <time>2022-06-25T07:09:59Z</time>
      </trkpt>
      <trkpt lat="46.62969" lon="5.24865">
        <ele>204</ele>
        <time>2022-06-25T07:10:00Z</time>
      </trkpt>
      <trkpt lat="46.62969" lon="5.24859">
        <ele>204.4</ele>
        <time>2022-06-25T07:10:01Z</time>
      </trkpt>
      <trkpt lat="46.62968" lon="5.24851">
        <ele>204.4</ele>
        <time>2022-06-25T07:10:02Z</time>
      </trkpt>
      <trkpt lat="46.62967" lon="5.24843">
        <ele>204.6</ele>
        <time>2022-06-25T07:10:03Z</time>
      </trkpt>
      <trkpt lat="46.62966" lon="5.24835">
        <ele>204.6</ele>
        <time>2022-06-25T07:10:04Z</time>
      </trkpt>
      <trkpt lat="46.62966" lon="5.24828">
        <ele>204.8</ele>
        <time>2022-06-25T07:10:05Z</time>
      </trkpt>
      <trkpt lat="46.62966" lon="5.2482">
        <ele>205</ele>
        <time>2022-06-25T07:10:06Z</time>
      </trkpt>
      <trkpt lat="46.62966" lon="5.24813">
        <ele>205</ele>
        <time>2022-06-25T07:10:07Z</time>
      </trkpt>
      <trkpt lat="46.62966" lon="5.24807">
        <ele>205.4</ele>
        <time>2022-06-25T07:10:08Z</time>
      </trkpt>
      <trkpt lat="46.62965" lon="5.24801">
        <ele>205.4</ele>
        <time>2022-06-25T07:10:09Z</time>
      </trkpt>
      <trkpt lat="46.62964" lon="5.24795">
        <ele>205.4</ele>
        <time>2022-06-25T07:10:10Z</time>
      </trkpt>
      <trkpt lat="46.62963" lon="5.24788">
        <ele>205.8</ele>
        <time>2022-06-25T07:10:11Z</time>
      </trkpt>
      <trkpt lat="46.62961" lon="5.24782">
        <ele>205.8</ele>
        <time>2022-06-25T07:10:12Z</time>
      </trkpt>
      <trkpt lat="46.62959" lon="5.24776">
        <ele>205.8</ele>
        <time>2022-06-25T07:10:13Z</time>
      </trkpt>
      <trkpt lat="46.62957" lon="5.2477">
        <ele>205.8</ele>
        <time>2022-06-25T07:10:14Z</time>
      </trkpt>
      <trkpt lat="46.62956" lon="5.24765">
        <ele>205.8</ele>
        <time>2022-06-25T07:10:15Z</time>
      </trkpt>
      <trkpt lat="46.62955" lon="5.2476">
        <ele>205.8</ele>
        <time>2022-06-25T07:10:16Z</time>
      </trkpt>
      <trkpt lat="46.62955" lon="5.24757">
        <ele>205.8</ele>
        <time>2022-06-25T07:10:17Z</time>
      </trkpt>
      <trkpt lat="46.62955" lon="5.24754">
        <ele>205.8</ele>
        <time>2022-06-25T07:10:18Z</time>
      </trkpt>
      <trkpt lat="46.62956" lon="5.24751">
        <ele>205.8</ele>
        <time>2022-06-25T07:10:19Z</time>
      </trkpt>
      <trkpt lat="46.62957" lon="5.24748">
        <ele>205.8</ele>
        <time>2022-06-25T07:10:20Z</time>
      </trkpt>
      <trkpt lat="46.62959" lon="5.24744">
        <ele>205.8</ele>
        <time>2022-06-25T07:10:21Z</time>
      </trkpt>
      <trkpt lat="46.6296" lon="5.2474">
        <ele>205.6</ele>
        <time>2022-06-25T07:10:22Z</time>
      </trkpt>
      <trkpt lat="46.62961" lon="5.24734">
        <ele>205.6</ele>
        <time>2022-06-25T07:10:23Z</time>
      </trkpt>
      <trkpt lat="46.62962" lon="5.24728">
        <ele>205.2</ele>
        <time>2022-06-25T07:10:24Z</time>
      </trkpt>
      <trkpt lat="46.62963" lon="5.24721">
        <ele>205.2</ele>
        <time>2022-06-25T07:10:25Z</time>
      </trkpt>
      <trkpt lat="46.62964" lon="5.24713">
        <ele>204.8</ele>
        <time>2022-06-25T07:10:26Z</time>
      </trkpt>
      <trkpt lat="46.62964" lon="5.24706">
        <ele>204.8</ele>
        <time>2022-06-25T07:10:27Z</time>
      </trkpt>
      <trkpt lat="46.62965" lon="5.24698">
        <ele>204.6</ele>
        <time>2022-06-25T07:10:28Z</time>
      </trkpt>
      <trkpt lat="46.62965" lon="5.2469">
        <ele>204.6</ele>
        <time>2022-06-25T07:10:29Z</time>
      </trkpt>
      <trkpt lat="46.62966" lon="5.24682">
        <ele>204.6</ele>
        <time>2022-06-25T07:10:30Z</time>
      </trkpt>
      <trkpt lat="46.62966" lon="5.24674">
        <ele>204.2</ele>
        <time>2022-06-25T07:10:31Z</time>
      </trkpt>
      <trkpt lat="46.62967" lon="5.24666">
        <ele>204.2</ele>
        <time>2022-06-25T07:10:32Z</time>
      </trkpt>
      <trkpt lat="46.62968" lon="5.24658">
        <ele>204</ele>
        <time>2022-06-25T07:10:33Z</time>
      </trkpt>
      <trkpt lat="46.62969" lon="5.2465">
        <ele>204</ele>
        <time>2022-06-25T07:10:34Z</time>
      </trkpt>
      <trkpt lat="46.62969" lon="5.24642">
        <ele>203.6</ele>
        <time>2022-06-25T07:10:35Z</time>
      </trkpt>
      <trkpt lat="46.6297" lon="5.24633">
        <ele>203.4</ele>
        <time>2022-06-25T07:10:36Z</time>
      </trkpt>
      <trkpt lat="46.62971" lon="5.24626">
        <ele>203</ele>
        <time>2022-06-25T07:10:37Z</time>
      </trkpt>
      <trkpt lat="46.62972" lon="5.24618">
        <ele>202.8</ele>
        <time>2022-06-25T07:10:38Z</time>
      </trkpt>
      <trkpt lat="46.62973" lon="5.24611">
        <ele>202.4</ele>
        <time>2022-06-25T07:10:39Z</time>
      </trkpt>
      <trkpt lat="46.62973" lon="5.24604">
        <ele>202</ele>
        <time>2022-06-25T07:10:40Z</time>
      </trkpt>
      <trkpt lat="46.62974" lon="5.24597">
        <ele>201.6</ele>
        <time>2022-06-25T07:10:41Z</time>
      </trkpt>
      <trkpt lat="46.62974" lon="5.24592">
        <ele>201.6</ele>
        <time>2022-06-25T07:10:42Z</time>
      </trkpt>
      <trkpt lat="46.62974" lon="5.24587">
        <ele>201.2</ele>
        <time>2022-06-25T07:10:43Z</time>
      </trkpt>
      <trkpt lat="46.62975" lon="5.24583">
        <ele>201.2</ele>
        <time>2022-06-25T07:10:44Z</time>
      </trkpt>
      <trkpt lat="46.62974" lon="5.24579">
        <ele>201</ele>
        <time>2022-06-25T07:10:45Z</time>
      </trkpt>
      <trkpt lat="46.62973" lon="5.24575">
        <ele>201</ele>
        <time>2022-06-25T07:10:46Z</time>
      </trkpt>
      <trkpt lat="46.62973" lon="5.24571">
        <ele>201</ele>
        <time>2022-06-25T07:10:47Z</time>
      </trkpt>
      <trkpt lat="46.62973" lon="5.24567">
        <ele>201</ele>
        <time>2022-06-25T07:10:48Z</time>
      </trkpt>
      <trkpt lat="46.62973" lon="5.24562">
        <ele>200.6</ele>
        <time>2022-06-25T07:10:49Z</time>
      </trkpt>
      <trkpt lat="46.62972" lon="5.24556">
        <ele>200.6</ele>
        <time>2022-06-25T07:10:50Z</time>
      </trkpt>
      <trkpt lat="46.62972" lon="5.2455">
        <ele>200.6</ele>
        <time>2022-06-25T07:10:51Z</time>
      </trkpt>
      <trkpt lat="46.62971" lon="5.24544">
        <ele>200.6</ele>
        <time>2022-06-25T07:10:52Z</time>
      </trkpt>
      <trkpt lat="46.6297" lon="5.24538">
        <ele>200.6</ele>
        <time>2022-06-25T07:10:53Z</time>
      </trkpt>
      <trkpt lat="46.62969" lon="5.24531">
        <ele>200.6</ele>
        <time>2022-06-25T07:10:54Z</time>
      </trkpt>
      <trkpt lat="46.62968" lon="5.24525">
        <ele>200.6</ele>
        <time>2022-06-25T07:10:55Z</time>
      </trkpt>
      <trkpt lat="46.62967" lon="5.24518">
        <ele>200.6</ele>
        <time>2022-06-25T07:10:56Z</time>
      </trkpt>
      <trkpt lat="46.62966" lon="5.24511">
        <ele>200.4</ele>
        <time>2022-06-25T07:10:57Z</time>
      </trkpt>
      <trkpt lat="46.62964" lon="5.24503">
        <ele>200.4</ele>
        <time>2022-06-25T07:10:58Z</time>
      </trkpt>
      <trkpt lat="46.62963" lon="5.24496">
        <ele>200.4</ele>
        <time>2022-06-25T07:10:59Z</time>
      </trkpt>
      <trkpt lat="46.62962" lon="5.24488">
        <ele>200.4</ele>
        <time>2022-06-25T07:11:00Z</time>
      </trkpt>
      <trkpt lat="46.6296" lon="5.2448">
        <ele>200.4</ele>
        <time>2022-06-25T07:11:01Z</time>
      </trkpt>
      <trkpt lat="46.62959" lon="5.24472">
        <ele>200.4</ele>
        <time>2022-06-25T07:11:02Z</time>
      </trkpt>
      <trkpt lat="46.62957" lon="5.24464">
        <ele>200.4</ele>
        <time>2022-06-25T07:11:03Z</time>
      </trkpt>
      <trkpt lat="46.62955" lon="5.24457">
        <ele>200.2</ele>
        <time>2022-06-25T07:11:04Z</time>
      </trkpt>
      <trkpt lat="46.62953" lon="5.24449">
        <ele>200.2</ele>
        <time>2022-06-25T07:11:05Z</time>
      </trkpt>
      <trkpt lat="46.62952" lon="5.24441">
        <ele>200.2</ele>
        <time>2022-06-25T07:11:06Z</time>
      </trkpt>
      <trkpt lat="46.6295" lon="5.24433">
        <ele>200.2</ele>
        <time>2022-06-25T07:11:07Z</time>
      </trkpt>
      <trkpt lat="46.62948" lon="5.24426">
        <ele>200</ele>
        <time>2022-06-25T07:11:08Z</time>
      </trkpt>
      <trkpt lat="46.62946" lon="5.24418">
        <ele>200</ele>
        <time>2022-06-25T07:11:09Z</time>
      </trkpt>
      <trkpt lat="46.62943" lon="5.2441">
        <ele>200</ele>
        <time>2022-06-25T07:11:10Z</time>
      </trkpt>
      <trkpt lat="46.6294" lon="5.24402">
        <ele>200</ele>
        <time>2022-06-25T07:11:11Z</time>
      </trkpt>
      <trkpt lat="46.62937" lon="5.24395">
        <ele>200</ele>
        <time>2022-06-25T07:11:12Z</time>
      </trkpt>
      <trkpt lat="46.62934" lon="5.24387">
        <ele>200</ele>
        <time>2022-06-25T07:11:13Z</time>
      </trkpt>
      <trkpt lat="46.62932" lon="5.24379">
        <ele>200</ele>
        <time>2022-06-25T07:11:14Z</time>
      </trkpt>
      <trkpt lat="46.62929" lon="5.24371">
        <ele>200</ele>
        <time>2022-06-25T07:11:15Z</time>
      </trkpt>
      <trkpt lat="46.62925" lon="5.24363">
        <ele>199.8</ele>
        <time>2022-06-25T07:11:16Z</time>
      </trkpt>
      <trkpt lat="46.62922" lon="5.24355">
        <ele>199.8</ele>
        <time>2022-06-25T07:11:17Z</time>
      </trkpt>
      <trkpt lat="46.62919" lon="5.24347">
        <ele>199.8</ele>
        <time>2022-06-25T07:11:18Z</time>
      </trkpt>
      <trkpt lat="46.62915" lon="5.2434">
        <ele>199.4</ele>
        <time>2022-06-25T07:11:19Z</time>
      </trkpt>
      <trkpt lat="46.62912" lon="5.24333">
        <ele>199.4</ele>
        <time>2022-06-25T07:11:20Z</time>
      </trkpt>
      <trkpt lat="46.62909" lon="5.24326">
        <ele>199.4</ele>
        <time>2022-06-25T07:11:21Z</time>
      </trkpt>
      <trkpt lat="46.62905" lon="5.24319">
        <ele>199.4</ele>
        <time>2022-06-25T07:11:22Z</time>
      </trkpt>
      <trkpt lat="46.62902" lon="5.24312">
        <ele>199.4</ele>
        <time>2022-06-25T07:11:23Z</time>
      </trkpt>
      <trkpt lat="46.62899" lon="5.24305">
        <ele>199.2</ele>
        <time>2022-06-25T07:11:24Z</time>
      </trkpt>
      <trkpt lat="46.62895" lon="5.24298">
        <ele>199.2</ele>
        <time>2022-06-25T07:11:25Z</time>
      </trkpt>
      <trkpt lat="46.62892" lon="5.24291">
        <ele>199</ele>
        <time>2022-06-25T07:11:26Z</time>
      </trkpt>
      <trkpt lat="46.62889" lon="5.24284">
        <ele>199</ele>
        <time>2022-06-25T07:11:27Z</time>
      </trkpt>
      <trkpt lat="46.62885" lon="5.24279">
        <ele>198.8</ele>
        <time>2022-06-25T07:11:28Z</time>
      </trkpt>
      <trkpt lat="46.62882" lon="5.24272">
        <ele>198.8</ele>
        <time>2022-06-25T07:11:29Z</time>
      </trkpt>
      <trkpt lat="46.62878" lon="5.24267">
        <ele>198.4</ele>
        <time>2022-06-25T07:11:30Z</time>
      </trkpt>
      <trkpt lat="46.62876" lon="5.24262">
        <ele>198.4</ele>
        <time>2022-06-25T07:11:31Z</time>
      </trkpt>
      <trkpt lat="46.62874" lon="5.24258">
        <ele>198.4</ele>
        <time>2022-06-25T07:11:32Z</time>
      </trkpt>
      <trkpt lat="46.62872" lon="5.24253">
        <ele>198.2</ele>
        <time>2022-06-25T07:11:33Z</time>
      </trkpt>
      <trkpt lat="46.6287" lon="5.2425">
        <ele>198.2</ele>
        <time>2022-06-25T07:11:34Z</time>
      </trkpt>
      <trkpt lat="46.62869" lon="5.24247">
        <ele>198.2</ele>
        <time>2022-06-25T07:11:35Z</time>
      </trkpt>
      <trkpt lat="46.62868" lon="5.24245">
        <ele>198.2</ele>
        <time>2022-06-25T07:11:36Z</time>
      </trkpt>
      <trkpt lat="46.62868" lon="5.24243">
        <ele>198</ele>
        <time>2022-06-25T07:11:37Z</time>
      </trkpt>
      <trkpt lat="46.62867" lon="5.24241">
        <ele>198</ele>
        <time>2022-06-25T07:11:38Z</time>
      </trkpt>
      <trkpt lat="46.62867" lon="5.2424">
        <ele>198</ele>
        <time>2022-06-25T07:11:39Z</time>
      </trkpt>
      <trkpt lat="46.62867" lon="5.24239">
        <ele>198</ele>
        <time>2022-06-25T07:11:40Z</time>
      </trkpt>
      <trkpt lat="46.62866" lon="5.24238">
        <ele>198</ele>
        <time>2022-06-25T07:11:41Z</time>
      </trkpt>
      <trkpt lat="46.62866" lon="5.24237">
        <ele>198</ele>
        <time>2022-06-25T07:11:42Z</time>
      </trkpt>
      <trkpt lat="46.62861" lon="5.24227">
        <ele>197.8</ele>
        <time>2022-06-25T07:12:52Z</time>
      </trkpt>
      <trkpt lat="46.6286" lon="5.24224">
        <ele>197.8</ele>
        <time>2022-06-25T07:12:53Z</time>
      </trkpt>
      <trkpt lat="46.62858" lon="5.2422">
        <ele>197.8</ele>
        <time>2022-06-25T07:12:54Z</time>
      </trkpt>
      <trkpt lat="46.62856" lon="5.24215">
        <ele>197.8</ele>
        <time>2022-06-25T07:12:55Z</time>
      </trkpt>
      <trkpt lat="46.62854" lon="5.24211">
        <ele>197.8</ele>
        <time>2022-06-25T07:12:56Z</time>
      </trkpt>
      <trkpt lat="46.62852" lon="5.24206">
        <ele>197.8</ele>
        <time>2022-06-25T07:12:57Z</time>
      </trkpt>
      <trkpt lat="46.6285" lon="5.24202">
        <ele>197.8</ele>
        <time>2022-06-25T07:12:58Z</time>
      </trkpt>
      <trkpt lat="46.62847" lon="5.24197">
        <ele>197.8</ele>
        <time>2022-06-25T07:12:59Z</time>
      </trkpt>
      <trkpt lat="46.62845" lon="5.24192">
        <ele>197.6</ele>
        <time>2022-06-25T07:13:00Z</time>
      </trkpt>
      <trkpt lat="46.62842" lon="5.24187">
        <ele>197.6</ele>
        <time>2022-06-25T07:13:01Z</time>
      </trkpt>
      <trkpt lat="46.62839" lon="5.24182">
        <ele>197.6</ele>
        <time>2022-06-25T07:13:02Z</time>
      </trkpt>
      <trkpt lat="46.62836" lon="5.24177">
        <ele>197.6</ele>
        <time>2022-06-25T07:13:03Z</time>
      </trkpt>
      <trkpt lat="46.62833" lon="5.24171">
        <ele>197.6</ele>
        <time>2022-06-25T07:13:04Z</time>
      </trkpt>
      <trkpt lat="46.6283" lon="5.24166">
        <ele>197.6</ele>
        <time>2022-06-25T07:13:05Z</time>
      </trkpt>
      <trkpt lat="46.62827" lon="5.2416">
        <ele>197.2</ele>
        <time>2022-06-25T07:13:06Z</time>
      </trkpt>
      <trkpt lat="46.62824" lon="5.24154">
        <ele>197.2</ele>
        <time>2022-06-25T07:13:07Z</time>
      </trkpt>
      <trkpt lat="46.62821" lon="5.24149">
        <ele>197.2</ele>
        <time>2022-06-25T07:13:08Z</time>
      </trkpt>
      <trkpt lat="46.62818" lon="5.24144">
        <ele>197.2</ele>
        <time>2022-06-25T07:13:09Z</time>
      </trkpt>
      <trkpt lat="46.62815" lon="5.24138">
        <ele>197.2</ele>
        <time>2022-06-25T07:13:10Z</time>
      </trkpt>
      <trkpt lat="46.62812" lon="5.24132">
        <ele>197.2</ele>
        <time>2022-06-25T07:13:11Z</time>
      </trkpt>
      <trkpt lat="46.62809" lon="5.24126">
        <ele>197</ele>
        <time>2022-06-25T07:13:12Z</time>
      </trkpt>
      <trkpt lat="46.62806" lon="5.2412">
        <ele>197</ele>
        <time>2022-06-25T07:13:13Z</time>
      </trkpt>
      <trkpt lat="46.62803" lon="5.24114">
        <ele>197</ele>
        <time>2022-06-25T07:13:14Z</time>
      </trkpt>
      <trkpt lat="46.628" lon="5.24108">
        <ele>197</ele>
        <time>2022-06-25T07:13:15Z</time>
      </trkpt>
      <trkpt lat="46.62797" lon="5.24102">
        <ele>197</ele>
        <time>2022-06-25T07:13:16Z</time>
      </trkpt>
      <trkpt lat="46.62794" lon="5.24095">
        <ele>196.8</ele>
        <time>2022-06-25T07:13:17Z</time>
      </trkpt>
      <trkpt lat="46.62791" lon="5.24089">
        <ele>196.8</ele>
        <time>2022-06-25T07:13:18Z</time>
      </trkpt>
      <trkpt lat="46.62788" lon="5.24083">
        <ele>196.8</ele>
        <time>2022-06-25T07:13:19Z</time>
      </trkpt>
      <trkpt lat="46.62785" lon="5.24077">
        <ele>196.4</ele>
        <time>2022-06-25T07:13:20Z</time>
      </trkpt>
      <trkpt lat="46.62782" lon="5.24071">
        <ele>196.4</ele>
        <time>2022-06-25T07:13:21Z</time>
      </trkpt>
      <trkpt lat="46.62779" lon="5.24065">
        <ele>196.4</ele>
        <time>2022-06-25T07:13:22Z</time>
      </trkpt>
      <trkpt lat="46.62776" lon="5.24058">
        <ele>196.2</ele>
        <time>2022-06-25T07:13:23Z</time>
      </trkpt>
      <trkpt lat="46.62772" lon="5.24051">
        <ele>196.2</ele>
        <time>2022-06-25T07:13:24Z</time>
      </trkpt>
      <trkpt lat="46.62769" lon="5.24044">
        <ele>196.2</ele>
        <time>2022-06-25T07:13:25Z</time>
      </trkpt>
      <trkpt lat="46.62766" lon="5.24037">
        <ele>196</ele>
        <time>2022-06-25T07:13:26Z</time>
      </trkpt>
      <trkpt lat="46.62762" lon="5.2403">
        <ele>196</ele>
        <time>2022-06-25T07:13:27Z</time>
      </trkpt>
      <trkpt lat="46.62758" lon="5.24023">
        <ele>196</ele>
        <time>2022-06-25T07:13:28Z</time>
      </trkpt>
      <trkpt lat="46.62755" lon="5.24016">
        <ele>195.8</ele>
        <time>2022-06-25T07:13:29Z</time>
      </trkpt>
      <trkpt lat="46.62751" lon="5.24008">
        <ele>195.8</ele>
        <time>2022-06-25T07:13:30Z</time>
      </trkpt>
      <trkpt lat="46.62747" lon="5.24001">
        <ele>195.8</ele>
        <time>2022-06-25T07:13:31Z</time>
      </trkpt>
      <trkpt lat="46.62743" lon="5.23993">
        <ele>195.8</ele>
        <time>2022-06-25T07:13:32Z</time>
      </trkpt>
      <trkpt lat="46.6274" lon="5.23986">
        <ele>195.8</ele>
        <time>2022-06-25T07:13:33Z</time>
      </trkpt>
      <trkpt lat="46.62736" lon="5.23978">
        <ele>195.8</ele>
        <time>2022-06-25T07:13:34Z</time>
      </trkpt>
      <trkpt lat="46.62733" lon="5.2397">
        <ele>195.4</ele>
        <time>2022-06-25T07:13:35Z</time>
      </trkpt>
      <trkpt lat="46.6273" lon="5.23961">
        <ele>195.4</ele>
        <time>2022-06-25T07:13:36Z</time>
      </trkpt>
      <trkpt lat="46.62727" lon="5.23953">
        <ele>195</ele>
        <time>2022-06-25T07:13:37Z</time>
      </trkpt>
      <trkpt lat="46.62724" lon="5.23945">
        <ele>195</ele>
        <time>2022-06-25T07:13:38Z</time>
      </trkpt>
      <trkpt lat="46.62721" lon="5.23937">
        <ele>195</ele>
        <time>2022-06-25T07:13:39Z</time>
      </trkpt>
      <trkpt lat="46.62718" lon="5.23929">
        <ele>195</ele>
        <time>2022-06-25T07:13:40Z</time>
      </trkpt>
      <trkpt lat="46.62716" lon="5.23922">
        <ele>195</ele>
        <time>2022-06-25T07:13:41Z</time>
      </trkpt>
      <trkpt lat="46.62713" lon="5.23914">
        <ele>194.8</ele>
        <time>2022-06-25T07:13:42Z</time>
      </trkpt>
      <trkpt lat="46.62711" lon="5.23906">
        <ele>194.8</ele>
        <time>2022-06-25T07:13:43Z</time>
      </trkpt>
      <trkpt lat="46.62709" lon="5.23898">
        <ele>194.6</ele>
        <time>2022-06-25T07:13:44Z</time>
      </trkpt>
      <trkpt lat="46.62707" lon="5.2389">
        <ele>194.6</ele>
        <time>2022-06-25T07:13:45Z</time>
      </trkpt>
      <trkpt lat="46.62705" lon="5.23882">
        <ele>194.6</ele>
        <time>2022-06-25T07:13:46Z</time>
      </trkpt>
      <trkpt lat="46.62704" lon="5.23875">
        <ele>194.4</ele>
        <time>2022-06-25T07:13:47Z</time>
      </trkpt>
      <trkpt lat="46.62702" lon="5.23867">
        <ele>194.4</ele>
        <time>2022-06-25T07:13:48Z</time>
      </trkpt>
      <trkpt lat="46.62701" lon="5.23858">
        <ele>194.4</ele>
        <time>2022-06-25T07:13:49Z</time>
      </trkpt>
      <trkpt lat="46.62699" lon="5.23851">
        <ele>194.2</ele>
        <time>2022-06-25T07:13:50Z</time>
      </trkpt>
      <trkpt lat="46.62698" lon="5.23842">
        <ele>194.2</ele>
        <time>2022-06-25T07:13:51Z</time>
      </trkpt>
      <trkpt lat="46.62697" lon="5.23834">
        <ele>194.2</ele>
        <time>2022-06-25T07:13:52Z</time>
      </trkpt>
      <trkpt lat="46.62695" lon="5.23825">
        <ele>194.2</ele>
        <time>2022-06-25T07:13:53Z</time>
      </trkpt>
      <trkpt lat="46.62694" lon="5.23816">
        <ele>194.2</ele>
        <time>2022-06-25T07:13:54Z</time>
      </trkpt>
      <trkpt lat="46.62693" lon="5.23808">
        <ele>194</ele>
        <time>2022-06-25T07:13:55Z</time>
      </trkpt>
      <trkpt lat="46.62692" lon="5.23799">
        <ele>194</ele>
        <time>2022-06-25T07:13:56Z</time>
      </trkpt>
      <trkpt lat="46.62691" lon="5.2379">
        <ele>193.8</ele>
        <time>2022-06-25T07:13:57Z</time>
      </trkpt>
      <trkpt lat="46.6269" lon="5.2378">
        <ele>193.8</ele>
        <time>2022-06-25T07:13:58Z</time>
      </trkpt>
      <trkpt lat="46.6269" lon="5.23771">
        <ele>193.8</ele>
        <time>2022-06-25T07:13:59Z</time>
      </trkpt>
      <trkpt lat="46.6269" lon="5.23761">
        <ele>193.8</ele>
        <time>2022-06-25T07:14:00Z</time>
      </trkpt>
      <trkpt lat="46.62689" lon="5.23751">
        <ele>193.8</ele>
        <time>2022-06-25T07:14:01Z</time>
      </trkpt>
      <trkpt lat="46.62689" lon="5.23741">
        <ele>193.8</ele>
        <time>2022-06-25T07:14:02Z</time>
      </trkpt>
      <trkpt lat="46.62688" lon="5.23731">
        <ele>193.8</ele>
        <time>2022-06-25T07:14:03Z</time>
      </trkpt>
      <trkpt lat="46.62688" lon="5.23722">
        <ele>193.4</ele>
        <time>2022-06-25T07:14:04Z</time>
      </trkpt>
      <trkpt lat="46.62688" lon="5.23712">
        <ele>193.4</ele>
        <time>2022-06-25T07:14:05Z</time>
      </trkpt>
      <trkpt lat="46.62688" lon="5.23702">
        <ele>193.4</ele>
        <time>2022-06-25T07:14:06Z</time>
      </trkpt>
      <trkpt lat="46.62688" lon="5.23692">
        <ele>193.4</ele>
        <time>2022-06-25T07:14:07Z</time>
      </trkpt>
      <trkpt lat="46.62688" lon="5.23683">
        <ele>193.4</ele>
        <time>2022-06-25T07:14:08Z</time>
      </trkpt>
      <trkpt lat="46.62689" lon="5.23673">
        <ele>193.2</ele>
        <time>2022-06-25T07:14:09Z</time>
      </trkpt>
      <trkpt lat="46.6269" lon="5.23662">
        <ele>193.2</ele>
        <time>2022-06-25T07:14:10Z</time>
      </trkpt>
      <trkpt lat="46.62691" lon="5.23652">
        <ele>193.2</ele>
        <time>2022-06-25T07:14:11Z</time>
      </trkpt>
      <trkpt lat="46.62693" lon="5.23641">
        <ele>193.2</ele>
        <time>2022-06-25T07:14:12Z</time>
      </trkpt>
      <trkpt lat="46.62694" lon="5.23631">
        <ele>193</ele>
        <time>2022-06-25T07:14:13Z</time>
      </trkpt>
      <trkpt lat="46.62696" lon="5.23621">
        <ele>193</ele>
        <time>2022-06-25T07:14:14Z</time>
      </trkpt>
      <trkpt lat="46.62697" lon="5.2361">
        <ele>193</ele>
        <time>2022-06-25T07:14:15Z</time>
      </trkpt>
      <trkpt lat="46.62699" lon="5.236">
        <ele>193</ele>
        <time>2022-06-25T07:14:16Z</time>
      </trkpt>
      <trkpt lat="46.627" lon="5.2359">
        <ele>193</ele>
        <time>2022-06-25T07:14:17Z</time>
      </trkpt>
      <trkpt lat="46.62702" lon="5.2358">
        <ele>192.8</ele>
        <time>2022-06-25T07:14:18Z</time>
      </trkpt>
      <trkpt lat="46.62704" lon="5.2357">
        <ele>192.8</ele>
        <time>2022-06-25T07:14:19Z</time>
      </trkpt>
      <trkpt lat="46.62706" lon="5.2356">
        <ele>192.8</ele>
        <time>2022-06-25T07:14:20Z</time>
      </trkpt>
      <trkpt lat="46.62709" lon="5.2355">
        <ele>192.8</ele>
        <time>2022-06-25T07:14:21Z</time>
      </trkpt>
      <trkpt lat="46.62712" lon="5.2354">
        <ele>192.8</ele>
        <time>2022-06-25T07:14:22Z</time>
      </trkpt>
      <trkpt lat="46.62714" lon="5.2353">
        <ele>192.8</ele>
        <time>2022-06-25T07:14:23Z</time>
      </trkpt>
      <trkpt lat="46.62717" lon="5.23521">
        <ele>192.8</ele>
        <time>2022-06-25T07:14:24Z</time>
      </trkpt>
      <trkpt lat="46.6272" lon="5.23511">
        <ele>192.6</ele>
        <time>2022-06-25T07:14:25Z</time>
      </trkpt>
      <trkpt lat="46.62722" lon="5.23501">
        <ele>192.6</ele>
        <time>2022-06-25T07:14:26Z</time>
      </trkpt>
      <trkpt lat="46.62725" lon="5.23491">
        <ele>192.6</ele>
        <time>2022-06-25T07:14:27Z</time>
      </trkpt>
      <trkpt lat="46.62728" lon="5.23482">
        <ele>192.2</ele>
        <time>2022-06-25T07:14:28Z</time>
      </trkpt>
      <trkpt lat="46.62732" lon="5.23472">
        <ele>192.2</ele>
        <time>2022-06-25T07:14:29Z</time>
      </trkpt>
      <trkpt lat="46.62735" lon="5.23463">
        <ele>192</ele>
        <time>2022-06-25T07:14:30Z</time>
      </trkpt>
      <trkpt lat="46.62738" lon="5.23453">
        <ele>191.8</ele>
        <time>2022-06-25T07:14:31Z</time>
      </trkpt>
      <trkpt lat="46.62742" lon="5.23444">
        <ele>191.8</ele>
        <time>2022-06-25T07:14:32Z</time>
      </trkpt>
      <trkpt lat="46.62746" lon="5.23435">
        <ele>191.4</ele>
        <time>2022-06-25T07:14:33Z</time>
      </trkpt>
      <trkpt lat="46.6275" lon="5.23427">
        <ele>191.4</ele>
        <time>2022-06-25T07:14:34Z</time>
      </trkpt>
      <trkpt lat="46.62754" lon="5.23419">
        <ele>191.2</ele>
        <time>2022-06-25T07:14:35Z</time>
      </trkpt>
      <trkpt lat="46.62758" lon="5.2341">
        <ele>191.2</ele>
        <time>2022-06-25T07:14:36Z</time>
      </trkpt>
      <trkpt lat="46.62762" lon="5.23402">
        <ele>190.8</ele>
        <time>2022-06-25T07:14:37Z</time>
      </trkpt>
      <trkpt lat="46.62766" lon="5.23394">
        <ele>190.8</ele>
        <time>2022-06-25T07:14:38Z</time>
      </trkpt>
      <trkpt lat="46.6277" lon="5.23386">
        <ele>190.6</ele>
        <time>2022-06-25T07:14:39Z</time>
      </trkpt>
      <trkpt lat="46.62775" lon="5.23378">
        <ele>190.6</ele>
        <time>2022-06-25T07:14:40Z</time>
      </trkpt>
      <trkpt lat="46.62779" lon="5.23371">
        <ele>190.4</ele>
        <time>2022-06-25T07:14:41Z</time>
      </trkpt>
      <trkpt lat="46.62783" lon="5.23363">
        <ele>190.4</ele>
        <time>2022-06-25T07:14:42Z</time>
      </trkpt>
      <trkpt lat="46.62788" lon="5.23356">
        <ele>190.4</ele>
        <time>2022-06-25T07:14:43Z</time>
      </trkpt>
      <trkpt lat="46.62792" lon="5.23349">
        <ele>190.4</ele>
        <time>2022-06-25T07:14:44Z</time>
      </trkpt>
      <trkpt lat="46.62796" lon="5.23341">
        <ele>190.2</ele>
        <time>2022-06-25T07:14:45Z</time>
      </trkpt>
      <trkpt lat="46.628" lon="5.23334">
        <ele>190.2</ele>
        <time>2022-06-25T07:14:46Z</time>
      </trkpt>
      <trkpt lat="46.62804" lon="5.23326">
        <ele>190.2</ele>
        <time>2022-06-25T07:14:47Z</time>
      </trkpt>
      <trkpt lat="46.62808" lon="5.23319">
        <ele>190.2</ele>
        <time>2022-06-25T07:14:48Z</time>
      </trkpt>
      <trkpt lat="46.62812" lon="5.23311">
        <ele>189.8</ele>
        <time>2022-06-25T07:14:49Z</time>
      </trkpt>
      <trkpt lat="46.62815" lon="5.23304">
        <ele>189.6</ele>
        <time>2022-06-25T07:14:50Z</time>
      </trkpt>
      <trkpt lat="46.62819" lon="5.23297">
        <ele>189.6</ele>
        <time>2022-06-25T07:14:51Z</time>
      </trkpt>
      <trkpt lat="46.62823" lon="5.2329">
        <ele>189.2</ele>
        <time>2022-06-25T07:14:52Z</time>
      </trkpt>
      <trkpt lat="46.62826" lon="5.23284">
        <ele>189.2</ele>
        <time>2022-06-25T07:14:53Z</time>
      </trkpt>
      <trkpt lat="46.62829" lon="5.23278">
        <ele>189</ele>
        <time>2022-06-25T07:14:54Z</time>
      </trkpt>
      <trkpt lat="46.62832" lon="5.23272">
        <ele>189</ele>
        <time>2022-06-25T07:14:55Z</time>
      </trkpt>
      <trkpt lat="46.62836" lon="5.23268">
        <ele>188.8</ele>
        <time>2022-06-25T07:14:56Z</time>
      </trkpt>
      <trkpt lat="46.62839" lon="5.23263">
        <ele>188.8</ele>
        <time>2022-06-25T07:14:57Z</time>
      </trkpt>
      <trkpt lat="46.62843" lon="5.23258">
        <ele>188.8</ele>
        <time>2022-06-25T07:14:58Z</time>
      </trkpt>
      <trkpt lat="46.62846" lon="5.23253">
        <ele>188.8</ele>
        <time>2022-06-25T07:14:59Z</time>
      </trkpt>
      <trkpt lat="46.62849" lon="5.23247">
        <ele>188.8</ele>
        <time>2022-06-25T07:15:00Z</time>
      </trkpt>
      <trkpt lat="46.62851" lon="5.23241">
        <ele>188.8</ele>
        <time>2022-06-25T07:15:01Z</time>
      </trkpt>
      <trkpt lat="46.62854" lon="5.23234">
        <ele>188.8</ele>
        <time>2022-06-25T07:15:02Z</time>
      </trkpt>
      <trkpt lat="46.62858" lon="5.23228">
        <ele>188.8</ele>
        <time>2022-06-25T07:15:03Z</time>
      </trkpt>
      <trkpt lat="46.62861" lon="5.23221">
        <ele>188.8</ele>
        <time>2022-06-25T07:15:04Z</time>
      </trkpt>
      <trkpt lat="46.62865" lon="5.23215">
        <ele>188.8</ele>
        <time>2022-06-25T07:15:05Z</time>
      </trkpt>
      <trkpt lat="46.62868" lon="5.23209">
        <ele>188.8</ele>
        <time>2022-06-25T07:15:06Z</time>
      </trkpt>
      <trkpt lat="46.62872" lon="5.23202">
        <ele>188.8</ele>
        <time>2022-06-25T07:15:07Z</time>
      </trkpt>
      <trkpt lat="46.62875" lon="5.23195">
        <ele>188.8</ele>
        <time>2022-06-25T07:15:08Z</time>
      </trkpt>
      <trkpt lat="46.62879" lon="5.23189">
        <ele>188.8</ele>
        <time>2022-06-25T07:15:09Z</time>
      </trkpt>
      <trkpt lat="46.62882" lon="5.23183">
        <ele>188.8</ele>
        <time>2022-06-25T07:15:10Z</time>
      </trkpt>
      <trkpt lat="46.62886" lon="5.23176">
        <ele>188.8</ele>
        <time>2022-06-25T07:15:11Z</time>
      </trkpt>
      <trkpt lat="46.62889" lon="5.2317">
        <ele>188.8</ele>
        <time>2022-06-25T07:15:12Z</time>
      </trkpt>
      <trkpt lat="46.62893" lon="5.23163">
        <ele>188.8</ele>
        <time>2022-06-25T07:15:13Z</time>
      </trkpt>
      <trkpt lat="46.62896" lon="5.23156">
        <ele>188.8</ele>
        <time>2022-06-25T07:15:14Z</time>
      </trkpt>
      <trkpt lat="46.629" lon="5.2315">
        <ele>189</ele>
        <time>2022-06-25T07:15:15Z</time>
      </trkpt>
      <trkpt lat="46.62903" lon="5.23144">
        <ele>189</ele>
        <time>2022-06-25T07:15:16Z</time>
      </trkpt>
      <trkpt lat="46.62907" lon="5.23138">
        <ele>189</ele>
        <time>2022-06-25T07:15:17Z</time>
      </trkpt>
      <trkpt lat="46.6291" lon="5.23131">
        <ele>189</ele>
        <time>2022-06-25T07:15:18Z</time>
      </trkpt>
      <trkpt lat="46.62913" lon="5.23124">
        <ele>189</ele>
        <time>2022-06-25T07:15:19Z</time>
      </trkpt>
      <trkpt lat="46.62916" lon="5.23118">
        <ele>188.8</ele>
        <time>2022-06-25T07:15:20Z</time>
      </trkpt>
      <trkpt lat="46.62919" lon="5.23111">
        <ele>188.8</ele>
        <time>2022-06-25T07:15:21Z</time>
      </trkpt>
      <trkpt lat="46.62923" lon="5.23104">
        <ele>188.8</ele>
        <time>2022-06-25T07:15:22Z</time>
      </trkpt>
      <trkpt lat="46.62927" lon="5.23099">
        <ele>188.8</ele>
        <time>2022-06-25T07:15:23Z</time>
      </trkpt>
      <trkpt lat="46.62931" lon="5.23093">
        <ele>188.8</ele>
        <time>2022-06-25T07:15:24Z</time>
      </trkpt>
      <trkpt lat="46.62936" lon="5.23087">
        <ele>189</ele>
        <time>2022-06-25T07:15:25Z</time>
      </trkpt>
      <trkpt lat="46.62939" lon="5.23081">
        <ele>189</ele>
        <time>2022-06-25T07:15:26Z</time>
      </trkpt>
      <trkpt lat="46.62943" lon="5.23075">
        <ele>189</ele>
        <time>2022-06-25T07:15:27Z</time>
      </trkpt>
      <trkpt lat="46.62947" lon="5.23069">
        <ele>189</ele>
        <time>2022-06-25T07:15:28Z</time>
      </trkpt>
      <trkpt lat="46.62951" lon="5.23063">
        <ele>189</ele>
        <time>2022-06-25T07:15:29Z</time>
      </trkpt>
      <trkpt lat="46.62955" lon="5.23058">
        <ele>189.2</ele>
        <time>2022-06-25T07:15:30Z</time>
      </trkpt>
      <trkpt lat="46.62959" lon="5.23053">
        <ele>189.2</ele>
        <time>2022-06-25T07:15:31Z</time>
      </trkpt>
      <trkpt lat="46.62964" lon="5.23048">
        <ele>189.2</ele>
        <time>2022-06-25T07:15:32Z</time>
      </trkpt>
      <trkpt lat="46.62968" lon="5.23042">
        <ele>189.2</ele>
        <time>2022-06-25T07:15:33Z</time>
      </trkpt>
      <trkpt lat="46.62972" lon="5.23038">
        <ele>189.2</ele>
        <time>2022-06-25T07:15:34Z</time>
      </trkpt>
      <trkpt lat="46.62977" lon="5.23033">
        <ele>189.2</ele>
        <time>2022-06-25T07:15:35Z</time>
      </trkpt>
      <trkpt lat="46.62981" lon="5.23028">
        <ele>189.2</ele>
        <time>2022-06-25T07:15:36Z</time>
      </trkpt>
      <trkpt lat="46.62985" lon="5.23024">
        <ele>189.4</ele>
        <time>2022-06-25T07:15:37Z</time>
      </trkpt>
      <trkpt lat="46.6299" lon="5.23019">
        <ele>189.4</ele>
        <time>2022-06-25T07:15:38Z</time>
      </trkpt>
      <trkpt lat="46.62994" lon="5.23015">
        <ele>189.4</ele>
        <time>2022-06-25T07:15:39Z</time>
      </trkpt>
      <trkpt lat="46.62998" lon="5.23011">
        <ele>189.4</ele>
        <time>2022-06-25T07:15:40Z</time>
      </trkpt>
      <trkpt lat="46.63003" lon="5.23006">
        <ele>189.4</ele>
        <time>2022-06-25T07:15:41Z</time>
      </trkpt>
      <trkpt lat="46.63007" lon="5.23002">
        <ele>189.4</ele>
        <time>2022-06-25T07:15:42Z</time>
      </trkpt>
      <trkpt lat="46.63011" lon="5.22999">
        <ele>189.4</ele>
        <time>2022-06-25T07:15:43Z</time>
      </trkpt>
      <trkpt lat="46.63014" lon="5.22996">
        <ele>189.6</ele>
        <time>2022-06-25T07:15:44Z</time>
      </trkpt>
      <trkpt lat="46.63018" lon="5.22993">
        <ele>189.6</ele>
        <time>2022-06-25T07:15:45Z</time>
      </trkpt>
      <trkpt lat="46.6302" lon="5.22991">
        <ele>189.6</ele>
        <time>2022-06-25T07:15:46Z</time>
      </trkpt>
      <trkpt lat="46.63023" lon="5.2299">
        <ele>189.6</ele>
        <time>2022-06-25T07:15:47Z</time>
      </trkpt>
      <trkpt lat="46.63025" lon="5.22988">
        <ele>189.6</ele>
        <time>2022-06-25T07:15:48Z</time>
      </trkpt>
      <trkpt lat="46.63028" lon="5.22987">
        <ele>189.6</ele>
        <time>2022-06-25T07:15:49Z</time>
      </trkpt>
      <trkpt lat="46.63029" lon="5.22985">
        <ele>189.6</ele>
        <time>2022-06-25T07:15:50Z</time>
      </trkpt>
      <trkpt lat="46.63031" lon="5.22984">
        <ele>189.6</ele>
        <time>2022-06-25T07:15:51Z</time>
      </trkpt>
      <trkpt lat="46.63033" lon="5.22983">
        <ele>189.6</ele>
        <time>2022-06-25T07:15:52Z</time>
      </trkpt>
      <trkpt lat="46.63035" lon="5.22982">
        <ele>190</ele>
        <time>2022-06-25T07:15:53Z</time>
      </trkpt>
      <trkpt lat="46.63036" lon="5.22981">
        <ele>190</ele>
        <time>2022-06-25T07:15:54Z</time>
      </trkpt>
      <trkpt lat="46.63038" lon="5.2298">
        <ele>190</ele>
        <time>2022-06-25T07:15:55Z</time>
      </trkpt>
      <trkpt lat="46.63038" lon="5.22979">
        <ele>190</ele>
        <time>2022-06-25T07:15:56Z</time>
      </trkpt>
      <trkpt lat="46.63039" lon="5.22978">
        <ele>190</ele>
        <time>2022-06-25T07:15:57Z</time>
      </trkpt>
      <trkpt lat="46.63039" lon="5.22977">
        <ele>190</ele>
        <time>2022-06-25T07:15:58Z</time>
      </trkpt>
      <trkpt lat="46.6304" lon="5.22977">
        <ele>190</ele>
        <time>2022-06-25T07:15:59Z</time>
      </trkpt>
      <trkpt lat="46.63043" lon="5.22976">
        <ele>190</ele>
        <time>2022-06-25T07:16:00Z</time>
      </trkpt>
      <trkpt lat="46.63044" lon="5.22976">
        <ele>190</ele>
        <time>2022-06-25T07:16:01Z</time>
      </trkpt>
      <trkpt lat="46.63046" lon="5.22975">
        <ele>190</ele>
        <time>2022-06-25T07:16:02Z</time>
      </trkpt>
      <trkpt lat="46.63048" lon="5.22975">
        <ele>190</ele>
        <time>2022-06-25T07:16:03Z</time>
      </trkpt>
      <trkpt lat="46.63049" lon="5.22975">
        <ele>190</ele>
        <time>2022-06-25T07:16:04Z</time>
      </trkpt>
      <trkpt lat="46.6305" lon="5.22976">
        <ele>190</ele>
        <time>2022-06-25T07:16:05Z</time>
      </trkpt>
      <trkpt lat="46.63051" lon="5.22976">
        <ele>190.2</ele>
        <time>2022-06-25T07:16:06Z</time>
      </trkpt>
      <trkpt lat="46.63052" lon="5.22976">
        <ele>190.2</ele>
        <time>2022-06-25T07:16:07Z</time>
      </trkpt>
      <trkpt lat="46.63054" lon="5.22974">
        <ele>190.2</ele>
        <time>2022-06-25T07:16:09Z</time>
      </trkpt>
      <trkpt lat="46.63055" lon="5.22972">
        <ele>190.2</ele>
        <time>2022-06-25T07:16:10Z</time>
      </trkpt>
      <trkpt lat="46.63056" lon="5.22969">
        <ele>190.4</ele>
        <time>2022-06-25T07:16:11Z</time>
      </trkpt>
      <trkpt lat="46.63058" lon="5.22966">
        <ele>190.4</ele>
        <time>2022-06-25T07:16:12Z</time>
      </trkpt>
      <trkpt lat="46.63059" lon="5.22963">
        <ele>190.4</ele>
        <time>2022-06-25T07:16:13Z</time>
      </trkpt>
      <trkpt lat="46.63062" lon="5.22959">
        <ele>190.4</ele>
        <time>2022-06-25T07:16:14Z</time>
      </trkpt>
      <trkpt lat="46.63064" lon="5.22956">
        <ele>190.4</ele>
        <time>2022-06-25T07:16:15Z</time>
      </trkpt>
      <trkpt lat="46.63067" lon="5.22953">
        <ele>190.4</ele>
        <time>2022-06-25T07:16:16Z</time>
      </trkpt>
      <trkpt lat="46.6307" lon="5.2295">
        <ele>190.4</ele>
        <time>2022-06-25T07:16:17Z</time>
      </trkpt>
      <trkpt lat="46.63074" lon="5.22946">
        <ele>190.4</ele>
        <time>2022-06-25T07:16:18Z</time>
      </trkpt>
      <trkpt lat="46.63078" lon="5.22943">
        <ele>190.4</ele>
        <time>2022-06-25T07:16:19Z</time>
      </trkpt>
      <trkpt lat="46.63082" lon="5.22939">
        <ele>190.4</ele>
        <time>2022-06-25T07:16:20Z</time>
      </trkpt>
      <trkpt lat="46.63086" lon="5.22935">
        <ele>190.2</ele>
        <time>2022-06-25T07:16:21Z</time>
      </trkpt>
      <trkpt lat="46.6309" lon="5.22931">
        <ele>190.2</ele>
        <time>2022-06-25T07:16:22Z</time>
      </trkpt>
      <trkpt lat="46.63094" lon="5.22927">
        <ele>190.2</ele>
        <time>2022-06-25T07:16:23Z</time>
      </trkpt>
      <trkpt lat="46.63097" lon="5.22924">
        <ele>190</ele>
        <time>2022-06-25T07:16:24Z</time>
      </trkpt>
      <trkpt lat="46.63101" lon="5.2292">
        <ele>190</ele>
        <time>2022-06-25T07:16:25Z</time>
      </trkpt>
      <trkpt lat="46.63106" lon="5.22916">
        <ele>190</ele>
        <time>2022-06-25T07:16:26Z</time>
      </trkpt>
      <trkpt lat="46.63111" lon="5.22913">
        <ele>190</ele>
        <time>2022-06-25T07:16:27Z</time>
      </trkpt>
      <trkpt lat="46.63115" lon="5.22909">
        <ele>190</ele>
        <time>2022-06-25T07:16:28Z</time>
      </trkpt>
      <trkpt lat="46.6312" lon="5.22904">
        <ele>189.6</ele>
        <time>2022-06-25T07:16:29Z</time>
      </trkpt>
      <trkpt lat="46.63125" lon="5.229">
        <ele>189.6</ele>
        <time>2022-06-25T07:16:30Z</time>
      </trkpt>
      <trkpt lat="46.63129" lon="5.22894">
        <ele>189.6</ele>
        <time>2022-06-25T07:16:31Z</time>
      </trkpt>
      <trkpt lat="46.63133" lon="5.22889">
        <ele>189.4</ele>
        <time>2022-06-25T07:16:32Z</time>
      </trkpt>
      <trkpt lat="46.63137" lon="5.22884">
        <ele>189.4</ele>
        <time>2022-06-25T07:16:33Z</time>
      </trkpt>
      <trkpt lat="46.63141" lon="5.22878">
        <ele>189.4</ele>
        <time>2022-06-25T07:16:34Z</time>
      </trkpt>
      <trkpt lat="46.63145" lon="5.22873">
        <ele>189.4</ele>
        <time>2022-06-25T07:16:35Z</time>
      </trkpt>
      <trkpt lat="46.6315" lon="5.22867">
        <ele>189.2</ele>
        <time>2022-06-25T07:16:36Z</time>
      </trkpt>
      <trkpt lat="46.63154" lon="5.22861">
        <ele>189.2</ele>
        <time>2022-06-25T07:16:37Z</time>
      </trkpt>
      <trkpt lat="46.63158" lon="5.22856">
        <ele>189.2</ele>
        <time>2022-06-25T07:16:38Z</time>
      </trkpt>
      <trkpt lat="46.63163" lon="5.2285">
        <ele>189.2</ele>
        <time>2022-06-25T07:16:39Z</time>
      </trkpt>
      <trkpt lat="46.63168" lon="5.22844">
        <ele>189.2</ele>
        <time>2022-06-25T07:16:40Z</time>
      </trkpt>
      <trkpt lat="46.63172" lon="5.22839">
        <ele>189</ele>
        <time>2022-06-25T07:16:41Z</time>
      </trkpt>
      <trkpt lat="46.63177" lon="5.22833">
        <ele>189</ele>
        <time>2022-06-25T07:16:42Z</time>
      </trkpt>
      <trkpt lat="46.63181" lon="5.22827">
        <ele>189</ele>
        <time>2022-06-25T07:16:43Z</time>
      </trkpt>
      <trkpt lat="46.63186" lon="5.2282">
        <ele>188.8</ele>
        <time>2022-06-25T07:16:44Z</time>
      </trkpt>
      <trkpt lat="46.6319" lon="5.22813">
        <ele>188.8</ele>
        <time>2022-06-25T07:16:45Z</time>
      </trkpt>
      <trkpt lat="46.63194" lon="5.22806">
        <ele>188.8</ele>
        <time>2022-06-25T07:16:46Z</time>
      </trkpt>
      <trkpt lat="46.63198" lon="5.22799">
        <ele>188.8</ele>
        <time>2022-06-25T07:16:47Z</time>
      </trkpt>
      <trkpt lat="46.63203" lon="5.22792">
        <ele>188.4</ele>
        <time>2022-06-25T07:16:48Z</time>
      </trkpt>
      <trkpt lat="46.63207" lon="5.22785">
        <ele>188.4</ele>
        <time>2022-06-25T07:16:49Z</time>
      </trkpt>
      <trkpt lat="46.63211" lon="5.22778">
        <ele>188.4</ele>
        <time>2022-06-25T07:16:50Z</time>
      </trkpt>
      <trkpt lat="46.63216" lon="5.22771">
        <ele>188.4</ele>
        <time>2022-06-25T07:16:51Z</time>
      </trkpt>
      <trkpt lat="46.6322" lon="5.22764">
        <ele>188.2</ele>
        <time>2022-06-25T07:16:52Z</time>
      </trkpt>
      <trkpt lat="46.63223" lon="5.22756">
        <ele>188.2</ele>
        <time>2022-06-25T07:16:53Z</time>
      </trkpt>
      <trkpt lat="46.63227" lon="5.22749">
        <ele>187.8</ele>
        <time>2022-06-25T07:16:54Z</time>
      </trkpt>
      <trkpt lat="46.63231" lon="5.22741">
        <ele>187.8</ele>
        <time>2022-06-25T07:16:55Z</time>
      </trkpt>
      <trkpt lat="46.63235" lon="5.22734">
        <ele>187.6</ele>
        <time>2022-06-25T07:16:56Z</time>
      </trkpt>
      <trkpt lat="46.63239" lon="5.22726">
        <ele>187.6</ele>
        <time>2022-06-25T07:16:57Z</time>
      </trkpt>
      <trkpt lat="46.63242" lon="5.22718">
        <ele>187.6</ele>
        <time>2022-06-25T07:16:58Z</time>
      </trkpt>
      <trkpt lat="46.63245" lon="5.2271">
        <ele>187.6</ele>
        <time>2022-06-25T07:16:59Z</time>
      </trkpt>
      <trkpt lat="46.63248" lon="5.22703">
        <ele>187.6</ele>
        <time>2022-06-25T07:17:00Z</time>
      </trkpt>
      <trkpt lat="46.63251" lon="5.22694">
        <ele>187.6</ele>
        <time>2022-06-25T07:17:01Z</time>
      </trkpt>
      <trkpt lat="46.63254" lon="5.22686">
        <ele>187.4</ele>
        <time>2022-06-25T07:17:02Z</time>
      </trkpt>
      <trkpt lat="46.63257" lon="5.22678">
        <ele>187.4</ele>
        <time>2022-06-25T07:17:03Z</time>
      </trkpt>
      <trkpt lat="46.63259" lon="5.2267">
        <ele>187.4</ele>
        <time>2022-06-25T07:17:04Z</time>
      </trkpt>
      <trkpt lat="46.63262" lon="5.22662">
        <ele>187.4</ele>
        <time>2022-06-25T07:17:05Z</time>
      </trkpt>
      <trkpt lat="46.63264" lon="5.22654">
        <ele>187.4</ele>
        <time>2022-06-25T07:17:06Z</time>
      </trkpt>
      <trkpt lat="46.63267" lon="5.22646">
        <ele>187.2</ele>
        <time>2022-06-25T07:17:07Z</time>
      </trkpt>
      <trkpt lat="46.63269" lon="5.22638">
        <ele>187.2</ele>
        <time>2022-06-25T07:17:08Z</time>
      </trkpt>
      <trkpt lat="46.63271" lon="5.2263">
        <ele>187</ele>
        <time>2022-06-25T07:17:09Z</time>
      </trkpt>
      <trkpt lat="46.63273" lon="5.22622">
        <ele>187</ele>
        <time>2022-06-25T07:17:10Z</time>
      </trkpt>
      <trkpt lat="46.63275" lon="5.22615">
        <ele>187</ele>
        <time>2022-06-25T07:17:11Z</time>
      </trkpt>
      <trkpt lat="46.63277" lon="5.22607">
        <ele>187</ele>
        <time>2022-06-25T07:17:12Z</time>
      </trkpt>
      <trkpt lat="46.63278" lon="5.22599">
        <ele>187</ele>
        <time>2022-06-25T07:17:13Z</time>
      </trkpt>
      <trkpt lat="46.6328" lon="5.22591">
        <ele>187</ele>
        <time>2022-06-25T07:17:14Z</time>
      </trkpt>
      <trkpt lat="46.63281" lon="5.22583">
        <ele>187</ele>
        <time>2022-06-25T07:17:15Z</time>
      </trkpt>
      <trkpt lat="46.63282" lon="5.22575">
        <ele>187</ele>
        <time>2022-06-25T07:17:16Z</time>
      </trkpt>
      <trkpt lat="46.63283" lon="5.22568">
        <ele>187</ele>
        <time>2022-06-25T07:17:17Z</time>
      </trkpt>
      <trkpt lat="46.63285" lon="5.2256">
        <ele>186.8</ele>
        <time>2022-06-25T07:17:18Z</time>
      </trkpt>
      <trkpt lat="46.63286" lon="5.22553">
        <ele>186.8</ele>
        <time>2022-06-25T07:17:19Z</time>
      </trkpt>
      <trkpt lat="46.63287" lon="5.22546">
        <ele>186.8</ele>
        <time>2022-06-25T07:17:20Z</time>
      </trkpt>
      <trkpt lat="46.63288" lon="5.22539">
        <ele>186.8</ele>
        <time>2022-06-25T07:17:21Z</time>
      </trkpt>
      <trkpt lat="46.63288" lon="5.22532">
        <ele>186.8</ele>
        <time>2022-06-25T07:17:22Z</time>
      </trkpt>
      <trkpt lat="46.63289" lon="5.22526">
        <ele>186.8</ele>
        <time>2022-06-25T07:17:23Z</time>
      </trkpt>
      <trkpt lat="46.6329" lon="5.22521">
        <ele>186.8</ele>
        <time>2022-06-25T07:17:24Z</time>
      </trkpt>
      <trkpt lat="46.63291" lon="5.22517">
        <ele>186.6</ele>
        <time>2022-06-25T07:17:25Z</time>
      </trkpt>
      <trkpt lat="46.63293" lon="5.22512">
        <ele>186.6</ele>
        <time>2022-06-25T07:17:26Z</time>
      </trkpt>
      <trkpt lat="46.63294" lon="5.22509">
        <ele>186.6</ele>
        <time>2022-06-25T07:17:27Z</time>
      </trkpt>
      <trkpt lat="46.63296" lon="5.22506">
        <ele>186.2</ele>
        <time>2022-06-25T07:17:28Z</time>
      </trkpt>
      <trkpt lat="46.63296" lon="5.22503">
        <ele>186.2</ele>
        <time>2022-06-25T07:17:29Z</time>
      </trkpt>
      <trkpt lat="46.63296" lon="5.225">
        <ele>186.2</ele>
        <time>2022-06-25T07:17:30Z</time>
      </trkpt>
      <trkpt lat="46.63296" lon="5.22498">
        <ele>186.2</ele>
        <time>2022-06-25T07:17:31Z</time>
      </trkpt>
      <trkpt lat="46.63296" lon="5.22497">
        <ele>186.2</ele>
        <time>2022-06-25T07:17:32Z</time>
      </trkpt>
      <trkpt lat="46.63296" lon="5.22497">
        <ele>186.2</ele>
        <time>2022-06-25T07:17:34Z</time>
      </trkpt>
      <trkpt lat="46.63296" lon="5.22493">
        <ele>186</ele>
        <time>2022-06-25T07:17:39Z</time>
      </trkpt>
      <trkpt lat="46.63295" lon="5.2249">
        <ele>186</ele>
        <time>2022-06-25T07:17:40Z</time>
      </trkpt>
      <trkpt lat="46.63294" lon="5.22487">
        <ele>186</ele>
        <time>2022-06-25T07:17:41Z</time>
      </trkpt>
      <trkpt lat="46.63294" lon="5.22483">
        <ele>186</ele>
        <time>2022-06-25T07:17:42Z</time>
      </trkpt>
      <trkpt lat="46.63294" lon="5.22481">
        <ele>186</ele>
        <time>2022-06-25T07:17:43Z</time>
      </trkpt>
      <trkpt lat="46.63293" lon="5.22478">
        <ele>186.2</ele>
        <time>2022-06-25T07:17:44Z</time>
      </trkpt>
      <trkpt lat="46.63294" lon="5.22475">
        <ele>186.2</ele>
        <time>2022-06-25T07:17:45Z</time>
      </trkpt>
      <trkpt lat="46.63294" lon="5.22472">
        <ele>186.2</ele>
        <time>2022-06-25T07:17:46Z</time>
      </trkpt>
      <trkpt lat="46.63294" lon="5.22469">
        <ele>186.2</ele>
        <time>2022-06-25T07:17:47Z</time>
      </trkpt>
      <trkpt lat="46.63294" lon="5.22467">
        <ele>186.4</ele>
        <time>2022-06-25T07:17:48Z</time>
      </trkpt>
      <trkpt lat="46.63293" lon="5.22465">
        <ele>186.4</ele>
        <time>2022-06-25T07:17:49Z</time>
      </trkpt>
      <trkpt lat="46.63293" lon="5.22463">
        <ele>186.4</ele>
        <time>2022-06-25T07:17:50Z</time>
      </trkpt>
      <trkpt lat="46.63293" lon="5.22459">
        <ele>186.4</ele>
        <time>2022-06-25T07:17:51Z</time>
      </trkpt>
      <trkpt lat="46.63293" lon="5.22456">
        <ele>186.4</ele>
        <time>2022-06-25T07:17:52Z</time>
      </trkpt>
      <trkpt lat="46.63294" lon="5.22452">
        <ele>186.4</ele>
        <time>2022-06-25T07:17:53Z</time>
      </trkpt>
      <trkpt lat="46.63294" lon="5.22447">
        <ele>186.4</ele>
        <time>2022-06-25T07:17:54Z</time>
      </trkpt>
      <trkpt lat="46.63294" lon="5.22442">
        <ele>186.6</ele>
        <time>2022-06-25T07:17:55Z</time>
      </trkpt>
      <trkpt lat="46.63294" lon="5.22437">
        <ele>186.6</ele>
        <time>2022-06-25T07:17:56Z</time>
      </trkpt>
      <trkpt lat="46.63294" lon="5.22432">
        <ele>186.6</ele>
        <time>2022-06-25T07:17:57Z</time>
      </trkpt>
      <trkpt lat="46.63294" lon="5.22426">
        <ele>186.6</ele>
        <time>2022-06-25T07:17:58Z</time>
      </trkpt>
      <trkpt lat="46.63293" lon="5.2242">
        <ele>186.6</ele>
        <time>2022-06-25T07:17:59Z</time>
      </trkpt>
      <trkpt lat="46.63293" lon="5.22414">
        <ele>186.6</ele>
        <time>2022-06-25T07:18:00Z</time>
      </trkpt>
      <trkpt lat="46.63292" lon="5.22408">
        <ele>186.6</ele>
        <time>2022-06-25T07:18:01Z</time>
      </trkpt>
      <trkpt lat="46.63292" lon="5.22401">
        <ele>186.6</ele>
        <time>2022-06-25T07:18:02Z</time>
      </trkpt>
      <trkpt lat="46.63291" lon="5.22395">
        <ele>186.6</ele>
        <time>2022-06-25T07:18:03Z</time>
      </trkpt>
      <trkpt lat="46.6329" lon="5.22388">
        <ele>186.6</ele>
        <time>2022-06-25T07:18:04Z</time>
      </trkpt>
      <trkpt lat="46.6329" lon="5.22382">
        <ele>186.6</ele>
        <time>2022-06-25T07:18:05Z</time>
      </trkpt>
      <trkpt lat="46.63289" lon="5.22375">
        <ele>186.6</ele>
        <time>2022-06-25T07:18:06Z</time>
      </trkpt>
      <trkpt lat="46.63288" lon="5.22369">
        <ele>186.6</ele>
        <time>2022-06-25T07:18:07Z</time>
      </trkpt>
      <trkpt lat="46.63287" lon="5.22363">
        <ele>186.6</ele>
        <time>2022-06-25T07:18:08Z</time>
      </trkpt>
      <trkpt lat="46.63287" lon="5.22357">
        <ele>187</ele>
        <time>2022-06-25T07:18:09Z</time>
      </trkpt>
      <trkpt lat="46.63286" lon="5.2235">
        <ele>187</ele>
        <time>2022-06-25T07:18:10Z</time>
      </trkpt>
      <trkpt lat="46.63285" lon="5.22345">
        <ele>187</ele>
        <time>2022-06-25T07:18:11Z</time>
      </trkpt>
      <trkpt lat="46.63285" lon="5.22338">
        <ele>187</ele>
        <time>2022-06-25T07:18:12Z</time>
      </trkpt>
      <trkpt lat="46.63284" lon="5.22332">
        <ele>187</ele>
        <time>2022-06-25T07:18:13Z</time>
      </trkpt>
      <trkpt lat="46.63283" lon="5.22325">
        <ele>187</ele>
        <time>2022-06-25T07:18:14Z</time>
      </trkpt>
      <trkpt lat="46.63282" lon="5.22319">
        <ele>187</ele>
        <time>2022-06-25T07:18:15Z</time>
      </trkpt>
      <trkpt lat="46.63281" lon="5.22312">
        <ele>187</ele>
        <time>2022-06-25T07:18:16Z</time>
      </trkpt>
      <trkpt lat="46.6328" lon="5.22305">
        <ele>187</ele>
        <time>2022-06-25T07:18:17Z</time>
      </trkpt>
      <trkpt lat="46.63279" lon="5.22298">
        <ele>187</ele>
        <time>2022-06-25T07:18:18Z</time>
      </trkpt>
      <trkpt lat="46.63278" lon="5.22292">
        <ele>187</ele>
        <time>2022-06-25T07:18:19Z</time>
      </trkpt>
      <trkpt lat="46.63277" lon="5.22284">
        <ele>187</ele>
        <time>2022-06-25T07:18:20Z</time>
      </trkpt>
      <trkpt lat="46.63276" lon="5.22277">
        <ele>187</ele>
        <time>2022-06-25T07:18:21Z</time>
      </trkpt>
      <trkpt lat="46.63276" lon="5.2227">
        <ele>187</ele>
        <time>2022-06-25T07:18:22Z</time>
      </trkpt>
      <trkpt lat="46.63275" lon="5.22263">
        <ele>187</ele>
        <time>2022-06-25T07:18:23Z</time>
      </trkpt>
      <trkpt lat="46.63274" lon="5.22256">
        <ele>187</ele>
        <time>2022-06-25T07:18:24Z</time>
      </trkpt>
      <trkpt lat="46.63273" lon="5.22249">
        <ele>187.2</ele>
        <time>2022-06-25T07:18:25Z</time>
      </trkpt>
      <trkpt lat="46.63272" lon="5.22242">
        <ele>187.2</ele>
        <time>2022-06-25T07:18:26Z</time>
      </trkpt>
      <trkpt lat="46.63271" lon="5.22234">
        <ele>187.2</ele>
        <time>2022-06-25T07:18:27Z</time>
      </trkpt>
      <trkpt lat="46.6327" lon="5.22228">
        <ele>187.2</ele>
        <time>2022-06-25T07:18:28Z</time>
      </trkpt>
      <trkpt lat="46.63269" lon="5.22221">
        <ele>187.4</ele>
        <time>2022-06-25T07:18:29Z</time>
      </trkpt>
      <trkpt lat="46.63269" lon="5.22214">
        <ele>187.4</ele>
        <time>2022-06-25T07:18:30Z</time>
      </trkpt>
      <trkpt lat="46.63268" lon="5.22207">
        <ele>187.4</ele>
        <time>2022-06-25T07:18:31Z</time>
      </trkpt>
      <trkpt lat="46.63267" lon="5.22201">
        <ele>187.4</ele>
        <time>2022-06-25T07:18:32Z</time>
      </trkpt>
      <trkpt lat="46.63266" lon="5.22195">
        <ele>187.8</ele>
        <time>2022-06-25T07:18:33Z</time>
      </trkpt>
      <trkpt lat="46.63265" lon="5.22189">
        <ele>187.8</ele>
        <time>2022-06-25T07:18:34Z</time>
      </trkpt>
      <trkpt lat="46.63264" lon="5.22184">
        <ele>187.8</ele>
        <time>2022-06-25T07:18:35Z</time>
      </trkpt>
      <trkpt lat="46.63263" lon="5.22178">
        <ele>187.8</ele>
        <time>2022-06-25T07:18:36Z</time>
      </trkpt>
      <trkpt lat="46.63262" lon="5.22172">
        <ele>188</ele>
        <time>2022-06-25T07:18:37Z</time>
      </trkpt>
      <trkpt lat="46.63261" lon="5.22166">
        <ele>188</ele>
        <time>2022-06-25T07:18:38Z</time>
      </trkpt>
      <trkpt lat="46.6326" lon="5.2216">
        <ele>188</ele>
        <time>2022-06-25T07:18:39Z</time>
      </trkpt>
      <trkpt lat="46.63259" lon="5.22154">
        <ele>188</ele>
        <time>2022-06-25T07:18:40Z</time>
      </trkpt>
      <trkpt lat="46.63258" lon="5.22148">
        <ele>188</ele>
        <time>2022-06-25T07:18:41Z</time>
      </trkpt>
      <trkpt lat="46.63258" lon="5.22142">
        <ele>188</ele>
        <time>2022-06-25T07:18:42Z</time>
      </trkpt>
      <trkpt lat="46.63257" lon="5.22136">
        <ele>188</ele>
        <time>2022-06-25T07:18:43Z</time>
      </trkpt>
      <trkpt lat="46.63256" lon="5.22129">
        <ele>188</ele>
        <time>2022-06-25T07:18:44Z</time>
      </trkpt>
      <trkpt lat="46.63255" lon="5.22123">
        <ele>187.8</ele>
        <time>2022-06-25T07:18:45Z</time>
      </trkpt>
      <trkpt lat="46.63255" lon="5.22116">
        <ele>187.8</ele>
        <time>2022-06-25T07:18:46Z</time>
      </trkpt>
      <trkpt lat="46.63253" lon="5.22109">
        <ele>187.8</ele>
        <time>2022-06-25T07:18:47Z</time>
      </trkpt>
      <trkpt lat="46.63252" lon="5.22102">
        <ele>187.8</ele>
        <time>2022-06-25T07:18:48Z</time>
      </trkpt>
      <trkpt lat="46.63251" lon="5.22095">
        <ele>187.4</ele>
        <time>2022-06-25T07:18:49Z</time>
      </trkpt>
      <trkpt lat="46.6325" lon="5.22088">
        <ele>187.4</ele>
        <time>2022-06-25T07:18:50Z</time>
      </trkpt>
      <trkpt lat="46.63249" lon="5.22081">
        <ele>187.4</ele>
        <time>2022-06-25T07:18:51Z</time>
      </trkpt>
      <trkpt lat="46.63249" lon="5.22073">
        <ele>187.4</ele>
        <time>2022-06-25T07:18:52Z</time>
      </trkpt>
      <trkpt lat="46.63248" lon="5.22065">
        <ele>187.4</ele>
        <time>2022-06-25T07:18:53Z</time>
      </trkpt>
      <trkpt lat="46.63247" lon="5.22058">
        <ele>187.4</ele>
        <time>2022-06-25T07:18:54Z</time>
      </trkpt>
      <trkpt lat="46.63247" lon="5.22051">
        <ele>187.2</ele>
        <time>2022-06-25T07:18:55Z</time>
      </trkpt>
      <trkpt lat="46.63247" lon="5.22044">
        <ele>187.2</ele>
        <time>2022-06-25T07:18:56Z</time>
      </trkpt>
      <trkpt lat="46.63247" lon="5.22037">
        <ele>187.2</ele>
        <time>2022-06-25T07:18:57Z</time>
      </trkpt>
      <trkpt lat="46.63247" lon="5.2203">
        <ele>187.2</ele>
        <time>2022-06-25T07:18:58Z</time>
      </trkpt>
      <trkpt lat="46.63247" lon="5.22024">
        <ele>187.2</ele>
        <time>2022-06-25T07:18:59Z</time>
      </trkpt>
      <trkpt lat="46.63247" lon="5.22018">
        <ele>187</ele>
        <time>2022-06-25T07:19:00Z</time>
      </trkpt>
      <trkpt lat="46.63247" lon="5.22012">
        <ele>187</ele>
        <time>2022-06-25T07:19:01Z</time>
      </trkpt>
      <trkpt lat="46.63247" lon="5.22005">
        <ele>186.8</ele>
        <time>2022-06-25T07:19:02Z</time>
      </trkpt>
      <trkpt lat="46.63247" lon="5.21998">
        <ele>186.8</ele>
        <time>2022-06-25T07:19:03Z</time>
      </trkpt>
      <trkpt lat="46.63247" lon="5.21992">
        <ele>186.8</ele>
        <time>2022-06-25T07:19:04Z</time>
      </trkpt>
      <trkpt lat="46.63247" lon="5.21986">
        <ele>186.6</ele>
        <time>2022-06-25T07:19:05Z</time>
      </trkpt>
      <trkpt lat="46.63247" lon="5.2198">
        <ele>186.6</ele>
        <time>2022-06-25T07:19:06Z</time>
      </trkpt>
      <trkpt lat="46.63248" lon="5.21976">
        <ele>186.6</ele>
        <time>2022-06-25T07:19:07Z</time>
      </trkpt>
      <trkpt lat="46.63248" lon="5.21972">
        <ele>186.2</ele>
        <time>2022-06-25T07:19:08Z</time>
      </trkpt>
      <trkpt lat="46.63249" lon="5.21968">
        <ele>186.2</ele>
        <time>2022-06-25T07:19:09Z</time>
      </trkpt>
      <trkpt lat="46.63249" lon="5.21965">
        <ele>186.2</ele>
        <time>2022-06-25T07:19:10Z</time>
      </trkpt>
      <trkpt lat="46.63249" lon="5.21961">
        <ele>186.2</ele>
        <time>2022-06-25T07:19:11Z</time>
      </trkpt>
      <trkpt lat="46.63249" lon="5.21959">
        <ele>186.2</ele>
        <time>2022-06-25T07:19:12Z</time>
      </trkpt>
      <trkpt lat="46.63249" lon="5.21957">
        <ele>186.2</ele>
        <time>2022-06-25T07:19:13Z</time>
      </trkpt>
      <trkpt lat="46.63249" lon="5.21955">
        <ele>186.2</ele>
        <time>2022-06-25T07:19:14Z</time>
      </trkpt>
      <trkpt lat="46.63249" lon="5.21952">
        <ele>186.2</ele>
        <time>2022-06-25T07:19:15Z</time>
      </trkpt>
      <trkpt lat="46.6325" lon="5.21949">
        <ele>186.2</ele>
        <time>2022-06-25T07:19:16Z</time>
      </trkpt>
      <trkpt lat="46.6325" lon="5.21945">
        <ele>186.2</ele>
        <time>2022-06-25T07:19:17Z</time>
      </trkpt>
      <trkpt lat="46.6325" lon="5.21941">
        <ele>186.2</ele>
        <time>2022-06-25T07:19:18Z</time>
      </trkpt>
      <trkpt lat="46.63251" lon="5.21936">
        <ele>186.2</ele>
        <time>2022-06-25T07:19:19Z</time>
      </trkpt>
      <trkpt lat="46.63251" lon="5.21931">
        <ele>186</ele>
        <time>2022-06-25T07:19:20Z</time>
      </trkpt>
      <trkpt lat="46.63252" lon="5.21926">
        <ele>186</ele>
        <time>2022-06-25T07:19:21Z</time>
      </trkpt>
      <trkpt lat="46.63253" lon="5.21921">
        <ele>186</ele>
        <time>2022-06-25T07:19:22Z</time>
      </trkpt>
      <trkpt lat="46.63253" lon="5.21915">
        <ele>186</ele>
        <time>2022-06-25T07:19:23Z</time>
      </trkpt>
      <trkpt lat="46.63254" lon="5.21909">
        <ele>186</ele>
        <time>2022-06-25T07:19:24Z</time>
      </trkpt>
      <trkpt lat="46.63255" lon="5.21904">
        <ele>186</ele>
        <time>2022-06-25T07:19:25Z</time>
      </trkpt>
      <trkpt lat="46.63255" lon="5.21898">
        <ele>186</ele>
        <time>2022-06-25T07:19:26Z</time>
      </trkpt>
      <trkpt lat="46.63256" lon="5.21892">
        <ele>186</ele>
        <time>2022-06-25T07:19:27Z</time>
      </trkpt>
      <trkpt lat="46.63256" lon="5.21885">
        <ele>186</ele>
        <time>2022-06-25T07:19:28Z</time>
      </trkpt>
      <trkpt lat="46.63257" lon="5.2188">
        <ele>186</ele>
        <time>2022-06-25T07:19:29Z</time>
      </trkpt>
      <trkpt lat="46.63257" lon="5.21875">
        <ele>186</ele>
        <time>2022-06-25T07:19:30Z</time>
      </trkpt>
      <trkpt lat="46.63257" lon="5.2187">
        <ele>186</ele>
        <time>2022-06-25T07:19:31Z</time>
      </trkpt>
      <trkpt lat="46.63258" lon="5.21866">
        <ele>186</ele>
        <time>2022-06-25T07:19:32Z</time>
      </trkpt>
      <trkpt lat="46.63258" lon="5.21861">
        <ele>186.2</ele>
        <time>2022-06-25T07:19:33Z</time>
      </trkpt>
      <trkpt lat="46.63258" lon="5.21857">
        <ele>186.2</ele>
        <time>2022-06-25T07:19:34Z</time>
      </trkpt>
      <trkpt lat="46.63258" lon="5.21852">
        <ele>186.2</ele>
        <time>2022-06-25T07:19:35Z</time>
      </trkpt>
      <trkpt lat="46.6326" lon="5.21849">
        <ele>186.2</ele>
        <time>2022-06-25T07:19:36Z</time>
      </trkpt>
      <trkpt lat="46.63261" lon="5.21846">
        <ele>186.2</ele>
        <time>2022-06-25T07:19:37Z</time>
      </trkpt>
      <trkpt lat="46.63263" lon="5.21844">
        <ele>186.2</ele>
        <time>2022-06-25T07:19:38Z</time>
      </trkpt>
      <trkpt lat="46.63265" lon="5.21842">
        <ele>186.2</ele>
        <time>2022-06-25T07:19:39Z</time>
      </trkpt>
      <trkpt lat="46.63265" lon="5.21841">
        <ele>186.2</ele>
        <time>2022-06-25T07:19:40Z</time>
      </trkpt>
      <trkpt lat="46.63265" lon="5.2184">
        <ele>186.2</ele>
        <time>2022-06-25T07:19:41Z</time>
      </trkpt>
      <trkpt lat="46.63263" lon="5.21834">
        <ele>186.2</ele>
        <time>2022-06-25T07:19:46Z</time>
      </trkpt>
      <trkpt lat="46.63262" lon="5.2183">
        <ele>186.2</ele>
        <time>2022-06-25T07:19:47Z</time>
      </trkpt>
      <trkpt lat="46.63261" lon="5.21827">
        <ele>186.2</ele>
        <time>2022-06-25T07:19:48Z</time>
      </trkpt>
      <trkpt lat="46.63259" lon="5.21823">
        <ele>186.2</ele>
        <time>2022-06-25T07:19:49Z</time>
      </trkpt>
      <trkpt lat="46.63258" lon="5.21819">
        <ele>186.2</ele>
        <time>2022-06-25T07:19:50Z</time>
      </trkpt>
      <trkpt lat="46.63257" lon="5.21816">
        <ele>186.2</ele>
        <time>2022-06-25T07:19:51Z</time>
      </trkpt>
      <trkpt lat="46.63256" lon="5.21813">
        <ele>186.2</ele>
        <time>2022-06-25T07:19:52Z</time>
      </trkpt>
      <trkpt lat="46.63255" lon="5.21809">
        <ele>186.2</ele>
        <time>2022-06-25T07:19:53Z</time>
      </trkpt>
      <trkpt lat="46.63255" lon="5.21805">
        <ele>186.2</ele>
        <time>2022-06-25T07:19:54Z</time>
      </trkpt>
      <trkpt lat="46.63255" lon="5.218">
        <ele>186.2</ele>
        <time>2022-06-25T07:19:55Z</time>
      </trkpt>
      <trkpt lat="46.63255" lon="5.21795">
        <ele>186.6</ele>
        <time>2022-06-25T07:19:56Z</time>
      </trkpt>
      <trkpt lat="46.63255" lon="5.2179">
        <ele>186.6</ele>
        <time>2022-06-25T07:19:57Z</time>
      </trkpt>
      <trkpt lat="46.63255" lon="5.21785">
        <ele>186.6</ele>
        <time>2022-06-25T07:19:58Z</time>
      </trkpt>
      <trkpt lat="46.63255" lon="5.2178">
        <ele>186.6</ele>
        <time>2022-06-25T07:19:59Z</time>
      </trkpt>
      <trkpt lat="46.63254" lon="5.21774">
        <ele>186.6</ele>
        <time>2022-06-25T07:20:00Z</time>
      </trkpt>
      <trkpt lat="46.63254" lon="5.21768">
        <ele>186.6</ele>
        <time>2022-06-25T07:20:01Z</time>
      </trkpt>
      <trkpt lat="46.63254" lon="5.21762">
        <ele>186.6</ele>
        <time>2022-06-25T07:20:02Z</time>
      </trkpt>
      <trkpt lat="46.63254" lon="5.21756">
        <ele>186.6</ele>
        <time>2022-06-25T07:20:03Z</time>
      </trkpt>
      <trkpt lat="46.63254" lon="5.21749">
        <ele>186.6</ele>
        <time>2022-06-25T07:20:04Z</time>
      </trkpt>
      <trkpt lat="46.63253" lon="5.21743">
        <ele>186.6</ele>
        <time>2022-06-25T07:20:05Z</time>
      </trkpt>
      <trkpt lat="46.63253" lon="5.21736">
        <ele>186.6</ele>
        <time>2022-06-25T07:20:06Z</time>
      </trkpt>
      <trkpt lat="46.63253" lon="5.21729">
        <ele>186.6</ele>
        <time>2022-06-25T07:20:07Z</time>
      </trkpt>
      <trkpt lat="46.63253" lon="5.21721">
        <ele>186.6</ele>
        <time>2022-06-25T07:20:08Z</time>
      </trkpt>
      <trkpt lat="46.63253" lon="5.21714">
        <ele>186.6</ele>
        <time>2022-06-25T07:20:09Z</time>
      </trkpt>
      <trkpt lat="46.63253" lon="5.21707">
        <ele>186.6</ele>
        <time>2022-06-25T07:20:10Z</time>
      </trkpt>
      <trkpt lat="46.63253" lon="5.217">
        <ele>186.6</ele>
        <time>2022-06-25T07:20:11Z</time>
      </trkpt>
      <trkpt lat="46.63253" lon="5.21693">
        <ele>186.6</ele>
        <time>2022-06-25T07:20:12Z</time>
      </trkpt>
      <trkpt lat="46.63253" lon="5.21686">
        <ele>186.4</ele>
        <time>2022-06-25T07:20:13Z</time>
      </trkpt>
      <trkpt lat="46.63253" lon="5.21679">
        <ele>186.4</ele>
        <time>2022-06-25T07:20:14Z</time>
      </trkpt>
      <trkpt lat="46.63254" lon="5.21672">
        <ele>186.4</ele>
        <time>2022-06-25T07:20:15Z</time>
      </trkpt>
      <trkpt lat="46.63254" lon="5.21666">
        <ele>186.4</ele>
        <time>2022-06-25T07:20:16Z</time>
      </trkpt>
      <trkpt lat="46.63254" lon="5.21659">
        <ele>186.4</ele>
        <time>2022-06-25T07:20:17Z</time>
      </trkpt>
      <trkpt lat="46.63255" lon="5.21652">
        <ele>186.4</ele>
        <time>2022-06-25T07:20:18Z</time>
      </trkpt>
      <trkpt lat="46.63256" lon="5.21645">
        <ele>186.4</ele>
        <time>2022-06-25T07:20:19Z</time>
      </trkpt>
      <trkpt lat="46.63257" lon="5.21638">
        <ele>186.4</ele>
        <time>2022-06-25T07:20:20Z</time>
      </trkpt>
      <trkpt lat="46.63257" lon="5.21631">
        <ele>186.4</ele>
        <time>2022-06-25T07:20:21Z</time>
      </trkpt>
      <trkpt lat="46.63258" lon="5.21625">
        <ele>186</ele>
        <time>2022-06-25T07:20:22Z</time>
      </trkpt>
      <trkpt lat="46.6326" lon="5.21617">
        <ele>186</ele>
        <time>2022-06-25T07:20:23Z</time>
      </trkpt>
      <trkpt lat="46.63263" lon="5.2161">
        <ele>186</ele>
        <time>2022-06-25T07:20:24Z</time>
      </trkpt>
      <trkpt lat="46.63266" lon="5.21602">
        <ele>185.8</ele>
        <time>2022-06-25T07:20:25Z</time>
      </trkpt>
      <trkpt lat="46.6327" lon="5.21594">
        <ele>185.8</ele>
        <time>2022-06-25T07:20:26Z</time>
      </trkpt>
      <trkpt lat="46.63273" lon="5.21586">
        <ele>185.8</ele>
        <time>2022-06-25T07:20:27Z</time>
      </trkpt>
      <trkpt lat="46.63276" lon="5.21578">
        <ele>185.4</ele>
        <time>2022-06-25T07:20:28Z</time>
      </trkpt>
      <trkpt lat="46.63278" lon="5.2157">
        <ele>185.4</ele>
        <time>2022-06-25T07:20:29Z</time>
      </trkpt>
      <trkpt lat="46.63281" lon="5.21562">
        <ele>185.4</ele>
        <time>2022-06-25T07:20:30Z</time>
      </trkpt>
      <trkpt lat="46.63283" lon="5.21554">
        <ele>185.4</ele>
        <time>2022-06-25T07:20:31Z</time>
      </trkpt>
      <trkpt lat="46.63286" lon="5.21547">
        <ele>185.4</ele>
        <time>2022-06-25T07:20:32Z</time>
      </trkpt>
      <trkpt lat="46.63288" lon="5.2154">
        <ele>185.4</ele>
        <time>2022-06-25T07:20:33Z</time>
      </trkpt>
      <trkpt lat="46.63291" lon="5.21534">
        <ele>185.4</ele>
        <time>2022-06-25T07:20:34Z</time>
      </trkpt>
      <trkpt lat="46.63293" lon="5.21528">
        <ele>185.4</ele>
        <time>2022-06-25T07:20:35Z</time>
      </trkpt>
      <trkpt lat="46.63295" lon="5.21522">
        <ele>185.4</ele>
        <time>2022-06-25T07:20:36Z</time>
      </trkpt>
      <trkpt lat="46.63297" lon="5.21518">
        <ele>185.4</ele>
        <time>2022-06-25T07:20:37Z</time>
      </trkpt>
      <trkpt lat="46.63298" lon="5.21514">
        <ele>185.4</ele>
        <time>2022-06-25T07:20:38Z</time>
      </trkpt>
      <trkpt lat="46.63299" lon="5.21511">
        <ele>185.4</ele>
        <time>2022-06-25T07:20:39Z</time>
      </trkpt>
      <trkpt lat="46.633" lon="5.21509">
        <ele>185.4</ele>
        <time>2022-06-25T07:20:40Z</time>
      </trkpt>
      <trkpt lat="46.63301" lon="5.21506">
        <ele>185.4</ele>
        <time>2022-06-25T07:20:41Z</time>
      </trkpt>
      <trkpt lat="46.63301" lon="5.21504">
        <ele>185.2</ele>
        <time>2022-06-25T07:20:42Z</time>
      </trkpt>
      <trkpt lat="46.63302" lon="5.21502">
        <ele>185.2</ele>
        <time>2022-06-25T07:20:43Z</time>
      </trkpt>
      <trkpt lat="46.63304" lon="5.21499">
        <ele>185.2</ele>
        <time>2022-06-25T07:20:44Z</time>
      </trkpt>
      <trkpt lat="46.63305" lon="5.21497">
        <ele>185.2</ele>
        <time>2022-06-25T07:20:45Z</time>
      </trkpt>
      <trkpt lat="46.63307" lon="5.21494">
        <ele>185.4</ele>
        <time>2022-06-25T07:20:46Z</time>
      </trkpt>
      <trkpt lat="46.63309" lon="5.21491">
        <ele>185.4</ele>
        <time>2022-06-25T07:20:47Z</time>
      </trkpt>
      <trkpt lat="46.63312" lon="5.21489">
        <ele>185.4</ele>
        <time>2022-06-25T07:20:48Z</time>
      </trkpt>
      <trkpt lat="46.63314" lon="5.21486">
        <ele>185.4</ele>
        <time>2022-06-25T07:20:49Z</time>
      </trkpt>
      <trkpt lat="46.63317" lon="5.21483">
        <ele>185.8</ele>
        <time>2022-06-25T07:20:50Z</time>
      </trkpt>
      <trkpt lat="46.6332" lon="5.2148">
        <ele>185.8</ele>
        <time>2022-06-25T07:20:51Z</time>
      </trkpt>
      <trkpt lat="46.63323" lon="5.21476">
        <ele>185.8</ele>
        <time>2022-06-25T07:20:52Z</time>
      </trkpt>
      <trkpt lat="46.63326" lon="5.21473">
        <ele>185.8</ele>
        <time>2022-06-25T07:20:53Z</time>
      </trkpt>
      <trkpt lat="46.6333" lon="5.21469">
        <ele>185.8</ele>
        <time>2022-06-25T07:20:54Z</time>
      </trkpt>
      <trkpt lat="46.63333" lon="5.21466">
        <ele>186</ele>
        <time>2022-06-25T07:20:55Z</time>
      </trkpt>
      <trkpt lat="46.63337" lon="5.21462">
        <ele>186</ele>
        <time>2022-06-25T07:20:56Z</time>
      </trkpt>
      <trkpt lat="46.63341" lon="5.21458">
        <ele>186</ele>
        <time>2022-06-25T07:20:57Z</time>
      </trkpt>
      <trkpt lat="46.63344" lon="5.21454">
        <ele>186</ele>
        <time>2022-06-25T07:20:58Z</time>
      </trkpt>
      <trkpt lat="46.63347" lon="5.21451">
        <ele>186</ele>
        <time>2022-06-25T07:20:59Z</time>
      </trkpt>
      <trkpt lat="46.6335" lon="5.21448">
        <ele>186.2</ele>
        <time>2022-06-25T07:21:00Z</time>
      </trkpt>
      <trkpt lat="46.63352" lon="5.21445">
        <ele>186.2</ele>
        <time>2022-06-25T07:21:01Z</time>
      </trkpt>
      <trkpt lat="46.63354" lon="5.21444">
        <ele>186.2</ele>
        <time>2022-06-25T07:21:02Z</time>
      </trkpt>
      <trkpt lat="46.63356" lon="5.21443">
        <ele>186.2</ele>
        <time>2022-06-25T07:21:03Z</time>
      </trkpt>
      <trkpt lat="46.63358" lon="5.21442">
        <ele>186.2</ele>
        <time>2022-06-25T07:21:04Z</time>
      </trkpt>
      <trkpt lat="46.63359" lon="5.2144">
        <ele>186.2</ele>
        <time>2022-06-25T07:21:05Z</time>
      </trkpt>
      <trkpt lat="46.63361" lon="5.21439">
        <ele>186.2</ele>
        <time>2022-06-25T07:21:06Z</time>
      </trkpt>
      <trkpt lat="46.63362" lon="5.21437">
        <ele>186</ele>
        <time>2022-06-25T07:21:07Z</time>
      </trkpt>
      <trkpt lat="46.63364" lon="5.21435">
        <ele>186</ele>
        <time>2022-06-25T07:21:08Z</time>
      </trkpt>
      <trkpt lat="46.63365" lon="5.21433">
        <ele>186</ele>
        <time>2022-06-25T07:21:09Z</time>
      </trkpt>
      <trkpt lat="46.63367" lon="5.21431">
        <ele>186</ele>
        <time>2022-06-25T07:21:10Z</time>
      </trkpt>
      <trkpt lat="46.63368" lon="5.21429">
        <ele>186</ele>
        <time>2022-06-25T07:21:11Z</time>
      </trkpt>
      <trkpt lat="46.63368" lon="5.21427">
        <ele>186.4</ele>
        <time>2022-06-25T07:21:12Z</time>
      </trkpt>
      <trkpt lat="46.63369" lon="5.21425">
        <ele>186.4</ele>
        <time>2022-06-25T07:21:13Z</time>
      </trkpt>
      <trkpt lat="46.6337" lon="5.21422">
        <ele>186.4</ele>
        <time>2022-06-25T07:21:14Z</time>
      </trkpt>
      <trkpt lat="46.63372" lon="5.21418">
        <ele>186.4</ele>
        <time>2022-06-25T07:21:15Z</time>
      </trkpt>
      <trkpt lat="46.63373" lon="5.21415">
        <ele>186.6</ele>
        <time>2022-06-25T07:21:16Z</time>
      </trkpt>
      <trkpt lat="46.63375" lon="5.21411">
        <ele>186.6</ele>
        <time>2022-06-25T07:21:17Z</time>
      </trkpt>
      <trkpt lat="46.63378" lon="5.21408">
        <ele>186.6</ele>
        <time>2022-06-25T07:21:18Z</time>
      </trkpt>
      <trkpt lat="46.63381" lon="5.21406">
        <ele>186.6</ele>
        <time>2022-06-25T07:21:19Z</time>
      </trkpt>
      <trkpt lat="46.63385" lon="5.21403">
        <ele>186.6</ele>
        <time>2022-06-25T07:21:20Z</time>
      </trkpt>
      <trkpt lat="46.63389" lon="5.21401">
        <ele>186.4</ele>
        <time>2022-06-25T07:21:21Z</time>
      </trkpt>
      <trkpt lat="46.63393" lon="5.21399">
        <ele>186.4</ele>
        <time>2022-06-25T07:21:22Z</time>
      </trkpt>
      <trkpt lat="46.63398" lon="5.21397">
        <ele>186.4</ele>
        <time>2022-06-25T07:21:23Z</time>
      </trkpt>
      <trkpt lat="46.63402" lon="5.21394">
        <ele>186.4</ele>
        <time>2022-06-25T07:21:24Z</time>
      </trkpt>
      <trkpt lat="46.63407" lon="5.21391">
        <ele>186.4</ele>
        <time>2022-06-25T07:21:25Z</time>
      </trkpt>
      <trkpt lat="46.63411" lon="5.21389">
        <ele>186.4</ele>
        <time>2022-06-25T07:21:26Z</time>
      </trkpt>
      <trkpt lat="46.63416" lon="5.21386">
        <ele>186.4</ele>
        <time>2022-06-25T07:21:27Z</time>
      </trkpt>
      <trkpt lat="46.6342" lon="5.21384">
        <ele>186.4</ele>
        <time>2022-06-25T07:21:28Z</time>
      </trkpt>
      <trkpt lat="46.63425" lon="5.21381">
        <ele>186.4</ele>
        <time>2022-06-25T07:21:29Z</time>
      </trkpt>
      <trkpt lat="46.63429" lon="5.21378">
        <ele>186.4</ele>
        <time>2022-06-25T07:21:30Z</time>
      </trkpt>
      <trkpt lat="46.63434" lon="5.21375">
        <ele>186.4</ele>
        <time>2022-06-25T07:21:31Z</time>
      </trkpt>
      <trkpt lat="46.63438" lon="5.21373">
        <ele>186.4</ele>
        <time>2022-06-25T07:21:32Z</time>
      </trkpt>
      <trkpt lat="46.63443" lon="5.2137">
        <ele>186.4</ele>
        <time>2022-06-25T07:21:33Z</time>
      </trkpt>
      <trkpt lat="46.63447" lon="5.21367">
        <ele>186.4</ele>
        <time>2022-06-25T07:21:34Z</time>
      </trkpt>
      <trkpt lat="46.63452" lon="5.21364">
        <ele>186.4</ele>
        <time>2022-06-25T07:21:35Z</time>
      </trkpt>
      <trkpt lat="46.63457" lon="5.21361">
        <ele>186.4</ele>
        <time>2022-06-25T07:21:36Z</time>
      </trkpt>
      <trkpt lat="46.63461" lon="5.21358">
        <ele>186.4</ele>
        <time>2022-06-25T07:21:37Z</time>
      </trkpt>
      <trkpt lat="46.63465" lon="5.21354">
        <ele>186.4</ele>
        <time>2022-06-25T07:21:38Z</time>
      </trkpt>
      <trkpt lat="46.6347" lon="5.2135">
        <ele>186.4</ele>
        <time>2022-06-25T07:21:39Z</time>
      </trkpt>
      <trkpt lat="46.63474" lon="5.21347">
        <ele>186.4</ele>
        <time>2022-06-25T07:21:40Z</time>
      </trkpt>
      <trkpt lat="46.63478" lon="5.21343">
        <ele>186.4</ele>
        <time>2022-06-25T07:21:41Z</time>
      </trkpt>
      <trkpt lat="46.63482" lon="5.21339">
        <ele>186.4</ele>
        <time>2022-06-25T07:21:42Z</time>
      </trkpt>
      <trkpt lat="46.63486" lon="5.21335">
        <ele>186.2</ele>
        <time>2022-06-25T07:21:43Z</time>
      </trkpt>
      <trkpt lat="46.6349" lon="5.21332">
        <ele>186.2</ele>
        <time>2022-06-25T07:21:44Z</time>
      </trkpt>
      <trkpt lat="46.63494" lon="5.21328">
        <ele>186.2</ele>
        <time>2022-06-25T07:21:45Z</time>
      </trkpt>
      <trkpt lat="46.63498" lon="5.21324">
        <ele>186.2</ele>
        <time>2022-06-25T07:21:46Z</time>
      </trkpt>
      <trkpt lat="46.63502" lon="5.2132">
        <ele>186.2</ele>
        <time>2022-06-25T07:21:47Z</time>
      </trkpt>
      <trkpt lat="46.63506" lon="5.21316">
        <ele>186.2</ele>
        <time>2022-06-25T07:21:48Z</time>
      </trkpt>
      <trkpt lat="46.6351" lon="5.21313">
        <ele>186.2</ele>
        <time>2022-06-25T07:21:49Z</time>
      </trkpt>
      <trkpt lat="46.63513" lon="5.21309">
        <ele>186.4</ele>
        <time>2022-06-25T07:21:50Z</time>
      </trkpt>
      <trkpt lat="46.63517" lon="5.21306">
        <ele>186.4</ele>
        <time>2022-06-25T07:21:51Z</time>
      </trkpt>
      <trkpt lat="46.63521" lon="5.21302">
        <ele>186.4</ele>
        <time>2022-06-25T07:21:52Z</time>
      </trkpt>
      <trkpt lat="46.63525" lon="5.21298">
        <ele>186.4</ele>
        <time>2022-06-25T07:21:53Z</time>
      </trkpt>
      <trkpt lat="46.63528" lon="5.21295">
        <ele>186.4</ele>
        <time>2022-06-25T07:21:54Z</time>
      </trkpt>
      <trkpt lat="46.63532" lon="5.21291">
        <ele>186.4</ele>
        <time>2022-06-25T07:21:55Z</time>
      </trkpt>
      <trkpt lat="46.63535" lon="5.21287">
        <ele>186.4</ele>
        <time>2022-06-25T07:21:56Z</time>
      </trkpt>
      <trkpt lat="46.63538" lon="5.21284">
        <ele>186.4</ele>
        <time>2022-06-25T07:21:57Z</time>
      </trkpt>
      <trkpt lat="46.63541" lon="5.2128">
        <ele>186.4</ele>
        <time>2022-06-25T07:21:58Z</time>
      </trkpt>
      <trkpt lat="46.63544" lon="5.21277">
        <ele>186.4</ele>
        <time>2022-06-25T07:21:59Z</time>
      </trkpt>
      <trkpt lat="46.63547" lon="5.21275">
        <ele>186.4</ele>
        <time>2022-06-25T07:22:00Z</time>
      </trkpt>
      <trkpt lat="46.63549" lon="5.21274">
        <ele>186.4</ele>
        <time>2022-06-25T07:22:01Z</time>
      </trkpt>
      <trkpt lat="46.63551" lon="5.21272">
        <ele>186.6</ele>
        <time>2022-06-25T07:22:02Z</time>
      </trkpt>
      <trkpt lat="46.63553" lon="5.21271">
        <ele>186.6</ele>
        <time>2022-06-25T07:22:03Z</time>
      </trkpt>
      <trkpt lat="46.63555" lon="5.21271">
        <ele>186.6</ele>
        <time>2022-06-25T07:22:04Z</time>
      </trkpt>
      <trkpt lat="46.63556" lon="5.21271">
        <ele>186.6</ele>
        <time>2022-06-25T07:22:05Z</time>
      </trkpt>
      <trkpt lat="46.63557" lon="5.21271">
        <ele>186.8</ele>
        <time>2022-06-25T07:22:06Z</time>
      </trkpt>
      <trkpt lat="46.63558" lon="5.21271">
        <ele>186.8</ele>
        <time>2022-06-25T07:22:07Z</time>
      </trkpt>
      <trkpt lat="46.63559" lon="5.2127">
        <ele>186.8</ele>
        <time>2022-06-25T07:22:08Z</time>
      </trkpt>
      <trkpt lat="46.6356" lon="5.2127">
        <ele>187</ele>
        <time>2022-06-25T07:22:09Z</time>
      </trkpt>
      <trkpt lat="46.63561" lon="5.21269">
        <ele>187</ele>
        <time>2022-06-25T07:22:10Z</time>
      </trkpt>
      <trkpt lat="46.63563" lon="5.21268">
        <ele>187</ele>
        <time>2022-06-25T07:22:11Z</time>
      </trkpt>
      <trkpt lat="46.63566" lon="5.21267">
        <ele>187</ele>
        <time>2022-06-25T07:22:12Z</time>
      </trkpt>
      <trkpt lat="46.63568" lon="5.21264">
        <ele>187</ele>
        <time>2022-06-25T07:22:13Z</time>
      </trkpt>
      <trkpt lat="46.63569" lon="5.2126">
        <ele>187</ele>
        <time>2022-06-25T07:22:14Z</time>
      </trkpt>
      <trkpt lat="46.6357" lon="5.21254">
        <ele>187</ele>
        <time>2022-06-25T07:22:15Z</time>
      </trkpt>
      <trkpt lat="46.63571" lon="5.21248">
        <ele>187</ele>
        <time>2022-06-25T07:22:16Z</time>
      </trkpt>
      <trkpt lat="46.63572" lon="5.21242">
        <ele>187</ele>
        <time>2022-06-25T07:22:17Z</time>
      </trkpt>
      <trkpt lat="46.63573" lon="5.21235">
        <ele>187</ele>
        <time>2022-06-25T07:22:18Z</time>
      </trkpt>
      <trkpt lat="46.63574" lon="5.21228">
        <ele>187</ele>
        <time>2022-06-25T07:22:19Z</time>
      </trkpt>
      <trkpt lat="46.63575" lon="5.21221">
        <ele>187</ele>
        <time>2022-06-25T07:22:20Z</time>
      </trkpt>
      <trkpt lat="46.63577" lon="5.21214">
        <ele>187</ele>
        <time>2022-06-25T07:22:21Z</time>
      </trkpt>
      <trkpt lat="46.63578" lon="5.21206">
        <ele>187</ele>
        <time>2022-06-25T07:22:22Z</time>
      </trkpt>
      <trkpt lat="46.6358" lon="5.21198">
        <ele>187</ele>
        <time>2022-06-25T07:22:23Z</time>
      </trkpt>
      <trkpt lat="46.63581" lon="5.2119">
        <ele>187</ele>
        <time>2022-06-25T07:22:24Z</time>
      </trkpt>
      <trkpt lat="46.63583" lon="5.21182">
        <ele>187</ele>
        <time>2022-06-25T07:22:25Z</time>
      </trkpt>
      <trkpt lat="46.63584" lon="5.21174">
        <ele>186.8</ele>
        <time>2022-06-25T07:22:26Z</time>
      </trkpt>
      <trkpt lat="46.63586" lon="5.21165">
        <ele>186.8</ele>
        <time>2022-06-25T07:22:27Z</time>
      </trkpt>
      <trkpt lat="46.63587" lon="5.21156">
        <ele>186.8</ele>
        <time>2022-06-25T07:22:28Z</time>
      </trkpt>
      <trkpt lat="46.63589" lon="5.21148">
        <ele>186.8</ele>
        <time>2022-06-25T07:22:29Z</time>
      </trkpt>
      <trkpt lat="46.63591" lon="5.21139">
        <ele>186.8</ele>
        <time>2022-06-25T07:22:30Z</time>
      </trkpt>
      <trkpt lat="46.63592" lon="5.2113">
        <ele>186.8</ele>
        <time>2022-06-25T07:22:31Z</time>
      </trkpt>
      <trkpt lat="46.63594" lon="5.21121">
        <ele>186.6</ele>
        <time>2022-06-25T07:22:33Z</time>
      </trkpt>
      <trkpt lat="46.63596" lon="5.21111">
        <ele>186.6</ele>
        <time>2022-06-25T07:22:34Z</time>
      </trkpt>
      <trkpt lat="46.63598" lon="5.21102">
        <ele>186.6</ele>
        <time>2022-06-25T07:22:35Z</time>
      </trkpt>
      <trkpt lat="46.636" lon="5.21093">
        <ele>186.6</ele>
        <time>2022-06-25T07:22:36Z</time>
      </trkpt>
      <trkpt lat="46.63601" lon="5.21084">
        <ele>186.6</ele>
        <time>2022-06-25T07:22:37Z</time>
      </trkpt>
      <trkpt lat="46.63603" lon="5.21075">
        <ele>186.6</ele>
        <time>2022-06-25T07:22:38Z</time>
      </trkpt>
      <trkpt lat="46.63605" lon="5.21065">
        <ele>186.6</ele>
        <time>2022-06-25T07:22:39Z</time>
      </trkpt>
      <trkpt lat="46.63607" lon="5.21056">
        <ele>186.6</ele>
        <time>2022-06-25T07:22:40Z</time>
      </trkpt>
      <trkpt lat="46.63609" lon="5.21047">
        <ele>186.6</ele>
        <time>2022-06-25T07:22:41Z</time>
      </trkpt>
      <trkpt lat="46.63612" lon="5.21038">
        <ele>186.6</ele>
        <time>2022-06-25T07:22:42Z</time>
      </trkpt>
      <trkpt lat="46.63614" lon="5.21029">
        <ele>186.6</ele>
        <time>2022-06-25T07:22:43Z</time>
      </trkpt>
      <trkpt lat="46.63617" lon="5.21021">
        <ele>186.6</ele>
        <time>2022-06-25T07:22:44Z</time>
      </trkpt>
      <trkpt lat="46.6362" lon="5.21012">
        <ele>186.6</ele>
        <time>2022-06-25T07:22:45Z</time>
      </trkpt>
      <trkpt lat="46.63624" lon="5.21003">
        <ele>186.6</ele>
        <time>2022-06-25T07:22:46Z</time>
      </trkpt>
      <trkpt lat="46.63627" lon="5.20995">
        <ele>186.6</ele>
        <time>2022-06-25T07:22:47Z</time>
      </trkpt>
      <trkpt lat="46.63631" lon="5.20987">
        <ele>186.6</ele>
        <time>2022-06-25T07:22:48Z</time>
      </trkpt>
      <trkpt lat="46.63634" lon="5.20978">
        <ele>186.6</ele>
        <time>2022-06-25T07:22:49Z</time>
      </trkpt>
      <trkpt lat="46.63638" lon="5.20971">
        <ele>186.6</ele>
        <time>2022-06-25T07:22:50Z</time>
      </trkpt>
      <trkpt lat="46.63642" lon="5.20963">
        <ele>186.6</ele>
        <time>2022-06-25T07:22:51Z</time>
      </trkpt>
      <trkpt lat="46.63646" lon="5.20955">
        <ele>186.6</ele>
        <time>2022-06-25T07:22:52Z</time>
      </trkpt>
      <trkpt lat="46.6365" lon="5.20947">
        <ele>186.6</ele>
        <time>2022-06-25T07:22:53Z</time>
      </trkpt>
      <trkpt lat="46.63654" lon="5.2094">
        <ele>186.6</ele>
        <time>2022-06-25T07:22:54Z</time>
      </trkpt>
      <trkpt lat="46.63658" lon="5.20933">
        <ele>186.6</ele>
        <time>2022-06-25T07:22:55Z</time>
      </trkpt>
      <trkpt lat="46.63663" lon="5.20925">
        <ele>186.6</ele>
        <time>2022-06-25T07:22:56Z</time>
      </trkpt>
      <trkpt lat="46.63667" lon="5.20918">
        <ele>186.6</ele>
        <time>2022-06-25T07:22:57Z</time>
      </trkpt>
      <trkpt lat="46.63671" lon="5.20911">
        <ele>186.6</ele>
        <time>2022-06-25T07:22:58Z</time>
      </trkpt>
      <trkpt lat="46.63675" lon="5.20903">
        <ele>186.6</ele>
        <time>2022-06-25T07:22:59Z</time>
      </trkpt>
      <trkpt lat="46.63679" lon="5.20896">
        <ele>186.6</ele>
        <time>2022-06-25T07:23:00Z</time>
      </trkpt>
      <trkpt lat="46.63683" lon="5.20889">
        <ele>186.6</ele>
        <time>2022-06-25T07:23:01Z</time>
      </trkpt>
      <trkpt lat="46.63688" lon="5.20882">
        <ele>186.6</ele>
        <time>2022-06-25T07:23:02Z</time>
      </trkpt>
      <trkpt lat="46.63692" lon="5.20875">
        <ele>186.6</ele>
        <time>2022-06-25T07:23:03Z</time>
      </trkpt>
      <trkpt lat="46.63696" lon="5.20868">
        <ele>186.6</ele>
        <time>2022-06-25T07:23:04Z</time>
      </trkpt>
      <trkpt lat="46.637" lon="5.20861">
        <ele>186.6</ele>
        <time>2022-06-25T07:23:05Z</time>
      </trkpt>
      <trkpt lat="46.63704" lon="5.20855">
        <ele>186.6</ele>
        <time>2022-06-25T07:23:06Z</time>
      </trkpt>
      <trkpt lat="46.63708" lon="5.20847">
        <ele>186.2</ele>
        <time>2022-06-25T07:23:07Z</time>
      </trkpt>
      <trkpt lat="46.63712" lon="5.2084">
        <ele>186.2</ele>
        <time>2022-06-25T07:23:08Z</time>
      </trkpt>
      <trkpt lat="46.63716" lon="5.20834">
        <ele>186.2</ele>
        <time>2022-06-25T07:23:09Z</time>
      </trkpt>
      <trkpt lat="46.6372" lon="5.20827">
        <ele>186.2</ele>
        <time>2022-06-25T07:23:10Z</time>
      </trkpt>
      <trkpt lat="46.63724" lon="5.20819">
        <ele>186.2</ele>
        <time>2022-06-25T07:23:11Z</time>
      </trkpt>
      <trkpt lat="46.63728" lon="5.20812">
        <ele>186.2</ele>
        <time>2022-06-25T07:23:12Z</time>
      </trkpt>
      <trkpt lat="46.63732" lon="5.20805">
        <ele>186.2</ele>
        <time>2022-06-25T07:23:13Z</time>
      </trkpt>
      <trkpt lat="46.63736" lon="5.20798">
        <ele>186.4</ele>
        <time>2022-06-25T07:23:14Z</time>
      </trkpt>
      <trkpt lat="46.6374" lon="5.20791">
        <ele>186.4</ele>
        <time>2022-06-25T07:23:15Z</time>
      </trkpt>
      <trkpt lat="46.63744" lon="5.20784">
        <ele>186.4</ele>
        <time>2022-06-25T07:23:16Z</time>
      </trkpt>
      <trkpt lat="46.63748" lon="5.20777">
        <ele>186.4</ele>
        <time>2022-06-25T07:23:17Z</time>
      </trkpt>
      <trkpt lat="46.63752" lon="5.2077">
        <ele>186.4</ele>
        <time>2022-06-25T07:23:18Z</time>
      </trkpt>
      <trkpt lat="46.63756" lon="5.20763">
        <ele>186.4</ele>
        <time>2022-06-25T07:23:19Z</time>
      </trkpt>
      <trkpt lat="46.6376" lon="5.20756">
        <ele>186.4</ele>
        <time>2022-06-25T07:23:20Z</time>
      </trkpt>
      <trkpt lat="46.63764" lon="5.2075">
        <ele>186.4</ele>
        <time>2022-06-25T07:23:21Z</time>
      </trkpt>
      <trkpt lat="46.63769" lon="5.20743">
        <ele>186.4</ele>
        <time>2022-06-25T07:23:22Z</time>
      </trkpt>
      <trkpt lat="46.63773" lon="5.20736">
        <ele>186.4</ele>
        <time>2022-06-25T07:23:23Z</time>
      </trkpt>
      <trkpt lat="46.63777" lon="5.2073">
        <ele>186.4</ele>
        <time>2022-06-25T07:23:24Z</time>
      </trkpt>
      <trkpt lat="46.63781" lon="5.20723">
        <ele>186.2</ele>
        <time>2022-06-25T07:23:25Z</time>
      </trkpt>
      <trkpt lat="46.63785" lon="5.20716">
        <ele>186.2</ele>
        <time>2022-06-25T07:23:26Z</time>
      </trkpt>
      <trkpt lat="46.63789" lon="5.20709">
        <ele>186.2</ele>
        <time>2022-06-25T07:23:27Z</time>
      </trkpt>
      <trkpt lat="46.63793" lon="5.20701">
        <ele>186.2</ele>
        <time>2022-06-25T07:23:28Z</time>
      </trkpt>
      <trkpt lat="46.63797" lon="5.20694">
        <ele>186.2</ele>
        <time>2022-06-25T07:23:29Z</time>
      </trkpt>
      <trkpt lat="46.638" lon="5.20687">
        <ele>186.2</ele>
        <time>2022-06-25T07:23:30Z</time>
      </trkpt>
      <trkpt lat="46.63804" lon="5.20679">
        <ele>186.4</ele>
        <time>2022-06-25T07:23:31Z</time>
      </trkpt>
      <trkpt lat="46.63807" lon="5.20671">
        <ele>186.4</ele>
        <time>2022-06-25T07:23:32Z</time>
      </trkpt>
      <trkpt lat="46.6381" lon="5.20663">
        <ele>186.4</ele>
        <time>2022-06-25T07:23:33Z</time>
      </trkpt>
      <trkpt lat="46.63813" lon="5.20655">
        <ele>186.4</ele>
        <time>2022-06-25T07:23:34Z</time>
      </trkpt>
      <trkpt lat="46.63816" lon="5.20646">
        <ele>186.4</ele>
        <time>2022-06-25T07:23:35Z</time>
      </trkpt>
      <trkpt lat="46.63819" lon="5.20637">
        <ele>186.4</ele>
        <time>2022-06-25T07:23:36Z</time>
      </trkpt>
      <trkpt lat="46.63821" lon="5.20629">
        <ele>186.4</ele>
        <time>2022-06-25T07:23:37Z</time>
      </trkpt>
      <trkpt lat="46.63824" lon="5.20619">
        <ele>186.4</ele>
        <time>2022-06-25T07:23:38Z</time>
      </trkpt>
      <trkpt lat="46.63827" lon="5.20611">
        <ele>186.4</ele>
        <time>2022-06-25T07:23:39Z</time>
      </trkpt>
      <trkpt lat="46.6383" lon="5.20602">
        <ele>186.4</ele>
        <time>2022-06-25T07:23:40Z</time>
      </trkpt>
      <trkpt lat="46.63833" lon="5.20593">
        <ele>186.4</ele>
        <time>2022-06-25T07:23:41Z</time>
      </trkpt>
      <trkpt lat="46.63837" lon="5.20584">
        <ele>186.4</ele>
        <time>2022-06-25T07:23:42Z</time>
      </trkpt>
      <trkpt lat="46.6384" lon="5.20575">
        <ele>186.4</ele>
        <time>2022-06-25T07:23:43Z</time>
      </trkpt>
      <trkpt lat="46.63844" lon="5.20567">
        <ele>186.4</ele>
        <time>2022-06-25T07:23:44Z</time>
      </trkpt>
      <trkpt lat="46.63847" lon="5.20558">
        <ele>186.4</ele>
        <time>2022-06-25T07:23:45Z</time>
      </trkpt>
      <trkpt lat="46.63851" lon="5.2055">
        <ele>186.4</ele>
        <time>2022-06-25T07:23:46Z</time>
      </trkpt>
      <trkpt lat="46.63854" lon="5.20541">
        <ele>186.4</ele>
        <time>2022-06-25T07:23:47Z</time>
      </trkpt>
      <trkpt lat="46.63858" lon="5.20533">
        <ele>186.4</ele>
        <time>2022-06-25T07:23:48Z</time>
      </trkpt>
      <trkpt lat="46.63861" lon="5.20525">
        <ele>186.6</ele>
        <time>2022-06-25T07:23:49Z</time>
      </trkpt>
      <trkpt lat="46.63865" lon="5.20517">
        <ele>186.6</ele>
        <time>2022-06-25T07:23:50Z</time>
      </trkpt>
      <trkpt lat="46.63868" lon="5.20509">
        <ele>186.6</ele>
        <time>2022-06-25T07:23:51Z</time>
      </trkpt>
      <trkpt lat="46.63872" lon="5.20501">
        <ele>186.6</ele>
        <time>2022-06-25T07:23:52Z</time>
      </trkpt>
      <trkpt lat="46.63876" lon="5.20493">
        <ele>186.6</ele>
        <time>2022-06-25T07:23:53Z</time>
      </trkpt>
      <trkpt lat="46.6388" lon="5.20485">
        <ele>186.6</ele>
        <time>2022-06-25T07:23:54Z</time>
      </trkpt>
      <trkpt lat="46.63884" lon="5.20478">
        <ele>186.6</ele>
        <time>2022-06-25T07:23:55Z</time>
      </trkpt>
      <trkpt lat="46.63888" lon="5.2047">
        <ele>186.6</ele>
        <time>2022-06-25T07:23:56Z</time>
      </trkpt>
      <trkpt lat="46.63892" lon="5.20463">
        <ele>186.6</ele>
        <time>2022-06-25T07:23:57Z</time>
      </trkpt>
      <trkpt lat="46.63896" lon="5.20455">
        <ele>186.6</ele>
        <time>2022-06-25T07:23:58Z</time>
      </trkpt>
      <trkpt lat="46.639" lon="5.20448">
        <ele>186.6</ele>
        <time>2022-06-25T07:23:59Z</time>
      </trkpt>
      <trkpt lat="46.63904" lon="5.20441">
        <ele>187</ele>
        <time>2022-06-25T07:24:00Z</time>
      </trkpt>
      <trkpt lat="46.63908" lon="5.20433">
        <ele>187</ele>
        <time>2022-06-25T07:24:01Z</time>
      </trkpt>
      <trkpt lat="46.63913" lon="5.20426">
        <ele>187</ele>
        <time>2022-06-25T07:24:02Z</time>
      </trkpt>
      <trkpt lat="46.63917" lon="5.20418">
        <ele>187</ele>
        <time>2022-06-25T07:24:03Z</time>
      </trkpt>
      <trkpt lat="46.63921" lon="5.2041">
        <ele>187</ele>
        <time>2022-06-25T07:24:04Z</time>
      </trkpt>
      <trkpt lat="46.63926" lon="5.20403">
        <ele>187</ele>
        <time>2022-06-25T07:24:05Z</time>
      </trkpt>
      <trkpt lat="46.6393" lon="5.20395">
        <ele>187</ele>
        <time>2022-06-25T07:24:06Z</time>
      </trkpt>
      <trkpt lat="46.63934" lon="5.20388">
        <ele>187</ele>
        <time>2022-06-25T07:24:07Z</time>
      </trkpt>
      <trkpt lat="46.63938" lon="5.20381">
        <ele>187</ele>
        <time>2022-06-25T07:24:08Z</time>
      </trkpt>
      <trkpt lat="46.63943" lon="5.20373">
        <ele>187</ele>
        <time>2022-06-25T07:24:09Z</time>
      </trkpt>
      <trkpt lat="46.63947" lon="5.20366">
        <ele>187</ele>
        <time>2022-06-25T07:24:10Z</time>
      </trkpt>
      <trkpt lat="46.63951" lon="5.20358">
        <ele>187</ele>
        <time>2022-06-25T07:24:11Z</time>
      </trkpt>
      <trkpt lat="46.63956" lon="5.20351">
        <ele>187</ele>
        <time>2022-06-25T07:24:12Z</time>
      </trkpt>
      <trkpt lat="46.6396" lon="5.20343">
        <ele>187</ele>
        <time>2022-06-25T07:24:13Z</time>
      </trkpt>
      <trkpt lat="46.63964" lon="5.20336">
        <ele>186.6</ele>
        <time>2022-06-25T07:24:14Z</time>
      </trkpt>
      <trkpt lat="46.63969" lon="5.20329">
        <ele>186.6</ele>
        <time>2022-06-25T07:24:15Z</time>
      </trkpt>
      <trkpt lat="46.63973" lon="5.20321">
        <ele>186.6</ele>
        <time>2022-06-25T07:24:16Z</time>
      </trkpt>
      <trkpt lat="46.63977" lon="5.20314">
        <ele>186.6</ele>
        <time>2022-06-25T07:24:17Z</time>
      </trkpt>
      <trkpt lat="46.63981" lon="5.20307">
        <ele>186.6</ele>
        <time>2022-06-25T07:24:18Z</time>
      </trkpt>
      <trkpt lat="46.63986" lon="5.20299">
        <ele>186.6</ele>
        <time>2022-06-25T07:24:19Z</time>
      </trkpt>
      <trkpt lat="46.6399" lon="5.20292">
        <ele>186.6</ele>
        <time>2022-06-25T07:24:20Z</time>
      </trkpt>
      <trkpt lat="46.63994" lon="5.20285">
        <ele>186.6</ele>
        <time>2022-06-25T07:24:21Z</time>
      </trkpt>
      <trkpt lat="46.63998" lon="5.20278">
        <ele>186.4</ele>
        <time>2022-06-25T07:24:22Z</time>
      </trkpt>
      <trkpt lat="46.64002" lon="5.20271">
        <ele>186.4</ele>
        <time>2022-06-25T07:24:23Z</time>
      </trkpt>
      <trkpt lat="46.64006" lon="5.20263">
        <ele>186.4</ele>
        <time>2022-06-25T07:24:24Z</time>
      </trkpt>
      <trkpt lat="46.6401" lon="5.20256">
        <ele>186.4</ele>
        <time>2022-06-25T07:24:25Z</time>
      </trkpt>
      <trkpt lat="46.64014" lon="5.20249">
        <ele>186.4</ele>
        <time>2022-06-25T07:24:26Z</time>
      </trkpt>
      <trkpt lat="46.64018" lon="5.20241">
        <ele>186.4</ele>
        <time>2022-06-25T07:24:27Z</time>
      </trkpt>
      <trkpt lat="46.64022" lon="5.20233">
        <ele>186.4</ele>
        <time>2022-06-25T07:24:28Z</time>
      </trkpt>
      <trkpt lat="46.64025" lon="5.20226">
        <ele>186.4</ele>
        <time>2022-06-25T07:24:29Z</time>
      </trkpt>
      <trkpt lat="46.64028" lon="5.20217">
        <ele>186.4</ele>
        <time>2022-06-25T07:24:30Z</time>
      </trkpt>
      <trkpt lat="46.64032" lon="5.20209">
        <ele>186.4</ele>
        <time>2022-06-25T07:24:31Z</time>
      </trkpt>
      <trkpt lat="46.64035" lon="5.20201">
        <ele>186.4</ele>
        <time>2022-06-25T07:24:32Z</time>
      </trkpt>
      <trkpt lat="46.64038" lon="5.20193">
        <ele>186.4</ele>
        <time>2022-06-25T07:24:33Z</time>
      </trkpt>
      <trkpt lat="46.64041" lon="5.20184">
        <ele>186.4</ele>
        <time>2022-06-25T07:24:34Z</time>
      </trkpt>
      <trkpt lat="46.64044" lon="5.20176">
        <ele>186.4</ele>
        <time>2022-06-25T07:24:35Z</time>
      </trkpt>
      <trkpt lat="46.64048" lon="5.20167">
        <ele>186.4</ele>
        <time>2022-06-25T07:24:36Z</time>
      </trkpt>
      <trkpt lat="46.64051" lon="5.20159">
        <ele>186.6</ele>
        <time>2022-06-25T07:24:37Z</time>
      </trkpt>
      <trkpt lat="46.64054" lon="5.2015">
        <ele>186.6</ele>
        <time>2022-06-25T07:24:38Z</time>
      </trkpt>
      <trkpt lat="46.64057" lon="5.20141">
        <ele>186.6</ele>
        <time>2022-06-25T07:24:39Z</time>
      </trkpt>
      <trkpt lat="46.6406" lon="5.20133">
        <ele>186.4</ele>
        <time>2022-06-25T07:24:40Z</time>
      </trkpt>
      <trkpt lat="46.64063" lon="5.20124">
        <ele>186.4</ele>
        <time>2022-06-25T07:24:41Z</time>
      </trkpt>
      <trkpt lat="46.64067" lon="5.20116">
        <ele>186.4</ele>
        <time>2022-06-25T07:24:42Z</time>
      </trkpt>
      <trkpt lat="46.6407" lon="5.20107">
        <ele>186.4</ele>
        <time>2022-06-25T07:24:43Z</time>
      </trkpt>
      <trkpt lat="46.64073" lon="5.20099">
        <ele>186.4</ele>
        <time>2022-06-25T07:24:44Z</time>
      </trkpt>
      <trkpt lat="46.64076" lon="5.20091">
        <ele>186.4</ele>
        <time>2022-06-25T07:24:45Z</time>
      </trkpt>
      <trkpt lat="46.6408" lon="5.20082">
        <ele>186.4</ele>
        <time>2022-06-25T07:24:46Z</time>
      </trkpt>
      <trkpt lat="46.64083" lon="5.20073">
        <ele>186.2</ele>
        <time>2022-06-25T07:24:47Z</time>
      </trkpt>
      <trkpt lat="46.64086" lon="5.20064">
        <ele>186.2</ele>
        <time>2022-06-25T07:24:48Z</time>
      </trkpt>
      <trkpt lat="46.64089" lon="5.20056">
        <ele>186.2</ele>
        <time>2022-06-25T07:24:49Z</time>
      </trkpt>
      <trkpt lat="46.64093" lon="5.20047">
        <ele>186.2</ele>
        <time>2022-06-25T07:24:50Z</time>
      </trkpt>
      <trkpt lat="46.64096" lon="5.20038">
        <ele>186.2</ele>
        <time>2022-06-25T07:24:51Z</time>
      </trkpt>
      <trkpt lat="46.64099" lon="5.20029">
        <ele>186.2</ele>
        <time>2022-06-25T07:24:52Z</time>
      </trkpt>
      <trkpt lat="46.64103" lon="5.2002">
        <ele>186.2</ele>
        <time>2022-06-25T07:24:53Z</time>
      </trkpt>
      <trkpt lat="46.64106" lon="5.20011">
        <ele>186</ele>
        <time>2022-06-25T07:24:54Z</time>
      </trkpt>
      <trkpt lat="46.64109" lon="5.20002">
        <ele>186</ele>
        <time>2022-06-25T07:24:55Z</time>
      </trkpt>
      <trkpt lat="46.64112" lon="5.19992">
        <ele>186</ele>
        <time>2022-06-25T07:24:56Z</time>
      </trkpt>
      <trkpt lat="46.64115" lon="5.19983">
        <ele>185.6</ele>
        <time>2022-06-25T07:24:57Z</time>
      </trkpt>
      <trkpt lat="46.64118" lon="5.19973">
        <ele>185.6</ele>
        <time>2022-06-25T07:24:58Z</time>
      </trkpt>
      <trkpt lat="46.6412" lon="5.19963">
        <ele>185.6</ele>
        <time>2022-06-25T07:24:59Z</time>
      </trkpt>
      <trkpt lat="46.64122" lon="5.19953">
        <ele>185.6</ele>
        <time>2022-06-25T07:25:00Z</time>
      </trkpt>
      <trkpt lat="46.64124" lon="5.19944">
        <ele>185.6</ele>
        <time>2022-06-25T07:25:01Z</time>
      </trkpt>
      <trkpt lat="46.64126" lon="5.19934">
        <ele>185.6</ele>
        <time>2022-06-25T07:25:02Z</time>
      </trkpt>
      <trkpt lat="46.64127" lon="5.19924">
        <ele>185.4</ele>
        <time>2022-06-25T07:25:03Z</time>
      </trkpt>
      <trkpt lat="46.64128" lon="5.19913">
        <ele>185.4</ele>
        <time>2022-06-25T07:25:04Z</time>
      </trkpt>
      <trkpt lat="46.64129" lon="5.19903">
        <ele>185.4</ele>
        <time>2022-06-25T07:25:05Z</time>
      </trkpt>
      <trkpt lat="46.6413" lon="5.19893">
        <ele>185.2</ele>
        <time>2022-06-25T07:25:06Z</time>
      </trkpt>
      <trkpt lat="46.64131" lon="5.19882">
        <ele>185.2</ele>
        <time>2022-06-25T07:25:07Z</time>
      </trkpt>
      <trkpt lat="46.64134" lon="5.19861">
        <ele>185.2</ele>
        <time>2022-06-25T07:25:08Z</time>
      </trkpt>
      <trkpt lat="46.64135" lon="5.19851">
        <ele>185.2</ele>
        <time>2022-06-25T07:25:09Z</time>
      </trkpt>
      <trkpt lat="46.64136" lon="5.19841">
        <ele>185.2</ele>
        <time>2022-06-25T07:25:10Z</time>
      </trkpt>
      <trkpt lat="46.64137" lon="5.1983">
        <ele>185.2</ele>
        <time>2022-06-25T07:25:11Z</time>
      </trkpt>
      <trkpt lat="46.64138" lon="5.19819">
        <ele>185.2</ele>
        <time>2022-06-25T07:25:12Z</time>
      </trkpt>
      <trkpt lat="46.64139" lon="5.19808">
        <ele>185.2</ele>
        <time>2022-06-25T07:25:13Z</time>
      </trkpt>
      <trkpt lat="46.6414" lon="5.19798">
        <ele>185</ele>
        <time>2022-06-25T07:25:14Z</time>
      </trkpt>
      <trkpt lat="46.64141" lon="5.19787">
        <ele>185</ele>
        <time>2022-06-25T07:25:15Z</time>
      </trkpt>
      <trkpt lat="46.64143" lon="5.19776">
        <ele>185</ele>
        <time>2022-06-25T07:25:16Z</time>
      </trkpt>
      <trkpt lat="46.64144" lon="5.19765">
        <ele>185</ele>
        <time>2022-06-25T07:25:17Z</time>
      </trkpt>
      <trkpt lat="46.64145" lon="5.19755">
        <ele>185</ele>
        <time>2022-06-25T07:25:18Z</time>
      </trkpt>
      <trkpt lat="46.64147" lon="5.19744">
        <ele>185</ele>
        <time>2022-06-25T07:25:19Z</time>
      </trkpt>
      <trkpt lat="46.64149" lon="5.19733">
        <ele>185</ele>
        <time>2022-06-25T07:25:20Z</time>
      </trkpt>
      <trkpt lat="46.6415" lon="5.19723">
        <ele>185</ele>
        <time>2022-06-25T07:25:21Z</time>
      </trkpt>
      <trkpt lat="46.64152" lon="5.19712">
        <ele>185</ele>
        <time>2022-06-25T07:25:22Z</time>
      </trkpt>
      <trkpt lat="46.64154" lon="5.19702">
        <ele>185</ele>
        <time>2022-06-25T07:25:23Z</time>
      </trkpt>
      <trkpt lat="46.64156" lon="5.19691">
        <ele>185</ele>
        <time>2022-06-25T07:25:24Z</time>
      </trkpt>
      <trkpt lat="46.64158" lon="5.19681">
        <ele>185</ele>
        <time>2022-06-25T07:25:25Z</time>
      </trkpt>
      <trkpt lat="46.6416" lon="5.19671">
        <ele>185</ele>
        <time>2022-06-25T07:25:26Z</time>
      </trkpt>
      <trkpt lat="46.64162" lon="5.19661">
        <ele>185</ele>
        <time>2022-06-25T07:25:27Z</time>
      </trkpt>
      <trkpt lat="46.64163" lon="5.19651">
        <ele>185</ele>
        <time>2022-06-25T07:25:28Z</time>
      </trkpt>
      <trkpt lat="46.64165" lon="5.19641">
        <ele>185</ele>
        <time>2022-06-25T07:25:29Z</time>
      </trkpt>
      <trkpt lat="46.64167" lon="5.19631">
        <ele>185</ele>
        <time>2022-06-25T07:25:30Z</time>
      </trkpt>
      <trkpt lat="46.64169" lon="5.19622">
        <ele>185</ele>
        <time>2022-06-25T07:25:31Z</time>
      </trkpt>
      <trkpt lat="46.6417" lon="5.19612">
        <ele>185</ele>
        <time>2022-06-25T07:25:32Z</time>
      </trkpt>
      <trkpt lat="46.64173" lon="5.19603">
        <ele>185</ele>
        <time>2022-06-25T07:25:33Z</time>
      </trkpt>
      <trkpt lat="46.64174" lon="5.19593">
        <ele>185</ele>
        <time>2022-06-25T07:25:34Z</time>
      </trkpt>
      <trkpt lat="46.64176" lon="5.19583">
        <ele>185</ele>
        <time>2022-06-25T07:25:35Z</time>
      </trkpt>
      <trkpt lat="46.64178" lon="5.19574">
        <ele>185</ele>
        <time>2022-06-25T07:25:36Z</time>
      </trkpt>
      <trkpt lat="46.64179" lon="5.19564">
        <ele>185</ele>
        <time>2022-06-25T07:25:37Z</time>
      </trkpt>
      <trkpt lat="46.64181" lon="5.19555">
        <ele>185</ele>
        <time>2022-06-25T07:25:38Z</time>
      </trkpt>
      <trkpt lat="46.64183" lon="5.19545">
        <ele>185</ele>
        <time>2022-06-25T07:25:39Z</time>
      </trkpt>
      <trkpt lat="46.64184" lon="5.19536">
        <ele>185</ele>
        <time>2022-06-25T07:25:40Z</time>
      </trkpt>
      <trkpt lat="46.64186" lon="5.19526">
        <ele>185</ele>
        <time>2022-06-25T07:25:41Z</time>
      </trkpt>
      <trkpt lat="46.64188" lon="5.19517">
        <ele>185</ele>
        <time>2022-06-25T07:25:42Z</time>
      </trkpt>
      <trkpt lat="46.6419" lon="5.19507">
        <ele>185</ele>
        <time>2022-06-25T07:25:43Z</time>
      </trkpt>
      <trkpt lat="46.64192" lon="5.19498">
        <ele>184.8</ele>
        <time>2022-06-25T07:25:44Z</time>
      </trkpt>
      <trkpt lat="46.64195" lon="5.19489">
        <ele>184.8</ele>
        <time>2022-06-25T07:25:45Z</time>
      </trkpt>
      <trkpt lat="46.64197" lon="5.1948">
        <ele>184.8</ele>
        <time>2022-06-25T07:25:46Z</time>
      </trkpt>
      <trkpt lat="46.642" lon="5.19471">
        <ele>184.8</ele>
        <time>2022-06-25T07:25:47Z</time>
      </trkpt>
      <trkpt lat="46.64202" lon="5.19462">
        <ele>184.8</ele>
        <time>2022-06-25T07:25:48Z</time>
      </trkpt>
      <trkpt lat="46.64205" lon="5.19453">
        <ele>184.8</ele>
        <time>2022-06-25T07:25:49Z</time>
      </trkpt>
      <trkpt lat="46.64207" lon="5.19444">
        <ele>184.8</ele>
        <time>2022-06-25T07:25:50Z</time>
      </trkpt>
      <trkpt lat="46.6421" lon="5.19435">
        <ele>184.8</ele>
        <time>2022-06-25T07:25:51Z</time>
      </trkpt>
      <trkpt lat="46.64212" lon="5.19426">
        <ele>184.8</ele>
        <time>2022-06-25T07:25:52Z</time>
      </trkpt>
      <trkpt lat="46.64215" lon="5.19417">
        <ele>184.8</ele>
        <time>2022-06-25T07:25:53Z</time>
      </trkpt>
      <trkpt lat="46.64217" lon="5.19407">
        <ele>184.8</ele>
        <time>2022-06-25T07:25:54Z</time>
      </trkpt>
      <trkpt lat="46.6422" lon="5.19398">
        <ele>184.6</ele>
        <time>2022-06-25T07:25:55Z</time>
      </trkpt>
      <trkpt lat="46.64222" lon="5.19389">
        <ele>184.6</ele>
        <time>2022-06-25T07:25:56Z</time>
      </trkpt>
      <trkpt lat="46.64225" lon="5.1938">
        <ele>184.6</ele>
        <time>2022-06-25T07:25:57Z</time>
      </trkpt>
      <trkpt lat="46.64228" lon="5.19371">
        <ele>184.6</ele>
        <time>2022-06-25T07:25:58Z</time>
      </trkpt>
      <trkpt lat="46.6423" lon="5.19362">
        <ele>184.6</ele>
        <time>2022-06-25T07:25:59Z</time>
      </trkpt>
      <trkpt lat="46.64233" lon="5.19352">
        <ele>184.6</ele>
        <time>2022-06-25T07:26:00Z</time>
      </trkpt>
      <trkpt lat="46.64235" lon="5.19343">
        <ele>184.8</ele>
        <time>2022-06-25T07:26:01Z</time>
      </trkpt>
      <trkpt lat="46.64238" lon="5.19334">
        <ele>184.8</ele>
        <time>2022-06-25T07:26:02Z</time>
      </trkpt>
      <trkpt lat="46.64241" lon="5.19325">
        <ele>184.8</ele>
        <time>2022-06-25T07:26:03Z</time>
      </trkpt>
      <trkpt lat="46.64243" lon="5.19316">
        <ele>184.8</ele>
        <time>2022-06-25T07:26:04Z</time>
      </trkpt>
      <trkpt lat="46.64246" lon="5.19307">
        <ele>184.8</ele>
        <time>2022-06-25T07:26:05Z</time>
      </trkpt>
      <trkpt lat="46.64248" lon="5.19298">
        <ele>184.8</ele>
        <time>2022-06-25T07:26:06Z</time>
      </trkpt>
      <trkpt lat="46.64251" lon="5.19288">
        <ele>184.8</ele>
        <time>2022-06-25T07:26:07Z</time>
      </trkpt>
      <trkpt lat="46.64253" lon="5.19279">
        <ele>184.8</ele>
        <time>2022-06-25T07:26:08Z</time>
      </trkpt>
      <trkpt lat="46.64255" lon="5.1927">
        <ele>184.8</ele>
        <time>2022-06-25T07:26:09Z</time>
      </trkpt>
      <trkpt lat="46.64258" lon="5.19261">
        <ele>185</ele>
        <time>2022-06-25T07:26:10Z</time>
      </trkpt>
      <trkpt lat="46.6426" lon="5.19252">
        <ele>185</ele>
        <time>2022-06-25T07:26:11Z</time>
      </trkpt>
      <trkpt lat="46.64262" lon="5.19243">
        <ele>185</ele>
        <time>2022-06-25T07:26:12Z</time>
      </trkpt>
      <trkpt lat="46.64264" lon="5.19233">
        <ele>185</ele>
        <time>2022-06-25T07:26:13Z</time>
      </trkpt>
      <trkpt lat="46.64265" lon="5.19223">
        <ele>185</ele>
        <time>2022-06-25T07:26:14Z</time>
      </trkpt>
      <trkpt lat="46.64267" lon="5.19214">
        <ele>185</ele>
        <time>2022-06-25T07:26:15Z</time>
      </trkpt>
      <trkpt lat="46.64268" lon="5.19204">
        <ele>185</ele>
        <time>2022-06-25T07:26:16Z</time>
      </trkpt>
      <trkpt lat="46.64269" lon="5.19194">
        <ele>185.2</ele>
        <time>2022-06-25T07:26:17Z</time>
      </trkpt>
      <trkpt lat="46.6427" lon="5.19184">
        <ele>185.2</ele>
        <time>2022-06-25T07:26:18Z</time>
      </trkpt>
      <trkpt lat="46.64271" lon="5.19174">
        <ele>185.2</ele>
        <time>2022-06-25T07:26:19Z</time>
      </trkpt>
      <trkpt lat="46.64272" lon="5.19164">
        <ele>185.2</ele>
        <time>2022-06-25T07:26:20Z</time>
      </trkpt>
      <trkpt lat="46.64272" lon="5.19154">
        <ele>185.6</ele>
        <time>2022-06-25T07:26:21Z</time>
      </trkpt>
      <trkpt lat="46.64273" lon="5.19144">
        <ele>185.6</ele>
        <time>2022-06-25T07:26:22Z</time>
      </trkpt>
      <trkpt lat="46.64274" lon="5.19134">
        <ele>185.6</ele>
        <time>2022-06-25T07:26:23Z</time>
      </trkpt>
      <trkpt lat="46.64275" lon="5.19125">
        <ele>185.6</ele>
        <time>2022-06-25T07:26:24Z</time>
      </trkpt>
      <trkpt lat="46.64276" lon="5.19115">
        <ele>185.6</ele>
        <time>2022-06-25T07:26:25Z</time>
      </trkpt>
      <trkpt lat="46.64277" lon="5.19105">
        <ele>185.6</ele>
        <time>2022-06-25T07:26:26Z</time>
      </trkpt>
      <trkpt lat="46.64278" lon="5.19095">
        <ele>185.6</ele>
        <time>2022-06-25T07:26:27Z</time>
      </trkpt>
      <trkpt lat="46.64279" lon="5.19085">
        <ele>185.6</ele>
        <time>2022-06-25T07:26:28Z</time>
      </trkpt>
      <trkpt lat="46.6428" lon="5.19075">
        <ele>185.6</ele>
        <time>2022-06-25T07:26:29Z</time>
      </trkpt>
      <trkpt lat="46.64281" lon="5.19065">
        <ele>185.6</ele>
        <time>2022-06-25T07:26:30Z</time>
      </trkpt>
      <trkpt lat="46.64282" lon="5.19055">
        <ele>185.6</ele>
        <time>2022-06-25T07:26:31Z</time>
      </trkpt>
      <trkpt lat="46.64282" lon="5.19045">
        <ele>185.6</ele>
        <time>2022-06-25T07:26:32Z</time>
      </trkpt>
      <trkpt lat="46.64283" lon="5.19035">
        <ele>185.6</ele>
        <time>2022-06-25T07:26:33Z</time>
      </trkpt>
      <trkpt lat="46.64284" lon="5.19025">
        <ele>185.6</ele>
        <time>2022-06-25T07:26:34Z</time>
      </trkpt>
      <trkpt lat="46.64285" lon="5.19015">
        <ele>185.6</ele>
        <time>2022-06-25T07:26:35Z</time>
      </trkpt>
      <trkpt lat="46.64286" lon="5.19005">
        <ele>185.6</ele>
        <time>2022-06-25T07:26:36Z</time>
      </trkpt>
      <trkpt lat="46.64287" lon="5.18995">
        <ele>185.6</ele>
        <time>2022-06-25T07:26:37Z</time>
      </trkpt>
      <trkpt lat="46.64288" lon="5.18985">
        <ele>185.6</ele>
        <time>2022-06-25T07:26:38Z</time>
      </trkpt>
      <trkpt lat="46.64289" lon="5.18975">
        <ele>185.6</ele>
        <time>2022-06-25T07:26:39Z</time>
      </trkpt>
      <trkpt lat="46.6429" lon="5.18965">
        <ele>185.6</ele>
        <time>2022-06-25T07:26:40Z</time>
      </trkpt>
      <trkpt lat="46.64291" lon="5.18956">
        <ele>185.8</ele>
        <time>2022-06-25T07:26:41Z</time>
      </trkpt>
      <trkpt lat="46.64292" lon="5.18946">
        <ele>185.8</ele>
        <time>2022-06-25T07:26:42Z</time>
      </trkpt>
      <trkpt lat="46.64293" lon="5.18936">
        <ele>185.8</ele>
        <time>2022-06-25T07:26:43Z</time>
      </trkpt>
      <trkpt lat="46.64294" lon="5.18926">
        <ele>185.8</ele>
        <time>2022-06-25T07:26:44Z</time>
      </trkpt>
      <trkpt lat="46.64294" lon="5.18916">
        <ele>185.8</ele>
        <time>2022-06-25T07:26:45Z</time>
      </trkpt>
      <trkpt lat="46.64295" lon="5.18906">
        <ele>185.8</ele>
        <time>2022-06-25T07:26:46Z</time>
      </trkpt>
      <trkpt lat="46.64296" lon="5.18896">
        <ele>185.8</ele>
        <time>2022-06-25T07:26:47Z</time>
      </trkpt>
      <trkpt lat="46.64297" lon="5.18886">
        <ele>186.2</ele>
        <time>2022-06-25T07:26:48Z</time>
      </trkpt>
      <trkpt lat="46.64298" lon="5.18876">
        <ele>186.2</ele>
        <time>2022-06-25T07:26:49Z</time>
      </trkpt>
      <trkpt lat="46.64298" lon="5.18866">
        <ele>186.2</ele>
        <time>2022-06-25T07:26:50Z</time>
      </trkpt>
      <trkpt lat="46.64299" lon="5.18856">
        <ele>186.2</ele>
        <time>2022-06-25T07:26:51Z</time>
      </trkpt>
      <trkpt lat="46.643" lon="5.18846">
        <ele>186.2</ele>
        <time>2022-06-25T07:26:52Z</time>
      </trkpt>
      <trkpt lat="46.643" lon="5.18836">
        <ele>186.4</ele>
        <time>2022-06-25T07:26:53Z</time>
      </trkpt>
      <trkpt lat="46.64301" lon="5.18826">
        <ele>186.4</ele>
        <time>2022-06-25T07:26:54Z</time>
      </trkpt>
      <trkpt lat="46.64302" lon="5.18816">
        <ele>186.4</ele>
        <time>2022-06-25T07:26:55Z</time>
      </trkpt>
      <trkpt lat="46.64302" lon="5.18806">
        <ele>186.4</ele>
        <time>2022-06-25T07:26:56Z</time>
      </trkpt>
      <trkpt lat="46.64303" lon="5.18796">
        <ele>186.4</ele>
        <time>2022-06-25T07:26:57Z</time>
      </trkpt>
      <trkpt lat="46.64304" lon="5.18786">
        <ele>186.4</ele>
        <time>2022-06-25T07:26:58Z</time>
      </trkpt>
      <trkpt lat="46.64304" lon="5.18776">
        <ele>186.4</ele>
        <time>2022-06-25T07:26:59Z</time>
      </trkpt>
      <trkpt lat="46.64305" lon="5.18766">
        <ele>186.4</ele>
        <time>2022-06-25T07:27:00Z</time>
      </trkpt>
      <trkpt lat="46.64305" lon="5.18756">
        <ele>186.4</ele>
        <time>2022-06-25T07:27:01Z</time>
      </trkpt>
      <trkpt lat="46.64306" lon="5.18746">
        <ele>186.4</ele>
        <time>2022-06-25T07:27:02Z</time>
      </trkpt>
      <trkpt lat="46.64306" lon="5.18736">
        <ele>186.4</ele>
        <time>2022-06-25T07:27:03Z</time>
      </trkpt>
      <trkpt lat="46.64307" lon="5.18726">
        <ele>186.4</ele>
        <time>2022-06-25T07:27:04Z</time>
      </trkpt>
      <trkpt lat="46.64308" lon="5.18716">
        <ele>186.4</ele>
        <time>2022-06-25T07:27:05Z</time>
      </trkpt>
      <trkpt lat="46.64308" lon="5.18706">
        <ele>186.6</ele>
        <time>2022-06-25T07:27:06Z</time>
      </trkpt>
      <trkpt lat="46.64309" lon="5.18696">
        <ele>186.6</ele>
        <time>2022-06-25T07:27:07Z</time>
      </trkpt>
      <trkpt lat="46.64309" lon="5.18686">
        <ele>186.6</ele>
        <time>2022-06-25T07:27:08Z</time>
      </trkpt>
      <trkpt lat="46.6431" lon="5.18676">
        <ele>186.6</ele>
        <time>2022-06-25T07:27:09Z</time>
      </trkpt>
      <trkpt lat="46.6431" lon="5.18666">
        <ele>186.8</ele>
        <time>2022-06-25T07:27:10Z</time>
      </trkpt>
      <trkpt lat="46.64311" lon="5.18656">
        <ele>186.8</ele>
        <time>2022-06-25T07:27:11Z</time>
      </trkpt>
      <trkpt lat="46.64312" lon="5.18646">
        <ele>186.8</ele>
        <time>2022-06-25T07:27:12Z</time>
      </trkpt>
      <trkpt lat="46.64312" lon="5.18636">
        <ele>186.8</ele>
        <time>2022-06-25T07:27:13Z</time>
      </trkpt>
      <trkpt lat="46.64313" lon="5.18626">
        <ele>186.8</ele>
        <time>2022-06-25T07:27:14Z</time>
      </trkpt>
      <trkpt lat="46.64314" lon="5.18616">
        <ele>186.8</ele>
        <time>2022-06-25T07:27:15Z</time>
      </trkpt>
      <trkpt lat="46.64314" lon="5.18606">
        <ele>187</ele>
        <time>2022-06-25T07:27:16Z</time>
      </trkpt>
      <trkpt lat="46.64315" lon="5.18596">
        <ele>187</ele>
        <time>2022-06-25T07:27:17Z</time>
      </trkpt>
      <trkpt lat="46.64315" lon="5.18586">
        <ele>187</ele>
        <time>2022-06-25T07:27:18Z</time>
      </trkpt>
      <trkpt lat="46.64315" lon="5.18576">
        <ele>187</ele>
        <time>2022-06-25T07:27:19Z</time>
      </trkpt>
      <trkpt lat="46.64316" lon="5.18565">
        <ele>187</ele>
        <time>2022-06-25T07:27:20Z</time>
      </trkpt>
      <trkpt lat="46.64316" lon="5.18554">
        <ele>187</ele>
        <time>2022-06-25T07:27:21Z</time>
      </trkpt>
      <trkpt lat="46.64317" lon="5.18544">
        <ele>187</ele>
        <time>2022-06-25T07:27:22Z</time>
      </trkpt>
      <trkpt lat="46.64317" lon="5.18533">
        <ele>187</ele>
        <time>2022-06-25T07:27:23Z</time>
      </trkpt>
      <trkpt lat="46.64318" lon="5.18522">
        <ele>187</ele>
        <time>2022-06-25T07:27:24Z</time>
      </trkpt>
      <trkpt lat="46.64319" lon="5.18511">
        <ele>187</ele>
        <time>2022-06-25T07:27:25Z</time>
      </trkpt>
      <trkpt lat="46.64319" lon="5.18499">
        <ele>187</ele>
        <time>2022-06-25T07:27:26Z</time>
      </trkpt>
      <trkpt lat="46.6432" lon="5.18488">
        <ele>187</ele>
        <time>2022-06-25T07:27:27Z</time>
      </trkpt>
      <trkpt lat="46.6432" lon="5.18476">
        <ele>187</ele>
        <time>2022-06-25T07:27:28Z</time>
      </trkpt>
      <trkpt lat="46.64321" lon="5.18465">
        <ele>187</ele>
        <time>2022-06-25T07:27:29Z</time>
      </trkpt>
      <trkpt lat="46.64321" lon="5.18453">
        <ele>187</ele>
        <time>2022-06-25T07:27:30Z</time>
      </trkpt>
      <trkpt lat="46.64321" lon="5.18442">
        <ele>186.8</ele>
        <time>2022-06-25T07:27:31Z</time>
      </trkpt>
      <trkpt lat="46.64321" lon="5.1843">
        <ele>186.6</ele>
        <time>2022-06-25T07:27:32Z</time>
      </trkpt>
      <trkpt lat="46.64321" lon="5.18419">
        <ele>186.6</ele>
        <time>2022-06-25T07:27:33Z</time>
      </trkpt>
      <trkpt lat="46.64322" lon="5.18408">
        <ele>186.4</ele>
        <time>2022-06-25T07:27:34Z</time>
      </trkpt>
      <trkpt lat="46.64322" lon="5.18398">
        <ele>186.4</ele>
        <time>2022-06-25T07:27:35Z</time>
      </trkpt>
      <trkpt lat="46.64322" lon="5.18388">
        <ele>186.4</ele>
        <time>2022-06-25T07:27:36Z</time>
      </trkpt>
      <trkpt lat="46.64322" lon="5.18378">
        <ele>186</ele>
        <time>2022-06-25T07:27:37Z</time>
      </trkpt>
      <trkpt lat="46.64322" lon="5.18369">
        <ele>186</ele>
        <time>2022-06-25T07:27:38Z</time>
      </trkpt>
      <trkpt lat="46.64323" lon="5.1836">
        <ele>185.8</ele>
        <time>2022-06-25T07:27:39Z</time>
      </trkpt>
      <trkpt lat="46.64323" lon="5.18351">
        <ele>185.8</ele>
        <time>2022-06-25T07:27:40Z</time>
      </trkpt>
      <trkpt lat="46.64323" lon="5.18344">
        <ele>185.6</ele>
        <time>2022-06-25T07:27:41Z</time>
      </trkpt>
      <trkpt lat="46.64323" lon="5.18337">
        <ele>185.6</ele>
        <time>2022-06-25T07:27:42Z</time>
      </trkpt>
      <trkpt lat="46.64323" lon="5.1833">
        <ele>185.6</ele>
        <time>2022-06-25T07:27:43Z</time>
      </trkpt>
      <trkpt lat="46.64322" lon="5.18322">
        <ele>185.6</ele>
        <time>2022-06-25T07:27:44Z</time>
      </trkpt>
      <trkpt lat="46.64322" lon="5.18314">
        <ele>185.6</ele>
        <time>2022-06-25T07:27:45Z</time>
      </trkpt>
      <trkpt lat="46.64321" lon="5.18305">
        <ele>185.6</ele>
        <time>2022-06-25T07:27:46Z</time>
      </trkpt>
      <trkpt lat="46.64321" lon="5.18297">
        <ele>185.6</ele>
        <time>2022-06-25T07:27:47Z</time>
      </trkpt>
      <trkpt lat="46.64321" lon="5.18288">
        <ele>185.4</ele>
        <time>2022-06-25T07:27:48Z</time>
      </trkpt>
      <trkpt lat="46.6432" lon="5.18279">
        <ele>185.4</ele>
        <time>2022-06-25T07:27:49Z</time>
      </trkpt>
      <trkpt lat="46.64321" lon="5.1827">
        <ele>185.4</ele>
        <time>2022-06-25T07:27:50Z</time>
      </trkpt>
      <trkpt lat="46.64321" lon="5.18261">
        <ele>185.4</ele>
        <time>2022-06-25T07:27:51Z</time>
      </trkpt>
      <trkpt lat="46.64321" lon="5.18252">
        <ele>185.4</ele>
        <time>2022-06-25T07:27:52Z</time>
      </trkpt>
      <trkpt lat="46.64322" lon="5.18242">
        <ele>185.4</ele>
        <time>2022-06-25T07:27:53Z</time>
      </trkpt>
      <trkpt lat="46.64322" lon="5.18232">
        <ele>185.4</ele>
        <time>2022-06-25T07:27:54Z</time>
      </trkpt>
      <trkpt lat="46.64323" lon="5.18223">
        <ele>185.2</ele>
        <time>2022-06-25T07:27:55Z</time>
      </trkpt>
      <trkpt lat="46.64323" lon="5.18213">
        <ele>185.2</ele>
        <time>2022-06-25T07:27:56Z</time>
      </trkpt>
      <trkpt lat="46.64323" lon="5.18204">
        <ele>185.2</ele>
        <time>2022-06-25T07:27:57Z</time>
      </trkpt>
      <trkpt lat="46.64324" lon="5.18195">
        <ele>185.2</ele>
        <time>2022-06-25T07:27:58Z</time>
      </trkpt>
      <trkpt lat="46.64325" lon="5.18186">
        <ele>185.2</ele>
        <time>2022-06-25T07:27:59Z</time>
      </trkpt>
      <trkpt lat="46.64326" lon="5.18177">
        <ele>185.2</ele>
        <time>2022-06-25T07:28:00Z</time>
      </trkpt>
      <trkpt lat="46.64327" lon="5.18168">
        <ele>185.2</ele>
        <time>2022-06-25T07:28:01Z</time>
      </trkpt>
      <trkpt lat="46.64328" lon="5.1816">
        <ele>185.4</ele>
        <time>2022-06-25T07:28:02Z</time>
      </trkpt>
      <trkpt lat="46.64329" lon="5.18152">
        <ele>185.4</ele>
        <time>2022-06-25T07:28:03Z</time>
      </trkpt>
      <trkpt lat="46.6433" lon="5.18143">
        <ele>185.4</ele>
        <time>2022-06-25T07:28:04Z</time>
      </trkpt>
      <trkpt lat="46.64331" lon="5.18135">
        <ele>185.6</ele>
        <time>2022-06-25T07:28:05Z</time>
      </trkpt>
      <trkpt lat="46.64331" lon="5.18126">
        <ele>185.6</ele>
        <time>2022-06-25T07:28:06Z</time>
      </trkpt>
      <trkpt lat="46.64332" lon="5.18118">
        <ele>185.8</ele>
        <time>2022-06-25T07:28:07Z</time>
      </trkpt>
      <trkpt lat="46.64332" lon="5.1811">
        <ele>185.8</ele>
        <time>2022-06-25T07:28:08Z</time>
      </trkpt>
      <trkpt lat="46.64332" lon="5.18102">
        <ele>186</ele>
        <time>2022-06-25T07:28:09Z</time>
      </trkpt>
      <trkpt lat="46.64333" lon="5.18094">
        <ele>186</ele>
        <time>2022-06-25T07:28:10Z</time>
      </trkpt>
      <trkpt lat="46.64333" lon="5.18085">
        <ele>186</ele>
        <time>2022-06-25T07:28:11Z</time>
      </trkpt>
      <trkpt lat="46.64333" lon="5.18077">
        <ele>186.2</ele>
        <time>2022-06-25T07:28:12Z</time>
      </trkpt>
      <trkpt lat="46.64334" lon="5.18069">
        <ele>186.2</ele>
        <time>2022-06-25T07:28:13Z</time>
      </trkpt>
      <trkpt lat="46.64334" lon="5.18061">
        <ele>186.2</ele>
        <time>2022-06-25T07:28:14Z</time>
      </trkpt>
      <trkpt lat="46.64335" lon="5.18053">
        <ele>186.2</ele>
        <time>2022-06-25T07:28:15Z</time>
      </trkpt>
      <trkpt lat="46.64335" lon="5.18045">
        <ele>186.6</ele>
        <time>2022-06-25T07:28:16Z</time>
      </trkpt>
      <trkpt lat="46.64336" lon="5.18037">
        <ele>186.6</ele>
        <time>2022-06-25T07:28:17Z</time>
      </trkpt>
      <trkpt lat="46.64336" lon="5.18029">
        <ele>186.8</ele>
        <time>2022-06-25T07:28:18Z</time>
      </trkpt>
      <trkpt lat="46.64336" lon="5.18021">
        <ele>186.8</ele>
        <time>2022-06-25T07:28:19Z</time>
      </trkpt>
      <trkpt lat="46.64336" lon="5.18013">
        <ele>186.8</ele>
        <time>2022-06-25T07:28:20Z</time>
      </trkpt>
      <trkpt lat="46.64336" lon="5.18005">
        <ele>186.8</ele>
        <time>2022-06-25T07:28:21Z</time>
      </trkpt>
      <trkpt lat="46.64336" lon="5.17998">
        <ele>186.8</ele>
        <time>2022-06-25T07:28:22Z</time>
      </trkpt>
      <trkpt lat="46.64336" lon="5.1799">
        <ele>186.8</ele>
        <time>2022-06-25T07:28:23Z</time>
      </trkpt>
      <trkpt lat="46.64335" lon="5.17983">
        <ele>186.8</ele>
        <time>2022-06-25T07:28:24Z</time>
      </trkpt>
      <trkpt lat="46.64334" lon="5.17975">
        <ele>186.8</ele>
        <time>2022-06-25T07:28:25Z</time>
      </trkpt>
      <trkpt lat="46.64334" lon="5.17966">
        <ele>186.8</ele>
        <time>2022-06-25T07:28:26Z</time>
      </trkpt>
      <trkpt lat="46.64335" lon="5.17958">
        <ele>186.8</ele>
        <time>2022-06-25T07:28:27Z</time>
      </trkpt>
      <trkpt lat="46.64335" lon="5.17949">
        <ele>186.8</ele>
        <time>2022-06-25T07:28:28Z</time>
      </trkpt>
      <trkpt lat="46.64336" lon="5.1794">
        <ele>186.8</ele>
        <time>2022-06-25T07:28:29Z</time>
      </trkpt>
      <trkpt lat="46.64336" lon="5.17931">
        <ele>186.8</ele>
        <time>2022-06-25T07:28:30Z</time>
      </trkpt>
      <trkpt lat="46.64336" lon="5.17922">
        <ele>186.8</ele>
        <time>2022-06-25T07:28:31Z</time>
      </trkpt>
      <trkpt lat="46.64335" lon="5.17912">
        <ele>186.8</ele>
        <time>2022-06-25T07:28:32Z</time>
      </trkpt>
      <trkpt lat="46.64335" lon="5.17902">
        <ele>186.6</ele>
        <time>2022-06-25T07:28:33Z</time>
      </trkpt>
      <trkpt lat="46.64335" lon="5.17892">
        <ele>186.6</ele>
        <time>2022-06-25T07:28:34Z</time>
      </trkpt>
      <trkpt lat="46.64334" lon="5.17882">
        <ele>186.6</ele>
        <time>2022-06-25T07:28:35Z</time>
      </trkpt>
      <trkpt lat="46.64333" lon="5.17872">
        <ele>186.6</ele>
        <time>2022-06-25T07:28:36Z</time>
      </trkpt>
      <trkpt lat="46.64333" lon="5.17862">
        <ele>186.6</ele>
        <time>2022-06-25T07:28:37Z</time>
      </trkpt>
      <trkpt lat="46.64332" lon="5.17852">
        <ele>186.2</ele>
        <time>2022-06-25T07:28:38Z</time>
      </trkpt>
      <trkpt lat="46.64331" lon="5.17842">
        <ele>186.2</ele>
        <time>2022-06-25T07:28:39Z</time>
      </trkpt>
      <trkpt lat="46.6433" lon="5.17831">
        <ele>186.2</ele>
        <time>2022-06-25T07:28:40Z</time>
      </trkpt>
      <trkpt lat="46.64328" lon="5.1782">
        <ele>186</ele>
        <time>2022-06-25T07:28:41Z</time>
      </trkpt>
      <trkpt lat="46.64326" lon="5.1781">
        <ele>186</ele>
        <time>2022-06-25T07:28:42Z</time>
      </trkpt>
      <trkpt lat="46.64324" lon="5.17799">
        <ele>185.6</ele>
        <time>2022-06-25T07:28:43Z</time>
      </trkpt>
      <trkpt lat="46.64322" lon="5.17788">
        <ele>185.6</ele>
        <time>2022-06-25T07:28:44Z</time>
      </trkpt>
      <trkpt lat="46.64321" lon="5.17777">
        <ele>185.4</ele>
        <time>2022-06-25T07:28:45Z</time>
      </trkpt>
      <trkpt lat="46.64319" lon="5.17765">
        <ele>185</ele>
        <time>2022-06-25T07:28:46Z</time>
      </trkpt>
      <trkpt lat="46.64318" lon="5.17754">
        <ele>184.8</ele>
        <time>2022-06-25T07:28:47Z</time>
      </trkpt>
      <trkpt lat="46.64316" lon="5.17743">
        <ele>184.8</ele>
        <time>2022-06-25T07:28:48Z</time>
      </trkpt>
      <trkpt lat="46.64315" lon="5.17732">
        <ele>184.6</ele>
        <time>2022-06-25T07:28:49Z</time>
      </trkpt>
      <trkpt lat="46.64313" lon="5.17722">
        <ele>184.6</ele>
        <time>2022-06-25T07:28:50Z</time>
      </trkpt>
      <trkpt lat="46.64312" lon="5.1771">
        <ele>184.6</ele>
        <time>2022-06-25T07:28:51Z</time>
      </trkpt>
      <trkpt lat="46.6431" lon="5.17699">
        <ele>184.4</ele>
        <time>2022-06-25T07:28:52Z</time>
      </trkpt>
      <trkpt lat="46.64309" lon="5.17688">
        <ele>184.4</ele>
        <time>2022-06-25T07:28:53Z</time>
      </trkpt>
      <trkpt lat="46.64308" lon="5.17678">
        <ele>184.4</ele>
        <time>2022-06-25T07:28:54Z</time>
      </trkpt>
      <trkpt lat="46.64306" lon="5.17667">
        <ele>184.2</ele>
        <time>2022-06-25T07:28:55Z</time>
      </trkpt>
      <trkpt lat="46.64305" lon="5.17656">
        <ele>184.2</ele>
        <time>2022-06-25T07:28:56Z</time>
      </trkpt>
      <trkpt lat="46.64304" lon="5.17646">
        <ele>184.2</ele>
        <time>2022-06-25T07:28:57Z</time>
      </trkpt>
      <trkpt lat="46.64302" lon="5.17636">
        <ele>184.2</ele>
        <time>2022-06-25T07:28:58Z</time>
      </trkpt>
      <trkpt lat="46.643" lon="5.17626">
        <ele>184.2</ele>
        <time>2022-06-25T07:28:59Z</time>
      </trkpt>
      <trkpt lat="46.64299" lon="5.17616">
        <ele>184.2</ele>
        <time>2022-06-25T07:29:00Z</time>
      </trkpt>
      <trkpt lat="46.64298" lon="5.17606">
        <ele>184.2</ele>
        <time>2022-06-25T07:29:01Z</time>
      </trkpt>
      <trkpt lat="46.64297" lon="5.17598">
        <ele>184.2</ele>
        <time>2022-06-25T07:29:02Z</time>
      </trkpt>
      <trkpt lat="46.64296" lon="5.17591">
        <ele>184.2</ele>
        <time>2022-06-25T07:29:03Z</time>
      </trkpt>
      <trkpt lat="46.64296" lon="5.17585">
        <ele>184.2</ele>
        <time>2022-06-25T07:29:04Z</time>
      </trkpt>
      <trkpt lat="46.64295" lon="5.1758">
        <ele>183.8</ele>
        <time>2022-06-25T07:29:05Z</time>
      </trkpt>
      <trkpt lat="46.64295" lon="5.17577">
        <ele>183.8</ele>
        <time>2022-06-25T07:29:06Z</time>
      </trkpt>
      <trkpt lat="46.64295" lon="5.17574">
        <ele>183.8</ele>
        <time>2022-06-25T07:29:07Z</time>
      </trkpt>
      <trkpt lat="46.64295" lon="5.17573">
        <ele>183.8</ele>
        <time>2022-06-25T07:29:08Z</time>
      </trkpt>
      <trkpt lat="46.64294" lon="5.17573">
        <ele>183.8</ele>
        <time>2022-06-25T07:29:09Z</time>
      </trkpt>
      <trkpt lat="46.64293" lon="5.17575">
        <ele>183.8</ele>
        <time>2022-06-25T07:29:12Z</time>
      </trkpt>
      <trkpt lat="46.64293" lon="5.17577">
        <ele>183.8</ele>
        <time>2022-06-25T07:29:13Z</time>
      </trkpt>
      <trkpt lat="46.64292" lon="5.17579">
        <ele>183.8</ele>
        <time>2022-06-25T07:29:14Z</time>
      </trkpt>
      <trkpt lat="46.64292" lon="5.17582">
        <ele>183.8</ele>
        <time>2022-06-25T07:29:15Z</time>
      </trkpt>
      <trkpt lat="46.64293" lon="5.17585">
        <ele>183.8</ele>
        <time>2022-06-25T07:29:16Z</time>
      </trkpt>
      <trkpt lat="46.64293" lon="5.17588">
        <ele>183.8</ele>
        <time>2022-06-25T07:29:17Z</time>
      </trkpt>
      <trkpt lat="46.64293" lon="5.17592">
        <ele>183.8</ele>
        <time>2022-06-25T07:29:18Z</time>
      </trkpt>
      <trkpt lat="46.64294" lon="5.17596">
        <ele>183.8</ele>
        <time>2022-06-25T07:29:19Z</time>
      </trkpt>
      <trkpt lat="46.64294" lon="5.176">
        <ele>183.8</ele>
        <time>2022-06-25T07:29:20Z</time>
      </trkpt>
      <trkpt lat="46.64295" lon="5.17604">
        <ele>183.8</ele>
        <time>2022-06-25T07:29:21Z</time>
      </trkpt>
      <trkpt lat="46.64295" lon="5.17608">
        <ele>183.8</ele>
        <time>2022-06-25T07:29:22Z</time>
      </trkpt>
      <trkpt lat="46.64294" lon="5.17612">
        <ele>183.8</ele>
        <time>2022-06-25T07:29:23Z</time>
      </trkpt>
      <trkpt lat="46.64293" lon="5.17615">
        <ele>183.8</ele>
        <time>2022-06-25T07:29:24Z</time>
      </trkpt>
      <trkpt lat="46.64292" lon="5.17617">
        <ele>183.6</ele>
        <time>2022-06-25T07:29:25Z</time>
      </trkpt>
      <trkpt lat="46.64292" lon="5.17619">
        <ele>183.6</ele>
        <time>2022-06-25T07:29:26Z</time>
      </trkpt>
      <trkpt lat="46.64292" lon="5.17619">
        <ele>183.6</ele>
        <time>2022-06-25T07:29:28Z</time>
      </trkpt>
      <trkpt lat="46.64292" lon="5.17619">
        <ele>183.6</ele>
        <time>2022-06-25T07:29:30Z</time>
      </trkpt>
      <trkpt lat="46.64292" lon="5.17619">
        <ele>183.6</ele>
        <time>2022-06-25T07:29:32Z</time>
      </trkpt>
      <trkpt lat="46.64292" lon="5.17618">
        <ele>183.6</ele>
        <time>2022-06-25T07:29:33Z</time>
      </trkpt>
      <trkpt lat="46.64293" lon="5.17618">
        <ele>183.6</ele>
        <time>2022-06-25T07:29:35Z</time>
      </trkpt>
      <trkpt lat="46.64293" lon="5.17618">
        <ele>183.6</ele>
        <time>2022-06-25T07:29:36Z</time>
      </trkpt>
      <trkpt lat="46.64293" lon="5.17618">
        <ele>183.6</ele>
        <time>2022-06-25T07:29:38Z</time>
      </trkpt>
      <trkpt lat="46.64293" lon="5.17618">
        <ele>183.6</ele>
        <time>2022-06-25T07:29:41Z</time>
      </trkpt>
      <trkpt lat="46.64293" lon="5.17618">
        <ele>183.6</ele>
        <time>2022-06-25T07:29:43Z</time>
      </trkpt>
      <trkpt lat="46.64293" lon="5.17618">
        <ele>183.6</ele>
        <time>2022-06-25T07:29:45Z</time>
      </trkpt>
      <trkpt lat="46.64294" lon="5.17618">
        <ele>183.6</ele>
        <time>2022-06-25T07:29:46Z</time>
      </trkpt>
      <trkpt lat="46.64294" lon="5.17618">
        <ele>183.6</ele>
        <time>2022-06-25T07:32:26Z</time>
      </trkpt>
      <trkpt lat="46.64294" lon="5.17618">
        <ele>183.6</ele>
        <time>2022-06-25T07:32:28Z</time>
      </trkpt>
      <trkpt lat="46.64294" lon="5.17618">
        <ele>183.6</ele>
        <time>2022-06-25T07:32:30Z</time>
      </trkpt>
      <trkpt lat="46.64294" lon="5.17617">
        <ele>183.6</ele>
        <time>2022-06-25T07:32:32Z</time>
      </trkpt>
      <trkpt lat="46.64294" lon="5.17617">
        <ele>183.6</ele>
        <time>2022-06-25T07:32:34Z</time>
      </trkpt>
      <trkpt lat="46.64295" lon="5.17617">
        <ele>183.6</ele>
        <time>2022-06-25T07:32:35Z</time>
      </trkpt>
      <trkpt lat="46.64295" lon="5.17617">
        <ele>183.8</ele>
        <time>2022-06-25T07:32:46Z</time>
      </trkpt>
      <trkpt lat="46.64295" lon="5.17617">
        <ele>183.8</ele>
        <time>2022-06-25T07:32:48Z</time>
      </trkpt>
      <trkpt lat="46.64295" lon="5.17617">
        <ele>183.8</ele>
        <time>2022-06-25T07:32:50Z</time>
      </trkpt>
      <trkpt lat="46.64295" lon="5.17617">
        <ele>183.8</ele>
        <time>2022-06-25T07:32:52Z</time>
      </trkpt>
      <trkpt lat="46.64296" lon="5.17617">
        <ele>183.8</ele>
        <time>2022-06-25T07:32:54Z</time>
      </trkpt>
      <trkpt lat="46.64296" lon="5.17617">
        <ele>183.8</ele>
        <time>2022-06-25T07:32:55Z</time>
      </trkpt>
      <trkpt lat="46.64296" lon="5.17617">
        <ele>183.8</ele>
        <time>2022-06-25T07:32:57Z</time>
      </trkpt>
      <trkpt lat="46.64296" lon="5.17617">
        <ele>184</ele>
        <time>2022-06-25T07:32:59Z</time>
      </trkpt>
      <trkpt lat="46.64296" lon="5.17616">
        <ele>184</ele>
        <time>2022-06-25T07:33:01Z</time>
      </trkpt>
      <trkpt lat="46.64296" lon="5.17616">
        <ele>184</ele>
        <time>2022-06-25T07:33:02Z</time>
      </trkpt>
      <trkpt lat="46.64297" lon="5.17616">
        <ele>184</ele>
        <time>2022-06-25T07:33:05Z</time>
      </trkpt>
      <trkpt lat="46.64297" lon="5.17616">
        <ele>184</ele>
        <time>2022-06-25T07:33:06Z</time>
      </trkpt>
      <trkpt lat="46.64298" lon="5.17613">
        <ele>184</ele>
        <time>2022-06-25T07:33:08Z</time>
      </trkpt>
      <trkpt lat="46.64298" lon="5.17609">
        <ele>184</ele>
        <time>2022-06-25T07:33:09Z</time>
      </trkpt>
      <trkpt lat="46.64298" lon="5.17605">
        <ele>184</ele>
        <time>2022-06-25T07:33:10Z</time>
      </trkpt>
      <trkpt lat="46.64297" lon="5.176">
        <ele>184</ele>
        <time>2022-06-25T07:33:11Z</time>
      </trkpt>
      <trkpt lat="46.64296" lon="5.17595">
        <ele>184</ele>
        <time>2022-06-25T07:33:12Z</time>
      </trkpt>
      <trkpt lat="46.64295" lon="5.17589">
        <ele>184</ele>
        <time>2022-06-25T07:33:13Z</time>
      </trkpt>
      <trkpt lat="46.64294" lon="5.17584">
        <ele>184</ele>
        <time>2022-06-25T07:33:14Z</time>
      </trkpt>
      <trkpt lat="46.64294" lon="5.17577">
        <ele>184</ele>
        <time>2022-06-25T07:33:15Z</time>
      </trkpt>
      <trkpt lat="46.64293" lon="5.17571">
        <ele>184</ele>
        <time>2022-06-25T07:33:16Z</time>
      </trkpt>
      <trkpt lat="46.64293" lon="5.17564">
        <ele>184</ele>
        <time>2022-06-25T07:33:17Z</time>
      </trkpt>
      <trkpt lat="46.64293" lon="5.17558">
        <ele>184.4</ele>
        <time>2022-06-25T07:33:18Z</time>
      </trkpt>
      <trkpt lat="46.64293" lon="5.17551">
        <ele>184.4</ele>
        <time>2022-06-25T07:33:19Z</time>
      </trkpt>
      <trkpt lat="46.64294" lon="5.17544">
        <ele>184.4</ele>
        <time>2022-06-25T07:33:20Z</time>
      </trkpt>
      <trkpt lat="46.64295" lon="5.17537">
        <ele>184.6</ele>
        <time>2022-06-25T07:33:21Z</time>
      </trkpt>
      <trkpt lat="46.64296" lon="5.1753">
        <ele>184.6</ele>
        <time>2022-06-25T07:33:22Z</time>
      </trkpt>
      <trkpt lat="46.64298" lon="5.17522">
        <ele>184.6</ele>
        <time>2022-06-25T07:33:23Z</time>
      </trkpt>
      <trkpt lat="46.64299" lon="5.17515">
        <ele>184.6</ele>
        <time>2022-06-25T07:33:24Z</time>
      </trkpt>
      <trkpt lat="46.643" lon="5.17507">
        <ele>184.6</ele>
        <time>2022-06-25T07:33:25Z</time>
      </trkpt>
      <trkpt lat="46.64301" lon="5.175">
        <ele>184.6</ele>
        <time>2022-06-25T07:33:26Z</time>
      </trkpt>
      <trkpt lat="46.64302" lon="5.17492">
        <ele>184.6</ele>
        <time>2022-06-25T07:33:27Z</time>
      </trkpt>
      <trkpt lat="46.64304" lon="5.17484">
        <ele>184.6</ele>
        <time>2022-06-25T07:33:28Z</time>
      </trkpt>
      <trkpt lat="46.64305" lon="5.17475">
        <ele>184.6</ele>
        <time>2022-06-25T07:33:29Z</time>
      </trkpt>
      <trkpt lat="46.64306" lon="5.17467">
        <ele>184.6</ele>
        <time>2022-06-25T07:33:30Z</time>
      </trkpt>
      <trkpt lat="46.64308" lon="5.17459">
        <ele>184.6</ele>
        <time>2022-06-25T07:33:31Z</time>
      </trkpt>
      <trkpt lat="46.64309" lon="5.1745">
        <ele>184.6</ele>
        <time>2022-06-25T07:33:32Z</time>
      </trkpt>
      <trkpt lat="46.64311" lon="5.17441">
        <ele>184.6</ele>
        <time>2022-06-25T07:33:33Z</time>
      </trkpt>
      <trkpt lat="46.64312" lon="5.17433">
        <ele>184.6</ele>
        <time>2022-06-25T07:33:34Z</time>
      </trkpt>
      <trkpt lat="46.64313" lon="5.17424">
        <ele>184.6</ele>
        <time>2022-06-25T07:33:35Z</time>
      </trkpt>
      <trkpt lat="46.64315" lon="5.17415">
        <ele>184.6</ele>
        <time>2022-06-25T07:33:36Z</time>
      </trkpt>
      <trkpt lat="46.64316" lon="5.17406">
        <ele>184.6</ele>
        <time>2022-06-25T07:33:37Z</time>
      </trkpt>
      <trkpt lat="46.64317" lon="5.17397">
        <ele>184.6</ele>
        <time>2022-06-25T07:33:38Z</time>
      </trkpt>
      <trkpt lat="46.64319" lon="5.17388">
        <ele>184.6</ele>
        <time>2022-06-25T07:33:39Z</time>
      </trkpt>
      <trkpt lat="46.64321" lon="5.1738">
        <ele>184.6</ele>
        <time>2022-06-25T07:33:40Z</time>
      </trkpt>
      <trkpt lat="46.64322" lon="5.17371">
        <ele>184.6</ele>
        <time>2022-06-25T07:33:41Z</time>
      </trkpt>
      <trkpt lat="46.64324" lon="5.17363">
        <ele>184.6</ele>
        <time>2022-06-25T07:33:42Z</time>
      </trkpt>
      <trkpt lat="46.64326" lon="5.17354">
        <ele>184.6</ele>
        <time>2022-06-25T07:33:43Z</time>
      </trkpt>
      <trkpt lat="46.64328" lon="5.17346">
        <ele>184.6</ele>
        <time>2022-06-25T07:33:44Z</time>
      </trkpt>
      <trkpt lat="46.64329" lon="5.17337">
        <ele>184.6</ele>
        <time>2022-06-25T07:33:45Z</time>
      </trkpt>
      <trkpt lat="46.64331" lon="5.17329">
        <ele>184.6</ele>
        <time>2022-06-25T07:33:46Z</time>
      </trkpt>
      <trkpt lat="46.64333" lon="5.17321">
        <ele>184.6</ele>
        <time>2022-06-25T07:33:47Z</time>
      </trkpt>
      <trkpt lat="46.64335" lon="5.17313">
        <ele>184.6</ele>
        <time>2022-06-25T07:33:48Z</time>
      </trkpt>
      <trkpt lat="46.64337" lon="5.17305">
        <ele>184.6</ele>
        <time>2022-06-25T07:33:49Z</time>
      </trkpt>
      <trkpt lat="46.64339" lon="5.17296">
        <ele>184.6</ele>
        <time>2022-06-25T07:33:50Z</time>
      </trkpt>
      <trkpt lat="46.64341" lon="5.17287">
        <ele>184.6</ele>
        <time>2022-06-25T07:33:51Z</time>
      </trkpt>
      <trkpt lat="46.64343" lon="5.17279">
        <ele>184.6</ele>
        <time>2022-06-25T07:33:52Z</time>
      </trkpt>
      <trkpt lat="46.64345" lon="5.1727">
        <ele>184.6</ele>
        <time>2022-06-25T07:33:53Z</time>
      </trkpt>
      <trkpt lat="46.64347" lon="5.17262">
        <ele>184.6</ele>
        <time>2022-06-25T07:33:54Z</time>
      </trkpt>
      <trkpt lat="46.64349" lon="5.17253">
        <ele>184.6</ele>
        <time>2022-06-25T07:33:55Z</time>
      </trkpt>
      <trkpt lat="46.64351" lon="5.17244">
        <ele>184.6</ele>
        <time>2022-06-25T07:33:56Z</time>
      </trkpt>
      <trkpt lat="46.64352" lon="5.17236">
        <ele>184.6</ele>
        <time>2022-06-25T07:33:57Z</time>
      </trkpt>
      <trkpt lat="46.64354" lon="5.17227">
        <ele>184.6</ele>
        <time>2022-06-25T07:33:58Z</time>
      </trkpt>
      <trkpt lat="46.64357" lon="5.17218">
        <ele>184.6</ele>
        <time>2022-06-25T07:33:59Z</time>
      </trkpt>
      <trkpt lat="46.64358" lon="5.17209">
        <ele>184.6</ele>
        <time>2022-06-25T07:34:00Z</time>
      </trkpt>
      <trkpt lat="46.6436" lon="5.172">
        <ele>184.6</ele>
        <time>2022-06-25T07:34:01Z</time>
      </trkpt>
      <trkpt lat="46.64362" lon="5.17192">
        <ele>184.6</ele>
        <time>2022-06-25T07:34:02Z</time>
      </trkpt>
      <trkpt lat="46.64364" lon="5.17183">
        <ele>184.6</ele>
        <time>2022-06-25T07:34:03Z</time>
      </trkpt>
      <trkpt lat="46.64366" lon="5.17174">
        <ele>184.6</ele>
        <time>2022-06-25T07:34:04Z</time>
      </trkpt>
      <trkpt lat="46.64368" lon="5.17165">
        <ele>184.6</ele>
        <time>2022-06-25T07:34:05Z</time>
      </trkpt>
      <trkpt lat="46.6437" lon="5.17157">
        <ele>184.6</ele>
        <time>2022-06-25T07:34:06Z</time>
      </trkpt>
      <trkpt lat="46.64372" lon="5.17148">
        <ele>184.6</ele>
        <time>2022-06-25T07:34:07Z</time>
      </trkpt>
      <trkpt lat="46.64374" lon="5.1714">
        <ele>184.6</ele>
        <time>2022-06-25T07:34:08Z</time>
      </trkpt>
      <trkpt lat="46.64376" lon="5.17131">
        <ele>184.6</ele>
        <time>2022-06-25T07:34:09Z</time>
      </trkpt>
      <trkpt lat="46.64378" lon="5.17122">
        <ele>184.6</ele>
        <time>2022-06-25T07:34:10Z</time>
      </trkpt>
      <trkpt lat="46.6438" lon="5.17113">
        <ele>184.6</ele>
        <time>2022-06-25T07:34:11Z</time>
      </trkpt>
      <trkpt lat="46.64382" lon="5.17104">
        <ele>184.6</ele>
        <time>2022-06-25T07:34:12Z</time>
      </trkpt>
      <trkpt lat="46.64384" lon="5.17095">
        <ele>184.6</ele>
        <time>2022-06-25T07:34:13Z</time>
      </trkpt>
      <trkpt lat="46.64386" lon="5.17086">
        <ele>184.6</ele>
        <time>2022-06-25T07:34:14Z</time>
      </trkpt>
      <trkpt lat="46.64388" lon="5.17076">
        <ele>184.6</ele>
        <time>2022-06-25T07:34:15Z</time>
      </trkpt>
      <trkpt lat="46.6439" lon="5.17067">
        <ele>184.6</ele>
        <time>2022-06-25T07:34:16Z</time>
      </trkpt>
      <trkpt lat="46.64393" lon="5.17058">
        <ele>184.6</ele>
        <time>2022-06-25T07:34:17Z</time>
      </trkpt>
      <trkpt lat="46.64396" lon="5.1705">
        <ele>184.8</ele>
        <time>2022-06-25T07:34:18Z</time>
      </trkpt>
      <trkpt lat="46.64399" lon="5.17041">
        <ele>184.8</ele>
        <time>2022-06-25T07:34:19Z</time>
      </trkpt>
      <trkpt lat="46.64403" lon="5.17033">
        <ele>184.8</ele>
        <time>2022-06-25T07:34:20Z</time>
      </trkpt>
      <trkpt lat="46.64406" lon="5.17024">
        <ele>184.8</ele>
        <time>2022-06-25T07:34:21Z</time>
      </trkpt>
      <trkpt lat="46.64409" lon="5.17015">
        <ele>184.8</ele>
        <time>2022-06-25T07:34:22Z</time>
      </trkpt>
      <trkpt lat="46.64413" lon="5.17007">
        <ele>185</ele>
        <time>2022-06-25T07:34:23Z</time>
      </trkpt>
      <trkpt lat="46.64416" lon="5.16998">
        <ele>185</ele>
        <time>2022-06-25T07:34:24Z</time>
      </trkpt>
      <trkpt lat="46.64419" lon="5.1699">
        <ele>185</ele>
        <time>2022-06-25T07:34:25Z</time>
      </trkpt>
      <trkpt lat="46.64422" lon="5.16981">
        <ele>185</ele>
        <time>2022-06-25T07:34:26Z</time>
      </trkpt>
      <trkpt lat="46.64425" lon="5.16973">
        <ele>185.2</ele>
        <time>2022-06-25T07:34:27Z</time>
      </trkpt>
      <trkpt lat="46.64428" lon="5.16964">
        <ele>185.2</ele>
        <time>2022-06-25T07:34:28Z</time>
      </trkpt>
      <trkpt lat="46.64431" lon="5.16955">
        <ele>185.2</ele>
        <time>2022-06-25T07:34:29Z</time>
      </trkpt>
      <trkpt lat="46.64434" lon="5.16947">
        <ele>185.2</ele>
        <time>2022-06-25T07:34:30Z</time>
      </trkpt>
      <trkpt lat="46.64438" lon="5.16938">
        <ele>185.2</ele>
        <time>2022-06-25T07:34:31Z</time>
      </trkpt>
      <trkpt lat="46.64441" lon="5.1693">
        <ele>185.2</ele>
        <time>2022-06-25T07:34:32Z</time>
      </trkpt>
      <trkpt lat="46.64444" lon="5.16921">
        <ele>185.4</ele>
        <time>2022-06-25T07:34:33Z</time>
      </trkpt>
      <trkpt lat="46.64447" lon="5.16912">
        <ele>185.4</ele>
        <time>2022-06-25T07:34:34Z</time>
      </trkpt>
      <trkpt lat="46.64451" lon="5.16904">
        <ele>185.4</ele>
        <time>2022-06-25T07:34:35Z</time>
      </trkpt>
      <trkpt lat="46.64454" lon="5.16895">
        <ele>185.4</ele>
        <time>2022-06-25T07:34:36Z</time>
      </trkpt>
      <trkpt lat="46.64457" lon="5.16887">
        <ele>185.4</ele>
        <time>2022-06-25T07:34:37Z</time>
      </trkpt>
      <trkpt lat="46.64461" lon="5.16879">
        <ele>185.4</ele>
        <time>2022-06-25T07:34:38Z</time>
      </trkpt>
      <trkpt lat="46.64464" lon="5.1687">
        <ele>185.4</ele>
        <time>2022-06-25T07:34:39Z</time>
      </trkpt>
      <trkpt lat="46.64468" lon="5.16862">
        <ele>185.4</ele>
        <time>2022-06-25T07:34:40Z</time>
      </trkpt>
      <trkpt lat="46.64471" lon="5.16854">
        <ele>185.4</ele>
        <time>2022-06-25T07:34:41Z</time>
      </trkpt>
      <trkpt lat="46.64475" lon="5.16845">
        <ele>185.4</ele>
        <time>2022-06-25T07:34:42Z</time>
      </trkpt>
      <trkpt lat="46.64478" lon="5.16837">
        <ele>185.8</ele>
        <time>2022-06-25T07:34:43Z</time>
      </trkpt>
      <trkpt lat="46.64481" lon="5.16828">
        <ele>185.8</ele>
        <time>2022-06-25T07:34:44Z</time>
      </trkpt>
      <trkpt lat="46.64484" lon="5.1682">
        <ele>185.8</ele>
        <time>2022-06-25T07:34:45Z</time>
      </trkpt>
      <trkpt lat="46.64488" lon="5.16811">
        <ele>185.8</ele>
        <time>2022-06-25T07:34:46Z</time>
      </trkpt>
      <trkpt lat="46.64491" lon="5.16802">
        <ele>185.8</ele>
        <time>2022-06-25T07:34:47Z</time>
      </trkpt>
      <trkpt lat="46.64494" lon="5.16794">
        <ele>185.8</ele>
        <time>2022-06-25T07:34:48Z</time>
      </trkpt>
      <trkpt lat="46.64497" lon="5.16785">
        <ele>185.8</ele>
        <time>2022-06-25T07:34:49Z</time>
      </trkpt>
      <trkpt lat="46.645" lon="5.16776">
        <ele>185.8</ele>
        <time>2022-06-25T07:34:50Z</time>
      </trkpt>
      <trkpt lat="46.64504" lon="5.16767">
        <ele>185.8</ele>
        <time>2022-06-25T07:34:51Z</time>
      </trkpt>
      <trkpt lat="46.64507" lon="5.16759">
        <ele>185.8</ele>
        <time>2022-06-25T07:34:52Z</time>
      </trkpt>
      <trkpt lat="46.64511" lon="5.1675">
        <ele>185.8</ele>
        <time>2022-06-25T07:34:53Z</time>
      </trkpt>
      <trkpt lat="46.64512" lon="5.16746">
        <ele>185.8</ele>
        <time>2022-06-25T07:34:54Z</time>
      </trkpt>
      <trkpt lat="46.64514" lon="5.16741">
        <ele>185.4</ele>
        <time>2022-06-25T07:34:55Z</time>
      </trkpt>
      <trkpt lat="46.64517" lon="5.16733">
        <ele>185.4</ele>
        <time>2022-06-25T07:34:56Z</time>
      </trkpt>
      <trkpt lat="46.6452" lon="5.16724">
        <ele>185.4</ele>
        <time>2022-06-25T07:34:57Z</time>
      </trkpt>
      <trkpt lat="46.64523" lon="5.16717">
        <ele>185.4</ele>
        <time>2022-06-25T07:34:58Z</time>
      </trkpt>
      <trkpt lat="46.64526" lon="5.16709">
        <ele>185.4</ele>
        <time>2022-06-25T07:34:59Z</time>
      </trkpt>
      <trkpt lat="46.64529" lon="5.16701">
        <ele>185.4</ele>
        <time>2022-06-25T07:35:00Z</time>
      </trkpt>
      <trkpt lat="46.64533" lon="5.16694">
        <ele>185.2</ele>
        <time>2022-06-25T07:35:01Z</time>
      </trkpt>
      <trkpt lat="46.64537" lon="5.16688">
        <ele>185.2</ele>
        <time>2022-06-25T07:35:02Z</time>
      </trkpt>
      <trkpt lat="46.64542" lon="5.16683">
        <ele>185.2</ele>
        <time>2022-06-25T07:35:03Z</time>
      </trkpt>
      <trkpt lat="46.64546" lon="5.16679">
        <ele>185.2</ele>
        <time>2022-06-25T07:35:04Z</time>
      </trkpt>
      <trkpt lat="46.6455" lon="5.16677">
        <ele>185.2</ele>
        <time>2022-06-25T07:35:05Z</time>
      </trkpt>
      <trkpt lat="46.64555" lon="5.16676">
        <ele>185.2</ele>
        <time>2022-06-25T07:35:06Z</time>
      </trkpt>
      <trkpt lat="46.64558" lon="5.16677">
        <ele>185</ele>
        <time>2022-06-25T07:35:07Z</time>
      </trkpt>
      <trkpt lat="46.64562" lon="5.16677">
        <ele>185</ele>
        <time>2022-06-25T07:35:08Z</time>
      </trkpt>
      <trkpt lat="46.64565" lon="5.16676">
        <ele>185</ele>
        <time>2022-06-25T07:35:09Z</time>
      </trkpt>
      <trkpt lat="46.64566" lon="5.16675">
        <ele>185</ele>
        <time>2022-06-25T07:35:10Z</time>
      </trkpt>
      <trkpt lat="46.64566" lon="5.16673">
        <ele>185</ele>
        <time>2022-06-25T07:35:11Z</time>
      </trkpt>
      <trkpt lat="46.64564" lon="5.16671">
        <ele>185</ele>
        <time>2022-06-25T07:35:12Z</time>
      </trkpt>
      <trkpt lat="46.64562" lon="5.1667">
        <ele>185</ele>
        <time>2022-06-25T07:35:13Z</time>
      </trkpt>
      <trkpt lat="46.6456" lon="5.1667">
        <ele>185</ele>
        <time>2022-06-25T07:35:14Z</time>
      </trkpt>
      <trkpt lat="46.64557" lon="5.1667">
        <ele>185</ele>
        <time>2022-06-25T07:35:15Z</time>
      </trkpt>
      <trkpt lat="46.6455" lon="5.16671">
        <ele>185</ele>
        <time>2022-06-25T07:35:16Z</time>
      </trkpt>
      <trkpt lat="46.64547" lon="5.16671">
        <ele>185</ele>
        <time>2022-06-25T07:35:17Z</time>
      </trkpt>
      <trkpt lat="46.64544" lon="5.16669">
        <ele>185</ele>
        <time>2022-06-25T07:35:18Z</time>
      </trkpt>
      <trkpt lat="46.64541" lon="5.16666">
        <ele>185</ele>
        <time>2022-06-25T07:35:19Z</time>
      </trkpt>
      <trkpt lat="46.64538" lon="5.16662">
        <ele>185</ele>
        <time>2022-06-25T07:35:20Z</time>
      </trkpt>
      <trkpt lat="46.64537" lon="5.16656">
        <ele>185</ele>
        <time>2022-06-25T07:35:21Z</time>
      </trkpt>
      <trkpt lat="46.64537" lon="5.1665">
        <ele>185</ele>
        <time>2022-06-25T07:35:22Z</time>
      </trkpt>
      <trkpt lat="46.64538" lon="5.16644">
        <ele>185</ele>
        <time>2022-06-25T07:35:23Z</time>
      </trkpt>
      <trkpt lat="46.64539" lon="5.16637">
        <ele>185</ele>
        <time>2022-06-25T07:35:24Z</time>
      </trkpt>
      <trkpt lat="46.6454" lon="5.1663">
        <ele>185</ele>
        <time>2022-06-25T07:35:25Z</time>
      </trkpt>
      <trkpt lat="46.64541" lon="5.16623">
        <ele>185</ele>
        <time>2022-06-25T07:35:26Z</time>
      </trkpt>
      <trkpt lat="46.64542" lon="5.16615">
        <ele>185</ele>
        <time>2022-06-25T07:35:27Z</time>
      </trkpt>
      <trkpt lat="46.64543" lon="5.16607">
        <ele>185</ele>
        <time>2022-06-25T07:35:28Z</time>
      </trkpt>
      <trkpt lat="46.64544" lon="5.166">
        <ele>185</ele>
        <time>2022-06-25T07:35:29Z</time>
      </trkpt>
      <trkpt lat="46.64544" lon="5.16592">
        <ele>185</ele>
        <time>2022-06-25T07:35:30Z</time>
      </trkpt>
      <trkpt lat="46.64545" lon="5.16583">
        <ele>185</ele>
        <time>2022-06-25T07:35:31Z</time>
      </trkpt>
      <trkpt lat="46.64545" lon="5.16575">
        <ele>185</ele>
        <time>2022-06-25T07:35:32Z</time>
      </trkpt>
      <trkpt lat="46.64546" lon="5.16567">
        <ele>185</ele>
        <time>2022-06-25T07:35:33Z</time>
      </trkpt>
      <trkpt lat="46.64547" lon="5.16559">
        <ele>185.2</ele>
        <time>2022-06-25T07:35:34Z</time>
      </trkpt>
      <trkpt lat="46.64547" lon="5.16551">
        <ele>185.2</ele>
        <time>2022-06-25T07:35:35Z</time>
      </trkpt>
      <trkpt lat="46.64548" lon="5.16543">
        <ele>185.2</ele>
        <time>2022-06-25T07:35:36Z</time>
      </trkpt>
      <trkpt lat="46.64549" lon="5.16534">
        <ele>185.2</ele>
        <time>2022-06-25T07:35:37Z</time>
      </trkpt>
      <trkpt lat="46.6455" lon="5.16525">
        <ele>185.2</ele>
        <time>2022-06-25T07:35:38Z</time>
      </trkpt>
      <trkpt lat="46.64551" lon="5.16516">
        <ele>185.2</ele>
        <time>2022-06-25T07:35:39Z</time>
      </trkpt>
      <trkpt lat="46.64552" lon="5.16507">
        <ele>185.2</ele>
        <time>2022-06-25T07:35:40Z</time>
      </trkpt>
      <trkpt lat="46.64553" lon="5.16497">
        <ele>185.2</ele>
        <time>2022-06-25T07:35:41Z</time>
      </trkpt>
      <trkpt lat="46.64554" lon="5.16488">
        <ele>185.2</ele>
        <time>2022-06-25T07:35:42Z</time>
      </trkpt>
      <trkpt lat="46.64555" lon="5.16478">
        <ele>185.2</ele>
        <time>2022-06-25T07:35:43Z</time>
      </trkpt>
      <trkpt lat="46.64556" lon="5.16468">
        <ele>185</ele>
        <time>2022-06-25T07:35:44Z</time>
      </trkpt>
      <trkpt lat="46.64557" lon="5.16459">
        <ele>185</ele>
        <time>2022-06-25T07:35:45Z</time>
      </trkpt>
      <trkpt lat="46.64557" lon="5.16449">
        <ele>185</ele>
        <time>2022-06-25T07:35:46Z</time>
      </trkpt>
      <trkpt lat="46.64558" lon="5.1644">
        <ele>185</ele>
        <time>2022-06-25T07:35:47Z</time>
      </trkpt>
      <trkpt lat="46.64559" lon="5.1643">
        <ele>185</ele>
        <time>2022-06-25T07:35:48Z</time>
      </trkpt>
      <trkpt lat="46.6456" lon="5.1642">
        <ele>185</ele>
        <time>2022-06-25T07:35:49Z</time>
      </trkpt>
      <trkpt lat="46.6456" lon="5.1641">
        <ele>185</ele>
        <time>2022-06-25T07:35:50Z</time>
      </trkpt>
      <trkpt lat="46.64561" lon="5.164">
        <ele>185</ele>
        <time>2022-06-25T07:35:51Z</time>
      </trkpt>
      <trkpt lat="46.64562" lon="5.16391">
        <ele>185</ele>
        <time>2022-06-25T07:35:52Z</time>
      </trkpt>
      <trkpt lat="46.64563" lon="5.16381">
        <ele>185</ele>
        <time>2022-06-25T07:35:53Z</time>
      </trkpt>
      <trkpt lat="46.64564" lon="5.16372">
        <ele>185</ele>
        <time>2022-06-25T07:35:54Z</time>
      </trkpt>
      <trkpt lat="46.64564" lon="5.16367">
        <ele>184.8</ele>
        <time>2022-06-25T07:35:55Z</time>
      </trkpt>
      <trkpt lat="46.64565" lon="5.16362">
        <ele>184.8</ele>
        <time>2022-06-25T07:35:56Z</time>
      </trkpt>
      <trkpt lat="46.64566" lon="5.16352">
        <ele>184.8</ele>
        <time>2022-06-25T07:35:57Z</time>
      </trkpt>
      <trkpt lat="46.64566" lon="5.16342">
        <ele>184.8</ele>
        <time>2022-06-25T07:35:58Z</time>
      </trkpt>
      <trkpt lat="46.64567" lon="5.16333">
        <ele>184.8</ele>
        <time>2022-06-25T07:35:59Z</time>
      </trkpt>
      <trkpt lat="46.64568" lon="5.16323">
        <ele>184.8</ele>
        <time>2022-06-25T07:36:00Z</time>
      </trkpt>
      <trkpt lat="46.64569" lon="5.16313">
        <ele>184.8</ele>
        <time>2022-06-25T07:36:01Z</time>
      </trkpt>
      <trkpt lat="46.6457" lon="5.16304">
        <ele>184.8</ele>
        <time>2022-06-25T07:36:02Z</time>
      </trkpt>
      <trkpt lat="46.6457" lon="5.16294">
        <ele>184.6</ele>
        <time>2022-06-25T07:36:03Z</time>
      </trkpt>
      <trkpt lat="46.64571" lon="5.16285">
        <ele>184.6</ele>
        <time>2022-06-25T07:36:04Z</time>
      </trkpt>
      <trkpt lat="46.64572" lon="5.16275">
        <ele>184.6</ele>
        <time>2022-06-25T07:36:05Z</time>
      </trkpt>
      <trkpt lat="46.64573" lon="5.16266">
        <ele>184.6</ele>
        <time>2022-06-25T07:36:06Z</time>
      </trkpt>
      <trkpt lat="46.64574" lon="5.16256">
        <ele>184.6</ele>
        <time>2022-06-25T07:36:07Z</time>
      </trkpt>
      <trkpt lat="46.64575" lon="5.16247">
        <ele>184.6</ele>
        <time>2022-06-25T07:36:08Z</time>
      </trkpt>
      <trkpt lat="46.64576" lon="5.16238">
        <ele>184.6</ele>
        <time>2022-06-25T07:36:09Z</time>
      </trkpt>
      <trkpt lat="46.64578" lon="5.16229">
        <ele>184.6</ele>
        <time>2022-06-25T07:36:10Z</time>
      </trkpt>
      <trkpt lat="46.6458" lon="5.1622">
        <ele>184.6</ele>
        <time>2022-06-25T07:36:11Z</time>
      </trkpt>
      <trkpt lat="46.64582" lon="5.16212">
        <ele>184.6</ele>
        <time>2022-06-25T07:36:12Z</time>
      </trkpt>
      <trkpt lat="46.64584" lon="5.16203">
        <ele>184.6</ele>
        <time>2022-06-25T07:36:13Z</time>
      </trkpt>
      <trkpt lat="46.64587" lon="5.16195">
        <ele>184.6</ele>
        <time>2022-06-25T07:36:14Z</time>
      </trkpt>
      <trkpt lat="46.64589" lon="5.16186">
        <ele>184.6</ele>
        <time>2022-06-25T07:36:15Z</time>
      </trkpt>
      <trkpt lat="46.64592" lon="5.16178">
        <ele>184.6</ele>
        <time>2022-06-25T07:36:16Z</time>
      </trkpt>
      <trkpt lat="46.64594" lon="5.1617">
        <ele>184.6</ele>
        <time>2022-06-25T07:36:17Z</time>
      </trkpt>
      <trkpt lat="46.64597" lon="5.16161">
        <ele>184.6</ele>
        <time>2022-06-25T07:36:18Z</time>
      </trkpt>
      <trkpt lat="46.64599" lon="5.16153">
        <ele>184.8</ele>
        <time>2022-06-25T07:36:19Z</time>
      </trkpt>
      <trkpt lat="46.64602" lon="5.16145">
        <ele>184.8</ele>
        <time>2022-06-25T07:36:20Z</time>
      </trkpt>
      <trkpt lat="46.64604" lon="5.16137">
        <ele>184.8</ele>
        <time>2022-06-25T07:36:21Z</time>
      </trkpt>
      <trkpt lat="46.64607" lon="5.16129">
        <ele>184.8</ele>
        <time>2022-06-25T07:36:22Z</time>
      </trkpt>
      <trkpt lat="46.64609" lon="5.1612">
        <ele>184.8</ele>
        <time>2022-06-25T07:36:23Z</time>
      </trkpt>
      <trkpt lat="46.64612" lon="5.16112">
        <ele>185</ele>
        <time>2022-06-25T07:36:24Z</time>
      </trkpt>
      <trkpt lat="46.64614" lon="5.16104">
        <ele>185</ele>
        <time>2022-06-25T07:36:25Z</time>
      </trkpt>
      <trkpt lat="46.64617" lon="5.16096">
        <ele>185</ele>
        <time>2022-06-25T07:36:26Z</time>
      </trkpt>
      <trkpt lat="46.64619" lon="5.16088">
        <ele>185</ele>
        <time>2022-06-25T07:36:27Z</time>
      </trkpt>
      <trkpt lat="46.64622" lon="5.16081">
        <ele>185</ele>
        <time>2022-06-25T07:36:28Z</time>
      </trkpt>
      <trkpt lat="46.64624" lon="5.16073">
        <ele>185</ele>
        <time>2022-06-25T07:36:29Z</time>
      </trkpt>
      <trkpt lat="46.64626" lon="5.16065">
        <ele>185</ele>
        <time>2022-06-25T07:36:30Z</time>
      </trkpt>
      <trkpt lat="46.64629" lon="5.16056">
        <ele>185</ele>
        <time>2022-06-25T07:36:31Z</time>
      </trkpt>
      <trkpt lat="46.64631" lon="5.16048">
        <ele>185</ele>
        <time>2022-06-25T07:36:32Z</time>
      </trkpt>
      <trkpt lat="46.64634" lon="5.1604">
        <ele>185</ele>
        <time>2022-06-25T07:36:33Z</time>
      </trkpt>
      <trkpt lat="46.64636" lon="5.16031">
        <ele>185</ele>
        <time>2022-06-25T07:36:34Z</time>
      </trkpt>
      <trkpt lat="46.64639" lon="5.16023">
        <ele>185</ele>
        <time>2022-06-25T07:36:35Z</time>
      </trkpt>
      <trkpt lat="46.64641" lon="5.16014">
        <ele>185</ele>
        <time>2022-06-25T07:36:36Z</time>
      </trkpt>
      <trkpt lat="46.64644" lon="5.16006">
        <ele>185</ele>
        <time>2022-06-25T07:36:37Z</time>
      </trkpt>
      <trkpt lat="46.64646" lon="5.15997">
        <ele>185</ele>
        <time>2022-06-25T07:36:38Z</time>
      </trkpt>
      <trkpt lat="46.64649" lon="5.15989">
        <ele>185</ele>
        <time>2022-06-25T07:36:39Z</time>
      </trkpt>
      <trkpt lat="46.64651" lon="5.1598">
        <ele>185</ele>
        <time>2022-06-25T07:36:40Z</time>
      </trkpt>
      <trkpt lat="46.64654" lon="5.15972">
        <ele>185</ele>
        <time>2022-06-25T07:36:41Z</time>
      </trkpt>
      <trkpt lat="46.64657" lon="5.15964">
        <ele>185</ele>
        <time>2022-06-25T07:36:42Z</time>
      </trkpt>
      <trkpt lat="46.64659" lon="5.15956">
        <ele>185</ele>
        <time>2022-06-25T07:36:43Z</time>
      </trkpt>
      <trkpt lat="46.64662" lon="5.15947">
        <ele>185</ele>
        <time>2022-06-25T07:36:44Z</time>
      </trkpt>
      <trkpt lat="46.64664" lon="5.15939">
        <ele>185</ele>
        <time>2022-06-25T07:36:45Z</time>
      </trkpt>
      <trkpt lat="46.64667" lon="5.15932">
        <ele>185</ele>
        <time>2022-06-25T07:36:46Z</time>
      </trkpt>
      <trkpt lat="46.64669" lon="5.15924">
        <ele>185</ele>
        <time>2022-06-25T07:36:47Z</time>
      </trkpt>
      <trkpt lat="46.64672" lon="5.15915">
        <ele>185</ele>
        <time>2022-06-25T07:36:48Z</time>
      </trkpt>
      <trkpt lat="46.64674" lon="5.15907">
        <ele>185</ele>
        <time>2022-06-25T07:36:49Z</time>
      </trkpt>
      <trkpt lat="46.64677" lon="5.15899">
        <ele>185</ele>
        <time>2022-06-25T07:36:50Z</time>
      </trkpt>
      <trkpt lat="46.64679" lon="5.1589">
        <ele>185</ele>
        <time>2022-06-25T07:36:51Z</time>
      </trkpt>
      <trkpt lat="46.64681" lon="5.15881">
        <ele>185</ele>
        <time>2022-06-25T07:36:52Z</time>
      </trkpt>
      <trkpt lat="46.64683" lon="5.15873">
        <ele>185.4</ele>
        <time>2022-06-25T07:36:53Z</time>
      </trkpt>
      <trkpt lat="46.64685" lon="5.15864">
        <ele>185.4</ele>
        <time>2022-06-25T07:36:54Z</time>
      </trkpt>
      <trkpt lat="46.64686" lon="5.15855">
        <ele>185.6</ele>
        <time>2022-06-25T07:36:55Z</time>
      </trkpt>
      <trkpt lat="46.64687" lon="5.15846">
        <ele>185.6</ele>
        <time>2022-06-25T07:36:56Z</time>
      </trkpt>
      <trkpt lat="46.64688" lon="5.15837">
        <ele>185.6</ele>
        <time>2022-06-25T07:36:57Z</time>
      </trkpt>
      <trkpt lat="46.64688" lon="5.15829">
        <ele>185.6</ele>
        <time>2022-06-25T07:36:58Z</time>
      </trkpt>
      <trkpt lat="46.64689" lon="5.1582">
        <ele>185.6</ele>
        <time>2022-06-25T07:36:59Z</time>
      </trkpt>
      <trkpt lat="46.64689" lon="5.15811">
        <ele>185.6</ele>
        <time>2022-06-25T07:37:00Z</time>
      </trkpt>
      <trkpt lat="46.64688" lon="5.15802">
        <ele>185.4</ele>
        <time>2022-06-25T07:37:01Z</time>
      </trkpt>
      <trkpt lat="46.64688" lon="5.15793">
        <ele>185.4</ele>
        <time>2022-06-25T07:37:02Z</time>
      </trkpt>
      <trkpt lat="46.64687" lon="5.15784">
        <ele>185.4</ele>
        <time>2022-06-25T07:37:03Z</time>
      </trkpt>
      <trkpt lat="46.64687" lon="5.15775">
        <ele>185.4</ele>
        <time>2022-06-25T07:37:04Z</time>
      </trkpt>
      <trkpt lat="46.64685" lon="5.15766">
        <ele>185.4</ele>
        <time>2022-06-25T07:37:05Z</time>
      </trkpt>
      <trkpt lat="46.64684" lon="5.15756">
        <ele>185.4</ele>
        <time>2022-06-25T07:37:06Z</time>
      </trkpt>
      <trkpt lat="46.64683" lon="5.15747">
        <ele>185.4</ele>
        <time>2022-06-25T07:37:07Z</time>
      </trkpt>
      <trkpt lat="46.64681" lon="5.15738">
        <ele>185.4</ele>
        <time>2022-06-25T07:37:08Z</time>
      </trkpt>
      <trkpt lat="46.6468" lon="5.15728">
        <ele>185.4</ele>
        <time>2022-06-25T07:37:09Z</time>
      </trkpt>
      <trkpt lat="46.64679" lon="5.15719">
        <ele>185.4</ele>
        <time>2022-06-25T07:37:10Z</time>
      </trkpt>
      <trkpt lat="46.64678" lon="5.1571">
        <ele>185.4</ele>
        <time>2022-06-25T07:37:11Z</time>
      </trkpt>
      <trkpt lat="46.64676" lon="5.157">
        <ele>185.4</ele>
        <time>2022-06-25T07:37:12Z</time>
      </trkpt>
      <trkpt lat="46.64675" lon="5.15691">
        <ele>185.4</ele>
        <time>2022-06-25T07:37:13Z</time>
      </trkpt>
      <trkpt lat="46.64674" lon="5.15681">
        <ele>185.4</ele>
        <time>2022-06-25T07:37:14Z</time>
      </trkpt>
      <trkpt lat="46.64673" lon="5.15672">
        <ele>185.4</ele>
        <time>2022-06-25T07:37:15Z</time>
      </trkpt>
      <trkpt lat="46.64671" lon="5.15662">
        <ele>185.4</ele>
        <time>2022-06-25T07:37:16Z</time>
      </trkpt>
      <trkpt lat="46.6467" lon="5.15653">
        <ele>185.4</ele>
        <time>2022-06-25T07:37:17Z</time>
      </trkpt>
      <trkpt lat="46.64668" lon="5.15643">
        <ele>185.4</ele>
        <time>2022-06-25T07:37:18Z</time>
      </trkpt>
      <trkpt lat="46.64667" lon="5.15634">
        <ele>185.4</ele>
        <time>2022-06-25T07:37:19Z</time>
      </trkpt>
      <trkpt lat="46.64666" lon="5.15624">
        <ele>185.4</ele>
        <time>2022-06-25T07:37:20Z</time>
      </trkpt>
      <trkpt lat="46.64664" lon="5.15615">
        <ele>185.4</ele>
        <time>2022-06-25T07:37:21Z</time>
      </trkpt>
      <trkpt lat="46.64663" lon="5.15605">
        <ele>185.4</ele>
        <time>2022-06-25T07:37:22Z</time>
      </trkpt>
      <trkpt lat="46.64662" lon="5.15596">
        <ele>185.4</ele>
        <time>2022-06-25T07:37:23Z</time>
      </trkpt>
      <trkpt lat="46.6466" lon="5.15586">
        <ele>185.4</ele>
        <time>2022-06-25T07:37:24Z</time>
      </trkpt>
      <trkpt lat="46.64659" lon="5.15577">
        <ele>185.4</ele>
        <time>2022-06-25T07:37:25Z</time>
      </trkpt>
      <trkpt lat="46.64657" lon="5.15567">
        <ele>185.4</ele>
        <time>2022-06-25T07:37:26Z</time>
      </trkpt>
      <trkpt lat="46.64656" lon="5.15557">
        <ele>185.6</ele>
        <time>2022-06-25T07:37:27Z</time>
      </trkpt>
      <trkpt lat="46.64654" lon="5.15547">
        <ele>185.6</ele>
        <time>2022-06-25T07:37:28Z</time>
      </trkpt>
      <trkpt lat="46.64653" lon="5.15537">
        <ele>185.6</ele>
        <time>2022-06-25T07:37:29Z</time>
      </trkpt>
      <trkpt lat="46.64652" lon="5.15526">
        <ele>185.6</ele>
        <time>2022-06-25T07:37:30Z</time>
      </trkpt>
      <trkpt lat="46.6465" lon="5.15516">
        <ele>185.6</ele>
        <time>2022-06-25T07:37:31Z</time>
      </trkpt>
      <trkpt lat="46.64648" lon="5.15506">
        <ele>185.6</ele>
        <time>2022-06-25T07:37:32Z</time>
      </trkpt>
      <trkpt lat="46.64647" lon="5.15495">
        <ele>185.6</ele>
        <time>2022-06-25T07:37:33Z</time>
      </trkpt>
      <trkpt lat="46.64645" lon="5.15485">
        <ele>185.6</ele>
        <time>2022-06-25T07:37:34Z</time>
      </trkpt>
      <trkpt lat="46.64644" lon="5.15475">
        <ele>185.6</ele>
        <time>2022-06-25T07:37:35Z</time>
      </trkpt>
      <trkpt lat="46.64643" lon="5.15465">
        <ele>185.6</ele>
        <time>2022-06-25T07:37:36Z</time>
      </trkpt>
      <trkpt lat="46.64641" lon="5.15454">
        <ele>185.6</ele>
        <time>2022-06-25T07:37:37Z</time>
      </trkpt>
      <trkpt lat="46.6464" lon="5.15444">
        <ele>185.6</ele>
        <time>2022-06-25T07:37:38Z</time>
      </trkpt>
      <trkpt lat="46.64638" lon="5.15434">
        <ele>185.6</ele>
        <time>2022-06-25T07:37:39Z</time>
      </trkpt>
      <trkpt lat="46.64637" lon="5.15424">
        <ele>185.6</ele>
        <time>2022-06-25T07:37:40Z</time>
      </trkpt>
      <trkpt lat="46.64635" lon="5.15404">
        <ele>185.6</ele>
        <time>2022-06-25T07:37:41Z</time>
      </trkpt>
      <trkpt lat="46.64634" lon="5.15395">
        <ele>185.6</ele>
        <time>2022-06-25T07:37:42Z</time>
      </trkpt>
      <trkpt lat="46.64633" lon="5.15385">
        <ele>185.8</ele>
        <time>2022-06-25T07:37:43Z</time>
      </trkpt>
      <trkpt lat="46.64632" lon="5.15375">
        <ele>185.8</ele>
        <time>2022-06-25T07:37:44Z</time>
      </trkpt>
      <trkpt lat="46.64632" lon="5.15365">
        <ele>185.8</ele>
        <time>2022-06-25T07:37:45Z</time>
      </trkpt>
      <trkpt lat="46.64632" lon="5.15355">
        <ele>185.8</ele>
        <time>2022-06-25T07:37:46Z</time>
      </trkpt>
      <trkpt lat="46.64632" lon="5.15345">
        <ele>185.8</ele>
        <time>2022-06-25T07:37:47Z</time>
      </trkpt>
      <trkpt lat="46.64632" lon="5.15336">
        <ele>186.2</ele>
        <time>2022-06-25T07:37:48Z</time>
      </trkpt>
      <trkpt lat="46.64632" lon="5.15326">
        <ele>186.2</ele>
        <time>2022-06-25T07:37:49Z</time>
      </trkpt>
      <trkpt lat="46.64632" lon="5.15316">
        <ele>186.4</ele>
        <time>2022-06-25T07:37:50Z</time>
      </trkpt>
      <trkpt lat="46.64631" lon="5.15307">
        <ele>186.4</ele>
        <time>2022-06-25T07:37:51Z</time>
      </trkpt>
      <trkpt lat="46.64631" lon="5.15297">
        <ele>186.4</ele>
        <time>2022-06-25T07:37:52Z</time>
      </trkpt>
      <trkpt lat="46.64631" lon="5.15288">
        <ele>186.4</ele>
        <time>2022-06-25T07:37:53Z</time>
      </trkpt>
      <trkpt lat="46.64631" lon="5.15278">
        <ele>186.6</ele>
        <time>2022-06-25T07:37:54Z</time>
      </trkpt>
      <trkpt lat="46.6463" lon="5.15269">
        <ele>186.6</ele>
        <time>2022-06-25T07:37:55Z</time>
      </trkpt>
      <trkpt lat="46.64629" lon="5.1526">
        <ele>186.6</ele>
        <time>2022-06-25T07:37:56Z</time>
      </trkpt>
      <trkpt lat="46.64628" lon="5.15251">
        <ele>186.6</ele>
        <time>2022-06-25T07:37:57Z</time>
      </trkpt>
      <trkpt lat="46.64626" lon="5.15242">
        <ele>186.6</ele>
        <time>2022-06-25T07:37:58Z</time>
      </trkpt>
      <trkpt lat="46.64625" lon="5.15232">
        <ele>186.6</ele>
        <time>2022-06-25T07:37:59Z</time>
      </trkpt>
      <trkpt lat="46.64623" lon="5.15223">
        <ele>186.8</ele>
        <time>2022-06-25T07:38:00Z</time>
      </trkpt>
      <trkpt lat="46.64621" lon="5.15214">
        <ele>186.8</ele>
        <time>2022-06-25T07:38:01Z</time>
      </trkpt>
      <trkpt lat="46.6462" lon="5.15205">
        <ele>186.8</ele>
        <time>2022-06-25T07:38:02Z</time>
      </trkpt>
      <trkpt lat="46.64618" lon="5.15196">
        <ele>187</ele>
        <time>2022-06-25T07:38:03Z</time>
      </trkpt>
      <trkpt lat="46.64616" lon="5.15187">
        <ele>187</ele>
        <time>2022-06-25T07:38:04Z</time>
      </trkpt>
      <trkpt lat="46.64614" lon="5.15177">
        <ele>187</ele>
        <time>2022-06-25T07:38:05Z</time>
      </trkpt>
      <trkpt lat="46.64613" lon="5.15168">
        <ele>187</ele>
        <time>2022-06-25T07:38:06Z</time>
      </trkpt>
      <trkpt lat="46.64611" lon="5.15159">
        <ele>187</ele>
        <time>2022-06-25T07:38:07Z</time>
      </trkpt>
      <trkpt lat="46.64609" lon="5.1515">
        <ele>187</ele>
        <time>2022-06-25T07:38:08Z</time>
      </trkpt>
      <trkpt lat="46.64607" lon="5.15141">
        <ele>187.4</ele>
        <time>2022-06-25T07:38:09Z</time>
      </trkpt>
      <trkpt lat="46.64605" lon="5.15133">
        <ele>187.4</ele>
        <time>2022-06-25T07:38:10Z</time>
      </trkpt>
      <trkpt lat="46.64603" lon="5.15124">
        <ele>187.6</ele>
        <time>2022-06-25T07:38:11Z</time>
      </trkpt>
      <trkpt lat="46.646" lon="5.15115">
        <ele>187.6</ele>
        <time>2022-06-25T07:38:12Z</time>
      </trkpt>
      <trkpt lat="46.64597" lon="5.15107">
        <ele>187.8</ele>
        <time>2022-06-25T07:38:13Z</time>
      </trkpt>
      <trkpt lat="46.64594" lon="5.15098">
        <ele>187.8</ele>
        <time>2022-06-25T07:38:14Z</time>
      </trkpt>
      <trkpt lat="46.64591" lon="5.15089">
        <ele>187.8</ele>
        <time>2022-06-25T07:38:15Z</time>
      </trkpt>
      <trkpt lat="46.64588" lon="5.15081">
        <ele>187.8</ele>
        <time>2022-06-25T07:38:16Z</time>
      </trkpt>
      <trkpt lat="46.64585" lon="5.15072">
        <ele>188</ele>
        <time>2022-06-25T07:38:17Z</time>
      </trkpt>
      <trkpt lat="46.64582" lon="5.15064">
        <ele>188</ele>
        <time>2022-06-25T07:38:18Z</time>
      </trkpt>
      <trkpt lat="46.64578" lon="5.15055">
        <ele>188</ele>
        <time>2022-06-25T07:38:19Z</time>
      </trkpt>
      <trkpt lat="46.64575" lon="5.15047">
        <ele>188</ele>
        <time>2022-06-25T07:38:20Z</time>
      </trkpt>
      <trkpt lat="46.64571" lon="5.15039">
        <ele>188</ele>
        <time>2022-06-25T07:38:21Z</time>
      </trkpt>
      <trkpt lat="46.64568" lon="5.1503">
        <ele>188.2</ele>
        <time>2022-06-25T07:38:22Z</time>
      </trkpt>
      <trkpt lat="46.64564" lon="5.15022">
        <ele>188.2</ele>
        <time>2022-06-25T07:38:23Z</time>
      </trkpt>
      <trkpt lat="46.64561" lon="5.15013">
        <ele>188.2</ele>
        <time>2022-06-25T07:38:24Z</time>
      </trkpt>
      <trkpt lat="46.64557" lon="5.15005">
        <ele>188.4</ele>
        <time>2022-06-25T07:38:25Z</time>
      </trkpt>
      <trkpt lat="46.64554" lon="5.14996">
        <ele>188.4</ele>
        <time>2022-06-25T07:38:26Z</time>
      </trkpt>
      <trkpt lat="46.64551" lon="5.14988">
        <ele>188.8</ele>
        <time>2022-06-25T07:38:27Z</time>
      </trkpt>
      <trkpt lat="46.64547" lon="5.14979">
        <ele>188.8</ele>
        <time>2022-06-25T07:38:28Z</time>
      </trkpt>
      <trkpt lat="46.64544" lon="5.14971">
        <ele>188.8</ele>
        <time>2022-06-25T07:38:29Z</time>
      </trkpt>
      <trkpt lat="46.6454" lon="5.14963">
        <ele>189</ele>
        <time>2022-06-25T07:38:30Z</time>
      </trkpt>
      <trkpt lat="46.64537" lon="5.14954">
        <ele>189</ele>
        <time>2022-06-25T07:38:31Z</time>
      </trkpt>
      <trkpt lat="46.64534" lon="5.14945">
        <ele>189</ele>
        <time>2022-06-25T07:38:32Z</time>
      </trkpt>
      <trkpt lat="46.64531" lon="5.14937">
        <ele>189</ele>
        <time>2022-06-25T07:38:33Z</time>
      </trkpt>
      <trkpt lat="46.64528" lon="5.14928">
        <ele>189</ele>
        <time>2022-06-25T07:38:34Z</time>
      </trkpt>
      <trkpt lat="46.64526" lon="5.14919">
        <ele>189.2</ele>
        <time>2022-06-25T07:38:35Z</time>
      </trkpt>
      <trkpt lat="46.64523" lon="5.1491">
        <ele>189.2</ele>
        <time>2022-06-25T07:38:36Z</time>
      </trkpt>
      <trkpt lat="46.64521" lon="5.14901">
        <ele>189.2</ele>
        <time>2022-06-25T07:38:37Z</time>
      </trkpt>
      <trkpt lat="46.64519" lon="5.14892">
        <ele>189.4</ele>
        <time>2022-06-25T07:38:38Z</time>
      </trkpt>
      <trkpt lat="46.64517" lon="5.14883">
        <ele>189.4</ele>
        <time>2022-06-25T07:38:39Z</time>
      </trkpt>
      <trkpt lat="46.64515" lon="5.14874">
        <ele>189.6</ele>
        <time>2022-06-25T07:38:40Z</time>
      </trkpt>
      <trkpt lat="46.64513" lon="5.14865">
        <ele>189.6</ele>
        <time>2022-06-25T07:38:41Z</time>
      </trkpt>
      <trkpt lat="46.64511" lon="5.14856">
        <ele>190</ele>
        <time>2022-06-25T07:38:42Z</time>
      </trkpt>
      <trkpt lat="46.64509" lon="5.14847">
        <ele>190</ele>
        <time>2022-06-25T07:38:43Z</time>
      </trkpt>
      <trkpt lat="46.64507" lon="5.14838">
        <ele>190</ele>
        <time>2022-06-25T07:38:44Z</time>
      </trkpt>
      <trkpt lat="46.64505" lon="5.14829">
        <ele>190.2</ele>
        <time>2022-06-25T07:38:45Z</time>
      </trkpt>
      <trkpt lat="46.64504" lon="5.14819">
        <ele>190.2</ele>
        <time>2022-06-25T07:38:46Z</time>
      </trkpt>
      <trkpt lat="46.64502" lon="5.14811">
        <ele>190.2</ele>
        <time>2022-06-25T07:38:47Z</time>
      </trkpt>
      <trkpt lat="46.645" lon="5.14802">
        <ele>190.4</ele>
        <time>2022-06-25T07:38:48Z</time>
      </trkpt>
      <trkpt lat="46.64498" lon="5.14793">
        <ele>190.4</ele>
        <time>2022-06-25T07:38:49Z</time>
      </trkpt>
      <trkpt lat="46.64497" lon="5.14784">
        <ele>190.4</ele>
        <time>2022-06-25T07:38:50Z</time>
      </trkpt>
      <trkpt lat="46.64495" lon="5.14775">
        <ele>190.4</ele>
        <time>2022-06-25T07:38:51Z</time>
      </trkpt>
      <trkpt lat="46.64493" lon="5.14766">
        <ele>190.6</ele>
        <time>2022-06-25T07:38:52Z</time>
      </trkpt>
      <trkpt lat="46.64491" lon="5.14757">
        <ele>190.6</ele>
        <time>2022-06-25T07:38:53Z</time>
      </trkpt>
      <trkpt lat="46.64489" lon="5.14749">
        <ele>190.8</ele>
        <time>2022-06-25T07:38:54Z</time>
      </trkpt>
      <trkpt lat="46.64487" lon="5.1474">
        <ele>190.8</ele>
        <time>2022-06-25T07:38:55Z</time>
      </trkpt>
      <trkpt lat="46.64486" lon="5.14731">
        <ele>190.8</ele>
        <time>2022-06-25T07:38:56Z</time>
      </trkpt>
      <trkpt lat="46.64484" lon="5.14722">
        <ele>191.2</ele>
        <time>2022-06-25T07:38:57Z</time>
      </trkpt>
      <trkpt lat="46.64482" lon="5.14713">
        <ele>191.2</ele>
        <time>2022-06-25T07:38:58Z</time>
      </trkpt>
      <trkpt lat="46.6448" lon="5.14704">
        <ele>191.4</ele>
        <time>2022-06-25T07:38:59Z</time>
      </trkpt>
      <trkpt lat="46.64479" lon="5.14695">
        <ele>191.4</ele>
        <time>2022-06-25T07:39:00Z</time>
      </trkpt>
      <trkpt lat="46.64477" lon="5.14686">
        <ele>191.4</ele>
        <time>2022-06-25T07:39:01Z</time>
      </trkpt>
      <trkpt lat="46.64475" lon="5.14676">
        <ele>191.6</ele>
        <time>2022-06-25T07:39:02Z</time>
      </trkpt>
      <trkpt lat="46.64473" lon="5.14667">
        <ele>191.6</ele>
        <time>2022-06-25T07:39:03Z</time>
      </trkpt>
      <trkpt lat="46.64471" lon="5.14658">
        <ele>191.6</ele>
        <time>2022-06-25T07:39:04Z</time>
      </trkpt>
      <trkpt lat="46.64469" lon="5.14648">
        <ele>191.6</ele>
        <time>2022-06-25T07:39:05Z</time>
      </trkpt>
      <trkpt lat="46.64467" lon="5.14639">
        <ele>191.6</ele>
        <time>2022-06-25T07:39:06Z</time>
      </trkpt>
      <trkpt lat="46.64465" lon="5.14629">
        <ele>191.6</ele>
        <time>2022-06-25T07:39:07Z</time>
      </trkpt>
      <trkpt lat="46.64463" lon="5.14619">
        <ele>192</ele>
        <time>2022-06-25T07:39:08Z</time>
      </trkpt>
      <trkpt lat="46.64461" lon="5.1461">
        <ele>192</ele>
        <time>2022-06-25T07:39:09Z</time>
      </trkpt>
      <trkpt lat="46.64459" lon="5.146">
        <ele>192</ele>
        <time>2022-06-25T07:39:10Z</time>
      </trkpt>
      <trkpt lat="46.64456" lon="5.14591">
        <ele>192.2</ele>
        <time>2022-06-25T07:39:11Z</time>
      </trkpt>
      <trkpt lat="46.64454" lon="5.14581">
        <ele>192.2</ele>
        <time>2022-06-25T07:39:12Z</time>
      </trkpt>
      <trkpt lat="46.64452" lon="5.14572">
        <ele>192.2</ele>
        <time>2022-06-25T07:39:13Z</time>
      </trkpt>
      <trkpt lat="46.64449" lon="5.14563">
        <ele>192.6</ele>
        <time>2022-06-25T07:39:14Z</time>
      </trkpt>
      <trkpt lat="46.64447" lon="5.14555">
        <ele>192.6</ele>
        <time>2022-06-25T07:39:15Z</time>
      </trkpt>
      <trkpt lat="46.64444" lon="5.14546">
        <ele>192.8</ele>
        <time>2022-06-25T07:39:16Z</time>
      </trkpt>
      <trkpt lat="46.64441" lon="5.14538">
        <ele>192.8</ele>
        <time>2022-06-25T07:39:17Z</time>
      </trkpt>
      <trkpt lat="46.64438" lon="5.1453">
        <ele>193</ele>
        <time>2022-06-25T07:39:18Z</time>
      </trkpt>
      <trkpt lat="46.64435" lon="5.14522">
        <ele>193</ele>
        <time>2022-06-25T07:39:19Z</time>
      </trkpt>
      <trkpt lat="46.64431" lon="5.14514">
        <ele>193.4</ele>
        <time>2022-06-25T07:39:20Z</time>
      </trkpt>
      <trkpt lat="46.64428" lon="5.14506">
        <ele>193.4</ele>
        <time>2022-06-25T07:39:21Z</time>
      </trkpt>
      <trkpt lat="46.64424" lon="5.14498">
        <ele>193.4</ele>
        <time>2022-06-25T07:39:22Z</time>
      </trkpt>
      <trkpt lat="46.6442" lon="5.1449">
        <ele>193.4</ele>
        <time>2022-06-25T07:39:23Z</time>
      </trkpt>
      <trkpt lat="46.64416" lon="5.14482">
        <ele>193.4</ele>
        <time>2022-06-25T07:39:24Z</time>
      </trkpt>
      <trkpt lat="46.64412" lon="5.14474">
        <ele>193.6</ele>
        <time>2022-06-25T07:39:25Z</time>
      </trkpt>
      <trkpt lat="46.64408" lon="5.14467">
        <ele>193.6</ele>
        <time>2022-06-25T07:39:26Z</time>
      </trkpt>
      <trkpt lat="46.64403" lon="5.14459">
        <ele>193.6</ele>
        <time>2022-06-25T07:39:27Z</time>
      </trkpt>
      <trkpt lat="46.64399" lon="5.14451">
        <ele>193.6</ele>
        <time>2022-06-25T07:39:28Z</time>
      </trkpt>
      <trkpt lat="46.64394" lon="5.14443">
        <ele>193.6</ele>
        <time>2022-06-25T07:39:29Z</time>
      </trkpt>
      <trkpt lat="46.6439" lon="5.14435">
        <ele>193.6</ele>
        <time>2022-06-25T07:39:30Z</time>
      </trkpt>
      <trkpt lat="46.64385" lon="5.14427">
        <ele>193.6</ele>
        <time>2022-06-25T07:39:31Z</time>
      </trkpt>
      <trkpt lat="46.6438" lon="5.14418">
        <ele>193.2</ele>
        <time>2022-06-25T07:39:32Z</time>
      </trkpt>
      <trkpt lat="46.64375" lon="5.1441">
        <ele>193.2</ele>
        <time>2022-06-25T07:39:33Z</time>
      </trkpt>
      <trkpt lat="46.6437" lon="5.14401">
        <ele>193</ele>
        <time>2022-06-25T07:39:34Z</time>
      </trkpt>
      <trkpt lat="46.64365" lon="5.14392">
        <ele>193</ele>
        <time>2022-06-25T07:39:35Z</time>
      </trkpt>
      <trkpt lat="46.6436" lon="5.14383">
        <ele>192.8</ele>
        <time>2022-06-25T07:39:36Z</time>
      </trkpt>
      <trkpt lat="46.64354" lon="5.14373">
        <ele>192.4</ele>
        <time>2022-06-25T07:39:37Z</time>
      </trkpt>
      <trkpt lat="46.64349" lon="5.14363">
        <ele>192.2</ele>
        <time>2022-06-25T07:39:38Z</time>
      </trkpt>
      <trkpt lat="46.64343" lon="5.14353">
        <ele>192</ele>
        <time>2022-06-25T07:39:39Z</time>
      </trkpt>
      <trkpt lat="46.64337" lon="5.14343">
        <ele>191.6</ele>
        <time>2022-06-25T07:39:40Z</time>
      </trkpt>
      <trkpt lat="46.64331" lon="5.14332">
        <ele>191.4</ele>
        <time>2022-06-25T07:39:41Z</time>
      </trkpt>
      <trkpt lat="46.64324" lon="5.14321">
        <ele>191</ele>
        <time>2022-06-25T07:39:42Z</time>
      </trkpt>
      <trkpt lat="46.64318" lon="5.14308">
        <ele>190.6</ele>
        <time>2022-06-25T07:39:43Z</time>
      </trkpt>
      <trkpt lat="46.64312" lon="5.14296">
        <ele>190.2</ele>
        <time>2022-06-25T07:39:44Z</time>
      </trkpt>
      <trkpt lat="46.64305" lon="5.14285">
        <ele>190</ele>
        <time>2022-06-25T07:39:45Z</time>
      </trkpt>
      <trkpt lat="46.64299" lon="5.14274">
        <ele>189.6</ele>
        <time>2022-06-25T07:39:46Z</time>
      </trkpt>
      <trkpt lat="46.64294" lon="5.14263">
        <ele>189.4</ele>
        <time>2022-06-25T07:39:47Z</time>
      </trkpt>
      <trkpt lat="46.64287" lon="5.14253">
        <ele>189.4</ele>
        <time>2022-06-25T07:39:48Z</time>
      </trkpt>
      <trkpt lat="46.64282" lon="5.14244">
        <ele>189.2</ele>
        <time>2022-06-25T07:39:49Z</time>
      </trkpt>
      <trkpt lat="46.64275" lon="5.14234">
        <ele>189.2</ele>
        <time>2022-06-25T07:39:50Z</time>
      </trkpt>
      <trkpt lat="46.6427" lon="5.14224">
        <ele>188.8</ele>
        <time>2022-06-25T07:39:51Z</time>
      </trkpt>
      <trkpt lat="46.64266" lon="5.14216">
        <ele>188.8</ele>
        <time>2022-06-25T07:39:52Z</time>
      </trkpt>
      <trkpt lat="46.64261" lon="5.14207">
        <ele>189.2</ele>
        <time>2022-06-25T07:39:53Z</time>
      </trkpt>
      <trkpt lat="46.64256" lon="5.14199">
        <ele>189.2</ele>
        <time>2022-06-25T07:39:54Z</time>
      </trkpt>
      <trkpt lat="46.64251" lon="5.1419">
        <ele>189.2</ele>
        <time>2022-06-25T07:39:55Z</time>
      </trkpt>
      <trkpt lat="46.64246" lon="5.14182">
        <ele>189.2</ele>
        <time>2022-06-25T07:39:56Z</time>
      </trkpt>
      <trkpt lat="46.64242" lon="5.14174">
        <ele>189.2</ele>
        <time>2022-06-25T07:39:57Z</time>
      </trkpt>
      <trkpt lat="46.64237" lon="5.14166">
        <ele>189.4</ele>
        <time>2022-06-25T07:39:58Z</time>
      </trkpt>
      <trkpt lat="46.64232" lon="5.14158">
        <ele>189.4</ele>
        <time>2022-06-25T07:39:59Z</time>
      </trkpt>
      <trkpt lat="46.64228" lon="5.1415">
        <ele>189.6</ele>
        <time>2022-06-25T07:40:00Z</time>
      </trkpt>
      <trkpt lat="46.64224" lon="5.14143">
        <ele>189.6</ele>
        <time>2022-06-25T07:40:01Z</time>
      </trkpt>
      <trkpt lat="46.6422" lon="5.14135">
        <ele>190</ele>
        <time>2022-06-25T07:40:02Z</time>
      </trkpt>
      <trkpt lat="46.64216" lon="5.14128">
        <ele>190</ele>
        <time>2022-06-25T07:40:03Z</time>
      </trkpt>
      <trkpt lat="46.64212" lon="5.14121">
        <ele>190.2</ele>
        <time>2022-06-25T07:40:04Z</time>
      </trkpt>
      <trkpt lat="46.64208" lon="5.14114">
        <ele>190.2</ele>
        <time>2022-06-25T07:40:05Z</time>
      </trkpt>
      <trkpt lat="46.64204" lon="5.14107">
        <ele>190.6</ele>
        <time>2022-06-25T07:40:06Z</time>
      </trkpt>
      <trkpt lat="46.642" lon="5.141">
        <ele>190.6</ele>
        <time>2022-06-25T07:40:07Z</time>
      </trkpt>
      <trkpt lat="46.64196" lon="5.14093">
        <ele>190.8</ele>
        <time>2022-06-25T07:40:08Z</time>
      </trkpt>
      <trkpt lat="46.64192" lon="5.14086">
        <ele>190.8</ele>
        <time>2022-06-25T07:40:09Z</time>
      </trkpt>
      <trkpt lat="46.64188" lon="5.14079">
        <ele>190.8</ele>
        <time>2022-06-25T07:40:10Z</time>
      </trkpt>
      <trkpt lat="46.64184" lon="5.14072">
        <ele>190.8</ele>
        <time>2022-06-25T07:40:11Z</time>
      </trkpt>
      <trkpt lat="46.64179" lon="5.14064">
        <ele>191</ele>
        <time>2022-06-25T07:40:12Z</time>
      </trkpt>
      <trkpt lat="46.64175" lon="5.14057">
        <ele>191</ele>
        <time>2022-06-25T07:40:13Z</time>
      </trkpt>
      <trkpt lat="46.64171" lon="5.14049">
        <ele>191</ele>
        <time>2022-06-25T07:40:14Z</time>
      </trkpt>
      <trkpt lat="46.64166" lon="5.14041">
        <ele>191</ele>
        <time>2022-06-25T07:40:15Z</time>
      </trkpt>
      <trkpt lat="46.64162" lon="5.14033">
        <ele>191</ele>
        <time>2022-06-25T07:40:16Z</time>
      </trkpt>
      <trkpt lat="46.64157" lon="5.14025">
        <ele>191</ele>
        <time>2022-06-25T07:40:17Z</time>
      </trkpt>
      <trkpt lat="46.64153" lon="5.14017">
        <ele>191</ele>
        <time>2022-06-25T07:40:18Z</time>
      </trkpt>
      <trkpt lat="46.64148" lon="5.14009">
        <ele>190.8</ele>
        <time>2022-06-25T07:40:19Z</time>
      </trkpt>
      <trkpt lat="46.64143" lon="5.14">
        <ele>190.8</ele>
        <time>2022-06-25T07:40:20Z</time>
      </trkpt>
      <trkpt lat="46.64138" lon="5.13992">
        <ele>190.8</ele>
        <time>2022-06-25T07:40:21Z</time>
      </trkpt>
      <trkpt lat="46.64134" lon="5.13983">
        <ele>190.8</ele>
        <time>2022-06-25T07:40:22Z</time>
      </trkpt>
      <trkpt lat="46.64129" lon="5.13975">
        <ele>190.8</ele>
        <time>2022-06-25T07:40:23Z</time>
      </trkpt>
      <trkpt lat="46.64124" lon="5.13966">
        <ele>190.8</ele>
        <time>2022-06-25T07:40:24Z</time>
      </trkpt>
      <trkpt lat="46.64119" lon="5.13958">
        <ele>190.6</ele>
        <time>2022-06-25T07:40:25Z</time>
      </trkpt>
      <trkpt lat="46.64114" lon="5.13949">
        <ele>190.6</ele>
        <time>2022-06-25T07:40:26Z</time>
      </trkpt>
      <trkpt lat="46.64109" lon="5.13941">
        <ele>190.6</ele>
        <time>2022-06-25T07:40:27Z</time>
      </trkpt>
      <trkpt lat="46.64104" lon="5.13932">
        <ele>190.6</ele>
        <time>2022-06-25T07:40:28Z</time>
      </trkpt>
      <trkpt lat="46.64099" lon="5.13923">
        <ele>190.6</ele>
        <time>2022-06-25T07:40:29Z</time>
      </trkpt>
      <trkpt lat="46.64095" lon="5.13915">
        <ele>190.6</ele>
        <time>2022-06-25T07:40:30Z</time>
      </trkpt>
      <trkpt lat="46.6409" lon="5.13906">
        <ele>190.6</ele>
        <time>2022-06-25T07:40:31Z</time>
      </trkpt>
      <trkpt lat="46.64085" lon="5.13898">
        <ele>190.2</ele>
        <time>2022-06-25T07:40:32Z</time>
      </trkpt>
      <trkpt lat="46.6408" lon="5.13889">
        <ele>190.2</ele>
        <time>2022-06-25T07:40:33Z</time>
      </trkpt>
      <trkpt lat="46.64075" lon="5.1388">
        <ele>190.2</ele>
        <time>2022-06-25T07:40:34Z</time>
      </trkpt>
      <trkpt lat="46.6407" lon="5.13872">
        <ele>190</ele>
        <time>2022-06-25T07:40:35Z</time>
      </trkpt>
      <trkpt lat="46.64065" lon="5.13863">
        <ele>190</ele>
        <time>2022-06-25T07:40:36Z</time>
      </trkpt>
      <trkpt lat="46.6406" lon="5.13854">
        <ele>190</ele>
        <time>2022-06-25T07:40:37Z</time>
      </trkpt>
      <trkpt lat="46.64055" lon="5.13845">
        <ele>190</ele>
        <time>2022-06-25T07:40:38Z</time>
      </trkpt>
      <trkpt lat="46.6405" lon="5.13837">
        <ele>189.8</ele>
        <time>2022-06-25T07:40:39Z</time>
      </trkpt>
      <trkpt lat="46.64045" lon="5.13828">
        <ele>189.8</ele>
        <time>2022-06-25T07:40:40Z</time>
      </trkpt>
      <trkpt lat="46.6404" lon="5.13819">
        <ele>189.8</ele>
        <time>2022-06-25T07:40:41Z</time>
      </trkpt>
      <trkpt lat="46.64035" lon="5.13811">
        <ele>189.8</ele>
        <time>2022-06-25T07:40:42Z</time>
      </trkpt>
      <trkpt lat="46.6403" lon="5.13802">
        <ele>189.4</ele>
        <time>2022-06-25T07:40:43Z</time>
      </trkpt>
      <trkpt lat="46.64026" lon="5.13793">
        <ele>189.4</ele>
        <time>2022-06-25T07:40:44Z</time>
      </trkpt>
      <trkpt lat="46.64021" lon="5.13785">
        <ele>189.4</ele>
        <time>2022-06-25T07:40:45Z</time>
      </trkpt>
      <trkpt lat="46.64016" lon="5.13776">
        <ele>189.2</ele>
        <time>2022-06-25T07:40:46Z</time>
      </trkpt>
      <trkpt lat="46.64011" lon="5.13767">
        <ele>189.2</ele>
        <time>2022-06-25T07:40:47Z</time>
      </trkpt>
      <trkpt lat="46.64006" lon="5.13759">
        <ele>189.2</ele>
        <time>2022-06-25T07:40:48Z</time>
      </trkpt>
      <trkpt lat="46.64001" lon="5.1375">
        <ele>189.2</ele>
        <time>2022-06-25T07:40:49Z</time>
      </trkpt>
      <trkpt lat="46.63996" lon="5.13741">
        <ele>189</ele>
        <time>2022-06-25T07:40:50Z</time>
      </trkpt>
      <trkpt lat="46.63991" lon="5.13732">
        <ele>189</ele>
        <time>2022-06-25T07:40:51Z</time>
      </trkpt>
      <trkpt lat="46.63986" lon="5.13723">
        <ele>189</ele>
        <time>2022-06-25T07:40:52Z</time>
      </trkpt>
      <trkpt lat="46.63981" lon="5.13715">
        <ele>188.8</ele>
        <time>2022-06-25T07:40:53Z</time>
      </trkpt>
      <trkpt lat="46.63976" lon="5.13706">
        <ele>188.8</ele>
        <time>2022-06-25T07:40:54Z</time>
      </trkpt>
      <trkpt lat="46.63971" lon="5.13698">
        <ele>188.8</ele>
        <time>2022-06-25T07:40:55Z</time>
      </trkpt>
      <trkpt lat="46.63965" lon="5.1369">
        <ele>188.8</ele>
        <time>2022-06-25T07:40:56Z</time>
      </trkpt>
      <trkpt lat="46.6396" lon="5.13682">
        <ele>188.8</ele>
        <time>2022-06-25T07:40:57Z</time>
      </trkpt>
      <trkpt lat="46.63953" lon="5.13675">
        <ele>188.8</ele>
        <time>2022-06-25T07:40:58Z</time>
      </trkpt>
      <trkpt lat="46.63947" lon="5.13668">
        <ele>188.6</ele>
        <time>2022-06-25T07:40:59Z</time>
      </trkpt>
      <trkpt lat="46.63941" lon="5.13661">
        <ele>188.6</ele>
        <time>2022-06-25T07:41:00Z</time>
      </trkpt>
      <trkpt lat="46.63934" lon="5.13655">
        <ele>188.6</ele>
        <time>2022-06-25T07:41:01Z</time>
      </trkpt>
      <trkpt lat="46.63928" lon="5.13649">
        <ele>188.6</ele>
        <time>2022-06-25T07:41:02Z</time>
      </trkpt>
      <trkpt lat="46.63921" lon="5.13643">
        <ele>188.6</ele>
        <time>2022-06-25T07:41:03Z</time>
      </trkpt>
      <trkpt lat="46.63914" lon="5.13638">
        <ele>188.2</ele>
        <time>2022-06-25T07:41:04Z</time>
      </trkpt>
      <trkpt lat="46.63908" lon="5.13632">
        <ele>188.2</ele>
        <time>2022-06-25T07:41:05Z</time>
      </trkpt>
      <trkpt lat="46.63901" lon="5.13627">
        <ele>188.2</ele>
        <time>2022-06-25T07:41:06Z</time>
      </trkpt>
      <trkpt lat="46.63895" lon="5.13621">
        <ele>188</ele>
        <time>2022-06-25T07:41:07Z</time>
      </trkpt>
      <trkpt lat="46.63888" lon="5.13615">
        <ele>188</ele>
        <time>2022-06-25T07:41:08Z</time>
      </trkpt>
      <trkpt lat="46.63881" lon="5.1361">
        <ele>188</ele>
        <time>2022-06-25T07:41:09Z</time>
      </trkpt>
      <trkpt lat="46.63875" lon="5.13604">
        <ele>187.8</ele>
        <time>2022-06-25T07:41:10Z</time>
      </trkpt>
      <trkpt lat="46.63869" lon="5.13599">
        <ele>187.8</ele>
        <time>2022-06-25T07:41:11Z</time>
      </trkpt>
      <trkpt lat="46.63862" lon="5.13593">
        <ele>187.8</ele>
        <time>2022-06-25T07:41:12Z</time>
      </trkpt>
      <trkpt lat="46.63855" lon="5.13588">
        <ele>187.6</ele>
        <time>2022-06-25T07:41:13Z</time>
      </trkpt>
      <trkpt lat="46.63849" lon="5.13582">
        <ele>187.6</ele>
        <time>2022-06-25T07:41:14Z</time>
      </trkpt>
      <trkpt lat="46.63842" lon="5.13576">
        <ele>187.6</ele>
        <time>2022-06-25T07:41:15Z</time>
      </trkpt>
      <trkpt lat="46.63836" lon="5.13571">
        <ele>187.6</ele>
        <time>2022-06-25T07:41:16Z</time>
      </trkpt>
      <trkpt lat="46.63829" lon="5.13565">
        <ele>187.6</ele>
        <time>2022-06-25T07:41:17Z</time>
      </trkpt>
      <trkpt lat="46.63823" lon="5.1356">
        <ele>187.2</ele>
        <time>2022-06-25T07:41:18Z</time>
      </trkpt>
      <trkpt lat="46.63816" lon="5.13554">
        <ele>187.2</ele>
        <time>2022-06-25T07:41:19Z</time>
      </trkpt>
      <trkpt lat="46.6381" lon="5.13549">
        <ele>187.2</ele>
        <time>2022-06-25T07:41:20Z</time>
      </trkpt>
      <trkpt lat="46.63803" lon="5.13543">
        <ele>187.2</ele>
        <time>2022-06-25T07:41:21Z</time>
      </trkpt>
      <trkpt lat="46.63796" lon="5.13538">
        <ele>187</ele>
        <time>2022-06-25T07:41:22Z</time>
      </trkpt>
      <trkpt lat="46.6379" lon="5.13532">
        <ele>187</ele>
        <time>2022-06-25T07:41:23Z</time>
      </trkpt>
      <trkpt lat="46.63784" lon="5.13526">
        <ele>187</ele>
        <time>2022-06-25T07:41:24Z</time>
      </trkpt>
      <trkpt lat="46.63777" lon="5.13521">
        <ele>187</ele>
        <time>2022-06-25T07:41:25Z</time>
      </trkpt>
      <trkpt lat="46.63771" lon="5.13515">
        <ele>186.8</ele>
        <time>2022-06-25T07:41:26Z</time>
      </trkpt>
      <trkpt lat="46.63764" lon="5.1351">
        <ele>186.8</ele>
        <time>2022-06-25T07:41:27Z</time>
      </trkpt>
      <trkpt lat="46.63757" lon="5.13505">
        <ele>186.8</ele>
        <time>2022-06-25T07:41:28Z</time>
      </trkpt>
      <trkpt lat="46.6375" lon="5.135">
        <ele>186.8</ele>
        <time>2022-06-25T07:41:29Z</time>
      </trkpt>
      <trkpt lat="46.63744" lon="5.13496">
        <ele>186.8</ele>
        <time>2022-06-25T07:41:30Z</time>
      </trkpt>
      <trkpt lat="46.63737" lon="5.13491">
        <ele>186.8</ele>
        <time>2022-06-25T07:41:31Z</time>
      </trkpt>
      <trkpt lat="46.6373" lon="5.13486">
        <ele>186.8</ele>
        <time>2022-06-25T07:41:32Z</time>
      </trkpt>
      <trkpt lat="46.63723" lon="5.13482">
        <ele>186.8</ele>
        <time>2022-06-25T07:41:33Z</time>
      </trkpt>
      <trkpt lat="46.63716" lon="5.13477">
        <ele>186.8</ele>
        <time>2022-06-25T07:41:34Z</time>
      </trkpt>
      <trkpt lat="46.6371" lon="5.13472">
        <ele>186.8</ele>
        <time>2022-06-25T07:41:35Z</time>
      </trkpt>
      <trkpt lat="46.63703" lon="5.13467">
        <ele>186.6</ele>
        <time>2022-06-25T07:41:36Z</time>
      </trkpt>
      <trkpt lat="46.63696" lon="5.13463">
        <ele>186.6</ele>
        <time>2022-06-25T07:41:37Z</time>
      </trkpt>
      <trkpt lat="46.63689" lon="5.13458">
        <ele>186.6</ele>
        <time>2022-06-25T07:41:38Z</time>
      </trkpt>
      <trkpt lat="46.63682" lon="5.13454">
        <ele>186.6</ele>
        <time>2022-06-25T07:41:39Z</time>
      </trkpt>
      <trkpt lat="46.63675" lon="5.13449">
        <ele>186.6</ele>
        <time>2022-06-25T07:41:40Z</time>
      </trkpt>
      <trkpt lat="46.63669" lon="5.13445">
        <ele>186.6</ele>
        <time>2022-06-25T07:41:41Z</time>
      </trkpt>
      <trkpt lat="46.63662" lon="5.1344">
        <ele>186.6</ele>
        <time>2022-06-25T07:41:42Z</time>
      </trkpt>
      <trkpt lat="46.63655" lon="5.13435">
        <ele>186.6</ele>
        <time>2022-06-25T07:41:43Z</time>
      </trkpt>
      <trkpt lat="46.63648" lon="5.13431">
        <ele>186.6</ele>
        <time>2022-06-25T07:41:44Z</time>
      </trkpt>
      <trkpt lat="46.63641" lon="5.13426">
        <ele>186.6</ele>
        <time>2022-06-25T07:41:45Z</time>
      </trkpt>
      <trkpt lat="46.63634" lon="5.13421">
        <ele>186.6</ele>
        <time>2022-06-25T07:41:46Z</time>
      </trkpt>
      <trkpt lat="46.63627" lon="5.13417">
        <ele>186.6</ele>
        <time>2022-06-25T07:41:47Z</time>
      </trkpt>
      <trkpt lat="46.63621" lon="5.13412">
        <ele>186.6</ele>
        <time>2022-06-25T07:41:48Z</time>
      </trkpt>
      <trkpt lat="46.63614" lon="5.13406">
        <ele>186.6</ele>
        <time>2022-06-25T07:41:49Z</time>
      </trkpt>
      <trkpt lat="46.63608" lon="5.13401">
        <ele>186.4</ele>
        <time>2022-06-25T07:41:50Z</time>
      </trkpt>
      <trkpt lat="46.63602" lon="5.13395">
        <ele>186.4</ele>
        <time>2022-06-25T07:41:51Z</time>
      </trkpt>
      <trkpt lat="46.63596" lon="5.13388">
        <ele>186.4</ele>
        <time>2022-06-25T07:41:52Z</time>
      </trkpt>
      <trkpt lat="46.6359" lon="5.13381">
        <ele>186.4</ele>
        <time>2022-06-25T07:41:53Z</time>
      </trkpt>
      <trkpt lat="46.63585" lon="5.13374">
        <ele>186.4</ele>
        <time>2022-06-25T07:41:54Z</time>
      </trkpt>
      <trkpt lat="46.6358" lon="5.13367">
        <ele>186.2</ele>
        <time>2022-06-25T07:41:55Z</time>
      </trkpt>
      <trkpt lat="46.63574" lon="5.13359">
        <ele>186.2</ele>
        <time>2022-06-25T07:41:56Z</time>
      </trkpt>
      <trkpt lat="46.63569" lon="5.13352">
        <ele>186.2</ele>
        <time>2022-06-25T07:41:57Z</time>
      </trkpt>
      <trkpt lat="46.63565" lon="5.13345">
        <ele>186.2</ele>
        <time>2022-06-25T07:41:58Z</time>
      </trkpt>
      <trkpt lat="46.6356" lon="5.13337">
        <ele>186.2</ele>
        <time>2022-06-25T07:41:59Z</time>
      </trkpt>
      <trkpt lat="46.63555" lon="5.1333">
        <ele>186.2</ele>
        <time>2022-06-25T07:42:00Z</time>
      </trkpt>
      <trkpt lat="46.6355" lon="5.13323">
        <ele>186.2</ele>
        <time>2022-06-25T07:42:01Z</time>
      </trkpt>
      <trkpt lat="46.63546" lon="5.13316">
        <ele>186.2</ele>
        <time>2022-06-25T07:42:02Z</time>
      </trkpt>
      <trkpt lat="46.63541" lon="5.13309">
        <ele>186.2</ele>
        <time>2022-06-25T07:42:03Z</time>
      </trkpt>
      <trkpt lat="46.63536" lon="5.13302">
        <ele>186.2</ele>
        <time>2022-06-25T07:42:04Z</time>
      </trkpt>
      <trkpt lat="46.63531" lon="5.13295">
        <ele>186.2</ele>
        <time>2022-06-25T07:42:05Z</time>
      </trkpt>
      <trkpt lat="46.63527" lon="5.13288">
        <ele>186.2</ele>
        <time>2022-06-25T07:42:06Z</time>
      </trkpt>
      <trkpt lat="46.63522" lon="5.13281">
        <ele>186.2</ele>
        <time>2022-06-25T07:42:07Z</time>
      </trkpt>
      <trkpt lat="46.63517" lon="5.13273">
        <ele>186.2</ele>
        <time>2022-06-25T07:42:08Z</time>
      </trkpt>
      <trkpt lat="46.63512" lon="5.13266">
        <ele>186.2</ele>
        <time>2022-06-25T07:42:09Z</time>
      </trkpt>
      <trkpt lat="46.63508" lon="5.13259">
        <ele>186.2</ele>
        <time>2022-06-25T07:42:10Z</time>
      </trkpt>
      <trkpt lat="46.63503" lon="5.13251">
        <ele>186.2</ele>
        <time>2022-06-25T07:42:11Z</time>
      </trkpt>
      <trkpt lat="46.63499" lon="5.13244">
        <ele>186.2</ele>
        <time>2022-06-25T07:42:12Z</time>
      </trkpt>
      <trkpt lat="46.63494" lon="5.13236">
        <ele>186.2</ele>
        <time>2022-06-25T07:42:13Z</time>
      </trkpt>
      <trkpt lat="46.6349" lon="5.13229">
        <ele>186.2</ele>
        <time>2022-06-25T07:42:14Z</time>
      </trkpt>
      <trkpt lat="46.63485" lon="5.13222">
        <ele>186.2</ele>
        <time>2022-06-25T07:42:15Z</time>
      </trkpt>
      <trkpt lat="46.63481" lon="5.13215">
        <ele>186.2</ele>
        <time>2022-06-25T07:42:16Z</time>
      </trkpt>
      <trkpt lat="46.63476" lon="5.13207">
        <ele>186.2</ele>
        <time>2022-06-25T07:42:17Z</time>
      </trkpt>
      <trkpt lat="46.63472" lon="5.132">
        <ele>186.2</ele>
        <time>2022-06-25T07:42:18Z</time>
      </trkpt>
      <trkpt lat="46.63467" lon="5.13193">
        <ele>186.2</ele>
        <time>2022-06-25T07:42:19Z</time>
      </trkpt>
      <trkpt lat="46.63462" lon="5.13186">
        <ele>186.2</ele>
        <time>2022-06-25T07:42:20Z</time>
      </trkpt>
      <trkpt lat="46.63458" lon="5.13179">
        <ele>186.2</ele>
        <time>2022-06-25T07:42:21Z</time>
      </trkpt>
      <trkpt lat="46.63453" lon="5.13171">
        <ele>186.2</ele>
        <time>2022-06-25T07:42:22Z</time>
      </trkpt>
      <trkpt lat="46.63448" lon="5.13164">
        <ele>186.2</ele>
        <time>2022-06-25T07:42:23Z</time>
      </trkpt>
      <trkpt lat="46.63444" lon="5.13157">
        <ele>186.2</ele>
        <time>2022-06-25T07:42:24Z</time>
      </trkpt>
      <trkpt lat="46.6344" lon="5.1315">
        <ele>186.2</ele>
        <time>2022-06-25T07:42:25Z</time>
      </trkpt>
      <trkpt lat="46.63435" lon="5.13143">
        <ele>186.2</ele>
        <time>2022-06-25T07:42:26Z</time>
      </trkpt>
      <trkpt lat="46.63429" lon="5.13136">
        <ele>186.2</ele>
        <time>2022-06-25T07:42:27Z</time>
      </trkpt>
      <trkpt lat="46.63424" lon="5.13128">
        <ele>186.2</ele>
        <time>2022-06-25T07:42:28Z</time>
      </trkpt>
      <trkpt lat="46.63419" lon="5.13121">
        <ele>186.2</ele>
        <time>2022-06-25T07:42:29Z</time>
      </trkpt>
      <trkpt lat="46.63414" lon="5.13113">
        <ele>186.2</ele>
        <time>2022-06-25T07:42:30Z</time>
      </trkpt>
      <trkpt lat="46.63408" lon="5.13105">
        <ele>186</ele>
        <time>2022-06-25T07:42:31Z</time>
      </trkpt>
      <trkpt lat="46.63402" lon="5.13097">
        <ele>186</ele>
        <time>2022-06-25T07:42:32Z</time>
      </trkpt>
      <trkpt lat="46.63396" lon="5.13089">
        <ele>186</ele>
        <time>2022-06-25T07:42:33Z</time>
      </trkpt>
      <trkpt lat="46.6339" lon="5.13081">
        <ele>185.8</ele>
        <time>2022-06-25T07:42:34Z</time>
      </trkpt>
      <trkpt lat="46.63384" lon="5.13073">
        <ele>185.8</ele>
        <time>2022-06-25T07:42:35Z</time>
      </trkpt>
      <trkpt lat="46.63378" lon="5.13065">
        <ele>185.8</ele>
        <time>2022-06-25T07:42:36Z</time>
      </trkpt>
      <trkpt lat="46.63373" lon="5.13057">
        <ele>185.4</ele>
        <time>2022-06-25T07:42:37Z</time>
      </trkpt>
      <trkpt lat="46.63367" lon="5.13049">
        <ele>185.4</ele>
        <time>2022-06-25T07:42:38Z</time>
      </trkpt>
      <trkpt lat="46.63361" lon="5.13041">
        <ele>185.2</ele>
        <time>2022-06-25T07:42:39Z</time>
      </trkpt>
      <trkpt lat="46.63356" lon="5.13033">
        <ele>185.2</ele>
        <time>2022-06-25T07:42:40Z</time>
      </trkpt>
      <trkpt lat="46.63351" lon="5.13025">
        <ele>185</ele>
        <time>2022-06-25T07:42:41Z</time>
      </trkpt>
      <trkpt lat="46.63345" lon="5.13017">
        <ele>185</ele>
        <time>2022-06-25T07:42:42Z</time>
      </trkpt>
      <trkpt lat="46.6334" lon="5.1301">
        <ele>185</ele>
        <time>2022-06-25T07:42:43Z</time>
      </trkpt>
      <trkpt lat="46.63334" lon="5.13003">
        <ele>185</ele>
        <time>2022-06-25T07:42:44Z</time>
      </trkpt>
      <trkpt lat="46.63329" lon="5.12996">
        <ele>185</ele>
        <time>2022-06-25T07:42:45Z</time>
      </trkpt>
      <trkpt lat="46.63324" lon="5.12989">
        <ele>185.2</ele>
        <time>2022-06-25T07:42:46Z</time>
      </trkpt>
      <trkpt lat="46.63319" lon="5.12983">
        <ele>185.2</ele>
        <time>2022-06-25T07:42:47Z</time>
      </trkpt>
      <trkpt lat="46.63314" lon="5.12977">
        <ele>185.2</ele>
        <time>2022-06-25T07:42:48Z</time>
      </trkpt>
      <trkpt lat="46.63309" lon="5.12972">
        <ele>185.2</ele>
        <time>2022-06-25T07:42:49Z</time>
      </trkpt>
      <trkpt lat="46.63304" lon="5.12968">
        <ele>185.2</ele>
        <time>2022-06-25T07:42:50Z</time>
      </trkpt>
      <trkpt lat="46.63299" lon="5.12963">
        <ele>185.4</ele>
        <time>2022-06-25T07:42:51Z</time>
      </trkpt>
      <trkpt lat="46.63293" lon="5.12959">
        <ele>185.4</ele>
        <time>2022-06-25T07:42:52Z</time>
      </trkpt>
      <trkpt lat="46.63288" lon="5.12956">
        <ele>185.4</ele>
        <time>2022-06-25T07:42:53Z</time>
      </trkpt>
      <trkpt lat="46.63283" lon="5.12952">
        <ele>185.4</ele>
        <time>2022-06-25T07:42:54Z</time>
      </trkpt>
      <trkpt lat="46.63278" lon="5.12949">
        <ele>185.8</ele>
        <time>2022-06-25T07:42:55Z</time>
      </trkpt>
      <trkpt lat="46.63272" lon="5.12945">
        <ele>185.8</ele>
        <time>2022-06-25T07:42:56Z</time>
      </trkpt>
      <trkpt lat="46.63267" lon="5.12942">
        <ele>186</ele>
        <time>2022-06-25T07:42:57Z</time>
      </trkpt>
      <trkpt lat="46.63262" lon="5.12938">
        <ele>186</ele>
        <time>2022-06-25T07:42:58Z</time>
      </trkpt>
      <trkpt lat="46.63257" lon="5.12935">
        <ele>186.4</ele>
        <time>2022-06-25T07:42:59Z</time>
      </trkpt>
      <trkpt lat="46.63253" lon="5.12932">
        <ele>186.4</ele>
        <time>2022-06-25T07:43:00Z</time>
      </trkpt>
      <trkpt lat="46.63248" lon="5.12929">
        <ele>186.6</ele>
        <time>2022-06-25T07:43:01Z</time>
      </trkpt>
      <trkpt lat="46.63243" lon="5.12926">
        <ele>186.6</ele>
        <time>2022-06-25T07:43:02Z</time>
      </trkpt>
      <trkpt lat="46.63238" lon="5.12923">
        <ele>187</ele>
        <time>2022-06-25T07:43:03Z</time>
      </trkpt>
      <trkpt lat="46.63234" lon="5.12919">
        <ele>187.2</ele>
        <time>2022-06-25T07:43:04Z</time>
      </trkpt>
      <trkpt lat="46.63229" lon="5.12916">
        <ele>187.6</ele>
        <time>2022-06-25T07:43:06Z</time>
      </trkpt>
      <trkpt lat="46.63225" lon="5.12913">
        <ele>187.8</ele>
        <time>2022-06-25T07:43:07Z</time>
      </trkpt>
      <trkpt lat="46.6322" lon="5.1291">
        <ele>187.8</ele>
        <time>2022-06-25T07:43:08Z</time>
      </trkpt>
      <trkpt lat="46.63216" lon="5.12907">
        <ele>188.2</ele>
        <time>2022-06-25T07:43:09Z</time>
      </trkpt>
      <trkpt lat="46.63211" lon="5.12904">
        <ele>188.4</ele>
        <time>2022-06-25T07:43:10Z</time>
      </trkpt>
      <trkpt lat="46.63206" lon="5.129">
        <ele>188.4</ele>
        <time>2022-06-25T07:43:11Z</time>
      </trkpt>
      <trkpt lat="46.63202" lon="5.12897">
        <ele>188.8</ele>
        <time>2022-06-25T07:43:12Z</time>
      </trkpt>
      <trkpt lat="46.63197" lon="5.12893">
        <ele>189</ele>
        <time>2022-06-25T07:43:13Z</time>
      </trkpt>
      <trkpt lat="46.63192" lon="5.1289">
        <ele>189</ele>
        <time>2022-06-25T07:43:14Z</time>
      </trkpt>
      <trkpt lat="46.63188" lon="5.12887">
        <ele>189.4</ele>
        <time>2022-06-25T07:43:15Z</time>
      </trkpt>
      <trkpt lat="46.63183" lon="5.12884">
        <ele>189.4</ele>
        <time>2022-06-25T07:43:16Z</time>
      </trkpt>
      <trkpt lat="46.63178" lon="5.12881">
        <ele>189.4</ele>
        <time>2022-06-25T07:43:17Z</time>
      </trkpt>
      <trkpt lat="46.63173" lon="5.12878">
        <ele>189.8</ele>
        <time>2022-06-25T07:43:18Z</time>
      </trkpt>
      <trkpt lat="46.63169" lon="5.12875">
        <ele>189.8</ele>
        <time>2022-06-25T07:43:19Z</time>
      </trkpt>
      <trkpt lat="46.63164" lon="5.12871">
        <ele>189.8</ele>
        <time>2022-06-25T07:43:20Z</time>
      </trkpt>
      <trkpt lat="46.6316" lon="5.12868">
        <ele>190</ele>
        <time>2022-06-25T07:43:21Z</time>
      </trkpt>
      <trkpt lat="46.63155" lon="5.12864">
        <ele>190</ele>
        <time>2022-06-25T07:43:22Z</time>
      </trkpt>
      <trkpt lat="46.6315" lon="5.1286">
        <ele>190</ele>
        <time>2022-06-25T07:43:23Z</time>
      </trkpt>
      <trkpt lat="46.63145" lon="5.12855">
        <ele>190</ele>
        <time>2022-06-25T07:43:24Z</time>
      </trkpt>
      <trkpt lat="46.63141" lon="5.12851">
        <ele>190.2</ele>
        <time>2022-06-25T07:43:25Z</time>
      </trkpt>
      <trkpt lat="46.63137" lon="5.12846">
        <ele>190.2</ele>
        <time>2022-06-25T07:43:26Z</time>
      </trkpt>
      <trkpt lat="46.63133" lon="5.12841">
        <ele>190.6</ele>
        <time>2022-06-25T07:43:27Z</time>
      </trkpt>
      <trkpt lat="46.63129" lon="5.12835">
        <ele>190.6</ele>
        <time>2022-06-25T07:43:28Z</time>
      </trkpt>
      <trkpt lat="46.63127" lon="5.1283">
        <ele>190.8</ele>
        <time>2022-06-25T07:43:29Z</time>
      </trkpt>
      <trkpt lat="46.63124" lon="5.12824">
        <ele>190.8</ele>
        <time>2022-06-25T07:43:30Z</time>
      </trkpt>
      <trkpt lat="46.63121" lon="5.12818">
        <ele>191</ele>
        <time>2022-06-25T07:43:31Z</time>
      </trkpt>
      <trkpt lat="46.63118" lon="5.12811">
        <ele>191</ele>
        <time>2022-06-25T07:43:32Z</time>
      </trkpt>
      <trkpt lat="46.63116" lon="5.12805">
        <ele>191.2</ele>
        <time>2022-06-25T07:43:33Z</time>
      </trkpt>
      <trkpt lat="46.63114" lon="5.12799">
        <ele>191.2</ele>
        <time>2022-06-25T07:43:34Z</time>
      </trkpt>
      <trkpt lat="46.63112" lon="5.12792">
        <ele>191.6</ele>
        <time>2022-06-25T07:43:35Z</time>
      </trkpt>
      <trkpt lat="46.6311" lon="5.12786">
        <ele>191.6</ele>
        <time>2022-06-25T07:43:36Z</time>
      </trkpt>
      <trkpt lat="46.63109" lon="5.1278">
        <ele>192.2</ele>
        <time>2022-06-25T07:43:37Z</time>
      </trkpt>
      <trkpt lat="46.63107" lon="5.12774">
        <ele>192.4</ele>
        <time>2022-06-25T07:43:38Z</time>
      </trkpt>
      <trkpt lat="46.63105" lon="5.12768">
        <ele>192.6</ele>
        <time>2022-06-25T07:43:39Z</time>
      </trkpt>
      <trkpt lat="46.63103" lon="5.12762">
        <ele>192.8</ele>
        <time>2022-06-25T07:43:40Z</time>
      </trkpt>
      <trkpt lat="46.63102" lon="5.12755">
        <ele>192.8</ele>
        <time>2022-06-25T07:43:41Z</time>
      </trkpt>
      <trkpt lat="46.631" lon="5.12749">
        <ele>193.2</ele>
        <time>2022-06-25T07:43:42Z</time>
      </trkpt>
      <trkpt lat="46.63099" lon="5.12742">
        <ele>193.4</ele>
        <time>2022-06-25T07:43:43Z</time>
      </trkpt>
      <trkpt lat="46.63097" lon="5.12735">
        <ele>193.8</ele>
        <time>2022-06-25T07:43:44Z</time>
      </trkpt>
      <trkpt lat="46.63095" lon="5.12728">
        <ele>194</ele>
        <time>2022-06-25T07:43:45Z</time>
      </trkpt>
      <trkpt lat="46.63093" lon="5.12722">
        <ele>194.2</ele>
        <time>2022-06-25T07:43:46Z</time>
      </trkpt>
      <trkpt lat="46.63092" lon="5.12715">
        <ele>194.4</ele>
        <time>2022-06-25T07:43:47Z</time>
      </trkpt>
      <trkpt lat="46.6309" lon="5.12709">
        <ele>194.4</ele>
        <time>2022-06-25T07:43:48Z</time>
      </trkpt>
      <trkpt lat="46.63088" lon="5.12703">
        <ele>194.6</ele>
        <time>2022-06-25T07:43:49Z</time>
      </trkpt>
      <trkpt lat="46.63086" lon="5.12697">
        <ele>194.6</ele>
        <time>2022-06-25T07:43:50Z</time>
      </trkpt>
      <trkpt lat="46.63085" lon="5.12691">
        <ele>195.2</ele>
        <time>2022-06-25T07:43:51Z</time>
      </trkpt>
      <trkpt lat="46.63083" lon="5.12686">
        <ele>195.4</ele>
        <time>2022-06-25T07:43:52Z</time>
      </trkpt>
      <trkpt lat="46.63081" lon="5.1268">
        <ele>195.6</ele>
        <time>2022-06-25T07:43:53Z</time>
      </trkpt>
      <trkpt lat="46.6308" lon="5.12675">
        <ele>195.8</ele>
        <time>2022-06-25T07:43:54Z</time>
      </trkpt>
      <trkpt lat="46.63078" lon="5.12669">
        <ele>195.8</ele>
        <time>2022-06-25T07:43:55Z</time>
      </trkpt>
      <trkpt lat="46.63077" lon="5.12664">
        <ele>196.2</ele>
        <time>2022-06-25T07:43:56Z</time>
      </trkpt>
      <trkpt lat="46.63075" lon="5.12658">
        <ele>196.2</ele>
        <time>2022-06-25T07:43:57Z</time>
      </trkpt>
      <trkpt lat="46.63074" lon="5.12653">
        <ele>196.6</ele>
        <time>2022-06-25T07:43:58Z</time>
      </trkpt>
      <trkpt lat="46.63072" lon="5.12647">
        <ele>196.6</ele>
        <time>2022-06-25T07:43:59Z</time>
      </trkpt>
      <trkpt lat="46.6307" lon="5.12641">
        <ele>196.8</ele>
        <time>2022-06-25T07:44:00Z</time>
      </trkpt>
      <trkpt lat="46.63068" lon="5.12635">
        <ele>197</ele>
        <time>2022-06-25T07:44:01Z</time>
      </trkpt>
      <trkpt lat="46.63067" lon="5.12629">
        <ele>197</ele>
        <time>2022-06-25T07:44:02Z</time>
      </trkpt>
      <trkpt lat="46.63065" lon="5.12623">
        <ele>197.4</ele>
        <time>2022-06-25T07:44:03Z</time>
      </trkpt>
      <trkpt lat="46.63063" lon="5.12616">
        <ele>197.4</ele>
        <time>2022-06-25T07:44:04Z</time>
      </trkpt>
      <trkpt lat="46.63061" lon="5.12609">
        <ele>197.8</ele>
        <time>2022-06-25T07:44:05Z</time>
      </trkpt>
      <trkpt lat="46.63059" lon="5.12603">
        <ele>197.8</ele>
        <time>2022-06-25T07:44:06Z</time>
      </trkpt>
      <trkpt lat="46.63057" lon="5.12596">
        <ele>198</ele>
        <time>2022-06-25T07:44:07Z</time>
      </trkpt>
      <trkpt lat="46.63056" lon="5.12589">
        <ele>198</ele>
        <time>2022-06-25T07:44:08Z</time>
      </trkpt>
      <trkpt lat="46.63054" lon="5.12582">
        <ele>198.2</ele>
        <time>2022-06-25T07:44:09Z</time>
      </trkpt>
      <trkpt lat="46.63052" lon="5.12576">
        <ele>198.2</ele>
        <time>2022-06-25T07:44:10Z</time>
      </trkpt>
      <trkpt lat="46.6305" lon="5.12569">
        <ele>198.6</ele>
        <time>2022-06-25T07:44:11Z</time>
      </trkpt>
      <trkpt lat="46.63048" lon="5.12562">
        <ele>198.6</ele>
        <time>2022-06-25T07:44:12Z</time>
      </trkpt>
      <trkpt lat="46.63046" lon="5.12555">
        <ele>198.8</ele>
        <time>2022-06-25T07:44:13Z</time>
      </trkpt>
      <trkpt lat="46.63044" lon="5.12547">
        <ele>198.8</ele>
        <time>2022-06-25T07:44:14Z</time>
      </trkpt>
      <trkpt lat="46.63042" lon="5.1254">
        <ele>198.8</ele>
        <time>2022-06-25T07:44:15Z</time>
      </trkpt>
      <trkpt lat="46.6304" lon="5.12533">
        <ele>199</ele>
        <time>2022-06-25T07:44:16Z</time>
      </trkpt>
      <trkpt lat="46.63038" lon="5.12525">
        <ele>199</ele>
        <time>2022-06-25T07:44:17Z</time>
      </trkpt>
      <trkpt lat="46.63036" lon="5.12518">
        <ele>199</ele>
        <time>2022-06-25T07:44:18Z</time>
      </trkpt>
      <trkpt lat="46.63034" lon="5.1251">
        <ele>199</ele>
        <time>2022-06-25T07:44:19Z</time>
      </trkpt>
      <trkpt lat="46.63031" lon="5.12502">
        <ele>199.2</ele>
        <time>2022-06-25T07:44:20Z</time>
      </trkpt>
      <trkpt lat="46.63029" lon="5.12494">
        <ele>199.2</ele>
        <time>2022-06-25T07:44:21Z</time>
      </trkpt>
      <trkpt lat="46.63027" lon="5.12487">
        <ele>199.2</ele>
        <time>2022-06-25T07:44:22Z</time>
      </trkpt>
      <trkpt lat="46.63025" lon="5.12479">
        <ele>199.6</ele>
        <time>2022-06-25T07:44:23Z</time>
      </trkpt>
      <trkpt lat="46.63023" lon="5.12472">
        <ele>199.6</ele>
        <time>2022-06-25T07:44:24Z</time>
      </trkpt>
      <trkpt lat="46.6302" lon="5.12464">
        <ele>199.6</ele>
        <time>2022-06-25T07:44:25Z</time>
      </trkpt>
      <trkpt lat="46.63018" lon="5.12456">
        <ele>199.6</ele>
        <time>2022-06-25T07:44:26Z</time>
      </trkpt>
      <trkpt lat="46.63016" lon="5.12449">
        <ele>199.8</ele>
        <time>2022-06-25T07:44:27Z</time>
      </trkpt>
      <trkpt lat="46.63014" lon="5.12441">
        <ele>199.8</ele>
        <time>2022-06-25T07:44:28Z</time>
      </trkpt>
      <trkpt lat="46.63012" lon="5.12434">
        <ele>200.2</ele>
        <time>2022-06-25T07:44:29Z</time>
      </trkpt>
      <trkpt lat="46.6301" lon="5.12427">
        <ele>200.4</ele>
        <time>2022-06-25T07:44:30Z</time>
      </trkpt>
      <trkpt lat="46.63008" lon="5.1242">
        <ele>200.6</ele>
        <time>2022-06-25T07:44:31Z</time>
      </trkpt>
      <trkpt lat="46.63006" lon="5.12414">
        <ele>200.8</ele>
        <time>2022-06-25T07:44:32Z</time>
      </trkpt>
      <trkpt lat="46.63005" lon="5.12408">
        <ele>201</ele>
        <time>2022-06-25T07:44:33Z</time>
      </trkpt>
      <trkpt lat="46.63003" lon="5.12402">
        <ele>201.4</ele>
        <time>2022-06-25T07:44:34Z</time>
      </trkpt>
      <trkpt lat="46.63001" lon="5.12395">
        <ele>201.6</ele>
        <time>2022-06-25T07:44:35Z</time>
      </trkpt>
      <trkpt lat="46.63" lon="5.12389">
        <ele>201.8</ele>
        <time>2022-06-25T07:44:36Z</time>
      </trkpt>
      <trkpt lat="46.62998" lon="5.12383">
        <ele>202</ele>
        <time>2022-06-25T07:44:37Z</time>
      </trkpt>
      <trkpt lat="46.62996" lon="5.12376">
        <ele>202.2</ele>
        <time>2022-06-25T07:44:38Z</time>
      </trkpt>
      <trkpt lat="46.62994" lon="5.12369">
        <ele>202.2</ele>
        <time>2022-06-25T07:44:39Z</time>
      </trkpt>
      <trkpt lat="46.62992" lon="5.12363">
        <ele>202.6</ele>
        <time>2022-06-25T07:44:40Z</time>
      </trkpt>
      <trkpt lat="46.6299" lon="5.12356">
        <ele>202.6</ele>
        <time>2022-06-25T07:44:41Z</time>
      </trkpt>
      <trkpt lat="46.62988" lon="5.12349">
        <ele>203</ele>
        <time>2022-06-25T07:44:42Z</time>
      </trkpt>
      <trkpt lat="46.62986" lon="5.12343">
        <ele>203.2</ele>
        <time>2022-06-25T07:44:43Z</time>
      </trkpt>
      <trkpt lat="46.62985" lon="5.12336">
        <ele>203.4</ele>
        <time>2022-06-25T07:44:44Z</time>
      </trkpt>
      <trkpt lat="46.62983" lon="5.12329">
        <ele>203.8</ele>
        <time>2022-06-25T07:44:45Z</time>
      </trkpt>
      <trkpt lat="46.62981" lon="5.12323">
        <ele>204.2</ele>
        <time>2022-06-25T07:44:46Z</time>
      </trkpt>
      <trkpt lat="46.62979" lon="5.12316">
        <ele>204.4</ele>
        <time>2022-06-25T07:44:47Z</time>
      </trkpt>
      <trkpt lat="46.62977" lon="5.12309">
        <ele>204.6</ele>
        <time>2022-06-25T07:44:48Z</time>
      </trkpt>
      <trkpt lat="46.62976" lon="5.12302">
        <ele>204.6</ele>
        <time>2022-06-25T07:44:49Z</time>
      </trkpt>
      <trkpt lat="46.62974" lon="5.12295">
        <ele>205</ele>
        <time>2022-06-25T07:44:50Z</time>
      </trkpt>
      <trkpt lat="46.62972" lon="5.12288">
        <ele>205</ele>
        <time>2022-06-25T07:44:51Z</time>
      </trkpt>
      <trkpt lat="46.6297" lon="5.12281">
        <ele>205.2</ele>
        <time>2022-06-25T07:44:52Z</time>
      </trkpt>
      <trkpt lat="46.62968" lon="5.12274">
        <ele>205.2</ele>
        <time>2022-06-25T07:44:53Z</time>
      </trkpt>
      <trkpt lat="46.62966" lon="5.12267">
        <ele>205.6</ele>
        <time>2022-06-25T07:44:54Z</time>
      </trkpt>
      <trkpt lat="46.62965" lon="5.12259">
        <ele>205.6</ele>
        <time>2022-06-25T07:44:55Z</time>
      </trkpt>
      <trkpt lat="46.62963" lon="5.12252">
        <ele>205.6</ele>
        <time>2022-06-25T07:44:56Z</time>
      </trkpt>
      <trkpt lat="46.62962" lon="5.12246">
        <ele>205.6</ele>
        <time>2022-06-25T07:44:57Z</time>
      </trkpt>
      <trkpt lat="46.6296" lon="5.12239">
        <ele>205.8</ele>
        <time>2022-06-25T07:44:58Z</time>
      </trkpt>
      <trkpt lat="46.62958" lon="5.12232">
        <ele>205.8</ele>
        <time>2022-06-25T07:44:59Z</time>
      </trkpt>
      <trkpt lat="46.62957" lon="5.12225">
        <ele>205.8</ele>
        <time>2022-06-25T07:45:00Z</time>
      </trkpt>
      <trkpt lat="46.62955" lon="5.12217">
        <ele>205.8</ele>
        <time>2022-06-25T07:45:01Z</time>
      </trkpt>
      <trkpt lat="46.62953" lon="5.12209">
        <ele>205.8</ele>
        <time>2022-06-25T07:45:02Z</time>
      </trkpt>
      <trkpt lat="46.62951" lon="5.12202">
        <ele>205.8</ele>
        <time>2022-06-25T07:45:03Z</time>
      </trkpt>
      <trkpt lat="46.62949" lon="5.12194">
        <ele>205.8</ele>
        <time>2022-06-25T07:45:04Z</time>
      </trkpt>
      <trkpt lat="46.62948" lon="5.12185">
        <ele>205.8</ele>
        <time>2022-06-25T07:45:05Z</time>
      </trkpt>
      <trkpt lat="46.62946" lon="5.12178">
        <ele>205.8</ele>
        <time>2022-06-25T07:45:06Z</time>
      </trkpt>
      <trkpt lat="46.62944" lon="5.1217">
        <ele>205.8</ele>
        <time>2022-06-25T07:45:07Z</time>
      </trkpt>
      <trkpt lat="46.62942" lon="5.12163">
        <ele>205.8</ele>
        <time>2022-06-25T07:45:08Z</time>
      </trkpt>
      <trkpt lat="46.62941" lon="5.12155">
        <ele>205.8</ele>
        <time>2022-06-25T07:45:09Z</time>
      </trkpt>
      <trkpt lat="46.6294" lon="5.12148">
        <ele>205.8</ele>
        <time>2022-06-25T07:45:10Z</time>
      </trkpt>
      <trkpt lat="46.62938" lon="5.12141">
        <ele>205.8</ele>
        <time>2022-06-25T07:45:11Z</time>
      </trkpt>
      <trkpt lat="46.62937" lon="5.12133">
        <ele>205.8</ele>
        <time>2022-06-25T07:45:12Z</time>
      </trkpt>
      <trkpt lat="46.62935" lon="5.12125">
        <ele>205.8</ele>
        <time>2022-06-25T07:45:13Z</time>
      </trkpt>
      <trkpt lat="46.62932" lon="5.12117">
        <ele>205.8</ele>
        <time>2022-06-25T07:45:14Z</time>
      </trkpt>
      <trkpt lat="46.6293" lon="5.12109">
        <ele>205.8</ele>
        <time>2022-06-25T07:45:15Z</time>
      </trkpt>
      <trkpt lat="46.62928" lon="5.12101">
        <ele>205.8</ele>
        <time>2022-06-25T07:45:16Z</time>
      </trkpt>
      <trkpt lat="46.62927" lon="5.12092">
        <ele>205.8</ele>
        <time>2022-06-25T07:45:17Z</time>
      </trkpt>
      <trkpt lat="46.62925" lon="5.12084">
        <ele>205.8</ele>
        <time>2022-06-25T07:45:18Z</time>
      </trkpt>
      <trkpt lat="46.62923" lon="5.12075">
        <ele>205.8</ele>
        <time>2022-06-25T07:45:19Z</time>
      </trkpt>
      <trkpt lat="46.62921" lon="5.12067">
        <ele>205.8</ele>
        <time>2022-06-25T07:45:20Z</time>
      </trkpt>
      <trkpt lat="46.6292" lon="5.12058">
        <ele>205.8</ele>
        <time>2022-06-25T07:45:21Z</time>
      </trkpt>
      <trkpt lat="46.62918" lon="5.12049">
        <ele>205.8</ele>
        <time>2022-06-25T07:45:22Z</time>
      </trkpt>
      <trkpt lat="46.62916" lon="5.1204">
        <ele>205.8</ele>
        <time>2022-06-25T07:45:23Z</time>
      </trkpt>
      <trkpt lat="46.62914" lon="5.12031">
        <ele>205.4</ele>
        <time>2022-06-25T07:45:24Z</time>
      </trkpt>
      <trkpt lat="46.62912" lon="5.12022">
        <ele>205.4</ele>
        <time>2022-06-25T07:45:25Z</time>
      </trkpt>
      <trkpt lat="46.62911" lon="5.12013">
        <ele>205.2</ele>
        <time>2022-06-25T07:45:26Z</time>
      </trkpt>
      <trkpt lat="46.62907" lon="5.11998">
        <ele>204.8</ele>
        <time>2022-06-25T07:45:27Z</time>
      </trkpt>
      <trkpt lat="46.62906" lon="5.11993">
        <ele>204.8</ele>
        <time>2022-06-25T07:45:28Z</time>
      </trkpt>
      <trkpt lat="46.62903" lon="5.11983">
        <ele>204.4</ele>
        <time>2022-06-25T07:45:29Z</time>
      </trkpt>
      <trkpt lat="46.62901" lon="5.11972">
        <ele>204.2</ele>
        <time>2022-06-25T07:45:30Z</time>
      </trkpt>
      <trkpt lat="46.62899" lon="5.11962">
        <ele>204</ele>
        <time>2022-06-25T07:45:31Z</time>
      </trkpt>
      <trkpt lat="46.62897" lon="5.11951">
        <ele>203.6</ele>
        <time>2022-06-25T07:45:32Z</time>
      </trkpt>
      <trkpt lat="46.62894" lon="5.11939">
        <ele>203.4</ele>
        <time>2022-06-25T07:45:33Z</time>
      </trkpt>
      <trkpt lat="46.62892" lon="5.11927">
        <ele>203.2</ele>
        <time>2022-06-25T07:45:34Z</time>
      </trkpt>
      <trkpt lat="46.62889" lon="5.11915">
        <ele>203</ele>
        <time>2022-06-25T07:45:35Z</time>
      </trkpt>
      <trkpt lat="46.62886" lon="5.11903">
        <ele>203</ele>
        <time>2022-06-25T07:45:36Z</time>
      </trkpt>
      <trkpt lat="46.62883" lon="5.1189">
        <ele>202.6</ele>
        <time>2022-06-25T07:45:37Z</time>
      </trkpt>
      <trkpt lat="46.62881" lon="5.11878">
        <ele>202.6</ele>
        <time>2022-06-25T07:45:38Z</time>
      </trkpt>
      <trkpt lat="46.62877" lon="5.11855">
        <ele>202.2</ele>
        <time>2022-06-25T07:45:39Z</time>
      </trkpt>
      <trkpt lat="46.62875" lon="5.11843">
        <ele>202.2</ele>
        <time>2022-06-25T07:45:40Z</time>
      </trkpt>
      <trkpt lat="46.62873" lon="5.11832">
        <ele>202.2</ele>
        <time>2022-06-25T07:45:41Z</time>
      </trkpt>
      <trkpt lat="46.6287" lon="5.11821">
        <ele>202.2</ele>
        <time>2022-06-25T07:45:42Z</time>
      </trkpt>
      <trkpt lat="46.62868" lon="5.1181">
        <ele>202.2</ele>
        <time>2022-06-25T07:45:43Z</time>
      </trkpt>
      <trkpt lat="46.62866" lon="5.118">
        <ele>202.2</ele>
        <time>2022-06-25T07:45:44Z</time>
      </trkpt>
      <trkpt lat="46.62864" lon="5.1179">
        <ele>202.2</ele>
        <time>2022-06-25T07:45:45Z</time>
      </trkpt>
      <trkpt lat="46.62861" lon="5.1178">
        <ele>202.2</ele>
        <time>2022-06-25T07:45:46Z</time>
      </trkpt>
      <trkpt lat="46.62859" lon="5.1177">
        <ele>202.2</ele>
        <time>2022-06-25T07:45:47Z</time>
      </trkpt>
      <trkpt lat="46.62857" lon="5.11761">
        <ele>202.2</ele>
        <time>2022-06-25T07:45:48Z</time>
      </trkpt>
      <trkpt lat="46.62855" lon="5.11751">
        <ele>202.2</ele>
        <time>2022-06-25T07:45:49Z</time>
      </trkpt>
      <trkpt lat="46.62853" lon="5.11741">
        <ele>202.2</ele>
        <time>2022-06-25T07:45:50Z</time>
      </trkpt>
      <trkpt lat="46.62851" lon="5.11732">
        <ele>202.4</ele>
        <time>2022-06-25T07:45:51Z</time>
      </trkpt>
      <trkpt lat="46.62849" lon="5.11723">
        <ele>202.4</ele>
        <time>2022-06-25T07:45:52Z</time>
      </trkpt>
      <trkpt lat="46.62847" lon="5.11714">
        <ele>202.8</ele>
        <time>2022-06-25T07:45:53Z</time>
      </trkpt>
      <trkpt lat="46.62846" lon="5.11705">
        <ele>202.8</ele>
        <time>2022-06-25T07:45:54Z</time>
      </trkpt>
      <trkpt lat="46.62844" lon="5.11697">
        <ele>203</ele>
        <time>2022-06-25T07:45:55Z</time>
      </trkpt>
      <trkpt lat="46.62842" lon="5.11689">
        <ele>203</ele>
        <time>2022-06-25T07:45:56Z</time>
      </trkpt>
      <trkpt lat="46.6284" lon="5.11681">
        <ele>203.4</ele>
        <time>2022-06-25T07:45:57Z</time>
      </trkpt>
      <trkpt lat="46.62839" lon="5.11673">
        <ele>203.4</ele>
        <time>2022-06-25T07:45:58Z</time>
      </trkpt>
      <trkpt lat="46.62837" lon="5.11665">
        <ele>203.6</ele>
        <time>2022-06-25T07:45:59Z</time>
      </trkpt>
      <trkpt lat="46.62836" lon="5.11657">
        <ele>203.6</ele>
        <time>2022-06-25T07:46:00Z</time>
      </trkpt>
      <trkpt lat="46.62834" lon="5.1165">
        <ele>204</ele>
        <time>2022-06-25T07:46:01Z</time>
      </trkpt>
      <trkpt lat="46.62832" lon="5.11642">
        <ele>204.2</ele>
        <time>2022-06-25T07:46:02Z</time>
      </trkpt>
      <trkpt lat="46.62831" lon="5.11635">
        <ele>204.2</ele>
        <time>2022-06-25T07:46:03Z</time>
      </trkpt>
      <trkpt lat="46.62829" lon="5.11628">
        <ele>204.4</ele>
        <time>2022-06-25T07:46:04Z</time>
      </trkpt>
      <trkpt lat="46.62828" lon="5.1162">
        <ele>204.4</ele>
        <time>2022-06-25T07:46:05Z</time>
      </trkpt>
      <trkpt lat="46.62826" lon="5.11613">
        <ele>204.8</ele>
        <time>2022-06-25T07:46:06Z</time>
      </trkpt>
      <trkpt lat="46.62825" lon="5.11606">
        <ele>204.8</ele>
        <time>2022-06-25T07:46:07Z</time>
      </trkpt>
      <trkpt lat="46.62823" lon="5.11598">
        <ele>204.8</ele>
        <time>2022-06-25T07:46:08Z</time>
      </trkpt>
      <trkpt lat="46.62822" lon="5.11591">
        <ele>205</ele>
        <time>2022-06-25T07:46:09Z</time>
      </trkpt>
      <trkpt lat="46.6282" lon="5.11583">
        <ele>205</ele>
        <time>2022-06-25T07:46:10Z</time>
      </trkpt>
      <trkpt lat="46.62818" lon="5.11575">
        <ele>205</ele>
        <time>2022-06-25T07:46:11Z</time>
      </trkpt>
      <trkpt lat="46.62817" lon="5.11567">
        <ele>205</ele>
        <time>2022-06-25T07:46:12Z</time>
      </trkpt>
      <trkpt lat="46.62814" lon="5.11559">
        <ele>205.2</ele>
        <time>2022-06-25T07:46:13Z</time>
      </trkpt>
      <trkpt lat="46.62812" lon="5.11551">
        <ele>205.2</ele>
        <time>2022-06-25T07:46:14Z</time>
      </trkpt>
      <trkpt lat="46.62809" lon="5.11543">
        <ele>205.2</ele>
        <time>2022-06-25T07:46:15Z</time>
      </trkpt>
      <trkpt lat="46.62805" lon="5.11535">
        <ele>205.2</ele>
        <time>2022-06-25T07:46:16Z</time>
      </trkpt>
      <trkpt lat="46.62801" lon="5.11528">
        <ele>205.2</ele>
        <time>2022-06-25T07:46:17Z</time>
      </trkpt>
      <trkpt lat="46.62796" lon="5.11521">
        <ele>205.2</ele>
        <time>2022-06-25T07:46:18Z</time>
      </trkpt>
      <trkpt lat="46.62791" lon="5.11515">
        <ele>205.4</ele>
        <time>2022-06-25T07:46:19Z</time>
      </trkpt>
      <trkpt lat="46.62787" lon="5.11509">
        <ele>205.4</ele>
        <time>2022-06-25T07:46:20Z</time>
      </trkpt>
      <trkpt lat="46.62782" lon="5.11503">
        <ele>205.4</ele>
        <time>2022-06-25T07:46:21Z</time>
      </trkpt>
      <trkpt lat="46.62777" lon="5.11498">
        <ele>205.4</ele>
        <time>2022-06-25T07:46:22Z</time>
      </trkpt>
      <trkpt lat="46.62772" lon="5.11492">
        <ele>205.4</ele>
        <time>2022-06-25T07:46:23Z</time>
      </trkpt>
      <trkpt lat="46.62767" lon="5.11486">
        <ele>205.4</ele>
        <time>2022-06-25T07:46:24Z</time>
      </trkpt>
      <trkpt lat="46.62762" lon="5.11481">
        <ele>205.4</ele>
        <time>2022-06-25T07:46:25Z</time>
      </trkpt>
      <trkpt lat="46.62757" lon="5.11475">
        <ele>205.4</ele>
        <time>2022-06-25T07:46:26Z</time>
      </trkpt>
      <trkpt lat="46.62752" lon="5.11469">
        <ele>205.4</ele>
        <time>2022-06-25T07:46:27Z</time>
      </trkpt>
      <trkpt lat="46.62747" lon="5.11464">
        <ele>205.4</ele>
        <time>2022-06-25T07:46:28Z</time>
      </trkpt>
      <trkpt lat="46.62742" lon="5.11458">
        <ele>205.4</ele>
        <time>2022-06-25T07:46:29Z</time>
      </trkpt>
      <trkpt lat="46.62737" lon="5.11453">
        <ele>205.4</ele>
        <time>2022-06-25T07:46:30Z</time>
      </trkpt>
      <trkpt lat="46.62732" lon="5.11447">
        <ele>205.4</ele>
        <time>2022-06-25T07:46:31Z</time>
      </trkpt>
      <trkpt lat="46.62727" lon="5.11442">
        <ele>205.4</ele>
        <time>2022-06-25T07:46:32Z</time>
      </trkpt>
      <trkpt lat="46.62722" lon="5.11437">
        <ele>205.4</ele>
        <time>2022-06-25T07:46:33Z</time>
      </trkpt>
      <trkpt lat="46.62718" lon="5.11431">
        <ele>205.2</ele>
        <time>2022-06-25T07:46:34Z</time>
      </trkpt>
      <trkpt lat="46.62713" lon="5.11426">
        <ele>205.2</ele>
        <time>2022-06-25T07:46:35Z</time>
      </trkpt>
      <trkpt lat="46.62708" lon="5.1142">
        <ele>205.2</ele>
        <time>2022-06-25T07:46:36Z</time>
      </trkpt>
      <trkpt lat="46.62703" lon="5.11414">
        <ele>205</ele>
        <time>2022-06-25T07:46:37Z</time>
      </trkpt>
      <trkpt lat="46.62697" lon="5.11408">
        <ele>205</ele>
        <time>2022-06-25T07:46:38Z</time>
      </trkpt>
      <trkpt lat="46.62692" lon="5.11402">
        <ele>205</ele>
        <time>2022-06-25T07:46:39Z</time>
      </trkpt>
      <trkpt lat="46.62687" lon="5.11396">
        <ele>205</ele>
        <time>2022-06-25T07:46:40Z</time>
      </trkpt>
      <trkpt lat="46.62681" lon="5.1139">
        <ele>205</ele>
        <time>2022-06-25T07:46:41Z</time>
      </trkpt>
      <trkpt lat="46.62676" lon="5.11384">
        <ele>205</ele>
        <time>2022-06-25T07:46:42Z</time>
      </trkpt>
      <trkpt lat="46.6267" lon="5.11378">
        <ele>205</ele>
        <time>2022-06-25T07:46:43Z</time>
      </trkpt>
      <trkpt lat="46.62665" lon="5.11371">
        <ele>205</ele>
        <time>2022-06-25T07:46:44Z</time>
      </trkpt>
      <trkpt lat="46.6266" lon="5.11364">
        <ele>205</ele>
        <time>2022-06-25T07:46:45Z</time>
      </trkpt>
      <trkpt lat="46.62655" lon="5.11357">
        <ele>205</ele>
        <time>2022-06-25T07:46:46Z</time>
      </trkpt>
      <trkpt lat="46.6265" lon="5.1135">
        <ele>205</ele>
        <time>2022-06-25T07:46:47Z</time>
      </trkpt>
      <trkpt lat="46.62646" lon="5.11342">
        <ele>204.8</ele>
        <time>2022-06-25T07:46:48Z</time>
      </trkpt>
      <trkpt lat="46.62642" lon="5.11334">
        <ele>204.8</ele>
        <time>2022-06-25T07:46:49Z</time>
      </trkpt>
      <trkpt lat="46.62638" lon="5.11326">
        <ele>204.6</ele>
        <time>2022-06-25T07:46:50Z</time>
      </trkpt>
      <trkpt lat="46.62633" lon="5.11317">
        <ele>204.6</ele>
        <time>2022-06-25T07:46:51Z</time>
      </trkpt>
      <trkpt lat="46.62629" lon="5.11308">
        <ele>204.6</ele>
        <time>2022-06-25T07:46:52Z</time>
      </trkpt>
      <trkpt lat="46.62625" lon="5.11299">
        <ele>204.2</ele>
        <time>2022-06-25T07:46:53Z</time>
      </trkpt>
      <trkpt lat="46.62621" lon="5.1129">
        <ele>204.2</ele>
        <time>2022-06-25T07:46:54Z</time>
      </trkpt>
      <trkpt lat="46.62617" lon="5.11281">
        <ele>204</ele>
        <time>2022-06-25T07:46:55Z</time>
      </trkpt>
      <trkpt lat="46.62613" lon="5.11272">
        <ele>203.8</ele>
        <time>2022-06-25T07:46:56Z</time>
      </trkpt>
      <trkpt lat="46.62609" lon="5.11263">
        <ele>203.8</ele>
        <time>2022-06-25T07:46:57Z</time>
      </trkpt>
      <trkpt lat="46.62604" lon="5.11253">
        <ele>203.6</ele>
        <time>2022-06-25T07:46:58Z</time>
      </trkpt>
      <trkpt lat="46.62599" lon="5.11244">
        <ele>203.6</ele>
        <time>2022-06-25T07:46:59Z</time>
      </trkpt>
      <trkpt lat="46.62595" lon="5.11234">
        <ele>203.4</ele>
        <time>2022-06-25T07:47:00Z</time>
      </trkpt>
      <trkpt lat="46.6259" lon="5.11224">
        <ele>203.2</ele>
        <time>2022-06-25T07:47:01Z</time>
      </trkpt>
      <trkpt lat="46.62586" lon="5.11215">
        <ele>203.2</ele>
        <time>2022-06-25T07:47:02Z</time>
      </trkpt>
      <trkpt lat="46.62581" lon="5.11205">
        <ele>203</ele>
        <time>2022-06-25T07:47:03Z</time>
      </trkpt>
      <trkpt lat="46.62577" lon="5.11196">
        <ele>203</ele>
        <time>2022-06-25T07:47:04Z</time>
      </trkpt>
      <trkpt lat="46.62572" lon="5.11187">
        <ele>203</ele>
        <time>2022-06-25T07:47:05Z</time>
      </trkpt>
      <trkpt lat="46.62568" lon="5.11177">
        <ele>203</ele>
        <time>2022-06-25T07:47:06Z</time>
      </trkpt>
      <trkpt lat="46.62564" lon="5.11168">
        <ele>203</ele>
        <time>2022-06-25T07:47:07Z</time>
      </trkpt>
      <trkpt lat="46.6256" lon="5.11159">
        <ele>203</ele>
        <time>2022-06-25T07:47:08Z</time>
      </trkpt>
      <trkpt lat="46.62555" lon="5.1115">
        <ele>203</ele>
        <time>2022-06-25T07:47:09Z</time>
      </trkpt>
      <trkpt lat="46.62551" lon="5.11141">
        <ele>203</ele>
        <time>2022-06-25T07:47:10Z</time>
      </trkpt>
      <trkpt lat="46.62547" lon="5.11133">
        <ele>203</ele>
        <time>2022-06-25T07:47:11Z</time>
      </trkpt>
      <trkpt lat="46.62543" lon="5.11125">
        <ele>203</ele>
        <time>2022-06-25T07:47:12Z</time>
      </trkpt>
      <trkpt lat="46.62539" lon="5.11117">
        <ele>203</ele>
        <time>2022-06-25T07:47:13Z</time>
      </trkpt>
      <trkpt lat="46.62536" lon="5.11109">
        <ele>203</ele>
        <time>2022-06-25T07:47:14Z</time>
      </trkpt>
      <trkpt lat="46.62532" lon="5.11101">
        <ele>203</ele>
        <time>2022-06-25T07:47:15Z</time>
      </trkpt>
      <trkpt lat="46.62528" lon="5.11093">
        <ele>203</ele>
        <time>2022-06-25T07:47:16Z</time>
      </trkpt>
      <trkpt lat="46.62524" lon="5.11085">
        <ele>203</ele>
        <time>2022-06-25T07:47:17Z</time>
      </trkpt>
      <trkpt lat="46.62521" lon="5.11078">
        <ele>203.2</ele>
        <time>2022-06-25T07:47:18Z</time>
      </trkpt>
      <trkpt lat="46.62517" lon="5.1107">
        <ele>203.2</ele>
        <time>2022-06-25T07:47:19Z</time>
      </trkpt>
      <trkpt lat="46.62514" lon="5.11063">
        <ele>203.4</ele>
        <time>2022-06-25T07:47:20Z</time>
      </trkpt>
      <trkpt lat="46.6251" lon="5.11055">
        <ele>203.4</ele>
        <time>2022-06-25T07:47:21Z</time>
      </trkpt>
      <trkpt lat="46.62507" lon="5.11048">
        <ele>203.8</ele>
        <time>2022-06-25T07:47:22Z</time>
      </trkpt>
      <trkpt lat="46.62503" lon="5.1104">
        <ele>203.8</ele>
        <time>2022-06-25T07:47:23Z</time>
      </trkpt>
      <trkpt lat="46.625" lon="5.11033">
        <ele>203.8</ele>
        <time>2022-06-25T07:47:24Z</time>
      </trkpt>
      <trkpt lat="46.62496" lon="5.11025">
        <ele>204</ele>
        <time>2022-06-25T07:47:25Z</time>
      </trkpt>
      <trkpt lat="46.62493" lon="5.11018">
        <ele>204</ele>
        <time>2022-06-25T07:47:26Z</time>
      </trkpt>
      <trkpt lat="46.6249" lon="5.11011">
        <ele>204</ele>
        <time>2022-06-25T07:47:27Z</time>
      </trkpt>
      <trkpt lat="46.62486" lon="5.11003">
        <ele>204.2</ele>
        <time>2022-06-25T07:47:28Z</time>
      </trkpt>
      <trkpt lat="46.62483" lon="5.10996">
        <ele>204.2</ele>
        <time>2022-06-25T07:47:29Z</time>
      </trkpt>
      <trkpt lat="46.62479" lon="5.10988">
        <ele>204.6</ele>
        <time>2022-06-25T07:47:30Z</time>
      </trkpt>
      <trkpt lat="46.62476" lon="5.10981">
        <ele>204.6</ele>
        <time>2022-06-25T07:47:31Z</time>
      </trkpt>
      <trkpt lat="46.62472" lon="5.10973">
        <ele>204.6</ele>
        <time>2022-06-25T07:47:32Z</time>
      </trkpt>
      <trkpt lat="46.62469" lon="5.10966">
        <ele>204.6</ele>
        <time>2022-06-25T07:47:33Z</time>
      </trkpt>
      <trkpt lat="46.62465" lon="5.10959">
        <ele>204.6</ele>
        <time>2022-06-25T07:47:34Z</time>
      </trkpt>
      <trkpt lat="46.62461" lon="5.10951">
        <ele>204.6</ele>
        <time>2022-06-25T07:47:35Z</time>
      </trkpt>
      <trkpt lat="46.62457" lon="5.10943">
        <ele>204.6</ele>
        <time>2022-06-25T07:47:36Z</time>
      </trkpt>
      <trkpt lat="46.62453" lon="5.10935">
        <ele>204.6</ele>
        <time>2022-06-25T07:47:37Z</time>
      </trkpt>
      <trkpt lat="46.62449" lon="5.10927">
        <ele>204.6</ele>
        <time>2022-06-25T07:47:38Z</time>
      </trkpt>
      <trkpt lat="46.62445" lon="5.10919">
        <ele>204.6</ele>
        <time>2022-06-25T07:47:39Z</time>
      </trkpt>
      <trkpt lat="46.62441" lon="5.10911">
        <ele>204.6</ele>
        <time>2022-06-25T07:47:40Z</time>
      </trkpt>
      <trkpt lat="46.62438" lon="5.10903">
        <ele>204.6</ele>
        <time>2022-06-25T07:47:41Z</time>
      </trkpt>
      <trkpt lat="46.62434" lon="5.10895">
        <ele>204.6</ele>
        <time>2022-06-25T07:47:42Z</time>
      </trkpt>
      <trkpt lat="46.6243" lon="5.10887">
        <ele>204.6</ele>
        <time>2022-06-25T07:47:43Z</time>
      </trkpt>
      <trkpt lat="46.62426" lon="5.10879">
        <ele>204.6</ele>
        <time>2022-06-25T07:47:44Z</time>
      </trkpt>
      <trkpt lat="46.62422" lon="5.10871">
        <ele>204.6</ele>
        <time>2022-06-25T07:47:45Z</time>
      </trkpt>
      <trkpt lat="46.62418" lon="5.10863">
        <ele>204.6</ele>
        <time>2022-06-25T07:47:46Z</time>
      </trkpt>
      <trkpt lat="46.62414" lon="5.10855">
        <ele>204.6</ele>
        <time>2022-06-25T07:47:47Z</time>
      </trkpt>
      <trkpt lat="46.6241" lon="5.10846">
        <ele>204.6</ele>
        <time>2022-06-25T07:47:48Z</time>
      </trkpt>
      <trkpt lat="46.62406" lon="5.10838">
        <ele>204.6</ele>
        <time>2022-06-25T07:47:49Z</time>
      </trkpt>
      <trkpt lat="46.62402" lon="5.1083">
        <ele>204.6</ele>
        <time>2022-06-25T07:47:50Z</time>
      </trkpt>
      <trkpt lat="46.62398" lon="5.10822">
        <ele>204.6</ele>
        <time>2022-06-25T07:47:51Z</time>
      </trkpt>
      <trkpt lat="46.62395" lon="5.10814">
        <ele>204.8</ele>
        <time>2022-06-25T07:47:52Z</time>
      </trkpt>
      <trkpt lat="46.62391" lon="5.10807">
        <ele>204.8</ele>
        <time>2022-06-25T07:47:53Z</time>
      </trkpt>
      <trkpt lat="46.62388" lon="5.108">
        <ele>204.8</ele>
        <time>2022-06-25T07:47:54Z</time>
      </trkpt>
      <trkpt lat="46.62384" lon="5.10793">
        <ele>204.8</ele>
        <time>2022-06-25T07:47:55Z</time>
      </trkpt>
      <trkpt lat="46.62381" lon="5.10785">
        <ele>204.8</ele>
        <time>2022-06-25T07:47:56Z</time>
      </trkpt>
      <trkpt lat="46.62378" lon="5.10777">
        <ele>204.8</ele>
        <time>2022-06-25T07:47:57Z</time>
      </trkpt>
      <trkpt lat="46.62375" lon="5.10769">
        <ele>204.8</ele>
        <time>2022-06-25T07:47:58Z</time>
      </trkpt>
      <trkpt lat="46.62372" lon="5.10761">
        <ele>204.8</ele>
        <time>2022-06-25T07:47:59Z</time>
      </trkpt>
      <trkpt lat="46.62369" lon="5.10753">
        <ele>204.8</ele>
        <time>2022-06-25T07:48:00Z</time>
      </trkpt>
      <trkpt lat="46.62366" lon="5.10745">
        <ele>204.8</ele>
        <time>2022-06-25T07:48:01Z</time>
      </trkpt>
      <trkpt lat="46.62363" lon="5.10737">
        <ele>204.8</ele>
        <time>2022-06-25T07:48:02Z</time>
      </trkpt>
      <trkpt lat="46.62361" lon="5.10728">
        <ele>204.8</ele>
        <time>2022-06-25T07:48:03Z</time>
      </trkpt>
      <trkpt lat="46.62358" lon="5.1072">
        <ele>204.8</ele>
        <time>2022-06-25T07:48:04Z</time>
      </trkpt>
      <trkpt lat="46.62355" lon="5.10711">
        <ele>204.8</ele>
        <time>2022-06-25T07:48:05Z</time>
      </trkpt>
      <trkpt lat="46.62353" lon="5.10702">
        <ele>204.8</ele>
        <time>2022-06-25T07:48:06Z</time>
      </trkpt>
      <trkpt lat="46.62351" lon="5.10693">
        <ele>204.8</ele>
        <time>2022-06-25T07:48:07Z</time>
      </trkpt>
      <trkpt lat="46.62348" lon="5.10683">
        <ele>204.4</ele>
        <time>2022-06-25T07:48:08Z</time>
      </trkpt>
      <trkpt lat="46.62346" lon="5.10673">
        <ele>204.4</ele>
        <time>2022-06-25T07:48:09Z</time>
      </trkpt>
      <trkpt lat="46.62343" lon="5.10663">
        <ele>204</ele>
        <time>2022-06-25T07:48:10Z</time>
      </trkpt>
      <trkpt lat="46.6234" lon="5.10652">
        <ele>203.6</ele>
        <time>2022-06-25T07:48:11Z</time>
      </trkpt>
      <trkpt lat="46.62337" lon="5.10641">
        <ele>203.4</ele>
        <time>2022-06-25T07:48:12Z</time>
      </trkpt>
      <trkpt lat="46.62334" lon="5.10629">
        <ele>203</ele>
        <time>2022-06-25T07:48:13Z</time>
      </trkpt>
      <trkpt lat="46.62331" lon="5.10618">
        <ele>202.6</ele>
        <time>2022-06-25T07:48:14Z</time>
      </trkpt>
      <trkpt lat="46.62327" lon="5.10605">
        <ele>202.4</ele>
        <time>2022-06-25T07:48:15Z</time>
      </trkpt>
      <trkpt lat="46.62324" lon="5.10592">
        <ele>202</ele>
        <time>2022-06-25T07:48:16Z</time>
      </trkpt>
      <trkpt lat="46.6232" lon="5.10578">
        <ele>201.8</ele>
        <time>2022-06-25T07:48:17Z</time>
      </trkpt>
      <trkpt lat="46.62316" lon="5.10566">
        <ele>201.4</ele>
        <time>2022-06-25T07:48:18Z</time>
      </trkpt>
      <trkpt lat="46.62312" lon="5.10552">
        <ele>201.2</ele>
        <time>2022-06-25T07:48:19Z</time>
      </trkpt>
      <trkpt lat="46.62308" lon="5.10538">
        <ele>200.8</ele>
        <time>2022-06-25T07:48:20Z</time>
      </trkpt>
      <trkpt lat="46.62304" lon="5.10524">
        <ele>200.4</ele>
        <time>2022-06-25T07:48:21Z</time>
      </trkpt>
      <trkpt lat="46.62299" lon="5.10511">
        <ele>200</ele>
        <time>2022-06-25T07:48:22Z</time>
      </trkpt>
      <trkpt lat="46.62296" lon="5.10498">
        <ele>199.4</ele>
        <time>2022-06-25T07:48:23Z</time>
      </trkpt>
      <trkpt lat="46.62292" lon="5.10484">
        <ele>199</ele>
        <time>2022-06-25T07:48:24Z</time>
      </trkpt>
      <trkpt lat="46.62288" lon="5.1047">
        <ele>198.6</ele>
        <time>2022-06-25T07:48:25Z</time>
      </trkpt>
      <trkpt lat="46.62283" lon="5.10455">
        <ele>198.2</ele>
        <time>2022-06-25T07:48:26Z</time>
      </trkpt>
      <trkpt lat="46.62278" lon="5.10441">
        <ele>197.6</ele>
        <time>2022-06-25T07:48:27Z</time>
      </trkpt>
      <trkpt lat="46.62274" lon="5.10427">
        <ele>197.2</ele>
        <time>2022-06-25T07:48:28Z</time>
      </trkpt>
      <trkpt lat="46.6227" lon="5.10412">
        <ele>196.8</ele>
        <time>2022-06-25T07:48:29Z</time>
      </trkpt>
      <trkpt lat="46.62266" lon="5.10398">
        <ele>196.4</ele>
        <time>2022-06-25T07:48:30Z</time>
      </trkpt>
      <trkpt lat="46.62262" lon="5.10385">
        <ele>196.2</ele>
        <time>2022-06-25T07:48:31Z</time>
      </trkpt>
      <trkpt lat="46.62259" lon="5.10371">
        <ele>196</ele>
        <time>2022-06-25T07:48:32Z</time>
      </trkpt>
      <trkpt lat="46.62255" lon="5.10359">
        <ele>196</ele>
        <time>2022-06-25T07:48:33Z</time>
      </trkpt>
      <trkpt lat="46.62251" lon="5.10347">
        <ele>195.8</ele>
        <time>2022-06-25T07:48:34Z</time>
      </trkpt>
      <trkpt lat="46.62248" lon="5.10335">
        <ele>195.8</ele>
        <time>2022-06-25T07:48:35Z</time>
      </trkpt>
      <trkpt lat="46.62245" lon="5.10323">
        <ele>195.8</ele>
        <time>2022-06-25T07:48:36Z</time>
      </trkpt>
      <trkpt lat="46.62242" lon="5.10312">
        <ele>195.8</ele>
        <time>2022-06-25T07:48:37Z</time>
      </trkpt>
      <trkpt lat="46.6224" lon="5.10302">
        <ele>195.8</ele>
        <time>2022-06-25T07:48:38Z</time>
      </trkpt>
      <trkpt lat="46.62237" lon="5.10293">
        <ele>196.2</ele>
        <time>2022-06-25T07:48:39Z</time>
      </trkpt>
      <trkpt lat="46.62234" lon="5.10285">
        <ele>196.4</ele>
        <time>2022-06-25T07:48:40Z</time>
      </trkpt>
      <trkpt lat="46.62232" lon="5.10277">
        <ele>196.6</ele>
        <time>2022-06-25T07:48:41Z</time>
      </trkpt>
      <trkpt lat="46.62231" lon="5.1027">
        <ele>196.8</ele>
        <time>2022-06-25T07:48:42Z</time>
      </trkpt>
      <trkpt lat="46.62229" lon="5.10263">
        <ele>197.2</ele>
        <time>2022-06-25T07:48:43Z</time>
      </trkpt>
      <trkpt lat="46.62227" lon="5.10256">
        <ele>197.4</ele>
        <time>2022-06-25T07:48:44Z</time>
      </trkpt>
      <trkpt lat="46.62225" lon="5.1025">
        <ele>197.8</ele>
        <time>2022-06-25T07:48:45Z</time>
      </trkpt>
      <trkpt lat="46.62224" lon="5.10245">
        <ele>198</ele>
        <time>2022-06-25T07:48:46Z</time>
      </trkpt>
      <trkpt lat="46.62222" lon="5.10239">
        <ele>198.4</ele>
        <time>2022-06-25T07:48:47Z</time>
      </trkpt>
      <trkpt lat="46.62221" lon="5.10234">
        <ele>198.6</ele>
        <time>2022-06-25T07:48:48Z</time>
      </trkpt>
      <trkpt lat="46.62219" lon="5.10228">
        <ele>199</ele>
        <time>2022-06-25T07:48:49Z</time>
      </trkpt>
      <trkpt lat="46.62218" lon="5.10223">
        <ele>199.4</ele>
        <time>2022-06-25T07:48:50Z</time>
      </trkpt>
      <trkpt lat="46.62217" lon="5.10217">
        <ele>199.6</ele>
        <time>2022-06-25T07:48:51Z</time>
      </trkpt>
      <trkpt lat="46.62216" lon="5.10212">
        <ele>200</ele>
        <time>2022-06-25T07:48:52Z</time>
      </trkpt>
      <trkpt lat="46.62215" lon="5.10206">
        <ele>200.4</ele>
        <time>2022-06-25T07:48:53Z</time>
      </trkpt>
      <trkpt lat="46.62214" lon="5.10201">
        <ele>200.8</ele>
        <time>2022-06-25T07:48:54Z</time>
      </trkpt>
      <trkpt lat="46.62212" lon="5.10196">
        <ele>201</ele>
        <time>2022-06-25T07:48:55Z</time>
      </trkpt>
      <trkpt lat="46.62211" lon="5.1019">
        <ele>201.2</ele>
        <time>2022-06-25T07:48:56Z</time>
      </trkpt>
      <trkpt lat="46.6221" lon="5.10185">
        <ele>201.4</ele>
        <time>2022-06-25T07:48:57Z</time>
      </trkpt>
      <trkpt lat="46.62209" lon="5.10179">
        <ele>201.6</ele>
        <time>2022-06-25T07:48:58Z</time>
      </trkpt>
      <trkpt lat="46.62208" lon="5.10173">
        <ele>202</ele>
        <time>2022-06-25T07:48:59Z</time>
      </trkpt>
      <trkpt lat="46.62207" lon="5.10167">
        <ele>202.2</ele>
        <time>2022-06-25T07:49:00Z</time>
      </trkpt>
      <trkpt lat="46.62207" lon="5.10162">
        <ele>202.4</ele>
        <time>2022-06-25T07:49:01Z</time>
      </trkpt>
      <trkpt lat="46.62206" lon="5.10156">
        <ele>202.6</ele>
        <time>2022-06-25T07:49:02Z</time>
      </trkpt>
      <trkpt lat="46.62206" lon="5.10151">
        <ele>202.8</ele>
        <time>2022-06-25T07:49:03Z</time>
      </trkpt>
      <trkpt lat="46.62206" lon="5.10145">
        <ele>203.2</ele>
        <time>2022-06-25T07:49:04Z</time>
      </trkpt>
      <trkpt lat="46.62205" lon="5.1014">
        <ele>203.4</ele>
        <time>2022-06-25T07:49:05Z</time>
      </trkpt>
      <trkpt lat="46.62205" lon="5.10134">
        <ele>203.6</ele>
        <time>2022-06-25T07:49:06Z</time>
      </trkpt>
      <trkpt lat="46.62205" lon="5.10128">
        <ele>203.8</ele>
        <time>2022-06-25T07:49:07Z</time>
      </trkpt>
      <trkpt lat="46.62206" lon="5.10122">
        <ele>204.2</ele>
        <time>2022-06-25T07:49:08Z</time>
      </trkpt>
      <trkpt lat="46.62206" lon="5.10116">
        <ele>204.2</ele>
        <time>2022-06-25T07:49:09Z</time>
      </trkpt>
      <trkpt lat="46.62207" lon="5.10109">
        <ele>204.4</ele>
        <time>2022-06-25T07:49:10Z</time>
      </trkpt>
      <trkpt lat="46.62208" lon="5.10102">
        <ele>204.4</ele>
        <time>2022-06-25T07:49:11Z</time>
      </trkpt>
      <trkpt lat="46.62209" lon="5.10096">
        <ele>205</ele>
        <time>2022-06-25T07:49:12Z</time>
      </trkpt>
      <trkpt lat="46.62211" lon="5.1009">
        <ele>205.2</ele>
        <time>2022-06-25T07:49:13Z</time>
      </trkpt>
      <trkpt lat="46.62212" lon="5.10083">
        <ele>205.2</ele>
        <time>2022-06-25T07:49:14Z</time>
      </trkpt>
      <trkpt lat="46.62215" lon="5.10077">
        <ele>205.6</ele>
        <time>2022-06-25T07:49:15Z</time>
      </trkpt>
      <trkpt lat="46.62217" lon="5.10071">
        <ele>205.6</ele>
        <time>2022-06-25T07:49:16Z</time>
      </trkpt>
      <trkpt lat="46.6222" lon="5.10064">
        <ele>205.6</ele>
        <time>2022-06-25T07:49:17Z</time>
      </trkpt>
      <trkpt lat="46.62222" lon="5.10058">
        <ele>205.8</ele>
        <time>2022-06-25T07:49:18Z</time>
      </trkpt>
      <trkpt lat="46.62225" lon="5.10051">
        <ele>205.8</ele>
        <time>2022-06-25T07:49:19Z</time>
      </trkpt>
      <trkpt lat="46.62228" lon="5.10044">
        <ele>206.2</ele>
        <time>2022-06-25T07:49:20Z</time>
      </trkpt>
      <trkpt lat="46.62231" lon="5.10038">
        <ele>206.2</ele>
        <time>2022-06-25T07:49:21Z</time>
      </trkpt>
      <trkpt lat="46.62234" lon="5.10031">
        <ele>206.2</ele>
        <time>2022-06-25T07:49:22Z</time>
      </trkpt>
      <trkpt lat="46.62238" lon="5.10025">
        <ele>206.4</ele>
        <time>2022-06-25T07:49:23Z</time>
      </trkpt>
      <trkpt lat="46.62241" lon="5.10018">
        <ele>206.4</ele>
        <time>2022-06-25T07:49:24Z</time>
      </trkpt>
      <trkpt lat="46.62245" lon="5.10012">
        <ele>206.4</ele>
        <time>2022-06-25T07:49:25Z</time>
      </trkpt>
      <trkpt lat="46.62248" lon="5.10005">
        <ele>206.4</ele>
        <time>2022-06-25T07:49:26Z</time>
      </trkpt>
      <trkpt lat="46.62251" lon="5.09998">
        <ele>206.4</ele>
        <time>2022-06-25T07:49:27Z</time>
      </trkpt>
      <trkpt lat="46.62254" lon="5.09991">
        <ele>206.4</ele>
        <time>2022-06-25T07:49:28Z</time>
      </trkpt>
      <trkpt lat="46.62257" lon="5.09985">
        <ele>206.4</ele>
        <time>2022-06-25T07:49:29Z</time>
      </trkpt>
      <trkpt lat="46.62261" lon="5.09978">
        <ele>206.4</ele>
        <time>2022-06-25T07:49:30Z</time>
      </trkpt>
      <trkpt lat="46.62264" lon="5.09971">
        <ele>206.4</ele>
        <time>2022-06-25T07:49:31Z</time>
      </trkpt>
      <trkpt lat="46.62268" lon="5.09964">
        <ele>206.4</ele>
        <time>2022-06-25T07:49:32Z</time>
      </trkpt>
      <trkpt lat="46.62271" lon="5.09957">
        <ele>206.4</ele>
        <time>2022-06-25T07:49:33Z</time>
      </trkpt>
      <trkpt lat="46.62274" lon="5.0995">
        <ele>206.4</ele>
        <time>2022-06-25T07:49:34Z</time>
      </trkpt>
      <trkpt lat="46.62278" lon="5.09943">
        <ele>206.4</ele>
        <time>2022-06-25T07:49:35Z</time>
      </trkpt>
      <trkpt lat="46.62282" lon="5.09936">
        <ele>206.4</ele>
        <time>2022-06-25T07:49:36Z</time>
      </trkpt>
      <trkpt lat="46.62285" lon="5.09929">
        <ele>206.4</ele>
        <time>2022-06-25T07:49:37Z</time>
      </trkpt>
      <trkpt lat="46.62289" lon="5.09922">
        <ele>206.4</ele>
        <time>2022-06-25T07:49:38Z</time>
      </trkpt>
      <trkpt lat="46.62292" lon="5.09915">
        <ele>206.4</ele>
        <time>2022-06-25T07:49:39Z</time>
      </trkpt>
      <trkpt lat="46.62296" lon="5.09907">
        <ele>206.4</ele>
        <time>2022-06-25T07:49:40Z</time>
      </trkpt>
      <trkpt lat="46.62299" lon="5.099">
        <ele>206.4</ele>
        <time>2022-06-25T07:49:41Z</time>
      </trkpt>
      <trkpt lat="46.62303" lon="5.09892">
        <ele>206.4</ele>
        <time>2022-06-25T07:49:42Z</time>
      </trkpt>
      <trkpt lat="46.62307" lon="5.09885">
        <ele>206.4</ele>
        <time>2022-06-25T07:49:43Z</time>
      </trkpt>
      <trkpt lat="46.6231" lon="5.09878">
        <ele>206.4</ele>
        <time>2022-06-25T07:49:44Z</time>
      </trkpt>
      <trkpt lat="46.62314" lon="5.09871">
        <ele>206.4</ele>
        <time>2022-06-25T07:49:45Z</time>
      </trkpt>
      <trkpt lat="46.62318" lon="5.09863">
        <ele>206.4</ele>
        <time>2022-06-25T07:49:46Z</time>
      </trkpt>
      <trkpt lat="46.62322" lon="5.09857">
        <ele>206.6</ele>
        <time>2022-06-25T07:49:47Z</time>
      </trkpt>
      <trkpt lat="46.62325" lon="5.0985">
        <ele>206.6</ele>
        <time>2022-06-25T07:49:48Z</time>
      </trkpt>
      <trkpt lat="46.62329" lon="5.09842">
        <ele>206.6</ele>
        <time>2022-06-25T07:49:49Z</time>
      </trkpt>
      <trkpt lat="46.62332" lon="5.09835">
        <ele>206.6</ele>
        <time>2022-06-25T07:49:50Z</time>
      </trkpt>
      <trkpt lat="46.62336" lon="5.09827">
        <ele>206.6</ele>
        <time>2022-06-25T07:49:51Z</time>
      </trkpt>
      <trkpt lat="46.6234" lon="5.09819">
        <ele>206.6</ele>
        <time>2022-06-25T07:49:52Z</time>
      </trkpt>
      <trkpt lat="46.62343" lon="5.09811">
        <ele>206.6</ele>
        <time>2022-06-25T07:49:53Z</time>
      </trkpt>
      <trkpt lat="46.62347" lon="5.09804">
        <ele>206.2</ele>
        <time>2022-06-25T07:49:54Z</time>
      </trkpt>
      <trkpt lat="46.62351" lon="5.09796">
        <ele>206.2</ele>
        <time>2022-06-25T07:49:55Z</time>
      </trkpt>
      <trkpt lat="46.62354" lon="5.09788">
        <ele>206.2</ele>
        <time>2022-06-25T07:49:56Z</time>
      </trkpt>
      <trkpt lat="46.62357" lon="5.0978">
        <ele>206.2</ele>
        <time>2022-06-25T07:49:57Z</time>
      </trkpt>
      <trkpt lat="46.6236" lon="5.09771">
        <ele>206.2</ele>
        <time>2022-06-25T07:49:58Z</time>
      </trkpt>
      <trkpt lat="46.62363" lon="5.09762">
        <ele>206.2</ele>
        <time>2022-06-25T07:49:59Z</time>
      </trkpt>
      <trkpt lat="46.62365" lon="5.09753">
        <ele>206.2</ele>
        <time>2022-06-25T07:50:00Z</time>
      </trkpt>
      <trkpt lat="46.62368" lon="5.09744">
        <ele>206.2</ele>
        <time>2022-06-25T07:50:01Z</time>
      </trkpt>
      <trkpt lat="46.62371" lon="5.09735">
        <ele>206.2</ele>
        <time>2022-06-25T07:50:02Z</time>
      </trkpt>
      <trkpt lat="46.62373" lon="5.09726">
        <ele>206.2</ele>
        <time>2022-06-25T07:50:03Z</time>
      </trkpt>
      <trkpt lat="46.62376" lon="5.09717">
        <ele>206.2</ele>
        <time>2022-06-25T07:50:04Z</time>
      </trkpt>
      <trkpt lat="46.62378" lon="5.09708">
        <ele>206.6</ele>
        <time>2022-06-25T07:50:05Z</time>
      </trkpt>
      <trkpt lat="46.62381" lon="5.09699">
        <ele>206.6</ele>
        <time>2022-06-25T07:50:06Z</time>
      </trkpt>
      <trkpt lat="46.62383" lon="5.0969">
        <ele>206.6</ele>
        <time>2022-06-25T07:50:07Z</time>
      </trkpt>
      <trkpt lat="46.62385" lon="5.09681">
        <ele>206.6</ele>
        <time>2022-06-25T07:50:08Z</time>
      </trkpt>
      <trkpt lat="46.62388" lon="5.09672">
        <ele>206.6</ele>
        <time>2022-06-25T07:50:09Z</time>
      </trkpt>
      <trkpt lat="46.6239" lon="5.09663">
        <ele>206.6</ele>
        <time>2022-06-25T07:50:10Z</time>
      </trkpt>
      <trkpt lat="46.62392" lon="5.09654">
        <ele>206.6</ele>
        <time>2022-06-25T07:50:11Z</time>
      </trkpt>
      <trkpt lat="46.62395" lon="5.09645">
        <ele>206.8</ele>
        <time>2022-06-25T07:50:12Z</time>
      </trkpt>
      <trkpt lat="46.62397" lon="5.09636">
        <ele>206.8</ele>
        <time>2022-06-25T07:50:13Z</time>
      </trkpt>
      <trkpt lat="46.62399" lon="5.09627">
        <ele>206.8</ele>
        <time>2022-06-25T07:50:14Z</time>
      </trkpt>
      <trkpt lat="46.624" lon="5.09618">
        <ele>206.8</ele>
        <time>2022-06-25T07:50:15Z</time>
      </trkpt>
      <trkpt lat="46.62402" lon="5.09609">
        <ele>206.8</ele>
        <time>2022-06-25T07:50:16Z</time>
      </trkpt>
      <trkpt lat="46.62403" lon="5.096">
        <ele>206.8</ele>
        <time>2022-06-25T07:50:17Z</time>
      </trkpt>
      <trkpt lat="46.62404" lon="5.0959">
        <ele>206.8</ele>
        <time>2022-06-25T07:50:18Z</time>
      </trkpt>
      <trkpt lat="46.62405" lon="5.09581">
        <ele>206.8</ele>
        <time>2022-06-25T07:50:19Z</time>
      </trkpt>
      <trkpt lat="46.62406" lon="5.09571">
        <ele>206.8</ele>
        <time>2022-06-25T07:50:20Z</time>
      </trkpt>
      <trkpt lat="46.62406" lon="5.09562">
        <ele>206.8</ele>
        <time>2022-06-25T07:50:21Z</time>
      </trkpt>
      <trkpt lat="46.62405" lon="5.09552">
        <ele>206.8</ele>
        <time>2022-06-25T07:50:22Z</time>
      </trkpt>
      <trkpt lat="46.62405" lon="5.09542">
        <ele>206.8</ele>
        <time>2022-06-25T07:50:23Z</time>
      </trkpt>
      <trkpt lat="46.62404" lon="5.09532">
        <ele>206.8</ele>
        <time>2022-06-25T07:50:24Z</time>
      </trkpt>
      <trkpt lat="46.62402" lon="5.09522">
        <ele>206.8</ele>
        <time>2022-06-25T07:50:25Z</time>
      </trkpt>
      <trkpt lat="46.62401" lon="5.09512">
        <ele>206.4</ele>
        <time>2022-06-25T07:50:26Z</time>
      </trkpt>
      <trkpt lat="46.62399" lon="5.09501">
        <ele>206.4</ele>
        <time>2022-06-25T07:50:28Z</time>
      </trkpt>
      <trkpt lat="46.62397" lon="5.09491">
        <ele>206.2</ele>
        <time>2022-06-25T07:50:29Z</time>
      </trkpt>
      <trkpt lat="46.62395" lon="5.09481">
        <ele>206.2</ele>
        <time>2022-06-25T07:50:30Z</time>
      </trkpt>
      <trkpt lat="46.62393" lon="5.09471">
        <ele>206.2</ele>
        <time>2022-06-25T07:50:31Z</time>
      </trkpt>
      <trkpt lat="46.62392" lon="5.0946">
        <ele>206.2</ele>
        <time>2022-06-25T07:50:32Z</time>
      </trkpt>
      <trkpt lat="46.6239" lon="5.0945">
        <ele>206.2</ele>
        <time>2022-06-25T07:50:33Z</time>
      </trkpt>
      <trkpt lat="46.62387" lon="5.09439">
        <ele>206</ele>
        <time>2022-06-25T07:50:34Z</time>
      </trkpt>
      <trkpt lat="46.62385" lon="5.09429">
        <ele>206</ele>
        <time>2022-06-25T07:50:35Z</time>
      </trkpt>
      <trkpt lat="46.62383" lon="5.09418">
        <ele>205.6</ele>
        <time>2022-06-25T07:50:36Z</time>
      </trkpt>
      <trkpt lat="46.62381" lon="5.09406">
        <ele>205.6</ele>
        <time>2022-06-25T07:50:37Z</time>
      </trkpt>
      <trkpt lat="46.62379" lon="5.09395">
        <ele>205.4</ele>
        <time>2022-06-25T07:50:38Z</time>
      </trkpt>
      <trkpt lat="46.62377" lon="5.09383">
        <ele>205.4</ele>
        <time>2022-06-25T07:50:39Z</time>
      </trkpt>
      <trkpt lat="46.62375" lon="5.0937">
        <ele>205</ele>
        <time>2022-06-25T07:50:40Z</time>
      </trkpt>
      <trkpt lat="46.62373" lon="5.09358">
        <ele>204.8</ele>
        <time>2022-06-25T07:50:41Z</time>
      </trkpt>
      <trkpt lat="46.6237" lon="5.09345">
        <ele>204.4</ele>
        <time>2022-06-25T07:50:42Z</time>
      </trkpt>
      <trkpt lat="46.62368" lon="5.09333">
        <ele>204.4</ele>
        <time>2022-06-25T07:50:43Z</time>
      </trkpt>
      <trkpt lat="46.62365" lon="5.09321">
        <ele>204.2</ele>
        <time>2022-06-25T07:50:44Z</time>
      </trkpt>
      <trkpt lat="46.62363" lon="5.09309">
        <ele>204.2</ele>
        <time>2022-06-25T07:50:45Z</time>
      </trkpt>
      <trkpt lat="46.62361" lon="5.09297">
        <ele>204.2</ele>
        <time>2022-06-25T07:50:46Z</time>
      </trkpt>
      <trkpt lat="46.62359" lon="5.09286">
        <ele>204.2</ele>
        <time>2022-06-25T07:50:47Z</time>
      </trkpt>
      <trkpt lat="46.62357" lon="5.09275">
        <ele>204.2</ele>
        <time>2022-06-25T07:50:48Z</time>
      </trkpt>
      <trkpt lat="46.62356" lon="5.09265">
        <ele>204.2</ele>
        <time>2022-06-25T07:50:49Z</time>
      </trkpt>
      <trkpt lat="46.62354" lon="5.09255">
        <ele>204.6</ele>
        <time>2022-06-25T07:50:50Z</time>
      </trkpt>
      <trkpt lat="46.62352" lon="5.09245">
        <ele>204.8</ele>
        <time>2022-06-25T07:50:51Z</time>
      </trkpt>
      <trkpt lat="46.6235" lon="5.09236">
        <ele>205.2</ele>
        <time>2022-06-25T07:50:52Z</time>
      </trkpt>
      <trkpt lat="46.62349" lon="5.09228">
        <ele>205.2</ele>
        <time>2022-06-25T07:50:53Z</time>
      </trkpt>
      <trkpt lat="46.62347" lon="5.0922">
        <ele>205.6</ele>
        <time>2022-06-25T07:50:54Z</time>
      </trkpt>
      <trkpt lat="46.62346" lon="5.09212">
        <ele>205.6</ele>
        <time>2022-06-25T07:50:55Z</time>
      </trkpt>
      <trkpt lat="46.62345" lon="5.09204">
        <ele>206</ele>
        <time>2022-06-25T07:50:56Z</time>
      </trkpt>
      <trkpt lat="46.62343" lon="5.09197">
        <ele>206.2</ele>
        <time>2022-06-25T07:50:57Z</time>
      </trkpt>
      <trkpt lat="46.62342" lon="5.0919">
        <ele>206.2</ele>
        <time>2022-06-25T07:50:58Z</time>
      </trkpt>
      <trkpt lat="46.62341" lon="5.09183">
        <ele>206.4</ele>
        <time>2022-06-25T07:50:59Z</time>
      </trkpt>
      <trkpt lat="46.6234" lon="5.09176">
        <ele>206.4</ele>
        <time>2022-06-25T07:51:00Z</time>
      </trkpt>
      <trkpt lat="46.62338" lon="5.09168">
        <ele>206.4</ele>
        <time>2022-06-25T07:51:01Z</time>
      </trkpt>
      <trkpt lat="46.62337" lon="5.09161">
        <ele>206.6</ele>
        <time>2022-06-25T07:51:02Z</time>
      </trkpt>
      <trkpt lat="46.62336" lon="5.09154">
        <ele>206.6</ele>
        <time>2022-06-25T07:51:03Z</time>
      </trkpt>
      <trkpt lat="46.62335" lon="5.09146">
        <ele>206.6</ele>
        <time>2022-06-25T07:51:04Z</time>
      </trkpt>
      <trkpt lat="46.62333" lon="5.09138">
        <ele>207.2</ele>
        <time>2022-06-25T07:51:05Z</time>
      </trkpt>
      <trkpt lat="46.62332" lon="5.09131">
        <ele>207.2</ele>
        <time>2022-06-25T07:51:06Z</time>
      </trkpt>
      <trkpt lat="46.6233" lon="5.09123">
        <ele>207.2</ele>
        <time>2022-06-25T07:51:07Z</time>
      </trkpt>
      <trkpt lat="46.62329" lon="5.09116">
        <ele>207.2</ele>
        <time>2022-06-25T07:51:08Z</time>
      </trkpt>
      <trkpt lat="46.62328" lon="5.09108">
        <ele>207.4</ele>
        <time>2022-06-25T07:51:09Z</time>
      </trkpt>
      <trkpt lat="46.62326" lon="5.091">
        <ele>207.4</ele>
        <time>2022-06-25T07:51:10Z</time>
      </trkpt>
      <trkpt lat="46.62325" lon="5.09092">
        <ele>207.4</ele>
        <time>2022-06-25T07:51:11Z</time>
      </trkpt>
      <trkpt lat="46.62323" lon="5.09084">
        <ele>207.4</ele>
        <time>2022-06-25T07:51:12Z</time>
      </trkpt>
      <trkpt lat="46.62321" lon="5.09076">
        <ele>207.4</ele>
        <time>2022-06-25T07:51:13Z</time>
      </trkpt>
      <trkpt lat="46.6232" lon="5.09068">
        <ele>207.4</ele>
        <time>2022-06-25T07:51:14Z</time>
      </trkpt>
      <trkpt lat="46.62318" lon="5.0906">
        <ele>207.4</ele>
        <time>2022-06-25T07:51:15Z</time>
      </trkpt>
      <trkpt lat="46.62316" lon="5.09051">
        <ele>207</ele>
        <time>2022-06-25T07:51:16Z</time>
      </trkpt>
      <trkpt lat="46.62314" lon="5.09043">
        <ele>207</ele>
        <time>2022-06-25T07:51:17Z</time>
      </trkpt>
      <trkpt lat="46.62312" lon="5.09035">
        <ele>207</ele>
        <time>2022-06-25T07:51:18Z</time>
      </trkpt>
      <trkpt lat="46.6231" lon="5.09026">
        <ele>207</ele>
        <time>2022-06-25T07:51:19Z</time>
      </trkpt>
      <trkpt lat="46.62307" lon="5.09018">
        <ele>207</ele>
        <time>2022-06-25T07:51:20Z</time>
      </trkpt>
      <trkpt lat="46.62305" lon="5.0901">
        <ele>207</ele>
        <time>2022-06-25T07:51:21Z</time>
      </trkpt>
      <trkpt lat="46.62303" lon="5.09002">
        <ele>207</ele>
        <time>2022-06-25T07:51:22Z</time>
      </trkpt>
      <trkpt lat="46.62301" lon="5.08994">
        <ele>207</ele>
        <time>2022-06-25T07:51:23Z</time>
      </trkpt>
      <trkpt lat="46.62299" lon="5.08985">
        <ele>207</ele>
        <time>2022-06-25T07:51:24Z</time>
      </trkpt>
      <trkpt lat="46.62297" lon="5.08977">
        <ele>207</ele>
        <time>2022-06-25T07:51:25Z</time>
      </trkpt>
      <trkpt lat="46.62295" lon="5.08968">
        <ele>207</ele>
        <time>2022-06-25T07:51:26Z</time>
      </trkpt>
      <trkpt lat="46.62292" lon="5.0896">
        <ele>207</ele>
        <time>2022-06-25T07:51:27Z</time>
      </trkpt>
      <trkpt lat="46.6229" lon="5.08951">
        <ele>207</ele>
        <time>2022-06-25T07:51:28Z</time>
      </trkpt>
      <trkpt lat="46.62288" lon="5.08943">
        <ele>207.4</ele>
        <time>2022-06-25T07:51:29Z</time>
      </trkpt>
      <trkpt lat="46.62286" lon="5.08934">
        <ele>207.4</ele>
        <time>2022-06-25T07:51:30Z</time>
      </trkpt>
      <trkpt lat="46.62283" lon="5.08926">
        <ele>207.4</ele>
        <time>2022-06-25T07:51:31Z</time>
      </trkpt>
      <trkpt lat="46.62281" lon="5.08917">
        <ele>207.4</ele>
        <time>2022-06-25T07:51:32Z</time>
      </trkpt>
      <trkpt lat="46.62279" lon="5.08909">
        <ele>207.4</ele>
        <time>2022-06-25T07:51:33Z</time>
      </trkpt>
      <trkpt lat="46.62276" lon="5.089">
        <ele>207.4</ele>
        <time>2022-06-25T07:51:34Z</time>
      </trkpt>
      <trkpt lat="46.62274" lon="5.08891">
        <ele>207.4</ele>
        <time>2022-06-25T07:51:35Z</time>
      </trkpt>
      <trkpt lat="46.62272" lon="5.08883">
        <ele>207.4</ele>
        <time>2022-06-25T07:51:36Z</time>
      </trkpt>
      <trkpt lat="46.62269" lon="5.08874">
        <ele>207.4</ele>
        <time>2022-06-25T07:51:37Z</time>
      </trkpt>
      <trkpt lat="46.62267" lon="5.08865">
        <ele>207.4</ele>
        <time>2022-06-25T07:51:38Z</time>
      </trkpt>
      <trkpt lat="46.62265" lon="5.08856">
        <ele>207.4</ele>
        <time>2022-06-25T07:51:39Z</time>
      </trkpt>
      <trkpt lat="46.62263" lon="5.08847">
        <ele>207.4</ele>
        <time>2022-06-25T07:51:40Z</time>
      </trkpt>
      <trkpt lat="46.6226" lon="5.08838">
        <ele>207.4</ele>
        <time>2022-06-25T07:51:41Z</time>
      </trkpt>
      <trkpt lat="46.62258" lon="5.08828">
        <ele>207.4</ele>
        <time>2022-06-25T07:51:42Z</time>
      </trkpt>
      <trkpt lat="46.62256" lon="5.08819">
        <ele>207.4</ele>
        <time>2022-06-25T07:51:43Z</time>
      </trkpt>
      <trkpt lat="46.62253" lon="5.08809">
        <ele>207.4</ele>
        <time>2022-06-25T07:51:44Z</time>
      </trkpt>
      <trkpt lat="46.62251" lon="5.08799">
        <ele>207.4</ele>
        <time>2022-06-25T07:51:45Z</time>
      </trkpt>
      <trkpt lat="46.62249" lon="5.0879">
        <ele>207.4</ele>
        <time>2022-06-25T07:51:46Z</time>
      </trkpt>
      <trkpt lat="46.62247" lon="5.0878">
        <ele>207.4</ele>
        <time>2022-06-25T07:51:47Z</time>
      </trkpt>
      <trkpt lat="46.62246" lon="5.0877">
        <ele>207.4</ele>
        <time>2022-06-25T07:51:48Z</time>
      </trkpt>
      <trkpt lat="46.62245" lon="5.0876">
        <ele>207.4</ele>
        <time>2022-06-25T07:51:49Z</time>
      </trkpt>
      <trkpt lat="46.62243" lon="5.0875">
        <ele>207.4</ele>
        <time>2022-06-25T07:51:50Z</time>
      </trkpt>
      <trkpt lat="46.62242" lon="5.08741">
        <ele>207.4</ele>
        <time>2022-06-25T07:51:51Z</time>
      </trkpt>
      <trkpt lat="46.62241" lon="5.08731">
        <ele>207.4</ele>
        <time>2022-06-25T07:51:52Z</time>
      </trkpt>
      <trkpt lat="46.6224" lon="5.08722">
        <ele>207.4</ele>
        <time>2022-06-25T07:51:53Z</time>
      </trkpt>
      <trkpt lat="46.62239" lon="5.08712">
        <ele>207.4</ele>
        <time>2022-06-25T07:51:54Z</time>
      </trkpt>
      <trkpt lat="46.62238" lon="5.08702">
        <ele>207.4</ele>
        <time>2022-06-25T07:51:55Z</time>
      </trkpt>
      <trkpt lat="46.62237" lon="5.08692">
        <ele>207.4</ele>
        <time>2022-06-25T07:51:56Z</time>
      </trkpt>
      <trkpt lat="46.62236" lon="5.08682">
        <ele>207.4</ele>
        <time>2022-06-25T07:51:57Z</time>
      </trkpt>
      <trkpt lat="46.62235" lon="5.08672">
        <ele>207.4</ele>
        <time>2022-06-25T07:51:58Z</time>
      </trkpt>
      <trkpt lat="46.62234" lon="5.08662">
        <ele>207.4</ele>
        <time>2022-06-25T07:51:59Z</time>
      </trkpt>
      <trkpt lat="46.62232" lon="5.08652">
        <ele>207.4</ele>
        <time>2022-06-25T07:52:00Z</time>
      </trkpt>
      <trkpt lat="46.62231" lon="5.08642">
        <ele>207.4</ele>
        <time>2022-06-25T07:52:01Z</time>
      </trkpt>
      <trkpt lat="46.6223" lon="5.08632">
        <ele>207.4</ele>
        <time>2022-06-25T07:52:02Z</time>
      </trkpt>
      <trkpt lat="46.62229" lon="5.08622">
        <ele>207.4</ele>
        <time>2022-06-25T07:52:03Z</time>
      </trkpt>
      <trkpt lat="46.62228" lon="5.08611">
        <ele>207.4</ele>
        <time>2022-06-25T07:52:04Z</time>
      </trkpt>
      <trkpt lat="46.62227" lon="5.08601">
        <ele>207</ele>
        <time>2022-06-25T07:52:05Z</time>
      </trkpt>
      <trkpt lat="46.62226" lon="5.0859">
        <ele>207</ele>
        <time>2022-06-25T07:52:06Z</time>
      </trkpt>
      <trkpt lat="46.62225" lon="5.08579">
        <ele>207</ele>
        <time>2022-06-25T07:52:07Z</time>
      </trkpt>
      <trkpt lat="46.62223" lon="5.08569">
        <ele>206.8</ele>
        <time>2022-06-25T07:52:08Z</time>
      </trkpt>
      <trkpt lat="46.62222" lon="5.08557">
        <ele>206.8</ele>
        <time>2022-06-25T07:52:09Z</time>
      </trkpt>
      <trkpt lat="46.62221" lon="5.08546">
        <ele>206.8</ele>
        <time>2022-06-25T07:52:10Z</time>
      </trkpt>
      <trkpt lat="46.62219" lon="5.08535">
        <ele>206.8</ele>
        <time>2022-06-25T07:52:11Z</time>
      </trkpt>
      <trkpt lat="46.62218" lon="5.08524">
        <ele>206.6</ele>
        <time>2022-06-25T07:52:12Z</time>
      </trkpt>
      <trkpt lat="46.62217" lon="5.08513">
        <ele>206.6</ele>
        <time>2022-06-25T07:52:13Z</time>
      </trkpt>
      <trkpt lat="46.62215" lon="5.08501">
        <ele>206.6</ele>
        <time>2022-06-25T07:52:14Z</time>
      </trkpt>
      <trkpt lat="46.62213" lon="5.0849">
        <ele>206.6</ele>
        <time>2022-06-25T07:52:15Z</time>
      </trkpt>
      <trkpt lat="46.62211" lon="5.08479">
        <ele>206.6</ele>
        <time>2022-06-25T07:52:16Z</time>
      </trkpt>
      <trkpt lat="46.62209" lon="5.08468">
        <ele>206.4</ele>
        <time>2022-06-25T07:52:17Z</time>
      </trkpt>
      <trkpt lat="46.62206" lon="5.08456">
        <ele>206.4</ele>
        <time>2022-06-25T07:52:18Z</time>
      </trkpt>
      <trkpt lat="46.62202" lon="5.08445">
        <ele>206</ele>
        <time>2022-06-25T07:52:19Z</time>
      </trkpt>
      <trkpt lat="46.62198" lon="5.08434">
        <ele>205.6</ele>
        <time>2022-06-25T07:52:20Z</time>
      </trkpt>
      <trkpt lat="46.62194" lon="5.08423">
        <ele>205.6</ele>
        <time>2022-06-25T07:52:21Z</time>
      </trkpt>
      <trkpt lat="46.6219" lon="5.08412">
        <ele>205.2</ele>
        <time>2022-06-25T07:52:22Z</time>
      </trkpt>
      <trkpt lat="46.62185" lon="5.08401">
        <ele>205.2</ele>
        <time>2022-06-25T07:52:23Z</time>
      </trkpt>
      <trkpt lat="46.62181" lon="5.0839">
        <ele>204.8</ele>
        <time>2022-06-25T07:52:24Z</time>
      </trkpt>
      <trkpt lat="46.62177" lon="5.08379">
        <ele>204.6</ele>
        <time>2022-06-25T07:52:25Z</time>
      </trkpt>
      <trkpt lat="46.62172" lon="5.08368">
        <ele>204.2</ele>
        <time>2022-06-25T07:52:26Z</time>
      </trkpt>
      <trkpt lat="46.62168" lon="5.08357">
        <ele>204.2</ele>
        <time>2022-06-25T07:52:27Z</time>
      </trkpt>
      <trkpt lat="46.62163" lon="5.08346">
        <ele>204</ele>
        <time>2022-06-25T07:52:28Z</time>
      </trkpt>
      <trkpt lat="46.62159" lon="5.08336">
        <ele>203.8</ele>
        <time>2022-06-25T07:52:29Z</time>
      </trkpt>
      <trkpt lat="46.62155" lon="5.08325">
        <ele>203.8</ele>
        <time>2022-06-25T07:52:30Z</time>
      </trkpt>
      <trkpt lat="46.62151" lon="5.08315">
        <ele>203.6</ele>
        <time>2022-06-25T07:52:31Z</time>
      </trkpt>
      <trkpt lat="46.62146" lon="5.08305">
        <ele>203.6</ele>
        <time>2022-06-25T07:52:32Z</time>
      </trkpt>
      <trkpt lat="46.62142" lon="5.08295">
        <ele>203.4</ele>
        <time>2022-06-25T07:52:33Z</time>
      </trkpt>
      <trkpt lat="46.62138" lon="5.08285">
        <ele>203.2</ele>
        <time>2022-06-25T07:52:34Z</time>
      </trkpt>
      <trkpt lat="46.62134" lon="5.08275">
        <ele>203.2</ele>
        <time>2022-06-25T07:52:35Z</time>
      </trkpt>
      <trkpt lat="46.62131" lon="5.08265">
        <ele>203</ele>
        <time>2022-06-25T07:52:36Z</time>
      </trkpt>
      <trkpt lat="46.62127" lon="5.08255">
        <ele>203</ele>
        <time>2022-06-25T07:52:37Z</time>
      </trkpt>
      <trkpt lat="46.62123" lon="5.08246">
        <ele>203</ele>
        <time>2022-06-25T07:52:38Z</time>
      </trkpt>
      <trkpt lat="46.62119" lon="5.08236">
        <ele>202.8</ele>
        <time>2022-06-25T07:52:39Z</time>
      </trkpt>
      <trkpt lat="46.62115" lon="5.08227">
        <ele>202.8</ele>
        <time>2022-06-25T07:52:40Z</time>
      </trkpt>
      <trkpt lat="46.62111" lon="5.08218">
        <ele>202.8</ele>
        <time>2022-06-25T07:52:41Z</time>
      </trkpt>
      <trkpt lat="46.62107" lon="5.08209">
        <ele>202.8</ele>
        <time>2022-06-25T07:52:42Z</time>
      </trkpt>
      <trkpt lat="46.62104" lon="5.082">
        <ele>203</ele>
        <time>2022-06-25T07:52:43Z</time>
      </trkpt>
      <trkpt lat="46.621" lon="5.08191">
        <ele>203</ele>
        <time>2022-06-25T07:52:44Z</time>
      </trkpt>
      <trkpt lat="46.62097" lon="5.08182">
        <ele>203</ele>
        <time>2022-06-25T07:52:45Z</time>
      </trkpt>
      <trkpt lat="46.62093" lon="5.08174">
        <ele>203.2</ele>
        <time>2022-06-25T07:52:46Z</time>
      </trkpt>
      <trkpt lat="46.6209" lon="5.08166">
        <ele>203.2</ele>
        <time>2022-06-25T07:52:47Z</time>
      </trkpt>
      <trkpt lat="46.62086" lon="5.08158">
        <ele>203.2</ele>
        <time>2022-06-25T07:52:48Z</time>
      </trkpt>
      <trkpt lat="46.62083" lon="5.0815">
        <ele>203.4</ele>
        <time>2022-06-25T07:52:49Z</time>
      </trkpt>
      <trkpt lat="46.6208" lon="5.08142">
        <ele>203.4</ele>
        <time>2022-06-25T07:52:50Z</time>
      </trkpt>
      <trkpt lat="46.62077" lon="5.08135">
        <ele>203.4</ele>
        <time>2022-06-25T07:52:51Z</time>
      </trkpt>
      <trkpt lat="46.62074" lon="5.08127">
        <ele>203.8</ele>
        <time>2022-06-25T07:52:52Z</time>
      </trkpt>
      <trkpt lat="46.62071" lon="5.0812">
        <ele>203.8</ele>
        <time>2022-06-25T07:52:53Z</time>
      </trkpt>
      <trkpt lat="46.62068" lon="5.08112">
        <ele>203.8</ele>
        <time>2022-06-25T07:52:54Z</time>
      </trkpt>
      <trkpt lat="46.62065" lon="5.08104">
        <ele>203.8</ele>
        <time>2022-06-25T07:52:55Z</time>
      </trkpt>
      <trkpt lat="46.62062" lon="5.08097">
        <ele>203.8</ele>
        <time>2022-06-25T07:52:56Z</time>
      </trkpt>
      <trkpt lat="46.62059" lon="5.08089">
        <ele>203.8</ele>
        <time>2022-06-25T07:52:57Z</time>
      </trkpt>
      <trkpt lat="46.62056" lon="5.08081">
        <ele>203.8</ele>
        <time>2022-06-25T07:52:58Z</time>
      </trkpt>
      <trkpt lat="46.62053" lon="5.08073">
        <ele>203.8</ele>
        <time>2022-06-25T07:52:59Z</time>
      </trkpt>
      <trkpt lat="46.62049" lon="5.08065">
        <ele>203.8</ele>
        <time>2022-06-25T07:53:00Z</time>
      </trkpt>
      <trkpt lat="46.62046" lon="5.08056">
        <ele>203.8</ele>
        <time>2022-06-25T07:53:01Z</time>
      </trkpt>
      <trkpt lat="46.62043" lon="5.08048">
        <ele>203.8</ele>
        <time>2022-06-25T07:53:02Z</time>
      </trkpt>
      <trkpt lat="46.6204" lon="5.08039">
        <ele>203.8</ele>
        <time>2022-06-25T07:53:03Z</time>
      </trkpt>
      <trkpt lat="46.62038" lon="5.0803">
        <ele>203.4</ele>
        <time>2022-06-25T07:53:04Z</time>
      </trkpt>
      <trkpt lat="46.62035" lon="5.08021">
        <ele>203.4</ele>
        <time>2022-06-25T07:53:05Z</time>
      </trkpt>
      <trkpt lat="46.62033" lon="5.08012">
        <ele>203.2</ele>
        <time>2022-06-25T07:53:06Z</time>
      </trkpt>
      <trkpt lat="46.62032" lon="5.08002">
        <ele>203.2</ele>
        <time>2022-06-25T07:53:07Z</time>
      </trkpt>
      <trkpt lat="46.62031" lon="5.07991">
        <ele>203</ele>
        <time>2022-06-25T07:53:08Z</time>
      </trkpt>
      <trkpt lat="46.62031" lon="5.07981">
        <ele>202.6</ele>
        <time>2022-06-25T07:53:09Z</time>
      </trkpt>
      <trkpt lat="46.62031" lon="5.0797">
        <ele>202.4</ele>
        <time>2022-06-25T07:53:10Z</time>
      </trkpt>
      <trkpt lat="46.62032" lon="5.0796">
        <ele>202</ele>
        <time>2022-06-25T07:53:11Z</time>
      </trkpt>
      <trkpt lat="46.62034" lon="5.07949">
        <ele>201.8</ele>
        <time>2022-06-25T07:53:12Z</time>
      </trkpt>
      <trkpt lat="46.62036" lon="5.07939">
        <ele>201.8</ele>
        <time>2022-06-25T07:53:13Z</time>
      </trkpt>
      <trkpt lat="46.62039" lon="5.07929">
        <ele>201.4</ele>
        <time>2022-06-25T07:53:14Z</time>
      </trkpt>
      <trkpt lat="46.62043" lon="5.07919">
        <ele>201.4</ele>
        <time>2022-06-25T07:53:15Z</time>
      </trkpt>
      <trkpt lat="46.62047" lon="5.0791">
        <ele>201.2</ele>
        <time>2022-06-25T07:53:16Z</time>
      </trkpt>
      <trkpt lat="46.62052" lon="5.07901">
        <ele>201.2</ele>
        <time>2022-06-25T07:53:17Z</time>
      </trkpt>
      <trkpt lat="46.62057" lon="5.07892">
        <ele>201.2</ele>
        <time>2022-06-25T07:53:18Z</time>
      </trkpt>
      <trkpt lat="46.62061" lon="5.07883">
        <ele>200.8</ele>
        <time>2022-06-25T07:53:19Z</time>
      </trkpt>
      <trkpt lat="46.62066" lon="5.07874">
        <ele>200.8</ele>
        <time>2022-06-25T07:53:20Z</time>
      </trkpt>
      <trkpt lat="46.62071" lon="5.07866">
        <ele>200.4</ele>
        <time>2022-06-25T07:53:21Z</time>
      </trkpt>
      <trkpt lat="46.62076" lon="5.07857">
        <ele>200</ele>
        <time>2022-06-25T07:53:22Z</time>
      </trkpt>
      <trkpt lat="46.62087" lon="5.07838">
        <ele>200</ele>
        <time>2022-06-25T07:53:23Z</time>
      </trkpt>
      <trkpt lat="46.62092" lon="5.07829">
        <ele>199.6</ele>
        <time>2022-06-25T07:53:24Z</time>
      </trkpt>
      <trkpt lat="46.62098" lon="5.07819">
        <ele>199.2</ele>
        <time>2022-06-25T07:53:25Z</time>
      </trkpt>
      <trkpt lat="46.62103" lon="5.07809">
        <ele>199</ele>
        <time>2022-06-25T07:53:26Z</time>
      </trkpt>
      <trkpt lat="46.62109" lon="5.07798">
        <ele>198.6</ele>
        <time>2022-06-25T07:53:27Z</time>
      </trkpt>
      <trkpt lat="46.62116" lon="5.07787">
        <ele>198.2</ele>
        <time>2022-06-25T07:53:28Z</time>
      </trkpt>
      <trkpt lat="46.62122" lon="5.07776">
        <ele>197.8</ele>
        <time>2022-06-25T07:53:29Z</time>
      </trkpt>
      <trkpt lat="46.62128" lon="5.07766">
        <ele>197.4</ele>
        <time>2022-06-25T07:53:30Z</time>
      </trkpt>
      <trkpt lat="46.62134" lon="5.07754">
        <ele>196.8</ele>
        <time>2022-06-25T07:53:31Z</time>
      </trkpt>
      <trkpt lat="46.6214" lon="5.07741">
        <ele>196.2</ele>
        <time>2022-06-25T07:53:32Z</time>
      </trkpt>
      <trkpt lat="46.62146" lon="5.07727">
        <ele>195.4</ele>
        <time>2022-06-25T07:53:33Z</time>
      </trkpt>
      <trkpt lat="46.62153" lon="5.07713">
        <ele>194.8</ele>
        <time>2022-06-25T07:53:34Z</time>
      </trkpt>
      <trkpt lat="46.6216" lon="5.07699">
        <ele>194.2</ele>
        <time>2022-06-25T07:53:35Z</time>
      </trkpt>
      <trkpt lat="46.62168" lon="5.07685">
        <ele>193.4</ele>
        <time>2022-06-25T07:53:36Z</time>
      </trkpt>
      <trkpt lat="46.62177" lon="5.07672">
        <ele>192.6</ele>
        <time>2022-06-25T07:53:37Z</time>
      </trkpt>
      <trkpt lat="46.62185" lon="5.07658">
        <ele>191.8</ele>
        <time>2022-06-25T07:53:38Z</time>
      </trkpt>
      <trkpt lat="46.62194" lon="5.07644">
        <ele>190.8</ele>
        <time>2022-06-25T07:53:39Z</time>
      </trkpt>
      <trkpt lat="46.62202" lon="5.0763">
        <ele>190.2</ele>
        <time>2022-06-25T07:53:40Z</time>
      </trkpt>
      <trkpt lat="46.6221" lon="5.07615">
        <ele>189.4</ele>
        <time>2022-06-25T07:53:41Z</time>
      </trkpt>
      <trkpt lat="46.62218" lon="5.076">
        <ele>188.8</ele>
        <time>2022-06-25T07:53:42Z</time>
      </trkpt>
      <trkpt lat="46.62225" lon="5.07585">
        <ele>188.4</ele>
        <time>2022-06-25T07:53:43Z</time>
      </trkpt>
      <trkpt lat="46.62232" lon="5.07572">
        <ele>188.2</ele>
        <time>2022-06-25T07:53:44Z</time>
      </trkpt>
      <trkpt lat="46.6224" lon="5.07559">
        <ele>188</ele>
        <time>2022-06-25T07:53:45Z</time>
      </trkpt>
      <trkpt lat="46.62247" lon="5.07547">
        <ele>187.6</ele>
        <time>2022-06-25T07:53:46Z</time>
      </trkpt>
      <trkpt lat="46.62253" lon="5.07535">
        <ele>187.4</ele>
        <time>2022-06-25T07:53:47Z</time>
      </trkpt>
      <trkpt lat="46.62259" lon="5.07525">
        <ele>187.4</ele>
        <time>2022-06-25T07:53:48Z</time>
      </trkpt>
      <trkpt lat="46.62264" lon="5.07514">
        <ele>187.2</ele>
        <time>2022-06-25T07:53:49Z</time>
      </trkpt>
      <trkpt lat="46.62269" lon="5.07504">
        <ele>187.2</ele>
        <time>2022-06-25T07:53:50Z</time>
      </trkpt>
      <trkpt lat="46.62274" lon="5.07495">
        <ele>187.4</ele>
        <time>2022-06-25T07:53:51Z</time>
      </trkpt>
      <trkpt lat="46.62279" lon="5.07486">
        <ele>187.4</ele>
        <time>2022-06-25T07:53:52Z</time>
      </trkpt>
      <trkpt lat="46.62283" lon="5.07478">
        <ele>187.8</ele>
        <time>2022-06-25T07:53:53Z</time>
      </trkpt>
      <trkpt lat="46.62287" lon="5.0747">
        <ele>188</ele>
        <time>2022-06-25T07:53:54Z</time>
      </trkpt>
      <trkpt lat="46.62291" lon="5.07463">
        <ele>188.2</ele>
        <time>2022-06-25T07:53:55Z</time>
      </trkpt>
      <trkpt lat="46.62294" lon="5.07455">
        <ele>188.2</ele>
        <time>2022-06-25T07:53:56Z</time>
      </trkpt>
      <trkpt lat="46.62296" lon="5.07447">
        <ele>188.6</ele>
        <time>2022-06-25T07:53:57Z</time>
      </trkpt>
      <trkpt lat="46.62298" lon="5.0744">
        <ele>189</ele>
        <time>2022-06-25T07:53:58Z</time>
      </trkpt>
      <trkpt lat="46.623" lon="5.07433">
        <ele>189</ele>
        <time>2022-06-25T07:53:59Z</time>
      </trkpt>
      <trkpt lat="46.62302" lon="5.07425">
        <ele>189.2</ele>
        <time>2022-06-25T07:54:00Z</time>
      </trkpt>
      <trkpt lat="46.62303" lon="5.07418">
        <ele>189.2</ele>
        <time>2022-06-25T07:54:01Z</time>
      </trkpt>
      <trkpt lat="46.62305" lon="5.07412">
        <ele>189.6</ele>
        <time>2022-06-25T07:54:02Z</time>
      </trkpt>
      <trkpt lat="46.62307" lon="5.07405">
        <ele>189.8</ele>
        <time>2022-06-25T07:54:03Z</time>
      </trkpt>
      <trkpt lat="46.62308" lon="5.07398">
        <ele>190</ele>
        <time>2022-06-25T07:54:04Z</time>
      </trkpt>
      <trkpt lat="46.62309" lon="5.07392">
        <ele>190.4</ele>
        <time>2022-06-25T07:54:05Z</time>
      </trkpt>
      <trkpt lat="46.6231" lon="5.07385">
        <ele>190.6</ele>
        <time>2022-06-25T07:54:06Z</time>
      </trkpt>
      <trkpt lat="46.62312" lon="5.07378">
        <ele>191</ele>
        <time>2022-06-25T07:54:07Z</time>
      </trkpt>
      <trkpt lat="46.62313" lon="5.07372">
        <ele>191</ele>
        <time>2022-06-25T07:54:08Z</time>
      </trkpt>
      <trkpt lat="46.62314" lon="5.07366">
        <ele>191.4</ele>
        <time>2022-06-25T07:54:09Z</time>
      </trkpt>
      <trkpt lat="46.62315" lon="5.0736">
        <ele>191.6</ele>
        <time>2022-06-25T07:54:10Z</time>
      </trkpt>
      <trkpt lat="46.62316" lon="5.07354">
        <ele>191.8</ele>
        <time>2022-06-25T07:54:11Z</time>
      </trkpt>
      <trkpt lat="46.62317" lon="5.07348">
        <ele>192</ele>
        <time>2022-06-25T07:54:12Z</time>
      </trkpt>
      <trkpt lat="46.62319" lon="5.07342">
        <ele>192</ele>
        <time>2022-06-25T07:54:13Z</time>
      </trkpt>
      <trkpt lat="46.62319" lon="5.07337">
        <ele>192.4</ele>
        <time>2022-06-25T07:54:14Z</time>
      </trkpt>
      <trkpt lat="46.6232" lon="5.07331">
        <ele>192.6</ele>
        <time>2022-06-25T07:54:15Z</time>
      </trkpt>
      <trkpt lat="46.62321" lon="5.07325">
        <ele>193</ele>
        <time>2022-06-25T07:54:16Z</time>
      </trkpt>
      <trkpt lat="46.62323" lon="5.0732">
        <ele>193.2</ele>
        <time>2022-06-25T07:54:17Z</time>
      </trkpt>
      <trkpt lat="46.62324" lon="5.07314">
        <ele>193.2</ele>
        <time>2022-06-25T07:54:18Z</time>
      </trkpt>
      <trkpt lat="46.62325" lon="5.07308">
        <ele>193.6</ele>
        <time>2022-06-25T07:54:19Z</time>
      </trkpt>
      <trkpt lat="46.62327" lon="5.07302">
        <ele>193.8</ele>
        <time>2022-06-25T07:54:20Z</time>
      </trkpt>
      <trkpt lat="46.62328" lon="5.07295">
        <ele>194</ele>
        <time>2022-06-25T07:54:21Z</time>
      </trkpt>
      <trkpt lat="46.62329" lon="5.07289">
        <ele>194.2</ele>
        <time>2022-06-25T07:54:22Z</time>
      </trkpt>
      <trkpt lat="46.6233" lon="5.07283">
        <ele>194.4</ele>
        <time>2022-06-25T07:54:23Z</time>
      </trkpt>
      <trkpt lat="46.62332" lon="5.07277">
        <ele>194.4</ele>
        <time>2022-06-25T07:54:24Z</time>
      </trkpt>
      <trkpt lat="46.62333" lon="5.07271">
        <ele>194.8</ele>
        <time>2022-06-25T07:54:25Z</time>
      </trkpt>
      <trkpt lat="46.62335" lon="5.07264">
        <ele>194.8</ele>
        <time>2022-06-25T07:54:26Z</time>
      </trkpt>
      <trkpt lat="46.62336" lon="5.07258">
        <ele>194.8</ele>
        <time>2022-06-25T07:54:27Z</time>
      </trkpt>
      <trkpt lat="46.62338" lon="5.07251">
        <ele>195</ele>
        <time>2022-06-25T07:54:28Z</time>
      </trkpt>
      <trkpt lat="46.62339" lon="5.07245">
        <ele>195</ele>
        <time>2022-06-25T07:54:29Z</time>
      </trkpt>
      <trkpt lat="46.6234" lon="5.07238">
        <ele>195</ele>
        <time>2022-06-25T07:54:30Z</time>
      </trkpt>
      <trkpt lat="46.62342" lon="5.07231">
        <ele>195.4</ele>
        <time>2022-06-25T07:54:31Z</time>
      </trkpt>
      <trkpt lat="46.62343" lon="5.07224">
        <ele>195.4</ele>
        <time>2022-06-25T07:54:32Z</time>
      </trkpt>
      <trkpt lat="46.62344" lon="5.07217">
        <ele>195.4</ele>
        <time>2022-06-25T07:54:33Z</time>
      </trkpt>
      <trkpt lat="46.62346" lon="5.07209">
        <ele>195.4</ele>
        <time>2022-06-25T07:54:34Z</time>
      </trkpt>
      <trkpt lat="46.62348" lon="5.07202">
        <ele>195.6</ele>
        <time>2022-06-25T07:54:35Z</time>
      </trkpt>
      <trkpt lat="46.62349" lon="5.07194">
        <ele>195.6</ele>
        <time>2022-06-25T07:54:36Z</time>
      </trkpt>
      <trkpt lat="46.62351" lon="5.07187">
        <ele>195.6</ele>
        <time>2022-06-25T07:54:37Z</time>
      </trkpt>
      <trkpt lat="46.62352" lon="5.07179">
        <ele>195.6</ele>
        <time>2022-06-25T07:54:38Z</time>
      </trkpt>
      <trkpt lat="46.62354" lon="5.07171">
        <ele>195.6</ele>
        <time>2022-06-25T07:54:39Z</time>
      </trkpt>
      <trkpt lat="46.62356" lon="5.07164">
        <ele>195.6</ele>
        <time>2022-06-25T07:54:40Z</time>
      </trkpt>
      <trkpt lat="46.62358" lon="5.07156">
        <ele>195.2</ele>
        <time>2022-06-25T07:54:41Z</time>
      </trkpt>
      <trkpt lat="46.6236" lon="5.07147">
        <ele>195.2</ele>
        <time>2022-06-25T07:54:42Z</time>
      </trkpt>
      <trkpt lat="46.62361" lon="5.07139">
        <ele>195.2</ele>
        <time>2022-06-25T07:54:43Z</time>
      </trkpt>
      <trkpt lat="46.62363" lon="5.07131">
        <ele>194.8</ele>
        <time>2022-06-25T07:54:44Z</time>
      </trkpt>
      <trkpt lat="46.62365" lon="5.07124">
        <ele>194.8</ele>
        <time>2022-06-25T07:54:45Z</time>
      </trkpt>
      <trkpt lat="46.62366" lon="5.07116">
        <ele>194.4</ele>
        <time>2022-06-25T07:54:46Z</time>
      </trkpt>
      <trkpt lat="46.62367" lon="5.07107">
        <ele>194.2</ele>
        <time>2022-06-25T07:54:47Z</time>
      </trkpt>
      <trkpt lat="46.62368" lon="5.07098">
        <ele>194</ele>
        <time>2022-06-25T07:54:48Z</time>
      </trkpt>
      <trkpt lat="46.62368" lon="5.07089">
        <ele>193.6</ele>
        <time>2022-06-25T07:54:49Z</time>
      </trkpt>
      <trkpt lat="46.62368" lon="5.0708">
        <ele>193.4</ele>
        <time>2022-06-25T07:54:50Z</time>
      </trkpt>
      <trkpt lat="46.62366" lon="5.07071">
        <ele>193</ele>
        <time>2022-06-25T07:54:51Z</time>
      </trkpt>
      <trkpt lat="46.62363" lon="5.07063">
        <ele>192.8</ele>
        <time>2022-06-25T07:54:52Z</time>
      </trkpt>
      <trkpt lat="46.62359" lon="5.07055">
        <ele>192.8</ele>
        <time>2022-06-25T07:54:53Z</time>
      </trkpt>
      <trkpt lat="46.62354" lon="5.07047">
        <ele>192.4</ele>
        <time>2022-06-25T07:54:54Z</time>
      </trkpt>
      <trkpt lat="46.62349" lon="5.07038">
        <ele>192.4</ele>
        <time>2022-06-25T07:54:55Z</time>
      </trkpt>
      <trkpt lat="46.62343" lon="5.0703">
        <ele>192.2</ele>
        <time>2022-06-25T07:54:56Z</time>
      </trkpt>
      <trkpt lat="46.62339" lon="5.07024">
        <ele>192.2</ele>
        <time>2022-06-25T07:54:57Z</time>
      </trkpt>
      <trkpt lat="46.62336" lon="5.07019">
        <ele>191.8</ele>
        <time>2022-06-25T07:54:58Z</time>
      </trkpt>
      <trkpt lat="46.62333" lon="5.07014">
        <ele>191.8</ele>
        <time>2022-06-25T07:54:59Z</time>
      </trkpt>
      <trkpt lat="46.6233" lon="5.07011">
        <ele>191.8</ele>
        <time>2022-06-25T07:55:00Z</time>
      </trkpt>
      <trkpt lat="46.62329" lon="5.07009">
        <ele>191.8</ele>
        <time>2022-06-25T07:55:01Z</time>
      </trkpt>
      <trkpt lat="46.62328" lon="5.07007">
        <ele>191.8</ele>
        <time>2022-06-25T07:55:02Z</time>
      </trkpt>
      <trkpt lat="46.62327" lon="5.07007">
        <ele>191.6</ele>
        <time>2022-06-25T07:55:04Z</time>
      </trkpt>
      <trkpt lat="46.62327" lon="5.07007">
        <ele>191.6</ele>
        <time>2022-06-25T07:55:05Z</time>
      </trkpt>
      <trkpt lat="46.62327" lon="5.07006">
        <ele>191.6</ele>
        <time>2022-06-25T07:55:06Z</time>
      </trkpt>
      <trkpt lat="46.62327" lon="5.07006">
        <ele>191.6</ele>
        <time>2022-06-25T07:55:08Z</time>
      </trkpt>
      <trkpt lat="46.62326" lon="5.07006">
        <ele>191.4</ele>
        <time>2022-06-25T07:55:14Z</time>
      </trkpt>
      <trkpt lat="46.62326" lon="5.07005">
        <ele>191.4</ele>
        <time>2022-06-25T07:55:15Z</time>
      </trkpt>
      <trkpt lat="46.62326" lon="5.07005">
        <ele>191.4</ele>
        <time>2022-06-25T07:55:17Z</time>
      </trkpt>
      <trkpt lat="46.62325" lon="5.07004">
        <ele>191.2</ele>
        <time>2022-06-25T07:55:19Z</time>
      </trkpt>
      <trkpt lat="46.62325" lon="5.07004">
        <ele>191.2</ele>
        <time>2022-06-25T07:55:20Z</time>
      </trkpt>
      <trkpt lat="46.62325" lon="5.07004">
        <ele>191.2</ele>
        <time>2022-06-25T07:55:22Z</time>
      </trkpt>
      <trkpt lat="46.62324" lon="5.07003">
        <ele>191.8</ele>
        <time>2022-06-25T07:56:15Z</time>
      </trkpt>
      <trkpt lat="46.62324" lon="5.07003">
        <ele>191.8</ele>
        <time>2022-06-25T07:56:16Z</time>
      </trkpt>
      <trkpt lat="46.62324" lon="5.07003">
        <ele>191.8</ele>
        <time>2022-06-25T07:56:18Z</time>
      </trkpt>
      <trkpt lat="46.62324" lon="5.07002">
        <ele>191.8</ele>
        <time>2022-06-25T07:56:19Z</time>
      </trkpt>
      <trkpt lat="46.62323" lon="5.07002">
        <ele>191.8</ele>
        <time>2022-06-25T07:56:24Z</time>
      </trkpt>
      <trkpt lat="46.62323" lon="5.07002">
        <ele>191.8</ele>
        <time>2022-06-25T07:56:26Z</time>
      </trkpt>
      <trkpt lat="46.62323" lon="5.07001">
        <ele>191.8</ele>
        <time>2022-06-25T07:56:28Z</time>
      </trkpt>
      <trkpt lat="46.62322" lon="5.07">
        <ele>191.8</ele>
        <time>2022-06-25T07:56:29Z</time>
      </trkpt>
      <trkpt lat="46.62321" lon="5.06998">
        <ele>191.8</ele>
        <time>2022-06-25T07:56:30Z</time>
      </trkpt>
      <trkpt lat="46.62319" lon="5.06995">
        <ele>191.8</ele>
        <time>2022-06-25T07:56:31Z</time>
      </trkpt>
      <trkpt lat="46.62317" lon="5.06993">
        <ele>191.8</ele>
        <time>2022-06-25T07:56:32Z</time>
      </trkpt>
      <trkpt lat="46.62314" lon="5.06991">
        <ele>191.8</ele>
        <time>2022-06-25T07:56:33Z</time>
      </trkpt>
      <trkpt lat="46.62312" lon="5.06988">
        <ele>191.8</ele>
        <time>2022-06-25T07:56:34Z</time>
      </trkpt>
      <trkpt lat="46.6231" lon="5.06985">
        <ele>191.8</ele>
        <time>2022-06-25T07:56:35Z</time>
      </trkpt>
      <trkpt lat="46.62308" lon="5.06983">
        <ele>191.8</ele>
        <time>2022-06-25T07:56:36Z</time>
      </trkpt>
      <trkpt lat="46.62305" lon="5.0698">
        <ele>191.8</ele>
        <time>2022-06-25T07:56:37Z</time>
      </trkpt>
      <trkpt lat="46.62303" lon="5.06978">
        <ele>192</ele>
        <time>2022-06-25T07:56:38Z</time>
      </trkpt>
      <trkpt lat="46.62299" lon="5.06975">
        <ele>192</ele>
        <time>2022-06-25T07:56:39Z</time>
      </trkpt>
      <trkpt lat="46.62297" lon="5.06972">
        <ele>192</ele>
        <time>2022-06-25T07:56:40Z</time>
      </trkpt>
      <trkpt lat="46.62294" lon="5.06968">
        <ele>192</ele>
        <time>2022-06-25T07:56:41Z</time>
      </trkpt>
      <trkpt lat="46.62289" lon="5.06964">
        <ele>192</ele>
        <time>2022-06-25T07:56:42Z</time>
      </trkpt>
      <trkpt lat="46.62285" lon="5.06959">
        <ele>192.2</ele>
        <time>2022-06-25T07:56:43Z</time>
      </trkpt>
      <trkpt lat="46.62281" lon="5.06955">
        <ele>192.4</ele>
        <time>2022-06-25T07:56:44Z</time>
      </trkpt>
      <trkpt lat="46.62277" lon="5.06951">
        <ele>192.4</ele>
        <time>2022-06-25T07:56:45Z</time>
      </trkpt>
      <trkpt lat="46.62274" lon="5.06948">
        <ele>192.8</ele>
        <time>2022-06-25T07:56:46Z</time>
      </trkpt>
      <trkpt lat="46.6227" lon="5.06945">
        <ele>193</ele>
        <time>2022-06-25T07:56:47Z</time>
      </trkpt>
      <trkpt lat="46.62268" lon="5.06943">
        <ele>193.4</ele>
        <time>2022-06-25T07:56:48Z</time>
      </trkpt>
      <trkpt lat="46.62264" lon="5.06939">
        <ele>193.6</ele>
        <time>2022-06-25T07:56:49Z</time>
      </trkpt>
      <trkpt lat="46.62261" lon="5.06936">
        <ele>193.8</ele>
        <time>2022-06-25T07:56:50Z</time>
      </trkpt>
      <trkpt lat="46.62259" lon="5.06935">
        <ele>194</ele>
        <time>2022-06-25T07:56:51Z</time>
      </trkpt>
      <trkpt lat="46.62256" lon="5.06933">
        <ele>194.2</ele>
        <time>2022-06-25T07:56:52Z</time>
      </trkpt>
      <trkpt lat="46.62253" lon="5.06932">
        <ele>194.6</ele>
        <time>2022-06-25T07:56:53Z</time>
      </trkpt>
      <trkpt lat="46.62251" lon="5.06931">
        <ele>194.8</ele>
        <time>2022-06-25T07:56:54Z</time>
      </trkpt>
      <trkpt lat="46.62249" lon="5.0693">
        <ele>195.2</ele>
        <time>2022-06-25T07:56:55Z</time>
      </trkpt>
      <trkpt lat="46.62247" lon="5.06929">
        <ele>195.4</ele>
        <time>2022-06-25T07:56:56Z</time>
      </trkpt>
      <trkpt lat="46.62245" lon="5.06927">
        <ele>195.6</ele>
        <time>2022-06-25T07:56:57Z</time>
      </trkpt>
      <trkpt lat="46.62243" lon="5.06925">
        <ele>195.8</ele>
        <time>2022-06-25T07:56:58Z</time>
      </trkpt>
      <trkpt lat="46.62239" lon="5.06922">
        <ele>196.2</ele>
        <time>2022-06-25T07:56:59Z</time>
      </trkpt>
      <trkpt lat="46.62237" lon="5.0692">
        <ele>196.4</ele>
        <time>2022-06-25T07:57:00Z</time>
      </trkpt>
      <trkpt lat="46.62235" lon="5.0692">
        <ele>196.8</ele>
        <time>2022-06-25T07:57:01Z</time>
      </trkpt>
      <trkpt lat="46.62233" lon="5.06919">
        <ele>197</ele>
        <time>2022-06-25T07:57:02Z</time>
      </trkpt>
      <trkpt lat="46.6223" lon="5.06917">
        <ele>197.2</ele>
        <time>2022-06-25T07:57:03Z</time>
      </trkpt>
      <trkpt lat="46.62226" lon="5.06915">
        <ele>197.4</ele>
        <time>2022-06-25T07:57:04Z</time>
      </trkpt>
      <trkpt lat="46.62223" lon="5.06913">
        <ele>197.6</ele>
        <time>2022-06-25T07:57:05Z</time>
      </trkpt>
      <trkpt lat="46.6222" lon="5.0691">
        <ele>198</ele>
        <time>2022-06-25T07:57:06Z</time>
      </trkpt>
      <trkpt lat="46.62217" lon="5.06909">
        <ele>198.2</ele>
        <time>2022-06-25T07:57:07Z</time>
      </trkpt>
      <trkpt lat="46.62215" lon="5.06908">
        <ele>198.2</ele>
        <time>2022-06-25T07:57:08Z</time>
      </trkpt>
      <trkpt lat="46.6221" lon="5.06903">
        <ele>198.6</ele>
        <time>2022-06-25T07:57:09Z</time>
      </trkpt>
      <trkpt lat="46.62206" lon="5.069">
        <ele>198.6</ele>
        <time>2022-06-25T07:57:10Z</time>
      </trkpt>
      <trkpt lat="46.62201" lon="5.06899">
        <ele>199</ele>
        <time>2022-06-25T07:57:11Z</time>
      </trkpt>
      <trkpt lat="46.62197" lon="5.06898">
        <ele>199</ele>
        <time>2022-06-25T07:57:12Z</time>
      </trkpt>
      <trkpt lat="46.62193" lon="5.06897">
        <ele>199.2</ele>
        <time>2022-06-25T07:57:13Z</time>
      </trkpt>
      <trkpt lat="46.6219" lon="5.06896">
        <ele>199.2</ele>
        <time>2022-06-25T07:57:14Z</time>
      </trkpt>
      <trkpt lat="46.62186" lon="5.06894">
        <ele>199.6</ele>
        <time>2022-06-25T07:57:15Z</time>
      </trkpt>
      <trkpt lat="46.62182" lon="5.06892">
        <ele>199.6</ele>
        <time>2022-06-25T07:57:16Z</time>
      </trkpt>
      <trkpt lat="46.62178" lon="5.0689">
        <ele>199.8</ele>
        <time>2022-06-25T07:57:17Z</time>
      </trkpt>
      <trkpt lat="46.62174" lon="5.06888">
        <ele>199.8</ele>
        <time>2022-06-25T07:57:18Z</time>
      </trkpt>
      <trkpt lat="46.6217" lon="5.06887">
        <ele>200</ele>
        <time>2022-06-25T07:57:19Z</time>
      </trkpt>
      <trkpt lat="46.62166" lon="5.06886">
        <ele>200</ele>
        <time>2022-06-25T07:57:20Z</time>
      </trkpt>
      <trkpt lat="46.62162" lon="5.06884">
        <ele>200</ele>
        <time>2022-06-25T07:57:21Z</time>
      </trkpt>
      <trkpt lat="46.62157" lon="5.06883">
        <ele>200</ele>
        <time>2022-06-25T07:57:22Z</time>
      </trkpt>
      <trkpt lat="46.62153" lon="5.06882">
        <ele>200</ele>
        <time>2022-06-25T07:57:23Z</time>
      </trkpt>
      <trkpt lat="46.62147" lon="5.06881">
        <ele>200</ele>
        <time>2022-06-25T07:57:24Z</time>
      </trkpt>
      <trkpt lat="46.62141" lon="5.06881">
        <ele>199.8</ele>
        <time>2022-06-25T07:57:25Z</time>
      </trkpt>
      <trkpt lat="46.62135" lon="5.0688">
        <ele>199.8</ele>
        <time>2022-06-25T07:57:26Z</time>
      </trkpt>
      <trkpt lat="46.62129" lon="5.0688">
        <ele>199.4</ele>
        <time>2022-06-25T07:57:27Z</time>
      </trkpt>
      <trkpt lat="46.62122" lon="5.0688">
        <ele>199.2</ele>
        <time>2022-06-25T07:57:28Z</time>
      </trkpt>
      <trkpt lat="46.62115" lon="5.06881">
        <ele>198.8</ele>
        <time>2022-06-25T07:57:29Z</time>
      </trkpt>
      <trkpt lat="46.62107" lon="5.06882">
        <ele>198.4</ele>
        <time>2022-06-25T07:57:30Z</time>
      </trkpt>
      <trkpt lat="46.62099" lon="5.06884">
        <ele>197.8</ele>
        <time>2022-06-25T07:57:31Z</time>
      </trkpt>
      <trkpt lat="46.6209" lon="5.06885">
        <ele>197.4</ele>
        <time>2022-06-25T07:57:32Z</time>
      </trkpt>
      <trkpt lat="46.6208" lon="5.06886">
        <ele>196.8</ele>
        <time>2022-06-25T07:57:33Z</time>
      </trkpt>
      <trkpt lat="46.6207" lon="5.06886">
        <ele>196.4</ele>
        <time>2022-06-25T07:57:34Z</time>
      </trkpt>
      <trkpt lat="46.6206" lon="5.06886">
        <ele>196</ele>
        <time>2022-06-25T07:57:35Z</time>
      </trkpt>
      <trkpt lat="46.6205" lon="5.06885">
        <ele>195.6</ele>
        <time>2022-06-25T07:57:36Z</time>
      </trkpt>
      <trkpt lat="46.62042" lon="5.06883">
        <ele>195.4</ele>
        <time>2022-06-25T07:57:37Z</time>
      </trkpt>
      <trkpt lat="46.62033" lon="5.06882">
        <ele>195.2</ele>
        <time>2022-06-25T07:57:38Z</time>
      </trkpt>
      <trkpt lat="46.62024" lon="5.06881">
        <ele>195.2</ele>
        <time>2022-06-25T07:57:39Z</time>
      </trkpt>
      <trkpt lat="46.62016" lon="5.0688">
        <ele>194.8</ele>
        <time>2022-06-25T07:57:40Z</time>
      </trkpt>
      <trkpt lat="46.62007" lon="5.06879">
        <ele>194.8</ele>
        <time>2022-06-25T07:57:41Z</time>
      </trkpt>
      <trkpt lat="46.61999" lon="5.06878">
        <ele>194.8</ele>
        <time>2022-06-25T07:57:42Z</time>
      </trkpt>
      <trkpt lat="46.61991" lon="5.06878">
        <ele>194.8</ele>
        <time>2022-06-25T07:57:43Z</time>
      </trkpt>
      <trkpt lat="46.61983" lon="5.06877">
        <ele>194.8</ele>
        <time>2022-06-25T07:57:44Z</time>
      </trkpt>
      <trkpt lat="46.61975" lon="5.06875">
        <ele>194.8</ele>
        <time>2022-06-25T07:57:45Z</time>
      </trkpt>
      <trkpt lat="46.61967" lon="5.06873">
        <ele>194.8</ele>
        <time>2022-06-25T07:57:46Z</time>
      </trkpt>
      <trkpt lat="46.6196" lon="5.06872">
        <ele>194.8</ele>
        <time>2022-06-25T07:57:47Z</time>
      </trkpt>
      <trkpt lat="46.61954" lon="5.06871">
        <ele>194.8</ele>
        <time>2022-06-25T07:57:48Z</time>
      </trkpt>
      <trkpt lat="46.61947" lon="5.0687">
        <ele>195</ele>
        <time>2022-06-25T07:57:49Z</time>
      </trkpt>
      <trkpt lat="46.61942" lon="5.06869">
        <ele>195</ele>
        <time>2022-06-25T07:57:50Z</time>
      </trkpt>
      <trkpt lat="46.61936" lon="5.06867">
        <ele>195.4</ele>
        <time>2022-06-25T07:57:51Z</time>
      </trkpt>
      <trkpt lat="46.6193" lon="5.06866">
        <ele>195.6</ele>
        <time>2022-06-25T07:57:52Z</time>
      </trkpt>
      <trkpt lat="46.61924" lon="5.06865">
        <ele>195.8</ele>
        <time>2022-06-25T07:57:53Z</time>
      </trkpt>
      <trkpt lat="46.61919" lon="5.06864">
        <ele>196</ele>
        <time>2022-06-25T07:57:54Z</time>
      </trkpt>
      <trkpt lat="46.61914" lon="5.06864">
        <ele>196.2</ele>
        <time>2022-06-25T07:57:55Z</time>
      </trkpt>
      <trkpt lat="46.61908" lon="5.06863">
        <ele>196.4</ele>
        <time>2022-06-25T07:57:56Z</time>
      </trkpt>
      <trkpt lat="46.61904" lon="5.06862">
        <ele>196.8</ele>
        <time>2022-06-25T07:57:57Z</time>
      </trkpt>
      <trkpt lat="46.61899" lon="5.06862">
        <ele>197</ele>
        <time>2022-06-25T07:57:58Z</time>
      </trkpt>
      <trkpt lat="46.61893" lon="5.06862">
        <ele>197.2</ele>
        <time>2022-06-25T07:57:59Z</time>
      </trkpt>
      <trkpt lat="46.61888" lon="5.06862">
        <ele>197.2</ele>
        <time>2022-06-25T07:58:00Z</time>
      </trkpt>
      <trkpt lat="46.61883" lon="5.06861">
        <ele>197.6</ele>
        <time>2022-06-25T07:58:01Z</time>
      </trkpt>
      <trkpt lat="46.61877" lon="5.06859">
        <ele>197.6</ele>
        <time>2022-06-25T07:58:02Z</time>
      </trkpt>
      <trkpt lat="46.61872" lon="5.06858">
        <ele>197.8</ele>
        <time>2022-06-25T07:58:03Z</time>
      </trkpt>
      <trkpt lat="46.61867" lon="5.06858">
        <ele>198.2</ele>
        <time>2022-06-25T07:58:04Z</time>
      </trkpt>
      <trkpt lat="46.61863" lon="5.06857">
        <ele>198.2</ele>
        <time>2022-06-25T07:58:05Z</time>
      </trkpt>
      <trkpt lat="46.61858" lon="5.06857">
        <ele>198.6</ele>
        <time>2022-06-25T07:58:06Z</time>
      </trkpt>
      <trkpt lat="46.61854" lon="5.06857">
        <ele>198.6</ele>
        <time>2022-06-25T07:58:07Z</time>
      </trkpt>
      <trkpt lat="46.6185" lon="5.06856">
        <ele>198.8</ele>
        <time>2022-06-25T07:58:08Z</time>
      </trkpt>
      <trkpt lat="46.61846" lon="5.06855">
        <ele>199</ele>
        <time>2022-06-25T07:58:09Z</time>
      </trkpt>
      <trkpt lat="46.61842" lon="5.06855">
        <ele>199.2</ele>
        <time>2022-06-25T07:58:10Z</time>
      </trkpt>
      <trkpt lat="46.61837" lon="5.06855">
        <ele>199.6</ele>
        <time>2022-06-25T07:58:11Z</time>
      </trkpt>
      <trkpt lat="46.61833" lon="5.06855">
        <ele>199.8</ele>
        <time>2022-06-25T07:58:12Z</time>
      </trkpt>
      <trkpt lat="46.61829" lon="5.06854">
        <ele>199.8</ele>
        <time>2022-06-25T07:58:13Z</time>
      </trkpt>
      <trkpt lat="46.61825" lon="5.06854">
        <ele>200</ele>
        <time>2022-06-25T07:58:14Z</time>
      </trkpt>
      <trkpt lat="46.61821" lon="5.06854">
        <ele>200</ele>
        <time>2022-06-25T07:58:15Z</time>
      </trkpt>
      <trkpt lat="46.61817" lon="5.06853">
        <ele>200.4</ele>
        <time>2022-06-25T07:58:16Z</time>
      </trkpt>
      <trkpt lat="46.61813" lon="5.06853">
        <ele>200.4</ele>
        <time>2022-06-25T07:58:17Z</time>
      </trkpt>
      <trkpt lat="46.61809" lon="5.06852">
        <ele>200.6</ele>
        <time>2022-06-25T07:58:18Z</time>
      </trkpt>
      <trkpt lat="46.61804" lon="5.06851">
        <ele>200.6</ele>
        <time>2022-06-25T07:58:19Z</time>
      </trkpt>
      <trkpt lat="46.61799" lon="5.06851">
        <ele>200.6</ele>
        <time>2022-06-25T07:58:20Z</time>
      </trkpt>
      <trkpt lat="46.61795" lon="5.0685">
        <ele>200.8</ele>
        <time>2022-06-25T07:58:21Z</time>
      </trkpt>
      <trkpt lat="46.61789" lon="5.0685">
        <ele>200.8</ele>
        <time>2022-06-25T07:58:22Z</time>
      </trkpt>
      <trkpt lat="46.61784" lon="5.06849">
        <ele>200.8</ele>
        <time>2022-06-25T07:58:23Z</time>
      </trkpt>
      <trkpt lat="46.61779" lon="5.06848">
        <ele>200.8</ele>
        <time>2022-06-25T07:58:24Z</time>
      </trkpt>
      <trkpt lat="46.61774" lon="5.06848">
        <ele>200.8</ele>
        <time>2022-06-25T07:58:25Z</time>
      </trkpt>
      <trkpt lat="46.61768" lon="5.06847">
        <ele>201</ele>
        <time>2022-06-25T07:58:26Z</time>
      </trkpt>
      <trkpt lat="46.61763" lon="5.06846">
        <ele>201</ele>
        <time>2022-06-25T07:58:27Z</time>
      </trkpt>
      <trkpt lat="46.61757" lon="5.06846">
        <ele>201</ele>
        <time>2022-06-25T07:58:28Z</time>
      </trkpt>
      <trkpt lat="46.61751" lon="5.06845">
        <ele>201</ele>
        <time>2022-06-25T07:58:29Z</time>
      </trkpt>
      <trkpt lat="46.61745" lon="5.06844">
        <ele>201</ele>
        <time>2022-06-25T07:58:30Z</time>
      </trkpt>
      <trkpt lat="46.61739" lon="5.06844">
        <ele>201</ele>
        <time>2022-06-25T07:58:31Z</time>
      </trkpt>
      <trkpt lat="46.61733" lon="5.06843">
        <ele>201</ele>
        <time>2022-06-25T07:58:32Z</time>
      </trkpt>
      <trkpt lat="46.61726" lon="5.06842">
        <ele>201</ele>
        <time>2022-06-25T07:58:33Z</time>
      </trkpt>
      <trkpt lat="46.6172" lon="5.06841">
        <ele>201</ele>
        <time>2022-06-25T07:58:34Z</time>
      </trkpt>
      <trkpt lat="46.61713" lon="5.06841">
        <ele>201</ele>
        <time>2022-06-25T07:58:35Z</time>
      </trkpt>
      <trkpt lat="46.61707" lon="5.0684">
        <ele>201</ele>
        <time>2022-06-25T07:58:36Z</time>
      </trkpt>
      <trkpt lat="46.61701" lon="5.06839">
        <ele>201</ele>
        <time>2022-06-25T07:58:37Z</time>
      </trkpt>
      <trkpt lat="46.61694" lon="5.06838">
        <ele>201</ele>
        <time>2022-06-25T07:58:38Z</time>
      </trkpt>
      <trkpt lat="46.61687" lon="5.06837">
        <ele>200.8</ele>
        <time>2022-06-25T07:58:39Z</time>
      </trkpt>
      <trkpt lat="46.61681" lon="5.06837">
        <ele>200.8</ele>
        <time>2022-06-25T07:58:40Z</time>
      </trkpt>
      <trkpt lat="46.61674" lon="5.06836">
        <ele>200.8</ele>
        <time>2022-06-25T07:58:41Z</time>
      </trkpt>
      <trkpt lat="46.61668" lon="5.06835">
        <ele>200.8</ele>
        <time>2022-06-25T07:58:42Z</time>
      </trkpt>
      <trkpt lat="46.61661" lon="5.06834">
        <ele>200.8</ele>
        <time>2022-06-25T07:58:43Z</time>
      </trkpt>
      <trkpt lat="46.61655" lon="5.06833">
        <ele>200.8</ele>
        <time>2022-06-25T07:58:44Z</time>
      </trkpt>
      <trkpt lat="46.61648" lon="5.06833">
        <ele>200.8</ele>
        <time>2022-06-25T07:58:45Z</time>
      </trkpt>
      <trkpt lat="46.61642" lon="5.06832">
        <ele>200.8</ele>
        <time>2022-06-25T07:58:46Z</time>
      </trkpt>
      <trkpt lat="46.61635" lon="5.06831">
        <ele>200.8</ele>
        <time>2022-06-25T07:58:47Z</time>
      </trkpt>
      <trkpt lat="46.61628" lon="5.06831">
        <ele>200.8</ele>
        <time>2022-06-25T07:58:48Z</time>
      </trkpt>
      <trkpt lat="46.61622" lon="5.0683">
        <ele>200.8</ele>
        <time>2022-06-25T07:58:49Z</time>
      </trkpt>
      <trkpt lat="46.61616" lon="5.06829">
        <ele>200.8</ele>
        <time>2022-06-25T07:58:50Z</time>
      </trkpt>
      <trkpt lat="46.6161" lon="5.06828">
        <ele>200.8</ele>
        <time>2022-06-25T07:58:51Z</time>
      </trkpt>
      <trkpt lat="46.61603" lon="5.06828">
        <ele>200.8</ele>
        <time>2022-06-25T07:58:52Z</time>
      </trkpt>
      <trkpt lat="46.61597" lon="5.06827">
        <ele>200.8</ele>
        <time>2022-06-25T07:58:53Z</time>
      </trkpt>
      <trkpt lat="46.61591" lon="5.06827">
        <ele>200.8</ele>
        <time>2022-06-25T07:58:54Z</time>
      </trkpt>
      <trkpt lat="46.61585" lon="5.06826">
        <ele>200.8</ele>
        <time>2022-06-25T07:58:55Z</time>
      </trkpt>
      <trkpt lat="46.6158" lon="5.06826">
        <ele>200.8</ele>
        <time>2022-06-25T07:58:56Z</time>
      </trkpt>
      <trkpt lat="46.61574" lon="5.06825">
        <ele>200.8</ele>
        <time>2022-06-25T07:58:57Z</time>
      </trkpt>
      <trkpt lat="46.61568" lon="5.06824">
        <ele>201</ele>
        <time>2022-06-25T07:58:58Z</time>
      </trkpt>
      <trkpt lat="46.61562" lon="5.06823">
        <ele>201</ele>
        <time>2022-06-25T07:58:59Z</time>
      </trkpt>
      <trkpt lat="46.61557" lon="5.06822">
        <ele>201.2</ele>
        <time>2022-06-25T07:59:00Z</time>
      </trkpt>
      <trkpt lat="46.61551" lon="5.06821">
        <ele>201.2</ele>
        <time>2022-06-25T07:59:01Z</time>
      </trkpt>
      <trkpt lat="46.61546" lon="5.06819">
        <ele>201.2</ele>
        <time>2022-06-25T07:59:02Z</time>
      </trkpt>
      <trkpt lat="46.61541" lon="5.06818">
        <ele>201.4</ele>
        <time>2022-06-25T07:59:03Z</time>
      </trkpt>
      <trkpt lat="46.61535" lon="5.06816">
        <ele>201.4</ele>
        <time>2022-06-25T07:59:04Z</time>
      </trkpt>
      <trkpt lat="46.6153" lon="5.06813">
        <ele>201.6</ele>
        <time>2022-06-25T07:59:05Z</time>
      </trkpt>
      <trkpt lat="46.61525" lon="5.06811">
        <ele>201.6</ele>
        <time>2022-06-25T07:59:06Z</time>
      </trkpt>
      <trkpt lat="46.61519" lon="5.06808">
        <ele>201.6</ele>
        <time>2022-06-25T07:59:07Z</time>
      </trkpt>
      <trkpt lat="46.61514" lon="5.06805">
        <ele>201.6</ele>
        <time>2022-06-25T07:59:08Z</time>
      </trkpt>
      <trkpt lat="46.61509" lon="5.06802">
        <ele>201.6</ele>
        <time>2022-06-25T07:59:09Z</time>
      </trkpt>
      <trkpt lat="46.61503" lon="5.06799">
        <ele>201.6</ele>
        <time>2022-06-25T07:59:10Z</time>
      </trkpt>
      <trkpt lat="46.61497" lon="5.06794">
        <ele>201.6</ele>
        <time>2022-06-25T07:59:11Z</time>
      </trkpt>
      <trkpt lat="46.61491" lon="5.0679">
        <ele>201.6</ele>
        <time>2022-06-25T07:59:12Z</time>
      </trkpt>
      <trkpt lat="46.61485" lon="5.06785">
        <ele>201.4</ele>
        <time>2022-06-25T07:59:13Z</time>
      </trkpt>
      <trkpt lat="46.61479" lon="5.06781">
        <ele>201.2</ele>
        <time>2022-06-25T07:59:14Z</time>
      </trkpt>
      <trkpt lat="46.61472" lon="5.06776">
        <ele>200.8</ele>
        <time>2022-06-25T07:59:15Z</time>
      </trkpt>
      <trkpt lat="46.61464" lon="5.06771">
        <ele>200.6</ele>
        <time>2022-06-25T07:59:16Z</time>
      </trkpt>
      <trkpt lat="46.61457" lon="5.06765">
        <ele>200.2</ele>
        <time>2022-06-25T07:59:17Z</time>
      </trkpt>
      <trkpt lat="46.61449" lon="5.06759">
        <ele>199.8</ele>
        <time>2022-06-25T07:59:18Z</time>
      </trkpt>
      <trkpt lat="46.61441" lon="5.06754">
        <ele>199.6</ele>
        <time>2022-06-25T07:59:19Z</time>
      </trkpt>
      <trkpt lat="46.61432" lon="5.06746">
        <ele>199.2</ele>
        <time>2022-06-25T07:59:20Z</time>
      </trkpt>
      <trkpt lat="46.61423" lon="5.0674">
        <ele>198.6</ele>
        <time>2022-06-25T07:59:21Z</time>
      </trkpt>
      <trkpt lat="46.61414" lon="5.06734">
        <ele>198.2</ele>
        <time>2022-06-25T07:59:22Z</time>
      </trkpt>
      <trkpt lat="46.61406" lon="5.06729">
        <ele>197.8</ele>
        <time>2022-06-25T07:59:23Z</time>
      </trkpt>
      <trkpt lat="46.61397" lon="5.06722">
        <ele>196.8</ele>
        <time>2022-06-25T07:59:24Z</time>
      </trkpt>
      <trkpt lat="46.61389" lon="5.06715">
        <ele>196.4</ele>
        <time>2022-06-25T07:59:25Z</time>
      </trkpt>
      <trkpt lat="46.61381" lon="5.06708">
        <ele>196.2</ele>
        <time>2022-06-25T07:59:26Z</time>
      </trkpt>
      <trkpt lat="46.61371" lon="5.06702">
        <ele>195.8</ele>
        <time>2022-06-25T07:59:27Z</time>
      </trkpt>
      <trkpt lat="46.61363" lon="5.06696">
        <ele>195.6</ele>
        <time>2022-06-25T07:59:28Z</time>
      </trkpt>
      <trkpt lat="46.61355" lon="5.0669">
        <ele>195.2</ele>
        <time>2022-06-25T07:59:29Z</time>
      </trkpt>
      <trkpt lat="46.61348" lon="5.06685">
        <ele>195.2</ele>
        <time>2022-06-25T07:59:30Z</time>
      </trkpt>
      <trkpt lat="46.6134" lon="5.06679">
        <ele>195</ele>
        <time>2022-06-25T07:59:31Z</time>
      </trkpt>
      <trkpt lat="46.61333" lon="5.06674">
        <ele>195</ele>
        <time>2022-06-25T07:59:32Z</time>
      </trkpt>
      <trkpt lat="46.61327" lon="5.06669">
        <ele>195</ele>
        <time>2022-06-25T07:59:33Z</time>
      </trkpt>
      <trkpt lat="46.61321" lon="5.06665">
        <ele>195.2</ele>
        <time>2022-06-25T07:59:34Z</time>
      </trkpt>
      <trkpt lat="46.61315" lon="5.06661">
        <ele>195.4</ele>
        <time>2022-06-25T07:59:35Z</time>
      </trkpt>
      <trkpt lat="46.6131" lon="5.06656">
        <ele>195.6</ele>
        <time>2022-06-25T07:59:36Z</time>
      </trkpt>
      <trkpt lat="46.61305" lon="5.06653">
        <ele>196</ele>
        <time>2022-06-25T07:59:37Z</time>
      </trkpt>
      <trkpt lat="46.61301" lon="5.06649">
        <ele>196.4</ele>
        <time>2022-06-25T07:59:38Z</time>
      </trkpt>
      <trkpt lat="46.61296" lon="5.06646">
        <ele>196.6</ele>
        <time>2022-06-25T07:59:39Z</time>
      </trkpt>
      <trkpt lat="46.61292" lon="5.06643">
        <ele>197.2</ele>
        <time>2022-06-25T07:59:40Z</time>
      </trkpt>
      <trkpt lat="46.61288" lon="5.0664">
        <ele>197.4</ele>
        <time>2022-06-25T07:59:41Z</time>
      </trkpt>
      <trkpt lat="46.61284" lon="5.06637">
        <ele>197.8</ele>
        <time>2022-06-25T07:59:42Z</time>
      </trkpt>
      <trkpt lat="46.61281" lon="5.06634">
        <ele>198.2</ele>
        <time>2022-06-25T07:59:43Z</time>
      </trkpt>
      <trkpt lat="46.61277" lon="5.06632">
        <ele>198.4</ele>
        <time>2022-06-25T07:59:44Z</time>
      </trkpt>
      <trkpt lat="46.61274" lon="5.06629">
        <ele>198.6</ele>
        <time>2022-06-25T07:59:45Z</time>
      </trkpt>
      <trkpt lat="46.6127" lon="5.06627">
        <ele>199</ele>
        <time>2022-06-25T07:59:46Z</time>
      </trkpt>
      <trkpt lat="46.61267" lon="5.06625">
        <ele>199.2</ele>
        <time>2022-06-25T07:59:47Z</time>
      </trkpt>
      <trkpt lat="46.61264" lon="5.06622">
        <ele>199.6</ele>
        <time>2022-06-25T07:59:48Z</time>
      </trkpt>
      <trkpt lat="46.61261" lon="5.06619">
        <ele>199.8</ele>
        <time>2022-06-25T07:59:49Z</time>
      </trkpt>
      <trkpt lat="46.61257" lon="5.06617">
        <ele>200.2</ele>
        <time>2022-06-25T07:59:50Z</time>
      </trkpt>
      <trkpt lat="46.61254" lon="5.06615">
        <ele>200.4</ele>
        <time>2022-06-25T07:59:51Z</time>
      </trkpt>
      <trkpt lat="46.61251" lon="5.06613">
        <ele>200.8</ele>
        <time>2022-06-25T07:59:52Z</time>
      </trkpt>
      <trkpt lat="46.61248" lon="5.06611">
        <ele>201</ele>
        <time>2022-06-25T07:59:53Z</time>
      </trkpt>
      <trkpt lat="46.61245" lon="5.06608">
        <ele>201.4</ele>
        <time>2022-06-25T07:59:54Z</time>
      </trkpt>
      <trkpt lat="46.61242" lon="5.06606">
        <ele>201.6</ele>
        <time>2022-06-25T07:59:55Z</time>
      </trkpt>
      <trkpt lat="46.61238" lon="5.06604">
        <ele>201.8</ele>
        <time>2022-06-25T07:59:56Z</time>
      </trkpt>
      <trkpt lat="46.61234" lon="5.06601">
        <ele>201.8</ele>
        <time>2022-06-25T07:59:57Z</time>
      </trkpt>
      <trkpt lat="46.6123" lon="5.06598">
        <ele>202</ele>
        <time>2022-06-25T07:59:58Z</time>
      </trkpt>
      <trkpt lat="46.61226" lon="5.06596">
        <ele>202</ele>
        <time>2022-06-25T07:59:59Z</time>
      </trkpt>
      <trkpt lat="46.61222" lon="5.06593">
        <ele>202.2</ele>
        <time>2022-06-25T08:00:00Z</time>
      </trkpt>
      <trkpt lat="46.61218" lon="5.0659">
        <ele>202.2</ele>
        <time>2022-06-25T08:00:01Z</time>
      </trkpt>
      <trkpt lat="46.61213" lon="5.06587">
        <ele>202.2</ele>
        <time>2022-06-25T08:00:02Z</time>
      </trkpt>
      <trkpt lat="46.61209" lon="5.06584">
        <ele>202.2</ele>
        <time>2022-06-25T08:00:03Z</time>
      </trkpt>
      <trkpt lat="46.61204" lon="5.06582">
        <ele>202.2</ele>
        <time>2022-06-25T08:00:04Z</time>
      </trkpt>
      <trkpt lat="46.61199" lon="5.0658">
        <ele>202.4</ele>
        <time>2022-06-25T08:00:05Z</time>
      </trkpt>
      <trkpt lat="46.61194" lon="5.06577">
        <ele>202.4</ele>
        <time>2022-06-25T08:00:06Z</time>
      </trkpt>
      <trkpt lat="46.61189" lon="5.06575">
        <ele>202.4</ele>
        <time>2022-06-25T08:00:07Z</time>
      </trkpt>
      <trkpt lat="46.61184" lon="5.06572">
        <ele>202.4</ele>
        <time>2022-06-25T08:00:08Z</time>
      </trkpt>
      <trkpt lat="46.61178" lon="5.0657">
        <ele>202.4</ele>
        <time>2022-06-25T08:00:09Z</time>
      </trkpt>
      <trkpt lat="46.61173" lon="5.06569">
        <ele>202.4</ele>
        <time>2022-06-25T08:00:10Z</time>
      </trkpt>
      <trkpt lat="46.61168" lon="5.06567">
        <ele>202.4</ele>
        <time>2022-06-25T08:00:11Z</time>
      </trkpt>
      <trkpt lat="46.61162" lon="5.06565">
        <ele>202.4</ele>
        <time>2022-06-25T08:00:12Z</time>
      </trkpt>
      <trkpt lat="46.61156" lon="5.06563">
        <ele>202.4</ele>
        <time>2022-06-25T08:00:13Z</time>
      </trkpt>
      <trkpt lat="46.6115" lon="5.06561">
        <ele>202.4</ele>
        <time>2022-06-25T08:00:14Z</time>
      </trkpt>
      <trkpt lat="46.61144" lon="5.06559">
        <ele>202.4</ele>
        <time>2022-06-25T08:00:15Z</time>
      </trkpt>
      <trkpt lat="46.61139" lon="5.06558">
        <ele>202.2</ele>
        <time>2022-06-25T08:00:16Z</time>
      </trkpt>
      <trkpt lat="46.61133" lon="5.06556">
        <ele>202.2</ele>
        <time>2022-06-25T08:00:17Z</time>
      </trkpt>
      <trkpt lat="46.61127" lon="5.06554">
        <ele>202.2</ele>
        <time>2022-06-25T08:00:18Z</time>
      </trkpt>
      <trkpt lat="46.61121" lon="5.06552">
        <ele>202.2</ele>
        <time>2022-06-25T08:00:19Z</time>
      </trkpt>
      <trkpt lat="46.61115" lon="5.06551">
        <ele>202.2</ele>
        <time>2022-06-25T08:00:20Z</time>
      </trkpt>
      <trkpt lat="46.61109" lon="5.06549">
        <ele>202.2</ele>
        <time>2022-06-25T08:00:21Z</time>
      </trkpt>
      <trkpt lat="46.61103" lon="5.06547">
        <ele>202.2</ele>
        <time>2022-06-25T08:00:22Z</time>
      </trkpt>
      <trkpt lat="46.61096" lon="5.06545">
        <ele>202.2</ele>
        <time>2022-06-25T08:00:23Z</time>
      </trkpt>
      <trkpt lat="46.6109" lon="5.06543">
        <ele>202.2</ele>
        <time>2022-06-25T08:00:24Z</time>
      </trkpt>
      <trkpt lat="46.61084" lon="5.06541">
        <ele>202.2</ele>
        <time>2022-06-25T08:00:25Z</time>
      </trkpt>
      <trkpt lat="46.61078" lon="5.06539">
        <ele>202.2</ele>
        <time>2022-06-25T08:00:26Z</time>
      </trkpt>
      <trkpt lat="46.61071" lon="5.06537">
        <ele>202.2</ele>
        <time>2022-06-25T08:00:27Z</time>
      </trkpt>
      <trkpt lat="46.61065" lon="5.06535">
        <ele>202.2</ele>
        <time>2022-06-25T08:00:28Z</time>
      </trkpt>
      <trkpt lat="46.61059" lon="5.06533">
        <ele>202.2</ele>
        <time>2022-06-25T08:00:29Z</time>
      </trkpt>
      <trkpt lat="46.61052" lon="5.06531">
        <ele>202.2</ele>
        <time>2022-06-25T08:00:30Z</time>
      </trkpt>
      <trkpt lat="46.61046" lon="5.0653">
        <ele>202.2</ele>
        <time>2022-06-25T08:00:31Z</time>
      </trkpt>
      <trkpt lat="46.6104" lon="5.06528">
        <ele>202.2</ele>
        <time>2022-06-25T08:00:32Z</time>
      </trkpt>
      <trkpt lat="46.61033" lon="5.06526">
        <ele>202.2</ele>
        <time>2022-06-25T08:00:33Z</time>
      </trkpt>
      <trkpt lat="46.61027" lon="5.06524">
        <ele>202.2</ele>
        <time>2022-06-25T08:00:34Z</time>
      </trkpt>
      <trkpt lat="46.6102" lon="5.06522">
        <ele>202.2</ele>
        <time>2022-06-25T08:00:35Z</time>
      </trkpt>
      <trkpt lat="46.61013" lon="5.0652">
        <ele>202.2</ele>
        <time>2022-06-25T08:00:36Z</time>
      </trkpt>
      <trkpt lat="46.61007" lon="5.06518">
        <ele>202.2</ele>
        <time>2022-06-25T08:00:37Z</time>
      </trkpt>
      <trkpt lat="46.61" lon="5.06516">
        <ele>202.4</ele>
        <time>2022-06-25T08:00:38Z</time>
      </trkpt>
      <trkpt lat="46.60993" lon="5.06514">
        <ele>202.4</ele>
        <time>2022-06-25T08:00:39Z</time>
      </trkpt>
      <trkpt lat="46.60987" lon="5.06512">
        <ele>202.4</ele>
        <time>2022-06-25T08:00:40Z</time>
      </trkpt>
      <trkpt lat="46.6098" lon="5.0651">
        <ele>202.4</ele>
        <time>2022-06-25T08:00:41Z</time>
      </trkpt>
      <trkpt lat="46.60974" lon="5.06508">
        <ele>202.4</ele>
        <time>2022-06-25T08:00:42Z</time>
      </trkpt>
      <trkpt lat="46.60967" lon="5.06506">
        <ele>202.4</ele>
        <time>2022-06-25T08:00:43Z</time>
      </trkpt>
      <trkpt lat="46.60961" lon="5.06504">
        <ele>202.4</ele>
        <time>2022-06-25T08:00:44Z</time>
      </trkpt>
      <trkpt lat="46.60954" lon="5.06502">
        <ele>202.6</ele>
        <time>2022-06-25T08:00:45Z</time>
      </trkpt>
      <trkpt lat="46.60948" lon="5.065">
        <ele>202.6</ele>
        <time>2022-06-25T08:00:46Z</time>
      </trkpt>
      <trkpt lat="46.60941" lon="5.06499">
        <ele>202.6</ele>
        <time>2022-06-25T08:00:47Z</time>
      </trkpt>
      <trkpt lat="46.60935" lon="5.06497">
        <ele>202.6</ele>
        <time>2022-06-25T08:00:48Z</time>
      </trkpt>
      <trkpt lat="46.60929" lon="5.06495">
        <ele>202.8</ele>
        <time>2022-06-25T08:00:49Z</time>
      </trkpt>
      <trkpt lat="46.60923" lon="5.06493">
        <ele>202.8</ele>
        <time>2022-06-25T08:00:50Z</time>
      </trkpt>
      <trkpt lat="46.60916" lon="5.06491">
        <ele>202.8</ele>
        <time>2022-06-25T08:00:51Z</time>
      </trkpt>
      <trkpt lat="46.6091" lon="5.06489">
        <ele>202.8</ele>
        <time>2022-06-25T08:00:52Z</time>
      </trkpt>
      <trkpt lat="46.60904" lon="5.06487">
        <ele>202.8</ele>
        <time>2022-06-25T08:00:53Z</time>
      </trkpt>
      <trkpt lat="46.60898" lon="5.06485">
        <ele>203</ele>
        <time>2022-06-25T08:00:54Z</time>
      </trkpt>
      <trkpt lat="46.60891" lon="5.06484">
        <ele>203</ele>
        <time>2022-06-25T08:00:55Z</time>
      </trkpt>
      <trkpt lat="46.60885" lon="5.06482">
        <ele>203</ele>
        <time>2022-06-25T08:00:56Z</time>
      </trkpt>
      <trkpt lat="46.60879" lon="5.0648">
        <ele>203</ele>
        <time>2022-06-25T08:00:57Z</time>
      </trkpt>
      <trkpt lat="46.60873" lon="5.06478">
        <ele>203</ele>
        <time>2022-06-25T08:00:58Z</time>
      </trkpt>
      <trkpt lat="46.60867" lon="5.06477">
        <ele>203</ele>
        <time>2022-06-25T08:00:59Z</time>
      </trkpt>
      <trkpt lat="46.60861" lon="5.06475">
        <ele>203</ele>
        <time>2022-06-25T08:01:00Z</time>
      </trkpt>
      <trkpt lat="46.60855" lon="5.06473">
        <ele>203</ele>
        <time>2022-06-25T08:01:01Z</time>
      </trkpt>
      <trkpt lat="46.6085" lon="5.06471">
        <ele>203</ele>
        <time>2022-06-25T08:01:02Z</time>
      </trkpt>
      <trkpt lat="46.60844" lon="5.06469">
        <ele>203</ele>
        <time>2022-06-25T08:01:03Z</time>
      </trkpt>
      <trkpt lat="46.60838" lon="5.06468">
        <ele>203</ele>
        <time>2022-06-25T08:01:04Z</time>
      </trkpt>
      <trkpt lat="46.60832" lon="5.06466">
        <ele>203.4</ele>
        <time>2022-06-25T08:01:05Z</time>
      </trkpt>
      <trkpt lat="46.60826" lon="5.06464">
        <ele>203.4</ele>
        <time>2022-06-25T08:01:06Z</time>
      </trkpt>
      <trkpt lat="46.6082" lon="5.06462">
        <ele>203.4</ele>
        <time>2022-06-25T08:01:07Z</time>
      </trkpt>
      <trkpt lat="46.60815" lon="5.0646">
        <ele>203.6</ele>
        <time>2022-06-25T08:01:08Z</time>
      </trkpt>
      <trkpt lat="46.60809" lon="5.06459">
        <ele>203.6</ele>
        <time>2022-06-25T08:01:09Z</time>
      </trkpt>
      <trkpt lat="46.60803" lon="5.06457">
        <ele>203.6</ele>
        <time>2022-06-25T08:01:10Z</time>
      </trkpt>
      <trkpt lat="46.60797" lon="5.06455">
        <ele>203.6</ele>
        <time>2022-06-25T08:01:11Z</time>
      </trkpt>
      <trkpt lat="46.60791" lon="5.06453">
        <ele>203.6</ele>
        <time>2022-06-25T08:01:12Z</time>
      </trkpt>
      <trkpt lat="46.60785" lon="5.06451">
        <ele>203.6</ele>
        <time>2022-06-25T08:01:13Z</time>
      </trkpt>
      <trkpt lat="46.60779" lon="5.0645">
        <ele>203.6</ele>
        <time>2022-06-25T08:01:14Z</time>
      </trkpt>
      <trkpt lat="46.60773" lon="5.06448">
        <ele>203.8</ele>
        <time>2022-06-25T08:01:15Z</time>
      </trkpt>
      <trkpt lat="46.60767" lon="5.06446">
        <ele>203.8</ele>
        <time>2022-06-25T08:01:16Z</time>
      </trkpt>
      <trkpt lat="46.60761" lon="5.06444">
        <ele>204.2</ele>
        <time>2022-06-25T08:01:17Z</time>
      </trkpt>
      <trkpt lat="46.60756" lon="5.06442">
        <ele>204.2</ele>
        <time>2022-06-25T08:01:18Z</time>
      </trkpt>
      <trkpt lat="46.6075" lon="5.06441">
        <ele>204.2</ele>
        <time>2022-06-25T08:01:19Z</time>
      </trkpt>
      <trkpt lat="46.60744" lon="5.06439">
        <ele>204.4</ele>
        <time>2022-06-25T08:01:20Z</time>
      </trkpt>
      <trkpt lat="46.60738" lon="5.06438">
        <ele>204.4</ele>
        <time>2022-06-25T08:01:21Z</time>
      </trkpt>
      <trkpt lat="46.60732" lon="5.06437">
        <ele>204.4</ele>
        <time>2022-06-25T08:01:22Z</time>
      </trkpt>
      <trkpt lat="46.60726" lon="5.06437">
        <ele>204.4</ele>
        <time>2022-06-25T08:01:23Z</time>
      </trkpt>
      <trkpt lat="46.6072" lon="5.06437">
        <ele>204.4</ele>
        <time>2022-06-25T08:01:24Z</time>
      </trkpt>
      <trkpt lat="46.60714" lon="5.06437">
        <ele>204.4</ele>
        <time>2022-06-25T08:01:25Z</time>
      </trkpt>
      <trkpt lat="46.60708" lon="5.06438">
        <ele>204.8</ele>
        <time>2022-06-25T08:01:26Z</time>
      </trkpt>
      <trkpt lat="46.60702" lon="5.0644">
        <ele>204.8</ele>
        <time>2022-06-25T08:01:27Z</time>
      </trkpt>
      <trkpt lat="46.60696" lon="5.06442">
        <ele>204.8</ele>
        <time>2022-06-25T08:01:28Z</time>
      </trkpt>
      <trkpt lat="46.6069" lon="5.06444">
        <ele>204.8</ele>
        <time>2022-06-25T08:01:29Z</time>
      </trkpt>
      <trkpt lat="46.60684" lon="5.06445">
        <ele>204.8</ele>
        <time>2022-06-25T08:01:30Z</time>
      </trkpt>
      <trkpt lat="46.60678" lon="5.06447">
        <ele>204.6</ele>
        <time>2022-06-25T08:01:32Z</time>
      </trkpt>
      <trkpt lat="46.60672" lon="5.06449">
        <ele>204.2</ele>
        <time>2022-06-25T08:01:33Z</time>
      </trkpt>
      <trkpt lat="46.60666" lon="5.06451">
        <ele>204.2</ele>
        <time>2022-06-25T08:01:34Z</time>
      </trkpt>
      <trkpt lat="46.60659" lon="5.06453">
        <ele>203.8</ele>
        <time>2022-06-25T08:01:35Z</time>
      </trkpt>
      <trkpt lat="46.60653" lon="5.06455">
        <ele>203.6</ele>
        <time>2022-06-25T08:01:36Z</time>
      </trkpt>
      <trkpt lat="46.60646" lon="5.06458">
        <ele>203.4</ele>
        <time>2022-06-25T08:01:37Z</time>
      </trkpt>
      <trkpt lat="46.60638" lon="5.06462">
        <ele>203</ele>
        <time>2022-06-25T08:01:38Z</time>
      </trkpt>
      <trkpt lat="46.60631" lon="5.06465">
        <ele>202.6</ele>
        <time>2022-06-25T08:01:39Z</time>
      </trkpt>
      <trkpt lat="46.60624" lon="5.0647">
        <ele>202.2</ele>
        <time>2022-06-25T08:01:40Z</time>
      </trkpt>
      <trkpt lat="46.60617" lon="5.06475">
        <ele>201.8</ele>
        <time>2022-06-25T08:01:41Z</time>
      </trkpt>
      <trkpt lat="46.60609" lon="5.06479">
        <ele>201.4</ele>
        <time>2022-06-25T08:01:42Z</time>
      </trkpt>
      <trkpt lat="46.60601" lon="5.06484">
        <ele>201</ele>
        <time>2022-06-25T08:01:43Z</time>
      </trkpt>
      <trkpt lat="46.60593" lon="5.06489">
        <ele>200.6</ele>
        <time>2022-06-25T08:01:44Z</time>
      </trkpt>
      <trkpt lat="46.60585" lon="5.06494">
        <ele>200.2</ele>
        <time>2022-06-25T08:01:45Z</time>
      </trkpt>
      <trkpt lat="46.60576" lon="5.06499">
        <ele>199.6</ele>
        <time>2022-06-25T08:01:46Z</time>
      </trkpt>
      <trkpt lat="46.60567" lon="5.06502">
        <ele>199.2</ele>
        <time>2022-06-25T08:01:47Z</time>
      </trkpt>
      <trkpt lat="46.60557" lon="5.06504">
        <ele>198.6</ele>
        <time>2022-06-25T08:01:48Z</time>
      </trkpt>
      <trkpt lat="46.60547" lon="5.06506">
        <ele>198</ele>
        <time>2022-06-25T08:01:49Z</time>
      </trkpt>
      <trkpt lat="46.60536" lon="5.06506">
        <ele>197.4</ele>
        <time>2022-06-25T08:01:50Z</time>
      </trkpt>
      <trkpt lat="46.60525" lon="5.06505">
        <ele>196.8</ele>
        <time>2022-06-25T08:01:51Z</time>
      </trkpt>
      <trkpt lat="46.60514" lon="5.06504">
        <ele>196.2</ele>
        <time>2022-06-25T08:01:52Z</time>
      </trkpt>
      <trkpt lat="46.60502" lon="5.06504">
        <ele>195.6</ele>
        <time>2022-06-25T08:01:53Z</time>
      </trkpt>
      <trkpt lat="46.6049" lon="5.06503">
        <ele>194.8</ele>
        <time>2022-06-25T08:01:54Z</time>
      </trkpt>
      <trkpt lat="46.60478" lon="5.06504">
        <ele>194.2</ele>
        <time>2022-06-25T08:01:55Z</time>
      </trkpt>
      <trkpt lat="46.60466" lon="5.06504">
        <ele>193.4</ele>
        <time>2022-06-25T08:01:56Z</time>
      </trkpt>
      <trkpt lat="46.60453" lon="5.06504">
        <ele>192.6</ele>
        <time>2022-06-25T08:01:57Z</time>
      </trkpt>
      <trkpt lat="46.60441" lon="5.06505">
        <ele>191.8</ele>
        <time>2022-06-25T08:01:58Z</time>
      </trkpt>
      <trkpt lat="46.60427" lon="5.06506">
        <ele>191.2</ele>
        <time>2022-06-25T08:01:59Z</time>
      </trkpt>
      <trkpt lat="46.60413" lon="5.06507">
        <ele>190.6</ele>
        <time>2022-06-25T08:02:00Z</time>
      </trkpt>
      <trkpt lat="46.604" lon="5.06508">
        <ele>189.6</ele>
        <time>2022-06-25T08:02:01Z</time>
      </trkpt>
      <trkpt lat="46.60387" lon="5.06508">
        <ele>189</ele>
        <time>2022-06-25T08:02:02Z</time>
      </trkpt>
      <trkpt lat="46.60376" lon="5.06509">
        <ele>188.4</ele>
        <time>2022-06-25T08:02:03Z</time>
      </trkpt>
      <trkpt lat="46.60364" lon="5.06511">
        <ele>187.8</ele>
        <time>2022-06-25T08:02:04Z</time>
      </trkpt>
      <trkpt lat="46.60354" lon="5.06513">
        <ele>187.4</ele>
        <time>2022-06-25T08:02:05Z</time>
      </trkpt>
      <trkpt lat="46.60344" lon="5.06515">
        <ele>187</ele>
        <time>2022-06-25T08:02:06Z</time>
      </trkpt>
      <trkpt lat="46.60335" lon="5.0652">
        <ele>186.6</ele>
        <time>2022-06-25T08:02:07Z</time>
      </trkpt>
      <trkpt lat="46.60328" lon="5.06528">
        <ele>186.4</ele>
        <time>2022-06-25T08:02:08Z</time>
      </trkpt>
      <trkpt lat="46.6032" lon="5.06535">
        <ele>186.4</ele>
        <time>2022-06-25T08:02:09Z</time>
      </trkpt>
      <trkpt lat="46.60314" lon="5.06543">
        <ele>186</ele>
        <time>2022-06-25T08:02:10Z</time>
      </trkpt>
      <trkpt lat="46.60308" lon="5.06552">
        <ele>186</ele>
        <time>2022-06-25T08:02:11Z</time>
      </trkpt>
      <trkpt lat="46.60302" lon="5.06561">
        <ele>186</ele>
        <time>2022-06-25T08:02:12Z</time>
      </trkpt>
      <trkpt lat="46.60296" lon="5.06569">
        <ele>186</ele>
        <time>2022-06-25T08:02:13Z</time>
      </trkpt>
      <trkpt lat="46.60291" lon="5.06578">
        <ele>186</ele>
        <time>2022-06-25T08:02:14Z</time>
      </trkpt>
      <trkpt lat="46.60286" lon="5.06586">
        <ele>186.4</ele>
        <time>2022-06-25T08:02:15Z</time>
      </trkpt>
      <trkpt lat="46.60281" lon="5.06594">
        <ele>186.4</ele>
        <time>2022-06-25T08:02:16Z</time>
      </trkpt>
      <trkpt lat="46.60276" lon="5.06601">
        <ele>186.4</ele>
        <time>2022-06-25T08:02:17Z</time>
      </trkpt>
      <trkpt lat="46.60271" lon="5.06608">
        <ele>186.4</ele>
        <time>2022-06-25T08:02:18Z</time>
      </trkpt>
      <trkpt lat="46.60266" lon="5.06615">
        <ele>186.6</ele>
        <time>2022-06-25T08:02:19Z</time>
      </trkpt>
      <trkpt lat="46.60262" lon="5.06622">
        <ele>186.6</ele>
        <time>2022-06-25T08:02:20Z</time>
      </trkpt>
      <trkpt lat="46.60257" lon="5.06628">
        <ele>186.6</ele>
        <time>2022-06-25T08:02:21Z</time>
      </trkpt>
      <trkpt lat="46.60253" lon="5.06634">
        <ele>186.8</ele>
        <time>2022-06-25T08:02:22Z</time>
      </trkpt>
      <trkpt lat="46.60247" lon="5.06645">
        <ele>186.8</ele>
        <time>2022-06-25T08:02:23Z</time>
      </trkpt>
      <trkpt lat="46.60244" lon="5.06649">
        <ele>186.8</ele>
        <time>2022-06-25T08:02:24Z</time>
      </trkpt>
      <trkpt lat="46.60239" lon="5.06659">
        <ele>186.8</ele>
        <time>2022-06-25T08:02:25Z</time>
      </trkpt>
      <trkpt lat="46.60235" lon="5.06664">
        <ele>187.2</ele>
        <time>2022-06-25T08:02:26Z</time>
      </trkpt>
      <trkpt lat="46.60232" lon="5.0667">
        <ele>187.2</ele>
        <time>2022-06-25T08:02:27Z</time>
      </trkpt>
      <trkpt lat="46.60228" lon="5.06675">
        <ele>187.4</ele>
        <time>2022-06-25T08:02:28Z</time>
      </trkpt>
      <trkpt lat="46.60224" lon="5.06679">
        <ele>187.4</ele>
        <time>2022-06-25T08:02:29Z</time>
      </trkpt>
      <trkpt lat="46.6022" lon="5.06684">
        <ele>187.6</ele>
        <time>2022-06-25T08:02:30Z</time>
      </trkpt>
      <trkpt lat="46.60216" lon="5.06688">
        <ele>187.6</ele>
        <time>2022-06-25T08:02:31Z</time>
      </trkpt>
      <trkpt lat="46.60212" lon="5.06693">
        <ele>187.6</ele>
        <time>2022-06-25T08:02:32Z</time>
      </trkpt>
      <trkpt lat="46.60207" lon="5.06697">
        <ele>187.6</ele>
        <time>2022-06-25T08:02:33Z</time>
      </trkpt>
      <trkpt lat="46.60202" lon="5.06702">
        <ele>187.6</ele>
        <time>2022-06-25T08:02:34Z</time>
      </trkpt>
      <trkpt lat="46.60196" lon="5.06706">
        <ele>187.6</ele>
        <time>2022-06-25T08:02:35Z</time>
      </trkpt>
      <trkpt lat="46.60191" lon="5.0671">
        <ele>187.6</ele>
        <time>2022-06-25T08:02:36Z</time>
      </trkpt>
      <trkpt lat="46.60185" lon="5.06713">
        <ele>187.6</ele>
        <time>2022-06-25T08:02:37Z</time>
      </trkpt>
      <trkpt lat="46.60179" lon="5.06716">
        <ele>187.4</ele>
        <time>2022-06-25T08:02:38Z</time>
      </trkpt>
      <trkpt lat="46.60173" lon="5.06719">
        <ele>187.4</ele>
        <time>2022-06-25T08:02:39Z</time>
      </trkpt>
      <trkpt lat="46.60167" lon="5.06722">
        <ele>187.4</ele>
        <time>2022-06-25T08:02:40Z</time>
      </trkpt>
      <trkpt lat="46.60161" lon="5.06724">
        <ele>187.4</ele>
        <time>2022-06-25T08:02:41Z</time>
      </trkpt>
      <trkpt lat="46.60155" lon="5.06727">
        <ele>187.4</ele>
        <time>2022-06-25T08:02:42Z</time>
      </trkpt>
      <trkpt lat="46.60149" lon="5.0673">
        <ele>187.2</ele>
        <time>2022-06-25T08:02:43Z</time>
      </trkpt>
      <trkpt lat="46.60142" lon="5.06733">
        <ele>187.2</ele>
        <time>2022-06-25T08:02:44Z</time>
      </trkpt>
      <trkpt lat="46.60136" lon="5.06735">
        <ele>187.2</ele>
        <time>2022-06-25T08:02:45Z</time>
      </trkpt>
      <trkpt lat="46.60129" lon="5.06738">
        <ele>187</ele>
        <time>2022-06-25T08:02:46Z</time>
      </trkpt>
      <trkpt lat="46.60122" lon="5.06741">
        <ele>187</ele>
        <time>2022-06-25T08:02:47Z</time>
      </trkpt>
      <trkpt lat="46.60115" lon="5.06745">
        <ele>186.6</ele>
        <time>2022-06-25T08:02:48Z</time>
      </trkpt>
      <trkpt lat="46.60109" lon="5.06748">
        <ele>186.6</ele>
        <time>2022-06-25T08:02:49Z</time>
      </trkpt>
      <trkpt lat="46.60102" lon="5.0675">
        <ele>186.6</ele>
        <time>2022-06-25T08:02:50Z</time>
      </trkpt>
      <trkpt lat="46.60095" lon="5.06754">
        <ele>186.4</ele>
        <time>2022-06-25T08:02:51Z</time>
      </trkpt>
      <trkpt lat="46.60088" lon="5.06757">
        <ele>186.4</ele>
        <time>2022-06-25T08:02:52Z</time>
      </trkpt>
      <trkpt lat="46.60081" lon="5.0676">
        <ele>186.4</ele>
        <time>2022-06-25T08:02:53Z</time>
      </trkpt>
      <trkpt lat="46.60074" lon="5.06764">
        <ele>186.4</ele>
        <time>2022-06-25T08:02:54Z</time>
      </trkpt>
      <trkpt lat="46.60067" lon="5.06767">
        <ele>186</ele>
        <time>2022-06-25T08:02:55Z</time>
      </trkpt>
      <trkpt lat="46.60059" lon="5.0677">
        <ele>186</ele>
        <time>2022-06-25T08:02:56Z</time>
      </trkpt>
      <trkpt lat="46.60052" lon="5.06774">
        <ele>185.8</ele>
        <time>2022-06-25T08:02:57Z</time>
      </trkpt>
      <trkpt lat="46.60044" lon="5.06776">
        <ele>185.8</ele>
        <time>2022-06-25T08:02:58Z</time>
      </trkpt>
      <trkpt lat="46.60037" lon="5.06779">
        <ele>185.8</ele>
        <time>2022-06-25T08:02:59Z</time>
      </trkpt>
      <trkpt lat="46.60029" lon="5.06782">
        <ele>185.8</ele>
        <time>2022-06-25T08:03:00Z</time>
      </trkpt>
      <trkpt lat="46.60022" lon="5.06784">
        <ele>185.8</ele>
        <time>2022-06-25T08:03:01Z</time>
      </trkpt>
      <trkpt lat="46.60014" lon="5.06786">
        <ele>185.4</ele>
        <time>2022-06-25T08:03:02Z</time>
      </trkpt>
      <trkpt lat="46.60006" lon="5.06786">
        <ele>185.4</ele>
        <time>2022-06-25T08:03:03Z</time>
      </trkpt>
      <trkpt lat="46.59998" lon="5.06785">
        <ele>185.4</ele>
        <time>2022-06-25T08:03:04Z</time>
      </trkpt>
      <trkpt lat="46.59991" lon="5.06784">
        <ele>185.2</ele>
        <time>2022-06-25T08:03:05Z</time>
      </trkpt>
      <trkpt lat="46.59983" lon="5.06781">
        <ele>185.2</ele>
        <time>2022-06-25T08:03:06Z</time>
      </trkpt>
      <trkpt lat="46.59976" lon="5.06778">
        <ele>185.2</ele>
        <time>2022-06-25T08:03:07Z</time>
      </trkpt>
      <trkpt lat="46.59969" lon="5.06776">
        <ele>185.2</ele>
        <time>2022-06-25T08:03:08Z</time>
      </trkpt>
      <trkpt lat="46.59962" lon="5.06773">
        <ele>185.2</ele>
        <time>2022-06-25T08:03:09Z</time>
      </trkpt>
      <trkpt lat="46.59955" lon="5.06772">
        <ele>185.2</ele>
        <time>2022-06-25T08:03:10Z</time>
      </trkpt>
      <trkpt lat="46.59948" lon="5.0677">
        <ele>185.6</ele>
        <time>2022-06-25T08:03:11Z</time>
      </trkpt>
      <trkpt lat="46.59941" lon="5.06769">
        <ele>185.6</ele>
        <time>2022-06-25T08:03:12Z</time>
      </trkpt>
      <trkpt lat="46.59935" lon="5.06768">
        <ele>185.8</ele>
        <time>2022-06-25T08:03:13Z</time>
      </trkpt>
      <trkpt lat="46.59928" lon="5.06767">
        <ele>185.8</ele>
        <time>2022-06-25T08:03:14Z</time>
      </trkpt>
      <trkpt lat="46.59922" lon="5.06766">
        <ele>186</ele>
        <time>2022-06-25T08:03:15Z</time>
      </trkpt>
      <trkpt lat="46.59916" lon="5.06765">
        <ele>186</ele>
        <time>2022-06-25T08:03:16Z</time>
      </trkpt>
      <trkpt lat="46.5991" lon="5.06764">
        <ele>186</ele>
        <time>2022-06-25T08:03:17Z</time>
      </trkpt>
      <trkpt lat="46.59904" lon="5.06763">
        <ele>186</ele>
        <time>2022-06-25T08:03:18Z</time>
      </trkpt>
      <trkpt lat="46.59898" lon="5.06761">
        <ele>186</ele>
        <time>2022-06-25T08:03:19Z</time>
      </trkpt>
      <trkpt lat="46.59892" lon="5.0676">
        <ele>186</ele>
        <time>2022-06-25T08:03:20Z</time>
      </trkpt>
      <trkpt lat="46.59886" lon="5.06758">
        <ele>186</ele>
        <time>2022-06-25T08:03:21Z</time>
      </trkpt>
      <trkpt lat="46.5988" lon="5.06755">
        <ele>186.2</ele>
        <time>2022-06-25T08:03:22Z</time>
      </trkpt>
      <trkpt lat="46.59874" lon="5.06752">
        <ele>186.2</ele>
        <time>2022-06-25T08:03:23Z</time>
      </trkpt>
      <trkpt lat="46.59869" lon="5.06749">
        <ele>186.2</ele>
        <time>2022-06-25T08:03:24Z</time>
      </trkpt>
      <trkpt lat="46.59864" lon="5.06745">
        <ele>186.4</ele>
        <time>2022-06-25T08:03:25Z</time>
      </trkpt>
      <trkpt lat="46.59859" lon="5.06741">
        <ele>186.4</ele>
        <time>2022-06-25T08:03:26Z</time>
      </trkpt>
      <trkpt lat="46.59853" lon="5.06736">
        <ele>186.4</ele>
        <time>2022-06-25T08:03:27Z</time>
      </trkpt>
      <trkpt lat="46.59849" lon="5.06732">
        <ele>186.4</ele>
        <time>2022-06-25T08:03:28Z</time>
      </trkpt>
      <trkpt lat="46.59844" lon="5.06727">
        <ele>186.8</ele>
        <time>2022-06-25T08:03:29Z</time>
      </trkpt>
      <trkpt lat="46.5984" lon="5.06722">
        <ele>186.8</ele>
        <time>2022-06-25T08:03:30Z</time>
      </trkpt>
      <trkpt lat="46.59835" lon="5.06717">
        <ele>187</ele>
        <time>2022-06-25T08:03:31Z</time>
      </trkpt>
      <trkpt lat="46.59831" lon="5.06712">
        <ele>187</ele>
        <time>2022-06-25T08:03:32Z</time>
      </trkpt>
      <trkpt lat="46.59827" lon="5.06707">
        <ele>187.4</ele>
        <time>2022-06-25T08:03:33Z</time>
      </trkpt>
      <trkpt lat="46.59822" lon="5.06702">
        <ele>187.4</ele>
        <time>2022-06-25T08:03:34Z</time>
      </trkpt>
      <trkpt lat="46.59818" lon="5.06698">
        <ele>187.8</ele>
        <time>2022-06-25T08:03:35Z</time>
      </trkpt>
      <trkpt lat="46.59814" lon="5.06693">
        <ele>187.8</ele>
        <time>2022-06-25T08:03:36Z</time>
      </trkpt>
      <trkpt lat="46.5981" lon="5.06688">
        <ele>188</ele>
        <time>2022-06-25T08:03:37Z</time>
      </trkpt>
      <trkpt lat="46.59806" lon="5.06684">
        <ele>188</ele>
        <time>2022-06-25T08:03:38Z</time>
      </trkpt>
      <trkpt lat="46.59802" lon="5.06679">
        <ele>188.2</ele>
        <time>2022-06-25T08:03:39Z</time>
      </trkpt>
      <trkpt lat="46.59798" lon="5.06675">
        <ele>188.2</ele>
        <time>2022-06-25T08:03:40Z</time>
      </trkpt>
      <trkpt lat="46.59793" lon="5.06671">
        <ele>188.2</ele>
        <time>2022-06-25T08:03:41Z</time>
      </trkpt>
      <trkpt lat="46.59789" lon="5.06667">
        <ele>188.6</ele>
        <time>2022-06-25T08:03:42Z</time>
      </trkpt>
      <trkpt lat="46.59784" lon="5.06664">
        <ele>188.6</ele>
        <time>2022-06-25T08:03:43Z</time>
      </trkpt>
      <trkpt lat="46.5978" lon="5.06661">
        <ele>188.8</ele>
        <time>2022-06-25T08:03:44Z</time>
      </trkpt>
      <trkpt lat="46.59775" lon="5.06658">
        <ele>188.8</ele>
        <time>2022-06-25T08:03:45Z</time>
      </trkpt>
      <trkpt lat="46.5977" lon="5.06655">
        <ele>188.8</ele>
        <time>2022-06-25T08:03:46Z</time>
      </trkpt>
      <trkpt lat="46.59766" lon="5.06653">
        <ele>189</ele>
        <time>2022-06-25T08:03:47Z</time>
      </trkpt>
      <trkpt lat="46.59761" lon="5.06651">
        <ele>189</ele>
        <time>2022-06-25T08:03:48Z</time>
      </trkpt>
      <trkpt lat="46.59756" lon="5.06648">
        <ele>189.2</ele>
        <time>2022-06-25T08:03:49Z</time>
      </trkpt>
      <trkpt lat="46.59751" lon="5.06646">
        <ele>189.2</ele>
        <time>2022-06-25T08:03:50Z</time>
      </trkpt>
      <trkpt lat="46.59746" lon="5.06643">
        <ele>189.2</ele>
        <time>2022-06-25T08:03:51Z</time>
      </trkpt>
      <trkpt lat="46.5974" lon="5.06641">
        <ele>189.6</ele>
        <time>2022-06-25T08:03:52Z</time>
      </trkpt>
      <trkpt lat="46.59735" lon="5.06639">
        <ele>189.6</ele>
        <time>2022-06-25T08:03:53Z</time>
      </trkpt>
      <trkpt lat="46.5973" lon="5.06636">
        <ele>189.8</ele>
        <time>2022-06-25T08:03:54Z</time>
      </trkpt>
      <trkpt lat="46.59725" lon="5.06634">
        <ele>189.8</ele>
        <time>2022-06-25T08:03:55Z</time>
      </trkpt>
      <trkpt lat="46.59719" lon="5.06631">
        <ele>190</ele>
        <time>2022-06-25T08:03:56Z</time>
      </trkpt>
      <trkpt lat="46.59714" lon="5.06628">
        <ele>190</ele>
        <time>2022-06-25T08:03:57Z</time>
      </trkpt>
      <trkpt lat="46.59709" lon="5.06625">
        <ele>190</ele>
        <time>2022-06-25T08:03:58Z</time>
      </trkpt>
      <trkpt lat="46.59705" lon="5.06622">
        <ele>190</ele>
        <time>2022-06-25T08:03:59Z</time>
      </trkpt>
      <trkpt lat="46.597" lon="5.06618">
        <ele>190.4</ele>
        <time>2022-06-25T08:04:00Z</time>
      </trkpt>
      <trkpt lat="46.59695" lon="5.06615">
        <ele>190.4</ele>
        <time>2022-06-25T08:04:01Z</time>
      </trkpt>
      <trkpt lat="46.5969" lon="5.06611">
        <ele>190.6</ele>
        <time>2022-06-25T08:04:02Z</time>
      </trkpt>
      <trkpt lat="46.59686" lon="5.06608">
        <ele>190.6</ele>
        <time>2022-06-25T08:04:03Z</time>
      </trkpt>
      <trkpt lat="46.59682" lon="5.06604">
        <ele>190.8</ele>
        <time>2022-06-25T08:04:04Z</time>
      </trkpt>
      <trkpt lat="46.59678" lon="5.066">
        <ele>190.8</ele>
        <time>2022-06-25T08:04:05Z</time>
      </trkpt>
      <trkpt lat="46.59674" lon="5.06597">
        <ele>191.4</ele>
        <time>2022-06-25T08:04:06Z</time>
      </trkpt>
      <trkpt lat="46.5967" lon="5.06593">
        <ele>191.4</ele>
        <time>2022-06-25T08:04:07Z</time>
      </trkpt>
      <trkpt lat="46.59666" lon="5.0659">
        <ele>191.6</ele>
        <time>2022-06-25T08:04:08Z</time>
      </trkpt>
      <trkpt lat="46.59662" lon="5.06587">
        <ele>191.6</ele>
        <time>2022-06-25T08:04:09Z</time>
      </trkpt>
      <trkpt lat="46.59658" lon="5.06583">
        <ele>192</ele>
        <time>2022-06-25T08:04:10Z</time>
      </trkpt>
      <trkpt lat="46.59654" lon="5.0658">
        <ele>192.2</ele>
        <time>2022-06-25T08:04:11Z</time>
      </trkpt>
      <trkpt lat="46.59651" lon="5.06577">
        <ele>192.4</ele>
        <time>2022-06-25T08:04:12Z</time>
      </trkpt>
      <trkpt lat="46.59647" lon="5.06574">
        <ele>192.8</ele>
        <time>2022-06-25T08:04:13Z</time>
      </trkpt>
      <trkpt lat="46.59644" lon="5.06571">
        <ele>193</ele>
        <time>2022-06-25T08:04:14Z</time>
      </trkpt>
      <trkpt lat="46.59641" lon="5.06567">
        <ele>193</ele>
        <time>2022-06-25T08:04:15Z</time>
      </trkpt>
      <trkpt lat="46.59638" lon="5.06564">
        <ele>193.4</ele>
        <time>2022-06-25T08:04:16Z</time>
      </trkpt>
      <trkpt lat="46.59634" lon="5.0656">
        <ele>193.4</ele>
        <time>2022-06-25T08:04:17Z</time>
      </trkpt>
      <trkpt lat="46.59631" lon="5.06556">
        <ele>193.6</ele>
        <time>2022-06-25T08:04:18Z</time>
      </trkpt>
      <trkpt lat="46.59628" lon="5.06552">
        <ele>193.6</ele>
        <time>2022-06-25T08:04:19Z</time>
      </trkpt>
      <trkpt lat="46.59624" lon="5.06547">
        <ele>194</ele>
        <time>2022-06-25T08:04:20Z</time>
      </trkpt>
      <trkpt lat="46.59621" lon="5.06542">
        <ele>194</ele>
        <time>2022-06-25T08:04:21Z</time>
      </trkpt>
      <trkpt lat="46.59617" lon="5.06537">
        <ele>194</ele>
        <time>2022-06-25T08:04:22Z</time>
      </trkpt>
      <trkpt lat="46.59614" lon="5.06531">
        <ele>194</ele>
        <time>2022-06-25T08:04:23Z</time>
      </trkpt>
      <trkpt lat="46.5961" lon="5.06525">
        <ele>194</ele>
        <time>2022-06-25T08:04:24Z</time>
      </trkpt>
      <trkpt lat="46.59607" lon="5.06519">
        <ele>194.2</ele>
        <time>2022-06-25T08:04:25Z</time>
      </trkpt>
      <trkpt lat="46.59603" lon="5.06513">
        <ele>194.2</ele>
        <time>2022-06-25T08:04:26Z</time>
      </trkpt>
      <trkpt lat="46.596" lon="5.06506">
        <ele>194.2</ele>
        <time>2022-06-25T08:04:27Z</time>
      </trkpt>
      <trkpt lat="46.59597" lon="5.065">
        <ele>194.2</ele>
        <time>2022-06-25T08:04:28Z</time>
      </trkpt>
      <trkpt lat="46.59594" lon="5.06493">
        <ele>194.4</ele>
        <time>2022-06-25T08:04:29Z</time>
      </trkpt>
      <trkpt lat="46.59591" lon="5.06486">
        <ele>194.4</ele>
        <time>2022-06-25T08:04:30Z</time>
      </trkpt>
      <trkpt lat="46.59587" lon="5.06479">
        <ele>194.4</ele>
        <time>2022-06-25T08:04:31Z</time>
      </trkpt>
      <trkpt lat="46.59584" lon="5.06472">
        <ele>194.4</ele>
        <time>2022-06-25T08:04:32Z</time>
      </trkpt>
      <trkpt lat="46.59581" lon="5.06465">
        <ele>194.6</ele>
        <time>2022-06-25T08:04:33Z</time>
      </trkpt>
      <trkpt lat="46.59578" lon="5.06458">
        <ele>194.6</ele>
        <time>2022-06-25T08:04:34Z</time>
      </trkpt>
      <trkpt lat="46.59574" lon="5.06451">
        <ele>194.6</ele>
        <time>2022-06-25T08:04:35Z</time>
      </trkpt>
      <trkpt lat="46.59571" lon="5.06445">
        <ele>194.6</ele>
        <time>2022-06-25T08:04:36Z</time>
      </trkpt>
      <trkpt lat="46.59568" lon="5.06438">
        <ele>194.6</ele>
        <time>2022-06-25T08:04:37Z</time>
      </trkpt>
      <trkpt lat="46.59565" lon="5.06431">
        <ele>194.6</ele>
        <time>2022-06-25T08:04:38Z</time>
      </trkpt>
      <trkpt lat="46.59561" lon="5.06424">
        <ele>194.6</ele>
        <time>2022-06-25T08:04:39Z</time>
      </trkpt>
      <trkpt lat="46.59558" lon="5.06417">
        <ele>194.8</ele>
        <time>2022-06-25T08:04:40Z</time>
      </trkpt>
      <trkpt lat="46.59555" lon="5.0641">
        <ele>194.8</ele>
        <time>2022-06-25T08:04:41Z</time>
      </trkpt>
      <trkpt lat="46.59551" lon="5.06403">
        <ele>194.8</ele>
        <time>2022-06-25T08:04:42Z</time>
      </trkpt>
      <trkpt lat="46.59548" lon="5.06395">
        <ele>194.8</ele>
        <time>2022-06-25T08:04:43Z</time>
      </trkpt>
      <trkpt lat="46.59544" lon="5.06388">
        <ele>194.8</ele>
        <time>2022-06-25T08:04:44Z</time>
      </trkpt>
      <trkpt lat="46.59541" lon="5.06381">
        <ele>194.8</ele>
        <time>2022-06-25T08:04:45Z</time>
      </trkpt>
      <trkpt lat="46.59537" lon="5.06374">
        <ele>194.8</ele>
        <time>2022-06-25T08:04:46Z</time>
      </trkpt>
      <trkpt lat="46.59534" lon="5.06366">
        <ele>194.8</ele>
        <time>2022-06-25T08:04:47Z</time>
      </trkpt>
      <trkpt lat="46.5953" lon="5.06358">
        <ele>194.8</ele>
        <time>2022-06-25T08:04:48Z</time>
      </trkpt>
      <trkpt lat="46.59527" lon="5.0635">
        <ele>194.8</ele>
        <time>2022-06-25T08:04:49Z</time>
      </trkpt>
      <trkpt lat="46.59523" lon="5.06343">
        <ele>194.6</ele>
        <time>2022-06-25T08:04:50Z</time>
      </trkpt>
      <trkpt lat="46.5952" lon="5.06335">
        <ele>194.6</ele>
        <time>2022-06-25T08:04:51Z</time>
      </trkpt>
      <trkpt lat="46.59516" lon="5.06327">
        <ele>194.6</ele>
        <time>2022-06-25T08:04:52Z</time>
      </trkpt>
      <trkpt lat="46.59512" lon="5.06319">
        <ele>194.6</ele>
        <time>2022-06-25T08:04:53Z</time>
      </trkpt>
      <trkpt lat="46.59509" lon="5.06312">
        <ele>194.6</ele>
        <time>2022-06-25T08:04:54Z</time>
      </trkpt>
      <trkpt lat="46.59505" lon="5.06304">
        <ele>194.6</ele>
        <time>2022-06-25T08:04:55Z</time>
      </trkpt>
      <trkpt lat="46.59501" lon="5.06296">
        <ele>194.6</ele>
        <time>2022-06-25T08:04:56Z</time>
      </trkpt>
      <trkpt lat="46.59498" lon="5.06288">
        <ele>194.6</ele>
        <time>2022-06-25T08:04:57Z</time>
      </trkpt>
      <trkpt lat="46.59494" lon="5.0628">
        <ele>194.6</ele>
        <time>2022-06-25T08:04:58Z</time>
      </trkpt>
      <trkpt lat="46.59491" lon="5.06272">
        <ele>194.6</ele>
        <time>2022-06-25T08:04:59Z</time>
      </trkpt>
      <trkpt lat="46.59487" lon="5.06264">
        <ele>194.6</ele>
        <time>2022-06-25T08:05:00Z</time>
      </trkpt>
      <trkpt lat="46.59484" lon="5.06256">
        <ele>194.6</ele>
        <time>2022-06-25T08:05:01Z</time>
      </trkpt>
      <trkpt lat="46.59481" lon="5.06248">
        <ele>194.2</ele>
        <time>2022-06-25T08:05:02Z</time>
      </trkpt>
      <trkpt lat="46.59478" lon="5.0624">
        <ele>194.2</ele>
        <time>2022-06-25T08:05:03Z</time>
      </trkpt>
      <trkpt lat="46.59475" lon="5.06232">
        <ele>194.2</ele>
        <time>2022-06-25T08:05:04Z</time>
      </trkpt>
      <trkpt lat="46.59472" lon="5.06224">
        <ele>194.2</ele>
        <time>2022-06-25T08:05:05Z</time>
      </trkpt>
      <trkpt lat="46.59469" lon="5.06216">
        <ele>194.2</ele>
        <time>2022-06-25T08:05:06Z</time>
      </trkpt>
      <trkpt lat="46.59466" lon="5.06208">
        <ele>194.2</ele>
        <time>2022-06-25T08:05:07Z</time>
      </trkpt>
      <trkpt lat="46.59463" lon="5.06199">
        <ele>194.2</ele>
        <time>2022-06-25T08:05:08Z</time>
      </trkpt>
      <trkpt lat="46.5946" lon="5.06191">
        <ele>194.2</ele>
        <time>2022-06-25T08:05:09Z</time>
      </trkpt>
      <trkpt lat="46.59457" lon="5.06183">
        <ele>194.2</ele>
        <time>2022-06-25T08:05:10Z</time>
      </trkpt>
      <trkpt lat="46.59454" lon="5.06175">
        <ele>194.2</ele>
        <time>2022-06-25T08:05:11Z</time>
      </trkpt>
      <trkpt lat="46.59451" lon="5.06166">
        <ele>194.2</ele>
        <time>2022-06-25T08:05:12Z</time>
      </trkpt>
      <trkpt lat="46.59448" lon="5.06158">
        <ele>194.2</ele>
        <time>2022-06-25T08:05:13Z</time>
      </trkpt>
      <trkpt lat="46.59445" lon="5.0615">
        <ele>194.4</ele>
        <time>2022-06-25T08:05:14Z</time>
      </trkpt>
      <trkpt lat="46.59442" lon="5.06141">
        <ele>194.4</ele>
        <time>2022-06-25T08:05:15Z</time>
      </trkpt>
      <trkpt lat="46.59439" lon="5.06133">
        <ele>194.4</ele>
        <time>2022-06-25T08:05:16Z</time>
      </trkpt>
      <trkpt lat="46.59436" lon="5.06125">
        <ele>194.4</ele>
        <time>2022-06-25T08:05:17Z</time>
      </trkpt>
      <trkpt lat="46.59433" lon="5.06116">
        <ele>194.4</ele>
        <time>2022-06-25T08:05:18Z</time>
      </trkpt>
      <trkpt lat="46.5943" lon="5.06108">
        <ele>194.4</ele>
        <time>2022-06-25T08:05:20Z</time>
      </trkpt>
      <trkpt lat="46.59428" lon="5.061">
        <ele>194.8</ele>
        <time>2022-06-25T08:05:21Z</time>
      </trkpt>
      <trkpt lat="46.59425" lon="5.06091">
        <ele>194.8</ele>
        <time>2022-06-25T08:05:22Z</time>
      </trkpt>
      <trkpt lat="46.59422" lon="5.06083">
        <ele>194.8</ele>
        <time>2022-06-25T08:05:23Z</time>
      </trkpt>
      <trkpt lat="46.59419" lon="5.06074">
        <ele>194.8</ele>
        <time>2022-06-25T08:05:24Z</time>
      </trkpt>
      <trkpt lat="46.59417" lon="5.06066">
        <ele>194.8</ele>
        <time>2022-06-25T08:05:25Z</time>
      </trkpt>
      <trkpt lat="46.59415" lon="5.06057">
        <ele>194.8</ele>
        <time>2022-06-25T08:05:26Z</time>
      </trkpt>
      <trkpt lat="46.59412" lon="5.06049">
        <ele>194.8</ele>
        <time>2022-06-25T08:05:27Z</time>
      </trkpt>
      <trkpt lat="46.5941" lon="5.0604">
        <ele>194.8</ele>
        <time>2022-06-25T08:05:28Z</time>
      </trkpt>
      <trkpt lat="46.59408" lon="5.06032">
        <ele>195</ele>
        <time>2022-06-25T08:05:29Z</time>
      </trkpt>
      <trkpt lat="46.59405" lon="5.06024">
        <ele>195</ele>
        <time>2022-06-25T08:05:30Z</time>
      </trkpt>
      <trkpt lat="46.59402" lon="5.06016">
        <ele>195</ele>
        <time>2022-06-25T08:05:31Z</time>
      </trkpt>
      <trkpt lat="46.59399" lon="5.06008">
        <ele>195</ele>
        <time>2022-06-25T08:05:32Z</time>
      </trkpt>
      <trkpt lat="46.59395" lon="5.06">
        <ele>195</ele>
        <time>2022-06-25T08:05:33Z</time>
      </trkpt>
      <trkpt lat="46.59391" lon="5.05992">
        <ele>195</ele>
        <time>2022-06-25T08:05:34Z</time>
      </trkpt>
      <trkpt lat="46.59387" lon="5.05985">
        <ele>194.6</ele>
        <time>2022-06-25T08:05:35Z</time>
      </trkpt>
      <trkpt lat="46.59381" lon="5.05977">
        <ele>194.6</ele>
        <time>2022-06-25T08:05:36Z</time>
      </trkpt>
      <trkpt lat="46.59376" lon="5.0597">
        <ele>194.4</ele>
        <time>2022-06-25T08:05:37Z</time>
      </trkpt>
      <trkpt lat="46.5937" lon="5.05963">
        <ele>194.4</ele>
        <time>2022-06-25T08:05:38Z</time>
      </trkpt>
      <trkpt lat="46.59365" lon="5.05956">
        <ele>194</ele>
        <time>2022-06-25T08:05:39Z</time>
      </trkpt>
      <trkpt lat="46.59359" lon="5.05949">
        <ele>194</ele>
        <time>2022-06-25T08:05:40Z</time>
      </trkpt>
      <trkpt lat="46.59353" lon="5.05941">
        <ele>193.6</ele>
        <time>2022-06-25T08:05:41Z</time>
      </trkpt>
      <trkpt lat="46.59347" lon="5.05934">
        <ele>193.4</ele>
        <time>2022-06-25T08:05:42Z</time>
      </trkpt>
      <trkpt lat="46.59341" lon="5.05926">
        <ele>193.4</ele>
        <time>2022-06-25T08:05:43Z</time>
      </trkpt>
      <trkpt lat="46.59335" lon="5.05917">
        <ele>193</ele>
        <time>2022-06-25T08:05:44Z</time>
      </trkpt>
      <trkpt lat="46.5933" lon="5.05909">
        <ele>193</ele>
        <time>2022-06-25T08:05:45Z</time>
      </trkpt>
      <trkpt lat="46.59326" lon="5.05901">
        <ele>193</ele>
        <time>2022-06-25T08:05:46Z</time>
      </trkpt>
      <trkpt lat="46.59321" lon="5.05893">
        <ele>193</ele>
        <time>2022-06-25T08:05:47Z</time>
      </trkpt>
      <trkpt lat="46.59317" lon="5.05885">
        <ele>193</ele>
        <time>2022-06-25T08:05:48Z</time>
      </trkpt>
      <trkpt lat="46.59313" lon="5.05877">
        <ele>193</ele>
        <time>2022-06-25T08:05:49Z</time>
      </trkpt>
      <trkpt lat="46.5931" lon="5.0587">
        <ele>193.4</ele>
        <time>2022-06-25T08:05:50Z</time>
      </trkpt>
      <trkpt lat="46.59306" lon="5.05862">
        <ele>193.4</ele>
        <time>2022-06-25T08:05:51Z</time>
      </trkpt>
      <trkpt lat="46.59304" lon="5.05856">
        <ele>193.8</ele>
        <time>2022-06-25T08:05:52Z</time>
      </trkpt>
      <trkpt lat="46.59301" lon="5.05849">
        <ele>194</ele>
        <time>2022-06-25T08:05:53Z</time>
      </trkpt>
      <trkpt lat="46.59298" lon="5.05842">
        <ele>194.4</ele>
        <time>2022-06-25T08:05:54Z</time>
      </trkpt>
      <trkpt lat="46.59295" lon="5.05836">
        <ele>194.8</ele>
        <time>2022-06-25T08:05:55Z</time>
      </trkpt>
      <trkpt lat="46.59292" lon="5.0583">
        <ele>195</ele>
        <time>2022-06-25T08:05:56Z</time>
      </trkpt>
      <trkpt lat="46.5929" lon="5.05824">
        <ele>195.4</ele>
        <time>2022-06-25T08:05:57Z</time>
      </trkpt>
      <trkpt lat="46.59287" lon="5.05819">
        <ele>195.6</ele>
        <time>2022-06-25T08:05:58Z</time>
      </trkpt>
      <trkpt lat="46.59285" lon="5.05813">
        <ele>196</ele>
        <time>2022-06-25T08:05:59Z</time>
      </trkpt>
      <trkpt lat="46.59283" lon="5.05807">
        <ele>196.2</ele>
        <time>2022-06-25T08:06:00Z</time>
      </trkpt>
      <trkpt lat="46.59281" lon="5.05801">
        <ele>196.6</ele>
        <time>2022-06-25T08:06:01Z</time>
      </trkpt>
      <trkpt lat="46.59279" lon="5.05796">
        <ele>196.8</ele>
        <time>2022-06-25T08:06:02Z</time>
      </trkpt>
      <trkpt lat="46.59277" lon="5.0579">
        <ele>197</ele>
        <time>2022-06-25T08:06:03Z</time>
      </trkpt>
      <trkpt lat="46.59274" lon="5.05785">
        <ele>197</ele>
        <time>2022-06-25T08:06:04Z</time>
      </trkpt>
      <trkpt lat="46.59272" lon="5.05779">
        <ele>197.6</ele>
        <time>2022-06-25T08:06:05Z</time>
      </trkpt>
      <trkpt lat="46.5927" lon="5.05773">
        <ele>197.8</ele>
        <time>2022-06-25T08:06:06Z</time>
      </trkpt>
      <trkpt lat="46.59267" lon="5.05767">
        <ele>198</ele>
        <time>2022-06-25T08:06:07Z</time>
      </trkpt>
      <trkpt lat="46.59265" lon="5.05762">
        <ele>198.2</ele>
        <time>2022-06-25T08:06:08Z</time>
      </trkpt>
      <trkpt lat="46.59263" lon="5.05756">
        <ele>198.6</ele>
        <time>2022-06-25T08:06:09Z</time>
      </trkpt>
      <trkpt lat="46.59261" lon="5.0575">
        <ele>198.8</ele>
        <time>2022-06-25T08:06:10Z</time>
      </trkpt>
      <trkpt lat="46.59259" lon="5.05745">
        <ele>198.8</ele>
        <time>2022-06-25T08:06:11Z</time>
      </trkpt>
      <trkpt lat="46.59258" lon="5.05739">
        <ele>199.2</ele>
        <time>2022-06-25T08:06:12Z</time>
      </trkpt>
      <trkpt lat="46.59255" lon="5.05734">
        <ele>199.4</ele>
        <time>2022-06-25T08:06:13Z</time>
      </trkpt>
      <trkpt lat="46.59253" lon="5.05729">
        <ele>199.4</ele>
        <time>2022-06-25T08:06:14Z</time>
      </trkpt>
      <trkpt lat="46.59251" lon="5.05723">
        <ele>199.8</ele>
        <time>2022-06-25T08:06:15Z</time>
      </trkpt>
      <trkpt lat="46.59249" lon="5.05718">
        <ele>200</ele>
        <time>2022-06-25T08:06:16Z</time>
      </trkpt>
      <trkpt lat="46.59247" lon="5.05712">
        <ele>200.2</ele>
        <time>2022-06-25T08:06:17Z</time>
      </trkpt>
      <trkpt lat="46.59245" lon="5.05706">
        <ele>200.6</ele>
        <time>2022-06-25T08:06:18Z</time>
      </trkpt>
      <trkpt lat="46.59244" lon="5.05701">
        <ele>200.8</ele>
        <time>2022-06-25T08:06:19Z</time>
      </trkpt>
      <trkpt lat="46.59242" lon="5.05695">
        <ele>200.8</ele>
        <time>2022-06-25T08:06:20Z</time>
      </trkpt>
      <trkpt lat="46.59241" lon="5.0569">
        <ele>201.2</ele>
        <time>2022-06-25T08:06:21Z</time>
      </trkpt>
      <trkpt lat="46.59239" lon="5.05684">
        <ele>201.2</ele>
        <time>2022-06-25T08:06:22Z</time>
      </trkpt>
      <trkpt lat="46.59237" lon="5.05677">
        <ele>201.6</ele>
        <time>2022-06-25T08:06:23Z</time>
      </trkpt>
      <trkpt lat="46.59236" lon="5.05671">
        <ele>201.8</ele>
        <time>2022-06-25T08:06:24Z</time>
      </trkpt>
      <trkpt lat="46.59234" lon="5.05665">
        <ele>202.2</ele>
        <time>2022-06-25T08:06:25Z</time>
      </trkpt>
      <trkpt lat="46.59233" lon="5.05658">
        <ele>202.4</ele>
        <time>2022-06-25T08:06:26Z</time>
      </trkpt>
      <trkpt lat="46.59231" lon="5.05652">
        <ele>202.6</ele>
        <time>2022-06-25T08:06:27Z</time>
      </trkpt>
      <trkpt lat="46.5923" lon="5.05645">
        <ele>202.8</ele>
        <time>2022-06-25T08:06:28Z</time>
      </trkpt>
      <trkpt lat="46.59229" lon="5.05639">
        <ele>203.2</ele>
        <time>2022-06-25T08:06:29Z</time>
      </trkpt>
      <trkpt lat="46.59228" lon="5.05632">
        <ele>203.2</ele>
        <time>2022-06-25T08:06:30Z</time>
      </trkpt>
      <trkpt lat="46.59227" lon="5.05626">
        <ele>203.6</ele>
        <time>2022-06-25T08:06:31Z</time>
      </trkpt>
      <trkpt lat="46.59226" lon="5.0562">
        <ele>203.8</ele>
        <time>2022-06-25T08:06:32Z</time>
      </trkpt>
      <trkpt lat="46.59225" lon="5.05614">
        <ele>204</ele>
        <time>2022-06-25T08:06:33Z</time>
      </trkpt>
      <trkpt lat="46.59223" lon="5.05609">
        <ele>204.2</ele>
        <time>2022-06-25T08:06:34Z</time>
      </trkpt>
      <trkpt lat="46.59222" lon="5.05603">
        <ele>204.4</ele>
        <time>2022-06-25T08:06:35Z</time>
      </trkpt>
      <trkpt lat="46.59222" lon="5.05597">
        <ele>204.8</ele>
        <time>2022-06-25T08:06:36Z</time>
      </trkpt>
      <trkpt lat="46.59221" lon="5.05592">
        <ele>204.8</ele>
        <time>2022-06-25T08:06:37Z</time>
      </trkpt>
      <trkpt lat="46.5922" lon="5.05586">
        <ele>205</ele>
        <time>2022-06-25T08:06:38Z</time>
      </trkpt>
      <trkpt lat="46.59219" lon="5.0558">
        <ele>205</ele>
        <time>2022-06-25T08:06:39Z</time>
      </trkpt>
      <trkpt lat="46.59218" lon="5.05574">
        <ele>205.4</ele>
        <time>2022-06-25T08:06:40Z</time>
      </trkpt>
      <trkpt lat="46.59217" lon="5.05568">
        <ele>205.4</ele>
        <time>2022-06-25T08:06:41Z</time>
      </trkpt>
      <trkpt lat="46.59216" lon="5.05562">
        <ele>205.6</ele>
        <time>2022-06-25T08:06:42Z</time>
      </trkpt>
      <trkpt lat="46.59216" lon="5.05555">
        <ele>205.6</ele>
        <time>2022-06-25T08:06:43Z</time>
      </trkpt>
      <trkpt lat="46.59215" lon="5.05549">
        <ele>206</ele>
        <time>2022-06-25T08:06:44Z</time>
      </trkpt>
      <trkpt lat="46.59213" lon="5.05543">
        <ele>206</ele>
        <time>2022-06-25T08:06:45Z</time>
      </trkpt>
      <trkpt lat="46.59212" lon="5.05537">
        <ele>206.2</ele>
        <time>2022-06-25T08:06:46Z</time>
      </trkpt>
      <trkpt lat="46.59211" lon="5.0553">
        <ele>206.2</ele>
        <time>2022-06-25T08:06:47Z</time>
      </trkpt>
      <trkpt lat="46.59211" lon="5.05524">
        <ele>206.6</ele>
        <time>2022-06-25T08:06:48Z</time>
      </trkpt>
      <trkpt lat="46.5921" lon="5.05517">
        <ele>206.6</ele>
        <time>2022-06-25T08:06:49Z</time>
      </trkpt>
      <trkpt lat="46.59209" lon="5.05511">
        <ele>206.8</ele>
        <time>2022-06-25T08:06:50Z</time>
      </trkpt>
      <trkpt lat="46.59207" lon="5.05504">
        <ele>206.8</ele>
        <time>2022-06-25T08:06:51Z</time>
      </trkpt>
      <trkpt lat="46.59206" lon="5.05498">
        <ele>207</ele>
        <time>2022-06-25T08:06:52Z</time>
      </trkpt>
      <trkpt lat="46.59205" lon="5.05491">
        <ele>207</ele>
        <time>2022-06-25T08:06:53Z</time>
      </trkpt>
      <trkpt lat="46.59204" lon="5.05485">
        <ele>207</ele>
        <time>2022-06-25T08:06:54Z</time>
      </trkpt>
      <trkpt lat="46.59203" lon="5.05478">
        <ele>207</ele>
        <time>2022-06-25T08:06:55Z</time>
      </trkpt>
      <trkpt lat="46.59202" lon="5.05471">
        <ele>207.2</ele>
        <time>2022-06-25T08:06:56Z</time>
      </trkpt>
      <trkpt lat="46.59201" lon="5.05463">
        <ele>207.2</ele>
        <time>2022-06-25T08:06:57Z</time>
      </trkpt>
      <trkpt lat="46.592" lon="5.05456">
        <ele>207.2</ele>
        <time>2022-06-25T08:06:58Z</time>
      </trkpt>
      <trkpt lat="46.59199" lon="5.05449">
        <ele>207.6</ele>
        <time>2022-06-25T08:06:59Z</time>
      </trkpt>
      <trkpt lat="46.59198" lon="5.05442">
        <ele>207.6</ele>
        <time>2022-06-25T08:07:00Z</time>
      </trkpt>
      <trkpt lat="46.59197" lon="5.05435">
        <ele>207.6</ele>
        <time>2022-06-25T08:07:01Z</time>
      </trkpt>
      <trkpt lat="46.59195" lon="5.05428">
        <ele>207.8</ele>
        <time>2022-06-25T08:07:02Z</time>
      </trkpt>
      <trkpt lat="46.59194" lon="5.05421">
        <ele>207.8</ele>
        <time>2022-06-25T08:07:03Z</time>
      </trkpt>
      <trkpt lat="46.59193" lon="5.05414">
        <ele>207.8</ele>
        <time>2022-06-25T08:07:04Z</time>
      </trkpt>
      <trkpt lat="46.59192" lon="5.05407">
        <ele>208</ele>
        <time>2022-06-25T08:07:05Z</time>
      </trkpt>
      <trkpt lat="46.59192" lon="5.054">
        <ele>208</ele>
        <time>2022-06-25T08:07:06Z</time>
      </trkpt>
      <trkpt lat="46.59191" lon="5.05392">
        <ele>208</ele>
        <time>2022-06-25T08:07:07Z</time>
      </trkpt>
      <trkpt lat="46.5919" lon="5.05385">
        <ele>208.2</ele>
        <time>2022-06-25T08:07:08Z</time>
      </trkpt>
      <trkpt lat="46.59189" lon="5.05378">
        <ele>208.2</ele>
        <time>2022-06-25T08:07:09Z</time>
      </trkpt>
      <trkpt lat="46.59187" lon="5.0537">
        <ele>208.2</ele>
        <time>2022-06-25T08:07:10Z</time>
      </trkpt>
      <trkpt lat="46.59186" lon="5.05363">
        <ele>208.2</ele>
        <time>2022-06-25T08:07:11Z</time>
      </trkpt>
      <trkpt lat="46.59185" lon="5.05356">
        <ele>208.4</ele>
        <time>2022-06-25T08:07:12Z</time>
      </trkpt>
      <trkpt lat="46.59184" lon="5.05348">
        <ele>208.4</ele>
        <time>2022-06-25T08:07:13Z</time>
      </trkpt>
      <trkpt lat="46.59183" lon="5.0534">
        <ele>208.4</ele>
        <time>2022-06-25T08:07:14Z</time>
      </trkpt>
      <trkpt lat="46.59182" lon="5.05332">
        <ele>208.8</ele>
        <time>2022-06-25T08:07:15Z</time>
      </trkpt>
      <trkpt lat="46.59182" lon="5.05325">
        <ele>208.8</ele>
        <time>2022-06-25T08:07:16Z</time>
      </trkpt>
      <trkpt lat="46.5918" lon="5.05317">
        <ele>209</ele>
        <time>2022-06-25T08:07:17Z</time>
      </trkpt>
      <trkpt lat="46.59179" lon="5.05309">
        <ele>209</ele>
        <time>2022-06-25T08:07:18Z</time>
      </trkpt>
      <trkpt lat="46.59178" lon="5.05302">
        <ele>209.2</ele>
        <time>2022-06-25T08:07:19Z</time>
      </trkpt>
      <trkpt lat="46.59178" lon="5.05294">
        <ele>209.2</ele>
        <time>2022-06-25T08:07:20Z</time>
      </trkpt>
      <trkpt lat="46.59177" lon="5.05287">
        <ele>209.2</ele>
        <time>2022-06-25T08:07:21Z</time>
      </trkpt>
      <trkpt lat="46.59176" lon="5.05279">
        <ele>209.6</ele>
        <time>2022-06-25T08:07:22Z</time>
      </trkpt>
      <trkpt lat="46.59174" lon="5.05265">
        <ele>209.6</ele>
        <time>2022-06-25T08:07:23Z</time>
      </trkpt>
      <trkpt lat="46.59173" lon="5.05257">
        <ele>210</ele>
        <time>2022-06-25T08:07:24Z</time>
      </trkpt>
      <trkpt lat="46.59172" lon="5.0525">
        <ele>210</ele>
        <time>2022-06-25T08:07:25Z</time>
      </trkpt>
      <trkpt lat="46.59171" lon="5.05243">
        <ele>210</ele>
        <time>2022-06-25T08:07:26Z</time>
      </trkpt>
      <trkpt lat="46.5917" lon="5.05236">
        <ele>210.2</ele>
        <time>2022-06-25T08:07:27Z</time>
      </trkpt>
      <trkpt lat="46.59169" lon="5.05229">
        <ele>210.2</ele>
        <time>2022-06-25T08:07:28Z</time>
      </trkpt>
      <trkpt lat="46.59168" lon="5.05222">
        <ele>210.2</ele>
        <time>2022-06-25T08:07:29Z</time>
      </trkpt>
      <trkpt lat="46.59167" lon="5.05214">
        <ele>210.4</ele>
        <time>2022-06-25T08:07:30Z</time>
      </trkpt>
      <trkpt lat="46.59166" lon="5.05206">
        <ele>210.4</ele>
        <time>2022-06-25T08:07:31Z</time>
      </trkpt>
      <trkpt lat="46.59165" lon="5.05199">
        <ele>210.4</ele>
        <time>2022-06-25T08:07:32Z</time>
      </trkpt>
      <trkpt lat="46.59164" lon="5.05191">
        <ele>210.6</ele>
        <time>2022-06-25T08:07:33Z</time>
      </trkpt>
      <trkpt lat="46.59163" lon="5.05183">
        <ele>210.6</ele>
        <time>2022-06-25T08:07:34Z</time>
      </trkpt>
      <trkpt lat="46.59162" lon="5.05176">
        <ele>210.6</ele>
        <time>2022-06-25T08:07:35Z</time>
      </trkpt>
      <trkpt lat="46.59161" lon="5.05168">
        <ele>210.6</ele>
        <time>2022-06-25T08:07:36Z</time>
      </trkpt>
      <trkpt lat="46.59161" lon="5.05159">
        <ele>210.6</ele>
        <time>2022-06-25T08:07:37Z</time>
      </trkpt>
      <trkpt lat="46.5916" lon="5.05151">
        <ele>210.6</ele>
        <time>2022-06-25T08:07:38Z</time>
      </trkpt>
      <trkpt lat="46.5916" lon="5.05143">
        <ele>210.6</ele>
        <time>2022-06-25T08:07:39Z</time>
      </trkpt>
      <trkpt lat="46.5916" lon="5.05134">
        <ele>210.6</ele>
        <time>2022-06-25T08:07:40Z</time>
      </trkpt>
      <trkpt lat="46.5916" lon="5.05125">
        <ele>210.6</ele>
        <time>2022-06-25T08:07:41Z</time>
      </trkpt>
      <trkpt lat="46.5916" lon="5.05116">
        <ele>210.6</ele>
        <time>2022-06-25T08:07:42Z</time>
      </trkpt>
      <trkpt lat="46.5916" lon="5.05108">
        <ele>210.6</ele>
        <time>2022-06-25T08:07:43Z</time>
      </trkpt>
      <trkpt lat="46.5916" lon="5.05099">
        <ele>210.6</ele>
        <time>2022-06-25T08:07:44Z</time>
      </trkpt>
      <trkpt lat="46.5916" lon="5.0509">
        <ele>211</ele>
        <time>2022-06-25T08:07:45Z</time>
      </trkpt>
      <trkpt lat="46.5916" lon="5.05082">
        <ele>211</ele>
        <time>2022-06-25T08:07:46Z</time>
      </trkpt>
      <trkpt lat="46.59161" lon="5.05073">
        <ele>211.2</ele>
        <time>2022-06-25T08:07:47Z</time>
      </trkpt>
      <trkpt lat="46.59161" lon="5.05065">
        <ele>211.2</ele>
        <time>2022-06-25T08:07:48Z</time>
      </trkpt>
      <trkpt lat="46.59161" lon="5.05057">
        <ele>211.2</ele>
        <time>2022-06-25T08:07:49Z</time>
      </trkpt>
      <trkpt lat="46.59161" lon="5.05048">
        <ele>211.2</ele>
        <time>2022-06-25T08:07:50Z</time>
      </trkpt>
      <trkpt lat="46.59161" lon="5.0504">
        <ele>211.2</ele>
        <time>2022-06-25T08:07:51Z</time>
      </trkpt>
      <trkpt lat="46.59161" lon="5.05032">
        <ele>211.4</ele>
        <time>2022-06-25T08:07:52Z</time>
      </trkpt>
      <trkpt lat="46.59161" lon="5.05024">
        <ele>211.4</ele>
        <time>2022-06-25T08:07:53Z</time>
      </trkpt>
      <trkpt lat="46.59162" lon="5.05016">
        <ele>211.4</ele>
        <time>2022-06-25T08:07:54Z</time>
      </trkpt>
      <trkpt lat="46.59162" lon="5.05007">
        <ele>211.6</ele>
        <time>2022-06-25T08:07:55Z</time>
      </trkpt>
      <trkpt lat="46.59163" lon="5.04998">
        <ele>211.6</ele>
        <time>2022-06-25T08:07:56Z</time>
      </trkpt>
      <trkpt lat="46.59163" lon="5.0499">
        <ele>211.6</ele>
        <time>2022-06-25T08:07:57Z</time>
      </trkpt>
      <trkpt lat="46.59163" lon="5.04982">
        <ele>211.6</ele>
        <time>2022-06-25T08:07:58Z</time>
      </trkpt>
      <trkpt lat="46.59163" lon="5.04973">
        <ele>211.6</ele>
        <time>2022-06-25T08:07:59Z</time>
      </trkpt>
      <trkpt lat="46.59163" lon="5.04965">
        <ele>212</ele>
        <time>2022-06-25T08:08:00Z</time>
      </trkpt>
      <trkpt lat="46.59163" lon="5.04957">
        <ele>212</ele>
        <time>2022-06-25T08:08:01Z</time>
      </trkpt>
      <trkpt lat="46.59164" lon="5.04949">
        <ele>212</ele>
        <time>2022-06-25T08:08:02Z</time>
      </trkpt>
      <trkpt lat="46.59164" lon="5.0494">
        <ele>212</ele>
        <time>2022-06-25T08:08:03Z</time>
      </trkpt>
      <trkpt lat="46.59165" lon="5.04932">
        <ele>212.2</ele>
        <time>2022-06-25T08:08:04Z</time>
      </trkpt>
      <trkpt lat="46.59165" lon="5.04924">
        <ele>212.2</ele>
        <time>2022-06-25T08:08:05Z</time>
      </trkpt>
      <trkpt lat="46.59165" lon="5.04916">
        <ele>212.2</ele>
        <time>2022-06-25T08:08:06Z</time>
      </trkpt>
      <trkpt lat="46.59166" lon="5.04908">
        <ele>212.6</ele>
        <time>2022-06-25T08:08:07Z</time>
      </trkpt>
      <trkpt lat="46.59166" lon="5.049">
        <ele>212.6</ele>
        <time>2022-06-25T08:08:08Z</time>
      </trkpt>
      <trkpt lat="46.59166" lon="5.04892">
        <ele>212.6</ele>
        <time>2022-06-25T08:08:09Z</time>
      </trkpt>
      <trkpt lat="46.59167" lon="5.04883">
        <ele>212.8</ele>
        <time>2022-06-25T08:08:10Z</time>
      </trkpt>
      <trkpt lat="46.59167" lon="5.04875">
        <ele>212.8</ele>
        <time>2022-06-25T08:08:11Z</time>
      </trkpt>
      <trkpt lat="46.59167" lon="5.04867">
        <ele>212.8</ele>
        <time>2022-06-25T08:08:12Z</time>
      </trkpt>
      <trkpt lat="46.59168" lon="5.04859">
        <ele>212.8</ele>
        <time>2022-06-25T08:08:13Z</time>
      </trkpt>
      <trkpt lat="46.59168" lon="5.04851">
        <ele>212.8</ele>
        <time>2022-06-25T08:08:14Z</time>
      </trkpt>
      <trkpt lat="46.59168" lon="5.04842">
        <ele>212.8</ele>
        <time>2022-06-25T08:08:15Z</time>
      </trkpt>
      <trkpt lat="46.59168" lon="5.04834">
        <ele>213</ele>
        <time>2022-06-25T08:08:16Z</time>
      </trkpt>
      <trkpt lat="46.59168" lon="5.04825">
        <ele>213</ele>
        <time>2022-06-25T08:08:17Z</time>
      </trkpt>
      <trkpt lat="46.59169" lon="5.04817">
        <ele>213</ele>
        <time>2022-06-25T08:08:18Z</time>
      </trkpt>
      <trkpt lat="46.59169" lon="5.04808">
        <ele>213.4</ele>
        <time>2022-06-25T08:08:19Z</time>
      </trkpt>
      <trkpt lat="46.59169" lon="5.048">
        <ele>213.4</ele>
        <time>2022-06-25T08:08:20Z</time>
      </trkpt>
      <trkpt lat="46.59169" lon="5.04791">
        <ele>213.6</ele>
        <time>2022-06-25T08:08:21Z</time>
      </trkpt>
      <trkpt lat="46.5917" lon="5.04783">
        <ele>213.6</ele>
        <time>2022-06-25T08:08:22Z</time>
      </trkpt>
      <trkpt lat="46.5917" lon="5.04775">
        <ele>213.6</ele>
        <time>2022-06-25T08:08:23Z</time>
      </trkpt>
      <trkpt lat="46.5917" lon="5.04767">
        <ele>213.8</ele>
        <time>2022-06-25T08:08:24Z</time>
      </trkpt>
      <trkpt lat="46.59171" lon="5.04759">
        <ele>213.8</ele>
        <time>2022-06-25T08:08:25Z</time>
      </trkpt>
      <trkpt lat="46.59171" lon="5.04751">
        <ele>213.8</ele>
        <time>2022-06-25T08:08:26Z</time>
      </trkpt>
      <trkpt lat="46.59171" lon="5.04742">
        <ele>213.8</ele>
        <time>2022-06-25T08:08:27Z</time>
      </trkpt>
      <trkpt lat="46.59171" lon="5.04734">
        <ele>213.8</ele>
        <time>2022-06-25T08:08:28Z</time>
      </trkpt>
      <trkpt lat="46.59172" lon="5.04725">
        <ele>213.8</ele>
        <time>2022-06-25T08:08:29Z</time>
      </trkpt>
      <trkpt lat="46.59172" lon="5.04716">
        <ele>214</ele>
        <time>2022-06-25T08:08:30Z</time>
      </trkpt>
      <trkpt lat="46.59172" lon="5.04708">
        <ele>214</ele>
        <time>2022-06-25T08:08:31Z</time>
      </trkpt>
      <trkpt lat="46.59173" lon="5.04699">
        <ele>214</ele>
        <time>2022-06-25T08:08:32Z</time>
      </trkpt>
      <trkpt lat="46.59173" lon="5.0469">
        <ele>214</ele>
        <time>2022-06-25T08:08:33Z</time>
      </trkpt>
      <trkpt lat="46.59173" lon="5.04681">
        <ele>214</ele>
        <time>2022-06-25T08:08:34Z</time>
      </trkpt>
      <trkpt lat="46.59173" lon="5.04672">
        <ele>214</ele>
        <time>2022-06-25T08:08:35Z</time>
      </trkpt>
      <trkpt lat="46.59173" lon="5.04663">
        <ele>214</ele>
        <time>2022-06-25T08:08:36Z</time>
      </trkpt>
      <trkpt lat="46.59174" lon="5.04653">
        <ele>214</ele>
        <time>2022-06-25T08:08:37Z</time>
      </trkpt>
      <trkpt lat="46.59174" lon="5.04644">
        <ele>214</ele>
        <time>2022-06-25T08:08:38Z</time>
      </trkpt>
      <trkpt lat="46.59175" lon="5.04634">
        <ele>213.8</ele>
        <time>2022-06-25T08:08:39Z</time>
      </trkpt>
      <trkpt lat="46.59175" lon="5.04624">
        <ele>213.8</ele>
        <time>2022-06-25T08:08:40Z</time>
      </trkpt>
      <trkpt lat="46.59175" lon="5.04613">
        <ele>213.4</ele>
        <time>2022-06-25T08:08:41Z</time>
      </trkpt>
      <trkpt lat="46.59175" lon="5.04603">
        <ele>213.4</ele>
        <time>2022-06-25T08:08:42Z</time>
      </trkpt>
      <trkpt lat="46.59176" lon="5.04593">
        <ele>213.4</ele>
        <time>2022-06-25T08:08:43Z</time>
      </trkpt>
      <trkpt lat="46.59176" lon="5.04583">
        <ele>213.4</ele>
        <time>2022-06-25T08:08:44Z</time>
      </trkpt>
      <trkpt lat="46.59177" lon="5.04574">
        <ele>213.4</ele>
        <time>2022-06-25T08:08:45Z</time>
      </trkpt>
      <trkpt lat="46.59177" lon="5.04565">
        <ele>213.4</ele>
        <time>2022-06-25T08:08:46Z</time>
      </trkpt>
      <trkpt lat="46.59178" lon="5.04557">
        <ele>213.8</ele>
        <time>2022-06-25T08:08:47Z</time>
      </trkpt>
      <trkpt lat="46.59178" lon="5.04549">
        <ele>213.8</ele>
        <time>2022-06-25T08:08:48Z</time>
      </trkpt>
      <trkpt lat="46.59178" lon="5.04542">
        <ele>214</ele>
        <time>2022-06-25T08:08:49Z</time>
      </trkpt>
      <trkpt lat="46.59178" lon="5.04534">
        <ele>214</ele>
        <time>2022-06-25T08:08:50Z</time>
      </trkpt>
      <trkpt lat="46.59179" lon="5.04526">
        <ele>214.2</ele>
        <time>2022-06-25T08:08:51Z</time>
      </trkpt>
      <trkpt lat="46.59179" lon="5.04518">
        <ele>214.2</ele>
        <time>2022-06-25T08:08:52Z</time>
      </trkpt>
      <trkpt lat="46.59179" lon="5.0451">
        <ele>214.6</ele>
        <time>2022-06-25T08:08:53Z</time>
      </trkpt>
      <trkpt lat="46.5918" lon="5.04502">
        <ele>214.6</ele>
        <time>2022-06-25T08:08:54Z</time>
      </trkpt>
      <trkpt lat="46.5918" lon="5.04494">
        <ele>214.6</ele>
        <time>2022-06-25T08:08:55Z</time>
      </trkpt>
      <trkpt lat="46.59181" lon="5.04486">
        <ele>214.6</ele>
        <time>2022-06-25T08:08:56Z</time>
      </trkpt>
      <trkpt lat="46.59181" lon="5.04478">
        <ele>214.8</ele>
        <time>2022-06-25T08:08:57Z</time>
      </trkpt>
      <trkpt lat="46.59181" lon="5.04469">
        <ele>214.8</ele>
        <time>2022-06-25T08:08:58Z</time>
      </trkpt>
      <trkpt lat="46.59181" lon="5.04461">
        <ele>214.8</ele>
        <time>2022-06-25T08:08:59Z</time>
      </trkpt>
      <trkpt lat="46.59181" lon="5.04452">
        <ele>214.8</ele>
        <time>2022-06-25T08:09:00Z</time>
      </trkpt>
      <trkpt lat="46.59182" lon="5.04442">
        <ele>214.8</ele>
        <time>2022-06-25T08:09:01Z</time>
      </trkpt>
      <trkpt lat="46.59182" lon="5.04433">
        <ele>214.4</ele>
        <time>2022-06-25T08:09:02Z</time>
      </trkpt>
      <trkpt lat="46.59182" lon="5.04423">
        <ele>214.4</ele>
        <time>2022-06-25T08:09:03Z</time>
      </trkpt>
      <trkpt lat="46.59182" lon="5.04414">
        <ele>214.4</ele>
        <time>2022-06-25T08:09:04Z</time>
      </trkpt>
      <trkpt lat="46.59183" lon="5.04403">
        <ele>214.2</ele>
        <time>2022-06-25T08:09:05Z</time>
      </trkpt>
      <trkpt lat="46.59183" lon="5.04393">
        <ele>214</ele>
        <time>2022-06-25T08:09:06Z</time>
      </trkpt>
      <trkpt lat="46.59184" lon="5.04383">
        <ele>213.6</ele>
        <time>2022-06-25T08:09:07Z</time>
      </trkpt>
      <trkpt lat="46.59184" lon="5.04372">
        <ele>213.4</ele>
        <time>2022-06-25T08:09:08Z</time>
      </trkpt>
      <trkpt lat="46.59185" lon="5.04361">
        <ele>213.4</ele>
        <time>2022-06-25T08:09:09Z</time>
      </trkpt>
      <trkpt lat="46.59186" lon="5.04349">
        <ele>213</ele>
        <time>2022-06-25T08:09:10Z</time>
      </trkpt>
      <trkpt lat="46.59186" lon="5.04337">
        <ele>212.8</ele>
        <time>2022-06-25T08:09:11Z</time>
      </trkpt>
      <trkpt lat="46.59186" lon="5.04325">
        <ele>212.4</ele>
        <time>2022-06-25T08:09:12Z</time>
      </trkpt>
      <trkpt lat="46.59186" lon="5.04312">
        <ele>212.2</ele>
        <time>2022-06-25T08:09:13Z</time>
      </trkpt>
      <trkpt lat="46.59187" lon="5.043">
        <ele>212.2</ele>
        <time>2022-06-25T08:09:14Z</time>
      </trkpt>
      <trkpt lat="46.59187" lon="5.04287">
        <ele>211.6</ele>
        <time>2022-06-25T08:09:15Z</time>
      </trkpt>
      <trkpt lat="46.59187" lon="5.04275">
        <ele>211.4</ele>
        <time>2022-06-25T08:09:16Z</time>
      </trkpt>
      <trkpt lat="46.59188" lon="5.04262">
        <ele>211.4</ele>
        <time>2022-06-25T08:09:17Z</time>
      </trkpt>
      <trkpt lat="46.59189" lon="5.0425">
        <ele>211</ele>
        <time>2022-06-25T08:09:18Z</time>
      </trkpt>
      <trkpt lat="46.59189" lon="5.04238">
        <ele>211</ele>
        <time>2022-06-25T08:09:19Z</time>
      </trkpt>
      <trkpt lat="46.59189" lon="5.04226">
        <ele>210.6</ele>
        <time>2022-06-25T08:09:20Z</time>
      </trkpt>
      <trkpt lat="46.5919" lon="5.04214">
        <ele>210.6</ele>
        <time>2022-06-25T08:09:21Z</time>
      </trkpt>
      <trkpt lat="46.5919" lon="5.04202">
        <ele>210.4</ele>
        <time>2022-06-25T08:09:22Z</time>
      </trkpt>
      <trkpt lat="46.5919" lon="5.0419">
        <ele>210.4</ele>
        <time>2022-06-25T08:09:23Z</time>
      </trkpt>
      <trkpt lat="46.59191" lon="5.04178">
        <ele>210</ele>
        <time>2022-06-25T08:09:24Z</time>
      </trkpt>
      <trkpt lat="46.59191" lon="5.04167">
        <ele>210</ele>
        <time>2022-06-25T08:09:25Z</time>
      </trkpt>
      <trkpt lat="46.59192" lon="5.04156">
        <ele>210</ele>
        <time>2022-06-25T08:09:26Z</time>
      </trkpt>
      <trkpt lat="46.59192" lon="5.04146">
        <ele>210</ele>
        <time>2022-06-25T08:09:27Z</time>
      </trkpt>
      <trkpt lat="46.59193" lon="5.04135">
        <ele>210</ele>
        <time>2022-06-25T08:09:28Z</time>
      </trkpt>
      <trkpt lat="46.59193" lon="5.04125">
        <ele>210</ele>
        <time>2022-06-25T08:09:29Z</time>
      </trkpt>
      <trkpt lat="46.59194" lon="5.04116">
        <ele>210</ele>
        <time>2022-06-25T08:09:30Z</time>
      </trkpt>
      <trkpt lat="46.59194" lon="5.04106">
        <ele>210</ele>
        <time>2022-06-25T08:09:31Z</time>
      </trkpt>
      <trkpt lat="46.59194" lon="5.04097">
        <ele>210.2</ele>
        <time>2022-06-25T08:09:32Z</time>
      </trkpt>
      <trkpt lat="46.59194" lon="5.04088">
        <ele>210.2</ele>
        <time>2022-06-25T08:09:33Z</time>
      </trkpt>
      <trkpt lat="46.59192" lon="5.04079">
        <ele>210.2</ele>
        <time>2022-06-25T08:09:34Z</time>
      </trkpt>
      <trkpt lat="46.59191" lon="5.0407">
        <ele>210.2</ele>
        <time>2022-06-25T08:09:35Z</time>
      </trkpt>
      <trkpt lat="46.5919" lon="5.04062">
        <ele>210.2</ele>
        <time>2022-06-25T08:09:36Z</time>
      </trkpt>
      <trkpt lat="46.59188" lon="5.04053">
        <ele>210.6</ele>
        <time>2022-06-25T08:09:37Z</time>
      </trkpt>
      <trkpt lat="46.59187" lon="5.04045">
        <ele>210.6</ele>
        <time>2022-06-25T08:09:38Z</time>
      </trkpt>
      <trkpt lat="46.59185" lon="5.04036">
        <ele>210.6</ele>
        <time>2022-06-25T08:09:39Z</time>
      </trkpt>
      <trkpt lat="46.59183" lon="5.04028">
        <ele>210.8</ele>
        <time>2022-06-25T08:09:40Z</time>
      </trkpt>
      <trkpt lat="46.59181" lon="5.0402">
        <ele>210.8</ele>
        <time>2022-06-25T08:09:41Z</time>
      </trkpt>
      <trkpt lat="46.5918" lon="5.04011">
        <ele>211</ele>
        <time>2022-06-25T08:09:42Z</time>
      </trkpt>
      <trkpt lat="46.59179" lon="5.04003">
        <ele>211</ele>
        <time>2022-06-25T08:09:43Z</time>
      </trkpt>
      <trkpt lat="46.59177" lon="5.03996">
        <ele>211.2</ele>
        <time>2022-06-25T08:09:44Z</time>
      </trkpt>
      <trkpt lat="46.59175" lon="5.03988">
        <ele>211.2</ele>
        <time>2022-06-25T08:09:45Z</time>
      </trkpt>
      <trkpt lat="46.59174" lon="5.03981">
        <ele>211.6</ele>
        <time>2022-06-25T08:09:46Z</time>
      </trkpt>
      <trkpt lat="46.59172" lon="5.03973">
        <ele>211.6</ele>
        <time>2022-06-25T08:09:47Z</time>
      </trkpt>
      <trkpt lat="46.59171" lon="5.03966">
        <ele>212</ele>
        <time>2022-06-25T08:09:48Z</time>
      </trkpt>
      <trkpt lat="46.59169" lon="5.03959">
        <ele>212</ele>
        <time>2022-06-25T08:09:49Z</time>
      </trkpt>
      <trkpt lat="46.59168" lon="5.03951">
        <ele>212.2</ele>
        <time>2022-06-25T08:09:50Z</time>
      </trkpt>
      <trkpt lat="46.59167" lon="5.03944">
        <ele>212.2</ele>
        <time>2022-06-25T08:09:51Z</time>
      </trkpt>
      <trkpt lat="46.59166" lon="5.03937">
        <ele>212.4</ele>
        <time>2022-06-25T08:09:52Z</time>
      </trkpt>
      <trkpt lat="46.59164" lon="5.0393">
        <ele>212.4</ele>
        <time>2022-06-25T08:09:53Z</time>
      </trkpt>
      <trkpt lat="46.59163" lon="5.03923">
        <ele>212.4</ele>
        <time>2022-06-25T08:09:54Z</time>
      </trkpt>
      <trkpt lat="46.59162" lon="5.03915">
        <ele>212.8</ele>
        <time>2022-06-25T08:09:55Z</time>
      </trkpt>
      <trkpt lat="46.5916" lon="5.03908">
        <ele>212.8</ele>
        <time>2022-06-25T08:09:56Z</time>
      </trkpt>
      <trkpt lat="46.59159" lon="5.03901">
        <ele>213</ele>
        <time>2022-06-25T08:09:57Z</time>
      </trkpt>
      <trkpt lat="46.59158" lon="5.03894">
        <ele>213</ele>
        <time>2022-06-25T08:09:58Z</time>
      </trkpt>
      <trkpt lat="46.59156" lon="5.03886">
        <ele>213</ele>
        <time>2022-06-25T08:09:59Z</time>
      </trkpt>
      <trkpt lat="46.59155" lon="5.03879">
        <ele>213.2</ele>
        <time>2022-06-25T08:10:00Z</time>
      </trkpt>
      <trkpt lat="46.59153" lon="5.03871">
        <ele>213.2</ele>
        <time>2022-06-25T08:10:01Z</time>
      </trkpt>
      <trkpt lat="46.59152" lon="5.03864">
        <ele>213.2</ele>
        <time>2022-06-25T08:10:02Z</time>
      </trkpt>
      <trkpt lat="46.59151" lon="5.03856">
        <ele>213.4</ele>
        <time>2022-06-25T08:10:03Z</time>
      </trkpt>
      <trkpt lat="46.59149" lon="5.03848">
        <ele>213.4</ele>
        <time>2022-06-25T08:10:04Z</time>
      </trkpt>
      <trkpt lat="46.59148" lon="5.0384">
        <ele>213.4</ele>
        <time>2022-06-25T08:10:05Z</time>
      </trkpt>
      <trkpt lat="46.59147" lon="5.03832">
        <ele>213.6</ele>
        <time>2022-06-25T08:10:06Z</time>
      </trkpt>
      <trkpt lat="46.59146" lon="5.03825">
        <ele>213.6</ele>
        <time>2022-06-25T08:10:07Z</time>
      </trkpt>
      <trkpt lat="46.59144" lon="5.03817">
        <ele>213.6</ele>
        <time>2022-06-25T08:10:08Z</time>
      </trkpt>
      <trkpt lat="46.59142" lon="5.03809">
        <ele>214</ele>
        <time>2022-06-25T08:10:09Z</time>
      </trkpt>
      <trkpt lat="46.59141" lon="5.03802">
        <ele>214</ele>
        <time>2022-06-25T08:10:10Z</time>
      </trkpt>
      <trkpt lat="46.59139" lon="5.03794">
        <ele>214</ele>
        <time>2022-06-25T08:10:11Z</time>
      </trkpt>
      <trkpt lat="46.59138" lon="5.03787">
        <ele>214.2</ele>
        <time>2022-06-25T08:10:12Z</time>
      </trkpt>
      <trkpt lat="46.59136" lon="5.0378">
        <ele>214.2</ele>
        <time>2022-06-25T08:10:13Z</time>
      </trkpt>
      <trkpt lat="46.59135" lon="5.03773">
        <ele>214.2</ele>
        <time>2022-06-25T08:10:14Z</time>
      </trkpt>
      <trkpt lat="46.59133" lon="5.03766">
        <ele>214.4</ele>
        <time>2022-06-25T08:10:15Z</time>
      </trkpt>
      <trkpt lat="46.59132" lon="5.03758">
        <ele>214.4</ele>
        <time>2022-06-25T08:10:16Z</time>
      </trkpt>
      <trkpt lat="46.59131" lon="5.03751">
        <ele>214.4</ele>
        <time>2022-06-25T08:10:17Z</time>
      </trkpt>
      <trkpt lat="46.59129" lon="5.03744">
        <ele>214.8</ele>
        <time>2022-06-25T08:10:18Z</time>
      </trkpt>
      <trkpt lat="46.59128" lon="5.03737">
        <ele>214.8</ele>
        <time>2022-06-25T08:10:19Z</time>
      </trkpt>
      <trkpt lat="46.59126" lon="5.0373">
        <ele>215</ele>
        <time>2022-06-25T08:10:20Z</time>
      </trkpt>
      <trkpt lat="46.59125" lon="5.03723">
        <ele>215</ele>
        <time>2022-06-25T08:10:21Z</time>
      </trkpt>
      <trkpt lat="46.59124" lon="5.03716">
        <ele>215</ele>
        <time>2022-06-25T08:10:22Z</time>
      </trkpt>
      <trkpt lat="46.59122" lon="5.03708">
        <ele>215.4</ele>
        <time>2022-06-25T08:10:23Z</time>
      </trkpt>
      <trkpt lat="46.59121" lon="5.03701">
        <ele>215.4</ele>
        <time>2022-06-25T08:10:24Z</time>
      </trkpt>
      <trkpt lat="46.59119" lon="5.03693">
        <ele>215.6</ele>
        <time>2022-06-25T08:10:25Z</time>
      </trkpt>
      <trkpt lat="46.59118" lon="5.03686">
        <ele>215.6</ele>
        <time>2022-06-25T08:10:26Z</time>
      </trkpt>
      <trkpt lat="46.59116" lon="5.03679">
        <ele>215.8</ele>
        <time>2022-06-25T08:10:27Z</time>
      </trkpt>
      <trkpt lat="46.59115" lon="5.03671">
        <ele>215.8</ele>
        <time>2022-06-25T08:10:28Z</time>
      </trkpt>
      <trkpt lat="46.59114" lon="5.03664">
        <ele>215.8</ele>
        <time>2022-06-25T08:10:29Z</time>
      </trkpt>
      <trkpt lat="46.59113" lon="5.03657">
        <ele>216.2</ele>
        <time>2022-06-25T08:10:30Z</time>
      </trkpt>
      <trkpt lat="46.59111" lon="5.0365">
        <ele>216.2</ele>
        <time>2022-06-25T08:10:31Z</time>
      </trkpt>
      <trkpt lat="46.5911" lon="5.03642">
        <ele>216.6</ele>
        <time>2022-06-25T08:10:32Z</time>
      </trkpt>
      <trkpt lat="46.59108" lon="5.03635">
        <ele>216.6</ele>
        <time>2022-06-25T08:10:33Z</time>
      </trkpt>
      <trkpt lat="46.59107" lon="5.03628">
        <ele>216.8</ele>
        <time>2022-06-25T08:10:34Z</time>
      </trkpt>
      <trkpt lat="46.59105" lon="5.03621">
        <ele>216.8</ele>
        <time>2022-06-25T08:10:35Z</time>
      </trkpt>
      <trkpt lat="46.59104" lon="5.03613">
        <ele>216.8</ele>
        <time>2022-06-25T08:10:36Z</time>
      </trkpt>
      <trkpt lat="46.59103" lon="5.03605">
        <ele>216.8</ele>
        <time>2022-06-25T08:10:37Z</time>
      </trkpt>
      <trkpt lat="46.59101" lon="5.03598">
        <ele>216.8</ele>
        <time>2022-06-25T08:10:38Z</time>
      </trkpt>
      <trkpt lat="46.591" lon="5.0359">
        <ele>217</ele>
        <time>2022-06-25T08:10:39Z</time>
      </trkpt>
      <trkpt lat="46.59099" lon="5.03582">
        <ele>217</ele>
        <time>2022-06-25T08:10:40Z</time>
      </trkpt>
      <trkpt lat="46.59097" lon="5.03575">
        <ele>217</ele>
        <time>2022-06-25T08:10:41Z</time>
      </trkpt>
      <trkpt lat="46.59096" lon="5.03567">
        <ele>217</ele>
        <time>2022-06-25T08:10:42Z</time>
      </trkpt>
      <trkpt lat="46.59094" lon="5.03559">
        <ele>217</ele>
        <time>2022-06-25T08:10:43Z</time>
      </trkpt>
      <trkpt lat="46.59093" lon="5.03551">
        <ele>217</ele>
        <time>2022-06-25T08:10:44Z</time>
      </trkpt>
      <trkpt lat="46.59091" lon="5.03544">
        <ele>217.2</ele>
        <time>2022-06-25T08:10:45Z</time>
      </trkpt>
      <trkpt lat="46.5909" lon="5.03536">
        <ele>217.2</ele>
        <time>2022-06-25T08:10:46Z</time>
      </trkpt>
      <trkpt lat="46.59088" lon="5.03528">
        <ele>217.2</ele>
        <time>2022-06-25T08:10:47Z</time>
      </trkpt>
      <trkpt lat="46.59086" lon="5.0352">
        <ele>217.2</ele>
        <time>2022-06-25T08:10:48Z</time>
      </trkpt>
      <trkpt lat="46.59085" lon="5.03512">
        <ele>217.4</ele>
        <time>2022-06-25T08:10:49Z</time>
      </trkpt>
      <trkpt lat="46.59083" lon="5.03504">
        <ele>217.4</ele>
        <time>2022-06-25T08:10:50Z</time>
      </trkpt>
      <trkpt lat="46.59082" lon="5.03496">
        <ele>217.4</ele>
        <time>2022-06-25T08:10:51Z</time>
      </trkpt>
      <trkpt lat="46.59081" lon="5.03488">
        <ele>217.4</ele>
        <time>2022-06-25T08:10:52Z</time>
      </trkpt>
      <trkpt lat="46.59079" lon="5.0348">
        <ele>217.4</ele>
        <time>2022-06-25T08:10:53Z</time>
      </trkpt>
      <trkpt lat="46.59078" lon="5.03472">
        <ele>217.4</ele>
        <time>2022-06-25T08:10:54Z</time>
      </trkpt>
      <trkpt lat="46.59076" lon="5.03464">
        <ele>217.6</ele>
        <time>2022-06-25T08:10:55Z</time>
      </trkpt>
      <trkpt lat="46.59074" lon="5.03456">
        <ele>217.6</ele>
        <time>2022-06-25T08:10:56Z</time>
      </trkpt>
      <trkpt lat="46.59073" lon="5.03448">
        <ele>217.6</ele>
        <time>2022-06-25T08:10:57Z</time>
      </trkpt>
      <trkpt lat="46.59071" lon="5.03439">
        <ele>217.6</ele>
        <time>2022-06-25T08:10:58Z</time>
      </trkpt>
      <trkpt lat="46.5907" lon="5.03431">
        <ele>217.8</ele>
        <time>2022-06-25T08:10:59Z</time>
      </trkpt>
      <trkpt lat="46.59068" lon="5.03423">
        <ele>217.8</ele>
        <time>2022-06-25T08:11:00Z</time>
      </trkpt>
      <trkpt lat="46.59066" lon="5.03415">
        <ele>218</ele>
        <time>2022-06-25T08:11:01Z</time>
      </trkpt>
      <trkpt lat="46.59065" lon="5.03407">
        <ele>218</ele>
        <time>2022-06-25T08:11:02Z</time>
      </trkpt>
      <trkpt lat="46.59063" lon="5.03399">
        <ele>218.4</ele>
        <time>2022-06-25T08:11:03Z</time>
      </trkpt>
      <trkpt lat="46.59061" lon="5.03391">
        <ele>218.4</ele>
        <time>2022-06-25T08:11:04Z</time>
      </trkpt>
      <trkpt lat="46.5906" lon="5.03383">
        <ele>218.4</ele>
        <time>2022-06-25T08:11:05Z</time>
      </trkpt>
      <trkpt lat="46.59057" lon="5.03376">
        <ele>218.4</ele>
        <time>2022-06-25T08:11:06Z</time>
      </trkpt>
      <trkpt lat="46.59055" lon="5.03368">
        <ele>218.6</ele>
        <time>2022-06-25T08:11:07Z</time>
      </trkpt>
      <trkpt lat="46.59053" lon="5.0336">
        <ele>218.6</ele>
        <time>2022-06-25T08:11:08Z</time>
      </trkpt>
      <trkpt lat="46.5905" lon="5.03353">
        <ele>218.6</ele>
        <time>2022-06-25T08:11:09Z</time>
      </trkpt>
      <trkpt lat="46.59047" lon="5.03346">
        <ele>218.6</ele>
        <time>2022-06-25T08:11:10Z</time>
      </trkpt>
      <trkpt lat="46.59044" lon="5.03339">
        <ele>218.8</ele>
        <time>2022-06-25T08:11:11Z</time>
      </trkpt>
      <trkpt lat="46.59041" lon="5.03332">
        <ele>218.8</ele>
        <time>2022-06-25T08:11:12Z</time>
      </trkpt>
      <trkpt lat="46.59038" lon="5.03324">
        <ele>218.8</ele>
        <time>2022-06-25T08:11:13Z</time>
      </trkpt>
      <trkpt lat="46.59035" lon="5.03317">
        <ele>218.8</ele>
        <time>2022-06-25T08:11:14Z</time>
      </trkpt>
      <trkpt lat="46.59032" lon="5.0331">
        <ele>219.2</ele>
        <time>2022-06-25T08:11:15Z</time>
      </trkpt>
      <trkpt lat="46.5903" lon="5.03302">
        <ele>219.2</ele>
        <time>2022-06-25T08:11:16Z</time>
      </trkpt>
      <trkpt lat="46.59027" lon="5.03295">
        <ele>219.4</ele>
        <time>2022-06-25T08:11:17Z</time>
      </trkpt>
      <trkpt lat="46.59024" lon="5.03288">
        <ele>219.4</ele>
        <time>2022-06-25T08:11:18Z</time>
      </trkpt>
      <trkpt lat="46.59021" lon="5.03281">
        <ele>219.6</ele>
        <time>2022-06-25T08:11:19Z</time>
      </trkpt>
      <trkpt lat="46.59019" lon="5.03273">
        <ele>219.6</ele>
        <time>2022-06-25T08:11:20Z</time>
      </trkpt>
      <trkpt lat="46.59016" lon="5.03266">
        <ele>219.6</ele>
        <time>2022-06-25T08:11:21Z</time>
      </trkpt>
      <trkpt lat="46.59014" lon="5.03259">
        <ele>219.8</ele>
        <time>2022-06-25T08:11:22Z</time>
      </trkpt>
      <trkpt lat="46.59011" lon="5.03252">
        <ele>219.8</ele>
        <time>2022-06-25T08:11:23Z</time>
      </trkpt>
      <trkpt lat="46.59009" lon="5.03244">
        <ele>220</ele>
        <time>2022-06-25T08:11:24Z</time>
      </trkpt>
      <trkpt lat="46.59006" lon="5.03237">
        <ele>220</ele>
        <time>2022-06-25T08:11:25Z</time>
      </trkpt>
      <trkpt lat="46.59004" lon="5.0323">
        <ele>220.4</ele>
        <time>2022-06-25T08:11:26Z</time>
      </trkpt>
      <trkpt lat="46.59002" lon="5.03224">
        <ele>220.4</ele>
        <time>2022-06-25T08:11:27Z</time>
      </trkpt>
      <trkpt lat="46.59" lon="5.03216">
        <ele>220.4</ele>
        <time>2022-06-25T08:11:28Z</time>
      </trkpt>
      <trkpt lat="46.58998" lon="5.03209">
        <ele>220.6</ele>
        <time>2022-06-25T08:11:29Z</time>
      </trkpt>
      <trkpt lat="46.58996" lon="5.03202">
        <ele>220.6</ele>
        <time>2022-06-25T08:11:30Z</time>
      </trkpt>
      <trkpt lat="46.58994" lon="5.03195">
        <ele>220.6</ele>
        <time>2022-06-25T08:11:31Z</time>
      </trkpt>
      <trkpt lat="46.58992" lon="5.03188">
        <ele>220.6</ele>
        <time>2022-06-25T08:11:32Z</time>
      </trkpt>
      <trkpt lat="46.58991" lon="5.0318">
        <ele>220.6</ele>
        <time>2022-06-25T08:11:33Z</time>
      </trkpt>
      <trkpt lat="46.58989" lon="5.03173">
        <ele>221</ele>
        <time>2022-06-25T08:11:34Z</time>
      </trkpt>
      <trkpt lat="46.58987" lon="5.03165">
        <ele>221</ele>
        <time>2022-06-25T08:11:35Z</time>
      </trkpt>
      <trkpt lat="46.58985" lon="5.03158">
        <ele>221</ele>
        <time>2022-06-25T08:11:36Z</time>
      </trkpt>
      <trkpt lat="46.58983" lon="5.0315">
        <ele>221</ele>
        <time>2022-06-25T08:11:37Z</time>
      </trkpt>
      <trkpt lat="46.58982" lon="5.03142">
        <ele>221</ele>
        <time>2022-06-25T08:11:38Z</time>
      </trkpt>
      <trkpt lat="46.5898" lon="5.03135">
        <ele>221</ele>
        <time>2022-06-25T08:11:39Z</time>
      </trkpt>
      <trkpt lat="46.58978" lon="5.03127">
        <ele>221</ele>
        <time>2022-06-25T08:11:40Z</time>
      </trkpt>
      <trkpt lat="46.58977" lon="5.03119">
        <ele>221</ele>
        <time>2022-06-25T08:11:41Z</time>
      </trkpt>
      <trkpt lat="46.58975" lon="5.03111">
        <ele>221</ele>
        <time>2022-06-25T08:11:42Z</time>
      </trkpt>
      <trkpt lat="46.58973" lon="5.03103">
        <ele>221</ele>
        <time>2022-06-25T08:11:43Z</time>
      </trkpt>
      <trkpt lat="46.58972" lon="5.03095">
        <ele>221</ele>
        <time>2022-06-25T08:11:44Z</time>
      </trkpt>
      <trkpt lat="46.5897" lon="5.03088">
        <ele>221</ele>
        <time>2022-06-25T08:11:45Z</time>
      </trkpt>
      <trkpt lat="46.58969" lon="5.0308">
        <ele>221</ele>
        <time>2022-06-25T08:11:46Z</time>
      </trkpt>
      <trkpt lat="46.58967" lon="5.03072">
        <ele>221</ele>
        <time>2022-06-25T08:11:47Z</time>
      </trkpt>
      <trkpt lat="46.58965" lon="5.03064">
        <ele>221</ele>
        <time>2022-06-25T08:11:48Z</time>
      </trkpt>
      <trkpt lat="46.58964" lon="5.03056">
        <ele>221</ele>
        <time>2022-06-25T08:11:49Z</time>
      </trkpt>
      <trkpt lat="46.58962" lon="5.03048">
        <ele>221</ele>
        <time>2022-06-25T08:11:50Z</time>
      </trkpt>
      <trkpt lat="46.58959" lon="5.0304">
        <ele>221</ele>
        <time>2022-06-25T08:11:51Z</time>
      </trkpt>
      <trkpt lat="46.58957" lon="5.03032">
        <ele>221</ele>
        <time>2022-06-25T08:11:52Z</time>
      </trkpt>
      <trkpt lat="46.58953" lon="5.03025">
        <ele>221</ele>
        <time>2022-06-25T08:11:53Z</time>
      </trkpt>
      <trkpt lat="46.58949" lon="5.03018">
        <ele>221</ele>
        <time>2022-06-25T08:11:54Z</time>
      </trkpt>
      <trkpt lat="46.58944" lon="5.03012">
        <ele>220.6</ele>
        <time>2022-06-25T08:11:55Z</time>
      </trkpt>
      <trkpt lat="46.58939" lon="5.03006">
        <ele>220.6</ele>
        <time>2022-06-25T08:11:56Z</time>
      </trkpt>
      <trkpt lat="46.58934" lon="5.03001">
        <ele>220.6</ele>
        <time>2022-06-25T08:11:57Z</time>
      </trkpt>
      <trkpt lat="46.58928" lon="5.02997">
        <ele>220.6</ele>
        <time>2022-06-25T08:11:58Z</time>
      </trkpt>
      <trkpt lat="46.58922" lon="5.02994">
        <ele>220.6</ele>
        <time>2022-06-25T08:11:59Z</time>
      </trkpt>
      <trkpt lat="46.58916" lon="5.02992">
        <ele>220.4</ele>
        <time>2022-06-25T08:12:00Z</time>
      </trkpt>
      <trkpt lat="46.58909" lon="5.02991">
        <ele>220.4</ele>
        <time>2022-06-25T08:12:01Z</time>
      </trkpt>
      <trkpt lat="46.58902" lon="5.02991">
        <ele>220.4</ele>
        <time>2022-06-25T08:12:02Z</time>
      </trkpt>
      <trkpt lat="46.58896" lon="5.02993">
        <ele>220.4</ele>
        <time>2022-06-25T08:12:03Z</time>
      </trkpt>
      <trkpt lat="46.58889" lon="5.02995">
        <ele>220.2</ele>
        <time>2022-06-25T08:12:04Z</time>
      </trkpt>
      <trkpt lat="46.58883" lon="5.02998">
        <ele>220.2</ele>
        <time>2022-06-25T08:12:05Z</time>
      </trkpt>
      <trkpt lat="46.58877" lon="5.03001">
        <ele>220.2</ele>
        <time>2022-06-25T08:12:06Z</time>
      </trkpt>
      <trkpt lat="46.58871" lon="5.03005">
        <ele>220.2</ele>
        <time>2022-06-25T08:12:07Z</time>
      </trkpt>
      <trkpt lat="46.58865" lon="5.03009">
        <ele>220.2</ele>
        <time>2022-06-25T08:12:08Z</time>
      </trkpt>
      <trkpt lat="46.58858" lon="5.03012">
        <ele>220.2</ele>
        <time>2022-06-25T08:12:09Z</time>
      </trkpt>
      <trkpt lat="46.58852" lon="5.03016">
        <ele>220.2</ele>
        <time>2022-06-25T08:12:10Z</time>
      </trkpt>
      <trkpt lat="46.58846" lon="5.0302">
        <ele>220.2</ele>
        <time>2022-06-25T08:12:11Z</time>
      </trkpt>
      <trkpt lat="46.5884" lon="5.03023">
        <ele>220.2</ele>
        <time>2022-06-25T08:12:12Z</time>
      </trkpt>
      <trkpt lat="46.58834" lon="5.03027">
        <ele>220.2</ele>
        <time>2022-06-25T08:12:13Z</time>
      </trkpt>
      <trkpt lat="46.58829" lon="5.03031">
        <ele>220.2</ele>
        <time>2022-06-25T08:12:14Z</time>
      </trkpt>
      <trkpt lat="46.58823" lon="5.03035">
        <ele>220.2</ele>
        <time>2022-06-25T08:12:15Z</time>
      </trkpt>
      <trkpt lat="46.58817" lon="5.03038">
        <ele>220.2</ele>
        <time>2022-06-25T08:12:16Z</time>
      </trkpt>
      <trkpt lat="46.58811" lon="5.03042">
        <ele>220.2</ele>
        <time>2022-06-25T08:12:17Z</time>
      </trkpt>
      <trkpt lat="46.58806" lon="5.03045">
        <ele>220.2</ele>
        <time>2022-06-25T08:12:18Z</time>
      </trkpt>
      <trkpt lat="46.588" lon="5.03049">
        <ele>220.2</ele>
        <time>2022-06-25T08:12:19Z</time>
      </trkpt>
      <trkpt lat="46.58794" lon="5.03052">
        <ele>220.2</ele>
        <time>2022-06-25T08:12:20Z</time>
      </trkpt>
      <trkpt lat="46.58789" lon="5.03056">
        <ele>220.2</ele>
        <time>2022-06-25T08:12:21Z</time>
      </trkpt>
      <trkpt lat="46.58783" lon="5.03059">
        <ele>220.2</ele>
        <time>2022-06-25T08:12:22Z</time>
      </trkpt>
      <trkpt lat="46.58778" lon="5.03063">
        <ele>220.2</ele>
        <time>2022-06-25T08:12:23Z</time>
      </trkpt>
      <trkpt lat="46.58772" lon="5.03067">
        <ele>220.2</ele>
        <time>2022-06-25T08:12:24Z</time>
      </trkpt>
      <trkpt lat="46.58767" lon="5.03071">
        <ele>220.2</ele>
        <time>2022-06-25T08:12:25Z</time>
      </trkpt>
      <trkpt lat="46.58761" lon="5.03074">
        <ele>220.2</ele>
        <time>2022-06-25T08:12:26Z</time>
      </trkpt>
      <trkpt lat="46.58756" lon="5.03077">
        <ele>220.2</ele>
        <time>2022-06-25T08:12:27Z</time>
      </trkpt>
      <trkpt lat="46.5875" lon="5.03081">
        <ele>220.2</ele>
        <time>2022-06-25T08:12:28Z</time>
      </trkpt>
      <trkpt lat="46.58744" lon="5.03084">
        <ele>220.2</ele>
        <time>2022-06-25T08:12:29Z</time>
      </trkpt>
      <trkpt lat="46.58739" lon="5.03087">
        <ele>220.2</ele>
        <time>2022-06-25T08:12:30Z</time>
      </trkpt>
      <trkpt lat="46.58733" lon="5.0309">
        <ele>220.2</ele>
        <time>2022-06-25T08:12:31Z</time>
      </trkpt>
      <trkpt lat="46.58728" lon="5.03093">
        <ele>220.2</ele>
        <time>2022-06-25T08:12:32Z</time>
      </trkpt>
      <trkpt lat="46.58722" lon="5.03096">
        <ele>220.2</ele>
        <time>2022-06-25T08:12:33Z</time>
      </trkpt>
      <trkpt lat="46.58716" lon="5.03099">
        <ele>220.2</ele>
        <time>2022-06-25T08:12:34Z</time>
      </trkpt>
      <trkpt lat="46.5871" lon="5.03102">
        <ele>220.2</ele>
        <time>2022-06-25T08:12:35Z</time>
      </trkpt>
      <trkpt lat="46.58704" lon="5.03104">
        <ele>220.2</ele>
        <time>2022-06-25T08:12:36Z</time>
      </trkpt>
      <trkpt lat="46.58698" lon="5.03106">
        <ele>220.2</ele>
        <time>2022-06-25T08:12:37Z</time>
      </trkpt>
      <trkpt lat="46.58692" lon="5.03107">
        <ele>220.2</ele>
        <time>2022-06-25T08:12:38Z</time>
      </trkpt>
      <trkpt lat="46.58685" lon="5.03108">
        <ele>220.2</ele>
        <time>2022-06-25T08:12:39Z</time>
      </trkpt>
      <trkpt lat="46.58679" lon="5.03109">
        <ele>220.2</ele>
        <time>2022-06-25T08:12:41Z</time>
      </trkpt>
      <trkpt lat="46.58673" lon="5.03109">
        <ele>220.2</ele>
        <time>2022-06-25T08:12:42Z</time>
      </trkpt>
      <trkpt lat="46.58667" lon="5.03109">
        <ele>220.2</ele>
        <time>2022-06-25T08:12:43Z</time>
      </trkpt>
      <trkpt lat="46.58661" lon="5.03108">
        <ele>220.2</ele>
        <time>2022-06-25T08:12:44Z</time>
      </trkpt>
      <trkpt lat="46.58655" lon="5.03107">
        <ele>220.2</ele>
        <time>2022-06-25T08:12:45Z</time>
      </trkpt>
      <trkpt lat="46.58649" lon="5.03104">
        <ele>220.2</ele>
        <time>2022-06-25T08:12:46Z</time>
      </trkpt>
      <trkpt lat="46.58643" lon="5.03102">
        <ele>220.2</ele>
        <time>2022-06-25T08:12:47Z</time>
      </trkpt>
      <trkpt lat="46.58637" lon="5.03099">
        <ele>220.2</ele>
        <time>2022-06-25T08:12:48Z</time>
      </trkpt>
      <trkpt lat="46.58631" lon="5.03096">
        <ele>220.2</ele>
        <time>2022-06-25T08:12:49Z</time>
      </trkpt>
      <trkpt lat="46.58625" lon="5.03093">
        <ele>220.2</ele>
        <time>2022-06-25T08:12:50Z</time>
      </trkpt>
      <trkpt lat="46.5862" lon="5.0309">
        <ele>220.4</ele>
        <time>2022-06-25T08:12:51Z</time>
      </trkpt>
      <trkpt lat="46.58614" lon="5.03087">
        <ele>220.4</ele>
        <time>2022-06-25T08:12:52Z</time>
      </trkpt>
      <trkpt lat="46.58609" lon="5.03083">
        <ele>220.4</ele>
        <time>2022-06-25T08:12:53Z</time>
      </trkpt>
      <trkpt lat="46.58604" lon="5.0308">
        <ele>220.4</ele>
        <time>2022-06-25T08:12:54Z</time>
      </trkpt>
      <trkpt lat="46.58598" lon="5.03076">
        <ele>220.4</ele>
        <time>2022-06-25T08:12:55Z</time>
      </trkpt>
      <trkpt lat="46.58593" lon="5.03073">
        <ele>220.4</ele>
        <time>2022-06-25T08:12:56Z</time>
      </trkpt>
      <trkpt lat="46.58587" lon="5.0307">
        <ele>220.4</ele>
        <time>2022-06-25T08:12:57Z</time>
      </trkpt>
      <trkpt lat="46.58582" lon="5.03067">
        <ele>220.8</ele>
        <time>2022-06-25T08:12:58Z</time>
      </trkpt>
      <trkpt lat="46.58577" lon="5.03063">
        <ele>220.8</ele>
        <time>2022-06-25T08:12:59Z</time>
      </trkpt>
      <trkpt lat="46.58571" lon="5.0306">
        <ele>220.8</ele>
        <time>2022-06-25T08:13:00Z</time>
      </trkpt>
      <trkpt lat="46.58566" lon="5.03056">
        <ele>220.8</ele>
        <time>2022-06-25T08:13:01Z</time>
      </trkpt>
      <trkpt lat="46.5856" lon="5.03053">
        <ele>220.8</ele>
        <time>2022-06-25T08:13:02Z</time>
      </trkpt>
      <trkpt lat="46.58555" lon="5.0305">
        <ele>220.8</ele>
        <time>2022-06-25T08:13:03Z</time>
      </trkpt>
      <trkpt lat="46.58549" lon="5.03046">
        <ele>220.8</ele>
        <time>2022-06-25T08:13:04Z</time>
      </trkpt>
      <trkpt lat="46.58543" lon="5.03043">
        <ele>220.8</ele>
        <time>2022-06-25T08:13:05Z</time>
      </trkpt>
      <trkpt lat="46.58537" lon="5.03039">
        <ele>220.8</ele>
        <time>2022-06-25T08:13:06Z</time>
      </trkpt>
      <trkpt lat="46.58532" lon="5.03036">
        <ele>220.8</ele>
        <time>2022-06-25T08:13:07Z</time>
      </trkpt>
      <trkpt lat="46.58526" lon="5.03032">
        <ele>220.8</ele>
        <time>2022-06-25T08:13:08Z</time>
      </trkpt>
      <trkpt lat="46.5852" lon="5.03028">
        <ele>220.8</ele>
        <time>2022-06-25T08:13:09Z</time>
      </trkpt>
      <trkpt lat="46.58514" lon="5.03025">
        <ele>220.8</ele>
        <time>2022-06-25T08:13:10Z</time>
      </trkpt>
      <trkpt lat="46.58508" lon="5.03021">
        <ele>220.8</ele>
        <time>2022-06-25T08:13:11Z</time>
      </trkpt>
      <trkpt lat="46.58502" lon="5.03018">
        <ele>220.8</ele>
        <time>2022-06-25T08:13:12Z</time>
      </trkpt>
      <trkpt lat="46.58496" lon="5.03014">
        <ele>220.8</ele>
        <time>2022-06-25T08:13:13Z</time>
      </trkpt>
      <trkpt lat="46.58491" lon="5.03011">
        <ele>220.4</ele>
        <time>2022-06-25T08:13:14Z</time>
      </trkpt>
      <trkpt lat="46.58485" lon="5.03007">
        <ele>220.4</ele>
        <time>2022-06-25T08:13:15Z</time>
      </trkpt>
      <trkpt lat="46.58479" lon="5.03004">
        <ele>220.4</ele>
        <time>2022-06-25T08:13:16Z</time>
      </trkpt>
      <trkpt lat="46.58473" lon="5.03001">
        <ele>220.4</ele>
        <time>2022-06-25T08:13:17Z</time>
      </trkpt>
      <trkpt lat="46.58467" lon="5.02997">
        <ele>220.4</ele>
        <time>2022-06-25T08:13:18Z</time>
      </trkpt>
      <trkpt lat="46.58461" lon="5.02994">
        <ele>220.4</ele>
        <time>2022-06-25T08:13:19Z</time>
      </trkpt>
      <trkpt lat="46.58456" lon="5.02991">
        <ele>220.4</ele>
        <time>2022-06-25T08:13:20Z</time>
      </trkpt>
      <trkpt lat="46.5845" lon="5.02987">
        <ele>220.4</ele>
        <time>2022-06-25T08:13:21Z</time>
      </trkpt>
      <trkpt lat="46.58444" lon="5.02983">
        <ele>220.4</ele>
        <time>2022-06-25T08:13:22Z</time>
      </trkpt>
      <trkpt lat="46.58438" lon="5.02979">
        <ele>220.4</ele>
        <time>2022-06-25T08:13:23Z</time>
      </trkpt>
      <trkpt lat="46.58432" lon="5.02976">
        <ele>220.4</ele>
        <time>2022-06-25T08:13:24Z</time>
      </trkpt>
      <trkpt lat="46.58426" lon="5.02972">
        <ele>220.4</ele>
        <time>2022-06-25T08:13:25Z</time>
      </trkpt>
      <trkpt lat="46.5842" lon="5.02968">
        <ele>220.4</ele>
        <time>2022-06-25T08:13:26Z</time>
      </trkpt>
      <trkpt lat="46.58414" lon="5.02964">
        <ele>220.4</ele>
        <time>2022-06-25T08:13:27Z</time>
      </trkpt>
      <trkpt lat="46.58408" lon="5.0296">
        <ele>220.4</ele>
        <time>2022-06-25T08:13:28Z</time>
      </trkpt>
      <trkpt lat="46.58402" lon="5.02957">
        <ele>220.4</ele>
        <time>2022-06-25T08:13:29Z</time>
      </trkpt>
      <trkpt lat="46.58396" lon="5.02953">
        <ele>220.4</ele>
        <time>2022-06-25T08:13:30Z</time>
      </trkpt>
      <trkpt lat="46.5839" lon="5.0295">
        <ele>220.4</ele>
        <time>2022-06-25T08:13:31Z</time>
      </trkpt>
      <trkpt lat="46.58384" lon="5.02946">
        <ele>220.4</ele>
        <time>2022-06-25T08:13:32Z</time>
      </trkpt>
      <trkpt lat="46.58379" lon="5.02943">
        <ele>220.4</ele>
        <time>2022-06-25T08:13:33Z</time>
      </trkpt>
      <trkpt lat="46.58373" lon="5.02939">
        <ele>220.4</ele>
        <time>2022-06-25T08:13:34Z</time>
      </trkpt>
      <trkpt lat="46.58367" lon="5.02935">
        <ele>220.4</ele>
        <time>2022-06-25T08:13:35Z</time>
      </trkpt>
      <trkpt lat="46.58361" lon="5.02931">
        <ele>220.4</ele>
        <time>2022-06-25T08:13:36Z</time>
      </trkpt>
      <trkpt lat="46.58356" lon="5.02928">
        <ele>220.4</ele>
        <time>2022-06-25T08:13:37Z</time>
      </trkpt>
      <trkpt lat="46.5835" lon="5.02924">
        <ele>220.4</ele>
        <time>2022-06-25T08:13:38Z</time>
      </trkpt>
      <trkpt lat="46.58345" lon="5.02921">
        <ele>220.4</ele>
        <time>2022-06-25T08:13:39Z</time>
      </trkpt>
      <trkpt lat="46.58339" lon="5.02917">
        <ele>220.4</ele>
        <time>2022-06-25T08:13:40Z</time>
      </trkpt>
      <trkpt lat="46.58334" lon="5.02914">
        <ele>220.8</ele>
        <time>2022-06-25T08:13:41Z</time>
      </trkpt>
      <trkpt lat="46.58329" lon="5.0291">
        <ele>220.8</ele>
        <time>2022-06-25T08:13:42Z</time>
      </trkpt>
      <trkpt lat="46.58323" lon="5.02907">
        <ele>220.8</ele>
        <time>2022-06-25T08:13:43Z</time>
      </trkpt>
      <trkpt lat="46.58318" lon="5.02904">
        <ele>220.8</ele>
        <time>2022-06-25T08:13:44Z</time>
      </trkpt>
      <trkpt lat="46.58313" lon="5.029">
        <ele>221</ele>
        <time>2022-06-25T08:13:45Z</time>
      </trkpt>
      <trkpt lat="46.58308" lon="5.02896">
        <ele>221</ele>
        <time>2022-06-25T08:13:46Z</time>
      </trkpt>
      <trkpt lat="46.58303" lon="5.02891">
        <ele>221</ele>
        <time>2022-06-25T08:13:47Z</time>
      </trkpt>
      <trkpt lat="46.58298" lon="5.02887">
        <ele>221</ele>
        <time>2022-06-25T08:13:48Z</time>
      </trkpt>
      <trkpt lat="46.58294" lon="5.02882">
        <ele>221</ele>
        <time>2022-06-25T08:13:49Z</time>
      </trkpt>
      <trkpt lat="46.58289" lon="5.02877">
        <ele>221</ele>
        <time>2022-06-25T08:13:50Z</time>
      </trkpt>
      <trkpt lat="46.58285" lon="5.02872">
        <ele>221</ele>
        <time>2022-06-25T08:13:51Z</time>
      </trkpt>
      <trkpt lat="46.58281" lon="5.02867">
        <ele>221</ele>
        <time>2022-06-25T08:13:52Z</time>
      </trkpt>
      <trkpt lat="46.58278" lon="5.02861">
        <ele>221</ele>
        <time>2022-06-25T08:13:53Z</time>
      </trkpt>
      <trkpt lat="46.58274" lon="5.02855">
        <ele>221</ele>
        <time>2022-06-25T08:13:54Z</time>
      </trkpt>
      <trkpt lat="46.5827" lon="5.02848">
        <ele>221</ele>
        <time>2022-06-25T08:13:55Z</time>
      </trkpt>
      <trkpt lat="46.58266" lon="5.02842">
        <ele>221</ele>
        <time>2022-06-25T08:13:56Z</time>
      </trkpt>
      <trkpt lat="46.58262" lon="5.02836">
        <ele>221</ele>
        <time>2022-06-25T08:13:57Z</time>
      </trkpt>
      <trkpt lat="46.58258" lon="5.02829">
        <ele>220.8</ele>
        <time>2022-06-25T08:13:58Z</time>
      </trkpt>
      <trkpt lat="46.58254" lon="5.02822">
        <ele>220.8</ele>
        <time>2022-06-25T08:13:59Z</time>
      </trkpt>
      <trkpt lat="46.5825" lon="5.02815">
        <ele>220.6</ele>
        <time>2022-06-25T08:14:00Z</time>
      </trkpt>
      <trkpt lat="46.58245" lon="5.02808">
        <ele>220.6</ele>
        <time>2022-06-25T08:14:01Z</time>
      </trkpt>
      <trkpt lat="46.58241" lon="5.028">
        <ele>220.6</ele>
        <time>2022-06-25T08:14:02Z</time>
      </trkpt>
      <trkpt lat="46.58237" lon="5.02793">
        <ele>220.2</ele>
        <time>2022-06-25T08:14:03Z</time>
      </trkpt>
      <trkpt lat="46.58234" lon="5.02785">
        <ele>220.2</ele>
        <time>2022-06-25T08:14:04Z</time>
      </trkpt>
      <trkpt lat="46.5823" lon="5.02777">
        <ele>220.2</ele>
        <time>2022-06-25T08:14:05Z</time>
      </trkpt>
      <trkpt lat="46.58227" lon="5.02769">
        <ele>220.2</ele>
        <time>2022-06-25T08:14:06Z</time>
      </trkpt>
      <trkpt lat="46.58224" lon="5.02761">
        <ele>220</ele>
        <time>2022-06-25T08:14:07Z</time>
      </trkpt>
      <trkpt lat="46.5822" lon="5.02753">
        <ele>220</ele>
        <time>2022-06-25T08:14:08Z</time>
      </trkpt>
      <trkpt lat="46.58217" lon="5.02745">
        <ele>220</ele>
        <time>2022-06-25T08:14:09Z</time>
      </trkpt>
      <trkpt lat="46.58214" lon="5.02737">
        <ele>220.2</ele>
        <time>2022-06-25T08:14:10Z</time>
      </trkpt>
      <trkpt lat="46.58211" lon="5.02729">
        <ele>220.2</ele>
        <time>2022-06-25T08:14:11Z</time>
      </trkpt>
      <trkpt lat="46.58209" lon="5.02721">
        <ele>220.2</ele>
        <time>2022-06-25T08:14:12Z</time>
      </trkpt>
      <trkpt lat="46.58206" lon="5.02714">
        <ele>220.2</ele>
        <time>2022-06-25T08:14:13Z</time>
      </trkpt>
      <trkpt lat="46.58203" lon="5.02706">
        <ele>220.2</ele>
        <time>2022-06-25T08:14:14Z</time>
      </trkpt>
      <trkpt lat="46.58201" lon="5.02699">
        <ele>220.6</ele>
        <time>2022-06-25T08:14:15Z</time>
      </trkpt>
      <trkpt lat="46.58198" lon="5.02692">
        <ele>220.6</ele>
        <time>2022-06-25T08:14:16Z</time>
      </trkpt>
      <trkpt lat="46.58195" lon="5.02684">
        <ele>220.6</ele>
        <time>2022-06-25T08:14:17Z</time>
      </trkpt>
      <trkpt lat="46.58192" lon="5.02677">
        <ele>220.6</ele>
        <time>2022-06-25T08:14:18Z</time>
      </trkpt>
      <trkpt lat="46.5819" lon="5.0267">
        <ele>220.6</ele>
        <time>2022-06-25T08:14:19Z</time>
      </trkpt>
      <trkpt lat="46.58187" lon="5.02662">
        <ele>220.6</ele>
        <time>2022-06-25T08:14:20Z</time>
      </trkpt>
      <trkpt lat="46.58185" lon="5.02654">
        <ele>220.6</ele>
        <time>2022-06-25T08:14:21Z</time>
      </trkpt>
      <trkpt lat="46.58182" lon="5.02646">
        <ele>220.6</ele>
        <time>2022-06-25T08:14:22Z</time>
      </trkpt>
      <trkpt lat="46.58179" lon="5.02639">
        <ele>220.6</ele>
        <time>2022-06-25T08:14:23Z</time>
      </trkpt>
      <trkpt lat="46.58176" lon="5.02631">
        <ele>220.6</ele>
        <time>2022-06-25T08:14:24Z</time>
      </trkpt>
      <trkpt lat="46.58174" lon="5.02623">
        <ele>220.6</ele>
        <time>2022-06-25T08:14:25Z</time>
      </trkpt>
      <trkpt lat="46.58171" lon="5.02615">
        <ele>220.6</ele>
        <time>2022-06-25T08:14:26Z</time>
      </trkpt>
      <trkpt lat="46.58168" lon="5.02606">
        <ele>220.2</ele>
        <time>2022-06-25T08:14:27Z</time>
      </trkpt>
      <trkpt lat="46.58165" lon="5.02598">
        <ele>220.2</ele>
        <time>2022-06-25T08:14:28Z</time>
      </trkpt>
      <trkpt lat="46.58162" lon="5.02589">
        <ele>220</ele>
        <time>2022-06-25T08:14:29Z</time>
      </trkpt>
      <trkpt lat="46.58159" lon="5.02581">
        <ele>220</ele>
        <time>2022-06-25T08:14:30Z</time>
      </trkpt>
      <trkpt lat="46.58156" lon="5.02573">
        <ele>220</ele>
        <time>2022-06-25T08:14:31Z</time>
      </trkpt>
      <trkpt lat="46.58153" lon="5.02564">
        <ele>219.8</ele>
        <time>2022-06-25T08:14:32Z</time>
      </trkpt>
      <trkpt lat="46.5815" lon="5.02556">
        <ele>219.8</ele>
        <time>2022-06-25T08:14:33Z</time>
      </trkpt>
      <trkpt lat="46.58147" lon="5.02547">
        <ele>219.8</ele>
        <time>2022-06-25T08:14:34Z</time>
      </trkpt>
      <trkpt lat="46.58144" lon="5.02539">
        <ele>219.4</ele>
        <time>2022-06-25T08:14:35Z</time>
      </trkpt>
      <trkpt lat="46.58141" lon="5.0253">
        <ele>219</ele>
        <time>2022-06-25T08:14:36Z</time>
      </trkpt>
      <trkpt lat="46.58138" lon="5.0252">
        <ele>218.8</ele>
        <time>2022-06-25T08:14:37Z</time>
      </trkpt>
      <trkpt lat="46.58134" lon="5.0251">
        <ele>218.6</ele>
        <time>2022-06-25T08:14:38Z</time>
      </trkpt>
      <trkpt lat="46.58131" lon="5.025">
        <ele>218.4</ele>
        <time>2022-06-25T08:14:39Z</time>
      </trkpt>
      <trkpt lat="46.58128" lon="5.0249">
        <ele>218</ele>
        <time>2022-06-25T08:14:40Z</time>
      </trkpt>
      <trkpt lat="46.58124" lon="5.0248">
        <ele>217.8</ele>
        <time>2022-06-25T08:14:41Z</time>
      </trkpt>
      <trkpt lat="46.58121" lon="5.0247">
        <ele>217.6</ele>
        <time>2022-06-25T08:14:42Z</time>
      </trkpt>
      <trkpt lat="46.58117" lon="5.02459">
        <ele>217.2</ele>
        <time>2022-06-25T08:14:43Z</time>
      </trkpt>
      <trkpt lat="46.58113" lon="5.02448">
        <ele>217</ele>
        <time>2022-06-25T08:14:44Z</time>
      </trkpt>
      <trkpt lat="46.5811" lon="5.02436">
        <ele>216.6</ele>
        <time>2022-06-25T08:14:45Z</time>
      </trkpt>
      <trkpt lat="46.58106" lon="5.02425">
        <ele>216.2</ele>
        <time>2022-06-25T08:14:46Z</time>
      </trkpt>
      <trkpt lat="46.58102" lon="5.02413">
        <ele>215.8</ele>
        <time>2022-06-25T08:14:47Z</time>
      </trkpt>
      <trkpt lat="46.58097" lon="5.02402">
        <ele>215.4</ele>
        <time>2022-06-25T08:14:48Z</time>
      </trkpt>
      <trkpt lat="46.58093" lon="5.02389">
        <ele>215</ele>
        <time>2022-06-25T08:14:49Z</time>
      </trkpt>
      <trkpt lat="46.58088" lon="5.02376">
        <ele>214.6</ele>
        <time>2022-06-25T08:14:50Z</time>
      </trkpt>
      <trkpt lat="46.58083" lon="5.02363">
        <ele>214.2</ele>
        <time>2022-06-25T08:14:51Z</time>
      </trkpt>
      <trkpt lat="46.58079" lon="5.02349">
        <ele>213.6</ele>
        <time>2022-06-25T08:14:52Z</time>
      </trkpt>
      <trkpt lat="46.58075" lon="5.02335">
        <ele>213</ele>
        <time>2022-06-25T08:14:53Z</time>
      </trkpt>
      <trkpt lat="46.5807" lon="5.02322">
        <ele>212.4</ele>
        <time>2022-06-25T08:14:54Z</time>
      </trkpt>
      <trkpt lat="46.58066" lon="5.02306">
        <ele>211.6</ele>
        <time>2022-06-25T08:14:55Z</time>
      </trkpt>
      <trkpt lat="46.58062" lon="5.02291">
        <ele>210.8</ele>
        <time>2022-06-25T08:14:56Z</time>
      </trkpt>
      <trkpt lat="46.58057" lon="5.02276">
        <ele>210.2</ele>
        <time>2022-06-25T08:14:57Z</time>
      </trkpt>
      <trkpt lat="46.58051" lon="5.02262">
        <ele>209.4</ele>
        <time>2022-06-25T08:14:58Z</time>
      </trkpt>
      <trkpt lat="46.58046" lon="5.02245">
        <ele>208.8</ele>
        <time>2022-06-25T08:14:59Z</time>
      </trkpt>
      <trkpt lat="46.58041" lon="5.02229">
        <ele>208.2</ele>
        <time>2022-06-25T08:15:00Z</time>
      </trkpt>
      <trkpt lat="46.58035" lon="5.02213">
        <ele>207.6</ele>
        <time>2022-06-25T08:15:01Z</time>
      </trkpt>
      <trkpt lat="46.58031" lon="5.02197">
        <ele>207</ele>
        <time>2022-06-25T08:15:02Z</time>
      </trkpt>
      <trkpt lat="46.58025" lon="5.0218">
        <ele>206.2</ele>
        <time>2022-06-25T08:15:03Z</time>
      </trkpt>
      <trkpt lat="46.58019" lon="5.02165">
        <ele>205.2</ele>
        <time>2022-06-25T08:15:04Z</time>
      </trkpt>
      <trkpt lat="46.58014" lon="5.02148">
        <ele>204.4</ele>
        <time>2022-06-25T08:15:05Z</time>
      </trkpt>
      <trkpt lat="46.58007" lon="5.02131">
        <ele>203.6</ele>
        <time>2022-06-25T08:15:06Z</time>
      </trkpt>
      <trkpt lat="46.58002" lon="5.02114">
        <ele>202.6</ele>
        <time>2022-06-25T08:15:07Z</time>
      </trkpt>
      <trkpt lat="46.57996" lon="5.02097">
        <ele>201.4</ele>
        <time>2022-06-25T08:15:08Z</time>
      </trkpt>
      <trkpt lat="46.5799" lon="5.0208">
        <ele>200.4</ele>
        <time>2022-06-25T08:15:09Z</time>
      </trkpt>
      <trkpt lat="46.57985" lon="5.02063">
        <ele>199.4</ele>
        <time>2022-06-25T08:15:10Z</time>
      </trkpt>
      <trkpt lat="46.57979" lon="5.02044">
        <ele>198.4</ele>
        <time>2022-06-25T08:15:11Z</time>
      </trkpt>
      <trkpt lat="46.57973" lon="5.02027">
        <ele>197.4</ele>
        <time>2022-06-25T08:15:12Z</time>
      </trkpt>
      <trkpt lat="46.57967" lon="5.0201">
        <ele>196.4</ele>
        <time>2022-06-25T08:15:13Z</time>
      </trkpt>
      <trkpt lat="46.57961" lon="5.01991">
        <ele>195.8</ele>
        <time>2022-06-25T08:15:14Z</time>
      </trkpt>
      <trkpt lat="46.57954" lon="5.01974">
        <ele>195</ele>
        <time>2022-06-25T08:15:15Z</time>
      </trkpt>
      <trkpt lat="46.57948" lon="5.01955">
        <ele>194.4</ele>
        <time>2022-06-25T08:15:16Z</time>
      </trkpt>
      <trkpt lat="46.57943" lon="5.01939">
        <ele>194</ele>
        <time>2022-06-25T08:15:17Z</time>
      </trkpt>
      <trkpt lat="46.57938" lon="5.01921">
        <ele>193.4</ele>
        <time>2022-06-25T08:15:18Z</time>
      </trkpt>
      <trkpt lat="46.57933" lon="5.01903">
        <ele>193</ele>
        <time>2022-06-25T08:15:19Z</time>
      </trkpt>
      <trkpt lat="46.57927" lon="5.01888">
        <ele>192.4</ele>
        <time>2022-06-25T08:15:20Z</time>
      </trkpt>
      <trkpt lat="46.57922" lon="5.01871">
        <ele>191.8</ele>
        <time>2022-06-25T08:15:21Z</time>
      </trkpt>
      <trkpt lat="46.57917" lon="5.01854">
        <ele>191.4</ele>
        <time>2022-06-25T08:15:22Z</time>
      </trkpt>
      <trkpt lat="46.57912" lon="5.01838">
        <ele>191</ele>
        <time>2022-06-25T08:15:23Z</time>
      </trkpt>
      <trkpt lat="46.57907" lon="5.01822">
        <ele>190.6</ele>
        <time>2022-06-25T08:15:24Z</time>
      </trkpt>
      <trkpt lat="46.57902" lon="5.01806">
        <ele>190.4</ele>
        <time>2022-06-25T08:15:25Z</time>
      </trkpt>
      <trkpt lat="46.57897" lon="5.01791">
        <ele>190</ele>
        <time>2022-06-25T08:15:26Z</time>
      </trkpt>
      <trkpt lat="46.57892" lon="5.01776">
        <ele>189.6</ele>
        <time>2022-06-25T08:15:27Z</time>
      </trkpt>
      <trkpt lat="46.57888" lon="5.01762">
        <ele>189.4</ele>
        <time>2022-06-25T08:15:28Z</time>
      </trkpt>
      <trkpt lat="46.57882" lon="5.01748">
        <ele>189</ele>
        <time>2022-06-25T08:15:29Z</time>
      </trkpt>
      <trkpt lat="46.57877" lon="5.01733">
        <ele>188.8</ele>
        <time>2022-06-25T08:15:30Z</time>
      </trkpt>
      <trkpt lat="46.57874" lon="5.01719">
        <ele>188.4</ele>
        <time>2022-06-25T08:15:31Z</time>
      </trkpt>
      <trkpt lat="46.57864" lon="5.01689">
        <ele>188.2</ele>
        <time>2022-06-25T08:15:32Z</time>
      </trkpt>
      <trkpt lat="46.57859" lon="5.01675">
        <ele>188.2</ele>
        <time>2022-06-25T08:15:33Z</time>
      </trkpt>
      <trkpt lat="46.57855" lon="5.01662">
        <ele>188.2</ele>
        <time>2022-06-25T08:15:34Z</time>
      </trkpt>
      <trkpt lat="46.57851" lon="5.0165">
        <ele>188.2</ele>
        <time>2022-06-25T08:15:35Z</time>
      </trkpt>
      <trkpt lat="46.57846" lon="5.01638">
        <ele>188</ele>
        <time>2022-06-25T08:15:36Z</time>
      </trkpt>
      <trkpt lat="46.57842" lon="5.01626">
        <ele>187.6</ele>
        <time>2022-06-25T08:15:37Z</time>
      </trkpt>
      <trkpt lat="46.57838" lon="5.01614">
        <ele>187.6</ele>
        <time>2022-06-25T08:15:38Z</time>
      </trkpt>
      <trkpt lat="46.57834" lon="5.01601">
        <ele>187.4</ele>
        <time>2022-06-25T08:15:39Z</time>
      </trkpt>
      <trkpt lat="46.5783" lon="5.01588">
        <ele>187.4</ele>
        <time>2022-06-25T08:15:40Z</time>
      </trkpt>
      <trkpt lat="46.57826" lon="5.01576">
        <ele>187.4</ele>
        <time>2022-06-25T08:15:41Z</time>
      </trkpt>
      <trkpt lat="46.57822" lon="5.01564">
        <ele>187.2</ele>
        <time>2022-06-25T08:15:42Z</time>
      </trkpt>
      <trkpt lat="46.57818" lon="5.01553">
        <ele>187.2</ele>
        <time>2022-06-25T08:15:43Z</time>
      </trkpt>
      <trkpt lat="46.57814" lon="5.01542">
        <ele>187.2</ele>
        <time>2022-06-25T08:15:44Z</time>
      </trkpt>
      <trkpt lat="46.57811" lon="5.01531">
        <ele>186.8</ele>
        <time>2022-06-25T08:15:45Z</time>
      </trkpt>
      <trkpt lat="46.57807" lon="5.0152">
        <ele>186.8</ele>
        <time>2022-06-25T08:15:46Z</time>
      </trkpt>
      <trkpt lat="46.57803" lon="5.01509">
        <ele>186.6</ele>
        <time>2022-06-25T08:15:47Z</time>
      </trkpt>
      <trkpt lat="46.578" lon="5.01499">
        <ele>186.6</ele>
        <time>2022-06-25T08:15:48Z</time>
      </trkpt>
      <trkpt lat="46.57797" lon="5.01488">
        <ele>186.6</ele>
        <time>2022-06-25T08:15:49Z</time>
      </trkpt>
      <trkpt lat="46.57793" lon="5.01477">
        <ele>186.4</ele>
        <time>2022-06-25T08:15:50Z</time>
      </trkpt>
      <trkpt lat="46.5779" lon="5.01467">
        <ele>186.4</ele>
        <time>2022-06-25T08:15:51Z</time>
      </trkpt>
      <trkpt lat="46.57787" lon="5.01457">
        <ele>186.4</ele>
        <time>2022-06-25T08:15:52Z</time>
      </trkpt>
      <trkpt lat="46.57784" lon="5.01447">
        <ele>186.4</ele>
        <time>2022-06-25T08:15:53Z</time>
      </trkpt>
      <trkpt lat="46.57781" lon="5.01437">
        <ele>186.4</ele>
        <time>2022-06-25T08:15:54Z</time>
      </trkpt>
      <trkpt lat="46.57778" lon="5.01427">
        <ele>186.4</ele>
        <time>2022-06-25T08:15:55Z</time>
      </trkpt>
      <trkpt lat="46.57775" lon="5.01417">
        <ele>186.4</ele>
        <time>2022-06-25T08:15:56Z</time>
      </trkpt>
      <trkpt lat="46.57772" lon="5.01407">
        <ele>186.4</ele>
        <time>2022-06-25T08:15:57Z</time>
      </trkpt>
      <trkpt lat="46.57769" lon="5.01397">
        <ele>186.4</ele>
        <time>2022-06-25T08:15:58Z</time>
      </trkpt>
      <trkpt lat="46.57767" lon="5.01388">
        <ele>186.4</ele>
        <time>2022-06-25T08:15:59Z</time>
      </trkpt>
      <trkpt lat="46.57764" lon="5.01378">
        <ele>186.4</ele>
        <time>2022-06-25T08:16:00Z</time>
      </trkpt>
      <trkpt lat="46.57762" lon="5.01369">
        <ele>186.4</ele>
        <time>2022-06-25T08:16:01Z</time>
      </trkpt>
      <trkpt lat="46.5776" lon="5.01359">
        <ele>186.4</ele>
        <time>2022-06-25T08:16:02Z</time>
      </trkpt>
      <trkpt lat="46.57758" lon="5.01349">
        <ele>186.2</ele>
        <time>2022-06-25T08:16:03Z</time>
      </trkpt>
      <trkpt lat="46.57757" lon="5.01339">
        <ele>186.2</ele>
        <time>2022-06-25T08:16:04Z</time>
      </trkpt>
      <trkpt lat="46.57755" lon="5.01329">
        <ele>186.2</ele>
        <time>2022-06-25T08:16:05Z</time>
      </trkpt>
      <trkpt lat="46.57753" lon="5.0132">
        <ele>186.2</ele>
        <time>2022-06-25T08:16:06Z</time>
      </trkpt>
      <trkpt lat="46.57752" lon="5.0131">
        <ele>186.2</ele>
        <time>2022-06-25T08:16:07Z</time>
      </trkpt>
      <trkpt lat="46.5775" lon="5.013">
        <ele>186.2</ele>
        <time>2022-06-25T08:16:08Z</time>
      </trkpt>
      <trkpt lat="46.57748" lon="5.0129">
        <ele>186.2</ele>
        <time>2022-06-25T08:16:09Z</time>
      </trkpt>
      <trkpt lat="46.57747" lon="5.01281">
        <ele>186.2</ele>
        <time>2022-06-25T08:16:10Z</time>
      </trkpt>
      <trkpt lat="46.57745" lon="5.01272">
        <ele>186.4</ele>
        <time>2022-06-25T08:16:11Z</time>
      </trkpt>
      <trkpt lat="46.57743" lon="5.01262">
        <ele>186.4</ele>
        <time>2022-06-25T08:16:12Z</time>
      </trkpt>
      <trkpt lat="46.57741" lon="5.01253">
        <ele>186.4</ele>
        <time>2022-06-25T08:16:13Z</time>
      </trkpt>
      <trkpt lat="46.5774" lon="5.01243">
        <ele>186.4</ele>
        <time>2022-06-25T08:16:14Z</time>
      </trkpt>
      <trkpt lat="46.57738" lon="5.01234">
        <ele>186.4</ele>
        <time>2022-06-25T08:16:15Z</time>
      </trkpt>
      <trkpt lat="46.57736" lon="5.01224">
        <ele>186.4</ele>
        <time>2022-06-25T08:16:16Z</time>
      </trkpt>
      <trkpt lat="46.57735" lon="5.01215">
        <ele>186.4</ele>
        <time>2022-06-25T08:16:17Z</time>
      </trkpt>
      <trkpt lat="46.57733" lon="5.01205">
        <ele>186.4</ele>
        <time>2022-06-25T08:16:18Z</time>
      </trkpt>
      <trkpt lat="46.57731" lon="5.01195">
        <ele>186.4</ele>
        <time>2022-06-25T08:16:19Z</time>
      </trkpt>
      <trkpt lat="46.57729" lon="5.01186">
        <ele>186.4</ele>
        <time>2022-06-25T08:16:20Z</time>
      </trkpt>
      <trkpt lat="46.57727" lon="5.01176">
        <ele>186.4</ele>
        <time>2022-06-25T08:16:21Z</time>
      </trkpt>
      <trkpt lat="46.57726" lon="5.01167">
        <ele>186.4</ele>
        <time>2022-06-25T08:16:22Z</time>
      </trkpt>
      <trkpt lat="46.57724" lon="5.01157">
        <ele>186.6</ele>
        <time>2022-06-25T08:16:23Z</time>
      </trkpt>
      <trkpt lat="46.57722" lon="5.01147">
        <ele>186.6</ele>
        <time>2022-06-25T08:16:24Z</time>
      </trkpt>
      <trkpt lat="46.5772" lon="5.01138">
        <ele>186.6</ele>
        <time>2022-06-25T08:16:25Z</time>
      </trkpt>
      <trkpt lat="46.57719" lon="5.01129">
        <ele>186.6</ele>
        <time>2022-06-25T08:16:26Z</time>
      </trkpt>
      <trkpt lat="46.57717" lon="5.01119">
        <ele>186.6</ele>
        <time>2022-06-25T08:16:27Z</time>
      </trkpt>
      <trkpt lat="46.57715" lon="5.0111">
        <ele>186.6</ele>
        <time>2022-06-25T08:16:28Z</time>
      </trkpt>
      <trkpt lat="46.57714" lon="5.011">
        <ele>186.6</ele>
        <time>2022-06-25T08:16:29Z</time>
      </trkpt>
      <trkpt lat="46.57712" lon="5.0109">
        <ele>186.6</ele>
        <time>2022-06-25T08:16:30Z</time>
      </trkpt>
      <trkpt lat="46.5771" lon="5.01081">
        <ele>186.6</ele>
        <time>2022-06-25T08:16:31Z</time>
      </trkpt>
      <trkpt lat="46.57708" lon="5.01071">
        <ele>186.6</ele>
        <time>2022-06-25T08:16:32Z</time>
      </trkpt>
      <trkpt lat="46.57706" lon="5.01061">
        <ele>186.6</ele>
        <time>2022-06-25T08:16:33Z</time>
      </trkpt>
      <trkpt lat="46.57704" lon="5.01051">
        <ele>186.6</ele>
        <time>2022-06-25T08:16:34Z</time>
      </trkpt>
      <trkpt lat="46.57702" lon="5.01042">
        <ele>186.6</ele>
        <time>2022-06-25T08:16:35Z</time>
      </trkpt>
      <trkpt lat="46.57701" lon="5.01032">
        <ele>186.6</ele>
        <time>2022-06-25T08:16:36Z</time>
      </trkpt>
      <trkpt lat="46.57699" lon="5.01022">
        <ele>186.6</ele>
        <time>2022-06-25T08:16:37Z</time>
      </trkpt>
      <trkpt lat="46.57697" lon="5.01012">
        <ele>186.6</ele>
        <time>2022-06-25T08:16:38Z</time>
      </trkpt>
      <trkpt lat="46.57695" lon="5.01003">
        <ele>186.6</ele>
        <time>2022-06-25T08:16:39Z</time>
      </trkpt>
      <trkpt lat="46.57694" lon="5.00993">
        <ele>186.6</ele>
        <time>2022-06-25T08:16:40Z</time>
      </trkpt>
      <trkpt lat="46.57692" lon="5.00983">
        <ele>186.6</ele>
        <time>2022-06-25T08:16:41Z</time>
      </trkpt>
      <trkpt lat="46.5769" lon="5.00973">
        <ele>186.6</ele>
        <time>2022-06-25T08:16:42Z</time>
      </trkpt>
      <trkpt lat="46.57688" lon="5.00963">
        <ele>186.6</ele>
        <time>2022-06-25T08:16:43Z</time>
      </trkpt>
      <trkpt lat="46.57686" lon="5.00954">
        <ele>186.4</ele>
        <time>2022-06-25T08:16:44Z</time>
      </trkpt>
      <trkpt lat="46.57685" lon="5.00944">
        <ele>186.4</ele>
        <time>2022-06-25T08:16:45Z</time>
      </trkpt>
      <trkpt lat="46.57683" lon="5.00934">
        <ele>186.4</ele>
        <time>2022-06-25T08:16:46Z</time>
      </trkpt>
      <trkpt lat="46.57681" lon="5.00924">
        <ele>186.4</ele>
        <time>2022-06-25T08:16:47Z</time>
      </trkpt>
      <trkpt lat="46.57679" lon="5.00914">
        <ele>186.2</ele>
        <time>2022-06-25T08:16:48Z</time>
      </trkpt>
      <trkpt lat="46.57677" lon="5.00904">
        <ele>186.2</ele>
        <time>2022-06-25T08:16:49Z</time>
      </trkpt>
      <trkpt lat="46.57675" lon="5.00894">
        <ele>186.2</ele>
        <time>2022-06-25T08:16:50Z</time>
      </trkpt>
      <trkpt lat="46.57673" lon="5.00884">
        <ele>186.2</ele>
        <time>2022-06-25T08:16:51Z</time>
      </trkpt>
      <trkpt lat="46.57671" lon="5.00874">
        <ele>186.2</ele>
        <time>2022-06-25T08:16:52Z</time>
      </trkpt>
      <trkpt lat="46.5767" lon="5.00864">
        <ele>186.2</ele>
        <time>2022-06-25T08:16:53Z</time>
      </trkpt>
      <trkpt lat="46.57668" lon="5.00854">
        <ele>186</ele>
        <time>2022-06-25T08:16:54Z</time>
      </trkpt>
      <trkpt lat="46.57666" lon="5.00844">
        <ele>186</ele>
        <time>2022-06-25T08:16:55Z</time>
      </trkpt>
      <trkpt lat="46.57664" lon="5.00835">
        <ele>186</ele>
        <time>2022-06-25T08:16:56Z</time>
      </trkpt>
      <trkpt lat="46.57662" lon="5.00825">
        <ele>185.6</ele>
        <time>2022-06-25T08:16:57Z</time>
      </trkpt>
      <trkpt lat="46.57661" lon="5.0082">
        <ele>185.6</ele>
        <time>2022-06-25T08:16:58Z</time>
      </trkpt>
      <trkpt lat="46.5766" lon="5.00815">
        <ele>185.6</ele>
        <time>2022-06-25T08:16:59Z</time>
      </trkpt>
      <trkpt lat="46.57658" lon="5.00806">
        <ele>185.6</ele>
        <time>2022-06-25T08:17:00Z</time>
      </trkpt>
      <trkpt lat="46.57656" lon="5.00796">
        <ele>185.6</ele>
        <time>2022-06-25T08:17:01Z</time>
      </trkpt>
      <trkpt lat="46.57653" lon="5.00787">
        <ele>185.6</ele>
        <time>2022-06-25T08:17:02Z</time>
      </trkpt>
      <trkpt lat="46.57651" lon="5.00777">
        <ele>185.6</ele>
        <time>2022-06-25T08:17:03Z</time>
      </trkpt>
      <trkpt lat="46.57648" lon="5.00768">
        <ele>185.6</ele>
        <time>2022-06-25T08:17:04Z</time>
      </trkpt>
      <trkpt lat="46.57645" lon="5.00759">
        <ele>185.6</ele>
        <time>2022-06-25T08:17:05Z</time>
      </trkpt>
      <trkpt lat="46.57642" lon="5.0075">
        <ele>185.6</ele>
        <time>2022-06-25T08:17:06Z</time>
      </trkpt>
      <trkpt lat="46.57639" lon="5.00741">
        <ele>185.6</ele>
        <time>2022-06-25T08:17:07Z</time>
      </trkpt>
      <trkpt lat="46.57636" lon="5.00732">
        <ele>185.6</ele>
        <time>2022-06-25T08:17:08Z</time>
      </trkpt>
      <trkpt lat="46.57633" lon="5.00723">
        <ele>185.8</ele>
        <time>2022-06-25T08:17:09Z</time>
      </trkpt>
      <trkpt lat="46.5763" lon="5.00714">
        <ele>185.8</ele>
        <time>2022-06-25T08:17:10Z</time>
      </trkpt>
      <trkpt lat="46.57627" lon="5.00705">
        <ele>185.8</ele>
        <time>2022-06-25T08:17:11Z</time>
      </trkpt>
      <trkpt lat="46.57623" lon="5.00696">
        <ele>185.8</ele>
        <time>2022-06-25T08:17:12Z</time>
      </trkpt>
      <trkpt lat="46.5762" lon="5.00687">
        <ele>185.6</ele>
        <time>2022-06-25T08:17:13Z</time>
      </trkpt>
      <trkpt lat="46.57617" lon="5.00678">
        <ele>185.6</ele>
        <time>2022-06-25T08:17:14Z</time>
      </trkpt>
      <trkpt lat="46.57613" lon="5.00669">
        <ele>185.6</ele>
        <time>2022-06-25T08:17:15Z</time>
      </trkpt>
      <trkpt lat="46.5761" lon="5.0066">
        <ele>185.6</ele>
        <time>2022-06-25T08:17:16Z</time>
      </trkpt>
      <trkpt lat="46.57607" lon="5.00651">
        <ele>185.6</ele>
        <time>2022-06-25T08:17:17Z</time>
      </trkpt>
      <trkpt lat="46.57604" lon="5.00642">
        <ele>185.6</ele>
        <time>2022-06-25T08:17:18Z</time>
      </trkpt>
      <trkpt lat="46.576" lon="5.00633">
        <ele>185.6</ele>
        <time>2022-06-25T08:17:19Z</time>
      </trkpt>
      <trkpt lat="46.57594" lon="5.00615">
        <ele>185.6</ele>
        <time>2022-06-25T08:17:20Z</time>
      </trkpt>
      <trkpt lat="46.5759" lon="5.00606">
        <ele>185.6</ele>
        <time>2022-06-25T08:17:21Z</time>
      </trkpt>
      <trkpt lat="46.57587" lon="5.00597">
        <ele>185.6</ele>
        <time>2022-06-25T08:17:22Z</time>
      </trkpt>
      <trkpt lat="46.57584" lon="5.00588">
        <ele>185.6</ele>
        <time>2022-06-25T08:17:23Z</time>
      </trkpt>
      <trkpt lat="46.5758" lon="5.00579">
        <ele>185.6</ele>
        <time>2022-06-25T08:17:24Z</time>
      </trkpt>
      <trkpt lat="46.57577" lon="5.0057">
        <ele>185.6</ele>
        <time>2022-06-25T08:17:25Z</time>
      </trkpt>
      <trkpt lat="46.57575" lon="5.00561">
        <ele>185.6</ele>
        <time>2022-06-25T08:17:26Z</time>
      </trkpt>
      <trkpt lat="46.57572" lon="5.00552">
        <ele>185.6</ele>
        <time>2022-06-25T08:17:27Z</time>
      </trkpt>
      <trkpt lat="46.57569" lon="5.00543">
        <ele>185.6</ele>
        <time>2022-06-25T08:17:28Z</time>
      </trkpt>
      <trkpt lat="46.57566" lon="5.00534">
        <ele>185.6</ele>
        <time>2022-06-25T08:17:29Z</time>
      </trkpt>
      <trkpt lat="46.57564" lon="5.00525">
        <ele>185.6</ele>
        <time>2022-06-25T08:17:30Z</time>
      </trkpt>
      <trkpt lat="46.57561" lon="5.00515">
        <ele>185.6</ele>
        <time>2022-06-25T08:17:31Z</time>
      </trkpt>
      <trkpt lat="46.57559" lon="5.00506">
        <ele>185.6</ele>
        <time>2022-06-25T08:17:32Z</time>
      </trkpt>
      <trkpt lat="46.57556" lon="5.00497">
        <ele>185.8</ele>
        <time>2022-06-25T08:17:33Z</time>
      </trkpt>
      <trkpt lat="46.57554" lon="5.00488">
        <ele>185.8</ele>
        <time>2022-06-25T08:17:34Z</time>
      </trkpt>
      <trkpt lat="46.57552" lon="5.00478">
        <ele>185.8</ele>
        <time>2022-06-25T08:17:35Z</time>
      </trkpt>
      <trkpt lat="46.5755" lon="5.00469">
        <ele>185.8</ele>
        <time>2022-06-25T08:17:36Z</time>
      </trkpt>
      <trkpt lat="46.57547" lon="5.00459">
        <ele>185.8</ele>
        <time>2022-06-25T08:17:37Z</time>
      </trkpt>
      <trkpt lat="46.57545" lon="5.0045">
        <ele>185.8</ele>
        <time>2022-06-25T08:17:38Z</time>
      </trkpt>
      <trkpt lat="46.57542" lon="5.00441">
        <ele>185.8</ele>
        <time>2022-06-25T08:17:39Z</time>
      </trkpt>
      <trkpt lat="46.5754" lon="5.00432">
        <ele>185.8</ele>
        <time>2022-06-25T08:17:40Z</time>
      </trkpt>
      <trkpt lat="46.57538" lon="5.00423">
        <ele>185.8</ele>
        <time>2022-06-25T08:17:41Z</time>
      </trkpt>
      <trkpt lat="46.57535" lon="5.00414">
        <ele>185.8</ele>
        <time>2022-06-25T08:17:42Z</time>
      </trkpt>
      <trkpt lat="46.57533" lon="5.00404">
        <ele>185.8</ele>
        <time>2022-06-25T08:17:43Z</time>
      </trkpt>
      <trkpt lat="46.57531" lon="5.00395">
        <ele>185.8</ele>
        <time>2022-06-25T08:17:44Z</time>
      </trkpt>
      <trkpt lat="46.57529" lon="5.00386">
        <ele>185.8</ele>
        <time>2022-06-25T08:17:45Z</time>
      </trkpt>
      <trkpt lat="46.57526" lon="5.00377">
        <ele>185.8</ele>
        <time>2022-06-25T08:17:46Z</time>
      </trkpt>
      <trkpt lat="46.57524" lon="5.00368">
        <ele>185.8</ele>
        <time>2022-06-25T08:17:47Z</time>
      </trkpt>
      <trkpt lat="46.57522" lon="5.00358">
        <ele>185.8</ele>
        <time>2022-06-25T08:17:48Z</time>
      </trkpt>
      <trkpt lat="46.5752" lon="5.00349">
        <ele>185.8</ele>
        <time>2022-06-25T08:17:49Z</time>
      </trkpt>
      <trkpt lat="46.57517" lon="5.0034">
        <ele>185.8</ele>
        <time>2022-06-25T08:17:50Z</time>
      </trkpt>
      <trkpt lat="46.57515" lon="5.00331">
        <ele>185.8</ele>
        <time>2022-06-25T08:17:51Z</time>
      </trkpt>
      <trkpt lat="46.57512" lon="5.00323">
        <ele>185.8</ele>
        <time>2022-06-25T08:17:52Z</time>
      </trkpt>
      <trkpt lat="46.57509" lon="5.00314">
        <ele>185.8</ele>
        <time>2022-06-25T08:17:53Z</time>
      </trkpt>
      <trkpt lat="46.57506" lon="5.00305">
        <ele>185.8</ele>
        <time>2022-06-25T08:17:54Z</time>
      </trkpt>
      <trkpt lat="46.57502" lon="5.00297">
        <ele>186</ele>
        <time>2022-06-25T08:17:55Z</time>
      </trkpt>
      <trkpt lat="46.57498" lon="5.00289">
        <ele>186</ele>
        <time>2022-06-25T08:17:56Z</time>
      </trkpt>
      <trkpt lat="46.57494" lon="5.00281">
        <ele>186</ele>
        <time>2022-06-25T08:17:57Z</time>
      </trkpt>
      <trkpt lat="46.5749" lon="5.00274">
        <ele>186</ele>
        <time>2022-06-25T08:17:58Z</time>
      </trkpt>
      <trkpt lat="46.57486" lon="5.00267">
        <ele>186</ele>
        <time>2022-06-25T08:17:59Z</time>
      </trkpt>
      <trkpt lat="46.57481" lon="5.0026">
        <ele>186</ele>
        <time>2022-06-25T08:18:00Z</time>
      </trkpt>
      <trkpt lat="46.57476" lon="5.00253">
        <ele>186</ele>
        <time>2022-06-25T08:18:01Z</time>
      </trkpt>
      <trkpt lat="46.57471" lon="5.00246">
        <ele>186</ele>
        <time>2022-06-25T08:18:02Z</time>
      </trkpt>
      <trkpt lat="46.57467" lon="5.00239">
        <ele>186</ele>
        <time>2022-06-25T08:18:03Z</time>
      </trkpt>
      <trkpt lat="46.57462" lon="5.00233">
        <ele>186</ele>
        <time>2022-06-25T08:18:04Z</time>
      </trkpt>
      <trkpt lat="46.57457" lon="5.00226">
        <ele>186</ele>
        <time>2022-06-25T08:18:05Z</time>
      </trkpt>
      <trkpt lat="46.57453" lon="5.00219">
        <ele>186</ele>
        <time>2022-06-25T08:18:06Z</time>
      </trkpt>
      <trkpt lat="46.57448" lon="5.00212">
        <ele>186</ele>
        <time>2022-06-25T08:18:07Z</time>
      </trkpt>
      <trkpt lat="46.57443" lon="5.00206">
        <ele>186</ele>
        <time>2022-06-25T08:18:08Z</time>
      </trkpt>
      <trkpt lat="46.57438" lon="5.00199">
        <ele>186</ele>
        <time>2022-06-25T08:18:09Z</time>
      </trkpt>
      <trkpt lat="46.57433" lon="5.00192">
        <ele>186.4</ele>
        <time>2022-06-25T08:18:10Z</time>
      </trkpt>
      <trkpt lat="46.57429" lon="5.00186">
        <ele>186.4</ele>
        <time>2022-06-25T08:18:11Z</time>
      </trkpt>
      <trkpt lat="46.57424" lon="5.00179">
        <ele>186.4</ele>
        <time>2022-06-25T08:18:12Z</time>
      </trkpt>
      <trkpt lat="46.57419" lon="5.00173">
        <ele>186.4</ele>
        <time>2022-06-25T08:18:13Z</time>
      </trkpt>
      <trkpt lat="46.57414" lon="5.00166">
        <ele>186.4</ele>
        <time>2022-06-25T08:18:14Z</time>
      </trkpt>
      <trkpt lat="46.57409" lon="5.00159">
        <ele>186.6</ele>
        <time>2022-06-25T08:18:15Z</time>
      </trkpt>
      <trkpt lat="46.57405" lon="5.00152">
        <ele>186.6</ele>
        <time>2022-06-25T08:18:16Z</time>
      </trkpt>
      <trkpt lat="46.574" lon="5.00146">
        <ele>186.8</ele>
        <time>2022-06-25T08:18:17Z</time>
      </trkpt>
      <trkpt lat="46.57396" lon="5.00139">
        <ele>186.8</ele>
        <time>2022-06-25T08:18:18Z</time>
      </trkpt>
      <trkpt lat="46.57391" lon="5.00133">
        <ele>186.8</ele>
        <time>2022-06-25T08:18:19Z</time>
      </trkpt>
      <trkpt lat="46.57386" lon="5.00127">
        <ele>186.8</ele>
        <time>2022-06-25T08:18:20Z</time>
      </trkpt>
      <trkpt lat="46.57382" lon="5.0012">
        <ele>187</ele>
        <time>2022-06-25T08:18:21Z</time>
      </trkpt>
      <trkpt lat="46.57377" lon="5.00114">
        <ele>187</ele>
        <time>2022-06-25T08:18:22Z</time>
      </trkpt>
      <trkpt lat="46.57373" lon="5.00108">
        <ele>187</ele>
        <time>2022-06-25T08:18:23Z</time>
      </trkpt>
      <trkpt lat="46.57368" lon="5.00101">
        <ele>187</ele>
        <time>2022-06-25T08:18:24Z</time>
      </trkpt>
      <trkpt lat="46.57363" lon="5.00095">
        <ele>187</ele>
        <time>2022-06-25T08:18:25Z</time>
      </trkpt>
      <trkpt lat="46.57359" lon="5.00088">
        <ele>187</ele>
        <time>2022-06-25T08:18:26Z</time>
      </trkpt>
      <trkpt lat="46.57354" lon="5.00081">
        <ele>187</ele>
        <time>2022-06-25T08:18:27Z</time>
      </trkpt>
      <trkpt lat="46.5735" lon="5.00075">
        <ele>187</ele>
        <time>2022-06-25T08:18:28Z</time>
      </trkpt>
      <trkpt lat="46.57345" lon="5.00068">
        <ele>187</ele>
        <time>2022-06-25T08:18:29Z</time>
      </trkpt>
      <trkpt lat="46.5734" lon="5.00061">
        <ele>187</ele>
        <time>2022-06-25T08:18:30Z</time>
      </trkpt>
      <trkpt lat="46.57336" lon="5.00055">
        <ele>187</ele>
        <time>2022-06-25T08:18:31Z</time>
      </trkpt>
      <trkpt lat="46.57331" lon="5.00048">
        <ele>187</ele>
        <time>2022-06-25T08:18:32Z</time>
      </trkpt>
      <trkpt lat="46.57326" lon="5.00041">
        <ele>187</ele>
        <time>2022-06-25T08:18:33Z</time>
      </trkpt>
      <trkpt lat="46.57322" lon="5.00035">
        <ele>187</ele>
        <time>2022-06-25T08:18:34Z</time>
      </trkpt>
      <trkpt lat="46.57317" lon="5.00028">
        <ele>187</ele>
        <time>2022-06-25T08:18:35Z</time>
      </trkpt>
      <trkpt lat="46.57312" lon="5.00021">
        <ele>187</ele>
        <time>2022-06-25T08:18:36Z</time>
      </trkpt>
      <trkpt lat="46.57307" lon="5.00014">
        <ele>187</ele>
        <time>2022-06-25T08:18:37Z</time>
      </trkpt>
      <trkpt lat="46.57302" lon="5.00008">
        <ele>187</ele>
        <time>2022-06-25T08:18:38Z</time>
      </trkpt>
      <trkpt lat="46.57298" lon="5">
        <ele>187</ele>
        <time>2022-06-25T08:18:39Z</time>
      </trkpt>
      <trkpt lat="46.57294" lon="4.99993">
        <ele>187</ele>
        <time>2022-06-25T08:18:40Z</time>
      </trkpt>
      <trkpt lat="46.57289" lon="4.99985">
        <ele>187</ele>
        <time>2022-06-25T08:18:41Z</time>
      </trkpt>
      <trkpt lat="46.57286" lon="4.99977">
        <ele>187</ele>
        <time>2022-06-25T08:18:42Z</time>
      </trkpt>
      <trkpt lat="46.57282" lon="4.99969">
        <ele>187</ele>
        <time>2022-06-25T08:18:43Z</time>
      </trkpt>
      <trkpt lat="46.57279" lon="4.99961">
        <ele>187</ele>
        <time>2022-06-25T08:18:44Z</time>
      </trkpt>
      <trkpt lat="46.57276" lon="4.99952">
        <ele>187</ele>
        <time>2022-06-25T08:18:45Z</time>
      </trkpt>
      <trkpt lat="46.57273" lon="4.99943">
        <ele>187</ele>
        <time>2022-06-25T08:18:46Z</time>
      </trkpt>
      <trkpt lat="46.5727" lon="4.99935">
        <ele>187</ele>
        <time>2022-06-25T08:18:47Z</time>
      </trkpt>
      <trkpt lat="46.57267" lon="4.99926">
        <ele>187</ele>
        <time>2022-06-25T08:18:48Z</time>
      </trkpt>
      <trkpt lat="46.57265" lon="4.99917">
        <ele>187</ele>
        <time>2022-06-25T08:18:49Z</time>
      </trkpt>
      <trkpt lat="46.57262" lon="4.99909">
        <ele>187</ele>
        <time>2022-06-25T08:18:50Z</time>
      </trkpt>
      <trkpt lat="46.5726" lon="4.999">
        <ele>187</ele>
        <time>2022-06-25T08:18:51Z</time>
      </trkpt>
      <trkpt lat="46.57257" lon="4.99891">
        <ele>187.2</ele>
        <time>2022-06-25T08:18:52Z</time>
      </trkpt>
      <trkpt lat="46.57254" lon="4.99883">
        <ele>187.2</ele>
        <time>2022-06-25T08:18:53Z</time>
      </trkpt>
      <trkpt lat="46.57252" lon="4.99874">
        <ele>187.2</ele>
        <time>2022-06-25T08:18:54Z</time>
      </trkpt>
      <trkpt lat="46.57249" lon="4.99866">
        <ele>187.2</ele>
        <time>2022-06-25T08:18:55Z</time>
      </trkpt>
      <trkpt lat="46.57247" lon="4.99857">
        <ele>187.2</ele>
        <time>2022-06-25T08:18:56Z</time>
      </trkpt>
      <trkpt lat="46.57245" lon="4.99848">
        <ele>187.6</ele>
        <time>2022-06-25T08:18:57Z</time>
      </trkpt>
      <trkpt lat="46.57242" lon="4.9984">
        <ele>187.6</ele>
        <time>2022-06-25T08:18:58Z</time>
      </trkpt>
      <trkpt lat="46.5724" lon="4.99832">
        <ele>187.6</ele>
        <time>2022-06-25T08:18:59Z</time>
      </trkpt>
      <trkpt lat="46.57238" lon="4.99823">
        <ele>187.8</ele>
        <time>2022-06-25T08:19:00Z</time>
      </trkpt>
      <trkpt lat="46.57235" lon="4.99815">
        <ele>187.8</ele>
        <time>2022-06-25T08:19:01Z</time>
      </trkpt>
      <trkpt lat="46.57233" lon="4.99807">
        <ele>187.8</ele>
        <time>2022-06-25T08:19:02Z</time>
      </trkpt>
      <trkpt lat="46.5723" lon="4.99799">
        <ele>188.2</ele>
        <time>2022-06-25T08:19:03Z</time>
      </trkpt>
      <trkpt lat="46.57228" lon="4.99791">
        <ele>188.2</ele>
        <time>2022-06-25T08:19:04Z</time>
      </trkpt>
      <trkpt lat="46.57226" lon="4.99783">
        <ele>188.2</ele>
        <time>2022-06-25T08:19:05Z</time>
      </trkpt>
      <trkpt lat="46.57224" lon="4.99776">
        <ele>188.4</ele>
        <time>2022-06-25T08:19:06Z</time>
      </trkpt>
      <trkpt lat="46.57222" lon="4.99769">
        <ele>188.4</ele>
        <time>2022-06-25T08:19:07Z</time>
      </trkpt>
      <trkpt lat="46.5722" lon="4.99761">
        <ele>188.8</ele>
        <time>2022-06-25T08:19:08Z</time>
      </trkpt>
      <trkpt lat="46.57218" lon="4.99755">
        <ele>188.8</ele>
        <time>2022-06-25T08:19:09Z</time>
      </trkpt>
      <trkpt lat="46.57216" lon="4.99748">
        <ele>189</ele>
        <time>2022-06-25T08:19:10Z</time>
      </trkpt>
      <trkpt lat="46.57214" lon="4.99742">
        <ele>189</ele>
        <time>2022-06-25T08:19:11Z</time>
      </trkpt>
      <trkpt lat="46.57212" lon="4.99735">
        <ele>189.4</ele>
        <time>2022-06-25T08:19:12Z</time>
      </trkpt>
      <trkpt lat="46.5721" lon="4.99729">
        <ele>189.8</ele>
        <time>2022-06-25T08:19:13Z</time>
      </trkpt>
      <trkpt lat="46.57208" lon="4.99723">
        <ele>189.8</ele>
        <time>2022-06-25T08:19:14Z</time>
      </trkpt>
      <trkpt lat="46.57207" lon="4.99718">
        <ele>190.2</ele>
        <time>2022-06-25T08:19:15Z</time>
      </trkpt>
      <trkpt lat="46.57205" lon="4.99712">
        <ele>190.2</ele>
        <time>2022-06-25T08:19:16Z</time>
      </trkpt>
      <trkpt lat="46.57203" lon="4.99707">
        <ele>190.6</ele>
        <time>2022-06-25T08:19:17Z</time>
      </trkpt>
      <trkpt lat="46.57202" lon="4.99702">
        <ele>190.8</ele>
        <time>2022-06-25T08:19:18Z</time>
      </trkpt>
      <trkpt lat="46.572" lon="4.99697">
        <ele>190.8</ele>
        <time>2022-06-25T08:19:19Z</time>
      </trkpt>
      <trkpt lat="46.57199" lon="4.99692">
        <ele>191.2</ele>
        <time>2022-06-25T08:19:20Z</time>
      </trkpt>
      <trkpt lat="46.57198" lon="4.99688">
        <ele>191.4</ele>
        <time>2022-06-25T08:19:21Z</time>
      </trkpt>
      <trkpt lat="46.57197" lon="4.99683">
        <ele>191.4</ele>
        <time>2022-06-25T08:19:22Z</time>
      </trkpt>
      <trkpt lat="46.57195" lon="4.99678">
        <ele>191.8</ele>
        <time>2022-06-25T08:19:23Z</time>
      </trkpt>
      <trkpt lat="46.57194" lon="4.99674">
        <ele>191.8</ele>
        <time>2022-06-25T08:19:24Z</time>
      </trkpt>
      <trkpt lat="46.57193" lon="4.99669">
        <ele>192.2</ele>
        <time>2022-06-25T08:19:25Z</time>
      </trkpt>
      <trkpt lat="46.57192" lon="4.99665">
        <ele>192.4</ele>
        <time>2022-06-25T08:19:26Z</time>
      </trkpt>
      <trkpt lat="46.57191" lon="4.99661">
        <ele>192.8</ele>
        <time>2022-06-25T08:19:27Z</time>
      </trkpt>
      <trkpt lat="46.57189" lon="4.99657">
        <ele>193</ele>
        <time>2022-06-25T08:19:28Z</time>
      </trkpt>
      <trkpt lat="46.57188" lon="4.99653">
        <ele>193.4</ele>
        <time>2022-06-25T08:19:29Z</time>
      </trkpt>
      <trkpt lat="46.57187" lon="4.99649">
        <ele>193.6</ele>
        <time>2022-06-25T08:19:30Z</time>
      </trkpt>
      <trkpt lat="46.57186" lon="4.99645">
        <ele>193.8</ele>
        <time>2022-06-25T08:19:31Z</time>
      </trkpt>
      <trkpt lat="46.57185" lon="4.99641">
        <ele>194.2</ele>
        <time>2022-06-25T08:19:32Z</time>
      </trkpt>
      <trkpt lat="46.57184" lon="4.99637">
        <ele>194.4</ele>
        <time>2022-06-25T08:19:33Z</time>
      </trkpt>
      <trkpt lat="46.57183" lon="4.99634">
        <ele>194.6</ele>
        <time>2022-06-25T08:19:34Z</time>
      </trkpt>
      <trkpt lat="46.57182" lon="4.9963">
        <ele>195</ele>
        <time>2022-06-25T08:19:35Z</time>
      </trkpt>
      <trkpt lat="46.57181" lon="4.99627">
        <ele>195.2</ele>
        <time>2022-06-25T08:19:36Z</time>
      </trkpt>
      <trkpt lat="46.57179" lon="4.99624">
        <ele>195.4</ele>
        <time>2022-06-25T08:19:37Z</time>
      </trkpt>
      <trkpt lat="46.57178" lon="4.9962">
        <ele>195.8</ele>
        <time>2022-06-25T08:19:38Z</time>
      </trkpt>
      <trkpt lat="46.57178" lon="4.99617">
        <ele>196</ele>
        <time>2022-06-25T08:19:39Z</time>
      </trkpt>
      <trkpt lat="46.57177" lon="4.99613">
        <ele>196.2</ele>
        <time>2022-06-25T08:19:40Z</time>
      </trkpt>
      <trkpt lat="46.57176" lon="4.9961">
        <ele>196.4</ele>
        <time>2022-06-25T08:19:41Z</time>
      </trkpt>
      <trkpt lat="46.57175" lon="4.99606">
        <ele>196.6</ele>
        <time>2022-06-25T08:19:42Z</time>
      </trkpt>
      <trkpt lat="46.57174" lon="4.99603">
        <ele>196.8</ele>
        <time>2022-06-25T08:19:43Z</time>
      </trkpt>
      <trkpt lat="46.57173" lon="4.996">
        <ele>196.8</ele>
        <time>2022-06-25T08:19:44Z</time>
      </trkpt>
      <trkpt lat="46.57172" lon="4.99596">
        <ele>197.2</ele>
        <time>2022-06-25T08:19:45Z</time>
      </trkpt>
      <trkpt lat="46.57171" lon="4.99593">
        <ele>197.4</ele>
        <time>2022-06-25T08:19:46Z</time>
      </trkpt>
      <trkpt lat="46.57171" lon="4.99589">
        <ele>197.4</ele>
        <time>2022-06-25T08:19:47Z</time>
      </trkpt>
      <trkpt lat="46.5717" lon="4.99586">
        <ele>197.8</ele>
        <time>2022-06-25T08:19:48Z</time>
      </trkpt>
      <trkpt lat="46.57169" lon="4.99582">
        <ele>198</ele>
        <time>2022-06-25T08:19:49Z</time>
      </trkpt>
      <trkpt lat="46.57168" lon="4.99579">
        <ele>198.2</ele>
        <time>2022-06-25T08:19:50Z</time>
      </trkpt>
      <trkpt lat="46.57167" lon="4.99575">
        <ele>198.4</ele>
        <time>2022-06-25T08:19:51Z</time>
      </trkpt>
      <trkpt lat="46.57166" lon="4.99571">
        <ele>198.4</ele>
        <time>2022-06-25T08:19:52Z</time>
      </trkpt>
      <trkpt lat="46.57165" lon="4.99568">
        <ele>198.8</ele>
        <time>2022-06-25T08:19:53Z</time>
      </trkpt>
      <trkpt lat="46.57164" lon="4.99564">
        <ele>199</ele>
        <time>2022-06-25T08:19:54Z</time>
      </trkpt>
      <trkpt lat="46.57163" lon="4.9956">
        <ele>199.2</ele>
        <time>2022-06-25T08:19:55Z</time>
      </trkpt>
      <trkpt lat="46.57162" lon="4.99556">
        <ele>199.2</ele>
        <time>2022-06-25T08:19:56Z</time>
      </trkpt>
      <trkpt lat="46.57162" lon="4.99553">
        <ele>199.6</ele>
        <time>2022-06-25T08:19:57Z</time>
      </trkpt>
      <trkpt lat="46.57161" lon="4.99549">
        <ele>199.8</ele>
        <time>2022-06-25T08:19:58Z</time>
      </trkpt>
      <trkpt lat="46.5716" lon="4.99545">
        <ele>199.8</ele>
        <time>2022-06-25T08:19:59Z</time>
      </trkpt>
      <trkpt lat="46.57159" lon="4.99542">
        <ele>200.2</ele>
        <time>2022-06-25T08:20:00Z</time>
      </trkpt>
      <trkpt lat="46.57158" lon="4.99538">
        <ele>200.4</ele>
        <time>2022-06-25T08:20:01Z</time>
      </trkpt>
      <trkpt lat="46.57157" lon="4.99535">
        <ele>200.6</ele>
        <time>2022-06-25T08:20:02Z</time>
      </trkpt>
      <trkpt lat="46.57157" lon="4.99531">
        <ele>200.6</ele>
        <time>2022-06-25T08:20:03Z</time>
      </trkpt>
      <trkpt lat="46.57156" lon="4.99528">
        <ele>201</ele>
        <time>2022-06-25T08:20:04Z</time>
      </trkpt>
      <trkpt lat="46.57155" lon="4.99524">
        <ele>201.2</ele>
        <time>2022-06-25T08:20:05Z</time>
      </trkpt>
      <trkpt lat="46.57154" lon="4.99521">
        <ele>201.2</ele>
        <time>2022-06-25T08:20:06Z</time>
      </trkpt>
      <trkpt lat="46.57153" lon="4.99518">
        <ele>201.6</ele>
        <time>2022-06-25T08:20:07Z</time>
      </trkpt>
      <trkpt lat="46.57152" lon="4.99514">
        <ele>201.6</ele>
        <time>2022-06-25T08:20:08Z</time>
      </trkpt>
      <trkpt lat="46.57151" lon="4.99511">
        <ele>201.8</ele>
        <time>2022-06-25T08:20:09Z</time>
      </trkpt>
      <trkpt lat="46.5715" lon="4.99507">
        <ele>201.8</ele>
        <time>2022-06-25T08:20:10Z</time>
      </trkpt>
      <trkpt lat="46.57149" lon="4.99504">
        <ele>202.2</ele>
        <time>2022-06-25T08:20:11Z</time>
      </trkpt>
      <trkpt lat="46.57148" lon="4.99501">
        <ele>202.2</ele>
        <time>2022-06-25T08:20:12Z</time>
      </trkpt>
      <trkpt lat="46.57148" lon="4.99497">
        <ele>202.6</ele>
        <time>2022-06-25T08:20:13Z</time>
      </trkpt>
      <trkpt lat="46.57147" lon="4.99493">
        <ele>202.6</ele>
        <time>2022-06-25T08:20:14Z</time>
      </trkpt>
      <trkpt lat="46.57146" lon="4.9949">
        <ele>203</ele>
        <time>2022-06-25T08:20:15Z</time>
      </trkpt>
      <trkpt lat="46.57146" lon="4.99486">
        <ele>203</ele>
        <time>2022-06-25T08:20:16Z</time>
      </trkpt>
      <trkpt lat="46.57145" lon="4.99482">
        <ele>203.2</ele>
        <time>2022-06-25T08:20:17Z</time>
      </trkpt>
      <trkpt lat="46.57144" lon="4.99478">
        <ele>203.2</ele>
        <time>2022-06-25T08:20:18Z</time>
      </trkpt>
      <trkpt lat="46.57143" lon="4.99474">
        <ele>203.4</ele>
        <time>2022-06-25T08:20:19Z</time>
      </trkpt>
      <trkpt lat="46.57143" lon="4.9947">
        <ele>203.4</ele>
        <time>2022-06-25T08:20:20Z</time>
      </trkpt>
      <trkpt lat="46.57142" lon="4.99465">
        <ele>203.6</ele>
        <time>2022-06-25T08:20:21Z</time>
      </trkpt>
      <trkpt lat="46.57141" lon="4.99461">
        <ele>203.6</ele>
        <time>2022-06-25T08:20:22Z</time>
      </trkpt>
      <trkpt lat="46.57141" lon="4.99457">
        <ele>204</ele>
        <time>2022-06-25T08:20:23Z</time>
      </trkpt>
      <trkpt lat="46.5714" lon="4.99452">
        <ele>204</ele>
        <time>2022-06-25T08:20:24Z</time>
      </trkpt>
      <trkpt lat="46.5714" lon="4.99448">
        <ele>204.2</ele>
        <time>2022-06-25T08:20:25Z</time>
      </trkpt>
      <trkpt lat="46.57139" lon="4.99443">
        <ele>204.2</ele>
        <time>2022-06-25T08:20:26Z</time>
      </trkpt>
      <trkpt lat="46.57138" lon="4.99438">
        <ele>204.4</ele>
        <time>2022-06-25T08:20:27Z</time>
      </trkpt>
      <trkpt lat="46.57138" lon="4.99434">
        <ele>204.4</ele>
        <time>2022-06-25T08:20:28Z</time>
      </trkpt>
      <trkpt lat="46.57137" lon="4.99429">
        <ele>204.8</ele>
        <time>2022-06-25T08:20:29Z</time>
      </trkpt>
      <trkpt lat="46.57136" lon="4.99424">
        <ele>204.8</ele>
        <time>2022-06-25T08:20:30Z</time>
      </trkpt>
      <trkpt lat="46.57136" lon="4.99418">
        <ele>204.8</ele>
        <time>2022-06-25T08:20:31Z</time>
      </trkpt>
      <trkpt lat="46.57135" lon="4.99413">
        <ele>205</ele>
        <time>2022-06-25T08:20:32Z</time>
      </trkpt>
      <trkpt lat="46.57134" lon="4.99408">
        <ele>205</ele>
        <time>2022-06-25T08:20:33Z</time>
      </trkpt>
      <trkpt lat="46.57133" lon="4.99403">
        <ele>205</ele>
        <time>2022-06-25T08:20:34Z</time>
      </trkpt>
      <trkpt lat="46.57133" lon="4.99398">
        <ele>205.2</ele>
        <time>2022-06-25T08:20:35Z</time>
      </trkpt>
      <trkpt lat="46.57132" lon="4.99392">
        <ele>205.2</ele>
        <time>2022-06-25T08:20:36Z</time>
      </trkpt>
      <trkpt lat="46.57131" lon="4.99387">
        <ele>205.2</ele>
        <time>2022-06-25T08:20:37Z</time>
      </trkpt>
      <trkpt lat="46.57131" lon="4.99381">
        <ele>205.4</ele>
        <time>2022-06-25T08:20:38Z</time>
      </trkpt>
      <trkpt lat="46.5713" lon="4.99375">
        <ele>205.4</ele>
        <time>2022-06-25T08:20:39Z</time>
      </trkpt>
      <trkpt lat="46.57129" lon="4.99369">
        <ele>205.4</ele>
        <time>2022-06-25T08:20:40Z</time>
      </trkpt>
      <trkpt lat="46.57128" lon="4.99363">
        <ele>205.4</ele>
        <time>2022-06-25T08:20:41Z</time>
      </trkpt>
      <trkpt lat="46.57127" lon="4.99357">
        <ele>205.4</ele>
        <time>2022-06-25T08:20:42Z</time>
      </trkpt>
      <trkpt lat="46.57126" lon="4.99351">
        <ele>205.8</ele>
        <time>2022-06-25T08:20:43Z</time>
      </trkpt>
      <trkpt lat="46.57126" lon="4.99345">
        <ele>205.8</ele>
        <time>2022-06-25T08:20:44Z</time>
      </trkpt>
      <trkpt lat="46.57125" lon="4.99339">
        <ele>206</ele>
        <time>2022-06-25T08:20:45Z</time>
      </trkpt>
      <trkpt lat="46.57124" lon="4.99333">
        <ele>206</ele>
        <time>2022-06-25T08:20:46Z</time>
      </trkpt>
      <trkpt lat="46.57124" lon="4.99327">
        <ele>206.2</ele>
        <time>2022-06-25T08:20:47Z</time>
      </trkpt>
      <trkpt lat="46.57123" lon="4.99321">
        <ele>206.2</ele>
        <time>2022-06-25T08:20:48Z</time>
      </trkpt>
      <trkpt lat="46.57123" lon="4.99315">
        <ele>206.2</ele>
        <time>2022-06-25T08:20:49Z</time>
      </trkpt>
      <trkpt lat="46.57122" lon="4.99308">
        <ele>206.6</ele>
        <time>2022-06-25T08:20:50Z</time>
      </trkpt>
      <trkpt lat="46.57121" lon="4.99302">
        <ele>206.6</ele>
        <time>2022-06-25T08:20:51Z</time>
      </trkpt>
      <trkpt lat="46.5712" lon="4.99296">
        <ele>206.6</ele>
        <time>2022-06-25T08:20:52Z</time>
      </trkpt>
      <trkpt lat="46.5712" lon="4.99289">
        <ele>206.8</ele>
        <time>2022-06-25T08:20:53Z</time>
      </trkpt>
      <trkpt lat="46.57119" lon="4.99283">
        <ele>206.8</ele>
        <time>2022-06-25T08:20:54Z</time>
      </trkpt>
      <trkpt lat="46.57118" lon="4.99277">
        <ele>206.8</ele>
        <time>2022-06-25T08:20:55Z</time>
      </trkpt>
      <trkpt lat="46.57118" lon="4.99271">
        <ele>206.8</ele>
        <time>2022-06-25T08:20:56Z</time>
      </trkpt>
      <trkpt lat="46.57118" lon="4.99265">
        <ele>207</ele>
        <time>2022-06-25T08:20:57Z</time>
      </trkpt>
      <trkpt lat="46.57117" lon="4.99259">
        <ele>207</ele>
        <time>2022-06-25T08:20:58Z</time>
      </trkpt>
      <trkpt lat="46.57117" lon="4.99253">
        <ele>207</ele>
        <time>2022-06-25T08:20:59Z</time>
      </trkpt>
      <trkpt lat="46.57117" lon="4.99247">
        <ele>207</ele>
        <time>2022-06-25T08:21:00Z</time>
      </trkpt>
      <trkpt lat="46.57118" lon="4.9924">
        <ele>207</ele>
        <time>2022-06-25T08:21:01Z</time>
      </trkpt>
      <trkpt lat="46.57118" lon="4.99234">
        <ele>207</ele>
        <time>2022-06-25T08:21:02Z</time>
      </trkpt>
      <trkpt lat="46.57118" lon="4.99227">
        <ele>207</ele>
        <time>2022-06-25T08:21:03Z</time>
      </trkpt>
      <trkpt lat="46.57118" lon="4.9922">
        <ele>207</ele>
        <time>2022-06-25T08:21:04Z</time>
      </trkpt>
      <trkpt lat="46.57118" lon="4.99213">
        <ele>207</ele>
        <time>2022-06-25T08:21:05Z</time>
      </trkpt>
      <trkpt lat="46.57118" lon="4.99205">
        <ele>207.2</ele>
        <time>2022-06-25T08:21:06Z</time>
      </trkpt>
      <trkpt lat="46.57118" lon="4.99198">
        <ele>207.2</ele>
        <time>2022-06-25T08:21:07Z</time>
      </trkpt>
      <trkpt lat="46.57118" lon="4.9919">
        <ele>207.2</ele>
        <time>2022-06-25T08:21:08Z</time>
      </trkpt>
      <trkpt lat="46.57119" lon="4.99182">
        <ele>207.2</ele>
        <time>2022-06-25T08:21:09Z</time>
      </trkpt>
      <trkpt lat="46.57119" lon="4.99174">
        <ele>207.2</ele>
        <time>2022-06-25T08:21:10Z</time>
      </trkpt>
      <trkpt lat="46.57119" lon="4.99166">
        <ele>207.2</ele>
        <time>2022-06-25T08:21:11Z</time>
      </trkpt>
      <trkpt lat="46.5712" lon="4.99158">
        <ele>207.2</ele>
        <time>2022-06-25T08:21:12Z</time>
      </trkpt>
      <trkpt lat="46.5712" lon="4.99149">
        <ele>207.2</ele>
        <time>2022-06-25T08:21:13Z</time>
      </trkpt>
      <trkpt lat="46.5712" lon="4.99141">
        <ele>207.2</ele>
        <time>2022-06-25T08:21:14Z</time>
      </trkpt>
      <trkpt lat="46.5712" lon="4.99131">
        <ele>207.2</ele>
        <time>2022-06-25T08:21:15Z</time>
      </trkpt>
      <trkpt lat="46.57121" lon="4.99122">
        <ele>207.2</ele>
        <time>2022-06-25T08:21:16Z</time>
      </trkpt>
      <trkpt lat="46.57121" lon="4.99113">
        <ele>207.2</ele>
        <time>2022-06-25T08:21:17Z</time>
      </trkpt>
      <trkpt lat="46.57122" lon="4.99103">
        <ele>207.2</ele>
        <time>2022-06-25T08:21:18Z</time>
      </trkpt>
      <trkpt lat="46.57122" lon="4.99094">
        <ele>207.2</ele>
        <time>2022-06-25T08:21:19Z</time>
      </trkpt>
      <trkpt lat="46.57122" lon="4.99084">
        <ele>207.2</ele>
        <time>2022-06-25T08:21:20Z</time>
      </trkpt>
      <trkpt lat="46.57123" lon="4.99074">
        <ele>207.2</ele>
        <time>2022-06-25T08:21:21Z</time>
      </trkpt>
      <trkpt lat="46.57123" lon="4.99064">
        <ele>207.2</ele>
        <time>2022-06-25T08:21:22Z</time>
      </trkpt>
      <trkpt lat="46.57124" lon="4.99054">
        <ele>207.2</ele>
        <time>2022-06-25T08:21:23Z</time>
      </trkpt>
      <trkpt lat="46.57124" lon="4.99044">
        <ele>207</ele>
        <time>2022-06-25T08:21:24Z</time>
      </trkpt>
      <trkpt lat="46.57124" lon="4.99034">
        <ele>207</ele>
        <time>2022-06-25T08:21:25Z</time>
      </trkpt>
      <trkpt lat="46.57125" lon="4.99024">
        <ele>207</ele>
        <time>2022-06-25T08:21:26Z</time>
      </trkpt>
      <trkpt lat="46.57125" lon="4.99013">
        <ele>207</ele>
        <time>2022-06-25T08:21:27Z</time>
      </trkpt>
      <trkpt lat="46.57125" lon="4.99003">
        <ele>206.6</ele>
        <time>2022-06-25T08:21:28Z</time>
      </trkpt>
      <trkpt lat="46.57126" lon="4.98992">
        <ele>206.6</ele>
        <time>2022-06-25T08:21:29Z</time>
      </trkpt>
      <trkpt lat="46.57126" lon="4.98982">
        <ele>206.6</ele>
        <time>2022-06-25T08:21:30Z</time>
      </trkpt>
      <trkpt lat="46.57127" lon="4.98971">
        <ele>206.4</ele>
        <time>2022-06-25T08:21:31Z</time>
      </trkpt>
      <trkpt lat="46.57127" lon="4.98961">
        <ele>206.4</ele>
        <time>2022-06-25T08:21:32Z</time>
      </trkpt>
      <trkpt lat="46.57128" lon="4.9895">
        <ele>206.4</ele>
        <time>2022-06-25T08:21:33Z</time>
      </trkpt>
      <trkpt lat="46.57128" lon="4.9894">
        <ele>206.4</ele>
        <time>2022-06-25T08:21:34Z</time>
      </trkpt>
      <trkpt lat="46.57128" lon="4.98929">
        <ele>206.2</ele>
        <time>2022-06-25T08:21:35Z</time>
      </trkpt>
      <trkpt lat="46.57128" lon="4.98918">
        <ele>206.2</ele>
        <time>2022-06-25T08:21:36Z</time>
      </trkpt>
      <trkpt lat="46.57128" lon="4.98908">
        <ele>206.2</ele>
        <time>2022-06-25T08:21:37Z</time>
      </trkpt>
      <trkpt lat="46.57128" lon="4.98897">
        <ele>205.8</ele>
        <time>2022-06-25T08:21:38Z</time>
      </trkpt>
      <trkpt lat="46.57128" lon="4.98886">
        <ele>205.8</ele>
        <time>2022-06-25T08:21:39Z</time>
      </trkpt>
      <trkpt lat="46.57127" lon="4.98875">
        <ele>205.8</ele>
        <time>2022-06-25T08:21:40Z</time>
      </trkpt>
      <trkpt lat="46.57127" lon="4.98865">
        <ele>205.8</ele>
        <time>2022-06-25T08:21:41Z</time>
      </trkpt>
      <trkpt lat="46.57126" lon="4.98854">
        <ele>205.8</ele>
        <time>2022-06-25T08:21:42Z</time>
      </trkpt>
      <trkpt lat="46.57126" lon="4.98844">
        <ele>205.6</ele>
        <time>2022-06-25T08:21:43Z</time>
      </trkpt>
      <trkpt lat="46.57126" lon="4.98833">
        <ele>205.6</ele>
        <time>2022-06-25T08:21:44Z</time>
      </trkpt>
      <trkpt lat="46.57126" lon="4.98822">
        <ele>205.6</ele>
        <time>2022-06-25T08:21:45Z</time>
      </trkpt>
      <trkpt lat="46.57125" lon="4.98812">
        <ele>205.4</ele>
        <time>2022-06-25T08:21:46Z</time>
      </trkpt>
      <trkpt lat="46.57125" lon="4.98802">
        <ele>205.4</ele>
        <time>2022-06-25T08:21:47Z</time>
      </trkpt>
      <trkpt lat="46.57125" lon="4.98792">
        <ele>205.4</ele>
        <time>2022-06-25T08:21:48Z</time>
      </trkpt>
      <trkpt lat="46.57124" lon="4.98783">
        <ele>205.4</ele>
        <time>2022-06-25T08:21:49Z</time>
      </trkpt>
      <trkpt lat="46.57124" lon="4.98773">
        <ele>205.2</ele>
        <time>2022-06-25T08:21:50Z</time>
      </trkpt>
      <trkpt lat="46.57124" lon="4.98764">
        <ele>205.2</ele>
        <time>2022-06-25T08:21:51Z</time>
      </trkpt>
      <trkpt lat="46.57124" lon="4.98754">
        <ele>205.2</ele>
        <time>2022-06-25T08:21:52Z</time>
      </trkpt>
      <trkpt lat="46.57123" lon="4.98745">
        <ele>205.2</ele>
        <time>2022-06-25T08:21:53Z</time>
      </trkpt>
      <trkpt lat="46.57123" lon="4.98735">
        <ele>205.2</ele>
        <time>2022-06-25T08:21:54Z</time>
      </trkpt>
      <trkpt lat="46.57122" lon="4.98726">
        <ele>205.2</ele>
        <time>2022-06-25T08:21:55Z</time>
      </trkpt>
      <trkpt lat="46.5712" lon="4.98717">
        <ele>205.2</ele>
        <time>2022-06-25T08:21:56Z</time>
      </trkpt>
      <trkpt lat="46.57119" lon="4.98708">
        <ele>204.8</ele>
        <time>2022-06-25T08:21:57Z</time>
      </trkpt>
      <trkpt lat="46.57117" lon="4.98699">
        <ele>204.8</ele>
        <time>2022-06-25T08:21:59Z</time>
      </trkpt>
      <trkpt lat="46.57115" lon="4.98691">
        <ele>204.8</ele>
        <time>2022-06-25T08:22:00Z</time>
      </trkpt>
      <trkpt lat="46.57112" lon="4.98683">
        <ele>204.6</ele>
        <time>2022-06-25T08:22:01Z</time>
      </trkpt>
      <trkpt lat="46.57109" lon="4.98676">
        <ele>204.6</ele>
        <time>2022-06-25T08:22:02Z</time>
      </trkpt>
      <trkpt lat="46.57107" lon="4.98668">
        <ele>204.6</ele>
        <time>2022-06-25T08:22:03Z</time>
      </trkpt>
      <trkpt lat="46.57105" lon="4.98661">
        <ele>204.6</ele>
        <time>2022-06-25T08:22:04Z</time>
      </trkpt>
      <trkpt lat="46.57103" lon="4.98654">
        <ele>204.6</ele>
        <time>2022-06-25T08:22:05Z</time>
      </trkpt>
      <trkpt lat="46.57102" lon="4.98647">
        <ele>204.6</ele>
        <time>2022-06-25T08:22:06Z</time>
      </trkpt>
      <trkpt lat="46.571" lon="4.9864">
        <ele>204.6</ele>
        <time>2022-06-25T08:22:07Z</time>
      </trkpt>
      <trkpt lat="46.57099" lon="4.98634">
        <ele>204.6</ele>
        <time>2022-06-25T08:22:08Z</time>
      </trkpt>
      <trkpt lat="46.57098" lon="4.98629">
        <ele>204.2</ele>
        <time>2022-06-25T08:22:09Z</time>
      </trkpt>
      <trkpt lat="46.57097" lon="4.98625">
        <ele>204.2</ele>
        <time>2022-06-25T08:22:10Z</time>
      </trkpt>
      <trkpt lat="46.57097" lon="4.98622">
        <ele>204.2</ele>
        <time>2022-06-25T08:22:11Z</time>
      </trkpt>
      <trkpt lat="46.57096" lon="4.98621">
        <ele>204.2</ele>
        <time>2022-06-25T08:22:12Z</time>
      </trkpt>
      <trkpt lat="46.57096" lon="4.98622">
        <ele>204</ele>
        <time>2022-06-25T08:22:14Z</time>
      </trkpt>
      <trkpt lat="46.57095" lon="4.9862">
        <ele>204</ele>
        <time>2022-06-25T08:22:18Z</time>
      </trkpt>
      <trkpt lat="46.57095" lon="4.98617">
        <ele>204</ele>
        <time>2022-06-25T08:22:19Z</time>
      </trkpt>
      <trkpt lat="46.57094" lon="4.98614">
        <ele>204</ele>
        <time>2022-06-25T08:22:20Z</time>
      </trkpt>
      <trkpt lat="46.57093" lon="4.9861">
        <ele>204</ele>
        <time>2022-06-25T08:22:21Z</time>
      </trkpt>
      <trkpt lat="46.57091" lon="4.98606">
        <ele>204.4</ele>
        <time>2022-06-25T08:22:22Z</time>
      </trkpt>
      <trkpt lat="46.57089" lon="4.98602">
        <ele>204.4</ele>
        <time>2022-06-25T08:22:23Z</time>
      </trkpt>
      <trkpt lat="46.57087" lon="4.98597">
        <ele>204.4</ele>
        <time>2022-06-25T08:22:24Z</time>
      </trkpt>
      <trkpt lat="46.57085" lon="4.98591">
        <ele>204.4</ele>
        <time>2022-06-25T08:22:25Z</time>
      </trkpt>
      <trkpt lat="46.57083" lon="4.98585">
        <ele>204.4</ele>
        <time>2022-06-25T08:22:26Z</time>
      </trkpt>
      <trkpt lat="46.57081" lon="4.98577">
        <ele>204.4</ele>
        <time>2022-06-25T08:22:27Z</time>
      </trkpt>
      <trkpt lat="46.5708" lon="4.9857">
        <ele>204.4</ele>
        <time>2022-06-25T08:22:28Z</time>
      </trkpt>
      <trkpt lat="46.57078" lon="4.98562">
        <ele>204.4</ele>
        <time>2022-06-25T08:22:29Z</time>
      </trkpt>
      <trkpt lat="46.57078" lon="4.98554">
        <ele>204.4</ele>
        <time>2022-06-25T08:22:30Z</time>
      </trkpt>
      <trkpt lat="46.57078" lon="4.98546">
        <ele>204</ele>
        <time>2022-06-25T08:22:31Z</time>
      </trkpt>
      <trkpt lat="46.57079" lon="4.98539">
        <ele>204</ele>
        <time>2022-06-25T08:22:32Z</time>
      </trkpt>
      <trkpt lat="46.57079" lon="4.9853">
        <ele>203.8</ele>
        <time>2022-06-25T08:22:33Z</time>
      </trkpt>
      <trkpt lat="46.5708" lon="4.98522">
        <ele>203.8</ele>
        <time>2022-06-25T08:22:34Z</time>
      </trkpt>
      <trkpt lat="46.57081" lon="4.98513">
        <ele>203.8</ele>
        <time>2022-06-25T08:22:35Z</time>
      </trkpt>
      <trkpt lat="46.57081" lon="4.98505">
        <ele>203.4</ele>
        <time>2022-06-25T08:22:36Z</time>
      </trkpt>
      <trkpt lat="46.57082" lon="4.98497">
        <ele>203.4</ele>
        <time>2022-06-25T08:22:37Z</time>
      </trkpt>
      <trkpt lat="46.57083" lon="4.98488">
        <ele>203.4</ele>
        <time>2022-06-25T08:22:38Z</time>
      </trkpt>
      <trkpt lat="46.57083" lon="4.9848">
        <ele>203.4</ele>
        <time>2022-06-25T08:22:39Z</time>
      </trkpt>
      <trkpt lat="46.57082" lon="4.98472">
        <ele>203.4</ele>
        <time>2022-06-25T08:22:40Z</time>
      </trkpt>
      <trkpt lat="46.57082" lon="4.98464">
        <ele>203.4</ele>
        <time>2022-06-25T08:22:41Z</time>
      </trkpt>
      <trkpt lat="46.57081" lon="4.98456">
        <ele>203.4</ele>
        <time>2022-06-25T08:22:42Z</time>
      </trkpt>
      <trkpt lat="46.5708" lon="4.98447">
        <ele>203.4</ele>
        <time>2022-06-25T08:22:43Z</time>
      </trkpt>
      <trkpt lat="46.57079" lon="4.98438">
        <ele>203.4</ele>
        <time>2022-06-25T08:22:44Z</time>
      </trkpt>
      <trkpt lat="46.57078" lon="4.98429">
        <ele>203.4</ele>
        <time>2022-06-25T08:22:45Z</time>
      </trkpt>
      <trkpt lat="46.57077" lon="4.9842">
        <ele>203.4</ele>
        <time>2022-06-25T08:22:46Z</time>
      </trkpt>
      <trkpt lat="46.57076" lon="4.9841">
        <ele>203.4</ele>
        <time>2022-06-25T08:22:47Z</time>
      </trkpt>
      <trkpt lat="46.57075" lon="4.98401">
        <ele>203.4</ele>
        <time>2022-06-25T08:22:48Z</time>
      </trkpt>
      <trkpt lat="46.57074" lon="4.98392">
        <ele>203.4</ele>
        <time>2022-06-25T08:22:49Z</time>
      </trkpt>
      <trkpt lat="46.57074" lon="4.98383">
        <ele>203.4</ele>
        <time>2022-06-25T08:22:50Z</time>
      </trkpt>
      <trkpt lat="46.57073" lon="4.98373">
        <ele>203.4</ele>
        <time>2022-06-25T08:22:51Z</time>
      </trkpt>
      <trkpt lat="46.57072" lon="4.98364">
        <ele>203.4</ele>
        <time>2022-06-25T08:22:52Z</time>
      </trkpt>
      <trkpt lat="46.57071" lon="4.98354">
        <ele>203.4</ele>
        <time>2022-06-25T08:22:53Z</time>
      </trkpt>
      <trkpt lat="46.5707" lon="4.98345">
        <ele>203.4</ele>
        <time>2022-06-25T08:22:54Z</time>
      </trkpt>
      <trkpt lat="46.57069" lon="4.98335">
        <ele>203.4</ele>
        <time>2022-06-25T08:22:55Z</time>
      </trkpt>
      <trkpt lat="46.57069" lon="4.98326">
        <ele>203.4</ele>
        <time>2022-06-25T08:22:56Z</time>
      </trkpt>
      <trkpt lat="46.57068" lon="4.98316">
        <ele>203.4</ele>
        <time>2022-06-25T08:22:57Z</time>
      </trkpt>
      <trkpt lat="46.57067" lon="4.98307">
        <ele>203.4</ele>
        <time>2022-06-25T08:22:58Z</time>
      </trkpt>
      <trkpt lat="46.57066" lon="4.98297">
        <ele>203.4</ele>
        <time>2022-06-25T08:22:59Z</time>
      </trkpt>
      <trkpt lat="46.57066" lon="4.98288">
        <ele>203.4</ele>
        <time>2022-06-25T08:23:00Z</time>
      </trkpt>
      <trkpt lat="46.57065" lon="4.98278">
        <ele>203.4</ele>
        <time>2022-06-25T08:23:01Z</time>
      </trkpt>
      <trkpt lat="46.57064" lon="4.98269">
        <ele>203.4</ele>
        <time>2022-06-25T08:23:02Z</time>
      </trkpt>
      <trkpt lat="46.57063" lon="4.9826">
        <ele>203.4</ele>
        <time>2022-06-25T08:23:03Z</time>
      </trkpt>
      <trkpt lat="46.57062" lon="4.98251">
        <ele>203.4</ele>
        <time>2022-06-25T08:23:04Z</time>
      </trkpt>
      <trkpt lat="46.57062" lon="4.98241">
        <ele>203.4</ele>
        <time>2022-06-25T08:23:05Z</time>
      </trkpt>
      <trkpt lat="46.57061" lon="4.98232">
        <ele>203.4</ele>
        <time>2022-06-25T08:23:06Z</time>
      </trkpt>
      <trkpt lat="46.5706" lon="4.98223">
        <ele>203.4</ele>
        <time>2022-06-25T08:23:07Z</time>
      </trkpt>
      <trkpt lat="46.5706" lon="4.98213">
        <ele>203.4</ele>
        <time>2022-06-25T08:23:08Z</time>
      </trkpt>
      <trkpt lat="46.57059" lon="4.98204">
        <ele>203.4</ele>
        <time>2022-06-25T08:23:09Z</time>
      </trkpt>
      <trkpt lat="46.57058" lon="4.98195">
        <ele>203.4</ele>
        <time>2022-06-25T08:23:10Z</time>
      </trkpt>
      <trkpt lat="46.57058" lon="4.98186">
        <ele>203.4</ele>
        <time>2022-06-25T08:23:11Z</time>
      </trkpt>
      <trkpt lat="46.57057" lon="4.98177">
        <ele>203.4</ele>
        <time>2022-06-25T08:23:12Z</time>
      </trkpt>
      <trkpt lat="46.57056" lon="4.98168">
        <ele>203.4</ele>
        <time>2022-06-25T08:23:13Z</time>
      </trkpt>
      <trkpt lat="46.57056" lon="4.9816">
        <ele>203.4</ele>
        <time>2022-06-25T08:23:14Z</time>
      </trkpt>
      <trkpt lat="46.57055" lon="4.98151">
        <ele>203.4</ele>
        <time>2022-06-25T08:23:15Z</time>
      </trkpt>
      <trkpt lat="46.57055" lon="4.98142">
        <ele>203.4</ele>
        <time>2022-06-25T08:23:16Z</time>
      </trkpt>
      <trkpt lat="46.57054" lon="4.98133">
        <ele>203.4</ele>
        <time>2022-06-25T08:23:17Z</time>
      </trkpt>
      <trkpt lat="46.57053" lon="4.98124">
        <ele>203.4</ele>
        <time>2022-06-25T08:23:18Z</time>
      </trkpt>
      <trkpt lat="46.57053" lon="4.98115">
        <ele>203.4</ele>
        <time>2022-06-25T08:23:19Z</time>
      </trkpt>
      <trkpt lat="46.57052" lon="4.98106">
        <ele>203.4</ele>
        <time>2022-06-25T08:23:20Z</time>
      </trkpt>
      <trkpt lat="46.57051" lon="4.98097">
        <ele>203.4</ele>
        <time>2022-06-25T08:23:21Z</time>
      </trkpt>
      <trkpt lat="46.5705" lon="4.98088">
        <ele>203.4</ele>
        <time>2022-06-25T08:23:22Z</time>
      </trkpt>
      <trkpt lat="46.5705" lon="4.98079">
        <ele>203.4</ele>
        <time>2022-06-25T08:23:23Z</time>
      </trkpt>
      <trkpt lat="46.57049" lon="4.98071">
        <ele>203.4</ele>
        <time>2022-06-25T08:23:24Z</time>
      </trkpt>
      <trkpt lat="46.57048" lon="4.98062">
        <ele>203.4</ele>
        <time>2022-06-25T08:23:25Z</time>
      </trkpt>
      <trkpt lat="46.57048" lon="4.98053">
        <ele>203.6</ele>
        <time>2022-06-25T08:23:26Z</time>
      </trkpt>
      <trkpt lat="46.57047" lon="4.98044">
        <ele>203.6</ele>
        <time>2022-06-25T08:23:27Z</time>
      </trkpt>
      <trkpt lat="46.57047" lon="4.98035">
        <ele>203.6</ele>
        <time>2022-06-25T08:23:28Z</time>
      </trkpt>
      <trkpt lat="46.57046" lon="4.98027">
        <ele>203.6</ele>
        <time>2022-06-25T08:23:29Z</time>
      </trkpt>
      <trkpt lat="46.57046" lon="4.98018">
        <ele>203.6</ele>
        <time>2022-06-25T08:23:30Z</time>
      </trkpt>
      <trkpt lat="46.57045" lon="4.98009">
        <ele>203.6</ele>
        <time>2022-06-25T08:23:31Z</time>
      </trkpt>
      <trkpt lat="46.57044" lon="4.98">
        <ele>204</ele>
        <time>2022-06-25T08:23:32Z</time>
      </trkpt>
      <trkpt lat="46.57044" lon="4.97991">
        <ele>204</ele>
        <time>2022-06-25T08:23:33Z</time>
      </trkpt>
      <trkpt lat="46.57043" lon="4.97982">
        <ele>204</ele>
        <time>2022-06-25T08:23:34Z</time>
      </trkpt>
      <trkpt lat="46.57042" lon="4.97973">
        <ele>204</ele>
        <time>2022-06-25T08:23:35Z</time>
      </trkpt>
      <trkpt lat="46.57041" lon="4.97963">
        <ele>204.2</ele>
        <time>2022-06-25T08:23:36Z</time>
      </trkpt>
      <trkpt lat="46.5704" lon="4.97954">
        <ele>204.2</ele>
        <time>2022-06-25T08:23:37Z</time>
      </trkpt>
      <trkpt lat="46.5704" lon="4.97946">
        <ele>204.4</ele>
        <time>2022-06-25T08:23:38Z</time>
      </trkpt>
      <trkpt lat="46.57039" lon="4.97937">
        <ele>204.4</ele>
        <time>2022-06-25T08:23:39Z</time>
      </trkpt>
      <trkpt lat="46.57038" lon="4.97928">
        <ele>204.4</ele>
        <time>2022-06-25T08:23:40Z</time>
      </trkpt>
      <trkpt lat="46.57038" lon="4.97919">
        <ele>204.4</ele>
        <time>2022-06-25T08:23:41Z</time>
      </trkpt>
      <trkpt lat="46.57037" lon="4.9791">
        <ele>204.4</ele>
        <time>2022-06-25T08:23:42Z</time>
      </trkpt>
      <trkpt lat="46.57036" lon="4.97901">
        <ele>204.4</ele>
        <time>2022-06-25T08:23:43Z</time>
      </trkpt>
      <trkpt lat="46.57036" lon="4.97892">
        <ele>204.6</ele>
        <time>2022-06-25T08:23:44Z</time>
      </trkpt>
      <trkpt lat="46.57035" lon="4.97884">
        <ele>204.6</ele>
        <time>2022-06-25T08:23:45Z</time>
      </trkpt>
      <trkpt lat="46.57034" lon="4.97875">
        <ele>204.6</ele>
        <time>2022-06-25T08:23:46Z</time>
      </trkpt>
      <trkpt lat="46.57033" lon="4.97866">
        <ele>204.6</ele>
        <time>2022-06-25T08:23:47Z</time>
      </trkpt>
      <trkpt lat="46.57032" lon="4.97857">
        <ele>204.6</ele>
        <time>2022-06-25T08:23:48Z</time>
      </trkpt>
      <trkpt lat="46.57032" lon="4.97849">
        <ele>204.6</ele>
        <time>2022-06-25T08:23:49Z</time>
      </trkpt>
      <trkpt lat="46.57031" lon="4.9784">
        <ele>204.6</ele>
        <time>2022-06-25T08:23:50Z</time>
      </trkpt>
      <trkpt lat="46.5703" lon="4.97831">
        <ele>204.6</ele>
        <time>2022-06-25T08:23:51Z</time>
      </trkpt>
      <trkpt lat="46.57029" lon="4.97822">
        <ele>204.6</ele>
        <time>2022-06-25T08:23:52Z</time>
      </trkpt>
      <trkpt lat="46.57028" lon="4.97813">
        <ele>204.6</ele>
        <time>2022-06-25T08:23:53Z</time>
      </trkpt>
      <trkpt lat="46.57027" lon="4.97804">
        <ele>204.6</ele>
        <time>2022-06-25T08:23:54Z</time>
      </trkpt>
      <trkpt lat="46.57026" lon="4.97795">
        <ele>204.6</ele>
        <time>2022-06-25T08:23:55Z</time>
      </trkpt>
      <trkpt lat="46.57026" lon="4.97786">
        <ele>204.8</ele>
        <time>2022-06-25T08:23:56Z</time>
      </trkpt>
      <trkpt lat="46.57025" lon="4.97777">
        <ele>204.8</ele>
        <time>2022-06-25T08:23:57Z</time>
      </trkpt>
      <trkpt lat="46.57024" lon="4.97768">
        <ele>204.8</ele>
        <time>2022-06-25T08:23:58Z</time>
      </trkpt>
      <trkpt lat="46.57023" lon="4.97759">
        <ele>204.8</ele>
        <time>2022-06-25T08:23:59Z</time>
      </trkpt>
      <trkpt lat="46.57022" lon="4.9775">
        <ele>204.8</ele>
        <time>2022-06-25T08:24:00Z</time>
      </trkpt>
      <trkpt lat="46.57021" lon="4.97741">
        <ele>205</ele>
        <time>2022-06-25T08:24:01Z</time>
      </trkpt>
      <trkpt lat="46.57021" lon="4.97732">
        <ele>205</ele>
        <time>2022-06-25T08:24:02Z</time>
      </trkpt>
      <trkpt lat="46.5702" lon="4.97723">
        <ele>205</ele>
        <time>2022-06-25T08:24:03Z</time>
      </trkpt>
      <trkpt lat="46.5702" lon="4.97714">
        <ele>205</ele>
        <time>2022-06-25T08:24:04Z</time>
      </trkpt>
      <trkpt lat="46.57019" lon="4.97705">
        <ele>205</ele>
        <time>2022-06-25T08:24:05Z</time>
      </trkpt>
      <trkpt lat="46.57018" lon="4.97695">
        <ele>205.2</ele>
        <time>2022-06-25T08:24:06Z</time>
      </trkpt>
      <trkpt lat="46.57017" lon="4.97686">
        <ele>205.2</ele>
        <time>2022-06-25T08:24:07Z</time>
      </trkpt>
      <trkpt lat="46.57017" lon="4.97677">
        <ele>205.2</ele>
        <time>2022-06-25T08:24:08Z</time>
      </trkpt>
      <trkpt lat="46.57016" lon="4.97668">
        <ele>205.2</ele>
        <time>2022-06-25T08:24:09Z</time>
      </trkpt>
      <trkpt lat="46.57015" lon="4.97658">
        <ele>205.2</ele>
        <time>2022-06-25T08:24:10Z</time>
      </trkpt>
      <trkpt lat="46.57014" lon="4.97649">
        <ele>205.2</ele>
        <time>2022-06-25T08:24:11Z</time>
      </trkpt>
      <trkpt lat="46.57014" lon="4.97639">
        <ele>205.2</ele>
        <time>2022-06-25T08:24:12Z</time>
      </trkpt>
      <trkpt lat="46.57013" lon="4.9763">
        <ele>205.2</ele>
        <time>2022-06-25T08:24:13Z</time>
      </trkpt>
      <trkpt lat="46.57012" lon="4.9762">
        <ele>205.2</ele>
        <time>2022-06-25T08:24:14Z</time>
      </trkpt>
      <trkpt lat="46.57011" lon="4.9761">
        <ele>205.2</ele>
        <time>2022-06-25T08:24:15Z</time>
      </trkpt>
      <trkpt lat="46.5701" lon="4.97601">
        <ele>205.2</ele>
        <time>2022-06-25T08:24:16Z</time>
      </trkpt>
      <trkpt lat="46.5701" lon="4.97591">
        <ele>205.4</ele>
        <time>2022-06-25T08:24:17Z</time>
      </trkpt>
      <trkpt lat="46.57009" lon="4.97582">
        <ele>205.4</ele>
        <time>2022-06-25T08:24:18Z</time>
      </trkpt>
      <trkpt lat="46.57009" lon="4.97572">
        <ele>205.4</ele>
        <time>2022-06-25T08:24:19Z</time>
      </trkpt>
      <trkpt lat="46.57008" lon="4.97562">
        <ele>205.4</ele>
        <time>2022-06-25T08:24:20Z</time>
      </trkpt>
      <trkpt lat="46.57007" lon="4.97553">
        <ele>205.4</ele>
        <time>2022-06-25T08:24:21Z</time>
      </trkpt>
      <trkpt lat="46.57006" lon="4.97543">
        <ele>205.4</ele>
        <time>2022-06-25T08:24:22Z</time>
      </trkpt>
      <trkpt lat="46.57005" lon="4.97533">
        <ele>205.4</ele>
        <time>2022-06-25T08:24:23Z</time>
      </trkpt>
      <trkpt lat="46.57005" lon="4.97524">
        <ele>205.4</ele>
        <time>2022-06-25T08:24:24Z</time>
      </trkpt>
      <trkpt lat="46.57004" lon="4.97514">
        <ele>205.4</ele>
        <time>2022-06-25T08:24:25Z</time>
      </trkpt>
      <trkpt lat="46.57003" lon="4.97505">
        <ele>205.8</ele>
        <time>2022-06-25T08:24:26Z</time>
      </trkpt>
      <trkpt lat="46.57003" lon="4.97496">
        <ele>205.8</ele>
        <time>2022-06-25T08:24:27Z</time>
      </trkpt>
      <trkpt lat="46.57002" lon="4.97486">
        <ele>205.8</ele>
        <time>2022-06-25T08:24:28Z</time>
      </trkpt>
      <trkpt lat="46.57001" lon="4.97477">
        <ele>205.8</ele>
        <time>2022-06-25T08:24:29Z</time>
      </trkpt>
      <trkpt lat="46.57" lon="4.97467">
        <ele>205.8</ele>
        <time>2022-06-25T08:24:30Z</time>
      </trkpt>
      <trkpt lat="46.56999" lon="4.97458">
        <ele>206</ele>
        <time>2022-06-25T08:24:31Z</time>
      </trkpt>
      <trkpt lat="46.56998" lon="4.97449">
        <ele>206</ele>
        <time>2022-06-25T08:24:32Z</time>
      </trkpt>
      <trkpt lat="46.56997" lon="4.97439">
        <ele>206</ele>
        <time>2022-06-25T08:24:33Z</time>
      </trkpt>
      <trkpt lat="46.56997" lon="4.9743">
        <ele>206</ele>
        <time>2022-06-25T08:24:34Z</time>
      </trkpt>
      <trkpt lat="46.56996" lon="4.97421">
        <ele>206</ele>
        <time>2022-06-25T08:24:35Z</time>
      </trkpt>
      <trkpt lat="46.56995" lon="4.97412">
        <ele>206.2</ele>
        <time>2022-06-25T08:24:36Z</time>
      </trkpt>
      <trkpt lat="46.56995" lon="4.97402">
        <ele>206.2</ele>
        <time>2022-06-25T08:24:37Z</time>
      </trkpt>
      <trkpt lat="46.56994" lon="4.97393">
        <ele>206.2</ele>
        <time>2022-06-25T08:24:38Z</time>
      </trkpt>
      <trkpt lat="46.56993" lon="4.97384">
        <ele>206.2</ele>
        <time>2022-06-25T08:24:39Z</time>
      </trkpt>
      <trkpt lat="46.56992" lon="4.97375">
        <ele>206.2</ele>
        <time>2022-06-25T08:24:40Z</time>
      </trkpt>
      <trkpt lat="46.56992" lon="4.97366">
        <ele>206.2</ele>
        <time>2022-06-25T08:24:41Z</time>
      </trkpt>
      <trkpt lat="46.56991" lon="4.97357">
        <ele>206.2</ele>
        <time>2022-06-25T08:24:42Z</time>
      </trkpt>
      <trkpt lat="46.56991" lon="4.97348">
        <ele>206.2</ele>
        <time>2022-06-25T08:24:43Z</time>
      </trkpt>
      <trkpt lat="46.5699" lon="4.97339">
        <ele>206.2</ele>
        <time>2022-06-25T08:24:44Z</time>
      </trkpt>
      <trkpt lat="46.56989" lon="4.97329">
        <ele>206.2</ele>
        <time>2022-06-25T08:24:45Z</time>
      </trkpt>
      <trkpt lat="46.56988" lon="4.9732">
        <ele>206.2</ele>
        <time>2022-06-25T08:24:46Z</time>
      </trkpt>
      <trkpt lat="46.56988" lon="4.97311">
        <ele>206.2</ele>
        <time>2022-06-25T08:24:47Z</time>
      </trkpt>
      <trkpt lat="46.56987" lon="4.97302">
        <ele>206.4</ele>
        <time>2022-06-25T08:24:48Z</time>
      </trkpt>
      <trkpt lat="46.56986" lon="4.97293">
        <ele>206.4</ele>
        <time>2022-06-25T08:24:49Z</time>
      </trkpt>
      <trkpt lat="46.56985" lon="4.97284">
        <ele>206.4</ele>
        <time>2022-06-25T08:24:50Z</time>
      </trkpt>
      <trkpt lat="46.56984" lon="4.97275">
        <ele>206.4</ele>
        <time>2022-06-25T08:24:51Z</time>
      </trkpt>
      <trkpt lat="46.56984" lon="4.97266">
        <ele>206.4</ele>
        <time>2022-06-25T08:24:52Z</time>
      </trkpt>
      <trkpt lat="46.56983" lon="4.97257">
        <ele>206.4</ele>
        <time>2022-06-25T08:24:53Z</time>
      </trkpt>
      <trkpt lat="46.56982" lon="4.97248">
        <ele>206.4</ele>
        <time>2022-06-25T08:24:54Z</time>
      </trkpt>
      <trkpt lat="46.56982" lon="4.9724">
        <ele>206.4</ele>
        <time>2022-06-25T08:24:55Z</time>
      </trkpt>
      <trkpt lat="46.56981" lon="4.97231">
        <ele>206.4</ele>
        <time>2022-06-25T08:24:56Z</time>
      </trkpt>
      <trkpt lat="46.5698" lon="4.97222">
        <ele>206.4</ele>
        <time>2022-06-25T08:24:57Z</time>
      </trkpt>
      <trkpt lat="46.5698" lon="4.97213">
        <ele>206.4</ele>
        <time>2022-06-25T08:24:58Z</time>
      </trkpt>
      <trkpt lat="46.56979" lon="4.97204">
        <ele>206.4</ele>
        <time>2022-06-25T08:24:59Z</time>
      </trkpt>
      <trkpt lat="46.56978" lon="4.97196">
        <ele>206.4</ele>
        <time>2022-06-25T08:25:00Z</time>
      </trkpt>
      <trkpt lat="46.56977" lon="4.97187">
        <ele>206.6</ele>
        <time>2022-06-25T08:25:01Z</time>
      </trkpt>
      <trkpt lat="46.56977" lon="4.97178">
        <ele>206.6</ele>
        <time>2022-06-25T08:25:02Z</time>
      </trkpt>
      <trkpt lat="46.56976" lon="4.97169">
        <ele>206.6</ele>
        <time>2022-06-25T08:25:03Z</time>
      </trkpt>
      <trkpt lat="46.56975" lon="4.97161">
        <ele>206.6</ele>
        <time>2022-06-25T08:25:04Z</time>
      </trkpt>
      <trkpt lat="46.56974" lon="4.97152">
        <ele>206.8</ele>
        <time>2022-06-25T08:25:05Z</time>
      </trkpt>
      <trkpt lat="46.56973" lon="4.97143">
        <ele>206.8</ele>
        <time>2022-06-25T08:25:06Z</time>
      </trkpt>
      <trkpt lat="46.56973" lon="4.97134">
        <ele>206.8</ele>
        <time>2022-06-25T08:25:07Z</time>
      </trkpt>
      <trkpt lat="46.56972" lon="4.97125">
        <ele>206.8</ele>
        <time>2022-06-25T08:25:08Z</time>
      </trkpt>
      <trkpt lat="46.56971" lon="4.97116">
        <ele>206.8</ele>
        <time>2022-06-25T08:25:09Z</time>
      </trkpt>
      <trkpt lat="46.56971" lon="4.97106">
        <ele>206.8</ele>
        <time>2022-06-25T08:25:10Z</time>
      </trkpt>
      <trkpt lat="46.5697" lon="4.97097">
        <ele>206.8</ele>
        <time>2022-06-25T08:25:11Z</time>
      </trkpt>
      <trkpt lat="46.56969" lon="4.97088">
        <ele>206.8</ele>
        <time>2022-06-25T08:25:12Z</time>
      </trkpt>
      <trkpt lat="46.56968" lon="4.97079">
        <ele>206.8</ele>
        <time>2022-06-25T08:25:13Z</time>
      </trkpt>
      <trkpt lat="46.56967" lon="4.9707">
        <ele>206.8</ele>
        <time>2022-06-25T08:25:14Z</time>
      </trkpt>
      <trkpt lat="46.56967" lon="4.97061">
        <ele>206.8</ele>
        <time>2022-06-25T08:25:15Z</time>
      </trkpt>
      <trkpt lat="46.56966" lon="4.97053">
        <ele>207</ele>
        <time>2022-06-25T08:25:16Z</time>
      </trkpt>
      <trkpt lat="46.56965" lon="4.97044">
        <ele>207</ele>
        <time>2022-06-25T08:25:17Z</time>
      </trkpt>
      <trkpt lat="46.56965" lon="4.97035">
        <ele>207</ele>
        <time>2022-06-25T08:25:18Z</time>
      </trkpt>
      <trkpt lat="46.56963" lon="4.97026">
        <ele>207</ele>
        <time>2022-06-25T08:25:19Z</time>
      </trkpt>
      <trkpt lat="46.56962" lon="4.97017">
        <ele>207</ele>
        <time>2022-06-25T08:25:20Z</time>
      </trkpt>
      <trkpt lat="46.56961" lon="4.97008">
        <ele>207</ele>
        <time>2022-06-25T08:25:21Z</time>
      </trkpt>
      <trkpt lat="46.56961" lon="4.96999">
        <ele>207</ele>
        <time>2022-06-25T08:25:22Z</time>
      </trkpt>
      <trkpt lat="46.5696" lon="4.9699">
        <ele>207</ele>
        <time>2022-06-25T08:25:23Z</time>
      </trkpt>
      <trkpt lat="46.56959" lon="4.9698">
        <ele>207</ele>
        <time>2022-06-25T08:25:24Z</time>
      </trkpt>
      <trkpt lat="46.56958" lon="4.96971">
        <ele>207</ele>
        <time>2022-06-25T08:25:25Z</time>
      </trkpt>
      <trkpt lat="46.56957" lon="4.96961">
        <ele>207</ele>
        <time>2022-06-25T08:25:26Z</time>
      </trkpt>
      <trkpt lat="46.56956" lon="4.96952">
        <ele>207</ele>
        <time>2022-06-25T08:25:27Z</time>
      </trkpt>
      <trkpt lat="46.56955" lon="4.96943">
        <ele>207</ele>
        <time>2022-06-25T08:25:28Z</time>
      </trkpt>
      <trkpt lat="46.56954" lon="4.96933">
        <ele>207</ele>
        <time>2022-06-25T08:25:29Z</time>
      </trkpt>
      <trkpt lat="46.56953" lon="4.96924">
        <ele>207</ele>
        <time>2022-06-25T08:25:30Z</time>
      </trkpt>
      <trkpt lat="46.56952" lon="4.96915">
        <ele>207</ele>
        <time>2022-06-25T08:25:31Z</time>
      </trkpt>
      <trkpt lat="46.56952" lon="4.96906">
        <ele>207</ele>
        <time>2022-06-25T08:25:32Z</time>
      </trkpt>
      <trkpt lat="46.56951" lon="4.96896">
        <ele>207</ele>
        <time>2022-06-25T08:25:33Z</time>
      </trkpt>
      <trkpt lat="46.56951" lon="4.96887">
        <ele>206.8</ele>
        <time>2022-06-25T08:25:34Z</time>
      </trkpt>
      <trkpt lat="46.56951" lon="4.96878">
        <ele>206.8</ele>
        <time>2022-06-25T08:25:35Z</time>
      </trkpt>
      <trkpt lat="46.56951" lon="4.96869">
        <ele>206.8</ele>
        <time>2022-06-25T08:25:36Z</time>
      </trkpt>
      <trkpt lat="46.5695" lon="4.9686">
        <ele>206.8</ele>
        <time>2022-06-25T08:25:37Z</time>
      </trkpt>
      <trkpt lat="46.56949" lon="4.9685">
        <ele>206.8</ele>
        <time>2022-06-25T08:25:38Z</time>
      </trkpt>
      <trkpt lat="46.56949" lon="4.96841">
        <ele>206.8</ele>
        <time>2022-06-25T08:25:39Z</time>
      </trkpt>
      <trkpt lat="46.56948" lon="4.96831">
        <ele>206.8</ele>
        <time>2022-06-25T08:25:40Z</time>
      </trkpt>
      <trkpt lat="46.56947" lon="4.96821">
        <ele>206.6</ele>
        <time>2022-06-25T08:25:41Z</time>
      </trkpt>
      <trkpt lat="46.56946" lon="4.96811">
        <ele>206.6</ele>
        <time>2022-06-25T08:25:42Z</time>
      </trkpt>
      <trkpt lat="46.56946" lon="4.96801">
        <ele>206.6</ele>
        <time>2022-06-25T08:25:43Z</time>
      </trkpt>
      <trkpt lat="46.56945" lon="4.96791">
        <ele>206.6</ele>
        <time>2022-06-25T08:25:44Z</time>
      </trkpt>
      <trkpt lat="46.56944" lon="4.96781">
        <ele>206.6</ele>
        <time>2022-06-25T08:25:45Z</time>
      </trkpt>
      <trkpt lat="46.56943" lon="4.96771">
        <ele>206.2</ele>
        <time>2022-06-25T08:25:46Z</time>
      </trkpt>
      <trkpt lat="46.56942" lon="4.96761">
        <ele>206.2</ele>
        <time>2022-06-25T08:25:47Z</time>
      </trkpt>
      <trkpt lat="46.56941" lon="4.96751">
        <ele>206.2</ele>
        <time>2022-06-25T08:25:48Z</time>
      </trkpt>
      <trkpt lat="46.56941" lon="4.96742">
        <ele>206</ele>
        <time>2022-06-25T08:25:49Z</time>
      </trkpt>
      <trkpt lat="46.5694" lon="4.96732">
        <ele>206</ele>
        <time>2022-06-25T08:25:50Z</time>
      </trkpt>
      <trkpt lat="46.56939" lon="4.96723">
        <ele>206</ele>
        <time>2022-06-25T08:25:51Z</time>
      </trkpt>
      <trkpt lat="46.56938" lon="4.96713">
        <ele>205.6</ele>
        <time>2022-06-25T08:25:52Z</time>
      </trkpt>
      <trkpt lat="46.56937" lon="4.96704">
        <ele>205.6</ele>
        <time>2022-06-25T08:25:53Z</time>
      </trkpt>
      <trkpt lat="46.56937" lon="4.96694">
        <ele>205.4</ele>
        <time>2022-06-25T08:25:54Z</time>
      </trkpt>
      <trkpt lat="46.56936" lon="4.96685">
        <ele>205.2</ele>
        <time>2022-06-25T08:25:55Z</time>
      </trkpt>
      <trkpt lat="46.56935" lon="4.96676">
        <ele>205.2</ele>
        <time>2022-06-25T08:25:56Z</time>
      </trkpt>
      <trkpt lat="46.56934" lon="4.96667">
        <ele>205.2</ele>
        <time>2022-06-25T08:25:57Z</time>
      </trkpt>
      <trkpt lat="46.56933" lon="4.96658">
        <ele>205.2</ele>
        <time>2022-06-25T08:25:58Z</time>
      </trkpt>
      <trkpt lat="46.56932" lon="4.96648">
        <ele>205.2</ele>
        <time>2022-06-25T08:25:59Z</time>
      </trkpt>
      <trkpt lat="46.56932" lon="4.96639">
        <ele>205.2</ele>
        <time>2022-06-25T08:26:00Z</time>
      </trkpt>
      <trkpt lat="46.56931" lon="4.96629">
        <ele>205</ele>
        <time>2022-06-25T08:26:01Z</time>
      </trkpt>
      <trkpt lat="46.5693" lon="4.9662">
        <ele>205</ele>
        <time>2022-06-25T08:26:02Z</time>
      </trkpt>
      <trkpt lat="46.56929" lon="4.9661">
        <ele>205</ele>
        <time>2022-06-25T08:26:03Z</time>
      </trkpt>
      <trkpt lat="46.56928" lon="4.966">
        <ele>204.6</ele>
        <time>2022-06-25T08:26:04Z</time>
      </trkpt>
      <trkpt lat="46.56927" lon="4.9659">
        <ele>204.6</ele>
        <time>2022-06-25T08:26:05Z</time>
      </trkpt>
      <trkpt lat="46.56926" lon="4.96581">
        <ele>204.6</ele>
        <time>2022-06-25T08:26:06Z</time>
      </trkpt>
      <trkpt lat="46.56925" lon="4.96571">
        <ele>204.4</ele>
        <time>2022-06-25T08:26:07Z</time>
      </trkpt>
      <trkpt lat="46.56924" lon="4.96562">
        <ele>204.4</ele>
        <time>2022-06-25T08:26:08Z</time>
      </trkpt>
      <trkpt lat="46.56924" lon="4.96552">
        <ele>204.4</ele>
        <time>2022-06-25T08:26:09Z</time>
      </trkpt>
      <trkpt lat="46.56923" lon="4.96542">
        <ele>204.4</ele>
        <time>2022-06-25T08:26:10Z</time>
      </trkpt>
      <trkpt lat="46.56923" lon="4.96533">
        <ele>204.4</ele>
        <time>2022-06-25T08:26:11Z</time>
      </trkpt>
      <trkpt lat="46.56922" lon="4.96523">
        <ele>204.4</ele>
        <time>2022-06-25T08:26:12Z</time>
      </trkpt>
      <trkpt lat="46.56922" lon="4.96514">
        <ele>204.4</ele>
        <time>2022-06-25T08:26:13Z</time>
      </trkpt>
      <trkpt lat="46.56921" lon="4.96504">
        <ele>204.4</ele>
        <time>2022-06-25T08:26:14Z</time>
      </trkpt>
      <trkpt lat="46.56921" lon="4.96494">
        <ele>204.2</ele>
        <time>2022-06-25T08:26:15Z</time>
      </trkpt>
      <trkpt lat="46.56921" lon="4.96484">
        <ele>204.2</ele>
        <time>2022-06-25T08:26:16Z</time>
      </trkpt>
      <trkpt lat="46.56921" lon="4.96474">
        <ele>204.2</ele>
        <time>2022-06-25T08:26:17Z</time>
      </trkpt>
      <trkpt lat="46.5692" lon="4.96464">
        <ele>204</ele>
        <time>2022-06-25T08:26:18Z</time>
      </trkpt>
      <trkpt lat="46.5692" lon="4.96454">
        <ele>204</ele>
        <time>2022-06-25T08:26:19Z</time>
      </trkpt>
      <trkpt lat="46.5692" lon="4.96444">
        <ele>204</ele>
        <time>2022-06-25T08:26:20Z</time>
      </trkpt>
      <trkpt lat="46.56919" lon="4.96433">
        <ele>203.6</ele>
        <time>2022-06-25T08:26:21Z</time>
      </trkpt>
      <trkpt lat="46.56919" lon="4.96423">
        <ele>203.6</ele>
        <time>2022-06-25T08:26:22Z</time>
      </trkpt>
      <trkpt lat="46.56919" lon="4.96413">
        <ele>203.6</ele>
        <time>2022-06-25T08:26:23Z</time>
      </trkpt>
      <trkpt lat="46.56918" lon="4.96403">
        <ele>203.6</ele>
        <time>2022-06-25T08:26:24Z</time>
      </trkpt>
      <trkpt lat="46.56918" lon="4.96393">
        <ele>203.4</ele>
        <time>2022-06-25T08:26:25Z</time>
      </trkpt>
      <trkpt lat="46.56918" lon="4.96383">
        <ele>203.4</ele>
        <time>2022-06-25T08:26:26Z</time>
      </trkpt>
      <trkpt lat="46.56917" lon="4.96372">
        <ele>203.4</ele>
        <time>2022-06-25T08:26:27Z</time>
      </trkpt>
      <trkpt lat="46.56917" lon="4.96362">
        <ele>203.4</ele>
        <time>2022-06-25T08:26:28Z</time>
      </trkpt>
      <trkpt lat="46.56917" lon="4.96351">
        <ele>203.2</ele>
        <time>2022-06-25T08:26:29Z</time>
      </trkpt>
      <trkpt lat="46.56917" lon="4.96341">
        <ele>203.2</ele>
        <time>2022-06-25T08:26:30Z</time>
      </trkpt>
      <trkpt lat="46.56916" lon="4.9633">
        <ele>203.2</ele>
        <time>2022-06-25T08:26:31Z</time>
      </trkpt>
      <trkpt lat="46.56916" lon="4.9632">
        <ele>203</ele>
        <time>2022-06-25T08:26:32Z</time>
      </trkpt>
      <trkpt lat="46.56916" lon="4.96309">
        <ele>203</ele>
        <time>2022-06-25T08:26:33Z</time>
      </trkpt>
      <trkpt lat="46.56915" lon="4.96299">
        <ele>202.8</ele>
        <time>2022-06-25T08:26:34Z</time>
      </trkpt>
      <trkpt lat="46.56915" lon="4.96288">
        <ele>202.8</ele>
        <time>2022-06-25T08:26:35Z</time>
      </trkpt>
      <trkpt lat="46.56915" lon="4.96278">
        <ele>202.8</ele>
        <time>2022-06-25T08:26:36Z</time>
      </trkpt>
      <trkpt lat="46.56914" lon="4.96267">
        <ele>202.8</ele>
        <time>2022-06-25T08:26:37Z</time>
      </trkpt>
      <trkpt lat="46.56914" lon="4.96256">
        <ele>202.8</ele>
        <time>2022-06-25T08:26:38Z</time>
      </trkpt>
      <trkpt lat="46.56914" lon="4.96246">
        <ele>202.4</ele>
        <time>2022-06-25T08:26:39Z</time>
      </trkpt>
      <trkpt lat="46.56914" lon="4.96235">
        <ele>202.4</ele>
        <time>2022-06-25T08:26:40Z</time>
      </trkpt>
      <trkpt lat="46.56914" lon="4.96225">
        <ele>202.4</ele>
        <time>2022-06-25T08:26:41Z</time>
      </trkpt>
      <trkpt lat="46.56914" lon="4.96214">
        <ele>202.2</ele>
        <time>2022-06-25T08:26:42Z</time>
      </trkpt>
      <trkpt lat="46.56914" lon="4.96204">
        <ele>202.2</ele>
        <time>2022-06-25T08:26:43Z</time>
      </trkpt>
      <trkpt lat="46.56913" lon="4.96193">
        <ele>202.2</ele>
        <time>2022-06-25T08:26:44Z</time>
      </trkpt>
      <trkpt lat="46.56913" lon="4.96183">
        <ele>202</ele>
        <time>2022-06-25T08:26:45Z</time>
      </trkpt>
      <trkpt lat="46.56912" lon="4.96172">
        <ele>202</ele>
        <time>2022-06-25T08:26:46Z</time>
      </trkpt>
      <trkpt lat="46.56912" lon="4.96162">
        <ele>202</ele>
        <time>2022-06-25T08:26:47Z</time>
      </trkpt>
      <trkpt lat="46.56911" lon="4.96152">
        <ele>202</ele>
        <time>2022-06-25T08:26:48Z</time>
      </trkpt>
      <trkpt lat="46.56911" lon="4.96142">
        <ele>202</ele>
        <time>2022-06-25T08:26:49Z</time>
      </trkpt>
      <trkpt lat="46.5691" lon="4.96132">
        <ele>202</ele>
        <time>2022-06-25T08:26:50Z</time>
      </trkpt>
      <trkpt lat="46.5691" lon="4.96122">
        <ele>201.8</ele>
        <time>2022-06-25T08:26:51Z</time>
      </trkpt>
      <trkpt lat="46.5691" lon="4.96112">
        <ele>201.8</ele>
        <time>2022-06-25T08:26:52Z</time>
      </trkpt>
      <trkpt lat="46.56909" lon="4.96102">
        <ele>201.6</ele>
        <time>2022-06-25T08:26:53Z</time>
      </trkpt>
      <trkpt lat="46.56909" lon="4.96092">
        <ele>201.6</ele>
        <time>2022-06-25T08:26:54Z</time>
      </trkpt>
      <trkpt lat="46.56908" lon="4.96081">
        <ele>201.6</ele>
        <time>2022-06-25T08:26:55Z</time>
      </trkpt>
      <trkpt lat="46.56908" lon="4.96071">
        <ele>201.4</ele>
        <time>2022-06-25T08:26:57Z</time>
      </trkpt>
      <trkpt lat="46.56908" lon="4.9606">
        <ele>201</ele>
        <time>2022-06-25T08:26:58Z</time>
      </trkpt>
      <trkpt lat="46.56907" lon="4.9605">
        <ele>201</ele>
        <time>2022-06-25T08:26:59Z</time>
      </trkpt>
      <trkpt lat="46.56907" lon="4.96039">
        <ele>200.8</ele>
        <time>2022-06-25T08:27:00Z</time>
      </trkpt>
      <trkpt lat="46.56907" lon="4.96028">
        <ele>200.8</ele>
        <time>2022-06-25T08:27:01Z</time>
      </trkpt>
      <trkpt lat="46.56907" lon="4.96018">
        <ele>200.8</ele>
        <time>2022-06-25T08:27:02Z</time>
      </trkpt>
      <trkpt lat="46.56906" lon="4.96008">
        <ele>200.8</ele>
        <time>2022-06-25T08:27:03Z</time>
      </trkpt>
      <trkpt lat="46.56905" lon="4.95998">
        <ele>200.6</ele>
        <time>2022-06-25T08:27:04Z</time>
      </trkpt>
      <trkpt lat="46.56904" lon="4.95988">
        <ele>200.6</ele>
        <time>2022-06-25T08:27:05Z</time>
      </trkpt>
      <trkpt lat="46.56903" lon="4.95978">
        <ele>200.6</ele>
        <time>2022-06-25T08:27:06Z</time>
      </trkpt>
      <trkpt lat="46.56901" lon="4.95968">
        <ele>200.6</ele>
        <time>2022-06-25T08:27:07Z</time>
      </trkpt>
      <trkpt lat="46.56899" lon="4.95959">
        <ele>200.6</ele>
        <time>2022-06-25T08:27:08Z</time>
      </trkpt>
      <trkpt lat="46.56896" lon="4.95949">
        <ele>200.4</ele>
        <time>2022-06-25T08:27:09Z</time>
      </trkpt>
      <trkpt lat="46.56892" lon="4.95941">
        <ele>200.4</ele>
        <time>2022-06-25T08:27:10Z</time>
      </trkpt>
      <trkpt lat="46.56889" lon="4.95932">
        <ele>200.2</ele>
        <time>2022-06-25T08:27:11Z</time>
      </trkpt>
      <trkpt lat="46.56885" lon="4.95923">
        <ele>200.2</ele>
        <time>2022-06-25T08:27:12Z</time>
      </trkpt>
      <trkpt lat="46.56882" lon="4.95914">
        <ele>199.8</ele>
        <time>2022-06-25T08:27:13Z</time>
      </trkpt>
      <trkpt lat="46.56878" lon="4.95905">
        <ele>199.4</ele>
        <time>2022-06-25T08:27:14Z</time>
      </trkpt>
      <trkpt lat="46.56874" lon="4.95896">
        <ele>199.2</ele>
        <time>2022-06-25T08:27:15Z</time>
      </trkpt>
      <trkpt lat="46.5687" lon="4.95886">
        <ele>199</ele>
        <time>2022-06-25T08:27:16Z</time>
      </trkpt>
      <trkpt lat="46.56866" lon="4.95877">
        <ele>198.8</ele>
        <time>2022-06-25T08:27:17Z</time>
      </trkpt>
      <trkpt lat="46.56862" lon="4.95867">
        <ele>198.4</ele>
        <time>2022-06-25T08:27:18Z</time>
      </trkpt>
      <trkpt lat="46.56858" lon="4.95857">
        <ele>198.2</ele>
        <time>2022-06-25T08:27:19Z</time>
      </trkpt>
      <trkpt lat="46.56854" lon="4.95847">
        <ele>198</ele>
        <time>2022-06-25T08:27:20Z</time>
      </trkpt>
      <trkpt lat="46.56849" lon="4.95837">
        <ele>197.6</ele>
        <time>2022-06-25T08:27:21Z</time>
      </trkpt>
      <trkpt lat="46.56845" lon="4.95826">
        <ele>197.4</ele>
        <time>2022-06-25T08:27:22Z</time>
      </trkpt>
      <trkpt lat="46.5684" lon="4.95816">
        <ele>197.2</ele>
        <time>2022-06-25T08:27:23Z</time>
      </trkpt>
      <trkpt lat="46.56836" lon="4.95806">
        <ele>196.8</ele>
        <time>2022-06-25T08:27:24Z</time>
      </trkpt>
      <trkpt lat="46.56831" lon="4.95795">
        <ele>196.8</ele>
        <time>2022-06-25T08:27:25Z</time>
      </trkpt>
      <trkpt lat="46.56826" lon="4.95785">
        <ele>196.6</ele>
        <time>2022-06-25T08:27:26Z</time>
      </trkpt>
      <trkpt lat="46.56822" lon="4.95775">
        <ele>196.6</ele>
        <time>2022-06-25T08:27:27Z</time>
      </trkpt>
      <trkpt lat="46.56818" lon="4.95764">
        <ele>196.2</ele>
        <time>2022-06-25T08:27:28Z</time>
      </trkpt>
      <trkpt lat="46.56813" lon="4.95752">
        <ele>196</ele>
        <time>2022-06-25T08:27:29Z</time>
      </trkpt>
      <trkpt lat="46.56809" lon="4.95741">
        <ele>195.6</ele>
        <time>2022-06-25T08:27:30Z</time>
      </trkpt>
      <trkpt lat="46.56805" lon="4.9573">
        <ele>195.2</ele>
        <time>2022-06-25T08:27:31Z</time>
      </trkpt>
      <trkpt lat="46.568" lon="4.95718">
        <ele>194.8</ele>
        <time>2022-06-25T08:27:32Z</time>
      </trkpt>
      <trkpt lat="46.56796" lon="4.95706">
        <ele>194.6</ele>
        <time>2022-06-25T08:27:33Z</time>
      </trkpt>
      <trkpt lat="46.56792" lon="4.95693">
        <ele>194.6</ele>
        <time>2022-06-25T08:27:34Z</time>
      </trkpt>
      <trkpt lat="46.56789" lon="4.95682">
        <ele>194.2</ele>
        <time>2022-06-25T08:27:35Z</time>
      </trkpt>
      <trkpt lat="46.56786" lon="4.95669">
        <ele>194</ele>
        <time>2022-06-25T08:27:36Z</time>
      </trkpt>
      <trkpt lat="46.56783" lon="4.95657">
        <ele>194</ele>
        <time>2022-06-25T08:27:37Z</time>
      </trkpt>
      <trkpt lat="46.5678" lon="4.95644">
        <ele>193.6</ele>
        <time>2022-06-25T08:27:38Z</time>
      </trkpt>
      <trkpt lat="46.56777" lon="4.95632">
        <ele>193.2</ele>
        <time>2022-06-25T08:27:39Z</time>
      </trkpt>
      <trkpt lat="46.56773" lon="4.9562">
        <ele>193.2</ele>
        <time>2022-06-25T08:27:40Z</time>
      </trkpt>
      <trkpt lat="46.5677" lon="4.95609">
        <ele>192.8</ele>
        <time>2022-06-25T08:27:41Z</time>
      </trkpt>
      <trkpt lat="46.56767" lon="4.95597">
        <ele>192.8</ele>
        <time>2022-06-25T08:27:42Z</time>
      </trkpt>
      <trkpt lat="46.56763" lon="4.95586">
        <ele>192.6</ele>
        <time>2022-06-25T08:27:43Z</time>
      </trkpt>
      <trkpt lat="46.5676" lon="4.95574">
        <ele>192.6</ele>
        <time>2022-06-25T08:27:44Z</time>
      </trkpt>
      <trkpt lat="46.56757" lon="4.95563">
        <ele>192.6</ele>
        <time>2022-06-25T08:27:45Z</time>
      </trkpt>
      <trkpt lat="46.56754" lon="4.95551">
        <ele>192.2</ele>
        <time>2022-06-25T08:27:46Z</time>
      </trkpt>
      <trkpt lat="46.56751" lon="4.9554">
        <ele>192.2</ele>
        <time>2022-06-25T08:27:47Z</time>
      </trkpt>
      <trkpt lat="46.56748" lon="4.95529">
        <ele>192.2</ele>
        <time>2022-06-25T08:27:48Z</time>
      </trkpt>
      <trkpt lat="46.56745" lon="4.95519">
        <ele>192.2</ele>
        <time>2022-06-25T08:27:49Z</time>
      </trkpt>
      <trkpt lat="46.56743" lon="4.95508">
        <ele>192</ele>
        <time>2022-06-25T08:27:50Z</time>
      </trkpt>
      <trkpt lat="46.56741" lon="4.95497">
        <ele>192</ele>
        <time>2022-06-25T08:27:51Z</time>
      </trkpt>
      <trkpt lat="46.5674" lon="4.95486">
        <ele>191.8</ele>
        <time>2022-06-25T08:27:52Z</time>
      </trkpt>
      <trkpt lat="46.5674" lon="4.95475">
        <ele>191.8</ele>
        <time>2022-06-25T08:27:53Z</time>
      </trkpt>
      <trkpt lat="46.5674" lon="4.95465">
        <ele>191.8</ele>
        <time>2022-06-25T08:27:54Z</time>
      </trkpt>
      <trkpt lat="46.56741" lon="4.95455">
        <ele>191.8</ele>
        <time>2022-06-25T08:27:55Z</time>
      </trkpt>
      <trkpt lat="46.56742" lon="4.95445">
        <ele>191.8</ele>
        <time>2022-06-25T08:27:56Z</time>
      </trkpt>
      <trkpt lat="46.56744" lon="4.95435">
        <ele>191.8</ele>
        <time>2022-06-25T08:27:57Z</time>
      </trkpt>
      <trkpt lat="46.56745" lon="4.95425">
        <ele>191.8</ele>
        <time>2022-06-25T08:27:58Z</time>
      </trkpt>
      <trkpt lat="46.56747" lon="4.95416">
        <ele>191.8</ele>
        <time>2022-06-25T08:27:59Z</time>
      </trkpt>
      <trkpt lat="46.56749" lon="4.95406">
        <ele>191.8</ele>
        <time>2022-06-25T08:28:00Z</time>
      </trkpt>
      <trkpt lat="46.56751" lon="4.95397">
        <ele>191.8</ele>
        <time>2022-06-25T08:28:01Z</time>
      </trkpt>
      <trkpt lat="46.56752" lon="4.95388">
        <ele>191.8</ele>
        <time>2022-06-25T08:28:02Z</time>
      </trkpt>
      <trkpt lat="46.56754" lon="4.95379">
        <ele>191.6</ele>
        <time>2022-06-25T08:28:03Z</time>
      </trkpt>
      <trkpt lat="46.56755" lon="4.9537">
        <ele>191.6</ele>
        <time>2022-06-25T08:28:04Z</time>
      </trkpt>
      <trkpt lat="46.56757" lon="4.95361">
        <ele>191.6</ele>
        <time>2022-06-25T08:28:05Z</time>
      </trkpt>
      <trkpt lat="46.56759" lon="4.95353">
        <ele>191.6</ele>
        <time>2022-06-25T08:28:06Z</time>
      </trkpt>
      <trkpt lat="46.56761" lon="4.95344">
        <ele>191.6</ele>
        <time>2022-06-25T08:28:07Z</time>
      </trkpt>
      <trkpt lat="46.56762" lon="4.95335">
        <ele>191.2</ele>
        <time>2022-06-25T08:28:08Z</time>
      </trkpt>
      <trkpt lat="46.56764" lon="4.95326">
        <ele>191.2</ele>
        <time>2022-06-25T08:28:09Z</time>
      </trkpt>
      <trkpt lat="46.56766" lon="4.95317">
        <ele>191.2</ele>
        <time>2022-06-25T08:28:10Z</time>
      </trkpt>
      <trkpt lat="46.56768" lon="4.95308">
        <ele>191.2</ele>
        <time>2022-06-25T08:28:11Z</time>
      </trkpt>
      <trkpt lat="46.56769" lon="4.95299">
        <ele>191.2</ele>
        <time>2022-06-25T08:28:12Z</time>
      </trkpt>
      <trkpt lat="46.56771" lon="4.9529">
        <ele>191.2</ele>
        <time>2022-06-25T08:28:13Z</time>
      </trkpt>
      <trkpt lat="46.56773" lon="4.95281">
        <ele>191.2</ele>
        <time>2022-06-25T08:28:14Z</time>
      </trkpt>
      <trkpt lat="46.56775" lon="4.95272">
        <ele>191.2</ele>
        <time>2022-06-25T08:28:15Z</time>
      </trkpt>
      <trkpt lat="46.56776" lon="4.95263">
        <ele>191.2</ele>
        <time>2022-06-25T08:28:16Z</time>
      </trkpt>
      <trkpt lat="46.56778" lon="4.95254">
        <ele>191.2</ele>
        <time>2022-06-25T08:28:17Z</time>
      </trkpt>
      <trkpt lat="46.56779" lon="4.95245">
        <ele>191.2</ele>
        <time>2022-06-25T08:28:18Z</time>
      </trkpt>
      <trkpt lat="46.56781" lon="4.95236">
        <ele>191.2</ele>
        <time>2022-06-25T08:28:19Z</time>
      </trkpt>
      <trkpt lat="46.56783" lon="4.95227">
        <ele>191.2</ele>
        <time>2022-06-25T08:28:20Z</time>
      </trkpt>
      <trkpt lat="46.56784" lon="4.95219">
        <ele>191.2</ele>
        <time>2022-06-25T08:28:21Z</time>
      </trkpt>
      <trkpt lat="46.56786" lon="4.9521">
        <ele>191.2</ele>
        <time>2022-06-25T08:28:22Z</time>
      </trkpt>
      <trkpt lat="46.56787" lon="4.95201">
        <ele>191</ele>
        <time>2022-06-25T08:28:23Z</time>
      </trkpt>
      <trkpt lat="46.56789" lon="4.95192">
        <ele>191</ele>
        <time>2022-06-25T08:28:24Z</time>
      </trkpt>
      <trkpt lat="46.5679" lon="4.95184">
        <ele>191</ele>
        <time>2022-06-25T08:28:25Z</time>
      </trkpt>
      <trkpt lat="46.56791" lon="4.95175">
        <ele>191</ele>
        <time>2022-06-25T08:28:26Z</time>
      </trkpt>
      <trkpt lat="46.56793" lon="4.95167">
        <ele>190.8</ele>
        <time>2022-06-25T08:28:27Z</time>
      </trkpt>
      <trkpt lat="46.56794" lon="4.95158">
        <ele>190.8</ele>
        <time>2022-06-25T08:28:28Z</time>
      </trkpt>
      <trkpt lat="46.56795" lon="4.9515">
        <ele>190.8</ele>
        <time>2022-06-25T08:28:29Z</time>
      </trkpt>
      <trkpt lat="46.56796" lon="4.95142">
        <ele>190.8</ele>
        <time>2022-06-25T08:28:30Z</time>
      </trkpt>
      <trkpt lat="46.56797" lon="4.95134">
        <ele>190.8</ele>
        <time>2022-06-25T08:28:31Z</time>
      </trkpt>
      <trkpt lat="46.56798" lon="4.95127">
        <ele>190.8</ele>
        <time>2022-06-25T08:28:32Z</time>
      </trkpt>
      <trkpt lat="46.56798" lon="4.95119">
        <ele>190.8</ele>
        <time>2022-06-25T08:28:33Z</time>
      </trkpt>
      <trkpt lat="46.56799" lon="4.95111">
        <ele>190.8</ele>
        <time>2022-06-25T08:28:34Z</time>
      </trkpt>
      <trkpt lat="46.568" lon="4.95104">
        <ele>190.8</ele>
        <time>2022-06-25T08:28:35Z</time>
      </trkpt>
      <trkpt lat="46.568" lon="4.95096">
        <ele>190.8</ele>
        <time>2022-06-25T08:28:36Z</time>
      </trkpt>
      <trkpt lat="46.56801" lon="4.95089">
        <ele>190.8</ele>
        <time>2022-06-25T08:28:37Z</time>
      </trkpt>
      <trkpt lat="46.56801" lon="4.95082">
        <ele>190.8</ele>
        <time>2022-06-25T08:28:38Z</time>
      </trkpt>
      <trkpt lat="46.56801" lon="4.95075">
        <ele>190.8</ele>
        <time>2022-06-25T08:28:39Z</time>
      </trkpt>
      <trkpt lat="46.56802" lon="4.95067">
        <ele>190.8</ele>
        <time>2022-06-25T08:28:40Z</time>
      </trkpt>
      <trkpt lat="46.56803" lon="4.9506">
        <ele>190.6</ele>
        <time>2022-06-25T08:28:41Z</time>
      </trkpt>
      <trkpt lat="46.56803" lon="4.95053">
        <ele>190.6</ele>
        <time>2022-06-25T08:28:42Z</time>
      </trkpt>
      <trkpt lat="46.56804" lon="4.95045">
        <ele>190.6</ele>
        <time>2022-06-25T08:28:43Z</time>
      </trkpt>
      <trkpt lat="46.56804" lon="4.95038">
        <ele>190.6</ele>
        <time>2022-06-25T08:28:44Z</time>
      </trkpt>
      <trkpt lat="46.56804" lon="4.9503">
        <ele>190.6</ele>
        <time>2022-06-25T08:28:45Z</time>
      </trkpt>
      <trkpt lat="46.56805" lon="4.95022">
        <ele>190.6</ele>
        <time>2022-06-25T08:28:46Z</time>
      </trkpt>
      <trkpt lat="46.56805" lon="4.95015">
        <ele>190.6</ele>
        <time>2022-06-25T08:28:47Z</time>
      </trkpt>
      <trkpt lat="46.56806" lon="4.95007">
        <ele>190.6</ele>
        <time>2022-06-25T08:28:48Z</time>
      </trkpt>
      <trkpt lat="46.56806" lon="4.94999">
        <ele>190.4</ele>
        <time>2022-06-25T08:28:49Z</time>
      </trkpt>
      <trkpt lat="46.56807" lon="4.9499">
        <ele>190.4</ele>
        <time>2022-06-25T08:28:50Z</time>
      </trkpt>
      <trkpt lat="46.56807" lon="4.94982">
        <ele>190.4</ele>
        <time>2022-06-25T08:28:51Z</time>
      </trkpt>
      <trkpt lat="46.56808" lon="4.94974">
        <ele>190.4</ele>
        <time>2022-06-25T08:28:52Z</time>
      </trkpt>
      <trkpt lat="46.56808" lon="4.94965">
        <ele>190.4</ele>
        <time>2022-06-25T08:28:53Z</time>
      </trkpt>
      <trkpt lat="46.56809" lon="4.94957">
        <ele>190.4</ele>
        <time>2022-06-25T08:28:54Z</time>
      </trkpt>
      <trkpt lat="46.5681" lon="4.94949">
        <ele>190.4</ele>
        <time>2022-06-25T08:28:55Z</time>
      </trkpt>
      <trkpt lat="46.5681" lon="4.9494">
        <ele>190.4</ele>
        <time>2022-06-25T08:28:56Z</time>
      </trkpt>
      <trkpt lat="46.56811" lon="4.94927">
        <ele>190.4</ele>
        <time>2022-06-25T08:28:57Z</time>
      </trkpt>
      <trkpt lat="46.56811" lon="4.94923">
        <ele>190.4</ele>
        <time>2022-06-25T08:28:58Z</time>
      </trkpt>
      <trkpt lat="46.56812" lon="4.94915">
        <ele>190</ele>
        <time>2022-06-25T08:28:59Z</time>
      </trkpt>
      <trkpt lat="46.56812" lon="4.94906">
        <ele>190</ele>
        <time>2022-06-25T08:29:00Z</time>
      </trkpt>
      <trkpt lat="46.56813" lon="4.94898">
        <ele>189.8</ele>
        <time>2022-06-25T08:29:01Z</time>
      </trkpt>
      <trkpt lat="46.56813" lon="4.94889">
        <ele>189.8</ele>
        <time>2022-06-25T08:29:02Z</time>
      </trkpt>
      <trkpt lat="46.56814" lon="4.9488">
        <ele>189.6</ele>
        <time>2022-06-25T08:29:03Z</time>
      </trkpt>
      <trkpt lat="46.56815" lon="4.94872">
        <ele>189.6</ele>
        <time>2022-06-25T08:29:04Z</time>
      </trkpt>
      <trkpt lat="46.56815" lon="4.94863">
        <ele>189.4</ele>
        <time>2022-06-25T08:29:05Z</time>
      </trkpt>
      <trkpt lat="46.56816" lon="4.94855">
        <ele>189.4</ele>
        <time>2022-06-25T08:29:06Z</time>
      </trkpt>
      <trkpt lat="46.56817" lon="4.94846">
        <ele>189.4</ele>
        <time>2022-06-25T08:29:07Z</time>
      </trkpt>
      <trkpt lat="46.56817" lon="4.94837">
        <ele>189</ele>
        <time>2022-06-25T08:29:08Z</time>
      </trkpt>
      <trkpt lat="46.56818" lon="4.94828">
        <ele>189</ele>
        <time>2022-06-25T08:29:09Z</time>
      </trkpt>
      <trkpt lat="46.56818" lon="4.94819">
        <ele>189</ele>
        <time>2022-06-25T08:29:10Z</time>
      </trkpt>
      <trkpt lat="46.56819" lon="4.9481">
        <ele>189</ele>
        <time>2022-06-25T08:29:11Z</time>
      </trkpt>
      <trkpt lat="46.56819" lon="4.94801">
        <ele>188.8</ele>
        <time>2022-06-25T08:29:12Z</time>
      </trkpt>
      <trkpt lat="46.5682" lon="4.94792">
        <ele>188.8</ele>
        <time>2022-06-25T08:29:13Z</time>
      </trkpt>
      <trkpt lat="46.56821" lon="4.94783">
        <ele>188.8</ele>
        <time>2022-06-25T08:29:14Z</time>
      </trkpt>
      <trkpt lat="46.56821" lon="4.94774">
        <ele>188.8</ele>
        <time>2022-06-25T08:29:15Z</time>
      </trkpt>
      <trkpt lat="46.56822" lon="4.94765">
        <ele>188.8</ele>
        <time>2022-06-25T08:29:16Z</time>
      </trkpt>
      <trkpt lat="46.56822" lon="4.94755">
        <ele>188.8</ele>
        <time>2022-06-25T08:29:17Z</time>
      </trkpt>
      <trkpt lat="46.56823" lon="4.94746">
        <ele>188.8</ele>
        <time>2022-06-25T08:29:18Z</time>
      </trkpt>
      <trkpt lat="46.56823" lon="4.94737">
        <ele>188.8</ele>
        <time>2022-06-25T08:29:19Z</time>
      </trkpt>
      <trkpt lat="46.56825" lon="4.94718">
        <ele>188.8</ele>
        <time>2022-06-25T08:29:20Z</time>
      </trkpt>
      <trkpt lat="46.56825" lon="4.94709">
        <ele>188.8</ele>
        <time>2022-06-25T08:29:21Z</time>
      </trkpt>
      <trkpt lat="46.56826" lon="4.947">
        <ele>188.6</ele>
        <time>2022-06-25T08:29:22Z</time>
      </trkpt>
      <trkpt lat="46.56827" lon="4.94691">
        <ele>188.6</ele>
        <time>2022-06-25T08:29:23Z</time>
      </trkpt>
      <trkpt lat="46.56827" lon="4.94682">
        <ele>188.6</ele>
        <time>2022-06-25T08:29:24Z</time>
      </trkpt>
      <trkpt lat="46.56828" lon="4.94673">
        <ele>188.6</ele>
        <time>2022-06-25T08:29:25Z</time>
      </trkpt>
      <trkpt lat="46.56828" lon="4.94664">
        <ele>188.6</ele>
        <time>2022-06-25T08:29:26Z</time>
      </trkpt>
      <trkpt lat="46.56829" lon="4.94656">
        <ele>188.6</ele>
        <time>2022-06-25T08:29:27Z</time>
      </trkpt>
      <trkpt lat="46.5683" lon="4.94647">
        <ele>188.6</ele>
        <time>2022-06-25T08:29:28Z</time>
      </trkpt>
      <trkpt lat="46.56831" lon="4.94638">
        <ele>188.6</ele>
        <time>2022-06-25T08:29:29Z</time>
      </trkpt>
      <trkpt lat="46.56832" lon="4.94629">
        <ele>188.4</ele>
        <time>2022-06-25T08:29:30Z</time>
      </trkpt>
      <trkpt lat="46.56832" lon="4.94621">
        <ele>188.4</ele>
        <time>2022-06-25T08:29:31Z</time>
      </trkpt>
      <trkpt lat="46.56833" lon="4.94612">
        <ele>188.4</ele>
        <time>2022-06-25T08:29:32Z</time>
      </trkpt>
      <trkpt lat="46.56833" lon="4.94604">
        <ele>188.4</ele>
        <time>2022-06-25T08:29:33Z</time>
      </trkpt>
      <trkpt lat="46.56834" lon="4.94596">
        <ele>188.4</ele>
        <time>2022-06-25T08:29:34Z</time>
      </trkpt>
      <trkpt lat="46.56834" lon="4.94588">
        <ele>188.4</ele>
        <time>2022-06-25T08:29:35Z</time>
      </trkpt>
      <trkpt lat="46.56835" lon="4.94581">
        <ele>188.4</ele>
        <time>2022-06-25T08:29:36Z</time>
      </trkpt>
      <trkpt lat="46.56835" lon="4.94573">
        <ele>188.4</ele>
        <time>2022-06-25T08:29:37Z</time>
      </trkpt>
      <trkpt lat="46.56835" lon="4.94566">
        <ele>188.4</ele>
        <time>2022-06-25T08:29:38Z</time>
      </trkpt>
      <trkpt lat="46.56836" lon="4.94559">
        <ele>188.4</ele>
        <time>2022-06-25T08:29:39Z</time>
      </trkpt>
      <trkpt lat="46.56836" lon="4.94552">
        <ele>188.4</ele>
        <time>2022-06-25T08:29:40Z</time>
      </trkpt>
      <trkpt lat="46.56837" lon="4.94546">
        <ele>188.4</ele>
        <time>2022-06-25T08:29:41Z</time>
      </trkpt>
      <trkpt lat="46.56837" lon="4.94539">
        <ele>188.4</ele>
        <time>2022-06-25T08:29:42Z</time>
      </trkpt>
      <trkpt lat="46.56838" lon="4.94533">
        <ele>188.4</ele>
        <time>2022-06-25T08:29:43Z</time>
      </trkpt>
      <trkpt lat="46.56838" lon="4.94526">
        <ele>188.4</ele>
        <time>2022-06-25T08:29:44Z</time>
      </trkpt>
      <trkpt lat="46.56838" lon="4.9452">
        <ele>188.4</ele>
        <time>2022-06-25T08:29:45Z</time>
      </trkpt>
      <trkpt lat="46.56838" lon="4.94514">
        <ele>188.4</ele>
        <time>2022-06-25T08:29:46Z</time>
      </trkpt>
      <trkpt lat="46.56839" lon="4.94508">
        <ele>188.4</ele>
        <time>2022-06-25T08:29:47Z</time>
      </trkpt>
      <trkpt lat="46.56839" lon="4.94502">
        <ele>188.4</ele>
        <time>2022-06-25T08:29:48Z</time>
      </trkpt>
      <trkpt lat="46.56839" lon="4.94496">
        <ele>188.4</ele>
        <time>2022-06-25T08:29:49Z</time>
      </trkpt>
      <trkpt lat="46.56839" lon="4.9449">
        <ele>188.4</ele>
        <time>2022-06-25T08:29:50Z</time>
      </trkpt>
      <trkpt lat="46.56839" lon="4.94484">
        <ele>188.4</ele>
        <time>2022-06-25T08:29:51Z</time>
      </trkpt>
      <trkpt lat="46.5684" lon="4.94478">
        <ele>188.4</ele>
        <time>2022-06-25T08:29:52Z</time>
      </trkpt>
      <trkpt lat="46.56841" lon="4.94473">
        <ele>188.4</ele>
        <time>2022-06-25T08:29:53Z</time>
      </trkpt>
      <trkpt lat="46.56842" lon="4.94469">
        <ele>188.4</ele>
        <time>2022-06-25T08:29:54Z</time>
      </trkpt>
      <trkpt lat="46.56843" lon="4.94465">
        <ele>188.4</ele>
        <time>2022-06-25T08:29:55Z</time>
      </trkpt>
      <trkpt lat="46.56844" lon="4.94462">
        <ele>188.4</ele>
        <time>2022-06-25T08:29:56Z</time>
      </trkpt>
      <trkpt lat="46.56846" lon="4.94458">
        <ele>188.4</ele>
        <time>2022-06-25T08:29:57Z</time>
      </trkpt>
      <trkpt lat="46.56847" lon="4.94455">
        <ele>188</ele>
        <time>2022-06-25T08:29:58Z</time>
      </trkpt>
      <trkpt lat="46.56847" lon="4.94451">
        <ele>188</ele>
        <time>2022-06-25T08:30:00Z</time>
      </trkpt>
      <trkpt lat="46.56847" lon="4.9445">
        <ele>188</ele>
        <time>2022-06-25T08:30:02Z</time>
      </trkpt>
      <trkpt lat="46.56846" lon="4.9445">
        <ele>188</ele>
        <time>2022-06-25T08:30:03Z</time>
      </trkpt>
      <trkpt lat="46.56846" lon="4.94449">
        <ele>188</ele>
        <time>2022-06-25T08:30:06Z</time>
      </trkpt>
      <trkpt lat="46.56846" lon="4.94449">
        <ele>188</ele>
        <time>2022-06-25T08:30:07Z</time>
      </trkpt>
      <trkpt lat="46.56846" lon="4.94448">
        <ele>187.8</ele>
        <time>2022-06-25T08:30:09Z</time>
      </trkpt>
      <trkpt lat="46.56845" lon="4.94448">
        <ele>187.8</ele>
        <time>2022-06-25T08:30:10Z</time>
      </trkpt>
      <trkpt lat="46.56845" lon="4.94447">
        <ele>187.8</ele>
        <time>2022-06-25T08:30:12Z</time>
      </trkpt>
      <trkpt lat="46.56845" lon="4.94447">
        <ele>187.8</ele>
        <time>2022-06-25T08:30:13Z</time>
      </trkpt>
      <trkpt lat="46.56845" lon="4.94446">
        <ele>187.8</ele>
        <time>2022-06-25T08:30:15Z</time>
      </trkpt>
      <trkpt lat="46.56844" lon="4.94446">
        <ele>187.8</ele>
        <time>2022-06-25T08:30:59Z</time>
      </trkpt>
      <trkpt lat="46.56844" lon="4.94445">
        <ele>187.8</ele>
        <time>2022-06-25T08:31:00Z</time>
      </trkpt>
      <trkpt lat="46.56844" lon="4.94444">
        <ele>187.8</ele>
        <time>2022-06-25T08:31:02Z</time>
      </trkpt>
      <trkpt lat="46.56844" lon="4.94444">
        <ele>187.8</ele>
        <time>2022-06-25T08:31:03Z</time>
      </trkpt>
      <trkpt lat="46.56844" lon="4.94443">
        <ele>187.8</ele>
        <time>2022-06-25T08:31:06Z</time>
      </trkpt>
      <trkpt lat="46.56843" lon="4.94443">
        <ele>187.8</ele>
        <time>2022-06-25T08:31:07Z</time>
      </trkpt>
      <trkpt lat="46.56843" lon="4.94442">
        <ele>187.8</ele>
        <time>2022-06-25T08:31:09Z</time>
      </trkpt>
      <trkpt lat="46.56843" lon="4.94442">
        <ele>187.8</ele>
        <time>2022-06-25T08:31:10Z</time>
      </trkpt>
      <trkpt lat="46.56841" lon="4.9444">
        <ele>187.8</ele>
        <time>2022-06-25T08:31:11Z</time>
      </trkpt>
      <trkpt lat="46.56839" lon="4.94438">
        <ele>188</ele>
        <time>2022-06-25T08:31:12Z</time>
      </trkpt>
      <trkpt lat="46.56837" lon="4.94435">
        <ele>188</ele>
        <time>2022-06-25T08:31:13Z</time>
      </trkpt>
      <trkpt lat="46.56835" lon="4.94431">
        <ele>188</ele>
        <time>2022-06-25T08:31:14Z</time>
      </trkpt>
      <trkpt lat="46.56833" lon="4.94428">
        <ele>188</ele>
        <time>2022-06-25T08:31:15Z</time>
      </trkpt>
      <trkpt lat="46.5683" lon="4.94424">
        <ele>188</ele>
        <time>2022-06-25T08:31:16Z</time>
      </trkpt>
      <trkpt lat="46.56828" lon="4.9442">
        <ele>188</ele>
        <time>2022-06-25T08:31:17Z</time>
      </trkpt>
      <trkpt lat="46.56826" lon="4.94415">
        <ele>188</ele>
        <time>2022-06-25T08:31:18Z</time>
      </trkpt>
      <trkpt lat="46.56823" lon="4.9441">
        <ele>188</ele>
        <time>2022-06-25T08:31:19Z</time>
      </trkpt>
      <trkpt lat="46.56821" lon="4.94404">
        <ele>188.2</ele>
        <time>2022-06-25T08:31:20Z</time>
      </trkpt>
      <trkpt lat="46.56818" lon="4.94398">
        <ele>188.2</ele>
        <time>2022-06-25T08:31:21Z</time>
      </trkpt>
      <trkpt lat="46.56816" lon="4.94392">
        <ele>188.2</ele>
        <time>2022-06-25T08:31:22Z</time>
      </trkpt>
      <trkpt lat="46.56814" lon="4.94385">
        <ele>188.2</ele>
        <time>2022-06-25T08:31:23Z</time>
      </trkpt>
      <trkpt lat="46.56811" lon="4.94378">
        <ele>188.2</ele>
        <time>2022-06-25T08:31:24Z</time>
      </trkpt>
      <trkpt lat="46.56809" lon="4.94371">
        <ele>188.4</ele>
        <time>2022-06-25T08:31:25Z</time>
      </trkpt>
      <trkpt lat="46.56806" lon="4.94364">
        <ele>188.4</ele>
        <time>2022-06-25T08:31:26Z</time>
      </trkpt>
      <trkpt lat="46.56804" lon="4.94357">
        <ele>188.4</ele>
        <time>2022-06-25T08:31:27Z</time>
      </trkpt>
      <trkpt lat="46.56802" lon="4.94351">
        <ele>188.4</ele>
        <time>2022-06-25T08:31:28Z</time>
      </trkpt>
      <trkpt lat="46.56799" lon="4.94344">
        <ele>188.4</ele>
        <time>2022-06-25T08:31:29Z</time>
      </trkpt>
      <trkpt lat="46.56797" lon="4.94337">
        <ele>188.2</ele>
        <time>2022-06-25T08:31:30Z</time>
      </trkpt>
      <trkpt lat="46.56794" lon="4.94329">
        <ele>188.2</ele>
        <time>2022-06-25T08:31:31Z</time>
      </trkpt>
      <trkpt lat="46.56792" lon="4.94322">
        <ele>188.2</ele>
        <time>2022-06-25T08:31:32Z</time>
      </trkpt>
      <trkpt lat="46.56789" lon="4.94314">
        <ele>188.2</ele>
        <time>2022-06-25T08:31:33Z</time>
      </trkpt>
      <trkpt lat="46.56786" lon="4.94307">
        <ele>188.2</ele>
        <time>2022-06-25T08:31:34Z</time>
      </trkpt>
      <trkpt lat="46.56784" lon="4.94299">
        <ele>188.2</ele>
        <time>2022-06-25T08:31:35Z</time>
      </trkpt>
      <trkpt lat="46.56781" lon="4.94291">
        <ele>188.2</ele>
        <time>2022-06-25T08:31:36Z</time>
      </trkpt>
      <trkpt lat="46.56779" lon="4.94283">
        <ele>188</ele>
        <time>2022-06-25T08:31:37Z</time>
      </trkpt>
      <trkpt lat="46.56776" lon="4.94276">
        <ele>188</ele>
        <time>2022-06-25T08:31:38Z</time>
      </trkpt>
      <trkpt lat="46.56773" lon="4.94268">
        <ele>188</ele>
        <time>2022-06-25T08:31:39Z</time>
      </trkpt>
      <trkpt lat="46.56771" lon="4.9426">
        <ele>188</ele>
        <time>2022-06-25T08:31:40Z</time>
      </trkpt>
      <trkpt lat="46.56768" lon="4.94253">
        <ele>188</ele>
        <time>2022-06-25T08:31:41Z</time>
      </trkpt>
      <trkpt lat="46.56765" lon="4.94245">
        <ele>188</ele>
        <time>2022-06-25T08:31:42Z</time>
      </trkpt>
      <trkpt lat="46.56763" lon="4.94237">
        <ele>188</ele>
        <time>2022-06-25T08:31:43Z</time>
      </trkpt>
      <trkpt lat="46.5676" lon="4.9423">
        <ele>188</ele>
        <time>2022-06-25T08:31:44Z</time>
      </trkpt>
      <trkpt lat="46.56757" lon="4.94222">
        <ele>188</ele>
        <time>2022-06-25T08:31:45Z</time>
      </trkpt>
      <trkpt lat="46.56755" lon="4.94214">
        <ele>188</ele>
        <time>2022-06-25T08:31:46Z</time>
      </trkpt>
      <trkpt lat="46.56752" lon="4.94206">
        <ele>188</ele>
        <time>2022-06-25T08:31:47Z</time>
      </trkpt>
      <trkpt lat="46.56749" lon="4.94198">
        <ele>188</ele>
        <time>2022-06-25T08:31:48Z</time>
      </trkpt>
      <trkpt lat="46.56746" lon="4.9419">
        <ele>188</ele>
        <time>2022-06-25T08:31:49Z</time>
      </trkpt>
      <trkpt lat="46.56743" lon="4.94181">
        <ele>188</ele>
        <time>2022-06-25T08:31:50Z</time>
      </trkpt>
      <trkpt lat="46.56741" lon="4.94173">
        <ele>187.8</ele>
        <time>2022-06-25T08:31:51Z</time>
      </trkpt>
      <trkpt lat="46.56738" lon="4.94165">
        <ele>187.8</ele>
        <time>2022-06-25T08:31:52Z</time>
      </trkpt>
      <trkpt lat="46.56735" lon="4.94156">
        <ele>187.8</ele>
        <time>2022-06-25T08:31:53Z</time>
      </trkpt>
      <trkpt lat="46.56732" lon="4.94148">
        <ele>187.4</ele>
        <time>2022-06-25T08:31:54Z</time>
      </trkpt>
      <trkpt lat="46.56729" lon="4.9414">
        <ele>187.4</ele>
        <time>2022-06-25T08:31:55Z</time>
      </trkpt>
      <trkpt lat="46.56726" lon="4.94131">
        <ele>187.2</ele>
        <time>2022-06-25T08:31:56Z</time>
      </trkpt>
      <trkpt lat="46.56723" lon="4.94123">
        <ele>187.2</ele>
        <time>2022-06-25T08:31:57Z</time>
      </trkpt>
      <trkpt lat="46.5672" lon="4.94114">
        <ele>187.2</ele>
        <time>2022-06-25T08:31:58Z</time>
      </trkpt>
      <trkpt lat="46.56718" lon="4.94105">
        <ele>187.2</ele>
        <time>2022-06-25T08:31:59Z</time>
      </trkpt>
      <trkpt lat="46.56714" lon="4.94096">
        <ele>187.2</ele>
        <time>2022-06-25T08:32:00Z</time>
      </trkpt>
      <trkpt lat="46.56711" lon="4.94088">
        <ele>187.2</ele>
        <time>2022-06-25T08:32:01Z</time>
      </trkpt>
      <trkpt lat="46.56708" lon="4.94079">
        <ele>187.2</ele>
        <time>2022-06-25T08:32:02Z</time>
      </trkpt>
      <trkpt lat="46.56705" lon="4.9407">
        <ele>187.2</ele>
        <time>2022-06-25T08:32:03Z</time>
      </trkpt>
      <trkpt lat="46.56702" lon="4.94061">
        <ele>187.2</ele>
        <time>2022-06-25T08:32:04Z</time>
      </trkpt>
      <trkpt lat="46.56699" lon="4.94052">
        <ele>187.6</ele>
        <time>2022-06-25T08:32:05Z</time>
      </trkpt>
      <trkpt lat="46.56696" lon="4.94043">
        <ele>187.2</ele>
        <time>2022-06-25T08:32:06Z</time>
      </trkpt>
      <trkpt lat="46.56693" lon="4.94033">
        <ele>187.2</ele>
        <time>2022-06-25T08:32:07Z</time>
      </trkpt>
      <trkpt lat="46.5669" lon="4.94024">
        <ele>187.2</ele>
        <time>2022-06-25T08:32:08Z</time>
      </trkpt>
      <trkpt lat="46.56687" lon="4.94015">
        <ele>187.2</ele>
        <time>2022-06-25T08:32:09Z</time>
      </trkpt>
      <trkpt lat="46.56684" lon="4.94006">
        <ele>187</ele>
        <time>2022-06-25T08:32:10Z</time>
      </trkpt>
      <trkpt lat="46.56681" lon="4.93997">
        <ele>187</ele>
        <time>2022-06-25T08:32:11Z</time>
      </trkpt>
      <trkpt lat="46.56677" lon="4.93988">
        <ele>187</ele>
        <time>2022-06-25T08:32:12Z</time>
      </trkpt>
      <trkpt lat="46.56674" lon="4.93979">
        <ele>187.2</ele>
        <time>2022-06-25T08:32:13Z</time>
      </trkpt>
      <trkpt lat="46.56671" lon="4.9397">
        <ele>187.2</ele>
        <time>2022-06-25T08:32:14Z</time>
      </trkpt>
      <trkpt lat="46.56668" lon="4.93961">
        <ele>187.2</ele>
        <time>2022-06-25T08:32:15Z</time>
      </trkpt>
      <trkpt lat="46.56665" lon="4.93951">
        <ele>187.2</ele>
        <time>2022-06-25T08:32:16Z</time>
      </trkpt>
      <trkpt lat="46.56662" lon="4.93942">
        <ele>187.2</ele>
        <time>2022-06-25T08:32:17Z</time>
      </trkpt>
      <trkpt lat="46.56658" lon="4.93933">
        <ele>187.2</ele>
        <time>2022-06-25T08:32:18Z</time>
      </trkpt>
      <trkpt lat="46.56655" lon="4.93924">
        <ele>187.2</ele>
        <time>2022-06-25T08:32:19Z</time>
      </trkpt>
      <trkpt lat="46.56652" lon="4.93915">
        <ele>187.2</ele>
        <time>2022-06-25T08:32:20Z</time>
      </trkpt>
      <trkpt lat="46.56649" lon="4.93905">
        <ele>187.2</ele>
        <time>2022-06-25T08:32:21Z</time>
      </trkpt>
      <trkpt lat="46.56646" lon="4.93896">
        <ele>187.2</ele>
        <time>2022-06-25T08:32:22Z</time>
      </trkpt>
      <trkpt lat="46.56643" lon="4.93887">
        <ele>187.2</ele>
        <time>2022-06-25T08:32:23Z</time>
      </trkpt>
      <trkpt lat="46.5664" lon="4.93878">
        <ele>187.2</ele>
        <time>2022-06-25T08:32:24Z</time>
      </trkpt>
      <trkpt lat="46.56637" lon="4.93869">
        <ele>187.2</ele>
        <time>2022-06-25T08:32:25Z</time>
      </trkpt>
      <trkpt lat="46.56634" lon="4.93861">
        <ele>187.4</ele>
        <time>2022-06-25T08:32:26Z</time>
      </trkpt>
      <trkpt lat="46.56631" lon="4.93852">
        <ele>187.4</ele>
        <time>2022-06-25T08:32:27Z</time>
      </trkpt>
      <trkpt lat="46.56628" lon="4.93844">
        <ele>187.4</ele>
        <time>2022-06-25T08:32:28Z</time>
      </trkpt>
      <trkpt lat="46.56625" lon="4.93835">
        <ele>187.6</ele>
        <time>2022-06-25T08:32:29Z</time>
      </trkpt>
      <trkpt lat="46.56623" lon="4.93827">
        <ele>187.6</ele>
        <time>2022-06-25T08:32:30Z</time>
      </trkpt>
      <trkpt lat="46.5662" lon="4.93819">
        <ele>187.6</ele>
        <time>2022-06-25T08:32:31Z</time>
      </trkpt>
      <trkpt lat="46.56617" lon="4.93811">
        <ele>187.6</ele>
        <time>2022-06-25T08:32:32Z</time>
      </trkpt>
      <trkpt lat="46.56614" lon="4.93803">
        <ele>187.6</ele>
        <time>2022-06-25T08:32:33Z</time>
      </trkpt>
      <trkpt lat="46.56612" lon="4.93796">
        <ele>187.6</ele>
        <time>2022-06-25T08:32:34Z</time>
      </trkpt>
      <trkpt lat="46.56609" lon="4.93788">
        <ele>188</ele>
        <time>2022-06-25T08:32:35Z</time>
      </trkpt>
      <trkpt lat="46.56607" lon="4.9378">
        <ele>188</ele>
        <time>2022-06-25T08:32:36Z</time>
      </trkpt>
      <trkpt lat="46.56604" lon="4.93773">
        <ele>188.2</ele>
        <time>2022-06-25T08:32:37Z</time>
      </trkpt>
      <trkpt lat="46.56601" lon="4.93765">
        <ele>188.2</ele>
        <time>2022-06-25T08:32:38Z</time>
      </trkpt>
      <trkpt lat="46.56599" lon="4.93758">
        <ele>188.2</ele>
        <time>2022-06-25T08:32:39Z</time>
      </trkpt>
      <trkpt lat="46.56596" lon="4.9375">
        <ele>188.4</ele>
        <time>2022-06-25T08:32:40Z</time>
      </trkpt>
      <trkpt lat="46.56594" lon="4.93743">
        <ele>188.4</ele>
        <time>2022-06-25T08:32:41Z</time>
      </trkpt>
      <trkpt lat="46.56591" lon="4.93736">
        <ele>188.4</ele>
        <time>2022-06-25T08:32:42Z</time>
      </trkpt>
      <trkpt lat="46.56589" lon="4.93728">
        <ele>188.6</ele>
        <time>2022-06-25T08:32:43Z</time>
      </trkpt>
      <trkpt lat="46.56586" lon="4.93721">
        <ele>188.6</ele>
        <time>2022-06-25T08:32:44Z</time>
      </trkpt>
      <trkpt lat="46.56584" lon="4.93713">
        <ele>188.6</ele>
        <time>2022-06-25T08:32:45Z</time>
      </trkpt>
      <trkpt lat="46.56581" lon="4.93706">
        <ele>188.6</ele>
        <time>2022-06-25T08:32:46Z</time>
      </trkpt>
      <trkpt lat="46.56579" lon="4.93698">
        <ele>188.8</ele>
        <time>2022-06-25T08:32:47Z</time>
      </trkpt>
      <trkpt lat="46.56576" lon="4.93691">
        <ele>188.8</ele>
        <time>2022-06-25T08:32:48Z</time>
      </trkpt>
      <trkpt lat="46.56574" lon="4.93684">
        <ele>188.8</ele>
        <time>2022-06-25T08:32:49Z</time>
      </trkpt>
      <trkpt lat="46.56571" lon="4.93677">
        <ele>188.8</ele>
        <time>2022-06-25T08:32:50Z</time>
      </trkpt>
      <trkpt lat="46.56569" lon="4.93669">
        <ele>189</ele>
        <time>2022-06-25T08:32:51Z</time>
      </trkpt>
      <trkpt lat="46.56566" lon="4.93662">
        <ele>189</ele>
        <time>2022-06-25T08:32:52Z</time>
      </trkpt>
      <trkpt lat="46.56564" lon="4.93655">
        <ele>189.4</ele>
        <time>2022-06-25T08:32:53Z</time>
      </trkpt>
      <trkpt lat="46.56561" lon="4.93647">
        <ele>189.4</ele>
        <time>2022-06-25T08:32:54Z</time>
      </trkpt>
      <trkpt lat="46.56559" lon="4.9364">
        <ele>189.4</ele>
        <time>2022-06-25T08:32:55Z</time>
      </trkpt>
      <trkpt lat="46.56556" lon="4.93633">
        <ele>189.4</ele>
        <time>2022-06-25T08:32:56Z</time>
      </trkpt>
      <trkpt lat="46.56553" lon="4.93625">
        <ele>189.4</ele>
        <time>2022-06-25T08:32:57Z</time>
      </trkpt>
      <trkpt lat="46.56551" lon="4.93618">
        <ele>189.4</ele>
        <time>2022-06-25T08:32:58Z</time>
      </trkpt>
      <trkpt lat="46.56548" lon="4.93611">
        <ele>189.6</ele>
        <time>2022-06-25T08:32:59Z</time>
      </trkpt>
      <trkpt lat="46.56546" lon="4.93603">
        <ele>189.6</ele>
        <time>2022-06-25T08:33:00Z</time>
      </trkpt>
      <trkpt lat="46.56543" lon="4.93596">
        <ele>189.6</ele>
        <time>2022-06-25T08:33:01Z</time>
      </trkpt>
      <trkpt lat="46.56541" lon="4.93588">
        <ele>189.6</ele>
        <time>2022-06-25T08:33:02Z</time>
      </trkpt>
      <trkpt lat="46.56538" lon="4.9358">
        <ele>189.6</ele>
        <time>2022-06-25T08:33:03Z</time>
      </trkpt>
      <trkpt lat="46.56535" lon="4.93573">
        <ele>189.6</ele>
        <time>2022-06-25T08:33:04Z</time>
      </trkpt>
      <trkpt lat="46.56533" lon="4.93565">
        <ele>189.6</ele>
        <time>2022-06-25T08:33:05Z</time>
      </trkpt>
      <trkpt lat="46.5653" lon="4.93557">
        <ele>189.6</ele>
        <time>2022-06-25T08:33:06Z</time>
      </trkpt>
      <trkpt lat="46.56527" lon="4.93549">
        <ele>189.6</ele>
        <time>2022-06-25T08:33:07Z</time>
      </trkpt>
      <trkpt lat="46.56525" lon="4.93541">
        <ele>189.6</ele>
        <time>2022-06-25T08:33:08Z</time>
      </trkpt>
      <trkpt lat="46.56522" lon="4.93533">
        <ele>189.6</ele>
        <time>2022-06-25T08:33:09Z</time>
      </trkpt>
      <trkpt lat="46.56519" lon="4.93525">
        <ele>189.6</ele>
        <time>2022-06-25T08:33:10Z</time>
      </trkpt>
      <trkpt lat="46.56516" lon="4.93517">
        <ele>189.6</ele>
        <time>2022-06-25T08:33:11Z</time>
      </trkpt>
      <trkpt lat="46.56513" lon="4.93509">
        <ele>189.6</ele>
        <time>2022-06-25T08:33:12Z</time>
      </trkpt>
      <trkpt lat="46.5651" lon="4.935">
        <ele>189.6</ele>
        <time>2022-06-25T08:33:13Z</time>
      </trkpt>
      <trkpt lat="46.56507" lon="4.93492">
        <ele>189.6</ele>
        <time>2022-06-25T08:33:14Z</time>
      </trkpt>
      <trkpt lat="46.56504" lon="4.93484">
        <ele>189.6</ele>
        <time>2022-06-25T08:33:15Z</time>
      </trkpt>
      <trkpt lat="46.56501" lon="4.93475">
        <ele>189.6</ele>
        <time>2022-06-25T08:33:16Z</time>
      </trkpt>
      <trkpt lat="46.56498" lon="4.93467">
        <ele>189.6</ele>
        <time>2022-06-25T08:33:17Z</time>
      </trkpt>
      <trkpt lat="46.56495" lon="4.93458">
        <ele>189.6</ele>
        <time>2022-06-25T08:33:18Z</time>
      </trkpt>
      <trkpt lat="46.56492" lon="4.9345">
        <ele>189.6</ele>
        <time>2022-06-25T08:33:19Z</time>
      </trkpt>
      <trkpt lat="46.56489" lon="4.93441">
        <ele>189.6</ele>
        <time>2022-06-25T08:33:20Z</time>
      </trkpt>
      <trkpt lat="46.56485" lon="4.93432">
        <ele>189.6</ele>
        <time>2022-06-25T08:33:21Z</time>
      </trkpt>
      <trkpt lat="46.56482" lon="4.93424">
        <ele>189.6</ele>
        <time>2022-06-25T08:33:22Z</time>
      </trkpt>
      <trkpt lat="46.56479" lon="4.93415">
        <ele>189.6</ele>
        <time>2022-06-25T08:33:23Z</time>
      </trkpt>
      <trkpt lat="46.56475" lon="4.93407">
        <ele>189.2</ele>
        <time>2022-06-25T08:33:24Z</time>
      </trkpt>
      <trkpt lat="46.56472" lon="4.93398">
        <ele>189.2</ele>
        <time>2022-06-25T08:33:25Z</time>
      </trkpt>
      <trkpt lat="46.56468" lon="4.93389">
        <ele>189.2</ele>
        <time>2022-06-25T08:33:26Z</time>
      </trkpt>
      <trkpt lat="46.56465" lon="4.9338">
        <ele>189</ele>
        <time>2022-06-25T08:33:27Z</time>
      </trkpt>
      <trkpt lat="46.56461" lon="4.93371">
        <ele>189</ele>
        <time>2022-06-25T08:33:28Z</time>
      </trkpt>
      <trkpt lat="46.56457" lon="4.93362">
        <ele>189</ele>
        <time>2022-06-25T08:33:29Z</time>
      </trkpt>
      <trkpt lat="46.56453" lon="4.93353">
        <ele>189</ele>
        <time>2022-06-25T08:33:30Z</time>
      </trkpt>
      <trkpt lat="46.56449" lon="4.93345">
        <ele>188.6</ele>
        <time>2022-06-25T08:33:31Z</time>
      </trkpt>
      <trkpt lat="46.56444" lon="4.93337">
        <ele>188.6</ele>
        <time>2022-06-25T08:33:32Z</time>
      </trkpt>
      <trkpt lat="46.5644" lon="4.93329">
        <ele>188.6</ele>
        <time>2022-06-25T08:33:33Z</time>
      </trkpt>
      <trkpt lat="46.56435" lon="4.93321">
        <ele>188.6</ele>
        <time>2022-06-25T08:33:34Z</time>
      </trkpt>
      <trkpt lat="46.56431" lon="4.93313">
        <ele>188.6</ele>
        <time>2022-06-25T08:33:35Z</time>
      </trkpt>
      <trkpt lat="46.56426" lon="4.93305">
        <ele>188.4</ele>
        <time>2022-06-25T08:33:36Z</time>
      </trkpt>
      <trkpt lat="46.56422" lon="4.93297">
        <ele>188.4</ele>
        <time>2022-06-25T08:33:37Z</time>
      </trkpt>
      <trkpt lat="46.56417" lon="4.93289">
        <ele>188.4</ele>
        <time>2022-06-25T08:33:38Z</time>
      </trkpt>
      <trkpt lat="46.56413" lon="4.93281">
        <ele>188.4</ele>
        <time>2022-06-25T08:33:39Z</time>
      </trkpt>
      <trkpt lat="46.56409" lon="4.93274">
        <ele>188.4</ele>
        <time>2022-06-25T08:33:40Z</time>
      </trkpt>
      <trkpt lat="46.56405" lon="4.93266">
        <ele>188.2</ele>
        <time>2022-06-25T08:33:41Z</time>
      </trkpt>
      <trkpt lat="46.564" lon="4.93258">
        <ele>188.2</ele>
        <time>2022-06-25T08:33:42Z</time>
      </trkpt>
      <trkpt lat="46.56396" lon="4.93251">
        <ele>188.2</ele>
        <time>2022-06-25T08:33:43Z</time>
      </trkpt>
      <trkpt lat="46.56391" lon="4.93243">
        <ele>188.2</ele>
        <time>2022-06-25T08:33:44Z</time>
      </trkpt>
      <trkpt lat="46.56387" lon="4.93236">
        <ele>188.2</ele>
        <time>2022-06-25T08:33:45Z</time>
      </trkpt>
      <trkpt lat="46.56383" lon="4.93228">
        <ele>188.6</ele>
        <time>2022-06-25T08:33:46Z</time>
      </trkpt>
      <trkpt lat="46.56379" lon="4.93221">
        <ele>188.4</ele>
        <time>2022-06-25T08:33:47Z</time>
      </trkpt>
      <trkpt lat="46.56374" lon="4.93214">
        <ele>188.2</ele>
        <time>2022-06-25T08:33:48Z</time>
      </trkpt>
      <trkpt lat="46.5637" lon="4.93206">
        <ele>188.2</ele>
        <time>2022-06-25T08:33:49Z</time>
      </trkpt>
      <trkpt lat="46.56366" lon="4.93199">
        <ele>188</ele>
        <time>2022-06-25T08:33:50Z</time>
      </trkpt>
      <trkpt lat="46.56361" lon="4.93192">
        <ele>188</ele>
        <time>2022-06-25T08:33:51Z</time>
      </trkpt>
      <trkpt lat="46.56357" lon="4.93185">
        <ele>188</ele>
        <time>2022-06-25T08:33:52Z</time>
      </trkpt>
      <trkpt lat="46.56352" lon="4.93179">
        <ele>188</ele>
        <time>2022-06-25T08:33:53Z</time>
      </trkpt>
      <trkpt lat="46.56347" lon="4.93173">
        <ele>188</ele>
        <time>2022-06-25T08:33:54Z</time>
      </trkpt>
      <trkpt lat="46.56342" lon="4.93167">
        <ele>188</ele>
        <time>2022-06-25T08:33:55Z</time>
      </trkpt>
      <trkpt lat="46.56338" lon="4.93161">
        <ele>188</ele>
        <time>2022-06-25T08:33:56Z</time>
      </trkpt>
      <trkpt lat="46.56333" lon="4.93155">
        <ele>188.2</ele>
        <time>2022-06-25T08:33:57Z</time>
      </trkpt>
      <trkpt lat="46.56328" lon="4.93149">
        <ele>188.2</ele>
        <time>2022-06-25T08:33:58Z</time>
      </trkpt>
      <trkpt lat="46.56323" lon="4.93144">
        <ele>188.2</ele>
        <time>2022-06-25T08:33:59Z</time>
      </trkpt>
      <trkpt lat="46.56318" lon="4.93139">
        <ele>188.2</ele>
        <time>2022-06-25T08:34:00Z</time>
      </trkpt>
      <trkpt lat="46.56313" lon="4.93134">
        <ele>188.2</ele>
        <time>2022-06-25T08:34:01Z</time>
      </trkpt>
      <trkpt lat="46.56307" lon="4.93129">
        <ele>188.2</ele>
        <time>2022-06-25T08:34:02Z</time>
      </trkpt>
      <trkpt lat="46.56302" lon="4.93123">
        <ele>188.2</ele>
        <time>2022-06-25T08:34:03Z</time>
      </trkpt>
      <trkpt lat="46.56297" lon="4.93118">
        <ele>188.2</ele>
        <time>2022-06-25T08:34:04Z</time>
      </trkpt>
      <trkpt lat="46.56292" lon="4.93113">
        <ele>188.2</ele>
        <time>2022-06-25T08:34:05Z</time>
      </trkpt>
      <trkpt lat="46.56286" lon="4.93108">
        <ele>188.2</ele>
        <time>2022-06-25T08:34:06Z</time>
      </trkpt>
      <trkpt lat="46.56281" lon="4.93103">
        <ele>188.2</ele>
        <time>2022-06-25T08:34:07Z</time>
      </trkpt>
      <trkpt lat="46.56275" lon="4.93097">
        <ele>188.2</ele>
        <time>2022-06-25T08:34:08Z</time>
      </trkpt>
      <trkpt lat="46.5627" lon="4.93091">
        <ele>188.2</ele>
        <time>2022-06-25T08:34:09Z</time>
      </trkpt>
      <trkpt lat="46.56264" lon="4.93086">
        <ele>188.2</ele>
        <time>2022-06-25T08:34:10Z</time>
      </trkpt>
      <trkpt lat="46.56258" lon="4.9308">
        <ele>188</ele>
        <time>2022-06-25T08:34:11Z</time>
      </trkpt>
      <trkpt lat="46.56253" lon="4.93074">
        <ele>188</ele>
        <time>2022-06-25T08:34:12Z</time>
      </trkpt>
      <trkpt lat="46.56247" lon="4.93068">
        <ele>188</ele>
        <time>2022-06-25T08:34:13Z</time>
      </trkpt>
      <trkpt lat="46.56241" lon="4.93063">
        <ele>188</ele>
        <time>2022-06-25T08:34:14Z</time>
      </trkpt>
      <trkpt lat="46.56236" lon="4.93057">
        <ele>188</ele>
        <time>2022-06-25T08:34:15Z</time>
      </trkpt>
      <trkpt lat="46.5623" lon="4.93051">
        <ele>187.6</ele>
        <time>2022-06-25T08:34:16Z</time>
      </trkpt>
      <trkpt lat="46.56225" lon="4.93046">
        <ele>187.6</ele>
        <time>2022-06-25T08:34:17Z</time>
      </trkpt>
      <trkpt lat="46.56219" lon="4.9304">
        <ele>187.4</ele>
        <time>2022-06-25T08:34:18Z</time>
      </trkpt>
      <trkpt lat="46.56213" lon="4.93035">
        <ele>187.4</ele>
        <time>2022-06-25T08:34:19Z</time>
      </trkpt>
      <trkpt lat="46.56208" lon="4.9303">
        <ele>187.4</ele>
        <time>2022-06-25T08:34:20Z</time>
      </trkpt>
      <trkpt lat="46.56203" lon="4.93024">
        <ele>187.4</ele>
        <time>2022-06-25T08:34:21Z</time>
      </trkpt>
      <trkpt lat="46.56197" lon="4.93019">
        <ele>187.2</ele>
        <time>2022-06-25T08:34:22Z</time>
      </trkpt>
      <trkpt lat="46.56192" lon="4.93014">
        <ele>187.2</ele>
        <time>2022-06-25T08:34:23Z</time>
      </trkpt>
      <trkpt lat="46.56186" lon="4.93009">
        <ele>187.2</ele>
        <time>2022-06-25T08:34:24Z</time>
      </trkpt>
      <trkpt lat="46.56181" lon="4.93004">
        <ele>187.2</ele>
        <time>2022-06-25T08:34:25Z</time>
      </trkpt>
      <trkpt lat="46.56175" lon="4.92998">
        <ele>187.2</ele>
        <time>2022-06-25T08:34:26Z</time>
      </trkpt>
      <trkpt lat="46.5617" lon="4.92993">
        <ele>187</ele>
        <time>2022-06-25T08:34:27Z</time>
      </trkpt>
      <trkpt lat="46.56164" lon="4.92987">
        <ele>187</ele>
        <time>2022-06-25T08:34:28Z</time>
      </trkpt>
      <trkpt lat="46.56159" lon="4.92983">
        <ele>187</ele>
        <time>2022-06-25T08:34:29Z</time>
      </trkpt>
      <trkpt lat="46.56153" lon="4.92978">
        <ele>186.8</ele>
        <time>2022-06-25T08:34:30Z</time>
      </trkpt>
      <trkpt lat="46.56148" lon="4.92973">
        <ele>186.8</ele>
        <time>2022-06-25T08:34:31Z</time>
      </trkpt>
      <trkpt lat="46.56143" lon="4.92969">
        <ele>186.8</ele>
        <time>2022-06-25T08:34:32Z</time>
      </trkpt>
      <trkpt lat="46.56138" lon="4.92964">
        <ele>186.8</ele>
        <time>2022-06-25T08:34:33Z</time>
      </trkpt>
      <trkpt lat="46.56133" lon="4.9296">
        <ele>186.8</ele>
        <time>2022-06-25T08:34:34Z</time>
      </trkpt>
      <trkpt lat="46.56128" lon="4.92955">
        <ele>186.8</ele>
        <time>2022-06-25T08:34:35Z</time>
      </trkpt>
      <trkpt lat="46.56123" lon="4.92951">
        <ele>186.8</ele>
        <time>2022-06-25T08:34:36Z</time>
      </trkpt>
      <trkpt lat="46.56117" lon="4.92947">
        <ele>186.6</ele>
        <time>2022-06-25T08:34:37Z</time>
      </trkpt>
      <trkpt lat="46.56112" lon="4.92943">
        <ele>186.6</ele>
        <time>2022-06-25T08:34:38Z</time>
      </trkpt>
      <trkpt lat="46.56107" lon="4.92939">
        <ele>186.6</ele>
        <time>2022-06-25T08:34:39Z</time>
      </trkpt>
      <trkpt lat="46.56102" lon="4.92934">
        <ele>186.6</ele>
        <time>2022-06-25T08:34:40Z</time>
      </trkpt>
      <trkpt lat="46.56097" lon="4.9293">
        <ele>186.6</ele>
        <time>2022-06-25T08:34:41Z</time>
      </trkpt>
      <trkpt lat="46.56091" lon="4.92926">
        <ele>186.6</ele>
        <time>2022-06-25T08:34:42Z</time>
      </trkpt>
      <trkpt lat="46.56086" lon="4.92922">
        <ele>186.6</ele>
        <time>2022-06-25T08:34:43Z</time>
      </trkpt>
      <trkpt lat="46.56081" lon="4.92918">
        <ele>186.6</ele>
        <time>2022-06-25T08:34:44Z</time>
      </trkpt>
      <trkpt lat="46.56077" lon="4.92913">
        <ele>186.6</ele>
        <time>2022-06-25T08:34:45Z</time>
      </trkpt>
      <trkpt lat="46.56072" lon="4.9291">
        <ele>186.6</ele>
        <time>2022-06-25T08:34:46Z</time>
      </trkpt>
      <trkpt lat="46.56068" lon="4.92905">
        <ele>186.6</ele>
        <time>2022-06-25T08:34:47Z</time>
      </trkpt>
      <trkpt lat="46.56064" lon="4.92901">
        <ele>186.6</ele>
        <time>2022-06-25T08:34:48Z</time>
      </trkpt>
      <trkpt lat="46.5606" lon="4.92895">
        <ele>186.6</ele>
        <time>2022-06-25T08:34:49Z</time>
      </trkpt>
      <trkpt lat="46.56057" lon="4.92889">
        <ele>186.6</ele>
        <time>2022-06-25T08:34:50Z</time>
      </trkpt>
      <trkpt lat="46.56056" lon="4.92883">
        <ele>186.6</ele>
        <time>2022-06-25T08:34:51Z</time>
      </trkpt>
      <trkpt lat="46.56055" lon="4.92876">
        <ele>186.6</ele>
        <time>2022-06-25T08:34:52Z</time>
      </trkpt>
      <trkpt lat="46.56056" lon="4.92869">
        <ele>186.8</ele>
        <time>2022-06-25T08:34:53Z</time>
      </trkpt>
      <trkpt lat="46.56059" lon="4.92863">
        <ele>186.8</ele>
        <time>2022-06-25T08:34:54Z</time>
      </trkpt>
      <trkpt lat="46.56061" lon="4.92856">
        <ele>186.8</ele>
        <time>2022-06-25T08:34:55Z</time>
      </trkpt>
      <trkpt lat="46.56063" lon="4.92849">
        <ele>187</ele>
        <time>2022-06-25T08:34:56Z</time>
      </trkpt>
      <trkpt lat="46.56065" lon="4.92842">
        <ele>187</ele>
        <time>2022-06-25T08:34:57Z</time>
      </trkpt>
      <trkpt lat="46.56068" lon="4.92834">
        <ele>187</ele>
        <time>2022-06-25T08:34:58Z</time>
      </trkpt>
      <trkpt lat="46.5607" lon="4.92826">
        <ele>187</ele>
        <time>2022-06-25T08:34:59Z</time>
      </trkpt>
      <trkpt lat="46.56072" lon="4.92818">
        <ele>187</ele>
        <time>2022-06-25T08:35:00Z</time>
      </trkpt>
      <trkpt lat="46.56075" lon="4.9281">
        <ele>187</ele>
        <time>2022-06-25T08:35:01Z</time>
      </trkpt>
      <trkpt lat="46.56077" lon="4.92802">
        <ele>187</ele>
        <time>2022-06-25T08:35:02Z</time>
      </trkpt>
      <trkpt lat="46.5608" lon="4.92793">
        <ele>187</ele>
        <time>2022-06-25T08:35:03Z</time>
      </trkpt>
      <trkpt lat="46.56082" lon="4.92785">
        <ele>187</ele>
        <time>2022-06-25T08:35:04Z</time>
      </trkpt>
      <trkpt lat="46.56084" lon="4.92777">
        <ele>187</ele>
        <time>2022-06-25T08:35:05Z</time>
      </trkpt>
      <trkpt lat="46.56087" lon="4.92768">
        <ele>187</ele>
        <time>2022-06-25T08:35:06Z</time>
      </trkpt>
      <trkpt lat="46.56089" lon="4.92759">
        <ele>187</ele>
        <time>2022-06-25T08:35:07Z</time>
      </trkpt>
      <trkpt lat="46.56092" lon="4.92751">
        <ele>187</ele>
        <time>2022-06-25T08:35:08Z</time>
      </trkpt>
      <trkpt lat="46.56094" lon="4.92742">
        <ele>187</ele>
        <time>2022-06-25T08:35:09Z</time>
      </trkpt>
      <trkpt lat="46.56097" lon="4.92733">
        <ele>187</ele>
        <time>2022-06-25T08:35:10Z</time>
      </trkpt>
      <trkpt lat="46.56099" lon="4.92724">
        <ele>187</ele>
        <time>2022-06-25T08:35:11Z</time>
      </trkpt>
      <trkpt lat="46.56102" lon="4.92716">
        <ele>187</ele>
        <time>2022-06-25T08:35:12Z</time>
      </trkpt>
      <trkpt lat="46.56105" lon="4.92707">
        <ele>186.8</ele>
        <time>2022-06-25T08:35:13Z</time>
      </trkpt>
      <trkpt lat="46.56107" lon="4.92698">
        <ele>186.8</ele>
        <time>2022-06-25T08:35:14Z</time>
      </trkpt>
      <trkpt lat="46.5611" lon="4.92689">
        <ele>186.8</ele>
        <time>2022-06-25T08:35:15Z</time>
      </trkpt>
      <trkpt lat="46.56112" lon="4.92681">
        <ele>186.8</ele>
        <time>2022-06-25T08:35:16Z</time>
      </trkpt>
      <trkpt lat="46.56115" lon="4.92672">
        <ele>186.8</ele>
        <time>2022-06-25T08:35:17Z</time>
      </trkpt>
      <trkpt lat="46.56118" lon="4.92663">
        <ele>186.8</ele>
        <time>2022-06-25T08:35:18Z</time>
      </trkpt>
      <trkpt lat="46.5612" lon="4.92654">
        <ele>186.8</ele>
        <time>2022-06-25T08:35:19Z</time>
      </trkpt>
      <trkpt lat="46.56123" lon="4.92645">
        <ele>186.8</ele>
        <time>2022-06-25T08:35:20Z</time>
      </trkpt>
      <trkpt lat="46.56126" lon="4.92636">
        <ele>186.8</ele>
        <time>2022-06-25T08:35:21Z</time>
      </trkpt>
      <trkpt lat="46.56128" lon="4.92627">
        <ele>186.8</ele>
        <time>2022-06-25T08:35:22Z</time>
      </trkpt>
      <trkpt lat="46.56131" lon="4.92618">
        <ele>186.8</ele>
        <time>2022-06-25T08:35:23Z</time>
      </trkpt>
      <trkpt lat="46.56133" lon="4.92608">
        <ele>186.6</ele>
        <time>2022-06-25T08:35:25Z</time>
      </trkpt>
      <trkpt lat="46.56136" lon="4.92599">
        <ele>186.6</ele>
        <time>2022-06-25T08:35:26Z</time>
      </trkpt>
      <trkpt lat="46.56139" lon="4.9259">
        <ele>186.6</ele>
        <time>2022-06-25T08:35:27Z</time>
      </trkpt>
      <trkpt lat="46.56142" lon="4.92581">
        <ele>186.6</ele>
        <time>2022-06-25T08:35:28Z</time>
      </trkpt>
      <trkpt lat="46.56144" lon="4.92572">
        <ele>186.6</ele>
        <time>2022-06-25T08:35:29Z</time>
      </trkpt>
      <trkpt lat="46.56147" lon="4.92562">
        <ele>186.6</ele>
        <time>2022-06-25T08:35:30Z</time>
      </trkpt>
      <trkpt lat="46.56149" lon="4.92553">
        <ele>186.6</ele>
        <time>2022-06-25T08:35:31Z</time>
      </trkpt>
      <trkpt lat="46.56152" lon="4.92544">
        <ele>186.6</ele>
        <time>2022-06-25T08:35:32Z</time>
      </trkpt>
      <trkpt lat="46.56155" lon="4.92535">
        <ele>186.6</ele>
        <time>2022-06-25T08:35:33Z</time>
      </trkpt>
      <trkpt lat="46.56158" lon="4.92526">
        <ele>186.6</ele>
        <time>2022-06-25T08:35:34Z</time>
      </trkpt>
      <trkpt lat="46.5616" lon="4.92516">
        <ele>186.6</ele>
        <time>2022-06-25T08:35:35Z</time>
      </trkpt>
      <trkpt lat="46.56163" lon="4.92507">
        <ele>187</ele>
        <time>2022-06-25T08:35:36Z</time>
      </trkpt>
      <trkpt lat="46.56166" lon="4.92498">
        <ele>187</ele>
        <time>2022-06-25T08:35:37Z</time>
      </trkpt>
      <trkpt lat="46.56168" lon="4.92489">
        <ele>187</ele>
        <time>2022-06-25T08:35:38Z</time>
      </trkpt>
      <trkpt lat="46.56171" lon="4.92479">
        <ele>187</ele>
        <time>2022-06-25T08:35:39Z</time>
      </trkpt>
      <trkpt lat="46.56174" lon="4.9247">
        <ele>187</ele>
        <time>2022-06-25T08:35:40Z</time>
      </trkpt>
      <trkpt lat="46.56176" lon="4.92461">
        <ele>187</ele>
        <time>2022-06-25T08:35:41Z</time>
      </trkpt>
      <trkpt lat="46.56179" lon="4.92452">
        <ele>187</ele>
        <time>2022-06-25T08:35:42Z</time>
      </trkpt>
      <trkpt lat="46.56181" lon="4.92443">
        <ele>187</ele>
        <time>2022-06-25T08:35:43Z</time>
      </trkpt>
      <trkpt lat="46.56184" lon="4.92434">
        <ele>187</ele>
        <time>2022-06-25T08:35:44Z</time>
      </trkpt>
      <trkpt lat="46.56187" lon="4.92425">
        <ele>187</ele>
        <time>2022-06-25T08:35:45Z</time>
      </trkpt>
      <trkpt lat="46.56189" lon="4.92416">
        <ele>187</ele>
        <time>2022-06-25T08:35:46Z</time>
      </trkpt>
      <trkpt lat="46.56192" lon="4.92408">
        <ele>187</ele>
        <time>2022-06-25T08:35:47Z</time>
      </trkpt>
      <trkpt lat="46.56194" lon="4.92399">
        <ele>187</ele>
        <time>2022-06-25T08:35:48Z</time>
      </trkpt>
      <trkpt lat="46.56197" lon="4.9239">
        <ele>187</ele>
        <time>2022-06-25T08:35:49Z</time>
      </trkpt>
      <trkpt lat="46.562" lon="4.92381">
        <ele>187</ele>
        <time>2022-06-25T08:35:50Z</time>
      </trkpt>
      <trkpt lat="46.56202" lon="4.92372">
        <ele>187</ele>
        <time>2022-06-25T08:35:51Z</time>
      </trkpt>
      <trkpt lat="46.56205" lon="4.92363">
        <ele>187</ele>
        <time>2022-06-25T08:35:52Z</time>
      </trkpt>
      <trkpt lat="46.56208" lon="4.92354">
        <ele>187</ele>
        <time>2022-06-25T08:35:53Z</time>
      </trkpt>
      <trkpt lat="46.5621" lon="4.92345">
        <ele>187</ele>
        <time>2022-06-25T08:35:54Z</time>
      </trkpt>
      <trkpt lat="46.56213" lon="4.92336">
        <ele>187</ele>
        <time>2022-06-25T08:35:55Z</time>
      </trkpt>
      <trkpt lat="46.56215" lon="4.92327">
        <ele>187</ele>
        <time>2022-06-25T08:35:56Z</time>
      </trkpt>
      <trkpt lat="46.56218" lon="4.92319">
        <ele>187</ele>
        <time>2022-06-25T08:35:57Z</time>
      </trkpt>
      <trkpt lat="46.5622" lon="4.9231">
        <ele>187</ele>
        <time>2022-06-25T08:35:58Z</time>
      </trkpt>
      <trkpt lat="46.56223" lon="4.92301">
        <ele>187</ele>
        <time>2022-06-25T08:35:59Z</time>
      </trkpt>
      <trkpt lat="46.56225" lon="4.92293">
        <ele>187</ele>
        <time>2022-06-25T08:36:00Z</time>
      </trkpt>
      <trkpt lat="46.56228" lon="4.92285">
        <ele>187</ele>
        <time>2022-06-25T08:36:01Z</time>
      </trkpt>
      <trkpt lat="46.5623" lon="4.92277">
        <ele>187</ele>
        <time>2022-06-25T08:36:02Z</time>
      </trkpt>
      <trkpt lat="46.56232" lon="4.92269">
        <ele>187</ele>
        <time>2022-06-25T08:36:03Z</time>
      </trkpt>
      <trkpt lat="46.56235" lon="4.92261">
        <ele>187</ele>
        <time>2022-06-25T08:36:04Z</time>
      </trkpt>
      <trkpt lat="46.56237" lon="4.92253">
        <ele>187</ele>
        <time>2022-06-25T08:36:05Z</time>
      </trkpt>
      <trkpt lat="46.56239" lon="4.92245">
        <ele>187</ele>
        <time>2022-06-25T08:36:06Z</time>
      </trkpt>
      <trkpt lat="46.56242" lon="4.92237">
        <ele>187</ele>
        <time>2022-06-25T08:36:07Z</time>
      </trkpt>
      <trkpt lat="46.56244" lon="4.92229">
        <ele>187</ele>
        <time>2022-06-25T08:36:08Z</time>
      </trkpt>
      <trkpt lat="46.56247" lon="4.9222">
        <ele>187</ele>
        <time>2022-06-25T08:36:09Z</time>
      </trkpt>
      <trkpt lat="46.56249" lon="4.92212">
        <ele>187</ele>
        <time>2022-06-25T08:36:10Z</time>
      </trkpt>
      <trkpt lat="46.56251" lon="4.92204">
        <ele>187</ele>
        <time>2022-06-25T08:36:11Z</time>
      </trkpt>
      <trkpt lat="46.56253" lon="4.92195">
        <ele>187</ele>
        <time>2022-06-25T08:36:12Z</time>
      </trkpt>
      <trkpt lat="46.56256" lon="4.92187">
        <ele>187</ele>
        <time>2022-06-25T08:36:13Z</time>
      </trkpt>
      <trkpt lat="46.56258" lon="4.92178">
        <ele>187</ele>
        <time>2022-06-25T08:36:14Z</time>
      </trkpt>
      <trkpt lat="46.56261" lon="4.9217">
        <ele>187</ele>
        <time>2022-06-25T08:36:15Z</time>
      </trkpt>
      <trkpt lat="46.56263" lon="4.92161">
        <ele>187</ele>
        <time>2022-06-25T08:36:16Z</time>
      </trkpt>
      <trkpt lat="46.56266" lon="4.92153">
        <ele>187</ele>
        <time>2022-06-25T08:36:17Z</time>
      </trkpt>
      <trkpt lat="46.56268" lon="4.92144">
        <ele>187.2</ele>
        <time>2022-06-25T08:36:18Z</time>
      </trkpt>
      <trkpt lat="46.56271" lon="4.92136">
        <ele>187.2</ele>
        <time>2022-06-25T08:36:19Z</time>
      </trkpt>
      <trkpt lat="46.56273" lon="4.92127">
        <ele>187.2</ele>
        <time>2022-06-25T08:36:20Z</time>
      </trkpt>
      <trkpt lat="46.56276" lon="4.92119">
        <ele>187.2</ele>
        <time>2022-06-25T08:36:21Z</time>
      </trkpt>
      <trkpt lat="46.56278" lon="4.9211">
        <ele>187.2</ele>
        <time>2022-06-25T08:36:22Z</time>
      </trkpt>
      <trkpt lat="46.56281" lon="4.92102">
        <ele>187.2</ele>
        <time>2022-06-25T08:36:23Z</time>
      </trkpt>
      <trkpt lat="46.56283" lon="4.92093">
        <ele>187.2</ele>
        <time>2022-06-25T08:36:24Z</time>
      </trkpt>
      <trkpt lat="46.56286" lon="4.92085">
        <ele>187.2</ele>
        <time>2022-06-25T08:36:25Z</time>
      </trkpt>
      <trkpt lat="46.56288" lon="4.92076">
        <ele>187</ele>
        <time>2022-06-25T08:36:26Z</time>
      </trkpt>
      <trkpt lat="46.56291" lon="4.92067">
        <ele>187</ele>
        <time>2022-06-25T08:36:27Z</time>
      </trkpt>
      <trkpt lat="46.56293" lon="4.92059">
        <ele>187</ele>
        <time>2022-06-25T08:36:28Z</time>
      </trkpt>
      <trkpt lat="46.56296" lon="4.9205">
        <ele>187</ele>
        <time>2022-06-25T08:36:29Z</time>
      </trkpt>
      <trkpt lat="46.56301" lon="4.92033">
        <ele>187</ele>
        <time>2022-06-25T08:36:30Z</time>
      </trkpt>
      <trkpt lat="46.56303" lon="4.92024">
        <ele>187.2</ele>
        <time>2022-06-25T08:36:31Z</time>
      </trkpt>
      <trkpt lat="46.56306" lon="4.92016">
        <ele>187.2</ele>
        <time>2022-06-25T08:36:32Z</time>
      </trkpt>
      <trkpt lat="46.56308" lon="4.92007">
        <ele>187.2</ele>
        <time>2022-06-25T08:36:33Z</time>
      </trkpt>
      <trkpt lat="46.5631" lon="4.91999">
        <ele>187.2</ele>
        <time>2022-06-25T08:36:34Z</time>
      </trkpt>
      <trkpt lat="46.56313" lon="4.9199">
        <ele>187.2</ele>
        <time>2022-06-25T08:36:35Z</time>
      </trkpt>
      <trkpt lat="46.56315" lon="4.91981">
        <ele>187.2</ele>
        <time>2022-06-25T08:36:36Z</time>
      </trkpt>
      <trkpt lat="46.56317" lon="4.91972">
        <ele>187.2</ele>
        <time>2022-06-25T08:36:37Z</time>
      </trkpt>
      <trkpt lat="46.5632" lon="4.91963">
        <ele>187.2</ele>
        <time>2022-06-25T08:36:38Z</time>
      </trkpt>
      <trkpt lat="46.56322" lon="4.91954">
        <ele>187.2</ele>
        <time>2022-06-25T08:36:39Z</time>
      </trkpt>
      <trkpt lat="46.56325" lon="4.91945">
        <ele>187.2</ele>
        <time>2022-06-25T08:36:40Z</time>
      </trkpt>
      <trkpt lat="46.56327" lon="4.91936">
        <ele>187.2</ele>
        <time>2022-06-25T08:36:41Z</time>
      </trkpt>
      <trkpt lat="46.5633" lon="4.91927">
        <ele>187.2</ele>
        <time>2022-06-25T08:36:42Z</time>
      </trkpt>
      <trkpt lat="46.56333" lon="4.91918">
        <ele>187.2</ele>
        <time>2022-06-25T08:36:43Z</time>
      </trkpt>
      <trkpt lat="46.56336" lon="4.91909">
        <ele>187.2</ele>
        <time>2022-06-25T08:36:44Z</time>
      </trkpt>
      <trkpt lat="46.56339" lon="4.919">
        <ele>187</ele>
        <time>2022-06-25T08:36:45Z</time>
      </trkpt>
      <trkpt lat="46.56341" lon="4.91891">
        <ele>187</ele>
        <time>2022-06-25T08:36:46Z</time>
      </trkpt>
      <trkpt lat="46.56344" lon="4.91882">
        <ele>187</ele>
        <time>2022-06-25T08:36:47Z</time>
      </trkpt>
      <trkpt lat="46.56347" lon="4.91872">
        <ele>187</ele>
        <time>2022-06-25T08:36:48Z</time>
      </trkpt>
      <trkpt lat="46.56349" lon="4.91863">
        <ele>187</ele>
        <time>2022-06-25T08:36:49Z</time>
      </trkpt>
      <trkpt lat="46.56352" lon="4.91854">
        <ele>187.2</ele>
        <time>2022-06-25T08:36:50Z</time>
      </trkpt>
      <trkpt lat="46.56355" lon="4.91845">
        <ele>187.2</ele>
        <time>2022-06-25T08:36:51Z</time>
      </trkpt>
      <trkpt lat="46.56357" lon="4.91835">
        <ele>187.2</ele>
        <time>2022-06-25T08:36:52Z</time>
      </trkpt>
      <trkpt lat="46.5636" lon="4.91826">
        <ele>187.2</ele>
        <time>2022-06-25T08:36:53Z</time>
      </trkpt>
      <trkpt lat="46.56363" lon="4.91817">
        <ele>187.4</ele>
        <time>2022-06-25T08:36:54Z</time>
      </trkpt>
      <trkpt lat="46.56366" lon="4.91808">
        <ele>187.4</ele>
        <time>2022-06-25T08:36:55Z</time>
      </trkpt>
      <trkpt lat="46.56369" lon="4.91799">
        <ele>187.4</ele>
        <time>2022-06-25T08:36:56Z</time>
      </trkpt>
      <trkpt lat="46.56371" lon="4.9179">
        <ele>187.4</ele>
        <time>2022-06-25T08:36:57Z</time>
      </trkpt>
      <trkpt lat="46.56374" lon="4.91781">
        <ele>187.4</ele>
        <time>2022-06-25T08:36:58Z</time>
      </trkpt>
      <trkpt lat="46.56376" lon="4.91772">
        <ele>187.4</ele>
        <time>2022-06-25T08:36:59Z</time>
      </trkpt>
      <trkpt lat="46.56379" lon="4.91762">
        <ele>187.4</ele>
        <time>2022-06-25T08:37:00Z</time>
      </trkpt>
      <trkpt lat="46.56381" lon="4.91753">
        <ele>187.4</ele>
        <time>2022-06-25T08:37:01Z</time>
      </trkpt>
      <trkpt lat="46.56384" lon="4.91744">
        <ele>187.4</ele>
        <time>2022-06-25T08:37:02Z</time>
      </trkpt>
      <trkpt lat="46.56387" lon="4.91735">
        <ele>187.4</ele>
        <time>2022-06-25T08:37:03Z</time>
      </trkpt>
      <trkpt lat="46.5639" lon="4.91726">
        <ele>187.4</ele>
        <time>2022-06-25T08:37:04Z</time>
      </trkpt>
      <trkpt lat="46.56392" lon="4.91716">
        <ele>187.6</ele>
        <time>2022-06-25T08:37:05Z</time>
      </trkpt>
      <trkpt lat="46.56395" lon="4.91707">
        <ele>187.6</ele>
        <time>2022-06-25T08:37:06Z</time>
      </trkpt>
      <trkpt lat="46.56398" lon="4.91698">
        <ele>187.6</ele>
        <time>2022-06-25T08:37:07Z</time>
      </trkpt>
      <trkpt lat="46.564" lon="4.91689">
        <ele>187.6</ele>
        <time>2022-06-25T08:37:08Z</time>
      </trkpt>
      <trkpt lat="46.56403" lon="4.9168">
        <ele>187.6</ele>
        <time>2022-06-25T08:37:09Z</time>
      </trkpt>
      <trkpt lat="46.56406" lon="4.91671">
        <ele>187.4</ele>
        <time>2022-06-25T08:37:10Z</time>
      </trkpt>
      <trkpt lat="46.56408" lon="4.91662">
        <ele>187.4</ele>
        <time>2022-06-25T08:37:11Z</time>
      </trkpt>
      <trkpt lat="46.56411" lon="4.91653">
        <ele>187.4</ele>
        <time>2022-06-25T08:37:12Z</time>
      </trkpt>
      <trkpt lat="46.56413" lon="4.91644">
        <ele>187.4</ele>
        <time>2022-06-25T08:37:13Z</time>
      </trkpt>
      <trkpt lat="46.56416" lon="4.91636">
        <ele>187.4</ele>
        <time>2022-06-25T08:37:14Z</time>
      </trkpt>
      <trkpt lat="46.56418" lon="4.91627">
        <ele>187.4</ele>
        <time>2022-06-25T08:37:15Z</time>
      </trkpt>
      <trkpt lat="46.56421" lon="4.91619">
        <ele>187.4</ele>
        <time>2022-06-25T08:37:16Z</time>
      </trkpt>
      <trkpt lat="46.56423" lon="4.9161">
        <ele>187.4</ele>
        <time>2022-06-25T08:37:17Z</time>
      </trkpt>
      <trkpt lat="46.56426" lon="4.91602">
        <ele>187.4</ele>
        <time>2022-06-25T08:37:18Z</time>
      </trkpt>
      <trkpt lat="46.56428" lon="4.91593">
        <ele>187.4</ele>
        <time>2022-06-25T08:37:19Z</time>
      </trkpt>
      <trkpt lat="46.56431" lon="4.91585">
        <ele>187.6</ele>
        <time>2022-06-25T08:37:20Z</time>
      </trkpt>
      <trkpt lat="46.56433" lon="4.91576">
        <ele>187.6</ele>
        <time>2022-06-25T08:37:21Z</time>
      </trkpt>
      <trkpt lat="46.56436" lon="4.91568">
        <ele>187.6</ele>
        <time>2022-06-25T08:37:22Z</time>
      </trkpt>
      <trkpt lat="46.56438" lon="4.9156">
        <ele>187.6</ele>
        <time>2022-06-25T08:37:23Z</time>
      </trkpt>
      <trkpt lat="46.5644" lon="4.91552">
        <ele>188</ele>
        <time>2022-06-25T08:37:24Z</time>
      </trkpt>
      <trkpt lat="46.56443" lon="4.91544">
        <ele>188</ele>
        <time>2022-06-25T08:37:25Z</time>
      </trkpt>
      <trkpt lat="46.56445" lon="4.91536">
        <ele>188</ele>
        <time>2022-06-25T08:37:26Z</time>
      </trkpt>
      <trkpt lat="46.56447" lon="4.91528">
        <ele>188</ele>
        <time>2022-06-25T08:37:27Z</time>
      </trkpt>
      <trkpt lat="46.5645" lon="4.9152">
        <ele>188</ele>
        <time>2022-06-25T08:37:28Z</time>
      </trkpt>
      <trkpt lat="46.56452" lon="4.91513">
        <ele>188.2</ele>
        <time>2022-06-25T08:37:29Z</time>
      </trkpt>
      <trkpt lat="46.56454" lon="4.91505">
        <ele>188.2</ele>
        <time>2022-06-25T08:37:30Z</time>
      </trkpt>
      <trkpt lat="46.56456" lon="4.91498">
        <ele>188.2</ele>
        <time>2022-06-25T08:37:31Z</time>
      </trkpt>
      <trkpt lat="46.56458" lon="4.9149">
        <ele>188.6</ele>
        <time>2022-06-25T08:37:32Z</time>
      </trkpt>
      <trkpt lat="46.56459" lon="4.91483">
        <ele>188.6</ele>
        <time>2022-06-25T08:37:33Z</time>
      </trkpt>
      <trkpt lat="46.56461" lon="4.91476">
        <ele>188.8</ele>
        <time>2022-06-25T08:37:34Z</time>
      </trkpt>
      <trkpt lat="46.56462" lon="4.91468">
        <ele>188.8</ele>
        <time>2022-06-25T08:37:35Z</time>
      </trkpt>
      <trkpt lat="46.56464" lon="4.91461">
        <ele>189.2</ele>
        <time>2022-06-25T08:37:36Z</time>
      </trkpt>
      <trkpt lat="46.56465" lon="4.91454">
        <ele>189.2</ele>
        <time>2022-06-25T08:37:37Z</time>
      </trkpt>
      <trkpt lat="46.56466" lon="4.91447">
        <ele>189.4</ele>
        <time>2022-06-25T08:37:38Z</time>
      </trkpt>
      <trkpt lat="46.56466" lon="4.9144">
        <ele>189.4</ele>
        <time>2022-06-25T08:37:39Z</time>
      </trkpt>
      <trkpt lat="46.56466" lon="4.91433">
        <ele>189.6</ele>
        <time>2022-06-25T08:37:40Z</time>
      </trkpt>
      <trkpt lat="46.56466" lon="4.91426">
        <ele>189.6</ele>
        <time>2022-06-25T08:37:41Z</time>
      </trkpt>
      <trkpt lat="46.56465" lon="4.91419">
        <ele>190</ele>
        <time>2022-06-25T08:37:42Z</time>
      </trkpt>
      <trkpt lat="46.56464" lon="4.91412">
        <ele>190</ele>
        <time>2022-06-25T08:37:43Z</time>
      </trkpt>
      <trkpt lat="46.56462" lon="4.91406">
        <ele>190.2</ele>
        <time>2022-06-25T08:37:44Z</time>
      </trkpt>
      <trkpt lat="46.56461" lon="4.914">
        <ele>190.2</ele>
        <time>2022-06-25T08:37:45Z</time>
      </trkpt>
      <trkpt lat="46.56459" lon="4.91394">
        <ele>190.6</ele>
        <time>2022-06-25T08:37:46Z</time>
      </trkpt>
      <trkpt lat="46.56457" lon="4.91388">
        <ele>191</ele>
        <time>2022-06-25T08:37:47Z</time>
      </trkpt>
      <trkpt lat="46.56455" lon="4.91382">
        <ele>191.2</ele>
        <time>2022-06-25T08:37:48Z</time>
      </trkpt>
      <trkpt lat="46.56454" lon="4.91376">
        <ele>191.4</ele>
        <time>2022-06-25T08:37:49Z</time>
      </trkpt>
      <trkpt lat="46.56452" lon="4.9137">
        <ele>191.4</ele>
        <time>2022-06-25T08:37:50Z</time>
      </trkpt>
      <trkpt lat="46.5645" lon="4.91364">
        <ele>191.6</ele>
        <time>2022-06-25T08:37:51Z</time>
      </trkpt>
      <trkpt lat="46.56449" lon="4.91358">
        <ele>191.8</ele>
        <time>2022-06-25T08:37:52Z</time>
      </trkpt>
      <trkpt lat="46.56447" lon="4.91352">
        <ele>191.8</ele>
        <time>2022-06-25T08:37:53Z</time>
      </trkpt>
      <trkpt lat="46.56446" lon="4.91347">
        <ele>192.2</ele>
        <time>2022-06-25T08:37:54Z</time>
      </trkpt>
      <trkpt lat="46.56444" lon="4.91342">
        <ele>192.2</ele>
        <time>2022-06-25T08:37:55Z</time>
      </trkpt>
      <trkpt lat="46.56443" lon="4.91337">
        <ele>192.6</ele>
        <time>2022-06-25T08:37:56Z</time>
      </trkpt>
      <trkpt lat="46.56442" lon="4.91332">
        <ele>193</ele>
        <time>2022-06-25T08:37:57Z</time>
      </trkpt>
      <trkpt lat="46.5644" lon="4.91328">
        <ele>193</ele>
        <time>2022-06-25T08:37:58Z</time>
      </trkpt>
      <trkpt lat="46.56439" lon="4.91323">
        <ele>193.2</ele>
        <time>2022-06-25T08:37:59Z</time>
      </trkpt>
      <trkpt lat="46.56438" lon="4.91319">
        <ele>193.2</ele>
        <time>2022-06-25T08:38:00Z</time>
      </trkpt>
      <trkpt lat="46.56436" lon="4.91315">
        <ele>193.2</ele>
        <time>2022-06-25T08:38:01Z</time>
      </trkpt>
      <trkpt lat="46.56435" lon="4.9131">
        <ele>193.4</ele>
        <time>2022-06-25T08:38:02Z</time>
      </trkpt>
      <trkpt lat="46.56434" lon="4.91307">
        <ele>193.4</ele>
        <time>2022-06-25T08:38:03Z</time>
      </trkpt>
      <trkpt lat="46.56433" lon="4.91304">
        <ele>193.4</ele>
        <time>2022-06-25T08:38:04Z</time>
      </trkpt>
      <trkpt lat="46.56432" lon="4.91302">
        <ele>193.4</ele>
        <time>2022-06-25T08:38:05Z</time>
      </trkpt>
      <trkpt lat="46.56432" lon="4.91302">
        <ele>193.6</ele>
        <time>2022-06-25T08:38:07Z</time>
      </trkpt>
      <trkpt lat="46.56432" lon="4.91301">
        <ele>193.6</ele>
        <time>2022-06-25T08:38:08Z</time>
      </trkpt>
      <trkpt lat="46.56432" lon="4.91301">
        <ele>193.6</ele>
        <time>2022-06-25T08:38:11Z</time>
      </trkpt>
      <trkpt lat="46.56432" lon="4.913">
        <ele>193.6</ele>
        <time>2022-06-25T08:38:13Z</time>
      </trkpt>
      <trkpt lat="46.56432" lon="4.913">
        <ele>193.6</ele>
        <time>2022-06-25T08:38:16Z</time>
      </trkpt>
      <trkpt lat="46.56432" lon="4.913">
        <ele>193.6</ele>
        <time>2022-06-25T08:38:18Z</time>
      </trkpt>
      <trkpt lat="46.56432" lon="4.91299">
        <ele>193.6</ele>
        <time>2022-06-25T08:38:20Z</time>
      </trkpt>
      <trkpt lat="46.56431" lon="4.91299">
        <ele>193.6</ele>
        <time>2022-06-25T08:38:22Z</time>
      </trkpt>
      <trkpt lat="46.56431" lon="4.91298">
        <ele>193.6</ele>
        <time>2022-06-25T08:38:23Z</time>
      </trkpt>
      <trkpt lat="46.56431" lon="4.91298">
        <ele>193.6</ele>
        <time>2022-06-25T08:38:25Z</time>
      </trkpt>
      <trkpt lat="46.56431" lon="4.91297">
        <ele>193.6</ele>
        <time>2022-06-25T08:38:28Z</time>
      </trkpt>
      <trkpt lat="46.56431" lon="4.91297">
        <ele>193.6</ele>
        <time>2022-06-25T08:38:29Z</time>
      </trkpt>
      <trkpt lat="46.56431" lon="4.91297">
        <ele>193.6</ele>
        <time>2022-06-25T08:38:32Z</time>
      </trkpt>
      <trkpt lat="46.56431" lon="4.91296">
        <ele>193.6</ele>
        <time>2022-06-25T08:38:33Z</time>
      </trkpt>
      <trkpt lat="46.56431" lon="4.91296">
        <ele>193.8</ele>
        <time>2022-06-25T08:39:16Z</time>
      </trkpt>
      <trkpt lat="46.56431" lon="4.91295">
        <ele>193.8</ele>
        <time>2022-06-25T08:39:17Z</time>
      </trkpt>
      <trkpt lat="46.5643" lon="4.91295">
        <ele>193.8</ele>
        <time>2022-06-25T08:39:18Z</time>
      </trkpt>
      <trkpt lat="46.5643" lon="4.91295">
        <ele>193.8</ele>
        <time>2022-06-25T08:39:23Z</time>
      </trkpt>
      <trkpt lat="46.5643" lon="4.91294">
        <ele>193.8</ele>
        <time>2022-06-25T08:39:24Z</time>
      </trkpt>
      <trkpt lat="46.5643" lon="4.91294">
        <ele>193.8</ele>
        <time>2022-06-25T08:39:28Z</time>
      </trkpt>
      <trkpt lat="46.5643" lon="4.91293">
        <ele>193.8</ele>
        <time>2022-06-25T08:39:29Z</time>
      </trkpt>
      <trkpt lat="46.5643" lon="4.91293">
        <ele>193.8</ele>
        <time>2022-06-25T08:39:31Z</time>
      </trkpt>
      <trkpt lat="46.5643" lon="4.91292">
        <ele>193.8</ele>
        <time>2022-06-25T08:39:33Z</time>
      </trkpt>
      <trkpt lat="46.56429" lon="4.9129">
        <ele>193.8</ele>
        <time>2022-06-25T08:39:34Z</time>
      </trkpt>
      <trkpt lat="46.56428" lon="4.91287">
        <ele>193.8</ele>
        <time>2022-06-25T08:39:35Z</time>
      </trkpt>
      <trkpt lat="46.56427" lon="4.91283">
        <ele>193.6</ele>
        <time>2022-06-25T08:39:36Z</time>
      </trkpt>
      <trkpt lat="46.56426" lon="4.9128">
        <ele>193.6</ele>
        <time>2022-06-25T08:39:37Z</time>
      </trkpt>
      <trkpt lat="46.56425" lon="4.91276">
        <ele>193.6</ele>
        <time>2022-06-25T08:39:38Z</time>
      </trkpt>
      <trkpt lat="46.56424" lon="4.91272">
        <ele>193.4</ele>
        <time>2022-06-25T08:39:39Z</time>
      </trkpt>
      <trkpt lat="46.56422" lon="4.91268">
        <ele>193.4</ele>
        <time>2022-06-25T08:39:40Z</time>
      </trkpt>
      <trkpt lat="46.56421" lon="4.91264">
        <ele>193.4</ele>
        <time>2022-06-25T08:39:41Z</time>
      </trkpt>
      <trkpt lat="46.5642" lon="4.9126">
        <ele>193</ele>
        <time>2022-06-25T08:39:42Z</time>
      </trkpt>
      <trkpt lat="46.56419" lon="4.91256">
        <ele>193</ele>
        <time>2022-06-25T08:39:43Z</time>
      </trkpt>
      <trkpt lat="46.56418" lon="4.91252">
        <ele>192.6</ele>
        <time>2022-06-25T08:39:44Z</time>
      </trkpt>
      <trkpt lat="46.56417" lon="4.91248">
        <ele>192.6</ele>
        <time>2022-06-25T08:39:45Z</time>
      </trkpt>
      <trkpt lat="46.56416" lon="4.91245">
        <ele>192.6</ele>
        <time>2022-06-25T08:39:46Z</time>
      </trkpt>
      <trkpt lat="46.56415" lon="4.91241">
        <ele>192.2</ele>
        <time>2022-06-25T08:39:47Z</time>
      </trkpt>
      <trkpt lat="46.56414" lon="4.91237">
        <ele>192.2</ele>
        <time>2022-06-25T08:39:48Z</time>
      </trkpt>
      <trkpt lat="46.56413" lon="4.91234">
        <ele>191.8</ele>
        <time>2022-06-25T08:39:49Z</time>
      </trkpt>
      <trkpt lat="46.56412" lon="4.91231">
        <ele>191.8</ele>
        <time>2022-06-25T08:39:50Z</time>
      </trkpt>
      <trkpt lat="46.56411" lon="4.91228">
        <ele>191.4</ele>
        <time>2022-06-25T08:39:51Z</time>
      </trkpt>
      <trkpt lat="46.5641" lon="4.91226">
        <ele>191.4</ele>
        <time>2022-06-25T08:39:52Z</time>
      </trkpt>
      <trkpt lat="46.5641" lon="4.91225">
        <ele>191.2</ele>
        <time>2022-06-25T08:39:53Z</time>
      </trkpt>
      <trkpt lat="46.5641" lon="4.91225">
        <ele>191.2</ele>
        <time>2022-06-25T08:39:55Z</time>
      </trkpt>
      <trkpt lat="46.5641" lon="4.9122">
        <ele>191</ele>
        <time>2022-06-25T08:39:58Z</time>
      </trkpt>
      <trkpt lat="46.56409" lon="4.91219">
        <ele>191</ele>
        <time>2022-06-25T08:39:59Z</time>
      </trkpt>
      <trkpt lat="46.56409" lon="4.91218">
        <ele>190.8</ele>
        <time>2022-06-25T08:40:00Z</time>
      </trkpt>
      <trkpt lat="46.56408" lon="4.91215">
        <ele>190.6</ele>
        <time>2022-06-25T08:40:06Z</time>
      </trkpt>
      <trkpt lat="46.56407" lon="4.91213">
        <ele>190.6</ele>
        <time>2022-06-25T08:40:07Z</time>
      </trkpt>
      <trkpt lat="46.56406" lon="4.91211">
        <ele>190.6</ele>
        <time>2022-06-25T08:40:08Z</time>
      </trkpt>
      <trkpt lat="46.56405" lon="4.91208">
        <ele>190.6</ele>
        <time>2022-06-25T08:40:09Z</time>
      </trkpt>
      <trkpt lat="46.56403" lon="4.91204">
        <ele>190.6</ele>
        <time>2022-06-25T08:40:10Z</time>
      </trkpt>
      <trkpt lat="46.56402" lon="4.912">
        <ele>190.6</ele>
        <time>2022-06-25T08:40:11Z</time>
      </trkpt>
      <trkpt lat="46.56401" lon="4.91196">
        <ele>190.6</ele>
        <time>2022-06-25T08:40:12Z</time>
      </trkpt>
      <trkpt lat="46.56399" lon="4.91192">
        <ele>190.6</ele>
        <time>2022-06-25T08:40:13Z</time>
      </trkpt>
      <trkpt lat="46.56398" lon="4.91188">
        <ele>190.8</ele>
        <time>2022-06-25T08:40:14Z</time>
      </trkpt>
      <trkpt lat="46.56397" lon="4.91184">
        <ele>190.8</ele>
        <time>2022-06-25T08:40:15Z</time>
      </trkpt>
      <trkpt lat="46.56397" lon="4.9118">
        <ele>190.8</ele>
        <time>2022-06-25T08:40:16Z</time>
      </trkpt>
      <trkpt lat="46.56396" lon="4.91176">
        <ele>190.8</ele>
        <time>2022-06-25T08:40:17Z</time>
      </trkpt>
      <trkpt lat="46.56395" lon="4.91172">
        <ele>191</ele>
        <time>2022-06-25T08:40:18Z</time>
      </trkpt>
      <trkpt lat="46.56393" lon="4.91168">
        <ele>191</ele>
        <time>2022-06-25T08:40:19Z</time>
      </trkpt>
      <trkpt lat="46.56392" lon="4.91165">
        <ele>191</ele>
        <time>2022-06-25T08:40:20Z</time>
      </trkpt>
      <trkpt lat="46.56391" lon="4.91161">
        <ele>191</ele>
        <time>2022-06-25T08:40:21Z</time>
      </trkpt>
      <trkpt lat="46.5639" lon="4.91156">
        <ele>191.2</ele>
        <time>2022-06-25T08:40:22Z</time>
      </trkpt>
      <trkpt lat="46.56389" lon="4.91152">
        <ele>191.2</ele>
        <time>2022-06-25T08:40:23Z</time>
      </trkpt>
      <trkpt lat="46.56387" lon="4.91149">
        <ele>191.2</ele>
        <time>2022-06-25T08:40:24Z</time>
      </trkpt>
      <trkpt lat="46.56386" lon="4.91145">
        <ele>191.2</ele>
        <time>2022-06-25T08:40:25Z</time>
      </trkpt>
      <trkpt lat="46.56385" lon="4.91142">
        <ele>191.4</ele>
        <time>2022-06-25T08:40:26Z</time>
      </trkpt>
      <trkpt lat="46.56384" lon="4.91138">
        <ele>191.4</ele>
        <time>2022-06-25T08:40:27Z</time>
      </trkpt>
      <trkpt lat="46.56383" lon="4.91135">
        <ele>191.4</ele>
        <time>2022-06-25T08:40:28Z</time>
      </trkpt>
      <trkpt lat="46.56382" lon="4.91132">
        <ele>191.4</ele>
        <time>2022-06-25T08:40:29Z</time>
      </trkpt>
      <trkpt lat="46.56381" lon="4.91128">
        <ele>191.4</ele>
        <time>2022-06-25T08:40:30Z</time>
      </trkpt>
      <trkpt lat="46.56381" lon="4.91125">
        <ele>191.8</ele>
        <time>2022-06-25T08:40:31Z</time>
      </trkpt>
      <trkpt lat="46.5638" lon="4.91122">
        <ele>191.8</ele>
        <time>2022-06-25T08:40:32Z</time>
      </trkpt>
      <trkpt lat="46.56378" lon="4.91119">
        <ele>191.8</ele>
        <time>2022-06-25T08:40:33Z</time>
      </trkpt>
      <trkpt lat="46.56378" lon="4.91116">
        <ele>191.8</ele>
        <time>2022-06-25T08:40:34Z</time>
      </trkpt>
      <trkpt lat="46.56377" lon="4.91112">
        <ele>191.8</ele>
        <time>2022-06-25T08:40:35Z</time>
      </trkpt>
      <trkpt lat="46.56376" lon="4.91109">
        <ele>192</ele>
        <time>2022-06-25T08:40:36Z</time>
      </trkpt>
      <trkpt lat="46.56375" lon="4.91107">
        <ele>192</ele>
        <time>2022-06-25T08:40:37Z</time>
      </trkpt>
      <trkpt lat="46.56374" lon="4.91106">
        <ele>192</ele>
        <time>2022-06-25T08:40:38Z</time>
      </trkpt>
      <trkpt lat="46.56374" lon="4.91106">
        <ele>192</ele>
        <time>2022-06-25T08:40:40Z</time>
      </trkpt>
      <trkpt lat="46.56374" lon="4.91106">
        <ele>192</ele>
        <time>2022-06-25T08:40:42Z</time>
      </trkpt>
      <trkpt lat="46.56373" lon="4.91107">
        <ele>192</ele>
        <time>2022-06-25T08:40:44Z</time>
      </trkpt>
      <trkpt lat="46.56373" lon="4.91107">
        <ele>192</ele>
        <time>2022-06-25T08:40:45Z</time>
      </trkpt>
      <trkpt lat="46.56373" lon="4.91107">
        <ele>192</ele>
        <time>2022-06-25T08:40:54Z</time>
      </trkpt>
      <trkpt lat="46.56373" lon="4.91108">
        <ele>192</ele>
        <time>2022-06-25T08:40:56Z</time>
      </trkpt>
      <trkpt lat="46.56373" lon="4.91108">
        <ele>192</ele>
        <time>2022-06-25T08:40:57Z</time>
      </trkpt>
      <trkpt lat="46.56373" lon="4.91108">
        <ele>192</ele>
        <time>2022-06-25T08:41:00Z</time>
      </trkpt>
      <trkpt lat="46.56373" lon="4.91108">
        <ele>191.8</ele>
        <time>2022-06-25T08:41:06Z</time>
      </trkpt>
      <trkpt lat="46.56372" lon="4.91109">
        <ele>191.8</ele>
        <time>2022-06-25T08:41:07Z</time>
      </trkpt>
      <trkpt lat="46.56372" lon="4.91109">
        <ele>191.6</ele>
        <time>2022-06-25T08:41:10Z</time>
      </trkpt>
      <trkpt lat="46.56372" lon="4.91109">
        <ele>191.6</ele>
        <time>2022-06-25T08:41:12Z</time>
      </trkpt>
      <trkpt lat="46.56372" lon="4.9111">
        <ele>191.6</ele>
        <time>2022-06-25T08:41:13Z</time>
      </trkpt>
      <trkpt lat="46.56372" lon="4.9111">
        <ele>191.6</ele>
        <time>2022-06-25T08:41:20Z</time>
      </trkpt>
      <trkpt lat="46.56372" lon="4.9111">
        <ele>191.6</ele>
        <time>2022-06-25T08:41:22Z</time>
      </trkpt>
      <trkpt lat="46.56371" lon="4.91111">
        <ele>191.6</ele>
        <time>2022-06-25T08:41:24Z</time>
      </trkpt>
      <trkpt lat="46.56371" lon="4.91111">
        <ele>191.6</ele>
        <time>2022-06-25T08:41:25Z</time>
      </trkpt>
      <trkpt lat="46.56371" lon="4.91111">
        <ele>191.2</ele>
        <time>2022-06-25T08:41:28Z</time>
      </trkpt>
      <trkpt lat="46.56371" lon="4.91111">
        <ele>191.2</ele>
        <time>2022-06-25T08:41:31Z</time>
      </trkpt>
      <trkpt lat="46.56371" lon="4.91112">
        <ele>191.2</ele>
        <time>2022-06-25T08:41:32Z</time>
      </trkpt>
      <trkpt lat="46.56371" lon="4.91112">
        <ele>191.2</ele>
        <time>2022-06-25T08:41:34Z</time>
      </trkpt>
      <trkpt lat="46.56371" lon="4.91112">
        <ele>191.2</ele>
        <time>2022-06-25T08:41:36Z</time>
      </trkpt>
      <trkpt lat="46.5637" lon="4.91113">
        <ele>191.2</ele>
        <time>2022-06-25T08:41:37Z</time>
      </trkpt>
      <trkpt lat="46.5637" lon="4.91113">
        <ele>191.2</ele>
        <time>2022-06-25T08:41:39Z</time>
      </trkpt>
      <trkpt lat="46.5637" lon="4.91113">
        <ele>191.2</ele>
        <time>2022-06-25T08:41:41Z</time>
      </trkpt>
      <trkpt lat="46.5637" lon="4.91114">
        <ele>191</ele>
        <time>2022-06-25T08:41:49Z</time>
      </trkpt>
      <trkpt lat="46.5637" lon="4.91114">
        <ele>191</ele>
        <time>2022-06-25T08:41:50Z</time>
      </trkpt>
      <trkpt lat="46.5637" lon="4.91114">
        <ele>191</ele>
        <time>2022-06-25T08:41:52Z</time>
      </trkpt>
      <trkpt lat="46.56369" lon="4.91115">
        <ele>191</ele>
        <time>2022-06-25T08:41:54Z</time>
      </trkpt>
      <trkpt lat="46.56369" lon="4.91115">
        <ele>191</ele>
        <time>2022-06-25T08:41:55Z</time>
      </trkpt>
      <trkpt lat="46.56369" lon="4.91115">
        <ele>191</ele>
        <time>2022-06-25T08:41:57Z</time>
      </trkpt>
      <trkpt lat="46.56369" lon="4.91115">
        <ele>191</ele>
        <time>2022-06-25T08:41:59Z</time>
      </trkpt>
      <trkpt lat="46.56369" lon="4.91116">
        <ele>191</ele>
        <time>2022-06-25T08:42:00Z</time>
      </trkpt>
      <trkpt lat="46.56369" lon="4.91116">
        <ele>191</ele>
        <time>2022-06-25T08:42:02Z</time>
      </trkpt>
      <trkpt lat="46.56369" lon="4.91116">
        <ele>191</ele>
        <time>2022-06-25T08:42:04Z</time>
      </trkpt>
      <trkpt lat="46.56368" lon="4.91117">
        <ele>191</ele>
        <time>2022-06-25T08:42:05Z</time>
      </trkpt>
      <trkpt lat="46.56368" lon="4.91117">
        <ele>191</ele>
        <time>2022-06-25T08:42:07Z</time>
      </trkpt>
      <trkpt lat="46.56368" lon="4.91118">
        <ele>191</ele>
        <time>2022-06-25T08:42:09Z</time>
      </trkpt>
      <trkpt lat="46.56367" lon="4.91118">
        <ele>191</ele>
        <time>2022-06-25T08:42:10Z</time>
      </trkpt>
      <trkpt lat="46.56367" lon="4.91119">
        <ele>191</ele>
        <time>2022-06-25T08:42:12Z</time>
      </trkpt>
      <trkpt lat="46.56367" lon="4.91119">
        <ele>191</ele>
        <time>2022-06-25T08:42:14Z</time>
      </trkpt>
      <trkpt lat="46.56366" lon="4.91119">
        <ele>191</ele>
        <time>2022-06-25T08:42:16Z</time>
      </trkpt>
      <trkpt lat="46.56366" lon="4.9112">
        <ele>191</ele>
        <time>2022-06-25T08:42:17Z</time>
      </trkpt>
      <trkpt lat="46.56366" lon="4.9112">
        <ele>191</ele>
        <time>2022-06-25T08:42:19Z</time>
      </trkpt>
      <trkpt lat="46.56365" lon="4.9112">
        <ele>191</ele>
        <time>2022-06-25T08:42:20Z</time>
      </trkpt>
      <trkpt lat="46.56365" lon="4.91121">
        <ele>191</ele>
        <time>2022-06-25T08:42:21Z</time>
      </trkpt>
      <trkpt lat="46.56364" lon="4.91122">
        <ele>191</ele>
        <time>2022-06-25T08:42:23Z</time>
      </trkpt>
      <trkpt lat="46.56364" lon="4.91122">
        <ele>191</ele>
        <time>2022-06-25T08:42:24Z</time>
      </trkpt>
      <trkpt lat="46.56364" lon="4.91122">
        <ele>191</ele>
        <time>2022-06-25T08:42:27Z</time>
      </trkpt>
      <trkpt lat="46.56363" lon="4.91122">
        <ele>190.8</ele>
        <time>2022-06-25T08:42:29Z</time>
      </trkpt>
      <trkpt lat="46.56363" lon="4.91122">
        <ele>190.8</ele>
        <time>2022-06-25T08:42:30Z</time>
      </trkpt>
      <trkpt lat="46.56363" lon="4.91123">
        <ele>190.8</ele>
        <time>2022-06-25T08:42:32Z</time>
      </trkpt>
      <trkpt lat="46.56363" lon="4.91123">
        <ele>190.6</ele>
        <time>2022-06-25T08:42:34Z</time>
      </trkpt>
      <trkpt lat="46.56363" lon="4.91123">
        <ele>190.6</ele>
        <time>2022-06-25T08:42:37Z</time>
      </trkpt>
      <trkpt lat="46.56363" lon="4.91123">
        <ele>190.6</ele>
        <time>2022-06-25T08:42:39Z</time>
      </trkpt>
      <trkpt lat="46.56363" lon="4.91123">
        <ele>190.6</ele>
        <time>2022-06-25T08:42:41Z</time>
      </trkpt>
      <trkpt lat="46.56362" lon="4.91123">
        <ele>190.2</ele>
        <time>2022-06-25T08:42:42Z</time>
      </trkpt>
      <trkpt lat="46.56362" lon="4.91123">
        <ele>190.2</ele>
        <time>2022-06-25T08:42:44Z</time>
      </trkpt>
      <trkpt lat="46.56362" lon="4.91123">
        <ele>190.2</ele>
        <time>2022-06-25T08:42:47Z</time>
      </trkpt>
      <trkpt lat="46.56362" lon="4.91123">
        <ele>190</ele>
        <time>2022-06-25T08:42:49Z</time>
      </trkpt>
      <trkpt lat="46.56362" lon="4.91123">
        <ele>190</ele>
        <time>2022-06-25T08:42:51Z</time>
      </trkpt>
      <trkpt lat="46.56362" lon="4.91123">
        <ele>190</ele>
        <time>2022-06-25T08:42:53Z</time>
      </trkpt>
      <trkpt lat="46.56361" lon="4.91124">
        <ele>190</ele>
        <time>2022-06-25T08:42:54Z</time>
      </trkpt>
      <trkpt lat="46.56361" lon="4.91124">
        <ele>190</ele>
        <time>2022-06-25T08:42:56Z</time>
      </trkpt>
      <trkpt lat="46.56361" lon="4.91124">
        <ele>190</ele>
        <time>2022-06-25T08:42:58Z</time>
      </trkpt>
      <trkpt lat="46.56361" lon="4.91124">
        <ele>190</ele>
        <time>2022-06-25T08:43:00Z</time>
      </trkpt>
      <trkpt lat="46.56361" lon="4.91124">
        <ele>190</ele>
        <time>2022-06-25T08:43:03Z</time>
      </trkpt>
      <trkpt lat="46.56361" lon="4.91124">
        <ele>190</ele>
        <time>2022-06-25T08:43:10Z</time>
      </trkpt>
      <trkpt lat="46.5636" lon="4.91124">
        <ele>190</ele>
        <time>2022-06-25T08:43:12Z</time>
      </trkpt>
      <trkpt lat="46.5636" lon="4.91124">
        <ele>190</ele>
        <time>2022-06-25T08:43:13Z</time>
      </trkpt>
      <trkpt lat="46.5636" lon="4.91124">
        <ele>190</ele>
        <time>2022-06-25T08:43:15Z</time>
      </trkpt>
      <trkpt lat="46.5636" lon="4.91124">
        <ele>190</ele>
        <time>2022-06-25T08:43:17Z</time>
      </trkpt>
      <trkpt lat="46.5636" lon="4.91124">
        <ele>190</ele>
        <time>2022-06-25T08:43:19Z</time>
      </trkpt>
      <trkpt lat="46.5636" lon="4.91125">
        <ele>190</ele>
        <time>2022-06-25T08:43:20Z</time>
      </trkpt>
      <trkpt lat="46.5636" lon="4.91125">
        <ele>190</ele>
        <time>2022-06-25T08:43:22Z</time>
      </trkpt>
      <trkpt lat="46.56359" lon="4.91125">
        <ele>190</ele>
        <time>2022-06-25T08:43:24Z</time>
      </trkpt>
      <trkpt lat="46.56359" lon="4.91125">
        <ele>189.8</ele>
        <time>2022-06-25T08:43:27Z</time>
      </trkpt>
      <trkpt lat="46.56359" lon="4.91125">
        <ele>189.8</ele>
        <time>2022-06-25T08:43:30Z</time>
      </trkpt>
      <trkpt lat="46.56359" lon="4.91125">
        <ele>189.8</ele>
        <time>2022-06-25T08:43:32Z</time>
      </trkpt>
      <trkpt lat="46.56359" lon="4.91125">
        <ele>189.8</ele>
        <time>2022-06-25T08:43:35Z</time>
      </trkpt>
      <trkpt lat="46.56359" lon="4.91125">
        <ele>189.8</ele>
        <time>2022-06-25T08:43:37Z</time>
      </trkpt>
      <trkpt lat="46.56358" lon="4.91125">
        <ele>189.8</ele>
        <time>2022-06-25T08:43:38Z</time>
      </trkpt>
      <trkpt lat="46.56358" lon="4.91125">
        <ele>189.8</ele>
        <time>2022-06-25T08:43:40Z</time>
      </trkpt>
      <trkpt lat="46.56358" lon="4.91125">
        <ele>189.8</ele>
        <time>2022-06-25T08:43:42Z</time>
      </trkpt>
      <trkpt lat="46.56358" lon="4.91126">
        <ele>189.8</ele>
        <time>2022-06-25T08:43:43Z</time>
      </trkpt>
      <trkpt lat="46.56358" lon="4.91126">
        <ele>189.6</ele>
        <time>2022-06-25T08:43:46Z</time>
      </trkpt>
      <trkpt lat="46.56358" lon="4.91126">
        <ele>189.6</ele>
        <time>2022-06-25T08:43:50Z</time>
      </trkpt>
      <trkpt lat="46.56357" lon="4.91126">
        <ele>189.6</ele>
        <time>2022-06-25T08:43:53Z</time>
      </trkpt>
      <trkpt lat="46.56357" lon="4.91126">
        <ele>189.6</ele>
        <time>2022-06-25T08:43:54Z</time>
      </trkpt>
      <trkpt lat="46.56357" lon="4.91126">
        <ele>189.6</ele>
        <time>2022-06-25T08:43:56Z</time>
      </trkpt>
      <trkpt lat="46.56357" lon="4.91126">
        <ele>189.6</ele>
        <time>2022-06-25T08:44:02Z</time>
      </trkpt>
      <trkpt lat="46.56357" lon="4.91126">
        <ele>189.6</ele>
        <time>2022-06-25T08:44:04Z</time>
      </trkpt>
      <trkpt lat="46.56357" lon="4.91126">
        <ele>189.8</ele>
        <time>2022-06-25T08:44:07Z</time>
      </trkpt>
      <trkpt lat="46.56356" lon="4.91126">
        <ele>189.8</ele>
        <time>2022-06-25T08:44:10Z</time>
      </trkpt>
      <trkpt lat="46.56356" lon="4.91127">
        <ele>190</ele>
        <time>2022-06-25T08:44:12Z</time>
      </trkpt>
      <trkpt lat="46.56356" lon="4.91127">
        <ele>190</ele>
        <time>2022-06-25T08:44:14Z</time>
      </trkpt>
      <trkpt lat="46.56356" lon="4.91127">
        <ele>190</ele>
        <time>2022-06-25T08:44:22Z</time>
      </trkpt>
      <trkpt lat="46.56356" lon="4.91127">
        <ele>190</ele>
        <time>2022-06-25T08:44:26Z</time>
      </trkpt>
      <trkpt lat="46.56356" lon="4.91127">
        <ele>190</ele>
        <time>2022-06-25T08:44:28Z</time>
      </trkpt>
      <trkpt lat="46.56355" lon="4.91127">
        <ele>190.2</ele>
        <time>2022-06-25T08:44:30Z</time>
      </trkpt>
      <trkpt lat="46.56355" lon="4.91127">
        <ele>190.2</ele>
        <time>2022-06-25T08:44:33Z</time>
      </trkpt>
      <trkpt lat="46.56355" lon="4.91127">
        <ele>190.2</ele>
        <time>2022-06-25T08:44:35Z</time>
      </trkpt>
      <trkpt lat="46.56355" lon="4.91127">
        <ele>190.2</ele>
        <time>2022-06-25T08:44:37Z</time>
      </trkpt>
      <trkpt lat="46.56355" lon="4.91127">
        <ele>190.2</ele>
        <time>2022-06-25T08:44:39Z</time>
      </trkpt>
      <trkpt lat="46.56355" lon="4.91128">
        <ele>190.2</ele>
        <time>2022-06-25T08:44:44Z</time>
      </trkpt>
      <trkpt lat="46.56355" lon="4.91128">
        <ele>190.2</ele>
        <time>2022-06-25T08:44:49Z</time>
      </trkpt>
      <trkpt lat="46.56354" lon="4.91128">
        <ele>190.2</ele>
        <time>2022-06-25T08:44:50Z</time>
      </trkpt>
      <trkpt lat="46.56354" lon="4.91128">
        <ele>190.2</ele>
        <time>2022-06-25T08:44:52Z</time>
      </trkpt>
      <trkpt lat="46.56354" lon="4.91128">
        <ele>190.2</ele>
        <time>2022-06-25T08:44:54Z</time>
      </trkpt>
      <trkpt lat="46.56354" lon="4.91128">
        <ele>190.2</ele>
        <time>2022-06-25T08:44:56Z</time>
      </trkpt>
      <trkpt lat="46.56354" lon="4.91128">
        <ele>190.2</ele>
        <time>2022-06-25T08:44:58Z</time>
      </trkpt>
      <trkpt lat="46.56354" lon="4.91128">
        <ele>190.2</ele>
        <time>2022-06-25T08:45:00Z</time>
      </trkpt>
      <trkpt lat="46.56353" lon="4.91128">
        <ele>190.2</ele>
        <time>2022-06-25T08:45:06Z</time>
      </trkpt>
      <trkpt lat="46.56353" lon="4.91128">
        <ele>190.2</ele>
        <time>2022-06-25T08:45:07Z</time>
      </trkpt>
      <trkpt lat="46.56353" lon="4.91128">
        <ele>190.2</ele>
        <time>2022-06-25T08:45:09Z</time>
      </trkpt>
      <trkpt lat="46.56353" lon="4.91128">
        <ele>190.2</ele>
        <time>2022-06-25T08:45:11Z</time>
      </trkpt>
      <trkpt lat="46.56353" lon="4.91129">
        <ele>190.2</ele>
        <time>2022-06-25T08:45:12Z</time>
      </trkpt>
      <trkpt lat="46.56353" lon="4.91129">
        <ele>190.2</ele>
        <time>2022-06-25T08:45:14Z</time>
      </trkpt>
      <trkpt lat="46.56353" lon="4.91129">
        <ele>190.2</ele>
        <time>2022-06-25T08:45:16Z</time>
      </trkpt>
      <trkpt lat="46.56352" lon="4.91129">
        <ele>190.2</ele>
        <time>2022-06-25T08:45:18Z</time>
      </trkpt>
      <trkpt lat="46.56352" lon="4.91129">
        <ele>190.2</ele>
        <time>2022-06-25T08:45:19Z</time>
      </trkpt>
      <trkpt lat="46.56352" lon="4.91129">
        <ele>190.2</ele>
        <time>2022-06-25T08:45:21Z</time>
      </trkpt>
      <trkpt lat="46.56352" lon="4.91129">
        <ele>190.2</ele>
        <time>2022-06-25T08:45:26Z</time>
      </trkpt>
      <trkpt lat="46.56352" lon="4.91129">
        <ele>190.6</ele>
        <time>2022-06-25T08:45:29Z</time>
      </trkpt>
      <trkpt lat="46.56352" lon="4.91129">
        <ele>190.6</ele>
        <time>2022-06-25T08:45:33Z</time>
      </trkpt>
      <trkpt lat="46.56351" lon="4.91129">
        <ele>190.6</ele>
        <time>2022-06-25T08:45:35Z</time>
      </trkpt>
      <trkpt lat="46.56351" lon="4.91129">
        <ele>190.6</ele>
        <time>2022-06-25T08:45:37Z</time>
      </trkpt>
      <trkpt lat="46.56351" lon="4.9113">
        <ele>190.6</ele>
        <time>2022-06-25T08:45:39Z</time>
      </trkpt>
      <trkpt lat="46.56351" lon="4.9113">
        <ele>190.6</ele>
        <time>2022-06-25T08:45:40Z</time>
      </trkpt>
      <trkpt lat="46.56351" lon="4.9113">
        <ele>190.6</ele>
        <time>2022-06-25T08:45:42Z</time>
      </trkpt>
      <trkpt lat="46.56351" lon="4.9113">
        <ele>190.6</ele>
        <time>2022-06-25T08:45:44Z</time>
      </trkpt>
      <trkpt lat="46.56351" lon="4.9113">
        <ele>190.6</ele>
        <time>2022-06-25T08:45:47Z</time>
      </trkpt>
      <trkpt lat="46.5635" lon="4.9113">
        <ele>190.6</ele>
        <time>2022-06-25T08:45:48Z</time>
      </trkpt>
      <trkpt lat="46.5635" lon="4.9113">
        <ele>190.6</ele>
        <time>2022-06-25T08:45:50Z</time>
      </trkpt>
      <trkpt lat="46.5635" lon="4.9113">
        <ele>190.6</ele>
        <time>2022-06-25T08:45:54Z</time>
      </trkpt>
      <trkpt lat="46.5635" lon="4.9113">
        <ele>190.6</ele>
        <time>2022-06-25T08:45:56Z</time>
      </trkpt>
      <trkpt lat="46.5635" lon="4.9113">
        <ele>190.6</ele>
        <time>2022-06-25T08:45:58Z</time>
      </trkpt>
      <trkpt lat="46.5635" lon="4.9113">
        <ele>190.6</ele>
        <time>2022-06-25T08:46:00Z</time>
      </trkpt>
      <trkpt lat="46.56349" lon="4.91131">
        <ele>190.6</ele>
        <time>2022-06-25T08:46:01Z</time>
      </trkpt>
      <trkpt lat="46.56349" lon="4.91131">
        <ele>190.6</ele>
        <time>2022-06-25T08:46:04Z</time>
      </trkpt>
      <trkpt lat="46.56349" lon="4.91131">
        <ele>190.6</ele>
        <time>2022-06-25T08:46:06Z</time>
      </trkpt>
      <trkpt lat="46.56349" lon="4.91131">
        <ele>190.6</ele>
        <time>2022-06-25T08:46:09Z</time>
      </trkpt>
      <trkpt lat="46.56349" lon="4.91131">
        <ele>190.6</ele>
        <time>2022-06-25T08:46:11Z</time>
      </trkpt>
      <trkpt lat="46.56348" lon="4.91131">
        <ele>190.6</ele>
        <time>2022-06-25T08:46:14Z</time>
      </trkpt>
      <trkpt lat="46.56348" lon="4.91131">
        <ele>190.6</ele>
        <time>2022-06-25T08:46:15Z</time>
      </trkpt>
      <trkpt lat="46.56348" lon="4.91131">
        <ele>190.6</ele>
        <time>2022-06-25T08:46:17Z</time>
      </trkpt>
      <trkpt lat="46.56348" lon="4.91131">
        <ele>190.6</ele>
        <time>2022-06-25T08:46:19Z</time>
      </trkpt>
      <trkpt lat="46.56348" lon="4.91131">
        <ele>190.6</ele>
        <time>2022-06-25T08:46:21Z</time>
      </trkpt>
      <trkpt lat="46.56348" lon="4.91132">
        <ele>190.6</ele>
        <time>2022-06-25T08:46:22Z</time>
      </trkpt>
      <trkpt lat="46.56347" lon="4.91131">
        <ele>190.6</ele>
        <time>2022-06-25T08:46:24Z</time>
      </trkpt>
      <trkpt lat="46.56347" lon="4.91132">
        <ele>190.6</ele>
        <time>2022-06-25T08:46:25Z</time>
      </trkpt>
      <trkpt lat="46.56347" lon="4.91132">
        <ele>190.6</ele>
        <time>2022-06-25T08:46:27Z</time>
      </trkpt>
      <trkpt lat="46.56347" lon="4.91132">
        <ele>190.6</ele>
        <time>2022-06-25T08:46:29Z</time>
      </trkpt>
      <trkpt lat="46.56347" lon="4.91132">
        <ele>190.6</ele>
        <time>2022-06-25T08:46:31Z</time>
      </trkpt>
      <trkpt lat="46.56347" lon="4.91132">
        <ele>190.6</ele>
        <time>2022-06-25T08:46:33Z</time>
      </trkpt>
      <trkpt lat="46.56347" lon="4.91133">
        <ele>190.6</ele>
        <time>2022-06-25T08:46:35Z</time>
      </trkpt>
      <trkpt lat="46.56347" lon="4.91133">
        <ele>190.6</ele>
        <time>2022-06-25T08:46:36Z</time>
      </trkpt>
      <trkpt lat="46.56347" lon="4.91133">
        <ele>190.6</ele>
        <time>2022-06-25T08:46:40Z</time>
      </trkpt>
      <trkpt lat="46.56347" lon="4.91133">
        <ele>190.6</ele>
        <time>2022-06-25T08:46:42Z</time>
      </trkpt>
      <trkpt lat="46.56347" lon="4.91133">
        <ele>190.6</ele>
        <time>2022-06-25T08:46:44Z</time>
      </trkpt>
      <trkpt lat="46.56347" lon="4.91133">
        <ele>190.6</ele>
        <time>2022-06-25T08:46:46Z</time>
      </trkpt>
      <trkpt lat="46.56347" lon="4.91134">
        <ele>190.6</ele>
        <time>2022-06-25T08:46:47Z</time>
      </trkpt>
      <trkpt lat="46.56347" lon="4.91134">
        <ele>190.6</ele>
        <time>2022-06-25T08:46:49Z</time>
      </trkpt>
      <trkpt lat="46.56347" lon="4.91134">
        <ele>190.6</ele>
        <time>2022-06-25T08:46:51Z</time>
      </trkpt>
      <trkpt lat="46.56347" lon="4.91134">
        <ele>190.6</ele>
        <time>2022-06-25T08:46:53Z</time>
      </trkpt>
      <trkpt lat="46.56347" lon="4.91134">
        <ele>190.6</ele>
        <time>2022-06-25T08:46:55Z</time>
      </trkpt>
      <trkpt lat="46.56347" lon="4.91135">
        <ele>190.6</ele>
        <time>2022-06-25T08:46:59Z</time>
      </trkpt>
      <trkpt lat="46.56347" lon="4.91135">
        <ele>190.6</ele>
        <time>2022-06-25T08:47:00Z</time>
      </trkpt>
      <trkpt lat="46.56347" lon="4.91135">
        <ele>190.6</ele>
        <time>2022-06-25T08:47:02Z</time>
      </trkpt>
      <trkpt lat="46.56347" lon="4.91135">
        <ele>190.6</ele>
        <time>2022-06-25T08:47:04Z</time>
      </trkpt>
      <trkpt lat="46.56347" lon="4.91135">
        <ele>190.6</ele>
        <time>2022-06-25T08:47:06Z</time>
      </trkpt>
      <trkpt lat="46.56347" lon="4.91135">
        <ele>190.6</ele>
        <time>2022-06-25T08:47:08Z</time>
      </trkpt>
      <trkpt lat="46.56347" lon="4.91136">
        <ele>190.6</ele>
        <time>2022-06-25T08:47:09Z</time>
      </trkpt>
      <trkpt lat="46.56347" lon="4.91136">
        <ele>190.6</ele>
        <time>2022-06-25T08:47:11Z</time>
      </trkpt>
      <trkpt lat="46.56347" lon="4.91136">
        <ele>190.6</ele>
        <time>2022-06-25T08:47:13Z</time>
      </trkpt>
      <trkpt lat="46.56347" lon="4.91136">
        <ele>190.6</ele>
        <time>2022-06-25T08:47:15Z</time>
      </trkpt>
      <trkpt lat="46.56347" lon="4.91136">
        <ele>190.6</ele>
        <time>2022-06-25T08:47:21Z</time>
      </trkpt>
      <trkpt lat="46.56348" lon="4.91136">
        <ele>190.6</ele>
        <time>2022-06-25T08:47:22Z</time>
      </trkpt>
      <trkpt lat="46.56348" lon="4.91137">
        <ele>190.6</ele>
        <time>2022-06-25T08:47:23Z</time>
      </trkpt>
      <trkpt lat="46.56348" lon="4.91137">
        <ele>190.6</ele>
        <time>2022-06-25T08:47:25Z</time>
      </trkpt>
      <trkpt lat="46.56348" lon="4.91137">
        <ele>190.6</ele>
        <time>2022-06-25T08:47:33Z</time>
      </trkpt>
      <trkpt lat="46.56348" lon="4.91137">
        <ele>190.6</ele>
        <time>2022-06-25T08:47:36Z</time>
      </trkpt>
      <trkpt lat="46.56348" lon="4.91137">
        <ele>190.6</ele>
        <time>2022-06-25T08:47:38Z</time>
      </trkpt>
      <trkpt lat="46.56348" lon="4.91138">
        <ele>190.6</ele>
        <time>2022-06-25T08:47:41Z</time>
      </trkpt>
      <trkpt lat="46.56348" lon="4.91138">
        <ele>190.6</ele>
        <time>2022-06-25T08:47:42Z</time>
      </trkpt>
      <trkpt lat="46.56348" lon="4.91138">
        <ele>190.6</ele>
        <time>2022-06-25T08:47:44Z</time>
      </trkpt>
      <trkpt lat="46.56348" lon="4.91138">
        <ele>190.6</ele>
        <time>2022-06-25T08:47:46Z</time>
      </trkpt>
      <trkpt lat="46.56348" lon="4.91138">
        <ele>190.6</ele>
        <time>2022-06-25T08:47:53Z</time>
      </trkpt>
      <trkpt lat="46.56348" lon="4.91138">
        <ele>190.6</ele>
        <time>2022-06-25T08:47:57Z</time>
      </trkpt>
      <trkpt lat="46.56348" lon="4.91139">
        <ele>190.6</ele>
        <time>2022-06-25T08:47:58Z</time>
      </trkpt>
      <trkpt lat="46.56348" lon="4.91139">
        <ele>190.6</ele>
        <time>2022-06-25T08:48:02Z</time>
      </trkpt>
      <trkpt lat="46.56348" lon="4.91139">
        <ele>190.6</ele>
        <time>2022-06-25T08:48:04Z</time>
      </trkpt>
      <trkpt lat="46.56348" lon="4.91139">
        <ele>190.6</ele>
        <time>2022-06-25T08:48:09Z</time>
      </trkpt>
      <trkpt lat="46.56348" lon="4.91139">
        <ele>190.6</ele>
        <time>2022-06-25T08:48:11Z</time>
      </trkpt>
      <trkpt lat="46.56348" lon="4.9114">
        <ele>190.6</ele>
        <time>2022-06-25T08:48:13Z</time>
      </trkpt>
      <trkpt lat="46.56348" lon="4.9114">
        <ele>190.6</ele>
        <time>2022-06-25T08:48:14Z</time>
      </trkpt>
      <trkpt lat="46.56348" lon="4.9114">
        <ele>190.6</ele>
        <time>2022-06-25T08:48:18Z</time>
      </trkpt>
      <trkpt lat="46.56348" lon="4.9114">
        <ele>190.6</ele>
        <time>2022-06-25T08:48:20Z</time>
      </trkpt>
      <trkpt lat="46.56348" lon="4.9114">
        <ele>190.6</ele>
        <time>2022-06-25T08:48:22Z</time>
      </trkpt>
      <trkpt lat="46.56348" lon="4.9114">
        <ele>190.6</ele>
        <time>2022-06-25T08:48:24Z</time>
      </trkpt>
      <trkpt lat="46.56348" lon="4.91141">
        <ele>190.6</ele>
        <time>2022-06-25T08:48:26Z</time>
      </trkpt>
      <trkpt lat="46.56348" lon="4.91141">
        <ele>190.6</ele>
        <time>2022-06-25T08:48:28Z</time>
      </trkpt>
      <trkpt lat="46.56348" lon="4.91141">
        <ele>190.6</ele>
        <time>2022-06-25T08:48:30Z</time>
      </trkpt>
      <trkpt lat="46.56348" lon="4.91141">
        <ele>190.6</ele>
        <time>2022-06-25T08:48:32Z</time>
      </trkpt>
      <trkpt lat="46.56348" lon="4.91141">
        <ele>190.6</ele>
        <time>2022-06-25T08:48:34Z</time>
      </trkpt>
      <trkpt lat="46.56348" lon="4.91142">
        <ele>190.6</ele>
        <time>2022-06-25T08:48:38Z</time>
      </trkpt>
      <trkpt lat="46.56348" lon="4.91142">
        <ele>190.6</ele>
        <time>2022-06-25T08:48:39Z</time>
      </trkpt>
      <trkpt lat="46.56348" lon="4.91142">
        <ele>190.6</ele>
        <time>2022-06-25T08:48:41Z</time>
      </trkpt>
      <trkpt lat="46.56348" lon="4.91142">
        <ele>190.6</ele>
        <time>2022-06-25T08:48:43Z</time>
      </trkpt>
      <trkpt lat="46.56348" lon="4.91142">
        <ele>190.6</ele>
        <time>2022-06-25T08:48:45Z</time>
      </trkpt>
      <trkpt lat="46.56348" lon="4.91142">
        <ele>190.6</ele>
        <time>2022-06-25T08:48:47Z</time>
      </trkpt>
      <trkpt lat="46.56348" lon="4.91143">
        <ele>190.6</ele>
        <time>2022-06-25T08:48:48Z</time>
      </trkpt>
      <trkpt lat="46.56348" lon="4.91143">
        <ele>190.6</ele>
        <time>2022-06-25T08:48:50Z</time>
      </trkpt>
      <trkpt lat="46.56348" lon="4.91143">
        <ele>190.6</ele>
        <time>2022-06-25T08:48:52Z</time>
      </trkpt>
      <trkpt lat="46.56348" lon="4.91143">
        <ele>190.6</ele>
        <time>2022-06-25T08:48:54Z</time>
      </trkpt>
      <trkpt lat="46.56348" lon="4.91143">
        <ele>190.6</ele>
        <time>2022-06-25T08:48:56Z</time>
      </trkpt>
      <trkpt lat="46.56348" lon="4.91144">
        <ele>190.6</ele>
        <time>2022-06-25T08:48:58Z</time>
      </trkpt>
      <trkpt lat="46.56348" lon="4.91144">
        <ele>190.6</ele>
        <time>2022-06-25T08:48:59Z</time>
      </trkpt>
      <trkpt lat="46.56348" lon="4.91144">
        <ele>190.6</ele>
        <time>2022-06-25T08:49:01Z</time>
      </trkpt>
      <trkpt lat="46.56348" lon="4.91144">
        <ele>190.8</ele>
        <time>2022-06-25T08:49:07Z</time>
      </trkpt>
      <trkpt lat="46.56348" lon="4.91144">
        <ele>191</ele>
        <time>2022-06-25T08:49:09Z</time>
      </trkpt>
      <trkpt lat="46.56348" lon="4.91144">
        <ele>191</ele>
        <time>2022-06-25T08:49:11Z</time>
      </trkpt>
      <trkpt lat="46.56348" lon="4.91145">
        <ele>191</ele>
        <time>2022-06-25T08:49:12Z</time>
      </trkpt>
      <trkpt lat="46.56348" lon="4.91145">
        <ele>191</ele>
        <time>2022-06-25T08:49:14Z</time>
      </trkpt>
      <trkpt lat="46.56348" lon="4.91145">
        <ele>191</ele>
        <time>2022-06-25T08:49:16Z</time>
      </trkpt>
      <trkpt lat="46.56348" lon="4.91145">
        <ele>191</ele>
        <time>2022-06-25T08:49:20Z</time>
      </trkpt>
      <trkpt lat="46.56348" lon="4.91145">
        <ele>191</ele>
        <time>2022-06-25T08:49:24Z</time>
      </trkpt>
      <trkpt lat="46.56348" lon="4.91148">
        <ele>191</ele>
        <time>2022-06-25T08:49:25Z</time>
      </trkpt>
      <trkpt lat="46.56349" lon="4.91149">
        <ele>191</ele>
        <time>2022-06-25T08:49:26Z</time>
      </trkpt>
      <trkpt lat="46.56349" lon="4.9115">
        <ele>191</ele>
        <time>2022-06-25T08:49:27Z</time>
      </trkpt>
      <trkpt lat="46.56349" lon="4.91151">
        <ele>191</ele>
        <time>2022-06-25T08:49:28Z</time>
      </trkpt>
      <trkpt lat="46.56349" lon="4.91152">
        <ele>191</ele>
        <time>2022-06-25T08:49:35Z</time>
      </trkpt>
      <trkpt lat="46.56349" lon="4.91153">
        <ele>191</ele>
        <time>2022-06-25T08:49:36Z</time>
      </trkpt>
      <trkpt lat="46.56349" lon="4.91154">
        <ele>191</ele>
        <time>2022-06-25T08:49:37Z</time>
      </trkpt>
      <trkpt lat="46.56349" lon="4.91156">
        <ele>191</ele>
        <time>2022-06-25T08:49:38Z</time>
      </trkpt>
      <trkpt lat="46.56349" lon="4.91157">
        <ele>191</ele>
        <time>2022-06-25T08:49:39Z</time>
      </trkpt>
      <trkpt lat="46.56349" lon="4.91158">
        <ele>191</ele>
        <time>2022-06-25T08:49:41Z</time>
      </trkpt>
      <trkpt lat="46.56349" lon="4.91159">
        <ele>191</ele>
        <time>2022-06-25T08:49:42Z</time>
      </trkpt>
      <trkpt lat="46.56349" lon="4.9116">
        <ele>191</ele>
        <time>2022-06-25T08:49:43Z</time>
      </trkpt>
      <trkpt lat="46.56349" lon="4.91161">
        <ele>191</ele>
        <time>2022-06-25T08:49:44Z</time>
      </trkpt>
      <trkpt lat="46.56349" lon="4.91162">
        <ele>191</ele>
        <time>2022-06-25T08:49:45Z</time>
      </trkpt>
      <trkpt lat="46.56349" lon="4.91163">
        <ele>191</ele>
        <time>2022-06-25T08:49:46Z</time>
      </trkpt>
      <trkpt lat="46.5635" lon="4.91164">
        <ele>191</ele>
        <time>2022-06-25T08:49:47Z</time>
      </trkpt>
      <trkpt lat="46.56351" lon="4.91166">
        <ele>191</ele>
        <time>2022-06-25T08:49:48Z</time>
      </trkpt>
      <trkpt lat="46.56351" lon="4.91167">
        <ele>191</ele>
        <time>2022-06-25T08:49:49Z</time>
      </trkpt>
      <trkpt lat="46.56352" lon="4.91168">
        <ele>191</ele>
        <time>2022-06-25T08:49:50Z</time>
      </trkpt>
      <trkpt lat="46.56352" lon="4.91168">
        <ele>191</ele>
        <time>2022-06-25T08:49:52Z</time>
      </trkpt>
      <trkpt lat="46.56352" lon="4.91168">
        <ele>190.8</ele>
        <time>2022-06-25T08:53:20Z</time>
      </trkpt>
      <trkpt lat="46.56352" lon="4.91168">
        <ele>190.8</ele>
        <time>2022-06-25T08:56:01Z</time>
      </trkpt>
      <trkpt lat="46.56352" lon="4.91165">
        <ele>190.8</ele>
        <time>2022-06-25T08:57:07Z</time>
      </trkpt>
      <trkpt lat="46.56352" lon="4.91163">
        <ele>190.8</ele>
        <time>2022-06-25T08:57:08Z</time>
      </trkpt>
      <trkpt lat="46.56352" lon="4.91162">
        <ele>190.8</ele>
        <time>2022-06-25T08:57:09Z</time>
      </trkpt>
      <trkpt lat="46.56351" lon="4.9116">
        <ele>190.8</ele>
        <time>2022-06-25T08:57:10Z</time>
      </trkpt>
      <trkpt lat="46.56351" lon="4.91159">
        <ele>190.8</ele>
        <time>2022-06-25T08:57:11Z</time>
      </trkpt>
      <trkpt lat="46.56351" lon="4.91157">
        <ele>190.8</ele>
        <time>2022-06-25T08:57:12Z</time>
      </trkpt>
      <trkpt lat="46.5635" lon="4.91156">
        <ele>190.8</ele>
        <time>2022-06-25T08:57:13Z</time>
      </trkpt>
      <trkpt lat="46.56349" lon="4.91155">
        <ele>190.6</ele>
        <time>2022-06-25T08:57:14Z</time>
      </trkpt>
      <trkpt lat="46.56349" lon="4.91154">
        <ele>190.6</ele>
        <time>2022-06-25T08:57:15Z</time>
      </trkpt>
      <trkpt lat="46.56348" lon="4.91152">
        <ele>190.6</ele>
        <time>2022-06-25T08:57:16Z</time>
      </trkpt>
      <trkpt lat="46.56348" lon="4.91151">
        <ele>190.6</ele>
        <time>2022-06-25T08:57:17Z</time>
      </trkpt>
      <trkpt lat="46.56347" lon="4.9115">
        <ele>190.6</ele>
        <time>2022-06-25T08:57:18Z</time>
      </trkpt>
      <trkpt lat="46.56347" lon="4.91149">
        <ele>190.6</ele>
        <time>2022-06-25T08:57:19Z</time>
      </trkpt>
      <trkpt lat="46.56346" lon="4.91148">
        <ele>190.6</ele>
        <time>2022-06-25T08:57:20Z</time>
      </trkpt>
      <trkpt lat="46.56345" lon="4.91147">
        <ele>190.4</ele>
        <time>2022-06-25T08:57:21Z</time>
      </trkpt>
      <trkpt lat="46.56345" lon="4.91146">
        <ele>190.4</ele>
        <time>2022-06-25T08:57:22Z</time>
      </trkpt>
      <trkpt lat="46.56344" lon="4.91145">
        <ele>190.4</ele>
        <time>2022-06-25T08:57:23Z</time>
      </trkpt>
      <trkpt lat="46.56343" lon="4.91144">
        <ele>190.4</ele>
        <time>2022-06-25T08:57:24Z</time>
      </trkpt>
      <trkpt lat="46.56343" lon="4.91143">
        <ele>190.4</ele>
        <time>2022-06-25T08:57:25Z</time>
      </trkpt>
      <trkpt lat="46.56347" lon="4.91133">
        <ele>190.6</ele>
        <time>2022-06-25T08:57:37Z</time>
      </trkpt>
      <trkpt lat="46.56347" lon="4.91132">
        <ele>190.6</ele>
        <time>2022-06-25T08:57:38Z</time>
      </trkpt>
      <trkpt lat="46.56347" lon="4.91131">
        <ele>190.6</ele>
        <time>2022-06-25T08:57:39Z</time>
      </trkpt>
      <trkpt lat="46.56348" lon="4.91129">
        <ele>190.6</ele>
        <time>2022-06-25T08:57:41Z</time>
      </trkpt>
      <trkpt lat="46.56348" lon="4.91129">
        <ele>190.6</ele>
        <time>2022-06-25T08:57:42Z</time>
      </trkpt>
      <trkpt lat="46.56348" lon="4.91128">
        <ele>190.8</ele>
        <time>2022-06-25T08:57:43Z</time>
      </trkpt>
      <trkpt lat="46.56349" lon="4.91127">
        <ele>190.8</ele>
        <time>2022-06-25T08:57:44Z</time>
      </trkpt>
      <trkpt lat="46.56351" lon="4.91125">
        <ele>190.8</ele>
        <time>2022-06-25T08:57:47Z</time>
      </trkpt>
      <trkpt lat="46.56353" lon="4.91123">
        <ele>190.8</ele>
        <time>2022-06-25T08:57:48Z</time>
      </trkpt>
      <trkpt lat="46.56353" lon="4.91122">
        <ele>190.8</ele>
        <time>2022-06-25T08:57:49Z</time>
      </trkpt>
      <trkpt lat="46.56354" lon="4.91121">
        <ele>191</ele>
        <time>2022-06-25T08:57:51Z</time>
      </trkpt>
      <trkpt lat="46.56354" lon="4.9112">
        <ele>191</ele>
        <time>2022-06-25T08:57:52Z</time>
      </trkpt>
      <trkpt lat="46.56354" lon="4.91119">
        <ele>191.2</ele>
        <time>2022-06-25T08:57:53Z</time>
      </trkpt>
      <trkpt lat="46.56355" lon="4.91119">
        <ele>191.2</ele>
        <time>2022-06-25T08:57:54Z</time>
      </trkpt>
      <trkpt lat="46.56355" lon="4.91118">
        <ele>191.2</ele>
        <time>2022-06-25T08:57:55Z</time>
      </trkpt>
      <trkpt lat="46.56356" lon="4.91117">
        <ele>191.6</ele>
        <time>2022-06-25T08:57:56Z</time>
      </trkpt>
      <trkpt lat="46.56356" lon="4.91116">
        <ele>191.6</ele>
        <time>2022-06-25T08:57:57Z</time>
      </trkpt>
      <trkpt lat="46.56357" lon="4.91115">
        <ele>191.6</ele>
        <time>2022-06-25T08:57:59Z</time>
      </trkpt>
      <trkpt lat="46.56357" lon="4.91114">
        <ele>191.6</ele>
        <time>2022-06-25T08:58:00Z</time>
      </trkpt>
      <trkpt lat="46.56358" lon="4.91113">
        <ele>191.6</ele>
        <time>2022-06-25T08:58:02Z</time>
      </trkpt>
      <trkpt lat="46.56358" lon="4.91112">
        <ele>191.6</ele>
        <time>2022-06-25T08:58:03Z</time>
      </trkpt>
      <trkpt lat="46.56358" lon="4.91111">
        <ele>191.6</ele>
        <time>2022-06-25T08:58:04Z</time>
      </trkpt>
      <trkpt lat="46.56359" lon="4.91111">
        <ele>191.6</ele>
        <time>2022-06-25T08:58:05Z</time>
      </trkpt>
      <trkpt lat="46.56359" lon="4.9111">
        <ele>191.8</ele>
        <time>2022-06-25T08:58:06Z</time>
      </trkpt>
      <trkpt lat="46.5636" lon="4.91109">
        <ele>191.8</ele>
        <time>2022-06-25T08:58:07Z</time>
      </trkpt>
      <trkpt lat="46.5636" lon="4.91108">
        <ele>191.8</ele>
        <time>2022-06-25T08:58:08Z</time>
      </trkpt>
      <trkpt lat="46.56361" lon="4.91107">
        <ele>191.8</ele>
        <time>2022-06-25T08:58:10Z</time>
      </trkpt>
      <trkpt lat="46.56361" lon="4.91106">
        <ele>192</ele>
        <time>2022-06-25T08:58:11Z</time>
      </trkpt>
      <trkpt lat="46.56361" lon="4.91105">
        <ele>192</ele>
        <time>2022-06-25T08:58:12Z</time>
      </trkpt>
      <trkpt lat="46.56362" lon="4.91105">
        <ele>192</ele>
        <time>2022-06-25T08:58:13Z</time>
      </trkpt>
      <trkpt lat="46.56362" lon="4.91104">
        <ele>192</ele>
        <time>2022-06-25T08:58:14Z</time>
      </trkpt>
      <trkpt lat="46.56363" lon="4.91103">
        <ele>192.2</ele>
        <time>2022-06-25T08:58:15Z</time>
      </trkpt>
      <trkpt lat="46.56363" lon="4.91102">
        <ele>192.2</ele>
        <time>2022-06-25T08:58:16Z</time>
      </trkpt>
      <trkpt lat="46.56364" lon="4.91101">
        <ele>192.2</ele>
        <time>2022-06-25T08:58:18Z</time>
      </trkpt>
      <trkpt lat="46.56364" lon="4.911">
        <ele>192.2</ele>
        <time>2022-06-25T08:58:19Z</time>
      </trkpt>
      <trkpt lat="46.56364" lon="4.91099">
        <ele>192.2</ele>
        <time>2022-06-25T08:58:20Z</time>
      </trkpt>
      <trkpt lat="46.56365" lon="4.91099">
        <ele>192.2</ele>
        <time>2022-06-25T08:58:46Z</time>
      </trkpt>
      <trkpt lat="46.56365" lon="4.91098">
        <ele>192.2</ele>
        <time>2022-06-25T08:58:47Z</time>
      </trkpt>
      <trkpt lat="46.56365" lon="4.91097">
        <ele>192.2</ele>
        <time>2022-06-25T08:58:48Z</time>
      </trkpt>
      <trkpt lat="46.56366" lon="4.91096">
        <ele>192.2</ele>
        <time>2022-06-25T08:58:49Z</time>
      </trkpt>
      <trkpt lat="46.56367" lon="4.91095">
        <ele>192.2</ele>
        <time>2022-06-25T08:58:51Z</time>
      </trkpt>
      <trkpt lat="46.56367" lon="4.91094">
        <ele>192.2</ele>
        <time>2022-06-25T08:58:53Z</time>
      </trkpt>
      <trkpt lat="46.56368" lon="4.91093">
        <ele>192.2</ele>
        <time>2022-06-25T08:58:55Z</time>
      </trkpt>
      <trkpt lat="46.56368" lon="4.91092">
        <ele>192.2</ele>
        <time>2022-06-25T08:58:56Z</time>
      </trkpt>
      <trkpt lat="46.56367" lon="4.91089">
        <ele>192.2</ele>
        <time>2022-06-25T08:58:57Z</time>
      </trkpt>
      <trkpt lat="46.56367" lon="4.91088">
        <ele>192.2</ele>
        <time>2022-06-25T08:58:58Z</time>
      </trkpt>
      <trkpt lat="46.56366" lon="4.91087">
        <ele>192.2</ele>
        <time>2022-06-25T08:58:59Z</time>
      </trkpt>
      <trkpt lat="46.56366" lon="4.91086">
        <ele>192.2</ele>
        <time>2022-06-25T08:59:00Z</time>
      </trkpt>
      <trkpt lat="46.56364" lon="4.91083">
        <ele>192.2</ele>
        <time>2022-06-25T08:59:01Z</time>
      </trkpt>
      <trkpt lat="46.56364" lon="4.91081">
        <ele>192.2</ele>
        <time>2022-06-25T08:59:02Z</time>
      </trkpt>
      <trkpt lat="46.56363" lon="4.91078">
        <ele>192.6</ele>
        <time>2022-06-25T08:59:03Z</time>
      </trkpt>
      <trkpt lat="46.56362" lon="4.91075">
        <ele>192.6</ele>
        <time>2022-06-25T08:59:04Z</time>
      </trkpt>
      <trkpt lat="46.56361" lon="4.91072">
        <ele>192.6</ele>
        <time>2022-06-25T08:59:05Z</time>
      </trkpt>
      <trkpt lat="46.5636" lon="4.91068">
        <ele>192.6</ele>
        <time>2022-06-25T08:59:06Z</time>
      </trkpt>
      <trkpt lat="46.56359" lon="4.91064">
        <ele>192.6</ele>
        <time>2022-06-25T08:59:07Z</time>
      </trkpt>
      <trkpt lat="46.56358" lon="4.9106">
        <ele>192.6</ele>
        <time>2022-06-25T08:59:08Z</time>
      </trkpt>
      <trkpt lat="46.56357" lon="4.91056">
        <ele>192.8</ele>
        <time>2022-06-25T08:59:09Z</time>
      </trkpt>
      <trkpt lat="46.56355" lon="4.91051">
        <ele>192.8</ele>
        <time>2022-06-25T08:59:10Z</time>
      </trkpt>
      <trkpt lat="46.56354" lon="4.91047">
        <ele>192.8</ele>
        <time>2022-06-25T08:59:11Z</time>
      </trkpt>
      <trkpt lat="46.56353" lon="4.91044">
        <ele>193</ele>
        <time>2022-06-25T08:59:12Z</time>
      </trkpt>
      <trkpt lat="46.56352" lon="4.9104">
        <ele>193</ele>
        <time>2022-06-25T08:59:13Z</time>
      </trkpt>
      <trkpt lat="46.56351" lon="4.91035">
        <ele>193</ele>
        <time>2022-06-25T08:59:14Z</time>
      </trkpt>
      <trkpt lat="46.5635" lon="4.9103">
        <ele>193</ele>
        <time>2022-06-25T08:59:15Z</time>
      </trkpt>
      <trkpt lat="46.56349" lon="4.91025">
        <ele>193.2</ele>
        <time>2022-06-25T08:59:16Z</time>
      </trkpt>
      <trkpt lat="46.56348" lon="4.9102">
        <ele>193.2</ele>
        <time>2022-06-25T08:59:17Z</time>
      </trkpt>
      <trkpt lat="46.56347" lon="4.91015">
        <ele>193.2</ele>
        <time>2022-06-25T08:59:18Z</time>
      </trkpt>
      <trkpt lat="46.56346" lon="4.91009">
        <ele>193.2</ele>
        <time>2022-06-25T08:59:19Z</time>
      </trkpt>
      <trkpt lat="46.56345" lon="4.91004">
        <ele>193.2</ele>
        <time>2022-06-25T08:59:20Z</time>
      </trkpt>
      <trkpt lat="46.56344" lon="4.91">
        <ele>193.2</ele>
        <time>2022-06-25T08:59:21Z</time>
      </trkpt>
      <trkpt lat="46.56342" lon="4.90995">
        <ele>193.2</ele>
        <time>2022-06-25T08:59:22Z</time>
      </trkpt>
      <trkpt lat="46.5634" lon="4.9099">
        <ele>193.2</ele>
        <time>2022-06-25T08:59:23Z</time>
      </trkpt>
      <trkpt lat="46.56338" lon="4.90985">
        <ele>193.2</ele>
        <time>2022-06-25T08:59:24Z</time>
      </trkpt>
      <trkpt lat="46.56336" lon="4.9098">
        <ele>193.2</ele>
        <time>2022-06-25T08:59:25Z</time>
      </trkpt>
      <trkpt lat="46.56334" lon="4.90974">
        <ele>193.2</ele>
        <time>2022-06-25T08:59:26Z</time>
      </trkpt>
      <trkpt lat="46.56332" lon="4.90969">
        <ele>193.4</ele>
        <time>2022-06-25T08:59:27Z</time>
      </trkpt>
      <trkpt lat="46.5633" lon="4.90963">
        <ele>193.4</ele>
        <time>2022-06-25T08:59:28Z</time>
      </trkpt>
      <trkpt lat="46.56328" lon="4.90958">
        <ele>193.8</ele>
        <time>2022-06-25T08:59:29Z</time>
      </trkpt>
      <trkpt lat="46.56327" lon="4.90953">
        <ele>193.8</ele>
        <time>2022-06-25T08:59:30Z</time>
      </trkpt>
      <trkpt lat="46.56327" lon="4.90948">
        <ele>193.8</ele>
        <time>2022-06-25T08:59:31Z</time>
      </trkpt>
      <trkpt lat="46.56327" lon="4.90944">
        <ele>194</ele>
        <time>2022-06-25T08:59:32Z</time>
      </trkpt>
      <trkpt lat="46.56327" lon="4.9094">
        <ele>194</ele>
        <time>2022-06-25T08:59:33Z</time>
      </trkpt>
      <trkpt lat="46.56327" lon="4.90937">
        <ele>194</ele>
        <time>2022-06-25T08:59:34Z</time>
      </trkpt>
      <trkpt lat="46.56326" lon="4.90934">
        <ele>194</ele>
        <time>2022-06-25T08:59:35Z</time>
      </trkpt>
      <trkpt lat="46.56326" lon="4.90931">
        <ele>194</ele>
        <time>2022-06-25T08:59:36Z</time>
      </trkpt>
      <trkpt lat="46.56325" lon="4.90929">
        <ele>194.2</ele>
        <time>2022-06-25T08:59:37Z</time>
      </trkpt>
      <trkpt lat="46.56324" lon="4.90927">
        <ele>194.2</ele>
        <time>2022-06-25T08:59:38Z</time>
      </trkpt>
      <trkpt lat="46.56323" lon="4.90925">
        <ele>194.2</ele>
        <time>2022-06-25T08:59:39Z</time>
      </trkpt>
      <trkpt lat="46.56321" lon="4.90925">
        <ele>194.2</ele>
        <time>2022-06-25T08:59:40Z</time>
      </trkpt>
      <trkpt lat="46.56319" lon="4.90925">
        <ele>194.2</ele>
        <time>2022-06-25T08:59:41Z</time>
      </trkpt>
      <trkpt lat="46.56316" lon="4.90926">
        <ele>194.2</ele>
        <time>2022-06-25T08:59:42Z</time>
      </trkpt>
      <trkpt lat="46.56314" lon="4.90928">
        <ele>193.8</ele>
        <time>2022-06-25T08:59:43Z</time>
      </trkpt>
      <trkpt lat="46.56311" lon="4.9093">
        <ele>193.8</ele>
        <time>2022-06-25T08:59:44Z</time>
      </trkpt>
      <trkpt lat="46.56308" lon="4.90932">
        <ele>193.4</ele>
        <time>2022-06-25T08:59:45Z</time>
      </trkpt>
      <trkpt lat="46.56305" lon="4.90933">
        <ele>193.2</ele>
        <time>2022-06-25T08:59:46Z</time>
      </trkpt>
      <trkpt lat="46.56302" lon="4.90936">
        <ele>193</ele>
        <time>2022-06-25T08:59:47Z</time>
      </trkpt>
      <trkpt lat="46.56299" lon="4.90938">
        <ele>192.8</ele>
        <time>2022-06-25T08:59:48Z</time>
      </trkpt>
      <trkpt lat="46.56295" lon="4.9094">
        <ele>192.8</ele>
        <time>2022-06-25T08:59:49Z</time>
      </trkpt>
      <trkpt lat="46.56292" lon="4.90944">
        <ele>192.4</ele>
        <time>2022-06-25T08:59:50Z</time>
      </trkpt>
      <trkpt lat="46.56288" lon="4.90947">
        <ele>192.4</ele>
        <time>2022-06-25T08:59:51Z</time>
      </trkpt>
      <trkpt lat="46.56284" lon="4.90951">
        <ele>192.2</ele>
        <time>2022-06-25T08:59:52Z</time>
      </trkpt>
      <trkpt lat="46.5628" lon="4.90955">
        <ele>192.2</ele>
        <time>2022-06-25T08:59:53Z</time>
      </trkpt>
      <trkpt lat="46.56276" lon="4.90957">
        <ele>192</ele>
        <time>2022-06-25T08:59:54Z</time>
      </trkpt>
      <trkpt lat="46.56272" lon="4.90959">
        <ele>192</ele>
        <time>2022-06-25T08:59:55Z</time>
      </trkpt>
      <trkpt lat="46.56268" lon="4.90959">
        <ele>191.6</ele>
        <time>2022-06-25T08:59:56Z</time>
      </trkpt>
      <trkpt lat="46.56265" lon="4.90958">
        <ele>191.6</ele>
        <time>2022-06-25T08:59:57Z</time>
      </trkpt>
      <trkpt lat="46.56262" lon="4.90956">
        <ele>191.6</ele>
        <time>2022-06-25T08:59:58Z</time>
      </trkpt>
      <trkpt lat="46.56261" lon="4.90952">
        <ele>191.6</ele>
        <time>2022-06-25T08:59:59Z</time>
      </trkpt>
      <trkpt lat="46.56259" lon="4.90948">
        <ele>191.6</ele>
        <time>2022-06-25T09:00:00Z</time>
      </trkpt>
      <trkpt lat="46.56258" lon="4.90944">
        <ele>191.6</ele>
        <time>2022-06-25T09:00:01Z</time>
      </trkpt>
      <trkpt lat="46.56257" lon="4.9094">
        <ele>191.6</ele>
        <time>2022-06-25T09:00:02Z</time>
      </trkpt>
      <trkpt lat="46.56257" lon="4.90937">
        <ele>191.6</ele>
        <time>2022-06-25T09:00:03Z</time>
      </trkpt>
      <trkpt lat="46.56256" lon="4.90934">
        <ele>191.6</ele>
        <time>2022-06-25T09:00:04Z</time>
      </trkpt>
      <trkpt lat="46.56256" lon="4.90932">
        <ele>191.6</ele>
        <time>2022-06-25T09:00:05Z</time>
      </trkpt>
      <trkpt lat="46.56256" lon="4.9093">
        <ele>191.6</ele>
        <time>2022-06-25T09:00:06Z</time>
      </trkpt>
      <trkpt lat="46.56255" lon="4.90929">
        <ele>191.6</ele>
        <time>2022-06-25T09:00:07Z</time>
      </trkpt>
      <trkpt lat="46.56255" lon="4.90929">
        <ele>191.8</ele>
        <time>2022-06-25T09:00:40Z</time>
      </trkpt>
      <trkpt lat="46.56255" lon="4.90925">
        <ele>192</ele>
        <time>2022-06-25T09:01:12Z</time>
      </trkpt>
      <trkpt lat="46.56255" lon="4.90922">
        <ele>192</ele>
        <time>2022-06-25T09:01:13Z</time>
      </trkpt>
      <trkpt lat="46.56255" lon="4.9092">
        <ele>192</ele>
        <time>2022-06-25T09:01:14Z</time>
      </trkpt>
      <trkpt lat="46.56256" lon="4.90917">
        <ele>192.2</ele>
        <time>2022-06-25T09:01:15Z</time>
      </trkpt>
      <trkpt lat="46.56257" lon="4.90913">
        <ele>192.2</ele>
        <time>2022-06-25T09:01:16Z</time>
      </trkpt>
      <trkpt lat="46.56258" lon="4.9091">
        <ele>192.2</ele>
        <time>2022-06-25T09:01:17Z</time>
      </trkpt>
      <trkpt lat="46.56258" lon="4.90906">
        <ele>192.2</ele>
        <time>2022-06-25T09:01:18Z</time>
      </trkpt>
      <trkpt lat="46.56258" lon="4.90901">
        <ele>192.2</ele>
        <time>2022-06-25T09:01:19Z</time>
      </trkpt>
      <trkpt lat="46.56258" lon="4.90895">
        <ele>192.2</ele>
        <time>2022-06-25T09:01:20Z</time>
      </trkpt>
      <trkpt lat="46.56258" lon="4.9089">
        <ele>192.4</ele>
        <time>2022-06-25T09:01:21Z</time>
      </trkpt>
      <trkpt lat="46.56258" lon="4.90884">
        <ele>192.4</ele>
        <time>2022-06-25T09:01:22Z</time>
      </trkpt>
      <trkpt lat="46.56258" lon="4.90879">
        <ele>192.4</ele>
        <time>2022-06-25T09:01:23Z</time>
      </trkpt>
      <trkpt lat="46.56258" lon="4.90873">
        <ele>192.4</ele>
        <time>2022-06-25T09:01:24Z</time>
      </trkpt>
      <trkpt lat="46.56258" lon="4.90868">
        <ele>192.4</ele>
        <time>2022-06-25T09:01:25Z</time>
      </trkpt>
      <trkpt lat="46.56259" lon="4.90862">
        <ele>192.4</ele>
        <time>2022-06-25T09:01:26Z</time>
      </trkpt>
      <trkpt lat="46.5626" lon="4.90856">
        <ele>192.4</ele>
        <time>2022-06-25T09:01:27Z</time>
      </trkpt>
      <trkpt lat="46.5626" lon="4.9085">
        <ele>192.4</ele>
        <time>2022-06-25T09:01:28Z</time>
      </trkpt>
      <trkpt lat="46.56261" lon="4.90843">
        <ele>192.4</ele>
        <time>2022-06-25T09:01:29Z</time>
      </trkpt>
      <trkpt lat="46.56262" lon="4.90837">
        <ele>192.4</ele>
        <time>2022-06-25T09:01:30Z</time>
      </trkpt>
      <trkpt lat="46.56263" lon="4.90831">
        <ele>192.4</ele>
        <time>2022-06-25T09:01:31Z</time>
      </trkpt>
      <trkpt lat="46.56264" lon="4.90824">
        <ele>192.4</ele>
        <time>2022-06-25T09:01:32Z</time>
      </trkpt>
      <trkpt lat="46.56265" lon="4.90818">
        <ele>192.4</ele>
        <time>2022-06-25T09:01:33Z</time>
      </trkpt>
      <trkpt lat="46.56265" lon="4.90812">
        <ele>192.4</ele>
        <time>2022-06-25T09:01:34Z</time>
      </trkpt>
      <trkpt lat="46.56267" lon="4.90806">
        <ele>192.6</ele>
        <time>2022-06-25T09:01:35Z</time>
      </trkpt>
      <trkpt lat="46.56267" lon="4.908">
        <ele>192.6</ele>
        <time>2022-06-25T09:01:36Z</time>
      </trkpt>
      <trkpt lat="46.56268" lon="4.90794">
        <ele>192.6</ele>
        <time>2022-06-25T09:01:37Z</time>
      </trkpt>
      <trkpt lat="46.56269" lon="4.90787">
        <ele>192.6</ele>
        <time>2022-06-25T09:01:38Z</time>
      </trkpt>
      <trkpt lat="46.5627" lon="4.9078">
        <ele>192.6</ele>
        <time>2022-06-25T09:01:39Z</time>
      </trkpt>
      <trkpt lat="46.56272" lon="4.90773">
        <ele>192.6</ele>
        <time>2022-06-25T09:01:40Z</time>
      </trkpt>
      <trkpt lat="46.56273" lon="4.90766">
        <ele>192.6</ele>
        <time>2022-06-25T09:01:41Z</time>
      </trkpt>
      <trkpt lat="46.56275" lon="4.90758">
        <ele>192.6</ele>
        <time>2022-06-25T09:01:42Z</time>
      </trkpt>
      <trkpt lat="46.56276" lon="4.9075">
        <ele>192.6</ele>
        <time>2022-06-25T09:01:43Z</time>
      </trkpt>
      <trkpt lat="46.56278" lon="4.90741">
        <ele>192.6</ele>
        <time>2022-06-25T09:01:44Z</time>
      </trkpt>
      <trkpt lat="46.56279" lon="4.90733">
        <ele>192.6</ele>
        <time>2022-06-25T09:01:45Z</time>
      </trkpt>
      <trkpt lat="46.5628" lon="4.90726">
        <ele>192.6</ele>
        <time>2022-06-25T09:01:46Z</time>
      </trkpt>
      <trkpt lat="46.56281" lon="4.90719">
        <ele>192.6</ele>
        <time>2022-06-25T09:01:47Z</time>
      </trkpt>
      <trkpt lat="46.56282" lon="4.90711">
        <ele>193</ele>
        <time>2022-06-25T09:01:48Z</time>
      </trkpt>
      <trkpt lat="46.5628" lon="4.90702">
        <ele>193</ele>
        <time>2022-06-25T09:01:49Z</time>
      </trkpt>
      <trkpt lat="46.5628" lon="4.90694">
        <ele>193</ele>
        <time>2022-06-25T09:01:50Z</time>
      </trkpt>
      <trkpt lat="46.56278" lon="4.90686">
        <ele>193</ele>
        <time>2022-06-25T09:01:51Z</time>
      </trkpt>
      <trkpt lat="46.56277" lon="4.90679">
        <ele>193.2</ele>
        <time>2022-06-25T09:01:52Z</time>
      </trkpt>
      <trkpt lat="46.56276" lon="4.90672">
        <ele>193.2</ele>
        <time>2022-06-25T09:01:53Z</time>
      </trkpt>
      <trkpt lat="46.56276" lon="4.90665">
        <ele>193.4</ele>
        <time>2022-06-25T09:01:54Z</time>
      </trkpt>
      <trkpt lat="46.56275" lon="4.90658">
        <ele>193.4</ele>
        <time>2022-06-25T09:01:55Z</time>
      </trkpt>
      <trkpt lat="46.56274" lon="4.90651">
        <ele>193.6</ele>
        <time>2022-06-25T09:01:56Z</time>
      </trkpt>
      <trkpt lat="46.56273" lon="4.90644">
        <ele>193.6</ele>
        <time>2022-06-25T09:01:57Z</time>
      </trkpt>
      <trkpt lat="46.56272" lon="4.90637">
        <ele>194</ele>
        <time>2022-06-25T09:01:58Z</time>
      </trkpt>
      <trkpt lat="46.56271" lon="4.9063">
        <ele>194</ele>
        <time>2022-06-25T09:01:59Z</time>
      </trkpt>
      <trkpt lat="46.5627" lon="4.90623">
        <ele>194.2</ele>
        <time>2022-06-25T09:02:00Z</time>
      </trkpt>
      <trkpt lat="46.56269" lon="4.90617">
        <ele>194.2</ele>
        <time>2022-06-25T09:02:01Z</time>
      </trkpt>
      <trkpt lat="46.56268" lon="4.9061">
        <ele>194.6</ele>
        <time>2022-06-25T09:02:02Z</time>
      </trkpt>
      <trkpt lat="46.56268" lon="4.90603">
        <ele>194.6</ele>
        <time>2022-06-25T09:02:03Z</time>
      </trkpt>
      <trkpt lat="46.56267" lon="4.90596">
        <ele>194.8</ele>
        <time>2022-06-25T09:02:04Z</time>
      </trkpt>
      <trkpt lat="46.56267" lon="4.9059">
        <ele>194.8</ele>
        <time>2022-06-25T09:02:05Z</time>
      </trkpt>
      <trkpt lat="46.56266" lon="4.90584">
        <ele>195.2</ele>
        <time>2022-06-25T09:02:06Z</time>
      </trkpt>
      <trkpt lat="46.56266" lon="4.90578">
        <ele>195.2</ele>
        <time>2022-06-25T09:02:07Z</time>
      </trkpt>
      <trkpt lat="46.56265" lon="4.90572">
        <ele>195.6</ele>
        <time>2022-06-25T09:02:08Z</time>
      </trkpt>
      <trkpt lat="46.56265" lon="4.90566">
        <ele>195.6</ele>
        <time>2022-06-25T09:02:09Z</time>
      </trkpt>
      <trkpt lat="46.56265" lon="4.9056">
        <ele>195.8</ele>
        <time>2022-06-25T09:02:10Z</time>
      </trkpt>
      <trkpt lat="46.56265" lon="4.90554">
        <ele>195.8</ele>
        <time>2022-06-25T09:02:11Z</time>
      </trkpt>
      <trkpt lat="46.56264" lon="4.90549">
        <ele>196.2</ele>
        <time>2022-06-25T09:02:12Z</time>
      </trkpt>
      <trkpt lat="46.56265" lon="4.90543">
        <ele>196.2</ele>
        <time>2022-06-25T09:02:13Z</time>
      </trkpt>
      <trkpt lat="46.56265" lon="4.90537">
        <ele>196.4</ele>
        <time>2022-06-25T09:02:14Z</time>
      </trkpt>
      <trkpt lat="46.56265" lon="4.90532">
        <ele>196.4</ele>
        <time>2022-06-25T09:02:15Z</time>
      </trkpt>
      <trkpt lat="46.56265" lon="4.90527">
        <ele>196.6</ele>
        <time>2022-06-25T09:02:16Z</time>
      </trkpt>
      <trkpt lat="46.56265" lon="4.90521">
        <ele>196.6</ele>
        <time>2022-06-25T09:02:17Z</time>
      </trkpt>
      <trkpt lat="46.56265" lon="4.90516">
        <ele>196.6</ele>
        <time>2022-06-25T09:02:18Z</time>
      </trkpt>
      <trkpt lat="46.56265" lon="4.90511">
        <ele>197</ele>
        <time>2022-06-25T09:02:19Z</time>
      </trkpt>
      <trkpt lat="46.56265" lon="4.90506">
        <ele>197</ele>
        <time>2022-06-25T09:02:20Z</time>
      </trkpt>
      <trkpt lat="46.56265" lon="4.905">
        <ele>197</ele>
        <time>2022-06-25T09:02:21Z</time>
      </trkpt>
      <trkpt lat="46.56265" lon="4.90495">
        <ele>197.2</ele>
        <time>2022-06-25T09:02:22Z</time>
      </trkpt>
      <trkpt lat="46.56266" lon="4.9049">
        <ele>197.2</ele>
        <time>2022-06-25T09:02:23Z</time>
      </trkpt>
      <trkpt lat="46.56266" lon="4.90484">
        <ele>197.4</ele>
        <time>2022-06-25T09:02:24Z</time>
      </trkpt>
      <trkpt lat="46.56265" lon="4.90479">
        <ele>197.4</ele>
        <time>2022-06-25T09:02:25Z</time>
      </trkpt>
      <trkpt lat="46.56265" lon="4.90474">
        <ele>197.8</ele>
        <time>2022-06-25T09:02:26Z</time>
      </trkpt>
      <trkpt lat="46.56265" lon="4.90469">
        <ele>197.8</ele>
        <time>2022-06-25T09:02:27Z</time>
      </trkpt>
      <trkpt lat="46.56265" lon="4.90463">
        <ele>198</ele>
        <time>2022-06-25T09:02:28Z</time>
      </trkpt>
      <trkpt lat="46.56265" lon="4.90458">
        <ele>198</ele>
        <time>2022-06-25T09:02:29Z</time>
      </trkpt>
      <trkpt lat="46.56264" lon="4.90453">
        <ele>198.4</ele>
        <time>2022-06-25T09:02:30Z</time>
      </trkpt>
      <trkpt lat="46.56263" lon="4.90448">
        <ele>198.4</ele>
        <time>2022-06-25T09:02:31Z</time>
      </trkpt>
      <trkpt lat="46.56262" lon="4.90443">
        <ele>198.6</ele>
        <time>2022-06-25T09:02:32Z</time>
      </trkpt>
      <trkpt lat="46.5626" lon="4.90438">
        <ele>198.6</ele>
        <time>2022-06-25T09:02:33Z</time>
      </trkpt>
      <trkpt lat="46.56259" lon="4.90433">
        <ele>198.8</ele>
        <time>2022-06-25T09:02:34Z</time>
      </trkpt>
      <trkpt lat="46.56257" lon="4.90428">
        <ele>198.8</ele>
        <time>2022-06-25T09:02:35Z</time>
      </trkpt>
      <trkpt lat="46.56255" lon="4.90424">
        <ele>199</ele>
        <time>2022-06-25T09:02:36Z</time>
      </trkpt>
      <trkpt lat="46.56253" lon="4.9042">
        <ele>199.2</ele>
        <time>2022-06-25T09:02:37Z</time>
      </trkpt>
      <trkpt lat="46.5625" lon="4.90417">
        <ele>199.2</ele>
        <time>2022-06-25T09:02:38Z</time>
      </trkpt>
      <trkpt lat="46.56247" lon="4.90413">
        <ele>199.6</ele>
        <time>2022-06-25T09:02:39Z</time>
      </trkpt>
      <trkpt lat="46.56244" lon="4.9041">
        <ele>199.6</ele>
        <time>2022-06-25T09:02:40Z</time>
      </trkpt>
      <trkpt lat="46.56241" lon="4.90407">
        <ele>200</ele>
        <time>2022-06-25T09:02:41Z</time>
      </trkpt>
      <trkpt lat="46.56238" lon="4.90405">
        <ele>200.2</ele>
        <time>2022-06-25T09:02:42Z</time>
      </trkpt>
      <trkpt lat="46.56234" lon="4.90403">
        <ele>200.4</ele>
        <time>2022-06-25T09:02:43Z</time>
      </trkpt>
      <trkpt lat="46.56231" lon="4.90402">
        <ele>200.6</ele>
        <time>2022-06-25T09:02:44Z</time>
      </trkpt>
      <trkpt lat="46.56228" lon="4.904">
        <ele>200.6</ele>
        <time>2022-06-25T09:02:45Z</time>
      </trkpt>
      <trkpt lat="46.56224" lon="4.90399">
        <ele>201.2</ele>
        <time>2022-06-25T09:02:46Z</time>
      </trkpt>
      <trkpt lat="46.56221" lon="4.90399">
        <ele>201.4</ele>
        <time>2022-06-25T09:02:47Z</time>
      </trkpt>
      <trkpt lat="46.56218" lon="4.90398">
        <ele>201.6</ele>
        <time>2022-06-25T09:02:48Z</time>
      </trkpt>
      <trkpt lat="46.56214" lon="4.90398">
        <ele>202</ele>
        <time>2022-06-25T09:02:49Z</time>
      </trkpt>
      <trkpt lat="46.56211" lon="4.90398">
        <ele>202.2</ele>
        <time>2022-06-25T09:02:50Z</time>
      </trkpt>
      <trkpt lat="46.56208" lon="4.90398">
        <ele>202.6</ele>
        <time>2022-06-25T09:02:51Z</time>
      </trkpt>
      <trkpt lat="46.56205" lon="4.90398">
        <ele>202.8</ele>
        <time>2022-06-25T09:02:52Z</time>
      </trkpt>
      <trkpt lat="46.56202" lon="4.90398">
        <ele>203.2</ele>
        <time>2022-06-25T09:02:53Z</time>
      </trkpt>
      <trkpt lat="46.56199" lon="4.90399">
        <ele>203.4</ele>
        <time>2022-06-25T09:02:54Z</time>
      </trkpt>
      <trkpt lat="46.56196" lon="4.90399">
        <ele>203.8</ele>
        <time>2022-06-25T09:02:55Z</time>
      </trkpt>
      <trkpt lat="46.56192" lon="4.90399">
        <ele>203.8</ele>
        <time>2022-06-25T09:02:56Z</time>
      </trkpt>
      <trkpt lat="46.56189" lon="4.90399">
        <ele>204.2</ele>
        <time>2022-06-25T09:02:57Z</time>
      </trkpt>
      <trkpt lat="46.56185" lon="4.90399">
        <ele>204.2</ele>
        <time>2022-06-25T09:02:58Z</time>
      </trkpt>
      <trkpt lat="46.56182" lon="4.90399">
        <ele>204.6</ele>
        <time>2022-06-25T09:02:59Z</time>
      </trkpt>
      <trkpt lat="46.56179" lon="4.90398">
        <ele>204.8</ele>
        <time>2022-06-25T09:03:00Z</time>
      </trkpt>
      <trkpt lat="46.56175" lon="4.90398">
        <ele>205</ele>
        <time>2022-06-25T09:03:01Z</time>
      </trkpt>
      <trkpt lat="46.56172" lon="4.90398">
        <ele>205.4</ele>
        <time>2022-06-25T09:03:02Z</time>
      </trkpt>
      <trkpt lat="46.56168" lon="4.90398">
        <ele>205.6</ele>
        <time>2022-06-25T09:03:03Z</time>
      </trkpt>
      <trkpt lat="46.56164" lon="4.90398">
        <ele>205.8</ele>
        <time>2022-06-25T09:03:04Z</time>
      </trkpt>
      <trkpt lat="46.56161" lon="4.90398">
        <ele>205.8</ele>
        <time>2022-06-25T09:03:05Z</time>
      </trkpt>
      <trkpt lat="46.56157" lon="4.90397">
        <ele>206.4</ele>
        <time>2022-06-25T09:03:06Z</time>
      </trkpt>
      <trkpt lat="46.56154" lon="4.90396">
        <ele>206.4</ele>
        <time>2022-06-25T09:03:07Z</time>
      </trkpt>
      <trkpt lat="46.56151" lon="4.90396">
        <ele>206.6</ele>
        <time>2022-06-25T09:03:08Z</time>
      </trkpt>
      <trkpt lat="46.56148" lon="4.90396">
        <ele>206.8</ele>
        <time>2022-06-25T09:03:09Z</time>
      </trkpt>
      <trkpt lat="46.56145" lon="4.90395">
        <ele>206.8</ele>
        <time>2022-06-25T09:03:10Z</time>
      </trkpt>
      <trkpt lat="46.56141" lon="4.90395">
        <ele>207.2</ele>
        <time>2022-06-25T09:03:11Z</time>
      </trkpt>
      <trkpt lat="46.56138" lon="4.90394">
        <ele>207.2</ele>
        <time>2022-06-25T09:03:12Z</time>
      </trkpt>
      <trkpt lat="46.56135" lon="4.90394">
        <ele>207.6</ele>
        <time>2022-06-25T09:03:13Z</time>
      </trkpt>
      <trkpt lat="46.56132" lon="4.90394">
        <ele>207.6</ele>
        <time>2022-06-25T09:03:14Z</time>
      </trkpt>
      <trkpt lat="46.56128" lon="4.90394">
        <ele>208</ele>
        <time>2022-06-25T09:03:15Z</time>
      </trkpt>
      <trkpt lat="46.56124" lon="4.90394">
        <ele>208.2</ele>
        <time>2022-06-25T09:03:16Z</time>
      </trkpt>
      <trkpt lat="46.5612" lon="4.90394">
        <ele>208.2</ele>
        <time>2022-06-25T09:03:17Z</time>
      </trkpt>
      <trkpt lat="46.56116" lon="4.90394">
        <ele>208.6</ele>
        <time>2022-06-25T09:03:18Z</time>
      </trkpt>
      <trkpt lat="46.56112" lon="4.90393">
        <ele>208.6</ele>
        <time>2022-06-25T09:03:19Z</time>
      </trkpt>
      <trkpt lat="46.56108" lon="4.90392">
        <ele>208.8</ele>
        <time>2022-06-25T09:03:20Z</time>
      </trkpt>
      <trkpt lat="46.56103" lon="4.90392">
        <ele>208.8</ele>
        <time>2022-06-25T09:03:21Z</time>
      </trkpt>
      <trkpt lat="46.56099" lon="4.90391">
        <ele>209</ele>
        <time>2022-06-25T09:03:22Z</time>
      </trkpt>
      <trkpt lat="46.56094" lon="4.90391">
        <ele>209</ele>
        <time>2022-06-25T09:03:23Z</time>
      </trkpt>
      <trkpt lat="46.5609" lon="4.9039">
        <ele>209</ele>
        <time>2022-06-25T09:03:24Z</time>
      </trkpt>
      <trkpt lat="46.56086" lon="4.9039">
        <ele>209</ele>
        <time>2022-06-25T09:03:25Z</time>
      </trkpt>
      <trkpt lat="46.56082" lon="4.90389">
        <ele>209</ele>
        <time>2022-06-25T09:03:26Z</time>
      </trkpt>
      <trkpt lat="46.56079" lon="4.90388">
        <ele>209</ele>
        <time>2022-06-25T09:03:27Z</time>
      </trkpt>
      <trkpt lat="46.56075" lon="4.90388">
        <ele>209</ele>
        <time>2022-06-25T09:03:28Z</time>
      </trkpt>
      <trkpt lat="46.5607" lon="4.90387">
        <ele>209</ele>
        <time>2022-06-25T09:03:29Z</time>
      </trkpt>
      <trkpt lat="46.56066" lon="4.90386">
        <ele>209</ele>
        <time>2022-06-25T09:03:30Z</time>
      </trkpt>
      <trkpt lat="46.56062" lon="4.90386">
        <ele>209</ele>
        <time>2022-06-25T09:03:31Z</time>
      </trkpt>
      <trkpt lat="46.56058" lon="4.90386">
        <ele>209</ele>
        <time>2022-06-25T09:03:32Z</time>
      </trkpt>
      <trkpt lat="46.56054" lon="4.90387">
        <ele>209</ele>
        <time>2022-06-25T09:03:33Z</time>
      </trkpt>
      <trkpt lat="46.5605" lon="4.90387">
        <ele>209</ele>
        <time>2022-06-25T09:03:34Z</time>
      </trkpt>
      <trkpt lat="46.56046" lon="4.90387">
        <ele>209</ele>
        <time>2022-06-25T09:03:35Z</time>
      </trkpt>
      <trkpt lat="46.56041" lon="4.90387">
        <ele>208.8</ele>
        <time>2022-06-25T09:03:36Z</time>
      </trkpt>
      <trkpt lat="46.56037" lon="4.90386">
        <ele>208.8</ele>
        <time>2022-06-25T09:03:37Z</time>
      </trkpt>
      <trkpt lat="46.56033" lon="4.90386">
        <ele>208.8</ele>
        <time>2022-06-25T09:03:38Z</time>
      </trkpt>
      <trkpt lat="46.56029" lon="4.90386">
        <ele>208.8</ele>
        <time>2022-06-25T09:03:39Z</time>
      </trkpt>
      <trkpt lat="46.56025" lon="4.90384">
        <ele>208.8</ele>
        <time>2022-06-25T09:03:40Z</time>
      </trkpt>
      <trkpt lat="46.56021" lon="4.90382">
        <ele>208.4</ele>
        <time>2022-06-25T09:03:41Z</time>
      </trkpt>
      <trkpt lat="46.56018" lon="4.90378">
        <ele>208.4</ele>
        <time>2022-06-25T09:03:42Z</time>
      </trkpt>
      <trkpt lat="46.56016" lon="4.90374">
        <ele>208.4</ele>
        <time>2022-06-25T09:03:43Z</time>
      </trkpt>
      <trkpt lat="46.56016" lon="4.90369">
        <ele>208.4</ele>
        <time>2022-06-25T09:03:44Z</time>
      </trkpt>
      <trkpt lat="46.56015" lon="4.90363">
        <ele>208.4</ele>
        <time>2022-06-25T09:03:45Z</time>
      </trkpt>
      <trkpt lat="46.56015" lon="4.90357">
        <ele>208.4</ele>
        <time>2022-06-25T09:03:46Z</time>
      </trkpt>
      <trkpt lat="46.56015" lon="4.9035">
        <ele>208.4</ele>
        <time>2022-06-25T09:03:47Z</time>
      </trkpt>
      <trkpt lat="46.56015" lon="4.90344">
        <ele>208.4</ele>
        <time>2022-06-25T09:03:48Z</time>
      </trkpt>
      <trkpt lat="46.56016" lon="4.90337">
        <ele>208.4</ele>
        <time>2022-06-25T09:03:49Z</time>
      </trkpt>
      <trkpt lat="46.56016" lon="4.90331">
        <ele>208.4</ele>
        <time>2022-06-25T09:03:50Z</time>
      </trkpt>
      <trkpt lat="46.56016" lon="4.90324">
        <ele>208.4</ele>
        <time>2022-06-25T09:03:51Z</time>
      </trkpt>
      <trkpt lat="46.56017" lon="4.90318">
        <ele>208.4</ele>
        <time>2022-06-25T09:03:52Z</time>
      </trkpt>
      <trkpt lat="46.56017" lon="4.90312">
        <ele>208.8</ele>
        <time>2022-06-25T09:03:53Z</time>
      </trkpt>
      <trkpt lat="46.56017" lon="4.90305">
        <ele>208.8</ele>
        <time>2022-06-25T09:03:54Z</time>
      </trkpt>
      <trkpt lat="46.56018" lon="4.90299">
        <ele>208.8</ele>
        <time>2022-06-25T09:03:55Z</time>
      </trkpt>
      <trkpt lat="46.56018" lon="4.90292">
        <ele>208.8</ele>
        <time>2022-06-25T09:03:56Z</time>
      </trkpt>
      <trkpt lat="46.56019" lon="4.90286">
        <ele>209</ele>
        <time>2022-06-25T09:03:57Z</time>
      </trkpt>
      <trkpt lat="46.56019" lon="4.90279">
        <ele>209</ele>
        <time>2022-06-25T09:03:58Z</time>
      </trkpt>
      <trkpt lat="46.56019" lon="4.90272">
        <ele>209.2</ele>
        <time>2022-06-25T09:03:59Z</time>
      </trkpt>
      <trkpt lat="46.56019" lon="4.90266">
        <ele>209.2</ele>
        <time>2022-06-25T09:04:00Z</time>
      </trkpt>
      <trkpt lat="46.56019" lon="4.9026">
        <ele>209.6</ele>
        <time>2022-06-25T09:04:01Z</time>
      </trkpt>
      <trkpt lat="46.5602" lon="4.90254">
        <ele>209.6</ele>
        <time>2022-06-25T09:04:02Z</time>
      </trkpt>
      <trkpt lat="46.5602" lon="4.90247">
        <ele>209.8</ele>
        <time>2022-06-25T09:04:03Z</time>
      </trkpt>
      <trkpt lat="46.56021" lon="4.90241">
        <ele>209.8</ele>
        <time>2022-06-25T09:04:04Z</time>
      </trkpt>
      <trkpt lat="46.56021" lon="4.90234">
        <ele>209.8</ele>
        <time>2022-06-25T09:04:05Z</time>
      </trkpt>
      <trkpt lat="46.56021" lon="4.90228">
        <ele>210</ele>
        <time>2022-06-25T09:04:06Z</time>
      </trkpt>
      <trkpt lat="46.56022" lon="4.90222">
        <ele>210</ele>
        <time>2022-06-25T09:04:07Z</time>
      </trkpt>
      <trkpt lat="46.56022" lon="4.90216">
        <ele>210</ele>
        <time>2022-06-25T09:04:08Z</time>
      </trkpt>
      <trkpt lat="46.56022" lon="4.9021">
        <ele>210</ele>
        <time>2022-06-25T09:04:09Z</time>
      </trkpt>
      <trkpt lat="46.56023" lon="4.90204">
        <ele>210.2</ele>
        <time>2022-06-25T09:04:10Z</time>
      </trkpt>
      <trkpt lat="46.56023" lon="4.90198">
        <ele>210.2</ele>
        <time>2022-06-25T09:04:11Z</time>
      </trkpt>
      <trkpt lat="46.56023" lon="4.90191">
        <ele>210.4</ele>
        <time>2022-06-25T09:04:12Z</time>
      </trkpt>
      <trkpt lat="46.56023" lon="4.90185">
        <ele>210.4</ele>
        <time>2022-06-25T09:04:13Z</time>
      </trkpt>
      <trkpt lat="46.56023" lon="4.90178">
        <ele>210.6</ele>
        <time>2022-06-25T09:04:14Z</time>
      </trkpt>
      <trkpt lat="46.56023" lon="4.90172">
        <ele>210.6</ele>
        <time>2022-06-25T09:04:15Z</time>
      </trkpt>
      <trkpt lat="46.56023" lon="4.90165">
        <ele>211</ele>
        <time>2022-06-25T09:04:16Z</time>
      </trkpt>
      <trkpt lat="46.56023" lon="4.90159">
        <ele>211</ele>
        <time>2022-06-25T09:04:17Z</time>
      </trkpt>
      <trkpt lat="46.56024" lon="4.90152">
        <ele>211</ele>
        <time>2022-06-25T09:04:18Z</time>
      </trkpt>
      <trkpt lat="46.56024" lon="4.90146">
        <ele>211.2</ele>
        <time>2022-06-25T09:04:19Z</time>
      </trkpt>
      <trkpt lat="46.56024" lon="4.9014">
        <ele>211.2</ele>
        <time>2022-06-25T09:04:20Z</time>
      </trkpt>
      <trkpt lat="46.56024" lon="4.90133">
        <ele>211.4</ele>
        <time>2022-06-25T09:04:21Z</time>
      </trkpt>
      <trkpt lat="46.56024" lon="4.90127">
        <ele>211.4</ele>
        <time>2022-06-25T09:04:22Z</time>
      </trkpt>
      <trkpt lat="46.56024" lon="4.90121">
        <ele>211.4</ele>
        <time>2022-06-25T09:04:23Z</time>
      </trkpt>
      <trkpt lat="46.56024" lon="4.90115">
        <ele>211.6</ele>
        <time>2022-06-25T09:04:24Z</time>
      </trkpt>
      <trkpt lat="46.56023" lon="4.90109">
        <ele>211.6</ele>
        <time>2022-06-25T09:04:25Z</time>
      </trkpt>
      <trkpt lat="46.56023" lon="4.90103">
        <ele>211.6</ele>
        <time>2022-06-25T09:04:26Z</time>
      </trkpt>
      <trkpt lat="46.56023" lon="4.90098">
        <ele>212</ele>
        <time>2022-06-25T09:04:27Z</time>
      </trkpt>
      <trkpt lat="46.56024" lon="4.90092">
        <ele>212</ele>
        <time>2022-06-25T09:04:28Z</time>
      </trkpt>
      <trkpt lat="46.56024" lon="4.90086">
        <ele>212</ele>
        <time>2022-06-25T09:04:29Z</time>
      </trkpt>
      <trkpt lat="46.56024" lon="4.9008">
        <ele>212.2</ele>
        <time>2022-06-25T09:04:30Z</time>
      </trkpt>
      <trkpt lat="46.56024" lon="4.90074">
        <ele>212.2</ele>
        <time>2022-06-25T09:04:31Z</time>
      </trkpt>
      <trkpt lat="46.56024" lon="4.90068">
        <ele>212.6</ele>
        <time>2022-06-25T09:04:32Z</time>
      </trkpt>
      <trkpt lat="46.56024" lon="4.90062">
        <ele>212.6</ele>
        <time>2022-06-25T09:04:33Z</time>
      </trkpt>
      <trkpt lat="46.56024" lon="4.90056">
        <ele>212.8</ele>
        <time>2022-06-25T09:04:34Z</time>
      </trkpt>
      <trkpt lat="46.56024" lon="4.9005">
        <ele>212.8</ele>
        <time>2022-06-25T09:04:35Z</time>
      </trkpt>
      <trkpt lat="46.56024" lon="4.90044">
        <ele>213</ele>
        <time>2022-06-25T09:04:36Z</time>
      </trkpt>
      <trkpt lat="46.56025" lon="4.90038">
        <ele>213</ele>
        <time>2022-06-25T09:04:37Z</time>
      </trkpt>
      <trkpt lat="46.56025" lon="4.90032">
        <ele>213.4</ele>
        <time>2022-06-25T09:04:38Z</time>
      </trkpt>
      <trkpt lat="46.56025" lon="4.90026">
        <ele>213.4</ele>
        <time>2022-06-25T09:04:39Z</time>
      </trkpt>
      <trkpt lat="46.56025" lon="4.9002">
        <ele>213.4</ele>
        <time>2022-06-25T09:04:40Z</time>
      </trkpt>
      <trkpt lat="46.56025" lon="4.90014">
        <ele>213.6</ele>
        <time>2022-06-25T09:04:41Z</time>
      </trkpt>
      <trkpt lat="46.56025" lon="4.90008">
        <ele>213.6</ele>
        <time>2022-06-25T09:04:42Z</time>
      </trkpt>
      <trkpt lat="46.56025" lon="4.90002">
        <ele>213.8</ele>
        <time>2022-06-25T09:04:43Z</time>
      </trkpt>
      <trkpt lat="46.56025" lon="4.89996">
        <ele>213.8</ele>
        <time>2022-06-25T09:04:44Z</time>
      </trkpt>
      <trkpt lat="46.56026" lon="4.8999">
        <ele>214</ele>
        <time>2022-06-25T09:04:45Z</time>
      </trkpt>
      <trkpt lat="46.56026" lon="4.89984">
        <ele>214</ele>
        <time>2022-06-25T09:04:46Z</time>
      </trkpt>
      <trkpt lat="46.56026" lon="4.89978">
        <ele>214.4</ele>
        <time>2022-06-25T09:04:47Z</time>
      </trkpt>
      <trkpt lat="46.56026" lon="4.89972">
        <ele>214.4</ele>
        <time>2022-06-25T09:04:48Z</time>
      </trkpt>
      <trkpt lat="46.56026" lon="4.89966">
        <ele>214.6</ele>
        <time>2022-06-25T09:04:49Z</time>
      </trkpt>
      <trkpt lat="46.56027" lon="4.8996">
        <ele>214.6</ele>
        <time>2022-06-25T09:04:50Z</time>
      </trkpt>
      <trkpt lat="46.56027" lon="4.89955">
        <ele>215</ele>
        <time>2022-06-25T09:04:51Z</time>
      </trkpt>
      <trkpt lat="46.56027" lon="4.89949">
        <ele>215</ele>
        <time>2022-06-25T09:04:52Z</time>
      </trkpt>
      <trkpt lat="46.56027" lon="4.89943">
        <ele>215.4</ele>
        <time>2022-06-25T09:04:53Z</time>
      </trkpt>
      <trkpt lat="46.56027" lon="4.89937">
        <ele>215.4</ele>
        <time>2022-06-25T09:04:54Z</time>
      </trkpt>
      <trkpt lat="46.56027" lon="4.89931">
        <ele>215.8</ele>
        <time>2022-06-25T09:04:55Z</time>
      </trkpt>
      <trkpt lat="46.56027" lon="4.89926">
        <ele>215.8</ele>
        <time>2022-06-25T09:04:56Z</time>
      </trkpt>
      <trkpt lat="46.56027" lon="4.8992">
        <ele>216</ele>
        <time>2022-06-25T09:04:57Z</time>
      </trkpt>
      <trkpt lat="46.56027" lon="4.89914">
        <ele>216</ele>
        <time>2022-06-25T09:04:58Z</time>
      </trkpt>
      <trkpt lat="46.56027" lon="4.89908">
        <ele>216.4</ele>
        <time>2022-06-25T09:04:59Z</time>
      </trkpt>
      <trkpt lat="46.56027" lon="4.89903">
        <ele>216.6</ele>
        <time>2022-06-25T09:05:00Z</time>
      </trkpt>
      <trkpt lat="46.56027" lon="4.89897">
        <ele>217</ele>
        <time>2022-06-25T09:05:01Z</time>
      </trkpt>
      <trkpt lat="46.56027" lon="4.89892">
        <ele>217.2</ele>
        <time>2022-06-25T09:05:02Z</time>
      </trkpt>
      <trkpt lat="46.56028" lon="4.89886">
        <ele>217.2</ele>
        <time>2022-06-25T09:05:03Z</time>
      </trkpt>
      <trkpt lat="46.56028" lon="4.8988">
        <ele>217.6</ele>
        <time>2022-06-25T09:05:04Z</time>
      </trkpt>
      <trkpt lat="46.56028" lon="4.89874">
        <ele>217.6</ele>
        <time>2022-06-25T09:05:05Z</time>
      </trkpt>
      <trkpt lat="46.56028" lon="4.89869">
        <ele>218</ele>
        <time>2022-06-25T09:05:06Z</time>
      </trkpt>
      <trkpt lat="46.56028" lon="4.89863">
        <ele>218</ele>
        <time>2022-06-25T09:05:07Z</time>
      </trkpt>
      <trkpt lat="46.56028" lon="4.89857">
        <ele>218.4</ele>
        <time>2022-06-25T09:05:08Z</time>
      </trkpt>
      <trkpt lat="46.56028" lon="4.89851">
        <ele>218.6</ele>
        <time>2022-06-25T09:05:09Z</time>
      </trkpt>
      <trkpt lat="46.56028" lon="4.89846">
        <ele>218.8</ele>
        <time>2022-06-25T09:05:10Z</time>
      </trkpt>
      <trkpt lat="46.56028" lon="4.8984">
        <ele>219</ele>
        <time>2022-06-25T09:05:11Z</time>
      </trkpt>
      <trkpt lat="46.56028" lon="4.89835">
        <ele>219.2</ele>
        <time>2022-06-25T09:05:12Z</time>
      </trkpt>
      <trkpt lat="46.56028" lon="4.8983">
        <ele>219.4</ele>
        <time>2022-06-25T09:05:13Z</time>
      </trkpt>
      <trkpt lat="46.56028" lon="4.89825">
        <ele>219.4</ele>
        <time>2022-06-25T09:05:14Z</time>
      </trkpt>
      <trkpt lat="46.56028" lon="4.8982">
        <ele>220</ele>
        <time>2022-06-25T09:05:15Z</time>
      </trkpt>
      <trkpt lat="46.56029" lon="4.89815">
        <ele>220.2</ele>
        <time>2022-06-25T09:05:16Z</time>
      </trkpt>
      <trkpt lat="46.56029" lon="4.8981">
        <ele>220.4</ele>
        <time>2022-06-25T09:05:17Z</time>
      </trkpt>
      <trkpt lat="46.56028" lon="4.89805">
        <ele>220.6</ele>
        <time>2022-06-25T09:05:18Z</time>
      </trkpt>
      <trkpt lat="46.56028" lon="4.898">
        <ele>220.6</ele>
        <time>2022-06-25T09:05:19Z</time>
      </trkpt>
      <trkpt lat="46.56028" lon="4.89796">
        <ele>221</ele>
        <time>2022-06-25T09:05:20Z</time>
      </trkpt>
      <trkpt lat="46.56028" lon="4.89791">
        <ele>221</ele>
        <time>2022-06-25T09:05:21Z</time>
      </trkpt>
      <trkpt lat="46.56028" lon="4.89786">
        <ele>221.2</ele>
        <time>2022-06-25T09:05:22Z</time>
      </trkpt>
      <trkpt lat="46.56028" lon="4.89781">
        <ele>221.2</ele>
        <time>2022-06-25T09:05:23Z</time>
      </trkpt>
      <trkpt lat="46.56028" lon="4.89776">
        <ele>221.6</ele>
        <time>2022-06-25T09:05:24Z</time>
      </trkpt>
      <trkpt lat="46.56028" lon="4.89771">
        <ele>221.6</ele>
        <time>2022-06-25T09:05:25Z</time>
      </trkpt>
      <trkpt lat="46.56028" lon="4.89766">
        <ele>221.8</ele>
        <time>2022-06-25T09:05:26Z</time>
      </trkpt>
      <trkpt lat="46.56028" lon="4.89761">
        <ele>221.8</ele>
        <time>2022-06-25T09:05:27Z</time>
      </trkpt>
      <trkpt lat="46.56028" lon="4.89755">
        <ele>221.8</ele>
        <time>2022-06-25T09:05:28Z</time>
      </trkpt>
      <trkpt lat="46.56028" lon="4.8975">
        <ele>222.2</ele>
        <time>2022-06-25T09:05:29Z</time>
      </trkpt>
      <trkpt lat="46.56029" lon="4.89744">
        <ele>222.2</ele>
        <time>2022-06-25T09:05:30Z</time>
      </trkpt>
      <trkpt lat="46.56029" lon="4.89739">
        <ele>222.4</ele>
        <time>2022-06-25T09:05:31Z</time>
      </trkpt>
      <trkpt lat="46.56029" lon="4.89733">
        <ele>222.4</ele>
        <time>2022-06-25T09:05:32Z</time>
      </trkpt>
      <trkpt lat="46.56028" lon="4.89727">
        <ele>222.4</ele>
        <time>2022-06-25T09:05:33Z</time>
      </trkpt>
      <trkpt lat="46.56028" lon="4.89721">
        <ele>222.6</ele>
        <time>2022-06-25T09:05:34Z</time>
      </trkpt>
      <trkpt lat="46.56028" lon="4.89715">
        <ele>222.6</ele>
        <time>2022-06-25T09:05:35Z</time>
      </trkpt>
      <trkpt lat="46.56029" lon="4.89709">
        <ele>222.6</ele>
        <time>2022-06-25T09:05:36Z</time>
      </trkpt>
      <trkpt lat="46.56029" lon="4.89702">
        <ele>222.6</ele>
        <time>2022-06-25T09:05:37Z</time>
      </trkpt>
      <trkpt lat="46.56029" lon="4.89695">
        <ele>222.6</ele>
        <time>2022-06-25T09:05:38Z</time>
      </trkpt>
      <trkpt lat="46.56028" lon="4.89688">
        <ele>222.6</ele>
        <time>2022-06-25T09:05:39Z</time>
      </trkpt>
      <trkpt lat="46.56028" lon="4.89681">
        <ele>222.6</ele>
        <time>2022-06-25T09:05:40Z</time>
      </trkpt>
      <trkpt lat="46.56028" lon="4.89674">
        <ele>222.6</ele>
        <time>2022-06-25T09:05:41Z</time>
      </trkpt>
      <trkpt lat="46.56029" lon="4.89667">
        <ele>222.6</ele>
        <time>2022-06-25T09:05:42Z</time>
      </trkpt>
      <trkpt lat="46.56029" lon="4.8966">
        <ele>222.6</ele>
        <time>2022-06-25T09:05:43Z</time>
      </trkpt>
      <trkpt lat="46.56029" lon="4.89653">
        <ele>222.6</ele>
        <time>2022-06-25T09:05:44Z</time>
      </trkpt>
      <trkpt lat="46.56029" lon="4.89645">
        <ele>222.6</ele>
        <time>2022-06-25T09:05:46Z</time>
      </trkpt>
      <trkpt lat="46.56029" lon="4.89638">
        <ele>222.4</ele>
        <time>2022-06-25T09:05:47Z</time>
      </trkpt>
      <trkpt lat="46.5603" lon="4.89631">
        <ele>222.4</ele>
        <time>2022-06-25T09:05:48Z</time>
      </trkpt>
      <trkpt lat="46.5603" lon="4.89624">
        <ele>222.4</ele>
        <time>2022-06-25T09:05:49Z</time>
      </trkpt>
      <trkpt lat="46.5603" lon="4.89616">
        <ele>222.4</ele>
        <time>2022-06-25T09:05:50Z</time>
      </trkpt>
      <trkpt lat="46.5603" lon="4.89609">
        <ele>222.4</ele>
        <time>2022-06-25T09:05:51Z</time>
      </trkpt>
      <trkpt lat="46.5603" lon="4.89601">
        <ele>222.4</ele>
        <time>2022-06-25T09:05:52Z</time>
      </trkpt>
      <trkpt lat="46.5603" lon="4.89594">
        <ele>222.4</ele>
        <time>2022-06-25T09:05:53Z</time>
      </trkpt>
      <trkpt lat="46.5603" lon="4.89586">
        <ele>222.4</ele>
        <time>2022-06-25T09:05:54Z</time>
      </trkpt>
      <trkpt lat="46.5603" lon="4.89579">
        <ele>222.4</ele>
        <time>2022-06-25T09:05:55Z</time>
      </trkpt>
      <trkpt lat="46.56031" lon="4.89571">
        <ele>222.4</ele>
        <time>2022-06-25T09:05:56Z</time>
      </trkpt>
      <trkpt lat="46.56031" lon="4.89564">
        <ele>222.4</ele>
        <time>2022-06-25T09:05:57Z</time>
      </trkpt>
      <trkpt lat="46.56031" lon="4.89557">
        <ele>222.4</ele>
        <time>2022-06-25T09:05:58Z</time>
      </trkpt>
      <trkpt lat="46.56032" lon="4.8955">
        <ele>222.4</ele>
        <time>2022-06-25T09:05:59Z</time>
      </trkpt>
      <trkpt lat="46.56032" lon="4.89543">
        <ele>222.6</ele>
        <time>2022-06-25T09:06:00Z</time>
      </trkpt>
      <trkpt lat="46.56032" lon="4.89536">
        <ele>222.6</ele>
        <time>2022-06-25T09:06:01Z</time>
      </trkpt>
      <trkpt lat="46.56033" lon="4.89529">
        <ele>222.6</ele>
        <time>2022-06-25T09:06:02Z</time>
      </trkpt>
      <trkpt lat="46.56033" lon="4.89523">
        <ele>222.6</ele>
        <time>2022-06-25T09:06:03Z</time>
      </trkpt>
      <trkpt lat="46.56032" lon="4.89516">
        <ele>223</ele>
        <time>2022-06-25T09:06:04Z</time>
      </trkpt>
      <trkpt lat="46.56032" lon="4.89509">
        <ele>223</ele>
        <time>2022-06-25T09:06:05Z</time>
      </trkpt>
      <trkpt lat="46.56032" lon="4.89502">
        <ele>223.2</ele>
        <time>2022-06-25T09:06:06Z</time>
      </trkpt>
      <trkpt lat="46.56031" lon="4.89496">
        <ele>223.2</ele>
        <time>2022-06-25T09:06:07Z</time>
      </trkpt>
      <trkpt lat="46.56029" lon="4.89489">
        <ele>223.2</ele>
        <time>2022-06-25T09:06:08Z</time>
      </trkpt>
      <trkpt lat="46.56027" lon="4.89483">
        <ele>223.4</ele>
        <time>2022-06-25T09:06:09Z</time>
      </trkpt>
      <trkpt lat="46.56026" lon="4.89477">
        <ele>223.4</ele>
        <time>2022-06-25T09:06:10Z</time>
      </trkpt>
      <trkpt lat="46.56024" lon="4.89472">
        <ele>223.4</ele>
        <time>2022-06-25T09:06:11Z</time>
      </trkpt>
      <trkpt lat="46.56022" lon="4.89466">
        <ele>223.6</ele>
        <time>2022-06-25T09:06:12Z</time>
      </trkpt>
      <trkpt lat="46.56021" lon="4.89461">
        <ele>223.6</ele>
        <time>2022-06-25T09:06:13Z</time>
      </trkpt>
      <trkpt lat="46.56019" lon="4.89456">
        <ele>223.8</ele>
        <time>2022-06-25T09:06:14Z</time>
      </trkpt>
      <trkpt lat="46.56018" lon="4.8945">
        <ele>223.8</ele>
        <time>2022-06-25T09:06:15Z</time>
      </trkpt>
      <trkpt lat="46.56016" lon="4.89444">
        <ele>224</ele>
        <time>2022-06-25T09:06:16Z</time>
      </trkpt>
      <trkpt lat="46.56015" lon="4.89438">
        <ele>224</ele>
        <time>2022-06-25T09:06:17Z</time>
      </trkpt>
      <trkpt lat="46.56014" lon="4.89432">
        <ele>224.4</ele>
        <time>2022-06-25T09:06:18Z</time>
      </trkpt>
      <trkpt lat="46.56012" lon="4.89427">
        <ele>224.4</ele>
        <time>2022-06-25T09:06:19Z</time>
      </trkpt>
      <trkpt lat="46.56011" lon="4.89421">
        <ele>224.6</ele>
        <time>2022-06-25T09:06:20Z</time>
      </trkpt>
      <trkpt lat="46.5601" lon="4.89415">
        <ele>224.8</ele>
        <time>2022-06-25T09:06:21Z</time>
      </trkpt>
      <trkpt lat="46.56008" lon="4.89409">
        <ele>225</ele>
        <time>2022-06-25T09:06:22Z</time>
      </trkpt>
      <trkpt lat="46.56007" lon="4.89404">
        <ele>225.2</ele>
        <time>2022-06-25T09:06:23Z</time>
      </trkpt>
      <trkpt lat="46.56006" lon="4.89398">
        <ele>225.6</ele>
        <time>2022-06-25T09:06:24Z</time>
      </trkpt>
      <trkpt lat="46.56004" lon="4.89393">
        <ele>225.8</ele>
        <time>2022-06-25T09:06:25Z</time>
      </trkpt>
      <trkpt lat="46.56003" lon="4.89388">
        <ele>226</ele>
        <time>2022-06-25T09:06:26Z</time>
      </trkpt>
      <trkpt lat="46.56002" lon="4.89383">
        <ele>226.4</ele>
        <time>2022-06-25T09:06:27Z</time>
      </trkpt>
      <trkpt lat="46.56" lon="4.89379">
        <ele>226.6</ele>
        <time>2022-06-25T09:06:28Z</time>
      </trkpt>
      <trkpt lat="46.55999" lon="4.89375">
        <ele>227</ele>
        <time>2022-06-25T09:06:29Z</time>
      </trkpt>
      <trkpt lat="46.55997" lon="4.89371">
        <ele>227.2</ele>
        <time>2022-06-25T09:06:30Z</time>
      </trkpt>
      <trkpt lat="46.55996" lon="4.89366">
        <ele>227.4</ele>
        <time>2022-06-25T09:06:31Z</time>
      </trkpt>
      <trkpt lat="46.55995" lon="4.89362">
        <ele>227.8</ele>
        <time>2022-06-25T09:06:32Z</time>
      </trkpt>
      <trkpt lat="46.55994" lon="4.89357">
        <ele>228</ele>
        <time>2022-06-25T09:06:33Z</time>
      </trkpt>
      <trkpt lat="46.55993" lon="4.89353">
        <ele>228.4</ele>
        <time>2022-06-25T09:06:34Z</time>
      </trkpt>
      <trkpt lat="46.55992" lon="4.89348">
        <ele>228.6</ele>
        <time>2022-06-25T09:06:35Z</time>
      </trkpt>
      <trkpt lat="46.55992" lon="4.89344">
        <ele>228.8</ele>
        <time>2022-06-25T09:06:36Z</time>
      </trkpt>
      <trkpt lat="46.55991" lon="4.89339">
        <ele>229</ele>
        <time>2022-06-25T09:06:37Z</time>
      </trkpt>
      <trkpt lat="46.55989" lon="4.89334">
        <ele>229</ele>
        <time>2022-06-25T09:06:38Z</time>
      </trkpt>
      <trkpt lat="46.55988" lon="4.8933">
        <ele>229.4</ele>
        <time>2022-06-25T09:06:39Z</time>
      </trkpt>
      <trkpt lat="46.55987" lon="4.89326">
        <ele>229.8</ele>
        <time>2022-06-25T09:06:40Z</time>
      </trkpt>
      <trkpt lat="46.55986" lon="4.89322">
        <ele>229.8</ele>
        <time>2022-06-25T09:06:41Z</time>
      </trkpt>
      <trkpt lat="46.55985" lon="4.89318">
        <ele>230</ele>
        <time>2022-06-25T09:06:42Z</time>
      </trkpt>
      <trkpt lat="46.55984" lon="4.89314">
        <ele>230</ele>
        <time>2022-06-25T09:06:43Z</time>
      </trkpt>
      <trkpt lat="46.55983" lon="4.8931">
        <ele>230.2</ele>
        <time>2022-06-25T09:06:44Z</time>
      </trkpt>
      <trkpt lat="46.55982" lon="4.89306">
        <ele>230.2</ele>
        <time>2022-06-25T09:06:45Z</time>
      </trkpt>
      <trkpt lat="46.55981" lon="4.89303">
        <ele>230.2</ele>
        <time>2022-06-25T09:06:46Z</time>
      </trkpt>
      <trkpt lat="46.5598" lon="4.89303">
        <ele>230.4</ele>
        <time>2022-06-25T09:06:47Z</time>
      </trkpt>
      <trkpt lat="46.5598" lon="4.89302">
        <ele>230.4</ele>
        <time>2022-06-25T09:06:48Z</time>
      </trkpt>
      <trkpt lat="46.5598" lon="4.89301">
        <ele>230.4</ele>
        <time>2022-06-25T09:06:52Z</time>
      </trkpt>
      <trkpt lat="46.5598" lon="4.89301">
        <ele>230.4</ele>
        <time>2022-06-25T09:06:53Z</time>
      </trkpt>
      <trkpt lat="46.5598" lon="4.893">
        <ele>230.4</ele>
        <time>2022-06-25T09:06:54Z</time>
      </trkpt>
      <trkpt lat="46.55979" lon="4.893">
        <ele>230.4</ele>
        <time>2022-06-25T09:06:55Z</time>
      </trkpt>
      <trkpt lat="46.55979" lon="4.89299">
        <ele>230.4</ele>
        <time>2022-06-25T09:06:59Z</time>
      </trkpt>
      <trkpt lat="46.55979" lon="4.89299">
        <ele>230.4</ele>
        <time>2022-06-25T09:07:00Z</time>
      </trkpt>
      <trkpt lat="46.55979" lon="4.89298">
        <ele>230.4</ele>
        <time>2022-06-25T09:07:01Z</time>
      </trkpt>
      <trkpt lat="46.55979" lon="4.89297">
        <ele>230.6</ele>
        <time>2022-06-25T09:07:31Z</time>
      </trkpt>
      <trkpt lat="46.55978" lon="4.89297">
        <ele>231</ele>
        <time>2022-06-25T09:07:40Z</time>
      </trkpt>
      <trkpt lat="46.55978" lon="4.89296">
        <ele>231</ele>
        <time>2022-06-25T09:07:41Z</time>
      </trkpt>
      <trkpt lat="46.55978" lon="4.89296">
        <ele>231</ele>
        <time>2022-06-25T09:07:51Z</time>
      </trkpt>
      <trkpt lat="46.55978" lon="4.89295">
        <ele>231</ele>
        <time>2022-06-25T09:07:52Z</time>
      </trkpt>
      <trkpt lat="46.55978" lon="4.89294">
        <ele>231</ele>
        <time>2022-06-25T09:07:54Z</time>
      </trkpt>
      <trkpt lat="46.55977" lon="4.89294">
        <ele>231</ele>
        <time>2022-06-25T09:07:55Z</time>
      </trkpt>
      <trkpt lat="46.55977" lon="4.89293">
        <ele>231</ele>
        <time>2022-06-25T09:07:56Z</time>
      </trkpt>
      <trkpt lat="46.55976" lon="4.8929">
        <ele>231</ele>
        <time>2022-06-25T09:07:58Z</time>
      </trkpt>
      <trkpt lat="46.55976" lon="4.89287">
        <ele>231</ele>
        <time>2022-06-25T09:07:59Z</time>
      </trkpt>
      <trkpt lat="46.55975" lon="4.89283">
        <ele>231</ele>
        <time>2022-06-25T09:08:00Z</time>
      </trkpt>
      <trkpt lat="46.55974" lon="4.8928">
        <ele>231.2</ele>
        <time>2022-06-25T09:08:01Z</time>
      </trkpt>
      <trkpt lat="46.55973" lon="4.89277">
        <ele>231.2</ele>
        <time>2022-06-25T09:08:02Z</time>
      </trkpt>
      <trkpt lat="46.55972" lon="4.89273">
        <ele>231.2</ele>
        <time>2022-06-25T09:08:03Z</time>
      </trkpt>
      <trkpt lat="46.55971" lon="4.8927">
        <ele>231.2</ele>
        <time>2022-06-25T09:08:04Z</time>
      </trkpt>
      <trkpt lat="46.5597" lon="4.89266">
        <ele>231.6</ele>
        <time>2022-06-25T09:08:05Z</time>
      </trkpt>
      <trkpt lat="46.55969" lon="4.89262">
        <ele>231.6</ele>
        <time>2022-06-25T09:08:06Z</time>
      </trkpt>
      <trkpt lat="46.55968" lon="4.89258">
        <ele>231.6</ele>
        <time>2022-06-25T09:08:07Z</time>
      </trkpt>
      <trkpt lat="46.55967" lon="4.89254">
        <ele>231.8</ele>
        <time>2022-06-25T09:08:08Z</time>
      </trkpt>
      <trkpt lat="46.55966" lon="4.8925">
        <ele>231.8</ele>
        <time>2022-06-25T09:08:09Z</time>
      </trkpt>
      <trkpt lat="46.55965" lon="4.89246">
        <ele>231.8</ele>
        <time>2022-06-25T09:08:10Z</time>
      </trkpt>
      <trkpt lat="46.55964" lon="4.89241">
        <ele>231.8</ele>
        <time>2022-06-25T09:08:11Z</time>
      </trkpt>
      <trkpt lat="46.55963" lon="4.89237">
        <ele>232</ele>
        <time>2022-06-25T09:08:12Z</time>
      </trkpt>
      <trkpt lat="46.55963" lon="4.89232">
        <ele>232</ele>
        <time>2022-06-25T09:08:13Z</time>
      </trkpt>
      <trkpt lat="46.55962" lon="4.89228">
        <ele>232</ele>
        <time>2022-06-25T09:08:14Z</time>
      </trkpt>
      <trkpt lat="46.5596" lon="4.89223">
        <ele>232</ele>
        <time>2022-06-25T09:08:15Z</time>
      </trkpt>
      <trkpt lat="46.55959" lon="4.89218">
        <ele>232.2</ele>
        <time>2022-06-25T09:08:16Z</time>
      </trkpt>
      <trkpt lat="46.55958" lon="4.89213">
        <ele>232.2</ele>
        <time>2022-06-25T09:08:17Z</time>
      </trkpt>
      <trkpt lat="46.55957" lon="4.89208">
        <ele>232.2</ele>
        <time>2022-06-25T09:08:18Z</time>
      </trkpt>
      <trkpt lat="46.55955" lon="4.89203">
        <ele>232.2</ele>
        <time>2022-06-25T09:08:19Z</time>
      </trkpt>
      <trkpt lat="46.55954" lon="4.89197">
        <ele>232.4</ele>
        <time>2022-06-25T09:08:20Z</time>
      </trkpt>
      <trkpt lat="46.55953" lon="4.89192">
        <ele>232.4</ele>
        <time>2022-06-25T09:08:21Z</time>
      </trkpt>
      <trkpt lat="46.55951" lon="4.89187">
        <ele>232.4</ele>
        <time>2022-06-25T09:08:22Z</time>
      </trkpt>
      <trkpt lat="46.5595" lon="4.89182">
        <ele>232.4</ele>
        <time>2022-06-25T09:08:23Z</time>
      </trkpt>
      <trkpt lat="46.55948" lon="4.89176">
        <ele>232.8</ele>
        <time>2022-06-25T09:08:24Z</time>
      </trkpt>
      <trkpt lat="46.55946" lon="4.89171">
        <ele>232.8</ele>
        <time>2022-06-25T09:08:25Z</time>
      </trkpt>
      <trkpt lat="46.55944" lon="4.89166">
        <ele>232.8</ele>
        <time>2022-06-25T09:08:26Z</time>
      </trkpt>
      <trkpt lat="46.55942" lon="4.89161">
        <ele>232.8</ele>
        <time>2022-06-25T09:08:27Z</time>
      </trkpt>
      <trkpt lat="46.55941" lon="4.89156">
        <ele>233</ele>
        <time>2022-06-25T09:08:28Z</time>
      </trkpt>
      <trkpt lat="46.55939" lon="4.89151">
        <ele>233</ele>
        <time>2022-06-25T09:08:29Z</time>
      </trkpt>
      <trkpt lat="46.55937" lon="4.89146">
        <ele>233</ele>
        <time>2022-06-25T09:08:30Z</time>
      </trkpt>
      <trkpt lat="46.55935" lon="4.89141">
        <ele>233.2</ele>
        <time>2022-06-25T09:08:31Z</time>
      </trkpt>
      <trkpt lat="46.55933" lon="4.89136">
        <ele>233.2</ele>
        <time>2022-06-25T09:08:32Z</time>
      </trkpt>
      <trkpt lat="46.55932" lon="4.89132">
        <ele>233.6</ele>
        <time>2022-06-25T09:08:33Z</time>
      </trkpt>
      <trkpt lat="46.5593" lon="4.89127">
        <ele>233.6</ele>
        <time>2022-06-25T09:08:34Z</time>
      </trkpt>
      <trkpt lat="46.55928" lon="4.89123">
        <ele>233.8</ele>
        <time>2022-06-25T09:08:35Z</time>
      </trkpt>
      <trkpt lat="46.55927" lon="4.89118">
        <ele>233.8</ele>
        <time>2022-06-25T09:08:36Z</time>
      </trkpt>
      <trkpt lat="46.55926" lon="4.89113">
        <ele>234.2</ele>
        <time>2022-06-25T09:08:37Z</time>
      </trkpt>
      <trkpt lat="46.55924" lon="4.89108">
        <ele>234.2</ele>
        <time>2022-06-25T09:08:38Z</time>
      </trkpt>
      <trkpt lat="46.55923" lon="4.89103">
        <ele>234.4</ele>
        <time>2022-06-25T09:08:39Z</time>
      </trkpt>
      <trkpt lat="46.55922" lon="4.89098">
        <ele>234.4</ele>
        <time>2022-06-25T09:08:40Z</time>
      </trkpt>
      <trkpt lat="46.55921" lon="4.89093">
        <ele>234.6</ele>
        <time>2022-06-25T09:08:41Z</time>
      </trkpt>
      <trkpt lat="46.55919" lon="4.89088">
        <ele>234.6</ele>
        <time>2022-06-25T09:08:42Z</time>
      </trkpt>
      <trkpt lat="46.55918" lon="4.89083">
        <ele>235</ele>
        <time>2022-06-25T09:08:43Z</time>
      </trkpt>
      <trkpt lat="46.55917" lon="4.89079">
        <ele>235</ele>
        <time>2022-06-25T09:08:44Z</time>
      </trkpt>
      <trkpt lat="46.55916" lon="4.89074">
        <ele>235.2</ele>
        <time>2022-06-25T09:08:45Z</time>
      </trkpt>
      <trkpt lat="46.55915" lon="4.89069">
        <ele>235.2</ele>
        <time>2022-06-25T09:08:46Z</time>
      </trkpt>
      <trkpt lat="46.55914" lon="4.89064">
        <ele>235.6</ele>
        <time>2022-06-25T09:08:47Z</time>
      </trkpt>
      <trkpt lat="46.55912" lon="4.89059">
        <ele>235.6</ele>
        <time>2022-06-25T09:08:48Z</time>
      </trkpt>
      <trkpt lat="46.55911" lon="4.89054">
        <ele>235.8</ele>
        <time>2022-06-25T09:08:49Z</time>
      </trkpt>
      <trkpt lat="46.5591" lon="4.89049">
        <ele>235.8</ele>
        <time>2022-06-25T09:08:50Z</time>
      </trkpt>
      <trkpt lat="46.55909" lon="4.89044">
        <ele>235.8</ele>
        <time>2022-06-25T09:08:51Z</time>
      </trkpt>
      <trkpt lat="46.55908" lon="4.89038">
        <ele>236</ele>
        <time>2022-06-25T09:08:52Z</time>
      </trkpt>
      <trkpt lat="46.55907" lon="4.89033">
        <ele>236</ele>
        <time>2022-06-25T09:08:53Z</time>
      </trkpt>
      <trkpt lat="46.55905" lon="4.89028">
        <ele>236</ele>
        <time>2022-06-25T09:08:54Z</time>
      </trkpt>
      <trkpt lat="46.55904" lon="4.89022">
        <ele>236.4</ele>
        <time>2022-06-25T09:08:55Z</time>
      </trkpt>
      <trkpt lat="46.55902" lon="4.89017">
        <ele>236.4</ele>
        <time>2022-06-25T09:08:56Z</time>
      </trkpt>
      <trkpt lat="46.559" lon="4.89012">
        <ele>236.8</ele>
        <time>2022-06-25T09:08:57Z</time>
      </trkpt>
      <trkpt lat="46.55899" lon="4.89007">
        <ele>237</ele>
        <time>2022-06-25T09:08:58Z</time>
      </trkpt>
      <trkpt lat="46.55897" lon="4.89001">
        <ele>237</ele>
        <time>2022-06-25T09:08:59Z</time>
      </trkpt>
      <trkpt lat="46.55896" lon="4.88996">
        <ele>237.4</ele>
        <time>2022-06-25T09:09:00Z</time>
      </trkpt>
      <trkpt lat="46.55894" lon="4.88991">
        <ele>237.6</ele>
        <time>2022-06-25T09:09:01Z</time>
      </trkpt>
      <trkpt lat="46.55893" lon="4.88985">
        <ele>237.8</ele>
        <time>2022-06-25T09:09:02Z</time>
      </trkpt>
      <trkpt lat="46.55891" lon="4.8898">
        <ele>237.8</ele>
        <time>2022-06-25T09:09:03Z</time>
      </trkpt>
      <trkpt lat="46.5589" lon="4.88975">
        <ele>238.2</ele>
        <time>2022-06-25T09:09:04Z</time>
      </trkpt>
      <trkpt lat="46.55889" lon="4.8897">
        <ele>238.2</ele>
        <time>2022-06-25T09:09:05Z</time>
      </trkpt>
      <trkpt lat="46.55887" lon="4.88965">
        <ele>238.6</ele>
        <time>2022-06-25T09:09:06Z</time>
      </trkpt>
      <trkpt lat="46.55886" lon="4.8896">
        <ele>238.8</ele>
        <time>2022-06-25T09:09:07Z</time>
      </trkpt>
      <trkpt lat="46.55884" lon="4.88955">
        <ele>238.8</ele>
        <time>2022-06-25T09:09:08Z</time>
      </trkpt>
      <trkpt lat="46.55883" lon="4.8895">
        <ele>238.8</ele>
        <time>2022-06-25T09:09:09Z</time>
      </trkpt>
      <trkpt lat="46.55882" lon="4.88945">
        <ele>239</ele>
        <time>2022-06-25T09:09:10Z</time>
      </trkpt>
      <trkpt lat="46.5588" lon="4.8894">
        <ele>239</ele>
        <time>2022-06-25T09:09:11Z</time>
      </trkpt>
      <trkpt lat="46.55879" lon="4.88936">
        <ele>239.4</ele>
        <time>2022-06-25T09:09:12Z</time>
      </trkpt>
      <trkpt lat="46.55878" lon="4.88932">
        <ele>239.4</ele>
        <time>2022-06-25T09:09:13Z</time>
      </trkpt>
      <trkpt lat="46.55876" lon="4.88927">
        <ele>239.6</ele>
        <time>2022-06-25T09:09:14Z</time>
      </trkpt>
      <trkpt lat="46.55875" lon="4.88923">
        <ele>240</ele>
        <time>2022-06-25T09:09:15Z</time>
      </trkpt>
      <trkpt lat="46.55874" lon="4.88919">
        <ele>240.2</ele>
        <time>2022-06-25T09:09:16Z</time>
      </trkpt>
      <trkpt lat="46.55872" lon="4.88915">
        <ele>240.2</ele>
        <time>2022-06-25T09:09:17Z</time>
      </trkpt>
      <trkpt lat="46.5587" lon="4.88911">
        <ele>240.4</ele>
        <time>2022-06-25T09:09:18Z</time>
      </trkpt>
      <trkpt lat="46.55868" lon="4.88907">
        <ele>240.6</ele>
        <time>2022-06-25T09:09:19Z</time>
      </trkpt>
      <trkpt lat="46.55866" lon="4.88903">
        <ele>240.8</ele>
        <time>2022-06-25T09:09:20Z</time>
      </trkpt>
      <trkpt lat="46.55865" lon="4.88899">
        <ele>240.8</ele>
        <time>2022-06-25T09:09:21Z</time>
      </trkpt>
      <trkpt lat="46.55863" lon="4.88894">
        <ele>241.2</ele>
        <time>2022-06-25T09:09:22Z</time>
      </trkpt>
      <trkpt lat="46.55861" lon="4.8889">
        <ele>241.2</ele>
        <time>2022-06-25T09:09:23Z</time>
      </trkpt>
      <trkpt lat="46.55859" lon="4.88885">
        <ele>241.4</ele>
        <time>2022-06-25T09:09:24Z</time>
      </trkpt>
      <trkpt lat="46.55857" lon="4.88881">
        <ele>241.4</ele>
        <time>2022-06-25T09:09:25Z</time>
      </trkpt>
      <trkpt lat="46.55855" lon="4.88877">
        <ele>241.8</ele>
        <time>2022-06-25T09:09:26Z</time>
      </trkpt>
      <trkpt lat="46.55853" lon="4.88872">
        <ele>241.8</ele>
        <time>2022-06-25T09:09:27Z</time>
      </trkpt>
      <trkpt lat="46.55851" lon="4.88867">
        <ele>242</ele>
        <time>2022-06-25T09:09:28Z</time>
      </trkpt>
      <trkpt lat="46.55849" lon="4.88861">
        <ele>242</ele>
        <time>2022-06-25T09:09:29Z</time>
      </trkpt>
      <trkpt lat="46.55847" lon="4.88856">
        <ele>242.2</ele>
        <time>2022-06-25T09:09:30Z</time>
      </trkpt>
      <trkpt lat="46.55845" lon="4.8885">
        <ele>242.2</ele>
        <time>2022-06-25T09:09:31Z</time>
      </trkpt>
      <trkpt lat="46.55843" lon="4.88844">
        <ele>242.2</ele>
        <time>2022-06-25T09:09:32Z</time>
      </trkpt>
      <trkpt lat="46.55841" lon="4.88837">
        <ele>242.2</ele>
        <time>2022-06-25T09:09:33Z</time>
      </trkpt>
      <trkpt lat="46.55839" lon="4.88831">
        <ele>242.2</ele>
        <time>2022-06-25T09:09:34Z</time>
      </trkpt>
      <trkpt lat="46.55838" lon="4.88824">
        <ele>242.2</ele>
        <time>2022-06-25T09:09:35Z</time>
      </trkpt>
      <trkpt lat="46.55836" lon="4.88817">
        <ele>242.2</ele>
        <time>2022-06-25T09:09:36Z</time>
      </trkpt>
      <trkpt lat="46.55834" lon="4.8881">
        <ele>242.2</ele>
        <time>2022-06-25T09:09:37Z</time>
      </trkpt>
      <trkpt lat="46.55833" lon="4.88804">
        <ele>242.2</ele>
        <time>2022-06-25T09:09:38Z</time>
      </trkpt>
      <trkpt lat="46.55831" lon="4.88797">
        <ele>242.2</ele>
        <time>2022-06-25T09:09:39Z</time>
      </trkpt>
      <trkpt lat="46.5583" lon="4.8879">
        <ele>242.2</ele>
        <time>2022-06-25T09:09:40Z</time>
      </trkpt>
      <trkpt lat="46.55829" lon="4.88784">
        <ele>242.2</ele>
        <time>2022-06-25T09:09:41Z</time>
      </trkpt>
      <trkpt lat="46.55827" lon="4.88777">
        <ele>242.2</ele>
        <time>2022-06-25T09:09:42Z</time>
      </trkpt>
      <trkpt lat="46.55826" lon="4.8877">
        <ele>242.2</ele>
        <time>2022-06-25T09:09:43Z</time>
      </trkpt>
      <trkpt lat="46.55824" lon="4.88764">
        <ele>242.2</ele>
        <time>2022-06-25T09:09:44Z</time>
      </trkpt>
      <trkpt lat="46.55823" lon="4.88757">
        <ele>242.2</ele>
        <time>2022-06-25T09:09:45Z</time>
      </trkpt>
      <trkpt lat="46.55822" lon="4.8875">
        <ele>242.2</ele>
        <time>2022-06-25T09:09:46Z</time>
      </trkpt>
      <trkpt lat="46.55821" lon="4.88744">
        <ele>242.4</ele>
        <time>2022-06-25T09:09:47Z</time>
      </trkpt>
      <trkpt lat="46.5582" lon="4.88737">
        <ele>242.6</ele>
        <time>2022-06-25T09:09:48Z</time>
      </trkpt>
      <trkpt lat="46.55819" lon="4.88731">
        <ele>242.6</ele>
        <time>2022-06-25T09:09:49Z</time>
      </trkpt>
      <trkpt lat="46.55817" lon="4.88725">
        <ele>242.6</ele>
        <time>2022-06-25T09:09:50Z</time>
      </trkpt>
      <trkpt lat="46.55816" lon="4.88719">
        <ele>243</ele>
        <time>2022-06-25T09:09:51Z</time>
      </trkpt>
      <trkpt lat="46.55815" lon="4.88713">
        <ele>243</ele>
        <time>2022-06-25T09:09:52Z</time>
      </trkpt>
      <trkpt lat="46.55814" lon="4.88708">
        <ele>243.2</ele>
        <time>2022-06-25T09:09:53Z</time>
      </trkpt>
      <trkpt lat="46.55812" lon="4.88702">
        <ele>243.2</ele>
        <time>2022-06-25T09:09:54Z</time>
      </trkpt>
      <trkpt lat="46.55811" lon="4.88697">
        <ele>243.8</ele>
        <time>2022-06-25T09:09:55Z</time>
      </trkpt>
      <trkpt lat="46.55809" lon="4.88692">
        <ele>244</ele>
        <time>2022-06-25T09:09:56Z</time>
      </trkpt>
      <trkpt lat="46.55808" lon="4.88686">
        <ele>244</ele>
        <time>2022-06-25T09:09:57Z</time>
      </trkpt>
      <trkpt lat="46.55806" lon="4.88681">
        <ele>244.4</ele>
        <time>2022-06-25T09:09:58Z</time>
      </trkpt>
      <trkpt lat="46.55804" lon="4.88676">
        <ele>244.6</ele>
        <time>2022-06-25T09:09:59Z</time>
      </trkpt>
      <trkpt lat="46.55802" lon="4.88672">
        <ele>244.8</ele>
        <time>2022-06-25T09:10:00Z</time>
      </trkpt>
      <trkpt lat="46.558" lon="4.88667">
        <ele>245.2</ele>
        <time>2022-06-25T09:10:01Z</time>
      </trkpt>
      <trkpt lat="46.55798" lon="4.88663">
        <ele>245.6</ele>
        <time>2022-06-25T09:10:02Z</time>
      </trkpt>
      <trkpt lat="46.55797" lon="4.88659">
        <ele>245.8</ele>
        <time>2022-06-25T09:10:03Z</time>
      </trkpt>
      <trkpt lat="46.55795" lon="4.88655">
        <ele>246.2</ele>
        <time>2022-06-25T09:10:04Z</time>
      </trkpt>
      <trkpt lat="46.55794" lon="4.88651">
        <ele>246.4</ele>
        <time>2022-06-25T09:10:05Z</time>
      </trkpt>
      <trkpt lat="46.55793" lon="4.88647">
        <ele>246.6</ele>
        <time>2022-06-25T09:10:06Z</time>
      </trkpt>
      <trkpt lat="46.55791" lon="4.88643">
        <ele>247</ele>
        <time>2022-06-25T09:10:07Z</time>
      </trkpt>
      <trkpt lat="46.5579" lon="4.88639">
        <ele>247.4</ele>
        <time>2022-06-25T09:10:08Z</time>
      </trkpt>
      <trkpt lat="46.55788" lon="4.88635">
        <ele>247.6</ele>
        <time>2022-06-25T09:10:09Z</time>
      </trkpt>
      <trkpt lat="46.55787" lon="4.88631">
        <ele>248</ele>
        <time>2022-06-25T09:10:10Z</time>
      </trkpt>
      <trkpt lat="46.55786" lon="4.88626">
        <ele>248.2</ele>
        <time>2022-06-25T09:10:11Z</time>
      </trkpt>
      <trkpt lat="46.55784" lon="4.88622">
        <ele>248.6</ele>
        <time>2022-06-25T09:10:12Z</time>
      </trkpt>
      <trkpt lat="46.55783" lon="4.88618">
        <ele>248.8</ele>
        <time>2022-06-25T09:10:13Z</time>
      </trkpt>
      <trkpt lat="46.55782" lon="4.88614">
        <ele>249</ele>
        <time>2022-06-25T09:10:14Z</time>
      </trkpt>
      <trkpt lat="46.5578" lon="4.8861">
        <ele>249.2</ele>
        <time>2022-06-25T09:10:15Z</time>
      </trkpt>
      <trkpt lat="46.55779" lon="4.88606">
        <ele>249.2</ele>
        <time>2022-06-25T09:10:16Z</time>
      </trkpt>
      <trkpt lat="46.55778" lon="4.88602">
        <ele>249.8</ele>
        <time>2022-06-25T09:10:17Z</time>
      </trkpt>
      <trkpt lat="46.55776" lon="4.88598">
        <ele>249.8</ele>
        <time>2022-06-25T09:10:18Z</time>
      </trkpt>
      <trkpt lat="46.55775" lon="4.88595">
        <ele>250</ele>
        <time>2022-06-25T09:10:19Z</time>
      </trkpt>
      <trkpt lat="46.55774" lon="4.88592">
        <ele>250</ele>
        <time>2022-06-25T09:10:20Z</time>
      </trkpt>
      <trkpt lat="46.55772" lon="4.88588">
        <ele>250.4</ele>
        <time>2022-06-25T09:10:21Z</time>
      </trkpt>
      <trkpt lat="46.55771" lon="4.88585">
        <ele>250.4</ele>
        <time>2022-06-25T09:10:22Z</time>
      </trkpt>
      <trkpt lat="46.5577" lon="4.88581">
        <ele>250.6</ele>
        <time>2022-06-25T09:10:23Z</time>
      </trkpt>
      <trkpt lat="46.55769" lon="4.88577">
        <ele>250.6</ele>
        <time>2022-06-25T09:10:24Z</time>
      </trkpt>
      <trkpt lat="46.55767" lon="4.88574">
        <ele>251</ele>
        <time>2022-06-25T09:10:25Z</time>
      </trkpt>
      <trkpt lat="46.55767" lon="4.88571">
        <ele>251</ele>
        <time>2022-06-25T09:10:26Z</time>
      </trkpt>
      <trkpt lat="46.55765" lon="4.88568">
        <ele>251.4</ele>
        <time>2022-06-25T09:10:27Z</time>
      </trkpt>
      <trkpt lat="46.55764" lon="4.88564">
        <ele>251.6</ele>
        <time>2022-06-25T09:10:28Z</time>
      </trkpt>
      <trkpt lat="46.55763" lon="4.8856">
        <ele>251.8</ele>
        <time>2022-06-25T09:10:29Z</time>
      </trkpt>
      <trkpt lat="46.55761" lon="4.88556">
        <ele>252</ele>
        <time>2022-06-25T09:10:30Z</time>
      </trkpt>
      <trkpt lat="46.5576" lon="4.88552">
        <ele>252</ele>
        <time>2022-06-25T09:10:31Z</time>
      </trkpt>
      <trkpt lat="46.55758" lon="4.88548">
        <ele>252.4</ele>
        <time>2022-06-25T09:10:32Z</time>
      </trkpt>
      <trkpt lat="46.55757" lon="4.88544">
        <ele>252.6</ele>
        <time>2022-06-25T09:10:33Z</time>
      </trkpt>
      <trkpt lat="46.55756" lon="4.8854">
        <ele>252.8</ele>
        <time>2022-06-25T09:10:34Z</time>
      </trkpt>
      <trkpt lat="46.55754" lon="4.88537">
        <ele>252.8</ele>
        <time>2022-06-25T09:10:35Z</time>
      </trkpt>
      <trkpt lat="46.55753" lon="4.88533">
        <ele>253.4</ele>
        <time>2022-06-25T09:10:36Z</time>
      </trkpt>
      <trkpt lat="46.55751" lon="4.8853">
        <ele>253.4</ele>
        <time>2022-06-25T09:10:37Z</time>
      </trkpt>
      <trkpt lat="46.5575" lon="4.88527">
        <ele>253.8</ele>
        <time>2022-06-25T09:10:38Z</time>
      </trkpt>
      <trkpt lat="46.55749" lon="4.88523">
        <ele>253.8</ele>
        <time>2022-06-25T09:10:39Z</time>
      </trkpt>
      <trkpt lat="46.55748" lon="4.8852">
        <ele>254.2</ele>
        <time>2022-06-25T09:10:40Z</time>
      </trkpt>
      <trkpt lat="46.55747" lon="4.88517">
        <ele>254.4</ele>
        <time>2022-06-25T09:10:41Z</time>
      </trkpt>
      <trkpt lat="46.55746" lon="4.88514">
        <ele>254.8</ele>
        <time>2022-06-25T09:10:42Z</time>
      </trkpt>
      <trkpt lat="46.55744" lon="4.88511">
        <ele>255</ele>
        <time>2022-06-25T09:10:43Z</time>
      </trkpt>
      <trkpt lat="46.55743" lon="4.88508">
        <ele>255.2</ele>
        <time>2022-06-25T09:10:44Z</time>
      </trkpt>
      <trkpt lat="46.55742" lon="4.88506">
        <ele>255.4</ele>
        <time>2022-06-25T09:10:45Z</time>
      </trkpt>
      <trkpt lat="46.55741" lon="4.88503">
        <ele>255.8</ele>
        <time>2022-06-25T09:10:46Z</time>
      </trkpt>
      <trkpt lat="46.5574" lon="4.885">
        <ele>256</ele>
        <time>2022-06-25T09:10:47Z</time>
      </trkpt>
      <trkpt lat="46.55739" lon="4.88498">
        <ele>256.2</ele>
        <time>2022-06-25T09:10:48Z</time>
      </trkpt>
      <trkpt lat="46.55738" lon="4.88495">
        <ele>256.2</ele>
        <time>2022-06-25T09:10:49Z</time>
      </trkpt>
      <trkpt lat="46.55737" lon="4.88492">
        <ele>256.6</ele>
        <time>2022-06-25T09:10:50Z</time>
      </trkpt>
      <trkpt lat="46.55736" lon="4.8849">
        <ele>256.6</ele>
        <time>2022-06-25T09:10:51Z</time>
      </trkpt>
      <trkpt lat="46.55735" lon="4.88487">
        <ele>256.8</ele>
        <time>2022-06-25T09:10:52Z</time>
      </trkpt>
      <trkpt lat="46.55734" lon="4.88484">
        <ele>257</ele>
        <time>2022-06-25T09:10:53Z</time>
      </trkpt>
      <trkpt lat="46.55733" lon="4.88481">
        <ele>257</ele>
        <time>2022-06-25T09:10:54Z</time>
      </trkpt>
      <trkpt lat="46.55732" lon="4.88478">
        <ele>257.4</ele>
        <time>2022-06-25T09:10:55Z</time>
      </trkpt>
      <trkpt lat="46.55731" lon="4.88475">
        <ele>257.4</ele>
        <time>2022-06-25T09:10:56Z</time>
      </trkpt>
      <trkpt lat="46.55729" lon="4.88472">
        <ele>257.6</ele>
        <time>2022-06-25T09:10:57Z</time>
      </trkpt>
      <trkpt lat="46.55727" lon="4.88469">
        <ele>257.6</ele>
        <time>2022-06-25T09:10:58Z</time>
      </trkpt>
      <trkpt lat="46.55726" lon="4.88466">
        <ele>258</ele>
        <time>2022-06-25T09:10:59Z</time>
      </trkpt>
      <trkpt lat="46.55724" lon="4.88463">
        <ele>258</ele>
        <time>2022-06-25T09:11:00Z</time>
      </trkpt>
      <trkpt lat="46.55722" lon="4.88461">
        <ele>258.4</ele>
        <time>2022-06-25T09:11:01Z</time>
      </trkpt>
      <trkpt lat="46.55721" lon="4.88458">
        <ele>258.4</ele>
        <time>2022-06-25T09:11:02Z</time>
      </trkpt>
      <trkpt lat="46.5572" lon="4.88456">
        <ele>258.6</ele>
        <time>2022-06-25T09:11:03Z</time>
      </trkpt>
      <trkpt lat="46.55718" lon="4.88453">
        <ele>258.6</ele>
        <time>2022-06-25T09:11:04Z</time>
      </trkpt>
      <trkpt lat="46.55717" lon="4.8845">
        <ele>259</ele>
        <time>2022-06-25T09:11:05Z</time>
      </trkpt>
      <trkpt lat="46.55716" lon="4.88448">
        <ele>259</ele>
        <time>2022-06-25T09:11:06Z</time>
      </trkpt>
      <trkpt lat="46.55715" lon="4.88445">
        <ele>259.2</ele>
        <time>2022-06-25T09:11:07Z</time>
      </trkpt>
      <trkpt lat="46.55713" lon="4.88443">
        <ele>259.4</ele>
        <time>2022-06-25T09:11:08Z</time>
      </trkpt>
      <trkpt lat="46.55712" lon="4.8844">
        <ele>259.8</ele>
        <time>2022-06-25T09:11:09Z</time>
      </trkpt>
      <trkpt lat="46.55711" lon="4.88438">
        <ele>259.8</ele>
        <time>2022-06-25T09:11:10Z</time>
      </trkpt>
      <trkpt lat="46.55709" lon="4.88435">
        <ele>260.2</ele>
        <time>2022-06-25T09:11:11Z</time>
      </trkpt>
      <trkpt lat="46.55708" lon="4.88433">
        <ele>260.4</ele>
        <time>2022-06-25T09:11:12Z</time>
      </trkpt>
      <trkpt lat="46.55707" lon="4.8843">
        <ele>260.6</ele>
        <time>2022-06-25T09:11:13Z</time>
      </trkpt>
      <trkpt lat="46.55705" lon="4.88427">
        <ele>260.8</ele>
        <time>2022-06-25T09:11:14Z</time>
      </trkpt>
      <trkpt lat="46.55704" lon="4.88424">
        <ele>260.8</ele>
        <time>2022-06-25T09:11:15Z</time>
      </trkpt>
      <trkpt lat="46.55703" lon="4.88421">
        <ele>261.2</ele>
        <time>2022-06-25T09:11:16Z</time>
      </trkpt>
      <trkpt lat="46.55701" lon="4.88417">
        <ele>261.2</ele>
        <time>2022-06-25T09:11:17Z</time>
      </trkpt>
      <trkpt lat="46.557" lon="4.88414">
        <ele>261.6</ele>
        <time>2022-06-25T09:11:18Z</time>
      </trkpt>
      <trkpt lat="46.55699" lon="4.8841">
        <ele>261.8</ele>
        <time>2022-06-25T09:11:19Z</time>
      </trkpt>
      <trkpt lat="46.55698" lon="4.88408">
        <ele>261.8</ele>
        <time>2022-06-25T09:11:20Z</time>
      </trkpt>
      <trkpt lat="46.55696" lon="4.88405">
        <ele>262</ele>
        <time>2022-06-25T09:11:21Z</time>
      </trkpt>
      <trkpt lat="46.55694" lon="4.88402">
        <ele>262.2</ele>
        <time>2022-06-25T09:11:22Z</time>
      </trkpt>
      <trkpt lat="46.55692" lon="4.88398">
        <ele>262.6</ele>
        <time>2022-06-25T09:11:23Z</time>
      </trkpt>
      <trkpt lat="46.5569" lon="4.88396">
        <ele>262.6</ele>
        <time>2022-06-25T09:11:24Z</time>
      </trkpt>
      <trkpt lat="46.55688" lon="4.88392">
        <ele>262.8</ele>
        <time>2022-06-25T09:11:25Z</time>
      </trkpt>
      <trkpt lat="46.55687" lon="4.88389">
        <ele>262.8</ele>
        <time>2022-06-25T09:11:26Z</time>
      </trkpt>
      <trkpt lat="46.55685" lon="4.88386">
        <ele>263.2</ele>
        <time>2022-06-25T09:11:27Z</time>
      </trkpt>
      <trkpt lat="46.55683" lon="4.88382">
        <ele>263.2</ele>
        <time>2022-06-25T09:11:28Z</time>
      </trkpt>
      <trkpt lat="46.5568" lon="4.88378">
        <ele>263.4</ele>
        <time>2022-06-25T09:11:29Z</time>
      </trkpt>
      <trkpt lat="46.55678" lon="4.88374">
        <ele>263.4</ele>
        <time>2022-06-25T09:11:30Z</time>
      </trkpt>
      <trkpt lat="46.55676" lon="4.8837">
        <ele>263.4</ele>
        <time>2022-06-25T09:11:31Z</time>
      </trkpt>
      <trkpt lat="46.55673" lon="4.88367">
        <ele>263.8</ele>
        <time>2022-06-25T09:11:32Z</time>
      </trkpt>
      <trkpt lat="46.55671" lon="4.88363">
        <ele>263.8</ele>
        <time>2022-06-25T09:11:33Z</time>
      </trkpt>
      <trkpt lat="46.55669" lon="4.88359">
        <ele>264</ele>
        <time>2022-06-25T09:11:34Z</time>
      </trkpt>
      <trkpt lat="46.55667" lon="4.88355">
        <ele>264.2</ele>
        <time>2022-06-25T09:11:35Z</time>
      </trkpt>
      <trkpt lat="46.55664" lon="4.88351">
        <ele>264.2</ele>
        <time>2022-06-25T09:11:36Z</time>
      </trkpt>
      <trkpt lat="46.55663" lon="4.88347">
        <ele>264.6</ele>
        <time>2022-06-25T09:11:37Z</time>
      </trkpt>
      <trkpt lat="46.55661" lon="4.88343">
        <ele>264.8</ele>
        <time>2022-06-25T09:11:38Z</time>
      </trkpt>
      <trkpt lat="46.55659" lon="4.88338">
        <ele>264.8</ele>
        <time>2022-06-25T09:11:39Z</time>
      </trkpt>
      <trkpt lat="46.55657" lon="4.88334">
        <ele>265</ele>
        <time>2022-06-25T09:11:40Z</time>
      </trkpt>
      <trkpt lat="46.55655" lon="4.8833">
        <ele>265</ele>
        <time>2022-06-25T09:11:41Z</time>
      </trkpt>
      <trkpt lat="46.55653" lon="4.88325">
        <ele>265.4</ele>
        <time>2022-06-25T09:11:42Z</time>
      </trkpt>
      <trkpt lat="46.55651" lon="4.88321">
        <ele>265.6</ele>
        <time>2022-06-25T09:11:43Z</time>
      </trkpt>
      <trkpt lat="46.55649" lon="4.88317">
        <ele>265.6</ele>
        <time>2022-06-25T09:11:44Z</time>
      </trkpt>
      <trkpt lat="46.55647" lon="4.88313">
        <ele>266</ele>
        <time>2022-06-25T09:11:45Z</time>
      </trkpt>
      <trkpt lat="46.55645" lon="4.8831">
        <ele>266</ele>
        <time>2022-06-25T09:11:46Z</time>
      </trkpt>
      <trkpt lat="46.55643" lon="4.88306">
        <ele>266.2</ele>
        <time>2022-06-25T09:11:47Z</time>
      </trkpt>
      <trkpt lat="46.55641" lon="4.88302">
        <ele>266.2</ele>
        <time>2022-06-25T09:11:48Z</time>
      </trkpt>
      <trkpt lat="46.55639" lon="4.88298">
        <ele>266.4</ele>
        <time>2022-06-25T09:11:49Z</time>
      </trkpt>
      <trkpt lat="46.55637" lon="4.88295">
        <ele>266.8</ele>
        <time>2022-06-25T09:11:50Z</time>
      </trkpt>
      <trkpt lat="46.55635" lon="4.88291">
        <ele>266.8</ele>
        <time>2022-06-25T09:11:51Z</time>
      </trkpt>
      <trkpt lat="46.55633" lon="4.88288">
        <ele>267</ele>
        <time>2022-06-25T09:11:52Z</time>
      </trkpt>
      <trkpt lat="46.55631" lon="4.88286">
        <ele>267</ele>
        <time>2022-06-25T09:11:53Z</time>
      </trkpt>
      <trkpt lat="46.55629" lon="4.88283">
        <ele>267.2</ele>
        <time>2022-06-25T09:11:54Z</time>
      </trkpt>
      <trkpt lat="46.55627" lon="4.8828">
        <ele>267.2</ele>
        <time>2022-06-25T09:11:55Z</time>
      </trkpt>
      <trkpt lat="46.55625" lon="4.88277">
        <ele>267.2</ele>
        <time>2022-06-25T09:11:56Z</time>
      </trkpt>
      <trkpt lat="46.55623" lon="4.88274">
        <ele>267.6</ele>
        <time>2022-06-25T09:11:57Z</time>
      </trkpt>
      <trkpt lat="46.55621" lon="4.88271">
        <ele>267.6</ele>
        <time>2022-06-25T09:11:58Z</time>
      </trkpt>
      <trkpt lat="46.55619" lon="4.88267">
        <ele>267.8</ele>
        <time>2022-06-25T09:11:59Z</time>
      </trkpt>
      <trkpt lat="46.55617" lon="4.88264">
        <ele>267.8</ele>
        <time>2022-06-25T09:12:00Z</time>
      </trkpt>
      <trkpt lat="46.55614" lon="4.88261">
        <ele>268</ele>
        <time>2022-06-25T09:12:01Z</time>
      </trkpt>
      <trkpt lat="46.55613" lon="4.88258">
        <ele>268</ele>
        <time>2022-06-25T09:12:02Z</time>
      </trkpt>
      <trkpt lat="46.55611" lon="4.88255">
        <ele>268.4</ele>
        <time>2022-06-25T09:12:03Z</time>
      </trkpt>
      <trkpt lat="46.55609" lon="4.88252">
        <ele>268.4</ele>
        <time>2022-06-25T09:12:04Z</time>
      </trkpt>
      <trkpt lat="46.55607" lon="4.8825">
        <ele>268.6</ele>
        <time>2022-06-25T09:12:05Z</time>
      </trkpt>
      <trkpt lat="46.55605" lon="4.88247">
        <ele>268.6</ele>
        <time>2022-06-25T09:12:06Z</time>
      </trkpt>
      <trkpt lat="46.55603" lon="4.88243">
        <ele>268.8</ele>
        <time>2022-06-25T09:12:07Z</time>
      </trkpt>
      <trkpt lat="46.55601" lon="4.88241">
        <ele>269</ele>
        <time>2022-06-25T09:12:08Z</time>
      </trkpt>
      <trkpt lat="46.556" lon="4.88238">
        <ele>269</ele>
        <time>2022-06-25T09:12:09Z</time>
      </trkpt>
      <trkpt lat="46.556" lon="4.88237">
        <ele>269.4</ele>
        <time>2022-06-25T09:12:10Z</time>
      </trkpt>
      <trkpt lat="46.55599" lon="4.88236">
        <ele>269.4</ele>
        <time>2022-06-25T09:12:11Z</time>
      </trkpt>
      <trkpt lat="46.55599" lon="4.88235">
        <ele>269.4</ele>
        <time>2022-06-25T09:12:12Z</time>
      </trkpt>
      <trkpt lat="46.55597" lon="4.88232">
        <ele>270</ele>
        <time>2022-06-25T09:12:50Z</time>
      </trkpt>
      <trkpt lat="46.55595" lon="4.8823">
        <ele>270</ele>
        <time>2022-06-25T09:12:51Z</time>
      </trkpt>
      <trkpt lat="46.55594" lon="4.88229">
        <ele>270</ele>
        <time>2022-06-25T09:12:52Z</time>
      </trkpt>
      <trkpt lat="46.55592" lon="4.88227">
        <ele>270</ele>
        <time>2022-06-25T09:12:53Z</time>
      </trkpt>
      <trkpt lat="46.55591" lon="4.88225">
        <ele>270</ele>
        <time>2022-06-25T09:12:54Z</time>
      </trkpt>
      <trkpt lat="46.5559" lon="4.88222">
        <ele>270</ele>
        <time>2022-06-25T09:12:55Z</time>
      </trkpt>
      <trkpt lat="46.55588" lon="4.88219">
        <ele>270.2</ele>
        <time>2022-06-25T09:12:56Z</time>
      </trkpt>
      <trkpt lat="46.55587" lon="4.88217">
        <ele>270.2</ele>
        <time>2022-06-25T09:12:57Z</time>
      </trkpt>
      <trkpt lat="46.55585" lon="4.88214">
        <ele>270.4</ele>
        <time>2022-06-25T09:12:58Z</time>
      </trkpt>
      <trkpt lat="46.55583" lon="4.88211">
        <ele>270.4</ele>
        <time>2022-06-25T09:12:59Z</time>
      </trkpt>
      <trkpt lat="46.55581" lon="4.88209">
        <ele>270.6</ele>
        <time>2022-06-25T09:13:00Z</time>
      </trkpt>
      <trkpt lat="46.55579" lon="4.88206">
        <ele>270.6</ele>
        <time>2022-06-25T09:13:01Z</time>
      </trkpt>
      <trkpt lat="46.55577" lon="4.88204">
        <ele>270.8</ele>
        <time>2022-06-25T09:13:02Z</time>
      </trkpt>
      <trkpt lat="46.55575" lon="4.88202">
        <ele>270.8</ele>
        <time>2022-06-25T09:13:03Z</time>
      </trkpt>
      <trkpt lat="46.55574" lon="4.88199">
        <ele>270.8</ele>
        <time>2022-06-25T09:13:04Z</time>
      </trkpt>
      <trkpt lat="46.55572" lon="4.88197">
        <ele>271.2</ele>
        <time>2022-06-25T09:13:05Z</time>
      </trkpt>
      <trkpt lat="46.5557" lon="4.88194">
        <ele>271.2</ele>
        <time>2022-06-25T09:13:06Z</time>
      </trkpt>
      <trkpt lat="46.55569" lon="4.88191">
        <ele>271.4</ele>
        <time>2022-06-25T09:13:07Z</time>
      </trkpt>
      <trkpt lat="46.55567" lon="4.88189">
        <ele>271.4</ele>
        <time>2022-06-25T09:13:08Z</time>
      </trkpt>
      <trkpt lat="46.55565" lon="4.88187">
        <ele>271.8</ele>
        <time>2022-06-25T09:13:09Z</time>
      </trkpt>
      <trkpt lat="46.55562" lon="4.88184">
        <ele>271.8</ele>
        <time>2022-06-25T09:13:10Z</time>
      </trkpt>
      <trkpt lat="46.5556" lon="4.88181">
        <ele>272</ele>
        <time>2022-06-25T09:13:11Z</time>
      </trkpt>
      <trkpt lat="46.55558" lon="4.88178">
        <ele>272</ele>
        <time>2022-06-25T09:13:12Z</time>
      </trkpt>
      <trkpt lat="46.55556" lon="4.88175">
        <ele>272.2</ele>
        <time>2022-06-25T09:13:13Z</time>
      </trkpt>
      <trkpt lat="46.55554" lon="4.88172">
        <ele>272.2</ele>
        <time>2022-06-25T09:13:14Z</time>
      </trkpt>
      <trkpt lat="46.55552" lon="4.88169">
        <ele>272.4</ele>
        <time>2022-06-25T09:13:15Z</time>
      </trkpt>
      <trkpt lat="46.55549" lon="4.88166">
        <ele>272.4</ele>
        <time>2022-06-25T09:13:16Z</time>
      </trkpt>
      <trkpt lat="46.55547" lon="4.88163">
        <ele>272.4</ele>
        <time>2022-06-25T09:13:17Z</time>
      </trkpt>
      <trkpt lat="46.55544" lon="4.8816">
        <ele>272.6</ele>
        <time>2022-06-25T09:13:18Z</time>
      </trkpt>
      <trkpt lat="46.55542" lon="4.88157">
        <ele>272.6</ele>
        <time>2022-06-25T09:13:19Z</time>
      </trkpt>
      <trkpt lat="46.5554" lon="4.88153">
        <ele>272.6</ele>
        <time>2022-06-25T09:13:20Z</time>
      </trkpt>
      <trkpt lat="46.55538" lon="4.8815">
        <ele>272.6</ele>
        <time>2022-06-25T09:13:21Z</time>
      </trkpt>
      <trkpt lat="46.55537" lon="4.88148">
        <ele>272.6</ele>
        <time>2022-06-25T09:13:22Z</time>
      </trkpt>
      <trkpt lat="46.55536" lon="4.88146">
        <ele>272.6</ele>
        <time>2022-06-25T09:13:23Z</time>
      </trkpt>
      <trkpt lat="46.55534" lon="4.88142">
        <ele>272.6</ele>
        <time>2022-06-25T09:13:24Z</time>
      </trkpt>
      <trkpt lat="46.55532" lon="4.88138">
        <ele>272.6</ele>
        <time>2022-06-25T09:13:25Z</time>
      </trkpt>
      <trkpt lat="46.5553" lon="4.88134">
        <ele>272.6</ele>
        <time>2022-06-25T09:13:26Z</time>
      </trkpt>
      <trkpt lat="46.55528" lon="4.88129">
        <ele>272.4</ele>
        <time>2022-06-25T09:13:27Z</time>
      </trkpt>
      <trkpt lat="46.55526" lon="4.88124">
        <ele>272.4</ele>
        <time>2022-06-25T09:13:28Z</time>
      </trkpt>
      <trkpt lat="46.55524" lon="4.88119">
        <ele>271.8</ele>
        <time>2022-06-25T09:13:29Z</time>
      </trkpt>
      <trkpt lat="46.55521" lon="4.88113">
        <ele>271.8</ele>
        <time>2022-06-25T09:13:30Z</time>
      </trkpt>
      <trkpt lat="46.55517" lon="4.88106">
        <ele>271.6</ele>
        <time>2022-06-25T09:13:31Z</time>
      </trkpt>
      <trkpt lat="46.55514" lon="4.88099">
        <ele>271.4</ele>
        <time>2022-06-25T09:13:32Z</time>
      </trkpt>
      <trkpt lat="46.55511" lon="4.88091">
        <ele>271</ele>
        <time>2022-06-25T09:13:33Z</time>
      </trkpt>
      <trkpt lat="46.55508" lon="4.88083">
        <ele>270.6</ele>
        <time>2022-06-25T09:13:34Z</time>
      </trkpt>
      <trkpt lat="46.55505" lon="4.88074">
        <ele>270.4</ele>
        <time>2022-06-25T09:13:35Z</time>
      </trkpt>
      <trkpt lat="46.555" lon="4.88066">
        <ele>270.2</ele>
        <time>2022-06-25T09:13:36Z</time>
      </trkpt>
      <trkpt lat="46.55496" lon="4.88057">
        <ele>269.8</ele>
        <time>2022-06-25T09:13:37Z</time>
      </trkpt>
      <trkpt lat="46.5549" lon="4.88048">
        <ele>269.4</ele>
        <time>2022-06-25T09:13:38Z</time>
      </trkpt>
      <trkpt lat="46.55484" lon="4.8804">
        <ele>269</ele>
        <time>2022-06-25T09:13:39Z</time>
      </trkpt>
      <trkpt lat="46.55477" lon="4.88032">
        <ele>268.8</ele>
        <time>2022-06-25T09:13:40Z</time>
      </trkpt>
      <trkpt lat="46.5547" lon="4.88025">
        <ele>268.4</ele>
        <time>2022-06-25T09:13:41Z</time>
      </trkpt>
      <trkpt lat="46.55462" lon="4.88019">
        <ele>268</ele>
        <time>2022-06-25T09:13:42Z</time>
      </trkpt>
      <trkpt lat="46.55454" lon="4.88014">
        <ele>267.4</ele>
        <time>2022-06-25T09:13:43Z</time>
      </trkpt>
      <trkpt lat="46.55445" lon="4.88009">
        <ele>266.8</ele>
        <time>2022-06-25T09:13:44Z</time>
      </trkpt>
      <trkpt lat="46.55434" lon="4.88003">
        <ele>266.6</ele>
        <time>2022-06-25T09:13:45Z</time>
      </trkpt>
      <trkpt lat="46.55424" lon="4.87998">
        <ele>266</ele>
        <time>2022-06-25T09:13:46Z</time>
      </trkpt>
      <trkpt lat="46.55414" lon="4.87993">
        <ele>265.6</ele>
        <time>2022-06-25T09:13:47Z</time>
      </trkpt>
      <trkpt lat="46.55405" lon="4.87988">
        <ele>265.2</ele>
        <time>2022-06-25T09:13:48Z</time>
      </trkpt>
      <trkpt lat="46.55395" lon="4.87983">
        <ele>265</ele>
        <time>2022-06-25T09:13:49Z</time>
      </trkpt>
      <trkpt lat="46.55387" lon="4.87975">
        <ele>264.6</ele>
        <time>2022-06-25T09:13:50Z</time>
      </trkpt>
      <trkpt lat="46.55379" lon="4.87968">
        <ele>264.4</ele>
        <time>2022-06-25T09:13:51Z</time>
      </trkpt>
      <trkpt lat="46.55372" lon="4.87959">
        <ele>264.2</ele>
        <time>2022-06-25T09:13:52Z</time>
      </trkpt>
      <trkpt lat="46.55366" lon="4.8795">
        <ele>264.2</ele>
        <time>2022-06-25T09:13:53Z</time>
      </trkpt>
      <trkpt lat="46.55359" lon="4.87942">
        <ele>264.2</ele>
        <time>2022-06-25T09:13:54Z</time>
      </trkpt>
      <trkpt lat="46.55352" lon="4.87933">
        <ele>264.2</ele>
        <time>2022-06-25T09:13:55Z</time>
      </trkpt>
      <trkpt lat="46.55346" lon="4.87924">
        <ele>263.8</ele>
        <time>2022-06-25T09:13:56Z</time>
      </trkpt>
      <trkpt lat="46.55341" lon="4.87916">
        <ele>263.8</ele>
        <time>2022-06-25T09:13:57Z</time>
      </trkpt>
      <trkpt lat="46.55336" lon="4.87907">
        <ele>263.8</ele>
        <time>2022-06-25T09:13:58Z</time>
      </trkpt>
      <trkpt lat="46.55332" lon="4.87899">
        <ele>263.8</ele>
        <time>2022-06-25T09:13:59Z</time>
      </trkpt>
      <trkpt lat="46.55327" lon="4.87892">
        <ele>263.8</ele>
        <time>2022-06-25T09:14:00Z</time>
      </trkpt>
      <trkpt lat="46.55322" lon="4.87885">
        <ele>263.8</ele>
        <time>2022-06-25T09:14:01Z</time>
      </trkpt>
      <trkpt lat="46.55317" lon="4.8788">
        <ele>263.8</ele>
        <time>2022-06-25T09:14:02Z</time>
      </trkpt>
      <trkpt lat="46.55312" lon="4.87875">
        <ele>263.8</ele>
        <time>2022-06-25T09:14:03Z</time>
      </trkpt>
      <trkpt lat="46.55307" lon="4.87871">
        <ele>263.8</ele>
        <time>2022-06-25T09:14:04Z</time>
      </trkpt>
      <trkpt lat="46.55302" lon="4.87868">
        <ele>263.8</ele>
        <time>2022-06-25T09:14:05Z</time>
      </trkpt>
      <trkpt lat="46.55297" lon="4.87865">
        <ele>264.2</ele>
        <time>2022-06-25T09:14:06Z</time>
      </trkpt>
      <trkpt lat="46.55293" lon="4.87862">
        <ele>264.2</ele>
        <time>2022-06-25T09:14:07Z</time>
      </trkpt>
      <trkpt lat="46.55288" lon="4.87861">
        <ele>264.2</ele>
        <time>2022-06-25T09:14:08Z</time>
      </trkpt>
      <trkpt lat="46.55284" lon="4.87859">
        <ele>264.4</ele>
        <time>2022-06-25T09:14:09Z</time>
      </trkpt>
      <trkpt lat="46.5528" lon="4.87857">
        <ele>264.6</ele>
        <time>2022-06-25T09:14:10Z</time>
      </trkpt>
      <trkpt lat="46.55276" lon="4.87855">
        <ele>264.8</ele>
        <time>2022-06-25T09:14:11Z</time>
      </trkpt>
      <trkpt lat="46.55273" lon="4.87853">
        <ele>265</ele>
        <time>2022-06-25T09:14:12Z</time>
      </trkpt>
      <trkpt lat="46.5527" lon="4.87851">
        <ele>265.4</ele>
        <time>2022-06-25T09:14:13Z</time>
      </trkpt>
      <trkpt lat="46.55267" lon="4.87849">
        <ele>265.6</ele>
        <time>2022-06-25T09:14:14Z</time>
      </trkpt>
      <trkpt lat="46.55264" lon="4.87847">
        <ele>266</ele>
        <time>2022-06-25T09:14:15Z</time>
      </trkpt>
      <trkpt lat="46.55262" lon="4.87844">
        <ele>266.2</ele>
        <time>2022-06-25T09:14:16Z</time>
      </trkpt>
      <trkpt lat="46.55259" lon="4.87841">
        <ele>266.4</ele>
        <time>2022-06-25T09:14:17Z</time>
      </trkpt>
      <trkpt lat="46.55256" lon="4.87839">
        <ele>266.4</ele>
        <time>2022-06-25T09:14:18Z</time>
      </trkpt>
      <trkpt lat="46.55254" lon="4.87836">
        <ele>266.8</ele>
        <time>2022-06-25T09:14:19Z</time>
      </trkpt>
      <trkpt lat="46.55251" lon="4.87834">
        <ele>267.2</ele>
        <time>2022-06-25T09:14:20Z</time>
      </trkpt>
      <trkpt lat="46.55249" lon="4.87831">
        <ele>267.4</ele>
        <time>2022-06-25T09:14:21Z</time>
      </trkpt>
      <trkpt lat="46.55246" lon="4.87829">
        <ele>267.8</ele>
        <time>2022-06-25T09:14:22Z</time>
      </trkpt>
      <trkpt lat="46.55244" lon="4.87827">
        <ele>268</ele>
        <time>2022-06-25T09:14:23Z</time>
      </trkpt>
      <trkpt lat="46.55241" lon="4.87825">
        <ele>268.4</ele>
        <time>2022-06-25T09:14:24Z</time>
      </trkpt>
      <trkpt lat="46.55239" lon="4.87823">
        <ele>268.8</ele>
        <time>2022-06-25T09:14:25Z</time>
      </trkpt>
      <trkpt lat="46.55237" lon="4.8782">
        <ele>269</ele>
        <time>2022-06-25T09:14:26Z</time>
      </trkpt>
      <trkpt lat="46.55234" lon="4.87818">
        <ele>269.4</ele>
        <time>2022-06-25T09:14:27Z</time>
      </trkpt>
      <trkpt lat="46.55232" lon="4.87815">
        <ele>269.8</ele>
        <time>2022-06-25T09:14:28Z</time>
      </trkpt>
      <trkpt lat="46.5523" lon="4.87813">
        <ele>270</ele>
        <time>2022-06-25T09:14:29Z</time>
      </trkpt>
      <trkpt lat="46.55227" lon="4.8781">
        <ele>270.4</ele>
        <time>2022-06-25T09:14:30Z</time>
      </trkpt>
      <trkpt lat="46.55226" lon="4.87807">
        <ele>270.6</ele>
        <time>2022-06-25T09:14:31Z</time>
      </trkpt>
      <trkpt lat="46.55224" lon="4.87803">
        <ele>270.8</ele>
        <time>2022-06-25T09:14:32Z</time>
      </trkpt>
      <trkpt lat="46.55222" lon="4.878">
        <ele>271.2</ele>
        <time>2022-06-25T09:14:33Z</time>
      </trkpt>
      <trkpt lat="46.5522" lon="4.87796">
        <ele>271.4</ele>
        <time>2022-06-25T09:14:34Z</time>
      </trkpt>
      <trkpt lat="46.55218" lon="4.87792">
        <ele>271.4</ele>
        <time>2022-06-25T09:14:35Z</time>
      </trkpt>
      <trkpt lat="46.55215" lon="4.87789">
        <ele>271.8</ele>
        <time>2022-06-25T09:14:36Z</time>
      </trkpt>
      <trkpt lat="46.55213" lon="4.87786">
        <ele>272</ele>
        <time>2022-06-25T09:14:37Z</time>
      </trkpt>
      <trkpt lat="46.55211" lon="4.87782">
        <ele>272.2</ele>
        <time>2022-06-25T09:14:38Z</time>
      </trkpt>
      <trkpt lat="46.55209" lon="4.87779">
        <ele>272.2</ele>
        <time>2022-06-25T09:14:39Z</time>
      </trkpt>
      <trkpt lat="46.55207" lon="4.87775">
        <ele>272.6</ele>
        <time>2022-06-25T09:14:40Z</time>
      </trkpt>
      <trkpt lat="46.55205" lon="4.87772">
        <ele>273</ele>
        <time>2022-06-25T09:14:41Z</time>
      </trkpt>
      <trkpt lat="46.55203" lon="4.87768">
        <ele>273</ele>
        <time>2022-06-25T09:14:42Z</time>
      </trkpt>
      <trkpt lat="46.552" lon="4.87765">
        <ele>273.4</ele>
        <time>2022-06-25T09:14:43Z</time>
      </trkpt>
      <trkpt lat="46.55199" lon="4.87762">
        <ele>273.4</ele>
        <time>2022-06-25T09:14:44Z</time>
      </trkpt>
      <trkpt lat="46.55197" lon="4.87759">
        <ele>273.6</ele>
        <time>2022-06-25T09:14:45Z</time>
      </trkpt>
      <trkpt lat="46.55195" lon="4.87756">
        <ele>273.6</ele>
        <time>2022-06-25T09:14:46Z</time>
      </trkpt>
      <trkpt lat="46.55194" lon="4.87754">
        <ele>274</ele>
        <time>2022-06-25T09:14:47Z</time>
      </trkpt>
      <trkpt lat="46.55192" lon="4.87751">
        <ele>274.2</ele>
        <time>2022-06-25T09:14:48Z</time>
      </trkpt>
      <trkpt lat="46.5519" lon="4.87749">
        <ele>274.4</ele>
        <time>2022-06-25T09:14:49Z</time>
      </trkpt>
      <trkpt lat="46.55189" lon="4.87746">
        <ele>274.4</ele>
        <time>2022-06-25T09:14:50Z</time>
      </trkpt>
      <trkpt lat="46.55187" lon="4.87744">
        <ele>274.8</ele>
        <time>2022-06-25T09:14:51Z</time>
      </trkpt>
      <trkpt lat="46.55185" lon="4.87741">
        <ele>275.2</ele>
        <time>2022-06-25T09:14:52Z</time>
      </trkpt>
      <trkpt lat="46.55184" lon="4.87738">
        <ele>275.2</ele>
        <time>2022-06-25T09:14:53Z</time>
      </trkpt>
      <trkpt lat="46.55182" lon="4.87735">
        <ele>275.6</ele>
        <time>2022-06-25T09:14:54Z</time>
      </trkpt>
      <trkpt lat="46.55179" lon="4.87732">
        <ele>275.8</ele>
        <time>2022-06-25T09:14:55Z</time>
      </trkpt>
      <trkpt lat="46.55177" lon="4.87729">
        <ele>276</ele>
        <time>2022-06-25T09:14:56Z</time>
      </trkpt>
      <trkpt lat="46.55175" lon="4.87727">
        <ele>276.4</ele>
        <time>2022-06-25T09:14:57Z</time>
      </trkpt>
      <trkpt lat="46.55173" lon="4.87724">
        <ele>276.6</ele>
        <time>2022-06-25T09:14:58Z</time>
      </trkpt>
      <trkpt lat="46.55171" lon="4.87721">
        <ele>276.8</ele>
        <time>2022-06-25T09:14:59Z</time>
      </trkpt>
      <trkpt lat="46.55169" lon="4.87718">
        <ele>277</ele>
        <time>2022-06-25T09:15:00Z</time>
      </trkpt>
      <trkpt lat="46.55168" lon="4.87715">
        <ele>277.2</ele>
        <time>2022-06-25T09:15:01Z</time>
      </trkpt>
      <trkpt lat="46.55166" lon="4.87712">
        <ele>277.6</ele>
        <time>2022-06-25T09:15:02Z</time>
      </trkpt>
      <trkpt lat="46.55164" lon="4.87709">
        <ele>277.8</ele>
        <time>2022-06-25T09:15:03Z</time>
      </trkpt>
      <trkpt lat="46.55162" lon="4.87707">
        <ele>278</ele>
        <time>2022-06-25T09:15:04Z</time>
      </trkpt>
      <trkpt lat="46.55159" lon="4.87705">
        <ele>278.4</ele>
        <time>2022-06-25T09:15:05Z</time>
      </trkpt>
      <trkpt lat="46.55157" lon="4.87702">
        <ele>278.6</ele>
        <time>2022-06-25T09:15:06Z</time>
      </trkpt>
      <trkpt lat="46.55155" lon="4.877">
        <ele>278.6</ele>
        <time>2022-06-25T09:15:07Z</time>
      </trkpt>
      <trkpt lat="46.55153" lon="4.87697">
        <ele>279</ele>
        <time>2022-06-25T09:15:08Z</time>
      </trkpt>
      <trkpt lat="46.55151" lon="4.87694">
        <ele>279</ele>
        <time>2022-06-25T09:15:09Z</time>
      </trkpt>
      <trkpt lat="46.55149" lon="4.87691">
        <ele>279.4</ele>
        <time>2022-06-25T09:15:10Z</time>
      </trkpt>
      <trkpt lat="46.55147" lon="4.87688">
        <ele>279.4</ele>
        <time>2022-06-25T09:15:11Z</time>
      </trkpt>
      <trkpt lat="46.55145" lon="4.87685">
        <ele>279.8</ele>
        <time>2022-06-25T09:15:12Z</time>
      </trkpt>
      <trkpt lat="46.55143" lon="4.87683">
        <ele>279.8</ele>
        <time>2022-06-25T09:15:13Z</time>
      </trkpt>
      <trkpt lat="46.55141" lon="4.8768">
        <ele>280.2</ele>
        <time>2022-06-25T09:15:14Z</time>
      </trkpt>
      <trkpt lat="46.55139" lon="4.87678">
        <ele>280.4</ele>
        <time>2022-06-25T09:15:15Z</time>
      </trkpt>
      <trkpt lat="46.55137" lon="4.87675">
        <ele>280.6</ele>
        <time>2022-06-25T09:15:16Z</time>
      </trkpt>
      <trkpt lat="46.55134" lon="4.87672">
        <ele>281</ele>
        <time>2022-06-25T09:15:17Z</time>
      </trkpt>
      <trkpt lat="46.55132" lon="4.87669">
        <ele>281.2</ele>
        <time>2022-06-25T09:15:18Z</time>
      </trkpt>
      <trkpt lat="46.5513" lon="4.87666">
        <ele>281.2</ele>
        <time>2022-06-25T09:15:19Z</time>
      </trkpt>
      <trkpt lat="46.55127" lon="4.87663">
        <ele>281.4</ele>
        <time>2022-06-25T09:15:20Z</time>
      </trkpt>
      <trkpt lat="46.55122" lon="4.87657">
        <ele>281.6</ele>
        <time>2022-06-25T09:15:21Z</time>
      </trkpt>
      <trkpt lat="46.5512" lon="4.87653">
        <ele>281.6</ele>
        <time>2022-06-25T09:15:22Z</time>
      </trkpt>
      <trkpt lat="46.55118" lon="4.8765">
        <ele>282</ele>
        <time>2022-06-25T09:15:23Z</time>
      </trkpt>
      <trkpt lat="46.55115" lon="4.87647">
        <ele>282</ele>
        <time>2022-06-25T09:15:24Z</time>
      </trkpt>
      <trkpt lat="46.55113" lon="4.87644">
        <ele>282.4</ele>
        <time>2022-06-25T09:15:25Z</time>
      </trkpt>
      <trkpt lat="46.55111" lon="4.87641">
        <ele>282.4</ele>
        <time>2022-06-25T09:15:26Z</time>
      </trkpt>
      <trkpt lat="46.55108" lon="4.87637">
        <ele>282.6</ele>
        <time>2022-06-25T09:15:27Z</time>
      </trkpt>
      <trkpt lat="46.55106" lon="4.87634">
        <ele>282.6</ele>
        <time>2022-06-25T09:15:28Z</time>
      </trkpt>
      <trkpt lat="46.55104" lon="4.87631">
        <ele>283</ele>
        <time>2022-06-25T09:15:29Z</time>
      </trkpt>
      <trkpt lat="46.55102" lon="4.87627">
        <ele>283</ele>
        <time>2022-06-25T09:15:30Z</time>
      </trkpt>
      <trkpt lat="46.551" lon="4.87624">
        <ele>283.2</ele>
        <time>2022-06-25T09:15:31Z</time>
      </trkpt>
      <trkpt lat="46.55097" lon="4.87621">
        <ele>283.2</ele>
        <time>2022-06-25T09:15:32Z</time>
      </trkpt>
      <trkpt lat="46.55095" lon="4.87617">
        <ele>283.6</ele>
        <time>2022-06-25T09:15:33Z</time>
      </trkpt>
      <trkpt lat="46.55093" lon="4.87614">
        <ele>283.8</ele>
        <time>2022-06-25T09:15:34Z</time>
      </trkpt>
      <trkpt lat="46.55091" lon="4.87611">
        <ele>283.8</ele>
        <time>2022-06-25T09:15:35Z</time>
      </trkpt>
      <trkpt lat="46.5509" lon="4.87607">
        <ele>284.2</ele>
        <time>2022-06-25T09:15:36Z</time>
      </trkpt>
      <trkpt lat="46.55088" lon="4.87604">
        <ele>284.2</ele>
        <time>2022-06-25T09:15:37Z</time>
      </trkpt>
      <trkpt lat="46.55086" lon="4.87601">
        <ele>284.6</ele>
        <time>2022-06-25T09:15:38Z</time>
      </trkpt>
      <trkpt lat="46.55084" lon="4.87598">
        <ele>284.6</ele>
        <time>2022-06-25T09:15:39Z</time>
      </trkpt>
      <trkpt lat="46.55083" lon="4.87595">
        <ele>285</ele>
        <time>2022-06-25T09:15:40Z</time>
      </trkpt>
      <trkpt lat="46.55081" lon="4.87592">
        <ele>285</ele>
        <time>2022-06-25T09:15:41Z</time>
      </trkpt>
      <trkpt lat="46.55079" lon="4.87589">
        <ele>285.2</ele>
        <time>2022-06-25T09:15:42Z</time>
      </trkpt>
      <trkpt lat="46.55078" lon="4.87586">
        <ele>285.4</ele>
        <time>2022-06-25T09:15:43Z</time>
      </trkpt>
      <trkpt lat="46.55076" lon="4.87583">
        <ele>285.8</ele>
        <time>2022-06-25T09:15:44Z</time>
      </trkpt>
      <trkpt lat="46.55075" lon="4.8758">
        <ele>286</ele>
        <time>2022-06-25T09:15:45Z</time>
      </trkpt>
      <trkpt lat="46.55073" lon="4.87577">
        <ele>286</ele>
        <time>2022-06-25T09:15:46Z</time>
      </trkpt>
      <trkpt lat="46.55071" lon="4.87574">
        <ele>286.4</ele>
        <time>2022-06-25T09:15:47Z</time>
      </trkpt>
      <trkpt lat="46.5507" lon="4.87571">
        <ele>286.4</ele>
        <time>2022-06-25T09:15:48Z</time>
      </trkpt>
      <trkpt lat="46.55068" lon="4.87568">
        <ele>286.6</ele>
        <time>2022-06-25T09:15:49Z</time>
      </trkpt>
      <trkpt lat="46.55067" lon="4.87565">
        <ele>286.6</ele>
        <time>2022-06-25T09:15:50Z</time>
      </trkpt>
      <trkpt lat="46.55066" lon="4.87563">
        <ele>287</ele>
        <time>2022-06-25T09:15:51Z</time>
      </trkpt>
      <trkpt lat="46.55064" lon="4.8756">
        <ele>287</ele>
        <time>2022-06-25T09:15:52Z</time>
      </trkpt>
      <trkpt lat="46.55063" lon="4.87558">
        <ele>287.4</ele>
        <time>2022-06-25T09:15:53Z</time>
      </trkpt>
      <trkpt lat="46.55062" lon="4.87555">
        <ele>287.4</ele>
        <time>2022-06-25T09:15:54Z</time>
      </trkpt>
      <trkpt lat="46.5506" lon="4.87552">
        <ele>287.8</ele>
        <time>2022-06-25T09:15:55Z</time>
      </trkpt>
      <trkpt lat="46.55059" lon="4.87549">
        <ele>287.8</ele>
        <time>2022-06-25T09:15:56Z</time>
      </trkpt>
      <trkpt lat="46.55058" lon="4.87547">
        <ele>288.2</ele>
        <time>2022-06-25T09:15:57Z</time>
      </trkpt>
      <trkpt lat="46.55057" lon="4.87544">
        <ele>288.4</ele>
        <time>2022-06-25T09:15:58Z</time>
      </trkpt>
      <trkpt lat="46.55055" lon="4.87541">
        <ele>288.6</ele>
        <time>2022-06-25T09:15:59Z</time>
      </trkpt>
      <trkpt lat="46.55054" lon="4.87538">
        <ele>288.8</ele>
        <time>2022-06-25T09:16:00Z</time>
      </trkpt>
      <trkpt lat="46.55053" lon="4.87535">
        <ele>289.2</ele>
        <time>2022-06-25T09:16:01Z</time>
      </trkpt>
      <trkpt lat="46.55051" lon="4.87532">
        <ele>289.4</ele>
        <time>2022-06-25T09:16:02Z</time>
      </trkpt>
      <trkpt lat="46.5505" lon="4.8753">
        <ele>289.8</ele>
        <time>2022-06-25T09:16:03Z</time>
      </trkpt>
      <trkpt lat="46.55049" lon="4.87527">
        <ele>290.2</ele>
        <time>2022-06-25T09:16:04Z</time>
      </trkpt>
      <trkpt lat="46.55047" lon="4.87524">
        <ele>290.4</ele>
        <time>2022-06-25T09:16:05Z</time>
      </trkpt>
      <trkpt lat="46.55046" lon="4.87521">
        <ele>290.8</ele>
        <time>2022-06-25T09:16:06Z</time>
      </trkpt>
      <trkpt lat="46.55045" lon="4.87518">
        <ele>291</ele>
        <time>2022-06-25T09:16:07Z</time>
      </trkpt>
      <trkpt lat="46.55044" lon="4.87515">
        <ele>291.4</ele>
        <time>2022-06-25T09:16:08Z</time>
      </trkpt>
      <trkpt lat="46.55043" lon="4.87512">
        <ele>291.6</ele>
        <time>2022-06-25T09:16:09Z</time>
      </trkpt>
      <trkpt lat="46.55042" lon="4.8751">
        <ele>292</ele>
        <time>2022-06-25T09:16:10Z</time>
      </trkpt>
      <trkpt lat="46.55041" lon="4.87508">
        <ele>292.4</ele>
        <time>2022-06-25T09:16:11Z</time>
      </trkpt>
      <trkpt lat="46.55041" lon="4.87506">
        <ele>292.6</ele>
        <time>2022-06-25T09:16:12Z</time>
      </trkpt>
      <trkpt lat="46.5504" lon="4.87503">
        <ele>293</ele>
        <time>2022-06-25T09:16:13Z</time>
      </trkpt>
      <trkpt lat="46.55039" lon="4.87501">
        <ele>293.2</ele>
        <time>2022-06-25T09:16:14Z</time>
      </trkpt>
      <trkpt lat="46.55039" lon="4.87499">
        <ele>293.6</ele>
        <time>2022-06-25T09:16:15Z</time>
      </trkpt>
      <trkpt lat="46.55038" lon="4.87497">
        <ele>293.8</ele>
        <time>2022-06-25T09:16:16Z</time>
      </trkpt>
      <trkpt lat="46.55038" lon="4.87495">
        <ele>294.2</ele>
        <time>2022-06-25T09:16:17Z</time>
      </trkpt>
      <trkpt lat="46.55037" lon="4.87493">
        <ele>294.4</ele>
        <time>2022-06-25T09:16:18Z</time>
      </trkpt>
      <trkpt lat="46.55036" lon="4.87492">
        <ele>294.8</ele>
        <time>2022-06-25T09:16:19Z</time>
      </trkpt>
      <trkpt lat="46.55035" lon="4.8749">
        <ele>295.2</ele>
        <time>2022-06-25T09:16:20Z</time>
      </trkpt>
      <trkpt lat="46.55035" lon="4.87489">
        <ele>295.4</ele>
        <time>2022-06-25T09:16:21Z</time>
      </trkpt>
      <trkpt lat="46.55034" lon="4.87488">
        <ele>295.8</ele>
        <time>2022-06-25T09:16:22Z</time>
      </trkpt>
      <trkpt lat="46.55032" lon="4.87486">
        <ele>296</ele>
        <time>2022-06-25T09:16:23Z</time>
      </trkpt>
      <trkpt lat="46.55031" lon="4.87485">
        <ele>296.2</ele>
        <time>2022-06-25T09:16:24Z</time>
      </trkpt>
      <trkpt lat="46.5503" lon="4.87482">
        <ele>296.4</ele>
        <time>2022-06-25T09:16:25Z</time>
      </trkpt>
      <trkpt lat="46.55029" lon="4.8748">
        <ele>296.8</ele>
        <time>2022-06-25T09:16:26Z</time>
      </trkpt>
      <trkpt lat="46.55027" lon="4.87478">
        <ele>297</ele>
        <time>2022-06-25T09:16:27Z</time>
      </trkpt>
      <trkpt lat="46.55027" lon="4.87476">
        <ele>297.4</ele>
        <time>2022-06-25T09:16:28Z</time>
      </trkpt>
      <trkpt lat="46.55026" lon="4.87474">
        <ele>297.8</ele>
        <time>2022-06-25T09:16:29Z</time>
      </trkpt>
      <trkpt lat="46.55025" lon="4.87472">
        <ele>298.2</ele>
        <time>2022-06-25T09:16:30Z</time>
      </trkpt>
      <trkpt lat="46.55025" lon="4.8747">
        <ele>298.4</ele>
        <time>2022-06-25T09:16:31Z</time>
      </trkpt>
      <trkpt lat="46.55024" lon="4.87468">
        <ele>298.6</ele>
        <time>2022-06-25T09:16:32Z</time>
      </trkpt>
      <trkpt lat="46.55024" lon="4.87467">
        <ele>299</ele>
        <time>2022-06-25T09:16:33Z</time>
      </trkpt>
      <trkpt lat="46.55023" lon="4.87465">
        <ele>299.2</ele>
        <time>2022-06-25T09:16:34Z</time>
      </trkpt>
      <trkpt lat="46.55022" lon="4.87464">
        <ele>299.6</ele>
        <time>2022-06-25T09:16:35Z</time>
      </trkpt>
      <trkpt lat="46.5502" lon="4.87461">
        <ele>299.8</ele>
        <time>2022-06-25T09:16:36Z</time>
      </trkpt>
      <trkpt lat="46.55018" lon="4.87459">
        <ele>300.2</ele>
        <time>2022-06-25T09:16:37Z</time>
      </trkpt>
      <trkpt lat="46.55017" lon="4.87456">
        <ele>300.6</ele>
        <time>2022-06-25T09:16:38Z</time>
      </trkpt>
      <trkpt lat="46.55016" lon="4.87454">
        <ele>300.8</ele>
        <time>2022-06-25T09:16:39Z</time>
      </trkpt>
      <trkpt lat="46.55015" lon="4.87452">
        <ele>301.2</ele>
        <time>2022-06-25T09:16:40Z</time>
      </trkpt>
      <trkpt lat="46.55014" lon="4.8745">
        <ele>301.6</ele>
        <time>2022-06-25T09:16:41Z</time>
      </trkpt>
      <trkpt lat="46.55013" lon="4.87447">
        <ele>301.8</ele>
        <time>2022-06-25T09:16:42Z</time>
      </trkpt>
      <trkpt lat="46.55013" lon="4.87445">
        <ele>302.2</ele>
        <time>2022-06-25T09:16:43Z</time>
      </trkpt>
      <trkpt lat="46.55012" lon="4.87442">
        <ele>302.6</ele>
        <time>2022-06-25T09:16:44Z</time>
      </trkpt>
      <trkpt lat="46.55011" lon="4.87439">
        <ele>303</ele>
        <time>2022-06-25T09:16:45Z</time>
      </trkpt>
      <trkpt lat="46.5501" lon="4.87436">
        <ele>303.4</ele>
        <time>2022-06-25T09:16:46Z</time>
      </trkpt>
      <trkpt lat="46.5501" lon="4.87433">
        <ele>303.6</ele>
        <time>2022-06-25T09:16:47Z</time>
      </trkpt>
      <trkpt lat="46.55009" lon="4.8743">
        <ele>303.8</ele>
        <time>2022-06-25T09:16:48Z</time>
      </trkpt>
      <trkpt lat="46.55009" lon="4.87427">
        <ele>304.2</ele>
        <time>2022-06-25T09:16:49Z</time>
      </trkpt>
      <trkpt lat="46.55009" lon="4.87424">
        <ele>304.6</ele>
        <time>2022-06-25T09:16:50Z</time>
      </trkpt>
      <trkpt lat="46.55009" lon="4.87421">
        <ele>304.8</ele>
        <time>2022-06-25T09:16:51Z</time>
      </trkpt>
      <trkpt lat="46.55008" lon="4.87418">
        <ele>305.2</ele>
        <time>2022-06-25T09:16:52Z</time>
      </trkpt>
      <trkpt lat="46.55007" lon="4.87414">
        <ele>305.4</ele>
        <time>2022-06-25T09:16:53Z</time>
      </trkpt>
      <trkpt lat="46.55007" lon="4.87412">
        <ele>305.8</ele>
        <time>2022-06-25T09:16:54Z</time>
      </trkpt>
      <trkpt lat="46.55006" lon="4.87408">
        <ele>305.8</ele>
        <time>2022-06-25T09:16:55Z</time>
      </trkpt>
      <trkpt lat="46.55005" lon="4.87405">
        <ele>306</ele>
        <time>2022-06-25T09:16:56Z</time>
      </trkpt>
      <trkpt lat="46.55005" lon="4.87403">
        <ele>306.2</ele>
        <time>2022-06-25T09:16:57Z</time>
      </trkpt>
      <trkpt lat="46.55005" lon="4.87399">
        <ele>306.6</ele>
        <time>2022-06-25T09:16:58Z</time>
      </trkpt>
      <trkpt lat="46.55005" lon="4.87396">
        <ele>306.8</ele>
        <time>2022-06-25T09:16:59Z</time>
      </trkpt>
      <trkpt lat="46.55005" lon="4.87394">
        <ele>307.2</ele>
        <time>2022-06-25T09:17:00Z</time>
      </trkpt>
      <trkpt lat="46.55005" lon="4.87391">
        <ele>307.4</ele>
        <time>2022-06-25T09:17:01Z</time>
      </trkpt>
      <trkpt lat="46.55005" lon="4.87388">
        <ele>307.8</ele>
        <time>2022-06-25T09:17:02Z</time>
      </trkpt>
      <trkpt lat="46.55006" lon="4.87386">
        <ele>308</ele>
        <time>2022-06-25T09:17:03Z</time>
      </trkpt>
      <trkpt lat="46.55006" lon="4.87383">
        <ele>308.2</ele>
        <time>2022-06-25T09:17:04Z</time>
      </trkpt>
      <trkpt lat="46.55006" lon="4.8738">
        <ele>308.6</ele>
        <time>2022-06-25T09:17:05Z</time>
      </trkpt>
      <trkpt lat="46.55006" lon="4.87378">
        <ele>308.8</ele>
        <time>2022-06-25T09:17:06Z</time>
      </trkpt>
      <trkpt lat="46.55006" lon="4.87374">
        <ele>309.2</ele>
        <time>2022-06-25T09:17:07Z</time>
      </trkpt>
      <trkpt lat="46.55005" lon="4.87371">
        <ele>309.4</ele>
        <time>2022-06-25T09:17:08Z</time>
      </trkpt>
      <trkpt lat="46.55005" lon="4.87369">
        <ele>309.6</ele>
        <time>2022-06-25T09:17:09Z</time>
      </trkpt>
      <trkpt lat="46.55004" lon="4.87366">
        <ele>309.8</ele>
        <time>2022-06-25T09:17:10Z</time>
      </trkpt>
      <trkpt lat="46.55003" lon="4.87364">
        <ele>310</ele>
        <time>2022-06-25T09:17:11Z</time>
      </trkpt>
      <trkpt lat="46.55002" lon="4.87361">
        <ele>310.4</ele>
        <time>2022-06-25T09:17:12Z</time>
      </trkpt>
      <trkpt lat="46.55" lon="4.87358">
        <ele>310.6</ele>
        <time>2022-06-25T09:17:13Z</time>
      </trkpt>
      <trkpt lat="46.54999" lon="4.87355">
        <ele>310.8</ele>
        <time>2022-06-25T09:17:14Z</time>
      </trkpt>
      <trkpt lat="46.54998" lon="4.87353">
        <ele>310.8</ele>
        <time>2022-06-25T09:17:15Z</time>
      </trkpt>
      <trkpt lat="46.54998" lon="4.8735">
        <ele>311.2</ele>
        <time>2022-06-25T09:17:16Z</time>
      </trkpt>
      <trkpt lat="46.54996" lon="4.87348">
        <ele>311.2</ele>
        <time>2022-06-25T09:17:17Z</time>
      </trkpt>
      <trkpt lat="46.54995" lon="4.87345">
        <ele>311.4</ele>
        <time>2022-06-25T09:17:18Z</time>
      </trkpt>
      <trkpt lat="46.54994" lon="4.87342">
        <ele>311.4</ele>
        <time>2022-06-25T09:17:19Z</time>
      </trkpt>
      <trkpt lat="46.54993" lon="4.8734">
        <ele>311.8</ele>
        <time>2022-06-25T09:17:20Z</time>
      </trkpt>
      <trkpt lat="46.54992" lon="4.87338">
        <ele>312</ele>
        <time>2022-06-25T09:17:21Z</time>
      </trkpt>
      <trkpt lat="46.54991" lon="4.87336">
        <ele>312</ele>
        <time>2022-06-25T09:17:22Z</time>
      </trkpt>
      <trkpt lat="46.54991" lon="4.87333">
        <ele>312.4</ele>
        <time>2022-06-25T09:17:23Z</time>
      </trkpt>
      <trkpt lat="46.5499" lon="4.87331">
        <ele>312.4</ele>
        <time>2022-06-25T09:17:24Z</time>
      </trkpt>
      <trkpt lat="46.5499" lon="4.87328">
        <ele>312.6</ele>
        <time>2022-06-25T09:17:25Z</time>
      </trkpt>
      <trkpt lat="46.54989" lon="4.87325">
        <ele>312.6</ele>
        <time>2022-06-25T09:17:26Z</time>
      </trkpt>
      <trkpt lat="46.54989" lon="4.87322">
        <ele>313</ele>
        <time>2022-06-25T09:17:27Z</time>
      </trkpt>
      <trkpt lat="46.54989" lon="4.87319">
        <ele>313.2</ele>
        <time>2022-06-25T09:17:28Z</time>
      </trkpt>
      <trkpt lat="46.54988" lon="4.87316">
        <ele>313.6</ele>
        <time>2022-06-25T09:17:29Z</time>
      </trkpt>
      <trkpt lat="46.54987" lon="4.87312">
        <ele>313.6</ele>
        <time>2022-06-25T09:17:30Z</time>
      </trkpt>
      <trkpt lat="46.54986" lon="4.87309">
        <ele>313.8</ele>
        <time>2022-06-25T09:17:31Z</time>
      </trkpt>
      <trkpt lat="46.54985" lon="4.87306">
        <ele>313.8</ele>
        <time>2022-06-25T09:17:32Z</time>
      </trkpt>
      <trkpt lat="46.54984" lon="4.87302">
        <ele>314</ele>
        <time>2022-06-25T09:17:33Z</time>
      </trkpt>
      <trkpt lat="46.54983" lon="4.87299">
        <ele>314</ele>
        <time>2022-06-25T09:17:34Z</time>
      </trkpt>
      <trkpt lat="46.54982" lon="4.87295">
        <ele>314</ele>
        <time>2022-06-25T09:17:35Z</time>
      </trkpt>
      <trkpt lat="46.54981" lon="4.87292">
        <ele>314.2</ele>
        <time>2022-06-25T09:17:36Z</time>
      </trkpt>
      <trkpt lat="46.5498" lon="4.87288">
        <ele>314.2</ele>
        <time>2022-06-25T09:17:37Z</time>
      </trkpt>
      <trkpt lat="46.54978" lon="4.87284">
        <ele>314.6</ele>
        <time>2022-06-25T09:17:38Z</time>
      </trkpt>
      <trkpt lat="46.54978" lon="4.87281">
        <ele>314.6</ele>
        <time>2022-06-25T09:17:39Z</time>
      </trkpt>
      <trkpt lat="46.54977" lon="4.87277">
        <ele>314.8</ele>
        <time>2022-06-25T09:17:40Z</time>
      </trkpt>
      <trkpt lat="46.54977" lon="4.87273">
        <ele>314.8</ele>
        <time>2022-06-25T09:17:41Z</time>
      </trkpt>
      <trkpt lat="46.54976" lon="4.87269">
        <ele>314.8</ele>
        <time>2022-06-25T09:17:42Z</time>
      </trkpt>
      <trkpt lat="46.54976" lon="4.87265">
        <ele>314.8</ele>
        <time>2022-06-25T09:17:43Z</time>
      </trkpt>
      <trkpt lat="46.54977" lon="4.87261">
        <ele>315</ele>
        <time>2022-06-25T09:17:44Z</time>
      </trkpt>
      <trkpt lat="46.54977" lon="4.87257">
        <ele>315</ele>
        <time>2022-06-25T09:17:45Z</time>
      </trkpt>
      <trkpt lat="46.54978" lon="4.87252">
        <ele>315.4</ele>
        <time>2022-06-25T09:17:46Z</time>
      </trkpt>
      <trkpt lat="46.54979" lon="4.87248">
        <ele>315.4</ele>
        <time>2022-06-25T09:17:47Z</time>
      </trkpt>
      <trkpt lat="46.5498" lon="4.87243">
        <ele>315.4</ele>
        <time>2022-06-25T09:17:48Z</time>
      </trkpt>
      <trkpt lat="46.54981" lon="4.87239">
        <ele>315.4</ele>
        <time>2022-06-25T09:17:49Z</time>
      </trkpt>
      <trkpt lat="46.54982" lon="4.87234">
        <ele>315.4</ele>
        <time>2022-06-25T09:17:50Z</time>
      </trkpt>
      <trkpt lat="46.54984" lon="4.87229">
        <ele>315.4</ele>
        <time>2022-06-25T09:17:51Z</time>
      </trkpt>
      <trkpt lat="46.54986" lon="4.87224">
        <ele>315.4</ele>
        <time>2022-06-25T09:17:52Z</time>
      </trkpt>
      <trkpt lat="46.54988" lon="4.87219">
        <ele>315.4</ele>
        <time>2022-06-25T09:17:53Z</time>
      </trkpt>
      <trkpt lat="46.5499" lon="4.87213">
        <ele>315</ele>
        <time>2022-06-25T09:17:54Z</time>
      </trkpt>
      <trkpt lat="46.54992" lon="4.87207">
        <ele>315</ele>
        <time>2022-06-25T09:17:55Z</time>
      </trkpt>
      <trkpt lat="46.54995" lon="4.87201">
        <ele>315</ele>
        <time>2022-06-25T09:17:56Z</time>
      </trkpt>
      <trkpt lat="46.54998" lon="4.87194">
        <ele>314.8</ele>
        <time>2022-06-25T09:17:57Z</time>
      </trkpt>
      <trkpt lat="46.55001" lon="4.87188">
        <ele>314.8</ele>
        <time>2022-06-25T09:17:58Z</time>
      </trkpt>
      <trkpt lat="46.55004" lon="4.87181">
        <ele>314.6</ele>
        <time>2022-06-25T09:17:59Z</time>
      </trkpt>
      <trkpt lat="46.55007" lon="4.87174">
        <ele>314.6</ele>
        <time>2022-06-25T09:18:00Z</time>
      </trkpt>
      <trkpt lat="46.5501" lon="4.87166">
        <ele>314.2</ele>
        <time>2022-06-25T09:18:01Z</time>
      </trkpt>
      <trkpt lat="46.55013" lon="4.87159">
        <ele>314.2</ele>
        <time>2022-06-25T09:18:02Z</time>
      </trkpt>
      <trkpt lat="46.55017" lon="4.87151">
        <ele>314</ele>
        <time>2022-06-25T09:18:03Z</time>
      </trkpt>
      <trkpt lat="46.55021" lon="4.87143">
        <ele>314</ele>
        <time>2022-06-25T09:18:04Z</time>
      </trkpt>
      <trkpt lat="46.55025" lon="4.87135">
        <ele>313.6</ele>
        <time>2022-06-25T09:18:05Z</time>
      </trkpt>
      <trkpt lat="46.55029" lon="4.87126">
        <ele>313.4</ele>
        <time>2022-06-25T09:18:06Z</time>
      </trkpt>
      <trkpt lat="46.55034" lon="4.87118">
        <ele>313.4</ele>
        <time>2022-06-25T09:18:07Z</time>
      </trkpt>
      <trkpt lat="46.55039" lon="4.87111">
        <ele>313.2</ele>
        <time>2022-06-25T09:18:08Z</time>
      </trkpt>
      <trkpt lat="46.55045" lon="4.87103">
        <ele>312.8</ele>
        <time>2022-06-25T09:18:09Z</time>
      </trkpt>
      <trkpt lat="46.55051" lon="4.87096">
        <ele>312.6</ele>
        <time>2022-06-25T09:18:10Z</time>
      </trkpt>
      <trkpt lat="46.55057" lon="4.8709">
        <ele>312.2</ele>
        <time>2022-06-25T09:18:11Z</time>
      </trkpt>
      <trkpt lat="46.55064" lon="4.87083">
        <ele>312</ele>
        <time>2022-06-25T09:18:12Z</time>
      </trkpt>
      <trkpt lat="46.55071" lon="4.87077">
        <ele>311.8</ele>
        <time>2022-06-25T09:18:13Z</time>
      </trkpt>
      <trkpt lat="46.55078" lon="4.87071">
        <ele>311.4</ele>
        <time>2022-06-25T09:18:14Z</time>
      </trkpt>
      <trkpt lat="46.55085" lon="4.87065">
        <ele>311</ele>
        <time>2022-06-25T09:18:15Z</time>
      </trkpt>
      <trkpt lat="46.55093" lon="4.87059">
        <ele>310.6</ele>
        <time>2022-06-25T09:18:16Z</time>
      </trkpt>
      <trkpt lat="46.55101" lon="4.87053">
        <ele>310.2</ele>
        <time>2022-06-25T09:18:17Z</time>
      </trkpt>
      <trkpt lat="46.55109" lon="4.87047">
        <ele>310</ele>
        <time>2022-06-25T09:18:18Z</time>
      </trkpt>
      <trkpt lat="46.55117" lon="4.8704">
        <ele>309.6</ele>
        <time>2022-06-25T09:18:19Z</time>
      </trkpt>
      <trkpt lat="46.55125" lon="4.87033">
        <ele>309</ele>
        <time>2022-06-25T09:18:20Z</time>
      </trkpt>
      <trkpt lat="46.55133" lon="4.87024">
        <ele>308.6</ele>
        <time>2022-06-25T09:18:21Z</time>
      </trkpt>
      <trkpt lat="46.5514" lon="4.87014">
        <ele>308.2</ele>
        <time>2022-06-25T09:18:22Z</time>
      </trkpt>
      <trkpt lat="46.55147" lon="4.87003">
        <ele>307.8</ele>
        <time>2022-06-25T09:18:23Z</time>
      </trkpt>
      <trkpt lat="46.55154" lon="4.86991">
        <ele>307.4</ele>
        <time>2022-06-25T09:18:24Z</time>
      </trkpt>
      <trkpt lat="46.55159" lon="4.86977">
        <ele>307</ele>
        <time>2022-06-25T09:18:25Z</time>
      </trkpt>
      <trkpt lat="46.55163" lon="4.86962">
        <ele>306.6</ele>
        <time>2022-06-25T09:18:26Z</time>
      </trkpt>
      <trkpt lat="46.55167" lon="4.86948">
        <ele>306</ele>
        <time>2022-06-25T09:18:27Z</time>
      </trkpt>
      <trkpt lat="46.5517" lon="4.86933">
        <ele>305.6</ele>
        <time>2022-06-25T09:18:28Z</time>
      </trkpt>
      <trkpt lat="46.55174" lon="4.86918">
        <ele>305</ele>
        <time>2022-06-25T09:18:29Z</time>
      </trkpt>
      <trkpt lat="46.55178" lon="4.86903">
        <ele>304.6</ele>
        <time>2022-06-25T09:18:30Z</time>
      </trkpt>
      <trkpt lat="46.55182" lon="4.86888">
        <ele>304.2</ele>
        <time>2022-06-25T09:18:31Z</time>
      </trkpt>
      <trkpt lat="46.55186" lon="4.86873">
        <ele>303.8</ele>
        <time>2022-06-25T09:18:32Z</time>
      </trkpt>
      <trkpt lat="46.5519" lon="4.86859">
        <ele>303.4</ele>
        <time>2022-06-25T09:18:33Z</time>
      </trkpt>
      <trkpt lat="46.55193" lon="4.86846">
        <ele>303</ele>
        <time>2022-06-25T09:18:34Z</time>
      </trkpt>
      <trkpt lat="46.55196" lon="4.86832">
        <ele>302.6</ele>
        <time>2022-06-25T09:18:35Z</time>
      </trkpt>
      <trkpt lat="46.55198" lon="4.86818">
        <ele>302.2</ele>
        <time>2022-06-25T09:18:36Z</time>
      </trkpt>
      <trkpt lat="46.55199" lon="4.86803">
        <ele>302</ele>
        <time>2022-06-25T09:18:37Z</time>
      </trkpt>
      <trkpt lat="46.552" lon="4.8679">
        <ele>301.8</ele>
        <time>2022-06-25T09:18:38Z</time>
      </trkpt>
      <trkpt lat="46.55199" lon="4.86777">
        <ele>301.2</ele>
        <time>2022-06-25T09:18:39Z</time>
      </trkpt>
      <trkpt lat="46.55196" lon="4.86765">
        <ele>300.8</ele>
        <time>2022-06-25T09:18:40Z</time>
      </trkpt>
      <trkpt lat="46.55193" lon="4.86753">
        <ele>300.2</ele>
        <time>2022-06-25T09:18:41Z</time>
      </trkpt>
      <trkpt lat="46.55189" lon="4.86742">
        <ele>299.6</ele>
        <time>2022-06-25T09:18:42Z</time>
      </trkpt>
      <trkpt lat="46.55185" lon="4.8673">
        <ele>299.2</ele>
        <time>2022-06-25T09:18:43Z</time>
      </trkpt>
      <trkpt lat="46.55181" lon="4.86717">
        <ele>298.6</ele>
        <time>2022-06-25T09:18:44Z</time>
      </trkpt>
      <trkpt lat="46.55177" lon="4.86705">
        <ele>298</ele>
        <time>2022-06-25T09:18:45Z</time>
      </trkpt>
      <trkpt lat="46.55173" lon="4.86693">
        <ele>297.6</ele>
        <time>2022-06-25T09:18:46Z</time>
      </trkpt>
      <trkpt lat="46.55168" lon="4.86679">
        <ele>297</ele>
        <time>2022-06-25T09:18:47Z</time>
      </trkpt>
      <trkpt lat="46.55162" lon="4.86664">
        <ele>296.8</ele>
        <time>2022-06-25T09:18:48Z</time>
      </trkpt>
      <trkpt lat="46.55156" lon="4.86649">
        <ele>296.4</ele>
        <time>2022-06-25T09:18:49Z</time>
      </trkpt>
      <trkpt lat="46.55151" lon="4.86635">
        <ele>296.2</ele>
        <time>2022-06-25T09:18:50Z</time>
      </trkpt>
      <trkpt lat="46.55147" lon="4.86622">
        <ele>295.8</ele>
        <time>2022-06-25T09:18:51Z</time>
      </trkpt>
      <trkpt lat="46.55142" lon="4.86609">
        <ele>295.4</ele>
        <time>2022-06-25T09:18:52Z</time>
      </trkpt>
      <trkpt lat="46.55137" lon="4.86596">
        <ele>294.8</ele>
        <time>2022-06-25T09:18:53Z</time>
      </trkpt>
      <trkpt lat="46.55132" lon="4.86584">
        <ele>294.6</ele>
        <time>2022-06-25T09:18:54Z</time>
      </trkpt>
      <trkpt lat="46.55128" lon="4.8657">
        <ele>294</ele>
        <time>2022-06-25T09:18:55Z</time>
      </trkpt>
      <trkpt lat="46.5512" lon="4.86555">
        <ele>293.6</ele>
        <time>2022-06-25T09:18:56Z</time>
      </trkpt>
      <trkpt lat="46.55113" lon="4.86542">
        <ele>293.2</ele>
        <time>2022-06-25T09:18:57Z</time>
      </trkpt>
      <trkpt lat="46.55106" lon="4.86528">
        <ele>292.6</ele>
        <time>2022-06-25T09:18:58Z</time>
      </trkpt>
      <trkpt lat="46.55098" lon="4.86515">
        <ele>292</ele>
        <time>2022-06-25T09:18:59Z</time>
      </trkpt>
      <trkpt lat="46.55089" lon="4.86502">
        <ele>291.6</ele>
        <time>2022-06-25T09:19:00Z</time>
      </trkpt>
      <trkpt lat="46.55081" lon="4.8649">
        <ele>291</ele>
        <time>2022-06-25T09:19:01Z</time>
      </trkpt>
      <trkpt lat="46.55074" lon="4.8648">
        <ele>290.6</ele>
        <time>2022-06-25T09:19:02Z</time>
      </trkpt>
      <trkpt lat="46.55067" lon="4.86468">
        <ele>290</ele>
        <time>2022-06-25T09:19:03Z</time>
      </trkpt>
      <trkpt lat="46.5506" lon="4.86457">
        <ele>289.6</ele>
        <time>2022-06-25T09:19:04Z</time>
      </trkpt>
      <trkpt lat="46.55054" lon="4.86445">
        <ele>289</ele>
        <time>2022-06-25T09:19:05Z</time>
      </trkpt>
      <trkpt lat="46.55049" lon="4.86432">
        <ele>288.4</ele>
        <time>2022-06-25T09:19:06Z</time>
      </trkpt>
      <trkpt lat="46.55046" lon="4.86418">
        <ele>288</ele>
        <time>2022-06-25T09:19:07Z</time>
      </trkpt>
      <trkpt lat="46.55045" lon="4.86403">
        <ele>287.4</ele>
        <time>2022-06-25T09:19:08Z</time>
      </trkpt>
      <trkpt lat="46.55044" lon="4.86387">
        <ele>286.8</ele>
        <time>2022-06-25T09:19:09Z</time>
      </trkpt>
      <trkpt lat="46.55044" lon="4.86371">
        <ele>286.4</ele>
        <time>2022-06-25T09:19:10Z</time>
      </trkpt>
      <trkpt lat="46.55044" lon="4.86354">
        <ele>286</ele>
        <time>2022-06-25T09:19:11Z</time>
      </trkpt>
      <trkpt lat="46.55044" lon="4.86339">
        <ele>285.6</ele>
        <time>2022-06-25T09:19:12Z</time>
      </trkpt>
      <trkpt lat="46.55043" lon="4.86324">
        <ele>285.2</ele>
        <time>2022-06-25T09:19:13Z</time>
      </trkpt>
      <trkpt lat="46.55041" lon="4.8631">
        <ele>284.6</ele>
        <time>2022-06-25T09:19:14Z</time>
      </trkpt>
      <trkpt lat="46.55039" lon="4.86296">
        <ele>284.2</ele>
        <time>2022-06-25T09:19:15Z</time>
      </trkpt>
      <trkpt lat="46.55035" lon="4.86283">
        <ele>283.8</ele>
        <time>2022-06-25T09:19:16Z</time>
      </trkpt>
      <trkpt lat="46.55031" lon="4.8627">
        <ele>283.4</ele>
        <time>2022-06-25T09:19:17Z</time>
      </trkpt>
      <trkpt lat="46.55026" lon="4.86257">
        <ele>282.8</ele>
        <time>2022-06-25T09:19:18Z</time>
      </trkpt>
      <trkpt lat="46.5502" lon="4.86243">
        <ele>282.2</ele>
        <time>2022-06-25T09:19:19Z</time>
      </trkpt>
      <trkpt lat="46.5501" lon="4.8623">
        <ele>281.6</ele>
        <time>2022-06-25T09:19:20Z</time>
      </trkpt>
      <trkpt lat="46.55002" lon="4.86219">
        <ele>281</ele>
        <time>2022-06-25T09:19:21Z</time>
      </trkpt>
      <trkpt lat="46.54992" lon="4.86208">
        <ele>280.6</ele>
        <time>2022-06-25T09:19:22Z</time>
      </trkpt>
      <trkpt lat="46.54982" lon="4.86197">
        <ele>279.6</ele>
        <time>2022-06-25T09:19:23Z</time>
      </trkpt>
      <trkpt lat="46.54972" lon="4.86186">
        <ele>279</ele>
        <time>2022-06-25T09:19:24Z</time>
      </trkpt>
      <trkpt lat="46.54961" lon="4.86175">
        <ele>278.6</ele>
        <time>2022-06-25T09:19:25Z</time>
      </trkpt>
      <trkpt lat="46.54952" lon="4.86166">
        <ele>278.2</ele>
        <time>2022-06-25T09:19:26Z</time>
      </trkpt>
      <trkpt lat="46.54943" lon="4.86158">
        <ele>277.8</ele>
        <time>2022-06-25T09:19:27Z</time>
      </trkpt>
      <trkpt lat="46.54933" lon="4.86149">
        <ele>277.4</ele>
        <time>2022-06-25T09:19:28Z</time>
      </trkpt>
      <trkpt lat="46.54924" lon="4.8614">
        <ele>277</ele>
        <time>2022-06-25T09:19:29Z</time>
      </trkpt>
      <trkpt lat="46.54914" lon="4.8613">
        <ele>276.6</ele>
        <time>2022-06-25T09:19:30Z</time>
      </trkpt>
      <trkpt lat="46.54906" lon="4.86119">
        <ele>276.2</ele>
        <time>2022-06-25T09:19:31Z</time>
      </trkpt>
      <trkpt lat="46.549" lon="4.86107">
        <ele>275.8</ele>
        <time>2022-06-25T09:19:32Z</time>
      </trkpt>
      <trkpt lat="46.54896" lon="4.86093">
        <ele>275.4</ele>
        <time>2022-06-25T09:19:33Z</time>
      </trkpt>
      <trkpt lat="46.54892" lon="4.86077">
        <ele>274.8</ele>
        <time>2022-06-25T09:19:34Z</time>
      </trkpt>
      <trkpt lat="46.5489" lon="4.8606">
        <ele>274.4</ele>
        <time>2022-06-25T09:19:35Z</time>
      </trkpt>
      <trkpt lat="46.54889" lon="4.86043">
        <ele>274</ele>
        <time>2022-06-25T09:19:36Z</time>
      </trkpt>
      <trkpt lat="46.54889" lon="4.86026">
        <ele>273.8</ele>
        <time>2022-06-25T09:19:37Z</time>
      </trkpt>
      <trkpt lat="46.5489" lon="4.8601">
        <ele>273.2</ele>
        <time>2022-06-25T09:19:38Z</time>
      </trkpt>
      <trkpt lat="46.54891" lon="4.85992">
        <ele>272.8</ele>
        <time>2022-06-25T09:19:39Z</time>
      </trkpt>
      <trkpt lat="46.54891" lon="4.85975">
        <ele>272.4</ele>
        <time>2022-06-25T09:19:40Z</time>
      </trkpt>
      <trkpt lat="46.54892" lon="4.85959">
        <ele>272</ele>
        <time>2022-06-25T09:19:41Z</time>
      </trkpt>
      <trkpt lat="46.54893" lon="4.85943">
        <ele>271.6</ele>
        <time>2022-06-25T09:19:42Z</time>
      </trkpt>
      <trkpt lat="46.54894" lon="4.85928">
        <ele>271.2</ele>
        <time>2022-06-25T09:19:43Z</time>
      </trkpt>
      <trkpt lat="46.54894" lon="4.85913">
        <ele>270.6</ele>
        <time>2022-06-25T09:19:44Z</time>
      </trkpt>
      <trkpt lat="46.54895" lon="4.85897">
        <ele>270.2</ele>
        <time>2022-06-25T09:19:45Z</time>
      </trkpt>
      <trkpt lat="46.54897" lon="4.85882">
        <ele>269.6</ele>
        <time>2022-06-25T09:19:46Z</time>
      </trkpt>
      <trkpt lat="46.54899" lon="4.85867">
        <ele>269.2</ele>
        <time>2022-06-25T09:19:47Z</time>
      </trkpt>
      <trkpt lat="46.549" lon="4.85852">
        <ele>268.6</ele>
        <time>2022-06-25T09:19:48Z</time>
      </trkpt>
      <trkpt lat="46.54902" lon="4.85836">
        <ele>268.2</ele>
        <time>2022-06-25T09:19:49Z</time>
      </trkpt>
      <trkpt lat="46.54904" lon="4.85821">
        <ele>267.6</ele>
        <time>2022-06-25T09:19:50Z</time>
      </trkpt>
      <trkpt lat="46.54905" lon="4.85806">
        <ele>267.2</ele>
        <time>2022-06-25T09:19:51Z</time>
      </trkpt>
      <trkpt lat="46.54903" lon="4.8579">
        <ele>266.6</ele>
        <time>2022-06-25T09:19:52Z</time>
      </trkpt>
      <trkpt lat="46.54899" lon="4.85776">
        <ele>266.2</ele>
        <time>2022-06-25T09:19:53Z</time>
      </trkpt>
      <trkpt lat="46.54893" lon="4.85764">
        <ele>265.6</ele>
        <time>2022-06-25T09:19:54Z</time>
      </trkpt>
      <trkpt lat="46.54887" lon="4.85751">
        <ele>265.2</ele>
        <time>2022-06-25T09:19:55Z</time>
      </trkpt>
      <trkpt lat="46.54878" lon="4.85741">
        <ele>264.8</ele>
        <time>2022-06-25T09:19:56Z</time>
      </trkpt>
      <trkpt lat="46.54868" lon="4.85733">
        <ele>264.4</ele>
        <time>2022-06-25T09:19:57Z</time>
      </trkpt>
      <trkpt lat="46.54858" lon="4.85728">
        <ele>264</ele>
        <time>2022-06-25T09:19:58Z</time>
      </trkpt>
      <trkpt lat="46.54848" lon="4.85725">
        <ele>263.8</ele>
        <time>2022-06-25T09:19:59Z</time>
      </trkpt>
      <trkpt lat="46.54837" lon="4.85722">
        <ele>263.4</ele>
        <time>2022-06-25T09:20:00Z</time>
      </trkpt>
      <trkpt lat="46.54826" lon="4.85717">
        <ele>263</ele>
        <time>2022-06-25T09:20:01Z</time>
      </trkpt>
      <trkpt lat="46.54816" lon="4.85714">
        <ele>262.6</ele>
        <time>2022-06-25T09:20:02Z</time>
      </trkpt>
      <trkpt lat="46.54805" lon="4.85711">
        <ele>262.2</ele>
        <time>2022-06-25T09:20:03Z</time>
      </trkpt>
      <trkpt lat="46.54795" lon="4.85708">
        <ele>261.8</ele>
        <time>2022-06-25T09:20:04Z</time>
      </trkpt>
      <trkpt lat="46.54784" lon="4.85705">
        <ele>261.4</ele>
        <time>2022-06-25T09:20:05Z</time>
      </trkpt>
      <trkpt lat="46.54773" lon="4.85702">
        <ele>261</ele>
        <time>2022-06-25T09:20:06Z</time>
      </trkpt>
      <trkpt lat="46.54762" lon="4.85699">
        <ele>260.6</ele>
        <time>2022-06-25T09:20:07Z</time>
      </trkpt>
      <trkpt lat="46.54752" lon="4.85695">
        <ele>260.2</ele>
        <time>2022-06-25T09:20:08Z</time>
      </trkpt>
      <trkpt lat="46.54741" lon="4.85693">
        <ele>259.8</ele>
        <time>2022-06-25T09:20:09Z</time>
      </trkpt>
      <trkpt lat="46.54731" lon="4.8569">
        <ele>259.4</ele>
        <time>2022-06-25T09:20:10Z</time>
      </trkpt>
      <trkpt lat="46.5472" lon="4.85686">
        <ele>259.2</ele>
        <time>2022-06-25T09:20:11Z</time>
      </trkpt>
      <trkpt lat="46.54709" lon="4.85683">
        <ele>258.8</ele>
        <time>2022-06-25T09:20:12Z</time>
      </trkpt>
      <trkpt lat="46.54698" lon="4.85679">
        <ele>258.6</ele>
        <time>2022-06-25T09:20:13Z</time>
      </trkpt>
      <trkpt lat="46.54688" lon="4.85676">
        <ele>258</ele>
        <time>2022-06-25T09:20:14Z</time>
      </trkpt>
      <trkpt lat="46.54677" lon="4.85672">
        <ele>257.4</ele>
        <time>2022-06-25T09:20:15Z</time>
      </trkpt>
      <trkpt lat="46.54667" lon="4.85667">
        <ele>256.8</ele>
        <time>2022-06-25T09:20:16Z</time>
      </trkpt>
      <trkpt lat="46.54657" lon="4.85662">
        <ele>256.2</ele>
        <time>2022-06-25T09:20:17Z</time>
      </trkpt>
      <trkpt lat="46.54647" lon="4.85655">
        <ele>255.8</ele>
        <time>2022-06-25T09:20:18Z</time>
      </trkpt>
      <trkpt lat="46.54637" lon="4.85647">
        <ele>255.2</ele>
        <time>2022-06-25T09:20:19Z</time>
      </trkpt>
      <trkpt lat="46.54628" lon="4.85638">
        <ele>254.6</ele>
        <time>2022-06-25T09:20:20Z</time>
      </trkpt>
      <trkpt lat="46.54619" lon="4.85629">
        <ele>254.4</ele>
        <time>2022-06-25T09:20:21Z</time>
      </trkpt>
      <trkpt lat="46.5461" lon="4.85621">
        <ele>253.8</ele>
        <time>2022-06-25T09:20:22Z</time>
      </trkpt>
      <trkpt lat="46.546" lon="4.8561">
        <ele>253.4</ele>
        <time>2022-06-25T09:20:23Z</time>
      </trkpt>
      <trkpt lat="46.54591" lon="4.85601">
        <ele>252.8</ele>
        <time>2022-06-25T09:20:24Z</time>
      </trkpt>
      <trkpt lat="46.54582" lon="4.85591">
        <ele>252.2</ele>
        <time>2022-06-25T09:20:25Z</time>
      </trkpt>
      <trkpt lat="46.54574" lon="4.85582">
        <ele>251.6</ele>
        <time>2022-06-25T09:20:26Z</time>
      </trkpt>
      <trkpt lat="46.54566" lon="4.85571">
        <ele>251.2</ele>
        <time>2022-06-25T09:20:27Z</time>
      </trkpt>
      <trkpt lat="46.54558" lon="4.8556">
        <ele>250.8</ele>
        <time>2022-06-25T09:20:28Z</time>
      </trkpt>
      <trkpt lat="46.54552" lon="4.85548">
        <ele>250.4</ele>
        <time>2022-06-25T09:20:29Z</time>
      </trkpt>
      <trkpt lat="46.54546" lon="4.85537">
        <ele>250</ele>
        <time>2022-06-25T09:20:30Z</time>
      </trkpt>
      <trkpt lat="46.5454" lon="4.85524">
        <ele>249.6</ele>
        <time>2022-06-25T09:20:31Z</time>
      </trkpt>
      <trkpt lat="46.54535" lon="4.85511">
        <ele>249.4</ele>
        <time>2022-06-25T09:20:32Z</time>
      </trkpt>
      <trkpt lat="46.5453" lon="4.85498">
        <ele>249.2</ele>
        <time>2022-06-25T09:20:33Z</time>
      </trkpt>
      <trkpt lat="46.54525" lon="4.85486">
        <ele>248.8</ele>
        <time>2022-06-25T09:20:34Z</time>
      </trkpt>
      <trkpt lat="46.54519" lon="4.85474">
        <ele>248.6</ele>
        <time>2022-06-25T09:20:35Z</time>
      </trkpt>
      <trkpt lat="46.54513" lon="4.85463">
        <ele>248.4</ele>
        <time>2022-06-25T09:20:36Z</time>
      </trkpt>
      <trkpt lat="46.54508" lon="4.85452">
        <ele>248</ele>
        <time>2022-06-25T09:20:37Z</time>
      </trkpt>
      <trkpt lat="46.54503" lon="4.8544">
        <ele>248</ele>
        <time>2022-06-25T09:20:38Z</time>
      </trkpt>
      <trkpt lat="46.54498" lon="4.85429">
        <ele>247.6</ele>
        <time>2022-06-25T09:20:39Z</time>
      </trkpt>
      <trkpt lat="46.54491" lon="4.85418">
        <ele>247.4</ele>
        <time>2022-06-25T09:20:40Z</time>
      </trkpt>
      <trkpt lat="46.54486" lon="4.85407">
        <ele>247</ele>
        <time>2022-06-25T09:20:41Z</time>
      </trkpt>
      <trkpt lat="46.54481" lon="4.85396">
        <ele>246.8</ele>
        <time>2022-06-25T09:20:42Z</time>
      </trkpt>
      <trkpt lat="46.54476" lon="4.85386">
        <ele>246.4</ele>
        <time>2022-06-25T09:20:43Z</time>
      </trkpt>
      <trkpt lat="46.5447" lon="4.85375">
        <ele>246.2</ele>
        <time>2022-06-25T09:20:44Z</time>
      </trkpt>
      <trkpt lat="46.54465" lon="4.85365">
        <ele>246</ele>
        <time>2022-06-25T09:20:45Z</time>
      </trkpt>
      <trkpt lat="46.5446" lon="4.85355">
        <ele>245.8</ele>
        <time>2022-06-25T09:20:46Z</time>
      </trkpt>
      <trkpt lat="46.54454" lon="4.85345">
        <ele>245.4</ele>
        <time>2022-06-25T09:20:47Z</time>
      </trkpt>
      <trkpt lat="46.54449" lon="4.85335">
        <ele>245.4</ele>
        <time>2022-06-25T09:20:48Z</time>
      </trkpt>
      <trkpt lat="46.54444" lon="4.85326">
        <ele>245</ele>
        <time>2022-06-25T09:20:49Z</time>
      </trkpt>
      <trkpt lat="46.54439" lon="4.85316">
        <ele>245</ele>
        <time>2022-06-25T09:20:50Z</time>
      </trkpt>
      <trkpt lat="46.54434" lon="4.85306">
        <ele>244.8</ele>
        <time>2022-06-25T09:20:51Z</time>
      </trkpt>
      <trkpt lat="46.54429" lon="4.85297">
        <ele>244.8</ele>
        <time>2022-06-25T09:20:52Z</time>
      </trkpt>
      <trkpt lat="46.54424" lon="4.85288">
        <ele>244.8</ele>
        <time>2022-06-25T09:20:53Z</time>
      </trkpt>
      <trkpt lat="46.54419" lon="4.85279">
        <ele>244.8</ele>
        <time>2022-06-25T09:20:55Z</time>
      </trkpt>
      <trkpt lat="46.54414" lon="4.8527">
        <ele>244.6</ele>
        <time>2022-06-25T09:20:56Z</time>
      </trkpt>
      <trkpt lat="46.54408" lon="4.85261">
        <ele>244.6</ele>
        <time>2022-06-25T09:20:57Z</time>
      </trkpt>
      <trkpt lat="46.54403" lon="4.85253">
        <ele>244.6</ele>
        <time>2022-06-25T09:20:58Z</time>
      </trkpt>
      <trkpt lat="46.54398" lon="4.85245">
        <ele>244.6</ele>
        <time>2022-06-25T09:20:59Z</time>
      </trkpt>
      <trkpt lat="46.54392" lon="4.85237">
        <ele>244.6</ele>
        <time>2022-06-25T09:21:00Z</time>
      </trkpt>
      <trkpt lat="46.54386" lon="4.8523">
        <ele>244.6</ele>
        <time>2022-06-25T09:21:01Z</time>
      </trkpt>
      <trkpt lat="46.54381" lon="4.85224">
        <ele>244.6</ele>
        <time>2022-06-25T09:21:02Z</time>
      </trkpt>
      <trkpt lat="46.54375" lon="4.85217">
        <ele>244.4</ele>
        <time>2022-06-25T09:21:03Z</time>
      </trkpt>
      <trkpt lat="46.5437" lon="4.8521">
        <ele>244.4</ele>
        <time>2022-06-25T09:21:04Z</time>
      </trkpt>
      <trkpt lat="46.54365" lon="4.85203">
        <ele>244.4</ele>
        <time>2022-06-25T09:21:05Z</time>
      </trkpt>
      <trkpt lat="46.54359" lon="4.85197">
        <ele>244.4</ele>
        <time>2022-06-25T09:21:06Z</time>
      </trkpt>
      <trkpt lat="46.54354" lon="4.85191">
        <ele>244.4</ele>
        <time>2022-06-25T09:21:07Z</time>
      </trkpt>
      <trkpt lat="46.54348" lon="4.85184">
        <ele>244.4</ele>
        <time>2022-06-25T09:21:08Z</time>
      </trkpt>
      <trkpt lat="46.54336" lon="4.85172">
        <ele>244</ele>
        <time>2022-06-25T09:21:09Z</time>
      </trkpt>
      <trkpt lat="46.54331" lon="4.85166">
        <ele>244</ele>
        <time>2022-06-25T09:21:10Z</time>
      </trkpt>
      <trkpt lat="46.54326" lon="4.85159">
        <ele>244</ele>
        <time>2022-06-25T09:21:11Z</time>
      </trkpt>
      <trkpt lat="46.54321" lon="4.85153">
        <ele>244</ele>
        <time>2022-06-25T09:21:12Z</time>
      </trkpt>
      <trkpt lat="46.54316" lon="4.85148">
        <ele>243.8</ele>
        <time>2022-06-25T09:21:13Z</time>
      </trkpt>
      <trkpt lat="46.54311" lon="4.85143">
        <ele>243.8</ele>
        <time>2022-06-25T09:21:14Z</time>
      </trkpt>
      <trkpt lat="46.54306" lon="4.85138">
        <ele>243.8</ele>
        <time>2022-06-25T09:21:15Z</time>
      </trkpt>
      <trkpt lat="46.54301" lon="4.85133">
        <ele>243.6</ele>
        <time>2022-06-25T09:21:16Z</time>
      </trkpt>
      <trkpt lat="46.54296" lon="4.85128">
        <ele>243.6</ele>
        <time>2022-06-25T09:21:17Z</time>
      </trkpt>
      <trkpt lat="46.54291" lon="4.85122">
        <ele>243.6</ele>
        <time>2022-06-25T09:21:18Z</time>
      </trkpt>
      <trkpt lat="46.54287" lon="4.85117">
        <ele>243.6</ele>
        <time>2022-06-25T09:21:19Z</time>
      </trkpt>
      <trkpt lat="46.54283" lon="4.8511">
        <ele>243.6</ele>
        <time>2022-06-25T09:21:20Z</time>
      </trkpt>
      <trkpt lat="46.5428" lon="4.85103">
        <ele>243.4</ele>
        <time>2022-06-25T09:21:21Z</time>
      </trkpt>
      <trkpt lat="46.54278" lon="4.85095">
        <ele>243.4</ele>
        <time>2022-06-25T09:21:22Z</time>
      </trkpt>
      <trkpt lat="46.54276" lon="4.85086">
        <ele>243.2</ele>
        <time>2022-06-25T09:21:23Z</time>
      </trkpt>
      <trkpt lat="46.54276" lon="4.85077">
        <ele>243.2</ele>
        <time>2022-06-25T09:21:24Z</time>
      </trkpt>
      <trkpt lat="46.54276" lon="4.85069">
        <ele>242.8</ele>
        <time>2022-06-25T09:21:25Z</time>
      </trkpt>
      <trkpt lat="46.54278" lon="4.85061">
        <ele>242.8</ele>
        <time>2022-06-25T09:21:26Z</time>
      </trkpt>
      <trkpt lat="46.54279" lon="4.85052">
        <ele>242.8</ele>
        <time>2022-06-25T09:21:27Z</time>
      </trkpt>
      <trkpt lat="46.54282" lon="4.85045">
        <ele>242.8</ele>
        <time>2022-06-25T09:21:28Z</time>
      </trkpt>
      <trkpt lat="46.54284" lon="4.85037">
        <ele>242.8</ele>
        <time>2022-06-25T09:21:29Z</time>
      </trkpt>
      <trkpt lat="46.54285" lon="4.85029">
        <ele>242.6</ele>
        <time>2022-06-25T09:21:30Z</time>
      </trkpt>
      <trkpt lat="46.54286" lon="4.85023">
        <ele>242.6</ele>
        <time>2022-06-25T09:21:31Z</time>
      </trkpt>
      <trkpt lat="46.54287" lon="4.85017">
        <ele>242.6</ele>
        <time>2022-06-25T09:21:32Z</time>
      </trkpt>
      <trkpt lat="46.54288" lon="4.85012">
        <ele>242.6</ele>
        <time>2022-06-25T09:21:33Z</time>
      </trkpt>
      <trkpt lat="46.54288" lon="4.85008">
        <ele>242.4</ele>
        <time>2022-06-25T09:21:34Z</time>
      </trkpt>
      <trkpt lat="46.54289" lon="4.85005">
        <ele>242.4</ele>
        <time>2022-06-25T09:21:35Z</time>
      </trkpt>
      <trkpt lat="46.54289" lon="4.85003">
        <ele>242.4</ele>
        <time>2022-06-25T09:21:36Z</time>
      </trkpt>
      <trkpt lat="46.54289" lon="4.85002">
        <ele>242.4</ele>
        <time>2022-06-25T09:21:37Z</time>
      </trkpt>
      <trkpt lat="46.54289" lon="4.85001">
        <ele>242.4</ele>
        <time>2022-06-25T09:21:38Z</time>
      </trkpt>
      <trkpt lat="46.54291" lon="4.84999">
        <ele>242</ele>
        <time>2022-06-25T09:22:32Z</time>
      </trkpt>
      <trkpt lat="46.54292" lon="4.84997">
        <ele>242</ele>
        <time>2022-06-25T09:22:33Z</time>
      </trkpt>
      <trkpt lat="46.54294" lon="4.84995">
        <ele>242</ele>
        <time>2022-06-25T09:22:34Z</time>
      </trkpt>
      <trkpt lat="46.54295" lon="4.84992">
        <ele>242</ele>
        <time>2022-06-25T09:22:35Z</time>
      </trkpt>
      <trkpt lat="46.54297" lon="4.84989">
        <ele>242</ele>
        <time>2022-06-25T09:22:36Z</time>
      </trkpt>
      <trkpt lat="46.54299" lon="4.84986">
        <ele>242</ele>
        <time>2022-06-25T09:22:37Z</time>
      </trkpt>
      <trkpt lat="46.54301" lon="4.84983">
        <ele>242</ele>
        <time>2022-06-25T09:22:38Z</time>
      </trkpt>
      <trkpt lat="46.54302" lon="4.84979">
        <ele>242.2</ele>
        <time>2022-06-25T09:22:39Z</time>
      </trkpt>
      <trkpt lat="46.54303" lon="4.84975">
        <ele>242.2</ele>
        <time>2022-06-25T09:22:40Z</time>
      </trkpt>
      <trkpt lat="46.54304" lon="4.84972">
        <ele>242.2</ele>
        <time>2022-06-25T09:22:41Z</time>
      </trkpt>
      <trkpt lat="46.54306" lon="4.84968">
        <ele>242.2</ele>
        <time>2022-06-25T09:22:42Z</time>
      </trkpt>
      <trkpt lat="46.54307" lon="4.84964">
        <ele>242.6</ele>
        <time>2022-06-25T09:22:43Z</time>
      </trkpt>
      <trkpt lat="46.54309" lon="4.8496">
        <ele>242.6</ele>
        <time>2022-06-25T09:22:44Z</time>
      </trkpt>
      <trkpt lat="46.5431" lon="4.84956">
        <ele>242.6</ele>
        <time>2022-06-25T09:22:45Z</time>
      </trkpt>
      <trkpt lat="46.54312" lon="4.84952">
        <ele>242.8</ele>
        <time>2022-06-25T09:22:46Z</time>
      </trkpt>
      <trkpt lat="46.54313" lon="4.84947">
        <ele>242.8</ele>
        <time>2022-06-25T09:22:47Z</time>
      </trkpt>
      <trkpt lat="46.54315" lon="4.84943">
        <ele>242.8</ele>
        <time>2022-06-25T09:22:48Z</time>
      </trkpt>
      <trkpt lat="46.54317" lon="4.84938">
        <ele>243.2</ele>
        <time>2022-06-25T09:22:49Z</time>
      </trkpt>
      <trkpt lat="46.54318" lon="4.84934">
        <ele>243.2</ele>
        <time>2022-06-25T09:22:50Z</time>
      </trkpt>
      <trkpt lat="46.5432" lon="4.84929">
        <ele>243.2</ele>
        <time>2022-06-25T09:22:51Z</time>
      </trkpt>
      <trkpt lat="46.54322" lon="4.84924">
        <ele>243.4</ele>
        <time>2022-06-25T09:22:52Z</time>
      </trkpt>
      <trkpt lat="46.54323" lon="4.8492">
        <ele>243.4</ele>
        <time>2022-06-25T09:22:53Z</time>
      </trkpt>
      <trkpt lat="46.54325" lon="4.84916">
        <ele>243.8</ele>
        <time>2022-06-25T09:22:54Z</time>
      </trkpt>
      <trkpt lat="46.54327" lon="4.84911">
        <ele>243.8</ele>
        <time>2022-06-25T09:22:55Z</time>
      </trkpt>
      <trkpt lat="46.54328" lon="4.84907">
        <ele>244</ele>
        <time>2022-06-25T09:22:56Z</time>
      </trkpt>
      <trkpt lat="46.5433" lon="4.84902">
        <ele>244</ele>
        <time>2022-06-25T09:22:57Z</time>
      </trkpt>
      <trkpt lat="46.54332" lon="4.84897">
        <ele>244.4</ele>
        <time>2022-06-25T09:22:58Z</time>
      </trkpt>
      <trkpt lat="46.54334" lon="4.84893">
        <ele>244.4</ele>
        <time>2022-06-25T09:22:59Z</time>
      </trkpt>
      <trkpt lat="46.54335" lon="4.84888">
        <ele>244.8</ele>
        <time>2022-06-25T09:23:00Z</time>
      </trkpt>
      <trkpt lat="46.54336" lon="4.84883">
        <ele>245</ele>
        <time>2022-06-25T09:23:01Z</time>
      </trkpt>
      <trkpt lat="46.54338" lon="4.84878">
        <ele>245.2</ele>
        <time>2022-06-25T09:23:02Z</time>
      </trkpt>
      <trkpt lat="46.54339" lon="4.84872">
        <ele>245.2</ele>
        <time>2022-06-25T09:23:03Z</time>
      </trkpt>
      <trkpt lat="46.54339" lon="4.84866">
        <ele>245.2</ele>
        <time>2022-06-25T09:23:04Z</time>
      </trkpt>
      <trkpt lat="46.54339" lon="4.8486">
        <ele>245.6</ele>
        <time>2022-06-25T09:23:05Z</time>
      </trkpt>
      <trkpt lat="46.54339" lon="4.84854">
        <ele>245.6</ele>
        <time>2022-06-25T09:23:06Z</time>
      </trkpt>
      <trkpt lat="46.54338" lon="4.84849">
        <ele>246</ele>
        <time>2022-06-25T09:23:07Z</time>
      </trkpt>
      <trkpt lat="46.54336" lon="4.84843">
        <ele>246</ele>
        <time>2022-06-25T09:23:08Z</time>
      </trkpt>
      <trkpt lat="46.54335" lon="4.84838">
        <ele>246.2</ele>
        <time>2022-06-25T09:23:09Z</time>
      </trkpt>
      <trkpt lat="46.54334" lon="4.84832">
        <ele>246.2</ele>
        <time>2022-06-25T09:23:10Z</time>
      </trkpt>
      <trkpt lat="46.54332" lon="4.84826">
        <ele>246.6</ele>
        <time>2022-06-25T09:23:11Z</time>
      </trkpt>
      <trkpt lat="46.54331" lon="4.8482">
        <ele>246.6</ele>
        <time>2022-06-25T09:23:12Z</time>
      </trkpt>
      <trkpt lat="46.5433" lon="4.84814">
        <ele>246.8</ele>
        <time>2022-06-25T09:23:13Z</time>
      </trkpt>
      <trkpt lat="46.54328" lon="4.84808">
        <ele>246.8</ele>
        <time>2022-06-25T09:23:14Z</time>
      </trkpt>
      <trkpt lat="46.54326" lon="4.84802">
        <ele>247.2</ele>
        <time>2022-06-25T09:23:15Z</time>
      </trkpt>
      <trkpt lat="46.54324" lon="4.84795">
        <ele>247.2</ele>
        <time>2022-06-25T09:23:16Z</time>
      </trkpt>
      <trkpt lat="46.54321" lon="4.84789">
        <ele>247.4</ele>
        <time>2022-06-25T09:23:17Z</time>
      </trkpt>
      <trkpt lat="46.54319" lon="4.84782">
        <ele>247.4</ele>
        <time>2022-06-25T09:23:18Z</time>
      </trkpt>
      <trkpt lat="46.54317" lon="4.84775">
        <ele>247.4</ele>
        <time>2022-06-25T09:23:19Z</time>
      </trkpt>
      <trkpt lat="46.54314" lon="4.84768">
        <ele>247.6</ele>
        <time>2022-06-25T09:23:20Z</time>
      </trkpt>
      <trkpt lat="46.54312" lon="4.8476">
        <ele>247.6</ele>
        <time>2022-06-25T09:23:21Z</time>
      </trkpt>
      <trkpt lat="46.54309" lon="4.84753">
        <ele>247.6</ele>
        <time>2022-06-25T09:23:22Z</time>
      </trkpt>
      <trkpt lat="46.54306" lon="4.84745">
        <ele>247.6</ele>
        <time>2022-06-25T09:23:23Z</time>
      </trkpt>
      <trkpt lat="46.54303" lon="4.84738">
        <ele>247.6</ele>
        <time>2022-06-25T09:23:24Z</time>
      </trkpt>
      <trkpt lat="46.54301" lon="4.8473">
        <ele>247.6</ele>
        <time>2022-06-25T09:23:25Z</time>
      </trkpt>
      <trkpt lat="46.54298" lon="4.84723">
        <ele>247.6</ele>
        <time>2022-06-25T09:23:26Z</time>
      </trkpt>
      <trkpt lat="46.54296" lon="4.84716">
        <ele>247.4</ele>
        <time>2022-06-25T09:23:27Z</time>
      </trkpt>
      <trkpt lat="46.54293" lon="4.84709">
        <ele>247.4</ele>
        <time>2022-06-25T09:23:28Z</time>
      </trkpt>
      <trkpt lat="46.54291" lon="4.84702">
        <ele>247.4</ele>
        <time>2022-06-25T09:23:29Z</time>
      </trkpt>
      <trkpt lat="46.54289" lon="4.84694">
        <ele>247.4</ele>
        <time>2022-06-25T09:23:30Z</time>
      </trkpt>
      <trkpt lat="46.54286" lon="4.84686">
        <ele>247.4</ele>
        <time>2022-06-25T09:23:31Z</time>
      </trkpt>
      <trkpt lat="46.54284" lon="4.84678">
        <ele>247.4</ele>
        <time>2022-06-25T09:23:32Z</time>
      </trkpt>
      <trkpt lat="46.54283" lon="4.8467">
        <ele>247.4</ele>
        <time>2022-06-25T09:23:33Z</time>
      </trkpt>
      <trkpt lat="46.54282" lon="4.84661">
        <ele>247.4</ele>
        <time>2022-06-25T09:23:34Z</time>
      </trkpt>
      <trkpt lat="46.54282" lon="4.84652">
        <ele>247.4</ele>
        <time>2022-06-25T09:23:35Z</time>
      </trkpt>
      <trkpt lat="46.54283" lon="4.84643">
        <ele>247.4</ele>
        <time>2022-06-25T09:23:36Z</time>
      </trkpt>
      <trkpt lat="46.54285" lon="4.84634">
        <ele>247.4</ele>
        <time>2022-06-25T09:23:37Z</time>
      </trkpt>
      <trkpt lat="46.54287" lon="4.84626">
        <ele>247.4</ele>
        <time>2022-06-25T09:23:38Z</time>
      </trkpt>
      <trkpt lat="46.5429" lon="4.84617">
        <ele>247.4</ele>
        <time>2022-06-25T09:23:39Z</time>
      </trkpt>
      <trkpt lat="46.54294" lon="4.8461">
        <ele>247.4</ele>
        <time>2022-06-25T09:23:40Z</time>
      </trkpt>
      <trkpt lat="46.54299" lon="4.84603">
        <ele>247.4</ele>
        <time>2022-06-25T09:23:41Z</time>
      </trkpt>
      <trkpt lat="46.54304" lon="4.84598">
        <ele>247.4</ele>
        <time>2022-06-25T09:23:42Z</time>
      </trkpt>
      <trkpt lat="46.54309" lon="4.84592">
        <ele>247.4</ele>
        <time>2022-06-25T09:23:43Z</time>
      </trkpt>
      <trkpt lat="46.54314" lon="4.84587">
        <ele>247.4</ele>
        <time>2022-06-25T09:23:44Z</time>
      </trkpt>
      <trkpt lat="46.54319" lon="4.84581">
        <ele>247.4</ele>
        <time>2022-06-25T09:23:45Z</time>
      </trkpt>
      <trkpt lat="46.54324" lon="4.84576">
        <ele>247.4</ele>
        <time>2022-06-25T09:23:46Z</time>
      </trkpt>
      <trkpt lat="46.5433" lon="4.8457">
        <ele>247.4</ele>
        <time>2022-06-25T09:23:47Z</time>
      </trkpt>
      <trkpt lat="46.54335" lon="4.84564">
        <ele>247.4</ele>
        <time>2022-06-25T09:23:48Z</time>
      </trkpt>
      <trkpt lat="46.5434" lon="4.84558">
        <ele>247.4</ele>
        <time>2022-06-25T09:23:49Z</time>
      </trkpt>
      <trkpt lat="46.54346" lon="4.84553">
        <ele>247.6</ele>
        <time>2022-06-25T09:23:50Z</time>
      </trkpt>
      <trkpt lat="46.54351" lon="4.84547">
        <ele>247.6</ele>
        <time>2022-06-25T09:23:51Z</time>
      </trkpt>
      <trkpt lat="46.54356" lon="4.84542">
        <ele>247.6</ele>
        <time>2022-06-25T09:23:52Z</time>
      </trkpt>
      <trkpt lat="46.54361" lon="4.84536">
        <ele>247.6</ele>
        <time>2022-06-25T09:23:53Z</time>
      </trkpt>
      <trkpt lat="46.54366" lon="4.84531">
        <ele>247.6</ele>
        <time>2022-06-25T09:23:54Z</time>
      </trkpt>
      <trkpt lat="46.54371" lon="4.84527">
        <ele>247.6</ele>
        <time>2022-06-25T09:23:55Z</time>
      </trkpt>
      <trkpt lat="46.54375" lon="4.84523">
        <ele>247.4</ele>
        <time>2022-06-25T09:23:56Z</time>
      </trkpt>
      <trkpt lat="46.54379" lon="4.84518">
        <ele>247.4</ele>
        <time>2022-06-25T09:23:57Z</time>
      </trkpt>
      <trkpt lat="46.54384" lon="4.84514">
        <ele>247.4</ele>
        <time>2022-06-25T09:23:58Z</time>
      </trkpt>
      <trkpt lat="46.54387" lon="4.8451">
        <ele>247.4</ele>
        <time>2022-06-25T09:23:59Z</time>
      </trkpt>
      <trkpt lat="46.5439" lon="4.84504">
        <ele>247.4</ele>
        <time>2022-06-25T09:24:00Z</time>
      </trkpt>
      <trkpt lat="46.54391" lon="4.84497">
        <ele>247.4</ele>
        <time>2022-06-25T09:24:01Z</time>
      </trkpt>
      <trkpt lat="46.54391" lon="4.8449">
        <ele>247.4</ele>
        <time>2022-06-25T09:24:02Z</time>
      </trkpt>
      <trkpt lat="46.54391" lon="4.84483">
        <ele>247.4</ele>
        <time>2022-06-25T09:24:03Z</time>
      </trkpt>
      <trkpt lat="46.5439" lon="4.84475">
        <ele>247</ele>
        <time>2022-06-25T09:24:04Z</time>
      </trkpt>
      <trkpt lat="46.54388" lon="4.84468">
        <ele>247</ele>
        <time>2022-06-25T09:24:05Z</time>
      </trkpt>
      <trkpt lat="46.54386" lon="4.8446">
        <ele>247</ele>
        <time>2022-06-25T09:24:06Z</time>
      </trkpt>
      <trkpt lat="46.54383" lon="4.84453">
        <ele>247</ele>
        <time>2022-06-25T09:24:07Z</time>
      </trkpt>
      <trkpt lat="46.54379" lon="4.84446">
        <ele>247</ele>
        <time>2022-06-25T09:24:08Z</time>
      </trkpt>
      <trkpt lat="46.54375" lon="4.8444">
        <ele>246.8</ele>
        <time>2022-06-25T09:24:09Z</time>
      </trkpt>
      <trkpt lat="46.5437" lon="4.84434">
        <ele>246.8</ele>
        <time>2022-06-25T09:24:10Z</time>
      </trkpt>
      <trkpt lat="46.54366" lon="4.84428">
        <ele>246.8</ele>
        <time>2022-06-25T09:24:11Z</time>
      </trkpt>
      <trkpt lat="46.5436" lon="4.84424">
        <ele>246.8</ele>
        <time>2022-06-25T09:24:12Z</time>
      </trkpt>
      <trkpt lat="46.54355" lon="4.84421">
        <ele>246.8</ele>
        <time>2022-06-25T09:24:13Z</time>
      </trkpt>
      <trkpt lat="46.54349" lon="4.84418">
        <ele>246.8</ele>
        <time>2022-06-25T09:24:14Z</time>
      </trkpt>
      <trkpt lat="46.54344" lon="4.84415">
        <ele>246.8</ele>
        <time>2022-06-25T09:24:15Z</time>
      </trkpt>
      <trkpt lat="46.54338" lon="4.84412">
        <ele>246.8</ele>
        <time>2022-06-25T09:24:16Z</time>
      </trkpt>
      <trkpt lat="46.54333" lon="4.84409">
        <ele>246.8</ele>
        <time>2022-06-25T09:24:17Z</time>
      </trkpt>
      <trkpt lat="46.54327" lon="4.84406">
        <ele>246.8</ele>
        <time>2022-06-25T09:24:18Z</time>
      </trkpt>
      <trkpt lat="46.54322" lon="4.84402">
        <ele>246.8</ele>
        <time>2022-06-25T09:24:19Z</time>
      </trkpt>
      <trkpt lat="46.54317" lon="4.84399">
        <ele>247</ele>
        <time>2022-06-25T09:24:20Z</time>
      </trkpt>
      <trkpt lat="46.54312" lon="4.84396">
        <ele>247</ele>
        <time>2022-06-25T09:24:21Z</time>
      </trkpt>
      <trkpt lat="46.54308" lon="4.84393">
        <ele>247</ele>
        <time>2022-06-25T09:24:22Z</time>
      </trkpt>
      <trkpt lat="46.54303" lon="4.8439">
        <ele>247</ele>
        <time>2022-06-25T09:24:23Z</time>
      </trkpt>
      <trkpt lat="46.54298" lon="4.84386">
        <ele>247.4</ele>
        <time>2022-06-25T09:24:24Z</time>
      </trkpt>
      <trkpt lat="46.54294" lon="4.84383">
        <ele>247.4</ele>
        <time>2022-06-25T09:24:25Z</time>
      </trkpt>
      <trkpt lat="46.5429" lon="4.84379">
        <ele>247.6</ele>
        <time>2022-06-25T09:24:26Z</time>
      </trkpt>
      <trkpt lat="46.54286" lon="4.84375">
        <ele>248</ele>
        <time>2022-06-25T09:24:27Z</time>
      </trkpt>
      <trkpt lat="46.54283" lon="4.84371">
        <ele>248</ele>
        <time>2022-06-25T09:24:28Z</time>
      </trkpt>
      <trkpt lat="46.5428" lon="4.84367">
        <ele>248.2</ele>
        <time>2022-06-25T09:24:29Z</time>
      </trkpt>
      <trkpt lat="46.54278" lon="4.84363">
        <ele>248.2</ele>
        <time>2022-06-25T09:24:30Z</time>
      </trkpt>
      <trkpt lat="46.54275" lon="4.84359">
        <ele>248.8</ele>
        <time>2022-06-25T09:24:31Z</time>
      </trkpt>
      <trkpt lat="46.54273" lon="4.84356">
        <ele>249</ele>
        <time>2022-06-25T09:24:32Z</time>
      </trkpt>
      <trkpt lat="46.54271" lon="4.84352">
        <ele>249.2</ele>
        <time>2022-06-25T09:24:33Z</time>
      </trkpt>
      <trkpt lat="46.54269" lon="4.84349">
        <ele>249.2</ele>
        <time>2022-06-25T09:24:34Z</time>
      </trkpt>
      <trkpt lat="46.54267" lon="4.84346">
        <ele>249.6</ele>
        <time>2022-06-25T09:24:35Z</time>
      </trkpt>
      <trkpt lat="46.54265" lon="4.84343">
        <ele>249.6</ele>
        <time>2022-06-25T09:24:36Z</time>
      </trkpt>
      <trkpt lat="46.54263" lon="4.8434">
        <ele>250</ele>
        <time>2022-06-25T09:24:37Z</time>
      </trkpt>
      <trkpt lat="46.54261" lon="4.84337">
        <ele>250</ele>
        <time>2022-06-25T09:24:38Z</time>
      </trkpt>
      <trkpt lat="46.54259" lon="4.84333">
        <ele>250.2</ele>
        <time>2022-06-25T09:24:39Z</time>
      </trkpt>
      <trkpt lat="46.54256" lon="4.84329">
        <ele>250.2</ele>
        <time>2022-06-25T09:24:40Z</time>
      </trkpt>
      <trkpt lat="46.54253" lon="4.84326">
        <ele>250.4</ele>
        <time>2022-06-25T09:24:41Z</time>
      </trkpt>
      <trkpt lat="46.54249" lon="4.84322">
        <ele>250.4</ele>
        <time>2022-06-25T09:24:42Z</time>
      </trkpt>
      <trkpt lat="46.54245" lon="4.84319">
        <ele>250.8</ele>
        <time>2022-06-25T09:24:43Z</time>
      </trkpt>
      <trkpt lat="46.54243" lon="4.84316">
        <ele>250.8</ele>
        <time>2022-06-25T09:24:44Z</time>
      </trkpt>
      <trkpt lat="46.5424" lon="4.84312">
        <ele>251.2</ele>
        <time>2022-06-25T09:24:45Z</time>
      </trkpt>
      <trkpt lat="46.54237" lon="4.84309">
        <ele>251.2</ele>
        <time>2022-06-25T09:24:46Z</time>
      </trkpt>
      <trkpt lat="46.54234" lon="4.84306">
        <ele>251.4</ele>
        <time>2022-06-25T09:24:47Z</time>
      </trkpt>
      <trkpt lat="46.5423" lon="4.84303">
        <ele>251.4</ele>
        <time>2022-06-25T09:24:48Z</time>
      </trkpt>
      <trkpt lat="46.54223" lon="4.84297">
        <ele>251.6</ele>
        <time>2022-06-25T09:24:49Z</time>
      </trkpt>
      <trkpt lat="46.54219" lon="4.84293">
        <ele>252</ele>
        <time>2022-06-25T09:24:50Z</time>
      </trkpt>
      <trkpt lat="46.54213" lon="4.84289">
        <ele>252</ele>
        <time>2022-06-25T09:24:51Z</time>
      </trkpt>
      <trkpt lat="46.54207" lon="4.84284">
        <ele>252.2</ele>
        <time>2022-06-25T09:24:52Z</time>
      </trkpt>
      <trkpt lat="46.54203" lon="4.8428">
        <ele>252.4</ele>
        <time>2022-06-25T09:24:53Z</time>
      </trkpt>
      <trkpt lat="46.54198" lon="4.84277">
        <ele>252.4</ele>
        <time>2022-06-25T09:24:54Z</time>
      </trkpt>
      <trkpt lat="46.54194" lon="4.84273">
        <ele>252.8</ele>
        <time>2022-06-25T09:24:55Z</time>
      </trkpt>
      <trkpt lat="46.54189" lon="4.8427">
        <ele>252.8</ele>
        <time>2022-06-25T09:24:56Z</time>
      </trkpt>
      <trkpt lat="46.54184" lon="4.84266">
        <ele>253</ele>
        <time>2022-06-25T09:24:57Z</time>
      </trkpt>
      <trkpt lat="46.54178" lon="4.84263">
        <ele>253</ele>
        <time>2022-06-25T09:24:58Z</time>
      </trkpt>
      <trkpt lat="46.54173" lon="4.8426">
        <ele>253.4</ele>
        <time>2022-06-25T09:24:59Z</time>
      </trkpt>
      <trkpt lat="46.54168" lon="4.84258">
        <ele>253.4</ele>
        <time>2022-06-25T09:25:00Z</time>
      </trkpt>
      <trkpt lat="46.54163" lon="4.84255">
        <ele>253.6</ele>
        <time>2022-06-25T09:25:01Z</time>
      </trkpt>
      <trkpt lat="46.54158" lon="4.84253">
        <ele>253.6</ele>
        <time>2022-06-25T09:25:02Z</time>
      </trkpt>
      <trkpt lat="46.54153" lon="4.84251">
        <ele>254</ele>
        <time>2022-06-25T09:25:03Z</time>
      </trkpt>
      <trkpt lat="46.54149" lon="4.84248">
        <ele>254</ele>
        <time>2022-06-25T09:25:04Z</time>
      </trkpt>
      <trkpt lat="46.54144" lon="4.84246">
        <ele>254.4</ele>
        <time>2022-06-25T09:25:05Z</time>
      </trkpt>
      <trkpt lat="46.54139" lon="4.84244">
        <ele>254.4</ele>
        <time>2022-06-25T09:25:06Z</time>
      </trkpt>
      <trkpt lat="46.54135" lon="4.84242">
        <ele>254.6</ele>
        <time>2022-06-25T09:25:07Z</time>
      </trkpt>
      <trkpt lat="46.5413" lon="4.8424">
        <ele>254.8</ele>
        <time>2022-06-25T09:25:08Z</time>
      </trkpt>
      <trkpt lat="46.54124" lon="4.84238">
        <ele>254.8</ele>
        <time>2022-06-25T09:25:09Z</time>
      </trkpt>
      <trkpt lat="46.54122" lon="4.84237">
        <ele>255.2</ele>
        <time>2022-06-25T09:25:10Z</time>
      </trkpt>
      <trkpt lat="46.54117" lon="4.84236">
        <ele>255.2</ele>
        <time>2022-06-25T09:25:11Z</time>
      </trkpt>
      <trkpt lat="46.54112" lon="4.84235">
        <ele>255.6</ele>
        <time>2022-06-25T09:25:12Z</time>
      </trkpt>
      <trkpt lat="46.54108" lon="4.84233">
        <ele>255.6</ele>
        <time>2022-06-25T09:25:13Z</time>
      </trkpt>
      <trkpt lat="46.54103" lon="4.84232">
        <ele>256</ele>
        <time>2022-06-25T09:25:14Z</time>
      </trkpt>
      <trkpt lat="46.54098" lon="4.84231">
        <ele>256</ele>
        <time>2022-06-25T09:25:15Z</time>
      </trkpt>
      <trkpt lat="46.54093" lon="4.84229">
        <ele>256.2</ele>
        <time>2022-06-25T09:25:16Z</time>
      </trkpt>
      <trkpt lat="46.54086" lon="4.84227">
        <ele>256.2</ele>
        <time>2022-06-25T09:25:17Z</time>
      </trkpt>
      <trkpt lat="46.54084" lon="4.84227">
        <ele>256.4</ele>
        <time>2022-06-25T09:25:18Z</time>
      </trkpt>
      <trkpt lat="46.54077" lon="4.84224">
        <ele>256.4</ele>
        <time>2022-06-25T09:25:19Z</time>
      </trkpt>
      <trkpt lat="46.54074" lon="4.84223">
        <ele>256.8</ele>
        <time>2022-06-25T09:25:20Z</time>
      </trkpt>
      <trkpt lat="46.54067" lon="4.84221">
        <ele>256.8</ele>
        <time>2022-06-25T09:25:21Z</time>
      </trkpt>
      <trkpt lat="46.54065" lon="4.8422">
        <ele>257.2</ele>
        <time>2022-06-25T09:25:22Z</time>
      </trkpt>
      <trkpt lat="46.5406" lon="4.84219">
        <ele>257.2</ele>
        <time>2022-06-25T09:25:23Z</time>
      </trkpt>
      <trkpt lat="46.54056" lon="4.84218">
        <ele>257.4</ele>
        <time>2022-06-25T09:25:24Z</time>
      </trkpt>
      <trkpt lat="46.54051" lon="4.84217">
        <ele>257.4</ele>
        <time>2022-06-25T09:25:25Z</time>
      </trkpt>
      <trkpt lat="46.54047" lon="4.84217">
        <ele>258</ele>
        <time>2022-06-25T09:25:26Z</time>
      </trkpt>
      <trkpt lat="46.5404" lon="4.84218">
        <ele>258.2</ele>
        <time>2022-06-25T09:25:27Z</time>
      </trkpt>
      <trkpt lat="46.54038" lon="4.84219">
        <ele>258.4</ele>
        <time>2022-06-25T09:25:28Z</time>
      </trkpt>
      <trkpt lat="46.54031" lon="4.84222">
        <ele>258.4</ele>
        <time>2022-06-25T09:25:29Z</time>
      </trkpt>
      <trkpt lat="46.54029" lon="4.84224">
        <ele>258.8</ele>
        <time>2022-06-25T09:25:30Z</time>
      </trkpt>
      <trkpt lat="46.54025" lon="4.84226">
        <ele>258.8</ele>
        <time>2022-06-25T09:25:31Z</time>
      </trkpt>
      <trkpt lat="46.54021" lon="4.84229">
        <ele>258.8</ele>
        <time>2022-06-25T09:25:32Z</time>
      </trkpt>
      <trkpt lat="46.54017" lon="4.84232">
        <ele>259</ele>
        <time>2022-06-25T09:25:33Z</time>
      </trkpt>
      <trkpt lat="46.54013" lon="4.84234">
        <ele>259</ele>
        <time>2022-06-25T09:25:34Z</time>
      </trkpt>
      <trkpt lat="46.54007" lon="4.84236">
        <ele>259.4</ele>
        <time>2022-06-25T09:25:35Z</time>
      </trkpt>
      <trkpt lat="46.54004" lon="4.84236">
        <ele>259.6</ele>
        <time>2022-06-25T09:25:36Z</time>
      </trkpt>
      <trkpt lat="46.54" lon="4.84236">
        <ele>259.6</ele>
        <time>2022-06-25T09:25:37Z</time>
      </trkpt>
      <trkpt lat="46.53996" lon="4.84236">
        <ele>260</ele>
        <time>2022-06-25T09:25:38Z</time>
      </trkpt>
      <trkpt lat="46.53989" lon="4.84236">
        <ele>260</ele>
        <time>2022-06-25T09:25:39Z</time>
      </trkpt>
      <trkpt lat="46.53987" lon="4.84236">
        <ele>260.2</ele>
        <time>2022-06-25T09:25:40Z</time>
      </trkpt>
      <trkpt lat="46.5398" lon="4.84235">
        <ele>260.4</ele>
        <time>2022-06-25T09:25:41Z</time>
      </trkpt>
      <trkpt lat="46.53978" lon="4.84235">
        <ele>260.4</ele>
        <time>2022-06-25T09:25:42Z</time>
      </trkpt>
      <trkpt lat="46.53974" lon="4.84234">
        <ele>260.8</ele>
        <time>2022-06-25T09:25:43Z</time>
      </trkpt>
      <trkpt lat="46.53969" lon="4.84234">
        <ele>260.8</ele>
        <time>2022-06-25T09:25:44Z</time>
      </trkpt>
      <trkpt lat="46.53965" lon="4.84234">
        <ele>261</ele>
        <time>2022-06-25T09:25:45Z</time>
      </trkpt>
      <trkpt lat="46.53961" lon="4.84233">
        <ele>261</ele>
        <time>2022-06-25T09:25:46Z</time>
      </trkpt>
      <trkpt lat="46.53954" lon="4.84232">
        <ele>261.4</ele>
        <time>2022-06-25T09:25:47Z</time>
      </trkpt>
      <trkpt lat="46.53952" lon="4.84231">
        <ele>261.4</ele>
        <time>2022-06-25T09:25:48Z</time>
      </trkpt>
      <trkpt lat="46.53947" lon="4.8423">
        <ele>261.8</ele>
        <time>2022-06-25T09:25:49Z</time>
      </trkpt>
      <trkpt lat="46.53943" lon="4.84228">
        <ele>261.8</ele>
        <time>2022-06-25T09:25:50Z</time>
      </trkpt>
      <trkpt lat="46.53938" lon="4.84227">
        <ele>261.8</ele>
        <time>2022-06-25T09:25:51Z</time>
      </trkpt>
      <trkpt lat="46.53931" lon="4.84224">
        <ele>261.8</ele>
        <time>2022-06-25T09:25:52Z</time>
      </trkpt>
      <trkpt lat="46.53929" lon="4.84223">
        <ele>262</ele>
        <time>2022-06-25T09:25:53Z</time>
      </trkpt>
      <trkpt lat="46.53924" lon="4.84221">
        <ele>262</ele>
        <time>2022-06-25T09:25:54Z</time>
      </trkpt>
      <trkpt lat="46.53919" lon="4.84218">
        <ele>262</ele>
        <time>2022-06-25T09:25:55Z</time>
      </trkpt>
      <trkpt lat="46.53914" lon="4.84215">
        <ele>262</ele>
        <time>2022-06-25T09:25:56Z</time>
      </trkpt>
      <trkpt lat="46.53907" lon="4.84211">
        <ele>262.4</ele>
        <time>2022-06-25T09:25:57Z</time>
      </trkpt>
      <trkpt lat="46.53904" lon="4.8421">
        <ele>262.4</ele>
        <time>2022-06-25T09:25:58Z</time>
      </trkpt>
      <trkpt lat="46.53897" lon="4.84206">
        <ele>262.4</ele>
        <time>2022-06-25T09:25:59Z</time>
      </trkpt>
      <trkpt lat="46.53894" lon="4.84205">
        <ele>262.6</ele>
        <time>2022-06-25T09:26:00Z</time>
      </trkpt>
      <trkpt lat="46.53889" lon="4.84202">
        <ele>262.6</ele>
        <time>2022-06-25T09:26:01Z</time>
      </trkpt>
      <trkpt lat="46.53882" lon="4.84198">
        <ele>262.6</ele>
        <time>2022-06-25T09:26:02Z</time>
      </trkpt>
      <trkpt lat="46.53879" lon="4.84197">
        <ele>262.8</ele>
        <time>2022-06-25T09:26:03Z</time>
      </trkpt>
      <trkpt lat="46.53875" lon="4.84194">
        <ele>262.8</ele>
        <time>2022-06-25T09:26:04Z</time>
      </trkpt>
      <trkpt lat="46.53867" lon="4.8419">
        <ele>262.8</ele>
        <time>2022-06-25T09:26:05Z</time>
      </trkpt>
      <trkpt lat="46.53865" lon="4.84189">
        <ele>262.8</ele>
        <time>2022-06-25T09:26:06Z</time>
      </trkpt>
      <trkpt lat="46.53858" lon="4.84185">
        <ele>262.8</ele>
        <time>2022-06-25T09:26:07Z</time>
      </trkpt>
      <trkpt lat="46.53855" lon="4.84184">
        <ele>262.8</ele>
        <time>2022-06-25T09:26:08Z</time>
      </trkpt>
      <trkpt lat="46.53851" lon="4.84182">
        <ele>262.8</ele>
        <time>2022-06-25T09:26:09Z</time>
      </trkpt>
      <trkpt lat="46.53846" lon="4.8418">
        <ele>262.8</ele>
        <time>2022-06-25T09:26:10Z</time>
      </trkpt>
      <trkpt lat="46.53838" lon="4.84177">
        <ele>262.8</ele>
        <time>2022-06-25T09:26:11Z</time>
      </trkpt>
      <trkpt lat="46.53836" lon="4.84176">
        <ele>263</ele>
        <time>2022-06-25T09:26:12Z</time>
      </trkpt>
      <trkpt lat="46.5383" lon="4.84174">
        <ele>263</ele>
        <time>2022-06-25T09:26:13Z</time>
      </trkpt>
      <trkpt lat="46.53825" lon="4.84172">
        <ele>263</ele>
        <time>2022-06-25T09:26:14Z</time>
      </trkpt>
      <trkpt lat="46.5382" lon="4.8417">
        <ele>263</ele>
        <time>2022-06-25T09:26:15Z</time>
      </trkpt>
      <trkpt lat="46.53815" lon="4.84168">
        <ele>263</ele>
        <time>2022-06-25T09:26:16Z</time>
      </trkpt>
      <trkpt lat="46.53807" lon="4.84165">
        <ele>263</ele>
        <time>2022-06-25T09:26:17Z</time>
      </trkpt>
      <trkpt lat="46.53804" lon="4.84164">
        <ele>263</ele>
        <time>2022-06-25T09:26:18Z</time>
      </trkpt>
      <trkpt lat="46.53799" lon="4.84162">
        <ele>263</ele>
        <time>2022-06-25T09:26:19Z</time>
      </trkpt>
      <trkpt lat="46.53792" lon="4.8416">
        <ele>263</ele>
        <time>2022-06-25T09:26:20Z</time>
      </trkpt>
      <trkpt lat="46.53789" lon="4.8416">
        <ele>263.2</ele>
        <time>2022-06-25T09:26:21Z</time>
      </trkpt>
      <trkpt lat="46.53781" lon="4.84158">
        <ele>263.2</ele>
        <time>2022-06-25T09:26:22Z</time>
      </trkpt>
      <trkpt lat="46.53779" lon="4.84157">
        <ele>263.2</ele>
        <time>2022-06-25T09:26:23Z</time>
      </trkpt>
      <trkpt lat="46.53773" lon="4.84156">
        <ele>263.2</ele>
        <time>2022-06-25T09:26:24Z</time>
      </trkpt>
      <trkpt lat="46.53768" lon="4.84155">
        <ele>263.2</ele>
        <time>2022-06-25T09:26:25Z</time>
      </trkpt>
      <trkpt lat="46.5376" lon="4.84154">
        <ele>263.2</ele>
        <time>2022-06-25T09:26:26Z</time>
      </trkpt>
      <trkpt lat="46.53758" lon="4.84154">
        <ele>263.2</ele>
        <time>2022-06-25T09:26:27Z</time>
      </trkpt>
      <trkpt lat="46.53752" lon="4.84153">
        <ele>263.2</ele>
        <time>2022-06-25T09:26:28Z</time>
      </trkpt>
      <trkpt lat="46.53744" lon="4.84152">
        <ele>263.2</ele>
        <time>2022-06-25T09:26:29Z</time>
      </trkpt>
      <trkpt lat="46.53741" lon="4.84152">
        <ele>263.2</ele>
        <time>2022-06-25T09:26:30Z</time>
      </trkpt>
      <trkpt lat="46.53735" lon="4.84151">
        <ele>263.2</ele>
        <time>2022-06-25T09:26:31Z</time>
      </trkpt>
      <trkpt lat="46.53727" lon="4.8415">
        <ele>263.2</ele>
        <time>2022-06-25T09:26:32Z</time>
      </trkpt>
      <trkpt lat="46.53724" lon="4.8415">
        <ele>263.2</ele>
        <time>2022-06-25T09:26:33Z</time>
      </trkpt>
      <trkpt lat="46.53718" lon="4.84149">
        <ele>263.2</ele>
        <time>2022-06-25T09:26:34Z</time>
      </trkpt>
      <trkpt lat="46.5371" lon="4.84148">
        <ele>263.2</ele>
        <time>2022-06-25T09:26:35Z</time>
      </trkpt>
      <trkpt lat="46.53707" lon="4.84148">
        <ele>263.4</ele>
        <time>2022-06-25T09:26:36Z</time>
      </trkpt>
      <trkpt lat="46.53699" lon="4.84146">
        <ele>263.4</ele>
        <time>2022-06-25T09:26:37Z</time>
      </trkpt>
      <trkpt lat="46.53696" lon="4.84146">
        <ele>263.4</ele>
        <time>2022-06-25T09:26:38Z</time>
      </trkpt>
      <trkpt lat="46.5369" lon="4.84145">
        <ele>263.4</ele>
        <time>2022-06-25T09:26:39Z</time>
      </trkpt>
      <trkpt lat="46.53685" lon="4.84143">
        <ele>263.4</ele>
        <time>2022-06-25T09:26:40Z</time>
      </trkpt>
      <trkpt lat="46.53677" lon="4.84142">
        <ele>263.8</ele>
        <time>2022-06-25T09:26:41Z</time>
      </trkpt>
      <trkpt lat="46.53674" lon="4.84141">
        <ele>263.8</ele>
        <time>2022-06-25T09:26:42Z</time>
      </trkpt>
      <trkpt lat="46.53668" lon="4.8414">
        <ele>263.8</ele>
        <time>2022-06-25T09:26:43Z</time>
      </trkpt>
      <trkpt lat="46.53663" lon="4.84138">
        <ele>263.8</ele>
        <time>2022-06-25T09:26:44Z</time>
      </trkpt>
      <trkpt lat="46.53654" lon="4.84135">
        <ele>263.8</ele>
        <time>2022-06-25T09:26:45Z</time>
      </trkpt>
      <trkpt lat="46.53652" lon="4.84134">
        <ele>264</ele>
        <time>2022-06-25T09:26:46Z</time>
      </trkpt>
      <trkpt lat="46.53643" lon="4.84131">
        <ele>264</ele>
        <time>2022-06-25T09:26:47Z</time>
      </trkpt>
      <trkpt lat="46.53641" lon="4.8413">
        <ele>264</ele>
        <time>2022-06-25T09:26:48Z</time>
      </trkpt>
      <trkpt lat="46.53635" lon="4.84127">
        <ele>264</ele>
        <time>2022-06-25T09:26:49Z</time>
      </trkpt>
      <trkpt lat="46.5363" lon="4.84124">
        <ele>264</ele>
        <time>2022-06-25T09:26:50Z</time>
      </trkpt>
      <trkpt lat="46.53624" lon="4.84121">
        <ele>264</ele>
        <time>2022-06-25T09:26:51Z</time>
      </trkpt>
      <trkpt lat="46.53617" lon="4.84116">
        <ele>264</ele>
        <time>2022-06-25T09:26:52Z</time>
      </trkpt>
      <trkpt lat="46.53614" lon="4.84115">
        <ele>264</ele>
        <time>2022-06-25T09:26:53Z</time>
      </trkpt>
      <trkpt lat="46.53609" lon="4.84112">
        <ele>264</ele>
        <time>2022-06-25T09:26:54Z</time>
      </trkpt>
      <trkpt lat="46.53601" lon="4.84108">
        <ele>264.2</ele>
        <time>2022-06-25T09:26:55Z</time>
      </trkpt>
      <trkpt lat="46.53598" lon="4.84106">
        <ele>264.2</ele>
        <time>2022-06-25T09:26:56Z</time>
      </trkpt>
      <trkpt lat="46.53593" lon="4.84103">
        <ele>264.2</ele>
        <time>2022-06-25T09:26:57Z</time>
      </trkpt>
      <trkpt lat="46.53587" lon="4.841">
        <ele>264.2</ele>
        <time>2022-06-25T09:26:58Z</time>
      </trkpt>
      <trkpt lat="46.53579" lon="4.84097">
        <ele>264.4</ele>
        <time>2022-06-25T09:26:59Z</time>
      </trkpt>
      <trkpt lat="46.53576" lon="4.84096">
        <ele>264.4</ele>
        <time>2022-06-25T09:27:00Z</time>
      </trkpt>
      <trkpt lat="46.53571" lon="4.84093">
        <ele>264.6</ele>
        <time>2022-06-25T09:27:01Z</time>
      </trkpt>
      <trkpt lat="46.53566" lon="4.84091">
        <ele>264.6</ele>
        <time>2022-06-25T09:27:02Z</time>
      </trkpt>
      <trkpt lat="46.5356" lon="4.84089">
        <ele>264.6</ele>
        <time>2022-06-25T09:27:03Z</time>
      </trkpt>
      <trkpt lat="46.53555" lon="4.84087">
        <ele>264.6</ele>
        <time>2022-06-25T09:27:04Z</time>
      </trkpt>
      <trkpt lat="46.53546" lon="4.84085">
        <ele>264.8</ele>
        <time>2022-06-25T09:27:05Z</time>
      </trkpt>
      <trkpt lat="46.53543" lon="4.84084">
        <ele>264.8</ele>
        <time>2022-06-25T09:27:06Z</time>
      </trkpt>
      <trkpt lat="46.53538" lon="4.84082">
        <ele>264.8</ele>
        <time>2022-06-25T09:27:07Z</time>
      </trkpt>
      <trkpt lat="46.53532" lon="4.8408">
        <ele>264.8</ele>
        <time>2022-06-25T09:27:08Z</time>
      </trkpt>
      <trkpt lat="46.53524" lon="4.84077">
        <ele>265</ele>
        <time>2022-06-25T09:27:09Z</time>
      </trkpt>
      <trkpt lat="46.53521" lon="4.84076">
        <ele>265</ele>
        <time>2022-06-25T09:27:10Z</time>
      </trkpt>
      <trkpt lat="46.53512" lon="4.84074">
        <ele>265</ele>
        <time>2022-06-25T09:27:11Z</time>
      </trkpt>
      <trkpt lat="46.53509" lon="4.84073">
        <ele>265</ele>
        <time>2022-06-25T09:27:12Z</time>
      </trkpt>
      <trkpt lat="46.53504" lon="4.84072">
        <ele>265</ele>
        <time>2022-06-25T09:27:13Z</time>
      </trkpt>
      <trkpt lat="46.53498" lon="4.8407">
        <ele>265</ele>
        <time>2022-06-25T09:27:14Z</time>
      </trkpt>
      <trkpt lat="46.5349" lon="4.84068">
        <ele>265</ele>
        <time>2022-06-25T09:27:15Z</time>
      </trkpt>
      <trkpt lat="46.53487" lon="4.84068">
        <ele>265</ele>
        <time>2022-06-25T09:27:16Z</time>
      </trkpt>
      <trkpt lat="46.53478" lon="4.84067">
        <ele>265</ele>
        <time>2022-06-25T09:27:17Z</time>
      </trkpt>
      <trkpt lat="46.53476" lon="4.84066">
        <ele>265.2</ele>
        <time>2022-06-25T09:27:18Z</time>
      </trkpt>
      <trkpt lat="46.5347" lon="4.84066">
        <ele>265.2</ele>
        <time>2022-06-25T09:27:19Z</time>
      </trkpt>
      <trkpt lat="46.53464" lon="4.84066">
        <ele>265.4</ele>
        <time>2022-06-25T09:27:20Z</time>
      </trkpt>
      <trkpt lat="46.53459" lon="4.84066">
        <ele>265.4</ele>
        <time>2022-06-25T09:27:21Z</time>
      </trkpt>
      <trkpt lat="46.53453" lon="4.84066">
        <ele>265.4</ele>
        <time>2022-06-25T09:27:22Z</time>
      </trkpt>
      <trkpt lat="46.53445" lon="4.84065">
        <ele>265.8</ele>
        <time>2022-06-25T09:27:23Z</time>
      </trkpt>
      <trkpt lat="46.53442" lon="4.84065">
        <ele>265.8</ele>
        <time>2022-06-25T09:27:24Z</time>
      </trkpt>
      <trkpt lat="46.53436" lon="4.84065">
        <ele>265.8</ele>
        <time>2022-06-25T09:27:25Z</time>
      </trkpt>
      <trkpt lat="46.53431" lon="4.84065">
        <ele>266</ele>
        <time>2022-06-25T09:27:26Z</time>
      </trkpt>
      <trkpt lat="46.53425" lon="4.84065">
        <ele>266</ele>
        <time>2022-06-25T09:27:27Z</time>
      </trkpt>
      <trkpt lat="46.53419" lon="4.84065">
        <ele>266.2</ele>
        <time>2022-06-25T09:27:28Z</time>
      </trkpt>
      <trkpt lat="46.53411" lon="4.84065">
        <ele>266.2</ele>
        <time>2022-06-25T09:27:29Z</time>
      </trkpt>
      <trkpt lat="46.53408" lon="4.84065">
        <ele>266.2</ele>
        <time>2022-06-25T09:27:30Z</time>
      </trkpt>
      <trkpt lat="46.53402" lon="4.84065">
        <ele>266.2</ele>
        <time>2022-06-25T09:27:31Z</time>
      </trkpt>
      <trkpt lat="46.53396" lon="4.84064">
        <ele>266.2</ele>
        <time>2022-06-25T09:27:32Z</time>
      </trkpt>
      <trkpt lat="46.53387" lon="4.84063">
        <ele>266.2</ele>
        <time>2022-06-25T09:27:33Z</time>
      </trkpt>
      <trkpt lat="46.53384" lon="4.84062">
        <ele>266.2</ele>
        <time>2022-06-25T09:27:34Z</time>
      </trkpt>
      <trkpt lat="46.53375" lon="4.84061">
        <ele>266.2</ele>
        <time>2022-06-25T09:27:35Z</time>
      </trkpt>
      <trkpt lat="46.53371" lon="4.8406">
        <ele>266.2</ele>
        <time>2022-06-25T09:27:36Z</time>
      </trkpt>
      <trkpt lat="46.53365" lon="4.84059">
        <ele>266.4</ele>
        <time>2022-06-25T09:27:37Z</time>
      </trkpt>
      <trkpt lat="46.53356" lon="4.84057">
        <ele>266.4</ele>
        <time>2022-06-25T09:27:38Z</time>
      </trkpt>
      <trkpt lat="46.53353" lon="4.84056">
        <ele>266.4</ele>
        <time>2022-06-25T09:27:39Z</time>
      </trkpt>
      <trkpt lat="46.53347" lon="4.84055">
        <ele>266.4</ele>
        <time>2022-06-25T09:27:40Z</time>
      </trkpt>
      <trkpt lat="46.53338" lon="4.84052">
        <ele>266.4</ele>
        <time>2022-06-25T09:27:41Z</time>
      </trkpt>
      <trkpt lat="46.53335" lon="4.84051">
        <ele>266.4</ele>
        <time>2022-06-25T09:27:42Z</time>
      </trkpt>
      <trkpt lat="46.53326" lon="4.84048">
        <ele>266.4</ele>
        <time>2022-06-25T09:27:43Z</time>
      </trkpt>
      <trkpt lat="46.53323" lon="4.84047">
        <ele>266.4</ele>
        <time>2022-06-25T09:27:44Z</time>
      </trkpt>
      <trkpt lat="46.53313" lon="4.84045">
        <ele>266.4</ele>
        <time>2022-06-25T09:27:45Z</time>
      </trkpt>
      <trkpt lat="46.5331" lon="4.84044">
        <ele>266.4</ele>
        <time>2022-06-25T09:27:46Z</time>
      </trkpt>
      <trkpt lat="46.53304" lon="4.84042">
        <ele>266.4</ele>
        <time>2022-06-25T09:27:47Z</time>
      </trkpt>
      <trkpt lat="46.53298" lon="4.8404">
        <ele>266.4</ele>
        <time>2022-06-25T09:27:48Z</time>
      </trkpt>
      <trkpt lat="46.53291" lon="4.84037">
        <ele>266.4</ele>
        <time>2022-06-25T09:27:49Z</time>
      </trkpt>
      <trkpt lat="46.53282" lon="4.84033">
        <ele>266.4</ele>
        <time>2022-06-25T09:27:50Z</time>
      </trkpt>
      <trkpt lat="46.53279" lon="4.84032">
        <ele>266.6</ele>
        <time>2022-06-25T09:27:51Z</time>
      </trkpt>
      <trkpt lat="46.5327" lon="4.84028">
        <ele>266.6</ele>
        <time>2022-06-25T09:27:52Z</time>
      </trkpt>
      <trkpt lat="46.53267" lon="4.84026">
        <ele>266.6</ele>
        <time>2022-06-25T09:27:53Z</time>
      </trkpt>
      <trkpt lat="46.53259" lon="4.84022">
        <ele>266.6</ele>
        <time>2022-06-25T09:27:54Z</time>
      </trkpt>
      <trkpt lat="46.53256" lon="4.8402">
        <ele>266.6</ele>
        <time>2022-06-25T09:27:55Z</time>
      </trkpt>
      <trkpt lat="46.53249" lon="4.84017">
        <ele>266.6</ele>
        <time>2022-06-25T09:27:56Z</time>
      </trkpt>
      <trkpt lat="46.53243" lon="4.84014">
        <ele>266.6</ele>
        <time>2022-06-25T09:27:57Z</time>
      </trkpt>
      <trkpt lat="46.53237" lon="4.84011">
        <ele>266.6</ele>
        <time>2022-06-25T09:27:58Z</time>
      </trkpt>
      <trkpt lat="46.53231" lon="4.84008">
        <ele>266.6</ele>
        <time>2022-06-25T09:27:59Z</time>
      </trkpt>
      <trkpt lat="46.53221" lon="4.84003">
        <ele>266.4</ele>
        <time>2022-06-25T09:28:00Z</time>
      </trkpt>
      <trkpt lat="46.53218" lon="4.84001">
        <ele>266.4</ele>
        <time>2022-06-25T09:28:01Z</time>
      </trkpt>
      <trkpt lat="46.53209" lon="4.83996">
        <ele>266</ele>
        <time>2022-06-25T09:28:02Z</time>
      </trkpt>
      <trkpt lat="46.53205" lon="4.83994">
        <ele>266</ele>
        <time>2022-06-25T09:28:03Z</time>
      </trkpt>
      <trkpt lat="46.53199" lon="4.8399">
        <ele>266</ele>
        <time>2022-06-25T09:28:04Z</time>
      </trkpt>
      <trkpt lat="46.53192" lon="4.83987">
        <ele>266</ele>
        <time>2022-06-25T09:28:05Z</time>
      </trkpt>
      <trkpt lat="46.53186" lon="4.83983">
        <ele>266</ele>
        <time>2022-06-25T09:28:06Z</time>
      </trkpt>
      <trkpt lat="46.53179" lon="4.8398">
        <ele>265.8</ele>
        <time>2022-06-25T09:28:07Z</time>
      </trkpt>
      <trkpt lat="46.53173" lon="4.83976">
        <ele>265.8</ele>
        <time>2022-06-25T09:28:08Z</time>
      </trkpt>
      <trkpt lat="46.5316" lon="4.83969">
        <ele>265.8</ele>
        <time>2022-06-25T09:28:10Z</time>
      </trkpt>
      <trkpt lat="46.53153" lon="4.83965">
        <ele>265.6</ele>
        <time>2022-06-25T09:28:11Z</time>
      </trkpt>
      <trkpt lat="46.53147" lon="4.83962">
        <ele>265.6</ele>
        <time>2022-06-25T09:28:12Z</time>
      </trkpt>
      <trkpt lat="46.5314" lon="4.83958">
        <ele>265.6</ele>
        <time>2022-06-25T09:28:13Z</time>
      </trkpt>
      <trkpt lat="46.5313" lon="4.83953">
        <ele>265.6</ele>
        <time>2022-06-25T09:28:14Z</time>
      </trkpt>
      <trkpt lat="46.53127" lon="4.83951">
        <ele>265.6</ele>
        <time>2022-06-25T09:28:15Z</time>
      </trkpt>
      <trkpt lat="46.53121" lon="4.83948">
        <ele>265.6</ele>
        <time>2022-06-25T09:28:16Z</time>
      </trkpt>
      <trkpt lat="46.53115" lon="4.83945">
        <ele>265.6</ele>
        <time>2022-06-25T09:28:17Z</time>
      </trkpt>
      <trkpt lat="46.53109" lon="4.83942">
        <ele>265.6</ele>
        <time>2022-06-25T09:28:18Z</time>
      </trkpt>
      <trkpt lat="46.53103" lon="4.83939">
        <ele>265.6</ele>
        <time>2022-06-25T09:28:19Z</time>
      </trkpt>
      <trkpt lat="46.53097" lon="4.83935">
        <ele>265.6</ele>
        <time>2022-06-25T09:28:20Z</time>
      </trkpt>
      <trkpt lat="46.53092" lon="4.83932">
        <ele>265.6</ele>
        <time>2022-06-25T09:28:21Z</time>
      </trkpt>
      <trkpt lat="46.53086" lon="4.83929">
        <ele>265.6</ele>
        <time>2022-06-25T09:28:22Z</time>
      </trkpt>
      <trkpt lat="46.53078" lon="4.83924">
        <ele>265.6</ele>
        <time>2022-06-25T09:28:23Z</time>
      </trkpt>
      <trkpt lat="46.53076" lon="4.83923">
        <ele>265.6</ele>
        <time>2022-06-25T09:28:24Z</time>
      </trkpt>
      <trkpt lat="46.53068" lon="4.8392">
        <ele>265.6</ele>
        <time>2022-06-25T09:28:25Z</time>
      </trkpt>
      <trkpt lat="46.53066" lon="4.8392">
        <ele>265.8</ele>
        <time>2022-06-25T09:28:26Z</time>
      </trkpt>
      <trkpt lat="46.53059" lon="4.83922">
        <ele>265.8</ele>
        <time>2022-06-25T09:28:27Z</time>
      </trkpt>
      <trkpt lat="46.53057" lon="4.83923">
        <ele>266.2</ele>
        <time>2022-06-25T09:28:28Z</time>
      </trkpt>
      <trkpt lat="46.53054" lon="4.83926">
        <ele>266.2</ele>
        <time>2022-06-25T09:28:29Z</time>
      </trkpt>
      <trkpt lat="46.53051" lon="4.83931">
        <ele>266.4</ele>
        <time>2022-06-25T09:28:30Z</time>
      </trkpt>
      <trkpt lat="46.53049" lon="4.83937">
        <ele>266.4</ele>
        <time>2022-06-25T09:28:31Z</time>
      </trkpt>
      <trkpt lat="46.53046" lon="4.83942">
        <ele>266.4</ele>
        <time>2022-06-25T09:28:32Z</time>
      </trkpt>
      <trkpt lat="46.53042" lon="4.83951">
        <ele>266.4</ele>
        <time>2022-06-25T09:28:33Z</time>
      </trkpt>
      <trkpt lat="46.53041" lon="4.83954">
        <ele>266.6</ele>
        <time>2022-06-25T09:28:34Z</time>
      </trkpt>
      <trkpt lat="46.53039" lon="4.8396">
        <ele>266.6</ele>
        <time>2022-06-25T09:28:35Z</time>
      </trkpt>
      <trkpt lat="46.53034" lon="4.8397">
        <ele>266.6</ele>
        <time>2022-06-25T09:28:36Z</time>
      </trkpt>
      <trkpt lat="46.53032" lon="4.83975">
        <ele>266.6</ele>
        <time>2022-06-25T09:28:37Z</time>
      </trkpt>
      <trkpt lat="46.5303" lon="4.83979">
        <ele>266.8</ele>
        <time>2022-06-25T09:28:38Z</time>
      </trkpt>
      <trkpt lat="46.53028" lon="4.83983">
        <ele>266.8</ele>
        <time>2022-06-25T09:28:39Z</time>
      </trkpt>
      <trkpt lat="46.53025" lon="4.83986">
        <ele>267.2</ele>
        <time>2022-06-25T09:28:40Z</time>
      </trkpt>
      <trkpt lat="46.53023" lon="4.83989">
        <ele>267.2</ele>
        <time>2022-06-25T09:28:41Z</time>
      </trkpt>
      <trkpt lat="46.53021" lon="4.83992">
        <ele>267.2</ele>
        <time>2022-06-25T09:28:42Z</time>
      </trkpt>
      <trkpt lat="46.53018" lon="4.83994">
        <ele>267.2</ele>
        <time>2022-06-25T09:28:43Z</time>
      </trkpt>
      <trkpt lat="46.53016" lon="4.83997">
        <ele>267.4</ele>
        <time>2022-06-25T09:28:44Z</time>
      </trkpt>
      <trkpt lat="46.53014" lon="4.83999">
        <ele>267.4</ele>
        <time>2022-06-25T09:28:45Z</time>
      </trkpt>
      <trkpt lat="46.53011" lon="4.84001">
        <ele>267.4</ele>
        <time>2022-06-25T09:28:46Z</time>
      </trkpt>
      <trkpt lat="46.53008" lon="4.84003">
        <ele>267.4</ele>
        <time>2022-06-25T09:28:47Z</time>
      </trkpt>
      <trkpt lat="46.53006" lon="4.84005">
        <ele>267.4</ele>
        <time>2022-06-25T09:28:48Z</time>
      </trkpt>
      <trkpt lat="46.53004" lon="4.84006">
        <ele>267.4</ele>
        <time>2022-06-25T09:28:49Z</time>
      </trkpt>
      <trkpt lat="46.53001" lon="4.84007">
        <ele>267.4</ele>
        <time>2022-06-25T09:28:50Z</time>
      </trkpt>
      <trkpt lat="46.52999" lon="4.84008">
        <ele>267.4</ele>
        <time>2022-06-25T09:28:51Z</time>
      </trkpt>
      <trkpt lat="46.52997" lon="4.84008">
        <ele>267.4</ele>
        <time>2022-06-25T09:28:52Z</time>
      </trkpt>
      <trkpt lat="46.52996" lon="4.84009">
        <ele>267.4</ele>
        <time>2022-06-25T09:28:53Z</time>
      </trkpt>
      <trkpt lat="46.52994" lon="4.84009">
        <ele>267.4</ele>
        <time>2022-06-25T09:28:54Z</time>
      </trkpt>
      <trkpt lat="46.52992" lon="4.8401">
        <ele>267.4</ele>
        <time>2022-06-25T09:28:55Z</time>
      </trkpt>
      <trkpt lat="46.5299" lon="4.8401">
        <ele>267.6</ele>
        <time>2022-06-25T09:28:56Z</time>
      </trkpt>
      <trkpt lat="46.52988" lon="4.8401">
        <ele>267.6</ele>
        <time>2022-06-25T09:28:57Z</time>
      </trkpt>
      <trkpt lat="46.52986" lon="4.84011">
        <ele>267.6</ele>
        <time>2022-06-25T09:28:58Z</time>
      </trkpt>
      <trkpt lat="46.52984" lon="4.8401">
        <ele>267.8</ele>
        <time>2022-06-25T09:28:59Z</time>
      </trkpt>
      <trkpt lat="46.52982" lon="4.8401">
        <ele>267.8</ele>
        <time>2022-06-25T09:29:00Z</time>
      </trkpt>
      <trkpt lat="46.52979" lon="4.8401">
        <ele>267.8</ele>
        <time>2022-06-25T09:29:01Z</time>
      </trkpt>
      <trkpt lat="46.52977" lon="4.84011">
        <ele>267.8</ele>
        <time>2022-06-25T09:29:02Z</time>
      </trkpt>
      <trkpt lat="46.52974" lon="4.84011">
        <ele>267.8</ele>
        <time>2022-06-25T09:29:03Z</time>
      </trkpt>
      <trkpt lat="46.52971" lon="4.84011">
        <ele>268</ele>
        <time>2022-06-25T09:29:04Z</time>
      </trkpt>
      <trkpt lat="46.52968" lon="4.84012">
        <ele>268</ele>
        <time>2022-06-25T09:29:05Z</time>
      </trkpt>
      <trkpt lat="46.52965" lon="4.84012">
        <ele>268</ele>
        <time>2022-06-25T09:29:06Z</time>
      </trkpt>
      <trkpt lat="46.52961" lon="4.84013">
        <ele>268</ele>
        <time>2022-06-25T09:29:07Z</time>
      </trkpt>
      <trkpt lat="46.52958" lon="4.84013">
        <ele>268</ele>
        <time>2022-06-25T09:29:08Z</time>
      </trkpt>
      <trkpt lat="46.52954" lon="4.84013">
        <ele>268</ele>
        <time>2022-06-25T09:29:09Z</time>
      </trkpt>
      <trkpt lat="46.5295" lon="4.84014">
        <ele>268.2</ele>
        <time>2022-06-25T09:29:10Z</time>
      </trkpt>
      <trkpt lat="46.52946" lon="4.84015">
        <ele>268.2</ele>
        <time>2022-06-25T09:29:11Z</time>
      </trkpt>
      <trkpt lat="46.52943" lon="4.84015">
        <ele>268.4</ele>
        <time>2022-06-25T09:29:12Z</time>
      </trkpt>
      <trkpt lat="46.52938" lon="4.84016">
        <ele>268.4</ele>
        <time>2022-06-25T09:29:13Z</time>
      </trkpt>
      <trkpt lat="46.52934" lon="4.84017">
        <ele>268.6</ele>
        <time>2022-06-25T09:29:14Z</time>
      </trkpt>
      <trkpt lat="46.5293" lon="4.84017">
        <ele>268.6</ele>
        <time>2022-06-25T09:29:15Z</time>
      </trkpt>
      <trkpt lat="46.52926" lon="4.84018">
        <ele>268.8</ele>
        <time>2022-06-25T09:29:16Z</time>
      </trkpt>
      <trkpt lat="46.52921" lon="4.84019">
        <ele>268.8</ele>
        <time>2022-06-25T09:29:17Z</time>
      </trkpt>
      <trkpt lat="46.52917" lon="4.84019">
        <ele>268.8</ele>
        <time>2022-06-25T09:29:18Z</time>
      </trkpt>
      <trkpt lat="46.52913" lon="4.84019">
        <ele>268.8</ele>
        <time>2022-06-25T09:29:19Z</time>
      </trkpt>
      <trkpt lat="46.52908" lon="4.84019">
        <ele>269</ele>
        <time>2022-06-25T09:29:20Z</time>
      </trkpt>
      <trkpt lat="46.52904" lon="4.8402">
        <ele>269</ele>
        <time>2022-06-25T09:29:21Z</time>
      </trkpt>
      <trkpt lat="46.52899" lon="4.8402">
        <ele>269.4</ele>
        <time>2022-06-25T09:29:22Z</time>
      </trkpt>
      <trkpt lat="46.52895" lon="4.84021">
        <ele>269.4</ele>
        <time>2022-06-25T09:29:23Z</time>
      </trkpt>
      <trkpt lat="46.5289" lon="4.84022">
        <ele>269.6</ele>
        <time>2022-06-25T09:29:24Z</time>
      </trkpt>
      <trkpt lat="46.52885" lon="4.84022">
        <ele>269.6</ele>
        <time>2022-06-25T09:29:25Z</time>
      </trkpt>
      <trkpt lat="46.52881" lon="4.84022">
        <ele>269.6</ele>
        <time>2022-06-25T09:29:26Z</time>
      </trkpt>
      <trkpt lat="46.52876" lon="4.84023">
        <ele>269.8</ele>
        <time>2022-06-25T09:29:27Z</time>
      </trkpt>
      <trkpt lat="46.52871" lon="4.84023">
        <ele>269.8</ele>
        <time>2022-06-25T09:29:28Z</time>
      </trkpt>
      <trkpt lat="46.52867" lon="4.84024">
        <ele>269.8</ele>
        <time>2022-06-25T09:29:29Z</time>
      </trkpt>
      <trkpt lat="46.52862" lon="4.84024">
        <ele>270</ele>
        <time>2022-06-25T09:29:30Z</time>
      </trkpt>
      <trkpt lat="46.52858" lon="4.84024">
        <ele>270</ele>
        <time>2022-06-25T09:29:31Z</time>
      </trkpt>
      <trkpt lat="46.52854" lon="4.84024">
        <ele>270</ele>
        <time>2022-06-25T09:29:32Z</time>
      </trkpt>
      <trkpt lat="46.52849" lon="4.84024">
        <ele>270</ele>
        <time>2022-06-25T09:29:33Z</time>
      </trkpt>
      <trkpt lat="46.52845" lon="4.84023">
        <ele>270</ele>
        <time>2022-06-25T09:29:34Z</time>
      </trkpt>
      <trkpt lat="46.5284" lon="4.84023">
        <ele>270.4</ele>
        <time>2022-06-25T09:29:35Z</time>
      </trkpt>
      <trkpt lat="46.52836" lon="4.84023">
        <ele>270.4</ele>
        <time>2022-06-25T09:29:36Z</time>
      </trkpt>
      <trkpt lat="46.52831" lon="4.84022">
        <ele>270.4</ele>
        <time>2022-06-25T09:29:37Z</time>
      </trkpt>
      <trkpt lat="46.52826" lon="4.84021">
        <ele>270.4</ele>
        <time>2022-06-25T09:29:38Z</time>
      </trkpt>
      <trkpt lat="46.52821" lon="4.8402">
        <ele>270.6</ele>
        <time>2022-06-25T09:29:39Z</time>
      </trkpt>
      <trkpt lat="46.52816" lon="4.84019">
        <ele>270.6</ele>
        <time>2022-06-25T09:29:40Z</time>
      </trkpt>
      <trkpt lat="46.52811" lon="4.84019">
        <ele>270.6</ele>
        <time>2022-06-25T09:29:41Z</time>
      </trkpt>
      <trkpt lat="46.52806" lon="4.84018">
        <ele>271</ele>
        <time>2022-06-25T09:29:42Z</time>
      </trkpt>
      <trkpt lat="46.52801" lon="4.84017">
        <ele>271</ele>
        <time>2022-06-25T09:29:43Z</time>
      </trkpt>
      <trkpt lat="46.52797" lon="4.84017">
        <ele>271</ele>
        <time>2022-06-25T09:29:44Z</time>
      </trkpt>
      <trkpt lat="46.52792" lon="4.84016">
        <ele>271.4</ele>
        <time>2022-06-25T09:29:45Z</time>
      </trkpt>
      <trkpt lat="46.52788" lon="4.84016">
        <ele>271.4</ele>
        <time>2022-06-25T09:29:46Z</time>
      </trkpt>
      <trkpt lat="46.52783" lon="4.84015">
        <ele>271.4</ele>
        <time>2022-06-25T09:29:47Z</time>
      </trkpt>
      <trkpt lat="46.52779" lon="4.84014">
        <ele>271.6</ele>
        <time>2022-06-25T09:29:48Z</time>
      </trkpt>
      <trkpt lat="46.52775" lon="4.84013">
        <ele>271.6</ele>
        <time>2022-06-25T09:29:49Z</time>
      </trkpt>
      <trkpt lat="46.52771" lon="4.84012">
        <ele>271.6</ele>
        <time>2022-06-25T09:29:50Z</time>
      </trkpt>
      <trkpt lat="46.52767" lon="4.84011">
        <ele>272</ele>
        <time>2022-06-25T09:29:51Z</time>
      </trkpt>
      <trkpt lat="46.52762" lon="4.8401">
        <ele>272</ele>
        <time>2022-06-25T09:29:52Z</time>
      </trkpt>
      <trkpt lat="46.52758" lon="4.84009">
        <ele>272</ele>
        <time>2022-06-25T09:29:53Z</time>
      </trkpt>
      <trkpt lat="46.52754" lon="4.84009">
        <ele>272.2</ele>
        <time>2022-06-25T09:29:54Z</time>
      </trkpt>
      <trkpt lat="46.5275" lon="4.84008">
        <ele>272.2</ele>
        <time>2022-06-25T09:29:55Z</time>
      </trkpt>
      <trkpt lat="46.52746" lon="4.84007">
        <ele>272.4</ele>
        <time>2022-06-25T09:29:56Z</time>
      </trkpt>
      <trkpt lat="46.52741" lon="4.84006">
        <ele>272.4</ele>
        <time>2022-06-25T09:29:57Z</time>
      </trkpt>
      <trkpt lat="46.52737" lon="4.84005">
        <ele>272.6</ele>
        <time>2022-06-25T09:29:58Z</time>
      </trkpt>
      <trkpt lat="46.52733" lon="4.84004">
        <ele>272.6</ele>
        <time>2022-06-25T09:29:59Z</time>
      </trkpt>
      <trkpt lat="46.52729" lon="4.84004">
        <ele>272.6</ele>
        <time>2022-06-25T09:30:00Z</time>
      </trkpt>
      <trkpt lat="46.52724" lon="4.84003">
        <ele>273</ele>
        <time>2022-06-25T09:30:01Z</time>
      </trkpt>
      <trkpt lat="46.5272" lon="4.84002">
        <ele>273</ele>
        <time>2022-06-25T09:30:02Z</time>
      </trkpt>
      <trkpt lat="46.52716" lon="4.84002">
        <ele>273.2</ele>
        <time>2022-06-25T09:30:03Z</time>
      </trkpt>
      <trkpt lat="46.52712" lon="4.84001">
        <ele>273.2</ele>
        <time>2022-06-25T09:30:04Z</time>
      </trkpt>
      <trkpt lat="46.52708" lon="4.84">
        <ele>273.6</ele>
        <time>2022-06-25T09:30:05Z</time>
      </trkpt>
      <trkpt lat="46.52704" lon="4.83999">
        <ele>273.6</ele>
        <time>2022-06-25T09:30:06Z</time>
      </trkpt>
      <trkpt lat="46.527" lon="4.83998">
        <ele>273.8</ele>
        <time>2022-06-25T09:30:07Z</time>
      </trkpt>
      <trkpt lat="46.52696" lon="4.83998">
        <ele>273.8</ele>
        <time>2022-06-25T09:30:08Z</time>
      </trkpt>
      <trkpt lat="46.52692" lon="4.83997">
        <ele>274.2</ele>
        <time>2022-06-25T09:30:09Z</time>
      </trkpt>
      <trkpt lat="46.52688" lon="4.83996">
        <ele>274.2</ele>
        <time>2022-06-25T09:30:10Z</time>
      </trkpt>
      <trkpt lat="46.52684" lon="4.83995">
        <ele>274.2</ele>
        <time>2022-06-25T09:30:11Z</time>
      </trkpt>
      <trkpt lat="46.5268" lon="4.83994">
        <ele>274.4</ele>
        <time>2022-06-25T09:30:12Z</time>
      </trkpt>
      <trkpt lat="46.52676" lon="4.83994">
        <ele>274.4</ele>
        <time>2022-06-25T09:30:13Z</time>
      </trkpt>
      <trkpt lat="46.52672" lon="4.83993">
        <ele>274.8</ele>
        <time>2022-06-25T09:30:14Z</time>
      </trkpt>
      <trkpt lat="46.52668" lon="4.83993">
        <ele>274.8</ele>
        <time>2022-06-25T09:30:15Z</time>
      </trkpt>
      <trkpt lat="46.52664" lon="4.83991">
        <ele>275</ele>
        <time>2022-06-25T09:30:16Z</time>
      </trkpt>
      <trkpt lat="46.5266" lon="4.8399">
        <ele>275</ele>
        <time>2022-06-25T09:30:17Z</time>
      </trkpt>
      <trkpt lat="46.52657" lon="4.83989">
        <ele>275.4</ele>
        <time>2022-06-25T09:30:18Z</time>
      </trkpt>
      <trkpt lat="46.52652" lon="4.83987">
        <ele>275.4</ele>
        <time>2022-06-25T09:30:19Z</time>
      </trkpt>
      <trkpt lat="46.52648" lon="4.83987">
        <ele>275.6</ele>
        <time>2022-06-25T09:30:20Z</time>
      </trkpt>
      <trkpt lat="46.52644" lon="4.83986">
        <ele>275.6</ele>
        <time>2022-06-25T09:30:21Z</time>
      </trkpt>
      <trkpt lat="46.5264" lon="4.83986">
        <ele>275.8</ele>
        <time>2022-06-25T09:30:22Z</time>
      </trkpt>
      <trkpt lat="46.52636" lon="4.83985">
        <ele>275.8</ele>
        <time>2022-06-25T09:30:23Z</time>
      </trkpt>
      <trkpt lat="46.52631" lon="4.83984">
        <ele>276.2</ele>
        <time>2022-06-25T09:30:24Z</time>
      </trkpt>
      <trkpt lat="46.52627" lon="4.83984">
        <ele>276.2</ele>
        <time>2022-06-25T09:30:25Z</time>
      </trkpt>
      <trkpt lat="46.52623" lon="4.83983">
        <ele>276.6</ele>
        <time>2022-06-25T09:30:27Z</time>
      </trkpt>
      <trkpt lat="46.52618" lon="4.83982">
        <ele>276.8</ele>
        <time>2022-06-25T09:30:28Z</time>
      </trkpt>
      <trkpt lat="46.52614" lon="4.83981">
        <ele>276.8</ele>
        <time>2022-06-25T09:30:29Z</time>
      </trkpt>
      <trkpt lat="46.5261" lon="4.8398">
        <ele>277.2</ele>
        <time>2022-06-25T09:30:30Z</time>
      </trkpt>
      <trkpt lat="46.52606" lon="4.83979">
        <ele>277.2</ele>
        <time>2022-06-25T09:30:31Z</time>
      </trkpt>
      <trkpt lat="46.52602" lon="4.83979">
        <ele>277.4</ele>
        <time>2022-06-25T09:30:32Z</time>
      </trkpt>
      <trkpt lat="46.52597" lon="4.83978">
        <ele>277.4</ele>
        <time>2022-06-25T09:30:33Z</time>
      </trkpt>
      <trkpt lat="46.52593" lon="4.83977">
        <ele>277.4</ele>
        <time>2022-06-25T09:30:34Z</time>
      </trkpt>
      <trkpt lat="46.52589" lon="4.83976">
        <ele>277.6</ele>
        <time>2022-06-25T09:30:35Z</time>
      </trkpt>
      <trkpt lat="46.52584" lon="4.83975">
        <ele>277.6</ele>
        <time>2022-06-25T09:30:36Z</time>
      </trkpt>
      <trkpt lat="46.5258" lon="4.83974">
        <ele>277.8</ele>
        <time>2022-06-25T09:30:37Z</time>
      </trkpt>
      <trkpt lat="46.52576" lon="4.83972">
        <ele>277.8</ele>
        <time>2022-06-25T09:30:38Z</time>
      </trkpt>
      <trkpt lat="46.52571" lon="4.83971">
        <ele>278.2</ele>
        <time>2022-06-25T09:30:39Z</time>
      </trkpt>
      <trkpt lat="46.52567" lon="4.83969">
        <ele>278.2</ele>
        <time>2022-06-25T09:30:40Z</time>
      </trkpt>
      <trkpt lat="46.52563" lon="4.83967">
        <ele>278.2</ele>
        <time>2022-06-25T09:30:41Z</time>
      </trkpt>
      <trkpt lat="46.52559" lon="4.83965">
        <ele>278.6</ele>
        <time>2022-06-25T09:30:42Z</time>
      </trkpt>
      <trkpt lat="46.52555" lon="4.83963">
        <ele>278.6</ele>
        <time>2022-06-25T09:30:43Z</time>
      </trkpt>
      <trkpt lat="46.52551" lon="4.83961">
        <ele>278.8</ele>
        <time>2022-06-25T09:30:44Z</time>
      </trkpt>
      <trkpt lat="46.52547" lon="4.83959">
        <ele>278.8</ele>
        <time>2022-06-25T09:30:45Z</time>
      </trkpt>
      <trkpt lat="46.52543" lon="4.83957">
        <ele>279</ele>
        <time>2022-06-25T09:30:46Z</time>
      </trkpt>
      <trkpt lat="46.52539" lon="4.83954">
        <ele>279</ele>
        <time>2022-06-25T09:30:47Z</time>
      </trkpt>
      <trkpt lat="46.52535" lon="4.83951">
        <ele>279</ele>
        <time>2022-06-25T09:30:48Z</time>
      </trkpt>
      <trkpt lat="46.52531" lon="4.83949">
        <ele>279</ele>
        <time>2022-06-25T09:30:49Z</time>
      </trkpt>
      <trkpt lat="46.52527" lon="4.83947">
        <ele>279</ele>
        <time>2022-06-25T09:30:50Z</time>
      </trkpt>
      <trkpt lat="46.52524" lon="4.83944">
        <ele>279.2</ele>
        <time>2022-06-25T09:30:51Z</time>
      </trkpt>
      <trkpt lat="46.5252" lon="4.83941">
        <ele>279.2</ele>
        <time>2022-06-25T09:30:52Z</time>
      </trkpt>
      <trkpt lat="46.52517" lon="4.83938">
        <ele>279.4</ele>
        <time>2022-06-25T09:30:53Z</time>
      </trkpt>
      <trkpt lat="46.52513" lon="4.83935">
        <ele>279.4</ele>
        <time>2022-06-25T09:30:54Z</time>
      </trkpt>
      <trkpt lat="46.52509" lon="4.83932">
        <ele>279.8</ele>
        <time>2022-06-25T09:30:55Z</time>
      </trkpt>
      <trkpt lat="46.52506" lon="4.8393">
        <ele>279.8</ele>
        <time>2022-06-25T09:30:56Z</time>
      </trkpt>
      <trkpt lat="46.52502" lon="4.83927">
        <ele>280</ele>
        <time>2022-06-25T09:30:57Z</time>
      </trkpt>
      <trkpt lat="46.52499" lon="4.83925">
        <ele>280</ele>
        <time>2022-06-25T09:30:58Z</time>
      </trkpt>
      <trkpt lat="46.52495" lon="4.83922">
        <ele>280.2</ele>
        <time>2022-06-25T09:30:59Z</time>
      </trkpt>
      <trkpt lat="46.52492" lon="4.8392">
        <ele>280.2</ele>
        <time>2022-06-25T09:31:00Z</time>
      </trkpt>
      <trkpt lat="46.52488" lon="4.83917">
        <ele>280.6</ele>
        <time>2022-06-25T09:31:01Z</time>
      </trkpt>
      <trkpt lat="46.52484" lon="4.83914">
        <ele>280.6</ele>
        <time>2022-06-25T09:31:02Z</time>
      </trkpt>
      <trkpt lat="46.52481" lon="4.83911">
        <ele>280.8</ele>
        <time>2022-06-25T09:31:03Z</time>
      </trkpt>
      <trkpt lat="46.52477" lon="4.83909">
        <ele>280.8</ele>
        <time>2022-06-25T09:31:04Z</time>
      </trkpt>
      <trkpt lat="46.52473" lon="4.83906">
        <ele>281</ele>
        <time>2022-06-25T09:31:05Z</time>
      </trkpt>
      <trkpt lat="46.5247" lon="4.83903">
        <ele>281</ele>
        <time>2022-06-25T09:31:06Z</time>
      </trkpt>
      <trkpt lat="46.52466" lon="4.839">
        <ele>281.4</ele>
        <time>2022-06-25T09:31:07Z</time>
      </trkpt>
      <trkpt lat="46.52462" lon="4.83898">
        <ele>281.4</ele>
        <time>2022-06-25T09:31:08Z</time>
      </trkpt>
      <trkpt lat="46.52458" lon="4.83895">
        <ele>281.8</ele>
        <time>2022-06-25T09:31:09Z</time>
      </trkpt>
      <trkpt lat="46.52455" lon="4.83893">
        <ele>281.8</ele>
        <time>2022-06-25T09:31:10Z</time>
      </trkpt>
      <trkpt lat="46.52451" lon="4.8389">
        <ele>282</ele>
        <time>2022-06-25T09:31:11Z</time>
      </trkpt>
      <trkpt lat="46.52447" lon="4.83887">
        <ele>282</ele>
        <time>2022-06-25T09:31:12Z</time>
      </trkpt>
      <trkpt lat="46.52444" lon="4.83884">
        <ele>282.2</ele>
        <time>2022-06-25T09:31:13Z</time>
      </trkpt>
      <trkpt lat="46.5244" lon="4.83881">
        <ele>282.2</ele>
        <time>2022-06-25T09:31:14Z</time>
      </trkpt>
      <trkpt lat="46.52437" lon="4.83878">
        <ele>282.2</ele>
        <time>2022-06-25T09:31:15Z</time>
      </trkpt>
      <trkpt lat="46.52433" lon="4.83875">
        <ele>282.4</ele>
        <time>2022-06-25T09:31:16Z</time>
      </trkpt>
      <trkpt lat="46.5243" lon="4.83871">
        <ele>282.4</ele>
        <time>2022-06-25T09:31:17Z</time>
      </trkpt>
      <trkpt lat="46.52426" lon="4.83868">
        <ele>282.8</ele>
        <time>2022-06-25T09:31:18Z</time>
      </trkpt>
      <trkpt lat="46.52423" lon="4.83866">
        <ele>282.8</ele>
        <time>2022-06-25T09:31:19Z</time>
      </trkpt>
      <trkpt lat="46.52419" lon="4.83863">
        <ele>282.8</ele>
        <time>2022-06-25T09:31:20Z</time>
      </trkpt>
      <trkpt lat="46.52415" lon="4.8386">
        <ele>283</ele>
        <time>2022-06-25T09:31:21Z</time>
      </trkpt>
      <trkpt lat="46.52411" lon="4.83857">
        <ele>283</ele>
        <time>2022-06-25T09:31:22Z</time>
      </trkpt>
      <trkpt lat="46.52408" lon="4.83854">
        <ele>283.4</ele>
        <time>2022-06-25T09:31:23Z</time>
      </trkpt>
      <trkpt lat="46.52404" lon="4.83852">
        <ele>283.4</ele>
        <time>2022-06-25T09:31:24Z</time>
      </trkpt>
      <trkpt lat="46.524" lon="4.83849">
        <ele>283.4</ele>
        <time>2022-06-25T09:31:25Z</time>
      </trkpt>
      <trkpt lat="46.52396" lon="4.83847">
        <ele>283.6</ele>
        <time>2022-06-25T09:31:26Z</time>
      </trkpt>
      <trkpt lat="46.52392" lon="4.83845">
        <ele>283.6</ele>
        <time>2022-06-25T09:31:27Z</time>
      </trkpt>
      <trkpt lat="46.52388" lon="4.83844">
        <ele>284</ele>
        <time>2022-06-25T09:31:28Z</time>
      </trkpt>
      <trkpt lat="46.52384" lon="4.83843">
        <ele>284</ele>
        <time>2022-06-25T09:31:29Z</time>
      </trkpt>
      <trkpt lat="46.5238" lon="4.83844">
        <ele>284.2</ele>
        <time>2022-06-25T09:31:30Z</time>
      </trkpt>
      <trkpt lat="46.52377" lon="4.83847">
        <ele>284.2</ele>
        <time>2022-06-25T09:31:31Z</time>
      </trkpt>
      <trkpt lat="46.52374" lon="4.8385">
        <ele>284.4</ele>
        <time>2022-06-25T09:31:32Z</time>
      </trkpt>
      <trkpt lat="46.52371" lon="4.83854">
        <ele>284.6</ele>
        <time>2022-06-25T09:31:33Z</time>
      </trkpt>
      <trkpt lat="46.52368" lon="4.83858">
        <ele>284.6</ele>
        <time>2022-06-25T09:31:34Z</time>
      </trkpt>
      <trkpt lat="46.52365" lon="4.83861">
        <ele>285</ele>
        <time>2022-06-25T09:31:35Z</time>
      </trkpt>
      <trkpt lat="46.52361" lon="4.83863">
        <ele>285.2</ele>
        <time>2022-06-25T09:31:36Z</time>
      </trkpt>
      <trkpt lat="46.52357" lon="4.83865">
        <ele>285.4</ele>
        <time>2022-06-25T09:31:37Z</time>
      </trkpt>
      <trkpt lat="46.52354" lon="4.83865">
        <ele>285.4</ele>
        <time>2022-06-25T09:31:38Z</time>
      </trkpt>
      <trkpt lat="46.5235" lon="4.83864">
        <ele>285.8</ele>
        <time>2022-06-25T09:31:39Z</time>
      </trkpt>
      <trkpt lat="46.52347" lon="4.83862">
        <ele>285.8</ele>
        <time>2022-06-25T09:31:40Z</time>
      </trkpt>
      <trkpt lat="46.52344" lon="4.8386">
        <ele>286.2</ele>
        <time>2022-06-25T09:31:41Z</time>
      </trkpt>
      <trkpt lat="46.5234" lon="4.83858">
        <ele>286.2</ele>
        <time>2022-06-25T09:31:42Z</time>
      </trkpt>
      <trkpt lat="46.52337" lon="4.83855">
        <ele>286.6</ele>
        <time>2022-06-25T09:31:43Z</time>
      </trkpt>
      <trkpt lat="46.52333" lon="4.83853">
        <ele>286.6</ele>
        <time>2022-06-25T09:31:44Z</time>
      </trkpt>
      <trkpt lat="46.5233" lon="4.8385">
        <ele>287</ele>
        <time>2022-06-25T09:31:45Z</time>
      </trkpt>
      <trkpt lat="46.52326" lon="4.83847">
        <ele>287</ele>
        <time>2022-06-25T09:31:46Z</time>
      </trkpt>
      <trkpt lat="46.52322" lon="4.83845">
        <ele>287.2</ele>
        <time>2022-06-25T09:31:47Z</time>
      </trkpt>
      <trkpt lat="46.52318" lon="4.83843">
        <ele>287.2</ele>
        <time>2022-06-25T09:31:48Z</time>
      </trkpt>
      <trkpt lat="46.52315" lon="4.8384">
        <ele>287.4</ele>
        <time>2022-06-25T09:31:49Z</time>
      </trkpt>
      <trkpt lat="46.52311" lon="4.83837">
        <ele>287.4</ele>
        <time>2022-06-25T09:31:50Z</time>
      </trkpt>
      <trkpt lat="46.52308" lon="4.83835">
        <ele>287.8</ele>
        <time>2022-06-25T09:31:51Z</time>
      </trkpt>
      <trkpt lat="46.52304" lon="4.83832">
        <ele>287.8</ele>
        <time>2022-06-25T09:31:52Z</time>
      </trkpt>
      <trkpt lat="46.52301" lon="4.83829">
        <ele>288.2</ele>
        <time>2022-06-25T09:31:53Z</time>
      </trkpt>
      <trkpt lat="46.52297" lon="4.83827">
        <ele>288.2</ele>
        <time>2022-06-25T09:31:54Z</time>
      </trkpt>
      <trkpt lat="46.52294" lon="4.83824">
        <ele>288.4</ele>
        <time>2022-06-25T09:31:55Z</time>
      </trkpt>
      <trkpt lat="46.5229" lon="4.83821">
        <ele>288.4</ele>
        <time>2022-06-25T09:31:56Z</time>
      </trkpt>
      <trkpt lat="46.52287" lon="4.83819">
        <ele>288.4</ele>
        <time>2022-06-25T09:31:57Z</time>
      </trkpt>
      <trkpt lat="46.52284" lon="4.83816">
        <ele>288.8</ele>
        <time>2022-06-25T09:31:58Z</time>
      </trkpt>
      <trkpt lat="46.5228" lon="4.83813">
        <ele>288.8</ele>
        <time>2022-06-25T09:31:59Z</time>
      </trkpt>
      <trkpt lat="46.52277" lon="4.8381">
        <ele>289</ele>
        <time>2022-06-25T09:32:00Z</time>
      </trkpt>
      <trkpt lat="46.52273" lon="4.83807">
        <ele>289</ele>
        <time>2022-06-25T09:32:01Z</time>
      </trkpt>
      <trkpt lat="46.5227" lon="4.83804">
        <ele>289.2</ele>
        <time>2022-06-25T09:32:02Z</time>
      </trkpt>
      <trkpt lat="46.52267" lon="4.83801">
        <ele>289.2</ele>
        <time>2022-06-25T09:32:03Z</time>
      </trkpt>
      <trkpt lat="46.52263" lon="4.83798">
        <ele>289.4</ele>
        <time>2022-06-25T09:32:04Z</time>
      </trkpt>
      <trkpt lat="46.5226" lon="4.83795">
        <ele>289.6</ele>
        <time>2022-06-25T09:32:05Z</time>
      </trkpt>
      <trkpt lat="46.52256" lon="4.83792">
        <ele>290</ele>
        <time>2022-06-25T09:32:06Z</time>
      </trkpt>
      <trkpt lat="46.52253" lon="4.83789">
        <ele>290.2</ele>
        <time>2022-06-25T09:32:07Z</time>
      </trkpt>
      <trkpt lat="46.52249" lon="4.83786">
        <ele>290.2</ele>
        <time>2022-06-25T09:32:08Z</time>
      </trkpt>
      <trkpt lat="46.52245" lon="4.83783">
        <ele>290.4</ele>
        <time>2022-06-25T09:32:09Z</time>
      </trkpt>
      <trkpt lat="46.52242" lon="4.8378">
        <ele>290.4</ele>
        <time>2022-06-25T09:32:10Z</time>
      </trkpt>
      <trkpt lat="46.52238" lon="4.83777">
        <ele>290.8</ele>
        <time>2022-06-25T09:32:11Z</time>
      </trkpt>
      <trkpt lat="46.52235" lon="4.83773">
        <ele>290.8</ele>
        <time>2022-06-25T09:32:12Z</time>
      </trkpt>
      <trkpt lat="46.52231" lon="4.8377">
        <ele>291</ele>
        <time>2022-06-25T09:32:13Z</time>
      </trkpt>
      <trkpt lat="46.52227" lon="4.83767">
        <ele>291</ele>
        <time>2022-06-25T09:32:14Z</time>
      </trkpt>
      <trkpt lat="46.52223" lon="4.83764">
        <ele>291.4</ele>
        <time>2022-06-25T09:32:15Z</time>
      </trkpt>
      <trkpt lat="46.52219" lon="4.83761">
        <ele>291.6</ele>
        <time>2022-06-25T09:32:16Z</time>
      </trkpt>
      <trkpt lat="46.52216" lon="4.83758">
        <ele>291.6</ele>
        <time>2022-06-25T09:32:17Z</time>
      </trkpt>
      <trkpt lat="46.52212" lon="4.83754">
        <ele>291.8</ele>
        <time>2022-06-25T09:32:18Z</time>
      </trkpt>
      <trkpt lat="46.52208" lon="4.83751">
        <ele>291.8</ele>
        <time>2022-06-25T09:32:19Z</time>
      </trkpt>
      <trkpt lat="46.52204" lon="4.83748">
        <ele>292.2</ele>
        <time>2022-06-25T09:32:20Z</time>
      </trkpt>
      <trkpt lat="46.522" lon="4.83745">
        <ele>292.4</ele>
        <time>2022-06-25T09:32:21Z</time>
      </trkpt>
      <trkpt lat="46.52197" lon="4.83742">
        <ele>292.4</ele>
        <time>2022-06-25T09:32:22Z</time>
      </trkpt>
      <trkpt lat="46.52193" lon="4.83739">
        <ele>292.8</ele>
        <time>2022-06-25T09:32:23Z</time>
      </trkpt>
      <trkpt lat="46.52189" lon="4.83736">
        <ele>292.8</ele>
        <time>2022-06-25T09:32:24Z</time>
      </trkpt>
      <trkpt lat="46.52185" lon="4.83733">
        <ele>293</ele>
        <time>2022-06-25T09:32:25Z</time>
      </trkpt>
      <trkpt lat="46.52182" lon="4.83731">
        <ele>293</ele>
        <time>2022-06-25T09:32:26Z</time>
      </trkpt>
      <trkpt lat="46.52177" lon="4.83728">
        <ele>293.4</ele>
        <time>2022-06-25T09:32:27Z</time>
      </trkpt>
      <trkpt lat="46.52173" lon="4.83725">
        <ele>293.4</ele>
        <time>2022-06-25T09:32:28Z</time>
      </trkpt>
      <trkpt lat="46.52169" lon="4.83723">
        <ele>293.8</ele>
        <time>2022-06-25T09:32:29Z</time>
      </trkpt>
      <trkpt lat="46.52166" lon="4.83721">
        <ele>293.8</ele>
        <time>2022-06-25T09:32:30Z</time>
      </trkpt>
      <trkpt lat="46.52162" lon="4.83718">
        <ele>294</ele>
        <time>2022-06-25T09:32:31Z</time>
      </trkpt>
      <trkpt lat="46.52158" lon="4.83715">
        <ele>294</ele>
        <time>2022-06-25T09:32:32Z</time>
      </trkpt>
      <trkpt lat="46.52154" lon="4.83713">
        <ele>294.4</ele>
        <time>2022-06-25T09:32:33Z</time>
      </trkpt>
      <trkpt lat="46.5215" lon="4.83711">
        <ele>294.4</ele>
        <time>2022-06-25T09:32:34Z</time>
      </trkpt>
      <trkpt lat="46.52146" lon="4.83709">
        <ele>294.6</ele>
        <time>2022-06-25T09:32:35Z</time>
      </trkpt>
      <trkpt lat="46.52142" lon="4.83707">
        <ele>294.6</ele>
        <time>2022-06-25T09:32:36Z</time>
      </trkpt>
      <trkpt lat="46.52135" lon="4.83703">
        <ele>295</ele>
        <time>2022-06-25T09:32:37Z</time>
      </trkpt>
      <trkpt lat="46.52131" lon="4.837">
        <ele>295</ele>
        <time>2022-06-25T09:32:38Z</time>
      </trkpt>
      <trkpt lat="46.52127" lon="4.83698">
        <ele>295.4</ele>
        <time>2022-06-25T09:32:39Z</time>
      </trkpt>
      <trkpt lat="46.52123" lon="4.83696">
        <ele>295.4</ele>
        <time>2022-06-25T09:32:40Z</time>
      </trkpt>
      <trkpt lat="46.52119" lon="4.83694">
        <ele>295.6</ele>
        <time>2022-06-25T09:32:41Z</time>
      </trkpt>
      <trkpt lat="46.52115" lon="4.83691">
        <ele>295.6</ele>
        <time>2022-06-25T09:32:42Z</time>
      </trkpt>
      <trkpt lat="46.52111" lon="4.8369">
        <ele>295.8</ele>
        <time>2022-06-25T09:32:43Z</time>
      </trkpt>
      <trkpt lat="46.52107" lon="4.83688">
        <ele>295.8</ele>
        <time>2022-06-25T09:32:44Z</time>
      </trkpt>
      <trkpt lat="46.52103" lon="4.83686">
        <ele>296.2</ele>
        <time>2022-06-25T09:32:45Z</time>
      </trkpt>
      <trkpt lat="46.52099" lon="4.83683">
        <ele>296.2</ele>
        <time>2022-06-25T09:32:46Z</time>
      </trkpt>
      <trkpt lat="46.52095" lon="4.83681">
        <ele>296.4</ele>
        <time>2022-06-25T09:32:47Z</time>
      </trkpt>
      <trkpt lat="46.52091" lon="4.83679">
        <ele>296.6</ele>
        <time>2022-06-25T09:32:48Z</time>
      </trkpt>
      <trkpt lat="46.52087" lon="4.83677">
        <ele>296.6</ele>
        <time>2022-06-25T09:32:49Z</time>
      </trkpt>
      <trkpt lat="46.52084" lon="4.83675">
        <ele>297</ele>
        <time>2022-06-25T09:32:50Z</time>
      </trkpt>
      <trkpt lat="46.5208" lon="4.83673">
        <ele>297</ele>
        <time>2022-06-25T09:32:51Z</time>
      </trkpt>
      <trkpt lat="46.52077" lon="4.83671">
        <ele>297.2</ele>
        <time>2022-06-25T09:32:52Z</time>
      </trkpt>
      <trkpt lat="46.52073" lon="4.83669">
        <ele>297.6</ele>
        <time>2022-06-25T09:32:53Z</time>
      </trkpt>
      <trkpt lat="46.52069" lon="4.83667">
        <ele>297.6</ele>
        <time>2022-06-25T09:32:54Z</time>
      </trkpt>
      <trkpt lat="46.52066" lon="4.83665">
        <ele>297.8</ele>
        <time>2022-06-25T09:32:55Z</time>
      </trkpt>
      <trkpt lat="46.52062" lon="4.83663">
        <ele>297.8</ele>
        <time>2022-06-25T09:32:56Z</time>
      </trkpt>
      <trkpt lat="46.52058" lon="4.83661">
        <ele>298.4</ele>
        <time>2022-06-25T09:32:57Z</time>
      </trkpt>
      <trkpt lat="46.52054" lon="4.83659">
        <ele>298.4</ele>
        <time>2022-06-25T09:32:58Z</time>
      </trkpt>
      <trkpt lat="46.5205" lon="4.83657">
        <ele>298.6</ele>
        <time>2022-06-25T09:32:59Z</time>
      </trkpt>
      <trkpt lat="46.52046" lon="4.83655">
        <ele>298.6</ele>
        <time>2022-06-25T09:33:00Z</time>
      </trkpt>
      <trkpt lat="46.52043" lon="4.83652">
        <ele>299</ele>
        <time>2022-06-25T09:33:01Z</time>
      </trkpt>
      <trkpt lat="46.52039" lon="4.8365">
        <ele>299</ele>
        <time>2022-06-25T09:33:02Z</time>
      </trkpt>
      <trkpt lat="46.52035" lon="4.83648">
        <ele>299.2</ele>
        <time>2022-06-25T09:33:03Z</time>
      </trkpt>
      <trkpt lat="46.52032" lon="4.83645">
        <ele>299.2</ele>
        <time>2022-06-25T09:33:04Z</time>
      </trkpt>
      <trkpt lat="46.52028" lon="4.83643">
        <ele>299.6</ele>
        <time>2022-06-25T09:33:05Z</time>
      </trkpt>
      <trkpt lat="46.52025" lon="4.8364">
        <ele>299.8</ele>
        <time>2022-06-25T09:33:06Z</time>
      </trkpt>
      <trkpt lat="46.52021" lon="4.83638">
        <ele>299.8</ele>
        <time>2022-06-25T09:33:07Z</time>
      </trkpt>
      <trkpt lat="46.52017" lon="4.83636">
        <ele>300</ele>
        <time>2022-06-25T09:33:08Z</time>
      </trkpt>
      <trkpt lat="46.52014" lon="4.83634">
        <ele>300</ele>
        <time>2022-06-25T09:33:09Z</time>
      </trkpt>
      <trkpt lat="46.5201" lon="4.83631">
        <ele>300.2</ele>
        <time>2022-06-25T09:33:10Z</time>
      </trkpt>
      <trkpt lat="46.52007" lon="4.83629">
        <ele>300.2</ele>
        <time>2022-06-25T09:33:11Z</time>
      </trkpt>
      <trkpt lat="46.52003" lon="4.83626">
        <ele>300.4</ele>
        <time>2022-06-25T09:33:12Z</time>
      </trkpt>
      <trkpt lat="46.52" lon="4.83623">
        <ele>300.4</ele>
        <time>2022-06-25T09:33:13Z</time>
      </trkpt>
      <trkpt lat="46.51996" lon="4.83621">
        <ele>300.8</ele>
        <time>2022-06-25T09:33:14Z</time>
      </trkpt>
      <trkpt lat="46.51993" lon="4.83618">
        <ele>300.8</ele>
        <time>2022-06-25T09:33:15Z</time>
      </trkpt>
      <trkpt lat="46.51989" lon="4.83616">
        <ele>301.2</ele>
        <time>2022-06-25T09:33:16Z</time>
      </trkpt>
      <trkpt lat="46.51986" lon="4.83614">
        <ele>301.2</ele>
        <time>2022-06-25T09:33:17Z</time>
      </trkpt>
      <trkpt lat="46.51982" lon="4.83612">
        <ele>301.4</ele>
        <time>2022-06-25T09:33:18Z</time>
      </trkpt>
      <trkpt lat="46.51978" lon="4.8361">
        <ele>301.4</ele>
        <time>2022-06-25T09:33:19Z</time>
      </trkpt>
      <trkpt lat="46.51975" lon="4.83608">
        <ele>301.8</ele>
        <time>2022-06-25T09:33:20Z</time>
      </trkpt>
      <trkpt lat="46.51971" lon="4.83606">
        <ele>301.8</ele>
        <time>2022-06-25T09:33:21Z</time>
      </trkpt>
      <trkpt lat="46.51968" lon="4.83604">
        <ele>302.2</ele>
        <time>2022-06-25T09:33:22Z</time>
      </trkpt>
      <trkpt lat="46.51964" lon="4.83602">
        <ele>302.2</ele>
        <time>2022-06-25T09:33:23Z</time>
      </trkpt>
      <trkpt lat="46.51961" lon="4.836">
        <ele>302.4</ele>
        <time>2022-06-25T09:33:24Z</time>
      </trkpt>
      <trkpt lat="46.51958" lon="4.83598">
        <ele>302.4</ele>
        <time>2022-06-25T09:33:25Z</time>
      </trkpt>
      <trkpt lat="46.51954" lon="4.83597">
        <ele>302.8</ele>
        <time>2022-06-25T09:33:26Z</time>
      </trkpt>
      <trkpt lat="46.51951" lon="4.83595">
        <ele>302.8</ele>
        <time>2022-06-25T09:33:27Z</time>
      </trkpt>
      <trkpt lat="46.51948" lon="4.83593">
        <ele>303.2</ele>
        <time>2022-06-25T09:33:28Z</time>
      </trkpt>
      <trkpt lat="46.51945" lon="4.83592">
        <ele>303.2</ele>
        <time>2022-06-25T09:33:29Z</time>
      </trkpt>
      <trkpt lat="46.51943" lon="4.83591">
        <ele>303.4</ele>
        <time>2022-06-25T09:33:30Z</time>
      </trkpt>
      <trkpt lat="46.51941" lon="4.83591">
        <ele>303.4</ele>
        <time>2022-06-25T09:33:31Z</time>
      </trkpt>
      <trkpt lat="46.51939" lon="4.8359">
        <ele>303.4</ele>
        <time>2022-06-25T09:33:32Z</time>
      </trkpt>
      <trkpt lat="46.51937" lon="4.8359">
        <ele>303.6</ele>
        <time>2022-06-25T09:33:33Z</time>
      </trkpt>
      <trkpt lat="46.51935" lon="4.83589">
        <ele>303.6</ele>
        <time>2022-06-25T09:33:34Z</time>
      </trkpt>
      <trkpt lat="46.51932" lon="4.83588">
        <ele>304</ele>
        <time>2022-06-25T09:33:35Z</time>
      </trkpt>
      <trkpt lat="46.5193" lon="4.83587">
        <ele>304</ele>
        <time>2022-06-25T09:33:36Z</time>
      </trkpt>
      <trkpt lat="46.51928" lon="4.83586">
        <ele>304.2</ele>
        <time>2022-06-25T09:33:37Z</time>
      </trkpt>
      <trkpt lat="46.51926" lon="4.83584">
        <ele>304.2</ele>
        <time>2022-06-25T09:33:38Z</time>
      </trkpt>
      <trkpt lat="46.51924" lon="4.83583">
        <ele>304.4</ele>
        <time>2022-06-25T09:33:39Z</time>
      </trkpt>
      <trkpt lat="46.51921" lon="4.83581">
        <ele>304.6</ele>
        <time>2022-06-25T09:33:41Z</time>
      </trkpt>
      <trkpt lat="46.51919" lon="4.8358">
        <ele>304.6</ele>
        <time>2022-06-25T09:33:42Z</time>
      </trkpt>
      <trkpt lat="46.51916" lon="4.83579">
        <ele>305</ele>
        <time>2022-06-25T09:33:43Z</time>
      </trkpt>
      <trkpt lat="46.51913" lon="4.83578">
        <ele>305</ele>
        <time>2022-06-25T09:33:44Z</time>
      </trkpt>
      <trkpt lat="46.51911" lon="4.83576">
        <ele>305.2</ele>
        <time>2022-06-25T09:33:45Z</time>
      </trkpt>
      <trkpt lat="46.51908" lon="4.83574">
        <ele>305.2</ele>
        <time>2022-06-25T09:33:46Z</time>
      </trkpt>
      <trkpt lat="46.51905" lon="4.83573">
        <ele>305.4</ele>
        <time>2022-06-25T09:33:47Z</time>
      </trkpt>
      <trkpt lat="46.51902" lon="4.83571">
        <ele>305.4</ele>
        <time>2022-06-25T09:33:48Z</time>
      </trkpt>
      <trkpt lat="46.519" lon="4.8357">
        <ele>305.8</ele>
        <time>2022-06-25T09:33:49Z</time>
      </trkpt>
      <trkpt lat="46.51897" lon="4.83569">
        <ele>305.8</ele>
        <time>2022-06-25T09:33:50Z</time>
      </trkpt>
      <trkpt lat="46.51894" lon="4.83568">
        <ele>306.2</ele>
        <time>2022-06-25T09:33:51Z</time>
      </trkpt>
      <trkpt lat="46.51891" lon="4.83567">
        <ele>306.2</ele>
        <time>2022-06-25T09:33:52Z</time>
      </trkpt>
      <trkpt lat="46.51889" lon="4.83565">
        <ele>306.4</ele>
        <time>2022-06-25T09:33:53Z</time>
      </trkpt>
      <trkpt lat="46.51886" lon="4.83564">
        <ele>306.6</ele>
        <time>2022-06-25T09:33:54Z</time>
      </trkpt>
      <trkpt lat="46.51884" lon="4.83562">
        <ele>306.6</ele>
        <time>2022-06-25T09:33:55Z</time>
      </trkpt>
      <trkpt lat="46.51881" lon="4.8356">
        <ele>307</ele>
        <time>2022-06-25T09:33:56Z</time>
      </trkpt>
      <trkpt lat="46.51878" lon="4.83558">
        <ele>307</ele>
        <time>2022-06-25T09:33:57Z</time>
      </trkpt>
      <trkpt lat="46.51876" lon="4.83557">
        <ele>307.6</ele>
        <time>2022-06-25T09:33:58Z</time>
      </trkpt>
      <trkpt lat="46.51873" lon="4.83555">
        <ele>307.8</ele>
        <time>2022-06-25T09:33:59Z</time>
      </trkpt>
      <trkpt lat="46.5187" lon="4.83554">
        <ele>308</ele>
        <time>2022-06-25T09:34:00Z</time>
      </trkpt>
      <trkpt lat="46.51867" lon="4.83552">
        <ele>308</ele>
        <time>2022-06-25T09:34:01Z</time>
      </trkpt>
      <trkpt lat="46.51865" lon="4.83551">
        <ele>308.4</ele>
        <time>2022-06-25T09:34:02Z</time>
      </trkpt>
      <trkpt lat="46.51862" lon="4.8355">
        <ele>308.4</ele>
        <time>2022-06-25T09:34:03Z</time>
      </trkpt>
      <trkpt lat="46.51859" lon="4.83549">
        <ele>308.8</ele>
        <time>2022-06-25T09:34:04Z</time>
      </trkpt>
      <trkpt lat="46.51856" lon="4.83547">
        <ele>308.8</ele>
        <time>2022-06-25T09:34:05Z</time>
      </trkpt>
      <trkpt lat="46.51854" lon="4.83546">
        <ele>308.8</ele>
        <time>2022-06-25T09:34:06Z</time>
      </trkpt>
      <trkpt lat="46.51851" lon="4.83545">
        <ele>309</ele>
        <time>2022-06-25T09:34:07Z</time>
      </trkpt>
      <trkpt lat="46.51848" lon="4.83543">
        <ele>309</ele>
        <time>2022-06-25T09:34:08Z</time>
      </trkpt>
      <trkpt lat="46.51846" lon="4.83541">
        <ele>309.4</ele>
        <time>2022-06-25T09:34:09Z</time>
      </trkpt>
      <trkpt lat="46.51843" lon="4.83539">
        <ele>309.4</ele>
        <time>2022-06-25T09:34:10Z</time>
      </trkpt>
      <trkpt lat="46.5184" lon="4.83538">
        <ele>309.8</ele>
        <time>2022-06-25T09:34:11Z</time>
      </trkpt>
      <trkpt lat="46.51837" lon="4.83536">
        <ele>309.8</ele>
        <time>2022-06-25T09:34:12Z</time>
      </trkpt>
      <trkpt lat="46.51835" lon="4.83535">
        <ele>310</ele>
        <time>2022-06-25T09:34:13Z</time>
      </trkpt>
      <trkpt lat="46.51832" lon="4.83534">
        <ele>310</ele>
        <time>2022-06-25T09:34:14Z</time>
      </trkpt>
      <trkpt lat="46.51829" lon="4.83532">
        <ele>310.4</ele>
        <time>2022-06-25T09:34:15Z</time>
      </trkpt>
      <trkpt lat="46.51827" lon="4.83531">
        <ele>310.4</ele>
        <time>2022-06-25T09:34:16Z</time>
      </trkpt>
      <trkpt lat="46.51824" lon="4.83529">
        <ele>310.6</ele>
        <time>2022-06-25T09:34:17Z</time>
      </trkpt>
      <trkpt lat="46.51821" lon="4.83528">
        <ele>310.6</ele>
        <time>2022-06-25T09:34:18Z</time>
      </trkpt>
      <trkpt lat="46.51819" lon="4.83527">
        <ele>310.8</ele>
        <time>2022-06-25T09:34:19Z</time>
      </trkpt>
      <trkpt lat="46.51816" lon="4.83526">
        <ele>310.8</ele>
        <time>2022-06-25T09:34:20Z</time>
      </trkpt>
      <trkpt lat="46.51813" lon="4.83525">
        <ele>311.2</ele>
        <time>2022-06-25T09:34:21Z</time>
      </trkpt>
      <trkpt lat="46.51811" lon="4.83523">
        <ele>311.2</ele>
        <time>2022-06-25T09:34:22Z</time>
      </trkpt>
      <trkpt lat="46.51808" lon="4.83521">
        <ele>311.6</ele>
        <time>2022-06-25T09:34:23Z</time>
      </trkpt>
      <trkpt lat="46.51805" lon="4.8352">
        <ele>311.6</ele>
        <time>2022-06-25T09:34:24Z</time>
      </trkpt>
      <trkpt lat="46.51802" lon="4.83518">
        <ele>311.8</ele>
        <time>2022-06-25T09:34:25Z</time>
      </trkpt>
      <trkpt lat="46.518" lon="4.83517">
        <ele>312</ele>
        <time>2022-06-25T09:34:26Z</time>
      </trkpt>
      <trkpt lat="46.51797" lon="4.83515">
        <ele>312</ele>
        <time>2022-06-25T09:34:27Z</time>
      </trkpt>
      <trkpt lat="46.51795" lon="4.83514">
        <ele>312.4</ele>
        <time>2022-06-25T09:34:28Z</time>
      </trkpt>
      <trkpt lat="46.51792" lon="4.83512">
        <ele>312.4</ele>
        <time>2022-06-25T09:34:29Z</time>
      </trkpt>
      <trkpt lat="46.51789" lon="4.83511">
        <ele>312.6</ele>
        <time>2022-06-25T09:34:30Z</time>
      </trkpt>
      <trkpt lat="46.51786" lon="4.8351">
        <ele>312.6</ele>
        <time>2022-06-25T09:34:31Z</time>
      </trkpt>
      <trkpt lat="46.51784" lon="4.83509">
        <ele>313</ele>
        <time>2022-06-25T09:34:32Z</time>
      </trkpt>
      <trkpt lat="46.51781" lon="4.83508">
        <ele>313</ele>
        <time>2022-06-25T09:34:33Z</time>
      </trkpt>
      <trkpt lat="46.51778" lon="4.83507">
        <ele>313.2</ele>
        <time>2022-06-25T09:34:34Z</time>
      </trkpt>
      <trkpt lat="46.51775" lon="4.83505">
        <ele>313.2</ele>
        <time>2022-06-25T09:34:35Z</time>
      </trkpt>
      <trkpt lat="46.51772" lon="4.83503">
        <ele>313.6</ele>
        <time>2022-06-25T09:34:36Z</time>
      </trkpt>
      <trkpt lat="46.5177" lon="4.83501">
        <ele>313.6</ele>
        <time>2022-06-25T09:34:37Z</time>
      </trkpt>
      <trkpt lat="46.51767" lon="4.83499">
        <ele>314</ele>
        <time>2022-06-25T09:34:38Z</time>
      </trkpt>
      <trkpt lat="46.51764" lon="4.83497">
        <ele>314</ele>
        <time>2022-06-25T09:34:39Z</time>
      </trkpt>
      <trkpt lat="46.51761" lon="4.83496">
        <ele>314.2</ele>
        <time>2022-06-25T09:34:40Z</time>
      </trkpt>
      <trkpt lat="46.51758" lon="4.83494">
        <ele>314.4</ele>
        <time>2022-06-25T09:34:41Z</time>
      </trkpt>
      <trkpt lat="46.51755" lon="4.83492">
        <ele>314.4</ele>
        <time>2022-06-25T09:34:42Z</time>
      </trkpt>
      <trkpt lat="46.51752" lon="4.8349">
        <ele>314.8</ele>
        <time>2022-06-25T09:34:43Z</time>
      </trkpt>
      <trkpt lat="46.5175" lon="4.83488">
        <ele>314.8</ele>
        <time>2022-06-25T09:34:44Z</time>
      </trkpt>
      <trkpt lat="46.51747" lon="4.83486">
        <ele>315.2</ele>
        <time>2022-06-25T09:34:45Z</time>
      </trkpt>
      <trkpt lat="46.51744" lon="4.83484">
        <ele>315.2</ele>
        <time>2022-06-25T09:34:46Z</time>
      </trkpt>
      <trkpt lat="46.51742" lon="4.83482">
        <ele>315.4</ele>
        <time>2022-06-25T09:34:47Z</time>
      </trkpt>
      <trkpt lat="46.51739" lon="4.8348">
        <ele>315.4</ele>
        <time>2022-06-25T09:34:48Z</time>
      </trkpt>
      <trkpt lat="46.51737" lon="4.83477">
        <ele>315.6</ele>
        <time>2022-06-25T09:34:49Z</time>
      </trkpt>
      <trkpt lat="46.51734" lon="4.83475">
        <ele>315.8</ele>
        <time>2022-06-25T09:34:50Z</time>
      </trkpt>
      <trkpt lat="46.51731" lon="4.83473">
        <ele>316</ele>
        <time>2022-06-25T09:34:51Z</time>
      </trkpt>
      <trkpt lat="46.51729" lon="4.83471">
        <ele>316</ele>
        <time>2022-06-25T09:34:52Z</time>
      </trkpt>
      <trkpt lat="46.51726" lon="4.83468">
        <ele>316.4</ele>
        <time>2022-06-25T09:34:53Z</time>
      </trkpt>
      <trkpt lat="46.51724" lon="4.83466">
        <ele>316.6</ele>
        <time>2022-06-25T09:34:54Z</time>
      </trkpt>
      <trkpt lat="46.51722" lon="4.83464">
        <ele>316.6</ele>
        <time>2022-06-25T09:34:55Z</time>
      </trkpt>
      <trkpt lat="46.51719" lon="4.83461">
        <ele>317</ele>
        <time>2022-06-25T09:34:56Z</time>
      </trkpt>
      <trkpt lat="46.51717" lon="4.83459">
        <ele>317.2</ele>
        <time>2022-06-25T09:34:57Z</time>
      </trkpt>
      <trkpt lat="46.51715" lon="4.83456">
        <ele>317.6</ele>
        <time>2022-06-25T09:34:58Z</time>
      </trkpt>
      <trkpt lat="46.51714" lon="4.83452">
        <ele>317.6</ele>
        <time>2022-06-25T09:34:59Z</time>
      </trkpt>
      <trkpt lat="46.51712" lon="4.83448">
        <ele>317.8</ele>
        <time>2022-06-25T09:35:00Z</time>
      </trkpt>
      <trkpt lat="46.5171" lon="4.83445">
        <ele>317.8</ele>
        <time>2022-06-25T09:35:01Z</time>
      </trkpt>
      <trkpt lat="46.51709" lon="4.83441">
        <ele>318.2</ele>
        <time>2022-06-25T09:35:02Z</time>
      </trkpt>
      <trkpt lat="46.51707" lon="4.83437">
        <ele>318.4</ele>
        <time>2022-06-25T09:35:03Z</time>
      </trkpt>
      <trkpt lat="46.51706" lon="4.83433">
        <ele>318.8</ele>
        <time>2022-06-25T09:35:04Z</time>
      </trkpt>
      <trkpt lat="46.51705" lon="4.83429">
        <ele>319</ele>
        <time>2022-06-25T09:35:05Z</time>
      </trkpt>
      <trkpt lat="46.51704" lon="4.83425">
        <ele>319.2</ele>
        <time>2022-06-25T09:35:06Z</time>
      </trkpt>
      <trkpt lat="46.51704" lon="4.83421">
        <ele>319.6</ele>
        <time>2022-06-25T09:35:07Z</time>
      </trkpt>
      <trkpt lat="46.51703" lon="4.83417">
        <ele>319.6</ele>
        <time>2022-06-25T09:35:08Z</time>
      </trkpt>
      <trkpt lat="46.51703" lon="4.83412">
        <ele>320</ele>
        <time>2022-06-25T09:35:09Z</time>
      </trkpt>
      <trkpt lat="46.51703" lon="4.83408">
        <ele>320.2</ele>
        <time>2022-06-25T09:35:10Z</time>
      </trkpt>
      <trkpt lat="46.51703" lon="4.83403">
        <ele>320.4</ele>
        <time>2022-06-25T09:35:11Z</time>
      </trkpt>
      <trkpt lat="46.51702" lon="4.83399">
        <ele>320.8</ele>
        <time>2022-06-25T09:35:12Z</time>
      </trkpt>
      <trkpt lat="46.51701" lon="4.83395">
        <ele>321</ele>
        <time>2022-06-25T09:35:13Z</time>
      </trkpt>
      <trkpt lat="46.51701" lon="4.83391">
        <ele>321.2</ele>
        <time>2022-06-25T09:35:14Z</time>
      </trkpt>
      <trkpt lat="46.51701" lon="4.83387">
        <ele>321.2</ele>
        <time>2022-06-25T09:35:15Z</time>
      </trkpt>
      <trkpt lat="46.51701" lon="4.83383">
        <ele>321.4</ele>
        <time>2022-06-25T09:35:16Z</time>
      </trkpt>
      <trkpt lat="46.51701" lon="4.83379">
        <ele>321.4</ele>
        <time>2022-06-25T09:35:17Z</time>
      </trkpt>
      <trkpt lat="46.51701" lon="4.83375">
        <ele>321.8</ele>
        <time>2022-06-25T09:35:18Z</time>
      </trkpt>
      <trkpt lat="46.51701" lon="4.8337">
        <ele>321.8</ele>
        <time>2022-06-25T09:35:19Z</time>
      </trkpt>
      <trkpt lat="46.517" lon="4.83366">
        <ele>322</ele>
        <time>2022-06-25T09:35:20Z</time>
      </trkpt>
      <trkpt lat="46.51699" lon="4.83362">
        <ele>322</ele>
        <time>2022-06-25T09:35:21Z</time>
      </trkpt>
      <trkpt lat="46.51697" lon="4.83358">
        <ele>322.4</ele>
        <time>2022-06-25T09:35:22Z</time>
      </trkpt>
      <trkpt lat="46.51696" lon="4.83355">
        <ele>322.4</ele>
        <time>2022-06-25T09:35:23Z</time>
      </trkpt>
      <trkpt lat="46.51694" lon="4.83351">
        <ele>322.8</ele>
        <time>2022-06-25T09:35:24Z</time>
      </trkpt>
      <trkpt lat="46.51692" lon="4.83349">
        <ele>323</ele>
        <time>2022-06-25T09:35:25Z</time>
      </trkpt>
      <trkpt lat="46.5169" lon="4.83346">
        <ele>323.2</ele>
        <time>2022-06-25T09:35:26Z</time>
      </trkpt>
      <trkpt lat="46.51687" lon="4.83344">
        <ele>323.2</ele>
        <time>2022-06-25T09:35:27Z</time>
      </trkpt>
      <trkpt lat="46.51685" lon="4.83341">
        <ele>323.6</ele>
        <time>2022-06-25T09:35:28Z</time>
      </trkpt>
      <trkpt lat="46.51682" lon="4.83339">
        <ele>323.6</ele>
        <time>2022-06-25T09:35:29Z</time>
      </trkpt>
      <trkpt lat="46.5168" lon="4.83337">
        <ele>323.8</ele>
        <time>2022-06-25T09:35:30Z</time>
      </trkpt>
      <trkpt lat="46.51677" lon="4.83335">
        <ele>323.8</ele>
        <time>2022-06-25T09:35:31Z</time>
      </trkpt>
      <trkpt lat="46.51674" lon="4.83334">
        <ele>324</ele>
        <time>2022-06-25T09:35:32Z</time>
      </trkpt>
      <trkpt lat="46.51671" lon="4.83332">
        <ele>324</ele>
        <time>2022-06-25T09:35:33Z</time>
      </trkpt>
      <trkpt lat="46.51669" lon="4.83331">
        <ele>324.4</ele>
        <time>2022-06-25T09:35:34Z</time>
      </trkpt>
      <trkpt lat="46.51666" lon="4.83329">
        <ele>324.4</ele>
        <time>2022-06-25T09:35:35Z</time>
      </trkpt>
      <trkpt lat="46.51663" lon="4.83328">
        <ele>324.8</ele>
        <time>2022-06-25T09:35:36Z</time>
      </trkpt>
      <trkpt lat="46.51658" lon="4.83326">
        <ele>325</ele>
        <time>2022-06-25T09:35:37Z</time>
      </trkpt>
      <trkpt lat="46.51655" lon="4.83325">
        <ele>325.2</ele>
        <time>2022-06-25T09:35:38Z</time>
      </trkpt>
      <trkpt lat="46.51653" lon="4.83323">
        <ele>325.4</ele>
        <time>2022-06-25T09:35:39Z</time>
      </trkpt>
      <trkpt lat="46.51651" lon="4.83321">
        <ele>325.4</ele>
        <time>2022-06-25T09:35:40Z</time>
      </trkpt>
      <trkpt lat="46.51648" lon="4.8332">
        <ele>325.8</ele>
        <time>2022-06-25T09:35:41Z</time>
      </trkpt>
      <trkpt lat="46.51646" lon="4.83319">
        <ele>325.8</ele>
        <time>2022-06-25T09:35:42Z</time>
      </trkpt>
      <trkpt lat="46.51643" lon="4.83318">
        <ele>326.2</ele>
        <time>2022-06-25T09:35:43Z</time>
      </trkpt>
      <trkpt lat="46.51641" lon="4.83316">
        <ele>326.2</ele>
        <time>2022-06-25T09:35:44Z</time>
      </trkpt>
      <trkpt lat="46.51638" lon="4.83315">
        <ele>326.4</ele>
        <time>2022-06-25T09:35:45Z</time>
      </trkpt>
      <trkpt lat="46.51636" lon="4.83314">
        <ele>326.4</ele>
        <time>2022-06-25T09:35:46Z</time>
      </trkpt>
      <trkpt lat="46.51633" lon="4.83313">
        <ele>326.8</ele>
        <time>2022-06-25T09:35:47Z</time>
      </trkpt>
      <trkpt lat="46.51631" lon="4.83312">
        <ele>326.8</ele>
        <time>2022-06-25T09:35:48Z</time>
      </trkpt>
      <trkpt lat="46.51629" lon="4.83311">
        <ele>327</ele>
        <time>2022-06-25T09:35:49Z</time>
      </trkpt>
      <trkpt lat="46.51626" lon="4.8331">
        <ele>327</ele>
        <time>2022-06-25T09:35:50Z</time>
      </trkpt>
      <trkpt lat="46.51624" lon="4.83309">
        <ele>327</ele>
        <time>2022-06-25T09:35:51Z</time>
      </trkpt>
      <trkpt lat="46.51622" lon="4.83307">
        <ele>327</ele>
        <time>2022-06-25T09:35:52Z</time>
      </trkpt>
      <trkpt lat="46.5162" lon="4.83306">
        <ele>327</ele>
        <time>2022-06-25T09:35:53Z</time>
      </trkpt>
      <trkpt lat="46.51618" lon="4.83305">
        <ele>327</ele>
        <time>2022-06-25T09:35:54Z</time>
      </trkpt>
      <trkpt lat="46.51617" lon="4.83305">
        <ele>327</ele>
        <time>2022-06-25T09:35:55Z</time>
      </trkpt>
      <trkpt lat="46.51616" lon="4.83305">
        <ele>327</ele>
        <time>2022-06-25T09:35:56Z</time>
      </trkpt>
      <trkpt lat="46.51615" lon="4.83305">
        <ele>327</ele>
        <time>2022-06-25T09:35:57Z</time>
      </trkpt>
      <trkpt lat="46.51612" lon="4.83305">
        <ele>327</ele>
        <time>2022-06-25T09:36:31Z</time>
      </trkpt>
      <trkpt lat="46.51609" lon="4.83304">
        <ele>327</ele>
        <time>2022-06-25T09:36:32Z</time>
      </trkpt>
      <trkpt lat="46.51607" lon="4.83304">
        <ele>327</ele>
        <time>2022-06-25T09:36:33Z</time>
      </trkpt>
      <trkpt lat="46.51604" lon="4.83303">
        <ele>327</ele>
        <time>2022-06-25T09:36:34Z</time>
      </trkpt>
      <trkpt lat="46.51601" lon="4.83303">
        <ele>326.8</ele>
        <time>2022-06-25T09:36:35Z</time>
      </trkpt>
      <trkpt lat="46.51597" lon="4.83302">
        <ele>326.8</ele>
        <time>2022-06-25T09:36:36Z</time>
      </trkpt>
      <trkpt lat="46.51593" lon="4.833">
        <ele>326.6</ele>
        <time>2022-06-25T09:36:37Z</time>
      </trkpt>
      <trkpt lat="46.51589" lon="4.83299">
        <ele>326.6</ele>
        <time>2022-06-25T09:36:38Z</time>
      </trkpt>
      <trkpt lat="46.51584" lon="4.83298">
        <ele>326.4</ele>
        <time>2022-06-25T09:36:39Z</time>
      </trkpt>
      <trkpt lat="46.51579" lon="4.83296">
        <ele>326.4</ele>
        <time>2022-06-25T09:36:40Z</time>
      </trkpt>
      <trkpt lat="46.51573" lon="4.83295">
        <ele>326</ele>
        <time>2022-06-25T09:36:41Z</time>
      </trkpt>
      <trkpt lat="46.51567" lon="4.83294">
        <ele>326</ele>
        <time>2022-06-25T09:36:42Z</time>
      </trkpt>
      <trkpt lat="46.51561" lon="4.83292">
        <ele>325.6</ele>
        <time>2022-06-25T09:36:43Z</time>
      </trkpt>
      <trkpt lat="46.51554" lon="4.8329">
        <ele>325.4</ele>
        <time>2022-06-25T09:36:44Z</time>
      </trkpt>
      <trkpt lat="46.51548" lon="4.83289">
        <ele>325</ele>
        <time>2022-06-25T09:36:45Z</time>
      </trkpt>
      <trkpt lat="46.5154" lon="4.83287">
        <ele>324.8</ele>
        <time>2022-06-25T09:36:46Z</time>
      </trkpt>
      <trkpt lat="46.51533" lon="4.83285">
        <ele>324.6</ele>
        <time>2022-06-25T09:36:47Z</time>
      </trkpt>
      <trkpt lat="46.51525" lon="4.83283">
        <ele>324.2</ele>
        <time>2022-06-25T09:36:48Z</time>
      </trkpt>
      <trkpt lat="46.51517" lon="4.83281">
        <ele>324</ele>
        <time>2022-06-25T09:36:49Z</time>
      </trkpt>
      <trkpt lat="46.51508" lon="4.83278">
        <ele>323.6</ele>
        <time>2022-06-25T09:36:50Z</time>
      </trkpt>
      <trkpt lat="46.515" lon="4.83276">
        <ele>323.4</ele>
        <time>2022-06-25T09:36:51Z</time>
      </trkpt>
      <trkpt lat="46.51491" lon="4.83274">
        <ele>323</ele>
        <time>2022-06-25T09:36:52Z</time>
      </trkpt>
      <trkpt lat="46.51482" lon="4.83271">
        <ele>322.6</ele>
        <time>2022-06-25T09:36:53Z</time>
      </trkpt>
      <trkpt lat="46.51473" lon="4.83269">
        <ele>322</ele>
        <time>2022-06-25T09:36:54Z</time>
      </trkpt>
      <trkpt lat="46.51462" lon="4.83267">
        <ele>321.8</ele>
        <time>2022-06-25T09:36:55Z</time>
      </trkpt>
      <trkpt lat="46.51452" lon="4.83265">
        <ele>321.4</ele>
        <time>2022-06-25T09:36:56Z</time>
      </trkpt>
      <trkpt lat="46.51441" lon="4.83261">
        <ele>321.2</ele>
        <time>2022-06-25T09:36:57Z</time>
      </trkpt>
      <trkpt lat="46.51431" lon="4.83258">
        <ele>320.8</ele>
        <time>2022-06-25T09:36:58Z</time>
      </trkpt>
      <trkpt lat="46.51421" lon="4.83254">
        <ele>320.6</ele>
        <time>2022-06-25T09:36:59Z</time>
      </trkpt>
      <trkpt lat="46.51411" lon="4.83252">
        <ele>320.2</ele>
        <time>2022-06-25T09:37:00Z</time>
      </trkpt>
      <trkpt lat="46.51401" lon="4.83249">
        <ele>319.6</ele>
        <time>2022-06-25T09:37:01Z</time>
      </trkpt>
      <trkpt lat="46.51391" lon="4.83245">
        <ele>319.4</ele>
        <time>2022-06-25T09:37:02Z</time>
      </trkpt>
      <trkpt lat="46.5138" lon="4.83242">
        <ele>318.8</ele>
        <time>2022-06-25T09:37:03Z</time>
      </trkpt>
      <trkpt lat="46.5137" lon="4.83239">
        <ele>318</ele>
        <time>2022-06-25T09:37:04Z</time>
      </trkpt>
      <trkpt lat="46.5136" lon="4.83237">
        <ele>317.2</ele>
        <time>2022-06-25T09:37:05Z</time>
      </trkpt>
      <trkpt lat="46.51349" lon="4.83233">
        <ele>316.2</ele>
        <time>2022-06-25T09:37:06Z</time>
      </trkpt>
      <trkpt lat="46.51338" lon="4.83231">
        <ele>315.6</ele>
        <time>2022-06-25T09:37:07Z</time>
      </trkpt>
      <trkpt lat="46.51327" lon="4.83228">
        <ele>315</ele>
        <time>2022-06-25T09:37:08Z</time>
      </trkpt>
      <trkpt lat="46.51316" lon="4.83225">
        <ele>314</ele>
        <time>2022-06-25T09:37:09Z</time>
      </trkpt>
      <trkpt lat="46.51304" lon="4.83223">
        <ele>313.2</ele>
        <time>2022-06-25T09:37:10Z</time>
      </trkpt>
      <trkpt lat="46.51293" lon="4.8322">
        <ele>312.4</ele>
        <time>2022-06-25T09:37:11Z</time>
      </trkpt>
      <trkpt lat="46.51281" lon="4.83217">
        <ele>311.8</ele>
        <time>2022-06-25T09:37:12Z</time>
      </trkpt>
      <trkpt lat="46.5127" lon="4.83214">
        <ele>311</ele>
        <time>2022-06-25T09:37:13Z</time>
      </trkpt>
      <trkpt lat="46.51258" lon="4.8321">
        <ele>310.6</ele>
        <time>2022-06-25T09:37:14Z</time>
      </trkpt>
      <trkpt lat="46.51246" lon="4.83206">
        <ele>310</ele>
        <time>2022-06-25T09:37:15Z</time>
      </trkpt>
      <trkpt lat="46.51234" lon="4.83203">
        <ele>309.2</ele>
        <time>2022-06-25T09:37:16Z</time>
      </trkpt>
      <trkpt lat="46.51222" lon="4.832">
        <ele>308.4</ele>
        <time>2022-06-25T09:37:17Z</time>
      </trkpt>
      <trkpt lat="46.51209" lon="4.83197">
        <ele>307.8</ele>
        <time>2022-06-25T09:37:18Z</time>
      </trkpt>
      <trkpt lat="46.51198" lon="4.83194">
        <ele>307</ele>
        <time>2022-06-25T09:37:19Z</time>
      </trkpt>
      <trkpt lat="46.51187" lon="4.83191">
        <ele>306.4</ele>
        <time>2022-06-25T09:37:20Z</time>
      </trkpt>
      <trkpt lat="46.51174" lon="4.83188">
        <ele>305.8</ele>
        <time>2022-06-25T09:37:21Z</time>
      </trkpt>
      <trkpt lat="46.51162" lon="4.83183">
        <ele>304.8</ele>
        <time>2022-06-25T09:37:22Z</time>
      </trkpt>
      <trkpt lat="46.5115" lon="4.8318">
        <ele>304</ele>
        <time>2022-06-25T09:37:23Z</time>
      </trkpt>
      <trkpt lat="46.51139" lon="4.83176">
        <ele>303.4</ele>
        <time>2022-06-25T09:37:24Z</time>
      </trkpt>
      <trkpt lat="46.51127" lon="4.83169">
        <ele>302.8</ele>
        <time>2022-06-25T09:37:25Z</time>
      </trkpt>
      <trkpt lat="46.51115" lon="4.83163">
        <ele>302.2</ele>
        <time>2022-06-25T09:37:26Z</time>
      </trkpt>
      <trkpt lat="46.51103" lon="4.83156">
        <ele>301.4</ele>
        <time>2022-06-25T09:37:27Z</time>
      </trkpt>
      <trkpt lat="46.51092" lon="4.8315">
        <ele>301</ele>
        <time>2022-06-25T09:37:28Z</time>
      </trkpt>
      <trkpt lat="46.5108" lon="4.83144">
        <ele>300.4</ele>
        <time>2022-06-25T09:37:29Z</time>
      </trkpt>
      <trkpt lat="46.51067" lon="4.83139">
        <ele>299.4</ele>
        <time>2022-06-25T09:37:30Z</time>
      </trkpt>
      <trkpt lat="46.51055" lon="4.83135">
        <ele>299</ele>
        <time>2022-06-25T09:37:31Z</time>
      </trkpt>
      <trkpt lat="46.51043" lon="4.83132">
        <ele>298.2</ele>
        <time>2022-06-25T09:37:32Z</time>
      </trkpt>
      <trkpt lat="46.51031" lon="4.83127">
        <ele>297.2</ele>
        <time>2022-06-25T09:37:33Z</time>
      </trkpt>
      <trkpt lat="46.51019" lon="4.83124">
        <ele>296.6</ele>
        <time>2022-06-25T09:37:34Z</time>
      </trkpt>
      <trkpt lat="46.51007" lon="4.83121">
        <ele>296.2</ele>
        <time>2022-06-25T09:37:35Z</time>
      </trkpt>
      <trkpt lat="46.50995" lon="4.83121">
        <ele>295.4</ele>
        <time>2022-06-25T09:37:36Z</time>
      </trkpt>
      <trkpt lat="46.50984" lon="4.83119">
        <ele>294.6</ele>
        <time>2022-06-25T09:37:37Z</time>
      </trkpt>
      <trkpt lat="46.50972" lon="4.83117">
        <ele>294</ele>
        <time>2022-06-25T09:37:38Z</time>
      </trkpt>
      <trkpt lat="46.50961" lon="4.83116">
        <ele>293.4</ele>
        <time>2022-06-25T09:37:39Z</time>
      </trkpt>
      <trkpt lat="46.50949" lon="4.83117">
        <ele>292.6</ele>
        <time>2022-06-25T09:37:40Z</time>
      </trkpt>
      <trkpt lat="46.50939" lon="4.83118">
        <ele>292</ele>
        <time>2022-06-25T09:37:41Z</time>
      </trkpt>
      <trkpt lat="46.50928" lon="4.83116">
        <ele>291.4</ele>
        <time>2022-06-25T09:37:42Z</time>
      </trkpt>
      <trkpt lat="46.50917" lon="4.83113">
        <ele>291</ele>
        <time>2022-06-25T09:37:43Z</time>
      </trkpt>
      <trkpt lat="46.50906" lon="4.83109">
        <ele>290.4</ele>
        <time>2022-06-25T09:37:44Z</time>
      </trkpt>
      <trkpt lat="46.50895" lon="4.83106">
        <ele>290</ele>
        <time>2022-06-25T09:37:45Z</time>
      </trkpt>
      <trkpt lat="46.50885" lon="4.83103">
        <ele>289.8</ele>
        <time>2022-06-25T09:37:46Z</time>
      </trkpt>
      <trkpt lat="46.50875" lon="4.83101">
        <ele>289.2</ele>
        <time>2022-06-25T09:37:47Z</time>
      </trkpt>
      <trkpt lat="46.50864" lon="4.83098">
        <ele>288.8</ele>
        <time>2022-06-25T09:37:48Z</time>
      </trkpt>
      <trkpt lat="46.50854" lon="4.83096">
        <ele>288.4</ele>
        <time>2022-06-25T09:37:49Z</time>
      </trkpt>
      <trkpt lat="46.50843" lon="4.83093">
        <ele>288</ele>
        <time>2022-06-25T09:37:50Z</time>
      </trkpt>
      <trkpt lat="46.50833" lon="4.8309">
        <ele>287.6</ele>
        <time>2022-06-25T09:37:51Z</time>
      </trkpt>
      <trkpt lat="46.50823" lon="4.83087">
        <ele>287.4</ele>
        <time>2022-06-25T09:37:52Z</time>
      </trkpt>
      <trkpt lat="46.50813" lon="4.83084">
        <ele>287</ele>
        <time>2022-06-25T09:37:53Z</time>
      </trkpt>
      <trkpt lat="46.50803" lon="4.83082">
        <ele>286.8</ele>
        <time>2022-06-25T09:37:54Z</time>
      </trkpt>
      <trkpt lat="46.50794" lon="4.8308">
        <ele>286.4</ele>
        <time>2022-06-25T09:37:55Z</time>
      </trkpt>
      <trkpt lat="46.50784" lon="4.83078">
        <ele>286</ele>
        <time>2022-06-25T09:37:56Z</time>
      </trkpt>
      <trkpt lat="46.50775" lon="4.83077">
        <ele>285.8</ele>
        <time>2022-06-25T09:37:57Z</time>
      </trkpt>
      <trkpt lat="46.50765" lon="4.83076">
        <ele>285.8</ele>
        <time>2022-06-25T09:37:58Z</time>
      </trkpt>
      <trkpt lat="46.50756" lon="4.83076">
        <ele>285.4</ele>
        <time>2022-06-25T09:37:59Z</time>
      </trkpt>
      <trkpt lat="46.50747" lon="4.83077">
        <ele>285.4</ele>
        <time>2022-06-25T09:38:00Z</time>
      </trkpt>
      <trkpt lat="46.50738" lon="4.83078">
        <ele>285.2</ele>
        <time>2022-06-25T09:38:01Z</time>
      </trkpt>
      <trkpt lat="46.5073" lon="4.83079">
        <ele>285.2</ele>
        <time>2022-06-25T09:38:02Z</time>
      </trkpt>
      <trkpt lat="46.50721" lon="4.8308">
        <ele>284.8</ele>
        <time>2022-06-25T09:38:03Z</time>
      </trkpt>
      <trkpt lat="46.50713" lon="4.83081">
        <ele>284.8</ele>
        <time>2022-06-25T09:38:04Z</time>
      </trkpt>
      <trkpt lat="46.50705" lon="4.83082">
        <ele>284.6</ele>
        <time>2022-06-25T09:38:05Z</time>
      </trkpt>
      <trkpt lat="46.50697" lon="4.83083">
        <ele>284.6</ele>
        <time>2022-06-25T09:38:06Z</time>
      </trkpt>
      <trkpt lat="46.50689" lon="4.83084">
        <ele>284.6</ele>
        <time>2022-06-25T09:38:07Z</time>
      </trkpt>
      <trkpt lat="46.50681" lon="4.83085">
        <ele>284.6</ele>
        <time>2022-06-25T09:38:08Z</time>
      </trkpt>
      <trkpt lat="46.50673" lon="4.83086">
        <ele>284.2</ele>
        <time>2022-06-25T09:38:09Z</time>
      </trkpt>
      <trkpt lat="46.50665" lon="4.83087">
        <ele>284.2</ele>
        <time>2022-06-25T09:38:10Z</time>
      </trkpt>
      <trkpt lat="46.50658" lon="4.83087">
        <ele>284</ele>
        <time>2022-06-25T09:38:11Z</time>
      </trkpt>
      <trkpt lat="46.5065" lon="4.83087">
        <ele>284</ele>
        <time>2022-06-25T09:38:12Z</time>
      </trkpt>
      <trkpt lat="46.50642" lon="4.83086">
        <ele>283.6</ele>
        <time>2022-06-25T09:38:13Z</time>
      </trkpt>
      <trkpt lat="46.50634" lon="4.83086">
        <ele>283.4</ele>
        <time>2022-06-25T09:38:14Z</time>
      </trkpt>
      <trkpt lat="46.50627" lon="4.83086">
        <ele>283.2</ele>
        <time>2022-06-25T09:38:15Z</time>
      </trkpt>
      <trkpt lat="46.50619" lon="4.83085">
        <ele>283.2</ele>
        <time>2022-06-25T09:38:16Z</time>
      </trkpt>
      <trkpt lat="46.50611" lon="4.83085">
        <ele>283</ele>
        <time>2022-06-25T09:38:17Z</time>
      </trkpt>
      <trkpt lat="46.50604" lon="4.83085">
        <ele>282.6</ele>
        <time>2022-06-25T09:38:18Z</time>
      </trkpt>
      <trkpt lat="46.50596" lon="4.83085">
        <ele>282.6</ele>
        <time>2022-06-25T09:38:19Z</time>
      </trkpt>
      <trkpt lat="46.50588" lon="4.83085">
        <ele>282.4</ele>
        <time>2022-06-25T09:38:20Z</time>
      </trkpt>
      <trkpt lat="46.50581" lon="4.83085">
        <ele>282.2</ele>
        <time>2022-06-25T09:38:21Z</time>
      </trkpt>
      <trkpt lat="46.50573" lon="4.83086">
        <ele>281.8</ele>
        <time>2022-06-25T09:38:22Z</time>
      </trkpt>
      <trkpt lat="46.50565" lon="4.83087">
        <ele>281.4</ele>
        <time>2022-06-25T09:38:23Z</time>
      </trkpt>
      <trkpt lat="46.50557" lon="4.83089">
        <ele>281</ele>
        <time>2022-06-25T09:38:24Z</time>
      </trkpt>
      <trkpt lat="46.5055" lon="4.83091">
        <ele>280.6</ele>
        <time>2022-06-25T09:38:25Z</time>
      </trkpt>
      <trkpt lat="46.50542" lon="4.83092">
        <ele>280.4</ele>
        <time>2022-06-25T09:38:26Z</time>
      </trkpt>
      <trkpt lat="46.50534" lon="4.83093">
        <ele>280.2</ele>
        <time>2022-06-25T09:38:27Z</time>
      </trkpt>
      <trkpt lat="46.50527" lon="4.83094">
        <ele>279.6</ele>
        <time>2022-06-25T09:38:28Z</time>
      </trkpt>
      <trkpt lat="46.50519" lon="4.83095">
        <ele>279.2</ele>
        <time>2022-06-25T09:38:29Z</time>
      </trkpt>
      <trkpt lat="46.50512" lon="4.83096">
        <ele>278.8</ele>
        <time>2022-06-25T09:38:30Z</time>
      </trkpt>
      <trkpt lat="46.50505" lon="4.83097">
        <ele>278.4</ele>
        <time>2022-06-25T09:38:31Z</time>
      </trkpt>
      <trkpt lat="46.50499" lon="4.83098">
        <ele>278.2</ele>
        <time>2022-06-25T09:38:32Z</time>
      </trkpt>
      <trkpt lat="46.50493" lon="4.83098">
        <ele>277.8</ele>
        <time>2022-06-25T09:38:33Z</time>
      </trkpt>
      <trkpt lat="46.50487" lon="4.83098">
        <ele>277.6</ele>
        <time>2022-06-25T09:38:34Z</time>
      </trkpt>
      <trkpt lat="46.50481" lon="4.83096">
        <ele>277.2</ele>
        <time>2022-06-25T09:38:35Z</time>
      </trkpt>
      <trkpt lat="46.50474" lon="4.83095">
        <ele>277</ele>
        <time>2022-06-25T09:38:36Z</time>
      </trkpt>
      <trkpt lat="46.50467" lon="4.83094">
        <ele>276.8</ele>
        <time>2022-06-25T09:38:37Z</time>
      </trkpt>
      <trkpt lat="46.5046" lon="4.83092">
        <ele>276.4</ele>
        <time>2022-06-25T09:38:38Z</time>
      </trkpt>
      <trkpt lat="46.50453" lon="4.8309">
        <ele>276</ele>
        <time>2022-06-25T09:38:39Z</time>
      </trkpt>
      <trkpt lat="46.50445" lon="4.83088">
        <ele>275.6</ele>
        <time>2022-06-25T09:38:40Z</time>
      </trkpt>
      <trkpt lat="46.50437" lon="4.83086">
        <ele>275.2</ele>
        <time>2022-06-25T09:38:41Z</time>
      </trkpt>
      <trkpt lat="46.5043" lon="4.83084">
        <ele>274.8</ele>
        <time>2022-06-25T09:38:42Z</time>
      </trkpt>
      <trkpt lat="46.50422" lon="4.83081">
        <ele>274.8</ele>
        <time>2022-06-25T09:38:43Z</time>
      </trkpt>
      <trkpt lat="46.50415" lon="4.83079">
        <ele>274.4</ele>
        <time>2022-06-25T09:38:44Z</time>
      </trkpt>
      <trkpt lat="46.50408" lon="4.83077">
        <ele>274</ele>
        <time>2022-06-25T09:38:45Z</time>
      </trkpt>
      <trkpt lat="46.50401" lon="4.83075">
        <ele>273.6</ele>
        <time>2022-06-25T09:38:46Z</time>
      </trkpt>
      <trkpt lat="46.50393" lon="4.83073">
        <ele>273.4</ele>
        <time>2022-06-25T09:38:47Z</time>
      </trkpt>
      <trkpt lat="46.50386" lon="4.83071">
        <ele>273.2</ele>
        <time>2022-06-25T09:38:48Z</time>
      </trkpt>
      <trkpt lat="46.50379" lon="4.8307">
        <ele>272.8</ele>
        <time>2022-06-25T09:38:49Z</time>
      </trkpt>
      <trkpt lat="46.50371" lon="4.83068">
        <ele>272.8</ele>
        <time>2022-06-25T09:38:50Z</time>
      </trkpt>
      <trkpt lat="46.50364" lon="4.83065">
        <ele>272.4</ele>
        <time>2022-06-25T09:38:51Z</time>
      </trkpt>
      <trkpt lat="46.50356" lon="4.83063">
        <ele>272.4</ele>
        <time>2022-06-25T09:38:52Z</time>
      </trkpt>
      <trkpt lat="46.50349" lon="4.83061">
        <ele>272.2</ele>
        <time>2022-06-25T09:38:53Z</time>
      </trkpt>
      <trkpt lat="46.50341" lon="4.83059">
        <ele>272.2</ele>
        <time>2022-06-25T09:38:54Z</time>
      </trkpt>
      <trkpt lat="46.50333" lon="4.83058">
        <ele>271.8</ele>
        <time>2022-06-25T09:38:55Z</time>
      </trkpt>
      <trkpt lat="46.50326" lon="4.83057">
        <ele>271.8</ele>
        <time>2022-06-25T09:38:56Z</time>
      </trkpt>
      <trkpt lat="46.50318" lon="4.83057">
        <ele>271.4</ele>
        <time>2022-06-25T09:38:57Z</time>
      </trkpt>
      <trkpt lat="46.50311" lon="4.83057">
        <ele>271.2</ele>
        <time>2022-06-25T09:38:58Z</time>
      </trkpt>
      <trkpt lat="46.50303" lon="4.83058">
        <ele>271.2</ele>
        <time>2022-06-25T09:38:59Z</time>
      </trkpt>
      <trkpt lat="46.50296" lon="4.83059">
        <ele>271</ele>
        <time>2022-06-25T09:39:00Z</time>
      </trkpt>
      <trkpt lat="46.50288" lon="4.83059">
        <ele>271</ele>
        <time>2022-06-25T09:39:01Z</time>
      </trkpt>
      <trkpt lat="46.50281" lon="4.8306">
        <ele>271</ele>
        <time>2022-06-25T09:39:02Z</time>
      </trkpt>
      <trkpt lat="46.50274" lon="4.83061">
        <ele>270.8</ele>
        <time>2022-06-25T09:39:03Z</time>
      </trkpt>
      <trkpt lat="46.50267" lon="4.83061">
        <ele>270.8</ele>
        <time>2022-06-25T09:39:04Z</time>
      </trkpt>
      <trkpt lat="46.5026" lon="4.83062">
        <ele>270.8</ele>
        <time>2022-06-25T09:39:05Z</time>
      </trkpt>
      <trkpt lat="46.50253" lon="4.83062">
        <ele>270.8</ele>
        <time>2022-06-25T09:39:06Z</time>
      </trkpt>
      <trkpt lat="46.50246" lon="4.83063">
        <ele>270.8</ele>
        <time>2022-06-25T09:39:08Z</time>
      </trkpt>
      <trkpt lat="46.50239" lon="4.83064">
        <ele>270.8</ele>
        <time>2022-06-25T09:39:09Z</time>
      </trkpt>
      <trkpt lat="46.50232" lon="4.83064">
        <ele>270.8</ele>
        <time>2022-06-25T09:39:10Z</time>
      </trkpt>
      <trkpt lat="46.50225" lon="4.83064">
        <ele>270.8</ele>
        <time>2022-06-25T09:39:11Z</time>
      </trkpt>
      <trkpt lat="46.50218" lon="4.83065">
        <ele>270.8</ele>
        <time>2022-06-25T09:39:12Z</time>
      </trkpt>
      <trkpt lat="46.50211" lon="4.83066">
        <ele>270.8</ele>
        <time>2022-06-25T09:39:13Z</time>
      </trkpt>
      <trkpt lat="46.50204" lon="4.83066">
        <ele>270.8</ele>
        <time>2022-06-25T09:39:14Z</time>
      </trkpt>
      <trkpt lat="46.50197" lon="4.83066">
        <ele>270.8</ele>
        <time>2022-06-25T09:39:15Z</time>
      </trkpt>
      <trkpt lat="46.5019" lon="4.83066">
        <ele>270.8</ele>
        <time>2022-06-25T09:39:16Z</time>
      </trkpt>
      <trkpt lat="46.50183" lon="4.83066">
        <ele>270.8</ele>
        <time>2022-06-25T09:39:17Z</time>
      </trkpt>
      <trkpt lat="46.50176" lon="4.83067">
        <ele>270.8</ele>
        <time>2022-06-25T09:39:18Z</time>
      </trkpt>
      <trkpt lat="46.50169" lon="4.83068">
        <ele>270.6</ele>
        <time>2022-06-25T09:39:19Z</time>
      </trkpt>
      <trkpt lat="46.50162" lon="4.83069">
        <ele>270.6</ele>
        <time>2022-06-25T09:39:20Z</time>
      </trkpt>
      <trkpt lat="46.50155" lon="4.8307">
        <ele>270.6</ele>
        <time>2022-06-25T09:39:21Z</time>
      </trkpt>
      <trkpt lat="46.50148" lon="4.83071">
        <ele>270.6</ele>
        <time>2022-06-25T09:39:22Z</time>
      </trkpt>
      <trkpt lat="46.50141" lon="4.83072">
        <ele>270.6</ele>
        <time>2022-06-25T09:39:23Z</time>
      </trkpt>
      <trkpt lat="46.50134" lon="4.83074">
        <ele>270.6</ele>
        <time>2022-06-25T09:39:24Z</time>
      </trkpt>
      <trkpt lat="46.50128" lon="4.83075">
        <ele>270.6</ele>
        <time>2022-06-25T09:39:25Z</time>
      </trkpt>
      <trkpt lat="46.50121" lon="4.83077">
        <ele>270.6</ele>
        <time>2022-06-25T09:39:26Z</time>
      </trkpt>
      <trkpt lat="46.50114" lon="4.83079">
        <ele>270.6</ele>
        <time>2022-06-25T09:39:27Z</time>
      </trkpt>
      <trkpt lat="46.50108" lon="4.83081">
        <ele>270.6</ele>
        <time>2022-06-25T09:39:28Z</time>
      </trkpt>
      <trkpt lat="46.50102" lon="4.83083">
        <ele>270.6</ele>
        <time>2022-06-25T09:39:29Z</time>
      </trkpt>
      <trkpt lat="46.50095" lon="4.83085">
        <ele>270.6</ele>
        <time>2022-06-25T09:39:30Z</time>
      </trkpt>
      <trkpt lat="46.50089" lon="4.83087">
        <ele>270.8</ele>
        <time>2022-06-25T09:39:31Z</time>
      </trkpt>
      <trkpt lat="46.50083" lon="4.83089">
        <ele>270.8</ele>
        <time>2022-06-25T09:39:32Z</time>
      </trkpt>
      <trkpt lat="46.50077" lon="4.83091">
        <ele>271.2</ele>
        <time>2022-06-25T09:39:33Z</time>
      </trkpt>
      <trkpt lat="46.50072" lon="4.83093">
        <ele>271.4</ele>
        <time>2022-06-25T09:39:34Z</time>
      </trkpt>
      <trkpt lat="46.50066" lon="4.83094">
        <ele>271.4</ele>
        <time>2022-06-25T09:39:35Z</time>
      </trkpt>
      <trkpt lat="46.50061" lon="4.83096">
        <ele>271.6</ele>
        <time>2022-06-25T09:39:36Z</time>
      </trkpt>
      <trkpt lat="46.50056" lon="4.83098">
        <ele>271.6</ele>
        <time>2022-06-25T09:39:37Z</time>
      </trkpt>
      <trkpt lat="46.50051" lon="4.83099">
        <ele>272</ele>
        <time>2022-06-25T09:39:38Z</time>
      </trkpt>
      <trkpt lat="46.50046" lon="4.83101">
        <ele>272</ele>
        <time>2022-06-25T09:39:39Z</time>
      </trkpt>
      <trkpt lat="46.50041" lon="4.83103">
        <ele>272.2</ele>
        <time>2022-06-25T09:39:40Z</time>
      </trkpt>
      <trkpt lat="46.50036" lon="4.83105">
        <ele>272.2</ele>
        <time>2022-06-25T09:39:41Z</time>
      </trkpt>
      <trkpt lat="46.50031" lon="4.83106">
        <ele>272.6</ele>
        <time>2022-06-25T09:39:42Z</time>
      </trkpt>
      <trkpt lat="46.50027" lon="4.83107">
        <ele>272.8</ele>
        <time>2022-06-25T09:39:43Z</time>
      </trkpt>
      <trkpt lat="46.50022" lon="4.83109">
        <ele>273</ele>
        <time>2022-06-25T09:39:44Z</time>
      </trkpt>
      <trkpt lat="46.50018" lon="4.8311">
        <ele>273</ele>
        <time>2022-06-25T09:39:45Z</time>
      </trkpt>
      <trkpt lat="46.50013" lon="4.83112">
        <ele>273.4</ele>
        <time>2022-06-25T09:39:46Z</time>
      </trkpt>
      <trkpt lat="46.50009" lon="4.83113">
        <ele>273.6</ele>
        <time>2022-06-25T09:39:47Z</time>
      </trkpt>
      <trkpt lat="46.50005" lon="4.83114">
        <ele>274</ele>
        <time>2022-06-25T09:39:48Z</time>
      </trkpt>
      <trkpt lat="46.50001" lon="4.83116">
        <ele>274.2</ele>
        <time>2022-06-25T09:39:49Z</time>
      </trkpt>
      <trkpt lat="46.49996" lon="4.83117">
        <ele>274.4</ele>
        <time>2022-06-25T09:39:50Z</time>
      </trkpt>
      <trkpt lat="46.49992" lon="4.83119">
        <ele>274.6</ele>
        <time>2022-06-25T09:39:51Z</time>
      </trkpt>
      <trkpt lat="46.49988" lon="4.8312">
        <ele>274.8</ele>
        <time>2022-06-25T09:39:52Z</time>
      </trkpt>
      <trkpt lat="46.49983" lon="4.83121">
        <ele>275</ele>
        <time>2022-06-25T09:39:53Z</time>
      </trkpt>
      <trkpt lat="46.49978" lon="4.83122">
        <ele>275.2</ele>
        <time>2022-06-25T09:39:54Z</time>
      </trkpt>
      <trkpt lat="46.49974" lon="4.83122">
        <ele>275.6</ele>
        <time>2022-06-25T09:39:55Z</time>
      </trkpt>
      <trkpt lat="46.4997" lon="4.83122">
        <ele>275.8</ele>
        <time>2022-06-25T09:39:56Z</time>
      </trkpt>
      <trkpt lat="46.49965" lon="4.83122">
        <ele>275.8</ele>
        <time>2022-06-25T09:39:57Z</time>
      </trkpt>
      <trkpt lat="46.49961" lon="4.83123">
        <ele>276</ele>
        <time>2022-06-25T09:39:58Z</time>
      </trkpt>
      <trkpt lat="46.49957" lon="4.83123">
        <ele>276.4</ele>
        <time>2022-06-25T09:39:59Z</time>
      </trkpt>
      <trkpt lat="46.49952" lon="4.83122">
        <ele>276.6</ele>
        <time>2022-06-25T09:40:00Z</time>
      </trkpt>
      <trkpt lat="46.49948" lon="4.83122">
        <ele>276.6</ele>
        <time>2022-06-25T09:40:01Z</time>
      </trkpt>
      <trkpt lat="46.49944" lon="4.83121">
        <ele>277</ele>
        <time>2022-06-25T09:40:02Z</time>
      </trkpt>
      <trkpt lat="46.4994" lon="4.8312">
        <ele>277.2</ele>
        <time>2022-06-25T09:40:03Z</time>
      </trkpt>
      <trkpt lat="46.49936" lon="4.83119">
        <ele>277.2</ele>
        <time>2022-06-25T09:40:04Z</time>
      </trkpt>
      <trkpt lat="46.49933" lon="4.83117">
        <ele>277.6</ele>
        <time>2022-06-25T09:40:05Z</time>
      </trkpt>
      <trkpt lat="46.49929" lon="4.83116">
        <ele>277.6</ele>
        <time>2022-06-25T09:40:06Z</time>
      </trkpt>
      <trkpt lat="46.49925" lon="4.83115">
        <ele>278</ele>
        <time>2022-06-25T09:40:07Z</time>
      </trkpt>
      <trkpt lat="46.49922" lon="4.83114">
        <ele>278</ele>
        <time>2022-06-25T09:40:08Z</time>
      </trkpt>
      <trkpt lat="46.49918" lon="4.83113">
        <ele>278.4</ele>
        <time>2022-06-25T09:40:09Z</time>
      </trkpt>
      <trkpt lat="46.49914" lon="4.83113">
        <ele>278.4</ele>
        <time>2022-06-25T09:40:10Z</time>
      </trkpt>
      <trkpt lat="46.49911" lon="4.83113">
        <ele>278.8</ele>
        <time>2022-06-25T09:40:11Z</time>
      </trkpt>
      <trkpt lat="46.49908" lon="4.83113">
        <ele>279</ele>
        <time>2022-06-25T09:40:12Z</time>
      </trkpt>
      <trkpt lat="46.49905" lon="4.83114">
        <ele>279</ele>
        <time>2022-06-25T09:40:13Z</time>
      </trkpt>
      <trkpt lat="46.49902" lon="4.83116">
        <ele>279</ele>
        <time>2022-06-25T09:40:14Z</time>
      </trkpt>
      <trkpt lat="46.49899" lon="4.83117">
        <ele>279.2</ele>
        <time>2022-06-25T09:40:15Z</time>
      </trkpt>
      <trkpt lat="46.49896" lon="4.83118">
        <ele>279.2</ele>
        <time>2022-06-25T09:40:16Z</time>
      </trkpt>
      <trkpt lat="46.49894" lon="4.83118">
        <ele>279.2</ele>
        <time>2022-06-25T09:40:17Z</time>
      </trkpt>
      <trkpt lat="46.49891" lon="4.83118">
        <ele>279.2</ele>
        <time>2022-06-25T09:40:18Z</time>
      </trkpt>
      <trkpt lat="46.49889" lon="4.83117">
        <ele>279.2</ele>
        <time>2022-06-25T09:40:19Z</time>
      </trkpt>
      <trkpt lat="46.49886" lon="4.83118">
        <ele>279.2</ele>
        <time>2022-06-25T09:40:20Z</time>
      </trkpt>
      <trkpt lat="46.49883" lon="4.83118">
        <ele>279.2</ele>
        <time>2022-06-25T09:40:21Z</time>
      </trkpt>
      <trkpt lat="46.4988" lon="4.83118">
        <ele>279.2</ele>
        <time>2022-06-25T09:40:22Z</time>
      </trkpt>
      <trkpt lat="46.49877" lon="4.83116">
        <ele>279.2</ele>
        <time>2022-06-25T09:40:23Z</time>
      </trkpt>
      <trkpt lat="46.49873" lon="4.83113">
        <ele>279.2</ele>
        <time>2022-06-25T09:40:24Z</time>
      </trkpt>
      <trkpt lat="46.49869" lon="4.8311">
        <ele>279.2</ele>
        <time>2022-06-25T09:40:25Z</time>
      </trkpt>
      <trkpt lat="46.49865" lon="4.83106">
        <ele>279</ele>
        <time>2022-06-25T09:40:27Z</time>
      </trkpt>
      <trkpt lat="46.4986" lon="4.83103">
        <ele>279</ele>
        <time>2022-06-25T09:40:28Z</time>
      </trkpt>
      <trkpt lat="46.49855" lon="4.83099">
        <ele>278.8</ele>
        <time>2022-06-25T09:40:29Z</time>
      </trkpt>
      <trkpt lat="46.4985" lon="4.83095">
        <ele>278.8</ele>
        <time>2022-06-25T09:40:30Z</time>
      </trkpt>
      <trkpt lat="46.49844" lon="4.8309">
        <ele>278.6</ele>
        <time>2022-06-25T09:40:31Z</time>
      </trkpt>
      <trkpt lat="46.49838" lon="4.83086">
        <ele>278</ele>
        <time>2022-06-25T09:40:32Z</time>
      </trkpt>
      <trkpt lat="46.49832" lon="4.83081">
        <ele>277.8</ele>
        <time>2022-06-25T09:40:33Z</time>
      </trkpt>
      <trkpt lat="46.49826" lon="4.83076">
        <ele>277.8</ele>
        <time>2022-06-25T09:40:34Z</time>
      </trkpt>
      <trkpt lat="46.49819" lon="4.8307">
        <ele>277.4</ele>
        <time>2022-06-25T09:40:35Z</time>
      </trkpt>
      <trkpt lat="46.49813" lon="4.83065">
        <ele>277.4</ele>
        <time>2022-06-25T09:40:36Z</time>
      </trkpt>
      <trkpt lat="46.49806" lon="4.83059">
        <ele>277</ele>
        <time>2022-06-25T09:40:37Z</time>
      </trkpt>
      <trkpt lat="46.49799" lon="4.83053">
        <ele>276.6</ele>
        <time>2022-06-25T09:40:38Z</time>
      </trkpt>
      <trkpt lat="46.49792" lon="4.83048">
        <ele>276.4</ele>
        <time>2022-06-25T09:40:39Z</time>
      </trkpt>
      <trkpt lat="46.49786" lon="4.83042">
        <ele>276.2</ele>
        <time>2022-06-25T09:40:40Z</time>
      </trkpt>
      <trkpt lat="46.49772" lon="4.83031">
        <ele>275.8</ele>
        <time>2022-06-25T09:40:41Z</time>
      </trkpt>
      <trkpt lat="46.49765" lon="4.83025">
        <ele>275.6</ele>
        <time>2022-06-25T09:40:42Z</time>
      </trkpt>
      <trkpt lat="46.49758" lon="4.83018">
        <ele>275.2</ele>
        <time>2022-06-25T09:40:43Z</time>
      </trkpt>
      <trkpt lat="46.4975" lon="4.83012">
        <ele>275.2</ele>
        <time>2022-06-25T09:40:44Z</time>
      </trkpt>
      <trkpt lat="46.49743" lon="4.83007">
        <ele>274.8</ele>
        <time>2022-06-25T09:40:45Z</time>
      </trkpt>
      <trkpt lat="46.49736" lon="4.83001">
        <ele>274.4</ele>
        <time>2022-06-25T09:40:46Z</time>
      </trkpt>
      <trkpt lat="46.49728" lon="4.82995">
        <ele>274</ele>
        <time>2022-06-25T09:40:47Z</time>
      </trkpt>
      <trkpt lat="46.49721" lon="4.82988">
        <ele>273.6</ele>
        <time>2022-06-25T09:40:48Z</time>
      </trkpt>
      <trkpt lat="46.49713" lon="4.82982">
        <ele>273.4</ele>
        <time>2022-06-25T09:40:49Z</time>
      </trkpt>
      <trkpt lat="46.49706" lon="4.82976">
        <ele>273.2</ele>
        <time>2022-06-25T09:40:50Z</time>
      </trkpt>
      <trkpt lat="46.49698" lon="4.8297">
        <ele>272.8</ele>
        <time>2022-06-25T09:40:51Z</time>
      </trkpt>
      <trkpt lat="46.4969" lon="4.82963">
        <ele>272.4</ele>
        <time>2022-06-25T09:40:52Z</time>
      </trkpt>
      <trkpt lat="46.49683" lon="4.82957">
        <ele>272.2</ele>
        <time>2022-06-25T09:40:53Z</time>
      </trkpt>
      <trkpt lat="46.49675" lon="4.8295">
        <ele>271.6</ele>
        <time>2022-06-25T09:40:54Z</time>
      </trkpt>
      <trkpt lat="46.49667" lon="4.82944">
        <ele>271.4</ele>
        <time>2022-06-25T09:40:55Z</time>
      </trkpt>
      <trkpt lat="46.49659" lon="4.82937">
        <ele>271</ele>
        <time>2022-06-25T09:40:56Z</time>
      </trkpt>
      <trkpt lat="46.49651" lon="4.82931">
        <ele>270.8</ele>
        <time>2022-06-25T09:40:57Z</time>
      </trkpt>
      <trkpt lat="46.49643" lon="4.82924">
        <ele>270.4</ele>
        <time>2022-06-25T09:40:58Z</time>
      </trkpt>
      <trkpt lat="46.49635" lon="4.82917">
        <ele>270</ele>
        <time>2022-06-25T09:40:59Z</time>
      </trkpt>
      <trkpt lat="46.49627" lon="4.82911">
        <ele>269.6</ele>
        <time>2022-06-25T09:41:00Z</time>
      </trkpt>
      <trkpt lat="46.49619" lon="4.82904">
        <ele>269.2</ele>
        <time>2022-06-25T09:41:01Z</time>
      </trkpt>
      <trkpt lat="46.4961" lon="4.82897">
        <ele>268.8</ele>
        <time>2022-06-25T09:41:02Z</time>
      </trkpt>
      <trkpt lat="46.49602" lon="4.82891">
        <ele>268.2</ele>
        <time>2022-06-25T09:41:03Z</time>
      </trkpt>
      <trkpt lat="46.49593" lon="4.82884">
        <ele>267.8</ele>
        <time>2022-06-25T09:41:04Z</time>
      </trkpt>
      <trkpt lat="46.49585" lon="4.82877">
        <ele>267.2</ele>
        <time>2022-06-25T09:41:05Z</time>
      </trkpt>
      <trkpt lat="46.49576" lon="4.8287">
        <ele>266.8</ele>
        <time>2022-06-25T09:41:06Z</time>
      </trkpt>
      <trkpt lat="46.49568" lon="4.82862">
        <ele>266.2</ele>
        <time>2022-06-25T09:41:07Z</time>
      </trkpt>
      <trkpt lat="46.49559" lon="4.82855">
        <ele>265.8</ele>
        <time>2022-06-25T09:41:08Z</time>
      </trkpt>
      <trkpt lat="46.4955" lon="4.82848">
        <ele>265.4</ele>
        <time>2022-06-25T09:41:09Z</time>
      </trkpt>
      <trkpt lat="46.49541" lon="4.82841">
        <ele>265</ele>
        <time>2022-06-25T09:41:10Z</time>
      </trkpt>
      <trkpt lat="46.49533" lon="4.82834">
        <ele>264.6</ele>
        <time>2022-06-25T09:41:11Z</time>
      </trkpt>
      <trkpt lat="46.49524" lon="4.82826">
        <ele>264.2</ele>
        <time>2022-06-25T09:41:12Z</time>
      </trkpt>
      <trkpt lat="46.49515" lon="4.82819">
        <ele>263.8</ele>
        <time>2022-06-25T09:41:13Z</time>
      </trkpt>
      <trkpt lat="46.49506" lon="4.82812">
        <ele>263.4</ele>
        <time>2022-06-25T09:41:14Z</time>
      </trkpt>
      <trkpt lat="46.49497" lon="4.82804">
        <ele>262.2</ele>
        <time>2022-06-25T09:41:15Z</time>
      </trkpt>
      <trkpt lat="46.49487" lon="4.82796">
        <ele>262.2</ele>
        <time>2022-06-25T09:41:16Z</time>
      </trkpt>
      <trkpt lat="46.49477" lon="4.82787">
        <ele>261.8</ele>
        <time>2022-06-25T09:41:17Z</time>
      </trkpt>
      <trkpt lat="46.49468" lon="4.8278">
        <ele>261.4</ele>
        <time>2022-06-25T09:41:18Z</time>
      </trkpt>
      <trkpt lat="46.49459" lon="4.82772">
        <ele>260.8</ele>
        <time>2022-06-25T09:41:19Z</time>
      </trkpt>
      <trkpt lat="46.4945" lon="4.82765">
        <ele>260.4</ele>
        <time>2022-06-25T09:41:20Z</time>
      </trkpt>
      <trkpt lat="46.49441" lon="4.82757">
        <ele>259.8</ele>
        <time>2022-06-25T09:41:21Z</time>
      </trkpt>
      <trkpt lat="46.49432" lon="4.82749">
        <ele>259.6</ele>
        <time>2022-06-25T09:41:22Z</time>
      </trkpt>
      <trkpt lat="46.49423" lon="4.8274">
        <ele>259</ele>
        <time>2022-06-25T09:41:23Z</time>
      </trkpt>
      <trkpt lat="46.49414" lon="4.82732">
        <ele>258.4</ele>
        <time>2022-06-25T09:41:24Z</time>
      </trkpt>
      <trkpt lat="46.49405" lon="4.82724">
        <ele>257.6</ele>
        <time>2022-06-25T09:41:25Z</time>
      </trkpt>
      <trkpt lat="46.49396" lon="4.82715">
        <ele>257.2</ele>
        <time>2022-06-25T09:41:26Z</time>
      </trkpt>
      <trkpt lat="46.49387" lon="4.82707">
        <ele>256.8</ele>
        <time>2022-06-25T09:41:27Z</time>
      </trkpt>
      <trkpt lat="46.49378" lon="4.82698">
        <ele>256.4</ele>
        <time>2022-06-25T09:41:28Z</time>
      </trkpt>
      <trkpt lat="46.49369" lon="4.82689">
        <ele>256</ele>
        <time>2022-06-25T09:41:29Z</time>
      </trkpt>
      <trkpt lat="46.49361" lon="4.8268">
        <ele>255.6</ele>
        <time>2022-06-25T09:41:30Z</time>
      </trkpt>
      <trkpt lat="46.49352" lon="4.82671">
        <ele>255</ele>
        <time>2022-06-25T09:41:31Z</time>
      </trkpt>
      <trkpt lat="46.49342" lon="4.82662">
        <ele>254.6</ele>
        <time>2022-06-25T09:41:32Z</time>
      </trkpt>
      <trkpt lat="46.49334" lon="4.82655">
        <ele>254.2</ele>
        <time>2022-06-25T09:41:33Z</time>
      </trkpt>
      <trkpt lat="46.49325" lon="4.82647">
        <ele>253.8</ele>
        <time>2022-06-25T09:41:34Z</time>
      </trkpt>
      <trkpt lat="46.49317" lon="4.82638">
        <ele>253.6</ele>
        <time>2022-06-25T09:41:35Z</time>
      </trkpt>
      <trkpt lat="46.49309" lon="4.82629">
        <ele>253.2</ele>
        <time>2022-06-25T09:41:36Z</time>
      </trkpt>
      <trkpt lat="46.49301" lon="4.82621">
        <ele>253</ele>
        <time>2022-06-25T09:41:37Z</time>
      </trkpt>
      <trkpt lat="46.49293" lon="4.82612">
        <ele>252.6</ele>
        <time>2022-06-25T09:41:38Z</time>
      </trkpt>
      <trkpt lat="46.49285" lon="4.82603">
        <ele>252.2</ele>
        <time>2022-06-25T09:41:39Z</time>
      </trkpt>
      <trkpt lat="46.49277" lon="4.82594">
        <ele>251.8</ele>
        <time>2022-06-25T09:41:40Z</time>
      </trkpt>
      <trkpt lat="46.49269" lon="4.82587">
        <ele>251.4</ele>
        <time>2022-06-25T09:41:41Z</time>
      </trkpt>
      <trkpt lat="46.49261" lon="4.82579">
        <ele>251</ele>
        <time>2022-06-25T09:41:42Z</time>
      </trkpt>
      <trkpt lat="46.49253" lon="4.82571">
        <ele>251</ele>
        <time>2022-06-25T09:41:43Z</time>
      </trkpt>
      <trkpt lat="46.49244" lon="4.82562">
        <ele>250.6</ele>
        <time>2022-06-25T09:41:44Z</time>
      </trkpt>
      <trkpt lat="46.49237" lon="4.82554">
        <ele>250.6</ele>
        <time>2022-06-25T09:41:45Z</time>
      </trkpt>
      <trkpt lat="46.49229" lon="4.82547">
        <ele>250.2</ele>
        <time>2022-06-25T09:41:46Z</time>
      </trkpt>
      <trkpt lat="46.49221" lon="4.8254">
        <ele>250.2</ele>
        <time>2022-06-25T09:41:47Z</time>
      </trkpt>
      <trkpt lat="46.49214" lon="4.82533">
        <ele>250.2</ele>
        <time>2022-06-25T09:41:48Z</time>
      </trkpt>
      <trkpt lat="46.49207" lon="4.82526">
        <ele>250</ele>
        <time>2022-06-25T09:41:49Z</time>
      </trkpt>
      <trkpt lat="46.492" lon="4.82519">
        <ele>250</ele>
        <time>2022-06-25T09:41:50Z</time>
      </trkpt>
      <trkpt lat="46.49193" lon="4.82513">
        <ele>249.8</ele>
        <time>2022-06-25T09:41:51Z</time>
      </trkpt>
      <trkpt lat="46.49186" lon="4.82506">
        <ele>249.8</ele>
        <time>2022-06-25T09:41:52Z</time>
      </trkpt>
      <trkpt lat="46.49179" lon="4.825">
        <ele>249.6</ele>
        <time>2022-06-25T09:41:53Z</time>
      </trkpt>
      <trkpt lat="46.49173" lon="4.82494">
        <ele>249.6</ele>
        <time>2022-06-25T09:41:54Z</time>
      </trkpt>
      <trkpt lat="46.49166" lon="4.82488">
        <ele>249.6</ele>
        <time>2022-06-25T09:41:55Z</time>
      </trkpt>
      <trkpt lat="46.4916" lon="4.82482">
        <ele>249.4</ele>
        <time>2022-06-25T09:41:56Z</time>
      </trkpt>
      <trkpt lat="46.49154" lon="4.82476">
        <ele>249.4</ele>
        <time>2022-06-25T09:41:57Z</time>
      </trkpt>
      <trkpt lat="46.49147" lon="4.8247">
        <ele>249.4</ele>
        <time>2022-06-25T09:41:58Z</time>
      </trkpt>
      <trkpt lat="46.49142" lon="4.82464">
        <ele>249.4</ele>
        <time>2022-06-25T09:41:59Z</time>
      </trkpt>
      <trkpt lat="46.49136" lon="4.82458">
        <ele>249.2</ele>
        <time>2022-06-25T09:42:00Z</time>
      </trkpt>
      <trkpt lat="46.4913" lon="4.82452">
        <ele>249.2</ele>
        <time>2022-06-25T09:42:01Z</time>
      </trkpt>
      <trkpt lat="46.49124" lon="4.82446">
        <ele>249.2</ele>
        <time>2022-06-25T09:42:02Z</time>
      </trkpt>
      <trkpt lat="46.49119" lon="4.82441">
        <ele>249.2</ele>
        <time>2022-06-25T09:42:03Z</time>
      </trkpt>
      <trkpt lat="46.49113" lon="4.82435">
        <ele>249.2</ele>
        <time>2022-06-25T09:42:04Z</time>
      </trkpt>
      <trkpt lat="46.49107" lon="4.82429">
        <ele>249.2</ele>
        <time>2022-06-25T09:42:05Z</time>
      </trkpt>
      <trkpt lat="46.49102" lon="4.82424">
        <ele>249.2</ele>
        <time>2022-06-25T09:42:06Z</time>
      </trkpt>
      <trkpt lat="46.49097" lon="4.82418">
        <ele>249.2</ele>
        <time>2022-06-25T09:42:07Z</time>
      </trkpt>
      <trkpt lat="46.49092" lon="4.82413">
        <ele>249.4</ele>
        <time>2022-06-25T09:42:08Z</time>
      </trkpt>
      <trkpt lat="46.49086" lon="4.82408">
        <ele>249.6</ele>
        <time>2022-06-25T09:42:09Z</time>
      </trkpt>
      <trkpt lat="46.49081" lon="4.82404">
        <ele>249.6</ele>
        <time>2022-06-25T09:42:10Z</time>
      </trkpt>
      <trkpt lat="46.49076" lon="4.824">
        <ele>249.6</ele>
        <time>2022-06-25T09:42:11Z</time>
      </trkpt>
      <trkpt lat="46.4907" lon="4.82396">
        <ele>249.6</ele>
        <time>2022-06-25T09:42:12Z</time>
      </trkpt>
      <trkpt lat="46.49064" lon="4.82392">
        <ele>249.6</ele>
        <time>2022-06-25T09:42:13Z</time>
      </trkpt>
      <trkpt lat="46.49059" lon="4.82389">
        <ele>249.6</ele>
        <time>2022-06-25T09:42:14Z</time>
      </trkpt>
      <trkpt lat="46.49053" lon="4.82386">
        <ele>249.6</ele>
        <time>2022-06-25T09:42:15Z</time>
      </trkpt>
      <trkpt lat="46.49047" lon="4.82383">
        <ele>249.6</ele>
        <time>2022-06-25T09:42:16Z</time>
      </trkpt>
      <trkpt lat="46.49042" lon="4.82381">
        <ele>249.6</ele>
        <time>2022-06-25T09:42:17Z</time>
      </trkpt>
      <trkpt lat="46.49036" lon="4.82379">
        <ele>249.8</ele>
        <time>2022-06-25T09:42:18Z</time>
      </trkpt>
      <trkpt lat="46.49031" lon="4.82376">
        <ele>249.8</ele>
        <time>2022-06-25T09:42:19Z</time>
      </trkpt>
      <trkpt lat="46.49025" lon="4.82373">
        <ele>250</ele>
        <time>2022-06-25T09:42:20Z</time>
      </trkpt>
      <trkpt lat="46.4902" lon="4.82371">
        <ele>250</ele>
        <time>2022-06-25T09:42:21Z</time>
      </trkpt>
      <trkpt lat="46.49015" lon="4.82368">
        <ele>250.4</ele>
        <time>2022-06-25T09:42:22Z</time>
      </trkpt>
      <trkpt lat="46.4901" lon="4.82366">
        <ele>250.4</ele>
        <time>2022-06-25T09:42:23Z</time>
      </trkpt>
      <trkpt lat="46.49006" lon="4.82363">
        <ele>250.6</ele>
        <time>2022-06-25T09:42:24Z</time>
      </trkpt>
      <trkpt lat="46.49001" lon="4.82361">
        <ele>250.6</ele>
        <time>2022-06-25T09:42:25Z</time>
      </trkpt>
      <trkpt lat="46.48996" lon="4.82359">
        <ele>250.8</ele>
        <time>2022-06-25T09:42:26Z</time>
      </trkpt>
      <trkpt lat="46.48992" lon="4.82357">
        <ele>250.8</ele>
        <time>2022-06-25T09:42:27Z</time>
      </trkpt>
      <trkpt lat="46.48988" lon="4.82354">
        <ele>251.2</ele>
        <time>2022-06-25T09:42:28Z</time>
      </trkpt>
      <trkpt lat="46.48984" lon="4.82352">
        <ele>251.2</ele>
        <time>2022-06-25T09:42:29Z</time>
      </trkpt>
      <trkpt lat="46.4898" lon="4.8235">
        <ele>251.2</ele>
        <time>2022-06-25T09:42:30Z</time>
      </trkpt>
      <trkpt lat="46.48976" lon="4.82348">
        <ele>251.4</ele>
        <time>2022-06-25T09:42:31Z</time>
      </trkpt>
      <trkpt lat="46.48971" lon="4.82347">
        <ele>251.4</ele>
        <time>2022-06-25T09:42:32Z</time>
      </trkpt>
      <trkpt lat="46.48967" lon="4.82345">
        <ele>251.8</ele>
        <time>2022-06-25T09:42:33Z</time>
      </trkpt>
      <trkpt lat="46.48963" lon="4.82343">
        <ele>251.8</ele>
        <time>2022-06-25T09:42:34Z</time>
      </trkpt>
      <trkpt lat="46.48959" lon="4.82341">
        <ele>252.2</ele>
        <time>2022-06-25T09:42:35Z</time>
      </trkpt>
      <trkpt lat="46.48955" lon="4.82339">
        <ele>252.2</ele>
        <time>2022-06-25T09:42:36Z</time>
      </trkpt>
      <trkpt lat="46.48951" lon="4.82337">
        <ele>252.4</ele>
        <time>2022-06-25T09:42:37Z</time>
      </trkpt>
      <trkpt lat="46.48947" lon="4.82336">
        <ele>252.4</ele>
        <time>2022-06-25T09:42:38Z</time>
      </trkpt>
      <trkpt lat="46.48944" lon="4.82334">
        <ele>252.6</ele>
        <time>2022-06-25T09:42:39Z</time>
      </trkpt>
      <trkpt lat="46.4894" lon="4.82332">
        <ele>252.6</ele>
        <time>2022-06-25T09:42:40Z</time>
      </trkpt>
      <trkpt lat="46.48936" lon="4.82331">
        <ele>252.8</ele>
        <time>2022-06-25T09:42:41Z</time>
      </trkpt>
      <trkpt lat="46.48932" lon="4.82329">
        <ele>252.8</ele>
        <time>2022-06-25T09:42:42Z</time>
      </trkpt>
      <trkpt lat="46.48928" lon="4.82327">
        <ele>253.2</ele>
        <time>2022-06-25T09:42:43Z</time>
      </trkpt>
      <trkpt lat="46.48925" lon="4.82325">
        <ele>253.2</ele>
        <time>2022-06-25T09:42:44Z</time>
      </trkpt>
      <trkpt lat="46.48921" lon="4.82323">
        <ele>253.4</ele>
        <time>2022-06-25T09:42:45Z</time>
      </trkpt>
      <trkpt lat="46.48917" lon="4.82321">
        <ele>253.4</ele>
        <time>2022-06-25T09:42:46Z</time>
      </trkpt>
      <trkpt lat="46.48914" lon="4.82319">
        <ele>253.8</ele>
        <time>2022-06-25T09:42:47Z</time>
      </trkpt>
      <trkpt lat="46.4891" lon="4.82318">
        <ele>253.8</ele>
        <time>2022-06-25T09:42:48Z</time>
      </trkpt>
      <trkpt lat="46.48907" lon="4.82316">
        <ele>254</ele>
        <time>2022-06-25T09:42:49Z</time>
      </trkpt>
      <trkpt lat="46.48903" lon="4.82315">
        <ele>254</ele>
        <time>2022-06-25T09:42:50Z</time>
      </trkpt>
      <trkpt lat="46.48899" lon="4.82313">
        <ele>254.2</ele>
        <time>2022-06-25T09:42:51Z</time>
      </trkpt>
      <trkpt lat="46.48896" lon="4.82311">
        <ele>254.2</ele>
        <time>2022-06-25T09:42:52Z</time>
      </trkpt>
      <trkpt lat="46.48892" lon="4.82309">
        <ele>254.6</ele>
        <time>2022-06-25T09:42:53Z</time>
      </trkpt>
      <trkpt lat="46.48889" lon="4.82308">
        <ele>254.6</ele>
        <time>2022-06-25T09:42:54Z</time>
      </trkpt>
      <trkpt lat="46.48885" lon="4.82306">
        <ele>254.8</ele>
        <time>2022-06-25T09:42:55Z</time>
      </trkpt>
      <trkpt lat="46.48881" lon="4.82305">
        <ele>254.8</ele>
        <time>2022-06-25T09:42:56Z</time>
      </trkpt>
      <trkpt lat="46.48878" lon="4.82303">
        <ele>255</ele>
        <time>2022-06-25T09:42:57Z</time>
      </trkpt>
      <trkpt lat="46.48874" lon="4.82301">
        <ele>255</ele>
        <time>2022-06-25T09:42:58Z</time>
      </trkpt>
      <trkpt lat="46.48871" lon="4.82299">
        <ele>255.2</ele>
        <time>2022-06-25T09:42:59Z</time>
      </trkpt>
      <trkpt lat="46.48867" lon="4.82298">
        <ele>255.2</ele>
        <time>2022-06-25T09:43:00Z</time>
      </trkpt>
      <trkpt lat="46.48863" lon="4.82296">
        <ele>255.6</ele>
        <time>2022-06-25T09:43:01Z</time>
      </trkpt>
      <trkpt lat="46.48859" lon="4.82294">
        <ele>255.6</ele>
        <time>2022-06-25T09:43:02Z</time>
      </trkpt>
      <trkpt lat="46.48855" lon="4.82292">
        <ele>255.6</ele>
        <time>2022-06-25T09:43:03Z</time>
      </trkpt>
      <trkpt lat="46.48851" lon="4.8229">
        <ele>255.8</ele>
        <time>2022-06-25T09:43:04Z</time>
      </trkpt>
      <trkpt lat="46.48847" lon="4.82288">
        <ele>255.8</ele>
        <time>2022-06-25T09:43:05Z</time>
      </trkpt>
      <trkpt lat="46.48843" lon="4.82286">
        <ele>256.2</ele>
        <time>2022-06-25T09:43:06Z</time>
      </trkpt>
      <trkpt lat="46.48839" lon="4.82283">
        <ele>256.2</ele>
        <time>2022-06-25T09:43:07Z</time>
      </trkpt>
      <trkpt lat="46.48835" lon="4.82281">
        <ele>256.4</ele>
        <time>2022-06-25T09:43:08Z</time>
      </trkpt>
      <trkpt lat="46.4883" lon="4.82279">
        <ele>256.4</ele>
        <time>2022-06-25T09:43:09Z</time>
      </trkpt>
      <trkpt lat="46.48826" lon="4.82277">
        <ele>256.8</ele>
        <time>2022-06-25T09:43:10Z</time>
      </trkpt>
      <trkpt lat="46.48822" lon="4.82275">
        <ele>256.8</ele>
        <time>2022-06-25T09:43:11Z</time>
      </trkpt>
      <trkpt lat="46.48818" lon="4.82273">
        <ele>257</ele>
        <time>2022-06-25T09:43:12Z</time>
      </trkpt>
      <trkpt lat="46.48813" lon="4.82271">
        <ele>257</ele>
        <time>2022-06-25T09:43:13Z</time>
      </trkpt>
      <trkpt lat="46.48809" lon="4.82269">
        <ele>257.4</ele>
        <time>2022-06-25T09:43:14Z</time>
      </trkpt>
      <trkpt lat="46.48805" lon="4.82266">
        <ele>257.4</ele>
        <time>2022-06-25T09:43:15Z</time>
      </trkpt>
      <trkpt lat="46.48801" lon="4.82264">
        <ele>257.8</ele>
        <time>2022-06-25T09:43:16Z</time>
      </trkpt>
      <trkpt lat="46.48797" lon="4.82263">
        <ele>257.8</ele>
        <time>2022-06-25T09:43:17Z</time>
      </trkpt>
      <trkpt lat="46.48792" lon="4.82261">
        <ele>258</ele>
        <time>2022-06-25T09:43:18Z</time>
      </trkpt>
      <trkpt lat="46.48788" lon="4.82259">
        <ele>258</ele>
        <time>2022-06-25T09:43:19Z</time>
      </trkpt>
      <trkpt lat="46.48784" lon="4.82257">
        <ele>258</ele>
        <time>2022-06-25T09:43:20Z</time>
      </trkpt>
      <trkpt lat="46.4878" lon="4.82255">
        <ele>258.2</ele>
        <time>2022-06-25T09:43:21Z</time>
      </trkpt>
      <trkpt lat="46.48776" lon="4.82253">
        <ele>258.2</ele>
        <time>2022-06-25T09:43:22Z</time>
      </trkpt>
      <trkpt lat="46.48772" lon="4.8225">
        <ele>258.2</ele>
        <time>2022-06-25T09:43:23Z</time>
      </trkpt>
      <trkpt lat="46.48767" lon="4.82248">
        <ele>258.6</ele>
        <time>2022-06-25T09:43:24Z</time>
      </trkpt>
      <trkpt lat="46.48763" lon="4.82246">
        <ele>258.6</ele>
        <time>2022-06-25T09:43:25Z</time>
      </trkpt>
      <trkpt lat="46.48759" lon="4.82244">
        <ele>258.8</ele>
        <time>2022-06-25T09:43:26Z</time>
      </trkpt>
      <trkpt lat="46.48755" lon="4.82242">
        <ele>258.8</ele>
        <time>2022-06-25T09:43:27Z</time>
      </trkpt>
      <trkpt lat="46.48751" lon="4.8224">
        <ele>258.8</ele>
        <time>2022-06-25T09:43:28Z</time>
      </trkpt>
      <trkpt lat="46.48747" lon="4.82238">
        <ele>259.2</ele>
        <time>2022-06-25T09:43:29Z</time>
      </trkpt>
      <trkpt lat="46.48743" lon="4.82236">
        <ele>259.2</ele>
        <time>2022-06-25T09:43:30Z</time>
      </trkpt>
      <trkpt lat="46.48739" lon="4.82234">
        <ele>259.6</ele>
        <time>2022-06-25T09:43:31Z</time>
      </trkpt>
      <trkpt lat="46.48735" lon="4.82231">
        <ele>259.6</ele>
        <time>2022-06-25T09:43:32Z</time>
      </trkpt>
      <trkpt lat="46.48731" lon="4.82229">
        <ele>260</ele>
        <time>2022-06-25T09:43:33Z</time>
      </trkpt>
      <trkpt lat="46.48728" lon="4.82226">
        <ele>260</ele>
        <time>2022-06-25T09:43:34Z</time>
      </trkpt>
      <trkpt lat="46.48724" lon="4.82224">
        <ele>260.2</ele>
        <time>2022-06-25T09:43:35Z</time>
      </trkpt>
      <trkpt lat="46.48719" lon="4.82221">
        <ele>260.2</ele>
        <time>2022-06-25T09:43:36Z</time>
      </trkpt>
      <trkpt lat="46.48716" lon="4.82219">
        <ele>260.6</ele>
        <time>2022-06-25T09:43:37Z</time>
      </trkpt>
      <trkpt lat="46.48712" lon="4.82216">
        <ele>260.6</ele>
        <time>2022-06-25T09:43:38Z</time>
      </trkpt>
      <trkpt lat="46.48708" lon="4.82213">
        <ele>260.8</ele>
        <time>2022-06-25T09:43:39Z</time>
      </trkpt>
      <trkpt lat="46.48704" lon="4.8221">
        <ele>260.8</ele>
        <time>2022-06-25T09:43:40Z</time>
      </trkpt>
      <trkpt lat="46.487" lon="4.82208">
        <ele>261</ele>
        <time>2022-06-25T09:43:41Z</time>
      </trkpt>
      <trkpt lat="46.48696" lon="4.82205">
        <ele>261</ele>
        <time>2022-06-25T09:43:42Z</time>
      </trkpt>
      <trkpt lat="46.48692" lon="4.82202">
        <ele>261.2</ele>
        <time>2022-06-25T09:43:43Z</time>
      </trkpt>
      <trkpt lat="46.48687" lon="4.82199">
        <ele>261.2</ele>
        <time>2022-06-25T09:43:44Z</time>
      </trkpt>
      <trkpt lat="46.48683" lon="4.82197">
        <ele>261.6</ele>
        <time>2022-06-25T09:43:45Z</time>
      </trkpt>
      <trkpt lat="46.48679" lon="4.82194">
        <ele>261.6</ele>
        <time>2022-06-25T09:43:46Z</time>
      </trkpt>
      <trkpt lat="46.48675" lon="4.82191">
        <ele>261.8</ele>
        <time>2022-06-25T09:43:47Z</time>
      </trkpt>
      <trkpt lat="46.48671" lon="4.82188">
        <ele>262.2</ele>
        <time>2022-06-25T09:43:48Z</time>
      </trkpt>
      <trkpt lat="46.48667" lon="4.82185">
        <ele>262.2</ele>
        <time>2022-06-25T09:43:49Z</time>
      </trkpt>
      <trkpt lat="46.48663" lon="4.82183">
        <ele>262.4</ele>
        <time>2022-06-25T09:43:50Z</time>
      </trkpt>
      <trkpt lat="46.48658" lon="4.8218">
        <ele>262.4</ele>
        <time>2022-06-25T09:43:51Z</time>
      </trkpt>
      <trkpt lat="46.48654" lon="4.82177">
        <ele>262.4</ele>
        <time>2022-06-25T09:43:52Z</time>
      </trkpt>
      <trkpt lat="46.4865" lon="4.82174">
        <ele>262.4</ele>
        <time>2022-06-25T09:43:53Z</time>
      </trkpt>
      <trkpt lat="46.48645" lon="4.82171">
        <ele>262.4</ele>
        <time>2022-06-25T09:43:54Z</time>
      </trkpt>
      <trkpt lat="46.48641" lon="4.82169">
        <ele>262.4</ele>
        <time>2022-06-25T09:43:55Z</time>
      </trkpt>
      <trkpt lat="46.48636" lon="4.82166">
        <ele>262.4</ele>
        <time>2022-06-25T09:43:56Z</time>
      </trkpt>
      <trkpt lat="46.48632" lon="4.82163">
        <ele>262.6</ele>
        <time>2022-06-25T09:43:57Z</time>
      </trkpt>
      <trkpt lat="46.48627" lon="4.8216">
        <ele>262.6</ele>
        <time>2022-06-25T09:43:58Z</time>
      </trkpt>
      <trkpt lat="46.48623" lon="4.82157">
        <ele>262.8</ele>
        <time>2022-06-25T09:43:59Z</time>
      </trkpt>
      <trkpt lat="46.48618" lon="4.82153">
        <ele>262.8</ele>
        <time>2022-06-25T09:44:00Z</time>
      </trkpt>
      <trkpt lat="46.48613" lon="4.8215">
        <ele>262.8</ele>
        <time>2022-06-25T09:44:01Z</time>
      </trkpt>
      <trkpt lat="46.48608" lon="4.82147">
        <ele>262.8</ele>
        <time>2022-06-25T09:44:02Z</time>
      </trkpt>
      <trkpt lat="46.48602" lon="4.82144">
        <ele>262.8</ele>
        <time>2022-06-25T09:44:03Z</time>
      </trkpt>
      <trkpt lat="46.48597" lon="4.8214">
        <ele>263</ele>
        <time>2022-06-25T09:44:04Z</time>
      </trkpt>
      <trkpt lat="46.48591" lon="4.82136">
        <ele>263</ele>
        <time>2022-06-25T09:44:05Z</time>
      </trkpt>
      <trkpt lat="46.48586" lon="4.82132">
        <ele>263</ele>
        <time>2022-06-25T09:44:06Z</time>
      </trkpt>
      <trkpt lat="46.4858" lon="4.82129">
        <ele>263</ele>
        <time>2022-06-25T09:44:07Z</time>
      </trkpt>
      <trkpt lat="46.48573" lon="4.82125">
        <ele>263</ele>
        <time>2022-06-25T09:44:08Z</time>
      </trkpt>
      <trkpt lat="46.48567" lon="4.8212">
        <ele>262.8</ele>
        <time>2022-06-25T09:44:09Z</time>
      </trkpt>
      <trkpt lat="46.4856" lon="4.82116">
        <ele>262.8</ele>
        <time>2022-06-25T09:44:10Z</time>
      </trkpt>
      <trkpt lat="46.48553" lon="4.82112">
        <ele>262.8</ele>
        <time>2022-06-25T09:44:11Z</time>
      </trkpt>
      <trkpt lat="46.48546" lon="4.82107">
        <ele>262.4</ele>
        <time>2022-06-25T09:44:12Z</time>
      </trkpt>
      <trkpt lat="46.48539" lon="4.82102">
        <ele>262.2</ele>
        <time>2022-06-25T09:44:13Z</time>
      </trkpt>
      <trkpt lat="46.48531" lon="4.82098">
        <ele>261.8</ele>
        <time>2022-06-25T09:44:14Z</time>
      </trkpt>
      <trkpt lat="46.48523" lon="4.82093">
        <ele>261.8</ele>
        <time>2022-06-25T09:44:15Z</time>
      </trkpt>
      <trkpt lat="46.48515" lon="4.82088">
        <ele>261.8</ele>
        <time>2022-06-25T09:44:16Z</time>
      </trkpt>
      <trkpt lat="46.48508" lon="4.82083">
        <ele>261.4</ele>
        <time>2022-06-25T09:44:17Z</time>
      </trkpt>
      <trkpt lat="46.485" lon="4.82078">
        <ele>261</ele>
        <time>2022-06-25T09:44:18Z</time>
      </trkpt>
      <trkpt lat="46.48492" lon="4.82073">
        <ele>260.8</ele>
        <time>2022-06-25T09:44:19Z</time>
      </trkpt>
      <trkpt lat="46.48484" lon="4.82068">
        <ele>260.4</ele>
        <time>2022-06-25T09:44:20Z</time>
      </trkpt>
      <trkpt lat="46.48476" lon="4.82063">
        <ele>260</ele>
        <time>2022-06-25T09:44:21Z</time>
      </trkpt>
      <trkpt lat="46.48467" lon="4.82058">
        <ele>259.8</ele>
        <time>2022-06-25T09:44:22Z</time>
      </trkpt>
      <trkpt lat="46.48459" lon="4.82053">
        <ele>259.4</ele>
        <time>2022-06-25T09:44:23Z</time>
      </trkpt>
      <trkpt lat="46.48451" lon="4.82049">
        <ele>259</ele>
        <time>2022-06-25T09:44:24Z</time>
      </trkpt>
      <trkpt lat="46.48443" lon="4.82044">
        <ele>258.6</ele>
        <time>2022-06-25T09:44:25Z</time>
      </trkpt>
      <trkpt lat="46.48435" lon="4.8204">
        <ele>258.4</ele>
        <time>2022-06-25T09:44:26Z</time>
      </trkpt>
      <trkpt lat="46.48426" lon="4.82036">
        <ele>258</ele>
        <time>2022-06-25T09:44:27Z</time>
      </trkpt>
      <trkpt lat="46.48418" lon="4.82031">
        <ele>257.8</ele>
        <time>2022-06-25T09:44:28Z</time>
      </trkpt>
      <trkpt lat="46.48409" lon="4.82027">
        <ele>257.4</ele>
        <time>2022-06-25T09:44:29Z</time>
      </trkpt>
      <trkpt lat="46.48401" lon="4.82023">
        <ele>257.4</ele>
        <time>2022-06-25T09:44:30Z</time>
      </trkpt>
      <trkpt lat="46.48393" lon="4.82018">
        <ele>257.2</ele>
        <time>2022-06-25T09:44:31Z</time>
      </trkpt>
      <trkpt lat="46.48384" lon="4.82014">
        <ele>257.2</ele>
        <time>2022-06-25T09:44:32Z</time>
      </trkpt>
      <trkpt lat="46.48376" lon="4.82009">
        <ele>256.8</ele>
        <time>2022-06-25T09:44:33Z</time>
      </trkpt>
      <trkpt lat="46.48367" lon="4.82004">
        <ele>256.6</ele>
        <time>2022-06-25T09:44:34Z</time>
      </trkpt>
      <trkpt lat="46.48359" lon="4.81999">
        <ele>256.6</ele>
        <time>2022-06-25T09:44:35Z</time>
      </trkpt>
      <trkpt lat="46.48351" lon="4.81994">
        <ele>256.4</ele>
        <time>2022-06-25T09:44:36Z</time>
      </trkpt>
      <trkpt lat="46.48343" lon="4.81989">
        <ele>256.2</ele>
        <time>2022-06-25T09:44:37Z</time>
      </trkpt>
      <trkpt lat="46.48335" lon="4.81983">
        <ele>255.8</ele>
        <time>2022-06-25T09:44:38Z</time>
      </trkpt>
      <trkpt lat="46.48327" lon="4.81978">
        <ele>255.8</ele>
        <time>2022-06-25T09:44:39Z</time>
      </trkpt>
      <trkpt lat="46.48319" lon="4.81973">
        <ele>255.6</ele>
        <time>2022-06-25T09:44:40Z</time>
      </trkpt>
      <trkpt lat="46.48311" lon="4.81967">
        <ele>255.6</ele>
        <time>2022-06-25T09:44:41Z</time>
      </trkpt>
      <trkpt lat="46.48304" lon="4.81962">
        <ele>255.2</ele>
        <time>2022-06-25T09:44:42Z</time>
      </trkpt>
      <trkpt lat="46.48296" lon="4.81957">
        <ele>254.8</ele>
        <time>2022-06-25T09:44:43Z</time>
      </trkpt>
      <trkpt lat="46.48288" lon="4.81952">
        <ele>254.6</ele>
        <time>2022-06-25T09:44:44Z</time>
      </trkpt>
      <trkpt lat="46.4828" lon="4.81946">
        <ele>254.2</ele>
        <time>2022-06-25T09:44:45Z</time>
      </trkpt>
      <trkpt lat="46.48273" lon="4.81941">
        <ele>254</ele>
        <time>2022-06-25T09:44:46Z</time>
      </trkpt>
      <trkpt lat="46.48265" lon="4.81936">
        <ele>253.6</ele>
        <time>2022-06-25T09:44:47Z</time>
      </trkpt>
      <trkpt lat="46.48257" lon="4.8193">
        <ele>253.4</ele>
        <time>2022-06-25T09:44:48Z</time>
      </trkpt>
      <trkpt lat="46.4825" lon="4.81924">
        <ele>253.4</ele>
        <time>2022-06-25T09:44:49Z</time>
      </trkpt>
      <trkpt lat="46.48243" lon="4.81918">
        <ele>253</ele>
        <time>2022-06-25T09:44:50Z</time>
      </trkpt>
      <trkpt lat="46.48236" lon="4.81911">
        <ele>253</ele>
        <time>2022-06-25T09:44:51Z</time>
      </trkpt>
      <trkpt lat="46.48229" lon="4.81904">
        <ele>252.6</ele>
        <time>2022-06-25T09:44:52Z</time>
      </trkpt>
      <trkpt lat="46.48222" lon="4.81896">
        <ele>252.6</ele>
        <time>2022-06-25T09:44:53Z</time>
      </trkpt>
      <trkpt lat="46.48216" lon="4.81888">
        <ele>252.4</ele>
        <time>2022-06-25T09:44:54Z</time>
      </trkpt>
      <trkpt lat="46.4821" lon="4.8188">
        <ele>252.4</ele>
        <time>2022-06-25T09:44:55Z</time>
      </trkpt>
      <trkpt lat="46.48205" lon="4.81871">
        <ele>252.2</ele>
        <time>2022-06-25T09:44:56Z</time>
      </trkpt>
      <trkpt lat="46.48199" lon="4.81862">
        <ele>252.2</ele>
        <time>2022-06-25T09:44:57Z</time>
      </trkpt>
      <trkpt lat="46.48194" lon="4.81852">
        <ele>251.8</ele>
        <time>2022-06-25T09:44:58Z</time>
      </trkpt>
      <trkpt lat="46.48189" lon="4.81843">
        <ele>251.8</ele>
        <time>2022-06-25T09:44:59Z</time>
      </trkpt>
      <trkpt lat="46.48183" lon="4.81834">
        <ele>251.6</ele>
        <time>2022-06-25T09:45:00Z</time>
      </trkpt>
      <trkpt lat="46.48178" lon="4.81825">
        <ele>251.4</ele>
        <time>2022-06-25T09:45:01Z</time>
      </trkpt>
      <trkpt lat="46.48172" lon="4.81816">
        <ele>251.4</ele>
        <time>2022-06-25T09:45:02Z</time>
      </trkpt>
      <trkpt lat="46.48166" lon="4.81808">
        <ele>251</ele>
        <time>2022-06-25T09:45:03Z</time>
      </trkpt>
      <trkpt lat="46.48159" lon="4.818">
        <ele>250.6</ele>
        <time>2022-06-25T09:45:04Z</time>
      </trkpt>
      <trkpt lat="46.48153" lon="4.81792">
        <ele>250.4</ele>
        <time>2022-06-25T09:45:05Z</time>
      </trkpt>
      <trkpt lat="46.48146" lon="4.81785">
        <ele>250.2</ele>
        <time>2022-06-25T09:45:06Z</time>
      </trkpt>
      <trkpt lat="46.48139" lon="4.81778">
        <ele>249.8</ele>
        <time>2022-06-25T09:45:07Z</time>
      </trkpt>
      <trkpt lat="46.48132" lon="4.81771">
        <ele>249.8</ele>
        <time>2022-06-25T09:45:08Z</time>
      </trkpt>
      <trkpt lat="46.48125" lon="4.81764">
        <ele>249.4</ele>
        <time>2022-06-25T09:45:09Z</time>
      </trkpt>
      <trkpt lat="46.48119" lon="4.81757">
        <ele>249.4</ele>
        <time>2022-06-25T09:45:10Z</time>
      </trkpt>
      <trkpt lat="46.48112" lon="4.8175">
        <ele>249</ele>
        <time>2022-06-25T09:45:11Z</time>
      </trkpt>
      <trkpt lat="46.48105" lon="4.81743">
        <ele>249</ele>
        <time>2022-06-25T09:45:12Z</time>
      </trkpt>
      <trkpt lat="46.48099" lon="4.81736">
        <ele>248.6</ele>
        <time>2022-06-25T09:45:13Z</time>
      </trkpt>
      <trkpt lat="46.48093" lon="4.81728">
        <ele>248.6</ele>
        <time>2022-06-25T09:45:14Z</time>
      </trkpt>
      <trkpt lat="46.48087" lon="4.81721">
        <ele>248.6</ele>
        <time>2022-06-25T09:45:15Z</time>
      </trkpt>
      <trkpt lat="46.48081" lon="4.81713">
        <ele>248.2</ele>
        <time>2022-06-25T09:45:16Z</time>
      </trkpt>
      <trkpt lat="46.48076" lon="4.81705">
        <ele>248</ele>
        <time>2022-06-25T09:45:17Z</time>
      </trkpt>
      <trkpt lat="46.48071" lon="4.81695">
        <ele>247.6</ele>
        <time>2022-06-25T09:45:18Z</time>
      </trkpt>
      <trkpt lat="46.48066" lon="4.81685">
        <ele>247.2</ele>
        <time>2022-06-25T09:45:19Z</time>
      </trkpt>
      <trkpt lat="46.48062" lon="4.81675">
        <ele>246.8</ele>
        <time>2022-06-25T09:45:20Z</time>
      </trkpt>
      <trkpt lat="46.48058" lon="4.81664">
        <ele>246.4</ele>
        <time>2022-06-25T09:45:21Z</time>
      </trkpt>
      <trkpt lat="46.48055" lon="4.81652">
        <ele>246</ele>
        <time>2022-06-25T09:45:22Z</time>
      </trkpt>
      <trkpt lat="46.48051" lon="4.8164">
        <ele>245.6</ele>
        <time>2022-06-25T09:45:23Z</time>
      </trkpt>
      <trkpt lat="46.48047" lon="4.81629">
        <ele>245.2</ele>
        <time>2022-06-25T09:45:24Z</time>
      </trkpt>
      <trkpt lat="46.48044" lon="4.81617">
        <ele>245</ele>
        <time>2022-06-25T09:45:25Z</time>
      </trkpt>
      <trkpt lat="46.4804" lon="4.81606">
        <ele>244.4</ele>
        <time>2022-06-25T09:45:26Z</time>
      </trkpt>
      <trkpt lat="46.48035" lon="4.81595">
        <ele>244.2</ele>
        <time>2022-06-25T09:45:27Z</time>
      </trkpt>
      <trkpt lat="46.4803" lon="4.81585">
        <ele>244.2</ele>
        <time>2022-06-25T09:45:28Z</time>
      </trkpt>
      <trkpt lat="46.48025" lon="4.81575">
        <ele>243.8</ele>
        <time>2022-06-25T09:45:29Z</time>
      </trkpt>
      <trkpt lat="46.4802" lon="4.81565">
        <ele>243.6</ele>
        <time>2022-06-25T09:45:30Z</time>
      </trkpt>
      <trkpt lat="46.48015" lon="4.81556">
        <ele>243.2</ele>
        <time>2022-06-25T09:45:31Z</time>
      </trkpt>
      <trkpt lat="46.4801" lon="4.81546">
        <ele>242.8</ele>
        <time>2022-06-25T09:45:32Z</time>
      </trkpt>
      <trkpt lat="46.48005" lon="4.81537">
        <ele>242.4</ele>
        <time>2022-06-25T09:45:33Z</time>
      </trkpt>
      <trkpt lat="46.48" lon="4.81528">
        <ele>242</ele>
        <time>2022-06-25T09:45:34Z</time>
      </trkpt>
      <trkpt lat="46.47994" lon="4.81519">
        <ele>241.8</ele>
        <time>2022-06-25T09:45:35Z</time>
      </trkpt>
      <trkpt lat="46.47989" lon="4.81511">
        <ele>241.4</ele>
        <time>2022-06-25T09:45:36Z</time>
      </trkpt>
      <trkpt lat="46.47983" lon="4.81503">
        <ele>241.2</ele>
        <time>2022-06-25T09:45:37Z</time>
      </trkpt>
      <trkpt lat="46.47978" lon="4.81495">
        <ele>241.2</ele>
        <time>2022-06-25T09:45:38Z</time>
      </trkpt>
      <trkpt lat="46.47972" lon="4.81487">
        <ele>241</ele>
        <time>2022-06-25T09:45:39Z</time>
      </trkpt>
      <trkpt lat="46.47967" lon="4.8148">
        <ele>241</ele>
        <time>2022-06-25T09:45:40Z</time>
      </trkpt>
      <trkpt lat="46.47962" lon="4.81472">
        <ele>241</ele>
        <time>2022-06-25T09:45:41Z</time>
      </trkpt>
      <trkpt lat="46.47957" lon="4.81465">
        <ele>240.8</ele>
        <time>2022-06-25T09:45:42Z</time>
      </trkpt>
      <trkpt lat="46.47952" lon="4.81457">
        <ele>240.8</ele>
        <time>2022-06-25T09:45:43Z</time>
      </trkpt>
      <trkpt lat="46.47947" lon="4.81449">
        <ele>240.6</ele>
        <time>2022-06-25T09:45:44Z</time>
      </trkpt>
      <trkpt lat="46.47942" lon="4.81441">
        <ele>240.6</ele>
        <time>2022-06-25T09:45:45Z</time>
      </trkpt>
      <trkpt lat="46.47938" lon="4.81433">
        <ele>240.6</ele>
        <time>2022-06-25T09:45:46Z</time>
      </trkpt>
      <trkpt lat="46.47933" lon="4.81425">
        <ele>240.6</ele>
        <time>2022-06-25T09:45:47Z</time>
      </trkpt>
      <trkpt lat="46.47929" lon="4.81417">
        <ele>240.2</ele>
        <time>2022-06-25T09:45:48Z</time>
      </trkpt>
      <trkpt lat="46.47926" lon="4.81409">
        <ele>240.2</ele>
        <time>2022-06-25T09:45:49Z</time>
      </trkpt>
      <trkpt lat="46.47923" lon="4.814">
        <ele>240.2</ele>
        <time>2022-06-25T09:45:50Z</time>
      </trkpt>
      <trkpt lat="46.47921" lon="4.81392">
        <ele>240.2</ele>
        <time>2022-06-25T09:45:51Z</time>
      </trkpt>
      <trkpt lat="46.47918" lon="4.81383">
        <ele>240.2</ele>
        <time>2022-06-25T09:45:52Z</time>
      </trkpt>
      <trkpt lat="46.47915" lon="4.81375">
        <ele>240.2</ele>
        <time>2022-06-25T09:45:53Z</time>
      </trkpt>
      <trkpt lat="46.47912" lon="4.81367">
        <ele>240.2</ele>
        <time>2022-06-25T09:45:54Z</time>
      </trkpt>
      <trkpt lat="46.47909" lon="4.8136">
        <ele>239.8</ele>
        <time>2022-06-25T09:45:55Z</time>
      </trkpt>
      <trkpt lat="46.47905" lon="4.81353">
        <ele>239.8</ele>
        <time>2022-06-25T09:45:56Z</time>
      </trkpt>
      <trkpt lat="46.47902" lon="4.81347">
        <ele>239.8</ele>
        <time>2022-06-25T09:45:57Z</time>
      </trkpt>
      <trkpt lat="46.47899" lon="4.81341">
        <ele>240.2</ele>
        <time>2022-06-25T09:45:58Z</time>
      </trkpt>
      <trkpt lat="46.47895" lon="4.81336">
        <ele>240.2</ele>
        <time>2022-06-25T09:45:59Z</time>
      </trkpt>
      <trkpt lat="46.47893" lon="4.81331">
        <ele>240.2</ele>
        <time>2022-06-25T09:46:00Z</time>
      </trkpt>
      <trkpt lat="46.4789" lon="4.81326">
        <ele>240.4</ele>
        <time>2022-06-25T09:46:01Z</time>
      </trkpt>
      <trkpt lat="46.47887" lon="4.81322">
        <ele>240.4</ele>
        <time>2022-06-25T09:46:02Z</time>
      </trkpt>
      <trkpt lat="46.47884" lon="4.81319">
        <ele>240.8</ele>
        <time>2022-06-25T09:46:03Z</time>
      </trkpt>
      <trkpt lat="46.47882" lon="4.81316">
        <ele>240.8</ele>
        <time>2022-06-25T09:46:04Z</time>
      </trkpt>
      <trkpt lat="46.47878" lon="4.81313">
        <ele>241.2</ele>
        <time>2022-06-25T09:46:05Z</time>
      </trkpt>
      <trkpt lat="46.47874" lon="4.8131">
        <ele>241.2</ele>
        <time>2022-06-25T09:46:06Z</time>
      </trkpt>
      <trkpt lat="46.4787" lon="4.81309">
        <ele>241.4</ele>
        <time>2022-06-25T09:46:07Z</time>
      </trkpt>
      <trkpt lat="46.47865" lon="4.81309">
        <ele>241.4</ele>
        <time>2022-06-25T09:46:08Z</time>
      </trkpt>
      <trkpt lat="46.47861" lon="4.81309">
        <ele>241.8</ele>
        <time>2022-06-25T09:46:09Z</time>
      </trkpt>
      <trkpt lat="46.47857" lon="4.81308">
        <ele>241.8</ele>
        <time>2022-06-25T09:46:10Z</time>
      </trkpt>
      <trkpt lat="46.47853" lon="4.81307">
        <ele>242</ele>
        <time>2022-06-25T09:46:11Z</time>
      </trkpt>
      <trkpt lat="46.47848" lon="4.81307">
        <ele>242</ele>
        <time>2022-06-25T09:46:12Z</time>
      </trkpt>
      <trkpt lat="46.47844" lon="4.81307">
        <ele>242.4</ele>
        <time>2022-06-25T09:46:13Z</time>
      </trkpt>
      <trkpt lat="46.47839" lon="4.81306">
        <ele>242.4</ele>
        <time>2022-06-25T09:46:14Z</time>
      </trkpt>
      <trkpt lat="46.47834" lon="4.81306">
        <ele>242.6</ele>
        <time>2022-06-25T09:46:15Z</time>
      </trkpt>
      <trkpt lat="46.4783" lon="4.81306">
        <ele>242.6</ele>
        <time>2022-06-25T09:46:16Z</time>
      </trkpt>
      <trkpt lat="46.47825" lon="4.81306">
        <ele>242.8</ele>
        <time>2022-06-25T09:46:17Z</time>
      </trkpt>
      <trkpt lat="46.47821" lon="4.81306">
        <ele>242.8</ele>
        <time>2022-06-25T09:46:18Z</time>
      </trkpt>
      <trkpt lat="46.47816" lon="4.81306">
        <ele>242.8</ele>
        <time>2022-06-25T09:46:19Z</time>
      </trkpt>
      <trkpt lat="46.47812" lon="4.81306">
        <ele>242.8</ele>
        <time>2022-06-25T09:46:20Z</time>
      </trkpt>
      <trkpt lat="46.47807" lon="4.81306">
        <ele>243</ele>
        <time>2022-06-25T09:46:21Z</time>
      </trkpt>
      <trkpt lat="46.47802" lon="4.81306">
        <ele>243</ele>
        <time>2022-06-25T09:46:22Z</time>
      </trkpt>
      <trkpt lat="46.47797" lon="4.81306">
        <ele>243</ele>
        <time>2022-06-25T09:46:23Z</time>
      </trkpt>
      <trkpt lat="46.47792" lon="4.81306">
        <ele>243</ele>
        <time>2022-06-25T09:46:24Z</time>
      </trkpt>
      <trkpt lat="46.47787" lon="4.81307">
        <ele>243</ele>
        <time>2022-06-25T09:46:25Z</time>
      </trkpt>
      <trkpt lat="46.47782" lon="4.81307">
        <ele>243</ele>
        <time>2022-06-25T09:46:26Z</time>
      </trkpt>
      <trkpt lat="46.47776" lon="4.81307">
        <ele>243</ele>
        <time>2022-06-25T09:46:27Z</time>
      </trkpt>
      <trkpt lat="46.47771" lon="4.81308">
        <ele>243.2</ele>
        <time>2022-06-25T09:46:28Z</time>
      </trkpt>
      <trkpt lat="46.47766" lon="4.81308">
        <ele>243.2</ele>
        <time>2022-06-25T09:46:29Z</time>
      </trkpt>
      <trkpt lat="46.47761" lon="4.81308">
        <ele>243.2</ele>
        <time>2022-06-25T09:46:30Z</time>
      </trkpt>
      <trkpt lat="46.47755" lon="4.81307">
        <ele>243.4</ele>
        <time>2022-06-25T09:46:31Z</time>
      </trkpt>
      <trkpt lat="46.4775" lon="4.81307">
        <ele>243.4</ele>
        <time>2022-06-25T09:46:32Z</time>
      </trkpt>
      <trkpt lat="46.47745" lon="4.81307">
        <ele>243.4</ele>
        <time>2022-06-25T09:46:33Z</time>
      </trkpt>
      <trkpt lat="46.4774" lon="4.81307">
        <ele>243.8</ele>
        <time>2022-06-25T09:46:34Z</time>
      </trkpt>
      <trkpt lat="46.47735" lon="4.81306">
        <ele>243.8</ele>
        <time>2022-06-25T09:46:35Z</time>
      </trkpt>
      <trkpt lat="46.47729" lon="4.81306">
        <ele>243.8</ele>
        <time>2022-06-25T09:46:36Z</time>
      </trkpt>
      <trkpt lat="46.47724" lon="4.81306">
        <ele>243.8</ele>
        <time>2022-06-25T09:46:37Z</time>
      </trkpt>
      <trkpt lat="46.47719" lon="4.81306">
        <ele>244</ele>
        <time>2022-06-25T09:46:38Z</time>
      </trkpt>
      <trkpt lat="46.47714" lon="4.81305">
        <ele>244</ele>
        <time>2022-06-25T09:46:39Z</time>
      </trkpt>
      <trkpt lat="46.47709" lon="4.81304">
        <ele>244</ele>
        <time>2022-06-25T09:46:40Z</time>
      </trkpt>
      <trkpt lat="46.47703" lon="4.81304">
        <ele>244.4</ele>
        <time>2022-06-25T09:46:41Z</time>
      </trkpt>
      <trkpt lat="46.47698" lon="4.81303">
        <ele>244.4</ele>
        <time>2022-06-25T09:46:42Z</time>
      </trkpt>
      <trkpt lat="46.47693" lon="4.81303">
        <ele>244.4</ele>
        <time>2022-06-25T09:46:43Z</time>
      </trkpt>
      <trkpt lat="46.47688" lon="4.81302">
        <ele>244.6</ele>
        <time>2022-06-25T09:46:44Z</time>
      </trkpt>
      <trkpt lat="46.47682" lon="4.81301">
        <ele>244.6</ele>
        <time>2022-06-25T09:46:45Z</time>
      </trkpt>
      <trkpt lat="46.47677" lon="4.813">
        <ele>244.6</ele>
        <time>2022-06-25T09:46:46Z</time>
      </trkpt>
      <trkpt lat="46.47672" lon="4.813">
        <ele>245</ele>
        <time>2022-06-25T09:46:47Z</time>
      </trkpt>
      <trkpt lat="46.47666" lon="4.81299">
        <ele>245</ele>
        <time>2022-06-25T09:46:48Z</time>
      </trkpt>
      <trkpt lat="46.47661" lon="4.81299">
        <ele>245</ele>
        <time>2022-06-25T09:46:49Z</time>
      </trkpt>
      <trkpt lat="46.47656" lon="4.81298">
        <ele>245</ele>
        <time>2022-06-25T09:46:50Z</time>
      </trkpt>
      <trkpt lat="46.4765" lon="4.81297">
        <ele>245.2</ele>
        <time>2022-06-25T09:46:51Z</time>
      </trkpt>
      <trkpt lat="46.47645" lon="4.81297">
        <ele>245.4</ele>
        <time>2022-06-25T09:46:52Z</time>
      </trkpt>
      <trkpt lat="46.47639" lon="4.81296">
        <ele>245.4</ele>
        <time>2022-06-25T09:46:53Z</time>
      </trkpt>
      <trkpt lat="46.47634" lon="4.81295">
        <ele>245.4</ele>
        <time>2022-06-25T09:46:54Z</time>
      </trkpt>
      <trkpt lat="46.47628" lon="4.81294">
        <ele>245.6</ele>
        <time>2022-06-25T09:46:55Z</time>
      </trkpt>
      <trkpt lat="46.47623" lon="4.81294">
        <ele>245.6</ele>
        <time>2022-06-25T09:46:56Z</time>
      </trkpt>
      <trkpt lat="46.47617" lon="4.81293">
        <ele>245.6</ele>
        <time>2022-06-25T09:46:57Z</time>
      </trkpt>
      <trkpt lat="46.47612" lon="4.81292">
        <ele>245.6</ele>
        <time>2022-06-25T09:46:58Z</time>
      </trkpt>
      <trkpt lat="46.47606" lon="4.81292">
        <ele>245.6</ele>
        <time>2022-06-25T09:46:59Z</time>
      </trkpt>
      <trkpt lat="46.47601" lon="4.81291">
        <ele>245.8</ele>
        <time>2022-06-25T09:47:01Z</time>
      </trkpt>
      <trkpt lat="46.47595" lon="4.8129">
        <ele>245.8</ele>
        <time>2022-06-25T09:47:02Z</time>
      </trkpt>
      <trkpt lat="46.4759" lon="4.81289">
        <ele>245.8</ele>
        <time>2022-06-25T09:47:03Z</time>
      </trkpt>
      <trkpt lat="46.47584" lon="4.81288">
        <ele>245.8</ele>
        <time>2022-06-25T09:47:04Z</time>
      </trkpt>
      <trkpt lat="46.47579" lon="4.81288">
        <ele>245.8</ele>
        <time>2022-06-25T09:47:05Z</time>
      </trkpt>
      <trkpt lat="46.47573" lon="4.81287">
        <ele>245.8</ele>
        <time>2022-06-25T09:47:06Z</time>
      </trkpt>
      <trkpt lat="46.47567" lon="4.81286">
        <ele>245.8</ele>
        <time>2022-06-25T09:47:07Z</time>
      </trkpt>
      <trkpt lat="46.47562" lon="4.81284">
        <ele>245.8</ele>
        <time>2022-06-25T09:47:08Z</time>
      </trkpt>
      <trkpt lat="46.47556" lon="4.81282">
        <ele>246</ele>
        <time>2022-06-25T09:47:09Z</time>
      </trkpt>
      <trkpt lat="46.4755" lon="4.8128">
        <ele>246</ele>
        <time>2022-06-25T09:47:10Z</time>
      </trkpt>
      <trkpt lat="46.47545" lon="4.81277">
        <ele>246</ele>
        <time>2022-06-25T09:47:11Z</time>
      </trkpt>
      <trkpt lat="46.47539" lon="4.81275">
        <ele>246</ele>
        <time>2022-06-25T09:47:12Z</time>
      </trkpt>
      <trkpt lat="46.47533" lon="4.81272">
        <ele>246</ele>
        <time>2022-06-25T09:47:13Z</time>
      </trkpt>
      <trkpt lat="46.47527" lon="4.81269">
        <ele>246</ele>
        <time>2022-06-25T09:47:14Z</time>
      </trkpt>
      <trkpt lat="46.47521" lon="4.81266">
        <ele>246</ele>
        <time>2022-06-25T09:47:15Z</time>
      </trkpt>
      <trkpt lat="46.47509" lon="4.81258">
        <ele>245.8</ele>
        <time>2022-06-25T09:47:16Z</time>
      </trkpt>
      <trkpt lat="46.47503" lon="4.81254">
        <ele>245.8</ele>
        <time>2022-06-25T09:47:17Z</time>
      </trkpt>
      <trkpt lat="46.47497" lon="4.8125">
        <ele>245.6</ele>
        <time>2022-06-25T09:47:18Z</time>
      </trkpt>
      <trkpt lat="46.4749" lon="4.81246">
        <ele>245.6</ele>
        <time>2022-06-25T09:47:19Z</time>
      </trkpt>
      <trkpt lat="46.47484" lon="4.81242">
        <ele>245.6</ele>
        <time>2022-06-25T09:47:20Z</time>
      </trkpt>
      <trkpt lat="46.47479" lon="4.81237">
        <ele>245.2</ele>
        <time>2022-06-25T09:47:21Z</time>
      </trkpt>
      <trkpt lat="46.47473" lon="4.81232">
        <ele>245.2</ele>
        <time>2022-06-25T09:47:22Z</time>
      </trkpt>
      <trkpt lat="46.47468" lon="4.81226">
        <ele>245</ele>
        <time>2022-06-25T09:47:23Z</time>
      </trkpt>
      <trkpt lat="46.47463" lon="4.81219">
        <ele>245</ele>
        <time>2022-06-25T09:47:24Z</time>
      </trkpt>
      <trkpt lat="46.47459" lon="4.81212">
        <ele>245</ele>
        <time>2022-06-25T09:47:25Z</time>
      </trkpt>
      <trkpt lat="46.47455" lon="4.81204">
        <ele>244.8</ele>
        <time>2022-06-25T09:47:26Z</time>
      </trkpt>
      <trkpt lat="46.47451" lon="4.81195">
        <ele>244.8</ele>
        <time>2022-06-25T09:47:27Z</time>
      </trkpt>
      <trkpt lat="46.47448" lon="4.81187">
        <ele>244.8</ele>
        <time>2022-06-25T09:47:28Z</time>
      </trkpt>
      <trkpt lat="46.47446" lon="4.81178">
        <ele>244.8</ele>
        <time>2022-06-25T09:47:29Z</time>
      </trkpt>
      <trkpt lat="46.47444" lon="4.81169">
        <ele>244.8</ele>
        <time>2022-06-25T09:47:30Z</time>
      </trkpt>
      <trkpt lat="46.47441" lon="4.8116">
        <ele>244.6</ele>
        <time>2022-06-25T09:47:31Z</time>
      </trkpt>
      <trkpt lat="46.47439" lon="4.81152">
        <ele>244.6</ele>
        <time>2022-06-25T09:47:32Z</time>
      </trkpt>
      <trkpt lat="46.47437" lon="4.81143">
        <ele>244.6</ele>
        <time>2022-06-25T09:47:33Z</time>
      </trkpt>
      <trkpt lat="46.47435" lon="4.81135">
        <ele>244.6</ele>
        <time>2022-06-25T09:47:34Z</time>
      </trkpt>
      <trkpt lat="46.47432" lon="4.81126">
        <ele>244.6</ele>
        <time>2022-06-25T09:47:35Z</time>
      </trkpt>
      <trkpt lat="46.4743" lon="4.81118">
        <ele>244.6</ele>
        <time>2022-06-25T09:47:36Z</time>
      </trkpt>
      <trkpt lat="46.47428" lon="4.8111">
        <ele>244.6</ele>
        <time>2022-06-25T09:47:37Z</time>
      </trkpt>
      <trkpt lat="46.47426" lon="4.81102">
        <ele>244.6</ele>
        <time>2022-06-25T09:47:38Z</time>
      </trkpt>
      <trkpt lat="46.47424" lon="4.81094">
        <ele>244.6</ele>
        <time>2022-06-25T09:47:39Z</time>
      </trkpt>
      <trkpt lat="46.47422" lon="4.81086">
        <ele>244.6</ele>
        <time>2022-06-25T09:47:40Z</time>
      </trkpt>
      <trkpt lat="46.47421" lon="4.81078">
        <ele>244.6</ele>
        <time>2022-06-25T09:47:41Z</time>
      </trkpt>
      <trkpt lat="46.47419" lon="4.8107">
        <ele>244.6</ele>
        <time>2022-06-25T09:47:42Z</time>
      </trkpt>
      <trkpt lat="46.47417" lon="4.81061">
        <ele>244.6</ele>
        <time>2022-06-25T09:47:43Z</time>
      </trkpt>
      <trkpt lat="46.47415" lon="4.81053">
        <ele>244.6</ele>
        <time>2022-06-25T09:47:44Z</time>
      </trkpt>
      <trkpt lat="46.47413" lon="4.81044">
        <ele>244.6</ele>
        <time>2022-06-25T09:47:45Z</time>
      </trkpt>
      <trkpt lat="46.47412" lon="4.81035">
        <ele>244.6</ele>
        <time>2022-06-25T09:47:46Z</time>
      </trkpt>
      <trkpt lat="46.4741" lon="4.81025">
        <ele>244.6</ele>
        <time>2022-06-25T09:47:47Z</time>
      </trkpt>
      <trkpt lat="46.47408" lon="4.81016">
        <ele>244.4</ele>
        <time>2022-06-25T09:47:48Z</time>
      </trkpt>
      <trkpt lat="46.47407" lon="4.81007">
        <ele>244.4</ele>
        <time>2022-06-25T09:47:49Z</time>
      </trkpt>
      <trkpt lat="46.47405" lon="4.80997">
        <ele>244.2</ele>
        <time>2022-06-25T09:47:50Z</time>
      </trkpt>
      <trkpt lat="46.47404" lon="4.80989">
        <ele>244.2</ele>
        <time>2022-06-25T09:47:51Z</time>
      </trkpt>
      <trkpt lat="46.47403" lon="4.8098">
        <ele>244.2</ele>
        <time>2022-06-25T09:47:52Z</time>
      </trkpt>
      <trkpt lat="46.47402" lon="4.80971">
        <ele>244.4</ele>
        <time>2022-06-25T09:47:53Z</time>
      </trkpt>
      <trkpt lat="46.47402" lon="4.80963">
        <ele>244.4</ele>
        <time>2022-06-25T09:47:54Z</time>
      </trkpt>
      <trkpt lat="46.47401" lon="4.80956">
        <ele>244.8</ele>
        <time>2022-06-25T09:47:55Z</time>
      </trkpt>
      <trkpt lat="46.47401" lon="4.80948">
        <ele>245.2</ele>
        <time>2022-06-25T09:47:56Z</time>
      </trkpt>
      <trkpt lat="46.474" lon="4.80941">
        <ele>245.4</ele>
        <time>2022-06-25T09:47:57Z</time>
      </trkpt>
      <trkpt lat="46.47399" lon="4.80934">
        <ele>245.6</ele>
        <time>2022-06-25T09:47:58Z</time>
      </trkpt>
      <trkpt lat="46.47399" lon="4.80928">
        <ele>245.8</ele>
        <time>2022-06-25T09:47:59Z</time>
      </trkpt>
      <trkpt lat="46.47398" lon="4.80922">
        <ele>246.2</ele>
        <time>2022-06-25T09:48:00Z</time>
      </trkpt>
      <trkpt lat="46.47397" lon="4.80916">
        <ele>246.4</ele>
        <time>2022-06-25T09:48:01Z</time>
      </trkpt>
      <trkpt lat="46.47396" lon="4.80911">
        <ele>246.4</ele>
        <time>2022-06-25T09:48:02Z</time>
      </trkpt>
      <trkpt lat="46.47396" lon="4.80905">
        <ele>246.8</ele>
        <time>2022-06-25T09:48:03Z</time>
      </trkpt>
      <trkpt lat="46.47395" lon="4.809">
        <ele>246.8</ele>
        <time>2022-06-25T09:48:04Z</time>
      </trkpt>
      <trkpt lat="46.47394" lon="4.80894">
        <ele>247.2</ele>
        <time>2022-06-25T09:48:05Z</time>
      </trkpt>
      <trkpt lat="46.47393" lon="4.80889">
        <ele>247.2</ele>
        <time>2022-06-25T09:48:06Z</time>
      </trkpt>
      <trkpt lat="46.47392" lon="4.80884">
        <ele>247.4</ele>
        <time>2022-06-25T09:48:07Z</time>
      </trkpt>
      <trkpt lat="46.47392" lon="4.80878">
        <ele>247.4</ele>
        <time>2022-06-25T09:48:08Z</time>
      </trkpt>
      <trkpt lat="46.47392" lon="4.80873">
        <ele>247.6</ele>
        <time>2022-06-25T09:48:09Z</time>
      </trkpt>
      <trkpt lat="46.47392" lon="4.80868">
        <ele>247.6</ele>
        <time>2022-06-25T09:48:10Z</time>
      </trkpt>
      <trkpt lat="46.47392" lon="4.80862">
        <ele>247.6</ele>
        <time>2022-06-25T09:48:11Z</time>
      </trkpt>
      <trkpt lat="46.47391" lon="4.80855">
        <ele>247.6</ele>
        <time>2022-06-25T09:48:12Z</time>
      </trkpt>
      <trkpt lat="46.47391" lon="4.80848">
        <ele>247.6</ele>
        <time>2022-06-25T09:48:13Z</time>
      </trkpt>
      <trkpt lat="46.4739" lon="4.8084">
        <ele>247.6</ele>
        <time>2022-06-25T09:48:14Z</time>
      </trkpt>
      <trkpt lat="46.47391" lon="4.80833">
        <ele>247.6</ele>
        <time>2022-06-25T09:48:15Z</time>
      </trkpt>
      <trkpt lat="46.47391" lon="4.80825">
        <ele>247.6</ele>
        <time>2022-06-25T09:48:16Z</time>
      </trkpt>
      <trkpt lat="46.47391" lon="4.80817">
        <ele>247.4</ele>
        <time>2022-06-25T09:48:17Z</time>
      </trkpt>
      <trkpt lat="46.47391" lon="4.80808">
        <ele>247.4</ele>
        <time>2022-06-25T09:48:18Z</time>
      </trkpt>
      <trkpt lat="46.47392" lon="4.808">
        <ele>247</ele>
        <time>2022-06-25T09:48:19Z</time>
      </trkpt>
      <trkpt lat="46.47394" lon="4.80791">
        <ele>247</ele>
        <time>2022-06-25T09:48:20Z</time>
      </trkpt>
      <trkpt lat="46.47394" lon="4.80781">
        <ele>246.6</ele>
        <time>2022-06-25T09:48:21Z</time>
      </trkpt>
      <trkpt lat="46.47396" lon="4.80771">
        <ele>246.6</ele>
        <time>2022-06-25T09:48:22Z</time>
      </trkpt>
      <trkpt lat="46.47397" lon="4.80762">
        <ele>246.4</ele>
        <time>2022-06-25T09:48:23Z</time>
      </trkpt>
      <trkpt lat="46.47399" lon="4.80753">
        <ele>246.2</ele>
        <time>2022-06-25T09:48:24Z</time>
      </trkpt>
      <trkpt lat="46.47401" lon="4.80744">
        <ele>245.8</ele>
        <time>2022-06-25T09:48:25Z</time>
      </trkpt>
      <trkpt lat="46.47404" lon="4.80735">
        <ele>245.8</ele>
        <time>2022-06-25T09:48:26Z</time>
      </trkpt>
      <trkpt lat="46.47408" lon="4.80726">
        <ele>245.6</ele>
        <time>2022-06-25T09:48:27Z</time>
      </trkpt>
      <trkpt lat="46.47412" lon="4.80719">
        <ele>245.6</ele>
        <time>2022-06-25T09:48:28Z</time>
      </trkpt>
      <trkpt lat="46.47417" lon="4.80713">
        <ele>245.6</ele>
        <time>2022-06-25T09:48:29Z</time>
      </trkpt>
      <trkpt lat="46.47422" lon="4.80708">
        <ele>245.6</ele>
        <time>2022-06-25T09:48:30Z</time>
      </trkpt>
      <trkpt lat="46.47428" lon="4.80703">
        <ele>245.6</ele>
        <time>2022-06-25T09:48:31Z</time>
      </trkpt>
      <trkpt lat="46.47433" lon="4.80699">
        <ele>245.6</ele>
        <time>2022-06-25T09:48:32Z</time>
      </trkpt>
      <trkpt lat="46.47438" lon="4.80696">
        <ele>245.6</ele>
        <time>2022-06-25T09:48:33Z</time>
      </trkpt>
      <trkpt lat="46.47444" lon="4.80692">
        <ele>245.6</ele>
        <time>2022-06-25T09:48:34Z</time>
      </trkpt>
      <trkpt lat="46.4745" lon="4.8069">
        <ele>245.6</ele>
        <time>2022-06-25T09:48:35Z</time>
      </trkpt>
      <trkpt lat="46.47456" lon="4.80687">
        <ele>245.6</ele>
        <time>2022-06-25T09:48:36Z</time>
      </trkpt>
      <trkpt lat="46.47462" lon="4.80685">
        <ele>245.6</ele>
        <time>2022-06-25T09:48:37Z</time>
      </trkpt>
      <trkpt lat="46.47467" lon="4.80683">
        <ele>245.6</ele>
        <time>2022-06-25T09:48:38Z</time>
      </trkpt>
      <trkpt lat="46.47473" lon="4.80683">
        <ele>245.6</ele>
        <time>2022-06-25T09:48:39Z</time>
      </trkpt>
      <trkpt lat="46.47479" lon="4.80682">
        <ele>245.6</ele>
        <time>2022-06-25T09:48:40Z</time>
      </trkpt>
      <trkpt lat="46.47484" lon="4.80682">
        <ele>245.6</ele>
        <time>2022-06-25T09:48:41Z</time>
      </trkpt>
      <trkpt lat="46.47489" lon="4.80682">
        <ele>245.6</ele>
        <time>2022-06-25T09:48:42Z</time>
      </trkpt>
      <trkpt lat="46.47494" lon="4.80684">
        <ele>245.6</ele>
        <time>2022-06-25T09:48:43Z</time>
      </trkpt>
      <trkpt lat="46.47499" lon="4.80685">
        <ele>245.8</ele>
        <time>2022-06-25T09:48:44Z</time>
      </trkpt>
      <trkpt lat="46.47504" lon="4.80686">
        <ele>245.8</ele>
        <time>2022-06-25T09:48:45Z</time>
      </trkpt>
      <trkpt lat="46.47509" lon="4.80688">
        <ele>245.8</ele>
        <time>2022-06-25T09:48:46Z</time>
      </trkpt>
      <trkpt lat="46.47515" lon="4.80689">
        <ele>246</ele>
        <time>2022-06-25T09:48:47Z</time>
      </trkpt>
      <trkpt lat="46.4752" lon="4.8069">
        <ele>246</ele>
        <time>2022-06-25T09:48:48Z</time>
      </trkpt>
      <trkpt lat="46.47526" lon="4.80691">
        <ele>246</ele>
        <time>2022-06-25T09:48:49Z</time>
      </trkpt>
      <trkpt lat="46.47531" lon="4.80691">
        <ele>246.2</ele>
        <time>2022-06-25T09:48:50Z</time>
      </trkpt>
      <trkpt lat="46.47537" lon="4.80691">
        <ele>246.2</ele>
        <time>2022-06-25T09:48:51Z</time>
      </trkpt>
      <trkpt lat="46.47542" lon="4.80688">
        <ele>246.2</ele>
        <time>2022-06-25T09:48:52Z</time>
      </trkpt>
      <trkpt lat="46.47547" lon="4.80686">
        <ele>246.6</ele>
        <time>2022-06-25T09:48:53Z</time>
      </trkpt>
      <trkpt lat="46.47552" lon="4.80683">
        <ele>246.6</ele>
        <time>2022-06-25T09:48:54Z</time>
      </trkpt>
      <trkpt lat="46.47557" lon="4.8068">
        <ele>246.8</ele>
        <time>2022-06-25T09:48:55Z</time>
      </trkpt>
      <trkpt lat="46.47562" lon="4.80677">
        <ele>246.8</ele>
        <time>2022-06-25T09:48:56Z</time>
      </trkpt>
      <trkpt lat="46.47566" lon="4.80673">
        <ele>247.2</ele>
        <time>2022-06-25T09:48:57Z</time>
      </trkpt>
      <trkpt lat="46.4757" lon="4.80669">
        <ele>247.2</ele>
        <time>2022-06-25T09:48:58Z</time>
      </trkpt>
      <trkpt lat="46.47575" lon="4.80664">
        <ele>247.4</ele>
        <time>2022-06-25T09:48:59Z</time>
      </trkpt>
      <trkpt lat="46.47578" lon="4.8066">
        <ele>247.4</ele>
        <time>2022-06-25T09:49:00Z</time>
      </trkpt>
      <trkpt lat="46.47582" lon="4.80656">
        <ele>247.4</ele>
        <time>2022-06-25T09:49:01Z</time>
      </trkpt>
      <trkpt lat="46.47586" lon="4.80652">
        <ele>247.8</ele>
        <time>2022-06-25T09:49:02Z</time>
      </trkpt>
      <trkpt lat="46.4759" lon="4.80648">
        <ele>247.8</ele>
        <time>2022-06-25T09:49:03Z</time>
      </trkpt>
      <trkpt lat="46.47594" lon="4.80644">
        <ele>248</ele>
        <time>2022-06-25T09:49:04Z</time>
      </trkpt>
      <trkpt lat="46.47598" lon="4.80639">
        <ele>248</ele>
        <time>2022-06-25T09:49:05Z</time>
      </trkpt>
      <trkpt lat="46.47602" lon="4.80635">
        <ele>248.2</ele>
        <time>2022-06-25T09:49:06Z</time>
      </trkpt>
      <trkpt lat="46.47605" lon="4.8063">
        <ele>248.2</ele>
        <time>2022-06-25T09:49:07Z</time>
      </trkpt>
      <trkpt lat="46.47609" lon="4.80625">
        <ele>248.2</ele>
        <time>2022-06-25T09:49:08Z</time>
      </trkpt>
      <trkpt lat="46.47612" lon="4.80619">
        <ele>248.4</ele>
        <time>2022-06-25T09:49:09Z</time>
      </trkpt>
      <trkpt lat="46.47616" lon="4.80613">
        <ele>248.4</ele>
        <time>2022-06-25T09:49:10Z</time>
      </trkpt>
      <trkpt lat="46.4762" lon="4.80607">
        <ele>248.4</ele>
        <time>2022-06-25T09:49:11Z</time>
      </trkpt>
      <trkpt lat="46.47624" lon="4.80601">
        <ele>248.8</ele>
        <time>2022-06-25T09:49:12Z</time>
      </trkpt>
      <trkpt lat="46.47628" lon="4.80595">
        <ele>248.8</ele>
        <time>2022-06-25T09:49:13Z</time>
      </trkpt>
      <trkpt lat="46.47632" lon="4.80591">
        <ele>249</ele>
        <time>2022-06-25T09:49:14Z</time>
      </trkpt>
      <trkpt lat="46.47637" lon="4.80587">
        <ele>249</ele>
        <time>2022-06-25T09:49:15Z</time>
      </trkpt>
      <trkpt lat="46.47641" lon="4.80583">
        <ele>249.2</ele>
        <time>2022-06-25T09:49:16Z</time>
      </trkpt>
      <trkpt lat="46.47646" lon="4.8058">
        <ele>249.2</ele>
        <time>2022-06-25T09:49:17Z</time>
      </trkpt>
      <trkpt lat="46.47651" lon="4.80578">
        <ele>249.4</ele>
        <time>2022-06-25T09:49:18Z</time>
      </trkpt>
      <trkpt lat="46.47656" lon="4.80576">
        <ele>249.4</ele>
        <time>2022-06-25T09:49:19Z</time>
      </trkpt>
      <trkpt lat="46.47661" lon="4.80575">
        <ele>249.8</ele>
        <time>2022-06-25T09:49:20Z</time>
      </trkpt>
      <trkpt lat="46.47666" lon="4.80574">
        <ele>249.8</ele>
        <time>2022-06-25T09:49:21Z</time>
      </trkpt>
      <trkpt lat="46.47671" lon="4.80574">
        <ele>249.8</ele>
        <time>2022-06-25T09:49:22Z</time>
      </trkpt>
      <trkpt lat="46.47676" lon="4.80574">
        <ele>250</ele>
        <time>2022-06-25T09:49:23Z</time>
      </trkpt>
      <trkpt lat="46.47681" lon="4.80575">
        <ele>250</ele>
        <time>2022-06-25T09:49:24Z</time>
      </trkpt>
      <trkpt lat="46.47686" lon="4.80574">
        <ele>250.4</ele>
        <time>2022-06-25T09:49:25Z</time>
      </trkpt>
      <trkpt lat="46.47691" lon="4.80574">
        <ele>250.4</ele>
        <time>2022-06-25T09:49:26Z</time>
      </trkpt>
      <trkpt lat="46.47696" lon="4.80574">
        <ele>250.8</ele>
        <time>2022-06-25T09:49:27Z</time>
      </trkpt>
      <trkpt lat="46.47702" lon="4.80574">
        <ele>250.8</ele>
        <time>2022-06-25T09:49:28Z</time>
      </trkpt>
      <trkpt lat="46.47708" lon="4.80573">
        <ele>251</ele>
        <time>2022-06-25T09:49:29Z</time>
      </trkpt>
      <trkpt lat="46.47713" lon="4.80572">
        <ele>251</ele>
        <time>2022-06-25T09:49:30Z</time>
      </trkpt>
      <trkpt lat="46.47718" lon="4.80571">
        <ele>251</ele>
        <time>2022-06-25T09:49:31Z</time>
      </trkpt>
      <trkpt lat="46.47724" lon="4.80569">
        <ele>251.2</ele>
        <time>2022-06-25T09:49:32Z</time>
      </trkpt>
      <trkpt lat="46.47729" lon="4.80565">
        <ele>251.2</ele>
        <time>2022-06-25T09:49:33Z</time>
      </trkpt>
      <trkpt lat="46.47734" lon="4.80561">
        <ele>251.2</ele>
        <time>2022-06-25T09:49:34Z</time>
      </trkpt>
      <trkpt lat="46.47739" lon="4.80556">
        <ele>251.4</ele>
        <time>2022-06-25T09:49:35Z</time>
      </trkpt>
      <trkpt lat="46.47743" lon="4.80551">
        <ele>251.4</ele>
        <time>2022-06-25T09:49:36Z</time>
      </trkpt>
      <trkpt lat="46.47746" lon="4.80545">
        <ele>251.4</ele>
        <time>2022-06-25T09:49:37Z</time>
      </trkpt>
      <trkpt lat="46.47749" lon="4.80538">
        <ele>251.8</ele>
        <time>2022-06-25T09:49:38Z</time>
      </trkpt>
      <trkpt lat="46.47752" lon="4.8053">
        <ele>251.8</ele>
        <time>2022-06-25T09:49:39Z</time>
      </trkpt>
      <trkpt lat="46.47754" lon="4.80523">
        <ele>252</ele>
        <time>2022-06-25T09:49:40Z</time>
      </trkpt>
      <trkpt lat="46.47756" lon="4.80515">
        <ele>252</ele>
        <time>2022-06-25T09:49:41Z</time>
      </trkpt>
      <trkpt lat="46.47758" lon="4.80508">
        <ele>252</ele>
        <time>2022-06-25T09:49:42Z</time>
      </trkpt>
      <trkpt lat="46.4776" lon="4.805">
        <ele>252.2</ele>
        <time>2022-06-25T09:49:43Z</time>
      </trkpt>
      <trkpt lat="46.47762" lon="4.80493">
        <ele>252.2</ele>
        <time>2022-06-25T09:49:44Z</time>
      </trkpt>
      <trkpt lat="46.47764" lon="4.80485">
        <ele>252.2</ele>
        <time>2022-06-25T09:49:45Z</time>
      </trkpt>
      <trkpt lat="46.47766" lon="4.80478">
        <ele>252.4</ele>
        <time>2022-06-25T09:49:46Z</time>
      </trkpt>
      <trkpt lat="46.47768" lon="4.8047">
        <ele>252.4</ele>
        <time>2022-06-25T09:49:47Z</time>
      </trkpt>
      <trkpt lat="46.47769" lon="4.80462">
        <ele>252.4</ele>
        <time>2022-06-25T09:49:48Z</time>
      </trkpt>
      <trkpt lat="46.47771" lon="4.80454">
        <ele>252.8</ele>
        <time>2022-06-25T09:49:49Z</time>
      </trkpt>
      <trkpt lat="46.47773" lon="4.80446">
        <ele>252.8</ele>
        <time>2022-06-25T09:49:50Z</time>
      </trkpt>
      <trkpt lat="46.47775" lon="4.80438">
        <ele>252.8</ele>
        <time>2022-06-25T09:49:51Z</time>
      </trkpt>
      <trkpt lat="46.47777" lon="4.80431">
        <ele>253</ele>
        <time>2022-06-25T09:49:52Z</time>
      </trkpt>
      <trkpt lat="46.47778" lon="4.80423">
        <ele>253</ele>
        <time>2022-06-25T09:49:53Z</time>
      </trkpt>
      <trkpt lat="46.4778" lon="4.80416">
        <ele>253.2</ele>
        <time>2022-06-25T09:49:54Z</time>
      </trkpt>
      <trkpt lat="46.47782" lon="4.80409">
        <ele>253.2</ele>
        <time>2022-06-25T09:49:55Z</time>
      </trkpt>
      <trkpt lat="46.47784" lon="4.80402">
        <ele>253.2</ele>
        <time>2022-06-25T09:49:56Z</time>
      </trkpt>
      <trkpt lat="46.47786" lon="4.80394">
        <ele>253.6</ele>
        <time>2022-06-25T09:49:57Z</time>
      </trkpt>
      <trkpt lat="46.47788" lon="4.80387">
        <ele>253.6</ele>
        <time>2022-06-25T09:49:58Z</time>
      </trkpt>
      <trkpt lat="46.4779" lon="4.80379">
        <ele>253.6</ele>
        <time>2022-06-25T09:49:59Z</time>
      </trkpt>
      <trkpt lat="46.47792" lon="4.80372">
        <ele>253.8</ele>
        <time>2022-06-25T09:50:00Z</time>
      </trkpt>
      <trkpt lat="46.47794" lon="4.80365">
        <ele>253.8</ele>
        <time>2022-06-25T09:50:01Z</time>
      </trkpt>
      <trkpt lat="46.47796" lon="4.80357">
        <ele>253.8</ele>
        <time>2022-06-25T09:50:02Z</time>
      </trkpt>
      <trkpt lat="46.47798" lon="4.8035">
        <ele>254.2</ele>
        <time>2022-06-25T09:50:03Z</time>
      </trkpt>
      <trkpt lat="46.478" lon="4.80342">
        <ele>254.2</ele>
        <time>2022-06-25T09:50:04Z</time>
      </trkpt>
      <trkpt lat="46.47802" lon="4.80335">
        <ele>254.2</ele>
        <time>2022-06-25T09:50:05Z</time>
      </trkpt>
      <trkpt lat="46.47803" lon="4.80328">
        <ele>254.4</ele>
        <time>2022-06-25T09:50:06Z</time>
      </trkpt>
      <trkpt lat="46.47805" lon="4.80321">
        <ele>254.4</ele>
        <time>2022-06-25T09:50:07Z</time>
      </trkpt>
      <trkpt lat="46.47807" lon="4.80314">
        <ele>254.8</ele>
        <time>2022-06-25T09:50:08Z</time>
      </trkpt>
      <trkpt lat="46.47809" lon="4.80307">
        <ele>254.8</ele>
        <time>2022-06-25T09:50:09Z</time>
      </trkpt>
      <trkpt lat="46.47811" lon="4.80301">
        <ele>255</ele>
        <time>2022-06-25T09:50:10Z</time>
      </trkpt>
      <trkpt lat="46.47813" lon="4.80294">
        <ele>255.2</ele>
        <time>2022-06-25T09:50:11Z</time>
      </trkpt>
      <trkpt lat="46.47814" lon="4.80288">
        <ele>255.2</ele>
        <time>2022-06-25T09:50:12Z</time>
      </trkpt>
      <trkpt lat="46.47815" lon="4.80281">
        <ele>255.6</ele>
        <time>2022-06-25T09:50:13Z</time>
      </trkpt>
      <trkpt lat="46.47816" lon="4.80275">
        <ele>255.6</ele>
        <time>2022-06-25T09:50:14Z</time>
      </trkpt>
      <trkpt lat="46.47817" lon="4.80268">
        <ele>255.8</ele>
        <time>2022-06-25T09:50:15Z</time>
      </trkpt>
      <trkpt lat="46.47819" lon="4.80262">
        <ele>255.8</ele>
        <time>2022-06-25T09:50:16Z</time>
      </trkpt>
      <trkpt lat="46.4782" lon="4.80255">
        <ele>256.2</ele>
        <time>2022-06-25T09:50:17Z</time>
      </trkpt>
      <trkpt lat="46.47821" lon="4.80249">
        <ele>256.2</ele>
        <time>2022-06-25T09:50:18Z</time>
      </trkpt>
      <trkpt lat="46.47822" lon="4.80241">
        <ele>256.4</ele>
        <time>2022-06-25T09:50:19Z</time>
      </trkpt>
      <trkpt lat="46.47823" lon="4.80234">
        <ele>256.8</ele>
        <time>2022-06-25T09:50:20Z</time>
      </trkpt>
      <trkpt lat="46.47823" lon="4.80227">
        <ele>256.8</ele>
        <time>2022-06-25T09:50:21Z</time>
      </trkpt>
      <trkpt lat="46.47824" lon="4.80219">
        <ele>257</ele>
        <time>2022-06-25T09:50:22Z</time>
      </trkpt>
      <trkpt lat="46.47824" lon="4.80212">
        <ele>257</ele>
        <time>2022-06-25T09:50:23Z</time>
      </trkpt>
      <trkpt lat="46.47824" lon="4.80205">
        <ele>257.2</ele>
        <time>2022-06-25T09:50:24Z</time>
      </trkpt>
      <trkpt lat="46.47824" lon="4.80198">
        <ele>257.2</ele>
        <time>2022-06-25T09:50:25Z</time>
      </trkpt>
      <trkpt lat="46.47824" lon="4.80191">
        <ele>257.6</ele>
        <time>2022-06-25T09:50:26Z</time>
      </trkpt>
      <trkpt lat="46.47823" lon="4.80185">
        <ele>257.6</ele>
        <time>2022-06-25T09:50:27Z</time>
      </trkpt>
      <trkpt lat="46.47822" lon="4.80178">
        <ele>257.8</ele>
        <time>2022-06-25T09:50:28Z</time>
      </trkpt>
      <trkpt lat="46.47822" lon="4.80171">
        <ele>257.8</ele>
        <time>2022-06-25T09:50:29Z</time>
      </trkpt>
      <trkpt lat="46.47821" lon="4.80165">
        <ele>258.4</ele>
        <time>2022-06-25T09:50:30Z</time>
      </trkpt>
      <trkpt lat="46.4782" lon="4.80158">
        <ele>258.4</ele>
        <time>2022-06-25T09:50:31Z</time>
      </trkpt>
      <trkpt lat="46.47819" lon="4.80151">
        <ele>258.6</ele>
        <time>2022-06-25T09:50:32Z</time>
      </trkpt>
      <trkpt lat="46.47818" lon="4.80145">
        <ele>258.6</ele>
        <time>2022-06-25T09:50:33Z</time>
      </trkpt>
      <trkpt lat="46.47817" lon="4.80139">
        <ele>258.6</ele>
        <time>2022-06-25T09:50:34Z</time>
      </trkpt>
      <trkpt lat="46.47816" lon="4.80132">
        <ele>259</ele>
        <time>2022-06-25T09:50:35Z</time>
      </trkpt>
      <trkpt lat="46.47816" lon="4.80126">
        <ele>259</ele>
        <time>2022-06-25T09:50:36Z</time>
      </trkpt>
      <trkpt lat="46.47815" lon="4.80119">
        <ele>259.4</ele>
        <time>2022-06-25T09:50:37Z</time>
      </trkpt>
      <trkpt lat="46.47815" lon="4.80112">
        <ele>259.4</ele>
        <time>2022-06-25T09:50:38Z</time>
      </trkpt>
      <trkpt lat="46.47814" lon="4.80106">
        <ele>259.6</ele>
        <time>2022-06-25T09:50:39Z</time>
      </trkpt>
      <trkpt lat="46.47814" lon="4.801">
        <ele>259.6</ele>
        <time>2022-06-25T09:50:40Z</time>
      </trkpt>
      <trkpt lat="46.47813" lon="4.80094">
        <ele>259.6</ele>
        <time>2022-06-25T09:50:41Z</time>
      </trkpt>
      <trkpt lat="46.47813" lon="4.80088">
        <ele>259.8</ele>
        <time>2022-06-25T09:50:42Z</time>
      </trkpt>
      <trkpt lat="46.47812" lon="4.80082">
        <ele>259.8</ele>
        <time>2022-06-25T09:50:43Z</time>
      </trkpt>
      <trkpt lat="46.47812" lon="4.80076">
        <ele>260</ele>
        <time>2022-06-25T09:50:44Z</time>
      </trkpt>
      <trkpt lat="46.47811" lon="4.8007">
        <ele>260</ele>
        <time>2022-06-25T09:50:45Z</time>
      </trkpt>
      <trkpt lat="46.47811" lon="4.80065">
        <ele>260.4</ele>
        <time>2022-06-25T09:50:46Z</time>
      </trkpt>
      <trkpt lat="46.47811" lon="4.80059">
        <ele>260.4</ele>
        <time>2022-06-25T09:50:47Z</time>
      </trkpt>
      <trkpt lat="46.4781" lon="4.80053">
        <ele>260.6</ele>
        <time>2022-06-25T09:50:48Z</time>
      </trkpt>
      <trkpt lat="46.4781" lon="4.80047">
        <ele>260.6</ele>
        <time>2022-06-25T09:50:49Z</time>
      </trkpt>
      <trkpt lat="46.4781" lon="4.80041">
        <ele>260.8</ele>
        <time>2022-06-25T09:50:50Z</time>
      </trkpt>
      <trkpt lat="46.47809" lon="4.80035">
        <ele>260.8</ele>
        <time>2022-06-25T09:50:51Z</time>
      </trkpt>
      <trkpt lat="46.47809" lon="4.80029">
        <ele>261</ele>
        <time>2022-06-25T09:50:52Z</time>
      </trkpt>
      <trkpt lat="46.47809" lon="4.80023">
        <ele>261</ele>
        <time>2022-06-25T09:50:53Z</time>
      </trkpt>
      <trkpt lat="46.47808" lon="4.80017">
        <ele>261.2</ele>
        <time>2022-06-25T09:50:54Z</time>
      </trkpt>
      <trkpt lat="46.47807" lon="4.80011">
        <ele>261.2</ele>
        <time>2022-06-25T09:50:55Z</time>
      </trkpt>
      <trkpt lat="46.47805" lon="4.80005">
        <ele>261.6</ele>
        <time>2022-06-25T09:50:56Z</time>
      </trkpt>
      <trkpt lat="46.47805" lon="4.79999">
        <ele>261.6</ele>
        <time>2022-06-25T09:50:57Z</time>
      </trkpt>
      <trkpt lat="46.47804" lon="4.79993">
        <ele>261.8</ele>
        <time>2022-06-25T09:50:58Z</time>
      </trkpt>
      <trkpt lat="46.47803" lon="4.79987">
        <ele>261.8</ele>
        <time>2022-06-25T09:50:59Z</time>
      </trkpt>
      <trkpt lat="46.47803" lon="4.79981">
        <ele>262.2</ele>
        <time>2022-06-25T09:51:00Z</time>
      </trkpt>
      <trkpt lat="46.47802" lon="4.79975">
        <ele>262.2</ele>
        <time>2022-06-25T09:51:01Z</time>
      </trkpt>
      <trkpt lat="46.47801" lon="4.7997">
        <ele>262.2</ele>
        <time>2022-06-25T09:51:02Z</time>
      </trkpt>
      <trkpt lat="46.478" lon="4.79964">
        <ele>262.2</ele>
        <time>2022-06-25T09:51:03Z</time>
      </trkpt>
      <trkpt lat="46.47799" lon="4.79958">
        <ele>262.2</ele>
        <time>2022-06-25T09:51:04Z</time>
      </trkpt>
      <trkpt lat="46.47798" lon="4.79951">
        <ele>262.4</ele>
        <time>2022-06-25T09:51:05Z</time>
      </trkpt>
      <trkpt lat="46.47798" lon="4.79945">
        <ele>262.4</ele>
        <time>2022-06-25T09:51:06Z</time>
      </trkpt>
      <trkpt lat="46.47798" lon="4.79939">
        <ele>262.4</ele>
        <time>2022-06-25T09:51:07Z</time>
      </trkpt>
      <trkpt lat="46.47797" lon="4.79933">
        <ele>262.6</ele>
        <time>2022-06-25T09:51:08Z</time>
      </trkpt>
      <trkpt lat="46.47796" lon="4.79927">
        <ele>262.6</ele>
        <time>2022-06-25T09:51:09Z</time>
      </trkpt>
      <trkpt lat="46.47796" lon="4.79921">
        <ele>262.6</ele>
        <time>2022-06-25T09:51:10Z</time>
      </trkpt>
      <trkpt lat="46.47795" lon="4.79915">
        <ele>262.6</ele>
        <time>2022-06-25T09:51:11Z</time>
      </trkpt>
      <trkpt lat="46.47794" lon="4.79908">
        <ele>262.8</ele>
        <time>2022-06-25T09:51:12Z</time>
      </trkpt>
      <trkpt lat="46.47793" lon="4.79903">
        <ele>262.8</ele>
        <time>2022-06-25T09:51:13Z</time>
      </trkpt>
      <trkpt lat="46.47792" lon="4.79896">
        <ele>262.8</ele>
        <time>2022-06-25T09:51:14Z</time>
      </trkpt>
      <trkpt lat="46.47791" lon="4.7989">
        <ele>263.2</ele>
        <time>2022-06-25T09:51:15Z</time>
      </trkpt>
      <trkpt lat="46.4779" lon="4.79883">
        <ele>263.2</ele>
        <time>2022-06-25T09:51:16Z</time>
      </trkpt>
      <trkpt lat="46.47789" lon="4.79878">
        <ele>263.2</ele>
        <time>2022-06-25T09:51:17Z</time>
      </trkpt>
      <trkpt lat="46.47788" lon="4.79872">
        <ele>263.4</ele>
        <time>2022-06-25T09:51:18Z</time>
      </trkpt>
      <trkpt lat="46.47787" lon="4.79866">
        <ele>263.4</ele>
        <time>2022-06-25T09:51:19Z</time>
      </trkpt>
      <trkpt lat="46.47786" lon="4.7986">
        <ele>263.4</ele>
        <time>2022-06-25T09:51:20Z</time>
      </trkpt>
      <trkpt lat="46.47785" lon="4.79854">
        <ele>263.4</ele>
        <time>2022-06-25T09:51:21Z</time>
      </trkpt>
      <trkpt lat="46.47784" lon="4.79848">
        <ele>263.6</ele>
        <time>2022-06-25T09:51:22Z</time>
      </trkpt>
      <trkpt lat="46.47783" lon="4.79842">
        <ele>263.6</ele>
        <time>2022-06-25T09:51:23Z</time>
      </trkpt>
      <trkpt lat="46.47782" lon="4.79835">
        <ele>263.6</ele>
        <time>2022-06-25T09:51:24Z</time>
      </trkpt>
      <trkpt lat="46.47781" lon="4.79827">
        <ele>263.6</ele>
        <time>2022-06-25T09:51:25Z</time>
      </trkpt>
      <trkpt lat="46.4778" lon="4.7982">
        <ele>263.6</ele>
        <time>2022-06-25T09:51:26Z</time>
      </trkpt>
      <trkpt lat="46.47779" lon="4.79812">
        <ele>263.6</ele>
        <time>2022-06-25T09:51:27Z</time>
      </trkpt>
      <trkpt lat="46.47778" lon="4.79804">
        <ele>263.6</ele>
        <time>2022-06-25T09:51:28Z</time>
      </trkpt>
      <trkpt lat="46.47777" lon="4.79796">
        <ele>263.6</ele>
        <time>2022-06-25T09:51:29Z</time>
      </trkpt>
      <trkpt lat="46.47776" lon="4.79787">
        <ele>263.6</ele>
        <time>2022-06-25T09:51:30Z</time>
      </trkpt>
      <trkpt lat="46.47775" lon="4.79779">
        <ele>263.6</ele>
        <time>2022-06-25T09:51:31Z</time>
      </trkpt>
      <trkpt lat="46.47773" lon="4.7977">
        <ele>263.4</ele>
        <time>2022-06-25T09:51:32Z</time>
      </trkpt>
      <trkpt lat="46.47772" lon="4.79761">
        <ele>263.4</ele>
        <time>2022-06-25T09:51:33Z</time>
      </trkpt>
      <trkpt lat="46.4777" lon="4.79752">
        <ele>263.4</ele>
        <time>2022-06-25T09:51:34Z</time>
      </trkpt>
      <trkpt lat="46.47769" lon="4.79742">
        <ele>263.4</ele>
        <time>2022-06-25T09:51:35Z</time>
      </trkpt>
      <trkpt lat="46.47768" lon="4.79733">
        <ele>263.4</ele>
        <time>2022-06-25T09:51:36Z</time>
      </trkpt>
      <trkpt lat="46.47766" lon="4.79724">
        <ele>263.4</ele>
        <time>2022-06-25T09:51:37Z</time>
      </trkpt>
      <trkpt lat="46.47764" lon="4.79714">
        <ele>263</ele>
        <time>2022-06-25T09:51:38Z</time>
      </trkpt>
      <trkpt lat="46.47763" lon="4.79705">
        <ele>263</ele>
        <time>2022-06-25T09:51:39Z</time>
      </trkpt>
      <trkpt lat="46.47761" lon="4.79695">
        <ele>262.8</ele>
        <time>2022-06-25T09:51:40Z</time>
      </trkpt>
      <trkpt lat="46.4776" lon="4.79686">
        <ele>262.8</ele>
        <time>2022-06-25T09:51:41Z</time>
      </trkpt>
      <trkpt lat="46.47758" lon="4.79676">
        <ele>262.8</ele>
        <time>2022-06-25T09:51:42Z</time>
      </trkpt>
      <trkpt lat="46.47757" lon="4.79667">
        <ele>262.6</ele>
        <time>2022-06-25T09:51:43Z</time>
      </trkpt>
      <trkpt lat="46.47755" lon="4.79658">
        <ele>262.6</ele>
        <time>2022-06-25T09:51:44Z</time>
      </trkpt>
      <trkpt lat="46.47754" lon="4.79649">
        <ele>262.6</ele>
        <time>2022-06-25T09:51:45Z</time>
      </trkpt>
      <trkpt lat="46.47752" lon="4.79639">
        <ele>262.6</ele>
        <time>2022-06-25T09:51:46Z</time>
      </trkpt>
      <trkpt lat="46.4775" lon="4.7963">
        <ele>262.6</ele>
        <time>2022-06-25T09:51:47Z</time>
      </trkpt>
      <trkpt lat="46.47749" lon="4.79621">
        <ele>262.6</ele>
        <time>2022-06-25T09:51:48Z</time>
      </trkpt>
      <trkpt lat="46.47747" lon="4.79613">
        <ele>262.6</ele>
        <time>2022-06-25T09:51:49Z</time>
      </trkpt>
      <trkpt lat="46.47746" lon="4.79604">
        <ele>262.6</ele>
        <time>2022-06-25T09:51:50Z</time>
      </trkpt>
      <trkpt lat="46.47745" lon="4.79596">
        <ele>262.8</ele>
        <time>2022-06-25T09:51:51Z</time>
      </trkpt>
      <trkpt lat="46.47744" lon="4.79588">
        <ele>262.8</ele>
        <time>2022-06-25T09:51:52Z</time>
      </trkpt>
      <trkpt lat="46.47742" lon="4.79579">
        <ele>263.2</ele>
        <time>2022-06-25T09:51:53Z</time>
      </trkpt>
      <trkpt lat="46.4774" lon="4.7957">
        <ele>263.2</ele>
        <time>2022-06-25T09:51:54Z</time>
      </trkpt>
      <trkpt lat="46.47739" lon="4.79561">
        <ele>263.2</ele>
        <time>2022-06-25T09:51:55Z</time>
      </trkpt>
      <trkpt lat="46.47738" lon="4.79553">
        <ele>263.2</ele>
        <time>2022-06-25T09:51:56Z</time>
      </trkpt>
      <trkpt lat="46.47736" lon="4.79544">
        <ele>263.4</ele>
        <time>2022-06-25T09:51:57Z</time>
      </trkpt>
      <trkpt lat="46.47735" lon="4.79534">
        <ele>263.4</ele>
        <time>2022-06-25T09:51:58Z</time>
      </trkpt>
      <trkpt lat="46.47734" lon="4.79525">
        <ele>263.4</ele>
        <time>2022-06-25T09:51:59Z</time>
      </trkpt>
      <trkpt lat="46.47733" lon="4.79516">
        <ele>263.4</ele>
        <time>2022-06-25T09:52:00Z</time>
      </trkpt>
      <trkpt lat="46.47732" lon="4.79507">
        <ele>263.4</ele>
        <time>2022-06-25T09:52:01Z</time>
      </trkpt>
      <trkpt lat="46.47731" lon="4.79499">
        <ele>263.4</ele>
        <time>2022-06-25T09:52:02Z</time>
      </trkpt>
      <trkpt lat="46.47731" lon="4.7949">
        <ele>263.6</ele>
        <time>2022-06-25T09:52:03Z</time>
      </trkpt>
      <trkpt lat="46.47731" lon="4.79481">
        <ele>263.6</ele>
        <time>2022-06-25T09:52:04Z</time>
      </trkpt>
      <trkpt lat="46.47731" lon="4.79472">
        <ele>264</ele>
        <time>2022-06-25T09:52:05Z</time>
      </trkpt>
      <trkpt lat="46.47732" lon="4.79464">
        <ele>264</ele>
        <time>2022-06-25T09:52:06Z</time>
      </trkpt>
      <trkpt lat="46.47733" lon="4.79456">
        <ele>264</ele>
        <time>2022-06-25T09:52:07Z</time>
      </trkpt>
      <trkpt lat="46.47734" lon="4.79448">
        <ele>264.2</ele>
        <time>2022-06-25T09:52:08Z</time>
      </trkpt>
      <trkpt lat="46.47735" lon="4.7944">
        <ele>264.2</ele>
        <time>2022-06-25T09:52:09Z</time>
      </trkpt>
      <trkpt lat="46.47737" lon="4.79433">
        <ele>264.2</ele>
        <time>2022-06-25T09:52:10Z</time>
      </trkpt>
      <trkpt lat="46.47739" lon="4.79426">
        <ele>264.6</ele>
        <time>2022-06-25T09:52:11Z</time>
      </trkpt>
      <trkpt lat="46.47741" lon="4.79419">
        <ele>264.6</ele>
        <time>2022-06-25T09:52:12Z</time>
      </trkpt>
      <trkpt lat="46.47744" lon="4.79412">
        <ele>264.6</ele>
        <time>2022-06-25T09:52:13Z</time>
      </trkpt>
      <trkpt lat="46.47747" lon="4.79406">
        <ele>264.8</ele>
        <time>2022-06-25T09:52:14Z</time>
      </trkpt>
      <trkpt lat="46.4775" lon="4.79401">
        <ele>264.8</ele>
        <time>2022-06-25T09:52:15Z</time>
      </trkpt>
      <trkpt lat="46.47754" lon="4.79395">
        <ele>264.8</ele>
        <time>2022-06-25T09:52:16Z</time>
      </trkpt>
      <trkpt lat="46.47758" lon="4.7939">
        <ele>265</ele>
        <time>2022-06-25T09:52:17Z</time>
      </trkpt>
      <trkpt lat="46.47763" lon="4.79386">
        <ele>265</ele>
        <time>2022-06-25T09:52:18Z</time>
      </trkpt>
      <trkpt lat="46.47767" lon="4.79382">
        <ele>265.2</ele>
        <time>2022-06-25T09:52:19Z</time>
      </trkpt>
      <trkpt lat="46.47771" lon="4.79378">
        <ele>265.2</ele>
        <time>2022-06-25T09:52:20Z</time>
      </trkpt>
      <trkpt lat="46.47775" lon="4.79374">
        <ele>265.4</ele>
        <time>2022-06-25T09:52:21Z</time>
      </trkpt>
      <trkpt lat="46.47779" lon="4.7937">
        <ele>265.4</ele>
        <time>2022-06-25T09:52:22Z</time>
      </trkpt>
      <trkpt lat="46.47782" lon="4.79366">
        <ele>265.6</ele>
        <time>2022-06-25T09:52:23Z</time>
      </trkpt>
      <trkpt lat="46.47786" lon="4.79362">
        <ele>265.6</ele>
        <time>2022-06-25T09:52:24Z</time>
      </trkpt>
      <trkpt lat="46.47789" lon="4.79358">
        <ele>266</ele>
        <time>2022-06-25T09:52:25Z</time>
      </trkpt>
      <trkpt lat="46.47793" lon="4.79354">
        <ele>266.2</ele>
        <time>2022-06-25T09:52:26Z</time>
      </trkpt>
      <trkpt lat="46.47796" lon="4.7935">
        <ele>266.4</ele>
        <time>2022-06-25T09:52:27Z</time>
      </trkpt>
      <trkpt lat="46.47799" lon="4.79347">
        <ele>266.6</ele>
        <time>2022-06-25T09:52:28Z</time>
      </trkpt>
      <trkpt lat="46.47802" lon="4.79343">
        <ele>266.6</ele>
        <time>2022-06-25T09:52:29Z</time>
      </trkpt>
      <trkpt lat="46.47806" lon="4.79339">
        <ele>267</ele>
        <time>2022-06-25T09:52:30Z</time>
      </trkpt>
      <trkpt lat="46.47809" lon="4.79335">
        <ele>267.2</ele>
        <time>2022-06-25T09:52:31Z</time>
      </trkpt>
      <trkpt lat="46.47812" lon="4.79331">
        <ele>267.2</ele>
        <time>2022-06-25T09:52:32Z</time>
      </trkpt>
      <trkpt lat="46.47815" lon="4.79327">
        <ele>267.4</ele>
        <time>2022-06-25T09:52:33Z</time>
      </trkpt>
      <trkpt lat="46.47818" lon="4.79322">
        <ele>267.4</ele>
        <time>2022-06-25T09:52:34Z</time>
      </trkpt>
      <trkpt lat="46.47821" lon="4.79318">
        <ele>267.8</ele>
        <time>2022-06-25T09:52:35Z</time>
      </trkpt>
      <trkpt lat="46.47824" lon="4.79313">
        <ele>267.8</ele>
        <time>2022-06-25T09:52:36Z</time>
      </trkpt>
      <trkpt lat="46.47827" lon="4.79308">
        <ele>267.8</ele>
        <time>2022-06-25T09:52:37Z</time>
      </trkpt>
      <trkpt lat="46.47829" lon="4.79303">
        <ele>268</ele>
        <time>2022-06-25T09:52:38Z</time>
      </trkpt>
      <trkpt lat="46.47832" lon="4.79297">
        <ele>268</ele>
        <time>2022-06-25T09:52:39Z</time>
      </trkpt>
      <trkpt lat="46.47835" lon="4.79292">
        <ele>268.2</ele>
        <time>2022-06-25T09:52:40Z</time>
      </trkpt>
      <trkpt lat="46.47838" lon="4.79286">
        <ele>268.2</ele>
        <time>2022-06-25T09:52:41Z</time>
      </trkpt>
      <trkpt lat="46.47841" lon="4.79281">
        <ele>268.2</ele>
        <time>2022-06-25T09:52:42Z</time>
      </trkpt>
      <trkpt lat="46.47844" lon="4.79275">
        <ele>268.6</ele>
        <time>2022-06-25T09:52:43Z</time>
      </trkpt>
      <trkpt lat="46.47847" lon="4.79269">
        <ele>268.6</ele>
        <time>2022-06-25T09:52:44Z</time>
      </trkpt>
      <trkpt lat="46.4785" lon="4.79263">
        <ele>268.8</ele>
        <time>2022-06-25T09:52:45Z</time>
      </trkpt>
      <trkpt lat="46.47853" lon="4.79256">
        <ele>268.8</ele>
        <time>2022-06-25T09:52:46Z</time>
      </trkpt>
      <trkpt lat="46.47856" lon="4.7925">
        <ele>268.8</ele>
        <time>2022-06-25T09:52:47Z</time>
      </trkpt>
      <trkpt lat="46.4786" lon="4.79244">
        <ele>268.8</ele>
        <time>2022-06-25T09:52:48Z</time>
      </trkpt>
      <trkpt lat="46.47863" lon="4.79238">
        <ele>268.8</ele>
        <time>2022-06-25T09:52:49Z</time>
      </trkpt>
      <trkpt lat="46.47866" lon="4.79231">
        <ele>268.8</ele>
        <time>2022-06-25T09:52:50Z</time>
      </trkpt>
      <trkpt lat="46.47869" lon="4.79225">
        <ele>269</ele>
        <time>2022-06-25T09:52:51Z</time>
      </trkpt>
      <trkpt lat="46.47872" lon="4.79219">
        <ele>269</ele>
        <time>2022-06-25T09:52:52Z</time>
      </trkpt>
      <trkpt lat="46.47875" lon="4.79213">
        <ele>269.2</ele>
        <time>2022-06-25T09:52:53Z</time>
      </trkpt>
      <trkpt lat="46.47879" lon="4.79206">
        <ele>269.2</ele>
        <time>2022-06-25T09:52:54Z</time>
      </trkpt>
      <trkpt lat="46.47882" lon="4.792">
        <ele>269.2</ele>
        <time>2022-06-25T09:52:55Z</time>
      </trkpt>
      <trkpt lat="46.47885" lon="4.79193">
        <ele>269.2</ele>
        <time>2022-06-25T09:52:56Z</time>
      </trkpt>
      <trkpt lat="46.47889" lon="4.79187">
        <ele>269.2</ele>
        <time>2022-06-25T09:52:57Z</time>
      </trkpt>
      <trkpt lat="46.47892" lon="4.7918">
        <ele>269.2</ele>
        <time>2022-06-25T09:52:58Z</time>
      </trkpt>
      <trkpt lat="46.47895" lon="4.79172">
        <ele>269.2</ele>
        <time>2022-06-25T09:52:59Z</time>
      </trkpt>
      <trkpt lat="46.47899" lon="4.79165">
        <ele>269.2</ele>
        <time>2022-06-25T09:53:00Z</time>
      </trkpt>
      <trkpt lat="46.47902" lon="4.79158">
        <ele>269.2</ele>
        <time>2022-06-25T09:53:01Z</time>
      </trkpt>
      <trkpt lat="46.47905" lon="4.7915">
        <ele>269.2</ele>
        <time>2022-06-25T09:53:02Z</time>
      </trkpt>
      <trkpt lat="46.47908" lon="4.79142">
        <ele>269</ele>
        <time>2022-06-25T09:53:03Z</time>
      </trkpt>
      <trkpt lat="46.47911" lon="4.79135">
        <ele>269</ele>
        <time>2022-06-25T09:53:04Z</time>
      </trkpt>
      <trkpt lat="46.47914" lon="4.79126">
        <ele>269</ele>
        <time>2022-06-25T09:53:05Z</time>
      </trkpt>
      <trkpt lat="46.47918" lon="4.79119">
        <ele>269</ele>
        <time>2022-06-25T09:53:06Z</time>
      </trkpt>
      <trkpt lat="46.47921" lon="4.79111">
        <ele>269</ele>
        <time>2022-06-25T09:53:07Z</time>
      </trkpt>
      <trkpt lat="46.47924" lon="4.79103">
        <ele>268.8</ele>
        <time>2022-06-25T09:53:08Z</time>
      </trkpt>
      <trkpt lat="46.47927" lon="4.79094">
        <ele>268.8</ele>
        <time>2022-06-25T09:53:09Z</time>
      </trkpt>
      <trkpt lat="46.47931" lon="4.79086">
        <ele>268.8</ele>
        <time>2022-06-25T09:53:10Z</time>
      </trkpt>
      <trkpt lat="46.47934" lon="4.79078">
        <ele>268.8</ele>
        <time>2022-06-25T09:53:11Z</time>
      </trkpt>
      <trkpt lat="46.47937" lon="4.7907">
        <ele>268.8</ele>
        <time>2022-06-25T09:53:12Z</time>
      </trkpt>
      <trkpt lat="46.47941" lon="4.79062">
        <ele>268.8</ele>
        <time>2022-06-25T09:53:13Z</time>
      </trkpt>
      <trkpt lat="46.47944" lon="4.79053">
        <ele>268.4</ele>
        <time>2022-06-25T09:53:14Z</time>
      </trkpt>
      <trkpt lat="46.47948" lon="4.79045">
        <ele>268.4</ele>
        <time>2022-06-25T09:53:15Z</time>
      </trkpt>
      <trkpt lat="46.47952" lon="4.79037">
        <ele>268.4</ele>
        <time>2022-06-25T09:53:16Z</time>
      </trkpt>
      <trkpt lat="46.47955" lon="4.79029">
        <ele>268.4</ele>
        <time>2022-06-25T09:53:17Z</time>
      </trkpt>
      <trkpt lat="46.47959" lon="4.79021">
        <ele>268.4</ele>
        <time>2022-06-25T09:53:18Z</time>
      </trkpt>
      <trkpt lat="46.47963" lon="4.79013">
        <ele>268.4</ele>
        <time>2022-06-25T09:53:19Z</time>
      </trkpt>
      <trkpt lat="46.47967" lon="4.79005">
        <ele>268.2</ele>
        <time>2022-06-25T09:53:20Z</time>
      </trkpt>
      <trkpt lat="46.4797" lon="4.78999">
        <ele>268.2</ele>
        <time>2022-06-25T09:53:21Z</time>
      </trkpt>
      <trkpt lat="46.47973" lon="4.78993">
        <ele>268</ele>
        <time>2022-06-25T09:53:22Z</time>
      </trkpt>
      <trkpt lat="46.47975" lon="4.78989">
        <ele>268</ele>
        <time>2022-06-25T09:53:23Z</time>
      </trkpt>
      <trkpt lat="46.47977" lon="4.78985">
        <ele>268</ele>
        <time>2022-06-25T09:53:24Z</time>
      </trkpt>
      <trkpt lat="46.47979" lon="4.78982">
        <ele>268</ele>
        <time>2022-06-25T09:53:25Z</time>
      </trkpt>
      <trkpt lat="46.47981" lon="4.7898">
        <ele>267.8</ele>
        <time>2022-06-25T09:53:26Z</time>
      </trkpt>
      <trkpt lat="46.47982" lon="4.78978">
        <ele>267.8</ele>
        <time>2022-06-25T09:53:27Z</time>
      </trkpt>
      <trkpt lat="46.47983" lon="4.78978">
        <ele>267.8</ele>
        <time>2022-06-25T09:53:28Z</time>
      </trkpt>
      <trkpt lat="46.47983" lon="4.78977">
        <ele>267.6</ele>
        <time>2022-06-25T09:53:29Z</time>
      </trkpt>
      <trkpt lat="46.47983" lon="4.78977">
        <ele>267.4</ele>
        <time>2022-06-25T09:55:23Z</time>
      </trkpt>
      <trkpt lat="46.47984" lon="4.78973">
        <ele>267.4</ele>
        <time>2022-06-25T09:55:30Z</time>
      </trkpt>
      <trkpt lat="46.47985" lon="4.78971">
        <ele>267.4</ele>
        <time>2022-06-25T09:55:31Z</time>
      </trkpt>
      <trkpt lat="46.47986" lon="4.78968">
        <ele>267.6</ele>
        <time>2022-06-25T09:55:32Z</time>
      </trkpt>
      <trkpt lat="46.47988" lon="4.78965">
        <ele>267.6</ele>
        <time>2022-06-25T09:55:33Z</time>
      </trkpt>
      <trkpt lat="46.47989" lon="4.78961">
        <ele>267.6</ele>
        <time>2022-06-25T09:55:34Z</time>
      </trkpt>
      <trkpt lat="46.47992" lon="4.78957">
        <ele>267.6</ele>
        <time>2022-06-25T09:55:35Z</time>
      </trkpt>
      <trkpt lat="46.47994" lon="4.78953">
        <ele>267.6</ele>
        <time>2022-06-25T09:55:36Z</time>
      </trkpt>
      <trkpt lat="46.47996" lon="4.78949">
        <ele>267.6</ele>
        <time>2022-06-25T09:55:37Z</time>
      </trkpt>
      <trkpt lat="46.47998" lon="4.78945">
        <ele>267.6</ele>
        <time>2022-06-25T09:55:38Z</time>
      </trkpt>
      <trkpt lat="46.48001" lon="4.7894">
        <ele>267.6</ele>
        <time>2022-06-25T09:55:39Z</time>
      </trkpt>
      <trkpt lat="46.48003" lon="4.78936">
        <ele>267.6</ele>
        <time>2022-06-25T09:55:40Z</time>
      </trkpt>
      <trkpt lat="46.48005" lon="4.78931">
        <ele>267.6</ele>
        <time>2022-06-25T09:55:41Z</time>
      </trkpt>
      <trkpt lat="46.48008" lon="4.78926">
        <ele>267.6</ele>
        <time>2022-06-25T09:55:42Z</time>
      </trkpt>
      <trkpt lat="46.48011" lon="4.78921">
        <ele>267.6</ele>
        <time>2022-06-25T09:55:43Z</time>
      </trkpt>
      <trkpt lat="46.48013" lon="4.78916">
        <ele>267.6</ele>
        <time>2022-06-25T09:55:44Z</time>
      </trkpt>
      <trkpt lat="46.48016" lon="4.7891">
        <ele>267.6</ele>
        <time>2022-06-25T09:55:45Z</time>
      </trkpt>
      <trkpt lat="46.48019" lon="4.78905">
        <ele>267.6</ele>
        <time>2022-06-25T09:55:46Z</time>
      </trkpt>
      <trkpt lat="46.48021" lon="4.78899">
        <ele>267.8</ele>
        <time>2022-06-25T09:55:47Z</time>
      </trkpt>
      <trkpt lat="46.48024" lon="4.78894">
        <ele>267.8</ele>
        <time>2022-06-25T09:55:48Z</time>
      </trkpt>
      <trkpt lat="46.48026" lon="4.78888">
        <ele>267.8</ele>
        <time>2022-06-25T09:55:49Z</time>
      </trkpt>
      <trkpt lat="46.48029" lon="4.78882">
        <ele>267.8</ele>
        <time>2022-06-25T09:55:50Z</time>
      </trkpt>
      <trkpt lat="46.48031" lon="4.78876">
        <ele>267.8</ele>
        <time>2022-06-25T09:55:51Z</time>
      </trkpt>
      <trkpt lat="46.48034" lon="4.7887">
        <ele>267.8</ele>
        <time>2022-06-25T09:55:52Z</time>
      </trkpt>
      <trkpt lat="46.48036" lon="4.78864">
        <ele>267.8</ele>
        <time>2022-06-25T09:55:53Z</time>
      </trkpt>
      <trkpt lat="46.48039" lon="4.78857">
        <ele>267.8</ele>
        <time>2022-06-25T09:55:54Z</time>
      </trkpt>
      <trkpt lat="46.48041" lon="4.78851">
        <ele>268</ele>
        <time>2022-06-25T09:55:55Z</time>
      </trkpt>
      <trkpt lat="46.48043" lon="4.78845">
        <ele>268</ele>
        <time>2022-06-25T09:55:56Z</time>
      </trkpt>
      <trkpt lat="46.48045" lon="4.78839">
        <ele>268</ele>
        <time>2022-06-25T09:55:57Z</time>
      </trkpt>
      <trkpt lat="46.48048" lon="4.78833">
        <ele>268</ele>
        <time>2022-06-25T09:55:58Z</time>
      </trkpt>
      <trkpt lat="46.4805" lon="4.78827">
        <ele>268.4</ele>
        <time>2022-06-25T09:55:59Z</time>
      </trkpt>
      <trkpt lat="46.48052" lon="4.78821">
        <ele>268.4</ele>
        <time>2022-06-25T09:56:00Z</time>
      </trkpt>
      <trkpt lat="46.48055" lon="4.78815">
        <ele>268.4</ele>
        <time>2022-06-25T09:56:01Z</time>
      </trkpt>
      <trkpt lat="46.48057" lon="4.78809">
        <ele>268.4</ele>
        <time>2022-06-25T09:56:02Z</time>
      </trkpt>
      <trkpt lat="46.4806" lon="4.78802">
        <ele>268.6</ele>
        <time>2022-06-25T09:56:03Z</time>
      </trkpt>
      <trkpt lat="46.48062" lon="4.78797">
        <ele>268.6</ele>
        <time>2022-06-25T09:56:04Z</time>
      </trkpt>
      <trkpt lat="46.48064" lon="4.78791">
        <ele>268.6</ele>
        <time>2022-06-25T09:56:05Z</time>
      </trkpt>
      <trkpt lat="46.48067" lon="4.78785">
        <ele>268.6</ele>
        <time>2022-06-25T09:56:06Z</time>
      </trkpt>
      <trkpt lat="46.48069" lon="4.7878">
        <ele>268.6</ele>
        <time>2022-06-25T09:56:07Z</time>
      </trkpt>
      <trkpt lat="46.48069" lon="4.78772">
        <ele>268.6</ele>
        <time>2022-06-25T09:56:08Z</time>
      </trkpt>
      <trkpt lat="46.48071" lon="4.78765">
        <ele>268.8</ele>
        <time>2022-06-25T09:56:09Z</time>
      </trkpt>
      <trkpt lat="46.48073" lon="4.78759">
        <ele>268.8</ele>
        <time>2022-06-25T09:56:10Z</time>
      </trkpt>
      <trkpt lat="46.48075" lon="4.78752">
        <ele>269</ele>
        <time>2022-06-25T09:56:11Z</time>
      </trkpt>
      <trkpt lat="46.48077" lon="4.78747">
        <ele>269</ele>
        <time>2022-06-25T09:56:12Z</time>
      </trkpt>
      <trkpt lat="46.48079" lon="4.78741">
        <ele>269.2</ele>
        <time>2022-06-25T09:56:13Z</time>
      </trkpt>
      <trkpt lat="46.4808" lon="4.78734">
        <ele>269.2</ele>
        <time>2022-06-25T09:56:14Z</time>
      </trkpt>
      <trkpt lat="46.48082" lon="4.78726">
        <ele>269.6</ele>
        <time>2022-06-25T09:56:15Z</time>
      </trkpt>
      <trkpt lat="46.48083" lon="4.78719">
        <ele>269.6</ele>
        <time>2022-06-25T09:56:16Z</time>
      </trkpt>
      <trkpt lat="46.48085" lon="4.78712">
        <ele>269.6</ele>
        <time>2022-06-25T09:56:17Z</time>
      </trkpt>
      <trkpt lat="46.48085" lon="4.78704">
        <ele>269.6</ele>
        <time>2022-06-25T09:56:18Z</time>
      </trkpt>
      <trkpt lat="46.48085" lon="4.78696">
        <ele>269.6</ele>
        <time>2022-06-25T09:56:19Z</time>
      </trkpt>
      <trkpt lat="46.48084" lon="4.78688">
        <ele>269.8</ele>
        <time>2022-06-25T09:56:20Z</time>
      </trkpt>
      <trkpt lat="46.48082" lon="4.78681">
        <ele>269.8</ele>
        <time>2022-06-25T09:56:21Z</time>
      </trkpt>
      <trkpt lat="46.48079" lon="4.78674">
        <ele>269.8</ele>
        <time>2022-06-25T09:56:22Z</time>
      </trkpt>
      <trkpt lat="46.48075" lon="4.78667">
        <ele>269.8</ele>
        <time>2022-06-25T09:56:23Z</time>
      </trkpt>
      <trkpt lat="46.48072" lon="4.78662">
        <ele>269.8</ele>
        <time>2022-06-25T09:56:24Z</time>
      </trkpt>
      <trkpt lat="46.48068" lon="4.78658">
        <ele>269.8</ele>
        <time>2022-06-25T09:56:25Z</time>
      </trkpt>
      <trkpt lat="46.48064" lon="4.78653">
        <ele>270</ele>
        <time>2022-06-25T09:56:26Z</time>
      </trkpt>
      <trkpt lat="46.4806" lon="4.78649">
        <ele>270</ele>
        <time>2022-06-25T09:56:27Z</time>
      </trkpt>
      <trkpt lat="46.48057" lon="4.78645">
        <ele>270</ele>
        <time>2022-06-25T09:56:28Z</time>
      </trkpt>
      <trkpt lat="46.48053" lon="4.78641">
        <ele>270.4</ele>
        <time>2022-06-25T09:56:29Z</time>
      </trkpt>
      <trkpt lat="46.4805" lon="4.78637">
        <ele>270.4</ele>
        <time>2022-06-25T09:56:30Z</time>
      </trkpt>
      <trkpt lat="46.48047" lon="4.78633">
        <ele>270.4</ele>
        <time>2022-06-25T09:56:31Z</time>
      </trkpt>
      <trkpt lat="46.48043" lon="4.78628">
        <ele>270.6</ele>
        <time>2022-06-25T09:56:32Z</time>
      </trkpt>
      <trkpt lat="46.4804" lon="4.78624">
        <ele>270.6</ele>
        <time>2022-06-25T09:56:33Z</time>
      </trkpt>
      <trkpt lat="46.48037" lon="4.7862">
        <ele>270.8</ele>
        <time>2022-06-25T09:56:34Z</time>
      </trkpt>
      <trkpt lat="46.48033" lon="4.78617">
        <ele>270.8</ele>
        <time>2022-06-25T09:56:35Z</time>
      </trkpt>
      <trkpt lat="46.4803" lon="4.78613">
        <ele>271</ele>
        <time>2022-06-25T09:56:36Z</time>
      </trkpt>
      <trkpt lat="46.48028" lon="4.78609">
        <ele>271</ele>
        <time>2022-06-25T09:56:37Z</time>
      </trkpt>
      <trkpt lat="46.48025" lon="4.78606">
        <ele>271.4</ele>
        <time>2022-06-25T09:56:38Z</time>
      </trkpt>
      <trkpt lat="46.48022" lon="4.78602">
        <ele>271.4</ele>
        <time>2022-06-25T09:56:39Z</time>
      </trkpt>
      <trkpt lat="46.48019" lon="4.78599">
        <ele>271.8</ele>
        <time>2022-06-25T09:56:40Z</time>
      </trkpt>
      <trkpt lat="46.48016" lon="4.78595">
        <ele>272</ele>
        <time>2022-06-25T09:56:41Z</time>
      </trkpt>
      <trkpt lat="46.48014" lon="4.78592">
        <ele>272</ele>
        <time>2022-06-25T09:56:42Z</time>
      </trkpt>
      <trkpt lat="46.48011" lon="4.78588">
        <ele>272.2</ele>
        <time>2022-06-25T09:56:43Z</time>
      </trkpt>
      <trkpt lat="46.48008" lon="4.78585">
        <ele>272.2</ele>
        <time>2022-06-25T09:56:44Z</time>
      </trkpt>
      <trkpt lat="46.48006" lon="4.78582">
        <ele>272.6</ele>
        <time>2022-06-25T09:56:45Z</time>
      </trkpt>
      <trkpt lat="46.48003" lon="4.78578">
        <ele>272.6</ele>
        <time>2022-06-25T09:56:46Z</time>
      </trkpt>
      <trkpt lat="46.48001" lon="4.78575">
        <ele>273</ele>
        <time>2022-06-25T09:56:47Z</time>
      </trkpt>
      <trkpt lat="46.47998" lon="4.78573">
        <ele>273</ele>
        <time>2022-06-25T09:56:48Z</time>
      </trkpt>
      <trkpt lat="46.47995" lon="4.7857">
        <ele>273.4</ele>
        <time>2022-06-25T09:56:49Z</time>
      </trkpt>
      <trkpt lat="46.47992" lon="4.78568">
        <ele>273.6</ele>
        <time>2022-06-25T09:56:50Z</time>
      </trkpt>
      <trkpt lat="46.47989" lon="4.78565">
        <ele>273.6</ele>
        <time>2022-06-25T09:56:51Z</time>
      </trkpt>
      <trkpt lat="46.47985" lon="4.78563">
        <ele>273.8</ele>
        <time>2022-06-25T09:56:52Z</time>
      </trkpt>
      <trkpt lat="46.47982" lon="4.78561">
        <ele>273.8</ele>
        <time>2022-06-25T09:56:53Z</time>
      </trkpt>
      <trkpt lat="46.47979" lon="4.78559">
        <ele>274.2</ele>
        <time>2022-06-25T09:56:54Z</time>
      </trkpt>
      <trkpt lat="46.47976" lon="4.78556">
        <ele>274.2</ele>
        <time>2022-06-25T09:56:55Z</time>
      </trkpt>
      <trkpt lat="46.47973" lon="4.78553">
        <ele>274.4</ele>
        <time>2022-06-25T09:56:56Z</time>
      </trkpt>
      <trkpt lat="46.4797" lon="4.78551">
        <ele>274.4</ele>
        <time>2022-06-25T09:56:57Z</time>
      </trkpt>
      <trkpt lat="46.47967" lon="4.78548">
        <ele>274.6</ele>
        <time>2022-06-25T09:56:58Z</time>
      </trkpt>
      <trkpt lat="46.47963" lon="4.78546">
        <ele>274.6</ele>
        <time>2022-06-25T09:56:59Z</time>
      </trkpt>
      <trkpt lat="46.4796" lon="4.78544">
        <ele>275</ele>
        <time>2022-06-25T09:57:00Z</time>
      </trkpt>
      <trkpt lat="46.47956" lon="4.78542">
        <ele>275</ele>
        <time>2022-06-25T09:57:01Z</time>
      </trkpt>
      <trkpt lat="46.47953" lon="4.78539">
        <ele>275.2</ele>
        <time>2022-06-25T09:57:02Z</time>
      </trkpt>
      <trkpt lat="46.47949" lon="4.78537">
        <ele>275.2</ele>
        <time>2022-06-25T09:57:03Z</time>
      </trkpt>
      <trkpt lat="46.47946" lon="4.78535">
        <ele>275.4</ele>
        <time>2022-06-25T09:57:04Z</time>
      </trkpt>
      <trkpt lat="46.47943" lon="4.78533">
        <ele>275.4</ele>
        <time>2022-06-25T09:57:05Z</time>
      </trkpt>
      <trkpt lat="46.4794" lon="4.7853">
        <ele>275.8</ele>
        <time>2022-06-25T09:57:06Z</time>
      </trkpt>
      <trkpt lat="46.47937" lon="4.78529">
        <ele>276</ele>
        <time>2022-06-25T09:57:07Z</time>
      </trkpt>
      <trkpt lat="46.47933" lon="4.78527">
        <ele>276</ele>
        <time>2022-06-25T09:57:08Z</time>
      </trkpt>
      <trkpt lat="46.4793" lon="4.78525">
        <ele>276.4</ele>
        <time>2022-06-25T09:57:09Z</time>
      </trkpt>
      <trkpt lat="46.47927" lon="4.78522">
        <ele>276.4</ele>
        <time>2022-06-25T09:57:10Z</time>
      </trkpt>
      <trkpt lat="46.47924" lon="4.78519">
        <ele>276.6</ele>
        <time>2022-06-25T09:57:11Z</time>
      </trkpt>
      <trkpt lat="46.47921" lon="4.78516">
        <ele>276.6</ele>
        <time>2022-06-25T09:57:12Z</time>
      </trkpt>
      <trkpt lat="46.47918" lon="4.78513">
        <ele>276.8</ele>
        <time>2022-06-25T09:57:13Z</time>
      </trkpt>
      <trkpt lat="46.47915" lon="4.7851">
        <ele>276.8</ele>
        <time>2022-06-25T09:57:14Z</time>
      </trkpt>
      <trkpt lat="46.47912" lon="4.78506">
        <ele>277.2</ele>
        <time>2022-06-25T09:57:15Z</time>
      </trkpt>
      <trkpt lat="46.4791" lon="4.78502">
        <ele>277.4</ele>
        <time>2022-06-25T09:57:16Z</time>
      </trkpt>
      <trkpt lat="46.47908" lon="4.78498">
        <ele>277.6</ele>
        <time>2022-06-25T09:57:17Z</time>
      </trkpt>
      <trkpt lat="46.47906" lon="4.78494">
        <ele>277.6</ele>
        <time>2022-06-25T09:57:18Z</time>
      </trkpt>
      <trkpt lat="46.47905" lon="4.7849">
        <ele>277.8</ele>
        <time>2022-06-25T09:57:19Z</time>
      </trkpt>
      <trkpt lat="46.47903" lon="4.78485">
        <ele>277.8</ele>
        <time>2022-06-25T09:57:20Z</time>
      </trkpt>
      <trkpt lat="46.47902" lon="4.78481">
        <ele>278.2</ele>
        <time>2022-06-25T09:57:21Z</time>
      </trkpt>
      <trkpt lat="46.47901" lon="4.78477">
        <ele>278.2</ele>
        <time>2022-06-25T09:57:22Z</time>
      </trkpt>
      <trkpt lat="46.479" lon="4.78472">
        <ele>278.6</ele>
        <time>2022-06-25T09:57:23Z</time>
      </trkpt>
      <trkpt lat="46.47899" lon="4.78468">
        <ele>278.6</ele>
        <time>2022-06-25T09:57:24Z</time>
      </trkpt>
      <trkpt lat="46.47898" lon="4.78463">
        <ele>278.8</ele>
        <time>2022-06-25T09:57:25Z</time>
      </trkpt>
      <trkpt lat="46.47896" lon="4.78459">
        <ele>279</ele>
        <time>2022-06-25T09:57:26Z</time>
      </trkpt>
      <trkpt lat="46.47895" lon="4.78455">
        <ele>279.2</ele>
        <time>2022-06-25T09:57:27Z</time>
      </trkpt>
      <trkpt lat="46.47893" lon="4.78451">
        <ele>279.4</ele>
        <time>2022-06-25T09:57:28Z</time>
      </trkpt>
      <trkpt lat="46.4789" lon="4.78447">
        <ele>279.4</ele>
        <time>2022-06-25T09:57:29Z</time>
      </trkpt>
      <trkpt lat="46.47888" lon="4.78443">
        <ele>279.8</ele>
        <time>2022-06-25T09:57:30Z</time>
      </trkpt>
      <trkpt lat="46.47886" lon="4.78439">
        <ele>279.8</ele>
        <time>2022-06-25T09:57:31Z</time>
      </trkpt>
      <trkpt lat="46.47884" lon="4.78435">
        <ele>280.2</ele>
        <time>2022-06-25T09:57:32Z</time>
      </trkpt>
      <trkpt lat="46.47881" lon="4.78431">
        <ele>280.2</ele>
        <time>2022-06-25T09:57:33Z</time>
      </trkpt>
      <trkpt lat="46.47879" lon="4.78428">
        <ele>280.4</ele>
        <time>2022-06-25T09:57:34Z</time>
      </trkpt>
      <trkpt lat="46.47876" lon="4.78425">
        <ele>280.4</ele>
        <time>2022-06-25T09:57:35Z</time>
      </trkpt>
      <trkpt lat="46.47873" lon="4.78421">
        <ele>280.8</ele>
        <time>2022-06-25T09:57:36Z</time>
      </trkpt>
      <trkpt lat="46.4787" lon="4.78418">
        <ele>280.8</ele>
        <time>2022-06-25T09:57:37Z</time>
      </trkpt>
      <trkpt lat="46.47867" lon="4.78415">
        <ele>281</ele>
        <time>2022-06-25T09:57:38Z</time>
      </trkpt>
      <trkpt lat="46.47864" lon="4.78412">
        <ele>281</ele>
        <time>2022-06-25T09:57:39Z</time>
      </trkpt>
      <trkpt lat="46.47861" lon="4.78409">
        <ele>281</ele>
        <time>2022-06-25T09:57:40Z</time>
      </trkpt>
      <trkpt lat="46.47858" lon="4.78406">
        <ele>281.2</ele>
        <time>2022-06-25T09:57:41Z</time>
      </trkpt>
      <trkpt lat="46.47854" lon="4.78403">
        <ele>281.2</ele>
        <time>2022-06-25T09:57:42Z</time>
      </trkpt>
      <trkpt lat="46.47851" lon="4.78401">
        <ele>281.6</ele>
        <time>2022-06-25T09:57:43Z</time>
      </trkpt>
      <trkpt lat="46.47847" lon="4.78398">
        <ele>281.6</ele>
        <time>2022-06-25T09:57:44Z</time>
      </trkpt>
      <trkpt lat="46.47844" lon="4.78395">
        <ele>281.8</ele>
        <time>2022-06-25T09:57:45Z</time>
      </trkpt>
      <trkpt lat="46.47841" lon="4.78392">
        <ele>281.8</ele>
        <time>2022-06-25T09:57:46Z</time>
      </trkpt>
      <trkpt lat="46.47837" lon="4.7839">
        <ele>282.2</ele>
        <time>2022-06-25T09:57:47Z</time>
      </trkpt>
      <trkpt lat="46.47834" lon="4.78387">
        <ele>282.2</ele>
        <time>2022-06-25T09:57:48Z</time>
      </trkpt>
      <trkpt lat="46.4783" lon="4.78385">
        <ele>282.4</ele>
        <time>2022-06-25T09:57:49Z</time>
      </trkpt>
      <trkpt lat="46.47827" lon="4.78383">
        <ele>282.4</ele>
        <time>2022-06-25T09:57:50Z</time>
      </trkpt>
      <trkpt lat="46.47823" lon="4.78381">
        <ele>282.8</ele>
        <time>2022-06-25T09:57:51Z</time>
      </trkpt>
      <trkpt lat="46.47819" lon="4.78378">
        <ele>282.8</ele>
        <time>2022-06-25T09:57:52Z</time>
      </trkpt>
      <trkpt lat="46.47816" lon="4.78376">
        <ele>282.8</ele>
        <time>2022-06-25T09:57:53Z</time>
      </trkpt>
      <trkpt lat="46.47812" lon="4.78374">
        <ele>283</ele>
        <time>2022-06-25T09:57:54Z</time>
      </trkpt>
      <trkpt lat="46.47808" lon="4.78372">
        <ele>283</ele>
        <time>2022-06-25T09:57:55Z</time>
      </trkpt>
      <trkpt lat="46.47804" lon="4.7837">
        <ele>283</ele>
        <time>2022-06-25T09:57:56Z</time>
      </trkpt>
      <trkpt lat="46.478" lon="4.78368">
        <ele>283</ele>
        <time>2022-06-25T09:57:57Z</time>
      </trkpt>
      <trkpt lat="46.47796" lon="4.78366">
        <ele>283</ele>
        <time>2022-06-25T09:57:58Z</time>
      </trkpt>
      <trkpt lat="46.47791" lon="4.78363">
        <ele>283</ele>
        <time>2022-06-25T09:57:59Z</time>
      </trkpt>
      <trkpt lat="46.47787" lon="4.78361">
        <ele>283</ele>
        <time>2022-06-25T09:58:00Z</time>
      </trkpt>
      <trkpt lat="46.47782" lon="4.78358">
        <ele>283</ele>
        <time>2022-06-25T09:58:01Z</time>
      </trkpt>
      <trkpt lat="46.47777" lon="4.78356">
        <ele>283</ele>
        <time>2022-06-25T09:58:02Z</time>
      </trkpt>
      <trkpt lat="46.47772" lon="4.78353">
        <ele>283</ele>
        <time>2022-06-25T09:58:03Z</time>
      </trkpt>
      <trkpt lat="46.47767" lon="4.7835">
        <ele>283</ele>
        <time>2022-06-25T09:58:04Z</time>
      </trkpt>
      <trkpt lat="46.47762" lon="4.78347">
        <ele>283</ele>
        <time>2022-06-25T09:58:05Z</time>
      </trkpt>
      <trkpt lat="46.47757" lon="4.78344">
        <ele>283</ele>
        <time>2022-06-25T09:58:06Z</time>
      </trkpt>
      <trkpt lat="46.47752" lon="4.78341">
        <ele>283</ele>
        <time>2022-06-25T09:58:07Z</time>
      </trkpt>
      <trkpt lat="46.47747" lon="4.78337">
        <ele>283</ele>
        <time>2022-06-25T09:58:08Z</time>
      </trkpt>
      <trkpt lat="46.47741" lon="4.78334">
        <ele>283</ele>
        <time>2022-06-25T09:58:09Z</time>
      </trkpt>
      <trkpt lat="46.47736" lon="4.7833">
        <ele>283</ele>
        <time>2022-06-25T09:58:10Z</time>
      </trkpt>
      <trkpt lat="46.47731" lon="4.78327">
        <ele>283</ele>
        <time>2022-06-25T09:58:11Z</time>
      </trkpt>
      <trkpt lat="46.47725" lon="4.78323">
        <ele>283</ele>
        <time>2022-06-25T09:58:12Z</time>
      </trkpt>
      <trkpt lat="46.47719" lon="4.78319">
        <ele>283</ele>
        <time>2022-06-25T09:58:13Z</time>
      </trkpt>
      <trkpt lat="46.47714" lon="4.78316">
        <ele>283</ele>
        <time>2022-06-25T09:58:14Z</time>
      </trkpt>
      <trkpt lat="46.47708" lon="4.78312">
        <ele>283</ele>
        <time>2022-06-25T09:58:15Z</time>
      </trkpt>
      <trkpt lat="46.47702" lon="4.78308">
        <ele>283</ele>
        <time>2022-06-25T09:58:16Z</time>
      </trkpt>
      <trkpt lat="46.47696" lon="4.78304">
        <ele>283</ele>
        <time>2022-06-25T09:58:17Z</time>
      </trkpt>
      <trkpt lat="46.47691" lon="4.78301">
        <ele>283</ele>
        <time>2022-06-25T09:58:18Z</time>
      </trkpt>
      <trkpt lat="46.47685" lon="4.78297">
        <ele>283</ele>
        <time>2022-06-25T09:58:19Z</time>
      </trkpt>
      <trkpt lat="46.47679" lon="4.78294">
        <ele>283.2</ele>
        <time>2022-06-25T09:58:20Z</time>
      </trkpt>
      <trkpt lat="46.47673" lon="4.78291">
        <ele>283.2</ele>
        <time>2022-06-25T09:58:21Z</time>
      </trkpt>
      <trkpt lat="46.47667" lon="4.78288">
        <ele>283.2</ele>
        <time>2022-06-25T09:58:22Z</time>
      </trkpt>
      <trkpt lat="46.47662" lon="4.78285">
        <ele>283.2</ele>
        <time>2022-06-25T09:58:23Z</time>
      </trkpt>
      <trkpt lat="46.47656" lon="4.78283">
        <ele>283.2</ele>
        <time>2022-06-25T09:58:24Z</time>
      </trkpt>
      <trkpt lat="46.4765" lon="4.78281">
        <ele>283.2</ele>
        <time>2022-06-25T09:58:25Z</time>
      </trkpt>
      <trkpt lat="46.47644" lon="4.78279">
        <ele>283.2</ele>
        <time>2022-06-25T09:58:26Z</time>
      </trkpt>
      <trkpt lat="46.47638" lon="4.78278">
        <ele>283.6</ele>
        <time>2022-06-25T09:58:27Z</time>
      </trkpt>
      <trkpt lat="46.47633" lon="4.78277">
        <ele>283.6</ele>
        <time>2022-06-25T09:58:28Z</time>
      </trkpt>
      <trkpt lat="46.47627" lon="4.78277">
        <ele>283.6</ele>
        <time>2022-06-25T09:58:29Z</time>
      </trkpt>
      <trkpt lat="46.47621" lon="4.78276">
        <ele>283.8</ele>
        <time>2022-06-25T09:58:30Z</time>
      </trkpt>
      <trkpt lat="46.47616" lon="4.78275">
        <ele>283.8</ele>
        <time>2022-06-25T09:58:31Z</time>
      </trkpt>
      <trkpt lat="46.4761" lon="4.78273">
        <ele>283.8</ele>
        <time>2022-06-25T09:58:32Z</time>
      </trkpt>
      <trkpt lat="46.47604" lon="4.78272">
        <ele>283.8</ele>
        <time>2022-06-25T09:58:33Z</time>
      </trkpt>
      <trkpt lat="46.47598" lon="4.7827">
        <ele>283.8</ele>
        <time>2022-06-25T09:58:34Z</time>
      </trkpt>
      <trkpt lat="46.47592" lon="4.78268">
        <ele>283.8</ele>
        <time>2022-06-25T09:58:35Z</time>
      </trkpt>
      <trkpt lat="46.47586" lon="4.78266">
        <ele>283.8</ele>
        <time>2022-06-25T09:58:36Z</time>
      </trkpt>
      <trkpt lat="46.4758" lon="4.78263">
        <ele>283.8</ele>
        <time>2022-06-25T09:58:37Z</time>
      </trkpt>
      <trkpt lat="46.47574" lon="4.78261">
        <ele>283.8</ele>
        <time>2022-06-25T09:58:38Z</time>
      </trkpt>
      <trkpt lat="46.47568" lon="4.78258">
        <ele>283.8</ele>
        <time>2022-06-25T09:58:39Z</time>
      </trkpt>
      <trkpt lat="46.47562" lon="4.78255">
        <ele>283.8</ele>
        <time>2022-06-25T09:58:40Z</time>
      </trkpt>
      <trkpt lat="46.47555" lon="4.78251">
        <ele>283.8</ele>
        <time>2022-06-25T09:58:41Z</time>
      </trkpt>
      <trkpt lat="46.47549" lon="4.78248">
        <ele>283.6</ele>
        <time>2022-06-25T09:58:42Z</time>
      </trkpt>
      <trkpt lat="46.47543" lon="4.78245">
        <ele>283.6</ele>
        <time>2022-06-25T09:58:43Z</time>
      </trkpt>
      <trkpt lat="46.47536" lon="4.78242">
        <ele>283.6</ele>
        <time>2022-06-25T09:58:44Z</time>
      </trkpt>
      <trkpt lat="46.4753" lon="4.78238">
        <ele>283.6</ele>
        <time>2022-06-25T09:58:45Z</time>
      </trkpt>
      <trkpt lat="46.47524" lon="4.78234">
        <ele>283.6</ele>
        <time>2022-06-25T09:58:46Z</time>
      </trkpt>
      <trkpt lat="46.47518" lon="4.78229">
        <ele>283.4</ele>
        <time>2022-06-25T09:58:47Z</time>
      </trkpt>
      <trkpt lat="46.47512" lon="4.78224">
        <ele>283.4</ele>
        <time>2022-06-25T09:58:48Z</time>
      </trkpt>
      <trkpt lat="46.47507" lon="4.78218">
        <ele>283.4</ele>
        <time>2022-06-25T09:58:49Z</time>
      </trkpt>
      <trkpt lat="46.47502" lon="4.78212">
        <ele>283.4</ele>
        <time>2022-06-25T09:58:50Z</time>
      </trkpt>
      <trkpt lat="46.47497" lon="4.78206">
        <ele>283.4</ele>
        <time>2022-06-25T09:58:51Z</time>
      </trkpt>
      <trkpt lat="46.47493" lon="4.78199">
        <ele>283.4</ele>
        <time>2022-06-25T09:58:52Z</time>
      </trkpt>
      <trkpt lat="46.47489" lon="4.78193">
        <ele>283.4</ele>
        <time>2022-06-25T09:58:53Z</time>
      </trkpt>
      <trkpt lat="46.47484" lon="4.78187">
        <ele>283.4</ele>
        <time>2022-06-25T09:58:54Z</time>
      </trkpt>
      <trkpt lat="46.4748" lon="4.78181">
        <ele>283.4</ele>
        <time>2022-06-25T09:58:55Z</time>
      </trkpt>
      <trkpt lat="46.47475" lon="4.78175">
        <ele>283.6</ele>
        <time>2022-06-25T09:58:56Z</time>
      </trkpt>
      <trkpt lat="46.4747" lon="4.78169">
        <ele>283.6</ele>
        <time>2022-06-25T09:58:57Z</time>
      </trkpt>
      <trkpt lat="46.47465" lon="4.78164">
        <ele>283.6</ele>
        <time>2022-06-25T09:58:58Z</time>
      </trkpt>
      <trkpt lat="46.47459" lon="4.7816">
        <ele>283.6</ele>
        <time>2022-06-25T09:58:59Z</time>
      </trkpt>
      <trkpt lat="46.47453" lon="4.78157">
        <ele>283.6</ele>
        <time>2022-06-25T09:59:00Z</time>
      </trkpt>
      <trkpt lat="46.47447" lon="4.78154">
        <ele>283.2</ele>
        <time>2022-06-25T09:59:01Z</time>
      </trkpt>
      <trkpt lat="46.4744" lon="4.78151">
        <ele>283</ele>
        <time>2022-06-25T09:59:02Z</time>
      </trkpt>
      <trkpt lat="46.47433" lon="4.78149">
        <ele>282.6</ele>
        <time>2022-06-25T09:59:03Z</time>
      </trkpt>
      <trkpt lat="46.47426" lon="4.78148">
        <ele>282.4</ele>
        <time>2022-06-25T09:59:04Z</time>
      </trkpt>
      <trkpt lat="46.47418" lon="4.78147">
        <ele>282</ele>
        <time>2022-06-25T09:59:05Z</time>
      </trkpt>
      <trkpt lat="46.4741" lon="4.78147">
        <ele>281.8</ele>
        <time>2022-06-25T09:59:06Z</time>
      </trkpt>
      <trkpt lat="46.47402" lon="4.78147">
        <ele>281.8</ele>
        <time>2022-06-25T09:59:07Z</time>
      </trkpt>
      <trkpt lat="46.47395" lon="4.78148">
        <ele>281.4</ele>
        <time>2022-06-25T09:59:08Z</time>
      </trkpt>
      <trkpt lat="46.47388" lon="4.7815">
        <ele>281.2</ele>
        <time>2022-06-25T09:59:09Z</time>
      </trkpt>
      <trkpt lat="46.4738" lon="4.78151">
        <ele>280.8</ele>
        <time>2022-06-25T09:59:10Z</time>
      </trkpt>
      <trkpt lat="46.47373" lon="4.78153">
        <ele>280.8</ele>
        <time>2022-06-25T09:59:11Z</time>
      </trkpt>
      <trkpt lat="46.47367" lon="4.78153">
        <ele>280.8</ele>
        <time>2022-06-25T09:59:12Z</time>
      </trkpt>
      <trkpt lat="46.4736" lon="4.78153">
        <ele>280.8</ele>
        <time>2022-06-25T09:59:13Z</time>
      </trkpt>
      <trkpt lat="46.47353" lon="4.78152">
        <ele>280.8</ele>
        <time>2022-06-25T09:59:14Z</time>
      </trkpt>
      <trkpt lat="46.47347" lon="4.78151">
        <ele>280.8</ele>
        <time>2022-06-25T09:59:15Z</time>
      </trkpt>
      <trkpt lat="46.47341" lon="4.7815">
        <ele>280.8</ele>
        <time>2022-06-25T09:59:16Z</time>
      </trkpt>
      <trkpt lat="46.47335" lon="4.78149">
        <ele>281.2</ele>
        <time>2022-06-25T09:59:17Z</time>
      </trkpt>
      <trkpt lat="46.4733" lon="4.78148">
        <ele>281.2</ele>
        <time>2022-06-25T09:59:18Z</time>
      </trkpt>
      <trkpt lat="46.47325" lon="4.78147">
        <ele>281.4</ele>
        <time>2022-06-25T09:59:19Z</time>
      </trkpt>
      <trkpt lat="46.4732" lon="4.78146">
        <ele>281.4</ele>
        <time>2022-06-25T09:59:20Z</time>
      </trkpt>
      <trkpt lat="46.47315" lon="4.78146">
        <ele>281.8</ele>
        <time>2022-06-25T09:59:21Z</time>
      </trkpt>
      <trkpt lat="46.4731" lon="4.78145">
        <ele>281.8</ele>
        <time>2022-06-25T09:59:22Z</time>
      </trkpt>
      <trkpt lat="46.47306" lon="4.78144">
        <ele>282</ele>
        <time>2022-06-25T09:59:23Z</time>
      </trkpt>
      <trkpt lat="46.47302" lon="4.78143">
        <ele>282</ele>
        <time>2022-06-25T09:59:24Z</time>
      </trkpt>
      <trkpt lat="46.473" lon="4.78143">
        <ele>282.2</ele>
        <time>2022-06-25T09:59:25Z</time>
      </trkpt>
      <trkpt lat="46.47298" lon="4.78142">
        <ele>282.2</ele>
        <time>2022-06-25T09:59:26Z</time>
      </trkpt>
      <trkpt lat="46.47294" lon="4.78142">
        <ele>282.6</ele>
        <time>2022-06-25T09:59:27Z</time>
      </trkpt>
      <trkpt lat="46.4729" lon="4.78141">
        <ele>282.6</ele>
        <time>2022-06-25T09:59:28Z</time>
      </trkpt>
      <trkpt lat="46.47286" lon="4.7814">
        <ele>282.8</ele>
        <time>2022-06-25T09:59:29Z</time>
      </trkpt>
      <trkpt lat="46.47282" lon="4.7814">
        <ele>282.8</ele>
        <time>2022-06-25T09:59:30Z</time>
      </trkpt>
      <trkpt lat="46.47278" lon="4.78139">
        <ele>283.2</ele>
        <time>2022-06-25T09:59:31Z</time>
      </trkpt>
      <trkpt lat="46.47275" lon="4.78138">
        <ele>283.2</ele>
        <time>2022-06-25T09:59:32Z</time>
      </trkpt>
      <trkpt lat="46.47271" lon="4.78137">
        <ele>283.6</ele>
        <time>2022-06-25T09:59:33Z</time>
      </trkpt>
      <trkpt lat="46.47267" lon="4.78136">
        <ele>283.6</ele>
        <time>2022-06-25T09:59:34Z</time>
      </trkpt>
      <trkpt lat="46.47263" lon="4.78134">
        <ele>284</ele>
        <time>2022-06-25T09:59:35Z</time>
      </trkpt>
      <trkpt lat="46.47259" lon="4.78133">
        <ele>284.2</ele>
        <time>2022-06-25T09:59:36Z</time>
      </trkpt>
      <trkpt lat="46.47252" lon="4.78129">
        <ele>284.2</ele>
        <time>2022-06-25T09:59:37Z</time>
      </trkpt>
      <trkpt lat="46.47249" lon="4.78127">
        <ele>284.4</ele>
        <time>2022-06-25T09:59:38Z</time>
      </trkpt>
      <trkpt lat="46.47245" lon="4.78125">
        <ele>284.4</ele>
        <time>2022-06-25T09:59:39Z</time>
      </trkpt>
      <trkpt lat="46.47241" lon="4.78123">
        <ele>284.6</ele>
        <time>2022-06-25T09:59:40Z</time>
      </trkpt>
      <trkpt lat="46.47238" lon="4.78121">
        <ele>284.6</ele>
        <time>2022-06-25T09:59:41Z</time>
      </trkpt>
      <trkpt lat="46.47234" lon="4.78118">
        <ele>284.8</ele>
        <time>2022-06-25T09:59:42Z</time>
      </trkpt>
      <trkpt lat="46.47231" lon="4.78116">
        <ele>284.8</ele>
        <time>2022-06-25T09:59:43Z</time>
      </trkpt>
      <trkpt lat="46.47227" lon="4.78113">
        <ele>285.2</ele>
        <time>2022-06-25T09:59:44Z</time>
      </trkpt>
      <trkpt lat="46.47224" lon="4.78111">
        <ele>285.4</ele>
        <time>2022-06-25T09:59:45Z</time>
      </trkpt>
      <trkpt lat="46.4722" lon="4.78108">
        <ele>285.4</ele>
        <time>2022-06-25T09:59:46Z</time>
      </trkpt>
      <trkpt lat="46.47217" lon="4.78105">
        <ele>285.6</ele>
        <time>2022-06-25T09:59:47Z</time>
      </trkpt>
      <trkpt lat="46.47214" lon="4.78102">
        <ele>285.6</ele>
        <time>2022-06-25T09:59:48Z</time>
      </trkpt>
      <trkpt lat="46.47211" lon="4.78099">
        <ele>286</ele>
        <time>2022-06-25T09:59:49Z</time>
      </trkpt>
      <trkpt lat="46.47207" lon="4.78095">
        <ele>286</ele>
        <time>2022-06-25T09:59:50Z</time>
      </trkpt>
      <trkpt lat="46.47204" lon="4.78092">
        <ele>286.4</ele>
        <time>2022-06-25T09:59:51Z</time>
      </trkpt>
      <trkpt lat="46.47201" lon="4.78089">
        <ele>286.4</ele>
        <time>2022-06-25T09:59:52Z</time>
      </trkpt>
      <trkpt lat="46.47198" lon="4.78085">
        <ele>286.6</ele>
        <time>2022-06-25T09:59:53Z</time>
      </trkpt>
      <trkpt lat="46.47194" lon="4.78082">
        <ele>286.6</ele>
        <time>2022-06-25T09:59:54Z</time>
      </trkpt>
      <trkpt lat="46.47191" lon="4.78078">
        <ele>286.6</ele>
        <time>2022-06-25T09:59:55Z</time>
      </trkpt>
      <trkpt lat="46.47188" lon="4.78074">
        <ele>287</ele>
        <time>2022-06-25T09:59:56Z</time>
      </trkpt>
      <trkpt lat="46.47184" lon="4.7807">
        <ele>287</ele>
        <time>2022-06-25T09:59:57Z</time>
      </trkpt>
      <trkpt lat="46.47181" lon="4.78065">
        <ele>287</ele>
        <time>2022-06-25T09:59:58Z</time>
      </trkpt>
      <trkpt lat="46.47177" lon="4.78061">
        <ele>287</ele>
        <time>2022-06-25T09:59:59Z</time>
      </trkpt>
      <trkpt lat="46.47174" lon="4.78056">
        <ele>287.2</ele>
        <time>2022-06-25T10:00:00Z</time>
      </trkpt>
      <trkpt lat="46.4717" lon="4.78052">
        <ele>287.2</ele>
        <time>2022-06-25T10:00:01Z</time>
      </trkpt>
      <trkpt lat="46.47166" lon="4.78048">
        <ele>287.2</ele>
        <time>2022-06-25T10:00:02Z</time>
      </trkpt>
      <trkpt lat="46.47162" lon="4.78043">
        <ele>287.2</ele>
        <time>2022-06-25T10:00:03Z</time>
      </trkpt>
      <trkpt lat="46.47158" lon="4.78039">
        <ele>287.2</ele>
        <time>2022-06-25T10:00:04Z</time>
      </trkpt>
      <trkpt lat="46.47154" lon="4.78035">
        <ele>287.2</ele>
        <time>2022-06-25T10:00:05Z</time>
      </trkpt>
      <trkpt lat="46.47149" lon="4.78031">
        <ele>287.2</ele>
        <time>2022-06-25T10:00:06Z</time>
      </trkpt>
      <trkpt lat="46.47144" lon="4.78028">
        <ele>287.2</ele>
        <time>2022-06-25T10:00:07Z</time>
      </trkpt>
      <trkpt lat="46.47139" lon="4.78026">
        <ele>287</ele>
        <time>2022-06-25T10:00:08Z</time>
      </trkpt>
      <trkpt lat="46.47134" lon="4.78024">
        <ele>287</ele>
        <time>2022-06-25T10:00:09Z</time>
      </trkpt>
      <trkpt lat="46.47129" lon="4.78022">
        <ele>287</ele>
        <time>2022-06-25T10:00:10Z</time>
      </trkpt>
      <trkpt lat="46.47124" lon="4.7802">
        <ele>287</ele>
        <time>2022-06-25T10:00:11Z</time>
      </trkpt>
      <trkpt lat="46.47119" lon="4.78019">
        <ele>287</ele>
        <time>2022-06-25T10:00:12Z</time>
      </trkpt>
      <trkpt lat="46.47114" lon="4.78018">
        <ele>287</ele>
        <time>2022-06-25T10:00:13Z</time>
      </trkpt>
      <trkpt lat="46.4711" lon="4.78018">
        <ele>287.4</ele>
        <time>2022-06-25T10:00:14Z</time>
      </trkpt>
      <trkpt lat="46.47106" lon="4.78017">
        <ele>287.4</ele>
        <time>2022-06-25T10:00:15Z</time>
      </trkpt>
      <trkpt lat="46.47101" lon="4.78017">
        <ele>287.4</ele>
        <time>2022-06-25T10:00:16Z</time>
      </trkpt>
      <trkpt lat="46.47097" lon="4.78016">
        <ele>287.6</ele>
        <time>2022-06-25T10:00:17Z</time>
      </trkpt>
      <trkpt lat="46.47094" lon="4.78015">
        <ele>287.6</ele>
        <time>2022-06-25T10:00:18Z</time>
      </trkpt>
      <trkpt lat="46.4709" lon="4.78013">
        <ele>287.8</ele>
        <time>2022-06-25T10:00:19Z</time>
      </trkpt>
      <trkpt lat="46.47086" lon="4.78012">
        <ele>287.8</ele>
        <time>2022-06-25T10:00:20Z</time>
      </trkpt>
      <trkpt lat="46.47082" lon="4.7801">
        <ele>288.2</ele>
        <time>2022-06-25T10:00:21Z</time>
      </trkpt>
      <trkpt lat="46.47079" lon="4.78009">
        <ele>288.2</ele>
        <time>2022-06-25T10:00:22Z</time>
      </trkpt>
      <trkpt lat="46.47075" lon="4.78007">
        <ele>288.6</ele>
        <time>2022-06-25T10:00:23Z</time>
      </trkpt>
      <trkpt lat="46.47072" lon="4.78005">
        <ele>288.6</ele>
        <time>2022-06-25T10:00:24Z</time>
      </trkpt>
      <trkpt lat="46.47069" lon="4.78002">
        <ele>289</ele>
        <time>2022-06-25T10:00:25Z</time>
      </trkpt>
      <trkpt lat="46.47065" lon="4.78">
        <ele>289</ele>
        <time>2022-06-25T10:00:26Z</time>
      </trkpt>
      <trkpt lat="46.47062" lon="4.77997">
        <ele>289.2</ele>
        <time>2022-06-25T10:00:27Z</time>
      </trkpt>
      <trkpt lat="46.47059" lon="4.77994">
        <ele>289.2</ele>
        <time>2022-06-25T10:00:28Z</time>
      </trkpt>
      <trkpt lat="46.47056" lon="4.77991">
        <ele>289.6</ele>
        <time>2022-06-25T10:00:29Z</time>
      </trkpt>
      <trkpt lat="46.47053" lon="4.77988">
        <ele>289.6</ele>
        <time>2022-06-25T10:00:30Z</time>
      </trkpt>
      <trkpt lat="46.4705" lon="4.77984">
        <ele>289.8</ele>
        <time>2022-06-25T10:00:31Z</time>
      </trkpt>
      <trkpt lat="46.47047" lon="4.77981">
        <ele>289.8</ele>
        <time>2022-06-25T10:00:32Z</time>
      </trkpt>
      <trkpt lat="46.47044" lon="4.77977">
        <ele>290</ele>
        <time>2022-06-25T10:00:33Z</time>
      </trkpt>
      <trkpt lat="46.4704" lon="4.77974">
        <ele>290</ele>
        <time>2022-06-25T10:00:34Z</time>
      </trkpt>
      <trkpt lat="46.47037" lon="4.7797">
        <ele>290.4</ele>
        <time>2022-06-25T10:00:35Z</time>
      </trkpt>
      <trkpt lat="46.47034" lon="4.77966">
        <ele>290.4</ele>
        <time>2022-06-25T10:00:36Z</time>
      </trkpt>
      <trkpt lat="46.47032" lon="4.77962">
        <ele>290.6</ele>
        <time>2022-06-25T10:00:37Z</time>
      </trkpt>
      <trkpt lat="46.47029" lon="4.77957">
        <ele>290.6</ele>
        <time>2022-06-25T10:00:38Z</time>
      </trkpt>
      <trkpt lat="46.47027" lon="4.77953">
        <ele>290.8</ele>
        <time>2022-06-25T10:00:39Z</time>
      </trkpt>
      <trkpt lat="46.47025" lon="4.77948">
        <ele>291.2</ele>
        <time>2022-06-25T10:00:40Z</time>
      </trkpt>
      <trkpt lat="46.47023" lon="4.77944">
        <ele>291.2</ele>
        <time>2022-06-25T10:00:41Z</time>
      </trkpt>
      <trkpt lat="46.4702" lon="4.77939">
        <ele>291.4</ele>
        <time>2022-06-25T10:00:42Z</time>
      </trkpt>
      <trkpt lat="46.47018" lon="4.77935">
        <ele>291.4</ele>
        <time>2022-06-25T10:00:43Z</time>
      </trkpt>
      <trkpt lat="46.47016" lon="4.77931">
        <ele>291.8</ele>
        <time>2022-06-25T10:00:44Z</time>
      </trkpt>
      <trkpt lat="46.47013" lon="4.77926">
        <ele>291.8</ele>
        <time>2022-06-25T10:00:45Z</time>
      </trkpt>
      <trkpt lat="46.47011" lon="4.77922">
        <ele>292</ele>
        <time>2022-06-25T10:00:46Z</time>
      </trkpt>
      <trkpt lat="46.47009" lon="4.77918">
        <ele>292</ele>
        <time>2022-06-25T10:00:47Z</time>
      </trkpt>
      <trkpt lat="46.47006" lon="4.77914">
        <ele>292.4</ele>
        <time>2022-06-25T10:00:48Z</time>
      </trkpt>
      <trkpt lat="46.47004" lon="4.7791">
        <ele>292.6</ele>
        <time>2022-06-25T10:00:49Z</time>
      </trkpt>
      <trkpt lat="46.47001" lon="4.77906">
        <ele>292.6</ele>
        <time>2022-06-25T10:00:50Z</time>
      </trkpt>
      <trkpt lat="46.46999" lon="4.77902">
        <ele>293</ele>
        <time>2022-06-25T10:00:51Z</time>
      </trkpt>
      <trkpt lat="46.46996" lon="4.77898">
        <ele>293</ele>
        <time>2022-06-25T10:00:52Z</time>
      </trkpt>
      <trkpt lat="46.46993" lon="4.77895">
        <ele>293.2</ele>
        <time>2022-06-25T10:00:53Z</time>
      </trkpt>
      <trkpt lat="46.4699" lon="4.77892">
        <ele>293.2</ele>
        <time>2022-06-25T10:00:54Z</time>
      </trkpt>
      <trkpt lat="46.46987" lon="4.77889">
        <ele>293.6</ele>
        <time>2022-06-25T10:00:55Z</time>
      </trkpt>
      <trkpt lat="46.46984" lon="4.77886">
        <ele>293.6</ele>
        <time>2022-06-25T10:00:56Z</time>
      </trkpt>
      <trkpt lat="46.4698" lon="4.77884">
        <ele>293.8</ele>
        <time>2022-06-25T10:00:57Z</time>
      </trkpt>
      <trkpt lat="46.46976" lon="4.77882">
        <ele>294</ele>
        <time>2022-06-25T10:00:58Z</time>
      </trkpt>
      <trkpt lat="46.46973" lon="4.77879">
        <ele>294</ele>
        <time>2022-06-25T10:00:59Z</time>
      </trkpt>
      <trkpt lat="46.4697" lon="4.77877">
        <ele>294.4</ele>
        <time>2022-06-25T10:01:00Z</time>
      </trkpt>
      <trkpt lat="46.46966" lon="4.77874">
        <ele>294.4</ele>
        <time>2022-06-25T10:01:01Z</time>
      </trkpt>
      <trkpt lat="46.46963" lon="4.77871">
        <ele>294.8</ele>
        <time>2022-06-25T10:01:02Z</time>
      </trkpt>
      <trkpt lat="46.4696" lon="4.77869">
        <ele>294.8</ele>
        <time>2022-06-25T10:01:03Z</time>
      </trkpt>
      <trkpt lat="46.46957" lon="4.77867">
        <ele>294.8</ele>
        <time>2022-06-25T10:01:04Z</time>
      </trkpt>
      <trkpt lat="46.46953" lon="4.77864">
        <ele>295.2</ele>
        <time>2022-06-25T10:01:05Z</time>
      </trkpt>
      <trkpt lat="46.4695" lon="4.77862">
        <ele>295.2</ele>
        <time>2022-06-25T10:01:06Z</time>
      </trkpt>
      <trkpt lat="46.46947" lon="4.7786">
        <ele>295.4</ele>
        <time>2022-06-25T10:01:07Z</time>
      </trkpt>
      <trkpt lat="46.46944" lon="4.77857">
        <ele>295.4</ele>
        <time>2022-06-25T10:01:08Z</time>
      </trkpt>
      <trkpt lat="46.46941" lon="4.77855">
        <ele>295.8</ele>
        <time>2022-06-25T10:01:09Z</time>
      </trkpt>
      <trkpt lat="46.46937" lon="4.77853">
        <ele>295.8</ele>
        <time>2022-06-25T10:01:10Z</time>
      </trkpt>
      <trkpt lat="46.46934" lon="4.7785">
        <ele>296.2</ele>
        <time>2022-06-25T10:01:11Z</time>
      </trkpt>
      <trkpt lat="46.46931" lon="4.77848">
        <ele>296.2</ele>
        <time>2022-06-25T10:01:12Z</time>
      </trkpt>
      <trkpt lat="46.46928" lon="4.77846">
        <ele>296.6</ele>
        <time>2022-06-25T10:01:13Z</time>
      </trkpt>
      <trkpt lat="46.46924" lon="4.77843">
        <ele>296.6</ele>
        <time>2022-06-25T10:01:14Z</time>
      </trkpt>
      <trkpt lat="46.46921" lon="4.7784">
        <ele>297</ele>
        <time>2022-06-25T10:01:15Z</time>
      </trkpt>
      <trkpt lat="46.46918" lon="4.77838">
        <ele>297</ele>
        <time>2022-06-25T10:01:16Z</time>
      </trkpt>
      <trkpt lat="46.46915" lon="4.77835">
        <ele>297.2</ele>
        <time>2022-06-25T10:01:17Z</time>
      </trkpt>
      <trkpt lat="46.46911" lon="4.77832">
        <ele>297.2</ele>
        <time>2022-06-25T10:01:18Z</time>
      </trkpt>
      <trkpt lat="46.46908" lon="4.7783">
        <ele>297.6</ele>
        <time>2022-06-25T10:01:19Z</time>
      </trkpt>
      <trkpt lat="46.46905" lon="4.77827">
        <ele>297.6</ele>
        <time>2022-06-25T10:01:20Z</time>
      </trkpt>
      <trkpt lat="46.46902" lon="4.77824">
        <ele>297.6</ele>
        <time>2022-06-25T10:01:21Z</time>
      </trkpt>
      <trkpt lat="46.46899" lon="4.77822">
        <ele>298</ele>
        <time>2022-06-25T10:01:22Z</time>
      </trkpt>
      <trkpt lat="46.46896" lon="4.77819">
        <ele>298</ele>
        <time>2022-06-25T10:01:23Z</time>
      </trkpt>
      <trkpt lat="46.46893" lon="4.77816">
        <ele>298.2</ele>
        <time>2022-06-25T10:01:24Z</time>
      </trkpt>
      <trkpt lat="46.46889" lon="4.77813">
        <ele>298.2</ele>
        <time>2022-06-25T10:01:25Z</time>
      </trkpt>
      <trkpt lat="46.46886" lon="4.7781">
        <ele>298.6</ele>
        <time>2022-06-25T10:01:26Z</time>
      </trkpt>
      <trkpt lat="46.46883" lon="4.77808">
        <ele>298.6</ele>
        <time>2022-06-25T10:01:27Z</time>
      </trkpt>
      <trkpt lat="46.4688" lon="4.77804">
        <ele>299</ele>
        <time>2022-06-25T10:01:28Z</time>
      </trkpt>
      <trkpt lat="46.46878" lon="4.77801">
        <ele>299</ele>
        <time>2022-06-25T10:01:29Z</time>
      </trkpt>
      <trkpt lat="46.46875" lon="4.77797">
        <ele>299.2</ele>
        <time>2022-06-25T10:01:30Z</time>
      </trkpt>
      <trkpt lat="46.46873" lon="4.77793">
        <ele>299.2</ele>
        <time>2022-06-25T10:01:31Z</time>
      </trkpt>
      <trkpt lat="46.4687" lon="4.7779">
        <ele>299.4</ele>
        <time>2022-06-25T10:01:32Z</time>
      </trkpt>
      <trkpt lat="46.46867" lon="4.77785">
        <ele>299.4</ele>
        <time>2022-06-25T10:01:33Z</time>
      </trkpt>
      <trkpt lat="46.46865" lon="4.77781">
        <ele>299.8</ele>
        <time>2022-06-25T10:01:34Z</time>
      </trkpt>
      <trkpt lat="46.46862" lon="4.77777">
        <ele>299.8</ele>
        <time>2022-06-25T10:01:35Z</time>
      </trkpt>
      <trkpt lat="46.4686" lon="4.77773">
        <ele>300</ele>
        <time>2022-06-25T10:01:36Z</time>
      </trkpt>
      <trkpt lat="46.46858" lon="4.77768">
        <ele>300</ele>
        <time>2022-06-25T10:01:37Z</time>
      </trkpt>
      <trkpt lat="46.46855" lon="4.77764">
        <ele>300.4</ele>
        <time>2022-06-25T10:01:38Z</time>
      </trkpt>
      <trkpt lat="46.46852" lon="4.7776">
        <ele>300.4</ele>
        <time>2022-06-25T10:01:39Z</time>
      </trkpt>
      <trkpt lat="46.4685" lon="4.77756">
        <ele>300.6</ele>
        <time>2022-06-25T10:01:40Z</time>
      </trkpt>
      <trkpt lat="46.46848" lon="4.77751">
        <ele>300.6</ele>
        <time>2022-06-25T10:01:41Z</time>
      </trkpt>
      <trkpt lat="46.46845" lon="4.77747">
        <ele>301</ele>
        <time>2022-06-25T10:01:42Z</time>
      </trkpt>
      <trkpt lat="46.46843" lon="4.77743">
        <ele>301.2</ele>
        <time>2022-06-25T10:01:43Z</time>
      </trkpt>
      <trkpt lat="46.46841" lon="4.77739">
        <ele>301.2</ele>
        <time>2022-06-25T10:01:44Z</time>
      </trkpt>
      <trkpt lat="46.46838" lon="4.77734">
        <ele>301.4</ele>
        <time>2022-06-25T10:01:45Z</time>
      </trkpt>
      <trkpt lat="46.46836" lon="4.7773">
        <ele>301.4</ele>
        <time>2022-06-25T10:01:46Z</time>
      </trkpt>
      <trkpt lat="46.46833" lon="4.77727">
        <ele>301.8</ele>
        <time>2022-06-25T10:01:47Z</time>
      </trkpt>
      <trkpt lat="46.46831" lon="4.77723">
        <ele>301.8</ele>
        <time>2022-06-25T10:01:48Z</time>
      </trkpt>
      <trkpt lat="46.46829" lon="4.77719">
        <ele>302.2</ele>
        <time>2022-06-25T10:01:49Z</time>
      </trkpt>
      <trkpt lat="46.46826" lon="4.77715">
        <ele>302.4</ele>
        <time>2022-06-25T10:01:50Z</time>
      </trkpt>
      <trkpt lat="46.46824" lon="4.7771">
        <ele>302.4</ele>
        <time>2022-06-25T10:01:51Z</time>
      </trkpt>
      <trkpt lat="46.46821" lon="4.77706">
        <ele>302.8</ele>
        <time>2022-06-25T10:01:52Z</time>
      </trkpt>
      <trkpt lat="46.46819" lon="4.77702">
        <ele>302.8</ele>
        <time>2022-06-25T10:01:53Z</time>
      </trkpt>
      <trkpt lat="46.46817" lon="4.77698">
        <ele>303.2</ele>
        <time>2022-06-25T10:01:54Z</time>
      </trkpt>
      <trkpt lat="46.46814" lon="4.77694">
        <ele>303.4</ele>
        <time>2022-06-25T10:01:55Z</time>
      </trkpt>
      <trkpt lat="46.46812" lon="4.7769">
        <ele>303.6</ele>
        <time>2022-06-25T10:01:56Z</time>
      </trkpt>
      <trkpt lat="46.46809" lon="4.77687">
        <ele>303.8</ele>
        <time>2022-06-25T10:01:57Z</time>
      </trkpt>
      <trkpt lat="46.46806" lon="4.77683">
        <ele>303.8</ele>
        <time>2022-06-25T10:01:58Z</time>
      </trkpt>
      <trkpt lat="46.46804" lon="4.7768">
        <ele>304</ele>
        <time>2022-06-25T10:01:59Z</time>
      </trkpt>
      <trkpt lat="46.46801" lon="4.77676">
        <ele>304</ele>
        <time>2022-06-25T10:02:00Z</time>
      </trkpt>
      <trkpt lat="46.46798" lon="4.77673">
        <ele>304.4</ele>
        <time>2022-06-25T10:02:01Z</time>
      </trkpt>
      <trkpt lat="46.46795" lon="4.7767">
        <ele>304.4</ele>
        <time>2022-06-25T10:02:02Z</time>
      </trkpt>
      <trkpt lat="46.46791" lon="4.77667">
        <ele>304.6</ele>
        <time>2022-06-25T10:02:03Z</time>
      </trkpt>
      <trkpt lat="46.46788" lon="4.77665">
        <ele>304.6</ele>
        <time>2022-06-25T10:02:04Z</time>
      </trkpt>
      <trkpt lat="46.46784" lon="4.77662">
        <ele>305</ele>
        <time>2022-06-25T10:02:05Z</time>
      </trkpt>
      <trkpt lat="46.4678" lon="4.7766">
        <ele>305</ele>
        <time>2022-06-25T10:02:06Z</time>
      </trkpt>
      <trkpt lat="46.46777" lon="4.77657">
        <ele>305.4</ele>
        <time>2022-06-25T10:02:07Z</time>
      </trkpt>
      <trkpt lat="46.46774" lon="4.77654">
        <ele>305.4</ele>
        <time>2022-06-25T10:02:08Z</time>
      </trkpt>
      <trkpt lat="46.4677" lon="4.77651">
        <ele>305.6</ele>
        <time>2022-06-25T10:02:09Z</time>
      </trkpt>
      <trkpt lat="46.46767" lon="4.77649">
        <ele>305.6</ele>
        <time>2022-06-25T10:02:10Z</time>
      </trkpt>
      <trkpt lat="46.46763" lon="4.77646">
        <ele>306</ele>
        <time>2022-06-25T10:02:11Z</time>
      </trkpt>
      <trkpt lat="46.4676" lon="4.77643">
        <ele>306</ele>
        <time>2022-06-25T10:02:12Z</time>
      </trkpt>
      <trkpt lat="46.46757" lon="4.77641">
        <ele>306.4</ele>
        <time>2022-06-25T10:02:13Z</time>
      </trkpt>
      <trkpt lat="46.46753" lon="4.77638">
        <ele>306.6</ele>
        <time>2022-06-25T10:02:14Z</time>
      </trkpt>
      <trkpt lat="46.4675" lon="4.77635">
        <ele>306.6</ele>
        <time>2022-06-25T10:02:15Z</time>
      </trkpt>
      <trkpt lat="46.46746" lon="4.77633">
        <ele>306.8</ele>
        <time>2022-06-25T10:02:16Z</time>
      </trkpt>
      <trkpt lat="46.46743" lon="4.7763">
        <ele>306.8</ele>
        <time>2022-06-25T10:02:17Z</time>
      </trkpt>
      <trkpt lat="46.4674" lon="4.77627">
        <ele>307.2</ele>
        <time>2022-06-25T10:02:18Z</time>
      </trkpt>
      <trkpt lat="46.46737" lon="4.77624">
        <ele>307.2</ele>
        <time>2022-06-25T10:02:19Z</time>
      </trkpt>
      <trkpt lat="46.46734" lon="4.77622">
        <ele>307.4</ele>
        <time>2022-06-25T10:02:20Z</time>
      </trkpt>
      <trkpt lat="46.46731" lon="4.77619">
        <ele>307.4</ele>
        <time>2022-06-25T10:02:21Z</time>
      </trkpt>
      <trkpt lat="46.46728" lon="4.77616">
        <ele>307.6</ele>
        <time>2022-06-25T10:02:22Z</time>
      </trkpt>
      <trkpt lat="46.46724" lon="4.77614">
        <ele>307.8</ele>
        <time>2022-06-25T10:02:23Z</time>
      </trkpt>
      <trkpt lat="46.46721" lon="4.77611">
        <ele>307.8</ele>
        <time>2022-06-25T10:02:24Z</time>
      </trkpt>
      <trkpt lat="46.46718" lon="4.77609">
        <ele>308.2</ele>
        <time>2022-06-25T10:02:25Z</time>
      </trkpt>
      <trkpt lat="46.46715" lon="4.77606">
        <ele>308.2</ele>
        <time>2022-06-25T10:02:26Z</time>
      </trkpt>
      <trkpt lat="46.46711" lon="4.77604">
        <ele>308.4</ele>
        <time>2022-06-25T10:02:27Z</time>
      </trkpt>
      <trkpt lat="46.46708" lon="4.77602">
        <ele>308.4</ele>
        <time>2022-06-25T10:02:28Z</time>
      </trkpt>
      <trkpt lat="46.46704" lon="4.776">
        <ele>308.6</ele>
        <time>2022-06-25T10:02:29Z</time>
      </trkpt>
      <trkpt lat="46.46701" lon="4.77597">
        <ele>308.6</ele>
        <time>2022-06-25T10:02:30Z</time>
      </trkpt>
      <trkpt lat="46.46697" lon="4.77595">
        <ele>309</ele>
        <time>2022-06-25T10:02:31Z</time>
      </trkpt>
      <trkpt lat="46.46693" lon="4.77593">
        <ele>309</ele>
        <time>2022-06-25T10:02:32Z</time>
      </trkpt>
      <trkpt lat="46.46689" lon="4.77591">
        <ele>309</ele>
        <time>2022-06-25T10:02:33Z</time>
      </trkpt>
      <trkpt lat="46.46685" lon="4.77589">
        <ele>309</ele>
        <time>2022-06-25T10:02:34Z</time>
      </trkpt>
      <trkpt lat="46.46681" lon="4.77587">
        <ele>309</ele>
        <time>2022-06-25T10:02:35Z</time>
      </trkpt>
      <trkpt lat="46.46677" lon="4.77584">
        <ele>309</ele>
        <time>2022-06-25T10:02:36Z</time>
      </trkpt>
      <trkpt lat="46.46673" lon="4.77582">
        <ele>309</ele>
        <time>2022-06-25T10:02:37Z</time>
      </trkpt>
      <trkpt lat="46.46669" lon="4.7758">
        <ele>309</ele>
        <time>2022-06-25T10:02:38Z</time>
      </trkpt>
      <trkpt lat="46.46664" lon="4.77577">
        <ele>309</ele>
        <time>2022-06-25T10:02:39Z</time>
      </trkpt>
      <trkpt lat="46.4666" lon="4.77574">
        <ele>308.6</ele>
        <time>2022-06-25T10:02:40Z</time>
      </trkpt>
      <trkpt lat="46.46655" lon="4.77572">
        <ele>308.6</ele>
        <time>2022-06-25T10:02:41Z</time>
      </trkpt>
      <trkpt lat="46.4665" lon="4.77569">
        <ele>308.4</ele>
        <time>2022-06-25T10:02:42Z</time>
      </trkpt>
      <trkpt lat="46.46645" lon="4.77566">
        <ele>308.4</ele>
        <time>2022-06-25T10:02:43Z</time>
      </trkpt>
      <trkpt lat="46.4664" lon="4.77563">
        <ele>308.4</ele>
        <time>2022-06-25T10:02:44Z</time>
      </trkpt>
      <trkpt lat="46.46635" lon="4.7756">
        <ele>308.2</ele>
        <time>2022-06-25T10:02:45Z</time>
      </trkpt>
      <trkpt lat="46.46629" lon="4.77558">
        <ele>308.2</ele>
        <time>2022-06-25T10:02:46Z</time>
      </trkpt>
      <trkpt lat="46.46624" lon="4.77555">
        <ele>308.2</ele>
        <time>2022-06-25T10:02:47Z</time>
      </trkpt>
      <trkpt lat="46.46618" lon="4.77552">
        <ele>308.2</ele>
        <time>2022-06-25T10:02:48Z</time>
      </trkpt>
      <trkpt lat="46.46612" lon="4.77549">
        <ele>308</ele>
        <time>2022-06-25T10:02:49Z</time>
      </trkpt>
      <trkpt lat="46.46606" lon="4.77546">
        <ele>308</ele>
        <time>2022-06-25T10:02:50Z</time>
      </trkpt>
      <trkpt lat="46.46599" lon="4.77543">
        <ele>307.6</ele>
        <time>2022-06-25T10:02:51Z</time>
      </trkpt>
      <trkpt lat="46.46593" lon="4.77539">
        <ele>307.6</ele>
        <time>2022-06-25T10:02:52Z</time>
      </trkpt>
      <trkpt lat="46.46586" lon="4.77536">
        <ele>307</ele>
        <time>2022-06-25T10:02:53Z</time>
      </trkpt>
      <trkpt lat="46.46579" lon="4.77533">
        <ele>306.4</ele>
        <time>2022-06-25T10:02:54Z</time>
      </trkpt>
      <trkpt lat="46.46572" lon="4.7753">
        <ele>306.2</ele>
        <time>2022-06-25T10:02:55Z</time>
      </trkpt>
      <trkpt lat="46.46565" lon="4.77527">
        <ele>306</ele>
        <time>2022-06-25T10:02:56Z</time>
      </trkpt>
      <trkpt lat="46.46558" lon="4.77524">
        <ele>306</ele>
        <time>2022-06-25T10:02:57Z</time>
      </trkpt>
      <trkpt lat="46.46551" lon="4.77521">
        <ele>305.4</ele>
        <time>2022-06-25T10:02:58Z</time>
      </trkpt>
      <trkpt lat="46.46543" lon="4.77518">
        <ele>305.2</ele>
        <time>2022-06-25T10:02:59Z</time>
      </trkpt>
      <trkpt lat="46.46536" lon="4.77515">
        <ele>304.8</ele>
        <time>2022-06-25T10:03:00Z</time>
      </trkpt>
      <trkpt lat="46.46528" lon="4.77511">
        <ele>304.4</ele>
        <time>2022-06-25T10:03:01Z</time>
      </trkpt>
      <trkpt lat="46.4652" lon="4.77507">
        <ele>304.2</ele>
        <time>2022-06-25T10:03:02Z</time>
      </trkpt>
      <trkpt lat="46.46512" lon="4.77504">
        <ele>304</ele>
        <time>2022-06-25T10:03:03Z</time>
      </trkpt>
      <trkpt lat="46.46505" lon="4.775">
        <ele>303.8</ele>
        <time>2022-06-25T10:03:04Z</time>
      </trkpt>
      <trkpt lat="46.46497" lon="4.77496">
        <ele>303.4</ele>
        <time>2022-06-25T10:03:05Z</time>
      </trkpt>
      <trkpt lat="46.46489" lon="4.77493">
        <ele>303.2</ele>
        <time>2022-06-25T10:03:06Z</time>
      </trkpt>
      <trkpt lat="46.46481" lon="4.77488">
        <ele>302.8</ele>
        <time>2022-06-25T10:03:07Z</time>
      </trkpt>
      <trkpt lat="46.46473" lon="4.77484">
        <ele>302.4</ele>
        <time>2022-06-25T10:03:08Z</time>
      </trkpt>
      <trkpt lat="46.46466" lon="4.7748">
        <ele>302</ele>
        <time>2022-06-25T10:03:09Z</time>
      </trkpt>
      <trkpt lat="46.46458" lon="4.77477">
        <ele>301.8</ele>
        <time>2022-06-25T10:03:10Z</time>
      </trkpt>
      <trkpt lat="46.4645" lon="4.77473">
        <ele>301.4</ele>
        <time>2022-06-25T10:03:11Z</time>
      </trkpt>
      <trkpt lat="46.46442" lon="4.7747">
        <ele>301.2</ele>
        <time>2022-06-25T10:03:12Z</time>
      </trkpt>
      <trkpt lat="46.46435" lon="4.77467">
        <ele>300.8</ele>
        <time>2022-06-25T10:03:13Z</time>
      </trkpt>
      <trkpt lat="46.46427" lon="4.77464">
        <ele>300.6</ele>
        <time>2022-06-25T10:03:14Z</time>
      </trkpt>
      <trkpt lat="46.4642" lon="4.77461">
        <ele>300.4</ele>
        <time>2022-06-25T10:03:15Z</time>
      </trkpt>
      <trkpt lat="46.46413" lon="4.77458">
        <ele>300</ele>
        <time>2022-06-25T10:03:16Z</time>
      </trkpt>
      <trkpt lat="46.46407" lon="4.77455">
        <ele>300</ele>
        <time>2022-06-25T10:03:17Z</time>
      </trkpt>
      <trkpt lat="46.46402" lon="4.77452">
        <ele>299.6</ele>
        <time>2022-06-25T10:03:18Z</time>
      </trkpt>
      <trkpt lat="46.46398" lon="4.7745">
        <ele>299.4</ele>
        <time>2022-06-25T10:03:19Z</time>
      </trkpt>
      <trkpt lat="46.46393" lon="4.77448">
        <ele>299</ele>
        <time>2022-06-25T10:03:20Z</time>
      </trkpt>
      <trkpt lat="46.46388" lon="4.77447">
        <ele>298.8</ele>
        <time>2022-06-25T10:03:21Z</time>
      </trkpt>
      <trkpt lat="46.46384" lon="4.77445">
        <ele>298.4</ele>
        <time>2022-06-25T10:03:22Z</time>
      </trkpt>
      <trkpt lat="46.4638" lon="4.77444">
        <ele>298.2</ele>
        <time>2022-06-25T10:03:23Z</time>
      </trkpt>
      <trkpt lat="46.46376" lon="4.77442">
        <ele>298</ele>
        <time>2022-06-25T10:03:24Z</time>
      </trkpt>
      <trkpt lat="46.46372" lon="4.7744">
        <ele>298</ele>
        <time>2022-06-25T10:03:25Z</time>
      </trkpt>
      <trkpt lat="46.46368" lon="4.77438">
        <ele>297.6</ele>
        <time>2022-06-25T10:03:26Z</time>
      </trkpt>
      <trkpt lat="46.46365" lon="4.77436">
        <ele>297.6</ele>
        <time>2022-06-25T10:03:27Z</time>
      </trkpt>
      <trkpt lat="46.46362" lon="4.77435">
        <ele>297.2</ele>
        <time>2022-06-25T10:03:28Z</time>
      </trkpt>
      <trkpt lat="46.46359" lon="4.77433">
        <ele>297.2</ele>
        <time>2022-06-25T10:03:29Z</time>
      </trkpt>
      <trkpt lat="46.46356" lon="4.77432">
        <ele>297.2</ele>
        <time>2022-06-25T10:03:30Z</time>
      </trkpt>
      <trkpt lat="46.46354" lon="4.77431">
        <ele>297</ele>
        <time>2022-06-25T10:03:31Z</time>
      </trkpt>
      <trkpt lat="46.46352" lon="4.77431">
        <ele>297</ele>
        <time>2022-06-25T10:03:32Z</time>
      </trkpt>
      <trkpt lat="46.4635" lon="4.7743">
        <ele>297</ele>
        <time>2022-06-25T10:03:33Z</time>
      </trkpt>
      <trkpt lat="46.46348" lon="4.77429">
        <ele>296.8</ele>
        <time>2022-06-25T10:03:34Z</time>
      </trkpt>
      <trkpt lat="46.46346" lon="4.77428">
        <ele>296.8</ele>
        <time>2022-06-25T10:03:35Z</time>
      </trkpt>
      <trkpt lat="46.46343" lon="4.77426">
        <ele>296.8</ele>
        <time>2022-06-25T10:03:36Z</time>
      </trkpt>
      <trkpt lat="46.46341" lon="4.77425">
        <ele>296.8</ele>
        <time>2022-06-25T10:03:37Z</time>
      </trkpt>
      <trkpt lat="46.46338" lon="4.77424">
        <ele>296.8</ele>
        <time>2022-06-25T10:03:38Z</time>
      </trkpt>
      <trkpt lat="46.46337" lon="4.77422">
        <ele>296.6</ele>
        <time>2022-06-25T10:03:39Z</time>
      </trkpt>
      <trkpt lat="46.46336" lon="4.77421">
        <ele>296.6</ele>
        <time>2022-06-25T10:03:40Z</time>
      </trkpt>
      <trkpt lat="46.46335" lon="4.77419">
        <ele>296.6</ele>
        <time>2022-06-25T10:03:41Z</time>
      </trkpt>
      <trkpt lat="46.46334" lon="4.77419">
        <ele>296.6</ele>
        <time>2022-06-25T10:03:42Z</time>
      </trkpt>
      <trkpt lat="46.46333" lon="4.77418">
        <ele>296.4</ele>
        <time>2022-06-25T10:03:43Z</time>
      </trkpt>
      <trkpt lat="46.46332" lon="4.77417">
        <ele>296.4</ele>
        <time>2022-06-25T10:03:44Z</time>
      </trkpt>
      <trkpt lat="46.4633" lon="4.77417">
        <ele>296.4</ele>
        <time>2022-06-25T10:03:45Z</time>
      </trkpt>
      <trkpt lat="46.46328" lon="4.77416">
        <ele>296.4</ele>
        <time>2022-06-25T10:03:46Z</time>
      </trkpt>
      <trkpt lat="46.46326" lon="4.77415">
        <ele>296.4</ele>
        <time>2022-06-25T10:03:47Z</time>
      </trkpt>
      <trkpt lat="46.46324" lon="4.77414">
        <ele>296.4</ele>
        <time>2022-06-25T10:03:48Z</time>
      </trkpt>
      <trkpt lat="46.4632" lon="4.77413">
        <ele>296.4</ele>
        <time>2022-06-25T10:03:49Z</time>
      </trkpt>
      <trkpt lat="46.46317" lon="4.77412">
        <ele>296.4</ele>
        <time>2022-06-25T10:03:50Z</time>
      </trkpt>
      <trkpt lat="46.46313" lon="4.77411">
        <ele>296.4</ele>
        <time>2022-06-25T10:03:51Z</time>
      </trkpt>
      <trkpt lat="46.46309" lon="4.7741">
        <ele>296.4</ele>
        <time>2022-06-25T10:03:52Z</time>
      </trkpt>
      <trkpt lat="46.46305" lon="4.77409">
        <ele>296.4</ele>
        <time>2022-06-25T10:03:53Z</time>
      </trkpt>
      <trkpt lat="46.463" lon="4.77408">
        <ele>296.4</ele>
        <time>2022-06-25T10:03:54Z</time>
      </trkpt>
      <trkpt lat="46.46296" lon="4.77407">
        <ele>296.4</ele>
        <time>2022-06-25T10:03:55Z</time>
      </trkpt>
      <trkpt lat="46.46293" lon="4.77407">
        <ele>296.4</ele>
        <time>2022-06-25T10:03:56Z</time>
      </trkpt>
      <trkpt lat="46.4629" lon="4.77407">
        <ele>296.4</ele>
        <time>2022-06-25T10:03:57Z</time>
      </trkpt>
      <trkpt lat="46.46288" lon="4.77408">
        <ele>296.4</ele>
        <time>2022-06-25T10:03:58Z</time>
      </trkpt>
      <trkpt lat="46.46287" lon="4.77408">
        <ele>296.4</ele>
        <time>2022-06-25T10:03:59Z</time>
      </trkpt>
      <trkpt lat="46.46285" lon="4.77408">
        <ele>296.4</ele>
        <time>2022-06-25T10:04:00Z</time>
      </trkpt>
      <trkpt lat="46.46284" lon="4.77408">
        <ele>296.4</ele>
        <time>2022-06-25T10:04:01Z</time>
      </trkpt>
      <trkpt lat="46.46283" lon="4.77408">
        <ele>296.4</ele>
        <time>2022-06-25T10:04:02Z</time>
      </trkpt>
      <trkpt lat="46.46282" lon="4.77409">
        <ele>296.4</ele>
        <time>2022-06-25T10:04:03Z</time>
      </trkpt>
      <trkpt lat="46.46279" lon="4.7741">
        <ele>296.4</ele>
        <time>2022-06-25T10:04:08Z</time>
      </trkpt>
      <trkpt lat="46.46277" lon="4.7741">
        <ele>296.4</ele>
        <time>2022-06-25T10:04:09Z</time>
      </trkpt>
      <trkpt lat="46.46275" lon="4.7741">
        <ele>296.4</ele>
        <time>2022-06-25T10:04:10Z</time>
      </trkpt>
      <trkpt lat="46.46273" lon="4.7741">
        <ele>296.4</ele>
        <time>2022-06-25T10:04:11Z</time>
      </trkpt>
      <trkpt lat="46.46271" lon="4.7741">
        <ele>296.6</ele>
        <time>2022-06-25T10:04:12Z</time>
      </trkpt>
      <trkpt lat="46.46268" lon="4.7741">
        <ele>296.6</ele>
        <time>2022-06-25T10:04:13Z</time>
      </trkpt>
      <trkpt lat="46.46266" lon="4.7741">
        <ele>296.6</ele>
        <time>2022-06-25T10:04:14Z</time>
      </trkpt>
      <trkpt lat="46.46263" lon="4.7741">
        <ele>296.6</ele>
        <time>2022-06-25T10:04:15Z</time>
      </trkpt>
      <trkpt lat="46.4626" lon="4.77409">
        <ele>296.6</ele>
        <time>2022-06-25T10:04:16Z</time>
      </trkpt>
      <trkpt lat="46.46256" lon="4.77409">
        <ele>296.6</ele>
        <time>2022-06-25T10:04:17Z</time>
      </trkpt>
      <trkpt lat="46.46253" lon="4.77408">
        <ele>296.8</ele>
        <time>2022-06-25T10:04:18Z</time>
      </trkpt>
      <trkpt lat="46.4625" lon="4.77407">
        <ele>296.8</ele>
        <time>2022-06-25T10:04:19Z</time>
      </trkpt>
      <trkpt lat="46.46246" lon="4.77405">
        <ele>296.8</ele>
        <time>2022-06-25T10:04:20Z</time>
      </trkpt>
      <trkpt lat="46.46242" lon="4.77402">
        <ele>296.8</ele>
        <time>2022-06-25T10:04:21Z</time>
      </trkpt>
      <trkpt lat="46.4624" lon="4.77399">
        <ele>296.8</ele>
        <time>2022-06-25T10:04:22Z</time>
      </trkpt>
      <trkpt lat="46.46237" lon="4.77395">
        <ele>297</ele>
        <time>2022-06-25T10:04:23Z</time>
      </trkpt>
      <trkpt lat="46.46235" lon="4.77391">
        <ele>297</ele>
        <time>2022-06-25T10:04:24Z</time>
      </trkpt>
      <trkpt lat="46.46233" lon="4.77388">
        <ele>297.4</ele>
        <time>2022-06-25T10:04:25Z</time>
      </trkpt>
      <trkpt lat="46.46231" lon="4.77384">
        <ele>297.4</ele>
        <time>2022-06-25T10:04:26Z</time>
      </trkpt>
      <trkpt lat="46.46229" lon="4.77379">
        <ele>297.6</ele>
        <time>2022-06-25T10:04:27Z</time>
      </trkpt>
      <trkpt lat="46.46227" lon="4.77375">
        <ele>297.6</ele>
        <time>2022-06-25T10:04:28Z</time>
      </trkpt>
      <trkpt lat="46.46225" lon="4.7737">
        <ele>297.6</ele>
        <time>2022-06-25T10:04:29Z</time>
      </trkpt>
      <trkpt lat="46.46223" lon="4.77364">
        <ele>298</ele>
        <time>2022-06-25T10:04:30Z</time>
      </trkpt>
      <trkpt lat="46.46221" lon="4.77358">
        <ele>298</ele>
        <time>2022-06-25T10:04:31Z</time>
      </trkpt>
      <trkpt lat="46.46219" lon="4.77352">
        <ele>298</ele>
        <time>2022-06-25T10:04:32Z</time>
      </trkpt>
      <trkpt lat="46.46216" lon="4.77345">
        <ele>298.2</ele>
        <time>2022-06-25T10:04:33Z</time>
      </trkpt>
      <trkpt lat="46.46214" lon="4.77339">
        <ele>298.2</ele>
        <time>2022-06-25T10:04:34Z</time>
      </trkpt>
      <trkpt lat="46.46211" lon="4.77333">
        <ele>298.2</ele>
        <time>2022-06-25T10:04:35Z</time>
      </trkpt>
      <trkpt lat="46.46207" lon="4.77327">
        <ele>298.4</ele>
        <time>2022-06-25T10:04:36Z</time>
      </trkpt>
      <trkpt lat="46.46203" lon="4.77321">
        <ele>298.4</ele>
        <time>2022-06-25T10:04:37Z</time>
      </trkpt>
      <trkpt lat="46.46198" lon="4.77316">
        <ele>298.4</ele>
        <time>2022-06-25T10:04:38Z</time>
      </trkpt>
      <trkpt lat="46.46193" lon="4.77311">
        <ele>298.4</ele>
        <time>2022-06-25T10:04:39Z</time>
      </trkpt>
      <trkpt lat="46.46188" lon="4.77307">
        <ele>298.4</ele>
        <time>2022-06-25T10:04:40Z</time>
      </trkpt>
      <trkpt lat="46.46182" lon="4.77303">
        <ele>298.4</ele>
        <time>2022-06-25T10:04:41Z</time>
      </trkpt>
      <trkpt lat="46.46176" lon="4.77299">
        <ele>298.2</ele>
        <time>2022-06-25T10:04:42Z</time>
      </trkpt>
      <trkpt lat="46.46169" lon="4.77296">
        <ele>298.2</ele>
        <time>2022-06-25T10:04:43Z</time>
      </trkpt>
      <trkpt lat="46.46162" lon="4.77292">
        <ele>297.8</ele>
        <time>2022-06-25T10:04:44Z</time>
      </trkpt>
      <trkpt lat="46.46155" lon="4.77288">
        <ele>297.6</ele>
        <time>2022-06-25T10:04:45Z</time>
      </trkpt>
      <trkpt lat="46.46148" lon="4.77284">
        <ele>297.6</ele>
        <time>2022-06-25T10:04:46Z</time>
      </trkpt>
      <trkpt lat="46.4614" lon="4.77279">
        <ele>297</ele>
        <time>2022-06-25T10:04:47Z</time>
      </trkpt>
      <trkpt lat="46.46133" lon="4.77275">
        <ele>296.8</ele>
        <time>2022-06-25T10:04:48Z</time>
      </trkpt>
      <trkpt lat="46.46126" lon="4.77269">
        <ele>296.8</ele>
        <time>2022-06-25T10:04:49Z</time>
      </trkpt>
      <trkpt lat="46.46118" lon="4.77264">
        <ele>296.8</ele>
        <time>2022-06-25T10:04:50Z</time>
      </trkpt>
      <trkpt lat="46.46111" lon="4.77258">
        <ele>296.4</ele>
        <time>2022-06-25T10:04:51Z</time>
      </trkpt>
      <trkpt lat="46.46103" lon="4.77252">
        <ele>296.4</ele>
        <time>2022-06-25T10:04:52Z</time>
      </trkpt>
      <trkpt lat="46.46096" lon="4.77245">
        <ele>296.2</ele>
        <time>2022-06-25T10:04:53Z</time>
      </trkpt>
      <trkpt lat="46.46089" lon="4.77239">
        <ele>296</ele>
        <time>2022-06-25T10:04:54Z</time>
      </trkpt>
      <trkpt lat="46.46081" lon="4.77233">
        <ele>295.6</ele>
        <time>2022-06-25T10:04:55Z</time>
      </trkpt>
      <trkpt lat="46.46074" lon="4.77227">
        <ele>295.4</ele>
        <time>2022-06-25T10:04:56Z</time>
      </trkpt>
      <trkpt lat="46.46066" lon="4.7722">
        <ele>295.4</ele>
        <time>2022-06-25T10:04:57Z</time>
      </trkpt>
      <trkpt lat="46.46059" lon="4.77214">
        <ele>295</ele>
        <time>2022-06-25T10:04:58Z</time>
      </trkpt>
      <trkpt lat="46.46052" lon="4.77208">
        <ele>295</ele>
        <time>2022-06-25T10:04:59Z</time>
      </trkpt>
      <trkpt lat="46.46045" lon="4.77201">
        <ele>295</ele>
        <time>2022-06-25T10:05:00Z</time>
      </trkpt>
      <trkpt lat="46.46037" lon="4.77195">
        <ele>294.6</ele>
        <time>2022-06-25T10:05:01Z</time>
      </trkpt>
      <trkpt lat="46.4603" lon="4.77189">
        <ele>294.6</ele>
        <time>2022-06-25T10:05:02Z</time>
      </trkpt>
      <trkpt lat="46.46022" lon="4.77183">
        <ele>294.6</ele>
        <time>2022-06-25T10:05:03Z</time>
      </trkpt>
      <trkpt lat="46.46015" lon="4.77177">
        <ele>294.6</ele>
        <time>2022-06-25T10:05:04Z</time>
      </trkpt>
      <trkpt lat="46.46008" lon="4.77172">
        <ele>294.6</ele>
        <time>2022-06-25T10:05:05Z</time>
      </trkpt>
      <trkpt lat="46.46" lon="4.77165">
        <ele>294.6</ele>
        <time>2022-06-25T10:05:06Z</time>
      </trkpt>
      <trkpt lat="46.45993" lon="4.77159">
        <ele>294.4</ele>
        <time>2022-06-25T10:05:07Z</time>
      </trkpt>
      <trkpt lat="46.45986" lon="4.77153">
        <ele>294.4</ele>
        <time>2022-06-25T10:05:08Z</time>
      </trkpt>
      <trkpt lat="46.45979" lon="4.77146">
        <ele>294.4</ele>
        <time>2022-06-25T10:05:09Z</time>
      </trkpt>
      <trkpt lat="46.45973" lon="4.7714">
        <ele>294.4</ele>
        <time>2022-06-25T10:05:10Z</time>
      </trkpt>
      <trkpt lat="46.45965" lon="4.77134">
        <ele>294.4</ele>
        <time>2022-06-25T10:05:11Z</time>
      </trkpt>
      <trkpt lat="46.45958" lon="4.77128">
        <ele>294.4</ele>
        <time>2022-06-25T10:05:12Z</time>
      </trkpt>
      <trkpt lat="46.45951" lon="4.77123">
        <ele>294.4</ele>
        <time>2022-06-25T10:05:13Z</time>
      </trkpt>
      <trkpt lat="46.45943" lon="4.77119">
        <ele>294.4</ele>
        <time>2022-06-25T10:05:14Z</time>
      </trkpt>
      <trkpt lat="46.45936" lon="4.77114">
        <ele>294.4</ele>
        <time>2022-06-25T10:05:15Z</time>
      </trkpt>
      <trkpt lat="46.45929" lon="4.7711">
        <ele>294.4</ele>
        <time>2022-06-25T10:05:16Z</time>
      </trkpt>
      <trkpt lat="46.45922" lon="4.77107">
        <ele>294.2</ele>
        <time>2022-06-25T10:05:17Z</time>
      </trkpt>
      <trkpt lat="46.45914" lon="4.77103">
        <ele>294.2</ele>
        <time>2022-06-25T10:05:18Z</time>
      </trkpt>
      <trkpt lat="46.45907" lon="4.771">
        <ele>294.2</ele>
        <time>2022-06-25T10:05:19Z</time>
      </trkpt>
      <trkpt lat="46.459" lon="4.77097">
        <ele>294.2</ele>
        <time>2022-06-25T10:05:20Z</time>
      </trkpt>
      <trkpt lat="46.45893" lon="4.77095">
        <ele>294.2</ele>
        <time>2022-06-25T10:05:21Z</time>
      </trkpt>
      <trkpt lat="46.45886" lon="4.77092">
        <ele>294.2</ele>
        <time>2022-06-25T10:05:22Z</time>
      </trkpt>
      <trkpt lat="46.45879" lon="4.7709">
        <ele>294.2</ele>
        <time>2022-06-25T10:05:23Z</time>
      </trkpt>
      <trkpt lat="46.45873" lon="4.77087">
        <ele>293.8</ele>
        <time>2022-06-25T10:05:24Z</time>
      </trkpt>
      <trkpt lat="46.45866" lon="4.77085">
        <ele>293.8</ele>
        <time>2022-06-25T10:05:25Z</time>
      </trkpt>
      <trkpt lat="46.45859" lon="4.77083">
        <ele>293.8</ele>
        <time>2022-06-25T10:05:26Z</time>
      </trkpt>
      <trkpt lat="46.45853" lon="4.77081">
        <ele>293.8</ele>
        <time>2022-06-25T10:05:27Z</time>
      </trkpt>
      <trkpt lat="46.45846" lon="4.77078">
        <ele>293.8</ele>
        <time>2022-06-25T10:05:28Z</time>
      </trkpt>
      <trkpt lat="46.4584" lon="4.77076">
        <ele>294</ele>
        <time>2022-06-25T10:05:29Z</time>
      </trkpt>
      <trkpt lat="46.45833" lon="4.77074">
        <ele>294</ele>
        <time>2022-06-25T10:05:30Z</time>
      </trkpt>
      <trkpt lat="46.45827" lon="4.77072">
        <ele>294</ele>
        <time>2022-06-25T10:05:31Z</time>
      </trkpt>
      <trkpt lat="46.45821" lon="4.7707">
        <ele>294</ele>
        <time>2022-06-25T10:05:32Z</time>
      </trkpt>
      <trkpt lat="46.45815" lon="4.77068">
        <ele>294.4</ele>
        <time>2022-06-25T10:05:33Z</time>
      </trkpt>
      <trkpt lat="46.45808" lon="4.77066">
        <ele>294.4</ele>
        <time>2022-06-25T10:05:34Z</time>
      </trkpt>
      <trkpt lat="46.45802" lon="4.77064">
        <ele>294.4</ele>
        <time>2022-06-25T10:05:35Z</time>
      </trkpt>
      <trkpt lat="46.45796" lon="4.77062">
        <ele>294.6</ele>
        <time>2022-06-25T10:05:36Z</time>
      </trkpt>
      <trkpt lat="46.4579" lon="4.7706">
        <ele>294.6</ele>
        <time>2022-06-25T10:05:37Z</time>
      </trkpt>
      <trkpt lat="46.45784" lon="4.77058">
        <ele>294.8</ele>
        <time>2022-06-25T10:05:38Z</time>
      </trkpt>
      <trkpt lat="46.45777" lon="4.77057">
        <ele>294.8</ele>
        <time>2022-06-25T10:05:39Z</time>
      </trkpt>
      <trkpt lat="46.45771" lon="4.77055">
        <ele>295</ele>
        <time>2022-06-25T10:05:40Z</time>
      </trkpt>
      <trkpt lat="46.45765" lon="4.77053">
        <ele>295</ele>
        <time>2022-06-25T10:05:41Z</time>
      </trkpt>
      <trkpt lat="46.45759" lon="4.7705">
        <ele>295</ele>
        <time>2022-06-25T10:05:42Z</time>
      </trkpt>
      <trkpt lat="46.45752" lon="4.77048">
        <ele>295.4</ele>
        <time>2022-06-25T10:05:43Z</time>
      </trkpt>
      <trkpt lat="46.45745" lon="4.77046">
        <ele>295.4</ele>
        <time>2022-06-25T10:05:44Z</time>
      </trkpt>
      <trkpt lat="46.45738" lon="4.77045">
        <ele>295</ele>
        <time>2022-06-25T10:05:45Z</time>
      </trkpt>
      <trkpt lat="46.45731" lon="4.77042">
        <ele>295</ele>
        <time>2022-06-25T10:05:46Z</time>
      </trkpt>
      <trkpt lat="46.45724" lon="4.7704">
        <ele>294.6</ele>
        <time>2022-06-25T10:05:47Z</time>
      </trkpt>
      <trkpt lat="46.45717" lon="4.77038">
        <ele>294.6</ele>
        <time>2022-06-25T10:05:48Z</time>
      </trkpt>
      <trkpt lat="46.45709" lon="4.77036">
        <ele>294.4</ele>
        <time>2022-06-25T10:05:49Z</time>
      </trkpt>
      <trkpt lat="46.45701" lon="4.77035">
        <ele>294.4</ele>
        <time>2022-06-25T10:05:50Z</time>
      </trkpt>
      <trkpt lat="46.45693" lon="4.77033">
        <ele>294</ele>
        <time>2022-06-25T10:05:51Z</time>
      </trkpt>
      <trkpt lat="46.45684" lon="4.77033">
        <ele>293.6</ele>
        <time>2022-06-25T10:05:52Z</time>
      </trkpt>
      <trkpt lat="46.45675" lon="4.77032">
        <ele>293.2</ele>
        <time>2022-06-25T10:05:53Z</time>
      </trkpt>
      <trkpt lat="46.45666" lon="4.77031">
        <ele>293</ele>
        <time>2022-06-25T10:05:54Z</time>
      </trkpt>
      <trkpt lat="46.45658" lon="4.7703">
        <ele>292.6</ele>
        <time>2022-06-25T10:05:55Z</time>
      </trkpt>
      <trkpt lat="46.45649" lon="4.77028">
        <ele>292.2</ele>
        <time>2022-06-25T10:05:56Z</time>
      </trkpt>
      <trkpt lat="46.45639" lon="4.77026">
        <ele>291.6</ele>
        <time>2022-06-25T10:05:57Z</time>
      </trkpt>
      <trkpt lat="46.4563" lon="4.77025">
        <ele>291.4</ele>
        <time>2022-06-25T10:05:58Z</time>
      </trkpt>
      <trkpt lat="46.45621" lon="4.77022">
        <ele>291.4</ele>
        <time>2022-06-25T10:05:59Z</time>
      </trkpt>
      <trkpt lat="46.45612" lon="4.7702">
        <ele>291</ele>
        <time>2022-06-25T10:06:00Z</time>
      </trkpt>
      <trkpt lat="46.45601" lon="4.77017">
        <ele>290.6</ele>
        <time>2022-06-25T10:06:01Z</time>
      </trkpt>
      <trkpt lat="46.45592" lon="4.77015">
        <ele>290.2</ele>
        <time>2022-06-25T10:06:02Z</time>
      </trkpt>
      <trkpt lat="46.45583" lon="4.77012">
        <ele>290</ele>
        <time>2022-06-25T10:06:03Z</time>
      </trkpt>
      <trkpt lat="46.45574" lon="4.7701">
        <ele>289.8</ele>
        <time>2022-06-25T10:06:04Z</time>
      </trkpt>
      <trkpt lat="46.45565" lon="4.77008">
        <ele>289.4</ele>
        <time>2022-06-25T10:06:05Z</time>
      </trkpt>
      <trkpt lat="46.45556" lon="4.77007">
        <ele>289.2</ele>
        <time>2022-06-25T10:06:06Z</time>
      </trkpt>
      <trkpt lat="46.45546" lon="4.77005">
        <ele>289</ele>
        <time>2022-06-25T10:06:07Z</time>
      </trkpt>
      <trkpt lat="46.45538" lon="4.77002">
        <ele>288.6</ele>
        <time>2022-06-25T10:06:08Z</time>
      </trkpt>
      <trkpt lat="46.45529" lon="4.77">
        <ele>288.2</ele>
        <time>2022-06-25T10:06:09Z</time>
      </trkpt>
      <trkpt lat="46.4552" lon="4.76997">
        <ele>287.8</ele>
        <time>2022-06-25T10:06:10Z</time>
      </trkpt>
      <trkpt lat="46.45512" lon="4.76993">
        <ele>287.6</ele>
        <time>2022-06-25T10:06:11Z</time>
      </trkpt>
      <trkpt lat="46.45504" lon="4.76988">
        <ele>287.2</ele>
        <time>2022-06-25T10:06:12Z</time>
      </trkpt>
      <trkpt lat="46.45496" lon="4.76983">
        <ele>287.2</ele>
        <time>2022-06-25T10:06:13Z</time>
      </trkpt>
      <trkpt lat="46.45489" lon="4.76978">
        <ele>287</ele>
        <time>2022-06-25T10:06:14Z</time>
      </trkpt>
      <trkpt lat="46.45483" lon="4.76972">
        <ele>287</ele>
        <time>2022-06-25T10:06:15Z</time>
      </trkpt>
      <trkpt lat="46.45476" lon="4.76966">
        <ele>287</ele>
        <time>2022-06-25T10:06:16Z</time>
      </trkpt>
      <trkpt lat="46.4547" lon="4.76961">
        <ele>287</ele>
        <time>2022-06-25T10:06:17Z</time>
      </trkpt>
      <trkpt lat="46.45464" lon="4.76957">
        <ele>287.4</ele>
        <time>2022-06-25T10:06:18Z</time>
      </trkpt>
      <trkpt lat="46.45458" lon="4.76954">
        <ele>287.6</ele>
        <time>2022-06-25T10:06:19Z</time>
      </trkpt>
      <trkpt lat="46.45452" lon="4.76951">
        <ele>287.6</ele>
        <time>2022-06-25T10:06:20Z</time>
      </trkpt>
      <trkpt lat="46.45447" lon="4.76948">
        <ele>287.8</ele>
        <time>2022-06-25T10:06:21Z</time>
      </trkpt>
      <trkpt lat="46.45441" lon="4.76945">
        <ele>287.8</ele>
        <time>2022-06-25T10:06:22Z</time>
      </trkpt>
      <trkpt lat="46.45436" lon="4.76943">
        <ele>288.2</ele>
        <time>2022-06-25T10:06:23Z</time>
      </trkpt>
      <trkpt lat="46.4543" lon="4.7694">
        <ele>288.2</ele>
        <time>2022-06-25T10:06:24Z</time>
      </trkpt>
      <trkpt lat="46.45425" lon="4.76939">
        <ele>288.4</ele>
        <time>2022-06-25T10:06:25Z</time>
      </trkpt>
      <trkpt lat="46.4542" lon="4.76937">
        <ele>288.4</ele>
        <time>2022-06-25T10:06:26Z</time>
      </trkpt>
      <trkpt lat="46.45414" lon="4.76936">
        <ele>288.6</ele>
        <time>2022-06-25T10:06:27Z</time>
      </trkpt>
      <trkpt lat="46.45409" lon="4.76935">
        <ele>288.6</ele>
        <time>2022-06-25T10:06:28Z</time>
      </trkpt>
      <trkpt lat="46.45403" lon="4.76933">
        <ele>288.6</ele>
        <time>2022-06-25T10:06:29Z</time>
      </trkpt>
      <trkpt lat="46.45397" lon="4.76932">
        <ele>288.8</ele>
        <time>2022-06-25T10:06:30Z</time>
      </trkpt>
      <trkpt lat="46.45391" lon="4.76931">
        <ele>288.8</ele>
        <time>2022-06-25T10:06:31Z</time>
      </trkpt>
      <trkpt lat="46.45386" lon="4.7693">
        <ele>288.8</ele>
        <time>2022-06-25T10:06:32Z</time>
      </trkpt>
      <trkpt lat="46.4538" lon="4.76931">
        <ele>288.8</ele>
        <time>2022-06-25T10:06:33Z</time>
      </trkpt>
      <trkpt lat="46.45375" lon="4.76933">
        <ele>288.8</ele>
        <time>2022-06-25T10:06:34Z</time>
      </trkpt>
      <trkpt lat="46.4537" lon="4.76937">
        <ele>289.2</ele>
        <time>2022-06-25T10:06:35Z</time>
      </trkpt>
      <trkpt lat="46.45365" lon="4.76942">
        <ele>289.2</ele>
        <time>2022-06-25T10:06:36Z</time>
      </trkpt>
      <trkpt lat="46.4536" lon="4.76948">
        <ele>289.2</ele>
        <time>2022-06-25T10:06:37Z</time>
      </trkpt>
      <trkpt lat="46.45357" lon="4.76955">
        <ele>289.2</ele>
        <time>2022-06-25T10:06:38Z</time>
      </trkpt>
      <trkpt lat="46.45353" lon="4.76962">
        <ele>289.2</ele>
        <time>2022-06-25T10:06:39Z</time>
      </trkpt>
      <trkpt lat="46.45348" lon="4.76969">
        <ele>289.2</ele>
        <time>2022-06-25T10:06:40Z</time>
      </trkpt>
      <trkpt lat="46.45344" lon="4.76976">
        <ele>289.2</ele>
        <time>2022-06-25T10:06:41Z</time>
      </trkpt>
      <trkpt lat="46.45339" lon="4.76983">
        <ele>289.2</ele>
        <time>2022-06-25T10:06:42Z</time>
      </trkpt>
      <trkpt lat="46.45334" lon="4.76989">
        <ele>289.2</ele>
        <time>2022-06-25T10:06:43Z</time>
      </trkpt>
      <trkpt lat="46.45329" lon="4.76994">
        <ele>289.2</ele>
        <time>2022-06-25T10:06:44Z</time>
      </trkpt>
      <trkpt lat="46.45323" lon="4.76997">
        <ele>289.2</ele>
        <time>2022-06-25T10:06:45Z</time>
      </trkpt>
      <trkpt lat="46.45317" lon="4.77">
        <ele>289.2</ele>
        <time>2022-06-25T10:06:46Z</time>
      </trkpt>
      <trkpt lat="46.4531" lon="4.77002">
        <ele>289.2</ele>
        <time>2022-06-25T10:06:47Z</time>
      </trkpt>
      <trkpt lat="46.45304" lon="4.77002">
        <ele>289.2</ele>
        <time>2022-06-25T10:06:48Z</time>
      </trkpt>
      <trkpt lat="46.45298" lon="4.77003">
        <ele>289.2</ele>
        <time>2022-06-25T10:06:49Z</time>
      </trkpt>
      <trkpt lat="46.45292" lon="4.77005">
        <ele>289.2</ele>
        <time>2022-06-25T10:06:50Z</time>
      </trkpt>
      <trkpt lat="46.45286" lon="4.77006">
        <ele>289.4</ele>
        <time>2022-06-25T10:06:51Z</time>
      </trkpt>
      <trkpt lat="46.4528" lon="4.77007">
        <ele>289.4</ele>
        <time>2022-06-25T10:06:52Z</time>
      </trkpt>
      <trkpt lat="46.45275" lon="4.77008">
        <ele>289.4</ele>
        <time>2022-06-25T10:06:53Z</time>
      </trkpt>
      <trkpt lat="46.45269" lon="4.77009">
        <ele>289.8</ele>
        <time>2022-06-25T10:06:54Z</time>
      </trkpt>
      <trkpt lat="46.45264" lon="4.7701">
        <ele>289.8</ele>
        <time>2022-06-25T10:06:55Z</time>
      </trkpt>
      <trkpt lat="46.45258" lon="4.77011">
        <ele>290</ele>
        <time>2022-06-25T10:06:56Z</time>
      </trkpt>
      <trkpt lat="46.45253" lon="4.77011">
        <ele>290</ele>
        <time>2022-06-25T10:06:57Z</time>
      </trkpt>
      <trkpt lat="46.45248" lon="4.77012">
        <ele>290.2</ele>
        <time>2022-06-25T10:06:58Z</time>
      </trkpt>
      <trkpt lat="46.45243" lon="4.77013">
        <ele>290.2</ele>
        <time>2022-06-25T10:06:59Z</time>
      </trkpt>
      <trkpt lat="46.45238" lon="4.77014">
        <ele>290.6</ele>
        <time>2022-06-25T10:07:00Z</time>
      </trkpt>
      <trkpt lat="46.45233" lon="4.77014">
        <ele>290.6</ele>
        <time>2022-06-25T10:07:01Z</time>
      </trkpt>
      <trkpt lat="46.45228" lon="4.77015">
        <ele>291</ele>
        <time>2022-06-25T10:07:02Z</time>
      </trkpt>
      <trkpt lat="46.45223" lon="4.77016">
        <ele>291</ele>
        <time>2022-06-25T10:07:03Z</time>
      </trkpt>
      <trkpt lat="46.45218" lon="4.77017">
        <ele>291.2</ele>
        <time>2022-06-25T10:07:04Z</time>
      </trkpt>
      <trkpt lat="46.45213" lon="4.77018">
        <ele>291.2</ele>
        <time>2022-06-25T10:07:05Z</time>
      </trkpt>
      <trkpt lat="46.45208" lon="4.77019">
        <ele>291.4</ele>
        <time>2022-06-25T10:07:06Z</time>
      </trkpt>
      <trkpt lat="46.45203" lon="4.77021">
        <ele>291.6</ele>
        <time>2022-06-25T10:07:07Z</time>
      </trkpt>
      <trkpt lat="46.45198" lon="4.77022">
        <ele>291.8</ele>
        <time>2022-06-25T10:07:08Z</time>
      </trkpt>
      <trkpt lat="46.45192" lon="4.77023">
        <ele>291.8</ele>
        <time>2022-06-25T10:07:09Z</time>
      </trkpt>
      <trkpt lat="46.45187" lon="4.77025">
        <ele>291.8</ele>
        <time>2022-06-25T10:07:10Z</time>
      </trkpt>
      <trkpt lat="46.45181" lon="4.77027">
        <ele>291.8</ele>
        <time>2022-06-25T10:07:11Z</time>
      </trkpt>
      <trkpt lat="46.45176" lon="4.77029">
        <ele>291.8</ele>
        <time>2022-06-25T10:07:12Z</time>
      </trkpt>
      <trkpt lat="46.4517" lon="4.7703">
        <ele>291.6</ele>
        <time>2022-06-25T10:07:13Z</time>
      </trkpt>
      <trkpt lat="46.45164" lon="4.77032">
        <ele>291.6</ele>
        <time>2022-06-25T10:07:14Z</time>
      </trkpt>
      <trkpt lat="46.45158" lon="4.77034">
        <ele>291.4</ele>
        <time>2022-06-25T10:07:15Z</time>
      </trkpt>
      <trkpt lat="46.45152" lon="4.77035">
        <ele>291.4</ele>
        <time>2022-06-25T10:07:16Z</time>
      </trkpt>
      <trkpt lat="46.45146" lon="4.77037">
        <ele>291</ele>
        <time>2022-06-25T10:07:17Z</time>
      </trkpt>
      <trkpt lat="46.4514" lon="4.77039">
        <ele>290.8</ele>
        <time>2022-06-25T10:07:18Z</time>
      </trkpt>
      <trkpt lat="46.45133" lon="4.77039">
        <ele>290.6</ele>
        <time>2022-06-25T10:07:19Z</time>
      </trkpt>
      <trkpt lat="46.45126" lon="4.7704">
        <ele>290.4</ele>
        <time>2022-06-25T10:07:20Z</time>
      </trkpt>
      <trkpt lat="46.45119" lon="4.77039">
        <ele>290.4</ele>
        <time>2022-06-25T10:07:21Z</time>
      </trkpt>
      <trkpt lat="46.45111" lon="4.77039">
        <ele>290</ele>
        <time>2022-06-25T10:07:22Z</time>
      </trkpt>
      <trkpt lat="46.45104" lon="4.77038">
        <ele>289.8</ele>
        <time>2022-06-25T10:07:23Z</time>
      </trkpt>
      <trkpt lat="46.45097" lon="4.77038">
        <ele>289.6</ele>
        <time>2022-06-25T10:07:24Z</time>
      </trkpt>
      <trkpt lat="46.45089" lon="4.77037">
        <ele>289.6</ele>
        <time>2022-06-25T10:07:25Z</time>
      </trkpt>
      <trkpt lat="46.45081" lon="4.77036">
        <ele>289.2</ele>
        <time>2022-06-25T10:07:26Z</time>
      </trkpt>
      <trkpt lat="46.45073" lon="4.77035">
        <ele>289</ele>
        <time>2022-06-25T10:07:27Z</time>
      </trkpt>
      <trkpt lat="46.45066" lon="4.77035">
        <ele>288.6</ele>
        <time>2022-06-25T10:07:28Z</time>
      </trkpt>
      <trkpt lat="46.45058" lon="4.77034">
        <ele>288.4</ele>
        <time>2022-06-25T10:07:29Z</time>
      </trkpt>
      <trkpt lat="46.4505" lon="4.77034">
        <ele>288.4</ele>
        <time>2022-06-25T10:07:30Z</time>
      </trkpt>
      <trkpt lat="46.45042" lon="4.77034">
        <ele>288.4</ele>
        <time>2022-06-25T10:07:31Z</time>
      </trkpt>
      <trkpt lat="46.45035" lon="4.77035">
        <ele>288.4</ele>
        <time>2022-06-25T10:07:32Z</time>
      </trkpt>
      <trkpt lat="46.45027" lon="4.77035">
        <ele>288.4</ele>
        <time>2022-06-25T10:07:33Z</time>
      </trkpt>
      <trkpt lat="46.4502" lon="4.77037">
        <ele>288.4</ele>
        <time>2022-06-25T10:07:34Z</time>
      </trkpt>
      <trkpt lat="46.45013" lon="4.77038">
        <ele>288.2</ele>
        <time>2022-06-25T10:07:35Z</time>
      </trkpt>
      <trkpt lat="46.45005" lon="4.77039">
        <ele>288.2</ele>
        <time>2022-06-25T10:07:36Z</time>
      </trkpt>
      <trkpt lat="46.44998" lon="4.7704">
        <ele>288.2</ele>
        <time>2022-06-25T10:07:37Z</time>
      </trkpt>
      <trkpt lat="46.44991" lon="4.77041">
        <ele>288.2</ele>
        <time>2022-06-25T10:07:38Z</time>
      </trkpt>
      <trkpt lat="46.44984" lon="4.77043">
        <ele>288.2</ele>
        <time>2022-06-25T10:07:39Z</time>
      </trkpt>
      <trkpt lat="46.44977" lon="4.77044">
        <ele>288.2</ele>
        <time>2022-06-25T10:07:40Z</time>
      </trkpt>
      <trkpt lat="46.4497" lon="4.77045">
        <ele>288</ele>
        <time>2022-06-25T10:07:41Z</time>
      </trkpt>
      <trkpt lat="46.44963" lon="4.77046">
        <ele>288</ele>
        <time>2022-06-25T10:07:42Z</time>
      </trkpt>
      <trkpt lat="46.44956" lon="4.77046">
        <ele>288</ele>
        <time>2022-06-25T10:07:43Z</time>
      </trkpt>
      <trkpt lat="46.44949" lon="4.77047">
        <ele>288</ele>
        <time>2022-06-25T10:07:44Z</time>
      </trkpt>
      <trkpt lat="46.44942" lon="4.77048">
        <ele>288</ele>
        <time>2022-06-25T10:07:45Z</time>
      </trkpt>
      <trkpt lat="46.44935" lon="4.77049">
        <ele>288</ele>
        <time>2022-06-25T10:07:46Z</time>
      </trkpt>
      <trkpt lat="46.44928" lon="4.7705">
        <ele>288</ele>
        <time>2022-06-25T10:07:47Z</time>
      </trkpt>
      <trkpt lat="46.44921" lon="4.77051">
        <ele>287.6</ele>
        <time>2022-06-25T10:07:48Z</time>
      </trkpt>
      <trkpt lat="46.44914" lon="4.77052">
        <ele>287.6</ele>
        <time>2022-06-25T10:07:49Z</time>
      </trkpt>
      <trkpt lat="46.44907" lon="4.77052">
        <ele>287.4</ele>
        <time>2022-06-25T10:07:50Z</time>
      </trkpt>
      <trkpt lat="46.44899" lon="4.77052">
        <ele>287.4</ele>
        <time>2022-06-25T10:07:51Z</time>
      </trkpt>
      <trkpt lat="46.44891" lon="4.77051">
        <ele>287</ele>
        <time>2022-06-25T10:07:52Z</time>
      </trkpt>
      <trkpt lat="46.44884" lon="4.7705">
        <ele>287</ele>
        <time>2022-06-25T10:07:53Z</time>
      </trkpt>
      <trkpt lat="46.44876" lon="4.77049">
        <ele>287</ele>
        <time>2022-06-25T10:07:54Z</time>
      </trkpt>
      <trkpt lat="46.44868" lon="4.77048">
        <ele>286.8</ele>
        <time>2022-06-25T10:07:55Z</time>
      </trkpt>
      <trkpt lat="46.44861" lon="4.77046">
        <ele>286.8</ele>
        <time>2022-06-25T10:07:56Z</time>
      </trkpt>
      <trkpt lat="46.44854" lon="4.77044">
        <ele>286.8</ele>
        <time>2022-06-25T10:07:57Z</time>
      </trkpt>
      <trkpt lat="46.44847" lon="4.77042">
        <ele>286.8</ele>
        <time>2022-06-25T10:07:58Z</time>
      </trkpt>
      <trkpt lat="46.4484" lon="4.7704">
        <ele>286.6</ele>
        <time>2022-06-25T10:07:59Z</time>
      </trkpt>
      <trkpt lat="46.44833" lon="4.77038">
        <ele>286.6</ele>
        <time>2022-06-25T10:08:00Z</time>
      </trkpt>
      <trkpt lat="46.44826" lon="4.77035">
        <ele>286.6</ele>
        <time>2022-06-25T10:08:01Z</time>
      </trkpt>
      <trkpt lat="46.44819" lon="4.77033">
        <ele>286.4</ele>
        <time>2022-06-25T10:08:02Z</time>
      </trkpt>
      <trkpt lat="46.44813" lon="4.7703">
        <ele>286.4</ele>
        <time>2022-06-25T10:08:03Z</time>
      </trkpt>
      <trkpt lat="46.44806" lon="4.77027">
        <ele>286.4</ele>
        <time>2022-06-25T10:08:04Z</time>
      </trkpt>
      <trkpt lat="46.448" lon="4.77024">
        <ele>286.4</ele>
        <time>2022-06-25T10:08:05Z</time>
      </trkpt>
      <trkpt lat="46.44794" lon="4.7702">
        <ele>286.6</ele>
        <time>2022-06-25T10:08:06Z</time>
      </trkpt>
      <trkpt lat="46.44788" lon="4.77017">
        <ele>286.6</ele>
        <time>2022-06-25T10:08:07Z</time>
      </trkpt>
      <trkpt lat="46.44782" lon="4.77014">
        <ele>286.6</ele>
        <time>2022-06-25T10:08:08Z</time>
      </trkpt>
      <trkpt lat="46.44776" lon="4.7701">
        <ele>286.6</ele>
        <time>2022-06-25T10:08:09Z</time>
      </trkpt>
      <trkpt lat="46.44771" lon="4.77007">
        <ele>286.6</ele>
        <time>2022-06-25T10:08:10Z</time>
      </trkpt>
      <trkpt lat="46.44765" lon="4.77003">
        <ele>286.8</ele>
        <time>2022-06-25T10:08:11Z</time>
      </trkpt>
      <trkpt lat="46.4476" lon="4.76999">
        <ele>286.8</ele>
        <time>2022-06-25T10:08:12Z</time>
      </trkpt>
      <trkpt lat="46.44754" lon="4.76996">
        <ele>287</ele>
        <time>2022-06-25T10:08:13Z</time>
      </trkpt>
      <trkpt lat="46.44749" lon="4.76992">
        <ele>287</ele>
        <time>2022-06-25T10:08:14Z</time>
      </trkpt>
      <trkpt lat="46.44744" lon="4.76989">
        <ele>287</ele>
        <time>2022-06-25T10:08:15Z</time>
      </trkpt>
      <trkpt lat="46.44739" lon="4.76985">
        <ele>287.2</ele>
        <time>2022-06-25T10:08:16Z</time>
      </trkpt>
      <trkpt lat="46.44734" lon="4.76982">
        <ele>287.2</ele>
        <time>2022-06-25T10:08:17Z</time>
      </trkpt>
      <trkpt lat="46.44729" lon="4.76978">
        <ele>287.6</ele>
        <time>2022-06-25T10:08:18Z</time>
      </trkpt>
      <trkpt lat="46.44724" lon="4.76974">
        <ele>287.6</ele>
        <time>2022-06-25T10:08:19Z</time>
      </trkpt>
      <trkpt lat="46.44719" lon="4.76971">
        <ele>287.8</ele>
        <time>2022-06-25T10:08:20Z</time>
      </trkpt>
      <trkpt lat="46.44714" lon="4.76967">
        <ele>287.8</ele>
        <time>2022-06-25T10:08:21Z</time>
      </trkpt>
      <trkpt lat="46.44709" lon="4.76964">
        <ele>287.8</ele>
        <time>2022-06-25T10:08:22Z</time>
      </trkpt>
      <trkpt lat="46.44704" lon="4.7696">
        <ele>288.2</ele>
        <time>2022-06-25T10:08:23Z</time>
      </trkpt>
      <trkpt lat="46.44699" lon="4.76957">
        <ele>288.2</ele>
        <time>2022-06-25T10:08:24Z</time>
      </trkpt>
      <trkpt lat="46.44694" lon="4.76953">
        <ele>288.4</ele>
        <time>2022-06-25T10:08:25Z</time>
      </trkpt>
      <trkpt lat="46.44689" lon="4.76949">
        <ele>288.4</ele>
        <time>2022-06-25T10:08:26Z</time>
      </trkpt>
      <trkpt lat="46.44684" lon="4.76946">
        <ele>288.6</ele>
        <time>2022-06-25T10:08:27Z</time>
      </trkpt>
      <trkpt lat="46.44679" lon="4.76942">
        <ele>288.6</ele>
        <time>2022-06-25T10:08:28Z</time>
      </trkpt>
      <trkpt lat="46.44674" lon="4.76938">
        <ele>289</ele>
        <time>2022-06-25T10:08:29Z</time>
      </trkpt>
      <trkpt lat="46.4467" lon="4.76934">
        <ele>289.2</ele>
        <time>2022-06-25T10:08:30Z</time>
      </trkpt>
      <trkpt lat="46.44665" lon="4.7693">
        <ele>289.2</ele>
        <time>2022-06-25T10:08:31Z</time>
      </trkpt>
      <trkpt lat="46.4466" lon="4.76926">
        <ele>289.2</ele>
        <time>2022-06-25T10:08:32Z</time>
      </trkpt>
      <trkpt lat="46.44655" lon="4.76922">
        <ele>289.6</ele>
        <time>2022-06-25T10:08:33Z</time>
      </trkpt>
      <trkpt lat="46.4465" lon="4.76917">
        <ele>289.6</ele>
        <time>2022-06-25T10:08:34Z</time>
      </trkpt>
      <trkpt lat="46.44645" lon="4.76913">
        <ele>289.8</ele>
        <time>2022-06-25T10:08:35Z</time>
      </trkpt>
      <trkpt lat="46.44639" lon="4.76909">
        <ele>289.8</ele>
        <time>2022-06-25T10:08:36Z</time>
      </trkpt>
      <trkpt lat="46.44634" lon="4.76905">
        <ele>289.8</ele>
        <time>2022-06-25T10:08:37Z</time>
      </trkpt>
      <trkpt lat="46.44629" lon="4.769">
        <ele>289.8</ele>
        <time>2022-06-25T10:08:38Z</time>
      </trkpt>
      <trkpt lat="46.44624" lon="4.76896">
        <ele>289.8</ele>
        <time>2022-06-25T10:08:39Z</time>
      </trkpt>
      <trkpt lat="46.44619" lon="4.76892">
        <ele>289.8</ele>
        <time>2022-06-25T10:08:40Z</time>
      </trkpt>
      <trkpt lat="46.44614" lon="4.76887">
        <ele>289.8</ele>
        <time>2022-06-25T10:08:41Z</time>
      </trkpt>
      <trkpt lat="46.44608" lon="4.76883">
        <ele>289.8</ele>
        <time>2022-06-25T10:08:42Z</time>
      </trkpt>
      <trkpt lat="46.44603" lon="4.76878">
        <ele>289.8</ele>
        <time>2022-06-25T10:08:43Z</time>
      </trkpt>
      <trkpt lat="46.44598" lon="4.76874">
        <ele>289.8</ele>
        <time>2022-06-25T10:08:44Z</time>
      </trkpt>
      <trkpt lat="46.44593" lon="4.76869">
        <ele>289.8</ele>
        <time>2022-06-25T10:08:45Z</time>
      </trkpt>
      <trkpt lat="46.44587" lon="4.76865">
        <ele>289.8</ele>
        <time>2022-06-25T10:08:46Z</time>
      </trkpt>
      <trkpt lat="46.44582" lon="4.76861">
        <ele>289.8</ele>
        <time>2022-06-25T10:08:47Z</time>
      </trkpt>
      <trkpt lat="46.44577" lon="4.76857">
        <ele>289.8</ele>
        <time>2022-06-25T10:08:48Z</time>
      </trkpt>
      <trkpt lat="46.44571" lon="4.76853">
        <ele>289.8</ele>
        <time>2022-06-25T10:08:49Z</time>
      </trkpt>
      <trkpt lat="46.44566" lon="4.7685">
        <ele>289.8</ele>
        <time>2022-06-25T10:08:50Z</time>
      </trkpt>
      <trkpt lat="46.4456" lon="4.76846">
        <ele>290</ele>
        <time>2022-06-25T10:08:51Z</time>
      </trkpt>
      <trkpt lat="46.44555" lon="4.76843">
        <ele>290</ele>
        <time>2022-06-25T10:08:52Z</time>
      </trkpt>
      <trkpt lat="46.4455" lon="4.7684">
        <ele>290</ele>
        <time>2022-06-25T10:08:53Z</time>
      </trkpt>
      <trkpt lat="46.44544" lon="4.76836">
        <ele>290</ele>
        <time>2022-06-25T10:08:54Z</time>
      </trkpt>
      <trkpt lat="46.44539" lon="4.76833">
        <ele>290</ele>
        <time>2022-06-25T10:08:55Z</time>
      </trkpt>
      <trkpt lat="46.44533" lon="4.7683">
        <ele>290.6</ele>
        <time>2022-06-25T10:08:56Z</time>
      </trkpt>
      <trkpt lat="46.44528" lon="4.76828">
        <ele>290.6</ele>
        <time>2022-06-25T10:08:57Z</time>
      </trkpt>
      <trkpt lat="46.44522" lon="4.76825">
        <ele>290.6</ele>
        <time>2022-06-25T10:08:58Z</time>
      </trkpt>
      <trkpt lat="46.44517" lon="4.76822">
        <ele>290.4</ele>
        <time>2022-06-25T10:08:59Z</time>
      </trkpt>
      <trkpt lat="46.44511" lon="4.76819">
        <ele>290.4</ele>
        <time>2022-06-25T10:09:00Z</time>
      </trkpt>
      <trkpt lat="46.44506" lon="4.76817">
        <ele>290.4</ele>
        <time>2022-06-25T10:09:01Z</time>
      </trkpt>
      <trkpt lat="46.445" lon="4.76814">
        <ele>290.2</ele>
        <time>2022-06-25T10:09:02Z</time>
      </trkpt>
      <trkpt lat="46.44494" lon="4.76811">
        <ele>290.2</ele>
        <time>2022-06-25T10:09:03Z</time>
      </trkpt>
      <trkpt lat="46.44488" lon="4.76808">
        <ele>290.2</ele>
        <time>2022-06-25T10:09:04Z</time>
      </trkpt>
      <trkpt lat="46.44482" lon="4.76805">
        <ele>290.2</ele>
        <time>2022-06-25T10:09:05Z</time>
      </trkpt>
      <trkpt lat="46.44476" lon="4.76802">
        <ele>290.2</ele>
        <time>2022-06-25T10:09:06Z</time>
      </trkpt>
      <trkpt lat="46.4447" lon="4.76799">
        <ele>290.2</ele>
        <time>2022-06-25T10:09:07Z</time>
      </trkpt>
      <trkpt lat="46.44464" lon="4.76796">
        <ele>290.2</ele>
        <time>2022-06-25T10:09:08Z</time>
      </trkpt>
      <trkpt lat="46.44458" lon="4.76793">
        <ele>290.2</ele>
        <time>2022-06-25T10:09:09Z</time>
      </trkpt>
      <trkpt lat="46.44451" lon="4.7679">
        <ele>290.2</ele>
        <time>2022-06-25T10:09:10Z</time>
      </trkpt>
      <trkpt lat="46.44445" lon="4.76787">
        <ele>290</ele>
        <time>2022-06-25T10:09:11Z</time>
      </trkpt>
      <trkpt lat="46.44439" lon="4.76784">
        <ele>290</ele>
        <time>2022-06-25T10:09:12Z</time>
      </trkpt>
      <trkpt lat="46.44433" lon="4.76781">
        <ele>290</ele>
        <time>2022-06-25T10:09:13Z</time>
      </trkpt>
      <trkpt lat="46.44426" lon="4.76778">
        <ele>290</ele>
        <time>2022-06-25T10:09:14Z</time>
      </trkpt>
      <trkpt lat="46.4442" lon="4.76775">
        <ele>290</ele>
        <time>2022-06-25T10:09:15Z</time>
      </trkpt>
      <trkpt lat="46.44414" lon="4.76772">
        <ele>290</ele>
        <time>2022-06-25T10:09:16Z</time>
      </trkpt>
      <trkpt lat="46.44407" lon="4.76769">
        <ele>290</ele>
        <time>2022-06-25T10:09:17Z</time>
      </trkpt>
      <trkpt lat="46.44401" lon="4.76765">
        <ele>289.8</ele>
        <time>2022-06-25T10:09:18Z</time>
      </trkpt>
      <trkpt lat="46.44394" lon="4.76762">
        <ele>289.8</ele>
        <time>2022-06-25T10:09:19Z</time>
      </trkpt>
      <trkpt lat="46.44388" lon="4.7676">
        <ele>289.8</ele>
        <time>2022-06-25T10:09:20Z</time>
      </trkpt>
      <trkpt lat="46.44381" lon="4.76757">
        <ele>289.4</ele>
        <time>2022-06-25T10:09:21Z</time>
      </trkpt>
      <trkpt lat="46.44375" lon="4.76754">
        <ele>289.4</ele>
        <time>2022-06-25T10:09:22Z</time>
      </trkpt>
      <trkpt lat="46.44368" lon="4.76751">
        <ele>289.4</ele>
        <time>2022-06-25T10:09:23Z</time>
      </trkpt>
      <trkpt lat="46.44361" lon="4.76748">
        <ele>289.2</ele>
        <time>2022-06-25T10:09:24Z</time>
      </trkpt>
      <trkpt lat="46.44354" lon="4.76745">
        <ele>289.2</ele>
        <time>2022-06-25T10:09:25Z</time>
      </trkpt>
      <trkpt lat="46.44347" lon="4.76742">
        <ele>289</ele>
        <time>2022-06-25T10:09:26Z</time>
      </trkpt>
      <trkpt lat="46.4434" lon="4.76739">
        <ele>289</ele>
        <time>2022-06-25T10:09:27Z</time>
      </trkpt>
      <trkpt lat="46.44333" lon="4.76735">
        <ele>288.6</ele>
        <time>2022-06-25T10:09:28Z</time>
      </trkpt>
      <trkpt lat="46.44326" lon="4.76732">
        <ele>288.6</ele>
        <time>2022-06-25T10:09:29Z</time>
      </trkpt>
      <trkpt lat="46.44318" lon="4.76729">
        <ele>288.4</ele>
        <time>2022-06-25T10:09:30Z</time>
      </trkpt>
      <trkpt lat="46.44311" lon="4.76727">
        <ele>288.4</ele>
        <time>2022-06-25T10:09:31Z</time>
      </trkpt>
      <trkpt lat="46.44303" lon="4.76724">
        <ele>288</ele>
        <time>2022-06-25T10:09:32Z</time>
      </trkpt>
      <trkpt lat="46.44295" lon="4.76721">
        <ele>288</ele>
        <time>2022-06-25T10:09:33Z</time>
      </trkpt>
      <trkpt lat="46.44287" lon="4.76717">
        <ele>287.6</ele>
        <time>2022-06-25T10:09:34Z</time>
      </trkpt>
      <trkpt lat="46.44279" lon="4.76714">
        <ele>287.2</ele>
        <time>2022-06-25T10:09:35Z</time>
      </trkpt>
      <trkpt lat="46.44272" lon="4.76711">
        <ele>287</ele>
        <time>2022-06-25T10:09:36Z</time>
      </trkpt>
      <trkpt lat="46.44264" lon="4.76707">
        <ele>286.8</ele>
        <time>2022-06-25T10:09:37Z</time>
      </trkpt>
      <trkpt lat="46.44256" lon="4.76704">
        <ele>286.4</ele>
        <time>2022-06-25T10:09:38Z</time>
      </trkpt>
      <trkpt lat="46.44249" lon="4.767">
        <ele>286.2</ele>
        <time>2022-06-25T10:09:39Z</time>
      </trkpt>
      <trkpt lat="46.44241" lon="4.76696">
        <ele>286</ele>
        <time>2022-06-25T10:09:40Z</time>
      </trkpt>
      <trkpt lat="46.44233" lon="4.76691">
        <ele>285.6</ele>
        <time>2022-06-25T10:09:41Z</time>
      </trkpt>
      <trkpt lat="46.44226" lon="4.76687">
        <ele>285.4</ele>
        <time>2022-06-25T10:09:42Z</time>
      </trkpt>
      <trkpt lat="46.44218" lon="4.76683">
        <ele>285</ele>
        <time>2022-06-25T10:09:43Z</time>
      </trkpt>
      <trkpt lat="46.4421" lon="4.76678">
        <ele>284.8</ele>
        <time>2022-06-25T10:09:44Z</time>
      </trkpt>
      <trkpt lat="46.44203" lon="4.76673">
        <ele>284.6</ele>
        <time>2022-06-25T10:09:45Z</time>
      </trkpt>
      <trkpt lat="46.44195" lon="4.76668">
        <ele>284.4</ele>
        <time>2022-06-25T10:09:46Z</time>
      </trkpt>
      <trkpt lat="46.44187" lon="4.76664">
        <ele>284</ele>
        <time>2022-06-25T10:09:47Z</time>
      </trkpt>
      <trkpt lat="46.44179" lon="4.76659">
        <ele>283.8</ele>
        <time>2022-06-25T10:09:48Z</time>
      </trkpt>
      <trkpt lat="46.44171" lon="4.76654">
        <ele>283.4</ele>
        <time>2022-06-25T10:09:49Z</time>
      </trkpt>
      <trkpt lat="46.44163" lon="4.76648">
        <ele>283.2</ele>
        <time>2022-06-25T10:09:50Z</time>
      </trkpt>
      <trkpt lat="46.44155" lon="4.76643">
        <ele>282.8</ele>
        <time>2022-06-25T10:09:51Z</time>
      </trkpt>
      <trkpt lat="46.44147" lon="4.76638">
        <ele>282.4</ele>
        <time>2022-06-25T10:09:52Z</time>
      </trkpt>
      <trkpt lat="46.44139" lon="4.76633">
        <ele>282.2</ele>
        <time>2022-06-25T10:09:53Z</time>
      </trkpt>
      <trkpt lat="46.44131" lon="4.76628">
        <ele>281.8</ele>
        <time>2022-06-25T10:09:54Z</time>
      </trkpt>
      <trkpt lat="46.44122" lon="4.76623">
        <ele>281.4</ele>
        <time>2022-06-25T10:09:55Z</time>
      </trkpt>
      <trkpt lat="46.44114" lon="4.76617">
        <ele>281</ele>
        <time>2022-06-25T10:09:56Z</time>
      </trkpt>
      <trkpt lat="46.44105" lon="4.76613">
        <ele>280.6</ele>
        <time>2022-06-25T10:09:57Z</time>
      </trkpt>
      <trkpt lat="46.44097" lon="4.76607">
        <ele>280.2</ele>
        <time>2022-06-25T10:09:58Z</time>
      </trkpt>
      <trkpt lat="46.44088" lon="4.76601">
        <ele>279.8</ele>
        <time>2022-06-25T10:09:59Z</time>
      </trkpt>
      <trkpt lat="46.44079" lon="4.76595">
        <ele>279.4</ele>
        <time>2022-06-25T10:10:00Z</time>
      </trkpt>
      <trkpt lat="46.44071" lon="4.76589">
        <ele>278.8</ele>
        <time>2022-06-25T10:10:01Z</time>
      </trkpt>
      <trkpt lat="46.44063" lon="4.76585">
        <ele>278.4</ele>
        <time>2022-06-25T10:10:02Z</time>
      </trkpt>
      <trkpt lat="46.44054" lon="4.7658">
        <ele>278.2</ele>
        <time>2022-06-25T10:10:03Z</time>
      </trkpt>
      <trkpt lat="46.44046" lon="4.76577">
        <ele>278.2</ele>
        <time>2022-06-25T10:10:04Z</time>
      </trkpt>
      <trkpt lat="46.44038" lon="4.76573">
        <ele>277.6</ele>
        <time>2022-06-25T10:10:05Z</time>
      </trkpt>
      <trkpt lat="46.4403" lon="4.7657">
        <ele>277.2</ele>
        <time>2022-06-25T10:10:06Z</time>
      </trkpt>
      <trkpt lat="46.44022" lon="4.76567">
        <ele>277.2</ele>
        <time>2022-06-25T10:10:07Z</time>
      </trkpt>
      <trkpt lat="46.44014" lon="4.76564">
        <ele>277</ele>
        <time>2022-06-25T10:10:08Z</time>
      </trkpt>
      <trkpt lat="46.44006" lon="4.76563">
        <ele>276.6</ele>
        <time>2022-06-25T10:10:09Z</time>
      </trkpt>
      <trkpt lat="46.43998" lon="4.76562">
        <ele>275.6</ele>
        <time>2022-06-25T10:10:11Z</time>
      </trkpt>
      <trkpt lat="46.43989" lon="4.76562">
        <ele>275.4</ele>
        <time>2022-06-25T10:10:12Z</time>
      </trkpt>
      <trkpt lat="46.43981" lon="4.76564">
        <ele>275</ele>
        <time>2022-06-25T10:10:13Z</time>
      </trkpt>
      <trkpt lat="46.43973" lon="4.76567">
        <ele>274.6</ele>
        <time>2022-06-25T10:10:14Z</time>
      </trkpt>
      <trkpt lat="46.43965" lon="4.7657">
        <ele>274</ele>
        <time>2022-06-25T10:10:15Z</time>
      </trkpt>
      <trkpt lat="46.43957" lon="4.76574">
        <ele>273.6</ele>
        <time>2022-06-25T10:10:16Z</time>
      </trkpt>
      <trkpt lat="46.43949" lon="4.76579">
        <ele>273.2</ele>
        <time>2022-06-25T10:10:17Z</time>
      </trkpt>
      <trkpt lat="46.43942" lon="4.76585">
        <ele>272.8</ele>
        <time>2022-06-25T10:10:18Z</time>
      </trkpt>
      <trkpt lat="46.43934" lon="4.76589">
        <ele>272.4</ele>
        <time>2022-06-25T10:10:19Z</time>
      </trkpt>
      <trkpt lat="46.43927" lon="4.76594">
        <ele>271.8</ele>
        <time>2022-06-25T10:10:20Z</time>
      </trkpt>
      <trkpt lat="46.4392" lon="4.76599">
        <ele>271.4</ele>
        <time>2022-06-25T10:10:21Z</time>
      </trkpt>
      <trkpt lat="46.43914" lon="4.76603">
        <ele>271</ele>
        <time>2022-06-25T10:10:22Z</time>
      </trkpt>
      <trkpt lat="46.43908" lon="4.76607">
        <ele>270.6</ele>
        <time>2022-06-25T10:10:23Z</time>
      </trkpt>
      <trkpt lat="46.43902" lon="4.7661">
        <ele>270.2</ele>
        <time>2022-06-25T10:10:24Z</time>
      </trkpt>
      <trkpt lat="46.43896" lon="4.76612">
        <ele>269.8</ele>
        <time>2022-06-25T10:10:25Z</time>
      </trkpt>
      <trkpt lat="46.43886" lon="4.76611">
        <ele>269.4</ele>
        <time>2022-06-25T10:10:26Z</time>
      </trkpt>
      <trkpt lat="46.43882" lon="4.76609">
        <ele>269</ele>
        <time>2022-06-25T10:10:27Z</time>
      </trkpt>
      <trkpt lat="46.43879" lon="4.76605">
        <ele>268.8</ele>
        <time>2022-06-25T10:10:28Z</time>
      </trkpt>
      <trkpt lat="46.43877" lon="4.76599">
        <ele>268.6</ele>
        <time>2022-06-25T10:10:29Z</time>
      </trkpt>
      <trkpt lat="46.43876" lon="4.76592">
        <ele>268.4</ele>
        <time>2022-06-25T10:10:30Z</time>
      </trkpt>
      <trkpt lat="46.43875" lon="4.76585">
        <ele>268.2</ele>
        <time>2022-06-25T10:10:31Z</time>
      </trkpt>
      <trkpt lat="46.43874" lon="4.76577">
        <ele>268.2</ele>
        <time>2022-06-25T10:10:32Z</time>
      </trkpt>
      <trkpt lat="46.43872" lon="4.76569">
        <ele>267.6</ele>
        <time>2022-06-25T10:10:33Z</time>
      </trkpt>
      <trkpt lat="46.43871" lon="4.76562">
        <ele>267.4</ele>
        <time>2022-06-25T10:10:35Z</time>
      </trkpt>
      <trkpt lat="46.43869" lon="4.76553">
        <ele>267.2</ele>
        <time>2022-06-25T10:10:36Z</time>
      </trkpt>
      <trkpt lat="46.43867" lon="4.76545">
        <ele>267.2</ele>
        <time>2022-06-25T10:10:37Z</time>
      </trkpt>
      <trkpt lat="46.43865" lon="4.76536">
        <ele>266.8</ele>
        <time>2022-06-25T10:10:38Z</time>
      </trkpt>
      <trkpt lat="46.43862" lon="4.76528">
        <ele>266.6</ele>
        <time>2022-06-25T10:10:39Z</time>
      </trkpt>
      <trkpt lat="46.43858" lon="4.7652">
        <ele>266.6</ele>
        <time>2022-06-25T10:10:40Z</time>
      </trkpt>
      <trkpt lat="46.43854" lon="4.76511">
        <ele>266.2</ele>
        <time>2022-06-25T10:10:41Z</time>
      </trkpt>
      <trkpt lat="46.4385" lon="4.76503">
        <ele>266</ele>
        <time>2022-06-25T10:10:42Z</time>
      </trkpt>
      <trkpt lat="46.43845" lon="4.76495">
        <ele>266</ele>
        <time>2022-06-25T10:10:43Z</time>
      </trkpt>
      <trkpt lat="46.4384" lon="4.76487">
        <ele>265.4</ele>
        <time>2022-06-25T10:10:44Z</time>
      </trkpt>
      <trkpt lat="46.43835" lon="4.7648">
        <ele>265.2</ele>
        <time>2022-06-25T10:10:45Z</time>
      </trkpt>
      <trkpt lat="46.43829" lon="4.76472">
        <ele>264.8</ele>
        <time>2022-06-25T10:10:46Z</time>
      </trkpt>
      <trkpt lat="46.43823" lon="4.76465">
        <ele>264.6</ele>
        <time>2022-06-25T10:10:47Z</time>
      </trkpt>
      <trkpt lat="46.43817" lon="4.76457">
        <ele>264.2</ele>
        <time>2022-06-25T10:10:48Z</time>
      </trkpt>
      <trkpt lat="46.43811" lon="4.76449">
        <ele>263.8</ele>
        <time>2022-06-25T10:10:49Z</time>
      </trkpt>
      <trkpt lat="46.43805" lon="4.76441">
        <ele>263.6</ele>
        <time>2022-06-25T10:10:50Z</time>
      </trkpt>
      <trkpt lat="46.438" lon="4.76432">
        <ele>263.2</ele>
        <time>2022-06-25T10:10:51Z</time>
      </trkpt>
      <trkpt lat="46.43794" lon="4.76422">
        <ele>263</ele>
        <time>2022-06-25T10:10:52Z</time>
      </trkpt>
      <trkpt lat="46.43789" lon="4.76412">
        <ele>262.8</ele>
        <time>2022-06-25T10:10:53Z</time>
      </trkpt>
      <trkpt lat="46.43784" lon="4.76402">
        <ele>262.6</ele>
        <time>2022-06-25T10:10:54Z</time>
      </trkpt>
      <trkpt lat="46.43779" lon="4.76392">
        <ele>262.6</ele>
        <time>2022-06-25T10:10:55Z</time>
      </trkpt>
      <trkpt lat="46.43774" lon="4.76382">
        <ele>262.2</ele>
        <time>2022-06-25T10:10:56Z</time>
      </trkpt>
      <trkpt lat="46.43768" lon="4.76372">
        <ele>262.2</ele>
        <time>2022-06-25T10:10:57Z</time>
      </trkpt>
      <trkpt lat="46.43763" lon="4.76363">
        <ele>261.8</ele>
        <time>2022-06-25T10:10:58Z</time>
      </trkpt>
      <trkpt lat="46.43757" lon="4.76355">
        <ele>261.6</ele>
        <time>2022-06-25T10:10:59Z</time>
      </trkpt>
      <trkpt lat="46.43752" lon="4.76346">
        <ele>261.6</ele>
        <time>2022-06-25T10:11:00Z</time>
      </trkpt>
      <trkpt lat="46.43747" lon="4.76339">
        <ele>261.2</ele>
        <time>2022-06-25T10:11:01Z</time>
      </trkpt>
      <trkpt lat="46.43742" lon="4.76331">
        <ele>260.8</ele>
        <time>2022-06-25T10:11:02Z</time>
      </trkpt>
      <trkpt lat="46.43734" lon="4.76318">
        <ele>260.8</ele>
        <time>2022-06-25T10:11:03Z</time>
      </trkpt>
      <trkpt lat="46.43731" lon="4.76313">
        <ele>260.8</ele>
        <time>2022-06-25T10:11:04Z</time>
      </trkpt>
      <trkpt lat="46.43724" lon="4.76303">
        <ele>260.8</ele>
        <time>2022-06-25T10:11:05Z</time>
      </trkpt>
      <trkpt lat="46.4372" lon="4.76296">
        <ele>260.8</ele>
        <time>2022-06-25T10:11:06Z</time>
      </trkpt>
      <trkpt lat="46.43716" lon="4.7629">
        <ele>260.8</ele>
        <time>2022-06-25T10:11:07Z</time>
      </trkpt>
      <trkpt lat="46.43711" lon="4.76284">
        <ele>260.8</ele>
        <time>2022-06-25T10:11:08Z</time>
      </trkpt>
      <trkpt lat="46.43707" lon="4.76278">
        <ele>260.8</ele>
        <time>2022-06-25T10:11:09Z</time>
      </trkpt>
      <trkpt lat="46.43703" lon="4.76271">
        <ele>260.8</ele>
        <time>2022-06-25T10:11:10Z</time>
      </trkpt>
      <trkpt lat="46.43699" lon="4.76265">
        <ele>260.8</ele>
        <time>2022-06-25T10:11:11Z</time>
      </trkpt>
      <trkpt lat="46.43696" lon="4.76259">
        <ele>261</ele>
        <time>2022-06-25T10:11:12Z</time>
      </trkpt>
      <trkpt lat="46.43692" lon="4.76253">
        <ele>261</ele>
        <time>2022-06-25T10:11:13Z</time>
      </trkpt>
      <trkpt lat="46.43688" lon="4.76247">
        <ele>261</ele>
        <time>2022-06-25T10:11:14Z</time>
      </trkpt>
      <trkpt lat="46.43685" lon="4.76241">
        <ele>261</ele>
        <time>2022-06-25T10:11:15Z</time>
      </trkpt>
      <trkpt lat="46.43681" lon="4.76235">
        <ele>261</ele>
        <time>2022-06-25T10:11:16Z</time>
      </trkpt>
      <trkpt lat="46.43677" lon="4.76229">
        <ele>261.2</ele>
        <time>2022-06-25T10:11:17Z</time>
      </trkpt>
      <trkpt lat="46.43673" lon="4.76224">
        <ele>261.2</ele>
        <time>2022-06-25T10:11:18Z</time>
      </trkpt>
      <trkpt lat="46.43669" lon="4.7622">
        <ele>261.2</ele>
        <time>2022-06-25T10:11:19Z</time>
      </trkpt>
      <trkpt lat="46.43664" lon="4.76215">
        <ele>261.4</ele>
        <time>2022-06-25T10:11:20Z</time>
      </trkpt>
      <trkpt lat="46.4366" lon="4.76212">
        <ele>261.4</ele>
        <time>2022-06-25T10:11:21Z</time>
      </trkpt>
      <trkpt lat="46.43654" lon="4.76209">
        <ele>261.4</ele>
        <time>2022-06-25T10:11:22Z</time>
      </trkpt>
      <trkpt lat="46.43649" lon="4.76207">
        <ele>261.4</ele>
        <time>2022-06-25T10:11:23Z</time>
      </trkpt>
      <trkpt lat="46.43644" lon="4.76205">
        <ele>261.8</ele>
        <time>2022-06-25T10:11:24Z</time>
      </trkpt>
      <trkpt lat="46.43639" lon="4.76203">
        <ele>261.8</ele>
        <time>2022-06-25T10:11:25Z</time>
      </trkpt>
      <trkpt lat="46.43634" lon="4.76202">
        <ele>262.2</ele>
        <time>2022-06-25T10:11:26Z</time>
      </trkpt>
      <trkpt lat="46.4363" lon="4.762">
        <ele>262.2</ele>
        <time>2022-06-25T10:11:27Z</time>
      </trkpt>
      <trkpt lat="46.43625" lon="4.76198">
        <ele>262.4</ele>
        <time>2022-06-25T10:11:28Z</time>
      </trkpt>
      <trkpt lat="46.43621" lon="4.76196">
        <ele>262.4</ele>
        <time>2022-06-25T10:11:29Z</time>
      </trkpt>
      <trkpt lat="46.43616" lon="4.76195">
        <ele>262.8</ele>
        <time>2022-06-25T10:11:30Z</time>
      </trkpt>
      <trkpt lat="46.43612" lon="4.76194">
        <ele>262.8</ele>
        <time>2022-06-25T10:11:31Z</time>
      </trkpt>
      <trkpt lat="46.43608" lon="4.76192">
        <ele>262.8</ele>
        <time>2022-06-25T10:11:32Z</time>
      </trkpt>
      <trkpt lat="46.43603" lon="4.7619">
        <ele>263</ele>
        <time>2022-06-25T10:11:33Z</time>
      </trkpt>
      <trkpt lat="46.43598" lon="4.76188">
        <ele>263</ele>
        <time>2022-06-25T10:11:34Z</time>
      </trkpt>
      <trkpt lat="46.43593" lon="4.76186">
        <ele>263</ele>
        <time>2022-06-25T10:11:35Z</time>
      </trkpt>
      <trkpt lat="46.43588" lon="4.76185">
        <ele>263</ele>
        <time>2022-06-25T10:11:36Z</time>
      </trkpt>
      <trkpt lat="46.43582" lon="4.76183">
        <ele>263</ele>
        <time>2022-06-25T10:11:37Z</time>
      </trkpt>
      <trkpt lat="46.43577" lon="4.76182">
        <ele>262.8</ele>
        <time>2022-06-25T10:11:38Z</time>
      </trkpt>
      <trkpt lat="46.43571" lon="4.7618">
        <ele>262.8</ele>
        <time>2022-06-25T10:11:39Z</time>
      </trkpt>
      <trkpt lat="46.43565" lon="4.76179">
        <ele>262.8</ele>
        <time>2022-06-25T10:11:40Z</time>
      </trkpt>
      <trkpt lat="46.43559" lon="4.76177">
        <ele>262.8</ele>
        <time>2022-06-25T10:11:41Z</time>
      </trkpt>
      <trkpt lat="46.43553" lon="4.76175">
        <ele>262.8</ele>
        <time>2022-06-25T10:11:42Z</time>
      </trkpt>
      <trkpt lat="46.43547" lon="4.76174">
        <ele>262.8</ele>
        <time>2022-06-25T10:11:43Z</time>
      </trkpt>
      <trkpt lat="46.43541" lon="4.76172">
        <ele>262.8</ele>
        <time>2022-06-25T10:11:44Z</time>
      </trkpt>
      <trkpt lat="46.43535" lon="4.7617">
        <ele>262.8</ele>
        <time>2022-06-25T10:11:45Z</time>
      </trkpt>
      <trkpt lat="46.43529" lon="4.76168">
        <ele>262.8</ele>
        <time>2022-06-25T10:11:46Z</time>
      </trkpt>
      <trkpt lat="46.43523" lon="4.76166">
        <ele>262.8</ele>
        <time>2022-06-25T10:11:47Z</time>
      </trkpt>
      <trkpt lat="46.43517" lon="4.76164">
        <ele>262.8</ele>
        <time>2022-06-25T10:11:48Z</time>
      </trkpt>
      <trkpt lat="46.4351" lon="4.76163">
        <ele>262.8</ele>
        <time>2022-06-25T10:11:49Z</time>
      </trkpt>
      <trkpt lat="46.43504" lon="4.76162">
        <ele>262.8</ele>
        <time>2022-06-25T10:11:50Z</time>
      </trkpt>
      <trkpt lat="46.43498" lon="4.7616">
        <ele>262.8</ele>
        <time>2022-06-25T10:11:51Z</time>
      </trkpt>
      <trkpt lat="46.43492" lon="4.76159">
        <ele>262.8</ele>
        <time>2022-06-25T10:11:52Z</time>
      </trkpt>
      <trkpt lat="46.43486" lon="4.76157">
        <ele>262.8</ele>
        <time>2022-06-25T10:11:53Z</time>
      </trkpt>
      <trkpt lat="46.4348" lon="4.76156">
        <ele>262.8</ele>
        <time>2022-06-25T10:11:54Z</time>
      </trkpt>
      <trkpt lat="46.43474" lon="4.76154">
        <ele>262.8</ele>
        <time>2022-06-25T10:11:55Z</time>
      </trkpt>
      <trkpt lat="46.43468" lon="4.76153">
        <ele>262.8</ele>
        <time>2022-06-25T10:11:56Z</time>
      </trkpt>
      <trkpt lat="46.43463" lon="4.76151">
        <ele>262.8</ele>
        <time>2022-06-25T10:11:57Z</time>
      </trkpt>
      <trkpt lat="46.43457" lon="4.7615">
        <ele>262.8</ele>
        <time>2022-06-25T10:11:58Z</time>
      </trkpt>
      <trkpt lat="46.43451" lon="4.76148">
        <ele>262.8</ele>
        <time>2022-06-25T10:11:59Z</time>
      </trkpt>
      <trkpt lat="46.43445" lon="4.76146">
        <ele>263.2</ele>
        <time>2022-06-25T10:12:00Z</time>
      </trkpt>
      <trkpt lat="46.4344" lon="4.76144">
        <ele>263.2</ele>
        <time>2022-06-25T10:12:01Z</time>
      </trkpt>
      <trkpt lat="46.43435" lon="4.76143">
        <ele>263.4</ele>
        <time>2022-06-25T10:12:02Z</time>
      </trkpt>
      <trkpt lat="46.43429" lon="4.76141">
        <ele>263.4</ele>
        <time>2022-06-25T10:12:03Z</time>
      </trkpt>
      <trkpt lat="46.43424" lon="4.7614">
        <ele>263.4</ele>
        <time>2022-06-25T10:12:04Z</time>
      </trkpt>
      <trkpt lat="46.43419" lon="4.76138">
        <ele>263.4</ele>
        <time>2022-06-25T10:12:05Z</time>
      </trkpt>
      <trkpt lat="46.43413" lon="4.76137">
        <ele>263.4</ele>
        <time>2022-06-25T10:12:06Z</time>
      </trkpt>
      <trkpt lat="46.43408" lon="4.76135">
        <ele>263.4</ele>
        <time>2022-06-25T10:12:07Z</time>
      </trkpt>
      <trkpt lat="46.43403" lon="4.76134">
        <ele>263.4</ele>
        <time>2022-06-25T10:12:08Z</time>
      </trkpt>
      <trkpt lat="46.43397" lon="4.76132">
        <ele>263.6</ele>
        <time>2022-06-25T10:12:09Z</time>
      </trkpt>
      <trkpt lat="46.43392" lon="4.76131">
        <ele>263.6</ele>
        <time>2022-06-25T10:12:10Z</time>
      </trkpt>
      <trkpt lat="46.43387" lon="4.76129">
        <ele>263.6</ele>
        <time>2022-06-25T10:12:11Z</time>
      </trkpt>
      <trkpt lat="46.43382" lon="4.76128">
        <ele>263.6</ele>
        <time>2022-06-25T10:12:12Z</time>
      </trkpt>
      <trkpt lat="46.43376" lon="4.76126">
        <ele>263.8</ele>
        <time>2022-06-25T10:12:13Z</time>
      </trkpt>
      <trkpt lat="46.43371" lon="4.76124">
        <ele>263.8</ele>
        <time>2022-06-25T10:12:14Z</time>
      </trkpt>
      <trkpt lat="46.43366" lon="4.76122">
        <ele>263.8</ele>
        <time>2022-06-25T10:12:15Z</time>
      </trkpt>
      <trkpt lat="46.4336" lon="4.76121">
        <ele>263.8</ele>
        <time>2022-06-25T10:12:16Z</time>
      </trkpt>
      <trkpt lat="46.43355" lon="4.7612">
        <ele>263.8</ele>
        <time>2022-06-25T10:12:17Z</time>
      </trkpt>
      <trkpt lat="46.43349" lon="4.76118">
        <ele>263.8</ele>
        <time>2022-06-25T10:12:18Z</time>
      </trkpt>
      <trkpt lat="46.43344" lon="4.76116">
        <ele>263.8</ele>
        <time>2022-06-25T10:12:19Z</time>
      </trkpt>
      <trkpt lat="46.43338" lon="4.76114">
        <ele>263.8</ele>
        <time>2022-06-25T10:12:20Z</time>
      </trkpt>
      <trkpt lat="46.43332" lon="4.76112">
        <ele>263.8</ele>
        <time>2022-06-25T10:12:21Z</time>
      </trkpt>
      <trkpt lat="46.43327" lon="4.7611">
        <ele>263.8</ele>
        <time>2022-06-25T10:12:22Z</time>
      </trkpt>
      <trkpt lat="46.43321" lon="4.76109">
        <ele>263.8</ele>
        <time>2022-06-25T10:12:23Z</time>
      </trkpt>
      <trkpt lat="46.43315" lon="4.76107">
        <ele>263.8</ele>
        <time>2022-06-25T10:12:24Z</time>
      </trkpt>
      <trkpt lat="46.43309" lon="4.76106">
        <ele>263.8</ele>
        <time>2022-06-25T10:12:25Z</time>
      </trkpt>
      <trkpt lat="46.43304" lon="4.76104">
        <ele>263.6</ele>
        <time>2022-06-25T10:12:26Z</time>
      </trkpt>
      <trkpt lat="46.43298" lon="4.76103">
        <ele>263.6</ele>
        <time>2022-06-25T10:12:27Z</time>
      </trkpt>
      <trkpt lat="46.43292" lon="4.76101">
        <ele>263.6</ele>
        <time>2022-06-25T10:12:28Z</time>
      </trkpt>
      <trkpt lat="46.43287" lon="4.761">
        <ele>263.6</ele>
        <time>2022-06-25T10:12:29Z</time>
      </trkpt>
      <trkpt lat="46.43281" lon="4.76098">
        <ele>263.6</ele>
        <time>2022-06-25T10:12:30Z</time>
      </trkpt>
      <trkpt lat="46.43276" lon="4.76097">
        <ele>263.6</ele>
        <time>2022-06-25T10:12:31Z</time>
      </trkpt>
      <trkpt lat="46.4327" lon="4.76096">
        <ele>263.6</ele>
        <time>2022-06-25T10:12:32Z</time>
      </trkpt>
      <trkpt lat="46.43265" lon="4.76095">
        <ele>263.4</ele>
        <time>2022-06-25T10:12:33Z</time>
      </trkpt>
      <trkpt lat="46.43261" lon="4.76095">
        <ele>263.4</ele>
        <time>2022-06-25T10:12:34Z</time>
      </trkpt>
      <trkpt lat="46.43256" lon="4.76094">
        <ele>263.2</ele>
        <time>2022-06-25T10:12:35Z</time>
      </trkpt>
      <trkpt lat="46.43253" lon="4.76093">
        <ele>263.2</ele>
        <time>2022-06-25T10:12:36Z</time>
      </trkpt>
      <trkpt lat="46.43249" lon="4.76093">
        <ele>263</ele>
        <time>2022-06-25T10:12:37Z</time>
      </trkpt>
      <trkpt lat="46.43245" lon="4.76092">
        <ele>263</ele>
        <time>2022-06-25T10:12:38Z</time>
      </trkpt>
      <trkpt lat="46.43242" lon="4.76091">
        <ele>263</ele>
        <time>2022-06-25T10:12:39Z</time>
      </trkpt>
      <trkpt lat="46.43239" lon="4.76091">
        <ele>262.8</ele>
        <time>2022-06-25T10:12:40Z</time>
      </trkpt>
      <trkpt lat="46.43236" lon="4.7609">
        <ele>262.8</ele>
        <time>2022-06-25T10:12:41Z</time>
      </trkpt>
      <trkpt lat="46.43234" lon="4.76089">
        <ele>262.8</ele>
        <time>2022-06-25T10:12:42Z</time>
      </trkpt>
      <trkpt lat="46.43231" lon="4.76088">
        <ele>262.4</ele>
        <time>2022-06-25T10:12:43Z</time>
      </trkpt>
      <trkpt lat="46.43229" lon="4.76088">
        <ele>262.4</ele>
        <time>2022-06-25T10:12:44Z</time>
      </trkpt>
      <trkpt lat="46.43226" lon="4.76087">
        <ele>262.4</ele>
        <time>2022-06-25T10:12:45Z</time>
      </trkpt>
      <trkpt lat="46.43223" lon="4.76086">
        <ele>262.4</ele>
        <time>2022-06-25T10:12:46Z</time>
      </trkpt>
      <trkpt lat="46.4322" lon="4.76085">
        <ele>262.4</ele>
        <time>2022-06-25T10:12:47Z</time>
      </trkpt>
      <trkpt lat="46.43217" lon="4.76085">
        <ele>262.2</ele>
        <time>2022-06-25T10:12:48Z</time>
      </trkpt>
      <trkpt lat="46.43214" lon="4.76084">
        <ele>262.2</ele>
        <time>2022-06-25T10:12:49Z</time>
      </trkpt>
      <trkpt lat="46.4321" lon="4.76084">
        <ele>262.2</ele>
        <time>2022-06-25T10:12:50Z</time>
      </trkpt>
      <trkpt lat="46.43207" lon="4.76084">
        <ele>262</ele>
        <time>2022-06-25T10:12:51Z</time>
      </trkpt>
      <trkpt lat="46.43203" lon="4.76084">
        <ele>262</ele>
        <time>2022-06-25T10:12:52Z</time>
      </trkpt>
      <trkpt lat="46.43199" lon="4.76084">
        <ele>262</ele>
        <time>2022-06-25T10:12:53Z</time>
      </trkpt>
      <trkpt lat="46.43196" lon="4.76085">
        <ele>261.6</ele>
        <time>2022-06-25T10:12:54Z</time>
      </trkpt>
      <trkpt lat="46.43192" lon="4.76085">
        <ele>261.6</ele>
        <time>2022-06-25T10:12:55Z</time>
      </trkpt>
      <trkpt lat="46.43188" lon="4.76086">
        <ele>261.4</ele>
        <time>2022-06-25T10:12:56Z</time>
      </trkpt>
      <trkpt lat="46.43184" lon="4.76088">
        <ele>261.4</ele>
        <time>2022-06-25T10:12:57Z</time>
      </trkpt>
      <trkpt lat="46.43181" lon="4.76089">
        <ele>261.4</ele>
        <time>2022-06-25T10:12:58Z</time>
      </trkpt>
      <trkpt lat="46.43177" lon="4.76092">
        <ele>261.2</ele>
        <time>2022-06-25T10:12:59Z</time>
      </trkpt>
      <trkpt lat="46.43174" lon="4.76094">
        <ele>261.2</ele>
        <time>2022-06-25T10:13:00Z</time>
      </trkpt>
      <trkpt lat="46.4317" lon="4.76097">
        <ele>261.2</ele>
        <time>2022-06-25T10:13:01Z</time>
      </trkpt>
      <trkpt lat="46.43167" lon="4.761">
        <ele>261.2</ele>
        <time>2022-06-25T10:13:02Z</time>
      </trkpt>
      <trkpt lat="46.43165" lon="4.76104">
        <ele>261</ele>
        <time>2022-06-25T10:13:03Z</time>
      </trkpt>
      <trkpt lat="46.43163" lon="4.76109">
        <ele>261</ele>
        <time>2022-06-25T10:13:04Z</time>
      </trkpt>
      <trkpt lat="46.43161" lon="4.76114">
        <ele>261</ele>
        <time>2022-06-25T10:13:05Z</time>
      </trkpt>
      <trkpt lat="46.43159" lon="4.76119">
        <ele>261</ele>
        <time>2022-06-25T10:13:06Z</time>
      </trkpt>
      <trkpt lat="46.43157" lon="4.76123">
        <ele>260.6</ele>
        <time>2022-06-25T10:13:07Z</time>
      </trkpt>
      <trkpt lat="46.43155" lon="4.76128">
        <ele>260.6</ele>
        <time>2022-06-25T10:13:08Z</time>
      </trkpt>
      <trkpt lat="46.43153" lon="4.76133">
        <ele>260.4</ele>
        <time>2022-06-25T10:13:09Z</time>
      </trkpt>
      <trkpt lat="46.43151" lon="4.76137">
        <ele>260.2</ele>
        <time>2022-06-25T10:13:10Z</time>
      </trkpt>
      <trkpt lat="46.43149" lon="4.76141">
        <ele>260.2</ele>
        <time>2022-06-25T10:13:11Z</time>
      </trkpt>
      <trkpt lat="46.43147" lon="4.76145">
        <ele>259.8</ele>
        <time>2022-06-25T10:13:12Z</time>
      </trkpt>
      <trkpt lat="46.43145" lon="4.76148">
        <ele>259.8</ele>
        <time>2022-06-25T10:13:13Z</time>
      </trkpt>
      <trkpt lat="46.43143" lon="4.76151">
        <ele>259.8</ele>
        <time>2022-06-25T10:13:14Z</time>
      </trkpt>
      <trkpt lat="46.4314" lon="4.76153">
        <ele>259.8</ele>
        <time>2022-06-25T10:13:15Z</time>
      </trkpt>
      <trkpt lat="46.43137" lon="4.76154">
        <ele>259.8</ele>
        <time>2022-06-25T10:13:16Z</time>
      </trkpt>
      <trkpt lat="46.43133" lon="4.76156">
        <ele>259.6</ele>
        <time>2022-06-25T10:13:17Z</time>
      </trkpt>
      <trkpt lat="46.43129" lon="4.76157">
        <ele>259.6</ele>
        <time>2022-06-25T10:13:18Z</time>
      </trkpt>
      <trkpt lat="46.43125" lon="4.76157">
        <ele>259.6</ele>
        <time>2022-06-25T10:13:19Z</time>
      </trkpt>
      <trkpt lat="46.43121" lon="4.76158">
        <ele>259.6</ele>
        <time>2022-06-25T10:13:20Z</time>
      </trkpt>
      <trkpt lat="46.43118" lon="4.76159">
        <ele>259.2</ele>
        <time>2022-06-25T10:13:21Z</time>
      </trkpt>
      <trkpt lat="46.43115" lon="4.7616">
        <ele>259.2</ele>
        <time>2022-06-25T10:13:22Z</time>
      </trkpt>
      <trkpt lat="46.43113" lon="4.76163">
        <ele>259.2</ele>
        <time>2022-06-25T10:13:23Z</time>
      </trkpt>
      <trkpt lat="46.43112" lon="4.76166">
        <ele>259.2</ele>
        <time>2022-06-25T10:13:24Z</time>
      </trkpt>
      <trkpt lat="46.43112" lon="4.76169">
        <ele>259</ele>
        <time>2022-06-25T10:13:25Z</time>
      </trkpt>
      <trkpt lat="46.43113" lon="4.76172">
        <ele>259</ele>
        <time>2022-06-25T10:13:26Z</time>
      </trkpt>
      <trkpt lat="46.43115" lon="4.76173">
        <ele>258.6</ele>
        <time>2022-06-25T10:13:27Z</time>
      </trkpt>
      <trkpt lat="46.43117" lon="4.76172">
        <ele>258.6</ele>
        <time>2022-06-25T10:13:28Z</time>
      </trkpt>
      <trkpt lat="46.43118" lon="4.7617">
        <ele>258.6</ele>
        <time>2022-06-25T10:13:29Z</time>
      </trkpt>
      <trkpt lat="46.4312" lon="4.76169">
        <ele>258.6</ele>
        <time>2022-06-25T10:13:30Z</time>
      </trkpt>
      <trkpt lat="46.43122" lon="4.76168">
        <ele>258.6</ele>
        <time>2022-06-25T10:13:31Z</time>
      </trkpt>
      <trkpt lat="46.43123" lon="4.76166">
        <ele>258.6</ele>
        <time>2022-06-25T10:13:32Z</time>
      </trkpt>
      <trkpt lat="46.43125" lon="4.76165">
        <ele>258.6</ele>
        <time>2022-06-25T10:13:33Z</time>
      </trkpt>
      <trkpt lat="46.43127" lon="4.76164">
        <ele>258.6</ele>
        <time>2022-06-25T10:13:34Z</time>
      </trkpt>
      <trkpt lat="46.43128" lon="4.76164">
        <ele>258.6</ele>
        <time>2022-06-25T10:13:35Z</time>
      </trkpt>
      <trkpt lat="46.43129" lon="4.76163">
        <ele>258.6</ele>
        <time>2022-06-25T10:13:36Z</time>
      </trkpt>
      <trkpt lat="46.4313" lon="4.76163">
        <ele>259</ele>
        <time>2022-06-25T10:13:37Z</time>
      </trkpt>
      <trkpt lat="46.43133" lon="4.76162">
        <ele>259.2</ele>
        <time>2022-06-25T10:13:49Z</time>
      </trkpt>
      <trkpt lat="46.43135" lon="4.76162">
        <ele>259.2</ele>
        <time>2022-06-25T10:13:50Z</time>
      </trkpt>
      <trkpt lat="46.43137" lon="4.76162">
        <ele>259.2</ele>
        <time>2022-06-25T10:13:51Z</time>
      </trkpt>
      <trkpt lat="46.43139" lon="4.76161">
        <ele>259.2</ele>
        <time>2022-06-25T10:13:52Z</time>
      </trkpt>
      <trkpt lat="46.43142" lon="4.7616">
        <ele>259.2</ele>
        <time>2022-06-25T10:13:53Z</time>
      </trkpt>
      <trkpt lat="46.43144" lon="4.76158">
        <ele>259.4</ele>
        <time>2022-06-25T10:13:54Z</time>
      </trkpt>
      <trkpt lat="46.43146" lon="4.76155">
        <ele>259.4</ele>
        <time>2022-06-25T10:13:55Z</time>
      </trkpt>
      <trkpt lat="46.43148" lon="4.76151">
        <ele>259.4</ele>
        <time>2022-06-25T10:13:56Z</time>
      </trkpt>
      <trkpt lat="46.4315" lon="4.76147">
        <ele>259.4</ele>
        <time>2022-06-25T10:13:57Z</time>
      </trkpt>
      <trkpt lat="46.43152" lon="4.76142">
        <ele>259.6</ele>
        <time>2022-06-25T10:13:58Z</time>
      </trkpt>
      <trkpt lat="46.43154" lon="4.76138">
        <ele>259.6</ele>
        <time>2022-06-25T10:13:59Z</time>
      </trkpt>
      <trkpt lat="46.43156" lon="4.76133">
        <ele>259.6</ele>
        <time>2022-06-25T10:14:00Z</time>
      </trkpt>
      <trkpt lat="46.43157" lon="4.76128">
        <ele>259.6</ele>
        <time>2022-06-25T10:14:01Z</time>
      </trkpt>
      <trkpt lat="46.43159" lon="4.76124">
        <ele>259.6</ele>
        <time>2022-06-25T10:14:02Z</time>
      </trkpt>
      <trkpt lat="46.4316" lon="4.7612">
        <ele>259.6</ele>
        <time>2022-06-25T10:14:03Z</time>
      </trkpt>
      <trkpt lat="46.43162" lon="4.76116">
        <ele>259.6</ele>
        <time>2022-06-25T10:14:04Z</time>
      </trkpt>
      <trkpt lat="46.43163" lon="4.76113">
        <ele>259.8</ele>
        <time>2022-06-25T10:14:05Z</time>
      </trkpt>
      <trkpt lat="46.43165" lon="4.7611">
        <ele>259.8</ele>
        <time>2022-06-25T10:14:06Z</time>
      </trkpt>
      <trkpt lat="46.43167" lon="4.76107">
        <ele>259.8</ele>
        <time>2022-06-25T10:14:07Z</time>
      </trkpt>
      <trkpt lat="46.43169" lon="4.76104">
        <ele>259.8</ele>
        <time>2022-06-25T10:14:08Z</time>
      </trkpt>
      <trkpt lat="46.43171" lon="4.76102">
        <ele>259.8</ele>
        <time>2022-06-25T10:14:09Z</time>
      </trkpt>
      <trkpt lat="46.43174" lon="4.76102">
        <ele>259.8</ele>
        <time>2022-06-25T10:14:10Z</time>
      </trkpt>
      <trkpt lat="46.43177" lon="4.76101">
        <ele>260.2</ele>
        <time>2022-06-25T10:14:11Z</time>
      </trkpt>
      <trkpt lat="46.43179" lon="4.761">
        <ele>260.2</ele>
        <time>2022-06-25T10:14:12Z</time>
      </trkpt>
      <trkpt lat="46.43181" lon="4.761">
        <ele>260.2</ele>
        <time>2022-06-25T10:14:13Z</time>
      </trkpt>
      <trkpt lat="46.43183" lon="4.76099">
        <ele>260.2</ele>
        <time>2022-06-25T10:14:14Z</time>
      </trkpt>
      <trkpt lat="46.43185" lon="4.76099">
        <ele>260.2</ele>
        <time>2022-06-25T10:14:15Z</time>
      </trkpt>
      <trkpt lat="46.43186" lon="4.76098">
        <ele>260.4</ele>
        <time>2022-06-25T10:14:16Z</time>
      </trkpt>
      <trkpt lat="46.43187" lon="4.76098">
        <ele>260.4</ele>
        <time>2022-06-25T10:14:17Z</time>
      </trkpt>
      <trkpt lat="46.43188" lon="4.76096">
        <ele>260.4</ele>
        <time>2022-06-25T10:14:18Z</time>
      </trkpt>
      <trkpt lat="46.43187" lon="4.76093">
        <ele>260.4</ele>
        <time>2022-06-25T10:14:19Z</time>
      </trkpt>
      <trkpt lat="46.43186" lon="4.76091">
        <ele>260.4</ele>
        <time>2022-06-25T10:14:20Z</time>
      </trkpt>
      <trkpt lat="46.43185" lon="4.76089">
        <ele>260.4</ele>
        <time>2022-06-25T10:14:21Z</time>
      </trkpt>
      <trkpt lat="46.43185" lon="4.76088">
        <ele>260.4</ele>
        <time>2022-06-25T10:14:23Z</time>
      </trkpt>
      <trkpt lat="46.43185" lon="4.76088">
        <ele>260.4</ele>
        <time>2022-06-25T10:14:24Z</time>
      </trkpt>
      <trkpt lat="46.43185" lon="4.76088">
        <ele>261</ele>
        <time>2022-06-25T10:14:31Z</time>
      </trkpt>
      <trkpt lat="46.43185" lon="4.76088">
        <ele>261</ele>
        <time>2022-06-25T10:14:35Z</time>
      </trkpt>
      <trkpt lat="46.43185" lon="4.76088">
        <ele>261.2</ele>
        <time>2022-06-25T10:14:39Z</time>
      </trkpt>
      <trkpt lat="46.43185" lon="4.76087">
        <ele>261.2</ele>
        <time>2022-06-25T10:14:41Z</time>
      </trkpt>
      <trkpt lat="46.43185" lon="4.76087">
        <ele>261</ele>
        <time>2022-06-25T10:14:43Z</time>
      </trkpt>
      <trkpt lat="46.43185" lon="4.76087">
        <ele>260.8</ele>
        <time>2022-06-25T10:14:46Z</time>
      </trkpt>
      <trkpt lat="46.43185" lon="4.76087">
        <ele>260.8</ele>
        <time>2022-06-25T10:14:50Z</time>
      </trkpt>
      <trkpt lat="46.43184" lon="4.76087">
        <ele>260.8</ele>
        <time>2022-06-25T10:14:51Z</time>
      </trkpt>
      <trkpt lat="46.43184" lon="4.76086">
        <ele>260.8</ele>
        <time>2022-06-25T10:14:52Z</time>
      </trkpt>
      <trkpt lat="46.43184" lon="4.76086">
        <ele>260.6</ele>
        <time>2022-06-25T10:15:14Z</time>
      </trkpt>
      <trkpt lat="46.43184" lon="4.76086">
        <ele>260.6</ele>
        <time>2022-06-25T10:15:16Z</time>
      </trkpt>
      <trkpt lat="46.43184" lon="4.76086">
        <ele>260.8</ele>
        <time>2022-06-25T10:15:18Z</time>
      </trkpt>
      <trkpt lat="46.43184" lon="4.76085">
        <ele>261.4</ele>
        <time>2022-06-25T10:16:03Z</time>
      </trkpt>
      <trkpt lat="46.43184" lon="4.76085">
        <ele>261.4</ele>
        <time>2022-06-25T10:16:04Z</time>
      </trkpt>
      <trkpt lat="46.43184" lon="4.76085">
        <ele>261.4</ele>
        <time>2022-06-25T10:16:06Z</time>
      </trkpt>
      <trkpt lat="46.43184" lon="4.76085">
        <ele>261.4</ele>
        <time>2022-06-25T10:16:11Z</time>
      </trkpt>
      <trkpt lat="46.43184" lon="4.76084">
        <ele>261.2</ele>
        <time>2022-06-25T10:16:24Z</time>
      </trkpt>
      <trkpt lat="46.43184" lon="4.76084">
        <ele>261.2</ele>
        <time>2022-06-25T10:16:25Z</time>
      </trkpt>
      <trkpt lat="46.43184" lon="4.76084">
        <ele>261.2</ele>
        <time>2022-06-25T10:16:27Z</time>
      </trkpt>
      <trkpt lat="46.43183" lon="4.76084">
        <ele>261.2</ele>
        <time>2022-06-25T10:16:28Z</time>
      </trkpt>
      <trkpt lat="46.43183" lon="4.76084">
        <ele>261.2</ele>
        <time>2022-06-25T10:16:57Z</time>
      </trkpt>
      <trkpt lat="46.43183" lon="4.76083">
        <ele>261.2</ele>
        <time>2022-06-25T10:16:59Z</time>
      </trkpt>
      <trkpt lat="46.43183" lon="4.76083">
        <ele>261.2</ele>
        <time>2022-06-25T10:17:00Z</time>
      </trkpt>
      <trkpt lat="46.43183" lon="4.76083">
        <ele>261.2</ele>
        <time>2022-06-25T10:17:02Z</time>
      </trkpt>
      <trkpt lat="46.43183" lon="4.76083">
        <ele>261.2</ele>
        <time>2022-06-25T10:17:46Z</time>
      </trkpt>
      <trkpt lat="46.43183" lon="4.76083">
        <ele>261.2</ele>
        <time>2022-06-25T10:17:48Z</time>
      </trkpt>
      <trkpt lat="46.43183" lon="4.76082">
        <ele>261.2</ele>
        <time>2022-06-25T10:18:00Z</time>
      </trkpt>
      <trkpt lat="46.43183" lon="4.76082">
        <ele>261.2</ele>
        <time>2022-06-25T10:18:02Z</time>
      </trkpt>
      <trkpt lat="46.43183" lon="4.76082">
        <ele>261.2</ele>
        <time>2022-06-25T10:18:04Z</time>
      </trkpt>
      <trkpt lat="46.43183" lon="4.76082">
        <ele>261.2</ele>
        <time>2022-06-25T10:18:06Z</time>
      </trkpt>
      <trkpt lat="46.43183" lon="4.76081">
        <ele>261.2</ele>
        <time>2022-06-25T10:18:07Z</time>
      </trkpt>
      <trkpt lat="46.43182" lon="4.76081">
        <ele>261.2</ele>
        <time>2022-06-25T10:18:08Z</time>
      </trkpt>
      <trkpt lat="46.43182" lon="4.76081">
        <ele>261.2</ele>
        <time>2022-06-25T10:18:10Z</time>
      </trkpt>
      <trkpt lat="46.43182" lon="4.76081">
        <ele>261.2</ele>
        <time>2022-06-25T10:18:12Z</time>
      </trkpt>
      <trkpt lat="46.43182" lon="4.76081">
        <ele>261.2</ele>
        <time>2022-06-25T10:18:15Z</time>
      </trkpt>
      <trkpt lat="46.43182" lon="4.7608">
        <ele>261.2</ele>
        <time>2022-06-25T10:18:16Z</time>
      </trkpt>
      <trkpt lat="46.43182" lon="4.7608">
        <ele>261.2</ele>
        <time>2022-06-25T10:18:18Z</time>
      </trkpt>
      <trkpt lat="46.43182" lon="4.7608">
        <ele>261.2</ele>
        <time>2022-06-25T10:18:20Z</time>
      </trkpt>
      <trkpt lat="46.43182" lon="4.7608">
        <ele>261.2</ele>
        <time>2022-06-25T10:18:22Z</time>
      </trkpt>
      <trkpt lat="46.43182" lon="4.76079">
        <ele>261.2</ele>
        <time>2022-06-25T10:18:24Z</time>
      </trkpt>
      <trkpt lat="46.43182" lon="4.76079">
        <ele>261.2</ele>
        <time>2022-06-25T10:18:25Z</time>
      </trkpt>
      <trkpt lat="46.43182" lon="4.76079">
        <ele>261.2</ele>
        <time>2022-06-25T10:18:40Z</time>
      </trkpt>
      <trkpt lat="46.43181" lon="4.76079">
        <ele>261.2</ele>
        <time>2022-06-25T10:18:41Z</time>
      </trkpt>
      <trkpt lat="46.43181" lon="4.76079">
        <ele>261.2</ele>
        <time>2022-06-25T10:18:43Z</time>
      </trkpt>
      <trkpt lat="46.43181" lon="4.76078">
        <ele>261.2</ele>
        <time>2022-06-25T10:18:45Z</time>
      </trkpt>
      <trkpt lat="46.43181" lon="4.76078">
        <ele>261.2</ele>
        <time>2022-06-25T10:18:48Z</time>
      </trkpt>
      <trkpt lat="46.43181" lon="4.76078">
        <ele>261.2</ele>
        <time>2022-06-25T10:18:50Z</time>
      </trkpt>
      <trkpt lat="46.43181" lon="4.76078">
        <ele>261.2</ele>
        <time>2022-06-25T10:18:52Z</time>
      </trkpt>
      <trkpt lat="46.43181" lon="4.76077">
        <ele>261.2</ele>
        <time>2022-06-25T10:18:54Z</time>
      </trkpt>
      <trkpt lat="46.43181" lon="4.76077">
        <ele>261.6</ele>
        <time>2022-06-25T10:18:59Z</time>
      </trkpt>
      <trkpt lat="46.43181" lon="4.76077">
        <ele>261.6</ele>
        <time>2022-06-25T10:19:01Z</time>
      </trkpt>
      <trkpt lat="46.43181" lon="4.76077">
        <ele>261.6</ele>
        <time>2022-06-25T10:19:03Z</time>
      </trkpt>
      <trkpt lat="46.43181" lon="4.76077">
        <ele>261.8</ele>
        <time>2022-06-25T10:19:05Z</time>
      </trkpt>
      <trkpt lat="46.43181" lon="4.76076">
        <ele>261.8</ele>
        <time>2022-06-25T10:19:23Z</time>
      </trkpt>
      <trkpt lat="46.4318" lon="4.76076">
        <ele>261.8</ele>
        <time>2022-06-25T10:19:24Z</time>
      </trkpt>
      <trkpt lat="46.4318" lon="4.76076">
        <ele>261.8</ele>
        <time>2022-06-25T10:19:26Z</time>
      </trkpt>
      <trkpt lat="46.43181" lon="4.76076">
        <ele>262</ele>
        <time>2022-06-25T10:19:29Z</time>
      </trkpt>
      <trkpt lat="46.43181" lon="4.76076">
        <ele>261.6</ele>
        <time>2022-06-25T10:21:09Z</time>
      </trkpt>
      <trkpt lat="46.43181" lon="4.76063">
        <ele>262</ele>
        <time>2022-06-25T10:22:03Z</time>
      </trkpt>
      <trkpt lat="46.43181" lon="4.76062">
        <ele>262</ele>
        <time>2022-06-25T10:22:05Z</time>
      </trkpt>
      <trkpt lat="46.43181" lon="4.76062">
        <ele>262</ele>
        <time>2022-06-25T10:23:01Z</time>
      </trkpt>
      <trkpt lat="46.43181" lon="4.76062">
        <ele>261.6</ele>
        <time>2022-06-25T10:24:43Z</time>
      </trkpt>
      <trkpt lat="46.43181" lon="4.76062">
        <ele>262.4</ele>
        <time>2022-06-25T10:26:31Z</time>
      </trkpt>
      <trkpt lat="46.43182" lon="4.76049">
        <ele>262.4</ele>
        <time>2022-06-25T10:26:46Z</time>
      </trkpt>
      <trkpt lat="46.43182" lon="4.76049">
        <ele>262.4</ele>
        <time>2022-06-25T10:26:48Z</time>
      </trkpt>
      <trkpt lat="46.43182" lon="4.76049">
        <ele>262.6</ele>
        <time>2022-06-25T10:27:30Z</time>
      </trkpt>
      <trkpt lat="46.43182" lon="4.76049">
        <ele>262.2</ele>
        <time>2022-06-25T10:28:30Z</time>
      </trkpt>
      <trkpt lat="46.4318" lon="4.76036">
        <ele>262.6</ele>
        <time>2022-06-25T10:29:14Z</time>
      </trkpt>
      <trkpt lat="46.43181" lon="4.76036">
        <ele>262.6</ele>
        <time>2022-06-25T10:29:15Z</time>
      </trkpt>
      <trkpt lat="46.43181" lon="4.76036">
        <ele>262.6</ele>
        <time>2022-06-25T10:29:56Z</time>
      </trkpt>
      <trkpt lat="46.43181" lon="4.76036">
        <ele>262.8</ele>
        <time>2022-06-25T10:30:34Z</time>
      </trkpt>
      <trkpt lat="46.43181" lon="4.76036">
        <ele>263</ele>
        <time>2022-06-25T10:32:30Z</time>
      </trkpt>
      <trkpt lat="46.43181" lon="4.76036">
        <ele>263</ele>
        <time>2022-06-25T10:34:17Z</time>
      </trkpt>
      <trkpt lat="46.43181" lon="4.76036">
        <ele>262.8</ele>
        <time>2022-06-25T10:34:54Z</time>
      </trkpt>
      <trkpt lat="46.43181" lon="4.76036">
        <ele>263</ele>
        <time>2022-06-25T10:35:29Z</time>
      </trkpt>
      <trkpt lat="46.43181" lon="4.76036">
        <ele>263</ele>
        <time>2022-06-25T10:36:12Z</time>
      </trkpt>
      <trkpt lat="46.43182" lon="4.76023">
        <ele>263.2</ele>
        <time>2022-06-25T10:37:11Z</time>
      </trkpt>
      <trkpt lat="46.43183" lon="4.76023">
        <ele>263.2</ele>
        <time>2022-06-25T10:37:12Z</time>
      </trkpt>
      <trkpt lat="46.43183" lon="4.76023">
        <ele>263.2</ele>
        <time>2022-06-25T10:37:40Z</time>
      </trkpt>
      <trkpt lat="46.43183" lon="4.76023">
        <ele>263.6</ele>
        <time>2022-06-25T10:38:44Z</time>
      </trkpt>
      <trkpt lat="46.43183" lon="4.76023">
        <ele>263.4</ele>
        <time>2022-06-25T10:39:44Z</time>
      </trkpt>
      <trkpt lat="46.43183" lon="4.76023">
        <ele>263.8</ele>
        <time>2022-06-25T10:40:53Z</time>
      </trkpt>
      <trkpt lat="46.43183" lon="4.76023">
        <ele>263.2</ele>
        <time>2022-06-25T10:41:46Z</time>
      </trkpt>
      <trkpt lat="46.43184" lon="4.76037">
        <ele>263.2</ele>
        <time>2022-06-25T10:42:32Z</time>
      </trkpt>
      <trkpt lat="46.43183" lon="4.7604">
        <ele>263.2</ele>
        <time>2022-06-25T10:42:33Z</time>
      </trkpt>
      <trkpt lat="46.43182" lon="4.76042">
        <ele>263.2</ele>
        <time>2022-06-25T10:42:34Z</time>
      </trkpt>
      <trkpt lat="46.43181" lon="4.76043">
        <ele>263.2</ele>
        <time>2022-06-25T10:42:36Z</time>
      </trkpt>
      <trkpt lat="46.43181" lon="4.76043">
        <ele>263.2</ele>
        <time>2022-06-25T10:42:37Z</time>
      </trkpt>
      <trkpt lat="46.4318" lon="4.76043">
        <ele>263.2</ele>
        <time>2022-06-25T10:42:38Z</time>
      </trkpt>
      <trkpt lat="46.43179" lon="4.76044">
        <ele>263.2</ele>
        <time>2022-06-25T10:42:41Z</time>
      </trkpt>
      <trkpt lat="46.43179" lon="4.76044">
        <ele>263.2</ele>
        <time>2022-06-25T10:42:42Z</time>
      </trkpt>
      <trkpt lat="46.43178" lon="4.76044">
        <ele>263.2</ele>
        <time>2022-06-25T10:42:45Z</time>
      </trkpt>
      <trkpt lat="46.43177" lon="4.76045">
        <ele>263.2</ele>
        <time>2022-06-25T10:42:46Z</time>
      </trkpt>
      <trkpt lat="46.43176" lon="4.76046">
        <ele>263.2</ele>
        <time>2022-06-25T10:42:47Z</time>
      </trkpt>
      <trkpt lat="46.43175" lon="4.76047">
        <ele>263.2</ele>
        <time>2022-06-25T10:42:49Z</time>
      </trkpt>
      <trkpt lat="46.43175" lon="4.76048">
        <ele>263.2</ele>
        <time>2022-06-25T10:42:50Z</time>
      </trkpt>
      <trkpt lat="46.43175" lon="4.76049">
        <ele>263.2</ele>
        <time>2022-06-25T10:42:51Z</time>
      </trkpt>
      <trkpt lat="46.43174" lon="4.76049">
        <ele>263.2</ele>
        <time>2022-06-25T10:42:52Z</time>
      </trkpt>
      <trkpt lat="46.43174" lon="4.7605">
        <ele>263.2</ele>
        <time>2022-06-25T10:42:53Z</time>
      </trkpt>
      <trkpt lat="46.43173" lon="4.76051">
        <ele>263.2</ele>
        <time>2022-06-25T10:42:54Z</time>
      </trkpt>
      <trkpt lat="46.43173" lon="4.76052">
        <ele>263.2</ele>
        <time>2022-06-25T10:42:57Z</time>
      </trkpt>
      <trkpt lat="46.43172" lon="4.76053">
        <ele>263.2</ele>
        <time>2022-06-25T10:42:58Z</time>
      </trkpt>
      <trkpt lat="46.43172" lon="4.76054">
        <ele>263.2</ele>
        <time>2022-06-25T10:42:59Z</time>
      </trkpt>
      <trkpt lat="46.43171" lon="4.76054">
        <ele>263.2</ele>
        <time>2022-06-25T10:43:00Z</time>
      </trkpt>
      <trkpt lat="46.43171" lon="4.76055">
        <ele>263.2</ele>
        <time>2022-06-25T10:43:01Z</time>
      </trkpt>
      <trkpt lat="46.43171" lon="4.76056">
        <ele>263.2</ele>
        <time>2022-06-25T10:43:02Z</time>
      </trkpt>
      <trkpt lat="46.4317" lon="4.76057">
        <ele>263.2</ele>
        <time>2022-06-25T10:43:03Z</time>
      </trkpt>
      <trkpt lat="46.43169" lon="4.76058">
        <ele>263.2</ele>
        <time>2022-06-25T10:43:05Z</time>
      </trkpt>
      <trkpt lat="46.43169" lon="4.76059">
        <ele>263.2</ele>
        <time>2022-06-25T10:43:06Z</time>
      </trkpt>
      <trkpt lat="46.43168" lon="4.76061">
        <ele>263.2</ele>
        <time>2022-06-25T10:43:07Z</time>
      </trkpt>
      <trkpt lat="46.43168" lon="4.76063">
        <ele>263.2</ele>
        <time>2022-06-25T10:43:08Z</time>
      </trkpt>
      <trkpt lat="46.43167" lon="4.76064">
        <ele>263.2</ele>
        <time>2022-06-25T10:43:09Z</time>
      </trkpt>
      <trkpt lat="46.43167" lon="4.76065">
        <ele>263.2</ele>
        <time>2022-06-25T10:43:10Z</time>
      </trkpt>
      <trkpt lat="46.43166" lon="4.76066">
        <ele>263.2</ele>
        <time>2022-06-25T10:43:11Z</time>
      </trkpt>
      <trkpt lat="46.43166" lon="4.76067">
        <ele>263.2</ele>
        <time>2022-06-25T10:43:12Z</time>
      </trkpt>
      <trkpt lat="46.43166" lon="4.76068">
        <ele>263.2</ele>
        <time>2022-06-25T10:43:13Z</time>
      </trkpt>
      <trkpt lat="46.43165" lon="4.76069">
        <ele>263.2</ele>
        <time>2022-06-25T10:43:14Z</time>
      </trkpt>
      <trkpt lat="46.43165" lon="4.7607">
        <ele>263.2</ele>
        <time>2022-06-25T10:43:15Z</time>
      </trkpt>
      <trkpt lat="46.43164" lon="4.76071">
        <ele>263.2</ele>
        <time>2022-06-25T10:43:16Z</time>
      </trkpt>
      <trkpt lat="46.43164" lon="4.76072">
        <ele>263.2</ele>
        <time>2022-06-25T10:43:17Z</time>
      </trkpt>
      <trkpt lat="46.43163" lon="4.76073">
        <ele>263.2</ele>
        <time>2022-06-25T10:43:18Z</time>
      </trkpt>
      <trkpt lat="46.43163" lon="4.76074">
        <ele>263.2</ele>
        <time>2022-06-25T10:43:19Z</time>
      </trkpt>
      <trkpt lat="46.43162" lon="4.76075">
        <ele>263.2</ele>
        <time>2022-06-25T10:43:20Z</time>
      </trkpt>
      <trkpt lat="46.43162" lon="4.76076">
        <ele>263.2</ele>
        <time>2022-06-25T10:43:21Z</time>
      </trkpt>
      <trkpt lat="46.43162" lon="4.76077">
        <ele>263.2</ele>
        <time>2022-06-25T10:43:22Z</time>
      </trkpt>
      <trkpt lat="46.43161" lon="4.76079">
        <ele>263.2</ele>
        <time>2022-06-25T10:43:23Z</time>
      </trkpt>
      <trkpt lat="46.43161" lon="4.7608">
        <ele>263</ele>
        <time>2022-06-25T10:43:24Z</time>
      </trkpt>
      <trkpt lat="46.4316" lon="4.76081">
        <ele>263</ele>
        <time>2022-06-25T10:43:25Z</time>
      </trkpt>
      <trkpt lat="46.4316" lon="4.76082">
        <ele>263</ele>
        <time>2022-06-25T10:43:26Z</time>
      </trkpt>
      <trkpt lat="46.43159" lon="4.76083">
        <ele>262.8</ele>
        <time>2022-06-25T10:43:27Z</time>
      </trkpt>
      <trkpt lat="46.43159" lon="4.76084">
        <ele>262.8</ele>
        <time>2022-06-25T10:43:28Z</time>
      </trkpt>
      <trkpt lat="46.43158" lon="4.76085">
        <ele>262.8</ele>
        <time>2022-06-25T10:43:29Z</time>
      </trkpt>
      <trkpt lat="46.43158" lon="4.76086">
        <ele>262.4</ele>
        <time>2022-06-25T10:43:30Z</time>
      </trkpt>
      <trkpt lat="46.43158" lon="4.76087">
        <ele>262.4</ele>
        <time>2022-06-25T10:43:31Z</time>
      </trkpt>
      <trkpt lat="46.43157" lon="4.76088">
        <ele>262.2</ele>
        <time>2022-06-25T10:43:32Z</time>
      </trkpt>
      <trkpt lat="46.43157" lon="4.76089">
        <ele>262.2</ele>
        <time>2022-06-25T10:43:34Z</time>
      </trkpt>
      <trkpt lat="46.43156" lon="4.7609">
        <ele>262.2</ele>
        <time>2022-06-25T10:43:35Z</time>
      </trkpt>
      <trkpt lat="46.43156" lon="4.76091">
        <ele>262.2</ele>
        <time>2022-06-25T10:43:36Z</time>
      </trkpt>
      <trkpt lat="46.43155" lon="4.76092">
        <ele>262.2</ele>
        <time>2022-06-25T10:43:37Z</time>
      </trkpt>
      <trkpt lat="46.43155" lon="4.76093">
        <ele>262.2</ele>
        <time>2022-06-25T10:43:38Z</time>
      </trkpt>
      <trkpt lat="46.43154" lon="4.76095">
        <ele>262.2</ele>
        <time>2022-06-25T10:43:39Z</time>
      </trkpt>
      <trkpt lat="46.43154" lon="4.76096">
        <ele>262.2</ele>
        <time>2022-06-25T10:43:40Z</time>
      </trkpt>
      <trkpt lat="46.43153" lon="4.76097">
        <ele>262.2</ele>
        <time>2022-06-25T10:43:41Z</time>
      </trkpt>
      <trkpt lat="46.43153" lon="4.76098">
        <ele>262.2</ele>
        <time>2022-06-25T10:43:42Z</time>
      </trkpt>
      <trkpt lat="46.43152" lon="4.76098">
        <ele>262.2</ele>
        <time>2022-06-25T10:43:43Z</time>
      </trkpt>
      <trkpt lat="46.43152" lon="4.76099">
        <ele>262.2</ele>
        <time>2022-06-25T10:43:45Z</time>
      </trkpt>
      <trkpt lat="46.43152" lon="4.76099">
        <ele>262.2</ele>
        <time>2022-06-25T10:43:46Z</time>
      </trkpt>
      <trkpt lat="46.43152" lon="4.76099">
        <ele>262.2</ele>
        <time>2022-06-25T10:43:48Z</time>
      </trkpt>
      <trkpt lat="46.43152" lon="4.76099">
        <ele>262.2</ele>
        <time>2022-06-25T10:43:50Z</time>
      </trkpt>
      <trkpt lat="46.43152" lon="4.761">
        <ele>262.2</ele>
        <time>2022-06-25T10:43:55Z</time>
      </trkpt>
      <trkpt lat="46.43152" lon="4.761">
        <ele>262.2</ele>
        <time>2022-06-25T10:43:57Z</time>
      </trkpt>
      <trkpt lat="46.43152" lon="4.761">
        <ele>262.2</ele>
        <time>2022-06-25T10:43:59Z</time>
      </trkpt>
      <trkpt lat="46.43152" lon="4.76101">
        <ele>262.4</ele>
        <time>2022-06-25T10:44:01Z</time>
      </trkpt>
      <trkpt lat="46.43152" lon="4.76101">
        <ele>262.4</ele>
        <time>2022-06-25T10:44:02Z</time>
      </trkpt>
      <trkpt lat="46.43152" lon="4.76101">
        <ele>262.4</ele>
        <time>2022-06-25T10:44:04Z</time>
      </trkpt>
      <trkpt lat="46.43152" lon="4.76101">
        <ele>262.4</ele>
        <time>2022-06-25T10:44:06Z</time>
      </trkpt>
      <trkpt lat="46.43152" lon="4.76102">
        <ele>262.4</ele>
        <time>2022-06-25T10:44:07Z</time>
      </trkpt>
      <trkpt lat="46.43152" lon="4.76102">
        <ele>262.4</ele>
        <time>2022-06-25T10:44:13Z</time>
      </trkpt>
      <trkpt lat="46.43152" lon="4.76102">
        <ele>262.4</ele>
        <time>2022-06-25T10:44:15Z</time>
      </trkpt>
      <trkpt lat="46.43152" lon="4.76103">
        <ele>262.4</ele>
        <time>2022-06-25T10:44:17Z</time>
      </trkpt>
      <trkpt lat="46.43152" lon="4.76103">
        <ele>262.4</ele>
        <time>2022-06-25T10:44:18Z</time>
      </trkpt>
      <trkpt lat="46.43152" lon="4.76103">
        <ele>262.4</ele>
        <time>2022-06-25T10:44:20Z</time>
      </trkpt>
      <trkpt lat="46.43152" lon="4.76104">
        <ele>262.4</ele>
        <time>2022-06-25T10:44:22Z</time>
      </trkpt>
      <trkpt lat="46.43152" lon="4.76104">
        <ele>262.4</ele>
        <time>2022-06-25T10:44:23Z</time>
      </trkpt>
      <trkpt lat="46.43152" lon="4.76104">
        <ele>262.4</ele>
        <time>2022-06-25T10:44:27Z</time>
      </trkpt>
      <trkpt lat="46.43153" lon="4.76104">
        <ele>262.4</ele>
        <time>2022-06-25T10:44:29Z</time>
      </trkpt>
      <trkpt lat="46.43153" lon="4.76105">
        <ele>262.4</ele>
        <time>2022-06-25T10:44:30Z</time>
      </trkpt>
      <trkpt lat="46.43153" lon="4.76105">
        <ele>262.4</ele>
        <time>2022-06-25T10:44:32Z</time>
      </trkpt>
      <trkpt lat="46.43153" lon="4.76105">
        <ele>262.4</ele>
        <time>2022-06-25T10:44:34Z</time>
      </trkpt>
      <trkpt lat="46.43153" lon="4.76106">
        <ele>262.4</ele>
        <time>2022-06-25T10:44:36Z</time>
      </trkpt>
      <trkpt lat="46.43153" lon="4.76106">
        <ele>262.4</ele>
        <time>2022-06-25T10:44:37Z</time>
      </trkpt>
      <trkpt lat="46.43153" lon="4.76106">
        <ele>262.4</ele>
        <time>2022-06-25T10:44:39Z</time>
      </trkpt>
      <trkpt lat="46.43153" lon="4.76106">
        <ele>262.6</ele>
        <time>2022-06-25T10:44:43Z</time>
      </trkpt>
      <trkpt lat="46.43153" lon="4.76107">
        <ele>262.6</ele>
        <time>2022-06-25T10:44:44Z</time>
      </trkpt>
      <trkpt lat="46.43153" lon="4.76107">
        <ele>262.6</ele>
        <time>2022-06-25T10:44:52Z</time>
      </trkpt>
      <trkpt lat="46.43153" lon="4.76107">
        <ele>262.6</ele>
        <time>2022-06-25T10:44:54Z</time>
      </trkpt>
      <trkpt lat="46.43153" lon="4.76108">
        <ele>262.6</ele>
        <time>2022-06-25T10:44:56Z</time>
      </trkpt>
      <trkpt lat="46.43153" lon="4.76108">
        <ele>262.6</ele>
        <time>2022-06-25T10:44:57Z</time>
      </trkpt>
      <trkpt lat="46.43153" lon="4.76108">
        <ele>262.6</ele>
        <time>2022-06-25T10:44:59Z</time>
      </trkpt>
      <trkpt lat="46.43153" lon="4.76108">
        <ele>262.6</ele>
        <time>2022-06-25T10:45:01Z</time>
      </trkpt>
      <trkpt lat="46.43153" lon="4.76109">
        <ele>262.6</ele>
        <time>2022-06-25T10:45:02Z</time>
      </trkpt>
      <trkpt lat="46.43153" lon="4.76109">
        <ele>262.6</ele>
        <time>2022-06-25T10:45:04Z</time>
      </trkpt>
      <trkpt lat="46.43153" lon="4.76109">
        <ele>262.6</ele>
        <time>2022-06-25T10:45:06Z</time>
      </trkpt>
      <trkpt lat="46.43153" lon="4.7611">
        <ele>262.6</ele>
        <time>2022-06-25T10:45:07Z</time>
      </trkpt>
      <trkpt lat="46.43153" lon="4.7611">
        <ele>262.6</ele>
        <time>2022-06-25T10:45:09Z</time>
      </trkpt>
      <trkpt lat="46.43153" lon="4.7611">
        <ele>262.6</ele>
        <time>2022-06-25T10:45:11Z</time>
      </trkpt>
      <trkpt lat="46.43153" lon="4.76111">
        <ele>262.6</ele>
        <time>2022-06-25T10:45:13Z</time>
      </trkpt>
      <trkpt lat="46.43153" lon="4.76111">
        <ele>262.6</ele>
        <time>2022-06-25T10:45:14Z</time>
      </trkpt>
      <trkpt lat="46.43153" lon="4.76111">
        <ele>262.6</ele>
        <time>2022-06-25T10:45:16Z</time>
      </trkpt>
      <trkpt lat="46.43153" lon="4.76111">
        <ele>262.6</ele>
        <time>2022-06-25T10:45:18Z</time>
      </trkpt>
      <trkpt lat="46.43153" lon="4.76112">
        <ele>262.4</ele>
        <time>2022-06-25T10:45:19Z</time>
      </trkpt>
      <trkpt lat="46.43153" lon="4.76112">
        <ele>262.4</ele>
        <time>2022-06-25T10:45:22Z</time>
      </trkpt>
      <trkpt lat="46.43153" lon="4.76112">
        <ele>262.4</ele>
        <time>2022-06-25T10:45:24Z</time>
      </trkpt>
      <trkpt lat="46.43153" lon="4.76113">
        <ele>262.4</ele>
        <time>2022-06-25T10:45:26Z</time>
      </trkpt>
      <trkpt lat="46.43153" lon="4.76113">
        <ele>262.4</ele>
        <time>2022-06-25T10:45:27Z</time>
      </trkpt>
      <trkpt lat="46.43153" lon="4.76113">
        <ele>262.4</ele>
        <time>2022-06-25T10:45:29Z</time>
      </trkpt>
      <trkpt lat="46.43153" lon="4.76113">
        <ele>262.4</ele>
        <time>2022-06-25T10:45:31Z</time>
      </trkpt>
      <trkpt lat="46.43153" lon="4.76114">
        <ele>262.4</ele>
        <time>2022-06-25T10:45:32Z</time>
      </trkpt>
      <trkpt lat="46.43153" lon="4.76114">
        <ele>262.4</ele>
        <time>2022-06-25T10:45:34Z</time>
      </trkpt>
      <trkpt lat="46.43153" lon="4.76114">
        <ele>262.4</ele>
        <time>2022-06-25T10:45:36Z</time>
      </trkpt>
      <trkpt lat="46.43153" lon="4.76115">
        <ele>262.4</ele>
        <time>2022-06-25T10:45:38Z</time>
      </trkpt>
      <trkpt lat="46.43153" lon="4.76115">
        <ele>262.4</ele>
        <time>2022-06-25T10:45:39Z</time>
      </trkpt>
      <trkpt lat="46.43153" lon="4.76115">
        <ele>262.4</ele>
        <time>2022-06-25T10:45:41Z</time>
      </trkpt>
      <trkpt lat="46.43153" lon="4.76115">
        <ele>262.4</ele>
        <time>2022-06-25T10:45:43Z</time>
      </trkpt>
      <trkpt lat="46.43153" lon="4.76116">
        <ele>262.4</ele>
        <time>2022-06-25T10:45:44Z</time>
      </trkpt>
      <trkpt lat="46.43153" lon="4.76116">
        <ele>262.4</ele>
        <time>2022-06-25T10:45:46Z</time>
      </trkpt>
      <trkpt lat="46.43153" lon="4.76116">
        <ele>262.4</ele>
        <time>2022-06-25T10:45:48Z</time>
      </trkpt>
      <trkpt lat="46.43153" lon="4.76117">
        <ele>262.4</ele>
        <time>2022-06-25T10:45:49Z</time>
      </trkpt>
      <trkpt lat="46.43153" lon="4.76117">
        <ele>262.4</ele>
        <time>2022-06-25T10:45:51Z</time>
      </trkpt>
      <trkpt lat="46.43153" lon="4.76117">
        <ele>262.4</ele>
        <time>2022-06-25T10:45:53Z</time>
      </trkpt>
      <trkpt lat="46.43153" lon="4.76118">
        <ele>262.4</ele>
        <time>2022-06-25T10:45:55Z</time>
      </trkpt>
      <trkpt lat="46.43153" lon="4.76118">
        <ele>262.4</ele>
        <time>2022-06-25T10:45:56Z</time>
      </trkpt>
      <trkpt lat="46.43153" lon="4.76118">
        <ele>262.4</ele>
        <time>2022-06-25T10:45:59Z</time>
      </trkpt>
      <trkpt lat="46.43153" lon="4.76118">
        <ele>262.4</ele>
        <time>2022-06-25T10:46:01Z</time>
      </trkpt>
      <trkpt lat="46.43153" lon="4.76119">
        <ele>262.4</ele>
        <time>2022-06-25T10:46:02Z</time>
      </trkpt>
      <trkpt lat="46.43153" lon="4.76119">
        <ele>262.4</ele>
        <time>2022-06-25T10:46:04Z</time>
      </trkpt>
      <trkpt lat="46.43153" lon="4.76119">
        <ele>262.4</ele>
        <time>2022-06-25T10:46:06Z</time>
      </trkpt>
      <trkpt lat="46.43153" lon="4.7612">
        <ele>262.4</ele>
        <time>2022-06-25T10:46:08Z</time>
      </trkpt>
      <trkpt lat="46.43153" lon="4.7612">
        <ele>262.4</ele>
        <time>2022-06-25T10:46:09Z</time>
      </trkpt>
      <trkpt lat="46.43153" lon="4.7612">
        <ele>262.4</ele>
        <time>2022-06-25T10:46:11Z</time>
      </trkpt>
      <trkpt lat="46.43153" lon="4.7612">
        <ele>262.4</ele>
        <time>2022-06-25T10:46:13Z</time>
      </trkpt>
      <trkpt lat="46.43153" lon="4.76121">
        <ele>262.4</ele>
        <time>2022-06-25T10:46:14Z</time>
      </trkpt>
      <trkpt lat="46.43153" lon="4.76121">
        <ele>262.4</ele>
        <time>2022-06-25T10:46:16Z</time>
      </trkpt>
      <trkpt lat="46.43153" lon="4.76121">
        <ele>262.4</ele>
        <time>2022-06-25T10:46:18Z</time>
      </trkpt>
      <trkpt lat="46.43153" lon="4.76122">
        <ele>262.4</ele>
        <time>2022-06-25T10:46:20Z</time>
      </trkpt>
      <trkpt lat="46.43153" lon="4.76122">
        <ele>262.2</ele>
        <time>2022-06-25T10:46:21Z</time>
      </trkpt>
      <trkpt lat="46.43153" lon="4.76122">
        <ele>262.2</ele>
        <time>2022-06-25T10:46:23Z</time>
      </trkpt>
      <trkpt lat="46.43153" lon="4.76123">
        <ele>262.2</ele>
        <time>2022-06-25T10:46:25Z</time>
      </trkpt>
      <trkpt lat="46.43153" lon="4.76123">
        <ele>262.2</ele>
        <time>2022-06-25T10:46:26Z</time>
      </trkpt>
      <trkpt lat="46.43153" lon="4.76123">
        <ele>262.2</ele>
        <time>2022-06-25T10:46:28Z</time>
      </trkpt>
      <trkpt lat="46.43153" lon="4.76123">
        <ele>262.2</ele>
        <time>2022-06-25T10:46:30Z</time>
      </trkpt>
      <trkpt lat="46.43153" lon="4.76124">
        <ele>262.2</ele>
        <time>2022-06-25T10:46:31Z</time>
      </trkpt>
      <trkpt lat="46.43153" lon="4.76124">
        <ele>262.2</ele>
        <time>2022-06-25T10:46:33Z</time>
      </trkpt>
      <trkpt lat="46.43153" lon="4.76124">
        <ele>262.2</ele>
        <time>2022-06-25T10:46:35Z</time>
      </trkpt>
      <trkpt lat="46.43153" lon="4.76125">
        <ele>262.2</ele>
        <time>2022-06-25T10:46:39Z</time>
      </trkpt>
      <trkpt lat="46.43153" lon="4.76125">
        <ele>262.2</ele>
        <time>2022-06-25T10:46:42Z</time>
      </trkpt>
      <trkpt lat="46.43153" lon="4.76125">
        <ele>262.2</ele>
        <time>2022-06-25T10:46:46Z</time>
      </trkpt>
      <trkpt lat="46.43153" lon="4.76125">
        <ele>262.4</ele>
        <time>2022-06-25T10:46:51Z</time>
      </trkpt>
      <trkpt lat="46.43153" lon="4.76125">
        <ele>262.4</ele>
        <time>2022-06-25T10:46:56Z</time>
      </trkpt>
      <trkpt lat="46.43153" lon="4.76125">
        <ele>262.4</ele>
        <time>2022-06-25T10:47:00Z</time>
      </trkpt>
      <trkpt lat="46.43153" lon="4.76126">
        <ele>262.4</ele>
        <time>2022-06-25T10:47:02Z</time>
      </trkpt>
      <trkpt lat="46.43153" lon="4.76126">
        <ele>262.4</ele>
        <time>2022-06-25T10:47:06Z</time>
      </trkpt>
      <trkpt lat="46.43153" lon="4.76126">
        <ele>262.4</ele>
        <time>2022-06-25T10:47:10Z</time>
      </trkpt>
      <trkpt lat="46.43153" lon="4.76126">
        <ele>262.4</ele>
        <time>2022-06-25T10:47:14Z</time>
      </trkpt>
      <trkpt lat="46.43153" lon="4.76126">
        <ele>262.4</ele>
        <time>2022-06-25T10:47:19Z</time>
      </trkpt>
      <trkpt lat="46.43153" lon="4.76127">
        <ele>262.4</ele>
        <time>2022-06-25T10:47:23Z</time>
      </trkpt>
      <trkpt lat="46.43153" lon="4.76127">
        <ele>262.4</ele>
        <time>2022-06-25T10:47:25Z</time>
      </trkpt>
      <trkpt lat="46.43153" lon="4.76127">
        <ele>262.6</ele>
        <time>2022-06-25T10:47:29Z</time>
      </trkpt>
      <trkpt lat="46.43153" lon="4.76127">
        <ele>262.4</ele>
        <time>2022-06-25T10:47:38Z</time>
      </trkpt>
      <trkpt lat="46.43153" lon="4.76127">
        <ele>262.4</ele>
        <time>2022-06-25T10:47:42Z</time>
      </trkpt>
      <trkpt lat="46.43153" lon="4.76127">
        <ele>262.4</ele>
        <time>2022-06-25T10:47:46Z</time>
      </trkpt>
      <trkpt lat="46.43153" lon="4.76128">
        <ele>262.6</ele>
        <time>2022-06-25T10:47:48Z</time>
      </trkpt>
      <trkpt lat="46.43153" lon="4.76128">
        <ele>262.6</ele>
        <time>2022-06-25T10:47:52Z</time>
      </trkpt>
      <trkpt lat="46.43153" lon="4.76128">
        <ele>262.6</ele>
        <time>2022-06-25T10:47:58Z</time>
      </trkpt>
      <trkpt lat="46.43153" lon="4.76128">
        <ele>262.6</ele>
        <time>2022-06-25T10:48:02Z</time>
      </trkpt>
      <trkpt lat="46.43153" lon="4.76128">
        <ele>262.6</ele>
        <time>2022-06-25T10:48:06Z</time>
      </trkpt>
      <trkpt lat="46.43153" lon="4.76129">
        <ele>262.6</ele>
        <time>2022-06-25T10:48:10Z</time>
      </trkpt>
      <trkpt lat="46.43153" lon="4.76129">
        <ele>262.6</ele>
        <time>2022-06-25T10:48:12Z</time>
      </trkpt>
      <trkpt lat="46.43153" lon="4.76129">
        <ele>262.6</ele>
        <time>2022-06-25T10:48:16Z</time>
      </trkpt>
      <trkpt lat="46.43153" lon="4.76129">
        <ele>262.6</ele>
        <time>2022-06-25T10:48:20Z</time>
      </trkpt>
      <trkpt lat="46.43153" lon="4.76129">
        <ele>262.6</ele>
        <time>2022-06-25T10:48:24Z</time>
      </trkpt>
      <trkpt lat="46.43153" lon="4.76129">
        <ele>262.6</ele>
        <time>2022-06-25T10:48:28Z</time>
      </trkpt>
      <trkpt lat="46.43153" lon="4.7613">
        <ele>263</ele>
        <time>2022-06-25T10:48:33Z</time>
      </trkpt>
      <trkpt lat="46.43153" lon="4.7613">
        <ele>263</ele>
        <time>2022-06-25T10:48:37Z</time>
      </trkpt>
      <trkpt lat="46.43153" lon="4.7613">
        <ele>263</ele>
        <time>2022-06-25T10:48:45Z</time>
      </trkpt>
      <trkpt lat="46.43153" lon="4.7613">
        <ele>262.6</ele>
        <time>2022-06-25T10:48:49Z</time>
      </trkpt>
      <trkpt lat="46.43153" lon="4.7613">
        <ele>262.6</ele>
        <time>2022-06-25T10:48:53Z</time>
      </trkpt>
      <trkpt lat="46.43153" lon="4.76131">
        <ele>262.6</ele>
        <time>2022-06-25T10:48:57Z</time>
      </trkpt>
      <trkpt lat="46.43153" lon="4.76131">
        <ele>262.6</ele>
        <time>2022-06-25T10:48:59Z</time>
      </trkpt>
      <trkpt lat="46.43153" lon="4.76131">
        <ele>262.6</ele>
        <time>2022-06-25T10:49:03Z</time>
      </trkpt>
      <trkpt lat="46.43153" lon="4.76131">
        <ele>262.6</ele>
        <time>2022-06-25T10:49:07Z</time>
      </trkpt>
      <trkpt lat="46.43153" lon="4.76131">
        <ele>262.6</ele>
        <time>2022-06-25T10:49:12Z</time>
      </trkpt>
      <trkpt lat="46.43153" lon="4.76131">
        <ele>262.6</ele>
        <time>2022-06-25T10:49:16Z</time>
      </trkpt>
      <trkpt lat="46.43153" lon="4.76132">
        <ele>262.6</ele>
        <time>2022-06-25T10:49:20Z</time>
      </trkpt>
      <trkpt lat="46.43153" lon="4.76132">
        <ele>262.6</ele>
        <time>2022-06-25T10:49:24Z</time>
      </trkpt>
      <trkpt lat="46.43153" lon="4.76132">
        <ele>262.4</ele>
        <time>2022-06-25T10:49:33Z</time>
      </trkpt>
      <trkpt lat="46.43153" lon="4.76132">
        <ele>262.4</ele>
        <time>2022-06-25T10:49:39Z</time>
      </trkpt>
      <trkpt lat="46.43153" lon="4.76132">
        <ele>262.4</ele>
        <time>2022-06-25T10:49:43Z</time>
      </trkpt>
      <trkpt lat="46.43153" lon="4.76133">
        <ele>262.8</ele>
        <time>2022-06-25T10:49:47Z</time>
      </trkpt>
      <trkpt lat="46.43153" lon="4.76133">
        <ele>262.8</ele>
        <time>2022-06-25T10:49:49Z</time>
      </trkpt>
      <trkpt lat="46.43153" lon="4.76133">
        <ele>262.8</ele>
        <time>2022-06-25T10:49:54Z</time>
      </trkpt>
      <trkpt lat="46.43153" lon="4.76133">
        <ele>262.8</ele>
        <time>2022-06-25T10:49:59Z</time>
      </trkpt>
      <trkpt lat="46.43153" lon="4.76133">
        <ele>263</ele>
        <time>2022-06-25T10:50:03Z</time>
      </trkpt>
      <trkpt lat="46.43153" lon="4.76133">
        <ele>263</ele>
        <time>2022-06-25T10:50:07Z</time>
      </trkpt>
      <trkpt lat="46.43153" lon="4.76134">
        <ele>262.8</ele>
        <time>2022-06-25T10:50:09Z</time>
      </trkpt>
      <trkpt lat="46.43153" lon="4.76134">
        <ele>262.8</ele>
        <time>2022-06-25T10:50:13Z</time>
      </trkpt>
      <trkpt lat="46.43153" lon="4.76134">
        <ele>262.8</ele>
        <time>2022-06-25T10:50:17Z</time>
      </trkpt>
      <trkpt lat="46.43153" lon="4.76134">
        <ele>262.8</ele>
        <time>2022-06-25T10:50:21Z</time>
      </trkpt>
      <trkpt lat="46.43153" lon="4.76134">
        <ele>262.8</ele>
        <time>2022-06-25T10:50:25Z</time>
      </trkpt>
      <trkpt lat="46.43153" lon="4.76135">
        <ele>262.8</ele>
        <time>2022-06-25T10:50:30Z</time>
      </trkpt>
      <trkpt lat="46.43153" lon="4.76135">
        <ele>262.6</ele>
        <time>2022-06-25T10:50:32Z</time>
      </trkpt>
      <trkpt lat="46.43153" lon="4.76135">
        <ele>262.6</ele>
        <time>2022-06-25T10:50:36Z</time>
      </trkpt>
      <trkpt lat="46.43153" lon="4.76135">
        <ele>262.6</ele>
        <time>2022-06-25T10:50:40Z</time>
      </trkpt>
      <trkpt lat="46.43153" lon="4.76135">
        <ele>262.4</ele>
        <time>2022-06-25T10:50:44Z</time>
      </trkpt>
      <trkpt lat="46.43153" lon="4.76135">
        <ele>262.4</ele>
        <time>2022-06-25T10:50:50Z</time>
      </trkpt>
      <trkpt lat="46.43153" lon="4.76136">
        <ele>262.4</ele>
        <time>2022-06-25T10:50:52Z</time>
      </trkpt>
      <trkpt lat="46.43153" lon="4.76136">
        <ele>262.6</ele>
        <time>2022-06-25T10:50:56Z</time>
      </trkpt>
      <trkpt lat="46.43153" lon="4.76136">
        <ele>262.6</ele>
        <time>2022-06-25T10:51:00Z</time>
      </trkpt>
      <trkpt lat="46.43153" lon="4.76136">
        <ele>262.6</ele>
        <time>2022-06-25T10:51:05Z</time>
      </trkpt>
      <trkpt lat="46.43153" lon="4.76136">
        <ele>262.6</ele>
        <time>2022-06-25T10:51:09Z</time>
      </trkpt>
      <trkpt lat="46.43153" lon="4.76137">
        <ele>262.6</ele>
        <time>2022-06-25T10:51:13Z</time>
      </trkpt>
      <trkpt lat="46.43153" lon="4.76137">
        <ele>262.6</ele>
        <time>2022-06-25T10:51:15Z</time>
      </trkpt>
      <trkpt lat="46.43153" lon="4.76137">
        <ele>262.8</ele>
        <time>2022-06-25T10:51:26Z</time>
      </trkpt>
      <trkpt lat="46.43153" lon="4.76137">
        <ele>262.8</ele>
        <time>2022-06-25T10:51:30Z</time>
      </trkpt>
      <trkpt lat="46.43153" lon="4.76137">
        <ele>262.8</ele>
        <time>2022-06-25T10:51:36Z</time>
      </trkpt>
      <trkpt lat="46.43153" lon="4.76137">
        <ele>262.8</ele>
        <time>2022-06-25T10:51:40Z</time>
      </trkpt>
      <trkpt lat="46.43153" lon="4.76138">
        <ele>262.8</ele>
        <time>2022-06-25T10:51:42Z</time>
      </trkpt>
      <trkpt lat="46.43153" lon="4.76138">
        <ele>262.8</ele>
        <time>2022-06-25T10:51:47Z</time>
      </trkpt>
      <trkpt lat="46.43153" lon="4.76138">
        <ele>263</ele>
        <time>2022-06-25T10:51:51Z</time>
      </trkpt>
      <trkpt lat="46.43153" lon="4.76138">
        <ele>263</ele>
        <time>2022-06-25T10:51:55Z</time>
      </trkpt>
      <trkpt lat="46.43153" lon="4.76138">
        <ele>263</ele>
        <time>2022-06-25T10:51:59Z</time>
      </trkpt>
      <trkpt lat="46.43153" lon="4.76138">
        <ele>263</ele>
        <time>2022-06-25T10:52:02Z</time>
      </trkpt>
      <trkpt lat="46.43153" lon="4.76138">
        <ele>262.8</ele>
        <time>2022-06-25T10:52:22Z</time>
      </trkpt>
      <trkpt lat="46.43153" lon="4.76138">
        <ele>262.6</ele>
        <time>2022-06-25T10:52:54Z</time>
      </trkpt>
      <trkpt lat="46.43153" lon="4.76138">
        <ele>262.6</ele>
        <time>2022-06-25T10:53:41Z</time>
      </trkpt>
      <trkpt lat="46.43154" lon="4.76124">
        <ele>262.6</ele>
        <time>2022-06-25T10:53:44Z</time>
      </trkpt>
      <trkpt lat="46.43153" lon="4.76123">
        <ele>262.6</ele>
        <time>2022-06-25T10:53:46Z</time>
      </trkpt>
      <trkpt lat="46.43153" lon="4.76123">
        <ele>262.6</ele>
        <time>2022-06-25T10:53:47Z</time>
      </trkpt>
      <trkpt lat="46.43153" lon="4.76123">
        <ele>262.6</ele>
        <time>2022-06-25T10:54:23Z</time>
      </trkpt>
      <trkpt lat="46.43153" lon="4.76123">
        <ele>263</ele>
        <time>2022-06-25T10:55:00Z</time>
      </trkpt>
      <trkpt lat="46.43153" lon="4.76123">
        <ele>262.8</ele>
        <time>2022-06-25T10:55:37Z</time>
      </trkpt>
      <trkpt lat="46.43153" lon="4.76123">
        <ele>262.8</ele>
        <time>2022-06-25T10:56:09Z</time>
      </trkpt>
      <trkpt lat="46.43153" lon="4.76123">
        <ele>263</ele>
        <time>2022-06-25T10:56:45Z</time>
      </trkpt>
      <trkpt lat="46.43153" lon="4.76123">
        <ele>263</ele>
        <time>2022-06-25T10:57:19Z</time>
      </trkpt>
      <trkpt lat="46.43153" lon="4.76123">
        <ele>262.8</ele>
        <time>2022-06-25T10:57:51Z</time>
      </trkpt>
      <trkpt lat="46.43153" lon="4.76123">
        <ele>263</ele>
        <time>2022-06-25T10:58:30Z</time>
      </trkpt>
      <trkpt lat="46.43154" lon="4.7611">
        <ele>263</ele>
        <time>2022-06-25T10:59:03Z</time>
      </trkpt>
      <trkpt lat="46.43154" lon="4.7611">
        <ele>263</ele>
        <time>2022-06-25T10:59:04Z</time>
      </trkpt>
      <trkpt lat="46.43154" lon="4.76109">
        <ele>263</ele>
        <time>2022-06-25T10:59:05Z</time>
      </trkpt>
      <trkpt lat="46.43154" lon="4.76109">
        <ele>263.2</ele>
        <time>2022-06-25T10:59:23Z</time>
      </trkpt>
      <trkpt lat="46.43159" lon="4.7612">
        <ele>263.2</ele>
        <time>2022-06-25T11:00:02Z</time>
      </trkpt>
      <trkpt lat="46.4316" lon="4.76121">
        <ele>263.2</ele>
        <time>2022-06-25T11:00:03Z</time>
      </trkpt>
      <trkpt lat="46.4316" lon="4.7612">
        <ele>263.2</ele>
        <time>2022-06-25T11:00:23Z</time>
      </trkpt>
      <trkpt lat="46.4316" lon="4.7612">
        <ele>263.2</ele>
        <time>2022-06-25T11:00:29Z</time>
      </trkpt>
      <trkpt lat="46.4316" lon="4.7612">
        <ele>263.2</ele>
        <time>2022-06-25T11:00:37Z</time>
      </trkpt>
      <trkpt lat="46.4316" lon="4.7612">
        <ele>263.2</ele>
        <time>2022-06-25T11:00:45Z</time>
      </trkpt>
      <trkpt lat="46.4316" lon="4.7612">
        <ele>263.2</ele>
        <time>2022-06-25T11:01:02Z</time>
      </trkpt>
      <trkpt lat="46.4316" lon="4.7612">
        <ele>263.4</ele>
        <time>2022-06-25T11:01:29Z</time>
      </trkpt>
      <trkpt lat="46.4316" lon="4.76119">
        <ele>263.4</ele>
        <time>2022-06-25T11:01:33Z</time>
      </trkpt>
      <trkpt lat="46.4316" lon="4.76119">
        <ele>263.4</ele>
        <time>2022-06-25T11:01:41Z</time>
      </trkpt>
      <trkpt lat="46.4316" lon="4.76119">
        <ele>263.4</ele>
        <time>2022-06-25T11:01:45Z</time>
      </trkpt>
      <trkpt lat="46.4316" lon="4.76119">
        <ele>263.4</ele>
        <time>2022-06-25T11:01:54Z</time>
      </trkpt>
      <trkpt lat="46.4316" lon="4.76119">
        <ele>263.6</ele>
        <time>2022-06-25T11:02:20Z</time>
      </trkpt>
      <trkpt lat="46.4316" lon="4.76119">
        <ele>263.6</ele>
        <time>2022-06-25T11:02:36Z</time>
      </trkpt>
      <trkpt lat="46.4316" lon="4.76118">
        <ele>263.6</ele>
        <time>2022-06-25T11:02:40Z</time>
      </trkpt>
      <trkpt lat="46.4316" lon="4.76118">
        <ele>263.6</ele>
        <time>2022-06-25T11:02:47Z</time>
      </trkpt>
      <trkpt lat="46.4316" lon="4.76118">
        <ele>263.6</ele>
        <time>2022-06-25T11:02:52Z</time>
      </trkpt>
      <trkpt lat="46.4316" lon="4.76118">
        <ele>263.6</ele>
        <time>2022-06-25T11:03:00Z</time>
      </trkpt>
      <trkpt lat="46.4316" lon="4.76118">
        <ele>263.8</ele>
        <time>2022-06-25T11:03:08Z</time>
      </trkpt>
      <trkpt lat="46.4316" lon="4.76118">
        <ele>263.8</ele>
        <time>2022-06-25T11:03:16Z</time>
      </trkpt>
      <trkpt lat="46.4316" lon="4.76117">
        <ele>263.8</ele>
        <time>2022-06-25T11:03:20Z</time>
      </trkpt>
      <trkpt lat="46.4316" lon="4.76117">
        <ele>263.8</ele>
        <time>2022-06-25T11:03:25Z</time>
      </trkpt>
      <trkpt lat="46.4316" lon="4.76117">
        <ele>263.8</ele>
        <time>2022-06-25T11:03:32Z</time>
      </trkpt>
      <trkpt lat="46.4316" lon="4.76117">
        <ele>263.8</ele>
        <time>2022-06-25T11:03:41Z</time>
      </trkpt>
      <trkpt lat="46.4316" lon="4.76117">
        <ele>263.8</ele>
        <time>2022-06-25T11:04:00Z</time>
      </trkpt>
      <trkpt lat="46.4316" lon="4.76117">
        <ele>263.8</ele>
        <time>2022-06-25T11:04:13Z</time>
      </trkpt>
      <trkpt lat="46.4316" lon="4.76116">
        <ele>263.8</ele>
        <time>2022-06-25T11:04:17Z</time>
      </trkpt>
      <trkpt lat="46.4316" lon="4.76116">
        <ele>263.8</ele>
        <time>2022-06-25T11:04:21Z</time>
      </trkpt>
      <trkpt lat="46.4316" lon="4.76116">
        <ele>263.8</ele>
        <time>2022-06-25T11:04:31Z</time>
      </trkpt>
      <trkpt lat="46.4316" lon="4.76116">
        <ele>263.8</ele>
        <time>2022-06-25T11:04:39Z</time>
      </trkpt>
      <trkpt lat="46.4316" lon="4.76116">
        <ele>263.8</ele>
        <time>2022-06-25T11:04:47Z</time>
      </trkpt>
      <trkpt lat="46.4316" lon="4.76116">
        <ele>264.2</ele>
        <time>2022-06-25T11:04:56Z</time>
      </trkpt>
      <trkpt lat="46.4316" lon="4.76115">
        <ele>263.8</ele>
        <time>2022-06-25T11:05:00Z</time>
      </trkpt>
      <trkpt lat="46.4316" lon="4.76115">
        <ele>263.8</ele>
        <time>2022-06-25T11:05:08Z</time>
      </trkpt>
      <trkpt lat="46.4316" lon="4.76115">
        <ele>263.8</ele>
        <time>2022-06-25T11:05:16Z</time>
      </trkpt>
      <trkpt lat="46.4316" lon="4.76115">
        <ele>263.8</ele>
        <time>2022-06-25T11:05:24Z</time>
      </trkpt>
      <trkpt lat="46.4316" lon="4.76115">
        <ele>263.8</ele>
        <time>2022-06-25T11:05:32Z</time>
      </trkpt>
      <trkpt lat="46.4316" lon="4.76115">
        <ele>263.6</ele>
        <time>2022-06-25T11:05:39Z</time>
      </trkpt>
      <trkpt lat="46.4316" lon="4.76114">
        <ele>263.6</ele>
        <time>2022-06-25T11:05:41Z</time>
      </trkpt>
      <trkpt lat="46.4316" lon="4.76114">
        <ele>263.6</ele>
        <time>2022-06-25T11:05:51Z</time>
      </trkpt>
      <trkpt lat="46.4316" lon="4.76114">
        <ele>263.6</ele>
        <time>2022-06-25T11:05:59Z</time>
      </trkpt>
      <trkpt lat="46.4316" lon="4.76114">
        <ele>263.6</ele>
        <time>2022-06-25T11:06:07Z</time>
      </trkpt>
      <trkpt lat="46.4316" lon="4.76114">
        <ele>263.6</ele>
        <time>2022-06-25T11:06:16Z</time>
      </trkpt>
      <trkpt lat="46.4316" lon="4.76114">
        <ele>263.6</ele>
        <time>2022-06-25T11:06:20Z</time>
      </trkpt>
      <trkpt lat="46.4316" lon="4.76113">
        <ele>263.6</ele>
        <time>2022-06-25T11:06:24Z</time>
      </trkpt>
      <trkpt lat="46.4316" lon="4.76113">
        <ele>263.6</ele>
        <time>2022-06-25T11:06:32Z</time>
      </trkpt>
      <trkpt lat="46.4316" lon="4.76113">
        <ele>263.4</ele>
        <time>2022-06-25T11:06:40Z</time>
      </trkpt>
      <trkpt lat="46.4316" lon="4.76113">
        <ele>263.4</ele>
        <time>2022-06-25T11:06:48Z</time>
      </trkpt>
      <trkpt lat="46.4316" lon="4.76113">
        <ele>263.6</ele>
        <time>2022-06-25T11:06:56Z</time>
      </trkpt>
      <trkpt lat="46.4316" lon="4.76113">
        <ele>263.6</ele>
        <time>2022-06-25T11:07:00Z</time>
      </trkpt>
      <trkpt lat="46.4316" lon="4.76112">
        <ele>263.6</ele>
        <time>2022-06-25T11:07:04Z</time>
      </trkpt>
      <trkpt lat="46.4316" lon="4.76112">
        <ele>263.8</ele>
        <time>2022-06-25T11:07:12Z</time>
      </trkpt>
      <trkpt lat="46.4316" lon="4.76112">
        <ele>263.6</ele>
        <time>2022-06-25T11:07:22Z</time>
      </trkpt>
      <trkpt lat="46.4316" lon="4.76112">
        <ele>263.6</ele>
        <time>2022-06-25T11:07:30Z</time>
      </trkpt>
      <trkpt lat="46.43161" lon="4.76112">
        <ele>263.6</ele>
        <time>2022-06-25T11:07:36Z</time>
      </trkpt>
      <trkpt lat="46.43161" lon="4.76112">
        <ele>263.6</ele>
        <time>2022-06-25T11:07:39Z</time>
      </trkpt>
      <trkpt lat="46.43161" lon="4.76111">
        <ele>263.6</ele>
        <time>2022-06-25T11:07:50Z</time>
      </trkpt>
      <trkpt lat="46.43161" lon="4.76111">
        <ele>263.6</ele>
        <time>2022-06-25T11:07:54Z</time>
      </trkpt>
      <trkpt lat="46.43161" lon="4.76111">
        <ele>263.6</ele>
        <time>2022-06-25T11:08:02Z</time>
      </trkpt>
      <trkpt lat="46.43161" lon="4.76111">
        <ele>263.4</ele>
        <time>2022-06-25T11:08:15Z</time>
      </trkpt>
      <trkpt lat="46.43161" lon="4.76111">
        <ele>263.4</ele>
        <time>2022-06-25T11:08:22Z</time>
      </trkpt>
      <trkpt lat="46.43161" lon="4.76111">
        <ele>263.2</ele>
        <time>2022-06-25T11:08:27Z</time>
      </trkpt>
      <trkpt lat="46.43161" lon="4.7611">
        <ele>263.4</ele>
        <time>2022-06-25T11:08:35Z</time>
      </trkpt>
      <trkpt lat="46.43161" lon="4.7611">
        <ele>263.2</ele>
        <time>2022-06-25T11:08:40Z</time>
      </trkpt>
      <trkpt lat="46.43161" lon="4.7611">
        <ele>263.4</ele>
        <time>2022-06-25T11:08:50Z</time>
      </trkpt>
      <trkpt lat="46.43161" lon="4.7611">
        <ele>263.6</ele>
        <time>2022-06-25T11:08:58Z</time>
      </trkpt>
      <trkpt lat="46.43161" lon="4.7611">
        <ele>263.6</ele>
        <time>2022-06-25T11:09:03Z</time>
      </trkpt>
      <trkpt lat="46.43161" lon="4.7611">
        <ele>263.6</ele>
        <time>2022-06-25T11:09:10Z</time>
      </trkpt>
      <trkpt lat="46.43161" lon="4.76109">
        <ele>263.6</ele>
        <time>2022-06-25T11:09:18Z</time>
      </trkpt>
      <trkpt lat="46.43161" lon="4.76109">
        <ele>263.6</ele>
        <time>2022-06-25T11:09:22Z</time>
      </trkpt>
      <trkpt lat="46.43161" lon="4.76109">
        <ele>263.6</ele>
        <time>2022-06-25T11:09:31Z</time>
      </trkpt>
      <trkpt lat="46.43161" lon="4.76109">
        <ele>263.4</ele>
        <time>2022-06-25T11:09:39Z</time>
      </trkpt>
      <trkpt lat="46.43161" lon="4.76109">
        <ele>263.4</ele>
        <time>2022-06-25T11:09:43Z</time>
      </trkpt>
      <trkpt lat="46.43161" lon="4.76109">
        <ele>263.4</ele>
        <time>2022-06-25T11:09:51Z</time>
      </trkpt>
      <trkpt lat="46.43161" lon="4.76108">
        <ele>263.4</ele>
        <time>2022-06-25T11:09:59Z</time>
      </trkpt>
      <trkpt lat="46.43161" lon="4.76108">
        <ele>263.4</ele>
        <time>2022-06-25T11:10:06Z</time>
      </trkpt>
      <trkpt lat="46.43161" lon="4.76108">
        <ele>263.4</ele>
        <time>2022-06-25T11:10:14Z</time>
      </trkpt>
      <trkpt lat="46.43161" lon="4.76108">
        <ele>263.4</ele>
        <time>2022-06-25T11:10:19Z</time>
      </trkpt>
      <trkpt lat="46.43161" lon="4.76108">
        <ele>263.4</ele>
        <time>2022-06-25T11:10:29Z</time>
      </trkpt>
      <trkpt lat="46.4316" lon="4.76108">
        <ele>263.4</ele>
        <time>2022-06-25T11:10:35Z</time>
      </trkpt>
      <trkpt lat="46.4316" lon="4.76108">
        <ele>263.4</ele>
        <time>2022-06-25T11:10:39Z</time>
      </trkpt>
      <trkpt lat="46.4316" lon="4.76109">
        <ele>263.4</ele>
        <time>2022-06-25T11:10:44Z</time>
      </trkpt>
      <trkpt lat="46.4316" lon="4.76109">
        <ele>263.4</ele>
        <time>2022-06-25T11:10:47Z</time>
      </trkpt>
      <trkpt lat="46.4316" lon="4.76109">
        <ele>263.4</ele>
        <time>2022-06-25T11:10:52Z</time>
      </trkpt>
      <trkpt lat="46.4316" lon="4.76109">
        <ele>263.4</ele>
        <time>2022-06-25T11:10:58Z</time>
      </trkpt>
      <trkpt lat="46.4316" lon="4.76109">
        <ele>263.4</ele>
        <time>2022-06-25T11:11:04Z</time>
      </trkpt>
      <trkpt lat="46.4316" lon="4.76109">
        <ele>263.4</ele>
        <time>2022-06-25T11:11:10Z</time>
      </trkpt>
      <trkpt lat="46.4316" lon="4.76109">
        <ele>263.4</ele>
        <time>2022-06-25T11:11:15Z</time>
      </trkpt>
      <trkpt lat="46.4316" lon="4.76109">
        <ele>263.4</ele>
        <time>2022-06-25T11:11:21Z</time>
      </trkpt>
      <trkpt lat="46.4316" lon="4.76109">
        <ele>263.4</ele>
        <time>2022-06-25T11:11:27Z</time>
      </trkpt>
      <trkpt lat="46.43159" lon="4.7611">
        <ele>263.6</ele>
        <time>2022-06-25T11:11:33Z</time>
      </trkpt>
      <trkpt lat="46.43159" lon="4.7611">
        <ele>263.6</ele>
        <time>2022-06-25T11:11:38Z</time>
      </trkpt>
      <trkpt lat="46.43159" lon="4.7611">
        <ele>263.6</ele>
        <time>2022-06-25T11:11:44Z</time>
      </trkpt>
      <trkpt lat="46.43159" lon="4.7611">
        <ele>263.6</ele>
        <time>2022-06-25T11:11:52Z</time>
      </trkpt>
      <trkpt lat="46.43159" lon="4.7611">
        <ele>263.6</ele>
        <time>2022-06-25T11:12:03Z</time>
      </trkpt>
      <trkpt lat="46.43159" lon="4.7611">
        <ele>263.6</ele>
        <time>2022-06-25T11:12:14Z</time>
      </trkpt>
      <trkpt lat="46.43159" lon="4.7611">
        <ele>263.6</ele>
        <time>2022-06-25T11:12:23Z</time>
      </trkpt>
      <trkpt lat="46.43159" lon="4.7611">
        <ele>263.6</ele>
        <time>2022-06-25T11:12:31Z</time>
      </trkpt>
      <trkpt lat="46.43159" lon="4.7611">
        <ele>263.6</ele>
        <time>2022-06-25T11:12:36Z</time>
      </trkpt>
      <trkpt lat="46.43159" lon="4.76111">
        <ele>263.6</ele>
        <time>2022-06-25T11:12:40Z</time>
      </trkpt>
      <trkpt lat="46.43159" lon="4.76111">
        <ele>263.6</ele>
        <time>2022-06-25T11:12:45Z</time>
      </trkpt>
      <trkpt lat="46.43158" lon="4.76111">
        <ele>263.6</ele>
        <time>2022-06-25T11:12:48Z</time>
      </trkpt>
      <trkpt lat="46.43158" lon="4.76111">
        <ele>263.6</ele>
        <time>2022-06-25T11:13:02Z</time>
      </trkpt>
      <trkpt lat="46.43158" lon="4.76111">
        <ele>263.2</ele>
        <time>2022-06-25T11:13:12Z</time>
      </trkpt>
      <trkpt lat="46.43158" lon="4.76111">
        <ele>263.6</ele>
        <time>2022-06-25T11:13:17Z</time>
      </trkpt>
      <trkpt lat="46.43158" lon="4.76111">
        <ele>263.6</ele>
        <time>2022-06-25T11:13:22Z</time>
      </trkpt>
      <trkpt lat="46.43158" lon="4.76111">
        <ele>263.6</ele>
        <time>2022-06-25T11:13:27Z</time>
      </trkpt>
      <trkpt lat="46.43158" lon="4.76111">
        <ele>263.6</ele>
        <time>2022-06-25T11:13:32Z</time>
      </trkpt>
      <trkpt lat="46.43158" lon="4.76112">
        <ele>263.6</ele>
        <time>2022-06-25T11:13:37Z</time>
      </trkpt>
      <trkpt lat="46.43158" lon="4.76112">
        <ele>263.6</ele>
        <time>2022-06-25T11:13:42Z</time>
      </trkpt>
      <trkpt lat="46.43158" lon="4.76112">
        <ele>263.6</ele>
        <time>2022-06-25T11:13:48Z</time>
      </trkpt>
      <trkpt lat="46.43157" lon="4.76112">
        <ele>263.6</ele>
        <time>2022-06-25T11:13:54Z</time>
      </trkpt>
      <trkpt lat="46.43157" lon="4.76112">
        <ele>263.6</ele>
        <time>2022-06-25T11:13:57Z</time>
      </trkpt>
      <trkpt lat="46.43157" lon="4.76112">
        <ele>263.6</ele>
        <time>2022-06-25T11:14:02Z</time>
      </trkpt>
      <trkpt lat="46.43157" lon="4.76112">
        <ele>263.6</ele>
        <time>2022-06-25T11:14:07Z</time>
      </trkpt>
      <trkpt lat="46.43157" lon="4.76112">
        <ele>263.6</ele>
        <time>2022-06-25T11:14:17Z</time>
      </trkpt>
      <trkpt lat="46.43157" lon="4.76112">
        <ele>263.6</ele>
        <time>2022-06-25T11:14:23Z</time>
      </trkpt>
      <trkpt lat="46.43157" lon="4.76113">
        <ele>263.6</ele>
        <time>2022-06-25T11:14:27Z</time>
      </trkpt>
      <trkpt lat="46.43157" lon="4.76113">
        <ele>263.6</ele>
        <time>2022-06-25T11:14:33Z</time>
      </trkpt>
      <trkpt lat="46.43157" lon="4.76113">
        <ele>263.6</ele>
        <time>2022-06-25T11:14:38Z</time>
      </trkpt>
      <trkpt lat="46.43157" lon="4.76113">
        <ele>263.6</ele>
        <time>2022-06-25T11:14:43Z</time>
      </trkpt>
      <trkpt lat="46.43157" lon="4.76113">
        <ele>263.6</ele>
        <time>2022-06-25T11:14:56Z</time>
      </trkpt>
      <trkpt lat="46.43156" lon="4.76113">
        <ele>263.6</ele>
        <time>2022-06-25T11:14:57Z</time>
      </trkpt>
      <trkpt lat="46.43156" lon="4.76113">
        <ele>263.6</ele>
        <time>2022-06-25T11:15:02Z</time>
      </trkpt>
      <trkpt lat="46.43156" lon="4.76113">
        <ele>263.8</ele>
        <time>2022-06-25T11:15:08Z</time>
      </trkpt>
      <trkpt lat="46.43156" lon="4.76113">
        <ele>263.8</ele>
        <time>2022-06-25T11:15:14Z</time>
      </trkpt>
      <trkpt lat="46.43156" lon="4.76113">
        <ele>263.6</ele>
        <time>2022-06-25T11:15:20Z</time>
      </trkpt>
      <trkpt lat="46.43156" lon="4.76114">
        <ele>263.6</ele>
        <time>2022-06-25T11:15:21Z</time>
      </trkpt>
      <trkpt lat="46.43156" lon="4.76114">
        <ele>263.6</ele>
        <time>2022-06-25T11:15:26Z</time>
      </trkpt>
      <trkpt lat="46.43156" lon="4.76114">
        <ele>263.6</ele>
        <time>2022-06-25T11:15:36Z</time>
      </trkpt>
      <trkpt lat="46.43156" lon="4.76114">
        <ele>263.6</ele>
        <time>2022-06-25T11:15:40Z</time>
      </trkpt>
      <trkpt lat="46.43156" lon="4.76114">
        <ele>263.6</ele>
        <time>2022-06-25T11:15:45Z</time>
      </trkpt>
      <trkpt lat="46.43156" lon="4.76114">
        <ele>263.6</ele>
        <time>2022-06-25T11:15:50Z</time>
      </trkpt>
      <trkpt lat="46.43155" lon="4.76114">
        <ele>263.6</ele>
        <time>2022-06-25T11:15:54Z</time>
      </trkpt>
      <trkpt lat="46.43155" lon="4.76114">
        <ele>263.6</ele>
        <time>2022-06-25T11:16:00Z</time>
      </trkpt>
      <trkpt lat="46.43155" lon="4.76114">
        <ele>263.6</ele>
        <time>2022-06-25T11:16:07Z</time>
      </trkpt>
      <trkpt lat="46.43155" lon="4.76115">
        <ele>263.8</ele>
        <time>2022-06-25T11:16:11Z</time>
      </trkpt>
      <trkpt lat="46.43155" lon="4.76115">
        <ele>263.8</ele>
        <time>2022-06-25T11:16:16Z</time>
      </trkpt>
      <trkpt lat="46.43155" lon="4.76115">
        <ele>264</ele>
        <time>2022-06-25T11:16:21Z</time>
      </trkpt>
      <trkpt lat="46.43155" lon="4.76115">
        <ele>264</ele>
        <time>2022-06-25T11:16:26Z</time>
      </trkpt>
      <trkpt lat="46.43155" lon="4.76115">
        <ele>264</ele>
        <time>2022-06-25T11:16:35Z</time>
      </trkpt>
      <trkpt lat="46.43155" lon="4.76115">
        <ele>264</ele>
        <time>2022-06-25T11:16:41Z</time>
      </trkpt>
      <trkpt lat="46.43155" lon="4.76115">
        <ele>264</ele>
        <time>2022-06-25T11:16:56Z</time>
      </trkpt>
      <trkpt lat="46.43154" lon="4.76115">
        <ele>264</ele>
        <time>2022-06-25T11:17:01Z</time>
      </trkpt>
      <trkpt lat="46.43154" lon="4.76115">
        <ele>264</ele>
        <time>2022-06-25T11:17:04Z</time>
      </trkpt>
      <trkpt lat="46.43154" lon="4.76116">
        <ele>264.2</ele>
        <time>2022-06-25T11:17:10Z</time>
      </trkpt>
      <trkpt lat="46.43154" lon="4.76116">
        <ele>264.2</ele>
        <time>2022-06-25T11:17:14Z</time>
      </trkpt>
      <trkpt lat="46.43154" lon="4.76116">
        <ele>264.2</ele>
        <time>2022-06-25T11:17:20Z</time>
      </trkpt>
      <trkpt lat="46.43154" lon="4.76116">
        <ele>264.2</ele>
        <time>2022-06-25T11:17:29Z</time>
      </trkpt>
      <trkpt lat="46.43154" lon="4.76116">
        <ele>264.2</ele>
        <time>2022-06-25T11:17:31Z</time>
      </trkpt>
      <trkpt lat="46.43154" lon="4.76117">
        <ele>264.2</ele>
        <time>2022-06-25T11:17:33Z</time>
      </trkpt>
      <trkpt lat="46.43154" lon="4.76117">
        <ele>264.2</ele>
        <time>2022-06-25T11:17:34Z</time>
      </trkpt>
      <trkpt lat="46.43154" lon="4.76117">
        <ele>264.2</ele>
        <time>2022-06-25T11:17:37Z</time>
      </trkpt>
      <trkpt lat="46.43154" lon="4.76117">
        <ele>264.2</ele>
        <time>2022-06-25T11:17:41Z</time>
      </trkpt>
      <trkpt lat="46.43154" lon="4.76117">
        <ele>264.2</ele>
        <time>2022-06-25T11:17:43Z</time>
      </trkpt>
      <trkpt lat="46.43154" lon="4.76117">
        <ele>264.2</ele>
        <time>2022-06-25T11:17:45Z</time>
      </trkpt>
      <trkpt lat="46.43154" lon="4.76118">
        <ele>264.2</ele>
        <time>2022-06-25T11:17:46Z</time>
      </trkpt>
      <trkpt lat="46.43154" lon="4.76118">
        <ele>264.2</ele>
        <time>2022-06-25T11:17:48Z</time>
      </trkpt>
      <trkpt lat="46.43154" lon="4.76118">
        <ele>264.2</ele>
        <time>2022-06-25T11:17:51Z</time>
      </trkpt>
      <trkpt lat="46.43155" lon="4.76118">
        <ele>264.2</ele>
        <time>2022-06-25T11:17:52Z</time>
      </trkpt>
      <trkpt lat="46.43155" lon="4.76118">
        <ele>264.2</ele>
        <time>2022-06-25T11:17:54Z</time>
      </trkpt>
      <trkpt lat="46.43155" lon="4.76118">
        <ele>264.2</ele>
        <time>2022-06-25T11:17:56Z</time>
      </trkpt>
      <trkpt lat="46.43155" lon="4.76119">
        <ele>264.2</ele>
        <time>2022-06-25T11:17:57Z</time>
      </trkpt>
      <trkpt lat="46.43155" lon="4.76119">
        <ele>264.2</ele>
        <time>2022-06-25T11:17:59Z</time>
      </trkpt>
      <trkpt lat="46.43155" lon="4.76119">
        <ele>264.2</ele>
        <time>2022-06-25T11:18:01Z</time>
      </trkpt>
      <trkpt lat="46.43155" lon="4.76119">
        <ele>264.2</ele>
        <time>2022-06-25T11:18:04Z</time>
      </trkpt>
      <trkpt lat="46.43155" lon="4.76119">
        <ele>264.2</ele>
        <time>2022-06-25T11:18:07Z</time>
      </trkpt>
      <trkpt lat="46.43155" lon="4.7612">
        <ele>264.2</ele>
        <time>2022-06-25T11:18:10Z</time>
      </trkpt>
      <trkpt lat="46.43155" lon="4.7612">
        <ele>264.2</ele>
        <time>2022-06-25T11:18:11Z</time>
      </trkpt>
      <trkpt lat="46.43155" lon="4.7612">
        <ele>264.2</ele>
        <time>2022-06-25T11:18:13Z</time>
      </trkpt>
      <trkpt lat="46.43155" lon="4.7612">
        <ele>264.2</ele>
        <time>2022-06-25T11:18:15Z</time>
      </trkpt>
      <trkpt lat="46.43155" lon="4.7612">
        <ele>264.2</ele>
        <time>2022-06-25T11:18:17Z</time>
      </trkpt>
      <trkpt lat="46.43155" lon="4.7612">
        <ele>264.2</ele>
        <time>2022-06-25T11:18:19Z</time>
      </trkpt>
      <trkpt lat="46.43155" lon="4.76121">
        <ele>264.4</ele>
        <time>2022-06-25T11:18:21Z</time>
      </trkpt>
      <trkpt lat="46.43155" lon="4.76121">
        <ele>264.4</ele>
        <time>2022-06-25T11:18:26Z</time>
      </trkpt>
      <trkpt lat="46.43155" lon="4.76121">
        <ele>264.4</ele>
        <time>2022-06-25T11:18:28Z</time>
      </trkpt>
      <trkpt lat="46.43155" lon="4.76121">
        <ele>264.4</ele>
        <time>2022-06-25T11:18:30Z</time>
      </trkpt>
      <trkpt lat="46.43155" lon="4.76121">
        <ele>264.4</ele>
        <time>2022-06-25T11:18:32Z</time>
      </trkpt>
      <trkpt lat="46.43156" lon="4.76121">
        <ele>264.4</ele>
        <time>2022-06-25T11:18:34Z</time>
      </trkpt>
      <trkpt lat="46.43156" lon="4.76122">
        <ele>264.4</ele>
        <time>2022-06-25T11:18:36Z</time>
      </trkpt>
      <trkpt lat="46.43156" lon="4.76122">
        <ele>264.4</ele>
        <time>2022-06-25T11:18:37Z</time>
      </trkpt>
      <trkpt lat="46.43156" lon="4.76122">
        <ele>264.4</ele>
        <time>2022-06-25T11:18:39Z</time>
      </trkpt>
      <trkpt lat="46.43156" lon="4.76122">
        <ele>264.4</ele>
        <time>2022-06-25T11:18:41Z</time>
      </trkpt>
      <trkpt lat="46.43156" lon="4.76122">
        <ele>264.4</ele>
        <time>2022-06-25T11:18:43Z</time>
      </trkpt>
      <trkpt lat="46.43156" lon="4.76122">
        <ele>264.4</ele>
        <time>2022-06-25T11:18:45Z</time>
      </trkpt>
      <trkpt lat="46.43156" lon="4.76123">
        <ele>264.4</ele>
        <time>2022-06-25T11:18:47Z</time>
      </trkpt>
      <trkpt lat="46.43156" lon="4.76123">
        <ele>264.4</ele>
        <time>2022-06-25T11:18:48Z</time>
      </trkpt>
      <trkpt lat="46.43156" lon="4.76123">
        <ele>264.4</ele>
        <time>2022-06-25T11:18:51Z</time>
      </trkpt>
      <trkpt lat="46.43156" lon="4.76123">
        <ele>264.2</ele>
        <time>2022-06-25T11:18:53Z</time>
      </trkpt>
      <trkpt lat="46.43156" lon="4.76123">
        <ele>264.2</ele>
        <time>2022-06-25T11:18:55Z</time>
      </trkpt>
      <trkpt lat="46.43156" lon="4.76123">
        <ele>264.2</ele>
        <time>2022-06-25T11:18:57Z</time>
      </trkpt>
      <trkpt lat="46.43156" lon="4.76124">
        <ele>264.2</ele>
        <time>2022-06-25T11:18:58Z</time>
      </trkpt>
      <trkpt lat="46.43156" lon="4.76124">
        <ele>264.2</ele>
        <time>2022-06-25T11:19:00Z</time>
      </trkpt>
      <trkpt lat="46.43156" lon="4.76124">
        <ele>264.2</ele>
        <time>2022-06-25T11:19:02Z</time>
      </trkpt>
      <trkpt lat="46.43156" lon="4.76124">
        <ele>264.2</ele>
        <time>2022-06-25T11:19:05Z</time>
      </trkpt>
      <trkpt lat="46.43156" lon="4.76124">
        <ele>264.2</ele>
        <time>2022-06-25T11:19:07Z</time>
      </trkpt>
      <trkpt lat="46.43157" lon="4.76125">
        <ele>264.2</ele>
        <time>2022-06-25T11:19:09Z</time>
      </trkpt>
      <trkpt lat="46.43157" lon="4.76125">
        <ele>264.2</ele>
        <time>2022-06-25T11:19:10Z</time>
      </trkpt>
      <trkpt lat="46.43157" lon="4.76125">
        <ele>264.2</ele>
        <time>2022-06-25T11:19:12Z</time>
      </trkpt>
      <trkpt lat="46.43157" lon="4.76125">
        <ele>264.2</ele>
        <time>2022-06-25T11:19:14Z</time>
      </trkpt>
      <trkpt lat="46.43157" lon="4.76125">
        <ele>264.2</ele>
        <time>2022-06-25T11:19:17Z</time>
      </trkpt>
      <trkpt lat="46.43157" lon="4.76125">
        <ele>264.2</ele>
        <time>2022-06-25T11:19:19Z</time>
      </trkpt>
      <trkpt lat="46.43157" lon="4.76126">
        <ele>264.2</ele>
        <time>2022-06-25T11:19:20Z</time>
      </trkpt>
      <trkpt lat="46.43157" lon="4.76126">
        <ele>264.2</ele>
        <time>2022-06-25T11:19:23Z</time>
      </trkpt>
      <trkpt lat="46.43157" lon="4.76126">
        <ele>264.2</ele>
        <time>2022-06-25T11:19:26Z</time>
      </trkpt>
      <trkpt lat="46.43157" lon="4.76126">
        <ele>264.2</ele>
        <time>2022-06-25T11:19:28Z</time>
      </trkpt>
      <trkpt lat="46.43158" lon="4.76127">
        <ele>264.2</ele>
        <time>2022-06-25T11:19:30Z</time>
      </trkpt>
      <trkpt lat="46.43158" lon="4.76127">
        <ele>264.2</ele>
        <time>2022-06-25T11:19:31Z</time>
      </trkpt>
      <trkpt lat="46.43158" lon="4.76128">
        <ele>264.2</ele>
        <time>2022-06-25T11:19:32Z</time>
      </trkpt>
      <trkpt lat="46.43159" lon="4.76128">
        <ele>264.2</ele>
        <time>2022-06-25T11:19:33Z</time>
      </trkpt>
      <trkpt lat="46.43159" lon="4.76128">
        <ele>264</ele>
        <time>2022-06-25T11:19:36Z</time>
      </trkpt>
      <trkpt lat="46.43159" lon="4.76129">
        <ele>264</ele>
        <time>2022-06-25T11:19:37Z</time>
      </trkpt>
      <trkpt lat="46.43159" lon="4.76129">
        <ele>264</ele>
        <time>2022-06-25T11:19:44Z</time>
      </trkpt>
      <trkpt lat="46.4316" lon="4.7613">
        <ele>263.8</ele>
        <time>2022-06-25T11:19:47Z</time>
      </trkpt>
      <trkpt lat="46.4316" lon="4.7613">
        <ele>263.8</ele>
        <time>2022-06-25T11:19:48Z</time>
      </trkpt>
      <trkpt lat="46.4316" lon="4.76131">
        <ele>263.8</ele>
        <time>2022-06-25T11:19:50Z</time>
      </trkpt>
      <trkpt lat="46.4316" lon="4.76131">
        <ele>263.8</ele>
        <time>2022-06-25T11:19:51Z</time>
      </trkpt>
      <trkpt lat="46.4316" lon="4.76133">
        <ele>263.8</ele>
        <time>2022-06-25T11:19:52Z</time>
      </trkpt>
      <trkpt lat="46.43159" lon="4.76135">
        <ele>263.8</ele>
        <time>2022-06-25T11:19:53Z</time>
      </trkpt>
      <trkpt lat="46.43157" lon="4.76136">
        <ele>263.8</ele>
        <time>2022-06-25T11:19:54Z</time>
      </trkpt>
      <trkpt lat="46.43156" lon="4.76138">
        <ele>263.8</ele>
        <time>2022-06-25T11:19:55Z</time>
      </trkpt>
      <trkpt lat="46.43155" lon="4.76141">
        <ele>263.8</ele>
        <time>2022-06-25T11:19:56Z</time>
      </trkpt>
      <trkpt lat="46.43153" lon="4.76143">
        <ele>263.8</ele>
        <time>2022-06-25T11:19:57Z</time>
      </trkpt>
      <trkpt lat="46.43152" lon="4.76146">
        <ele>263.8</ele>
        <time>2022-06-25T11:19:58Z</time>
      </trkpt>
      <trkpt lat="46.43151" lon="4.76149">
        <ele>263.8</ele>
        <time>2022-06-25T11:19:59Z</time>
      </trkpt>
      <trkpt lat="46.43149" lon="4.76151">
        <ele>263.8</ele>
        <time>2022-06-25T11:20:00Z</time>
      </trkpt>
      <trkpt lat="46.43147" lon="4.76153">
        <ele>263.8</ele>
        <time>2022-06-25T11:20:01Z</time>
      </trkpt>
      <trkpt lat="46.43144" lon="4.76154">
        <ele>263.8</ele>
        <time>2022-06-25T11:20:02Z</time>
      </trkpt>
      <trkpt lat="46.43142" lon="4.76156">
        <ele>263.8</ele>
        <time>2022-06-25T11:20:03Z</time>
      </trkpt>
      <trkpt lat="46.43139" lon="4.76156">
        <ele>263.8</ele>
        <time>2022-06-25T11:20:04Z</time>
      </trkpt>
      <trkpt lat="46.43135" lon="4.76157">
        <ele>263.4</ele>
        <time>2022-06-25T11:20:05Z</time>
      </trkpt>
      <trkpt lat="46.43132" lon="4.76157">
        <ele>263.4</ele>
        <time>2022-06-25T11:20:06Z</time>
      </trkpt>
      <trkpt lat="46.43128" lon="4.76157">
        <ele>263.4</ele>
        <time>2022-06-25T11:20:07Z</time>
      </trkpt>
      <trkpt lat="46.43124" lon="4.76156">
        <ele>263.2</ele>
        <time>2022-06-25T11:20:08Z</time>
      </trkpt>
      <trkpt lat="46.43119" lon="4.76155">
        <ele>263.2</ele>
        <time>2022-06-25T11:20:09Z</time>
      </trkpt>
      <trkpt lat="46.43114" lon="4.76153">
        <ele>263.2</ele>
        <time>2022-06-25T11:20:10Z</time>
      </trkpt>
      <trkpt lat="46.43108" lon="4.76152">
        <ele>263.2</ele>
        <time>2022-06-25T11:20:11Z</time>
      </trkpt>
      <trkpt lat="46.43103" lon="4.76152">
        <ele>263</ele>
        <time>2022-06-25T11:20:12Z</time>
      </trkpt>
      <trkpt lat="46.43097" lon="4.76151">
        <ele>263</ele>
        <time>2022-06-25T11:20:13Z</time>
      </trkpt>
      <trkpt lat="46.43091" lon="4.7615">
        <ele>262.6</ele>
        <time>2022-06-25T11:20:14Z</time>
      </trkpt>
      <trkpt lat="46.43085" lon="4.76151">
        <ele>262.6</ele>
        <time>2022-06-25T11:20:15Z</time>
      </trkpt>
      <trkpt lat="46.43079" lon="4.76152">
        <ele>262.6</ele>
        <time>2022-06-25T11:20:16Z</time>
      </trkpt>
      <trkpt lat="46.43073" lon="4.76153">
        <ele>262.4</ele>
        <time>2022-06-25T11:20:17Z</time>
      </trkpt>
      <trkpt lat="46.43066" lon="4.76154">
        <ele>262.4</ele>
        <time>2022-06-25T11:20:18Z</time>
      </trkpt>
      <trkpt lat="46.4306" lon="4.76155">
        <ele>262.2</ele>
        <time>2022-06-25T11:20:19Z</time>
      </trkpt>
      <trkpt lat="46.43054" lon="4.76155">
        <ele>262.2</ele>
        <time>2022-06-25T11:20:20Z</time>
      </trkpt>
      <trkpt lat="46.43048" lon="4.76155">
        <ele>262</ele>
        <time>2022-06-25T11:20:21Z</time>
      </trkpt>
      <trkpt lat="46.43042" lon="4.76154">
        <ele>262</ele>
        <time>2022-06-25T11:20:22Z</time>
      </trkpt>
      <trkpt lat="46.43036" lon="4.76154">
        <ele>261.6</ele>
        <time>2022-06-25T11:20:23Z</time>
      </trkpt>
      <trkpt lat="46.4303" lon="4.76154">
        <ele>261.6</ele>
        <time>2022-06-25T11:20:24Z</time>
      </trkpt>
      <trkpt lat="46.43024" lon="4.76153">
        <ele>261.4</ele>
        <time>2022-06-25T11:20:25Z</time>
      </trkpt>
      <trkpt lat="46.43018" lon="4.76152">
        <ele>261.4</ele>
        <time>2022-06-25T11:20:26Z</time>
      </trkpt>
      <trkpt lat="46.43012" lon="4.76151">
        <ele>261.4</ele>
        <time>2022-06-25T11:20:27Z</time>
      </trkpt>
      <trkpt lat="46.43006" lon="4.76149">
        <ele>261.4</ele>
        <time>2022-06-25T11:20:28Z</time>
      </trkpt>
      <trkpt lat="46.43" lon="4.76147">
        <ele>261</ele>
        <time>2022-06-25T11:20:29Z</time>
      </trkpt>
      <trkpt lat="46.42994" lon="4.76145">
        <ele>261</ele>
        <time>2022-06-25T11:20:30Z</time>
      </trkpt>
      <trkpt lat="46.42988" lon="4.76143">
        <ele>261</ele>
        <time>2022-06-25T11:20:31Z</time>
      </trkpt>
      <trkpt lat="46.42982" lon="4.7614">
        <ele>260.8</ele>
        <time>2022-06-25T11:20:32Z</time>
      </trkpt>
      <trkpt lat="46.42975" lon="4.76137">
        <ele>260.8</ele>
        <time>2022-06-25T11:20:33Z</time>
      </trkpt>
      <trkpt lat="46.42969" lon="4.76133">
        <ele>260.8</ele>
        <time>2022-06-25T11:20:34Z</time>
      </trkpt>
      <trkpt lat="46.42963" lon="4.7613">
        <ele>260.8</ele>
        <time>2022-06-25T11:20:35Z</time>
      </trkpt>
      <trkpt lat="46.42957" lon="4.76127">
        <ele>260.8</ele>
        <time>2022-06-25T11:20:36Z</time>
      </trkpt>
      <trkpt lat="46.42951" lon="4.76123">
        <ele>260.6</ele>
        <time>2022-06-25T11:20:37Z</time>
      </trkpt>
      <trkpt lat="46.42944" lon="4.76121">
        <ele>260.6</ele>
        <time>2022-06-25T11:20:38Z</time>
      </trkpt>
      <trkpt lat="46.42938" lon="4.76118">
        <ele>260.6</ele>
        <time>2022-06-25T11:20:39Z</time>
      </trkpt>
      <trkpt lat="46.42932" lon="4.76115">
        <ele>260.2</ele>
        <time>2022-06-25T11:20:40Z</time>
      </trkpt>
      <trkpt lat="46.42925" lon="4.76111">
        <ele>260.2</ele>
        <time>2022-06-25T11:20:41Z</time>
      </trkpt>
      <trkpt lat="46.42919" lon="4.76108">
        <ele>260.2</ele>
        <time>2022-06-25T11:20:42Z</time>
      </trkpt>
      <trkpt lat="46.42913" lon="4.76105">
        <ele>260</ele>
        <time>2022-06-25T11:20:43Z</time>
      </trkpt>
      <trkpt lat="46.42906" lon="4.76102">
        <ele>260</ele>
        <time>2022-06-25T11:20:44Z</time>
      </trkpt>
      <trkpt lat="46.429" lon="4.761">
        <ele>259.8</ele>
        <time>2022-06-25T11:20:45Z</time>
      </trkpt>
      <trkpt lat="46.42894" lon="4.76097">
        <ele>259.8</ele>
        <time>2022-06-25T11:20:46Z</time>
      </trkpt>
      <trkpt lat="46.42888" lon="4.76095">
        <ele>259.8</ele>
        <time>2022-06-25T11:20:47Z</time>
      </trkpt>
      <trkpt lat="46.42883" lon="4.76092">
        <ele>259.8</ele>
        <time>2022-06-25T11:20:48Z</time>
      </trkpt>
      <trkpt lat="46.42877" lon="4.7609">
        <ele>259.6</ele>
        <time>2022-06-25T11:20:49Z</time>
      </trkpt>
      <trkpt lat="46.4287" lon="4.76088">
        <ele>259.6</ele>
        <time>2022-06-25T11:20:50Z</time>
      </trkpt>
      <trkpt lat="46.42863" lon="4.76087">
        <ele>259.2</ele>
        <time>2022-06-25T11:20:51Z</time>
      </trkpt>
      <trkpt lat="46.42856" lon="4.76086">
        <ele>259.2</ele>
        <time>2022-06-25T11:20:52Z</time>
      </trkpt>
      <trkpt lat="46.42849" lon="4.76084">
        <ele>259.2</ele>
        <time>2022-06-25T11:20:53Z</time>
      </trkpt>
      <trkpt lat="46.42842" lon="4.76083">
        <ele>259.2</ele>
        <time>2022-06-25T11:20:54Z</time>
      </trkpt>
      <trkpt lat="46.42835" lon="4.76083">
        <ele>259</ele>
        <time>2022-06-25T11:20:55Z</time>
      </trkpt>
      <trkpt lat="46.42828" lon="4.76082">
        <ele>259</ele>
        <time>2022-06-25T11:20:56Z</time>
      </trkpt>
      <trkpt lat="46.4282" lon="4.76082">
        <ele>258.6</ele>
        <time>2022-06-25T11:20:57Z</time>
      </trkpt>
      <trkpt lat="46.42812" lon="4.76082">
        <ele>258.6</ele>
        <time>2022-06-25T11:20:58Z</time>
      </trkpt>
      <trkpt lat="46.42805" lon="4.76082">
        <ele>258.4</ele>
        <time>2022-06-25T11:20:59Z</time>
      </trkpt>
      <trkpt lat="46.42797" lon="4.76083">
        <ele>258.2</ele>
        <time>2022-06-25T11:21:00Z</time>
      </trkpt>
      <trkpt lat="46.4279" lon="4.76083">
        <ele>258</ele>
        <time>2022-06-25T11:21:01Z</time>
      </trkpt>
      <trkpt lat="46.42782" lon="4.76083">
        <ele>258</ele>
        <time>2022-06-25T11:21:02Z</time>
      </trkpt>
      <trkpt lat="46.42775" lon="4.76083">
        <ele>257.6</ele>
        <time>2022-06-25T11:21:03Z</time>
      </trkpt>
      <trkpt lat="46.42767" lon="4.76083">
        <ele>257.6</ele>
        <time>2022-06-25T11:21:04Z</time>
      </trkpt>
      <trkpt lat="46.42756" lon="4.76083">
        <ele>257.4</ele>
        <time>2022-06-25T11:21:05Z</time>
      </trkpt>
      <trkpt lat="46.42753" lon="4.76083">
        <ele>257.4</ele>
        <time>2022-06-25T11:21:06Z</time>
      </trkpt>
      <trkpt lat="46.42745" lon="4.76084">
        <ele>257</ele>
        <time>2022-06-25T11:21:07Z</time>
      </trkpt>
      <trkpt lat="46.42738" lon="4.76084">
        <ele>257</ele>
        <time>2022-06-25T11:21:08Z</time>
      </trkpt>
      <trkpt lat="46.4273" lon="4.76084">
        <ele>256.8</ele>
        <time>2022-06-25T11:21:09Z</time>
      </trkpt>
      <trkpt lat="46.42723" lon="4.76083">
        <ele>256.8</ele>
        <time>2022-06-25T11:21:10Z</time>
      </trkpt>
      <trkpt lat="46.42716" lon="4.76084">
        <ele>256.8</ele>
        <time>2022-06-25T11:21:11Z</time>
      </trkpt>
      <trkpt lat="46.42708" lon="4.76084">
        <ele>256.4</ele>
        <time>2022-06-25T11:21:12Z</time>
      </trkpt>
      <trkpt lat="46.42701" lon="4.76084">
        <ele>256.2</ele>
        <time>2022-06-25T11:21:13Z</time>
      </trkpt>
      <trkpt lat="46.42694" lon="4.76084">
        <ele>256.2</ele>
        <time>2022-06-25T11:21:14Z</time>
      </trkpt>
      <trkpt lat="46.42687" lon="4.76084">
        <ele>256.2</ele>
        <time>2022-06-25T11:21:15Z</time>
      </trkpt>
      <trkpt lat="46.4268" lon="4.76084">
        <ele>256.2</ele>
        <time>2022-06-25T11:21:16Z</time>
      </trkpt>
      <trkpt lat="46.42673" lon="4.76084">
        <ele>256.2</ele>
        <time>2022-06-25T11:21:17Z</time>
      </trkpt>
      <trkpt lat="46.42666" lon="4.76084">
        <ele>256.2</ele>
        <time>2022-06-25T11:21:18Z</time>
      </trkpt>
      <trkpt lat="46.42659" lon="4.76085">
        <ele>256.2</ele>
        <time>2022-06-25T11:21:19Z</time>
      </trkpt>
      <trkpt lat="46.42651" lon="4.76085">
        <ele>256</ele>
        <time>2022-06-25T11:21:20Z</time>
      </trkpt>
      <trkpt lat="46.42641" lon="4.76085">
        <ele>256</ele>
        <time>2022-06-25T11:21:21Z</time>
      </trkpt>
      <trkpt lat="46.42637" lon="4.76085">
        <ele>255.6</ele>
        <time>2022-06-25T11:21:22Z</time>
      </trkpt>
      <trkpt lat="46.4263" lon="4.76084">
        <ele>255.6</ele>
        <time>2022-06-25T11:21:23Z</time>
      </trkpt>
      <trkpt lat="46.42623" lon="4.76084">
        <ele>255.4</ele>
        <time>2022-06-25T11:21:24Z</time>
      </trkpt>
      <trkpt lat="46.42616" lon="4.76083">
        <ele>255.4</ele>
        <time>2022-06-25T11:21:25Z</time>
      </trkpt>
      <trkpt lat="46.42609" lon="4.76082">
        <ele>255.4</ele>
        <time>2022-06-25T11:21:26Z</time>
      </trkpt>
      <trkpt lat="46.42603" lon="4.76081">
        <ele>255.4</ele>
        <time>2022-06-25T11:21:27Z</time>
      </trkpt>
      <trkpt lat="46.42596" lon="4.76081">
        <ele>255.4</ele>
        <time>2022-06-25T11:21:28Z</time>
      </trkpt>
      <trkpt lat="46.42589" lon="4.7608">
        <ele>255.4</ele>
        <time>2022-06-25T11:21:29Z</time>
      </trkpt>
      <trkpt lat="46.42582" lon="4.76078">
        <ele>255.2</ele>
        <time>2022-06-25T11:21:30Z</time>
      </trkpt>
      <trkpt lat="46.42572" lon="4.76076">
        <ele>255.2</ele>
        <time>2022-06-25T11:21:31Z</time>
      </trkpt>
      <trkpt lat="46.42569" lon="4.76076">
        <ele>255.2</ele>
        <time>2022-06-25T11:21:32Z</time>
      </trkpt>
      <trkpt lat="46.42563" lon="4.76075">
        <ele>255.2</ele>
        <time>2022-06-25T11:21:33Z</time>
      </trkpt>
      <trkpt lat="46.42556" lon="4.76073">
        <ele>255.2</ele>
        <time>2022-06-25T11:21:34Z</time>
      </trkpt>
      <trkpt lat="46.4255" lon="4.76071">
        <ele>255.2</ele>
        <time>2022-06-25T11:21:35Z</time>
      </trkpt>
      <trkpt lat="46.42543" lon="4.76069">
        <ele>255.2</ele>
        <time>2022-06-25T11:21:36Z</time>
      </trkpt>
      <trkpt lat="46.42537" lon="4.76067">
        <ele>255</ele>
        <time>2022-06-25T11:21:37Z</time>
      </trkpt>
      <trkpt lat="46.42531" lon="4.76065">
        <ele>255</ele>
        <time>2022-06-25T11:21:38Z</time>
      </trkpt>
      <trkpt lat="46.42525" lon="4.76062">
        <ele>255</ele>
        <time>2022-06-25T11:21:39Z</time>
      </trkpt>
      <trkpt lat="46.42519" lon="4.7606">
        <ele>255</ele>
        <time>2022-06-25T11:21:40Z</time>
      </trkpt>
      <trkpt lat="46.42513" lon="4.76058">
        <ele>255</ele>
        <time>2022-06-25T11:21:41Z</time>
      </trkpt>
      <trkpt lat="46.42504" lon="4.76054">
        <ele>255</ele>
        <time>2022-06-25T11:21:42Z</time>
      </trkpt>
      <trkpt lat="46.42501" lon="4.76053">
        <ele>255</ele>
        <time>2022-06-25T11:21:43Z</time>
      </trkpt>
      <trkpt lat="46.42494" lon="4.7605">
        <ele>255</ele>
        <time>2022-06-25T11:21:44Z</time>
      </trkpt>
      <trkpt lat="46.42488" lon="4.76048">
        <ele>255</ele>
        <time>2022-06-25T11:21:45Z</time>
      </trkpt>
      <trkpt lat="46.42482" lon="4.76045">
        <ele>255.2</ele>
        <time>2022-06-25T11:21:46Z</time>
      </trkpt>
      <trkpt lat="46.42476" lon="4.76043">
        <ele>255.2</ele>
        <time>2022-06-25T11:21:47Z</time>
      </trkpt>
      <trkpt lat="46.4247" lon="4.7604">
        <ele>255.2</ele>
        <time>2022-06-25T11:21:48Z</time>
      </trkpt>
      <trkpt lat="46.42461" lon="4.76035">
        <ele>255.2</ele>
        <time>2022-06-25T11:21:49Z</time>
      </trkpt>
      <trkpt lat="46.42458" lon="4.76034">
        <ele>255.2</ele>
        <time>2022-06-25T11:21:50Z</time>
      </trkpt>
      <trkpt lat="46.42453" lon="4.7603">
        <ele>255.2</ele>
        <time>2022-06-25T11:21:51Z</time>
      </trkpt>
      <trkpt lat="46.42447" lon="4.76026">
        <ele>255.2</ele>
        <time>2022-06-25T11:21:52Z</time>
      </trkpt>
      <trkpt lat="46.42442" lon="4.76021">
        <ele>255.2</ele>
        <time>2022-06-25T11:21:53Z</time>
      </trkpt>
      <trkpt lat="46.42437" lon="4.76015">
        <ele>255.2</ele>
        <time>2022-06-25T11:21:54Z</time>
      </trkpt>
      <trkpt lat="46.42433" lon="4.7601">
        <ele>255.2</ele>
        <time>2022-06-25T11:21:55Z</time>
      </trkpt>
      <trkpt lat="46.42429" lon="4.76003">
        <ele>255.2</ele>
        <time>2022-06-25T11:21:56Z</time>
      </trkpt>
      <trkpt lat="46.42425" lon="4.75996">
        <ele>255.2</ele>
        <time>2022-06-25T11:21:57Z</time>
      </trkpt>
      <trkpt lat="46.42423" lon="4.75989">
        <ele>255.2</ele>
        <time>2022-06-25T11:21:58Z</time>
      </trkpt>
      <trkpt lat="46.4242" lon="4.75982">
        <ele>255.2</ele>
        <time>2022-06-25T11:21:59Z</time>
      </trkpt>
      <trkpt lat="46.42418" lon="4.7597">
        <ele>255.2</ele>
        <time>2022-06-25T11:22:00Z</time>
      </trkpt>
      <trkpt lat="46.42418" lon="4.75967">
        <ele>255.2</ele>
        <time>2022-06-25T11:22:01Z</time>
      </trkpt>
      <trkpt lat="46.42417" lon="4.75959">
        <ele>255.4</ele>
        <time>2022-06-25T11:22:02Z</time>
      </trkpt>
      <trkpt lat="46.42418" lon="4.75951">
        <ele>255.4</ele>
        <time>2022-06-25T11:22:03Z</time>
      </trkpt>
      <trkpt lat="46.42418" lon="4.75943">
        <ele>255.4</ele>
        <time>2022-06-25T11:22:04Z</time>
      </trkpt>
      <trkpt lat="46.42418" lon="4.75936">
        <ele>255.4</ele>
        <time>2022-06-25T11:22:05Z</time>
      </trkpt>
      <trkpt lat="46.42418" lon="4.75928">
        <ele>255.6</ele>
        <time>2022-06-25T11:22:06Z</time>
      </trkpt>
      <trkpt lat="46.42419" lon="4.75916">
        <ele>255.6</ele>
        <time>2022-06-25T11:22:07Z</time>
      </trkpt>
      <trkpt lat="46.42419" lon="4.75912">
        <ele>256</ele>
        <time>2022-06-25T11:22:08Z</time>
      </trkpt>
      <trkpt lat="46.42419" lon="4.75905">
        <ele>256</ele>
        <time>2022-06-25T11:22:09Z</time>
      </trkpt>
      <trkpt lat="46.42419" lon="4.75898">
        <ele>256.2</ele>
        <time>2022-06-25T11:22:10Z</time>
      </trkpt>
      <trkpt lat="46.42418" lon="4.75891">
        <ele>256.4</ele>
        <time>2022-06-25T11:22:11Z</time>
      </trkpt>
      <trkpt lat="46.42416" lon="4.75884">
        <ele>256.6</ele>
        <time>2022-06-25T11:22:12Z</time>
      </trkpt>
      <trkpt lat="46.42414" lon="4.75877">
        <ele>256.6</ele>
        <time>2022-06-25T11:22:13Z</time>
      </trkpt>
      <trkpt lat="46.42412" lon="4.75871">
        <ele>257</ele>
        <time>2022-06-25T11:22:14Z</time>
      </trkpt>
      <trkpt lat="46.4241" lon="4.75864">
        <ele>257</ele>
        <time>2022-06-25T11:22:15Z</time>
      </trkpt>
      <trkpt lat="46.42407" lon="4.75858">
        <ele>257</ele>
        <time>2022-06-25T11:22:16Z</time>
      </trkpt>
      <trkpt lat="46.42403" lon="4.75853">
        <ele>257</ele>
        <time>2022-06-25T11:22:17Z</time>
      </trkpt>
      <trkpt lat="46.42399" lon="4.75848">
        <ele>257</ele>
        <time>2022-06-25T11:22:18Z</time>
      </trkpt>
      <trkpt lat="46.42394" lon="4.75843">
        <ele>257</ele>
        <time>2022-06-25T11:22:19Z</time>
      </trkpt>
      <trkpt lat="46.42387" lon="4.75836">
        <ele>257</ele>
        <time>2022-06-25T11:22:20Z</time>
      </trkpt>
      <trkpt lat="46.42385" lon="4.75834">
        <ele>257</ele>
        <time>2022-06-25T11:22:21Z</time>
      </trkpt>
      <trkpt lat="46.4238" lon="4.75829">
        <ele>257</ele>
        <time>2022-06-25T11:22:22Z</time>
      </trkpt>
      <trkpt lat="46.42375" lon="4.75824">
        <ele>257</ele>
        <time>2022-06-25T11:22:23Z</time>
      </trkpt>
      <trkpt lat="46.42369" lon="4.75819">
        <ele>257</ele>
        <time>2022-06-25T11:22:24Z</time>
      </trkpt>
      <trkpt lat="46.42364" lon="4.75814">
        <ele>257</ele>
        <time>2022-06-25T11:22:25Z</time>
      </trkpt>
      <trkpt lat="46.42359" lon="4.7581">
        <ele>257</ele>
        <time>2022-06-25T11:22:26Z</time>
      </trkpt>
      <trkpt lat="46.42353" lon="4.75805">
        <ele>257</ele>
        <time>2022-06-25T11:22:27Z</time>
      </trkpt>
      <trkpt lat="46.42347" lon="4.758">
        <ele>256.8</ele>
        <time>2022-06-25T11:22:28Z</time>
      </trkpt>
      <trkpt lat="46.42342" lon="4.75795">
        <ele>256.8</ele>
        <time>2022-06-25T11:22:29Z</time>
      </trkpt>
      <trkpt lat="46.42333" lon="4.75787">
        <ele>256.8</ele>
        <time>2022-06-25T11:22:30Z</time>
      </trkpt>
      <trkpt lat="46.4233" lon="4.75784">
        <ele>256.6</ele>
        <time>2022-06-25T11:22:31Z</time>
      </trkpt>
      <trkpt lat="46.42324" lon="4.75779">
        <ele>256.6</ele>
        <time>2022-06-25T11:22:32Z</time>
      </trkpt>
      <trkpt lat="46.42315" lon="4.75771">
        <ele>256.2</ele>
        <time>2022-06-25T11:22:33Z</time>
      </trkpt>
      <trkpt lat="46.42311" lon="4.75768">
        <ele>256.2</ele>
        <time>2022-06-25T11:22:34Z</time>
      </trkpt>
      <trkpt lat="46.42305" lon="4.75762">
        <ele>255.8</ele>
        <time>2022-06-25T11:22:35Z</time>
      </trkpt>
      <trkpt lat="46.42298" lon="4.75756">
        <ele>255.8</ele>
        <time>2022-06-25T11:22:36Z</time>
      </trkpt>
      <trkpt lat="46.42288" lon="4.75747">
        <ele>255.6</ele>
        <time>2022-06-25T11:22:37Z</time>
      </trkpt>
      <trkpt lat="46.42285" lon="4.75744">
        <ele>255.6</ele>
        <time>2022-06-25T11:22:38Z</time>
      </trkpt>
      <trkpt lat="46.42278" lon="4.75738">
        <ele>255.2</ele>
        <time>2022-06-25T11:22:39Z</time>
      </trkpt>
      <trkpt lat="46.42271" lon="4.75731">
        <ele>254.8</ele>
        <time>2022-06-25T11:22:40Z</time>
      </trkpt>
      <trkpt lat="46.42264" lon="4.75725">
        <ele>254.8</ele>
        <time>2022-06-25T11:22:41Z</time>
      </trkpt>
      <trkpt lat="46.42257" lon="4.75719">
        <ele>254.6</ele>
        <time>2022-06-25T11:22:42Z</time>
      </trkpt>
      <trkpt lat="46.4225" lon="4.75712">
        <ele>254.4</ele>
        <time>2022-06-25T11:22:43Z</time>
      </trkpt>
      <trkpt lat="46.42243" lon="4.75705">
        <ele>254.4</ele>
        <time>2022-06-25T11:22:44Z</time>
      </trkpt>
      <trkpt lat="46.42236" lon="4.75699">
        <ele>254</ele>
        <time>2022-06-25T11:22:45Z</time>
      </trkpt>
      <trkpt lat="46.42229" lon="4.75692">
        <ele>254</ele>
        <time>2022-06-25T11:22:46Z</time>
      </trkpt>
      <trkpt lat="46.42222" lon="4.75686">
        <ele>253.8</ele>
        <time>2022-06-25T11:22:47Z</time>
      </trkpt>
      <trkpt lat="46.42215" lon="4.7568">
        <ele>253.8</ele>
        <time>2022-06-25T11:22:48Z</time>
      </trkpt>
      <trkpt lat="46.42208" lon="4.75674">
        <ele>253.6</ele>
        <time>2022-06-25T11:22:49Z</time>
      </trkpt>
      <trkpt lat="46.42201" lon="4.75668">
        <ele>253.6</ele>
        <time>2022-06-25T11:22:50Z</time>
      </trkpt>
      <trkpt lat="46.42195" lon="4.75662">
        <ele>253.2</ele>
        <time>2022-06-25T11:22:51Z</time>
      </trkpt>
      <trkpt lat="46.42188" lon="4.75656">
        <ele>253.2</ele>
        <time>2022-06-25T11:22:52Z</time>
      </trkpt>
      <trkpt lat="46.42182" lon="4.75649">
        <ele>253.2</ele>
        <time>2022-06-25T11:22:53Z</time>
      </trkpt>
      <trkpt lat="46.42175" lon="4.75644">
        <ele>253.2</ele>
        <time>2022-06-25T11:22:54Z</time>
      </trkpt>
      <trkpt lat="46.42169" lon="4.75638">
        <ele>253</ele>
        <time>2022-06-25T11:22:55Z</time>
      </trkpt>
      <trkpt lat="46.42163" lon="4.75632">
        <ele>253</ele>
        <time>2022-06-25T11:22:56Z</time>
      </trkpt>
      <trkpt lat="46.42153" lon="4.75624">
        <ele>253</ele>
        <time>2022-06-25T11:22:57Z</time>
      </trkpt>
      <trkpt lat="46.4215" lon="4.75621">
        <ele>253</ele>
        <time>2022-06-25T11:22:58Z</time>
      </trkpt>
      <trkpt lat="46.42144" lon="4.75616">
        <ele>253</ele>
        <time>2022-06-25T11:22:59Z</time>
      </trkpt>
      <trkpt lat="46.42139" lon="4.75611">
        <ele>253</ele>
        <time>2022-06-25T11:23:00Z</time>
      </trkpt>
      <trkpt lat="46.42133" lon="4.75605">
        <ele>253</ele>
        <time>2022-06-25T11:23:01Z</time>
      </trkpt>
      <trkpt lat="46.42127" lon="4.756">
        <ele>253</ele>
        <time>2022-06-25T11:23:02Z</time>
      </trkpt>
      <trkpt lat="46.42122" lon="4.75595">
        <ele>253</ele>
        <time>2022-06-25T11:23:03Z</time>
      </trkpt>
      <trkpt lat="46.42116" lon="4.75591">
        <ele>253</ele>
        <time>2022-06-25T11:23:04Z</time>
      </trkpt>
      <trkpt lat="46.4211" lon="4.75586">
        <ele>253</ele>
        <time>2022-06-25T11:23:05Z</time>
      </trkpt>
      <trkpt lat="46.42105" lon="4.75581">
        <ele>253</ele>
        <time>2022-06-25T11:23:06Z</time>
      </trkpt>
      <trkpt lat="46.42099" lon="4.75576">
        <ele>252.8</ele>
        <time>2022-06-25T11:23:07Z</time>
      </trkpt>
      <trkpt lat="46.42094" lon="4.75571">
        <ele>252.8</ele>
        <time>2022-06-25T11:23:08Z</time>
      </trkpt>
      <trkpt lat="46.42089" lon="4.75566">
        <ele>252.8</ele>
        <time>2022-06-25T11:23:09Z</time>
      </trkpt>
      <trkpt lat="46.42083" lon="4.75561">
        <ele>253</ele>
        <time>2022-06-25T11:23:10Z</time>
      </trkpt>
      <trkpt lat="46.42078" lon="4.75556">
        <ele>253</ele>
        <time>2022-06-25T11:23:11Z</time>
      </trkpt>
      <trkpt lat="46.42073" lon="4.75551">
        <ele>253</ele>
        <time>2022-06-25T11:23:12Z</time>
      </trkpt>
      <trkpt lat="46.42067" lon="4.75546">
        <ele>253</ele>
        <time>2022-06-25T11:23:13Z</time>
      </trkpt>
      <trkpt lat="46.42062" lon="4.75541">
        <ele>253.2</ele>
        <time>2022-06-25T11:23:14Z</time>
      </trkpt>
      <trkpt lat="46.42057" lon="4.75536">
        <ele>253.2</ele>
        <time>2022-06-25T11:23:15Z</time>
      </trkpt>
      <trkpt lat="46.42051" lon="4.75532">
        <ele>253.2</ele>
        <time>2022-06-25T11:23:16Z</time>
      </trkpt>
      <trkpt lat="46.42046" lon="4.75527">
        <ele>253.6</ele>
        <time>2022-06-25T11:23:17Z</time>
      </trkpt>
      <trkpt lat="46.42041" lon="4.75523">
        <ele>253.6</ele>
        <time>2022-06-25T11:23:18Z</time>
      </trkpt>
      <trkpt lat="46.42036" lon="4.75518">
        <ele>253.6</ele>
        <time>2022-06-25T11:23:19Z</time>
      </trkpt>
      <trkpt lat="46.42031" lon="4.75513">
        <ele>253.6</ele>
        <time>2022-06-25T11:23:20Z</time>
      </trkpt>
      <trkpt lat="46.42026" lon="4.75509">
        <ele>253.6</ele>
        <time>2022-06-25T11:23:21Z</time>
      </trkpt>
      <trkpt lat="46.42021" lon="4.75504">
        <ele>253.8</ele>
        <time>2022-06-25T11:23:22Z</time>
      </trkpt>
      <trkpt lat="46.42016" lon="4.755">
        <ele>253.8</ele>
        <time>2022-06-25T11:23:23Z</time>
      </trkpt>
      <trkpt lat="46.42012" lon="4.75496">
        <ele>254.2</ele>
        <time>2022-06-25T11:23:24Z</time>
      </trkpt>
      <trkpt lat="46.42007" lon="4.75491">
        <ele>254.2</ele>
        <time>2022-06-25T11:23:25Z</time>
      </trkpt>
      <trkpt lat="46.42003" lon="4.75488">
        <ele>254.2</ele>
        <time>2022-06-25T11:23:26Z</time>
      </trkpt>
      <trkpt lat="46.41999" lon="4.75484">
        <ele>254.4</ele>
        <time>2022-06-25T11:23:27Z</time>
      </trkpt>
      <trkpt lat="46.41994" lon="4.7548">
        <ele>254.4</ele>
        <time>2022-06-25T11:23:28Z</time>
      </trkpt>
      <trkpt lat="46.4199" lon="4.75476">
        <ele>254.4</ele>
        <time>2022-06-25T11:23:29Z</time>
      </trkpt>
      <trkpt lat="46.41986" lon="4.75473">
        <ele>254.8</ele>
        <time>2022-06-25T11:23:30Z</time>
      </trkpt>
      <trkpt lat="46.41982" lon="4.75469">
        <ele>255</ele>
        <time>2022-06-25T11:23:31Z</time>
      </trkpt>
      <trkpt lat="46.41978" lon="4.75465">
        <ele>255</ele>
        <time>2022-06-25T11:23:32Z</time>
      </trkpt>
      <trkpt lat="46.41974" lon="4.75462">
        <ele>255.2</ele>
        <time>2022-06-25T11:23:33Z</time>
      </trkpt>
      <trkpt lat="46.4197" lon="4.75458">
        <ele>255.6</ele>
        <time>2022-06-25T11:23:34Z</time>
      </trkpt>
      <trkpt lat="46.41967" lon="4.75455">
        <ele>255.8</ele>
        <time>2022-06-25T11:23:35Z</time>
      </trkpt>
      <trkpt lat="46.41963" lon="4.75452">
        <ele>255.8</ele>
        <time>2022-06-25T11:23:36Z</time>
      </trkpt>
      <trkpt lat="46.41959" lon="4.75448">
        <ele>256.2</ele>
        <time>2022-06-25T11:23:37Z</time>
      </trkpt>
      <trkpt lat="46.41955" lon="4.75445">
        <ele>256.4</ele>
        <time>2022-06-25T11:23:38Z</time>
      </trkpt>
      <trkpt lat="46.41952" lon="4.75442">
        <ele>256.4</ele>
        <time>2022-06-25T11:23:39Z</time>
      </trkpt>
      <trkpt lat="46.41948" lon="4.75438">
        <ele>256.6</ele>
        <time>2022-06-25T11:23:40Z</time>
      </trkpt>
      <trkpt lat="46.41945" lon="4.75435">
        <ele>257</ele>
        <time>2022-06-25T11:23:41Z</time>
      </trkpt>
      <trkpt lat="46.41941" lon="4.75432">
        <ele>257.2</ele>
        <time>2022-06-25T11:23:42Z</time>
      </trkpt>
      <trkpt lat="46.41938" lon="4.75429">
        <ele>257.6</ele>
        <time>2022-06-25T11:23:43Z</time>
      </trkpt>
      <trkpt lat="46.41934" lon="4.75426">
        <ele>257.8</ele>
        <time>2022-06-25T11:23:44Z</time>
      </trkpt>
      <trkpt lat="46.41931" lon="4.75423">
        <ele>257.8</ele>
        <time>2022-06-25T11:23:45Z</time>
      </trkpt>
      <trkpt lat="46.41927" lon="4.7542">
        <ele>258.2</ele>
        <time>2022-06-25T11:23:46Z</time>
      </trkpt>
      <trkpt lat="46.41923" lon="4.75417">
        <ele>258.4</ele>
        <time>2022-06-25T11:23:47Z</time>
      </trkpt>
      <trkpt lat="46.4192" lon="4.75414">
        <ele>258.4</ele>
        <time>2022-06-25T11:23:48Z</time>
      </trkpt>
      <trkpt lat="46.41916" lon="4.75412">
        <ele>258.6</ele>
        <time>2022-06-25T11:23:49Z</time>
      </trkpt>
      <trkpt lat="46.41912" lon="4.75408">
        <ele>258.8</ele>
        <time>2022-06-25T11:23:50Z</time>
      </trkpt>
      <trkpt lat="46.41909" lon="4.75406">
        <ele>259.2</ele>
        <time>2022-06-25T11:23:51Z</time>
      </trkpt>
      <trkpt lat="46.41905" lon="4.75403">
        <ele>259.4</ele>
        <time>2022-06-25T11:23:52Z</time>
      </trkpt>
      <trkpt lat="46.41901" lon="4.75401">
        <ele>259.6</ele>
        <time>2022-06-25T11:23:53Z</time>
      </trkpt>
      <trkpt lat="46.41898" lon="4.75398">
        <ele>259.6</ele>
        <time>2022-06-25T11:23:54Z</time>
      </trkpt>
      <trkpt lat="46.41894" lon="4.75395">
        <ele>260</ele>
        <time>2022-06-25T11:23:55Z</time>
      </trkpt>
      <trkpt lat="46.4189" lon="4.75392">
        <ele>260</ele>
        <time>2022-06-25T11:23:56Z</time>
      </trkpt>
      <trkpt lat="46.41887" lon="4.75389">
        <ele>260.4</ele>
        <time>2022-06-25T11:23:57Z</time>
      </trkpt>
      <trkpt lat="46.41883" lon="4.75386">
        <ele>260.4</ele>
        <time>2022-06-25T11:23:58Z</time>
      </trkpt>
      <trkpt lat="46.4188" lon="4.75383">
        <ele>260.8</ele>
        <time>2022-06-25T11:23:59Z</time>
      </trkpt>
      <trkpt lat="46.41876" lon="4.75381">
        <ele>261</ele>
        <time>2022-06-25T11:24:00Z</time>
      </trkpt>
      <trkpt lat="46.41873" lon="4.75378">
        <ele>261</ele>
        <time>2022-06-25T11:24:01Z</time>
      </trkpt>
      <trkpt lat="46.41869" lon="4.75375">
        <ele>261.2</ele>
        <time>2022-06-25T11:24:02Z</time>
      </trkpt>
      <trkpt lat="46.41865" lon="4.75373">
        <ele>261.2</ele>
        <time>2022-06-25T11:24:03Z</time>
      </trkpt>
      <trkpt lat="46.41862" lon="4.7537">
        <ele>261.6</ele>
        <time>2022-06-25T11:24:04Z</time>
      </trkpt>
      <trkpt lat="46.41858" lon="4.75367">
        <ele>261.6</ele>
        <time>2022-06-25T11:24:05Z</time>
      </trkpt>
      <trkpt lat="46.41855" lon="4.75365">
        <ele>262</ele>
        <time>2022-06-25T11:24:06Z</time>
      </trkpt>
      <trkpt lat="46.41851" lon="4.75362">
        <ele>262.4</ele>
        <time>2022-06-25T11:24:07Z</time>
      </trkpt>
      <trkpt lat="46.41848" lon="4.75359">
        <ele>262.6</ele>
        <time>2022-06-25T11:24:08Z</time>
      </trkpt>
      <trkpt lat="46.41845" lon="4.75357">
        <ele>263</ele>
        <time>2022-06-25T11:24:09Z</time>
      </trkpt>
      <trkpt lat="46.41842" lon="4.75354">
        <ele>263.2</ele>
        <time>2022-06-25T11:24:10Z</time>
      </trkpt>
      <trkpt lat="46.41838" lon="4.75351">
        <ele>263.2</ele>
        <time>2022-06-25T11:24:11Z</time>
      </trkpt>
      <trkpt lat="46.41835" lon="4.75349">
        <ele>263.6</ele>
        <time>2022-06-25T11:24:12Z</time>
      </trkpt>
      <trkpt lat="46.41833" lon="4.75347">
        <ele>263.6</ele>
        <time>2022-06-25T11:24:13Z</time>
      </trkpt>
      <trkpt lat="46.4183" lon="4.75345">
        <ele>263.8</ele>
        <time>2022-06-25T11:24:14Z</time>
      </trkpt>
      <trkpt lat="46.41827" lon="4.75343">
        <ele>263.8</ele>
        <time>2022-06-25T11:24:15Z</time>
      </trkpt>
      <trkpt lat="46.41825" lon="4.75341">
        <ele>264.2</ele>
        <time>2022-06-25T11:24:16Z</time>
      </trkpt>
      <trkpt lat="46.41822" lon="4.75339">
        <ele>264.4</ele>
        <time>2022-06-25T11:24:17Z</time>
      </trkpt>
      <trkpt lat="46.41819" lon="4.75336">
        <ele>264.8</ele>
        <time>2022-06-25T11:24:18Z</time>
      </trkpt>
      <trkpt lat="46.41817" lon="4.75334">
        <ele>264.8</ele>
        <time>2022-06-25T11:24:19Z</time>
      </trkpt>
      <trkpt lat="46.41814" lon="4.75331">
        <ele>265</ele>
        <time>2022-06-25T11:24:20Z</time>
      </trkpt>
      <trkpt lat="46.41811" lon="4.75329">
        <ele>265</ele>
        <time>2022-06-25T11:24:21Z</time>
      </trkpt>
      <trkpt lat="46.41809" lon="4.75326">
        <ele>265.4</ele>
        <time>2022-06-25T11:24:22Z</time>
      </trkpt>
      <trkpt lat="46.41806" lon="4.75323">
        <ele>265.4</ele>
        <time>2022-06-25T11:24:23Z</time>
      </trkpt>
      <trkpt lat="46.41803" lon="4.75321">
        <ele>265.4</ele>
        <time>2022-06-25T11:24:24Z</time>
      </trkpt>
      <trkpt lat="46.418" lon="4.75319">
        <ele>265.6</ele>
        <time>2022-06-25T11:24:25Z</time>
      </trkpt>
      <trkpt lat="46.41798" lon="4.75317">
        <ele>265.6</ele>
        <time>2022-06-25T11:24:26Z</time>
      </trkpt>
      <trkpt lat="46.41795" lon="4.75314">
        <ele>265.8</ele>
        <time>2022-06-25T11:24:27Z</time>
      </trkpt>
      <trkpt lat="46.41792" lon="4.75312">
        <ele>265.8</ele>
        <time>2022-06-25T11:24:28Z</time>
      </trkpt>
      <trkpt lat="46.41789" lon="4.7531">
        <ele>266</ele>
        <time>2022-06-25T11:24:29Z</time>
      </trkpt>
      <trkpt lat="46.41787" lon="4.75307">
        <ele>266.2</ele>
        <time>2022-06-25T11:24:30Z</time>
      </trkpt>
      <trkpt lat="46.41784" lon="4.75305">
        <ele>266.4</ele>
        <time>2022-06-25T11:24:31Z</time>
      </trkpt>
      <trkpt lat="46.41781" lon="4.75302">
        <ele>266.6</ele>
        <time>2022-06-25T11:24:32Z</time>
      </trkpt>
      <trkpt lat="46.41779" lon="4.753">
        <ele>266.6</ele>
        <time>2022-06-25T11:24:33Z</time>
      </trkpt>
      <trkpt lat="46.41776" lon="4.75298">
        <ele>267</ele>
        <time>2022-06-25T11:24:34Z</time>
      </trkpt>
      <trkpt lat="46.41773" lon="4.75295">
        <ele>267</ele>
        <time>2022-06-25T11:24:35Z</time>
      </trkpt>
      <trkpt lat="46.4177" lon="4.75293">
        <ele>267.2</ele>
        <time>2022-06-25T11:24:36Z</time>
      </trkpt>
      <trkpt lat="46.41768" lon="4.75291">
        <ele>267.2</ele>
        <time>2022-06-25T11:24:37Z</time>
      </trkpt>
      <trkpt lat="46.41765" lon="4.75289">
        <ele>267.2</ele>
        <time>2022-06-25T11:24:38Z</time>
      </trkpt>
      <trkpt lat="46.41762" lon="4.75286">
        <ele>267.6</ele>
        <time>2022-06-25T11:24:39Z</time>
      </trkpt>
      <trkpt lat="46.4176" lon="4.75284">
        <ele>267.6</ele>
        <time>2022-06-25T11:24:40Z</time>
      </trkpt>
      <trkpt lat="46.41757" lon="4.75282">
        <ele>267.8</ele>
        <time>2022-06-25T11:24:41Z</time>
      </trkpt>
      <trkpt lat="46.41754" lon="4.7528">
        <ele>267.8</ele>
        <time>2022-06-25T11:24:42Z</time>
      </trkpt>
      <trkpt lat="46.41751" lon="4.75278">
        <ele>268.2</ele>
        <time>2022-06-25T11:24:43Z</time>
      </trkpt>
      <trkpt lat="46.41749" lon="4.75276">
        <ele>268.6</ele>
        <time>2022-06-25T11:24:44Z</time>
      </trkpt>
      <trkpt lat="46.41746" lon="4.75274">
        <ele>268.8</ele>
        <time>2022-06-25T11:24:45Z</time>
      </trkpt>
      <trkpt lat="46.41744" lon="4.75271">
        <ele>269</ele>
        <time>2022-06-25T11:24:46Z</time>
      </trkpt>
      <trkpt lat="46.41741" lon="4.75269">
        <ele>269</ele>
        <time>2022-06-25T11:24:47Z</time>
      </trkpt>
      <trkpt lat="46.41738" lon="4.75268">
        <ele>269</ele>
        <time>2022-06-25T11:24:48Z</time>
      </trkpt>
      <trkpt lat="46.41736" lon="4.75266">
        <ele>269.2</ele>
        <time>2022-06-25T11:24:49Z</time>
      </trkpt>
      <trkpt lat="46.41734" lon="4.75263">
        <ele>269.2</ele>
        <time>2022-06-25T11:24:50Z</time>
      </trkpt>
      <trkpt lat="46.41731" lon="4.75261">
        <ele>269.2</ele>
        <time>2022-06-25T11:24:51Z</time>
      </trkpt>
      <trkpt lat="46.41729" lon="4.75259">
        <ele>269.6</ele>
        <time>2022-06-25T11:24:52Z</time>
      </trkpt>
      <trkpt lat="46.41726" lon="4.75257">
        <ele>269.6</ele>
        <time>2022-06-25T11:24:53Z</time>
      </trkpt>
      <trkpt lat="46.41724" lon="4.75255">
        <ele>269.8</ele>
        <time>2022-06-25T11:24:54Z</time>
      </trkpt>
      <trkpt lat="46.41721" lon="4.75253">
        <ele>269.8</ele>
        <time>2022-06-25T11:24:55Z</time>
      </trkpt>
      <trkpt lat="46.41719" lon="4.75251">
        <ele>270</ele>
        <time>2022-06-25T11:24:56Z</time>
      </trkpt>
      <trkpt lat="46.41716" lon="4.75249">
        <ele>270</ele>
        <time>2022-06-25T11:24:57Z</time>
      </trkpt>
      <trkpt lat="46.41714" lon="4.75247">
        <ele>270.2</ele>
        <time>2022-06-25T11:24:58Z</time>
      </trkpt>
      <trkpt lat="46.41712" lon="4.75245">
        <ele>270.2</ele>
        <time>2022-06-25T11:24:59Z</time>
      </trkpt>
      <trkpt lat="46.41709" lon="4.75242">
        <ele>270.6</ele>
        <time>2022-06-25T11:25:00Z</time>
      </trkpt>
      <trkpt lat="46.41707" lon="4.7524">
        <ele>270.6</ele>
        <time>2022-06-25T11:25:01Z</time>
      </trkpt>
      <trkpt lat="46.41704" lon="4.75238">
        <ele>270.8</ele>
        <time>2022-06-25T11:25:02Z</time>
      </trkpt>
      <trkpt lat="46.41702" lon="4.75235">
        <ele>271.2</ele>
        <time>2022-06-25T11:25:03Z</time>
      </trkpt>
      <trkpt lat="46.417" lon="4.75233">
        <ele>271.2</ele>
        <time>2022-06-25T11:25:04Z</time>
      </trkpt>
      <trkpt lat="46.41697" lon="4.75231">
        <ele>271.4</ele>
        <time>2022-06-25T11:25:05Z</time>
      </trkpt>
      <trkpt lat="46.41695" lon="4.75228">
        <ele>271.4</ele>
        <time>2022-06-25T11:25:06Z</time>
      </trkpt>
      <trkpt lat="46.41692" lon="4.75226">
        <ele>271.8</ele>
        <time>2022-06-25T11:25:07Z</time>
      </trkpt>
      <trkpt lat="46.4169" lon="4.75224">
        <ele>271.8</ele>
        <time>2022-06-25T11:25:08Z</time>
      </trkpt>
      <trkpt lat="46.41687" lon="4.75222">
        <ele>271.8</ele>
        <time>2022-06-25T11:25:09Z</time>
      </trkpt>
      <trkpt lat="46.41685" lon="4.7522">
        <ele>272</ele>
        <time>2022-06-25T11:25:10Z</time>
      </trkpt>
      <trkpt lat="46.41682" lon="4.75218">
        <ele>272</ele>
        <time>2022-06-25T11:25:11Z</time>
      </trkpt>
      <trkpt lat="46.4168" lon="4.75215">
        <ele>272</ele>
        <time>2022-06-25T11:25:12Z</time>
      </trkpt>
      <trkpt lat="46.41677" lon="4.75213">
        <ele>272.2</ele>
        <time>2022-06-25T11:25:13Z</time>
      </trkpt>
      <trkpt lat="46.41675" lon="4.75211">
        <ele>272.2</ele>
        <time>2022-06-25T11:25:14Z</time>
      </trkpt>
      <trkpt lat="46.41672" lon="4.75208">
        <ele>272.4</ele>
        <time>2022-06-25T11:25:15Z</time>
      </trkpt>
      <trkpt lat="46.41669" lon="4.75206">
        <ele>272.4</ele>
        <time>2022-06-25T11:25:16Z</time>
      </trkpt>
      <trkpt lat="46.41666" lon="4.75203">
        <ele>272.4</ele>
        <time>2022-06-25T11:25:17Z</time>
      </trkpt>
      <trkpt lat="46.41664" lon="4.752">
        <ele>272.8</ele>
        <time>2022-06-25T11:25:18Z</time>
      </trkpt>
      <trkpt lat="46.41661" lon="4.75198">
        <ele>272.8</ele>
        <time>2022-06-25T11:25:19Z</time>
      </trkpt>
      <trkpt lat="46.41658" lon="4.75195">
        <ele>272.8</ele>
        <time>2022-06-25T11:25:20Z</time>
      </trkpt>
      <trkpt lat="46.41655" lon="4.75192">
        <ele>272.8</ele>
        <time>2022-06-25T11:25:21Z</time>
      </trkpt>
      <trkpt lat="46.41652" lon="4.7519">
        <ele>273</ele>
        <time>2022-06-25T11:25:22Z</time>
      </trkpt>
      <trkpt lat="46.41649" lon="4.75187">
        <ele>273</ele>
        <time>2022-06-25T11:25:23Z</time>
      </trkpt>
      <trkpt lat="46.41646" lon="4.75185">
        <ele>273</ele>
        <time>2022-06-25T11:25:24Z</time>
      </trkpt>
      <trkpt lat="46.41643" lon="4.75182">
        <ele>273.2</ele>
        <time>2022-06-25T11:25:25Z</time>
      </trkpt>
      <trkpt lat="46.4164" lon="4.75179">
        <ele>273.2</ele>
        <time>2022-06-25T11:25:26Z</time>
      </trkpt>
      <trkpt lat="46.41637" lon="4.75177">
        <ele>273.4</ele>
        <time>2022-06-25T11:25:27Z</time>
      </trkpt>
      <trkpt lat="46.41634" lon="4.75174">
        <ele>273.4</ele>
        <time>2022-06-25T11:25:28Z</time>
      </trkpt>
      <trkpt lat="46.4163" lon="4.75171">
        <ele>273.8</ele>
        <time>2022-06-25T11:25:29Z</time>
      </trkpt>
      <trkpt lat="46.41627" lon="4.75168">
        <ele>273.8</ele>
        <time>2022-06-25T11:25:30Z</time>
      </trkpt>
      <trkpt lat="46.41624" lon="4.75165">
        <ele>274.2</ele>
        <time>2022-06-25T11:25:31Z</time>
      </trkpt>
      <trkpt lat="46.41621" lon="4.75162">
        <ele>274.2</ele>
        <time>2022-06-25T11:25:32Z</time>
      </trkpt>
      <trkpt lat="46.41618" lon="4.75159">
        <ele>274.4</ele>
        <time>2022-06-25T11:25:33Z</time>
      </trkpt>
      <trkpt lat="46.41615" lon="4.75156">
        <ele>274.4</ele>
        <time>2022-06-25T11:25:34Z</time>
      </trkpt>
      <trkpt lat="46.41612" lon="4.75153">
        <ele>274.8</ele>
        <time>2022-06-25T11:25:35Z</time>
      </trkpt>
      <trkpt lat="46.41609" lon="4.7515">
        <ele>274.8</ele>
        <time>2022-06-25T11:25:36Z</time>
      </trkpt>
      <trkpt lat="46.41606" lon="4.75147">
        <ele>275</ele>
        <time>2022-06-25T11:25:37Z</time>
      </trkpt>
      <trkpt lat="46.41603" lon="4.75144">
        <ele>275</ele>
        <time>2022-06-25T11:25:38Z</time>
      </trkpt>
      <trkpt lat="46.416" lon="4.75141">
        <ele>275.4</ele>
        <time>2022-06-25T11:25:39Z</time>
      </trkpt>
      <trkpt lat="46.41597" lon="4.75138">
        <ele>275.4</ele>
        <time>2022-06-25T11:25:40Z</time>
      </trkpt>
      <trkpt lat="46.41594" lon="4.75136">
        <ele>275.8</ele>
        <time>2022-06-25T11:25:41Z</time>
      </trkpt>
      <trkpt lat="46.41592" lon="4.75133">
        <ele>275.8</ele>
        <time>2022-06-25T11:25:42Z</time>
      </trkpt>
      <trkpt lat="46.41589" lon="4.7513">
        <ele>276</ele>
        <time>2022-06-25T11:25:43Z</time>
      </trkpt>
      <trkpt lat="46.41586" lon="4.75127">
        <ele>276</ele>
        <time>2022-06-25T11:25:44Z</time>
      </trkpt>
      <trkpt lat="46.41583" lon="4.75124">
        <ele>276.4</ele>
        <time>2022-06-25T11:25:45Z</time>
      </trkpt>
      <trkpt lat="46.4158" lon="4.75121">
        <ele>276.6</ele>
        <time>2022-06-25T11:25:46Z</time>
      </trkpt>
      <trkpt lat="46.41578" lon="4.75118">
        <ele>276.6</ele>
        <time>2022-06-25T11:25:47Z</time>
      </trkpt>
      <trkpt lat="46.41575" lon="4.75115">
        <ele>277</ele>
        <time>2022-06-25T11:25:48Z</time>
      </trkpt>
      <trkpt lat="46.41572" lon="4.75112">
        <ele>277</ele>
        <time>2022-06-25T11:25:49Z</time>
      </trkpt>
      <trkpt lat="46.4157" lon="4.75109">
        <ele>277.2</ele>
        <time>2022-06-25T11:25:50Z</time>
      </trkpt>
      <trkpt lat="46.41567" lon="4.75106">
        <ele>277.2</ele>
        <time>2022-06-25T11:25:51Z</time>
      </trkpt>
      <trkpt lat="46.41564" lon="4.75103">
        <ele>277.4</ele>
        <time>2022-06-25T11:25:52Z</time>
      </trkpt>
      <trkpt lat="46.41561" lon="4.751">
        <ele>277.4</ele>
        <time>2022-06-25T11:25:53Z</time>
      </trkpt>
      <trkpt lat="46.41559" lon="4.75097">
        <ele>277.8</ele>
        <time>2022-06-25T11:25:54Z</time>
      </trkpt>
      <trkpt lat="46.41556" lon="4.75094">
        <ele>277.8</ele>
        <time>2022-06-25T11:25:55Z</time>
      </trkpt>
      <trkpt lat="46.41553" lon="4.75091">
        <ele>278</ele>
        <time>2022-06-25T11:25:56Z</time>
      </trkpt>
      <trkpt lat="46.4155" lon="4.75088">
        <ele>278</ele>
        <time>2022-06-25T11:25:57Z</time>
      </trkpt>
      <trkpt lat="46.41547" lon="4.75085">
        <ele>278</ele>
        <time>2022-06-25T11:25:58Z</time>
      </trkpt>
      <trkpt lat="46.41545" lon="4.75082">
        <ele>278</ele>
        <time>2022-06-25T11:25:59Z</time>
      </trkpt>
      <trkpt lat="46.41542" lon="4.75078">
        <ele>278.2</ele>
        <time>2022-06-25T11:26:00Z</time>
      </trkpt>
      <trkpt lat="46.41539" lon="4.75075">
        <ele>278.2</ele>
        <time>2022-06-25T11:26:01Z</time>
      </trkpt>
      <trkpt lat="46.41537" lon="4.75072">
        <ele>278.6</ele>
        <time>2022-06-25T11:26:02Z</time>
      </trkpt>
      <trkpt lat="46.41534" lon="4.75069">
        <ele>278.6</ele>
        <time>2022-06-25T11:26:03Z</time>
      </trkpt>
      <trkpt lat="46.41531" lon="4.75066">
        <ele>278.8</ele>
        <time>2022-06-25T11:26:04Z</time>
      </trkpt>
      <trkpt lat="46.41529" lon="4.75064">
        <ele>278.8</ele>
        <time>2022-06-25T11:26:05Z</time>
      </trkpt>
      <trkpt lat="46.41526" lon="4.75061">
        <ele>279</ele>
        <time>2022-06-25T11:26:06Z</time>
      </trkpt>
      <trkpt lat="46.41524" lon="4.75059">
        <ele>279</ele>
        <time>2022-06-25T11:26:07Z</time>
      </trkpt>
      <trkpt lat="46.41522" lon="4.75057">
        <ele>279</ele>
        <time>2022-06-25T11:26:08Z</time>
      </trkpt>
      <trkpt lat="46.41519" lon="4.75054">
        <ele>279.4</ele>
        <time>2022-06-25T11:26:09Z</time>
      </trkpt>
      <trkpt lat="46.41517" lon="4.75052">
        <ele>279.4</ele>
        <time>2022-06-25T11:26:10Z</time>
      </trkpt>
      <trkpt lat="46.41515" lon="4.75049">
        <ele>279.6</ele>
        <time>2022-06-25T11:26:11Z</time>
      </trkpt>
      <trkpt lat="46.41512" lon="4.75046">
        <ele>279.6</ele>
        <time>2022-06-25T11:26:12Z</time>
      </trkpt>
      <trkpt lat="46.4151" lon="4.75044">
        <ele>280</ele>
        <time>2022-06-25T11:26:13Z</time>
      </trkpt>
      <trkpt lat="46.41507" lon="4.75042">
        <ele>280</ele>
        <time>2022-06-25T11:26:14Z</time>
      </trkpt>
      <trkpt lat="46.41505" lon="4.75039">
        <ele>280.2</ele>
        <time>2022-06-25T11:26:15Z</time>
      </trkpt>
      <trkpt lat="46.41502" lon="4.75037">
        <ele>280.2</ele>
        <time>2022-06-25T11:26:16Z</time>
      </trkpt>
      <trkpt lat="46.41499" lon="4.75035">
        <ele>280.6</ele>
        <time>2022-06-25T11:26:17Z</time>
      </trkpt>
      <trkpt lat="46.41497" lon="4.75032">
        <ele>280.6</ele>
        <time>2022-06-25T11:26:18Z</time>
      </trkpt>
      <trkpt lat="46.41495" lon="4.7503">
        <ele>281</ele>
        <time>2022-06-25T11:26:19Z</time>
      </trkpt>
      <trkpt lat="46.41492" lon="4.75028">
        <ele>281</ele>
        <time>2022-06-25T11:26:20Z</time>
      </trkpt>
      <trkpt lat="46.4149" lon="4.75026">
        <ele>281.2</ele>
        <time>2022-06-25T11:26:21Z</time>
      </trkpt>
      <trkpt lat="46.41487" lon="4.75023">
        <ele>281.2</ele>
        <time>2022-06-25T11:26:22Z</time>
      </trkpt>
      <trkpt lat="46.41484" lon="4.75021">
        <ele>281.2</ele>
        <time>2022-06-25T11:26:23Z</time>
      </trkpt>
      <trkpt lat="46.41481" lon="4.75018">
        <ele>281.6</ele>
        <time>2022-06-25T11:26:24Z</time>
      </trkpt>
      <trkpt lat="46.41478" lon="4.75016">
        <ele>281.6</ele>
        <time>2022-06-25T11:26:25Z</time>
      </trkpt>
      <trkpt lat="46.41475" lon="4.75013">
        <ele>282</ele>
        <time>2022-06-25T11:26:26Z</time>
      </trkpt>
      <trkpt lat="46.41473" lon="4.75011">
        <ele>282.2</ele>
        <time>2022-06-25T11:26:27Z</time>
      </trkpt>
      <trkpt lat="46.4147" lon="4.75008">
        <ele>282.2</ele>
        <time>2022-06-25T11:26:28Z</time>
      </trkpt>
      <trkpt lat="46.41467" lon="4.75006">
        <ele>282.6</ele>
        <time>2022-06-25T11:26:29Z</time>
      </trkpt>
      <trkpt lat="46.41464" lon="4.75004">
        <ele>282.6</ele>
        <time>2022-06-25T11:26:30Z</time>
      </trkpt>
      <trkpt lat="46.41461" lon="4.75002">
        <ele>282.8</ele>
        <time>2022-06-25T11:26:31Z</time>
      </trkpt>
      <trkpt lat="46.41458" lon="4.75">
        <ele>283</ele>
        <time>2022-06-25T11:26:32Z</time>
      </trkpt>
      <trkpt lat="46.41455" lon="4.74998">
        <ele>283</ele>
        <time>2022-06-25T11:26:33Z</time>
      </trkpt>
      <trkpt lat="46.41452" lon="4.74996">
        <ele>283.4</ele>
        <time>2022-06-25T11:26:34Z</time>
      </trkpt>
      <trkpt lat="46.41449" lon="4.74994">
        <ele>283.4</ele>
        <time>2022-06-25T11:26:35Z</time>
      </trkpt>
      <trkpt lat="46.41446" lon="4.74991">
        <ele>283.4</ele>
        <time>2022-06-25T11:26:36Z</time>
      </trkpt>
      <trkpt lat="46.41443" lon="4.74989">
        <ele>283.6</ele>
        <time>2022-06-25T11:26:37Z</time>
      </trkpt>
      <trkpt lat="46.41439" lon="4.74987">
        <ele>283.6</ele>
        <time>2022-06-25T11:26:38Z</time>
      </trkpt>
      <trkpt lat="46.41436" lon="4.74984">
        <ele>284</ele>
        <time>2022-06-25T11:26:39Z</time>
      </trkpt>
      <trkpt lat="46.41433" lon="4.74982">
        <ele>284</ele>
        <time>2022-06-25T11:26:40Z</time>
      </trkpt>
      <trkpt lat="46.4143" lon="4.74979">
        <ele>284.4</ele>
        <time>2022-06-25T11:26:41Z</time>
      </trkpt>
      <trkpt lat="46.41427" lon="4.74977">
        <ele>284.4</ele>
        <time>2022-06-25T11:26:42Z</time>
      </trkpt>
      <trkpt lat="46.41424" lon="4.74974">
        <ele>284.8</ele>
        <time>2022-06-25T11:26:43Z</time>
      </trkpt>
      <trkpt lat="46.41421" lon="4.74972">
        <ele>284.8</ele>
        <time>2022-06-25T11:26:44Z</time>
      </trkpt>
      <trkpt lat="46.41417" lon="4.7497">
        <ele>285</ele>
        <time>2022-06-25T11:26:45Z</time>
      </trkpt>
      <trkpt lat="46.41414" lon="4.74967">
        <ele>285</ele>
        <time>2022-06-25T11:26:46Z</time>
      </trkpt>
      <trkpt lat="46.41411" lon="4.74965">
        <ele>285.2</ele>
        <time>2022-06-25T11:26:47Z</time>
      </trkpt>
      <trkpt lat="46.41408" lon="4.74963">
        <ele>285.2</ele>
        <time>2022-06-25T11:26:48Z</time>
      </trkpt>
      <trkpt lat="46.41405" lon="4.74961">
        <ele>285.2</ele>
        <time>2022-06-25T11:26:49Z</time>
      </trkpt>
      <trkpt lat="46.41402" lon="4.74959">
        <ele>285.6</ele>
        <time>2022-06-25T11:26:50Z</time>
      </trkpt>
      <trkpt lat="46.41399" lon="4.74956">
        <ele>285.6</ele>
        <time>2022-06-25T11:26:51Z</time>
      </trkpt>
      <trkpt lat="46.41396" lon="4.74954">
        <ele>285.8</ele>
        <time>2022-06-25T11:26:52Z</time>
      </trkpt>
      <trkpt lat="46.41393" lon="4.74952">
        <ele>285.8</ele>
        <time>2022-06-25T11:26:53Z</time>
      </trkpt>
      <trkpt lat="46.4139" lon="4.74949">
        <ele>286</ele>
        <time>2022-06-25T11:26:54Z</time>
      </trkpt>
      <trkpt lat="46.41387" lon="4.74946">
        <ele>286</ele>
        <time>2022-06-25T11:26:55Z</time>
      </trkpt>
      <trkpt lat="46.41384" lon="4.74944">
        <ele>286</ele>
        <time>2022-06-25T11:26:56Z</time>
      </trkpt>
      <trkpt lat="46.41381" lon="4.74942">
        <ele>286.4</ele>
        <time>2022-06-25T11:26:57Z</time>
      </trkpt>
      <trkpt lat="46.41377" lon="4.74939">
        <ele>286.4</ele>
        <time>2022-06-25T11:26:58Z</time>
      </trkpt>
      <trkpt lat="46.41374" lon="4.74937">
        <ele>286.4</ele>
        <time>2022-06-25T11:26:59Z</time>
      </trkpt>
      <trkpt lat="46.41371" lon="4.74934">
        <ele>286.6</ele>
        <time>2022-06-25T11:27:00Z</time>
      </trkpt>
      <trkpt lat="46.41368" lon="4.74932">
        <ele>286.6</ele>
        <time>2022-06-25T11:27:01Z</time>
      </trkpt>
      <trkpt lat="46.41365" lon="4.74929">
        <ele>287</ele>
        <time>2022-06-25T11:27:02Z</time>
      </trkpt>
      <trkpt lat="46.41362" lon="4.74926">
        <ele>287.2</ele>
        <time>2022-06-25T11:27:03Z</time>
      </trkpt>
      <trkpt lat="46.41359" lon="4.74924">
        <ele>287.2</ele>
        <time>2022-06-25T11:27:04Z</time>
      </trkpt>
      <trkpt lat="46.41356" lon="4.74921">
        <ele>287.6</ele>
        <time>2022-06-25T11:27:05Z</time>
      </trkpt>
      <trkpt lat="46.41353" lon="4.74918">
        <ele>287.6</ele>
        <time>2022-06-25T11:27:06Z</time>
      </trkpt>
      <trkpt lat="46.4135" lon="4.74916">
        <ele>288</ele>
        <time>2022-06-25T11:27:07Z</time>
      </trkpt>
      <trkpt lat="46.41347" lon="4.74913">
        <ele>288</ele>
        <time>2022-06-25T11:27:08Z</time>
      </trkpt>
      <trkpt lat="46.41344" lon="4.74911">
        <ele>288.2</ele>
        <time>2022-06-25T11:27:09Z</time>
      </trkpt>
      <trkpt lat="46.41339" lon="4.74905">
        <ele>288.2</ele>
        <time>2022-06-25T11:27:10Z</time>
      </trkpt>
      <trkpt lat="46.41336" lon="4.74902">
        <ele>288.4</ele>
        <time>2022-06-25T11:27:11Z</time>
      </trkpt>
      <trkpt lat="46.41333" lon="4.749">
        <ele>288.4</ele>
        <time>2022-06-25T11:27:12Z</time>
      </trkpt>
      <trkpt lat="46.4133" lon="4.74897">
        <ele>288.6</ele>
        <time>2022-06-25T11:27:13Z</time>
      </trkpt>
      <trkpt lat="46.41327" lon="4.74894">
        <ele>288.6</ele>
        <time>2022-06-25T11:27:14Z</time>
      </trkpt>
      <trkpt lat="46.41325" lon="4.74891">
        <ele>288.8</ele>
        <time>2022-06-25T11:27:15Z</time>
      </trkpt>
      <trkpt lat="46.41322" lon="4.74888">
        <ele>288.8</ele>
        <time>2022-06-25T11:27:16Z</time>
      </trkpt>
      <trkpt lat="46.41319" lon="4.74886">
        <ele>289.2</ele>
        <time>2022-06-25T11:27:17Z</time>
      </trkpt>
      <trkpt lat="46.41316" lon="4.74883">
        <ele>289.2</ele>
        <time>2022-06-25T11:27:18Z</time>
      </trkpt>
      <trkpt lat="46.41313" lon="4.7488">
        <ele>289.4</ele>
        <time>2022-06-25T11:27:19Z</time>
      </trkpt>
      <trkpt lat="46.4131" lon="4.74877">
        <ele>289.4</ele>
        <time>2022-06-25T11:27:20Z</time>
      </trkpt>
      <trkpt lat="46.41307" lon="4.74875">
        <ele>289.8</ele>
        <time>2022-06-25T11:27:21Z</time>
      </trkpt>
      <trkpt lat="46.41304" lon="4.74872">
        <ele>290</ele>
        <time>2022-06-25T11:27:22Z</time>
      </trkpt>
      <trkpt lat="46.41301" lon="4.74869">
        <ele>290</ele>
        <time>2022-06-25T11:27:23Z</time>
      </trkpt>
      <trkpt lat="46.41298" lon="4.74867">
        <ele>290.2</ele>
        <time>2022-06-25T11:27:24Z</time>
      </trkpt>
      <trkpt lat="46.41296" lon="4.74864">
        <ele>290.2</ele>
        <time>2022-06-25T11:27:25Z</time>
      </trkpt>
      <trkpt lat="46.41293" lon="4.74861">
        <ele>290.2</ele>
        <time>2022-06-25T11:27:26Z</time>
      </trkpt>
      <trkpt lat="46.4129" lon="4.74859">
        <ele>290.4</ele>
        <time>2022-06-25T11:27:27Z</time>
      </trkpt>
      <trkpt lat="46.41287" lon="4.74856">
        <ele>290.4</ele>
        <time>2022-06-25T11:27:28Z</time>
      </trkpt>
      <trkpt lat="46.41285" lon="4.74854">
        <ele>290.4</ele>
        <time>2022-06-25T11:27:29Z</time>
      </trkpt>
      <trkpt lat="46.41282" lon="4.74851">
        <ele>290.8</ele>
        <time>2022-06-25T11:27:30Z</time>
      </trkpt>
      <trkpt lat="46.41279" lon="4.74849">
        <ele>290.8</ele>
        <time>2022-06-25T11:27:31Z</time>
      </trkpt>
      <trkpt lat="46.41277" lon="4.74846">
        <ele>291</ele>
        <time>2022-06-25T11:27:32Z</time>
      </trkpt>
      <trkpt lat="46.41273" lon="4.74844">
        <ele>291</ele>
        <time>2022-06-25T11:27:33Z</time>
      </trkpt>
      <trkpt lat="46.4127" lon="4.74841">
        <ele>291.2</ele>
        <time>2022-06-25T11:27:34Z</time>
      </trkpt>
      <trkpt lat="46.41267" lon="4.74838">
        <ele>291.2</ele>
        <time>2022-06-25T11:27:35Z</time>
      </trkpt>
      <trkpt lat="46.41264" lon="4.74836">
        <ele>291.4</ele>
        <time>2022-06-25T11:27:36Z</time>
      </trkpt>
      <trkpt lat="46.41261" lon="4.74833">
        <ele>291.4</ele>
        <time>2022-06-25T11:27:37Z</time>
      </trkpt>
      <trkpt lat="46.41257" lon="4.74831">
        <ele>291.4</ele>
        <time>2022-06-25T11:27:38Z</time>
      </trkpt>
      <trkpt lat="46.41253" lon="4.74829">
        <ele>291.4</ele>
        <time>2022-06-25T11:27:39Z</time>
      </trkpt>
      <trkpt lat="46.41249" lon="4.74827">
        <ele>291.4</ele>
        <time>2022-06-25T11:27:40Z</time>
      </trkpt>
      <trkpt lat="46.41245" lon="4.74825">
        <ele>291.4</ele>
        <time>2022-06-25T11:27:41Z</time>
      </trkpt>
      <trkpt lat="46.4124" lon="4.74823">
        <ele>291.4</ele>
        <time>2022-06-25T11:27:42Z</time>
      </trkpt>
      <trkpt lat="46.41235" lon="4.74821">
        <ele>291.4</ele>
        <time>2022-06-25T11:27:43Z</time>
      </trkpt>
      <trkpt lat="46.41229" lon="4.74819">
        <ele>291.4</ele>
        <time>2022-06-25T11:27:44Z</time>
      </trkpt>
      <trkpt lat="46.41224" lon="4.74817">
        <ele>291.2</ele>
        <time>2022-06-25T11:27:45Z</time>
      </trkpt>
      <trkpt lat="46.41218" lon="4.74814">
        <ele>291.2</ele>
        <time>2022-06-25T11:27:46Z</time>
      </trkpt>
      <trkpt lat="46.41212" lon="4.74812">
        <ele>290.8</ele>
        <time>2022-06-25T11:27:47Z</time>
      </trkpt>
      <trkpt lat="46.41205" lon="4.7481">
        <ele>290.8</ele>
        <time>2022-06-25T11:27:48Z</time>
      </trkpt>
      <trkpt lat="46.41198" lon="4.74808">
        <ele>290.6</ele>
        <time>2022-06-25T11:27:49Z</time>
      </trkpt>
      <trkpt lat="46.41191" lon="4.74806">
        <ele>290.4</ele>
        <time>2022-06-25T11:27:50Z</time>
      </trkpt>
      <trkpt lat="46.41184" lon="4.74804">
        <ele>290</ele>
        <time>2022-06-25T11:27:51Z</time>
      </trkpt>
      <trkpt lat="46.41177" lon="4.74802">
        <ele>290</ele>
        <time>2022-06-25T11:27:52Z</time>
      </trkpt>
      <trkpt lat="46.41169" lon="4.748">
        <ele>289.6</ele>
        <time>2022-06-25T11:27:53Z</time>
      </trkpt>
      <trkpt lat="46.41162" lon="4.74797">
        <ele>289.4</ele>
        <time>2022-06-25T11:27:54Z</time>
      </trkpt>
      <trkpt lat="46.41154" lon="4.74795">
        <ele>289.2</ele>
        <time>2022-06-25T11:27:55Z</time>
      </trkpt>
      <trkpt lat="46.41146" lon="4.74793">
        <ele>288.8</ele>
        <time>2022-06-25T11:27:56Z</time>
      </trkpt>
      <trkpt lat="46.41139" lon="4.74791">
        <ele>288.2</ele>
        <time>2022-06-25T11:27:57Z</time>
      </trkpt>
      <trkpt lat="46.41131" lon="4.74788">
        <ele>288</ele>
        <time>2022-06-25T11:27:58Z</time>
      </trkpt>
      <trkpt lat="46.41122" lon="4.74786">
        <ele>287.4</ele>
        <time>2022-06-25T11:27:59Z</time>
      </trkpt>
      <trkpt lat="46.41114" lon="4.74784">
        <ele>287.4</ele>
        <time>2022-06-25T11:28:00Z</time>
      </trkpt>
      <trkpt lat="46.41106" lon="4.74781">
        <ele>287</ele>
        <time>2022-06-25T11:28:01Z</time>
      </trkpt>
      <trkpt lat="46.41098" lon="4.74778">
        <ele>286.6</ele>
        <time>2022-06-25T11:28:02Z</time>
      </trkpt>
      <trkpt lat="46.41089" lon="4.74776">
        <ele>286.4</ele>
        <time>2022-06-25T11:28:03Z</time>
      </trkpt>
      <trkpt lat="46.41081" lon="4.74772">
        <ele>286</ele>
        <time>2022-06-25T11:28:04Z</time>
      </trkpt>
      <trkpt lat="46.41072" lon="4.74769">
        <ele>285.8</ele>
        <time>2022-06-25T11:28:05Z</time>
      </trkpt>
      <trkpt lat="46.41063" lon="4.74765">
        <ele>285.2</ele>
        <time>2022-06-25T11:28:06Z</time>
      </trkpt>
      <trkpt lat="46.41054" lon="4.7476">
        <ele>285</ele>
        <time>2022-06-25T11:28:07Z</time>
      </trkpt>
      <trkpt lat="46.41045" lon="4.74755">
        <ele>284.6</ele>
        <time>2022-06-25T11:28:08Z</time>
      </trkpt>
      <trkpt lat="46.41037" lon="4.74749">
        <ele>284.2</ele>
        <time>2022-06-25T11:28:09Z</time>
      </trkpt>
      <trkpt lat="46.41029" lon="4.74742">
        <ele>283.8</ele>
        <time>2022-06-25T11:28:10Z</time>
      </trkpt>
      <trkpt lat="46.41026" lon="4.74739">
        <ele>283.4</ele>
        <time>2022-06-25T11:28:11Z</time>
      </trkpt>
      <trkpt lat="46.41022" lon="4.74736">
        <ele>283</ele>
        <time>2022-06-25T11:28:12Z</time>
      </trkpt>
      <trkpt lat="46.41014" lon="4.7473">
        <ele>282.6</ele>
        <time>2022-06-25T11:28:13Z</time>
      </trkpt>
      <trkpt lat="46.41006" lon="4.74725">
        <ele>282.4</ele>
        <time>2022-06-25T11:28:14Z</time>
      </trkpt>
      <trkpt lat="46.40994" lon="4.74717">
        <ele>282</ele>
        <time>2022-06-25T11:28:15Z</time>
      </trkpt>
      <trkpt lat="46.4099" lon="4.74714">
        <ele>281.4</ele>
        <time>2022-06-25T11:28:16Z</time>
      </trkpt>
      <trkpt lat="46.40982" lon="4.74709">
        <ele>281</ele>
        <time>2022-06-25T11:28:17Z</time>
      </trkpt>
      <trkpt lat="46.40975" lon="4.74704">
        <ele>281</ele>
        <time>2022-06-25T11:28:18Z</time>
      </trkpt>
      <trkpt lat="46.40967" lon="4.747">
        <ele>280.6</ele>
        <time>2022-06-25T11:28:19Z</time>
      </trkpt>
      <trkpt lat="46.40959" lon="4.74696">
        <ele>280.2</ele>
        <time>2022-06-25T11:28:20Z</time>
      </trkpt>
      <trkpt lat="46.40947" lon="4.74692">
        <ele>279.8</ele>
        <time>2022-06-25T11:28:21Z</time>
      </trkpt>
      <trkpt lat="46.40943" lon="4.7469">
        <ele>279.6</ele>
        <time>2022-06-25T11:28:22Z</time>
      </trkpt>
      <trkpt lat="46.40935" lon="4.74688">
        <ele>279.6</ele>
        <time>2022-06-25T11:28:23Z</time>
      </trkpt>
      <trkpt lat="46.40927" lon="4.74685">
        <ele>279.6</ele>
        <time>2022-06-25T11:28:24Z</time>
      </trkpt>
      <trkpt lat="46.40919" lon="4.74683">
        <ele>279.2</ele>
        <time>2022-06-25T11:28:25Z</time>
      </trkpt>
      <trkpt lat="46.40911" lon="4.7468">
        <ele>279</ele>
        <time>2022-06-25T11:28:26Z</time>
      </trkpt>
      <trkpt lat="46.40904" lon="4.74677">
        <ele>279</ele>
        <time>2022-06-25T11:28:27Z</time>
      </trkpt>
      <trkpt lat="46.40897" lon="4.74673">
        <ele>278.8</ele>
        <time>2022-06-25T11:28:28Z</time>
      </trkpt>
      <trkpt lat="46.4089" lon="4.74669">
        <ele>278.8</ele>
        <time>2022-06-25T11:28:29Z</time>
      </trkpt>
      <trkpt lat="46.40883" lon="4.74665">
        <ele>278.8</ele>
        <time>2022-06-25T11:28:30Z</time>
      </trkpt>
      <trkpt lat="46.40877" lon="4.7466">
        <ele>278.8</ele>
        <time>2022-06-25T11:28:31Z</time>
      </trkpt>
      <trkpt lat="46.40871" lon="4.74655">
        <ele>278.8</ele>
        <time>2022-06-25T11:28:32Z</time>
      </trkpt>
      <trkpt lat="46.40864" lon="4.74647">
        <ele>279</ele>
        <time>2022-06-25T11:28:33Z</time>
      </trkpt>
      <trkpt lat="46.40862" lon="4.74645">
        <ele>279.2</ele>
        <time>2022-06-25T11:28:34Z</time>
      </trkpt>
      <trkpt lat="46.40857" lon="4.7464">
        <ele>279.6</ele>
        <time>2022-06-25T11:28:35Z</time>
      </trkpt>
      <trkpt lat="46.40854" lon="4.74635">
        <ele>279.8</ele>
        <time>2022-06-25T11:28:36Z</time>
      </trkpt>
      <trkpt lat="46.40851" lon="4.7463">
        <ele>280</ele>
        <time>2022-06-25T11:28:37Z</time>
      </trkpt>
      <trkpt lat="46.40848" lon="4.74626">
        <ele>280.4</ele>
        <time>2022-06-25T11:28:38Z</time>
      </trkpt>
      <trkpt lat="46.40845" lon="4.74622">
        <ele>280.8</ele>
        <time>2022-06-25T11:28:39Z</time>
      </trkpt>
      <trkpt lat="46.40842" lon="4.74618">
        <ele>281</ele>
        <time>2022-06-25T11:28:40Z</time>
      </trkpt>
      <trkpt lat="46.40839" lon="4.74614">
        <ele>281.2</ele>
        <time>2022-06-25T11:28:41Z</time>
      </trkpt>
      <trkpt lat="46.40836" lon="4.7461">
        <ele>281.6</ele>
        <time>2022-06-25T11:28:42Z</time>
      </trkpt>
      <trkpt lat="46.40833" lon="4.74607">
        <ele>281.8</ele>
        <time>2022-06-25T11:28:43Z</time>
      </trkpt>
      <trkpt lat="46.4083" lon="4.74604">
        <ele>282</ele>
        <time>2022-06-25T11:28:44Z</time>
      </trkpt>
      <trkpt lat="46.40828" lon="4.746">
        <ele>282.2</ele>
        <time>2022-06-25T11:28:45Z</time>
      </trkpt>
      <trkpt lat="46.40825" lon="4.74597">
        <ele>282.6</ele>
        <time>2022-06-25T11:28:46Z</time>
      </trkpt>
      <trkpt lat="46.40822" lon="4.74594">
        <ele>282.8</ele>
        <time>2022-06-25T11:28:47Z</time>
      </trkpt>
      <trkpt lat="46.40819" lon="4.74591">
        <ele>283</ele>
        <time>2022-06-25T11:28:48Z</time>
      </trkpt>
      <trkpt lat="46.40816" lon="4.74588">
        <ele>283</ele>
        <time>2022-06-25T11:28:49Z</time>
      </trkpt>
      <trkpt lat="46.40813" lon="4.74585">
        <ele>283.4</ele>
        <time>2022-06-25T11:28:50Z</time>
      </trkpt>
      <trkpt lat="46.40807" lon="4.74581">
        <ele>283.4</ele>
        <time>2022-06-25T11:28:51Z</time>
      </trkpt>
      <trkpt lat="46.40805" lon="4.7458">
        <ele>283.6</ele>
        <time>2022-06-25T11:28:52Z</time>
      </trkpt>
      <trkpt lat="46.40799" lon="4.74577">
        <ele>283.6</ele>
        <time>2022-06-25T11:28:53Z</time>
      </trkpt>
      <trkpt lat="46.40797" lon="4.74575">
        <ele>283.6</ele>
        <time>2022-06-25T11:28:54Z</time>
      </trkpt>
      <trkpt lat="46.40793" lon="4.74573">
        <ele>283.6</ele>
        <time>2022-06-25T11:28:55Z</time>
      </trkpt>
      <trkpt lat="46.40789" lon="4.74571">
        <ele>283.6</ele>
        <time>2022-06-25T11:28:56Z</time>
      </trkpt>
      <trkpt lat="46.40784" lon="4.74569">
        <ele>283.6</ele>
        <time>2022-06-25T11:28:57Z</time>
      </trkpt>
      <trkpt lat="46.40779" lon="4.74567">
        <ele>283.6</ele>
        <time>2022-06-25T11:28:58Z</time>
      </trkpt>
      <trkpt lat="46.40774" lon="4.74564">
        <ele>283.6</ele>
        <time>2022-06-25T11:28:59Z</time>
      </trkpt>
      <trkpt lat="46.40769" lon="4.74562">
        <ele>283.6</ele>
        <time>2022-06-25T11:29:00Z</time>
      </trkpt>
      <trkpt lat="46.40763" lon="4.7456">
        <ele>283.4</ele>
        <time>2022-06-25T11:29:01Z</time>
      </trkpt>
      <trkpt lat="46.40758" lon="4.74558">
        <ele>283.4</ele>
        <time>2022-06-25T11:29:02Z</time>
      </trkpt>
      <trkpt lat="46.40752" lon="4.74555">
        <ele>283.4</ele>
        <time>2022-06-25T11:29:03Z</time>
      </trkpt>
      <trkpt lat="46.40747" lon="4.74554">
        <ele>283.2</ele>
        <time>2022-06-25T11:29:04Z</time>
      </trkpt>
      <trkpt lat="46.40741" lon="4.74552">
        <ele>283.2</ele>
        <time>2022-06-25T11:29:05Z</time>
      </trkpt>
      <trkpt lat="46.40735" lon="4.7455">
        <ele>282.8</ele>
        <time>2022-06-25T11:29:06Z</time>
      </trkpt>
      <trkpt lat="46.40729" lon="4.74547">
        <ele>282.8</ele>
        <time>2022-06-25T11:29:07Z</time>
      </trkpt>
      <trkpt lat="46.40723" lon="4.74545">
        <ele>282.6</ele>
        <time>2022-06-25T11:29:08Z</time>
      </trkpt>
      <trkpt lat="46.40717" lon="4.74542">
        <ele>282.4</ele>
        <time>2022-06-25T11:29:09Z</time>
      </trkpt>
      <trkpt lat="46.40711" lon="4.7454">
        <ele>282.4</ele>
        <time>2022-06-25T11:29:10Z</time>
      </trkpt>
      <trkpt lat="46.40704" lon="4.74538">
        <ele>282.4</ele>
        <time>2022-06-25T11:29:11Z</time>
      </trkpt>
      <trkpt lat="46.40698" lon="4.74535">
        <ele>282</ele>
        <time>2022-06-25T11:29:12Z</time>
      </trkpt>
      <trkpt lat="46.40692" lon="4.74532">
        <ele>282</ele>
        <time>2022-06-25T11:29:13Z</time>
      </trkpt>
      <trkpt lat="46.40685" lon="4.7453">
        <ele>281.8</ele>
        <time>2022-06-25T11:29:14Z</time>
      </trkpt>
      <trkpt lat="46.40679" lon="4.74527">
        <ele>281.8</ele>
        <time>2022-06-25T11:29:15Z</time>
      </trkpt>
      <trkpt lat="46.40673" lon="4.74524">
        <ele>281.6</ele>
        <time>2022-06-25T11:29:16Z</time>
      </trkpt>
      <trkpt lat="46.40667" lon="4.74522">
        <ele>281.6</ele>
        <time>2022-06-25T11:29:17Z</time>
      </trkpt>
      <trkpt lat="46.4066" lon="4.7452">
        <ele>281.2</ele>
        <time>2022-06-25T11:29:18Z</time>
      </trkpt>
      <trkpt lat="46.40654" lon="4.74517">
        <ele>281.2</ele>
        <time>2022-06-25T11:29:19Z</time>
      </trkpt>
      <trkpt lat="46.40647" lon="4.74516">
        <ele>281</ele>
        <time>2022-06-25T11:29:20Z</time>
      </trkpt>
      <trkpt lat="46.4064" lon="4.74514">
        <ele>281</ele>
        <time>2022-06-25T11:29:21Z</time>
      </trkpt>
      <trkpt lat="46.40633" lon="4.74513">
        <ele>280.6</ele>
        <time>2022-06-25T11:29:22Z</time>
      </trkpt>
      <trkpt lat="46.40626" lon="4.74512">
        <ele>280.2</ele>
        <time>2022-06-25T11:29:23Z</time>
      </trkpt>
      <trkpt lat="46.40619" lon="4.74512">
        <ele>280</ele>
        <time>2022-06-25T11:29:24Z</time>
      </trkpt>
      <trkpt lat="46.40612" lon="4.74511">
        <ele>279.8</ele>
        <time>2022-06-25T11:29:25Z</time>
      </trkpt>
      <trkpt lat="46.40604" lon="4.7451">
        <ele>279.4</ele>
        <time>2022-06-25T11:29:26Z</time>
      </trkpt>
      <trkpt lat="46.40597" lon="4.74509">
        <ele>279.4</ele>
        <time>2022-06-25T11:29:27Z</time>
      </trkpt>
      <trkpt lat="46.4059" lon="4.74508">
        <ele>279</ele>
        <time>2022-06-25T11:29:28Z</time>
      </trkpt>
      <trkpt lat="46.40582" lon="4.74507">
        <ele>278.8</ele>
        <time>2022-06-25T11:29:29Z</time>
      </trkpt>
      <trkpt lat="46.40575" lon="4.74506">
        <ele>278.8</ele>
        <time>2022-06-25T11:29:30Z</time>
      </trkpt>
      <trkpt lat="46.40568" lon="4.74506">
        <ele>278.4</ele>
        <time>2022-06-25T11:29:31Z</time>
      </trkpt>
      <trkpt lat="46.40561" lon="4.74505">
        <ele>278.4</ele>
        <time>2022-06-25T11:29:32Z</time>
      </trkpt>
      <trkpt lat="46.40554" lon="4.74504">
        <ele>278.2</ele>
        <time>2022-06-25T11:29:33Z</time>
      </trkpt>
      <trkpt lat="46.40547" lon="4.74503">
        <ele>278.2</ele>
        <time>2022-06-25T11:29:34Z</time>
      </trkpt>
      <trkpt lat="46.4054" lon="4.74503">
        <ele>278.2</ele>
        <time>2022-06-25T11:29:35Z</time>
      </trkpt>
      <trkpt lat="46.40534" lon="4.74503">
        <ele>278.2</ele>
        <time>2022-06-25T11:29:36Z</time>
      </trkpt>
      <trkpt lat="46.40527" lon="4.74504">
        <ele>278.2</ele>
        <time>2022-06-25T11:29:37Z</time>
      </trkpt>
      <trkpt lat="46.40521" lon="4.74506">
        <ele>278.2</ele>
        <time>2022-06-25T11:29:38Z</time>
      </trkpt>
      <trkpt lat="46.40516" lon="4.74508">
        <ele>278.4</ele>
        <time>2022-06-25T11:29:39Z</time>
      </trkpt>
      <trkpt lat="46.4051" lon="4.74512">
        <ele>278.4</ele>
        <time>2022-06-25T11:29:40Z</time>
      </trkpt>
      <trkpt lat="46.40506" lon="4.74516">
        <ele>278.6</ele>
        <time>2022-06-25T11:29:41Z</time>
      </trkpt>
      <trkpt lat="46.40501" lon="4.74522">
        <ele>278.6</ele>
        <time>2022-06-25T11:29:42Z</time>
      </trkpt>
      <trkpt lat="46.40498" lon="4.74528">
        <ele>278.6</ele>
        <time>2022-06-25T11:29:43Z</time>
      </trkpt>
      <trkpt lat="46.40496" lon="4.74531">
        <ele>278.6</ele>
        <time>2022-06-25T11:29:44Z</time>
      </trkpt>
      <trkpt lat="46.40494" lon="4.74534">
        <ele>278.6</ele>
        <time>2022-06-25T11:29:45Z</time>
      </trkpt>
      <trkpt lat="46.40491" lon="4.7454">
        <ele>278.6</ele>
        <time>2022-06-25T11:29:46Z</time>
      </trkpt>
      <trkpt lat="46.40488" lon="4.74547">
        <ele>278.6</ele>
        <time>2022-06-25T11:29:47Z</time>
      </trkpt>
      <trkpt lat="46.40481" lon="4.74559">
        <ele>278.6</ele>
        <time>2022-06-25T11:29:48Z</time>
      </trkpt>
      <trkpt lat="46.40478" lon="4.74564">
        <ele>279</ele>
        <time>2022-06-25T11:29:49Z</time>
      </trkpt>
      <trkpt lat="46.40474" lon="4.7457">
        <ele>279</ele>
        <time>2022-06-25T11:29:50Z</time>
      </trkpt>
      <trkpt lat="46.40471" lon="4.74574">
        <ele>279.2</ele>
        <time>2022-06-25T11:29:51Z</time>
      </trkpt>
      <trkpt lat="46.40467" lon="4.74578">
        <ele>279.2</ele>
        <time>2022-06-25T11:29:52Z</time>
      </trkpt>
      <trkpt lat="46.40462" lon="4.74581">
        <ele>279.2</ele>
        <time>2022-06-25T11:29:53Z</time>
      </trkpt>
      <trkpt lat="46.40458" lon="4.74584">
        <ele>279.4</ele>
        <time>2022-06-25T11:29:54Z</time>
      </trkpt>
      <trkpt lat="46.40453" lon="4.74587">
        <ele>279.4</ele>
        <time>2022-06-25T11:29:55Z</time>
      </trkpt>
      <trkpt lat="46.40448" lon="4.74589">
        <ele>279.6</ele>
        <time>2022-06-25T11:29:56Z</time>
      </trkpt>
      <trkpt lat="46.40443" lon="4.74591">
        <ele>279.6</ele>
        <time>2022-06-25T11:29:57Z</time>
      </trkpt>
      <trkpt lat="46.40439" lon="4.74593">
        <ele>279.6</ele>
        <time>2022-06-25T11:29:58Z</time>
      </trkpt>
      <trkpt lat="46.40434" lon="4.74594">
        <ele>280</ele>
        <time>2022-06-25T11:29:59Z</time>
      </trkpt>
      <trkpt lat="46.40429" lon="4.74594">
        <ele>280</ele>
        <time>2022-06-25T11:30:00Z</time>
      </trkpt>
      <trkpt lat="46.40424" lon="4.74595">
        <ele>280</ele>
        <time>2022-06-25T11:30:01Z</time>
      </trkpt>
      <trkpt lat="46.4042" lon="4.74596">
        <ele>280.2</ele>
        <time>2022-06-25T11:30:02Z</time>
      </trkpt>
      <trkpt lat="46.40415" lon="4.74597">
        <ele>280.2</ele>
        <time>2022-06-25T11:30:03Z</time>
      </trkpt>
      <trkpt lat="46.4041" lon="4.74598">
        <ele>280.2</ele>
        <time>2022-06-25T11:30:04Z</time>
      </trkpt>
      <trkpt lat="46.40405" lon="4.74599">
        <ele>280.4</ele>
        <time>2022-06-25T11:30:05Z</time>
      </trkpt>
      <trkpt lat="46.40401" lon="4.746">
        <ele>280.4</ele>
        <time>2022-06-25T11:30:06Z</time>
      </trkpt>
      <trkpt lat="46.40396" lon="4.74601">
        <ele>280.4</ele>
        <time>2022-06-25T11:30:07Z</time>
      </trkpt>
      <trkpt lat="46.40391" lon="4.74601">
        <ele>280.8</ele>
        <time>2022-06-25T11:30:08Z</time>
      </trkpt>
      <trkpt lat="46.40386" lon="4.74601">
        <ele>280.8</ele>
        <time>2022-06-25T11:30:09Z</time>
      </trkpt>
      <trkpt lat="46.40381" lon="4.74601">
        <ele>280.8</ele>
        <time>2022-06-25T11:30:10Z</time>
      </trkpt>
      <trkpt lat="46.40376" lon="4.74601">
        <ele>280.8</ele>
        <time>2022-06-25T11:30:11Z</time>
      </trkpt>
      <trkpt lat="46.40371" lon="4.74601">
        <ele>280.8</ele>
        <time>2022-06-25T11:30:12Z</time>
      </trkpt>
      <trkpt lat="46.40366" lon="4.746">
        <ele>280.8</ele>
        <time>2022-06-25T11:30:13Z</time>
      </trkpt>
      <trkpt lat="46.40362" lon="4.74599">
        <ele>281</ele>
        <time>2022-06-25T11:30:14Z</time>
      </trkpt>
      <trkpt lat="46.40357" lon="4.74597">
        <ele>281.2</ele>
        <time>2022-06-25T11:30:15Z</time>
      </trkpt>
      <trkpt lat="46.40352" lon="4.74596">
        <ele>281.2</ele>
        <time>2022-06-25T11:30:16Z</time>
      </trkpt>
      <trkpt lat="46.40348" lon="4.74594">
        <ele>281.2</ele>
        <time>2022-06-25T11:30:17Z</time>
      </trkpt>
      <trkpt lat="46.40343" lon="4.74591">
        <ele>281.2</ele>
        <time>2022-06-25T11:30:18Z</time>
      </trkpt>
      <trkpt lat="46.40339" lon="4.74589">
        <ele>281.6</ele>
        <time>2022-06-25T11:30:19Z</time>
      </trkpt>
      <trkpt lat="46.40334" lon="4.74586">
        <ele>281.6</ele>
        <time>2022-06-25T11:30:20Z</time>
      </trkpt>
      <trkpt lat="46.40329" lon="4.74583">
        <ele>281.6</ele>
        <time>2022-06-25T11:30:21Z</time>
      </trkpt>
      <trkpt lat="46.40325" lon="4.7458">
        <ele>281.6</ele>
        <time>2022-06-25T11:30:22Z</time>
      </trkpt>
      <trkpt lat="46.4032" lon="4.74576">
        <ele>281.6</ele>
        <time>2022-06-25T11:30:23Z</time>
      </trkpt>
      <trkpt lat="46.40316" lon="4.74573">
        <ele>281.6</ele>
        <time>2022-06-25T11:30:24Z</time>
      </trkpt>
      <trkpt lat="46.40311" lon="4.74569">
        <ele>281.6</ele>
        <time>2022-06-25T11:30:25Z</time>
      </trkpt>
      <trkpt lat="46.40306" lon="4.74566">
        <ele>281.6</ele>
        <time>2022-06-25T11:30:26Z</time>
      </trkpt>
      <trkpt lat="46.40301" lon="4.74562">
        <ele>281.6</ele>
        <time>2022-06-25T11:30:27Z</time>
      </trkpt>
      <trkpt lat="46.40296" lon="4.74558">
        <ele>281.6</ele>
        <time>2022-06-25T11:30:28Z</time>
      </trkpt>
      <trkpt lat="46.40291" lon="4.74555">
        <ele>281.6</ele>
        <time>2022-06-25T11:30:29Z</time>
      </trkpt>
      <trkpt lat="46.40286" lon="4.74551">
        <ele>281.6</ele>
        <time>2022-06-25T11:30:30Z</time>
      </trkpt>
      <trkpt lat="46.40281" lon="4.74547">
        <ele>281.6</ele>
        <time>2022-06-25T11:30:31Z</time>
      </trkpt>
      <trkpt lat="46.40276" lon="4.74543">
        <ele>281.6</ele>
        <time>2022-06-25T11:30:32Z</time>
      </trkpt>
      <trkpt lat="46.4027" lon="4.74539">
        <ele>281.6</ele>
        <time>2022-06-25T11:30:33Z</time>
      </trkpt>
      <trkpt lat="46.40265" lon="4.74535">
        <ele>281.6</ele>
        <time>2022-06-25T11:30:34Z</time>
      </trkpt>
      <trkpt lat="46.4026" lon="4.74532">
        <ele>281.6</ele>
        <time>2022-06-25T11:30:35Z</time>
      </trkpt>
      <trkpt lat="46.40255" lon="4.74528">
        <ele>281.6</ele>
        <time>2022-06-25T11:30:36Z</time>
      </trkpt>
      <trkpt lat="46.40249" lon="4.74524">
        <ele>281.2</ele>
        <time>2022-06-25T11:30:37Z</time>
      </trkpt>
      <trkpt lat="46.40244" lon="4.7452">
        <ele>281.2</ele>
        <time>2022-06-25T11:30:38Z</time>
      </trkpt>
      <trkpt lat="46.40238" lon="4.74516">
        <ele>281.2</ele>
        <time>2022-06-25T11:30:39Z</time>
      </trkpt>
      <trkpt lat="46.40233" lon="4.74512">
        <ele>281.2</ele>
        <time>2022-06-25T11:30:40Z</time>
      </trkpt>
      <trkpt lat="46.40228" lon="4.74509">
        <ele>281.2</ele>
        <time>2022-06-25T11:30:41Z</time>
      </trkpt>
      <trkpt lat="46.40222" lon="4.74505">
        <ele>281</ele>
        <time>2022-06-25T11:30:42Z</time>
      </trkpt>
      <trkpt lat="46.40217" lon="4.74501">
        <ele>281</ele>
        <time>2022-06-25T11:30:43Z</time>
      </trkpt>
      <trkpt lat="46.40212" lon="4.74497">
        <ele>281</ele>
        <time>2022-06-25T11:30:44Z</time>
      </trkpt>
      <trkpt lat="46.40207" lon="4.74493">
        <ele>281</ele>
        <time>2022-06-25T11:30:45Z</time>
      </trkpt>
      <trkpt lat="46.40201" lon="4.74489">
        <ele>281</ele>
        <time>2022-06-25T11:30:46Z</time>
      </trkpt>
      <trkpt lat="46.40196" lon="4.74486">
        <ele>281</ele>
        <time>2022-06-25T11:30:47Z</time>
      </trkpt>
      <trkpt lat="46.40191" lon="4.74482">
        <ele>281</ele>
        <time>2022-06-25T11:30:48Z</time>
      </trkpt>
      <trkpt lat="46.40186" lon="4.74478">
        <ele>281</ele>
        <time>2022-06-25T11:30:49Z</time>
      </trkpt>
      <trkpt lat="46.40181" lon="4.74474">
        <ele>281</ele>
        <time>2022-06-25T11:30:50Z</time>
      </trkpt>
      <trkpt lat="46.40176" lon="4.74471">
        <ele>281</ele>
        <time>2022-06-25T11:30:51Z</time>
      </trkpt>
      <trkpt lat="46.40171" lon="4.74467">
        <ele>280.8</ele>
        <time>2022-06-25T11:30:52Z</time>
      </trkpt>
      <trkpt lat="46.40166" lon="4.74463">
        <ele>280.8</ele>
        <time>2022-06-25T11:30:53Z</time>
      </trkpt>
      <trkpt lat="46.4016" lon="4.74459">
        <ele>280.8</ele>
        <time>2022-06-25T11:30:54Z</time>
      </trkpt>
      <trkpt lat="46.40155" lon="4.74455">
        <ele>280.8</ele>
        <time>2022-06-25T11:30:55Z</time>
      </trkpt>
      <trkpt lat="46.4015" lon="4.74451">
        <ele>280.8</ele>
        <time>2022-06-25T11:30:56Z</time>
      </trkpt>
      <trkpt lat="46.40145" lon="4.74448">
        <ele>280.8</ele>
        <time>2022-06-25T11:30:57Z</time>
      </trkpt>
      <trkpt lat="46.4014" lon="4.74444">
        <ele>280.6</ele>
        <time>2022-06-25T11:30:58Z</time>
      </trkpt>
      <trkpt lat="46.40132" lon="4.74438">
        <ele>280.6</ele>
        <time>2022-06-25T11:30:59Z</time>
      </trkpt>
      <trkpt lat="46.4013" lon="4.74436">
        <ele>280.6</ele>
        <time>2022-06-25T11:31:00Z</time>
      </trkpt>
      <trkpt lat="46.40124" lon="4.74432">
        <ele>280.6</ele>
        <time>2022-06-25T11:31:01Z</time>
      </trkpt>
      <trkpt lat="46.40119" lon="4.74428">
        <ele>280.6</ele>
        <time>2022-06-25T11:31:02Z</time>
      </trkpt>
      <trkpt lat="46.40113" lon="4.74424">
        <ele>280.6</ele>
        <time>2022-06-25T11:31:03Z</time>
      </trkpt>
      <trkpt lat="46.40108" lon="4.7442">
        <ele>280.6</ele>
        <time>2022-06-25T11:31:04Z</time>
      </trkpt>
      <trkpt lat="46.40102" lon="4.74416">
        <ele>280.6</ele>
        <time>2022-06-25T11:31:05Z</time>
      </trkpt>
      <trkpt lat="46.40097" lon="4.74412">
        <ele>280.6</ele>
        <time>2022-06-25T11:31:06Z</time>
      </trkpt>
      <trkpt lat="46.40091" lon="4.74408">
        <ele>280.6</ele>
        <time>2022-06-25T11:31:07Z</time>
      </trkpt>
      <trkpt lat="46.40085" lon="4.74404">
        <ele>280.2</ele>
        <time>2022-06-25T11:31:08Z</time>
      </trkpt>
      <trkpt lat="46.40079" lon="4.744">
        <ele>280.2</ele>
        <time>2022-06-25T11:31:09Z</time>
      </trkpt>
      <trkpt lat="46.40074" lon="4.74396">
        <ele>280.2</ele>
        <time>2022-06-25T11:31:10Z</time>
      </trkpt>
      <trkpt lat="46.40068" lon="4.74392">
        <ele>280</ele>
        <time>2022-06-25T11:31:11Z</time>
      </trkpt>
      <trkpt lat="46.40062" lon="4.74389">
        <ele>280</ele>
        <time>2022-06-25T11:31:12Z</time>
      </trkpt>
      <trkpt lat="46.40056" lon="4.74385">
        <ele>279.6</ele>
        <time>2022-06-25T11:31:13Z</time>
      </trkpt>
      <trkpt lat="46.4005" lon="4.74382">
        <ele>279.6</ele>
        <time>2022-06-25T11:31:14Z</time>
      </trkpt>
      <trkpt lat="46.40044" lon="4.74379">
        <ele>279.2</ele>
        <time>2022-06-25T11:31:15Z</time>
      </trkpt>
      <trkpt lat="46.40037" lon="4.74377">
        <ele>279.2</ele>
        <time>2022-06-25T11:31:16Z</time>
      </trkpt>
      <trkpt lat="46.4003" lon="4.74376">
        <ele>279</ele>
        <time>2022-06-25T11:31:17Z</time>
      </trkpt>
      <trkpt lat="46.40022" lon="4.74376">
        <ele>279</ele>
        <time>2022-06-25T11:31:18Z</time>
      </trkpt>
      <trkpt lat="46.40014" lon="4.74376">
        <ele>278.4</ele>
        <time>2022-06-25T11:31:19Z</time>
      </trkpt>
      <trkpt lat="46.40006" lon="4.74377">
        <ele>278</ele>
        <time>2022-06-25T11:31:20Z</time>
      </trkpt>
      <trkpt lat="46.39997" lon="4.74379">
        <ele>277.6</ele>
        <time>2022-06-25T11:31:21Z</time>
      </trkpt>
      <trkpt lat="46.39989" lon="4.7438">
        <ele>277.2</ele>
        <time>2022-06-25T11:31:22Z</time>
      </trkpt>
      <trkpt lat="46.3998" lon="4.7438">
        <ele>276.8</ele>
        <time>2022-06-25T11:31:23Z</time>
      </trkpt>
      <trkpt lat="46.39971" lon="4.7438">
        <ele>276.4</ele>
        <time>2022-06-25T11:31:24Z</time>
      </trkpt>
      <trkpt lat="46.39962" lon="4.74379">
        <ele>276</ele>
        <time>2022-06-25T11:31:25Z</time>
      </trkpt>
      <trkpt lat="46.39953" lon="4.74377">
        <ele>275.6</ele>
        <time>2022-06-25T11:31:26Z</time>
      </trkpt>
      <trkpt lat="46.39945" lon="4.74374">
        <ele>275.2</ele>
        <time>2022-06-25T11:31:27Z</time>
      </trkpt>
      <trkpt lat="46.39938" lon="4.74369">
        <ele>275</ele>
        <time>2022-06-25T11:31:28Z</time>
      </trkpt>
      <trkpt lat="46.3993" lon="4.74364">
        <ele>275</ele>
        <time>2022-06-25T11:31:29Z</time>
      </trkpt>
      <trkpt lat="46.39924" lon="4.74359">
        <ele>274.6</ele>
        <time>2022-06-25T11:31:30Z</time>
      </trkpt>
      <trkpt lat="46.39917" lon="4.74353">
        <ele>274.6</ele>
        <time>2022-06-25T11:31:31Z</time>
      </trkpt>
      <trkpt lat="46.39911" lon="4.74348">
        <ele>274.6</ele>
        <time>2022-06-25T11:31:32Z</time>
      </trkpt>
      <trkpt lat="46.39898" lon="4.74339">
        <ele>274.6</ele>
        <time>2022-06-25T11:31:33Z</time>
      </trkpt>
      <trkpt lat="46.39892" lon="4.74334">
        <ele>274.6</ele>
        <time>2022-06-25T11:31:34Z</time>
      </trkpt>
      <trkpt lat="46.39887" lon="4.7433">
        <ele>275</ele>
        <time>2022-06-25T11:31:35Z</time>
      </trkpt>
      <trkpt lat="46.39881" lon="4.74326">
        <ele>275</ele>
        <time>2022-06-25T11:31:36Z</time>
      </trkpt>
      <trkpt lat="46.39876" lon="4.74322">
        <ele>275.4</ele>
        <time>2022-06-25T11:31:37Z</time>
      </trkpt>
      <trkpt lat="46.39872" lon="4.74318">
        <ele>275.6</ele>
        <time>2022-06-25T11:31:38Z</time>
      </trkpt>
      <trkpt lat="46.39867" lon="4.74314">
        <ele>275.8</ele>
        <time>2022-06-25T11:31:39Z</time>
      </trkpt>
      <trkpt lat="46.39863" lon="4.7431">
        <ele>276.2</ele>
        <time>2022-06-25T11:31:40Z</time>
      </trkpt>
      <trkpt lat="46.39858" lon="4.74306">
        <ele>276.4</ele>
        <time>2022-06-25T11:31:41Z</time>
      </trkpt>
      <trkpt lat="46.39854" lon="4.74302">
        <ele>276.8</ele>
        <time>2022-06-25T11:31:42Z</time>
      </trkpt>
      <trkpt lat="46.3985" lon="4.74299">
        <ele>277</ele>
        <time>2022-06-25T11:31:43Z</time>
      </trkpt>
      <trkpt lat="46.39847" lon="4.74295">
        <ele>277.2</ele>
        <time>2022-06-25T11:31:44Z</time>
      </trkpt>
      <trkpt lat="46.39843" lon="4.74292">
        <ele>277.6</ele>
        <time>2022-06-25T11:31:45Z</time>
      </trkpt>
      <trkpt lat="46.3984" lon="4.74289">
        <ele>277.8</ele>
        <time>2022-06-25T11:31:46Z</time>
      </trkpt>
      <trkpt lat="46.39836" lon="4.74285">
        <ele>278</ele>
        <time>2022-06-25T11:31:47Z</time>
      </trkpt>
      <trkpt lat="46.39833" lon="4.74281">
        <ele>278.2</ele>
        <time>2022-06-25T11:31:48Z</time>
      </trkpt>
      <trkpt lat="46.3983" lon="4.74278">
        <ele>278.6</ele>
        <time>2022-06-25T11:31:49Z</time>
      </trkpt>
      <trkpt lat="46.39827" lon="4.74274">
        <ele>278.8</ele>
        <time>2022-06-25T11:31:50Z</time>
      </trkpt>
      <trkpt lat="46.39823" lon="4.74271">
        <ele>279.2</ele>
        <time>2022-06-25T11:31:51Z</time>
      </trkpt>
      <trkpt lat="46.3982" lon="4.74268">
        <ele>279.2</ele>
        <time>2022-06-25T11:31:52Z</time>
      </trkpt>
      <trkpt lat="46.39817" lon="4.74265">
        <ele>279.4</ele>
        <time>2022-06-25T11:31:53Z</time>
      </trkpt>
      <trkpt lat="46.39814" lon="4.74261">
        <ele>279.8</ele>
        <time>2022-06-25T11:31:54Z</time>
      </trkpt>
      <trkpt lat="46.3981" lon="4.74258">
        <ele>280</ele>
        <time>2022-06-25T11:31:55Z</time>
      </trkpt>
      <trkpt lat="46.39807" lon="4.74255">
        <ele>280.4</ele>
        <time>2022-06-25T11:31:56Z</time>
      </trkpt>
      <trkpt lat="46.39804" lon="4.74252">
        <ele>280.4</ele>
        <time>2022-06-25T11:31:57Z</time>
      </trkpt>
      <trkpt lat="46.39801" lon="4.74248">
        <ele>280.8</ele>
        <time>2022-06-25T11:31:58Z</time>
      </trkpt>
      <trkpt lat="46.39797" lon="4.74245">
        <ele>280.8</ele>
        <time>2022-06-25T11:31:59Z</time>
      </trkpt>
      <trkpt lat="46.39794" lon="4.74241">
        <ele>281</ele>
        <time>2022-06-25T11:32:00Z</time>
      </trkpt>
      <trkpt lat="46.39791" lon="4.74238">
        <ele>281</ele>
        <time>2022-06-25T11:32:01Z</time>
      </trkpt>
      <trkpt lat="46.39787" lon="4.74234">
        <ele>281.4</ele>
        <time>2022-06-25T11:32:02Z</time>
      </trkpt>
      <trkpt lat="46.39784" lon="4.74231">
        <ele>281.4</ele>
        <time>2022-06-25T11:32:03Z</time>
      </trkpt>
      <trkpt lat="46.3978" lon="4.74227">
        <ele>281.8</ele>
        <time>2022-06-25T11:32:04Z</time>
      </trkpt>
      <trkpt lat="46.39777" lon="4.74224">
        <ele>281.8</ele>
        <time>2022-06-25T11:32:05Z</time>
      </trkpt>
      <trkpt lat="46.39774" lon="4.7422">
        <ele>282</ele>
        <time>2022-06-25T11:32:06Z</time>
      </trkpt>
      <trkpt lat="46.39771" lon="4.74217">
        <ele>282</ele>
        <time>2022-06-25T11:32:07Z</time>
      </trkpt>
      <trkpt lat="46.39767" lon="4.74215">
        <ele>282.4</ele>
        <time>2022-06-25T11:32:09Z</time>
      </trkpt>
      <trkpt lat="46.39764" lon="4.74212">
        <ele>282.6</ele>
        <time>2022-06-25T11:32:10Z</time>
      </trkpt>
      <trkpt lat="46.3976" lon="4.7421">
        <ele>282.6</ele>
        <time>2022-06-25T11:32:11Z</time>
      </trkpt>
      <trkpt lat="46.39757" lon="4.74207">
        <ele>283</ele>
        <time>2022-06-25T11:32:12Z</time>
      </trkpt>
      <trkpt lat="46.39754" lon="4.74205">
        <ele>283</ele>
        <time>2022-06-25T11:32:13Z</time>
      </trkpt>
      <trkpt lat="46.3975" lon="4.74202">
        <ele>283.2</ele>
        <time>2022-06-25T11:32:14Z</time>
      </trkpt>
      <trkpt lat="46.39747" lon="4.74201">
        <ele>283.2</ele>
        <time>2022-06-25T11:32:15Z</time>
      </trkpt>
      <trkpt lat="46.39744" lon="4.74199">
        <ele>283.6</ele>
        <time>2022-06-25T11:32:16Z</time>
      </trkpt>
      <trkpt lat="46.39741" lon="4.74196">
        <ele>283.6</ele>
        <time>2022-06-25T11:32:17Z</time>
      </trkpt>
      <trkpt lat="46.39738" lon="4.74194">
        <ele>283.6</ele>
        <time>2022-06-25T11:32:18Z</time>
      </trkpt>
      <trkpt lat="46.39735" lon="4.74193">
        <ele>283.8</ele>
        <time>2022-06-25T11:32:19Z</time>
      </trkpt>
      <trkpt lat="46.39732" lon="4.74191">
        <ele>283.8</ele>
        <time>2022-06-25T11:32:20Z</time>
      </trkpt>
      <trkpt lat="46.39729" lon="4.74189">
        <ele>284</ele>
        <time>2022-06-25T11:32:21Z</time>
      </trkpt>
      <trkpt lat="46.39726" lon="4.74186">
        <ele>284</ele>
        <time>2022-06-25T11:32:22Z</time>
      </trkpt>
      <trkpt lat="46.39725" lon="4.74181">
        <ele>284</ele>
        <time>2022-06-25T11:32:23Z</time>
      </trkpt>
      <trkpt lat="46.39723" lon="4.74176">
        <ele>284</ele>
        <time>2022-06-25T11:32:24Z</time>
      </trkpt>
      <trkpt lat="46.39723" lon="4.7417">
        <ele>284</ele>
        <time>2022-06-25T11:32:25Z</time>
      </trkpt>
      <trkpt lat="46.39724" lon="4.74163">
        <ele>283.8</ele>
        <time>2022-06-25T11:32:26Z</time>
      </trkpt>
      <trkpt lat="46.39726" lon="4.74156">
        <ele>283.6</ele>
        <time>2022-06-25T11:32:27Z</time>
      </trkpt>
      <trkpt lat="46.39729" lon="4.74149">
        <ele>283.6</ele>
        <time>2022-06-25T11:32:28Z</time>
      </trkpt>
      <trkpt lat="46.39732" lon="4.74142">
        <ele>283.2</ele>
        <time>2022-06-25T11:32:29Z</time>
      </trkpt>
      <trkpt lat="46.39735" lon="4.74134">
        <ele>282.8</ele>
        <time>2022-06-25T11:32:30Z</time>
      </trkpt>
      <trkpt lat="46.39738" lon="4.74126">
        <ele>282.6</ele>
        <time>2022-06-25T11:32:31Z</time>
      </trkpt>
      <trkpt lat="46.39741" lon="4.74117">
        <ele>282.4</ele>
        <time>2022-06-25T11:32:32Z</time>
      </trkpt>
      <trkpt lat="46.39744" lon="4.74109">
        <ele>282.2</ele>
        <time>2022-06-25T11:32:33Z</time>
      </trkpt>
      <trkpt lat="46.39747" lon="4.74101">
        <ele>282.2</ele>
        <time>2022-06-25T11:32:34Z</time>
      </trkpt>
      <trkpt lat="46.3975" lon="4.74093">
        <ele>282</ele>
        <time>2022-06-25T11:32:35Z</time>
      </trkpt>
      <trkpt lat="46.39752" lon="4.74084">
        <ele>282</ele>
        <time>2022-06-25T11:32:36Z</time>
      </trkpt>
      <trkpt lat="46.39755" lon="4.74076">
        <ele>282</ele>
        <time>2022-06-25T11:32:37Z</time>
      </trkpt>
      <trkpt lat="46.39757" lon="4.74069">
        <ele>282</ele>
        <time>2022-06-25T11:32:38Z</time>
      </trkpt>
      <trkpt lat="46.39759" lon="4.74061">
        <ele>282</ele>
        <time>2022-06-25T11:32:39Z</time>
      </trkpt>
      <trkpt lat="46.39762" lon="4.74054">
        <ele>281.6</ele>
        <time>2022-06-25T11:32:40Z</time>
      </trkpt>
      <trkpt lat="46.39764" lon="4.74046">
        <ele>281.6</ele>
        <time>2022-06-25T11:32:41Z</time>
      </trkpt>
      <trkpt lat="46.39766" lon="4.74039">
        <ele>281.6</ele>
        <time>2022-06-25T11:32:42Z</time>
      </trkpt>
      <trkpt lat="46.39768" lon="4.74032">
        <ele>281.6</ele>
        <time>2022-06-25T11:32:43Z</time>
      </trkpt>
      <trkpt lat="46.3977" lon="4.74024">
        <ele>281.8</ele>
        <time>2022-06-25T11:32:44Z</time>
      </trkpt>
      <trkpt lat="46.39772" lon="4.74017">
        <ele>281.8</ele>
        <time>2022-06-25T11:32:45Z</time>
      </trkpt>
      <trkpt lat="46.39774" lon="4.7401">
        <ele>281.8</ele>
        <time>2022-06-25T11:32:46Z</time>
      </trkpt>
      <trkpt lat="46.39776" lon="4.74003">
        <ele>281.8</ele>
        <time>2022-06-25T11:32:47Z</time>
      </trkpt>
      <trkpt lat="46.39778" lon="4.73997">
        <ele>282.2</ele>
        <time>2022-06-25T11:32:48Z</time>
      </trkpt>
      <trkpt lat="46.3978" lon="4.7399">
        <ele>282.2</ele>
        <time>2022-06-25T11:32:49Z</time>
      </trkpt>
      <trkpt lat="46.39782" lon="4.73983">
        <ele>282.2</ele>
        <time>2022-06-25T11:32:50Z</time>
      </trkpt>
      <trkpt lat="46.39784" lon="4.73977">
        <ele>282.2</ele>
        <time>2022-06-25T11:32:51Z</time>
      </trkpt>
      <trkpt lat="46.39786" lon="4.7397">
        <ele>282.2</ele>
        <time>2022-06-25T11:32:52Z</time>
      </trkpt>
      <trkpt lat="46.39788" lon="4.73964">
        <ele>282.4</ele>
        <time>2022-06-25T11:32:53Z</time>
      </trkpt>
      <trkpt lat="46.3979" lon="4.73958">
        <ele>282.4</ele>
        <time>2022-06-25T11:32:54Z</time>
      </trkpt>
      <trkpt lat="46.39792" lon="4.73951">
        <ele>282.6</ele>
        <time>2022-06-25T11:32:55Z</time>
      </trkpt>
      <trkpt lat="46.39794" lon="4.73945">
        <ele>282.6</ele>
        <time>2022-06-25T11:32:56Z</time>
      </trkpt>
      <trkpt lat="46.39795" lon="4.73939">
        <ele>283</ele>
        <time>2022-06-25T11:32:57Z</time>
      </trkpt>
      <trkpt lat="46.39797" lon="4.73934">
        <ele>283</ele>
        <time>2022-06-25T11:32:58Z</time>
      </trkpt>
      <trkpt lat="46.39799" lon="4.73927">
        <ele>283.2</ele>
        <time>2022-06-25T11:32:59Z</time>
      </trkpt>
      <trkpt lat="46.398" lon="4.73922">
        <ele>283.2</ele>
        <time>2022-06-25T11:33:00Z</time>
      </trkpt>
      <trkpt lat="46.39802" lon="4.73916">
        <ele>283.6</ele>
        <time>2022-06-25T11:33:01Z</time>
      </trkpt>
      <trkpt lat="46.39804" lon="4.73911">
        <ele>283.8</ele>
        <time>2022-06-25T11:33:02Z</time>
      </trkpt>
      <trkpt lat="46.39805" lon="4.73905">
        <ele>283.8</ele>
        <time>2022-06-25T11:33:03Z</time>
      </trkpt>
      <trkpt lat="46.39807" lon="4.73899">
        <ele>284</ele>
        <time>2022-06-25T11:33:04Z</time>
      </trkpt>
      <trkpt lat="46.39808" lon="4.73894">
        <ele>284</ele>
        <time>2022-06-25T11:33:05Z</time>
      </trkpt>
      <trkpt lat="46.3981" lon="4.73888">
        <ele>284.4</ele>
        <time>2022-06-25T11:33:06Z</time>
      </trkpt>
      <trkpt lat="46.39812" lon="4.73883">
        <ele>284.4</ele>
        <time>2022-06-25T11:33:07Z</time>
      </trkpt>
      <trkpt lat="46.39814" lon="4.73875">
        <ele>284.4</ele>
        <time>2022-06-25T11:33:08Z</time>
      </trkpt>
      <trkpt lat="46.39815" lon="4.73872">
        <ele>284.6</ele>
        <time>2022-06-25T11:33:09Z</time>
      </trkpt>
      <trkpt lat="46.39816" lon="4.73867">
        <ele>284.6</ele>
        <time>2022-06-25T11:33:10Z</time>
      </trkpt>
      <trkpt lat="46.39818" lon="4.73862">
        <ele>285</ele>
        <time>2022-06-25T11:33:11Z</time>
      </trkpt>
      <trkpt lat="46.39819" lon="4.73857">
        <ele>285.2</ele>
        <time>2022-06-25T11:33:12Z</time>
      </trkpt>
      <trkpt lat="46.39821" lon="4.73851">
        <ele>285.2</ele>
        <time>2022-06-25T11:33:13Z</time>
      </trkpt>
      <trkpt lat="46.39825" lon="4.73841">
        <ele>285.4</ele>
        <time>2022-06-25T11:33:14Z</time>
      </trkpt>
      <trkpt lat="46.39827" lon="4.73837">
        <ele>285.8</ele>
        <time>2022-06-25T11:33:15Z</time>
      </trkpt>
      <trkpt lat="46.39829" lon="4.73832">
        <ele>285.8</ele>
        <time>2022-06-25T11:33:16Z</time>
      </trkpt>
      <trkpt lat="46.39831" lon="4.73827">
        <ele>286</ele>
        <time>2022-06-25T11:33:17Z</time>
      </trkpt>
      <trkpt lat="46.39833" lon="4.73823">
        <ele>286.2</ele>
        <time>2022-06-25T11:33:18Z</time>
      </trkpt>
      <trkpt lat="46.39835" lon="4.7382">
        <ele>286.4</ele>
        <time>2022-06-25T11:33:19Z</time>
      </trkpt>
      <trkpt lat="46.39837" lon="4.73817">
        <ele>286.4</ele>
        <time>2022-06-25T11:33:20Z</time>
      </trkpt>
      <trkpt lat="46.39839" lon="4.73815">
        <ele>286.8</ele>
        <time>2022-06-25T11:33:21Z</time>
      </trkpt>
      <trkpt lat="46.39842" lon="4.73812">
        <ele>286.8</ele>
        <time>2022-06-25T11:33:22Z</time>
      </trkpt>
      <trkpt lat="46.39844" lon="4.73809">
        <ele>287</ele>
        <time>2022-06-25T11:33:23Z</time>
      </trkpt>
      <trkpt lat="46.39846" lon="4.73806">
        <ele>287</ele>
        <time>2022-06-25T11:33:24Z</time>
      </trkpt>
      <trkpt lat="46.39849" lon="4.73804">
        <ele>287.4</ele>
        <time>2022-06-25T11:33:25Z</time>
      </trkpt>
      <trkpt lat="46.39852" lon="4.73801">
        <ele>287.4</ele>
        <time>2022-06-25T11:33:26Z</time>
      </trkpt>
      <trkpt lat="46.39855" lon="4.73798">
        <ele>287.4</ele>
        <time>2022-06-25T11:33:27Z</time>
      </trkpt>
      <trkpt lat="46.39858" lon="4.73795">
        <ele>287.6</ele>
        <time>2022-06-25T11:33:28Z</time>
      </trkpt>
      <trkpt lat="46.39861" lon="4.73791">
        <ele>287.6</ele>
        <time>2022-06-25T11:33:29Z</time>
      </trkpt>
      <trkpt lat="46.39864" lon="4.73786">
        <ele>287.6</ele>
        <time>2022-06-25T11:33:30Z</time>
      </trkpt>
      <trkpt lat="46.39866" lon="4.73781">
        <ele>287.8</ele>
        <time>2022-06-25T11:33:31Z</time>
      </trkpt>
      <trkpt lat="46.39868" lon="4.73776">
        <ele>287.8</ele>
        <time>2022-06-25T11:33:32Z</time>
      </trkpt>
      <trkpt lat="46.39871" lon="4.73771">
        <ele>288.2</ele>
        <time>2022-06-25T11:33:33Z</time>
      </trkpt>
      <trkpt lat="46.39874" lon="4.73767">
        <ele>288.2</ele>
        <time>2022-06-25T11:33:34Z</time>
      </trkpt>
      <trkpt lat="46.39876" lon="4.73762">
        <ele>288.4</ele>
        <time>2022-06-25T11:33:35Z</time>
      </trkpt>
      <trkpt lat="46.39879" lon="4.73758">
        <ele>288.4</ele>
        <time>2022-06-25T11:33:36Z</time>
      </trkpt>
      <trkpt lat="46.39882" lon="4.73753">
        <ele>288.6</ele>
        <time>2022-06-25T11:33:37Z</time>
      </trkpt>
      <trkpt lat="46.39885" lon="4.73748">
        <ele>288.6</ele>
        <time>2022-06-25T11:33:38Z</time>
      </trkpt>
      <trkpt lat="46.39888" lon="4.73743">
        <ele>289</ele>
        <time>2022-06-25T11:33:39Z</time>
      </trkpt>
      <trkpt lat="46.39891" lon="4.73739">
        <ele>289</ele>
        <time>2022-06-25T11:33:40Z</time>
      </trkpt>
      <trkpt lat="46.39894" lon="4.73735">
        <ele>289.2</ele>
        <time>2022-06-25T11:33:42Z</time>
      </trkpt>
      <trkpt lat="46.39897" lon="4.7373">
        <ele>289.2</ele>
        <time>2022-06-25T11:33:43Z</time>
      </trkpt>
      <trkpt lat="46.399" lon="4.73726">
        <ele>289.2</ele>
        <time>2022-06-25T11:33:44Z</time>
      </trkpt>
      <trkpt lat="46.39903" lon="4.73722">
        <ele>289.4</ele>
        <time>2022-06-25T11:33:45Z</time>
      </trkpt>
      <trkpt lat="46.39907" lon="4.73718">
        <ele>289.4</ele>
        <time>2022-06-25T11:33:46Z</time>
      </trkpt>
      <trkpt lat="46.3991" lon="4.73714">
        <ele>289.4</ele>
        <time>2022-06-25T11:33:47Z</time>
      </trkpt>
      <trkpt lat="46.39914" lon="4.73711">
        <ele>289.4</ele>
        <time>2022-06-25T11:33:48Z</time>
      </trkpt>
      <trkpt lat="46.39918" lon="4.73708">
        <ele>289.8</ele>
        <time>2022-06-25T11:33:49Z</time>
      </trkpt>
      <trkpt lat="46.39922" lon="4.73704">
        <ele>289.8</ele>
        <time>2022-06-25T11:33:50Z</time>
      </trkpt>
      <trkpt lat="46.39926" lon="4.73701">
        <ele>289.8</ele>
        <time>2022-06-25T11:33:51Z</time>
      </trkpt>
      <trkpt lat="46.3993" lon="4.73697">
        <ele>290</ele>
        <time>2022-06-25T11:33:52Z</time>
      </trkpt>
      <trkpt lat="46.39933" lon="4.73693">
        <ele>290</ele>
        <time>2022-06-25T11:33:53Z</time>
      </trkpt>
      <trkpt lat="46.39938" lon="4.7369">
        <ele>290</ele>
        <time>2022-06-25T11:33:54Z</time>
      </trkpt>
      <trkpt lat="46.39942" lon="4.73686">
        <ele>290</ele>
        <time>2022-06-25T11:33:55Z</time>
      </trkpt>
      <trkpt lat="46.39946" lon="4.73682">
        <ele>290</ele>
        <time>2022-06-25T11:33:56Z</time>
      </trkpt>
      <trkpt lat="46.3995" lon="4.73678">
        <ele>290</ele>
        <time>2022-06-25T11:33:57Z</time>
      </trkpt>
      <trkpt lat="46.39955" lon="4.73675">
        <ele>290</ele>
        <time>2022-06-25T11:33:58Z</time>
      </trkpt>
      <trkpt lat="46.39959" lon="4.73671">
        <ele>290.2</ele>
        <time>2022-06-25T11:33:59Z</time>
      </trkpt>
      <trkpt lat="46.39963" lon="4.73667">
        <ele>290.2</ele>
        <time>2022-06-25T11:34:00Z</time>
      </trkpt>
      <trkpt lat="46.39968" lon="4.73663">
        <ele>290.2</ele>
        <time>2022-06-25T11:34:01Z</time>
      </trkpt>
      <trkpt lat="46.39972" lon="4.73659">
        <ele>290.2</ele>
        <time>2022-06-25T11:34:02Z</time>
      </trkpt>
      <trkpt lat="46.39977" lon="4.73655">
        <ele>290.2</ele>
        <time>2022-06-25T11:34:03Z</time>
      </trkpt>
      <trkpt lat="46.39982" lon="4.73651">
        <ele>290.2</ele>
        <time>2022-06-25T11:34:04Z</time>
      </trkpt>
      <trkpt lat="46.39987" lon="4.73647">
        <ele>290</ele>
        <time>2022-06-25T11:34:05Z</time>
      </trkpt>
      <trkpt lat="46.39992" lon="4.73643">
        <ele>290</ele>
        <time>2022-06-25T11:34:06Z</time>
      </trkpt>
      <trkpt lat="46.39996" lon="4.73638">
        <ele>290</ele>
        <time>2022-06-25T11:34:07Z</time>
      </trkpt>
      <trkpt lat="46.40001" lon="4.73634">
        <ele>290</ele>
        <time>2022-06-25T11:34:08Z</time>
      </trkpt>
      <trkpt lat="46.40006" lon="4.7363">
        <ele>290</ele>
        <time>2022-06-25T11:34:09Z</time>
      </trkpt>
      <trkpt lat="46.40011" lon="4.73627">
        <ele>290</ele>
        <time>2022-06-25T11:34:10Z</time>
      </trkpt>
      <trkpt lat="46.40016" lon="4.73623">
        <ele>290</ele>
        <time>2022-06-25T11:34:11Z</time>
      </trkpt>
      <trkpt lat="46.40021" lon="4.73619">
        <ele>290</ele>
        <time>2022-06-25T11:34:12Z</time>
      </trkpt>
      <trkpt lat="46.40026" lon="4.73615">
        <ele>290</ele>
        <time>2022-06-25T11:34:13Z</time>
      </trkpt>
      <trkpt lat="46.40031" lon="4.73611">
        <ele>290</ele>
        <time>2022-06-25T11:34:14Z</time>
      </trkpt>
      <trkpt lat="46.40035" lon="4.73607">
        <ele>290.2</ele>
        <time>2022-06-25T11:34:15Z</time>
      </trkpt>
      <trkpt lat="46.4004" lon="4.73603">
        <ele>290.2</ele>
        <time>2022-06-25T11:34:16Z</time>
      </trkpt>
      <trkpt lat="46.40044" lon="4.73599">
        <ele>290.4</ele>
        <time>2022-06-25T11:34:17Z</time>
      </trkpt>
      <trkpt lat="46.40049" lon="4.73596">
        <ele>290.4</ele>
        <time>2022-06-25T11:34:18Z</time>
      </trkpt>
      <trkpt lat="46.40054" lon="4.73592">
        <ele>290.4</ele>
        <time>2022-06-25T11:34:19Z</time>
      </trkpt>
      <trkpt lat="46.40058" lon="4.73589">
        <ele>290.4</ele>
        <time>2022-06-25T11:34:20Z</time>
      </trkpt>
      <trkpt lat="46.40063" lon="4.73585">
        <ele>290.4</ele>
        <time>2022-06-25T11:34:21Z</time>
      </trkpt>
      <trkpt lat="46.40068" lon="4.73582">
        <ele>290.4</ele>
        <time>2022-06-25T11:34:22Z</time>
      </trkpt>
      <trkpt lat="46.40073" lon="4.73579">
        <ele>290.4</ele>
        <time>2022-06-25T11:34:23Z</time>
      </trkpt>
      <trkpt lat="46.40078" lon="4.73576">
        <ele>290.8</ele>
        <time>2022-06-25T11:34:24Z</time>
      </trkpt>
      <trkpt lat="46.40083" lon="4.73573">
        <ele>290.8</ele>
        <time>2022-06-25T11:34:25Z</time>
      </trkpt>
      <trkpt lat="46.40088" lon="4.73571">
        <ele>290.8</ele>
        <time>2022-06-25T11:34:26Z</time>
      </trkpt>
      <trkpt lat="46.40093" lon="4.73569">
        <ele>290.8</ele>
        <time>2022-06-25T11:34:27Z</time>
      </trkpt>
      <trkpt lat="46.40098" lon="4.73568">
        <ele>290.8</ele>
        <time>2022-06-25T11:34:28Z</time>
      </trkpt>
      <trkpt lat="46.40103" lon="4.73566">
        <ele>290.8</ele>
        <time>2022-06-25T11:34:29Z</time>
      </trkpt>
      <trkpt lat="46.40108" lon="4.73565">
        <ele>290.8</ele>
        <time>2022-06-25T11:34:30Z</time>
      </trkpt>
      <trkpt lat="46.40114" lon="4.73564">
        <ele>290.8</ele>
        <time>2022-06-25T11:34:31Z</time>
      </trkpt>
      <trkpt lat="46.40119" lon="4.73563">
        <ele>290.8</ele>
        <time>2022-06-25T11:34:32Z</time>
      </trkpt>
      <trkpt lat="46.40124" lon="4.73561">
        <ele>290.8</ele>
        <time>2022-06-25T11:34:33Z</time>
      </trkpt>
      <trkpt lat="46.40129" lon="4.7356">
        <ele>291.2</ele>
        <time>2022-06-25T11:34:34Z</time>
      </trkpt>
      <trkpt lat="46.40134" lon="4.73559">
        <ele>291.2</ele>
        <time>2022-06-25T11:34:35Z</time>
      </trkpt>
      <trkpt lat="46.40139" lon="4.73558">
        <ele>291.2</ele>
        <time>2022-06-25T11:34:36Z</time>
      </trkpt>
      <trkpt lat="46.40145" lon="4.73556">
        <ele>291.2</ele>
        <time>2022-06-25T11:34:37Z</time>
      </trkpt>
      <trkpt lat="46.4015" lon="4.73555">
        <ele>291.2</ele>
        <time>2022-06-25T11:34:38Z</time>
      </trkpt>
      <trkpt lat="46.40155" lon="4.73553">
        <ele>291.2</ele>
        <time>2022-06-25T11:34:39Z</time>
      </trkpt>
      <trkpt lat="46.4016" lon="4.7355">
        <ele>291.2</ele>
        <time>2022-06-25T11:34:40Z</time>
      </trkpt>
      <trkpt lat="46.40165" lon="4.73546">
        <ele>291.2</ele>
        <time>2022-06-25T11:34:41Z</time>
      </trkpt>
      <trkpt lat="46.40171" lon="4.73542">
        <ele>291.2</ele>
        <time>2022-06-25T11:34:42Z</time>
      </trkpt>
      <trkpt lat="46.40176" lon="4.73537">
        <ele>291.2</ele>
        <time>2022-06-25T11:34:43Z</time>
      </trkpt>
      <trkpt lat="46.4018" lon="4.73531">
        <ele>290.8</ele>
        <time>2022-06-25T11:34:44Z</time>
      </trkpt>
      <trkpt lat="46.40185" lon="4.73525">
        <ele>290.8</ele>
        <time>2022-06-25T11:34:45Z</time>
      </trkpt>
      <trkpt lat="46.40189" lon="4.73518">
        <ele>290.8</ele>
        <time>2022-06-25T11:34:46Z</time>
      </trkpt>
      <trkpt lat="46.40193" lon="4.73511">
        <ele>290.8</ele>
        <time>2022-06-25T11:34:47Z</time>
      </trkpt>
      <trkpt lat="46.40198" lon="4.73504">
        <ele>290.6</ele>
        <time>2022-06-25T11:34:48Z</time>
      </trkpt>
      <trkpt lat="46.40202" lon="4.73497">
        <ele>290.6</ele>
        <time>2022-06-25T11:34:49Z</time>
      </trkpt>
      <trkpt lat="46.40206" lon="4.73489">
        <ele>290.6</ele>
        <time>2022-06-25T11:34:50Z</time>
      </trkpt>
      <trkpt lat="46.4021" lon="4.73482">
        <ele>290.2</ele>
        <time>2022-06-25T11:34:51Z</time>
      </trkpt>
      <trkpt lat="46.40215" lon="4.73474">
        <ele>290.2</ele>
        <time>2022-06-25T11:34:52Z</time>
      </trkpt>
      <trkpt lat="46.40219" lon="4.73465">
        <ele>290</ele>
        <time>2022-06-25T11:34:53Z</time>
      </trkpt>
      <trkpt lat="46.40223" lon="4.73457">
        <ele>290</ele>
        <time>2022-06-25T11:34:54Z</time>
      </trkpt>
      <trkpt lat="46.40227" lon="4.73448">
        <ele>289.8</ele>
        <time>2022-06-25T11:34:55Z</time>
      </trkpt>
      <trkpt lat="46.4023" lon="4.73438">
        <ele>289.8</ele>
        <time>2022-06-25T11:34:56Z</time>
      </trkpt>
      <trkpt lat="46.40233" lon="4.73429">
        <ele>289.8</ele>
        <time>2022-06-25T11:34:57Z</time>
      </trkpt>
      <trkpt lat="46.40236" lon="4.7342">
        <ele>289.8</ele>
        <time>2022-06-25T11:34:58Z</time>
      </trkpt>
      <trkpt lat="46.40239" lon="4.73411">
        <ele>289.8</ele>
        <time>2022-06-25T11:34:59Z</time>
      </trkpt>
      <trkpt lat="46.40242" lon="4.73402">
        <ele>289.8</ele>
        <time>2022-06-25T11:35:00Z</time>
      </trkpt>
      <trkpt lat="46.40245" lon="4.73394">
        <ele>289.8</ele>
        <time>2022-06-25T11:35:01Z</time>
      </trkpt>
      <trkpt lat="46.40248" lon="4.73386">
        <ele>289.8</ele>
        <time>2022-06-25T11:35:02Z</time>
      </trkpt>
      <trkpt lat="46.4025" lon="4.73378">
        <ele>290.2</ele>
        <time>2022-06-25T11:35:03Z</time>
      </trkpt>
      <trkpt lat="46.40252" lon="4.7337">
        <ele>290.2</ele>
        <time>2022-06-25T11:35:04Z</time>
      </trkpt>
      <trkpt lat="46.40254" lon="4.73363">
        <ele>290.4</ele>
        <time>2022-06-25T11:35:05Z</time>
      </trkpt>
      <trkpt lat="46.40255" lon="4.73355">
        <ele>290.4</ele>
        <time>2022-06-25T11:35:06Z</time>
      </trkpt>
      <trkpt lat="46.40257" lon="4.73348">
        <ele>290.8</ele>
        <time>2022-06-25T11:35:07Z</time>
      </trkpt>
      <trkpt lat="46.40258" lon="4.7334">
        <ele>290.8</ele>
        <time>2022-06-25T11:35:08Z</time>
      </trkpt>
      <trkpt lat="46.40259" lon="4.73333">
        <ele>291</ele>
        <time>2022-06-25T11:35:09Z</time>
      </trkpt>
      <trkpt lat="46.4026" lon="4.73326">
        <ele>291</ele>
        <time>2022-06-25T11:35:10Z</time>
      </trkpt>
      <trkpt lat="46.40261" lon="4.73319">
        <ele>291.4</ele>
        <time>2022-06-25T11:35:11Z</time>
      </trkpt>
      <trkpt lat="46.40262" lon="4.73312">
        <ele>291.4</ele>
        <time>2022-06-25T11:35:12Z</time>
      </trkpt>
      <trkpt lat="46.40263" lon="4.73304">
        <ele>291.6</ele>
        <time>2022-06-25T11:35:13Z</time>
      </trkpt>
      <trkpt lat="46.40264" lon="4.73297">
        <ele>291.6</ele>
        <time>2022-06-25T11:35:14Z</time>
      </trkpt>
      <trkpt lat="46.40265" lon="4.7329">
        <ele>292</ele>
        <time>2022-06-25T11:35:15Z</time>
      </trkpt>
      <trkpt lat="46.40265" lon="4.73283">
        <ele>292</ele>
        <time>2022-06-25T11:35:16Z</time>
      </trkpt>
      <trkpt lat="46.40266" lon="4.73276">
        <ele>292.2</ele>
        <time>2022-06-25T11:35:17Z</time>
      </trkpt>
      <trkpt lat="46.40267" lon="4.73269">
        <ele>292.2</ele>
        <time>2022-06-25T11:35:18Z</time>
      </trkpt>
      <trkpt lat="46.40268" lon="4.73263">
        <ele>292.6</ele>
        <time>2022-06-25T11:35:19Z</time>
      </trkpt>
      <trkpt lat="46.40269" lon="4.73256">
        <ele>292.6</ele>
        <time>2022-06-25T11:35:20Z</time>
      </trkpt>
      <trkpt lat="46.40269" lon="4.73249">
        <ele>292.8</ele>
        <time>2022-06-25T11:35:21Z</time>
      </trkpt>
      <trkpt lat="46.4027" lon="4.73242">
        <ele>292.8</ele>
        <time>2022-06-25T11:35:22Z</time>
      </trkpt>
      <trkpt lat="46.4027" lon="4.73235">
        <ele>293.2</ele>
        <time>2022-06-25T11:35:23Z</time>
      </trkpt>
      <trkpt lat="46.40271" lon="4.73228">
        <ele>293.2</ele>
        <time>2022-06-25T11:35:24Z</time>
      </trkpt>
      <trkpt lat="46.40272" lon="4.73222">
        <ele>293.4</ele>
        <time>2022-06-25T11:35:25Z</time>
      </trkpt>
      <trkpt lat="46.40272" lon="4.73215">
        <ele>293.4</ele>
        <time>2022-06-25T11:35:26Z</time>
      </trkpt>
      <trkpt lat="46.40272" lon="4.73208">
        <ele>293.8</ele>
        <time>2022-06-25T11:35:27Z</time>
      </trkpt>
      <trkpt lat="46.40273" lon="4.73202">
        <ele>293.8</ele>
        <time>2022-06-25T11:35:28Z</time>
      </trkpt>
      <trkpt lat="46.40273" lon="4.73195">
        <ele>294</ele>
        <time>2022-06-25T11:35:29Z</time>
      </trkpt>
      <trkpt lat="46.40273" lon="4.73188">
        <ele>294</ele>
        <time>2022-06-25T11:35:30Z</time>
      </trkpt>
      <trkpt lat="46.40274" lon="4.73182">
        <ele>294.4</ele>
        <time>2022-06-25T11:35:31Z</time>
      </trkpt>
      <trkpt lat="46.40274" lon="4.73175">
        <ele>294.4</ele>
        <time>2022-06-25T11:35:32Z</time>
      </trkpt>
      <trkpt lat="46.40274" lon="4.73169">
        <ele>294.6</ele>
        <time>2022-06-25T11:35:33Z</time>
      </trkpt>
      <trkpt lat="46.40275" lon="4.73163">
        <ele>294.6</ele>
        <time>2022-06-25T11:35:34Z</time>
      </trkpt>
      <trkpt lat="46.40275" lon="4.73157">
        <ele>295</ele>
        <time>2022-06-25T11:35:35Z</time>
      </trkpt>
      <trkpt lat="46.40275" lon="4.73151">
        <ele>295</ele>
        <time>2022-06-25T11:35:36Z</time>
      </trkpt>
      <trkpt lat="46.40276" lon="4.73145">
        <ele>295.4</ele>
        <time>2022-06-25T11:35:37Z</time>
      </trkpt>
      <trkpt lat="46.40277" lon="4.73139">
        <ele>295.4</ele>
        <time>2022-06-25T11:35:38Z</time>
      </trkpt>
      <trkpt lat="46.40277" lon="4.73133">
        <ele>295.8</ele>
        <time>2022-06-25T11:35:39Z</time>
      </trkpt>
      <trkpt lat="46.40277" lon="4.73127">
        <ele>295.8</ele>
        <time>2022-06-25T11:35:40Z</time>
      </trkpt>
      <trkpt lat="46.40278" lon="4.73121">
        <ele>296</ele>
        <time>2022-06-25T11:35:41Z</time>
      </trkpt>
      <trkpt lat="46.40278" lon="4.73115">
        <ele>296</ele>
        <time>2022-06-25T11:35:42Z</time>
      </trkpt>
      <trkpt lat="46.40279" lon="4.7311">
        <ele>296.2</ele>
        <time>2022-06-25T11:35:43Z</time>
      </trkpt>
      <trkpt lat="46.4028" lon="4.73104">
        <ele>296.2</ele>
        <time>2022-06-25T11:35:44Z</time>
      </trkpt>
      <trkpt lat="46.4028" lon="4.73099">
        <ele>296.6</ele>
        <time>2022-06-25T11:35:45Z</time>
      </trkpt>
      <trkpt lat="46.40281" lon="4.73093">
        <ele>296.6</ele>
        <time>2022-06-25T11:35:46Z</time>
      </trkpt>
      <trkpt lat="46.40282" lon="4.73088">
        <ele>296.8</ele>
        <time>2022-06-25T11:35:47Z</time>
      </trkpt>
      <trkpt lat="46.40283" lon="4.73082">
        <ele>296.8</ele>
        <time>2022-06-25T11:35:48Z</time>
      </trkpt>
      <trkpt lat="46.40284" lon="4.73076">
        <ele>297.2</ele>
        <time>2022-06-25T11:35:49Z</time>
      </trkpt>
      <trkpt lat="46.40285" lon="4.73071">
        <ele>297.2</ele>
        <time>2022-06-25T11:35:50Z</time>
      </trkpt>
      <trkpt lat="46.40286" lon="4.73065">
        <ele>297.4</ele>
        <time>2022-06-25T11:35:51Z</time>
      </trkpt>
      <trkpt lat="46.40288" lon="4.7306">
        <ele>297.4</ele>
        <time>2022-06-25T11:35:52Z</time>
      </trkpt>
      <trkpt lat="46.4029" lon="4.73054">
        <ele>297.4</ele>
        <time>2022-06-25T11:35:53Z</time>
      </trkpt>
      <trkpt lat="46.40292" lon="4.73049">
        <ele>297.4</ele>
        <time>2022-06-25T11:35:54Z</time>
      </trkpt>
      <trkpt lat="46.40294" lon="4.73043">
        <ele>297.6</ele>
        <time>2022-06-25T11:35:55Z</time>
      </trkpt>
      <trkpt lat="46.40296" lon="4.73038">
        <ele>297.6</ele>
        <time>2022-06-25T11:35:56Z</time>
      </trkpt>
      <trkpt lat="46.40299" lon="4.73033">
        <ele>297.6</ele>
        <time>2022-06-25T11:35:57Z</time>
      </trkpt>
      <trkpt lat="46.40302" lon="4.73028">
        <ele>297.6</ele>
        <time>2022-06-25T11:35:58Z</time>
      </trkpt>
      <trkpt lat="46.40305" lon="4.73023">
        <ele>297.6</ele>
        <time>2022-06-25T11:35:59Z</time>
      </trkpt>
      <trkpt lat="46.40309" lon="4.73018">
        <ele>297.6</ele>
        <time>2022-06-25T11:36:00Z</time>
      </trkpt>
      <trkpt lat="46.40313" lon="4.73014">
        <ele>297.6</ele>
        <time>2022-06-25T11:36:01Z</time>
      </trkpt>
      <trkpt lat="46.40317" lon="4.7301">
        <ele>297.6</ele>
        <time>2022-06-25T11:36:02Z</time>
      </trkpt>
      <trkpt lat="46.40321" lon="4.73005">
        <ele>297.6</ele>
        <time>2022-06-25T11:36:03Z</time>
      </trkpt>
      <trkpt lat="46.40325" lon="4.73">
        <ele>297.6</ele>
        <time>2022-06-25T11:36:04Z</time>
      </trkpt>
      <trkpt lat="46.40329" lon="4.72996">
        <ele>297.6</ele>
        <time>2022-06-25T11:36:05Z</time>
      </trkpt>
      <trkpt lat="46.40333" lon="4.72991">
        <ele>297.6</ele>
        <time>2022-06-25T11:36:06Z</time>
      </trkpt>
      <trkpt lat="46.40338" lon="4.72987">
        <ele>297.8</ele>
        <time>2022-06-25T11:36:07Z</time>
      </trkpt>
      <trkpt lat="46.40342" lon="4.72982">
        <ele>297.8</ele>
        <time>2022-06-25T11:36:08Z</time>
      </trkpt>
      <trkpt lat="46.40346" lon="4.72977">
        <ele>297.8</ele>
        <time>2022-06-25T11:36:09Z</time>
      </trkpt>
      <trkpt lat="46.4035" lon="4.72972">
        <ele>297.8</ele>
        <time>2022-06-25T11:36:10Z</time>
      </trkpt>
      <trkpt lat="46.40354" lon="4.72967">
        <ele>297.8</ele>
        <time>2022-06-25T11:36:11Z</time>
      </trkpt>
      <trkpt lat="46.40358" lon="4.72961">
        <ele>297.8</ele>
        <time>2022-06-25T11:36:12Z</time>
      </trkpt>
      <trkpt lat="46.40361" lon="4.72956">
        <ele>298</ele>
        <time>2022-06-25T11:36:13Z</time>
      </trkpt>
      <trkpt lat="46.40364" lon="4.72951">
        <ele>298</ele>
        <time>2022-06-25T11:36:14Z</time>
      </trkpt>
      <trkpt lat="46.40367" lon="4.72945">
        <ele>298</ele>
        <time>2022-06-25T11:36:15Z</time>
      </trkpt>
      <trkpt lat="46.4037" lon="4.72939">
        <ele>298.2</ele>
        <time>2022-06-25T11:36:16Z</time>
      </trkpt>
      <trkpt lat="46.40373" lon="4.72933">
        <ele>298.2</ele>
        <time>2022-06-25T11:36:17Z</time>
      </trkpt>
      <trkpt lat="46.40376" lon="4.72928">
        <ele>298.2</ele>
        <time>2022-06-25T11:36:18Z</time>
      </trkpt>
      <trkpt lat="46.40379" lon="4.72922">
        <ele>298.2</ele>
        <time>2022-06-25T11:36:19Z</time>
      </trkpt>
      <trkpt lat="46.40382" lon="4.72916">
        <ele>298.6</ele>
        <time>2022-06-25T11:36:20Z</time>
      </trkpt>
      <trkpt lat="46.40384" lon="4.72909">
        <ele>298.6</ele>
        <time>2022-06-25T11:36:21Z</time>
      </trkpt>
      <trkpt lat="46.40386" lon="4.72903">
        <ele>298.8</ele>
        <time>2022-06-25T11:36:22Z</time>
      </trkpt>
      <trkpt lat="46.40389" lon="4.72897">
        <ele>298.8</ele>
        <time>2022-06-25T11:36:23Z</time>
      </trkpt>
      <trkpt lat="46.40391" lon="4.72891">
        <ele>299</ele>
        <time>2022-06-25T11:36:24Z</time>
      </trkpt>
      <trkpt lat="46.40392" lon="4.72885">
        <ele>299</ele>
        <time>2022-06-25T11:36:25Z</time>
      </trkpt>
      <trkpt lat="46.40394" lon="4.72879">
        <ele>299.4</ele>
        <time>2022-06-25T11:36:26Z</time>
      </trkpt>
      <trkpt lat="46.40396" lon="4.72874">
        <ele>299.4</ele>
        <time>2022-06-25T11:36:27Z</time>
      </trkpt>
      <trkpt lat="46.40397" lon="4.72869">
        <ele>299.6</ele>
        <time>2022-06-25T11:36:28Z</time>
      </trkpt>
      <trkpt lat="46.40399" lon="4.72864">
        <ele>299.6</ele>
        <time>2022-06-25T11:36:29Z</time>
      </trkpt>
      <trkpt lat="46.40401" lon="4.72859">
        <ele>299.6</ele>
        <time>2022-06-25T11:36:30Z</time>
      </trkpt>
      <trkpt lat="46.40402" lon="4.72854">
        <ele>299.6</ele>
        <time>2022-06-25T11:36:31Z</time>
      </trkpt>
      <trkpt lat="46.40404" lon="4.72849">
        <ele>299.8</ele>
        <time>2022-06-25T11:36:32Z</time>
      </trkpt>
      <trkpt lat="46.40406" lon="4.72844">
        <ele>299.8</ele>
        <time>2022-06-25T11:36:33Z</time>
      </trkpt>
      <trkpt lat="46.40407" lon="4.72839">
        <ele>299.8</ele>
        <time>2022-06-25T11:36:34Z</time>
      </trkpt>
      <trkpt lat="46.40409" lon="4.72835">
        <ele>299.8</ele>
        <time>2022-06-25T11:36:35Z</time>
      </trkpt>
      <trkpt lat="46.40411" lon="4.72829">
        <ele>300.2</ele>
        <time>2022-06-25T11:36:36Z</time>
      </trkpt>
      <trkpt lat="46.40413" lon="4.72824">
        <ele>300.2</ele>
        <time>2022-06-25T11:36:37Z</time>
      </trkpt>
      <trkpt lat="46.40415" lon="4.72819">
        <ele>300.4</ele>
        <time>2022-06-25T11:36:38Z</time>
      </trkpt>
      <trkpt lat="46.40417" lon="4.72813">
        <ele>300.4</ele>
        <time>2022-06-25T11:36:39Z</time>
      </trkpt>
      <trkpt lat="46.40418" lon="4.72808">
        <ele>300.4</ele>
        <time>2022-06-25T11:36:40Z</time>
      </trkpt>
      <trkpt lat="46.4042" lon="4.72801">
        <ele>300.6</ele>
        <time>2022-06-25T11:36:41Z</time>
      </trkpt>
      <trkpt lat="46.40421" lon="4.72795">
        <ele>300.6</ele>
        <time>2022-06-25T11:36:42Z</time>
      </trkpt>
      <trkpt lat="46.40423" lon="4.72789">
        <ele>300.6</ele>
        <time>2022-06-25T11:36:43Z</time>
      </trkpt>
      <trkpt lat="46.40424" lon="4.72783">
        <ele>300.8</ele>
        <time>2022-06-25T11:36:44Z</time>
      </trkpt>
      <trkpt lat="46.40426" lon="4.72778">
        <ele>300.8</ele>
        <time>2022-06-25T11:36:45Z</time>
      </trkpt>
      <trkpt lat="46.40427" lon="4.72772">
        <ele>300.8</ele>
        <time>2022-06-25T11:36:46Z</time>
      </trkpt>
      <trkpt lat="46.40429" lon="4.72767">
        <ele>300.8</ele>
        <time>2022-06-25T11:36:47Z</time>
      </trkpt>
      <trkpt lat="46.4043" lon="4.72762">
        <ele>301.2</ele>
        <time>2022-06-25T11:36:48Z</time>
      </trkpt>
      <trkpt lat="46.40431" lon="4.72757">
        <ele>301.2</ele>
        <time>2022-06-25T11:36:49Z</time>
      </trkpt>
      <trkpt lat="46.40432" lon="4.72752">
        <ele>301.2</ele>
        <time>2022-06-25T11:36:50Z</time>
      </trkpt>
      <trkpt lat="46.40434" lon="4.72746">
        <ele>301.2</ele>
        <time>2022-06-25T11:36:51Z</time>
      </trkpt>
      <trkpt lat="46.40436" lon="4.72741">
        <ele>301.2</ele>
        <time>2022-06-25T11:36:52Z</time>
      </trkpt>
      <trkpt lat="46.40438" lon="4.72736">
        <ele>301.2</ele>
        <time>2022-06-25T11:36:53Z</time>
      </trkpt>
      <trkpt lat="46.4044" lon="4.72731">
        <ele>301.2</ele>
        <time>2022-06-25T11:36:54Z</time>
      </trkpt>
      <trkpt lat="46.40442" lon="4.72726">
        <ele>301.2</ele>
        <time>2022-06-25T11:36:55Z</time>
      </trkpt>
      <trkpt lat="46.40444" lon="4.7272">
        <ele>301.4</ele>
        <time>2022-06-25T11:36:56Z</time>
      </trkpt>
      <trkpt lat="46.40446" lon="4.72715">
        <ele>301.4</ele>
        <time>2022-06-25T11:36:57Z</time>
      </trkpt>
      <trkpt lat="46.40448" lon="4.7271">
        <ele>301.4</ele>
        <time>2022-06-25T11:36:58Z</time>
      </trkpt>
      <trkpt lat="46.4045" lon="4.72705">
        <ele>301.4</ele>
        <time>2022-06-25T11:36:59Z</time>
      </trkpt>
      <trkpt lat="46.40453" lon="4.727">
        <ele>301.6</ele>
        <time>2022-06-25T11:37:00Z</time>
      </trkpt>
      <trkpt lat="46.40455" lon="4.72695">
        <ele>301.6</ele>
        <time>2022-06-25T11:37:01Z</time>
      </trkpt>
      <trkpt lat="46.40458" lon="4.7269">
        <ele>301.6</ele>
        <time>2022-06-25T11:37:02Z</time>
      </trkpt>
      <trkpt lat="46.4046" lon="4.72685">
        <ele>301.6</ele>
        <time>2022-06-25T11:37:03Z</time>
      </trkpt>
      <trkpt lat="46.40463" lon="4.7268">
        <ele>302</ele>
        <time>2022-06-25T11:37:04Z</time>
      </trkpt>
      <trkpt lat="46.40466" lon="4.72675">
        <ele>302</ele>
        <time>2022-06-25T11:37:05Z</time>
      </trkpt>
      <trkpt lat="46.40468" lon="4.7267">
        <ele>302</ele>
        <time>2022-06-25T11:37:06Z</time>
      </trkpt>
      <trkpt lat="46.40471" lon="4.72666">
        <ele>302.2</ele>
        <time>2022-06-25T11:37:07Z</time>
      </trkpt>
      <trkpt lat="46.40474" lon="4.72661">
        <ele>302.2</ele>
        <time>2022-06-25T11:37:08Z</time>
      </trkpt>
      <trkpt lat="46.40477" lon="4.72656">
        <ele>302.6</ele>
        <time>2022-06-25T11:37:09Z</time>
      </trkpt>
      <trkpt lat="46.40479" lon="4.72652">
        <ele>302.6</ele>
        <time>2022-06-25T11:37:10Z</time>
      </trkpt>
      <trkpt lat="46.40482" lon="4.72647">
        <ele>302.8</ele>
        <time>2022-06-25T11:37:11Z</time>
      </trkpt>
      <trkpt lat="46.40484" lon="4.72643">
        <ele>302.8</ele>
        <time>2022-06-25T11:37:12Z</time>
      </trkpt>
      <trkpt lat="46.40487" lon="4.72638">
        <ele>303</ele>
        <time>2022-06-25T11:37:13Z</time>
      </trkpt>
      <trkpt lat="46.40489" lon="4.72634">
        <ele>303</ele>
        <time>2022-06-25T11:37:14Z</time>
      </trkpt>
      <trkpt lat="46.40492" lon="4.7263">
        <ele>303.2</ele>
        <time>2022-06-25T11:37:15Z</time>
      </trkpt>
      <trkpt lat="46.40494" lon="4.72626">
        <ele>303.2</ele>
        <time>2022-06-25T11:37:16Z</time>
      </trkpt>
      <trkpt lat="46.40496" lon="4.72623">
        <ele>303.6</ele>
        <time>2022-06-25T11:37:17Z</time>
      </trkpt>
      <trkpt lat="46.40498" lon="4.72619">
        <ele>303.6</ele>
        <time>2022-06-25T11:37:18Z</time>
      </trkpt>
      <trkpt lat="46.40499" lon="4.72616">
        <ele>303.6</ele>
        <time>2022-06-25T11:37:19Z</time>
      </trkpt>
      <trkpt lat="46.40501" lon="4.72613">
        <ele>303.8</ele>
        <time>2022-06-25T11:37:20Z</time>
      </trkpt>
      <trkpt lat="46.40502" lon="4.72609">
        <ele>303.8</ele>
        <time>2022-06-25T11:37:21Z</time>
      </trkpt>
      <trkpt lat="46.40504" lon="4.72606">
        <ele>303.8</ele>
        <time>2022-06-25T11:37:22Z</time>
      </trkpt>
      <trkpt lat="46.40506" lon="4.72602">
        <ele>303.8</ele>
        <time>2022-06-25T11:37:23Z</time>
      </trkpt>
      <trkpt lat="46.40507" lon="4.72597">
        <ele>304</ele>
        <time>2022-06-25T11:37:24Z</time>
      </trkpt>
      <trkpt lat="46.40509" lon="4.72593">
        <ele>304</ele>
        <time>2022-06-25T11:37:25Z</time>
      </trkpt>
      <trkpt lat="46.4051" lon="4.72588">
        <ele>304.2</ele>
        <time>2022-06-25T11:37:26Z</time>
      </trkpt>
      <trkpt lat="46.40511" lon="4.72584">
        <ele>304.2</ele>
        <time>2022-06-25T11:37:27Z</time>
      </trkpt>
      <trkpt lat="46.40513" lon="4.72579">
        <ele>304.2</ele>
        <time>2022-06-25T11:37:28Z</time>
      </trkpt>
      <trkpt lat="46.40514" lon="4.72574">
        <ele>304.6</ele>
        <time>2022-06-25T11:37:29Z</time>
      </trkpt>
      <trkpt lat="46.40515" lon="4.7257">
        <ele>304.6</ele>
        <time>2022-06-25T11:37:30Z</time>
      </trkpt>
      <trkpt lat="46.40516" lon="4.72565">
        <ele>304.8</ele>
        <time>2022-06-25T11:37:31Z</time>
      </trkpt>
      <trkpt lat="46.40518" lon="4.72561">
        <ele>304.8</ele>
        <time>2022-06-25T11:37:32Z</time>
      </trkpt>
      <trkpt lat="46.40519" lon="4.72557">
        <ele>305.2</ele>
        <time>2022-06-25T11:37:33Z</time>
      </trkpt>
      <trkpt lat="46.40521" lon="4.72553">
        <ele>305.2</ele>
        <time>2022-06-25T11:37:34Z</time>
      </trkpt>
      <trkpt lat="46.40522" lon="4.72549">
        <ele>305.4</ele>
        <time>2022-06-25T11:37:35Z</time>
      </trkpt>
      <trkpt lat="46.40523" lon="4.72546">
        <ele>305.4</ele>
        <time>2022-06-25T11:37:36Z</time>
      </trkpt>
      <trkpt lat="46.40524" lon="4.72542">
        <ele>305.8</ele>
        <time>2022-06-25T11:37:37Z</time>
      </trkpt>
      <trkpt lat="46.40525" lon="4.72539">
        <ele>305.8</ele>
        <time>2022-06-25T11:37:38Z</time>
      </trkpt>
      <trkpt lat="46.40526" lon="4.72535">
        <ele>306</ele>
        <time>2022-06-25T11:37:39Z</time>
      </trkpt>
      <trkpt lat="46.40527" lon="4.72532">
        <ele>306.2</ele>
        <time>2022-06-25T11:37:40Z</time>
      </trkpt>
      <trkpt lat="46.40528" lon="4.72528">
        <ele>306.2</ele>
        <time>2022-06-25T11:37:41Z</time>
      </trkpt>
      <trkpt lat="46.4053" lon="4.72525">
        <ele>306.6</ele>
        <time>2022-06-25T11:37:42Z</time>
      </trkpt>
      <trkpt lat="46.40531" lon="4.72522">
        <ele>306.6</ele>
        <time>2022-06-25T11:37:43Z</time>
      </trkpt>
      <trkpt lat="46.40532" lon="4.72519">
        <ele>307</ele>
        <time>2022-06-25T11:37:44Z</time>
      </trkpt>
      <trkpt lat="46.40533" lon="4.72516">
        <ele>307</ele>
        <time>2022-06-25T11:37:45Z</time>
      </trkpt>
      <trkpt lat="46.40534" lon="4.72514">
        <ele>307.4</ele>
        <time>2022-06-25T11:37:46Z</time>
      </trkpt>
      <trkpt lat="46.40535" lon="4.72511">
        <ele>307.4</ele>
        <time>2022-06-25T11:37:47Z</time>
      </trkpt>
      <trkpt lat="46.40537" lon="4.72508">
        <ele>307.6</ele>
        <time>2022-06-25T11:37:48Z</time>
      </trkpt>
      <trkpt lat="46.40538" lon="4.72506">
        <ele>307.6</ele>
        <time>2022-06-25T11:37:49Z</time>
      </trkpt>
      <trkpt lat="46.4054" lon="4.72503">
        <ele>308</ele>
        <time>2022-06-25T11:37:50Z</time>
      </trkpt>
      <trkpt lat="46.40541" lon="4.725">
        <ele>308</ele>
        <time>2022-06-25T11:37:51Z</time>
      </trkpt>
      <trkpt lat="46.40543" lon="4.72497">
        <ele>308.2</ele>
        <time>2022-06-25T11:37:52Z</time>
      </trkpt>
      <trkpt lat="46.40544" lon="4.72494">
        <ele>308.4</ele>
        <time>2022-06-25T11:37:53Z</time>
      </trkpt>
      <trkpt lat="46.40545" lon="4.72491">
        <ele>308.4</ele>
        <time>2022-06-25T11:37:54Z</time>
      </trkpt>
      <trkpt lat="46.40546" lon="4.72488">
        <ele>308.8</ele>
        <time>2022-06-25T11:37:55Z</time>
      </trkpt>
      <trkpt lat="46.40548" lon="4.72486">
        <ele>309</ele>
        <time>2022-06-25T11:37:56Z</time>
      </trkpt>
      <trkpt lat="46.40549" lon="4.72483">
        <ele>309</ele>
        <time>2022-06-25T11:37:57Z</time>
      </trkpt>
      <trkpt lat="46.40551" lon="4.72481">
        <ele>309.4</ele>
        <time>2022-06-25T11:37:58Z</time>
      </trkpt>
      <trkpt lat="46.40553" lon="4.72479">
        <ele>309.4</ele>
        <time>2022-06-25T11:37:59Z</time>
      </trkpt>
      <trkpt lat="46.40555" lon="4.72477">
        <ele>309.6</ele>
        <time>2022-06-25T11:38:00Z</time>
      </trkpt>
      <trkpt lat="46.40556" lon="4.72475">
        <ele>309.6</ele>
        <time>2022-06-25T11:38:01Z</time>
      </trkpt>
      <trkpt lat="46.40558" lon="4.72472">
        <ele>309.8</ele>
        <time>2022-06-25T11:38:02Z</time>
      </trkpt>
      <trkpt lat="46.4056" lon="4.7247">
        <ele>309.8</ele>
        <time>2022-06-25T11:38:03Z</time>
      </trkpt>
      <trkpt lat="46.40562" lon="4.72469">
        <ele>310</ele>
        <time>2022-06-25T11:38:04Z</time>
      </trkpt>
      <trkpt lat="46.40564" lon="4.72467">
        <ele>310</ele>
        <time>2022-06-25T11:38:05Z</time>
      </trkpt>
      <trkpt lat="46.40566" lon="4.72465">
        <ele>310.4</ele>
        <time>2022-06-25T11:38:06Z</time>
      </trkpt>
      <trkpt lat="46.40569" lon="4.72463">
        <ele>310.4</ele>
        <time>2022-06-25T11:38:07Z</time>
      </trkpt>
      <trkpt lat="46.40571" lon="4.72461">
        <ele>310.4</ele>
        <time>2022-06-25T11:38:08Z</time>
      </trkpt>
      <trkpt lat="46.40573" lon="4.72459">
        <ele>310.6</ele>
        <time>2022-06-25T11:38:09Z</time>
      </trkpt>
      <trkpt lat="46.40575" lon="4.72457">
        <ele>310.6</ele>
        <time>2022-06-25T11:38:10Z</time>
      </trkpt>
      <trkpt lat="46.40577" lon="4.72455">
        <ele>310.6</ele>
        <time>2022-06-25T11:38:11Z</time>
      </trkpt>
      <trkpt lat="46.40579" lon="4.72453">
        <ele>311</ele>
        <time>2022-06-25T11:38:12Z</time>
      </trkpt>
      <trkpt lat="46.40581" lon="4.72451">
        <ele>311</ele>
        <time>2022-06-25T11:38:13Z</time>
      </trkpt>
      <trkpt lat="46.40583" lon="4.72449">
        <ele>311.2</ele>
        <time>2022-06-25T11:38:14Z</time>
      </trkpt>
      <trkpt lat="46.40585" lon="4.72448">
        <ele>311.2</ele>
        <time>2022-06-25T11:38:15Z</time>
      </trkpt>
      <trkpt lat="46.40587" lon="4.72446">
        <ele>311.2</ele>
        <time>2022-06-25T11:38:16Z</time>
      </trkpt>
      <trkpt lat="46.40589" lon="4.72444">
        <ele>311.2</ele>
        <time>2022-06-25T11:38:17Z</time>
      </trkpt>
      <trkpt lat="46.40591" lon="4.72442">
        <ele>311.4</ele>
        <time>2022-06-25T11:38:18Z</time>
      </trkpt>
      <trkpt lat="46.40593" lon="4.7244">
        <ele>311.4</ele>
        <time>2022-06-25T11:38:19Z</time>
      </trkpt>
      <trkpt lat="46.40595" lon="4.72438">
        <ele>311.4</ele>
        <time>2022-06-25T11:38:20Z</time>
      </trkpt>
      <trkpt lat="46.40597" lon="4.72436">
        <ele>311.6</ele>
        <time>2022-06-25T11:38:21Z</time>
      </trkpt>
      <trkpt lat="46.40599" lon="4.72434">
        <ele>311.6</ele>
        <time>2022-06-25T11:38:22Z</time>
      </trkpt>
      <trkpt lat="46.40601" lon="4.72433">
        <ele>311.6</ele>
        <time>2022-06-25T11:38:23Z</time>
      </trkpt>
      <trkpt lat="46.40602" lon="4.72431">
        <ele>312</ele>
        <time>2022-06-25T11:38:24Z</time>
      </trkpt>
      <trkpt lat="46.40605" lon="4.72429">
        <ele>312</ele>
        <time>2022-06-25T11:38:25Z</time>
      </trkpt>
      <trkpt lat="46.40607" lon="4.72428">
        <ele>312</ele>
        <time>2022-06-25T11:38:26Z</time>
      </trkpt>
      <trkpt lat="46.40608" lon="4.72427">
        <ele>312.2</ele>
        <time>2022-06-25T11:38:27Z</time>
      </trkpt>
      <trkpt lat="46.4061" lon="4.72426">
        <ele>312.2</ele>
        <time>2022-06-25T11:38:28Z</time>
      </trkpt>
      <trkpt lat="46.40611" lon="4.72425">
        <ele>312.2</ele>
        <time>2022-06-25T11:38:29Z</time>
      </trkpt>
      <trkpt lat="46.40612" lon="4.72424">
        <ele>312.2</ele>
        <time>2022-06-25T11:38:30Z</time>
      </trkpt>
      <trkpt lat="46.40612" lon="4.72424">
        <ele>312.6</ele>
        <time>2022-06-25T11:43:42Z</time>
      </trkpt>
      <trkpt lat="46.40611" lon="4.72421">
        <ele>312.6</ele>
        <time>2022-06-25T11:43:48Z</time>
      </trkpt>
      <trkpt lat="46.4061" lon="4.72423">
        <ele>312.4</ele>
        <time>2022-06-25T11:43:49Z</time>
      </trkpt>
      <trkpt lat="46.40609" lon="4.72425">
        <ele>312.4</ele>
        <time>2022-06-25T11:43:50Z</time>
      </trkpt>
      <trkpt lat="46.40607" lon="4.72427">
        <ele>312.4</ele>
        <time>2022-06-25T11:43:51Z</time>
      </trkpt>
      <trkpt lat="46.40606" lon="4.72429">
        <ele>312.2</ele>
        <time>2022-06-25T11:43:52Z</time>
      </trkpt>
      <trkpt lat="46.40603" lon="4.72432">
        <ele>312.2</ele>
        <time>2022-06-25T11:43:53Z</time>
      </trkpt>
      <trkpt lat="46.40601" lon="4.72434">
        <ele>312.2</ele>
        <time>2022-06-25T11:43:54Z</time>
      </trkpt>
      <trkpt lat="46.40598" lon="4.72436">
        <ele>312.2</ele>
        <time>2022-06-25T11:43:55Z</time>
      </trkpt>
      <trkpt lat="46.40595" lon="4.72439">
        <ele>312</ele>
        <time>2022-06-25T11:43:56Z</time>
      </trkpt>
      <trkpt lat="46.40593" lon="4.72442">
        <ele>312</ele>
        <time>2022-06-25T11:43:57Z</time>
      </trkpt>
      <trkpt lat="46.4059" lon="4.72445">
        <ele>311.8</ele>
        <time>2022-06-25T11:43:58Z</time>
      </trkpt>
      <trkpt lat="46.40587" lon="4.72447">
        <ele>311.8</ele>
        <time>2022-06-25T11:43:59Z</time>
      </trkpt>
      <trkpt lat="46.40585" lon="4.72449">
        <ele>311.8</ele>
        <time>2022-06-25T11:44:00Z</time>
      </trkpt>
      <trkpt lat="46.40583" lon="4.72452">
        <ele>311.8</ele>
        <time>2022-06-25T11:44:01Z</time>
      </trkpt>
      <trkpt lat="46.4058" lon="4.72454">
        <ele>311.4</ele>
        <time>2022-06-25T11:44:02Z</time>
      </trkpt>
      <trkpt lat="46.40578" lon="4.72457">
        <ele>311.4</ele>
        <time>2022-06-25T11:44:03Z</time>
      </trkpt>
      <trkpt lat="46.40576" lon="4.72459">
        <ele>311.4</ele>
        <time>2022-06-25T11:44:04Z</time>
      </trkpt>
      <trkpt lat="46.40574" lon="4.72461">
        <ele>311.4</ele>
        <time>2022-06-25T11:44:05Z</time>
      </trkpt>
      <trkpt lat="46.40571" lon="4.72463">
        <ele>311.2</ele>
        <time>2022-06-25T11:44:06Z</time>
      </trkpt>
      <trkpt lat="46.40569" lon="4.72466">
        <ele>311.2</ele>
        <time>2022-06-25T11:44:07Z</time>
      </trkpt>
      <trkpt lat="46.40566" lon="4.72468">
        <ele>311</ele>
        <time>2022-06-25T11:44:08Z</time>
      </trkpt>
      <trkpt lat="46.40562" lon="4.72472">
        <ele>311</ele>
        <time>2022-06-25T11:44:09Z</time>
      </trkpt>
      <trkpt lat="46.40559" lon="4.72476">
        <ele>310.6</ele>
        <time>2022-06-25T11:44:10Z</time>
      </trkpt>
      <trkpt lat="46.40556" lon="4.7248">
        <ele>310.6</ele>
        <time>2022-06-25T11:44:11Z</time>
      </trkpt>
      <trkpt lat="46.40552" lon="4.72485">
        <ele>310.2</ele>
        <time>2022-06-25T11:44:12Z</time>
      </trkpt>
      <trkpt lat="46.40549" lon="4.72491">
        <ele>310</ele>
        <time>2022-06-25T11:44:13Z</time>
      </trkpt>
      <trkpt lat="46.40545" lon="4.72497">
        <ele>309.8</ele>
        <time>2022-06-25T11:44:14Z</time>
      </trkpt>
      <trkpt lat="46.40541" lon="4.72503">
        <ele>309.6</ele>
        <time>2022-06-25T11:44:15Z</time>
      </trkpt>
      <trkpt lat="46.40537" lon="4.72511">
        <ele>309.4</ele>
        <time>2022-06-25T11:44:16Z</time>
      </trkpt>
      <trkpt lat="46.40533" lon="4.72519">
        <ele>309</ele>
        <time>2022-06-25T11:44:18Z</time>
      </trkpt>
      <trkpt lat="46.4053" lon="4.72528">
        <ele>308.8</ele>
        <time>2022-06-25T11:44:19Z</time>
      </trkpt>
      <trkpt lat="46.40526" lon="4.72538">
        <ele>308.4</ele>
        <time>2022-06-25T11:44:20Z</time>
      </trkpt>
      <trkpt lat="46.40523" lon="4.72548">
        <ele>307.8</ele>
        <time>2022-06-25T11:44:21Z</time>
      </trkpt>
      <trkpt lat="46.40519" lon="4.72558">
        <ele>307.4</ele>
        <time>2022-06-25T11:44:22Z</time>
      </trkpt>
      <trkpt lat="46.40516" lon="4.7257">
        <ele>306.8</ele>
        <time>2022-06-25T11:44:23Z</time>
      </trkpt>
      <trkpt lat="46.40512" lon="4.72581">
        <ele>306.4</ele>
        <time>2022-06-25T11:44:24Z</time>
      </trkpt>
      <trkpt lat="46.40508" lon="4.72593">
        <ele>306</ele>
        <time>2022-06-25T11:44:25Z</time>
      </trkpt>
      <trkpt lat="46.40504" lon="4.72604">
        <ele>305.6</ele>
        <time>2022-06-25T11:44:26Z</time>
      </trkpt>
      <trkpt lat="46.405" lon="4.72615">
        <ele>305.4</ele>
        <time>2022-06-25T11:44:27Z</time>
      </trkpt>
      <trkpt lat="46.40495" lon="4.72625">
        <ele>305</ele>
        <time>2022-06-25T11:44:28Z</time>
      </trkpt>
      <trkpt lat="46.40489" lon="4.72635">
        <ele>304.6</ele>
        <time>2022-06-25T11:44:29Z</time>
      </trkpt>
      <trkpt lat="46.40483" lon="4.72645">
        <ele>304.4</ele>
        <time>2022-06-25T11:44:30Z</time>
      </trkpt>
      <trkpt lat="46.40478" lon="4.72655">
        <ele>304.2</ele>
        <time>2022-06-25T11:44:31Z</time>
      </trkpt>
      <trkpt lat="46.40472" lon="4.72665">
        <ele>304</ele>
        <time>2022-06-25T11:44:32Z</time>
      </trkpt>
      <trkpt lat="46.40467" lon="4.72674">
        <ele>303.6</ele>
        <time>2022-06-25T11:44:33Z</time>
      </trkpt>
      <trkpt lat="46.40461" lon="4.72684">
        <ele>303.4</ele>
        <time>2022-06-25T11:44:34Z</time>
      </trkpt>
      <trkpt lat="46.40457" lon="4.72694">
        <ele>303.4</ele>
        <time>2022-06-25T11:44:35Z</time>
      </trkpt>
      <trkpt lat="46.40452" lon="4.72704">
        <ele>303.2</ele>
        <time>2022-06-25T11:44:36Z</time>
      </trkpt>
      <trkpt lat="46.40447" lon="4.72714">
        <ele>303.2</ele>
        <time>2022-06-25T11:44:37Z</time>
      </trkpt>
      <trkpt lat="46.40443" lon="4.72724">
        <ele>302.8</ele>
        <time>2022-06-25T11:44:38Z</time>
      </trkpt>
      <trkpt lat="46.4044" lon="4.72735">
        <ele>302.6</ele>
        <time>2022-06-25T11:44:39Z</time>
      </trkpt>
      <trkpt lat="46.40436" lon="4.72745">
        <ele>302.2</ele>
        <time>2022-06-25T11:44:40Z</time>
      </trkpt>
      <trkpt lat="46.40433" lon="4.72755">
        <ele>301.8</ele>
        <time>2022-06-25T11:44:41Z</time>
      </trkpt>
      <trkpt lat="46.4043" lon="4.72765">
        <ele>301.6</ele>
        <time>2022-06-25T11:44:42Z</time>
      </trkpt>
      <trkpt lat="46.40427" lon="4.72775">
        <ele>301.6</ele>
        <time>2022-06-25T11:44:43Z</time>
      </trkpt>
      <trkpt lat="46.40424" lon="4.72784">
        <ele>301.2</ele>
        <time>2022-06-25T11:44:44Z</time>
      </trkpt>
      <trkpt lat="46.40421" lon="4.72794">
        <ele>301.2</ele>
        <time>2022-06-25T11:44:45Z</time>
      </trkpt>
      <trkpt lat="46.40418" lon="4.72804">
        <ele>301.2</ele>
        <time>2022-06-25T11:44:46Z</time>
      </trkpt>
      <trkpt lat="46.40415" lon="4.72813">
        <ele>301</ele>
        <time>2022-06-25T11:44:47Z</time>
      </trkpt>
      <trkpt lat="46.40412" lon="4.72823">
        <ele>301</ele>
        <time>2022-06-25T11:44:48Z</time>
      </trkpt>
      <trkpt lat="46.40409" lon="4.72832">
        <ele>301</ele>
        <time>2022-06-25T11:44:49Z</time>
      </trkpt>
      <trkpt lat="46.40405" lon="4.72842">
        <ele>301</ele>
        <time>2022-06-25T11:44:50Z</time>
      </trkpt>
      <trkpt lat="46.40402" lon="4.72851">
        <ele>300.6</ele>
        <time>2022-06-25T11:44:51Z</time>
      </trkpt>
      <trkpt lat="46.40398" lon="4.72861">
        <ele>300.6</ele>
        <time>2022-06-25T11:44:52Z</time>
      </trkpt>
      <trkpt lat="46.40395" lon="4.72872">
        <ele>300.4</ele>
        <time>2022-06-25T11:44:53Z</time>
      </trkpt>
      <trkpt lat="46.40391" lon="4.72882">
        <ele>300.4</ele>
        <time>2022-06-25T11:44:54Z</time>
      </trkpt>
      <trkpt lat="46.40388" lon="4.72892">
        <ele>300.4</ele>
        <time>2022-06-25T11:44:55Z</time>
      </trkpt>
      <trkpt lat="46.40384" lon="4.72902">
        <ele>300.4</ele>
        <time>2022-06-25T11:44:56Z</time>
      </trkpt>
      <trkpt lat="46.40381" lon="4.72911">
        <ele>299.8</ele>
        <time>2022-06-25T11:44:57Z</time>
      </trkpt>
      <trkpt lat="46.40377" lon="4.72921">
        <ele>299.6</ele>
        <time>2022-06-25T11:44:58Z</time>
      </trkpt>
      <trkpt lat="46.40373" lon="4.7293">
        <ele>299.4</ele>
        <time>2022-06-25T11:44:59Z</time>
      </trkpt>
      <trkpt lat="46.40368" lon="4.72938">
        <ele>299.4</ele>
        <time>2022-06-25T11:45:00Z</time>
      </trkpt>
      <trkpt lat="46.40363" lon="4.72946">
        <ele>299.2</ele>
        <time>2022-06-25T11:45:01Z</time>
      </trkpt>
      <trkpt lat="46.40358" lon="4.72954">
        <ele>299.2</ele>
        <time>2022-06-25T11:45:02Z</time>
      </trkpt>
      <trkpt lat="46.40353" lon="4.72962">
        <ele>298.8</ele>
        <time>2022-06-25T11:45:03Z</time>
      </trkpt>
      <trkpt lat="46.40348" lon="4.72969">
        <ele>298.8</ele>
        <time>2022-06-25T11:45:04Z</time>
      </trkpt>
      <trkpt lat="46.40342" lon="4.72975">
        <ele>298.8</ele>
        <time>2022-06-25T11:45:05Z</time>
      </trkpt>
      <trkpt lat="46.40337" lon="4.72982">
        <ele>298.6</ele>
        <time>2022-06-25T11:45:06Z</time>
      </trkpt>
      <trkpt lat="46.40332" lon="4.72988">
        <ele>298.6</ele>
        <time>2022-06-25T11:45:07Z</time>
      </trkpt>
      <trkpt lat="46.40326" lon="4.72994">
        <ele>298.6</ele>
        <time>2022-06-25T11:45:08Z</time>
      </trkpt>
      <trkpt lat="46.40321" lon="4.73">
        <ele>298.6</ele>
        <time>2022-06-25T11:45:09Z</time>
      </trkpt>
      <trkpt lat="46.40316" lon="4.73006">
        <ele>298.6</ele>
        <time>2022-06-25T11:45:10Z</time>
      </trkpt>
      <trkpt lat="46.40312" lon="4.73012">
        <ele>298.6</ele>
        <time>2022-06-25T11:45:11Z</time>
      </trkpt>
      <trkpt lat="46.40307" lon="4.73017">
        <ele>298.6</ele>
        <time>2022-06-25T11:45:12Z</time>
      </trkpt>
      <trkpt lat="46.40303" lon="4.73023">
        <ele>298.6</ele>
        <time>2022-06-25T11:45:13Z</time>
      </trkpt>
      <trkpt lat="46.40299" lon="4.7303">
        <ele>298.6</ele>
        <time>2022-06-25T11:45:14Z</time>
      </trkpt>
      <trkpt lat="46.40295" lon="4.73036">
        <ele>298.6</ele>
        <time>2022-06-25T11:45:15Z</time>
      </trkpt>
      <trkpt lat="46.40292" lon="4.73043">
        <ele>298.6</ele>
        <time>2022-06-25T11:45:16Z</time>
      </trkpt>
      <trkpt lat="46.40289" lon="4.7305">
        <ele>298.6</ele>
        <time>2022-06-25T11:45:17Z</time>
      </trkpt>
      <trkpt lat="46.40287" lon="4.73057">
        <ele>298.6</ele>
        <time>2022-06-25T11:45:18Z</time>
      </trkpt>
      <trkpt lat="46.40285" lon="4.73065">
        <ele>298.6</ele>
        <time>2022-06-25T11:45:19Z</time>
      </trkpt>
      <trkpt lat="46.40283" lon="4.73072">
        <ele>298.6</ele>
        <time>2022-06-25T11:45:20Z</time>
      </trkpt>
      <trkpt lat="46.40281" lon="4.7308">
        <ele>298.6</ele>
        <time>2022-06-25T11:45:21Z</time>
      </trkpt>
      <trkpt lat="46.4028" lon="4.73088">
        <ele>298.6</ele>
        <time>2022-06-25T11:45:22Z</time>
      </trkpt>
      <trkpt lat="46.40278" lon="4.73095">
        <ele>298.4</ele>
        <time>2022-06-25T11:45:23Z</time>
      </trkpt>
      <trkpt lat="46.40277" lon="4.73104">
        <ele>298.4</ele>
        <time>2022-06-25T11:45:24Z</time>
      </trkpt>
      <trkpt lat="46.40276" lon="4.73112">
        <ele>298.2</ele>
        <time>2022-06-25T11:45:25Z</time>
      </trkpt>
      <trkpt lat="46.40275" lon="4.7312">
        <ele>298.2</ele>
        <time>2022-06-25T11:45:26Z</time>
      </trkpt>
      <trkpt lat="46.40274" lon="4.73129">
        <ele>297.8</ele>
        <time>2022-06-25T11:45:27Z</time>
      </trkpt>
      <trkpt lat="46.40273" lon="4.73138">
        <ele>297.8</ele>
        <time>2022-06-25T11:45:28Z</time>
      </trkpt>
      <trkpt lat="46.40272" lon="4.73148">
        <ele>297.8</ele>
        <time>2022-06-25T11:45:29Z</time>
      </trkpt>
      <trkpt lat="46.40272" lon="4.73158">
        <ele>297.8</ele>
        <time>2022-06-25T11:45:30Z</time>
      </trkpt>
      <trkpt lat="46.40271" lon="4.73168">
        <ele>297.6</ele>
        <time>2022-06-25T11:45:31Z</time>
      </trkpt>
      <trkpt lat="46.4027" lon="4.73179">
        <ele>297.2</ele>
        <time>2022-06-25T11:45:32Z</time>
      </trkpt>
      <trkpt lat="46.4027" lon="4.73189">
        <ele>297</ele>
        <time>2022-06-25T11:45:33Z</time>
      </trkpt>
      <trkpt lat="46.40269" lon="4.73199">
        <ele>296.6</ele>
        <time>2022-06-25T11:45:34Z</time>
      </trkpt>
      <trkpt lat="46.40269" lon="4.73209">
        <ele>296.4</ele>
        <time>2022-06-25T11:45:35Z</time>
      </trkpt>
      <trkpt lat="46.40268" lon="4.7322">
        <ele>296.2</ele>
        <time>2022-06-25T11:45:36Z</time>
      </trkpt>
      <trkpt lat="46.40267" lon="4.7323">
        <ele>296.2</ele>
        <time>2022-06-25T11:45:37Z</time>
      </trkpt>
      <trkpt lat="46.40266" lon="4.7324">
        <ele>295.8</ele>
        <time>2022-06-25T11:45:38Z</time>
      </trkpt>
      <trkpt lat="46.40266" lon="4.73251">
        <ele>295.4</ele>
        <time>2022-06-25T11:45:39Z</time>
      </trkpt>
      <trkpt lat="46.40265" lon="4.73261">
        <ele>295.2</ele>
        <time>2022-06-25T11:45:40Z</time>
      </trkpt>
      <trkpt lat="46.40264" lon="4.73271">
        <ele>294.8</ele>
        <time>2022-06-25T11:45:41Z</time>
      </trkpt>
      <trkpt lat="46.40263" lon="4.73281">
        <ele>294.6</ele>
        <time>2022-06-25T11:45:42Z</time>
      </trkpt>
      <trkpt lat="46.40262" lon="4.73292">
        <ele>294.2</ele>
        <time>2022-06-25T11:45:43Z</time>
      </trkpt>
      <trkpt lat="46.4026" lon="4.73302">
        <ele>294</ele>
        <time>2022-06-25T11:45:44Z</time>
      </trkpt>
      <trkpt lat="46.40259" lon="4.73312">
        <ele>293.6</ele>
        <time>2022-06-25T11:45:45Z</time>
      </trkpt>
      <trkpt lat="46.40257" lon="4.73323">
        <ele>293.4</ele>
        <time>2022-06-25T11:45:46Z</time>
      </trkpt>
      <trkpt lat="46.40256" lon="4.73334">
        <ele>293.4</ele>
        <time>2022-06-25T11:45:47Z</time>
      </trkpt>
      <trkpt lat="46.40254" lon="4.73345">
        <ele>293.4</ele>
        <time>2022-06-25T11:45:48Z</time>
      </trkpt>
      <trkpt lat="46.40253" lon="4.73356">
        <ele>293.2</ele>
        <time>2022-06-25T11:45:49Z</time>
      </trkpt>
      <trkpt lat="46.40251" lon="4.73367">
        <ele>292.8</ele>
        <time>2022-06-25T11:45:50Z</time>
      </trkpt>
      <trkpt lat="46.40249" lon="4.73377">
        <ele>292.4</ele>
        <time>2022-06-25T11:45:51Z</time>
      </trkpt>
      <trkpt lat="46.40246" lon="4.73388">
        <ele>292.2</ele>
        <time>2022-06-25T11:45:52Z</time>
      </trkpt>
      <trkpt lat="46.40243" lon="4.73399">
        <ele>291.8</ele>
        <time>2022-06-25T11:45:53Z</time>
      </trkpt>
      <trkpt lat="46.40239" lon="4.73409">
        <ele>291.4</ele>
        <time>2022-06-25T11:45:54Z</time>
      </trkpt>
      <trkpt lat="46.40236" lon="4.7342">
        <ele>291.2</ele>
        <time>2022-06-25T11:45:55Z</time>
      </trkpt>
      <trkpt lat="46.40232" lon="4.7343">
        <ele>291.2</ele>
        <time>2022-06-25T11:45:56Z</time>
      </trkpt>
      <trkpt lat="46.40229" lon="4.73441">
        <ele>290.8</ele>
        <time>2022-06-25T11:45:57Z</time>
      </trkpt>
      <trkpt lat="46.40225" lon="4.73451">
        <ele>290.6</ele>
        <time>2022-06-25T11:45:58Z</time>
      </trkpt>
      <trkpt lat="46.40222" lon="4.73461">
        <ele>290.6</ele>
        <time>2022-06-25T11:45:59Z</time>
      </trkpt>
      <trkpt lat="46.40218" lon="4.7347">
        <ele>290.2</ele>
        <time>2022-06-25T11:46:00Z</time>
      </trkpt>
      <trkpt lat="46.40214" lon="4.73478">
        <ele>290.2</ele>
        <time>2022-06-25T11:46:01Z</time>
      </trkpt>
      <trkpt lat="46.40209" lon="4.73485">
        <ele>290.2</ele>
        <time>2022-06-25T11:46:02Z</time>
      </trkpt>
      <trkpt lat="46.40205" lon="4.73492">
        <ele>290.2</ele>
        <time>2022-06-25T11:46:03Z</time>
      </trkpt>
      <trkpt lat="46.402" lon="4.735">
        <ele>290.2</ele>
        <time>2022-06-25T11:46:04Z</time>
      </trkpt>
      <trkpt lat="46.40196" lon="4.73507">
        <ele>290.2</ele>
        <time>2022-06-25T11:46:05Z</time>
      </trkpt>
      <trkpt lat="46.40192" lon="4.73513">
        <ele>290.6</ele>
        <time>2022-06-25T11:46:06Z</time>
      </trkpt>
      <trkpt lat="46.40188" lon="4.7352">
        <ele>290.6</ele>
        <time>2022-06-25T11:46:07Z</time>
      </trkpt>
      <trkpt lat="46.40184" lon="4.73526">
        <ele>290.8</ele>
        <time>2022-06-25T11:46:08Z</time>
      </trkpt>
      <trkpt lat="46.40179" lon="4.73531">
        <ele>290.8</ele>
        <time>2022-06-25T11:46:09Z</time>
      </trkpt>
      <trkpt lat="46.40174" lon="4.73536">
        <ele>291.2</ele>
        <time>2022-06-25T11:46:10Z</time>
      </trkpt>
      <trkpt lat="46.4017" lon="4.7354">
        <ele>291.2</ele>
        <time>2022-06-25T11:46:11Z</time>
      </trkpt>
      <trkpt lat="46.40165" lon="4.73544">
        <ele>291.2</ele>
        <time>2022-06-25T11:46:12Z</time>
      </trkpt>
      <trkpt lat="46.40159" lon="4.73548">
        <ele>291.4</ele>
        <time>2022-06-25T11:46:13Z</time>
      </trkpt>
      <trkpt lat="46.40154" lon="4.73551">
        <ele>291.4</ele>
        <time>2022-06-25T11:46:14Z</time>
      </trkpt>
      <trkpt lat="46.40147" lon="4.73553">
        <ele>291.6</ele>
        <time>2022-06-25T11:46:15Z</time>
      </trkpt>
      <trkpt lat="46.40141" lon="4.73555">
        <ele>291.6</ele>
        <time>2022-06-25T11:46:16Z</time>
      </trkpt>
      <trkpt lat="46.40135" lon="4.73556">
        <ele>292</ele>
        <time>2022-06-25T11:46:17Z</time>
      </trkpt>
      <trkpt lat="46.40128" lon="4.73556">
        <ele>292</ele>
        <time>2022-06-25T11:46:18Z</time>
      </trkpt>
      <trkpt lat="46.40122" lon="4.73558">
        <ele>292</ele>
        <time>2022-06-25T11:46:19Z</time>
      </trkpt>
      <trkpt lat="46.40116" lon="4.73559">
        <ele>292</ele>
        <time>2022-06-25T11:46:20Z</time>
      </trkpt>
      <trkpt lat="46.40109" lon="4.7356">
        <ele>292</ele>
        <time>2022-06-25T11:46:21Z</time>
      </trkpt>
      <trkpt lat="46.40103" lon="4.73562">
        <ele>292.2</ele>
        <time>2022-06-25T11:46:22Z</time>
      </trkpt>
      <trkpt lat="46.40097" lon="4.73563">
        <ele>292.2</ele>
        <time>2022-06-25T11:46:23Z</time>
      </trkpt>
      <trkpt lat="46.40091" lon="4.73566">
        <ele>292.2</ele>
        <time>2022-06-25T11:46:24Z</time>
      </trkpt>
      <trkpt lat="46.40084" lon="4.73568">
        <ele>292.2</ele>
        <time>2022-06-25T11:46:25Z</time>
      </trkpt>
      <trkpt lat="46.40078" lon="4.73571">
        <ele>292.2</ele>
        <time>2022-06-25T11:46:26Z</time>
      </trkpt>
      <trkpt lat="46.40072" lon="4.73575">
        <ele>292.2</ele>
        <time>2022-06-25T11:46:27Z</time>
      </trkpt>
      <trkpt lat="46.40066" lon="4.73578">
        <ele>292.2</ele>
        <time>2022-06-25T11:46:28Z</time>
      </trkpt>
      <trkpt lat="46.4006" lon="4.73583">
        <ele>292.2</ele>
        <time>2022-06-25T11:46:29Z</time>
      </trkpt>
      <trkpt lat="46.40055" lon="4.73587">
        <ele>292.2</ele>
        <time>2022-06-25T11:46:30Z</time>
      </trkpt>
      <trkpt lat="46.40049" lon="4.73592">
        <ele>291.8</ele>
        <time>2022-06-25T11:46:31Z</time>
      </trkpt>
      <trkpt lat="46.40043" lon="4.73597">
        <ele>291.8</ele>
        <time>2022-06-25T11:46:32Z</time>
      </trkpt>
      <trkpt lat="46.40037" lon="4.73602">
        <ele>291.8</ele>
        <time>2022-06-25T11:46:33Z</time>
      </trkpt>
      <trkpt lat="46.40031" lon="4.73607">
        <ele>291.8</ele>
        <time>2022-06-25T11:46:34Z</time>
      </trkpt>
      <trkpt lat="46.40026" lon="4.73611">
        <ele>291.8</ele>
        <time>2022-06-25T11:46:35Z</time>
      </trkpt>
      <trkpt lat="46.4002" lon="4.73616">
        <ele>291.8</ele>
        <time>2022-06-25T11:46:36Z</time>
      </trkpt>
      <trkpt lat="46.40014" lon="4.73621">
        <ele>291.6</ele>
        <time>2022-06-25T11:46:37Z</time>
      </trkpt>
      <trkpt lat="46.40007" lon="4.73625">
        <ele>291.6</ele>
        <time>2022-06-25T11:46:38Z</time>
      </trkpt>
      <trkpt lat="46.40002" lon="4.7363">
        <ele>291.6</ele>
        <time>2022-06-25T11:46:39Z</time>
      </trkpt>
      <trkpt lat="46.39996" lon="4.73636">
        <ele>291.6</ele>
        <time>2022-06-25T11:46:40Z</time>
      </trkpt>
      <trkpt lat="46.39991" lon="4.73641">
        <ele>291.6</ele>
        <time>2022-06-25T11:46:41Z</time>
      </trkpt>
      <trkpt lat="46.39985" lon="4.73646">
        <ele>291.6</ele>
        <time>2022-06-25T11:46:42Z</time>
      </trkpt>
      <trkpt lat="46.3998" lon="4.7365">
        <ele>291.6</ele>
        <time>2022-06-25T11:46:43Z</time>
      </trkpt>
      <trkpt lat="46.39975" lon="4.73655">
        <ele>291.4</ele>
        <time>2022-06-25T11:46:44Z</time>
      </trkpt>
      <trkpt lat="46.3997" lon="4.73659">
        <ele>291.4</ele>
        <time>2022-06-25T11:46:45Z</time>
      </trkpt>
      <trkpt lat="46.39965" lon="4.73664">
        <ele>291.4</ele>
        <time>2022-06-25T11:46:46Z</time>
      </trkpt>
      <trkpt lat="46.3996" lon="4.73668">
        <ele>291.2</ele>
        <time>2022-06-25T11:46:47Z</time>
      </trkpt>
      <trkpt lat="46.39956" lon="4.73672">
        <ele>291.2</ele>
        <time>2022-06-25T11:46:48Z</time>
      </trkpt>
      <trkpt lat="46.39951" lon="4.73677">
        <ele>291.2</ele>
        <time>2022-06-25T11:46:49Z</time>
      </trkpt>
      <trkpt lat="46.39946" lon="4.73681">
        <ele>291.2</ele>
        <time>2022-06-25T11:46:50Z</time>
      </trkpt>
      <trkpt lat="46.39941" lon="4.73685">
        <ele>291.2</ele>
        <time>2022-06-25T11:46:51Z</time>
      </trkpt>
      <trkpt lat="46.39937" lon="4.73689">
        <ele>291.2</ele>
        <time>2022-06-25T11:46:52Z</time>
      </trkpt>
      <trkpt lat="46.39932" lon="4.73693">
        <ele>291.4</ele>
        <time>2022-06-25T11:46:53Z</time>
      </trkpt>
      <trkpt lat="46.39927" lon="4.73696">
        <ele>291.4</ele>
        <time>2022-06-25T11:46:54Z</time>
      </trkpt>
      <trkpt lat="46.39922" lon="4.73701">
        <ele>291.4</ele>
        <time>2022-06-25T11:46:55Z</time>
      </trkpt>
      <trkpt lat="46.39917" lon="4.73705">
        <ele>291.4</ele>
        <time>2022-06-25T11:46:56Z</time>
      </trkpt>
      <trkpt lat="46.39913" lon="4.7371">
        <ele>291.4</ele>
        <time>2022-06-25T11:46:57Z</time>
      </trkpt>
      <trkpt lat="46.39908" lon="4.73715">
        <ele>291.4</ele>
        <time>2022-06-25T11:46:58Z</time>
      </trkpt>
      <trkpt lat="46.39903" lon="4.7372">
        <ele>291.4</ele>
        <time>2022-06-25T11:46:59Z</time>
      </trkpt>
      <trkpt lat="46.39899" lon="4.73726">
        <ele>291.2</ele>
        <time>2022-06-25T11:47:00Z</time>
      </trkpt>
      <trkpt lat="46.39895" lon="4.73731">
        <ele>291.2</ele>
        <time>2022-06-25T11:47:01Z</time>
      </trkpt>
      <trkpt lat="46.39891" lon="4.73737">
        <ele>291.2</ele>
        <time>2022-06-25T11:47:02Z</time>
      </trkpt>
      <trkpt lat="46.39887" lon="4.73744">
        <ele>290.8</ele>
        <time>2022-06-25T11:47:03Z</time>
      </trkpt>
      <trkpt lat="46.39883" lon="4.73751">
        <ele>290.8</ele>
        <time>2022-06-25T11:47:04Z</time>
      </trkpt>
      <trkpt lat="46.39879" lon="4.73758">
        <ele>290.6</ele>
        <time>2022-06-25T11:47:05Z</time>
      </trkpt>
      <trkpt lat="46.39875" lon="4.73765">
        <ele>290.6</ele>
        <time>2022-06-25T11:47:06Z</time>
      </trkpt>
      <trkpt lat="46.39871" lon="4.73772">
        <ele>290.4</ele>
        <time>2022-06-25T11:47:07Z</time>
      </trkpt>
      <trkpt lat="46.39867" lon="4.7378">
        <ele>290</ele>
        <time>2022-06-25T11:47:08Z</time>
      </trkpt>
      <trkpt lat="46.39863" lon="4.73787">
        <ele>290</ele>
        <time>2022-06-25T11:47:09Z</time>
      </trkpt>
      <trkpt lat="46.39859" lon="4.73793">
        <ele>289.8</ele>
        <time>2022-06-25T11:47:10Z</time>
      </trkpt>
      <trkpt lat="46.39854" lon="4.73799">
        <ele>289.8</ele>
        <time>2022-06-25T11:47:11Z</time>
      </trkpt>
      <trkpt lat="46.39849" lon="4.73804">
        <ele>289.8</ele>
        <time>2022-06-25T11:47:12Z</time>
      </trkpt>
      <trkpt lat="46.39844" lon="4.73809">
        <ele>289.8</ele>
        <time>2022-06-25T11:47:13Z</time>
      </trkpt>
      <trkpt lat="46.39839" lon="4.73814">
        <ele>289.4</ele>
        <time>2022-06-25T11:47:14Z</time>
      </trkpt>
      <trkpt lat="46.39835" lon="4.7382">
        <ele>289.4</ele>
        <time>2022-06-25T11:47:15Z</time>
      </trkpt>
      <trkpt lat="46.39831" lon="4.73828">
        <ele>289</ele>
        <time>2022-06-25T11:47:16Z</time>
      </trkpt>
      <trkpt lat="46.39828" lon="4.73837">
        <ele>288.8</ele>
        <time>2022-06-25T11:47:17Z</time>
      </trkpt>
      <trkpt lat="46.39824" lon="4.73847">
        <ele>288.6</ele>
        <time>2022-06-25T11:47:18Z</time>
      </trkpt>
      <trkpt lat="46.39821" lon="4.73857">
        <ele>288.2</ele>
        <time>2022-06-25T11:47:19Z</time>
      </trkpt>
      <trkpt lat="46.39815" lon="4.73877">
        <ele>288</ele>
        <time>2022-06-25T11:47:20Z</time>
      </trkpt>
      <trkpt lat="46.39811" lon="4.73887">
        <ele>287.6</ele>
        <time>2022-06-25T11:47:21Z</time>
      </trkpt>
      <trkpt lat="46.39808" lon="4.73898">
        <ele>287.2</ele>
        <time>2022-06-25T11:47:22Z</time>
      </trkpt>
      <trkpt lat="46.39804" lon="4.73909">
        <ele>286.8</ele>
        <time>2022-06-25T11:47:23Z</time>
      </trkpt>
      <trkpt lat="46.39801" lon="4.73919">
        <ele>286.6</ele>
        <time>2022-06-25T11:47:24Z</time>
      </trkpt>
      <trkpt lat="46.39797" lon="4.7393">
        <ele>286.4</ele>
        <time>2022-06-25T11:47:25Z</time>
      </trkpt>
      <trkpt lat="46.39794" lon="4.73941">
        <ele>286</ele>
        <time>2022-06-25T11:47:26Z</time>
      </trkpt>
      <trkpt lat="46.39791" lon="4.73952">
        <ele>285.8</ele>
        <time>2022-06-25T11:47:27Z</time>
      </trkpt>
      <trkpt lat="46.39787" lon="4.73963">
        <ele>285.6</ele>
        <time>2022-06-25T11:47:28Z</time>
      </trkpt>
      <trkpt lat="46.39784" lon="4.73974">
        <ele>285.2</ele>
        <time>2022-06-25T11:47:29Z</time>
      </trkpt>
      <trkpt lat="46.39781" lon="4.73985">
        <ele>284.8</ele>
        <time>2022-06-25T11:47:30Z</time>
      </trkpt>
      <trkpt lat="46.39778" lon="4.73996">
        <ele>284.6</ele>
        <time>2022-06-25T11:47:31Z</time>
      </trkpt>
      <trkpt lat="46.39774" lon="4.74007">
        <ele>284.4</ele>
        <time>2022-06-25T11:47:32Z</time>
      </trkpt>
      <trkpt lat="46.39772" lon="4.74018">
        <ele>284.4</ele>
        <time>2022-06-25T11:47:33Z</time>
      </trkpt>
      <trkpt lat="46.39769" lon="4.74029">
        <ele>283.8</ele>
        <time>2022-06-25T11:47:34Z</time>
      </trkpt>
      <trkpt lat="46.39766" lon="4.74039">
        <ele>283.6</ele>
        <time>2022-06-25T11:47:35Z</time>
      </trkpt>
      <trkpt lat="46.39763" lon="4.74049">
        <ele>283.6</ele>
        <time>2022-06-25T11:47:36Z</time>
      </trkpt>
      <trkpt lat="46.39759" lon="4.74059">
        <ele>283.2</ele>
        <time>2022-06-25T11:47:37Z</time>
      </trkpt>
      <trkpt lat="46.39756" lon="4.7407">
        <ele>283.2</ele>
        <time>2022-06-25T11:47:38Z</time>
      </trkpt>
      <trkpt lat="46.39753" lon="4.74079">
        <ele>283.2</ele>
        <time>2022-06-25T11:47:39Z</time>
      </trkpt>
      <trkpt lat="46.3975" lon="4.74089">
        <ele>283</ele>
        <time>2022-06-25T11:47:40Z</time>
      </trkpt>
      <trkpt lat="46.39747" lon="4.74099">
        <ele>283</ele>
        <time>2022-06-25T11:47:42Z</time>
      </trkpt>
      <trkpt lat="46.39744" lon="4.74109">
        <ele>282.8</ele>
        <time>2022-06-25T11:47:43Z</time>
      </trkpt>
      <trkpt lat="46.39741" lon="4.74118">
        <ele>282.8</ele>
        <time>2022-06-25T11:47:44Z</time>
      </trkpt>
      <trkpt lat="46.39737" lon="4.74127">
        <ele>282.8</ele>
        <time>2022-06-25T11:47:45Z</time>
      </trkpt>
      <trkpt lat="46.39734" lon="4.74135">
        <ele>282.8</ele>
        <time>2022-06-25T11:47:46Z</time>
      </trkpt>
      <trkpt lat="46.3973" lon="4.74142">
        <ele>283</ele>
        <time>2022-06-25T11:47:47Z</time>
      </trkpt>
      <trkpt lat="46.39726" lon="4.74148">
        <ele>283</ele>
        <time>2022-06-25T11:47:48Z</time>
      </trkpt>
      <trkpt lat="46.39722" lon="4.74153">
        <ele>283.4</ele>
        <time>2022-06-25T11:47:49Z</time>
      </trkpt>
      <trkpt lat="46.39718" lon="4.74157">
        <ele>283.8</ele>
        <time>2022-06-25T11:47:50Z</time>
      </trkpt>
      <trkpt lat="46.39715" lon="4.74162">
        <ele>284</ele>
        <time>2022-06-25T11:47:51Z</time>
      </trkpt>
      <trkpt lat="46.39711" lon="4.74166">
        <ele>284.4</ele>
        <time>2022-06-25T11:47:52Z</time>
      </trkpt>
      <trkpt lat="46.39706" lon="4.74169">
        <ele>284.8</ele>
        <time>2022-06-25T11:47:53Z</time>
      </trkpt>
      <trkpt lat="46.39702" lon="4.74171">
        <ele>285</ele>
        <time>2022-06-25T11:47:54Z</time>
      </trkpt>
      <trkpt lat="46.39698" lon="4.74171">
        <ele>285.2</ele>
        <time>2022-06-25T11:47:55Z</time>
      </trkpt>
      <trkpt lat="46.39693" lon="4.74171">
        <ele>285.2</ele>
        <time>2022-06-25T11:47:56Z</time>
      </trkpt>
      <trkpt lat="46.39689" lon="4.74171">
        <ele>285.6</ele>
        <time>2022-06-25T11:47:57Z</time>
      </trkpt>
      <trkpt lat="46.39685" lon="4.74171">
        <ele>285.6</ele>
        <time>2022-06-25T11:47:58Z</time>
      </trkpt>
      <trkpt lat="46.39681" lon="4.74171">
        <ele>285.8</ele>
        <time>2022-06-25T11:47:59Z</time>
      </trkpt>
      <trkpt lat="46.39677" lon="4.74171">
        <ele>285.8</ele>
        <time>2022-06-25T11:48:00Z</time>
      </trkpt>
      <trkpt lat="46.39673" lon="4.74171">
        <ele>286.2</ele>
        <time>2022-06-25T11:48:01Z</time>
      </trkpt>
      <trkpt lat="46.39669" lon="4.7417">
        <ele>286.2</ele>
        <time>2022-06-25T11:48:02Z</time>
      </trkpt>
      <trkpt lat="46.39665" lon="4.7417">
        <ele>286.4</ele>
        <time>2022-06-25T11:48:03Z</time>
      </trkpt>
      <trkpt lat="46.39662" lon="4.7417">
        <ele>286.4</ele>
        <time>2022-06-25T11:48:04Z</time>
      </trkpt>
      <trkpt lat="46.39659" lon="4.7417">
        <ele>286.8</ele>
        <time>2022-06-25T11:48:05Z</time>
      </trkpt>
      <trkpt lat="46.39655" lon="4.74169">
        <ele>286.8</ele>
        <time>2022-06-25T11:48:06Z</time>
      </trkpt>
      <trkpt lat="46.39652" lon="4.74169">
        <ele>287.2</ele>
        <time>2022-06-25T11:48:07Z</time>
      </trkpt>
      <trkpt lat="46.39648" lon="4.74168">
        <ele>287.2</ele>
        <time>2022-06-25T11:48:08Z</time>
      </trkpt>
      <trkpt lat="46.39645" lon="4.74168">
        <ele>287.4</ele>
        <time>2022-06-25T11:48:09Z</time>
      </trkpt>
      <trkpt lat="46.39642" lon="4.74168">
        <ele>287.4</ele>
        <time>2022-06-25T11:48:10Z</time>
      </trkpt>
      <trkpt lat="46.39639" lon="4.74168">
        <ele>287.8</ele>
        <time>2022-06-25T11:48:11Z</time>
      </trkpt>
      <trkpt lat="46.39636" lon="4.74168">
        <ele>287.8</ele>
        <time>2022-06-25T11:48:12Z</time>
      </trkpt>
      <trkpt lat="46.39633" lon="4.74167">
        <ele>288.4</ele>
        <time>2022-06-25T11:48:13Z</time>
      </trkpt>
      <trkpt lat="46.3963" lon="4.74167">
        <ele>288.4</ele>
        <time>2022-06-25T11:48:14Z</time>
      </trkpt>
      <trkpt lat="46.39627" lon="4.74166">
        <ele>288.4</ele>
        <time>2022-06-25T11:48:15Z</time>
      </trkpt>
      <trkpt lat="46.39624" lon="4.74165">
        <ele>288.6</ele>
        <time>2022-06-25T11:48:16Z</time>
      </trkpt>
      <trkpt lat="46.39621" lon="4.74165">
        <ele>288.6</ele>
        <time>2022-06-25T11:48:17Z</time>
      </trkpt>
      <trkpt lat="46.39618" lon="4.74164">
        <ele>289</ele>
        <time>2022-06-25T11:48:18Z</time>
      </trkpt>
      <trkpt lat="46.39615" lon="4.74163">
        <ele>289</ele>
        <time>2022-06-25T11:48:19Z</time>
      </trkpt>
      <trkpt lat="46.39612" lon="4.74163">
        <ele>289.2</ele>
        <time>2022-06-25T11:48:20Z</time>
      </trkpt>
      <trkpt lat="46.39609" lon="4.74162">
        <ele>289.2</ele>
        <time>2022-06-25T11:48:21Z</time>
      </trkpt>
      <trkpt lat="46.39606" lon="4.74162">
        <ele>289.6</ele>
        <time>2022-06-25T11:48:22Z</time>
      </trkpt>
      <trkpt lat="46.39603" lon="4.74161">
        <ele>289.6</ele>
        <time>2022-06-25T11:48:23Z</time>
      </trkpt>
      <trkpt lat="46.396" lon="4.74159">
        <ele>290</ele>
        <time>2022-06-25T11:48:24Z</time>
      </trkpt>
      <trkpt lat="46.39598" lon="4.74158">
        <ele>290</ele>
        <time>2022-06-25T11:48:25Z</time>
      </trkpt>
      <trkpt lat="46.39595" lon="4.74157">
        <ele>290.2</ele>
        <time>2022-06-25T11:48:26Z</time>
      </trkpt>
      <trkpt lat="46.39592" lon="4.74155">
        <ele>290.2</ele>
        <time>2022-06-25T11:48:27Z</time>
      </trkpt>
      <trkpt lat="46.39589" lon="4.74155">
        <ele>290.6</ele>
        <time>2022-06-25T11:48:28Z</time>
      </trkpt>
      <trkpt lat="46.39586" lon="4.74154">
        <ele>290.6</ele>
        <time>2022-06-25T11:48:29Z</time>
      </trkpt>
      <trkpt lat="46.39583" lon="4.74153">
        <ele>290.8</ele>
        <time>2022-06-25T11:48:30Z</time>
      </trkpt>
      <trkpt lat="46.3958" lon="4.74152">
        <ele>290.8</ele>
        <time>2022-06-25T11:48:31Z</time>
      </trkpt>
      <trkpt lat="46.39577" lon="4.74151">
        <ele>291.2</ele>
        <time>2022-06-25T11:48:32Z</time>
      </trkpt>
      <trkpt lat="46.39575" lon="4.7415">
        <ele>291.2</ele>
        <time>2022-06-25T11:48:33Z</time>
      </trkpt>
      <trkpt lat="46.39571" lon="4.7415">
        <ele>291.4</ele>
        <time>2022-06-25T11:48:34Z</time>
      </trkpt>
      <trkpt lat="46.39568" lon="4.74149">
        <ele>291.4</ele>
        <time>2022-06-25T11:48:35Z</time>
      </trkpt>
      <trkpt lat="46.39565" lon="4.74148">
        <ele>291.8</ele>
        <time>2022-06-25T11:48:36Z</time>
      </trkpt>
      <trkpt lat="46.39562" lon="4.74148">
        <ele>291.8</ele>
        <time>2022-06-25T11:48:37Z</time>
      </trkpt>
      <trkpt lat="46.39559" lon="4.74147">
        <ele>292.2</ele>
        <time>2022-06-25T11:48:38Z</time>
      </trkpt>
      <trkpt lat="46.39556" lon="4.74148">
        <ele>292.2</ele>
        <time>2022-06-25T11:48:39Z</time>
      </trkpt>
      <trkpt lat="46.39553" lon="4.74148">
        <ele>292.4</ele>
        <time>2022-06-25T11:48:40Z</time>
      </trkpt>
      <trkpt lat="46.3955" lon="4.74148">
        <ele>292.4</ele>
        <time>2022-06-25T11:48:41Z</time>
      </trkpt>
      <trkpt lat="46.39547" lon="4.74148">
        <ele>292.8</ele>
        <time>2022-06-25T11:48:42Z</time>
      </trkpt>
      <trkpt lat="46.39544" lon="4.74147">
        <ele>292.8</ele>
        <time>2022-06-25T11:48:43Z</time>
      </trkpt>
      <trkpt lat="46.39541" lon="4.74146">
        <ele>293</ele>
        <time>2022-06-25T11:48:44Z</time>
      </trkpt>
      <trkpt lat="46.39539" lon="4.74145">
        <ele>293</ele>
        <time>2022-06-25T11:48:45Z</time>
      </trkpt>
      <trkpt lat="46.39536" lon="4.74143">
        <ele>293</ele>
        <time>2022-06-25T11:48:46Z</time>
      </trkpt>
      <trkpt lat="46.39534" lon="4.7414">
        <ele>293.4</ele>
        <time>2022-06-25T11:48:47Z</time>
      </trkpt>
      <trkpt lat="46.39531" lon="4.74138">
        <ele>293.4</ele>
        <time>2022-06-25T11:48:48Z</time>
      </trkpt>
      <trkpt lat="46.39528" lon="4.74136">
        <ele>293.6</ele>
        <time>2022-06-25T11:48:49Z</time>
      </trkpt>
      <trkpt lat="46.39525" lon="4.74134">
        <ele>293.6</ele>
        <time>2022-06-25T11:48:50Z</time>
      </trkpt>
      <trkpt lat="46.39521" lon="4.74133">
        <ele>293.8</ele>
        <time>2022-06-25T11:48:51Z</time>
      </trkpt>
      <trkpt lat="46.39518" lon="4.74132">
        <ele>293.8</ele>
        <time>2022-06-25T11:48:52Z</time>
      </trkpt>
      <trkpt lat="46.39514" lon="4.74131">
        <ele>294</ele>
        <time>2022-06-25T11:48:53Z</time>
      </trkpt>
      <trkpt lat="46.39511" lon="4.7413">
        <ele>294</ele>
        <time>2022-06-25T11:48:54Z</time>
      </trkpt>
      <trkpt lat="46.39508" lon="4.74128">
        <ele>294.4</ele>
        <time>2022-06-25T11:48:55Z</time>
      </trkpt>
      <trkpt lat="46.39504" lon="4.74128">
        <ele>294.4</ele>
        <time>2022-06-25T11:48:56Z</time>
      </trkpt>
      <trkpt lat="46.39501" lon="4.74127">
        <ele>294.4</ele>
        <time>2022-06-25T11:48:57Z</time>
      </trkpt>
      <trkpt lat="46.39498" lon="4.74126">
        <ele>294.4</ele>
        <time>2022-06-25T11:48:58Z</time>
      </trkpt>
      <trkpt lat="46.39494" lon="4.74125">
        <ele>294.4</ele>
        <time>2022-06-25T11:48:59Z</time>
      </trkpt>
      <trkpt lat="46.39491" lon="4.74124">
        <ele>294.6</ele>
        <time>2022-06-25T11:49:00Z</time>
      </trkpt>
      <trkpt lat="46.39487" lon="4.74122">
        <ele>294.6</ele>
        <time>2022-06-25T11:49:01Z</time>
      </trkpt>
      <trkpt lat="46.39484" lon="4.74121">
        <ele>294.6</ele>
        <time>2022-06-25T11:49:02Z</time>
      </trkpt>
      <trkpt lat="46.3948" lon="4.7412">
        <ele>295</ele>
        <time>2022-06-25T11:49:03Z</time>
      </trkpt>
      <trkpt lat="46.39477" lon="4.74119">
        <ele>295</ele>
        <time>2022-06-25T11:49:04Z</time>
      </trkpt>
      <trkpt lat="46.39473" lon="4.74118">
        <ele>295.2</ele>
        <time>2022-06-25T11:49:05Z</time>
      </trkpt>
      <trkpt lat="46.3947" lon="4.74116">
        <ele>295.2</ele>
        <time>2022-06-25T11:49:06Z</time>
      </trkpt>
      <trkpt lat="46.39465" lon="4.74114">
        <ele>295.6</ele>
        <time>2022-06-25T11:49:07Z</time>
      </trkpt>
      <trkpt lat="46.39463" lon="4.74113">
        <ele>295.6</ele>
        <time>2022-06-25T11:49:08Z</time>
      </trkpt>
      <trkpt lat="46.3946" lon="4.74112">
        <ele>295.8</ele>
        <time>2022-06-25T11:49:09Z</time>
      </trkpt>
      <trkpt lat="46.39457" lon="4.74111">
        <ele>295.8</ele>
        <time>2022-06-25T11:49:10Z</time>
      </trkpt>
      <trkpt lat="46.39453" lon="4.7411">
        <ele>296.2</ele>
        <time>2022-06-25T11:49:11Z</time>
      </trkpt>
      <trkpt lat="46.3945" lon="4.74109">
        <ele>296.2</ele>
        <time>2022-06-25T11:49:12Z</time>
      </trkpt>
      <trkpt lat="46.39447" lon="4.74108">
        <ele>296.4</ele>
        <time>2022-06-25T11:49:13Z</time>
      </trkpt>
      <trkpt lat="46.39443" lon="4.74107">
        <ele>296.4</ele>
        <time>2022-06-25T11:49:14Z</time>
      </trkpt>
      <trkpt lat="46.3944" lon="4.74106">
        <ele>296.4</ele>
        <time>2022-06-25T11:49:15Z</time>
      </trkpt>
      <trkpt lat="46.39436" lon="4.74105">
        <ele>296.8</ele>
        <time>2022-06-25T11:49:16Z</time>
      </trkpt>
      <trkpt lat="46.39433" lon="4.74104">
        <ele>296.8</ele>
        <time>2022-06-25T11:49:17Z</time>
      </trkpt>
      <trkpt lat="46.3943" lon="4.74103">
        <ele>296.8</ele>
        <time>2022-06-25T11:49:18Z</time>
      </trkpt>
      <trkpt lat="46.39426" lon="4.74102">
        <ele>297</ele>
        <time>2022-06-25T11:49:19Z</time>
      </trkpt>
      <trkpt lat="46.39422" lon="4.74101">
        <ele>297</ele>
        <time>2022-06-25T11:49:20Z</time>
      </trkpt>
      <trkpt lat="46.39419" lon="4.741">
        <ele>297.2</ele>
        <time>2022-06-25T11:49:21Z</time>
      </trkpt>
      <trkpt lat="46.39415" lon="4.74099">
        <ele>297.2</ele>
        <time>2022-06-25T11:49:22Z</time>
      </trkpt>
      <trkpt lat="46.39412" lon="4.74098">
        <ele>297.2</ele>
        <time>2022-06-25T11:49:23Z</time>
      </trkpt>
      <trkpt lat="46.39408" lon="4.74097">
        <ele>297.6</ele>
        <time>2022-06-25T11:49:24Z</time>
      </trkpt>
      <trkpt lat="46.39405" lon="4.74096">
        <ele>297.6</ele>
        <time>2022-06-25T11:49:25Z</time>
      </trkpt>
      <trkpt lat="46.39401" lon="4.74094">
        <ele>297.8</ele>
        <time>2022-06-25T11:49:26Z</time>
      </trkpt>
      <trkpt lat="46.39398" lon="4.74093">
        <ele>297.8</ele>
        <time>2022-06-25T11:49:27Z</time>
      </trkpt>
      <trkpt lat="46.39394" lon="4.74091">
        <ele>298.2</ele>
        <time>2022-06-25T11:49:28Z</time>
      </trkpt>
      <trkpt lat="46.39391" lon="4.7409">
        <ele>298.2</ele>
        <time>2022-06-25T11:49:29Z</time>
      </trkpt>
      <trkpt lat="46.39388" lon="4.74088">
        <ele>298.4</ele>
        <time>2022-06-25T11:49:30Z</time>
      </trkpt>
      <trkpt lat="46.39384" lon="4.74087">
        <ele>298.4</ele>
        <time>2022-06-25T11:49:31Z</time>
      </trkpt>
      <trkpt lat="46.39381" lon="4.74086">
        <ele>298.8</ele>
        <time>2022-06-25T11:49:32Z</time>
      </trkpt>
      <trkpt lat="46.39377" lon="4.74085">
        <ele>298.8</ele>
        <time>2022-06-25T11:49:33Z</time>
      </trkpt>
      <trkpt lat="46.39372" lon="4.74084">
        <ele>299</ele>
        <time>2022-06-25T11:49:34Z</time>
      </trkpt>
      <trkpt lat="46.3937" lon="4.74083">
        <ele>299</ele>
        <time>2022-06-25T11:49:35Z</time>
      </trkpt>
      <trkpt lat="46.39366" lon="4.74083">
        <ele>299</ele>
        <time>2022-06-25T11:49:36Z</time>
      </trkpt>
      <trkpt lat="46.39363" lon="4.74082">
        <ele>299.2</ele>
        <time>2022-06-25T11:49:37Z</time>
      </trkpt>
      <trkpt lat="46.39359" lon="4.74081">
        <ele>299.2</ele>
        <time>2022-06-25T11:49:38Z</time>
      </trkpt>
      <trkpt lat="46.39356" lon="4.7408">
        <ele>299.6</ele>
        <time>2022-06-25T11:49:39Z</time>
      </trkpt>
      <trkpt lat="46.39352" lon="4.74079">
        <ele>299.6</ele>
        <time>2022-06-25T11:49:40Z</time>
      </trkpt>
      <trkpt lat="46.39349" lon="4.74078">
        <ele>300</ele>
        <time>2022-06-25T11:49:41Z</time>
      </trkpt>
      <trkpt lat="46.39345" lon="4.74077">
        <ele>300</ele>
        <time>2022-06-25T11:49:42Z</time>
      </trkpt>
      <trkpt lat="46.39341" lon="4.74076">
        <ele>300.4</ele>
        <time>2022-06-25T11:49:43Z</time>
      </trkpt>
      <trkpt lat="46.39337" lon="4.74075">
        <ele>300.4</ele>
        <time>2022-06-25T11:49:44Z</time>
      </trkpt>
      <trkpt lat="46.39333" lon="4.74074">
        <ele>300.6</ele>
        <time>2022-06-25T11:49:45Z</time>
      </trkpt>
      <trkpt lat="46.3933" lon="4.74072">
        <ele>300.6</ele>
        <time>2022-06-25T11:49:46Z</time>
      </trkpt>
      <trkpt lat="46.39326" lon="4.74071">
        <ele>300.6</ele>
        <time>2022-06-25T11:49:47Z</time>
      </trkpt>
      <trkpt lat="46.39322" lon="4.74071">
        <ele>300.8</ele>
        <time>2022-06-25T11:49:48Z</time>
      </trkpt>
      <trkpt lat="46.39318" lon="4.7407">
        <ele>300.8</ele>
        <time>2022-06-25T11:49:49Z</time>
      </trkpt>
      <trkpt lat="46.39314" lon="4.74069">
        <ele>300.8</ele>
        <time>2022-06-25T11:49:50Z</time>
      </trkpt>
      <trkpt lat="46.3931" lon="4.74068">
        <ele>301.2</ele>
        <time>2022-06-25T11:49:51Z</time>
      </trkpt>
      <trkpt lat="46.39306" lon="4.74067">
        <ele>301.2</ele>
        <time>2022-06-25T11:49:52Z</time>
      </trkpt>
      <trkpt lat="46.39302" lon="4.74065">
        <ele>301.2</ele>
        <time>2022-06-25T11:49:53Z</time>
      </trkpt>
      <trkpt lat="46.39298" lon="4.74064">
        <ele>301.4</ele>
        <time>2022-06-25T11:49:54Z</time>
      </trkpt>
      <trkpt lat="46.39294" lon="4.74063">
        <ele>301.4</ele>
        <time>2022-06-25T11:49:55Z</time>
      </trkpt>
      <trkpt lat="46.3929" lon="4.74062">
        <ele>301.4</ele>
        <time>2022-06-25T11:49:56Z</time>
      </trkpt>
      <trkpt lat="46.39286" lon="4.74061">
        <ele>301.6</ele>
        <time>2022-06-25T11:49:57Z</time>
      </trkpt>
      <trkpt lat="46.39281" lon="4.7406">
        <ele>301.6</ele>
        <time>2022-06-25T11:49:58Z</time>
      </trkpt>
      <trkpt lat="46.39277" lon="4.74058">
        <ele>302</ele>
        <time>2022-06-25T11:49:59Z</time>
      </trkpt>
      <trkpt lat="46.39273" lon="4.74057">
        <ele>302</ele>
        <time>2022-06-25T11:50:00Z</time>
      </trkpt>
      <trkpt lat="46.39269" lon="4.74056">
        <ele>302.4</ele>
        <time>2022-06-25T11:50:01Z</time>
      </trkpt>
      <trkpt lat="46.39265" lon="4.74055">
        <ele>302.4</ele>
        <time>2022-06-25T11:50:02Z</time>
      </trkpt>
      <trkpt lat="46.39261" lon="4.74054">
        <ele>302.4</ele>
        <time>2022-06-25T11:50:03Z</time>
      </trkpt>
      <trkpt lat="46.39257" lon="4.74053">
        <ele>302.6</ele>
        <time>2022-06-25T11:50:04Z</time>
      </trkpt>
      <trkpt lat="46.39254" lon="4.74052">
        <ele>302.6</ele>
        <time>2022-06-25T11:50:05Z</time>
      </trkpt>
      <trkpt lat="46.3925" lon="4.74051">
        <ele>302.6</ele>
        <time>2022-06-25T11:50:06Z</time>
      </trkpt>
      <trkpt lat="46.39246" lon="4.7405">
        <ele>303</ele>
        <time>2022-06-25T11:50:07Z</time>
      </trkpt>
      <trkpt lat="46.39242" lon="4.74049">
        <ele>303</ele>
        <time>2022-06-25T11:50:08Z</time>
      </trkpt>
      <trkpt lat="46.39239" lon="4.74048">
        <ele>303.2</ele>
        <time>2022-06-25T11:50:09Z</time>
      </trkpt>
      <trkpt lat="46.39235" lon="4.74047">
        <ele>303.2</ele>
        <time>2022-06-25T11:50:10Z</time>
      </trkpt>
      <trkpt lat="46.39231" lon="4.74047">
        <ele>303.4</ele>
        <time>2022-06-25T11:50:11Z</time>
      </trkpt>
      <trkpt lat="46.39227" lon="4.74045">
        <ele>303.4</ele>
        <time>2022-06-25T11:50:12Z</time>
      </trkpt>
      <trkpt lat="46.39224" lon="4.74044">
        <ele>303.4</ele>
        <time>2022-06-25T11:50:13Z</time>
      </trkpt>
      <trkpt lat="46.3922" lon="4.74042">
        <ele>303.4</ele>
        <time>2022-06-25T11:50:14Z</time>
      </trkpt>
      <trkpt lat="46.39216" lon="4.74041">
        <ele>303.4</ele>
        <time>2022-06-25T11:50:15Z</time>
      </trkpt>
      <trkpt lat="46.39212" lon="4.7404">
        <ele>303.6</ele>
        <time>2022-06-25T11:50:16Z</time>
      </trkpt>
      <trkpt lat="46.39208" lon="4.74039">
        <ele>303.6</ele>
        <time>2022-06-25T11:50:17Z</time>
      </trkpt>
      <trkpt lat="46.39204" lon="4.74038">
        <ele>303.6</ele>
        <time>2022-06-25T11:50:18Z</time>
      </trkpt>
      <trkpt lat="46.392" lon="4.74037">
        <ele>303.6</ele>
        <time>2022-06-25T11:50:19Z</time>
      </trkpt>
      <trkpt lat="46.39196" lon="4.74036">
        <ele>303.8</ele>
        <time>2022-06-25T11:50:20Z</time>
      </trkpt>
      <trkpt lat="46.39192" lon="4.74035">
        <ele>303.8</ele>
        <time>2022-06-25T11:50:21Z</time>
      </trkpt>
      <trkpt lat="46.39188" lon="4.74034">
        <ele>303.8</ele>
        <time>2022-06-25T11:50:22Z</time>
      </trkpt>
      <trkpt lat="46.39184" lon="4.74032">
        <ele>304.2</ele>
        <time>2022-06-25T11:50:23Z</time>
      </trkpt>
      <trkpt lat="46.3918" lon="4.74031">
        <ele>304.2</ele>
        <time>2022-06-25T11:50:24Z</time>
      </trkpt>
      <trkpt lat="46.39176" lon="4.74031">
        <ele>304.2</ele>
        <time>2022-06-25T11:50:25Z</time>
      </trkpt>
      <trkpt lat="46.39173" lon="4.7403">
        <ele>304.4</ele>
        <time>2022-06-25T11:50:26Z</time>
      </trkpt>
      <trkpt lat="46.39169" lon="4.74029">
        <ele>304.4</ele>
        <time>2022-06-25T11:50:27Z</time>
      </trkpt>
      <trkpt lat="46.39165" lon="4.74028">
        <ele>304.8</ele>
        <time>2022-06-25T11:50:28Z</time>
      </trkpt>
      <trkpt lat="46.39157" lon="4.74025">
        <ele>304.8</ele>
        <time>2022-06-25T11:50:29Z</time>
      </trkpt>
      <trkpt lat="46.39154" lon="4.74024">
        <ele>305</ele>
        <time>2022-06-25T11:50:30Z</time>
      </trkpt>
      <trkpt lat="46.3915" lon="4.74023">
        <ele>305</ele>
        <time>2022-06-25T11:50:31Z</time>
      </trkpt>
      <trkpt lat="46.39146" lon="4.74022">
        <ele>305.4</ele>
        <time>2022-06-25T11:50:32Z</time>
      </trkpt>
      <trkpt lat="46.39142" lon="4.74021">
        <ele>305.4</ele>
        <time>2022-06-25T11:50:33Z</time>
      </trkpt>
      <trkpt lat="46.39139" lon="4.74019">
        <ele>305.4</ele>
        <time>2022-06-25T11:50:34Z</time>
      </trkpt>
      <trkpt lat="46.39135" lon="4.74018">
        <ele>305.6</ele>
        <time>2022-06-25T11:50:35Z</time>
      </trkpt>
      <trkpt lat="46.39131" lon="4.74016">
        <ele>305.8</ele>
        <time>2022-06-25T11:50:36Z</time>
      </trkpt>
      <trkpt lat="46.39128" lon="4.74015">
        <ele>305.8</ele>
        <time>2022-06-25T11:50:37Z</time>
      </trkpt>
      <trkpt lat="46.39124" lon="4.74014">
        <ele>305.8</ele>
        <time>2022-06-25T11:50:38Z</time>
      </trkpt>
      <trkpt lat="46.3912" lon="4.74013">
        <ele>306</ele>
        <time>2022-06-25T11:50:39Z</time>
      </trkpt>
      <trkpt lat="46.39117" lon="4.74012">
        <ele>306</ele>
        <time>2022-06-25T11:50:40Z</time>
      </trkpt>
      <trkpt lat="46.39113" lon="4.74011">
        <ele>306.4</ele>
        <time>2022-06-25T11:50:41Z</time>
      </trkpt>
      <trkpt lat="46.39109" lon="4.7401">
        <ele>306.4</ele>
        <time>2022-06-25T11:50:42Z</time>
      </trkpt>
      <trkpt lat="46.39106" lon="4.74009">
        <ele>306.6</ele>
        <time>2022-06-25T11:50:43Z</time>
      </trkpt>
      <trkpt lat="46.39102" lon="4.74008">
        <ele>306.6</ele>
        <time>2022-06-25T11:50:44Z</time>
      </trkpt>
      <trkpt lat="46.39098" lon="4.74006">
        <ele>306.8</ele>
        <time>2022-06-25T11:50:45Z</time>
      </trkpt>
      <trkpt lat="46.39095" lon="4.74005">
        <ele>306.8</ele>
        <time>2022-06-25T11:50:46Z</time>
      </trkpt>
      <trkpt lat="46.39091" lon="4.74003">
        <ele>307.2</ele>
        <time>2022-06-25T11:50:47Z</time>
      </trkpt>
      <trkpt lat="46.39087" lon="4.74002">
        <ele>307.2</ele>
        <time>2022-06-25T11:50:48Z</time>
      </trkpt>
      <trkpt lat="46.39084" lon="4.74001">
        <ele>307.4</ele>
        <time>2022-06-25T11:50:49Z</time>
      </trkpt>
      <trkpt lat="46.3908" lon="4.74">
        <ele>307.4</ele>
        <time>2022-06-25T11:50:50Z</time>
      </trkpt>
      <trkpt lat="46.39076" lon="4.73999">
        <ele>307.4</ele>
        <time>2022-06-25T11:50:51Z</time>
      </trkpt>
      <trkpt lat="46.39073" lon="4.73998">
        <ele>307.8</ele>
        <time>2022-06-25T11:50:52Z</time>
      </trkpt>
      <trkpt lat="46.39069" lon="4.73997">
        <ele>307.8</ele>
        <time>2022-06-25T11:50:53Z</time>
      </trkpt>
      <trkpt lat="46.39066" lon="4.73995">
        <ele>307.8</ele>
        <time>2022-06-25T11:50:54Z</time>
      </trkpt>
      <trkpt lat="46.39062" lon="4.73993">
        <ele>308</ele>
        <time>2022-06-25T11:50:55Z</time>
      </trkpt>
      <trkpt lat="46.39058" lon="4.73992">
        <ele>308</ele>
        <time>2022-06-25T11:50:56Z</time>
      </trkpt>
      <trkpt lat="46.39054" lon="4.73991">
        <ele>308</ele>
        <time>2022-06-25T11:50:57Z</time>
      </trkpt>
      <trkpt lat="46.39051" lon="4.73989">
        <ele>308.4</ele>
        <time>2022-06-25T11:50:58Z</time>
      </trkpt>
      <trkpt lat="46.39047" lon="4.73988">
        <ele>308.4</ele>
        <time>2022-06-25T11:50:59Z</time>
      </trkpt>
      <trkpt lat="46.39043" lon="4.73987">
        <ele>308.6</ele>
        <time>2022-06-25T11:51:00Z</time>
      </trkpt>
      <trkpt lat="46.39039" lon="4.73986">
        <ele>308.8</ele>
        <time>2022-06-25T11:51:01Z</time>
      </trkpt>
      <trkpt lat="46.39036" lon="4.73984">
        <ele>308.8</ele>
        <time>2022-06-25T11:51:02Z</time>
      </trkpt>
      <trkpt lat="46.39032" lon="4.73983">
        <ele>309</ele>
        <time>2022-06-25T11:51:03Z</time>
      </trkpt>
      <trkpt lat="46.39028" lon="4.73982">
        <ele>309</ele>
        <time>2022-06-25T11:51:04Z</time>
      </trkpt>
      <trkpt lat="46.39024" lon="4.73981">
        <ele>309.2</ele>
        <time>2022-06-25T11:51:05Z</time>
      </trkpt>
      <trkpt lat="46.3902" lon="4.73979">
        <ele>309.2</ele>
        <time>2022-06-25T11:51:06Z</time>
      </trkpt>
      <trkpt lat="46.39015" lon="4.73978">
        <ele>309.2</ele>
        <time>2022-06-25T11:51:07Z</time>
      </trkpt>
      <trkpt lat="46.39011" lon="4.73976">
        <ele>309.4</ele>
        <time>2022-06-25T11:51:08Z</time>
      </trkpt>
      <trkpt lat="46.39007" lon="4.73974">
        <ele>309.4</ele>
        <time>2022-06-25T11:51:09Z</time>
      </trkpt>
      <trkpt lat="46.39003" lon="4.73973">
        <ele>309.4</ele>
        <time>2022-06-25T11:51:10Z</time>
      </trkpt>
      <trkpt lat="46.38999" lon="4.73971">
        <ele>309.4</ele>
        <time>2022-06-25T11:51:11Z</time>
      </trkpt>
      <trkpt lat="46.38994" lon="4.7397">
        <ele>309.4</ele>
        <time>2022-06-25T11:51:12Z</time>
      </trkpt>
      <trkpt lat="46.3899" lon="4.73968">
        <ele>309.8</ele>
        <time>2022-06-25T11:51:13Z</time>
      </trkpt>
      <trkpt lat="46.38985" lon="4.73967">
        <ele>309.8</ele>
        <time>2022-06-25T11:51:14Z</time>
      </trkpt>
      <trkpt lat="46.38981" lon="4.73965">
        <ele>309.8</ele>
        <time>2022-06-25T11:51:15Z</time>
      </trkpt>
      <trkpt lat="46.38976" lon="4.73964">
        <ele>309.8</ele>
        <time>2022-06-25T11:51:16Z</time>
      </trkpt>
      <trkpt lat="46.38971" lon="4.73962">
        <ele>309.8</ele>
        <time>2022-06-25T11:51:17Z</time>
      </trkpt>
      <trkpt lat="46.38966" lon="4.7396">
        <ele>309.8</ele>
        <time>2022-06-25T11:51:18Z</time>
      </trkpt>
      <trkpt lat="46.38961" lon="4.73959">
        <ele>309.8</ele>
        <time>2022-06-25T11:51:19Z</time>
      </trkpt>
      <trkpt lat="46.38956" lon="4.73957">
        <ele>309.8</ele>
        <time>2022-06-25T11:51:20Z</time>
      </trkpt>
      <trkpt lat="46.38951" lon="4.73956">
        <ele>309.8</ele>
        <time>2022-06-25T11:51:21Z</time>
      </trkpt>
      <trkpt lat="46.38945" lon="4.73954">
        <ele>309.8</ele>
        <time>2022-06-25T11:51:22Z</time>
      </trkpt>
      <trkpt lat="46.3894" lon="4.73952">
        <ele>309.8</ele>
        <time>2022-06-25T11:51:23Z</time>
      </trkpt>
      <trkpt lat="46.38934" lon="4.7395">
        <ele>309.8</ele>
        <time>2022-06-25T11:51:24Z</time>
      </trkpt>
      <trkpt lat="46.38928" lon="4.73948">
        <ele>309.8</ele>
        <time>2022-06-25T11:51:25Z</time>
      </trkpt>
      <trkpt lat="46.38922" lon="4.73946">
        <ele>309.8</ele>
        <time>2022-06-25T11:51:26Z</time>
      </trkpt>
      <trkpt lat="46.38915" lon="4.73944">
        <ele>309.8</ele>
        <time>2022-06-25T11:51:27Z</time>
      </trkpt>
      <trkpt lat="46.38909" lon="4.73942">
        <ele>309.4</ele>
        <time>2022-06-25T11:51:28Z</time>
      </trkpt>
      <trkpt lat="46.38903" lon="4.7394">
        <ele>309.4</ele>
        <time>2022-06-25T11:51:29Z</time>
      </trkpt>
      <trkpt lat="46.38896" lon="4.73938">
        <ele>309.4</ele>
        <time>2022-06-25T11:51:30Z</time>
      </trkpt>
      <trkpt lat="46.3889" lon="4.73936">
        <ele>309.4</ele>
        <time>2022-06-25T11:51:31Z</time>
      </trkpt>
      <trkpt lat="46.38884" lon="4.73934">
        <ele>309.2</ele>
        <time>2022-06-25T11:51:32Z</time>
      </trkpt>
      <trkpt lat="46.38877" lon="4.73932">
        <ele>309.2</ele>
        <time>2022-06-25T11:51:33Z</time>
      </trkpt>
      <trkpt lat="46.38871" lon="4.73931">
        <ele>309.2</ele>
        <time>2022-06-25T11:51:34Z</time>
      </trkpt>
      <trkpt lat="46.38865" lon="4.73929">
        <ele>309.2</ele>
        <time>2022-06-25T11:51:35Z</time>
      </trkpt>
      <trkpt lat="46.38859" lon="4.73927">
        <ele>309.2</ele>
        <time>2022-06-25T11:51:36Z</time>
      </trkpt>
      <trkpt lat="46.38853" lon="4.73926">
        <ele>309.2</ele>
        <time>2022-06-25T11:51:37Z</time>
      </trkpt>
      <trkpt lat="46.38847" lon="4.73924">
        <ele>309.2</ele>
        <time>2022-06-25T11:51:38Z</time>
      </trkpt>
      <trkpt lat="46.38841" lon="4.73923">
        <ele>309.2</ele>
        <time>2022-06-25T11:51:39Z</time>
      </trkpt>
      <trkpt lat="46.38835" lon="4.73921">
        <ele>309.2</ele>
        <time>2022-06-25T11:51:40Z</time>
      </trkpt>
      <trkpt lat="46.38829" lon="4.7392">
        <ele>309.2</ele>
        <time>2022-06-25T11:51:41Z</time>
      </trkpt>
      <trkpt lat="46.38823" lon="4.73919">
        <ele>309.2</ele>
        <time>2022-06-25T11:51:42Z</time>
      </trkpt>
      <trkpt lat="46.38817" lon="4.73918">
        <ele>309.2</ele>
        <time>2022-06-25T11:51:43Z</time>
      </trkpt>
      <trkpt lat="46.38811" lon="4.73917">
        <ele>309.2</ele>
        <time>2022-06-25T11:51:44Z</time>
      </trkpt>
      <trkpt lat="46.38805" lon="4.73915">
        <ele>309.2</ele>
        <time>2022-06-25T11:51:45Z</time>
      </trkpt>
      <trkpt lat="46.388" lon="4.73914">
        <ele>309.2</ele>
        <time>2022-06-25T11:51:46Z</time>
      </trkpt>
      <trkpt lat="46.38794" lon="4.73913">
        <ele>309.2</ele>
        <time>2022-06-25T11:51:47Z</time>
      </trkpt>
      <trkpt lat="46.38788" lon="4.73912">
        <ele>309.2</ele>
        <time>2022-06-25T11:51:48Z</time>
      </trkpt>
      <trkpt lat="46.38783" lon="4.7391">
        <ele>309.2</ele>
        <time>2022-06-25T11:51:49Z</time>
      </trkpt>
      <trkpt lat="46.38777" lon="4.73909">
        <ele>309.2</ele>
        <time>2022-06-25T11:51:50Z</time>
      </trkpt>
      <trkpt lat="46.38771" lon="4.73908">
        <ele>309</ele>
        <time>2022-06-25T11:51:51Z</time>
      </trkpt>
      <trkpt lat="46.38765" lon="4.73907">
        <ele>309</ele>
        <time>2022-06-25T11:51:52Z</time>
      </trkpt>
      <trkpt lat="46.38759" lon="4.73905">
        <ele>309</ele>
        <time>2022-06-25T11:51:53Z</time>
      </trkpt>
      <trkpt lat="46.38753" lon="4.73904">
        <ele>309</ele>
        <time>2022-06-25T11:51:54Z</time>
      </trkpt>
      <trkpt lat="46.38747" lon="4.73902">
        <ele>309</ele>
        <time>2022-06-25T11:51:55Z</time>
      </trkpt>
      <trkpt lat="46.38741" lon="4.73901">
        <ele>309</ele>
        <time>2022-06-25T11:51:56Z</time>
      </trkpt>
      <trkpt lat="46.38735" lon="4.73899">
        <ele>308.8</ele>
        <time>2022-06-25T11:51:57Z</time>
      </trkpt>
      <trkpt lat="46.38728" lon="4.73898">
        <ele>308.8</ele>
        <time>2022-06-25T11:51:58Z</time>
      </trkpt>
      <trkpt lat="46.38721" lon="4.73897">
        <ele>308.4</ele>
        <time>2022-06-25T11:51:59Z</time>
      </trkpt>
      <trkpt lat="46.38714" lon="4.73895">
        <ele>308.2</ele>
        <time>2022-06-25T11:52:00Z</time>
      </trkpt>
      <trkpt lat="46.38708" lon="4.73893">
        <ele>308</ele>
        <time>2022-06-25T11:52:01Z</time>
      </trkpt>
      <trkpt lat="46.38701" lon="4.73892">
        <ele>307.6</ele>
        <time>2022-06-25T11:52:02Z</time>
      </trkpt>
      <trkpt lat="46.38694" lon="4.7389">
        <ele>307.2</ele>
        <time>2022-06-25T11:52:03Z</time>
      </trkpt>
      <trkpt lat="46.38687" lon="4.73889">
        <ele>307</ele>
        <time>2022-06-25T11:52:04Z</time>
      </trkpt>
      <trkpt lat="46.38681" lon="4.73888">
        <ele>307</ele>
        <time>2022-06-25T11:52:05Z</time>
      </trkpt>
      <trkpt lat="46.38674" lon="4.73887">
        <ele>306.6</ele>
        <time>2022-06-25T11:52:06Z</time>
      </trkpt>
      <trkpt lat="46.38667" lon="4.73886">
        <ele>306.6</ele>
        <time>2022-06-25T11:52:07Z</time>
      </trkpt>
      <trkpt lat="46.3866" lon="4.73885">
        <ele>306.4</ele>
        <time>2022-06-25T11:52:08Z</time>
      </trkpt>
      <trkpt lat="46.38653" lon="4.73884">
        <ele>306.4</ele>
        <time>2022-06-25T11:52:09Z</time>
      </trkpt>
      <trkpt lat="46.38646" lon="4.73884">
        <ele>306.4</ele>
        <time>2022-06-25T11:52:10Z</time>
      </trkpt>
      <trkpt lat="46.3864" lon="4.73883">
        <ele>306.4</ele>
        <time>2022-06-25T11:52:11Z</time>
      </trkpt>
      <trkpt lat="46.38632" lon="4.73883">
        <ele>306</ele>
        <time>2022-06-25T11:52:12Z</time>
      </trkpt>
      <trkpt lat="46.38625" lon="4.73882">
        <ele>306</ele>
        <time>2022-06-25T11:52:13Z</time>
      </trkpt>
      <trkpt lat="46.38618" lon="4.73882">
        <ele>305.6</ele>
        <time>2022-06-25T11:52:14Z</time>
      </trkpt>
      <trkpt lat="46.38611" lon="4.73882">
        <ele>305.6</ele>
        <time>2022-06-25T11:52:15Z</time>
      </trkpt>
      <trkpt lat="46.38604" lon="4.73881">
        <ele>305.2</ele>
        <time>2022-06-25T11:52:16Z</time>
      </trkpt>
      <trkpt lat="46.38597" lon="4.73881">
        <ele>305.2</ele>
        <time>2022-06-25T11:52:17Z</time>
      </trkpt>
      <trkpt lat="46.38589" lon="4.7388">
        <ele>305</ele>
        <time>2022-06-25T11:52:18Z</time>
      </trkpt>
      <trkpt lat="46.38582" lon="4.73878">
        <ele>305</ele>
        <time>2022-06-25T11:52:19Z</time>
      </trkpt>
      <trkpt lat="46.38575" lon="4.73877">
        <ele>304.8</ele>
        <time>2022-06-25T11:52:20Z</time>
      </trkpt>
      <trkpt lat="46.38568" lon="4.73876">
        <ele>304.8</ele>
        <time>2022-06-25T11:52:21Z</time>
      </trkpt>
      <trkpt lat="46.38561" lon="4.73874">
        <ele>304.4</ele>
        <time>2022-06-25T11:52:22Z</time>
      </trkpt>
      <trkpt lat="46.38554" lon="4.73871">
        <ele>304.4</ele>
        <time>2022-06-25T11:52:23Z</time>
      </trkpt>
      <trkpt lat="46.38547" lon="4.73868">
        <ele>304.2</ele>
        <time>2022-06-25T11:52:24Z</time>
      </trkpt>
      <trkpt lat="46.3854" lon="4.73864">
        <ele>303.8</ele>
        <time>2022-06-25T11:52:25Z</time>
      </trkpt>
      <trkpt lat="46.38532" lon="4.7386">
        <ele>303.8</ele>
        <time>2022-06-25T11:52:26Z</time>
      </trkpt>
      <trkpt lat="46.38525" lon="4.73855">
        <ele>303.4</ele>
        <time>2022-06-25T11:52:27Z</time>
      </trkpt>
      <trkpt lat="46.38518" lon="4.73849">
        <ele>303.2</ele>
        <time>2022-06-25T11:52:28Z</time>
      </trkpt>
      <trkpt lat="46.38511" lon="4.73843">
        <ele>303.2</ele>
        <time>2022-06-25T11:52:29Z</time>
      </trkpt>
      <trkpt lat="46.38505" lon="4.73838">
        <ele>302.8</ele>
        <time>2022-06-25T11:52:30Z</time>
      </trkpt>
      <trkpt lat="46.38498" lon="4.73832">
        <ele>302.8</ele>
        <time>2022-06-25T11:52:31Z</time>
      </trkpt>
      <trkpt lat="46.38492" lon="4.73826">
        <ele>302.6</ele>
        <time>2022-06-25T11:52:32Z</time>
      </trkpt>
      <trkpt lat="46.38486" lon="4.7382">
        <ele>302.6</ele>
        <time>2022-06-25T11:52:33Z</time>
      </trkpt>
      <trkpt lat="46.3848" lon="4.73815">
        <ele>302.6</ele>
        <time>2022-06-25T11:52:34Z</time>
      </trkpt>
      <trkpt lat="46.38474" lon="4.73811">
        <ele>302.6</ele>
        <time>2022-06-25T11:52:35Z</time>
      </trkpt>
      <trkpt lat="46.38468" lon="4.73806">
        <ele>302.6</ele>
        <time>2022-06-25T11:52:36Z</time>
      </trkpt>
      <trkpt lat="46.38462" lon="4.73803">
        <ele>302.6</ele>
        <time>2022-06-25T11:52:37Z</time>
      </trkpt>
      <trkpt lat="46.38456" lon="4.73799">
        <ele>302.6</ele>
        <time>2022-06-25T11:52:38Z</time>
      </trkpt>
      <trkpt lat="46.3845" lon="4.73796">
        <ele>302.6</ele>
        <time>2022-06-25T11:52:39Z</time>
      </trkpt>
      <trkpt lat="46.38445" lon="4.73793">
        <ele>302.6</ele>
        <time>2022-06-25T11:52:40Z</time>
      </trkpt>
      <trkpt lat="46.38439" lon="4.7379">
        <ele>302.6</ele>
        <time>2022-06-25T11:52:41Z</time>
      </trkpt>
      <trkpt lat="46.38434" lon="4.73788">
        <ele>302.8</ele>
        <time>2022-06-25T11:52:42Z</time>
      </trkpt>
      <trkpt lat="46.38428" lon="4.73786">
        <ele>302.8</ele>
        <time>2022-06-25T11:52:43Z</time>
      </trkpt>
      <trkpt lat="46.38423" lon="4.73784">
        <ele>303.2</ele>
        <time>2022-06-25T11:52:44Z</time>
      </trkpt>
      <trkpt lat="46.38419" lon="4.73783">
        <ele>303.2</ele>
        <time>2022-06-25T11:52:45Z</time>
      </trkpt>
      <trkpt lat="46.38414" lon="4.73781">
        <ele>303.6</ele>
        <time>2022-06-25T11:52:46Z</time>
      </trkpt>
      <trkpt lat="46.3841" lon="4.7378">
        <ele>303.6</ele>
        <time>2022-06-25T11:52:47Z</time>
      </trkpt>
      <trkpt lat="46.38406" lon="4.73778">
        <ele>303.8</ele>
        <time>2022-06-25T11:52:48Z</time>
      </trkpt>
      <trkpt lat="46.38401" lon="4.73776">
        <ele>304</ele>
        <time>2022-06-25T11:52:49Z</time>
      </trkpt>
      <trkpt lat="46.38397" lon="4.73774">
        <ele>304.4</ele>
        <time>2022-06-25T11:52:50Z</time>
      </trkpt>
      <trkpt lat="46.38393" lon="4.73773">
        <ele>304.6</ele>
        <time>2022-06-25T11:52:51Z</time>
      </trkpt>
      <trkpt lat="46.38389" lon="4.73772">
        <ele>305</ele>
        <time>2022-06-25T11:52:52Z</time>
      </trkpt>
      <trkpt lat="46.38385" lon="4.7377">
        <ele>305.4</ele>
        <time>2022-06-25T11:52:53Z</time>
      </trkpt>
      <trkpt lat="46.38382" lon="4.73769">
        <ele>305.4</ele>
        <time>2022-06-25T11:52:54Z</time>
      </trkpt>
      <trkpt lat="46.38378" lon="4.73768">
        <ele>305.6</ele>
        <time>2022-06-25T11:52:55Z</time>
      </trkpt>
      <trkpt lat="46.38374" lon="4.73767">
        <ele>305.8</ele>
        <time>2022-06-25T11:52:56Z</time>
      </trkpt>
      <trkpt lat="46.38371" lon="4.73766">
        <ele>306</ele>
        <time>2022-06-25T11:52:57Z</time>
      </trkpt>
      <trkpt lat="46.38367" lon="4.73764">
        <ele>306.4</ele>
        <time>2022-06-25T11:52:58Z</time>
      </trkpt>
      <trkpt lat="46.38363" lon="4.73763">
        <ele>306.6</ele>
        <time>2022-06-25T11:52:59Z</time>
      </trkpt>
      <trkpt lat="46.3836" lon="4.73761">
        <ele>306.8</ele>
        <time>2022-06-25T11:53:00Z</time>
      </trkpt>
      <trkpt lat="46.38356" lon="4.7376">
        <ele>307.2</ele>
        <time>2022-06-25T11:53:01Z</time>
      </trkpt>
      <trkpt lat="46.38352" lon="4.73759">
        <ele>307.2</ele>
        <time>2022-06-25T11:53:02Z</time>
      </trkpt>
      <trkpt lat="46.38348" lon="4.73758">
        <ele>307.6</ele>
        <time>2022-06-25T11:53:03Z</time>
      </trkpt>
      <trkpt lat="46.38345" lon="4.73756">
        <ele>307.8</ele>
        <time>2022-06-25T11:53:04Z</time>
      </trkpt>
      <trkpt lat="46.38341" lon="4.73755">
        <ele>307.8</ele>
        <time>2022-06-25T11:53:05Z</time>
      </trkpt>
      <trkpt lat="46.38337" lon="4.73754">
        <ele>308.4</ele>
        <time>2022-06-25T11:53:06Z</time>
      </trkpt>
      <trkpt lat="46.38334" lon="4.73752">
        <ele>308.6</ele>
        <time>2022-06-25T11:53:07Z</time>
      </trkpt>
      <trkpt lat="46.3833" lon="4.73751">
        <ele>308.8</ele>
        <time>2022-06-25T11:53:08Z</time>
      </trkpt>
      <trkpt lat="46.38326" lon="4.73749">
        <ele>308.8</ele>
        <time>2022-06-25T11:53:09Z</time>
      </trkpt>
      <trkpt lat="46.38322" lon="4.73747">
        <ele>309.2</ele>
        <time>2022-06-25T11:53:10Z</time>
      </trkpt>
      <trkpt lat="46.38319" lon="4.73745">
        <ele>309.2</ele>
        <time>2022-06-25T11:53:11Z</time>
      </trkpt>
      <trkpt lat="46.38315" lon="4.73743">
        <ele>309.4</ele>
        <time>2022-06-25T11:53:12Z</time>
      </trkpt>
      <trkpt lat="46.38311" lon="4.73742">
        <ele>309.4</ele>
        <time>2022-06-25T11:53:13Z</time>
      </trkpt>
      <trkpt lat="46.38308" lon="4.7374">
        <ele>309.8</ele>
        <time>2022-06-25T11:53:14Z</time>
      </trkpt>
      <trkpt lat="46.38304" lon="4.73738">
        <ele>309.8</ele>
        <time>2022-06-25T11:53:15Z</time>
      </trkpt>
      <trkpt lat="46.38301" lon="4.73735">
        <ele>310.2</ele>
        <time>2022-06-25T11:53:16Z</time>
      </trkpt>
      <trkpt lat="46.38297" lon="4.73733">
        <ele>310.2</ele>
        <time>2022-06-25T11:53:17Z</time>
      </trkpt>
      <trkpt lat="46.38294" lon="4.73731">
        <ele>310.6</ele>
        <time>2022-06-25T11:53:18Z</time>
      </trkpt>
      <trkpt lat="46.3829" lon="4.73729">
        <ele>310.6</ele>
        <time>2022-06-25T11:53:19Z</time>
      </trkpt>
      <trkpt lat="46.38287" lon="4.73726">
        <ele>310.8</ele>
        <time>2022-06-25T11:53:20Z</time>
      </trkpt>
      <trkpt lat="46.38283" lon="4.73724">
        <ele>310.8</ele>
        <time>2022-06-25T11:53:21Z</time>
      </trkpt>
      <trkpt lat="46.3828" lon="4.73722">
        <ele>310.8</ele>
        <time>2022-06-25T11:53:22Z</time>
      </trkpt>
      <trkpt lat="46.38276" lon="4.7372">
        <ele>311</ele>
        <time>2022-06-25T11:53:23Z</time>
      </trkpt>
      <trkpt lat="46.38273" lon="4.73717">
        <ele>311</ele>
        <time>2022-06-25T11:53:24Z</time>
      </trkpt>
      <trkpt lat="46.38269" lon="4.73715">
        <ele>311</ele>
        <time>2022-06-25T11:53:25Z</time>
      </trkpt>
      <trkpt lat="46.38266" lon="4.73712">
        <ele>311.4</ele>
        <time>2022-06-25T11:53:26Z</time>
      </trkpt>
      <trkpt lat="46.38262" lon="4.7371">
        <ele>311.4</ele>
        <time>2022-06-25T11:53:27Z</time>
      </trkpt>
      <trkpt lat="46.38257" lon="4.73707">
        <ele>311.4</ele>
        <time>2022-06-25T11:53:28Z</time>
      </trkpt>
      <trkpt lat="46.38253" lon="4.73705">
        <ele>311.6</ele>
        <time>2022-06-25T11:53:29Z</time>
      </trkpt>
      <trkpt lat="46.38249" lon="4.73702">
        <ele>311.8</ele>
        <time>2022-06-25T11:53:30Z</time>
      </trkpt>
      <trkpt lat="46.38244" lon="4.737">
        <ele>311.8</ele>
        <time>2022-06-25T11:53:31Z</time>
      </trkpt>
      <trkpt lat="46.3824" lon="4.73697">
        <ele>311.8</ele>
        <time>2022-06-25T11:53:32Z</time>
      </trkpt>
      <trkpt lat="46.38235" lon="4.73695">
        <ele>311.8</ele>
        <time>2022-06-25T11:53:33Z</time>
      </trkpt>
      <trkpt lat="46.3823" lon="4.73693">
        <ele>311.8</ele>
        <time>2022-06-25T11:53:34Z</time>
      </trkpt>
      <trkpt lat="46.38225" lon="4.73691">
        <ele>311.8</ele>
        <time>2022-06-25T11:53:35Z</time>
      </trkpt>
      <trkpt lat="46.3822" lon="4.73689">
        <ele>311.8</ele>
        <time>2022-06-25T11:53:36Z</time>
      </trkpt>
      <trkpt lat="46.38215" lon="4.73687">
        <ele>311.8</ele>
        <time>2022-06-25T11:53:37Z</time>
      </trkpt>
      <trkpt lat="46.3821" lon="4.73686">
        <ele>311.8</ele>
        <time>2022-06-25T11:53:38Z</time>
      </trkpt>
      <trkpt lat="46.38205" lon="4.73684">
        <ele>311.8</ele>
        <time>2022-06-25T11:53:39Z</time>
      </trkpt>
      <trkpt lat="46.38199" lon="4.73683">
        <ele>311.8</ele>
        <time>2022-06-25T11:53:40Z</time>
      </trkpt>
      <trkpt lat="46.38194" lon="4.73681">
        <ele>311.8</ele>
        <time>2022-06-25T11:53:41Z</time>
      </trkpt>
      <trkpt lat="46.38188" lon="4.7368">
        <ele>311.8</ele>
        <time>2022-06-25T11:53:42Z</time>
      </trkpt>
      <trkpt lat="46.38182" lon="4.73678">
        <ele>311.8</ele>
        <time>2022-06-25T11:53:43Z</time>
      </trkpt>
      <trkpt lat="46.38176" lon="4.73676">
        <ele>311.8</ele>
        <time>2022-06-25T11:53:44Z</time>
      </trkpt>
      <trkpt lat="46.3817" lon="4.73674">
        <ele>311.8</ele>
        <time>2022-06-25T11:53:45Z</time>
      </trkpt>
      <trkpt lat="46.38164" lon="4.73672">
        <ele>311.8</ele>
        <time>2022-06-25T11:53:46Z</time>
      </trkpt>
      <trkpt lat="46.38158" lon="4.73671">
        <ele>311.6</ele>
        <time>2022-06-25T11:53:47Z</time>
      </trkpt>
      <trkpt lat="46.38152" lon="4.73669">
        <ele>311.6</ele>
        <time>2022-06-25T11:53:48Z</time>
      </trkpt>
      <trkpt lat="46.38145" lon="4.73667">
        <ele>311.6</ele>
        <time>2022-06-25T11:53:49Z</time>
      </trkpt>
      <trkpt lat="46.38139" lon="4.73665">
        <ele>311.6</ele>
        <time>2022-06-25T11:53:50Z</time>
      </trkpt>
      <trkpt lat="46.38133" lon="4.73663">
        <ele>311.6</ele>
        <time>2022-06-25T11:53:51Z</time>
      </trkpt>
      <trkpt lat="46.38127" lon="4.73661">
        <ele>311.6</ele>
        <time>2022-06-25T11:53:52Z</time>
      </trkpt>
      <trkpt lat="46.38121" lon="4.73659">
        <ele>311.6</ele>
        <time>2022-06-25T11:53:53Z</time>
      </trkpt>
      <trkpt lat="46.38114" lon="4.73657">
        <ele>311.2</ele>
        <time>2022-06-25T11:53:54Z</time>
      </trkpt>
      <trkpt lat="46.38108" lon="4.73656">
        <ele>311.2</ele>
        <time>2022-06-25T11:53:55Z</time>
      </trkpt>
      <trkpt lat="46.38102" lon="4.73654">
        <ele>311.2</ele>
        <time>2022-06-25T11:53:56Z</time>
      </trkpt>
      <trkpt lat="46.38095" lon="4.73652">
        <ele>311</ele>
        <time>2022-06-25T11:53:57Z</time>
      </trkpt>
      <trkpt lat="46.38089" lon="4.7365">
        <ele>311</ele>
        <time>2022-06-25T11:53:58Z</time>
      </trkpt>
      <trkpt lat="46.38082" lon="4.73648">
        <ele>310.8</ele>
        <time>2022-06-25T11:53:59Z</time>
      </trkpt>
      <trkpt lat="46.38076" lon="4.73646">
        <ele>310.8</ele>
        <time>2022-06-25T11:54:00Z</time>
      </trkpt>
      <trkpt lat="46.38069" lon="4.73643">
        <ele>310.4</ele>
        <time>2022-06-25T11:54:01Z</time>
      </trkpt>
      <trkpt lat="46.38062" lon="4.73641">
        <ele>310.4</ele>
        <time>2022-06-25T11:54:02Z</time>
      </trkpt>
      <trkpt lat="46.38055" lon="4.73639">
        <ele>310.2</ele>
        <time>2022-06-25T11:54:03Z</time>
      </trkpt>
      <trkpt lat="46.38048" lon="4.73636">
        <ele>310.2</ele>
        <time>2022-06-25T11:54:04Z</time>
      </trkpt>
      <trkpt lat="46.38041" lon="4.73634">
        <ele>310</ele>
        <time>2022-06-25T11:54:05Z</time>
      </trkpt>
      <trkpt lat="46.38034" lon="4.73633">
        <ele>310</ele>
        <time>2022-06-25T11:54:06Z</time>
      </trkpt>
      <trkpt lat="46.38026" lon="4.73632">
        <ele>309.6</ele>
        <time>2022-06-25T11:54:07Z</time>
      </trkpt>
      <trkpt lat="46.38019" lon="4.73631">
        <ele>309.2</ele>
        <time>2022-06-25T11:54:08Z</time>
      </trkpt>
      <trkpt lat="46.38011" lon="4.7363">
        <ele>309</ele>
        <time>2022-06-25T11:54:09Z</time>
      </trkpt>
      <trkpt lat="46.38003" lon="4.7363">
        <ele>308.6</ele>
        <time>2022-06-25T11:54:10Z</time>
      </trkpt>
      <trkpt lat="46.37995" lon="4.7363">
        <ele>308.6</ele>
        <time>2022-06-25T11:54:11Z</time>
      </trkpt>
      <trkpt lat="46.37986" lon="4.73631">
        <ele>308</ele>
        <time>2022-06-25T11:54:12Z</time>
      </trkpt>
      <trkpt lat="46.37978" lon="4.73631">
        <ele>307.6</ele>
        <time>2022-06-25T11:54:13Z</time>
      </trkpt>
      <trkpt lat="46.37969" lon="4.73631">
        <ele>307.2</ele>
        <time>2022-06-25T11:54:14Z</time>
      </trkpt>
      <trkpt lat="46.3796" lon="4.7363">
        <ele>306.6</ele>
        <time>2022-06-25T11:54:15Z</time>
      </trkpt>
      <trkpt lat="46.37951" lon="4.73628">
        <ele>306</ele>
        <time>2022-06-25T11:54:16Z</time>
      </trkpt>
      <trkpt lat="46.37943" lon="4.73625">
        <ele>305.2</ele>
        <time>2022-06-25T11:54:17Z</time>
      </trkpt>
      <trkpt lat="46.37935" lon="4.73623">
        <ele>304.6</ele>
        <time>2022-06-25T11:54:18Z</time>
      </trkpt>
      <trkpt lat="46.37927" lon="4.7362">
        <ele>304</ele>
        <time>2022-06-25T11:54:19Z</time>
      </trkpt>
      <trkpt lat="46.37919" lon="4.73618">
        <ele>303.4</ele>
        <time>2022-06-25T11:54:20Z</time>
      </trkpt>
      <trkpt lat="46.37911" lon="4.73615">
        <ele>302.8</ele>
        <time>2022-06-25T11:54:21Z</time>
      </trkpt>
      <trkpt lat="46.37903" lon="4.73613">
        <ele>302.4</ele>
        <time>2022-06-25T11:54:22Z</time>
      </trkpt>
      <trkpt lat="46.37895" lon="4.7361">
        <ele>302</ele>
        <time>2022-06-25T11:54:23Z</time>
      </trkpt>
      <trkpt lat="46.37887" lon="4.73608">
        <ele>301.6</ele>
        <time>2022-06-25T11:54:24Z</time>
      </trkpt>
      <trkpt lat="46.37878" lon="4.73606">
        <ele>301.2</ele>
        <time>2022-06-25T11:54:25Z</time>
      </trkpt>
      <trkpt lat="46.3787" lon="4.73605">
        <ele>300.8</ele>
        <time>2022-06-25T11:54:26Z</time>
      </trkpt>
      <trkpt lat="46.37862" lon="4.73604">
        <ele>300.4</ele>
        <time>2022-06-25T11:54:27Z</time>
      </trkpt>
      <trkpt lat="46.37854" lon="4.73603">
        <ele>300.2</ele>
        <time>2022-06-25T11:54:28Z</time>
      </trkpt>
      <trkpt lat="46.37847" lon="4.73604">
        <ele>300</ele>
        <time>2022-06-25T11:54:30Z</time>
      </trkpt>
      <trkpt lat="46.3784" lon="4.73607">
        <ele>299.8</ele>
        <time>2022-06-25T11:54:31Z</time>
      </trkpt>
      <trkpt lat="46.37834" lon="4.73612">
        <ele>299.8</ele>
        <time>2022-06-25T11:54:32Z</time>
      </trkpt>
      <trkpt lat="46.37828" lon="4.73618">
        <ele>299.6</ele>
        <time>2022-06-25T11:54:33Z</time>
      </trkpt>
      <trkpt lat="46.37822" lon="4.73623">
        <ele>299.6</ele>
        <time>2022-06-25T11:54:34Z</time>
      </trkpt>
      <trkpt lat="46.37816" lon="4.73628">
        <ele>299.4</ele>
        <time>2022-06-25T11:54:35Z</time>
      </trkpt>
      <trkpt lat="46.3781" lon="4.73632">
        <ele>299.4</ele>
        <time>2022-06-25T11:54:36Z</time>
      </trkpt>
      <trkpt lat="46.37804" lon="4.73636">
        <ele>299.4</ele>
        <time>2022-06-25T11:54:37Z</time>
      </trkpt>
      <trkpt lat="46.37798" lon="4.73638">
        <ele>299</ele>
        <time>2022-06-25T11:54:38Z</time>
      </trkpt>
      <trkpt lat="46.37792" lon="4.73638">
        <ele>299</ele>
        <time>2022-06-25T11:54:39Z</time>
      </trkpt>
      <trkpt lat="46.37786" lon="4.73638">
        <ele>299</ele>
        <time>2022-06-25T11:54:40Z</time>
      </trkpt>
      <trkpt lat="46.37781" lon="4.73636">
        <ele>299</ele>
        <time>2022-06-25T11:54:41Z</time>
      </trkpt>
      <trkpt lat="46.37776" lon="4.73635">
        <ele>298.8</ele>
        <time>2022-06-25T11:54:42Z</time>
      </trkpt>
      <trkpt lat="46.37772" lon="4.73633">
        <ele>298.8</ele>
        <time>2022-06-25T11:54:43Z</time>
      </trkpt>
      <trkpt lat="46.37768" lon="4.73632">
        <ele>298.8</ele>
        <time>2022-06-25T11:54:44Z</time>
      </trkpt>
      <trkpt lat="46.37765" lon="4.73631">
        <ele>298.8</ele>
        <time>2022-06-25T11:54:45Z</time>
      </trkpt>
      <trkpt lat="46.37762" lon="4.7363">
        <ele>298.8</ele>
        <time>2022-06-25T11:54:46Z</time>
      </trkpt>
      <trkpt lat="46.3776" lon="4.7363">
        <ele>298.8</ele>
        <time>2022-06-25T11:54:47Z</time>
      </trkpt>
      <trkpt lat="46.37757" lon="4.73631">
        <ele>298.8</ele>
        <time>2022-06-25T11:54:48Z</time>
      </trkpt>
      <trkpt lat="46.37755" lon="4.73632">
        <ele>298.8</ele>
        <time>2022-06-25T11:54:49Z</time>
      </trkpt>
      <trkpt lat="46.37753" lon="4.73634">
        <ele>298.8</ele>
        <time>2022-06-25T11:54:50Z</time>
      </trkpt>
      <trkpt lat="46.37752" lon="4.73635">
        <ele>298.8</ele>
        <time>2022-06-25T11:54:51Z</time>
      </trkpt>
      <trkpt lat="46.37751" lon="4.73637">
        <ele>298.8</ele>
        <time>2022-06-25T11:54:52Z</time>
      </trkpt>
      <trkpt lat="46.37749" lon="4.73639">
        <ele>298.8</ele>
        <time>2022-06-25T11:54:53Z</time>
      </trkpt>
      <trkpt lat="46.37748" lon="4.7364">
        <ele>298.8</ele>
        <time>2022-06-25T11:54:54Z</time>
      </trkpt>
      <trkpt lat="46.37747" lon="4.73641">
        <ele>298.8</ele>
        <time>2022-06-25T11:54:55Z</time>
      </trkpt>
      <trkpt lat="46.37747" lon="4.73641">
        <ele>298.8</ele>
        <time>2022-06-25T11:54:57Z</time>
      </trkpt>
      <trkpt lat="46.37749" lon="4.73643">
        <ele>298.2</ele>
        <time>2022-06-25T11:55:31Z</time>
      </trkpt>
      <trkpt lat="46.3775" lon="4.73644">
        <ele>298.2</ele>
        <time>2022-06-25T11:55:32Z</time>
      </trkpt>
      <trkpt lat="46.37752" lon="4.73643">
        <ele>298.2</ele>
        <time>2022-06-25T11:55:33Z</time>
      </trkpt>
      <trkpt lat="46.37754" lon="4.7364">
        <ele>298.2</ele>
        <time>2022-06-25T11:55:34Z</time>
      </trkpt>
      <trkpt lat="46.37755" lon="4.73637">
        <ele>298.2</ele>
        <time>2022-06-25T11:55:35Z</time>
      </trkpt>
      <trkpt lat="46.37757" lon="4.73634">
        <ele>298.2</ele>
        <time>2022-06-25T11:55:36Z</time>
      </trkpt>
      <trkpt lat="46.37759" lon="4.73631">
        <ele>298.2</ele>
        <time>2022-06-25T11:55:37Z</time>
      </trkpt>
      <trkpt lat="46.3776" lon="4.73627">
        <ele>298.2</ele>
        <time>2022-06-25T11:55:38Z</time>
      </trkpt>
      <trkpt lat="46.37761" lon="4.73623">
        <ele>298.2</ele>
        <time>2022-06-25T11:55:39Z</time>
      </trkpt>
      <trkpt lat="46.37763" lon="4.73619">
        <ele>298.2</ele>
        <time>2022-06-25T11:55:40Z</time>
      </trkpt>
      <trkpt lat="46.37764" lon="4.73615">
        <ele>298.2</ele>
        <time>2022-06-25T11:55:41Z</time>
      </trkpt>
      <trkpt lat="46.37764" lon="4.7361">
        <ele>298.2</ele>
        <time>2022-06-25T11:55:42Z</time>
      </trkpt>
      <trkpt lat="46.37765" lon="4.73606">
        <ele>298.4</ele>
        <time>2022-06-25T11:55:43Z</time>
      </trkpt>
      <trkpt lat="46.37766" lon="4.73601">
        <ele>298.4</ele>
        <time>2022-06-25T11:55:44Z</time>
      </trkpt>
      <trkpt lat="46.37766" lon="4.73597">
        <ele>298.4</ele>
        <time>2022-06-25T11:55:45Z</time>
      </trkpt>
      <trkpt lat="46.37767" lon="4.73593">
        <ele>298.4</ele>
        <time>2022-06-25T11:55:46Z</time>
      </trkpt>
      <trkpt lat="46.37768" lon="4.73589">
        <ele>298.4</ele>
        <time>2022-06-25T11:55:47Z</time>
      </trkpt>
      <trkpt lat="46.37769" lon="4.73585">
        <ele>298.8</ele>
        <time>2022-06-25T11:55:48Z</time>
      </trkpt>
      <trkpt lat="46.37769" lon="4.7358">
        <ele>298.8</ele>
        <time>2022-06-25T11:55:49Z</time>
      </trkpt>
      <trkpt lat="46.37769" lon="4.73576">
        <ele>298.8</ele>
        <time>2022-06-25T11:55:50Z</time>
      </trkpt>
      <trkpt lat="46.37769" lon="4.73573">
        <ele>298.8</ele>
        <time>2022-06-25T11:55:51Z</time>
      </trkpt>
      <trkpt lat="46.37768" lon="4.73569">
        <ele>299</ele>
        <time>2022-06-25T11:55:52Z</time>
      </trkpt>
      <trkpt lat="46.37768" lon="4.73566">
        <ele>299</ele>
        <time>2022-06-25T11:55:53Z</time>
      </trkpt>
      <trkpt lat="46.37767" lon="4.73562">
        <ele>299</ele>
        <time>2022-06-25T11:55:54Z</time>
      </trkpt>
      <trkpt lat="46.37766" lon="4.73559">
        <ele>299</ele>
        <time>2022-06-25T11:55:55Z</time>
      </trkpt>
      <trkpt lat="46.37764" lon="4.73556">
        <ele>299</ele>
        <time>2022-06-25T11:55:56Z</time>
      </trkpt>
      <trkpt lat="46.37762" lon="4.73554">
        <ele>299.2</ele>
        <time>2022-06-25T11:55:57Z</time>
      </trkpt>
      <trkpt lat="46.3776" lon="4.73552">
        <ele>299.2</ele>
        <time>2022-06-25T11:55:58Z</time>
      </trkpt>
      <trkpt lat="46.37757" lon="4.73551">
        <ele>299.2</ele>
        <time>2022-06-25T11:55:59Z</time>
      </trkpt>
      <trkpt lat="46.37755" lon="4.7355">
        <ele>299.4</ele>
        <time>2022-06-25T11:56:00Z</time>
      </trkpt>
      <trkpt lat="46.37753" lon="4.73549">
        <ele>299.4</ele>
        <time>2022-06-25T11:56:01Z</time>
      </trkpt>
      <trkpt lat="46.37751" lon="4.73549">
        <ele>299.8</ele>
        <time>2022-06-25T11:56:02Z</time>
      </trkpt>
      <trkpt lat="46.37749" lon="4.73549">
        <ele>300</ele>
        <time>2022-06-25T11:56:03Z</time>
      </trkpt>
      <trkpt lat="46.37747" lon="4.7355">
        <ele>300</ele>
        <time>2022-06-25T11:56:04Z</time>
      </trkpt>
      <trkpt lat="46.37744" lon="4.73551">
        <ele>300.4</ele>
        <time>2022-06-25T11:56:05Z</time>
      </trkpt>
      <trkpt lat="46.37742" lon="4.73552">
        <ele>300.6</ele>
        <time>2022-06-25T11:56:06Z</time>
      </trkpt>
      <trkpt lat="46.3774" lon="4.73552">
        <ele>300.6</ele>
        <time>2022-06-25T11:56:07Z</time>
      </trkpt>
      <trkpt lat="46.37738" lon="4.73553">
        <ele>300.6</ele>
        <time>2022-06-25T11:56:08Z</time>
      </trkpt>
      <trkpt lat="46.37736" lon="4.73553">
        <ele>301</ele>
        <time>2022-06-25T11:56:09Z</time>
      </trkpt>
      <trkpt lat="46.37733" lon="4.73553">
        <ele>301</ele>
        <time>2022-06-25T11:56:10Z</time>
      </trkpt>
      <trkpt lat="46.37731" lon="4.73554">
        <ele>301.2</ele>
        <time>2022-06-25T11:56:11Z</time>
      </trkpt>
      <trkpt lat="46.37728" lon="4.73555">
        <ele>301.2</ele>
        <time>2022-06-25T11:56:12Z</time>
      </trkpt>
      <trkpt lat="46.37726" lon="4.73555">
        <ele>301.4</ele>
        <time>2022-06-25T11:56:13Z</time>
      </trkpt>
      <trkpt lat="46.37723" lon="4.73555">
        <ele>301.4</ele>
        <time>2022-06-25T11:56:14Z</time>
      </trkpt>
      <trkpt lat="46.37721" lon="4.73555">
        <ele>301.8</ele>
        <time>2022-06-25T11:56:15Z</time>
      </trkpt>
      <trkpt lat="46.37719" lon="4.73555">
        <ele>302</ele>
        <time>2022-06-25T11:56:16Z</time>
      </trkpt>
      <trkpt lat="46.37716" lon="4.73556">
        <ele>302</ele>
        <time>2022-06-25T11:56:17Z</time>
      </trkpt>
      <trkpt lat="46.37714" lon="4.73556">
        <ele>302.2</ele>
        <time>2022-06-25T11:56:18Z</time>
      </trkpt>
      <trkpt lat="46.37711" lon="4.73557">
        <ele>302.2</ele>
        <time>2022-06-25T11:56:19Z</time>
      </trkpt>
      <trkpt lat="46.37708" lon="4.73557">
        <ele>302.2</ele>
        <time>2022-06-25T11:56:20Z</time>
      </trkpt>
      <trkpt lat="46.37706" lon="4.73557">
        <ele>302.4</ele>
        <time>2022-06-25T11:56:21Z</time>
      </trkpt>
      <trkpt lat="46.37703" lon="4.73556">
        <ele>302.4</ele>
        <time>2022-06-25T11:56:22Z</time>
      </trkpt>
      <trkpt lat="46.37701" lon="4.73554">
        <ele>302.6</ele>
        <time>2022-06-25T11:56:23Z</time>
      </trkpt>
      <trkpt lat="46.37699" lon="4.73552">
        <ele>302.6</ele>
        <time>2022-06-25T11:56:24Z</time>
      </trkpt>
      <trkpt lat="46.37697" lon="4.7355">
        <ele>303</ele>
        <time>2022-06-25T11:56:25Z</time>
      </trkpt>
      <trkpt lat="46.37695" lon="4.73548">
        <ele>303</ele>
        <time>2022-06-25T11:56:26Z</time>
      </trkpt>
      <trkpt lat="46.37694" lon="4.73545">
        <ele>303</ele>
        <time>2022-06-25T11:56:27Z</time>
      </trkpt>
      <trkpt lat="46.37692" lon="4.73542">
        <ele>303.4</ele>
        <time>2022-06-25T11:56:28Z</time>
      </trkpt>
      <trkpt lat="46.3769" lon="4.73539">
        <ele>303.4</ele>
        <time>2022-06-25T11:56:29Z</time>
      </trkpt>
      <trkpt lat="46.37689" lon="4.73536">
        <ele>303.4</ele>
        <time>2022-06-25T11:56:30Z</time>
      </trkpt>
      <trkpt lat="46.37687" lon="4.73533">
        <ele>303.6</ele>
        <time>2022-06-25T11:56:31Z</time>
      </trkpt>
      <trkpt lat="46.37685" lon="4.7353">
        <ele>303.6</ele>
        <time>2022-06-25T11:56:32Z</time>
      </trkpt>
      <trkpt lat="46.37683" lon="4.73526">
        <ele>303.6</ele>
        <time>2022-06-25T11:56:33Z</time>
      </trkpt>
      <trkpt lat="46.37681" lon="4.73523">
        <ele>303.6</ele>
        <time>2022-06-25T11:56:34Z</time>
      </trkpt>
      <trkpt lat="46.37679" lon="4.7352">
        <ele>303.8</ele>
        <time>2022-06-25T11:56:35Z</time>
      </trkpt>
      <trkpt lat="46.37676" lon="4.73517">
        <ele>303.8</ele>
        <time>2022-06-25T11:56:36Z</time>
      </trkpt>
      <trkpt lat="46.37674" lon="4.73515">
        <ele>304</ele>
        <time>2022-06-25T11:56:37Z</time>
      </trkpt>
      <trkpt lat="46.37672" lon="4.73512">
        <ele>304</ele>
        <time>2022-06-25T11:56:38Z</time>
      </trkpt>
      <trkpt lat="46.37669" lon="4.73509">
        <ele>304.4</ele>
        <time>2022-06-25T11:56:39Z</time>
      </trkpt>
      <trkpt lat="46.37666" lon="4.73506">
        <ele>304.4</ele>
        <time>2022-06-25T11:56:40Z</time>
      </trkpt>
      <trkpt lat="46.37663" lon="4.73503">
        <ele>304.6</ele>
        <time>2022-06-25T11:56:41Z</time>
      </trkpt>
      <trkpt lat="46.3766" lon="4.735">
        <ele>304.6</ele>
        <time>2022-06-25T11:56:42Z</time>
      </trkpt>
      <trkpt lat="46.37658" lon="4.73498">
        <ele>304.6</ele>
        <time>2022-06-25T11:56:43Z</time>
      </trkpt>
      <trkpt lat="46.37655" lon="4.73495">
        <ele>304.6</ele>
        <time>2022-06-25T11:56:44Z</time>
      </trkpt>
      <trkpt lat="46.37653" lon="4.73493">
        <ele>305</ele>
        <time>2022-06-25T11:56:45Z</time>
      </trkpt>
      <trkpt lat="46.3765" lon="4.7349">
        <ele>305.2</ele>
        <time>2022-06-25T11:56:46Z</time>
      </trkpt>
      <trkpt lat="46.37648" lon="4.73488">
        <ele>305.2</ele>
        <time>2022-06-25T11:56:47Z</time>
      </trkpt>
      <trkpt lat="46.37645" lon="4.73486">
        <ele>305.6</ele>
        <time>2022-06-25T11:56:48Z</time>
      </trkpt>
      <trkpt lat="46.37642" lon="4.73484">
        <ele>305.6</ele>
        <time>2022-06-25T11:56:49Z</time>
      </trkpt>
      <trkpt lat="46.3764" lon="4.73482">
        <ele>305.8</ele>
        <time>2022-06-25T11:56:50Z</time>
      </trkpt>
      <trkpt lat="46.37637" lon="4.73481">
        <ele>305.8</ele>
        <time>2022-06-25T11:56:51Z</time>
      </trkpt>
      <trkpt lat="46.37634" lon="4.73479">
        <ele>306</ele>
        <time>2022-06-25T11:56:52Z</time>
      </trkpt>
      <trkpt lat="46.37631" lon="4.73477">
        <ele>306</ele>
        <time>2022-06-25T11:56:53Z</time>
      </trkpt>
      <trkpt lat="46.37629" lon="4.73475">
        <ele>306.2</ele>
        <time>2022-06-25T11:56:54Z</time>
      </trkpt>
      <trkpt lat="46.37626" lon="4.73472">
        <ele>306.2</ele>
        <time>2022-06-25T11:56:55Z</time>
      </trkpt>
      <trkpt lat="46.37624" lon="4.7347">
        <ele>306.6</ele>
        <time>2022-06-25T11:56:56Z</time>
      </trkpt>
      <trkpt lat="46.37621" lon="4.73469">
        <ele>306.6</ele>
        <time>2022-06-25T11:56:57Z</time>
      </trkpt>
      <trkpt lat="46.37619" lon="4.73467">
        <ele>307</ele>
        <time>2022-06-25T11:56:58Z</time>
      </trkpt>
      <trkpt lat="46.37616" lon="4.73465">
        <ele>307</ele>
        <time>2022-06-25T11:56:59Z</time>
      </trkpt>
      <trkpt lat="46.37613" lon="4.73464">
        <ele>307.2</ele>
        <time>2022-06-25T11:57:00Z</time>
      </trkpt>
      <trkpt lat="46.3761" lon="4.73461">
        <ele>307.2</ele>
        <time>2022-06-25T11:57:01Z</time>
      </trkpt>
      <trkpt lat="46.37607" lon="4.7346">
        <ele>307.4</ele>
        <time>2022-06-25T11:57:02Z</time>
      </trkpt>
      <trkpt lat="46.37604" lon="4.73458">
        <ele>307.4</ele>
        <time>2022-06-25T11:57:03Z</time>
      </trkpt>
      <trkpt lat="46.37601" lon="4.73456">
        <ele>307.4</ele>
        <time>2022-06-25T11:57:04Z</time>
      </trkpt>
      <trkpt lat="46.37598" lon="4.73455">
        <ele>307.8</ele>
        <time>2022-06-25T11:57:05Z</time>
      </trkpt>
      <trkpt lat="46.37595" lon="4.73453">
        <ele>307.8</ele>
        <time>2022-06-25T11:57:06Z</time>
      </trkpt>
      <trkpt lat="46.37592" lon="4.73452">
        <ele>307.8</ele>
        <time>2022-06-25T11:57:07Z</time>
      </trkpt>
      <trkpt lat="46.3759" lon="4.73451">
        <ele>308</ele>
        <time>2022-06-25T11:57:08Z</time>
      </trkpt>
      <trkpt lat="46.37587" lon="4.73449">
        <ele>308</ele>
        <time>2022-06-25T11:57:09Z</time>
      </trkpt>
      <trkpt lat="46.37585" lon="4.73447">
        <ele>308.4</ele>
        <time>2022-06-25T11:57:10Z</time>
      </trkpt>
      <trkpt lat="46.37583" lon="4.73445">
        <ele>308.4</ele>
        <time>2022-06-25T11:57:11Z</time>
      </trkpt>
      <trkpt lat="46.3758" lon="4.73443">
        <ele>308.4</ele>
        <time>2022-06-25T11:57:12Z</time>
      </trkpt>
      <trkpt lat="46.37578" lon="4.73442">
        <ele>308.6</ele>
        <time>2022-06-25T11:57:13Z</time>
      </trkpt>
      <trkpt lat="46.37575" lon="4.7344">
        <ele>308.6</ele>
        <time>2022-06-25T11:57:14Z</time>
      </trkpt>
      <trkpt lat="46.37572" lon="4.73439">
        <ele>309</ele>
        <time>2022-06-25T11:57:15Z</time>
      </trkpt>
      <trkpt lat="46.3757" lon="4.73437">
        <ele>309</ele>
        <time>2022-06-25T11:57:16Z</time>
      </trkpt>
      <trkpt lat="46.37567" lon="4.73435">
        <ele>309</ele>
        <time>2022-06-25T11:57:17Z</time>
      </trkpt>
      <trkpt lat="46.37565" lon="4.73434">
        <ele>309.2</ele>
        <time>2022-06-25T11:57:18Z</time>
      </trkpt>
      <trkpt lat="46.37562" lon="4.73432">
        <ele>309.2</ele>
        <time>2022-06-25T11:57:19Z</time>
      </trkpt>
      <trkpt lat="46.37559" lon="4.73429">
        <ele>309.4</ele>
        <time>2022-06-25T11:57:20Z</time>
      </trkpt>
      <trkpt lat="46.37556" lon="4.73427">
        <ele>309.4</ele>
        <time>2022-06-25T11:57:21Z</time>
      </trkpt>
      <trkpt lat="46.37553" lon="4.73425">
        <ele>309.6</ele>
        <time>2022-06-25T11:57:22Z</time>
      </trkpt>
      <trkpt lat="46.3755" lon="4.73423">
        <ele>309.6</ele>
        <time>2022-06-25T11:57:23Z</time>
      </trkpt>
      <trkpt lat="46.37547" lon="4.73421">
        <ele>309.6</ele>
        <time>2022-06-25T11:57:24Z</time>
      </trkpt>
      <trkpt lat="46.37544" lon="4.73419">
        <ele>309.8</ele>
        <time>2022-06-25T11:57:25Z</time>
      </trkpt>
      <trkpt lat="46.37542" lon="4.73417">
        <ele>309.8</ele>
        <time>2022-06-25T11:57:26Z</time>
      </trkpt>
      <trkpt lat="46.37539" lon="4.73415">
        <ele>309.8</ele>
        <time>2022-06-25T11:57:27Z</time>
      </trkpt>
      <trkpt lat="46.37536" lon="4.73413">
        <ele>310</ele>
        <time>2022-06-25T11:57:28Z</time>
      </trkpt>
      <trkpt lat="46.37533" lon="4.73411">
        <ele>310</ele>
        <time>2022-06-25T11:57:29Z</time>
      </trkpt>
      <trkpt lat="46.37529" lon="4.73409">
        <ele>310</ele>
        <time>2022-06-25T11:57:30Z</time>
      </trkpt>
      <trkpt lat="46.37526" lon="4.73406">
        <ele>310</ele>
        <time>2022-06-25T11:57:31Z</time>
      </trkpt>
      <trkpt lat="46.37523" lon="4.73404">
        <ele>310.2</ele>
        <time>2022-06-25T11:57:32Z</time>
      </trkpt>
      <trkpt lat="46.37519" lon="4.73401">
        <ele>310.2</ele>
        <time>2022-06-25T11:57:33Z</time>
      </trkpt>
      <trkpt lat="46.37515" lon="4.73399">
        <ele>310.6</ele>
        <time>2022-06-25T11:57:34Z</time>
      </trkpt>
      <trkpt lat="46.37512" lon="4.73396">
        <ele>310.8</ele>
        <time>2022-06-25T11:57:35Z</time>
      </trkpt>
      <trkpt lat="46.37508" lon="4.73394">
        <ele>311</ele>
        <time>2022-06-25T11:57:36Z</time>
      </trkpt>
      <trkpt lat="46.37505" lon="4.73391">
        <ele>311</ele>
        <time>2022-06-25T11:57:37Z</time>
      </trkpt>
      <trkpt lat="46.37501" lon="4.73389">
        <ele>311.2</ele>
        <time>2022-06-25T11:57:38Z</time>
      </trkpt>
      <trkpt lat="46.37498" lon="4.73387">
        <ele>311.2</ele>
        <time>2022-06-25T11:57:39Z</time>
      </trkpt>
      <trkpt lat="46.37494" lon="4.73385">
        <ele>311.6</ele>
        <time>2022-06-25T11:57:40Z</time>
      </trkpt>
      <trkpt lat="46.3749" lon="4.73382">
        <ele>311.6</ele>
        <time>2022-06-25T11:57:41Z</time>
      </trkpt>
      <trkpt lat="46.37486" lon="4.73379">
        <ele>311.8</ele>
        <time>2022-06-25T11:57:42Z</time>
      </trkpt>
      <trkpt lat="46.37482" lon="4.73377">
        <ele>311.8</ele>
        <time>2022-06-25T11:57:43Z</time>
      </trkpt>
      <trkpt lat="46.37478" lon="4.73374">
        <ele>311.8</ele>
        <time>2022-06-25T11:57:44Z</time>
      </trkpt>
      <trkpt lat="46.37474" lon="4.73371">
        <ele>312.2</ele>
        <time>2022-06-25T11:57:45Z</time>
      </trkpt>
      <trkpt lat="46.3747" lon="4.73369">
        <ele>312.2</ele>
        <time>2022-06-25T11:57:46Z</time>
      </trkpt>
      <trkpt lat="46.37466" lon="4.73366">
        <ele>312.4</ele>
        <time>2022-06-25T11:57:47Z</time>
      </trkpt>
      <trkpt lat="46.37462" lon="4.73364">
        <ele>312.4</ele>
        <time>2022-06-25T11:57:48Z</time>
      </trkpt>
      <trkpt lat="46.37458" lon="4.73361">
        <ele>312.4</ele>
        <time>2022-06-25T11:57:49Z</time>
      </trkpt>
      <trkpt lat="46.37455" lon="4.73358">
        <ele>312.8</ele>
        <time>2022-06-25T11:57:50Z</time>
      </trkpt>
      <trkpt lat="46.37451" lon="4.73355">
        <ele>312.8</ele>
        <time>2022-06-25T11:57:51Z</time>
      </trkpt>
      <trkpt lat="46.37447" lon="4.73353">
        <ele>313</ele>
        <time>2022-06-25T11:57:52Z</time>
      </trkpt>
      <trkpt lat="46.37443" lon="4.7335">
        <ele>313.2</ele>
        <time>2022-06-25T11:57:53Z</time>
      </trkpt>
      <trkpt lat="46.3744" lon="4.73347">
        <ele>313.6</ele>
        <time>2022-06-25T11:57:54Z</time>
      </trkpt>
      <trkpt lat="46.37436" lon="4.73344">
        <ele>313.6</ele>
        <time>2022-06-25T11:57:55Z</time>
      </trkpt>
      <trkpt lat="46.37433" lon="4.73341">
        <ele>313.8</ele>
        <time>2022-06-25T11:57:56Z</time>
      </trkpt>
      <trkpt lat="46.3743" lon="4.73338">
        <ele>313.8</ele>
        <time>2022-06-25T11:57:57Z</time>
      </trkpt>
      <trkpt lat="46.37426" lon="4.73335">
        <ele>314</ele>
        <time>2022-06-25T11:57:58Z</time>
      </trkpt>
      <trkpt lat="46.37422" lon="4.73332">
        <ele>314</ele>
        <time>2022-06-25T11:57:59Z</time>
      </trkpt>
      <trkpt lat="46.37419" lon="4.73329">
        <ele>314.4</ele>
        <time>2022-06-25T11:58:00Z</time>
      </trkpt>
      <trkpt lat="46.37416" lon="4.73326">
        <ele>314.4</ele>
        <time>2022-06-25T11:58:01Z</time>
      </trkpt>
      <trkpt lat="46.37412" lon="4.73323">
        <ele>314.6</ele>
        <time>2022-06-25T11:58:02Z</time>
      </trkpt>
      <trkpt lat="46.37408" lon="4.73319">
        <ele>314.6</ele>
        <time>2022-06-25T11:58:03Z</time>
      </trkpt>
      <trkpt lat="46.37405" lon="4.73316">
        <ele>314.6</ele>
        <time>2022-06-25T11:58:04Z</time>
      </trkpt>
      <trkpt lat="46.37401" lon="4.73313">
        <ele>314.6</ele>
        <time>2022-06-25T11:58:05Z</time>
      </trkpt>
      <trkpt lat="46.37398" lon="4.7331">
        <ele>314.8</ele>
        <time>2022-06-25T11:58:06Z</time>
      </trkpt>
      <trkpt lat="46.37394" lon="4.73306">
        <ele>314.8</ele>
        <time>2022-06-25T11:58:07Z</time>
      </trkpt>
      <trkpt lat="46.37391" lon="4.73302">
        <ele>315</ele>
        <time>2022-06-25T11:58:08Z</time>
      </trkpt>
      <trkpt lat="46.37387" lon="4.73299">
        <ele>315</ele>
        <time>2022-06-25T11:58:09Z</time>
      </trkpt>
      <trkpt lat="46.37384" lon="4.73295">
        <ele>315.4</ele>
        <time>2022-06-25T11:58:10Z</time>
      </trkpt>
      <trkpt lat="46.3738" lon="4.73292">
        <ele>315.6</ele>
        <time>2022-06-25T11:58:11Z</time>
      </trkpt>
      <trkpt lat="46.37376" lon="4.73289">
        <ele>315.6</ele>
        <time>2022-06-25T11:58:12Z</time>
      </trkpt>
      <trkpt lat="46.37373" lon="4.73286">
        <ele>315.8</ele>
        <time>2022-06-25T11:58:13Z</time>
      </trkpt>
      <trkpt lat="46.37369" lon="4.73283">
        <ele>315.8</ele>
        <time>2022-06-25T11:58:14Z</time>
      </trkpt>
      <trkpt lat="46.37365" lon="4.73279">
        <ele>316.2</ele>
        <time>2022-06-25T11:58:15Z</time>
      </trkpt>
      <trkpt lat="46.37362" lon="4.73276">
        <ele>316.2</ele>
        <time>2022-06-25T11:58:16Z</time>
      </trkpt>
      <trkpt lat="46.37359" lon="4.73273">
        <ele>316.4</ele>
        <time>2022-06-25T11:58:17Z</time>
      </trkpt>
      <trkpt lat="46.37355" lon="4.7327">
        <ele>316.4</ele>
        <time>2022-06-25T11:58:18Z</time>
      </trkpt>
      <trkpt lat="46.37351" lon="4.73266">
        <ele>316.8</ele>
        <time>2022-06-25T11:58:19Z</time>
      </trkpt>
      <trkpt lat="46.37348" lon="4.73263">
        <ele>316.8</ele>
        <time>2022-06-25T11:58:20Z</time>
      </trkpt>
      <trkpt lat="46.37344" lon="4.7326">
        <ele>316.8</ele>
        <time>2022-06-25T11:58:21Z</time>
      </trkpt>
      <trkpt lat="46.37341" lon="4.73257">
        <ele>317</ele>
        <time>2022-06-25T11:58:22Z</time>
      </trkpt>
      <trkpt lat="46.37337" lon="4.73253">
        <ele>317</ele>
        <time>2022-06-25T11:58:23Z</time>
      </trkpt>
      <trkpt lat="46.37334" lon="4.7325">
        <ele>317.2</ele>
        <time>2022-06-25T11:58:24Z</time>
      </trkpt>
      <trkpt lat="46.3733" lon="4.73247">
        <ele>317.2</ele>
        <time>2022-06-25T11:58:25Z</time>
      </trkpt>
      <trkpt lat="46.37327" lon="4.73243">
        <ele>317.4</ele>
        <time>2022-06-25T11:58:26Z</time>
      </trkpt>
      <trkpt lat="46.37323" lon="4.7324">
        <ele>317.4</ele>
        <time>2022-06-25T11:58:27Z</time>
      </trkpt>
      <trkpt lat="46.3732" lon="4.73236">
        <ele>317.4</ele>
        <time>2022-06-25T11:58:28Z</time>
      </trkpt>
      <trkpt lat="46.37316" lon="4.73233">
        <ele>317.4</ele>
        <time>2022-06-25T11:58:29Z</time>
      </trkpt>
      <trkpt lat="46.37312" lon="4.73229">
        <ele>317.4</ele>
        <time>2022-06-25T11:58:30Z</time>
      </trkpt>
      <trkpt lat="46.37308" lon="4.73226">
        <ele>317.4</ele>
        <time>2022-06-25T11:58:31Z</time>
      </trkpt>
      <trkpt lat="46.37304" lon="4.73222">
        <ele>317.4</ele>
        <time>2022-06-25T11:58:32Z</time>
      </trkpt>
      <trkpt lat="46.373" lon="4.73218">
        <ele>317.4</ele>
        <time>2022-06-25T11:58:33Z</time>
      </trkpt>
      <trkpt lat="46.37295" lon="4.73214">
        <ele>317.4</ele>
        <time>2022-06-25T11:58:34Z</time>
      </trkpt>
      <trkpt lat="46.37291" lon="4.7321">
        <ele>317.4</ele>
        <time>2022-06-25T11:58:35Z</time>
      </trkpt>
      <trkpt lat="46.37286" lon="4.73206">
        <ele>317.4</ele>
        <time>2022-06-25T11:58:36Z</time>
      </trkpt>
      <trkpt lat="46.37282" lon="4.73201">
        <ele>317.4</ele>
        <time>2022-06-25T11:58:37Z</time>
      </trkpt>
      <trkpt lat="46.37277" lon="4.73196">
        <ele>317.4</ele>
        <time>2022-06-25T11:58:38Z</time>
      </trkpt>
      <trkpt lat="46.37272" lon="4.73191">
        <ele>317.4</ele>
        <time>2022-06-25T11:58:39Z</time>
      </trkpt>
      <trkpt lat="46.37267" lon="4.73187">
        <ele>317.2</ele>
        <time>2022-06-25T11:58:40Z</time>
      </trkpt>
      <trkpt lat="46.37261" lon="4.73182">
        <ele>317.2</ele>
        <time>2022-06-25T11:58:41Z</time>
      </trkpt>
      <trkpt lat="46.37255" lon="4.73177">
        <ele>316.8</ele>
        <time>2022-06-25T11:58:42Z</time>
      </trkpt>
      <trkpt lat="46.3725" lon="4.73172">
        <ele>316.8</ele>
        <time>2022-06-25T11:58:43Z</time>
      </trkpt>
      <trkpt lat="46.37244" lon="4.73167">
        <ele>316.6</ele>
        <time>2022-06-25T11:58:44Z</time>
      </trkpt>
      <trkpt lat="46.37238" lon="4.73162">
        <ele>316.6</ele>
        <time>2022-06-25T11:58:45Z</time>
      </trkpt>
      <trkpt lat="46.37232" lon="4.73156">
        <ele>316.2</ele>
        <time>2022-06-25T11:58:46Z</time>
      </trkpt>
      <trkpt lat="46.37226" lon="4.73151">
        <ele>316.2</ele>
        <time>2022-06-25T11:58:47Z</time>
      </trkpt>
      <trkpt lat="46.3722" lon="4.73145">
        <ele>315.8</ele>
        <time>2022-06-25T11:58:48Z</time>
      </trkpt>
      <trkpt lat="46.37213" lon="4.73139">
        <ele>315.8</ele>
        <time>2022-06-25T11:58:49Z</time>
      </trkpt>
      <trkpt lat="46.37207" lon="4.73134">
        <ele>315.6</ele>
        <time>2022-06-25T11:58:50Z</time>
      </trkpt>
      <trkpt lat="46.372" lon="4.73128">
        <ele>315.6</ele>
        <time>2022-06-25T11:58:51Z</time>
      </trkpt>
      <trkpt lat="46.37194" lon="4.73122">
        <ele>315.2</ele>
        <time>2022-06-25T11:58:52Z</time>
      </trkpt>
      <trkpt lat="46.37187" lon="4.73116">
        <ele>315</ele>
        <time>2022-06-25T11:58:54Z</time>
      </trkpt>
      <trkpt lat="46.3718" lon="4.7311">
        <ele>315</ele>
        <time>2022-06-25T11:58:55Z</time>
      </trkpt>
      <trkpt lat="46.37174" lon="4.73105">
        <ele>314.8</ele>
        <time>2022-06-25T11:58:56Z</time>
      </trkpt>
      <trkpt lat="46.37167" lon="4.73099">
        <ele>314.8</ele>
        <time>2022-06-25T11:58:57Z</time>
      </trkpt>
      <trkpt lat="46.3716" lon="4.73093">
        <ele>314.8</ele>
        <time>2022-06-25T11:58:58Z</time>
      </trkpt>
      <trkpt lat="46.37154" lon="4.73088">
        <ele>314.8</ele>
        <time>2022-06-25T11:58:59Z</time>
      </trkpt>
      <trkpt lat="46.37148" lon="4.73083">
        <ele>314.8</ele>
        <time>2022-06-25T11:59:00Z</time>
      </trkpt>
      <trkpt lat="46.37142" lon="4.73077">
        <ele>314.4</ele>
        <time>2022-06-25T11:59:01Z</time>
      </trkpt>
      <trkpt lat="46.37136" lon="4.73072">
        <ele>314.4</ele>
        <time>2022-06-25T11:59:02Z</time>
      </trkpt>
      <trkpt lat="46.37131" lon="4.73068">
        <ele>314.4</ele>
        <time>2022-06-25T11:59:03Z</time>
      </trkpt>
      <trkpt lat="46.37126" lon="4.73063">
        <ele>314.2</ele>
        <time>2022-06-25T11:59:04Z</time>
      </trkpt>
      <trkpt lat="46.37121" lon="4.73058">
        <ele>314.2</ele>
        <time>2022-06-25T11:59:05Z</time>
      </trkpt>
      <trkpt lat="46.37115" lon="4.73054">
        <ele>314</ele>
        <time>2022-06-25T11:59:06Z</time>
      </trkpt>
      <trkpt lat="46.3711" lon="4.73049">
        <ele>314</ele>
        <time>2022-06-25T11:59:07Z</time>
      </trkpt>
      <trkpt lat="46.37104" lon="4.73044">
        <ele>313.6</ele>
        <time>2022-06-25T11:59:08Z</time>
      </trkpt>
      <trkpt lat="46.37099" lon="4.73039">
        <ele>313.4</ele>
        <time>2022-06-25T11:59:09Z</time>
      </trkpt>
      <trkpt lat="46.37093" lon="4.73034">
        <ele>313.2</ele>
        <time>2022-06-25T11:59:10Z</time>
      </trkpt>
      <trkpt lat="46.37088" lon="4.7303">
        <ele>313.2</ele>
        <time>2022-06-25T11:59:11Z</time>
      </trkpt>
      <trkpt lat="46.37082" lon="4.73026">
        <ele>312.8</ele>
        <time>2022-06-25T11:59:12Z</time>
      </trkpt>
      <trkpt lat="46.37077" lon="4.73021">
        <ele>312.8</ele>
        <time>2022-06-25T11:59:13Z</time>
      </trkpt>
      <trkpt lat="46.37071" lon="4.73016">
        <ele>312.6</ele>
        <time>2022-06-25T11:59:14Z</time>
      </trkpt>
      <trkpt lat="46.37066" lon="4.73011">
        <ele>312.6</ele>
        <time>2022-06-25T11:59:15Z</time>
      </trkpt>
      <trkpt lat="46.3706" lon="4.73007">
        <ele>312.6</ele>
        <time>2022-06-25T11:59:16Z</time>
      </trkpt>
      <trkpt lat="46.37054" lon="4.73003">
        <ele>312.6</ele>
        <time>2022-06-25T11:59:17Z</time>
      </trkpt>
      <trkpt lat="46.37049" lon="4.72999">
        <ele>312.6</ele>
        <time>2022-06-25T11:59:18Z</time>
      </trkpt>
      <trkpt lat="46.37043" lon="4.72995">
        <ele>312.6</ele>
        <time>2022-06-25T11:59:19Z</time>
      </trkpt>
      <trkpt lat="46.37038" lon="4.72992">
        <ele>312.6</ele>
        <time>2022-06-25T11:59:20Z</time>
      </trkpt>
      <trkpt lat="46.37032" lon="4.72989">
        <ele>312.6</ele>
        <time>2022-06-25T11:59:21Z</time>
      </trkpt>
      <trkpt lat="46.37027" lon="4.72986">
        <ele>312.8</ele>
        <time>2022-06-25T11:59:22Z</time>
      </trkpt>
      <trkpt lat="46.37021" lon="4.72984">
        <ele>312.8</ele>
        <time>2022-06-25T11:59:23Z</time>
      </trkpt>
      <trkpt lat="46.37016" lon="4.72982">
        <ele>313</ele>
        <time>2022-06-25T11:59:24Z</time>
      </trkpt>
      <trkpt lat="46.3701" lon="4.7298">
        <ele>313</ele>
        <time>2022-06-25T11:59:25Z</time>
      </trkpt>
      <trkpt lat="46.37005" lon="4.72978">
        <ele>313</ele>
        <time>2022-06-25T11:59:26Z</time>
      </trkpt>
      <trkpt lat="46.36999" lon="4.72975">
        <ele>313</ele>
        <time>2022-06-25T11:59:27Z</time>
      </trkpt>
      <trkpt lat="46.36993" lon="4.72973">
        <ele>313</ele>
        <time>2022-06-25T11:59:28Z</time>
      </trkpt>
      <trkpt lat="46.36986" lon="4.72972">
        <ele>312.8</ele>
        <time>2022-06-25T11:59:29Z</time>
      </trkpt>
      <trkpt lat="46.3698" lon="4.72972">
        <ele>312.8</ele>
        <time>2022-06-25T11:59:30Z</time>
      </trkpt>
      <trkpt lat="46.36973" lon="4.72973">
        <ele>312.4</ele>
        <time>2022-06-25T11:59:31Z</time>
      </trkpt>
      <trkpt lat="46.36966" lon="4.72974">
        <ele>312.2</ele>
        <time>2022-06-25T11:59:32Z</time>
      </trkpt>
      <trkpt lat="46.3696" lon="4.72975">
        <ele>312.2</ele>
        <time>2022-06-25T11:59:33Z</time>
      </trkpt>
      <trkpt lat="46.36953" lon="4.72977">
        <ele>312.2</ele>
        <time>2022-06-25T11:59:34Z</time>
      </trkpt>
      <trkpt lat="46.36946" lon="4.72978">
        <ele>312</ele>
        <time>2022-06-25T11:59:35Z</time>
      </trkpt>
      <trkpt lat="46.36939" lon="4.72978">
        <ele>312</ele>
        <time>2022-06-25T11:59:36Z</time>
      </trkpt>
      <trkpt lat="46.36933" lon="4.72979">
        <ele>311.8</ele>
        <time>2022-06-25T11:59:37Z</time>
      </trkpt>
      <trkpt lat="46.36926" lon="4.72979">
        <ele>311.8</ele>
        <time>2022-06-25T11:59:38Z</time>
      </trkpt>
      <trkpt lat="46.36919" lon="4.72979">
        <ele>311.6</ele>
        <time>2022-06-25T11:59:39Z</time>
      </trkpt>
      <trkpt lat="46.36913" lon="4.7298">
        <ele>311.6</ele>
        <time>2022-06-25T11:59:40Z</time>
      </trkpt>
      <trkpt lat="46.36906" lon="4.7298">
        <ele>311.6</ele>
        <time>2022-06-25T11:59:41Z</time>
      </trkpt>
      <trkpt lat="46.369" lon="4.7298">
        <ele>311.2</ele>
        <time>2022-06-25T11:59:42Z</time>
      </trkpt>
      <trkpt lat="46.36893" lon="4.72981">
        <ele>311.2</ele>
        <time>2022-06-25T11:59:43Z</time>
      </trkpt>
      <trkpt lat="46.36886" lon="4.72981">
        <ele>310.8</ele>
        <time>2022-06-25T11:59:44Z</time>
      </trkpt>
      <trkpt lat="46.36879" lon="4.72982">
        <ele>310.8</ele>
        <time>2022-06-25T11:59:45Z</time>
      </trkpt>
      <trkpt lat="46.36872" lon="4.72982">
        <ele>310.4</ele>
        <time>2022-06-25T11:59:46Z</time>
      </trkpt>
      <trkpt lat="46.36864" lon="4.72982">
        <ele>310.4</ele>
        <time>2022-06-25T11:59:47Z</time>
      </trkpt>
      <trkpt lat="46.36857" lon="4.72982">
        <ele>310.2</ele>
        <time>2022-06-25T11:59:48Z</time>
      </trkpt>
      <trkpt lat="46.3685" lon="4.72982">
        <ele>310.2</ele>
        <time>2022-06-25T11:59:49Z</time>
      </trkpt>
      <trkpt lat="46.36842" lon="4.72982">
        <ele>310.2</ele>
        <time>2022-06-25T11:59:50Z</time>
      </trkpt>
      <trkpt lat="46.36834" lon="4.72983">
        <ele>309.8</ele>
        <time>2022-06-25T11:59:51Z</time>
      </trkpt>
      <trkpt lat="46.36827" lon="4.72983">
        <ele>309.8</ele>
        <time>2022-06-25T11:59:52Z</time>
      </trkpt>
      <trkpt lat="46.36819" lon="4.72983">
        <ele>309.6</ele>
        <time>2022-06-25T11:59:53Z</time>
      </trkpt>
      <trkpt lat="46.36811" lon="4.72983">
        <ele>309.2</ele>
        <time>2022-06-25T11:59:54Z</time>
      </trkpt>
      <trkpt lat="46.36803" lon="4.72983">
        <ele>309</ele>
        <time>2022-06-25T11:59:55Z</time>
      </trkpt>
      <trkpt lat="46.36795" lon="4.72984">
        <ele>308.8</ele>
        <time>2022-06-25T11:59:56Z</time>
      </trkpt>
      <trkpt lat="46.36787" lon="4.72984">
        <ele>308.6</ele>
        <time>2022-06-25T11:59:57Z</time>
      </trkpt>
      <trkpt lat="46.36779" lon="4.72984">
        <ele>308.2</ele>
        <time>2022-06-25T11:59:58Z</time>
      </trkpt>
      <trkpt lat="46.36771" lon="4.72984">
        <ele>308</ele>
        <time>2022-06-25T11:59:59Z</time>
      </trkpt>
      <trkpt lat="46.36763" lon="4.72984">
        <ele>307.8</ele>
        <time>2022-06-25T12:00:00Z</time>
      </trkpt>
      <trkpt lat="46.36755" lon="4.72984">
        <ele>307.6</ele>
        <time>2022-06-25T12:00:01Z</time>
      </trkpt>
      <trkpt lat="46.36747" lon="4.72985">
        <ele>307.4</ele>
        <time>2022-06-25T12:00:02Z</time>
      </trkpt>
      <trkpt lat="46.36738" lon="4.72985">
        <ele>307.2</ele>
        <time>2022-06-25T12:00:03Z</time>
      </trkpt>
      <trkpt lat="46.3673" lon="4.72987">
        <ele>306.8</ele>
        <time>2022-06-25T12:00:04Z</time>
      </trkpt>
      <trkpt lat="46.36721" lon="4.72989">
        <ele>306.6</ele>
        <time>2022-06-25T12:00:05Z</time>
      </trkpt>
      <trkpt lat="46.36713" lon="4.72991">
        <ele>306.2</ele>
        <time>2022-06-25T12:00:06Z</time>
      </trkpt>
      <trkpt lat="46.36704" lon="4.72995">
        <ele>306</ele>
        <time>2022-06-25T12:00:07Z</time>
      </trkpt>
      <trkpt lat="46.36696" lon="4.72999">
        <ele>305.6</ele>
        <time>2022-06-25T12:00:08Z</time>
      </trkpt>
      <trkpt lat="46.36687" lon="4.73004">
        <ele>304.6</ele>
        <time>2022-06-25T12:00:09Z</time>
      </trkpt>
      <trkpt lat="46.36678" lon="4.73009">
        <ele>304.2</ele>
        <time>2022-06-25T12:00:10Z</time>
      </trkpt>
      <trkpt lat="46.36669" lon="4.73015">
        <ele>304.2</ele>
        <time>2022-06-25T12:00:11Z</time>
      </trkpt>
      <trkpt lat="46.36659" lon="4.73021">
        <ele>303.6</ele>
        <time>2022-06-25T12:00:12Z</time>
      </trkpt>
      <trkpt lat="46.36649" lon="4.73026">
        <ele>303</ele>
        <time>2022-06-25T12:00:13Z</time>
      </trkpt>
      <trkpt lat="46.36639" lon="4.73033">
        <ele>302.6</ele>
        <time>2022-06-25T12:00:14Z</time>
      </trkpt>
      <trkpt lat="46.36629" lon="4.7304">
        <ele>301.8</ele>
        <time>2022-06-25T12:00:15Z</time>
      </trkpt>
      <trkpt lat="46.36619" lon="4.73047">
        <ele>301</ele>
        <time>2022-06-25T12:00:16Z</time>
      </trkpt>
      <trkpt lat="46.36608" lon="4.73054">
        <ele>300.2</ele>
        <time>2022-06-25T12:00:17Z</time>
      </trkpt>
      <trkpt lat="46.36592" lon="4.73063">
        <ele>299.4</ele>
        <time>2022-06-25T12:00:18Z</time>
      </trkpt>
      <trkpt lat="46.36586" lon="4.73066">
        <ele>298.8</ele>
        <time>2022-06-25T12:00:19Z</time>
      </trkpt>
      <trkpt lat="46.36574" lon="4.73073">
        <ele>298</ele>
        <time>2022-06-25T12:00:20Z</time>
      </trkpt>
      <trkpt lat="46.36563" lon="4.73079">
        <ele>297.2</ele>
        <time>2022-06-25T12:00:21Z</time>
      </trkpt>
      <trkpt lat="46.36551" lon="4.73084">
        <ele>296.4</ele>
        <time>2022-06-25T12:00:22Z</time>
      </trkpt>
      <trkpt lat="46.36539" lon="4.73089">
        <ele>295.8</ele>
        <time>2022-06-25T12:00:23Z</time>
      </trkpt>
      <trkpt lat="46.36528" lon="4.73094">
        <ele>295</ele>
        <time>2022-06-25T12:00:24Z</time>
      </trkpt>
      <trkpt lat="46.36516" lon="4.73098">
        <ele>293.6</ele>
        <time>2022-06-25T12:00:26Z</time>
      </trkpt>
      <trkpt lat="46.36504" lon="4.731">
        <ele>293.2</ele>
        <time>2022-06-25T12:00:27Z</time>
      </trkpt>
      <trkpt lat="46.36492" lon="4.73098">
        <ele>292.6</ele>
        <time>2022-06-25T12:00:28Z</time>
      </trkpt>
      <trkpt lat="46.3648" lon="4.73096">
        <ele>292.2</ele>
        <time>2022-06-25T12:00:29Z</time>
      </trkpt>
      <trkpt lat="46.36469" lon="4.73093">
        <ele>291.6</ele>
        <time>2022-06-25T12:00:30Z</time>
      </trkpt>
      <trkpt lat="46.36459" lon="4.73089">
        <ele>291.4</ele>
        <time>2022-06-25T12:00:31Z</time>
      </trkpt>
      <trkpt lat="46.36448" lon="4.73086">
        <ele>291.4</ele>
        <time>2022-06-25T12:00:32Z</time>
      </trkpt>
      <trkpt lat="46.36438" lon="4.73082">
        <ele>291</ele>
        <time>2022-06-25T12:00:33Z</time>
      </trkpt>
      <trkpt lat="46.36428" lon="4.73078">
        <ele>291</ele>
        <time>2022-06-25T12:00:34Z</time>
      </trkpt>
      <trkpt lat="46.36419" lon="4.73073">
        <ele>290.4</ele>
        <time>2022-06-25T12:00:35Z</time>
      </trkpt>
      <trkpt lat="46.3641" lon="4.73069">
        <ele>290</ele>
        <time>2022-06-25T12:00:36Z</time>
      </trkpt>
      <trkpt lat="46.364" lon="4.73065">
        <ele>289.8</ele>
        <time>2022-06-25T12:00:37Z</time>
      </trkpt>
      <trkpt lat="46.36391" lon="4.73063">
        <ele>289.4</ele>
        <time>2022-06-25T12:00:38Z</time>
      </trkpt>
      <trkpt lat="46.36382" lon="4.73059">
        <ele>289</ele>
        <time>2022-06-25T12:00:39Z</time>
      </trkpt>
      <trkpt lat="46.36373" lon="4.73056">
        <ele>288.8</ele>
        <time>2022-06-25T12:00:40Z</time>
      </trkpt>
      <trkpt lat="46.36364" lon="4.73052">
        <ele>288.8</ele>
        <time>2022-06-25T12:00:41Z</time>
      </trkpt>
      <trkpt lat="46.36356" lon="4.73049">
        <ele>288.4</ele>
        <time>2022-06-25T12:00:42Z</time>
      </trkpt>
      <trkpt lat="46.36348" lon="4.73046">
        <ele>288.4</ele>
        <time>2022-06-25T12:00:43Z</time>
      </trkpt>
      <trkpt lat="46.3634" lon="4.73042">
        <ele>288</ele>
        <time>2022-06-25T12:00:44Z</time>
      </trkpt>
      <trkpt lat="46.36332" lon="4.73038">
        <ele>288</ele>
        <time>2022-06-25T12:00:45Z</time>
      </trkpt>
      <trkpt lat="46.36324" lon="4.73035">
        <ele>287.8</ele>
        <time>2022-06-25T12:00:46Z</time>
      </trkpt>
      <trkpt lat="46.36317" lon="4.73031">
        <ele>287.4</ele>
        <time>2022-06-25T12:00:47Z</time>
      </trkpt>
      <trkpt lat="46.36309" lon="4.73027">
        <ele>287.4</ele>
        <time>2022-06-25T12:00:48Z</time>
      </trkpt>
      <trkpt lat="46.36302" lon="4.73023">
        <ele>287.4</ele>
        <time>2022-06-25T12:00:49Z</time>
      </trkpt>
      <trkpt lat="46.36294" lon="4.73019">
        <ele>287</ele>
        <time>2022-06-25T12:00:50Z</time>
      </trkpt>
      <trkpt lat="46.36287" lon="4.73014">
        <ele>286.6</ele>
        <time>2022-06-25T12:00:51Z</time>
      </trkpt>
      <trkpt lat="46.3628" lon="4.73009">
        <ele>286.2</ele>
        <time>2022-06-25T12:00:52Z</time>
      </trkpt>
      <trkpt lat="46.36273" lon="4.73004">
        <ele>285.6</ele>
        <time>2022-06-25T12:00:53Z</time>
      </trkpt>
      <trkpt lat="46.36266" lon="4.72998">
        <ele>285.4</ele>
        <time>2022-06-25T12:00:54Z</time>
      </trkpt>
      <trkpt lat="46.36258" lon="4.72991">
        <ele>285</ele>
        <time>2022-06-25T12:00:55Z</time>
      </trkpt>
      <trkpt lat="46.36251" lon="4.72985">
        <ele>285</ele>
        <time>2022-06-25T12:00:56Z</time>
      </trkpt>
      <trkpt lat="46.36243" lon="4.7298">
        <ele>284.6</ele>
        <time>2022-06-25T12:00:57Z</time>
      </trkpt>
      <trkpt lat="46.36235" lon="4.72974">
        <ele>284.4</ele>
        <time>2022-06-25T12:00:58Z</time>
      </trkpt>
      <trkpt lat="46.36219" lon="4.72965">
        <ele>284.4</ele>
        <time>2022-06-25T12:00:59Z</time>
      </trkpt>
      <trkpt lat="46.36211" lon="4.72961">
        <ele>284.4</ele>
        <time>2022-06-25T12:01:00Z</time>
      </trkpt>
      <trkpt lat="46.36202" lon="4.72958">
        <ele>284.2</ele>
        <time>2022-06-25T12:01:01Z</time>
      </trkpt>
      <trkpt lat="46.36194" lon="4.72955">
        <ele>284.2</ele>
        <time>2022-06-25T12:01:02Z</time>
      </trkpt>
      <trkpt lat="46.36185" lon="4.72952">
        <ele>283.8</ele>
        <time>2022-06-25T12:01:03Z</time>
      </trkpt>
      <trkpt lat="46.36177" lon="4.72949">
        <ele>283.6</ele>
        <time>2022-06-25T12:01:04Z</time>
      </trkpt>
      <trkpt lat="46.36168" lon="4.72946">
        <ele>283.2</ele>
        <time>2022-06-25T12:01:05Z</time>
      </trkpt>
      <trkpt lat="46.3616" lon="4.72944">
        <ele>283.2</ele>
        <time>2022-06-25T12:01:06Z</time>
      </trkpt>
      <trkpt lat="46.36151" lon="4.72941">
        <ele>283</ele>
        <time>2022-06-25T12:01:07Z</time>
      </trkpt>
      <trkpt lat="46.36142" lon="4.72939">
        <ele>283</ele>
        <time>2022-06-25T12:01:08Z</time>
      </trkpt>
      <trkpt lat="46.36134" lon="4.72936">
        <ele>282.6</ele>
        <time>2022-06-25T12:01:09Z</time>
      </trkpt>
      <trkpt lat="46.36126" lon="4.72934">
        <ele>282.6</ele>
        <time>2022-06-25T12:01:10Z</time>
      </trkpt>
      <trkpt lat="46.36118" lon="4.72932">
        <ele>282.4</ele>
        <time>2022-06-25T12:01:11Z</time>
      </trkpt>
      <trkpt lat="46.36111" lon="4.72929">
        <ele>282.4</ele>
        <time>2022-06-25T12:01:12Z</time>
      </trkpt>
      <trkpt lat="46.36103" lon="4.72927">
        <ele>282.2</ele>
        <time>2022-06-25T12:01:14Z</time>
      </trkpt>
      <trkpt lat="46.36096" lon="4.72925">
        <ele>282.2</ele>
        <time>2022-06-25T12:01:15Z</time>
      </trkpt>
      <trkpt lat="46.36089" lon="4.72923">
        <ele>282.2</ele>
        <time>2022-06-25T12:01:16Z</time>
      </trkpt>
      <trkpt lat="46.36082" lon="4.72921">
        <ele>282</ele>
        <time>2022-06-25T12:01:17Z</time>
      </trkpt>
      <trkpt lat="46.36076" lon="4.7292">
        <ele>282</ele>
        <time>2022-06-25T12:01:18Z</time>
      </trkpt>
      <trkpt lat="46.36069" lon="4.72918">
        <ele>282</ele>
        <time>2022-06-25T12:01:19Z</time>
      </trkpt>
      <trkpt lat="46.36062" lon="4.72916">
        <ele>282</ele>
        <time>2022-06-25T12:01:20Z</time>
      </trkpt>
      <trkpt lat="46.36056" lon="4.72915">
        <ele>282</ele>
        <time>2022-06-25T12:01:21Z</time>
      </trkpt>
      <trkpt lat="46.36049" lon="4.72913">
        <ele>282</ele>
        <time>2022-06-25T12:01:22Z</time>
      </trkpt>
      <trkpt lat="46.36043" lon="4.72912">
        <ele>282</ele>
        <time>2022-06-25T12:01:23Z</time>
      </trkpt>
      <trkpt lat="46.36037" lon="4.7291">
        <ele>282</ele>
        <time>2022-06-25T12:01:24Z</time>
      </trkpt>
      <trkpt lat="46.3603" lon="4.72909">
        <ele>282.2</ele>
        <time>2022-06-25T12:01:25Z</time>
      </trkpt>
      <trkpt lat="46.36024" lon="4.72908">
        <ele>282.2</ele>
        <time>2022-06-25T12:01:26Z</time>
      </trkpt>
      <trkpt lat="46.36018" lon="4.72907">
        <ele>282.4</ele>
        <time>2022-06-25T12:01:27Z</time>
      </trkpt>
      <trkpt lat="46.36012" lon="4.72906">
        <ele>282.4</ele>
        <time>2022-06-25T12:01:28Z</time>
      </trkpt>
      <trkpt lat="46.36007" lon="4.72906">
        <ele>282.4</ele>
        <time>2022-06-25T12:01:29Z</time>
      </trkpt>
      <trkpt lat="46.36001" lon="4.72906">
        <ele>282.6</ele>
        <time>2022-06-25T12:01:30Z</time>
      </trkpt>
      <trkpt lat="46.35995" lon="4.72905">
        <ele>282.6</ele>
        <time>2022-06-25T12:01:31Z</time>
      </trkpt>
      <trkpt lat="46.3599" lon="4.72905">
        <ele>282.6</ele>
        <time>2022-06-25T12:01:32Z</time>
      </trkpt>
      <trkpt lat="46.35984" lon="4.72905">
        <ele>282.6</ele>
        <time>2022-06-25T12:01:33Z</time>
      </trkpt>
      <trkpt lat="46.35979" lon="4.72905">
        <ele>282.6</ele>
        <time>2022-06-25T12:01:34Z</time>
      </trkpt>
      <trkpt lat="46.35973" lon="4.72905">
        <ele>282.6</ele>
        <time>2022-06-25T12:01:35Z</time>
      </trkpt>
      <trkpt lat="46.35968" lon="4.72905">
        <ele>283</ele>
        <time>2022-06-25T12:01:36Z</time>
      </trkpt>
      <trkpt lat="46.35962" lon="4.72905">
        <ele>283</ele>
        <time>2022-06-25T12:01:37Z</time>
      </trkpt>
      <trkpt lat="46.35957" lon="4.72905">
        <ele>283.2</ele>
        <time>2022-06-25T12:01:38Z</time>
      </trkpt>
      <trkpt lat="46.35951" lon="4.72904">
        <ele>283.2</ele>
        <time>2022-06-25T12:01:39Z</time>
      </trkpt>
      <trkpt lat="46.35945" lon="4.72904">
        <ele>283.2</ele>
        <time>2022-06-25T12:01:40Z</time>
      </trkpt>
      <trkpt lat="46.3594" lon="4.72903">
        <ele>283.4</ele>
        <time>2022-06-25T12:01:41Z</time>
      </trkpt>
      <trkpt lat="46.35934" lon="4.72902">
        <ele>283.4</ele>
        <time>2022-06-25T12:01:42Z</time>
      </trkpt>
      <trkpt lat="46.35928" lon="4.729">
        <ele>283.4</ele>
        <time>2022-06-25T12:01:43Z</time>
      </trkpt>
      <trkpt lat="46.35922" lon="4.72899">
        <ele>283.6</ele>
        <time>2022-06-25T12:01:44Z</time>
      </trkpt>
      <trkpt lat="46.35916" lon="4.72897">
        <ele>283.6</ele>
        <time>2022-06-25T12:01:45Z</time>
      </trkpt>
      <trkpt lat="46.3591" lon="4.72896">
        <ele>284</ele>
        <time>2022-06-25T12:01:46Z</time>
      </trkpt>
      <trkpt lat="46.35904" lon="4.72895">
        <ele>284</ele>
        <time>2022-06-25T12:01:47Z</time>
      </trkpt>
      <trkpt lat="46.35898" lon="4.72893">
        <ele>284</ele>
        <time>2022-06-25T12:01:48Z</time>
      </trkpt>
      <trkpt lat="46.35893" lon="4.72892">
        <ele>284</ele>
        <time>2022-06-25T12:01:49Z</time>
      </trkpt>
      <trkpt lat="46.35887" lon="4.7289">
        <ele>284</ele>
        <time>2022-06-25T12:01:50Z</time>
      </trkpt>
      <trkpt lat="46.35881" lon="4.72889">
        <ele>284</ele>
        <time>2022-06-25T12:01:51Z</time>
      </trkpt>
      <trkpt lat="46.35875" lon="4.72887">
        <ele>284</ele>
        <time>2022-06-25T12:01:52Z</time>
      </trkpt>
      <trkpt lat="46.3587" lon="4.72885">
        <ele>284</ele>
        <time>2022-06-25T12:01:53Z</time>
      </trkpt>
      <trkpt lat="46.35864" lon="4.72883">
        <ele>284</ele>
        <time>2022-06-25T12:01:54Z</time>
      </trkpt>
      <trkpt lat="46.35859" lon="4.7288">
        <ele>284</ele>
        <time>2022-06-25T12:01:55Z</time>
      </trkpt>
      <trkpt lat="46.35853" lon="4.72877">
        <ele>284</ele>
        <time>2022-06-25T12:01:56Z</time>
      </trkpt>
      <trkpt lat="46.35848" lon="4.72874">
        <ele>284</ele>
        <time>2022-06-25T12:01:57Z</time>
      </trkpt>
      <trkpt lat="46.35842" lon="4.72871">
        <ele>284</ele>
        <time>2022-06-25T12:01:58Z</time>
      </trkpt>
      <trkpt lat="46.35836" lon="4.72869">
        <ele>284</ele>
        <time>2022-06-25T12:01:59Z</time>
      </trkpt>
      <trkpt lat="46.35831" lon="4.72866">
        <ele>284</ele>
        <time>2022-06-25T12:02:00Z</time>
      </trkpt>
      <trkpt lat="46.35825" lon="4.72863">
        <ele>284</ele>
        <time>2022-06-25T12:02:01Z</time>
      </trkpt>
      <trkpt lat="46.35819" lon="4.7286">
        <ele>284</ele>
        <time>2022-06-25T12:02:02Z</time>
      </trkpt>
      <trkpt lat="46.35813" lon="4.72857">
        <ele>284</ele>
        <time>2022-06-25T12:02:03Z</time>
      </trkpt>
      <trkpt lat="46.35807" lon="4.72854">
        <ele>284</ele>
        <time>2022-06-25T12:02:04Z</time>
      </trkpt>
      <trkpt lat="46.35802" lon="4.7285">
        <ele>284</ele>
        <time>2022-06-25T12:02:05Z</time>
      </trkpt>
      <trkpt lat="46.35796" lon="4.72847">
        <ele>283.8</ele>
        <time>2022-06-25T12:02:06Z</time>
      </trkpt>
      <trkpt lat="46.3579" lon="4.72844">
        <ele>283.8</ele>
        <time>2022-06-25T12:02:07Z</time>
      </trkpt>
      <trkpt lat="46.35784" lon="4.72841">
        <ele>283.6</ele>
        <time>2022-06-25T12:02:08Z</time>
      </trkpt>
      <trkpt lat="46.35779" lon="4.72837">
        <ele>283.6</ele>
        <time>2022-06-25T12:02:09Z</time>
      </trkpt>
      <trkpt lat="46.35773" lon="4.72834">
        <ele>283.6</ele>
        <time>2022-06-25T12:02:10Z</time>
      </trkpt>
      <trkpt lat="46.35767" lon="4.7283">
        <ele>283.6</ele>
        <time>2022-06-25T12:02:11Z</time>
      </trkpt>
      <trkpt lat="46.35761" lon="4.72827">
        <ele>283.6</ele>
        <time>2022-06-25T12:02:12Z</time>
      </trkpt>
      <trkpt lat="46.35756" lon="4.72823">
        <ele>283.6</ele>
        <time>2022-06-25T12:02:13Z</time>
      </trkpt>
      <trkpt lat="46.3575" lon="4.72819">
        <ele>283.6</ele>
        <time>2022-06-25T12:02:14Z</time>
      </trkpt>
      <trkpt lat="46.35745" lon="4.72815">
        <ele>283.6</ele>
        <time>2022-06-25T12:02:15Z</time>
      </trkpt>
      <trkpt lat="46.3574" lon="4.72811">
        <ele>283.6</ele>
        <time>2022-06-25T12:02:16Z</time>
      </trkpt>
      <trkpt lat="46.35734" lon="4.72807">
        <ele>283.6</ele>
        <time>2022-06-25T12:02:17Z</time>
      </trkpt>
      <trkpt lat="46.35729" lon="4.72802">
        <ele>283.8</ele>
        <time>2022-06-25T12:02:18Z</time>
      </trkpt>
      <trkpt lat="46.35724" lon="4.72798">
        <ele>283.8</ele>
        <time>2022-06-25T12:02:19Z</time>
      </trkpt>
      <trkpt lat="46.35719" lon="4.72794">
        <ele>283.8</ele>
        <time>2022-06-25T12:02:20Z</time>
      </trkpt>
      <trkpt lat="46.35714" lon="4.72789">
        <ele>283.8</ele>
        <time>2022-06-25T12:02:21Z</time>
      </trkpt>
      <trkpt lat="46.35708" lon="4.72785">
        <ele>284.2</ele>
        <time>2022-06-25T12:02:22Z</time>
      </trkpt>
      <trkpt lat="46.35703" lon="4.72781">
        <ele>284.2</ele>
        <time>2022-06-25T12:02:23Z</time>
      </trkpt>
      <trkpt lat="46.35698" lon="4.72777">
        <ele>284.2</ele>
        <time>2022-06-25T12:02:24Z</time>
      </trkpt>
      <trkpt lat="46.35692" lon="4.72772">
        <ele>284.4</ele>
        <time>2022-06-25T12:02:25Z</time>
      </trkpt>
      <trkpt lat="46.35687" lon="4.72768">
        <ele>284.4</ele>
        <time>2022-06-25T12:02:26Z</time>
      </trkpt>
      <trkpt lat="46.35682" lon="4.72764">
        <ele>284.6</ele>
        <time>2022-06-25T12:02:27Z</time>
      </trkpt>
      <trkpt lat="46.35676" lon="4.7276">
        <ele>284.6</ele>
        <time>2022-06-25T12:02:28Z</time>
      </trkpt>
      <trkpt lat="46.35671" lon="4.72755">
        <ele>284.6</ele>
        <time>2022-06-25T12:02:29Z</time>
      </trkpt>
      <trkpt lat="46.35666" lon="4.72751">
        <ele>285</ele>
        <time>2022-06-25T12:02:30Z</time>
      </trkpt>
      <trkpt lat="46.35661" lon="4.72746">
        <ele>285</ele>
        <time>2022-06-25T12:02:31Z</time>
      </trkpt>
      <trkpt lat="46.35655" lon="4.72742">
        <ele>285</ele>
        <time>2022-06-25T12:02:32Z</time>
      </trkpt>
      <trkpt lat="46.3565" lon="4.72738">
        <ele>285</ele>
        <time>2022-06-25T12:02:33Z</time>
      </trkpt>
      <trkpt lat="46.35645" lon="4.72734">
        <ele>285.2</ele>
        <time>2022-06-25T12:02:34Z</time>
      </trkpt>
      <trkpt lat="46.35639" lon="4.72729">
        <ele>285.2</ele>
        <time>2022-06-25T12:02:35Z</time>
      </trkpt>
      <trkpt lat="46.35634" lon="4.72725">
        <ele>285.2</ele>
        <time>2022-06-25T12:02:36Z</time>
      </trkpt>
      <trkpt lat="46.35629" lon="4.72721">
        <ele>285.2</ele>
        <time>2022-06-25T12:02:37Z</time>
      </trkpt>
      <trkpt lat="46.35624" lon="4.72717">
        <ele>285.2</ele>
        <time>2022-06-25T12:02:38Z</time>
      </trkpt>
      <trkpt lat="46.35618" lon="4.72712">
        <ele>285.2</ele>
        <time>2022-06-25T12:02:39Z</time>
      </trkpt>
      <trkpt lat="46.35613" lon="4.72708">
        <ele>284.8</ele>
        <time>2022-06-25T12:02:40Z</time>
      </trkpt>
      <trkpt lat="46.35608" lon="4.72704">
        <ele>284.8</ele>
        <time>2022-06-25T12:02:41Z</time>
      </trkpt>
      <trkpt lat="46.35603" lon="4.72699">
        <ele>284.8</ele>
        <time>2022-06-25T12:02:42Z</time>
      </trkpt>
      <trkpt lat="46.35597" lon="4.72694">
        <ele>284.8</ele>
        <time>2022-06-25T12:02:43Z</time>
      </trkpt>
      <trkpt lat="46.35592" lon="4.7269">
        <ele>284.8</ele>
        <time>2022-06-25T12:02:44Z</time>
      </trkpt>
      <trkpt lat="46.35587" lon="4.72685">
        <ele>284.6</ele>
        <time>2022-06-25T12:02:45Z</time>
      </trkpt>
      <trkpt lat="46.35581" lon="4.72681">
        <ele>284.6</ele>
        <time>2022-06-25T12:02:46Z</time>
      </trkpt>
      <trkpt lat="46.35576" lon="4.72676">
        <ele>284.6</ele>
        <time>2022-06-25T12:02:47Z</time>
      </trkpt>
      <trkpt lat="46.3557" lon="4.72671">
        <ele>284.6</ele>
        <time>2022-06-25T12:02:48Z</time>
      </trkpt>
      <trkpt lat="46.35565" lon="4.72666">
        <ele>284.4</ele>
        <time>2022-06-25T12:02:49Z</time>
      </trkpt>
      <trkpt lat="46.35559" lon="4.72661">
        <ele>284.4</ele>
        <time>2022-06-25T12:02:50Z</time>
      </trkpt>
      <trkpt lat="46.35554" lon="4.72656">
        <ele>284.4</ele>
        <time>2022-06-25T12:02:51Z</time>
      </trkpt>
      <trkpt lat="46.35548" lon="4.72651">
        <ele>284.4</ele>
        <time>2022-06-25T12:02:52Z</time>
      </trkpt>
      <trkpt lat="46.35543" lon="4.72645">
        <ele>284.4</ele>
        <time>2022-06-25T12:02:53Z</time>
      </trkpt>
      <trkpt lat="46.35537" lon="4.7264">
        <ele>284</ele>
        <time>2022-06-25T12:02:54Z</time>
      </trkpt>
      <trkpt lat="46.35532" lon="4.72635">
        <ele>284</ele>
        <time>2022-06-25T12:02:55Z</time>
      </trkpt>
      <trkpt lat="46.35527" lon="4.7263">
        <ele>284</ele>
        <time>2022-06-25T12:02:56Z</time>
      </trkpt>
      <trkpt lat="46.35521" lon="4.72625">
        <ele>283.8</ele>
        <time>2022-06-25T12:02:57Z</time>
      </trkpt>
      <trkpt lat="46.35516" lon="4.7262">
        <ele>283.4</ele>
        <time>2022-06-25T12:02:58Z</time>
      </trkpt>
      <trkpt lat="46.3551" lon="4.72614">
        <ele>283.4</ele>
        <time>2022-06-25T12:02:59Z</time>
      </trkpt>
      <trkpt lat="46.35505" lon="4.72609">
        <ele>283.2</ele>
        <time>2022-06-25T12:03:00Z</time>
      </trkpt>
      <trkpt lat="46.35499" lon="4.72604">
        <ele>283.2</ele>
        <time>2022-06-25T12:03:01Z</time>
      </trkpt>
      <trkpt lat="46.35492" lon="4.72599">
        <ele>282.8</ele>
        <time>2022-06-25T12:03:02Z</time>
      </trkpt>
      <trkpt lat="46.35486" lon="4.72594">
        <ele>282.8</ele>
        <time>2022-06-25T12:03:03Z</time>
      </trkpt>
      <trkpt lat="46.35479" lon="4.72589">
        <ele>282.6</ele>
        <time>2022-06-25T12:03:04Z</time>
      </trkpt>
      <trkpt lat="46.35472" lon="4.72585">
        <ele>282.6</ele>
        <time>2022-06-25T12:03:05Z</time>
      </trkpt>
      <trkpt lat="46.35465" lon="4.72582">
        <ele>282.4</ele>
        <time>2022-06-25T12:03:06Z</time>
      </trkpt>
      <trkpt lat="46.35458" lon="4.72579">
        <ele>282.4</ele>
        <time>2022-06-25T12:03:07Z</time>
      </trkpt>
      <trkpt lat="46.35451" lon="4.72576">
        <ele>282.4</ele>
        <time>2022-06-25T12:03:08Z</time>
      </trkpt>
      <trkpt lat="46.35444" lon="4.72573">
        <ele>282.4</ele>
        <time>2022-06-25T12:03:09Z</time>
      </trkpt>
      <trkpt lat="46.35437" lon="4.72571">
        <ele>282.4</ele>
        <time>2022-06-25T12:03:10Z</time>
      </trkpt>
      <trkpt lat="46.3543" lon="4.72568">
        <ele>282.4</ele>
        <time>2022-06-25T12:03:11Z</time>
      </trkpt>
      <trkpt lat="46.35424" lon="4.72565">
        <ele>282.2</ele>
        <time>2022-06-25T12:03:12Z</time>
      </trkpt>
      <trkpt lat="46.35417" lon="4.72563">
        <ele>282.2</ele>
        <time>2022-06-25T12:03:13Z</time>
      </trkpt>
      <trkpt lat="46.3541" lon="4.72561">
        <ele>282.2</ele>
        <time>2022-06-25T12:03:14Z</time>
      </trkpt>
      <trkpt lat="46.35404" lon="4.72558">
        <ele>282.2</ele>
        <time>2022-06-25T12:03:15Z</time>
      </trkpt>
      <trkpt lat="46.35398" lon="4.72556">
        <ele>282.2</ele>
        <time>2022-06-25T12:03:16Z</time>
      </trkpt>
      <trkpt lat="46.35391" lon="4.72553">
        <ele>282.2</ele>
        <time>2022-06-25T12:03:17Z</time>
      </trkpt>
      <trkpt lat="46.35385" lon="4.72551">
        <ele>282.2</ele>
        <time>2022-06-25T12:03:18Z</time>
      </trkpt>
      <trkpt lat="46.35379" lon="4.72548">
        <ele>282.2</ele>
        <time>2022-06-25T12:03:19Z</time>
      </trkpt>
      <trkpt lat="46.35373" lon="4.72546">
        <ele>282.2</ele>
        <time>2022-06-25T12:03:20Z</time>
      </trkpt>
      <trkpt lat="46.35367" lon="4.72544">
        <ele>282.4</ele>
        <time>2022-06-25T12:03:21Z</time>
      </trkpt>
      <trkpt lat="46.35362" lon="4.72542">
        <ele>282.4</ele>
        <time>2022-06-25T12:03:22Z</time>
      </trkpt>
      <trkpt lat="46.3535" lon="4.72538">
        <ele>282.4</ele>
        <time>2022-06-25T12:03:23Z</time>
      </trkpt>
      <trkpt lat="46.35344" lon="4.72536">
        <ele>282.4</ele>
        <time>2022-06-25T12:03:24Z</time>
      </trkpt>
      <trkpt lat="46.35339" lon="4.72534">
        <ele>282.4</ele>
        <time>2022-06-25T12:03:25Z</time>
      </trkpt>
      <trkpt lat="46.35333" lon="4.72533">
        <ele>282.6</ele>
        <time>2022-06-25T12:03:26Z</time>
      </trkpt>
      <trkpt lat="46.35328" lon="4.72531">
        <ele>282.6</ele>
        <time>2022-06-25T12:03:27Z</time>
      </trkpt>
      <trkpt lat="46.35322" lon="4.7253">
        <ele>282.8</ele>
        <time>2022-06-25T12:03:28Z</time>
      </trkpt>
      <trkpt lat="46.35317" lon="4.72528">
        <ele>282.8</ele>
        <time>2022-06-25T12:03:29Z</time>
      </trkpt>
      <trkpt lat="46.35312" lon="4.72527">
        <ele>282.8</ele>
        <time>2022-06-25T12:03:30Z</time>
      </trkpt>
      <trkpt lat="46.35307" lon="4.72525">
        <ele>282.8</ele>
        <time>2022-06-25T12:03:31Z</time>
      </trkpt>
      <trkpt lat="46.35301" lon="4.72524">
        <ele>283</ele>
        <time>2022-06-25T12:03:32Z</time>
      </trkpt>
      <trkpt lat="46.35296" lon="4.72521">
        <ele>283.2</ele>
        <time>2022-06-25T12:03:33Z</time>
      </trkpt>
      <trkpt lat="46.35291" lon="4.72519">
        <ele>283.2</ele>
        <time>2022-06-25T12:03:34Z</time>
      </trkpt>
      <trkpt lat="46.35286" lon="4.72517">
        <ele>283.6</ele>
        <time>2022-06-25T12:03:35Z</time>
      </trkpt>
      <trkpt lat="46.35282" lon="4.72515">
        <ele>283.6</ele>
        <time>2022-06-25T12:03:36Z</time>
      </trkpt>
      <trkpt lat="46.35277" lon="4.72513">
        <ele>283.8</ele>
        <time>2022-06-25T12:03:37Z</time>
      </trkpt>
      <trkpt lat="46.35273" lon="4.72511">
        <ele>283.8</ele>
        <time>2022-06-25T12:03:38Z</time>
      </trkpt>
      <trkpt lat="46.35268" lon="4.72508">
        <ele>284.2</ele>
        <time>2022-06-25T12:03:39Z</time>
      </trkpt>
      <trkpt lat="46.35264" lon="4.72506">
        <ele>284.2</ele>
        <time>2022-06-25T12:03:40Z</time>
      </trkpt>
      <trkpt lat="46.35259" lon="4.72504">
        <ele>284.4</ele>
        <time>2022-06-25T12:03:41Z</time>
      </trkpt>
      <trkpt lat="46.35255" lon="4.72502">
        <ele>284.4</ele>
        <time>2022-06-25T12:03:42Z</time>
      </trkpt>
      <trkpt lat="46.35251" lon="4.725">
        <ele>284.8</ele>
        <time>2022-06-25T12:03:43Z</time>
      </trkpt>
      <trkpt lat="46.35247" lon="4.72498">
        <ele>284.8</ele>
        <time>2022-06-25T12:03:44Z</time>
      </trkpt>
      <trkpt lat="46.35242" lon="4.72496">
        <ele>285.2</ele>
        <time>2022-06-25T12:03:45Z</time>
      </trkpt>
      <trkpt lat="46.35238" lon="4.72494">
        <ele>285.2</ele>
        <time>2022-06-25T12:03:46Z</time>
      </trkpt>
      <trkpt lat="46.35234" lon="4.72492">
        <ele>285.4</ele>
        <time>2022-06-25T12:03:47Z</time>
      </trkpt>
      <trkpt lat="46.3523" lon="4.7249">
        <ele>286</ele>
        <time>2022-06-25T12:03:48Z</time>
      </trkpt>
      <trkpt lat="46.35226" lon="4.72489">
        <ele>286</ele>
        <time>2022-06-25T12:03:49Z</time>
      </trkpt>
      <trkpt lat="46.35222" lon="4.72487">
        <ele>286.2</ele>
        <time>2022-06-25T12:03:50Z</time>
      </trkpt>
      <trkpt lat="46.35218" lon="4.72486">
        <ele>286.2</ele>
        <time>2022-06-25T12:03:51Z</time>
      </trkpt>
      <trkpt lat="46.35214" lon="4.72484">
        <ele>286.2</ele>
        <time>2022-06-25T12:03:52Z</time>
      </trkpt>
      <trkpt lat="46.3521" lon="4.72483">
        <ele>286.6</ele>
        <time>2022-06-25T12:03:53Z</time>
      </trkpt>
      <trkpt lat="46.35206" lon="4.72481">
        <ele>286.8</ele>
        <time>2022-06-25T12:03:54Z</time>
      </trkpt>
      <trkpt lat="46.35202" lon="4.72479">
        <ele>286.8</ele>
        <time>2022-06-25T12:03:55Z</time>
      </trkpt>
      <trkpt lat="46.35197" lon="4.72477">
        <ele>286.8</ele>
        <time>2022-06-25T12:03:56Z</time>
      </trkpt>
      <trkpt lat="46.35193" lon="4.72476">
        <ele>287</ele>
        <time>2022-06-25T12:03:57Z</time>
      </trkpt>
      <trkpt lat="46.35189" lon="4.72474">
        <ele>287</ele>
        <time>2022-06-25T12:03:58Z</time>
      </trkpt>
      <trkpt lat="46.35184" lon="4.72472">
        <ele>287</ele>
        <time>2022-06-25T12:03:59Z</time>
      </trkpt>
      <trkpt lat="46.3518" lon="4.7247">
        <ele>287</ele>
        <time>2022-06-25T12:04:00Z</time>
      </trkpt>
      <trkpt lat="46.35175" lon="4.72468">
        <ele>287.4</ele>
        <time>2022-06-25T12:04:01Z</time>
      </trkpt>
      <trkpt lat="46.35171" lon="4.72466">
        <ele>287.4</ele>
        <time>2022-06-25T12:04:02Z</time>
      </trkpt>
      <trkpt lat="46.35166" lon="4.72464">
        <ele>287.4</ele>
        <time>2022-06-25T12:04:03Z</time>
      </trkpt>
      <trkpt lat="46.35162" lon="4.72463">
        <ele>287.4</ele>
        <time>2022-06-25T12:04:04Z</time>
      </trkpt>
      <trkpt lat="46.35157" lon="4.72461">
        <ele>287.6</ele>
        <time>2022-06-25T12:04:05Z</time>
      </trkpt>
      <trkpt lat="46.35153" lon="4.72459">
        <ele>287.6</ele>
        <time>2022-06-25T12:04:06Z</time>
      </trkpt>
      <trkpt lat="46.35148" lon="4.72456">
        <ele>287.6</ele>
        <time>2022-06-25T12:04:07Z</time>
      </trkpt>
      <trkpt lat="46.35143" lon="4.72454">
        <ele>287.8</ele>
        <time>2022-06-25T12:04:08Z</time>
      </trkpt>
      <trkpt lat="46.35139" lon="4.72453">
        <ele>287.8</ele>
        <time>2022-06-25T12:04:09Z</time>
      </trkpt>
      <trkpt lat="46.35134" lon="4.72451">
        <ele>287.8</ele>
        <time>2022-06-25T12:04:10Z</time>
      </trkpt>
      <trkpt lat="46.35129" lon="4.72449">
        <ele>287.8</ele>
        <time>2022-06-25T12:04:11Z</time>
      </trkpt>
      <trkpt lat="46.35124" lon="4.72447">
        <ele>287.8</ele>
        <time>2022-06-25T12:04:12Z</time>
      </trkpt>
      <trkpt lat="46.35119" lon="4.72444">
        <ele>287.8</ele>
        <time>2022-06-25T12:04:13Z</time>
      </trkpt>
      <trkpt lat="46.35114" lon="4.72442">
        <ele>287.8</ele>
        <time>2022-06-25T12:04:14Z</time>
      </trkpt>
      <trkpt lat="46.35109" lon="4.7244">
        <ele>287.6</ele>
        <time>2022-06-25T12:04:15Z</time>
      </trkpt>
      <trkpt lat="46.35104" lon="4.72437">
        <ele>287.2</ele>
        <time>2022-06-25T12:04:16Z</time>
      </trkpt>
      <trkpt lat="46.35098" lon="4.72435">
        <ele>287</ele>
        <time>2022-06-25T12:04:17Z</time>
      </trkpt>
      <trkpt lat="46.35093" lon="4.72432">
        <ele>286.8</ele>
        <time>2022-06-25T12:04:18Z</time>
      </trkpt>
      <trkpt lat="46.35087" lon="4.72429">
        <ele>286.4</ele>
        <time>2022-06-25T12:04:19Z</time>
      </trkpt>
      <trkpt lat="46.35082" lon="4.72425">
        <ele>286.4</ele>
        <time>2022-06-25T12:04:20Z</time>
      </trkpt>
      <trkpt lat="46.35076" lon="4.72421">
        <ele>286.4</ele>
        <time>2022-06-25T12:04:21Z</time>
      </trkpt>
      <trkpt lat="46.3507" lon="4.72417">
        <ele>286.2</ele>
        <time>2022-06-25T12:04:22Z</time>
      </trkpt>
      <trkpt lat="46.35064" lon="4.72413">
        <ele>285.8</ele>
        <time>2022-06-25T12:04:23Z</time>
      </trkpt>
      <trkpt lat="46.35058" lon="4.72408">
        <ele>285.6</ele>
        <time>2022-06-25T12:04:24Z</time>
      </trkpt>
      <trkpt lat="46.35052" lon="4.72403">
        <ele>285</ele>
        <time>2022-06-25T12:04:25Z</time>
      </trkpt>
      <trkpt lat="46.35046" lon="4.72397">
        <ele>284.4</ele>
        <time>2022-06-25T12:04:26Z</time>
      </trkpt>
      <trkpt lat="46.35041" lon="4.72391">
        <ele>284</ele>
        <time>2022-06-25T12:04:27Z</time>
      </trkpt>
      <trkpt lat="46.35035" lon="4.72384">
        <ele>283.6</ele>
        <time>2022-06-25T12:04:28Z</time>
      </trkpt>
      <trkpt lat="46.35029" lon="4.72378">
        <ele>283</ele>
        <time>2022-06-25T12:04:29Z</time>
      </trkpt>
      <trkpt lat="46.35022" lon="4.72372">
        <ele>282.6</ele>
        <time>2022-06-25T12:04:30Z</time>
      </trkpt>
      <trkpt lat="46.35015" lon="4.72366">
        <ele>282.2</ele>
        <time>2022-06-25T12:04:31Z</time>
      </trkpt>
      <trkpt lat="46.35008" lon="4.72362">
        <ele>281.8</ele>
        <time>2022-06-25T12:04:32Z</time>
      </trkpt>
      <trkpt lat="46.35001" lon="4.72358">
        <ele>281.4</ele>
        <time>2022-06-25T12:04:33Z</time>
      </trkpt>
      <trkpt lat="46.34992" lon="4.72355">
        <ele>280.8</ele>
        <time>2022-06-25T12:04:34Z</time>
      </trkpt>
      <trkpt lat="46.34984" lon="4.72353">
        <ele>280.4</ele>
        <time>2022-06-25T12:04:35Z</time>
      </trkpt>
      <trkpt lat="46.34975" lon="4.72352">
        <ele>279.8</ele>
        <time>2022-06-25T12:04:36Z</time>
      </trkpt>
      <trkpt lat="46.34966" lon="4.72352">
        <ele>279.4</ele>
        <time>2022-06-25T12:04:37Z</time>
      </trkpt>
      <trkpt lat="46.34957" lon="4.72352">
        <ele>279</ele>
        <time>2022-06-25T12:04:38Z</time>
      </trkpt>
      <trkpt lat="46.34947" lon="4.72352">
        <ele>278.4</ele>
        <time>2022-06-25T12:04:39Z</time>
      </trkpt>
      <trkpt lat="46.34937" lon="4.72353">
        <ele>277.8</ele>
        <time>2022-06-25T12:04:40Z</time>
      </trkpt>
      <trkpt lat="46.34928" lon="4.72354">
        <ele>277.2</ele>
        <time>2022-06-25T12:04:41Z</time>
      </trkpt>
      <trkpt lat="46.34917" lon="4.72354">
        <ele>276.6</ele>
        <time>2022-06-25T12:04:42Z</time>
      </trkpt>
      <trkpt lat="46.34907" lon="4.72353">
        <ele>275.8</ele>
        <time>2022-06-25T12:04:43Z</time>
      </trkpt>
      <trkpt lat="46.34897" lon="4.72353">
        <ele>275.2</ele>
        <time>2022-06-25T12:04:44Z</time>
      </trkpt>
      <trkpt lat="46.34886" lon="4.72352">
        <ele>274.6</ele>
        <time>2022-06-25T12:04:45Z</time>
      </trkpt>
      <trkpt lat="46.34876" lon="4.72352">
        <ele>274.2</ele>
        <time>2022-06-25T12:04:46Z</time>
      </trkpt>
      <trkpt lat="46.34867" lon="4.72352">
        <ele>273.6</ele>
        <time>2022-06-25T12:04:47Z</time>
      </trkpt>
      <trkpt lat="46.34857" lon="4.72353">
        <ele>273.2</ele>
        <time>2022-06-25T12:04:48Z</time>
      </trkpt>
      <trkpt lat="46.34847" lon="4.72351">
        <ele>272.8</ele>
        <time>2022-06-25T12:04:49Z</time>
      </trkpt>
      <trkpt lat="46.34837" lon="4.72349">
        <ele>272.2</ele>
        <time>2022-06-25T12:04:50Z</time>
      </trkpt>
      <trkpt lat="46.34827" lon="4.72349">
        <ele>271.6</ele>
        <time>2022-06-25T12:04:51Z</time>
      </trkpt>
      <trkpt lat="46.34817" lon="4.72348">
        <ele>271</ele>
        <time>2022-06-25T12:04:52Z</time>
      </trkpt>
      <trkpt lat="46.34806" lon="4.72347">
        <ele>270.8</ele>
        <time>2022-06-25T12:04:53Z</time>
      </trkpt>
      <trkpt lat="46.34795" lon="4.72347">
        <ele>270.4</ele>
        <time>2022-06-25T12:04:54Z</time>
      </trkpt>
      <trkpt lat="46.34785" lon="4.72348">
        <ele>270</ele>
        <time>2022-06-25T12:04:55Z</time>
      </trkpt>
      <trkpt lat="46.34774" lon="4.72347">
        <ele>269.4</ele>
        <time>2022-06-25T12:04:56Z</time>
      </trkpt>
      <trkpt lat="46.34764" lon="4.72345">
        <ele>268.8</ele>
        <time>2022-06-25T12:04:57Z</time>
      </trkpt>
      <trkpt lat="46.34754" lon="4.72344">
        <ele>268.4</ele>
        <time>2022-06-25T12:04:58Z</time>
      </trkpt>
      <trkpt lat="46.34743" lon="4.72343">
        <ele>268</ele>
        <time>2022-06-25T12:04:59Z</time>
      </trkpt>
      <trkpt lat="46.34733" lon="4.72342">
        <ele>267.4</ele>
        <time>2022-06-25T12:05:00Z</time>
      </trkpt>
      <trkpt lat="46.34723" lon="4.72342">
        <ele>266.8</ele>
        <time>2022-06-25T12:05:01Z</time>
      </trkpt>
      <trkpt lat="46.34712" lon="4.7234">
        <ele>266.4</ele>
        <time>2022-06-25T12:05:02Z</time>
      </trkpt>
      <trkpt lat="46.34701" lon="4.72338">
        <ele>265.6</ele>
        <time>2022-06-25T12:05:03Z</time>
      </trkpt>
      <trkpt lat="46.34691" lon="4.72336">
        <ele>265</ele>
        <time>2022-06-25T12:05:04Z</time>
      </trkpt>
      <trkpt lat="46.34681" lon="4.72333">
        <ele>264.6</ele>
        <time>2022-06-25T12:05:05Z</time>
      </trkpt>
      <trkpt lat="46.3467" lon="4.72333">
        <ele>264.2</ele>
        <time>2022-06-25T12:05:06Z</time>
      </trkpt>
      <trkpt lat="46.3466" lon="4.72332">
        <ele>263.6</ele>
        <time>2022-06-25T12:05:07Z</time>
      </trkpt>
      <trkpt lat="46.3465" lon="4.72329">
        <ele>263.2</ele>
        <time>2022-06-25T12:05:08Z</time>
      </trkpt>
      <trkpt lat="46.34639" lon="4.72327">
        <ele>262.4</ele>
        <time>2022-06-25T12:05:09Z</time>
      </trkpt>
      <trkpt lat="46.34629" lon="4.72325">
        <ele>261.8</ele>
        <time>2022-06-25T12:05:10Z</time>
      </trkpt>
      <trkpt lat="46.34618" lon="4.72324">
        <ele>261.2</ele>
        <time>2022-06-25T12:05:11Z</time>
      </trkpt>
      <trkpt lat="46.34608" lon="4.72322">
        <ele>260.8</ele>
        <time>2022-06-25T12:05:12Z</time>
      </trkpt>
      <trkpt lat="46.34597" lon="4.7232">
        <ele>260.4</ele>
        <time>2022-06-25T12:05:13Z</time>
      </trkpt>
      <trkpt lat="46.34587" lon="4.72319">
        <ele>260.2</ele>
        <time>2022-06-25T12:05:14Z</time>
      </trkpt>
      <trkpt lat="46.34577" lon="4.72318">
        <ele>259.8</ele>
        <time>2022-06-25T12:05:15Z</time>
      </trkpt>
      <trkpt lat="46.34568" lon="4.72317">
        <ele>259.2</ele>
        <time>2022-06-25T12:05:16Z</time>
      </trkpt>
      <trkpt lat="46.34559" lon="4.72316">
        <ele>259</ele>
        <time>2022-06-25T12:05:17Z</time>
      </trkpt>
      <trkpt lat="46.34552" lon="4.72315">
        <ele>258.6</ele>
        <time>2022-06-25T12:05:18Z</time>
      </trkpt>
      <trkpt lat="46.34545" lon="4.72314">
        <ele>258</ele>
        <time>2022-06-25T12:05:19Z</time>
      </trkpt>
      <trkpt lat="46.34538" lon="4.72313">
        <ele>257.4</ele>
        <time>2022-06-25T12:05:20Z</time>
      </trkpt>
      <trkpt lat="46.34533" lon="4.72308">
        <ele>257</ele>
        <time>2022-06-25T12:05:21Z</time>
      </trkpt>
      <trkpt lat="46.34529" lon="4.72302">
        <ele>256.6</ele>
        <time>2022-06-25T12:05:22Z</time>
      </trkpt>
      <trkpt lat="46.34525" lon="4.72295">
        <ele>256.2</ele>
        <time>2022-06-25T12:05:23Z</time>
      </trkpt>
      <trkpt lat="46.34523" lon="4.72287">
        <ele>255.6</ele>
        <time>2022-06-25T12:05:24Z</time>
      </trkpt>
      <trkpt lat="46.34522" lon="4.72278">
        <ele>255.4</ele>
        <time>2022-06-25T12:05:25Z</time>
      </trkpt>
      <trkpt lat="46.34522" lon="4.72269">
        <ele>255.4</ele>
        <time>2022-06-25T12:05:26Z</time>
      </trkpt>
      <trkpt lat="46.34523" lon="4.72259">
        <ele>255</ele>
        <time>2022-06-25T12:05:27Z</time>
      </trkpt>
      <trkpt lat="46.34523" lon="4.7225">
        <ele>255</ele>
        <time>2022-06-25T12:05:28Z</time>
      </trkpt>
      <trkpt lat="46.34522" lon="4.72241">
        <ele>254.8</ele>
        <time>2022-06-25T12:05:29Z</time>
      </trkpt>
      <trkpt lat="46.34522" lon="4.72232">
        <ele>254.8</ele>
        <time>2022-06-25T12:05:30Z</time>
      </trkpt>
      <trkpt lat="46.34522" lon="4.72223">
        <ele>254.8</ele>
        <time>2022-06-25T12:05:31Z</time>
      </trkpt>
      <trkpt lat="46.34522" lon="4.72214">
        <ele>254.8</ele>
        <time>2022-06-25T12:05:32Z</time>
      </trkpt>
      <trkpt lat="46.34521" lon="4.72205">
        <ele>254.8</ele>
        <time>2022-06-25T12:05:33Z</time>
      </trkpt>
      <trkpt lat="46.34521" lon="4.72197">
        <ele>254.8</ele>
        <time>2022-06-25T12:05:34Z</time>
      </trkpt>
      <trkpt lat="46.34521" lon="4.72189">
        <ele>254.8</ele>
        <time>2022-06-25T12:05:35Z</time>
      </trkpt>
      <trkpt lat="46.34521" lon="4.72182">
        <ele>254.8</ele>
        <time>2022-06-25T12:05:36Z</time>
      </trkpt>
      <trkpt lat="46.3452" lon="4.72176">
        <ele>254.8</ele>
        <time>2022-06-25T12:05:37Z</time>
      </trkpt>
      <trkpt lat="46.34519" lon="4.72171">
        <ele>254.8</ele>
        <time>2022-06-25T12:05:38Z</time>
      </trkpt>
      <trkpt lat="46.34518" lon="4.72166">
        <ele>254.8</ele>
        <time>2022-06-25T12:05:39Z</time>
      </trkpt>
      <trkpt lat="46.34517" lon="4.7216">
        <ele>254.8</ele>
        <time>2022-06-25T12:05:40Z</time>
      </trkpt>
      <trkpt lat="46.34516" lon="4.72155">
        <ele>254.8</ele>
        <time>2022-06-25T12:05:41Z</time>
      </trkpt>
      <trkpt lat="46.34514" lon="4.72149">
        <ele>254.8</ele>
        <time>2022-06-25T12:05:42Z</time>
      </trkpt>
      <trkpt lat="46.34513" lon="4.72143">
        <ele>254.8</ele>
        <time>2022-06-25T12:05:43Z</time>
      </trkpt>
      <trkpt lat="46.34513" lon="4.72137">
        <ele>254.8</ele>
        <time>2022-06-25T12:05:44Z</time>
      </trkpt>
      <trkpt lat="46.34513" lon="4.72131">
        <ele>254.8</ele>
        <time>2022-06-25T12:05:45Z</time>
      </trkpt>
      <trkpt lat="46.34514" lon="4.72125">
        <ele>254.8</ele>
        <time>2022-06-25T12:05:46Z</time>
      </trkpt>
      <trkpt lat="46.34514" lon="4.7212">
        <ele>254.4</ele>
        <time>2022-06-25T12:05:47Z</time>
      </trkpt>
      <trkpt lat="46.34516" lon="4.72116">
        <ele>254.4</ele>
        <time>2022-06-25T12:05:48Z</time>
      </trkpt>
      <trkpt lat="46.34517" lon="4.72111">
        <ele>254.4</ele>
        <time>2022-06-25T12:05:49Z</time>
      </trkpt>
      <trkpt lat="46.3452" lon="4.72108">
        <ele>254.4</ele>
        <time>2022-06-25T12:05:50Z</time>
      </trkpt>
      <trkpt lat="46.34522" lon="4.72104">
        <ele>254.4</ele>
        <time>2022-06-25T12:05:51Z</time>
      </trkpt>
      <trkpt lat="46.34526" lon="4.721">
        <ele>254.4</ele>
        <time>2022-06-25T12:05:52Z</time>
      </trkpt>
      <trkpt lat="46.34529" lon="4.72095">
        <ele>254.4</ele>
        <time>2022-06-25T12:05:53Z</time>
      </trkpt>
      <trkpt lat="46.34531" lon="4.72091">
        <ele>254.4</ele>
        <time>2022-06-25T12:05:54Z</time>
      </trkpt>
      <trkpt lat="46.34534" lon="4.72087">
        <ele>254.6</ele>
        <time>2022-06-25T12:05:55Z</time>
      </trkpt>
      <trkpt lat="46.34536" lon="4.72083">
        <ele>254.6</ele>
        <time>2022-06-25T12:05:56Z</time>
      </trkpt>
      <trkpt lat="46.34539" lon="4.72078">
        <ele>255</ele>
        <time>2022-06-25T12:05:57Z</time>
      </trkpt>
      <trkpt lat="46.34542" lon="4.72073">
        <ele>255</ele>
        <time>2022-06-25T12:05:58Z</time>
      </trkpt>
      <trkpt lat="46.34545" lon="4.72069">
        <ele>255.2</ele>
        <time>2022-06-25T12:05:59Z</time>
      </trkpt>
      <trkpt lat="46.34548" lon="4.72064">
        <ele>255.2</ele>
        <time>2022-06-25T12:06:00Z</time>
      </trkpt>
      <trkpt lat="46.34551" lon="4.72059">
        <ele>255.2</ele>
        <time>2022-06-25T12:06:01Z</time>
      </trkpt>
      <trkpt lat="46.34554" lon="4.72054">
        <ele>255.4</ele>
        <time>2022-06-25T12:06:02Z</time>
      </trkpt>
      <trkpt lat="46.34557" lon="4.7205">
        <ele>255.4</ele>
        <time>2022-06-25T12:06:03Z</time>
      </trkpt>
      <trkpt lat="46.34559" lon="4.72045">
        <ele>255.4</ele>
        <time>2022-06-25T12:06:04Z</time>
      </trkpt>
      <trkpt lat="46.34563" lon="4.7204">
        <ele>255.6</ele>
        <time>2022-06-25T12:06:05Z</time>
      </trkpt>
      <trkpt lat="46.34566" lon="4.72035">
        <ele>255.6</ele>
        <time>2022-06-25T12:06:06Z</time>
      </trkpt>
      <trkpt lat="46.34569" lon="4.7203">
        <ele>255.6</ele>
        <time>2022-06-25T12:06:07Z</time>
      </trkpt>
      <trkpt lat="46.34573" lon="4.72025">
        <ele>255.6</ele>
        <time>2022-06-25T12:06:08Z</time>
      </trkpt>
      <trkpt lat="46.34576" lon="4.7202">
        <ele>255.6</ele>
        <time>2022-06-25T12:06:09Z</time>
      </trkpt>
      <trkpt lat="46.3458" lon="4.72015">
        <ele>255.8</ele>
        <time>2022-06-25T12:06:10Z</time>
      </trkpt>
      <trkpt lat="46.34584" lon="4.72009">
        <ele>255.8</ele>
        <time>2022-06-25T12:06:11Z</time>
      </trkpt>
      <trkpt lat="46.34588" lon="4.72003">
        <ele>255.8</ele>
        <time>2022-06-25T12:06:13Z</time>
      </trkpt>
      <trkpt lat="46.34593" lon="4.71997">
        <ele>255.8</ele>
        <time>2022-06-25T12:06:14Z</time>
      </trkpt>
      <trkpt lat="46.34598" lon="4.71991">
        <ele>255.8</ele>
        <time>2022-06-25T12:06:15Z</time>
      </trkpt>
      <trkpt lat="46.34602" lon="4.71984">
        <ele>255.8</ele>
        <time>2022-06-25T12:06:16Z</time>
      </trkpt>
      <trkpt lat="46.34607" lon="4.71977">
        <ele>255.6</ele>
        <time>2022-06-25T12:06:17Z</time>
      </trkpt>
      <trkpt lat="46.34612" lon="4.7197">
        <ele>255.6</ele>
        <time>2022-06-25T12:06:18Z</time>
      </trkpt>
      <trkpt lat="46.34618" lon="4.71963">
        <ele>255.6</ele>
        <time>2022-06-25T12:06:19Z</time>
      </trkpt>
      <trkpt lat="46.34623" lon="4.71956">
        <ele>255.4</ele>
        <time>2022-06-25T12:06:20Z</time>
      </trkpt>
      <trkpt lat="46.34629" lon="4.71948">
        <ele>255.4</ele>
        <time>2022-06-25T12:06:21Z</time>
      </trkpt>
      <trkpt lat="46.34634" lon="4.71941">
        <ele>255.4</ele>
        <time>2022-06-25T12:06:22Z</time>
      </trkpt>
      <trkpt lat="46.3464" lon="4.71933">
        <ele>255.4</ele>
        <time>2022-06-25T12:06:23Z</time>
      </trkpt>
      <trkpt lat="46.34646" lon="4.71925">
        <ele>255.2</ele>
        <time>2022-06-25T12:06:24Z</time>
      </trkpt>
      <trkpt lat="46.34652" lon="4.71917">
        <ele>255.2</ele>
        <time>2022-06-25T12:06:25Z</time>
      </trkpt>
      <trkpt lat="46.34657" lon="4.71909">
        <ele>255.2</ele>
        <time>2022-06-25T12:06:26Z</time>
      </trkpt>
      <trkpt lat="46.34663" lon="4.71901">
        <ele>255</ele>
        <time>2022-06-25T12:06:27Z</time>
      </trkpt>
      <trkpt lat="46.34669" lon="4.71892">
        <ele>255</ele>
        <time>2022-06-25T12:06:28Z</time>
      </trkpt>
      <trkpt lat="46.34675" lon="4.71884">
        <ele>255</ele>
        <time>2022-06-25T12:06:29Z</time>
      </trkpt>
      <trkpt lat="46.34681" lon="4.71875">
        <ele>255</ele>
        <time>2022-06-25T12:06:30Z</time>
      </trkpt>
      <trkpt lat="46.34687" lon="4.71867">
        <ele>255</ele>
        <time>2022-06-25T12:06:31Z</time>
      </trkpt>
      <trkpt lat="46.34692" lon="4.71859">
        <ele>255</ele>
        <time>2022-06-25T12:06:32Z</time>
      </trkpt>
      <trkpt lat="46.34698" lon="4.71852">
        <ele>255</ele>
        <time>2022-06-25T12:06:33Z</time>
      </trkpt>
      <trkpt lat="46.34703" lon="4.71844">
        <ele>255</ele>
        <time>2022-06-25T12:06:34Z</time>
      </trkpt>
      <trkpt lat="46.34708" lon="4.71836">
        <ele>255</ele>
        <time>2022-06-25T12:06:35Z</time>
      </trkpt>
      <trkpt lat="46.34713" lon="4.71829">
        <ele>255.2</ele>
        <time>2022-06-25T12:06:36Z</time>
      </trkpt>
      <trkpt lat="46.34718" lon="4.71822">
        <ele>255.2</ele>
        <time>2022-06-25T12:06:37Z</time>
      </trkpt>
      <trkpt lat="46.34723" lon="4.71814">
        <ele>255.6</ele>
        <time>2022-06-25T12:06:38Z</time>
      </trkpt>
      <trkpt lat="46.34728" lon="4.71807">
        <ele>255.6</ele>
        <time>2022-06-25T12:06:39Z</time>
      </trkpt>
      <trkpt lat="46.34734" lon="4.718">
        <ele>256</ele>
        <time>2022-06-25T12:06:40Z</time>
      </trkpt>
      <trkpt lat="46.34738" lon="4.71792">
        <ele>256</ele>
        <time>2022-06-25T12:06:41Z</time>
      </trkpt>
      <trkpt lat="46.34743" lon="4.71784">
        <ele>256.4</ele>
        <time>2022-06-25T12:06:42Z</time>
      </trkpt>
      <trkpt lat="46.34747" lon="4.71776">
        <ele>256.4</ele>
        <time>2022-06-25T12:06:43Z</time>
      </trkpt>
      <trkpt lat="46.34751" lon="4.71767">
        <ele>256.8</ele>
        <time>2022-06-25T12:06:44Z</time>
      </trkpt>
      <trkpt lat="46.34754" lon="4.71759">
        <ele>257</ele>
        <time>2022-06-25T12:06:45Z</time>
      </trkpt>
      <trkpt lat="46.34757" lon="4.71751">
        <ele>257.2</ele>
        <time>2022-06-25T12:06:46Z</time>
      </trkpt>
      <trkpt lat="46.3476" lon="4.71743">
        <ele>257.6</ele>
        <time>2022-06-25T12:06:47Z</time>
      </trkpt>
      <trkpt lat="46.34763" lon="4.71736">
        <ele>257.8</ele>
        <time>2022-06-25T12:06:48Z</time>
      </trkpt>
      <trkpt lat="46.34766" lon="4.71729">
        <ele>258</ele>
        <time>2022-06-25T12:06:49Z</time>
      </trkpt>
      <trkpt lat="46.34769" lon="4.71722">
        <ele>258.2</ele>
        <time>2022-06-25T12:06:50Z</time>
      </trkpt>
      <trkpt lat="46.34772" lon="4.71715">
        <ele>258.6</ele>
        <time>2022-06-25T12:06:51Z</time>
      </trkpt>
      <trkpt lat="46.34775" lon="4.71709">
        <ele>258.6</ele>
        <time>2022-06-25T12:06:52Z</time>
      </trkpt>
      <trkpt lat="46.34778" lon="4.71703">
        <ele>259</ele>
        <time>2022-06-25T12:06:53Z</time>
      </trkpt>
      <trkpt lat="46.34782" lon="4.71697">
        <ele>259.2</ele>
        <time>2022-06-25T12:06:54Z</time>
      </trkpt>
      <trkpt lat="46.34785" lon="4.71691">
        <ele>259.6</ele>
        <time>2022-06-25T12:06:55Z</time>
      </trkpt>
      <trkpt lat="46.34788" lon="4.71685">
        <ele>259.8</ele>
        <time>2022-06-25T12:06:56Z</time>
      </trkpt>
      <trkpt lat="46.34792" lon="4.71678">
        <ele>260</ele>
        <time>2022-06-25T12:06:57Z</time>
      </trkpt>
      <trkpt lat="46.34795" lon="4.71672">
        <ele>260.2</ele>
        <time>2022-06-25T12:06:58Z</time>
      </trkpt>
      <trkpt lat="46.34799" lon="4.71665">
        <ele>260.2</ele>
        <time>2022-06-25T12:06:59Z</time>
      </trkpt>
      <trkpt lat="46.34802" lon="4.71659">
        <ele>260.6</ele>
        <time>2022-06-25T12:07:00Z</time>
      </trkpt>
      <trkpt lat="46.34805" lon="4.71652">
        <ele>260.6</ele>
        <time>2022-06-25T12:07:01Z</time>
      </trkpt>
      <trkpt lat="46.34809" lon="4.71645">
        <ele>260.8</ele>
        <time>2022-06-25T12:07:02Z</time>
      </trkpt>
      <trkpt lat="46.34813" lon="4.71638">
        <ele>260.8</ele>
        <time>2022-06-25T12:07:03Z</time>
      </trkpt>
      <trkpt lat="46.34817" lon="4.7163">
        <ele>260.8</ele>
        <time>2022-06-25T12:07:04Z</time>
      </trkpt>
      <trkpt lat="46.34821" lon="4.71623">
        <ele>260.8</ele>
        <time>2022-06-25T12:07:05Z</time>
      </trkpt>
      <trkpt lat="46.34825" lon="4.71615">
        <ele>260.8</ele>
        <time>2022-06-25T12:07:06Z</time>
      </trkpt>
      <trkpt lat="46.3483" lon="4.71607">
        <ele>260.8</ele>
        <time>2022-06-25T12:07:07Z</time>
      </trkpt>
      <trkpt lat="46.34834" lon="4.71599">
        <ele>260.8</ele>
        <time>2022-06-25T12:07:08Z</time>
      </trkpt>
      <trkpt lat="46.34839" lon="4.71591">
        <ele>260.8</ele>
        <time>2022-06-25T12:07:09Z</time>
      </trkpt>
      <trkpt lat="46.34844" lon="4.71582">
        <ele>260.8</ele>
        <time>2022-06-25T12:07:10Z</time>
      </trkpt>
      <trkpt lat="46.34848" lon="4.71573">
        <ele>260.6</ele>
        <time>2022-06-25T12:07:11Z</time>
      </trkpt>
      <trkpt lat="46.34853" lon="4.71564">
        <ele>260.6</ele>
        <time>2022-06-25T12:07:12Z</time>
      </trkpt>
      <trkpt lat="46.34859" lon="4.71555">
        <ele>260.4</ele>
        <time>2022-06-25T12:07:13Z</time>
      </trkpt>
      <trkpt lat="46.34864" lon="4.71545">
        <ele>260.4</ele>
        <time>2022-06-25T12:07:14Z</time>
      </trkpt>
      <trkpt lat="46.34869" lon="4.71535">
        <ele>259.8</ele>
        <time>2022-06-25T12:07:15Z</time>
      </trkpt>
      <trkpt lat="46.34874" lon="4.71525">
        <ele>259.6</ele>
        <time>2022-06-25T12:07:16Z</time>
      </trkpt>
      <trkpt lat="46.34886" lon="4.71502">
        <ele>259.4</ele>
        <time>2022-06-25T12:07:17Z</time>
      </trkpt>
      <trkpt lat="46.34893" lon="4.71491">
        <ele>259.4</ele>
        <time>2022-06-25T12:07:18Z</time>
      </trkpt>
      <trkpt lat="46.34898" lon="4.7148">
        <ele>259.2</ele>
        <time>2022-06-25T12:07:19Z</time>
      </trkpt>
      <trkpt lat="46.34904" lon="4.71469">
        <ele>259.2</ele>
        <time>2022-06-25T12:07:20Z</time>
      </trkpt>
      <trkpt lat="46.3491" lon="4.71459">
        <ele>259.2</ele>
        <time>2022-06-25T12:07:21Z</time>
      </trkpt>
      <trkpt lat="46.34916" lon="4.71449">
        <ele>258.8</ele>
        <time>2022-06-25T12:07:22Z</time>
      </trkpt>
      <trkpt lat="46.34921" lon="4.71438">
        <ele>258.8</ele>
        <time>2022-06-25T12:07:23Z</time>
      </trkpt>
      <trkpt lat="46.34926" lon="4.71428">
        <ele>258.8</ele>
        <time>2022-06-25T12:07:24Z</time>
      </trkpt>
      <trkpt lat="46.34931" lon="4.71416">
        <ele>258.6</ele>
        <time>2022-06-25T12:07:25Z</time>
      </trkpt>
      <trkpt lat="46.34936" lon="4.71405">
        <ele>258.6</ele>
        <time>2022-06-25T12:07:26Z</time>
      </trkpt>
      <trkpt lat="46.34941" lon="4.71395">
        <ele>258.6</ele>
        <time>2022-06-25T12:07:27Z</time>
      </trkpt>
      <trkpt lat="46.34946" lon="4.71385">
        <ele>258.6</ele>
        <time>2022-06-25T12:07:28Z</time>
      </trkpt>
      <trkpt lat="46.34951" lon="4.71375">
        <ele>258.6</ele>
        <time>2022-06-25T12:07:29Z</time>
      </trkpt>
      <trkpt lat="46.34956" lon="4.71364">
        <ele>258.6</ele>
        <time>2022-06-25T12:07:30Z</time>
      </trkpt>
      <trkpt lat="46.34961" lon="4.71354">
        <ele>258.6</ele>
        <time>2022-06-25T12:07:31Z</time>
      </trkpt>
      <trkpt lat="46.34966" lon="4.71344">
        <ele>258.6</ele>
        <time>2022-06-25T12:07:32Z</time>
      </trkpt>
      <trkpt lat="46.34971" lon="4.71333">
        <ele>258.6</ele>
        <time>2022-06-25T12:07:33Z</time>
      </trkpt>
      <trkpt lat="46.34976" lon="4.71323">
        <ele>258.6</ele>
        <time>2022-06-25T12:07:34Z</time>
      </trkpt>
      <trkpt lat="46.34982" lon="4.71313">
        <ele>258.6</ele>
        <time>2022-06-25T12:07:35Z</time>
      </trkpt>
      <trkpt lat="46.34987" lon="4.71303">
        <ele>258.6</ele>
        <time>2022-06-25T12:07:36Z</time>
      </trkpt>
      <trkpt lat="46.34992" lon="4.71293">
        <ele>258.6</ele>
        <time>2022-06-25T12:07:37Z</time>
      </trkpt>
      <trkpt lat="46.34996" lon="4.71283">
        <ele>258.6</ele>
        <time>2022-06-25T12:07:38Z</time>
      </trkpt>
      <trkpt lat="46.35001" lon="4.71274">
        <ele>258.6</ele>
        <time>2022-06-25T12:07:39Z</time>
      </trkpt>
      <trkpt lat="46.35006" lon="4.71264">
        <ele>258.6</ele>
        <time>2022-06-25T12:07:40Z</time>
      </trkpt>
      <trkpt lat="46.3501" lon="4.71255">
        <ele>258.6</ele>
        <time>2022-06-25T12:07:41Z</time>
      </trkpt>
      <trkpt lat="46.35015" lon="4.71246">
        <ele>259</ele>
        <time>2022-06-25T12:07:42Z</time>
      </trkpt>
      <trkpt lat="46.3502" lon="4.71237">
        <ele>259</ele>
        <time>2022-06-25T12:07:43Z</time>
      </trkpt>
      <trkpt lat="46.35024" lon="4.71227">
        <ele>259</ele>
        <time>2022-06-25T12:07:44Z</time>
      </trkpt>
      <trkpt lat="46.35029" lon="4.71218">
        <ele>259.2</ele>
        <time>2022-06-25T12:07:45Z</time>
      </trkpt>
      <trkpt lat="46.35033" lon="4.71208">
        <ele>259.2</ele>
        <time>2022-06-25T12:07:46Z</time>
      </trkpt>
      <trkpt lat="46.35037" lon="4.71199">
        <ele>259.4</ele>
        <time>2022-06-25T12:07:47Z</time>
      </trkpt>
      <trkpt lat="46.35042" lon="4.71191">
        <ele>259.8</ele>
        <time>2022-06-25T12:07:48Z</time>
      </trkpt>
      <trkpt lat="46.35046" lon="4.71182">
        <ele>259.8</ele>
        <time>2022-06-25T12:07:49Z</time>
      </trkpt>
      <trkpt lat="46.3505" lon="4.71174">
        <ele>260</ele>
        <time>2022-06-25T12:07:50Z</time>
      </trkpt>
      <trkpt lat="46.35055" lon="4.71165">
        <ele>260</ele>
        <time>2022-06-25T12:07:51Z</time>
      </trkpt>
      <trkpt lat="46.35059" lon="4.71157">
        <ele>260</ele>
        <time>2022-06-25T12:07:52Z</time>
      </trkpt>
      <trkpt lat="46.35063" lon="4.71149">
        <ele>260.2</ele>
        <time>2022-06-25T12:07:53Z</time>
      </trkpt>
      <trkpt lat="46.35067" lon="4.71141">
        <ele>260.6</ele>
        <time>2022-06-25T12:07:54Z</time>
      </trkpt>
      <trkpt lat="46.3507" lon="4.71132">
        <ele>260.8</ele>
        <time>2022-06-25T12:07:55Z</time>
      </trkpt>
      <trkpt lat="46.35073" lon="4.71123">
        <ele>261</ele>
        <time>2022-06-25T12:07:56Z</time>
      </trkpt>
      <trkpt lat="46.35077" lon="4.71115">
        <ele>261</ele>
        <time>2022-06-25T12:07:57Z</time>
      </trkpt>
      <trkpt lat="46.35081" lon="4.71107">
        <ele>261.4</ele>
        <time>2022-06-25T12:07:58Z</time>
      </trkpt>
      <trkpt lat="46.35085" lon="4.711">
        <ele>261.4</ele>
        <time>2022-06-25T12:07:59Z</time>
      </trkpt>
      <trkpt lat="46.35088" lon="4.71092">
        <ele>261.6</ele>
        <time>2022-06-25T12:08:00Z</time>
      </trkpt>
      <trkpt lat="46.35092" lon="4.71085">
        <ele>261.6</ele>
        <time>2022-06-25T12:08:01Z</time>
      </trkpt>
      <trkpt lat="46.35095" lon="4.71077">
        <ele>262</ele>
        <time>2022-06-25T12:08:02Z</time>
      </trkpt>
      <trkpt lat="46.35099" lon="4.7107">
        <ele>262</ele>
        <time>2022-06-25T12:08:03Z</time>
      </trkpt>
      <trkpt lat="46.35103" lon="4.71063">
        <ele>262</ele>
        <time>2022-06-25T12:08:04Z</time>
      </trkpt>
      <trkpt lat="46.35106" lon="4.71056">
        <ele>262</ele>
        <time>2022-06-25T12:08:05Z</time>
      </trkpt>
      <trkpt lat="46.35109" lon="4.71049">
        <ele>262</ele>
        <time>2022-06-25T12:08:06Z</time>
      </trkpt>
      <trkpt lat="46.35113" lon="4.71043">
        <ele>262</ele>
        <time>2022-06-25T12:08:07Z</time>
      </trkpt>
      <trkpt lat="46.35116" lon="4.71036">
        <ele>262.2</ele>
        <time>2022-06-25T12:08:08Z</time>
      </trkpt>
      <trkpt lat="46.35119" lon="4.7103">
        <ele>262.2</ele>
        <time>2022-06-25T12:08:09Z</time>
      </trkpt>
      <trkpt lat="46.35121" lon="4.71023">
        <ele>262.4</ele>
        <time>2022-06-25T12:08:10Z</time>
      </trkpt>
      <trkpt lat="46.35122" lon="4.71016">
        <ele>262.4</ele>
        <time>2022-06-25T12:08:11Z</time>
      </trkpt>
      <trkpt lat="46.35122" lon="4.71008">
        <ele>262.4</ele>
        <time>2022-06-25T12:08:12Z</time>
      </trkpt>
      <trkpt lat="46.3512" lon="4.71002">
        <ele>262.4</ele>
        <time>2022-06-25T12:08:13Z</time>
      </trkpt>
      <trkpt lat="46.35119" lon="4.70995">
        <ele>262.8</ele>
        <time>2022-06-25T12:08:14Z</time>
      </trkpt>
      <trkpt lat="46.35118" lon="4.70988">
        <ele>262.8</ele>
        <time>2022-06-25T12:08:15Z</time>
      </trkpt>
      <trkpt lat="46.35118" lon="4.70981">
        <ele>262.8</ele>
        <time>2022-06-25T12:08:16Z</time>
      </trkpt>
      <trkpt lat="46.35119" lon="4.70973">
        <ele>262.8</ele>
        <time>2022-06-25T12:08:17Z</time>
      </trkpt>
      <trkpt lat="46.3512" lon="4.70966">
        <ele>262.8</ele>
        <time>2022-06-25T12:08:18Z</time>
      </trkpt>
      <trkpt lat="46.35122" lon="4.70958">
        <ele>262.4</ele>
        <time>2022-06-25T12:08:19Z</time>
      </trkpt>
      <trkpt lat="46.35123" lon="4.70949">
        <ele>262.4</ele>
        <time>2022-06-25T12:08:20Z</time>
      </trkpt>
      <trkpt lat="46.35124" lon="4.70941">
        <ele>262.2</ele>
        <time>2022-06-25T12:08:21Z</time>
      </trkpt>
      <trkpt lat="46.35125" lon="4.70932">
        <ele>262.2</ele>
        <time>2022-06-25T12:08:22Z</time>
      </trkpt>
      <trkpt lat="46.35126" lon="4.70923">
        <ele>262.2</ele>
        <time>2022-06-25T12:08:23Z</time>
      </trkpt>
      <trkpt lat="46.35126" lon="4.70914">
        <ele>262</ele>
        <time>2022-06-25T12:08:24Z</time>
      </trkpt>
      <trkpt lat="46.35126" lon="4.70905">
        <ele>262</ele>
        <time>2022-06-25T12:08:25Z</time>
      </trkpt>
      <trkpt lat="46.35126" lon="4.70897">
        <ele>262</ele>
        <time>2022-06-25T12:08:26Z</time>
      </trkpt>
      <trkpt lat="46.35125" lon="4.70888">
        <ele>262</ele>
        <time>2022-06-25T12:08:27Z</time>
      </trkpt>
      <trkpt lat="46.35125" lon="4.70879">
        <ele>262</ele>
        <time>2022-06-25T12:08:28Z</time>
      </trkpt>
      <trkpt lat="46.35125" lon="4.70871">
        <ele>262</ele>
        <time>2022-06-25T12:08:29Z</time>
      </trkpt>
      <trkpt lat="46.35125" lon="4.70862">
        <ele>262</ele>
        <time>2022-06-25T12:08:30Z</time>
      </trkpt>
      <trkpt lat="46.35124" lon="4.70854">
        <ele>262</ele>
        <time>2022-06-25T12:08:31Z</time>
      </trkpt>
      <trkpt lat="46.35123" lon="4.70845">
        <ele>262</ele>
        <time>2022-06-25T12:08:32Z</time>
      </trkpt>
      <trkpt lat="46.35123" lon="4.70837">
        <ele>262</ele>
        <time>2022-06-25T12:08:33Z</time>
      </trkpt>
      <trkpt lat="46.35122" lon="4.70829">
        <ele>262</ele>
        <time>2022-06-25T12:08:34Z</time>
      </trkpt>
      <trkpt lat="46.3512" lon="4.7082">
        <ele>262</ele>
        <time>2022-06-25T12:08:35Z</time>
      </trkpt>
      <trkpt lat="46.35119" lon="4.70811">
        <ele>261.8</ele>
        <time>2022-06-25T12:08:36Z</time>
      </trkpt>
      <trkpt lat="46.35116" lon="4.70803">
        <ele>261.8</ele>
        <time>2022-06-25T12:08:37Z</time>
      </trkpt>
      <trkpt lat="46.35114" lon="4.70794">
        <ele>261.8</ele>
        <time>2022-06-25T12:08:38Z</time>
      </trkpt>
      <trkpt lat="46.35111" lon="4.70785">
        <ele>261.4</ele>
        <time>2022-06-25T12:08:39Z</time>
      </trkpt>
      <trkpt lat="46.35108" lon="4.70776">
        <ele>261.4</ele>
        <time>2022-06-25T12:08:40Z</time>
      </trkpt>
      <trkpt lat="46.35104" lon="4.70767">
        <ele>261.2</ele>
        <time>2022-06-25T12:08:41Z</time>
      </trkpt>
      <trkpt lat="46.35101" lon="4.70759">
        <ele>261.2</ele>
        <time>2022-06-25T12:08:42Z</time>
      </trkpt>
      <trkpt lat="46.35097" lon="4.70751">
        <ele>261.2</ele>
        <time>2022-06-25T12:08:43Z</time>
      </trkpt>
      <trkpt lat="46.35094" lon="4.70743">
        <ele>261.2</ele>
        <time>2022-06-25T12:08:44Z</time>
      </trkpt>
      <trkpt lat="46.3509" lon="4.70736">
        <ele>261.2</ele>
        <time>2022-06-25T12:08:45Z</time>
      </trkpt>
      <trkpt lat="46.35087" lon="4.70729">
        <ele>261.2</ele>
        <time>2022-06-25T12:08:46Z</time>
      </trkpt>
      <trkpt lat="46.35083" lon="4.70722">
        <ele>261.4</ele>
        <time>2022-06-25T12:08:47Z</time>
      </trkpt>
      <trkpt lat="46.3508" lon="4.70714">
        <ele>261.4</ele>
        <time>2022-06-25T12:08:48Z</time>
      </trkpt>
      <trkpt lat="46.35078" lon="4.70707">
        <ele>261.4</ele>
        <time>2022-06-25T12:08:49Z</time>
      </trkpt>
      <trkpt lat="46.35075" lon="4.707">
        <ele>261.4</ele>
        <time>2022-06-25T12:08:50Z</time>
      </trkpt>
      <trkpt lat="46.35072" lon="4.70692">
        <ele>261.4</ele>
        <time>2022-06-25T12:08:51Z</time>
      </trkpt>
      <trkpt lat="46.3507" lon="4.70685">
        <ele>261.8</ele>
        <time>2022-06-25T12:08:52Z</time>
      </trkpt>
      <trkpt lat="46.35067" lon="4.70677">
        <ele>261.8</ele>
        <time>2022-06-25T12:08:53Z</time>
      </trkpt>
      <trkpt lat="46.35063" lon="4.70671">
        <ele>262</ele>
        <time>2022-06-25T12:08:54Z</time>
      </trkpt>
      <trkpt lat="46.35061" lon="4.70662">
        <ele>262</ele>
        <time>2022-06-25T12:08:55Z</time>
      </trkpt>
      <trkpt lat="46.35058" lon="4.70656">
        <ele>262.2</ele>
        <time>2022-06-25T12:08:56Z</time>
      </trkpt>
      <trkpt lat="46.35055" lon="4.70649">
        <ele>262.4</ele>
        <time>2022-06-25T12:08:57Z</time>
      </trkpt>
      <trkpt lat="46.35053" lon="4.70642">
        <ele>262.4</ele>
        <time>2022-06-25T12:08:58Z</time>
      </trkpt>
      <trkpt lat="46.35051" lon="4.70635">
        <ele>262.4</ele>
        <time>2022-06-25T12:08:59Z</time>
      </trkpt>
      <trkpt lat="46.35049" lon="4.70627">
        <ele>262.4</ele>
        <time>2022-06-25T12:09:00Z</time>
      </trkpt>
      <trkpt lat="46.35048" lon="4.70619">
        <ele>262.4</ele>
        <time>2022-06-25T12:09:01Z</time>
      </trkpt>
      <trkpt lat="46.35047" lon="4.70611">
        <ele>262.4</ele>
        <time>2022-06-25T12:09:02Z</time>
      </trkpt>
      <trkpt lat="46.35047" lon="4.70603">
        <ele>262.4</ele>
        <time>2022-06-25T12:09:03Z</time>
      </trkpt>
      <trkpt lat="46.35047" lon="4.70595">
        <ele>262.4</ele>
        <time>2022-06-25T12:09:04Z</time>
      </trkpt>
      <trkpt lat="46.35047" lon="4.70586">
        <ele>262.6</ele>
        <time>2022-06-25T12:09:05Z</time>
      </trkpt>
      <trkpt lat="46.35047" lon="4.70578">
        <ele>262.6</ele>
        <time>2022-06-25T12:09:06Z</time>
      </trkpt>
      <trkpt lat="46.35047" lon="4.7057">
        <ele>262.8</ele>
        <time>2022-06-25T12:09:07Z</time>
      </trkpt>
      <trkpt lat="46.35047" lon="4.70562">
        <ele>262.8</ele>
        <time>2022-06-25T12:09:08Z</time>
      </trkpt>
      <trkpt lat="46.35047" lon="4.70553">
        <ele>262.8</ele>
        <time>2022-06-25T12:09:09Z</time>
      </trkpt>
      <trkpt lat="46.35047" lon="4.70545">
        <ele>262.8</ele>
        <time>2022-06-25T12:09:10Z</time>
      </trkpt>
      <trkpt lat="46.35048" lon="4.70537">
        <ele>263.2</ele>
        <time>2022-06-25T12:09:11Z</time>
      </trkpt>
      <trkpt lat="46.35048" lon="4.70529">
        <ele>263.2</ele>
        <time>2022-06-25T12:09:12Z</time>
      </trkpt>
      <trkpt lat="46.35048" lon="4.70521">
        <ele>263.2</ele>
        <time>2022-06-25T12:09:13Z</time>
      </trkpt>
      <trkpt lat="46.35048" lon="4.70513">
        <ele>263.4</ele>
        <time>2022-06-25T12:09:14Z</time>
      </trkpt>
      <trkpt lat="46.35049" lon="4.70506">
        <ele>263.6</ele>
        <time>2022-06-25T12:09:15Z</time>
      </trkpt>
      <trkpt lat="46.35049" lon="4.70499">
        <ele>263.6</ele>
        <time>2022-06-25T12:09:16Z</time>
      </trkpt>
      <trkpt lat="46.35049" lon="4.70492">
        <ele>264</ele>
        <time>2022-06-25T12:09:17Z</time>
      </trkpt>
      <trkpt lat="46.3505" lon="4.70485">
        <ele>264.2</ele>
        <time>2022-06-25T12:09:18Z</time>
      </trkpt>
      <trkpt lat="46.3505" lon="4.70478">
        <ele>264.2</ele>
        <time>2022-06-25T12:09:19Z</time>
      </trkpt>
      <trkpt lat="46.3505" lon="4.70471">
        <ele>264.6</ele>
        <time>2022-06-25T12:09:20Z</time>
      </trkpt>
      <trkpt lat="46.3505" lon="4.70464">
        <ele>264.6</ele>
        <time>2022-06-25T12:09:21Z</time>
      </trkpt>
      <trkpt lat="46.35051" lon="4.70458">
        <ele>264.8</ele>
        <time>2022-06-25T12:09:22Z</time>
      </trkpt>
      <trkpt lat="46.35051" lon="4.70451">
        <ele>264.8</ele>
        <time>2022-06-25T12:09:23Z</time>
      </trkpt>
      <trkpt lat="46.35051" lon="4.70445">
        <ele>265.2</ele>
        <time>2022-06-25T12:09:24Z</time>
      </trkpt>
      <trkpt lat="46.35052" lon="4.70438">
        <ele>265.4</ele>
        <time>2022-06-25T12:09:25Z</time>
      </trkpt>
      <trkpt lat="46.35053" lon="4.70433">
        <ele>265.4</ele>
        <time>2022-06-25T12:09:26Z</time>
      </trkpt>
      <trkpt lat="46.35053" lon="4.70427">
        <ele>265.8</ele>
        <time>2022-06-25T12:09:27Z</time>
      </trkpt>
      <trkpt lat="46.35054" lon="4.70422">
        <ele>265.8</ele>
        <time>2022-06-25T12:09:28Z</time>
      </trkpt>
      <trkpt lat="46.35056" lon="4.70416">
        <ele>266</ele>
        <time>2022-06-25T12:09:29Z</time>
      </trkpt>
      <trkpt lat="46.35057" lon="4.70412">
        <ele>266</ele>
        <time>2022-06-25T12:09:30Z</time>
      </trkpt>
      <trkpt lat="46.35059" lon="4.70407">
        <ele>266.4</ele>
        <time>2022-06-25T12:09:31Z</time>
      </trkpt>
      <trkpt lat="46.35061" lon="4.70403">
        <ele>266.4</ele>
        <time>2022-06-25T12:09:32Z</time>
      </trkpt>
      <trkpt lat="46.35063" lon="4.70399">
        <ele>266.8</ele>
        <time>2022-06-25T12:09:33Z</time>
      </trkpt>
      <trkpt lat="46.35065" lon="4.70395">
        <ele>266.8</ele>
        <time>2022-06-25T12:09:34Z</time>
      </trkpt>
      <trkpt lat="46.35067" lon="4.70392">
        <ele>267.2</ele>
        <time>2022-06-25T12:09:35Z</time>
      </trkpt>
      <trkpt lat="46.35069" lon="4.70389">
        <ele>267.4</ele>
        <time>2022-06-25T12:09:36Z</time>
      </trkpt>
      <trkpt lat="46.35071" lon="4.70386">
        <ele>267.6</ele>
        <time>2022-06-25T12:09:37Z</time>
      </trkpt>
      <trkpt lat="46.35074" lon="4.70383">
        <ele>267.8</ele>
        <time>2022-06-25T12:09:38Z</time>
      </trkpt>
      <trkpt lat="46.35076" lon="4.70381">
        <ele>267.8</ele>
        <time>2022-06-25T12:09:39Z</time>
      </trkpt>
      <trkpt lat="46.35078" lon="4.70379">
        <ele>268.2</ele>
        <time>2022-06-25T12:09:40Z</time>
      </trkpt>
      <trkpt lat="46.3508" lon="4.70377">
        <ele>268.4</ele>
        <time>2022-06-25T12:09:41Z</time>
      </trkpt>
      <trkpt lat="46.35083" lon="4.70375">
        <ele>268.6</ele>
        <time>2022-06-25T12:09:42Z</time>
      </trkpt>
      <trkpt lat="46.35085" lon="4.70373">
        <ele>269</ele>
        <time>2022-06-25T12:09:43Z</time>
      </trkpt>
      <trkpt lat="46.35087" lon="4.70371">
        <ele>269.2</ele>
        <time>2022-06-25T12:09:44Z</time>
      </trkpt>
      <trkpt lat="46.35089" lon="4.7037">
        <ele>269.8</ele>
        <time>2022-06-25T12:09:45Z</time>
      </trkpt>
      <trkpt lat="46.35091" lon="4.70368">
        <ele>270</ele>
        <time>2022-06-25T12:09:46Z</time>
      </trkpt>
      <trkpt lat="46.35093" lon="4.70367">
        <ele>270.2</ele>
        <time>2022-06-25T12:09:47Z</time>
      </trkpt>
      <trkpt lat="46.35095" lon="4.70365">
        <ele>270.6</ele>
        <time>2022-06-25T12:09:48Z</time>
      </trkpt>
      <trkpt lat="46.35098" lon="4.70363">
        <ele>270.8</ele>
        <time>2022-06-25T12:09:49Z</time>
      </trkpt>
      <trkpt lat="46.351" lon="4.70362">
        <ele>271</ele>
        <time>2022-06-25T12:09:50Z</time>
      </trkpt>
      <trkpt lat="46.35102" lon="4.7036">
        <ele>271.4</ele>
        <time>2022-06-25T12:09:51Z</time>
      </trkpt>
      <trkpt lat="46.35104" lon="4.70358">
        <ele>271.6</ele>
        <time>2022-06-25T12:09:52Z</time>
      </trkpt>
      <trkpt lat="46.35106" lon="4.70356">
        <ele>271.8</ele>
        <time>2022-06-25T12:09:53Z</time>
      </trkpt>
      <trkpt lat="46.35108" lon="4.70353">
        <ele>272.2</ele>
        <time>2022-06-25T12:09:54Z</time>
      </trkpt>
      <trkpt lat="46.3511" lon="4.70351">
        <ele>272.4</ele>
        <time>2022-06-25T12:09:55Z</time>
      </trkpt>
      <trkpt lat="46.35112" lon="4.70349">
        <ele>272.6</ele>
        <time>2022-06-25T12:09:56Z</time>
      </trkpt>
      <trkpt lat="46.35115" lon="4.70346">
        <ele>272.8</ele>
        <time>2022-06-25T12:09:57Z</time>
      </trkpt>
      <trkpt lat="46.35116" lon="4.70344">
        <ele>273</ele>
        <time>2022-06-25T12:09:58Z</time>
      </trkpt>
      <trkpt lat="46.35118" lon="4.70341">
        <ele>273.4</ele>
        <time>2022-06-25T12:09:59Z</time>
      </trkpt>
      <trkpt lat="46.35119" lon="4.70338">
        <ele>273.6</ele>
        <time>2022-06-25T12:10:00Z</time>
      </trkpt>
      <trkpt lat="46.3512" lon="4.70334">
        <ele>273.8</ele>
        <time>2022-06-25T12:10:01Z</time>
      </trkpt>
      <trkpt lat="46.35122" lon="4.70331">
        <ele>274</ele>
        <time>2022-06-25T12:10:02Z</time>
      </trkpt>
      <trkpt lat="46.35123" lon="4.70328">
        <ele>274</ele>
        <time>2022-06-25T12:10:03Z</time>
      </trkpt>
      <trkpt lat="46.35124" lon="4.70325">
        <ele>274.4</ele>
        <time>2022-06-25T12:10:04Z</time>
      </trkpt>
      <trkpt lat="46.35125" lon="4.70322">
        <ele>274.4</ele>
        <time>2022-06-25T12:10:05Z</time>
      </trkpt>
      <trkpt lat="46.35126" lon="4.70319">
        <ele>274.8</ele>
        <time>2022-06-25T12:10:06Z</time>
      </trkpt>
      <trkpt lat="46.35127" lon="4.70315">
        <ele>274.8</ele>
        <time>2022-06-25T12:10:07Z</time>
      </trkpt>
      <trkpt lat="46.35128" lon="4.70312">
        <ele>275.2</ele>
        <time>2022-06-25T12:10:08Z</time>
      </trkpt>
      <trkpt lat="46.35129" lon="4.70308">
        <ele>275.4</ele>
        <time>2022-06-25T12:10:09Z</time>
      </trkpt>
      <trkpt lat="46.35129" lon="4.70305">
        <ele>275.6</ele>
        <time>2022-06-25T12:10:10Z</time>
      </trkpt>
      <trkpt lat="46.3513" lon="4.70301">
        <ele>275.6</ele>
        <time>2022-06-25T12:10:11Z</time>
      </trkpt>
      <trkpt lat="46.3513" lon="4.70297">
        <ele>276</ele>
        <time>2022-06-25T12:10:12Z</time>
      </trkpt>
      <trkpt lat="46.35131" lon="4.70293">
        <ele>276</ele>
        <time>2022-06-25T12:10:13Z</time>
      </trkpt>
      <trkpt lat="46.35131" lon="4.7029">
        <ele>276.4</ele>
        <time>2022-06-25T12:10:14Z</time>
      </trkpt>
      <trkpt lat="46.35131" lon="4.70286">
        <ele>276.6</ele>
        <time>2022-06-25T12:10:15Z</time>
      </trkpt>
      <trkpt lat="46.35131" lon="4.70283">
        <ele>276.8</ele>
        <time>2022-06-25T12:10:16Z</time>
      </trkpt>
      <trkpt lat="46.35131" lon="4.70279">
        <ele>276.8</ele>
        <time>2022-06-25T12:10:17Z</time>
      </trkpt>
      <trkpt lat="46.35131" lon="4.70275">
        <ele>277.2</ele>
        <time>2022-06-25T12:10:18Z</time>
      </trkpt>
      <trkpt lat="46.35131" lon="4.70272">
        <ele>277.4</ele>
        <time>2022-06-25T12:10:19Z</time>
      </trkpt>
      <trkpt lat="46.3513" lon="4.70269">
        <ele>277.6</ele>
        <time>2022-06-25T12:10:20Z</time>
      </trkpt>
      <trkpt lat="46.3513" lon="4.70265">
        <ele>278</ele>
        <time>2022-06-25T12:10:21Z</time>
      </trkpt>
      <trkpt lat="46.3513" lon="4.70262">
        <ele>278.2</ele>
        <time>2022-06-25T12:10:22Z</time>
      </trkpt>
      <trkpt lat="46.35129" lon="4.70258">
        <ele>278.4</ele>
        <time>2022-06-25T12:10:23Z</time>
      </trkpt>
      <trkpt lat="46.35128" lon="4.70255">
        <ele>278.6</ele>
        <time>2022-06-25T12:10:24Z</time>
      </trkpt>
      <trkpt lat="46.35127" lon="4.70252">
        <ele>278.8</ele>
        <time>2022-06-25T12:10:25Z</time>
      </trkpt>
      <trkpt lat="46.35127" lon="4.70249">
        <ele>278.8</ele>
        <time>2022-06-25T12:10:26Z</time>
      </trkpt>
      <trkpt lat="46.35126" lon="4.70246">
        <ele>279.2</ele>
        <time>2022-06-25T12:10:27Z</time>
      </trkpt>
      <trkpt lat="46.35125" lon="4.70243">
        <ele>279.2</ele>
        <time>2022-06-25T12:10:28Z</time>
      </trkpt>
      <trkpt lat="46.35124" lon="4.7024">
        <ele>279.6</ele>
        <time>2022-06-25T12:10:29Z</time>
      </trkpt>
      <trkpt lat="46.35123" lon="4.70236">
        <ele>279.8</ele>
        <time>2022-06-25T12:10:30Z</time>
      </trkpt>
      <trkpt lat="46.35122" lon="4.70233">
        <ele>280</ele>
        <time>2022-06-25T12:10:31Z</time>
      </trkpt>
      <trkpt lat="46.3512" lon="4.7023">
        <ele>280.2</ele>
        <time>2022-06-25T12:10:32Z</time>
      </trkpt>
      <trkpt lat="46.35119" lon="4.70227">
        <ele>280.2</ele>
        <time>2022-06-25T12:10:33Z</time>
      </trkpt>
      <trkpt lat="46.35118" lon="4.70225">
        <ele>280.6</ele>
        <time>2022-06-25T12:10:34Z</time>
      </trkpt>
      <trkpt lat="46.35116" lon="4.70222">
        <ele>280.8</ele>
        <time>2022-06-25T12:10:35Z</time>
      </trkpt>
      <trkpt lat="46.35114" lon="4.70219">
        <ele>280.8</ele>
        <time>2022-06-25T12:10:36Z</time>
      </trkpt>
      <trkpt lat="46.35113" lon="4.70216">
        <ele>281.2</ele>
        <time>2022-06-25T12:10:37Z</time>
      </trkpt>
      <trkpt lat="46.35111" lon="4.70213">
        <ele>281.2</ele>
        <time>2022-06-25T12:10:38Z</time>
      </trkpt>
      <trkpt lat="46.3511" lon="4.7021">
        <ele>281.6</ele>
        <time>2022-06-25T12:10:39Z</time>
      </trkpt>
      <trkpt lat="46.35108" lon="4.70207">
        <ele>281.8</ele>
        <time>2022-06-25T12:10:40Z</time>
      </trkpt>
      <trkpt lat="46.35106" lon="4.70205">
        <ele>281.8</ele>
        <time>2022-06-25T12:10:41Z</time>
      </trkpt>
      <trkpt lat="46.35105" lon="4.70202">
        <ele>282</ele>
        <time>2022-06-25T12:10:42Z</time>
      </trkpt>
      <trkpt lat="46.35103" lon="4.70199">
        <ele>282.4</ele>
        <time>2022-06-25T12:10:43Z</time>
      </trkpt>
      <trkpt lat="46.35102" lon="4.70196">
        <ele>282.4</ele>
        <time>2022-06-25T12:10:44Z</time>
      </trkpt>
      <trkpt lat="46.351" lon="4.70193">
        <ele>282.8</ele>
        <time>2022-06-25T12:10:45Z</time>
      </trkpt>
      <trkpt lat="46.35099" lon="4.70191">
        <ele>283</ele>
        <time>2022-06-25T12:10:46Z</time>
      </trkpt>
      <trkpt lat="46.35097" lon="4.70188">
        <ele>283.2</ele>
        <time>2022-06-25T12:10:47Z</time>
      </trkpt>
      <trkpt lat="46.35096" lon="4.70185">
        <ele>283.2</ele>
        <time>2022-06-25T12:10:48Z</time>
      </trkpt>
      <trkpt lat="46.35095" lon="4.70182">
        <ele>283.6</ele>
        <time>2022-06-25T12:10:49Z</time>
      </trkpt>
      <trkpt lat="46.35093" lon="4.70179">
        <ele>283.8</ele>
        <time>2022-06-25T12:10:50Z</time>
      </trkpt>
      <trkpt lat="46.35092" lon="4.70176">
        <ele>284.2</ele>
        <time>2022-06-25T12:10:51Z</time>
      </trkpt>
      <trkpt lat="46.35091" lon="4.70173">
        <ele>284.4</ele>
        <time>2022-06-25T12:10:52Z</time>
      </trkpt>
      <trkpt lat="46.35091" lon="4.7017">
        <ele>284.6</ele>
        <time>2022-06-25T12:10:53Z</time>
      </trkpt>
      <trkpt lat="46.3509" lon="4.70167">
        <ele>284.6</ele>
        <time>2022-06-25T12:10:54Z</time>
      </trkpt>
      <trkpt lat="46.3509" lon="4.70163">
        <ele>285</ele>
        <time>2022-06-25T12:10:55Z</time>
      </trkpt>
      <trkpt lat="46.3509" lon="4.7016">
        <ele>285</ele>
        <time>2022-06-25T12:10:56Z</time>
      </trkpt>
      <trkpt lat="46.3509" lon="4.70156">
        <ele>285.2</ele>
        <time>2022-06-25T12:10:57Z</time>
      </trkpt>
      <trkpt lat="46.35089" lon="4.70153">
        <ele>285.2</ele>
        <time>2022-06-25T12:10:58Z</time>
      </trkpt>
      <trkpt lat="46.35089" lon="4.70149">
        <ele>285.6</ele>
        <time>2022-06-25T12:10:59Z</time>
      </trkpt>
      <trkpt lat="46.35088" lon="4.70146">
        <ele>285.6</ele>
        <time>2022-06-25T12:11:00Z</time>
      </trkpt>
      <trkpt lat="46.35087" lon="4.70142">
        <ele>286</ele>
        <time>2022-06-25T12:11:01Z</time>
      </trkpt>
      <trkpt lat="46.35087" lon="4.70139">
        <ele>286</ele>
        <time>2022-06-25T12:11:02Z</time>
      </trkpt>
      <trkpt lat="46.35087" lon="4.70135">
        <ele>286.2</ele>
        <time>2022-06-25T12:11:03Z</time>
      </trkpt>
      <trkpt lat="46.35086" lon="4.70132">
        <ele>286.2</ele>
        <time>2022-06-25T12:11:04Z</time>
      </trkpt>
      <trkpt lat="46.35086" lon="4.70128">
        <ele>286.6</ele>
        <time>2022-06-25T12:11:05Z</time>
      </trkpt>
      <trkpt lat="46.35086" lon="4.70125">
        <ele>286.8</ele>
        <time>2022-06-25T12:11:06Z</time>
      </trkpt>
      <trkpt lat="46.35086" lon="4.70122">
        <ele>287.2</ele>
        <time>2022-06-25T12:11:07Z</time>
      </trkpt>
      <trkpt lat="46.35086" lon="4.70118">
        <ele>287.2</ele>
        <time>2022-06-25T12:11:08Z</time>
      </trkpt>
      <trkpt lat="46.35085" lon="4.70115">
        <ele>287.4</ele>
        <time>2022-06-25T12:11:09Z</time>
      </trkpt>
      <trkpt lat="46.35085" lon="4.70111">
        <ele>287.4</ele>
        <time>2022-06-25T12:11:10Z</time>
      </trkpt>
      <trkpt lat="46.35085" lon="4.70108">
        <ele>287.8</ele>
        <time>2022-06-25T12:11:11Z</time>
      </trkpt>
      <trkpt lat="46.35085" lon="4.70104">
        <ele>287.8</ele>
        <time>2022-06-25T12:11:12Z</time>
      </trkpt>
      <trkpt lat="46.35085" lon="4.70101">
        <ele>288.2</ele>
        <time>2022-06-25T12:11:13Z</time>
      </trkpt>
      <trkpt lat="46.35085" lon="4.70097">
        <ele>288.4</ele>
        <time>2022-06-25T12:11:14Z</time>
      </trkpt>
      <trkpt lat="46.35085" lon="4.70094">
        <ele>288.4</ele>
        <time>2022-06-25T12:11:15Z</time>
      </trkpt>
      <trkpt lat="46.35085" lon="4.7009">
        <ele>288.8</ele>
        <time>2022-06-25T12:11:16Z</time>
      </trkpt>
      <trkpt lat="46.35085" lon="4.70087">
        <ele>288.8</ele>
        <time>2022-06-25T12:11:17Z</time>
      </trkpt>
      <trkpt lat="46.35085" lon="4.70083">
        <ele>289.2</ele>
        <time>2022-06-25T12:11:18Z</time>
      </trkpt>
      <trkpt lat="46.35086" lon="4.70079">
        <ele>289.2</ele>
        <time>2022-06-25T12:11:19Z</time>
      </trkpt>
      <trkpt lat="46.35086" lon="4.70076">
        <ele>289.4</ele>
        <time>2022-06-25T12:11:20Z</time>
      </trkpt>
      <trkpt lat="46.35086" lon="4.70072">
        <ele>289.4</ele>
        <time>2022-06-25T12:11:21Z</time>
      </trkpt>
      <trkpt lat="46.35086" lon="4.70068">
        <ele>289.8</ele>
        <time>2022-06-25T12:11:22Z</time>
      </trkpt>
      <trkpt lat="46.35086" lon="4.70065">
        <ele>290</ele>
        <time>2022-06-25T12:11:23Z</time>
      </trkpt>
      <trkpt lat="46.35086" lon="4.70061">
        <ele>290.2</ele>
        <time>2022-06-25T12:11:24Z</time>
      </trkpt>
      <trkpt lat="46.35086" lon="4.70057">
        <ele>290.2</ele>
        <time>2022-06-25T12:11:25Z</time>
      </trkpt>
      <trkpt lat="46.35086" lon="4.70054">
        <ele>290.6</ele>
        <time>2022-06-25T12:11:26Z</time>
      </trkpt>
      <trkpt lat="46.35086" lon="4.7005">
        <ele>290.6</ele>
        <time>2022-06-25T12:11:27Z</time>
      </trkpt>
      <trkpt lat="46.35086" lon="4.70047">
        <ele>291</ele>
        <time>2022-06-25T12:11:28Z</time>
      </trkpt>
      <trkpt lat="46.35086" lon="4.70043">
        <ele>291</ele>
        <time>2022-06-25T12:11:29Z</time>
      </trkpt>
      <trkpt lat="46.35086" lon="4.7004">
        <ele>291.4</ele>
        <time>2022-06-25T12:11:30Z</time>
      </trkpt>
      <trkpt lat="46.35086" lon="4.70036">
        <ele>291.4</ele>
        <time>2022-06-25T12:11:31Z</time>
      </trkpt>
      <trkpt lat="46.35085" lon="4.70032">
        <ele>291.8</ele>
        <time>2022-06-25T12:11:32Z</time>
      </trkpt>
      <trkpt lat="46.35086" lon="4.70028">
        <ele>291.8</ele>
        <time>2022-06-25T12:11:33Z</time>
      </trkpt>
      <trkpt lat="46.35086" lon="4.70024">
        <ele>292.2</ele>
        <time>2022-06-25T12:11:34Z</time>
      </trkpt>
      <trkpt lat="46.35086" lon="4.7002">
        <ele>292.2</ele>
        <time>2022-06-25T12:11:35Z</time>
      </trkpt>
      <trkpt lat="46.35087" lon="4.70016">
        <ele>292.4</ele>
        <time>2022-06-25T12:11:36Z</time>
      </trkpt>
      <trkpt lat="46.35087" lon="4.70011">
        <ele>292.4</ele>
        <time>2022-06-25T12:11:37Z</time>
      </trkpt>
      <trkpt lat="46.35087" lon="4.70007">
        <ele>292.8</ele>
        <time>2022-06-25T12:11:38Z</time>
      </trkpt>
      <trkpt lat="46.35087" lon="4.70002">
        <ele>292.8</ele>
        <time>2022-06-25T12:11:39Z</time>
      </trkpt>
      <trkpt lat="46.35088" lon="4.69998">
        <ele>293.2</ele>
        <time>2022-06-25T12:11:40Z</time>
      </trkpt>
      <trkpt lat="46.35088" lon="4.69993">
        <ele>293.2</ele>
        <time>2022-06-25T12:11:41Z</time>
      </trkpt>
      <trkpt lat="46.35088" lon="4.69989">
        <ele>293.4</ele>
        <time>2022-06-25T12:11:42Z</time>
      </trkpt>
      <trkpt lat="46.35089" lon="4.69984">
        <ele>293.4</ele>
        <time>2022-06-25T12:11:43Z</time>
      </trkpt>
      <trkpt lat="46.3509" lon="4.6998">
        <ele>293.6</ele>
        <time>2022-06-25T12:11:44Z</time>
      </trkpt>
      <trkpt lat="46.3509" lon="4.69975">
        <ele>293.6</ele>
        <time>2022-06-25T12:11:45Z</time>
      </trkpt>
      <trkpt lat="46.3509" lon="4.6997">
        <ele>294</ele>
        <time>2022-06-25T12:11:46Z</time>
      </trkpt>
      <trkpt lat="46.35091" lon="4.69966">
        <ele>294</ele>
        <time>2022-06-25T12:11:47Z</time>
      </trkpt>
      <trkpt lat="46.35092" lon="4.69961">
        <ele>294.2</ele>
        <time>2022-06-25T12:11:48Z</time>
      </trkpt>
      <trkpt lat="46.35092" lon="4.69956">
        <ele>294.6</ele>
        <time>2022-06-25T12:11:49Z</time>
      </trkpt>
      <trkpt lat="46.35093" lon="4.69951">
        <ele>294.8</ele>
        <time>2022-06-25T12:11:50Z</time>
      </trkpt>
      <trkpt lat="46.35093" lon="4.69946">
        <ele>295</ele>
        <time>2022-06-25T12:11:51Z</time>
      </trkpt>
      <trkpt lat="46.35093" lon="4.69941">
        <ele>295.2</ele>
        <time>2022-06-25T12:11:52Z</time>
      </trkpt>
      <trkpt lat="46.35094" lon="4.69936">
        <ele>295.4</ele>
        <time>2022-06-25T12:11:53Z</time>
      </trkpt>
      <trkpt lat="46.35094" lon="4.69931">
        <ele>295.8</ele>
        <time>2022-06-25T12:11:54Z</time>
      </trkpt>
      <trkpt lat="46.35094" lon="4.69927">
        <ele>295.8</ele>
        <time>2022-06-25T12:11:55Z</time>
      </trkpt>
      <trkpt lat="46.35095" lon="4.69922">
        <ele>296.2</ele>
        <time>2022-06-25T12:11:56Z</time>
      </trkpt>
      <trkpt lat="46.35095" lon="4.69917">
        <ele>296.2</ele>
        <time>2022-06-25T12:11:57Z</time>
      </trkpt>
      <trkpt lat="46.35095" lon="4.69913">
        <ele>296.4</ele>
        <time>2022-06-25T12:11:58Z</time>
      </trkpt>
      <trkpt lat="46.35096" lon="4.69908">
        <ele>296.4</ele>
        <time>2022-06-25T12:11:59Z</time>
      </trkpt>
      <trkpt lat="46.35096" lon="4.69903">
        <ele>296.8</ele>
        <time>2022-06-25T12:12:00Z</time>
      </trkpt>
      <trkpt lat="46.35096" lon="4.69898">
        <ele>296.8</ele>
        <time>2022-06-25T12:12:01Z</time>
      </trkpt>
      <trkpt lat="46.35097" lon="4.69894">
        <ele>297</ele>
        <time>2022-06-25T12:12:02Z</time>
      </trkpt>
      <trkpt lat="46.35097" lon="4.69889">
        <ele>297</ele>
        <time>2022-06-25T12:12:03Z</time>
      </trkpt>
      <trkpt lat="46.35097" lon="4.69884">
        <ele>297.4</ele>
        <time>2022-06-25T12:12:04Z</time>
      </trkpt>
      <trkpt lat="46.35098" lon="4.6988">
        <ele>297.6</ele>
        <time>2022-06-25T12:12:05Z</time>
      </trkpt>
      <trkpt lat="46.35099" lon="4.69875">
        <ele>297.8</ele>
        <time>2022-06-25T12:12:06Z</time>
      </trkpt>
      <trkpt lat="46.35099" lon="4.69871">
        <ele>297.8</ele>
        <time>2022-06-25T12:12:07Z</time>
      </trkpt>
      <trkpt lat="46.35099" lon="4.69866">
        <ele>298.2</ele>
        <time>2022-06-25T12:12:08Z</time>
      </trkpt>
      <trkpt lat="46.351" lon="4.69861">
        <ele>298.2</ele>
        <time>2022-06-25T12:12:09Z</time>
      </trkpt>
      <trkpt lat="46.351" lon="4.69857">
        <ele>298.4</ele>
        <time>2022-06-25T12:12:10Z</time>
      </trkpt>
      <trkpt lat="46.35101" lon="4.69852">
        <ele>298.4</ele>
        <time>2022-06-25T12:12:11Z</time>
      </trkpt>
      <trkpt lat="46.35102" lon="4.69848">
        <ele>298.8</ele>
        <time>2022-06-25T12:12:12Z</time>
      </trkpt>
      <trkpt lat="46.35102" lon="4.69844">
        <ele>299</ele>
        <time>2022-06-25T12:12:13Z</time>
      </trkpt>
      <trkpt lat="46.35103" lon="4.69839">
        <ele>299.2</ele>
        <time>2022-06-25T12:12:14Z</time>
      </trkpt>
      <trkpt lat="46.35104" lon="4.69835">
        <ele>299.2</ele>
        <time>2022-06-25T12:12:15Z</time>
      </trkpt>
      <trkpt lat="46.35104" lon="4.6983">
        <ele>299.6</ele>
        <time>2022-06-25T12:12:16Z</time>
      </trkpt>
      <trkpt lat="46.35105" lon="4.69826">
        <ele>299.8</ele>
        <time>2022-06-25T12:12:17Z</time>
      </trkpt>
      <trkpt lat="46.35105" lon="4.69821">
        <ele>300</ele>
        <time>2022-06-25T12:12:18Z</time>
      </trkpt>
      <trkpt lat="46.35106" lon="4.69817">
        <ele>300.2</ele>
        <time>2022-06-25T12:12:19Z</time>
      </trkpt>
      <trkpt lat="46.35106" lon="4.69812">
        <ele>300.2</ele>
        <time>2022-06-25T12:12:20Z</time>
      </trkpt>
      <trkpt lat="46.35106" lon="4.69808">
        <ele>300.6</ele>
        <time>2022-06-25T12:12:21Z</time>
      </trkpt>
      <trkpt lat="46.35106" lon="4.69803">
        <ele>300.8</ele>
        <time>2022-06-25T12:12:22Z</time>
      </trkpt>
      <trkpt lat="46.35107" lon="4.69799">
        <ele>301</ele>
        <time>2022-06-25T12:12:23Z</time>
      </trkpt>
      <trkpt lat="46.35107" lon="4.69794">
        <ele>301.2</ele>
        <time>2022-06-25T12:12:24Z</time>
      </trkpt>
      <trkpt lat="46.35108" lon="4.69789">
        <ele>301.2</ele>
        <time>2022-06-25T12:12:25Z</time>
      </trkpt>
      <trkpt lat="46.35108" lon="4.69784">
        <ele>301.6</ele>
        <time>2022-06-25T12:12:26Z</time>
      </trkpt>
      <trkpt lat="46.35108" lon="4.6978">
        <ele>301.6</ele>
        <time>2022-06-25T12:12:27Z</time>
      </trkpt>
      <trkpt lat="46.35109" lon="4.69775">
        <ele>302</ele>
        <time>2022-06-25T12:12:28Z</time>
      </trkpt>
      <trkpt lat="46.35109" lon="4.69771">
        <ele>302</ele>
        <time>2022-06-25T12:12:29Z</time>
      </trkpt>
      <trkpt lat="46.3511" lon="4.69766">
        <ele>302.4</ele>
        <time>2022-06-25T12:12:30Z</time>
      </trkpt>
      <trkpt lat="46.3511" lon="4.69762">
        <ele>302.6</ele>
        <time>2022-06-25T12:12:31Z</time>
      </trkpt>
      <trkpt lat="46.35111" lon="4.69757">
        <ele>302.6</ele>
        <time>2022-06-25T12:12:32Z</time>
      </trkpt>
      <trkpt lat="46.35111" lon="4.69753">
        <ele>303</ele>
        <time>2022-06-25T12:12:33Z</time>
      </trkpt>
      <trkpt lat="46.35111" lon="4.69748">
        <ele>303</ele>
        <time>2022-06-25T12:12:34Z</time>
      </trkpt>
      <trkpt lat="46.35111" lon="4.69743">
        <ele>303.4</ele>
        <time>2022-06-25T12:12:35Z</time>
      </trkpt>
      <trkpt lat="46.35111" lon="4.69738">
        <ele>303.4</ele>
        <time>2022-06-25T12:12:36Z</time>
      </trkpt>
      <trkpt lat="46.35111" lon="4.69734">
        <ele>303.6</ele>
        <time>2022-06-25T12:12:37Z</time>
      </trkpt>
      <trkpt lat="46.3511" lon="4.69729">
        <ele>303.6</ele>
        <time>2022-06-25T12:12:38Z</time>
      </trkpt>
      <trkpt lat="46.35109" lon="4.69724">
        <ele>304.2</ele>
        <time>2022-06-25T12:12:39Z</time>
      </trkpt>
      <trkpt lat="46.35108" lon="4.6972">
        <ele>304.4</ele>
        <time>2022-06-25T12:12:40Z</time>
      </trkpt>
      <trkpt lat="46.35107" lon="4.69716">
        <ele>304.6</ele>
        <time>2022-06-25T12:12:41Z</time>
      </trkpt>
      <trkpt lat="46.35105" lon="4.69711">
        <ele>304.8</ele>
        <time>2022-06-25T12:12:42Z</time>
      </trkpt>
      <trkpt lat="46.35104" lon="4.69707">
        <ele>304.8</ele>
        <time>2022-06-25T12:12:43Z</time>
      </trkpt>
      <trkpt lat="46.35102" lon="4.69703">
        <ele>305.2</ele>
        <time>2022-06-25T12:12:44Z</time>
      </trkpt>
      <trkpt lat="46.35101" lon="4.69699">
        <ele>305.2</ele>
        <time>2022-06-25T12:12:45Z</time>
      </trkpt>
      <trkpt lat="46.35098" lon="4.69696">
        <ele>305.4</ele>
        <time>2022-06-25T12:12:46Z</time>
      </trkpt>
      <trkpt lat="46.35096" lon="4.69693">
        <ele>305.6</ele>
        <time>2022-06-25T12:12:47Z</time>
      </trkpt>
      <trkpt lat="46.35093" lon="4.69691">
        <ele>305.8</ele>
        <time>2022-06-25T12:12:48Z</time>
      </trkpt>
      <trkpt lat="46.3509" lon="4.69688">
        <ele>306.2</ele>
        <time>2022-06-25T12:12:49Z</time>
      </trkpt>
      <trkpt lat="46.35087" lon="4.69687">
        <ele>306.6</ele>
        <time>2022-06-25T12:12:50Z</time>
      </trkpt>
      <trkpt lat="46.35084" lon="4.69686">
        <ele>307</ele>
        <time>2022-06-25T12:12:51Z</time>
      </trkpt>
      <trkpt lat="46.3508" lon="4.69685">
        <ele>307.2</ele>
        <time>2022-06-25T12:12:52Z</time>
      </trkpt>
      <trkpt lat="46.35077" lon="4.69685">
        <ele>307.6</ele>
        <time>2022-06-25T12:12:53Z</time>
      </trkpt>
      <trkpt lat="46.35074" lon="4.69685">
        <ele>308</ele>
        <time>2022-06-25T12:12:54Z</time>
      </trkpt>
      <trkpt lat="46.3507" lon="4.69685">
        <ele>308</ele>
        <time>2022-06-25T12:12:55Z</time>
      </trkpt>
      <trkpt lat="46.35067" lon="4.69686">
        <ele>308.4</ele>
        <time>2022-06-25T12:12:56Z</time>
      </trkpt>
      <trkpt lat="46.35063" lon="4.69687">
        <ele>308.4</ele>
        <time>2022-06-25T12:12:57Z</time>
      </trkpt>
      <trkpt lat="46.3506" lon="4.69688">
        <ele>308.6</ele>
        <time>2022-06-25T12:12:58Z</time>
      </trkpt>
      <trkpt lat="46.35056" lon="4.69689">
        <ele>308.6</ele>
        <time>2022-06-25T12:12:59Z</time>
      </trkpt>
      <trkpt lat="46.35053" lon="4.6969">
        <ele>309</ele>
        <time>2022-06-25T12:13:00Z</time>
      </trkpt>
      <trkpt lat="46.3505" lon="4.6969">
        <ele>309.2</ele>
        <time>2022-06-25T12:13:01Z</time>
      </trkpt>
      <trkpt lat="46.35047" lon="4.69691">
        <ele>309.4</ele>
        <time>2022-06-25T12:13:02Z</time>
      </trkpt>
      <trkpt lat="46.35043" lon="4.69691">
        <ele>309.6</ele>
        <time>2022-06-25T12:13:03Z</time>
      </trkpt>
      <trkpt lat="46.3504" lon="4.69691">
        <ele>309.8</ele>
        <time>2022-06-25T12:13:04Z</time>
      </trkpt>
      <trkpt lat="46.35037" lon="4.69692">
        <ele>310</ele>
        <time>2022-06-25T12:13:05Z</time>
      </trkpt>
      <trkpt lat="46.35034" lon="4.69691">
        <ele>310</ele>
        <time>2022-06-25T12:13:06Z</time>
      </trkpt>
      <trkpt lat="46.3503" lon="4.69691">
        <ele>310.4</ele>
        <time>2022-06-25T12:13:07Z</time>
      </trkpt>
      <trkpt lat="46.35027" lon="4.69692">
        <ele>310.6</ele>
        <time>2022-06-25T12:13:08Z</time>
      </trkpt>
      <trkpt lat="46.35024" lon="4.69692">
        <ele>311</ele>
        <time>2022-06-25T12:13:09Z</time>
      </trkpt>
      <trkpt lat="46.35021" lon="4.69691">
        <ele>311.2</ele>
        <time>2022-06-25T12:13:10Z</time>
      </trkpt>
      <trkpt lat="46.35018" lon="4.6969">
        <ele>311.6</ele>
        <time>2022-06-25T12:13:11Z</time>
      </trkpt>
      <trkpt lat="46.35015" lon="4.69688">
        <ele>311.8</ele>
        <time>2022-06-25T12:13:12Z</time>
      </trkpt>
      <trkpt lat="46.35012" lon="4.69686">
        <ele>311.8</ele>
        <time>2022-06-25T12:13:13Z</time>
      </trkpt>
      <trkpt lat="46.35009" lon="4.69684">
        <ele>312.2</ele>
        <time>2022-06-25T12:13:14Z</time>
      </trkpt>
      <trkpt lat="46.35006" lon="4.69682">
        <ele>312.6</ele>
        <time>2022-06-25T12:13:15Z</time>
      </trkpt>
      <trkpt lat="46.35004" lon="4.69679">
        <ele>313</ele>
        <time>2022-06-25T12:13:17Z</time>
      </trkpt>
      <trkpt lat="46.35001" lon="4.69676">
        <ele>313.2</ele>
        <time>2022-06-25T12:13:18Z</time>
      </trkpt>
      <trkpt lat="46.34999" lon="4.69672">
        <ele>313.2</ele>
        <time>2022-06-25T12:13:19Z</time>
      </trkpt>
      <trkpt lat="46.34997" lon="4.69668">
        <ele>313.6</ele>
        <time>2022-06-25T12:13:20Z</time>
      </trkpt>
      <trkpt lat="46.34996" lon="4.69665">
        <ele>313.6</ele>
        <time>2022-06-25T12:13:21Z</time>
      </trkpt>
      <trkpt lat="46.34994" lon="4.69661">
        <ele>313.8</ele>
        <time>2022-06-25T12:13:22Z</time>
      </trkpt>
      <trkpt lat="46.34992" lon="4.69657">
        <ele>313.8</ele>
        <time>2022-06-25T12:13:23Z</time>
      </trkpt>
      <trkpt lat="46.34989" lon="4.69654">
        <ele>314.2</ele>
        <time>2022-06-25T12:13:24Z</time>
      </trkpt>
      <trkpt lat="46.34987" lon="4.69651">
        <ele>314.2</ele>
        <time>2022-06-25T12:13:25Z</time>
      </trkpt>
      <trkpt lat="46.34984" lon="4.69648">
        <ele>314.4</ele>
        <time>2022-06-25T12:13:26Z</time>
      </trkpt>
      <trkpt lat="46.34982" lon="4.69646">
        <ele>314.4</ele>
        <time>2022-06-25T12:13:27Z</time>
      </trkpt>
      <trkpt lat="46.34979" lon="4.69644">
        <ele>314.8</ele>
        <time>2022-06-25T12:13:28Z</time>
      </trkpt>
      <trkpt lat="46.34976" lon="4.69644">
        <ele>314.8</ele>
        <time>2022-06-25T12:13:29Z</time>
      </trkpt>
      <trkpt lat="46.34973" lon="4.69644">
        <ele>315.2</ele>
        <time>2022-06-25T12:13:30Z</time>
      </trkpt>
      <trkpt lat="46.3497" lon="4.69645">
        <ele>315.6</ele>
        <time>2022-06-25T12:13:31Z</time>
      </trkpt>
      <trkpt lat="46.34967" lon="4.69647">
        <ele>315.8</ele>
        <time>2022-06-25T12:13:32Z</time>
      </trkpt>
      <trkpt lat="46.34964" lon="4.69649">
        <ele>316</ele>
        <time>2022-06-25T12:13:33Z</time>
      </trkpt>
      <trkpt lat="46.34962" lon="4.69652">
        <ele>316.4</ele>
        <time>2022-06-25T12:13:34Z</time>
      </trkpt>
      <trkpt lat="46.3496" lon="4.69655">
        <ele>316.6</ele>
        <time>2022-06-25T12:13:35Z</time>
      </trkpt>
      <trkpt lat="46.34959" lon="4.69659">
        <ele>316.6</ele>
        <time>2022-06-25T12:13:36Z</time>
      </trkpt>
      <trkpt lat="46.34958" lon="4.69664">
        <ele>317</ele>
        <time>2022-06-25T12:13:37Z</time>
      </trkpt>
      <trkpt lat="46.34957" lon="4.69668">
        <ele>317.4</ele>
        <time>2022-06-25T12:13:38Z</time>
      </trkpt>
      <trkpt lat="46.34957" lon="4.69673">
        <ele>317.6</ele>
        <time>2022-06-25T12:13:39Z</time>
      </trkpt>
      <trkpt lat="46.34957" lon="4.69677">
        <ele>317.8</ele>
        <time>2022-06-25T12:13:40Z</time>
      </trkpt>
      <trkpt lat="46.34957" lon="4.69682">
        <ele>318</ele>
        <time>2022-06-25T12:13:41Z</time>
      </trkpt>
      <trkpt lat="46.34958" lon="4.69687">
        <ele>318.2</ele>
        <time>2022-06-25T12:13:42Z</time>
      </trkpt>
      <trkpt lat="46.34958" lon="4.69691">
        <ele>318.4</ele>
        <time>2022-06-25T12:13:43Z</time>
      </trkpt>
      <trkpt lat="46.34958" lon="4.69696">
        <ele>318.4</ele>
        <time>2022-06-25T12:13:44Z</time>
      </trkpt>
      <trkpt lat="46.34959" lon="4.69701">
        <ele>318.8</ele>
        <time>2022-06-25T12:13:45Z</time>
      </trkpt>
      <trkpt lat="46.34959" lon="4.69705">
        <ele>319</ele>
        <time>2022-06-25T12:13:46Z</time>
      </trkpt>
      <trkpt lat="46.34959" lon="4.6971">
        <ele>319.2</ele>
        <time>2022-06-25T12:13:47Z</time>
      </trkpt>
      <trkpt lat="46.34959" lon="4.69714">
        <ele>319.2</ele>
        <time>2022-06-25T12:13:48Z</time>
      </trkpt>
      <trkpt lat="46.34959" lon="4.69719">
        <ele>319.6</ele>
        <time>2022-06-25T12:13:49Z</time>
      </trkpt>
      <trkpt lat="46.34958" lon="4.69724">
        <ele>319.6</ele>
        <time>2022-06-25T12:13:50Z</time>
      </trkpt>
      <trkpt lat="46.34957" lon="4.69728">
        <ele>319.8</ele>
        <time>2022-06-25T12:13:51Z</time>
      </trkpt>
      <trkpt lat="46.34955" lon="4.69733">
        <ele>320.2</ele>
        <time>2022-06-25T12:13:52Z</time>
      </trkpt>
      <trkpt lat="46.34953" lon="4.69736">
        <ele>320.2</ele>
        <time>2022-06-25T12:13:53Z</time>
      </trkpt>
      <trkpt lat="46.34951" lon="4.6974">
        <ele>320.6</ele>
        <time>2022-06-25T12:13:54Z</time>
      </trkpt>
      <trkpt lat="46.34949" lon="4.69743">
        <ele>320.8</ele>
        <time>2022-06-25T12:13:55Z</time>
      </trkpt>
      <trkpt lat="46.34947" lon="4.69746">
        <ele>321</ele>
        <time>2022-06-25T12:13:56Z</time>
      </trkpt>
      <trkpt lat="46.34945" lon="4.69749">
        <ele>321.2</ele>
        <time>2022-06-25T12:13:57Z</time>
      </trkpt>
      <trkpt lat="46.34943" lon="4.69753">
        <ele>321.6</ele>
        <time>2022-06-25T12:13:58Z</time>
      </trkpt>
      <trkpt lat="46.34941" lon="4.69756">
        <ele>321.8</ele>
        <time>2022-06-25T12:13:59Z</time>
      </trkpt>
      <trkpt lat="46.34938" lon="4.69759">
        <ele>322</ele>
        <time>2022-06-25T12:14:00Z</time>
      </trkpt>
      <trkpt lat="46.34936" lon="4.69761">
        <ele>322.2</ele>
        <time>2022-06-25T12:14:01Z</time>
      </trkpt>
      <trkpt lat="46.34933" lon="4.69763">
        <ele>322.2</ele>
        <time>2022-06-25T12:14:02Z</time>
      </trkpt>
      <trkpt lat="46.34931" lon="4.69765">
        <ele>322.6</ele>
        <time>2022-06-25T12:14:03Z</time>
      </trkpt>
      <trkpt lat="46.34928" lon="4.69765">
        <ele>322.8</ele>
        <time>2022-06-25T12:14:04Z</time>
      </trkpt>
      <trkpt lat="46.34925" lon="4.69765">
        <ele>323</ele>
        <time>2022-06-25T12:14:05Z</time>
      </trkpt>
      <trkpt lat="46.34922" lon="4.69765">
        <ele>323.2</ele>
        <time>2022-06-25T12:14:06Z</time>
      </trkpt>
      <trkpt lat="46.34919" lon="4.69764">
        <ele>323.6</ele>
        <time>2022-06-25T12:14:07Z</time>
      </trkpt>
      <trkpt lat="46.34916" lon="4.69764">
        <ele>323.6</ele>
        <time>2022-06-25T12:14:08Z</time>
      </trkpt>
      <trkpt lat="46.34913" lon="4.69764">
        <ele>324</ele>
        <time>2022-06-25T12:14:09Z</time>
      </trkpt>
      <trkpt lat="46.3491" lon="4.69765">
        <ele>324.2</ele>
        <time>2022-06-25T12:14:10Z</time>
      </trkpt>
      <trkpt lat="46.34907" lon="4.69765">
        <ele>324.4</ele>
        <time>2022-06-25T12:14:11Z</time>
      </trkpt>
      <trkpt lat="46.34903" lon="4.69766">
        <ele>324.6</ele>
        <time>2022-06-25T12:14:12Z</time>
      </trkpt>
      <trkpt lat="46.349" lon="4.69766">
        <ele>325</ele>
        <time>2022-06-25T12:14:13Z</time>
      </trkpt>
      <trkpt lat="46.34897" lon="4.69766">
        <ele>325</ele>
        <time>2022-06-25T12:14:14Z</time>
      </trkpt>
      <trkpt lat="46.34894" lon="4.69766">
        <ele>325.4</ele>
        <time>2022-06-25T12:14:15Z</time>
      </trkpt>
      <trkpt lat="46.3489" lon="4.69766">
        <ele>325.6</ele>
        <time>2022-06-25T12:14:16Z</time>
      </trkpt>
      <trkpt lat="46.34887" lon="4.69766">
        <ele>325.8</ele>
        <time>2022-06-25T12:14:17Z</time>
      </trkpt>
      <trkpt lat="46.34884" lon="4.69767">
        <ele>325.8</ele>
        <time>2022-06-25T12:14:18Z</time>
      </trkpt>
      <trkpt lat="46.34881" lon="4.69767">
        <ele>326.2</ele>
        <time>2022-06-25T12:14:19Z</time>
      </trkpt>
      <trkpt lat="46.34878" lon="4.69768">
        <ele>326.2</ele>
        <time>2022-06-25T12:14:20Z</time>
      </trkpt>
      <trkpt lat="46.34875" lon="4.69768">
        <ele>326.4</ele>
        <time>2022-06-25T12:14:21Z</time>
      </trkpt>
      <trkpt lat="46.34871" lon="4.69768">
        <ele>326.6</ele>
        <time>2022-06-25T12:14:22Z</time>
      </trkpt>
      <trkpt lat="46.34868" lon="4.69768">
        <ele>326.8</ele>
        <time>2022-06-25T12:14:23Z</time>
      </trkpt>
      <trkpt lat="46.34865" lon="4.69768">
        <ele>326.8</ele>
        <time>2022-06-25T12:14:24Z</time>
      </trkpt>
      <trkpt lat="46.34861" lon="4.69767">
        <ele>327.2</ele>
        <time>2022-06-25T12:14:25Z</time>
      </trkpt>
      <trkpt lat="46.34858" lon="4.69767">
        <ele>327.2</ele>
        <time>2022-06-25T12:14:26Z</time>
      </trkpt>
      <trkpt lat="46.34855" lon="4.69767">
        <ele>327.6</ele>
        <time>2022-06-25T12:14:27Z</time>
      </trkpt>
      <trkpt lat="46.34851" lon="4.69767">
        <ele>327.6</ele>
        <time>2022-06-25T12:14:28Z</time>
      </trkpt>
      <trkpt lat="46.34848" lon="4.69768">
        <ele>328</ele>
        <time>2022-06-25T12:14:29Z</time>
      </trkpt>
      <trkpt lat="46.34845" lon="4.69768">
        <ele>328.2</ele>
        <time>2022-06-25T12:14:30Z</time>
      </trkpt>
      <trkpt lat="46.34841" lon="4.69767">
        <ele>328.4</ele>
        <time>2022-06-25T12:14:31Z</time>
      </trkpt>
      <trkpt lat="46.34838" lon="4.69767">
        <ele>328.8</ele>
        <time>2022-06-25T12:14:32Z</time>
      </trkpt>
      <trkpt lat="46.34835" lon="4.69768">
        <ele>329</ele>
        <time>2022-06-25T12:14:33Z</time>
      </trkpt>
      <trkpt lat="46.34831" lon="4.69768">
        <ele>329.4</ele>
        <time>2022-06-25T12:14:34Z</time>
      </trkpt>
      <trkpt lat="46.34828" lon="4.69768">
        <ele>329.6</ele>
        <time>2022-06-25T12:14:35Z</time>
      </trkpt>
      <trkpt lat="46.34825" lon="4.69769">
        <ele>330</ele>
        <time>2022-06-25T12:14:36Z</time>
      </trkpt>
      <trkpt lat="46.34822" lon="4.69769">
        <ele>330</ele>
        <time>2022-06-25T12:14:37Z</time>
      </trkpt>
      <trkpt lat="46.34819" lon="4.69769">
        <ele>330.4</ele>
        <time>2022-06-25T12:14:38Z</time>
      </trkpt>
      <trkpt lat="46.34815" lon="4.69769">
        <ele>330.6</ele>
        <time>2022-06-25T12:14:39Z</time>
      </trkpt>
      <trkpt lat="46.34812" lon="4.69769">
        <ele>331</ele>
        <time>2022-06-25T12:14:40Z</time>
      </trkpt>
      <trkpt lat="46.34809" lon="4.69769">
        <ele>331.2</ele>
        <time>2022-06-25T12:14:41Z</time>
      </trkpt>
      <trkpt lat="46.34806" lon="4.69769">
        <ele>331.2</ele>
        <time>2022-06-25T12:14:42Z</time>
      </trkpt>
      <trkpt lat="46.34802" lon="4.6977">
        <ele>331.6</ele>
        <time>2022-06-25T12:14:43Z</time>
      </trkpt>
      <trkpt lat="46.34799" lon="4.69771">
        <ele>331.6</ele>
        <time>2022-06-25T12:14:44Z</time>
      </trkpt>
      <trkpt lat="46.34796" lon="4.69772">
        <ele>331.8</ele>
        <time>2022-06-25T12:14:45Z</time>
      </trkpt>
      <trkpt lat="46.34793" lon="4.69774">
        <ele>332.2</ele>
        <time>2022-06-25T12:14:46Z</time>
      </trkpt>
      <trkpt lat="46.3479" lon="4.69775">
        <ele>332.2</ele>
        <time>2022-06-25T12:14:47Z</time>
      </trkpt>
      <trkpt lat="46.34787" lon="4.69777">
        <ele>332.6</ele>
        <time>2022-06-25T12:14:48Z</time>
      </trkpt>
      <trkpt lat="46.34784" lon="4.69778">
        <ele>332.8</ele>
        <time>2022-06-25T12:14:49Z</time>
      </trkpt>
      <trkpt lat="46.34781" lon="4.69781">
        <ele>333</ele>
        <time>2022-06-25T12:14:50Z</time>
      </trkpt>
      <trkpt lat="46.34778" lon="4.69783">
        <ele>333.4</ele>
        <time>2022-06-25T12:14:51Z</time>
      </trkpt>
      <trkpt lat="46.34776" lon="4.69785">
        <ele>333.6</ele>
        <time>2022-06-25T12:14:52Z</time>
      </trkpt>
      <trkpt lat="46.34773" lon="4.69788">
        <ele>333.6</ele>
        <time>2022-06-25T12:14:53Z</time>
      </trkpt>
      <trkpt lat="46.3477" lon="4.69791">
        <ele>334</ele>
        <time>2022-06-25T12:14:54Z</time>
      </trkpt>
      <trkpt lat="46.34767" lon="4.69793">
        <ele>334.2</ele>
        <time>2022-06-25T12:14:55Z</time>
      </trkpt>
      <trkpt lat="46.34765" lon="4.69796">
        <ele>334.4</ele>
        <time>2022-06-25T12:14:56Z</time>
      </trkpt>
      <trkpt lat="46.34762" lon="4.69798">
        <ele>334.4</ele>
        <time>2022-06-25T12:14:57Z</time>
      </trkpt>
      <trkpt lat="46.3476" lon="4.69801">
        <ele>334.6</ele>
        <time>2022-06-25T12:14:58Z</time>
      </trkpt>
      <trkpt lat="46.34757" lon="4.69803">
        <ele>334.6</ele>
        <time>2022-06-25T12:14:59Z</time>
      </trkpt>
      <trkpt lat="46.34755" lon="4.69806">
        <ele>335</ele>
        <time>2022-06-25T12:15:00Z</time>
      </trkpt>
      <trkpt lat="46.34753" lon="4.69809">
        <ele>335</ele>
        <time>2022-06-25T12:15:01Z</time>
      </trkpt>
      <trkpt lat="46.3475" lon="4.69811">
        <ele>335.4</ele>
        <time>2022-06-25T12:15:02Z</time>
      </trkpt>
      <trkpt lat="46.34748" lon="4.69814">
        <ele>335.6</ele>
        <time>2022-06-25T12:15:03Z</time>
      </trkpt>
      <trkpt lat="46.34745" lon="4.69816">
        <ele>335.6</ele>
        <time>2022-06-25T12:15:04Z</time>
      </trkpt>
      <trkpt lat="46.34743" lon="4.69818">
        <ele>335.8</ele>
        <time>2022-06-25T12:15:05Z</time>
      </trkpt>
      <trkpt lat="46.3474" lon="4.69821">
        <ele>335.8</ele>
        <time>2022-06-25T12:15:06Z</time>
      </trkpt>
      <trkpt lat="46.34738" lon="4.69823">
        <ele>336.2</ele>
        <time>2022-06-25T12:15:07Z</time>
      </trkpt>
      <trkpt lat="46.34735" lon="4.69826">
        <ele>336.6</ele>
        <time>2022-06-25T12:15:08Z</time>
      </trkpt>
      <trkpt lat="46.34733" lon="4.69828">
        <ele>336.8</ele>
        <time>2022-06-25T12:15:09Z</time>
      </trkpt>
      <trkpt lat="46.3473" lon="4.6983">
        <ele>336.8</ele>
        <time>2022-06-25T12:15:10Z</time>
      </trkpt>
      <trkpt lat="46.34728" lon="4.69832">
        <ele>337</ele>
        <time>2022-06-25T12:15:11Z</time>
      </trkpt>
      <trkpt lat="46.34725" lon="4.69833">
        <ele>337</ele>
        <time>2022-06-25T12:15:12Z</time>
      </trkpt>
      <trkpt lat="46.34723" lon="4.69835">
        <ele>337.2</ele>
        <time>2022-06-25T12:15:13Z</time>
      </trkpt>
      <trkpt lat="46.3472" lon="4.69836">
        <ele>337.2</ele>
        <time>2022-06-25T12:15:14Z</time>
      </trkpt>
      <trkpt lat="46.34717" lon="4.69837">
        <ele>337.6</ele>
        <time>2022-06-25T12:15:15Z</time>
      </trkpt>
      <trkpt lat="46.34715" lon="4.69837">
        <ele>337.6</ele>
        <time>2022-06-25T12:15:16Z</time>
      </trkpt>
      <trkpt lat="46.34712" lon="4.69838">
        <ele>338</ele>
        <time>2022-06-25T12:15:17Z</time>
      </trkpt>
      <trkpt lat="46.34709" lon="4.69838">
        <ele>338.2</ele>
        <time>2022-06-25T12:15:18Z</time>
      </trkpt>
      <trkpt lat="46.34706" lon="4.69838">
        <ele>338.2</ele>
        <time>2022-06-25T12:15:19Z</time>
      </trkpt>
      <trkpt lat="46.34704" lon="4.69838">
        <ele>338.6</ele>
        <time>2022-06-25T12:15:20Z</time>
      </trkpt>
      <trkpt lat="46.34701" lon="4.69838">
        <ele>339</ele>
        <time>2022-06-25T12:15:21Z</time>
      </trkpt>
      <trkpt lat="46.34698" lon="4.69838">
        <ele>339.2</ele>
        <time>2022-06-25T12:15:22Z</time>
      </trkpt>
      <trkpt lat="46.34695" lon="4.69837">
        <ele>339.4</ele>
        <time>2022-06-25T12:15:23Z</time>
      </trkpt>
      <trkpt lat="46.34693" lon="4.69837">
        <ele>339.6</ele>
        <time>2022-06-25T12:15:24Z</time>
      </trkpt>
      <trkpt lat="46.3469" lon="4.69837">
        <ele>339.8</ele>
        <time>2022-06-25T12:15:25Z</time>
      </trkpt>
      <trkpt lat="46.34687" lon="4.69838">
        <ele>340</ele>
        <time>2022-06-25T12:15:26Z</time>
      </trkpt>
      <trkpt lat="46.34684" lon="4.69838">
        <ele>340</ele>
        <time>2022-06-25T12:15:27Z</time>
      </trkpt>
      <trkpt lat="46.34681" lon="4.69838">
        <ele>340.2</ele>
        <time>2022-06-25T12:15:28Z</time>
      </trkpt>
      <trkpt lat="46.34678" lon="4.69837">
        <ele>340.2</ele>
        <time>2022-06-25T12:15:29Z</time>
      </trkpt>
      <trkpt lat="46.34675" lon="4.69837">
        <ele>340.6</ele>
        <time>2022-06-25T12:15:30Z</time>
      </trkpt>
      <trkpt lat="46.34672" lon="4.69836">
        <ele>340.8</ele>
        <time>2022-06-25T12:15:31Z</time>
      </trkpt>
      <trkpt lat="46.3467" lon="4.69836">
        <ele>340.8</ele>
        <time>2022-06-25T12:15:32Z</time>
      </trkpt>
      <trkpt lat="46.34667" lon="4.69835">
        <ele>341.2</ele>
        <time>2022-06-25T12:15:33Z</time>
      </trkpt>
      <trkpt lat="46.34664" lon="4.69835">
        <ele>341.2</ele>
        <time>2022-06-25T12:15:34Z</time>
      </trkpt>
      <trkpt lat="46.34661" lon="4.69835">
        <ele>341.6</ele>
        <time>2022-06-25T12:15:35Z</time>
      </trkpt>
      <trkpt lat="46.34658" lon="4.69835">
        <ele>341.6</ele>
        <time>2022-06-25T12:15:36Z</time>
      </trkpt>
      <trkpt lat="46.34656" lon="4.69835">
        <ele>342</ele>
        <time>2022-06-25T12:15:37Z</time>
      </trkpt>
      <trkpt lat="46.34653" lon="4.69835">
        <ele>342</ele>
        <time>2022-06-25T12:15:38Z</time>
      </trkpt>
      <trkpt lat="46.3465" lon="4.69835">
        <ele>342.2</ele>
        <time>2022-06-25T12:15:39Z</time>
      </trkpt>
      <trkpt lat="46.34647" lon="4.69835">
        <ele>342.4</ele>
        <time>2022-06-25T12:15:40Z</time>
      </trkpt>
      <trkpt lat="46.34645" lon="4.69834">
        <ele>342.4</ele>
        <time>2022-06-25T12:15:41Z</time>
      </trkpt>
      <trkpt lat="46.34642" lon="4.69834">
        <ele>342.8</ele>
        <time>2022-06-25T12:15:42Z</time>
      </trkpt>
      <trkpt lat="46.34639" lon="4.69833">
        <ele>343</ele>
        <time>2022-06-25T12:15:43Z</time>
      </trkpt>
      <trkpt lat="46.34637" lon="4.69833">
        <ele>343</ele>
        <time>2022-06-25T12:15:44Z</time>
      </trkpt>
      <trkpt lat="46.34634" lon="4.69833">
        <ele>343.4</ele>
        <time>2022-06-25T12:15:45Z</time>
      </trkpt>
      <trkpt lat="46.34631" lon="4.69833">
        <ele>343.4</ele>
        <time>2022-06-25T12:15:46Z</time>
      </trkpt>
      <trkpt lat="46.34628" lon="4.69832">
        <ele>343.8</ele>
        <time>2022-06-25T12:15:47Z</time>
      </trkpt>
      <trkpt lat="46.34625" lon="4.69832">
        <ele>343.8</ele>
        <time>2022-06-25T12:15:48Z</time>
      </trkpt>
      <trkpt lat="46.34623" lon="4.69832">
        <ele>344</ele>
        <time>2022-06-25T12:15:49Z</time>
      </trkpt>
      <trkpt lat="46.3462" lon="4.69832">
        <ele>344</ele>
        <time>2022-06-25T12:15:50Z</time>
      </trkpt>
      <trkpt lat="46.34618" lon="4.69832">
        <ele>344.4</ele>
        <time>2022-06-25T12:15:51Z</time>
      </trkpt>
      <trkpt lat="46.34615" lon="4.69832">
        <ele>344.4</ele>
        <time>2022-06-25T12:15:52Z</time>
      </trkpt>
      <trkpt lat="46.34612" lon="4.69831">
        <ele>344.8</ele>
        <time>2022-06-25T12:15:53Z</time>
      </trkpt>
      <trkpt lat="46.34609" lon="4.69831">
        <ele>345</ele>
        <time>2022-06-25T12:15:54Z</time>
      </trkpt>
      <trkpt lat="46.34606" lon="4.69831">
        <ele>345</ele>
        <time>2022-06-25T12:15:55Z</time>
      </trkpt>
      <trkpt lat="46.34604" lon="4.69831">
        <ele>345.2</ele>
        <time>2022-06-25T12:15:56Z</time>
      </trkpt>
      <trkpt lat="46.34601" lon="4.69831">
        <ele>345.2</ele>
        <time>2022-06-25T12:15:57Z</time>
      </trkpt>
      <trkpt lat="46.34598" lon="4.69831">
        <ele>345.6</ele>
        <time>2022-06-25T12:15:58Z</time>
      </trkpt>
      <trkpt lat="46.34596" lon="4.69831">
        <ele>345.6</ele>
        <time>2022-06-25T12:15:59Z</time>
      </trkpt>
      <trkpt lat="46.34593" lon="4.69831">
        <ele>346</ele>
        <time>2022-06-25T12:16:00Z</time>
      </trkpt>
      <trkpt lat="46.3459" lon="4.69831">
        <ele>346</ele>
        <time>2022-06-25T12:16:01Z</time>
      </trkpt>
      <trkpt lat="46.34587" lon="4.6983">
        <ele>346.4</ele>
        <time>2022-06-25T12:16:02Z</time>
      </trkpt>
      <trkpt lat="46.34585" lon="4.6983">
        <ele>346.6</ele>
        <time>2022-06-25T12:16:03Z</time>
      </trkpt>
      <trkpt lat="46.3458" lon="4.69829">
        <ele>346.6</ele>
        <time>2022-06-25T12:16:04Z</time>
      </trkpt>
      <trkpt lat="46.34577" lon="4.69829">
        <ele>347</ele>
        <time>2022-06-25T12:16:05Z</time>
      </trkpt>
      <trkpt lat="46.34574" lon="4.69828">
        <ele>347</ele>
        <time>2022-06-25T12:16:06Z</time>
      </trkpt>
      <trkpt lat="46.34572" lon="4.69828">
        <ele>347.2</ele>
        <time>2022-06-25T12:16:07Z</time>
      </trkpt>
      <trkpt lat="46.34569" lon="4.69827">
        <ele>347.2</ele>
        <time>2022-06-25T12:16:08Z</time>
      </trkpt>
      <trkpt lat="46.34567" lon="4.69826">
        <ele>347.4</ele>
        <time>2022-06-25T12:16:09Z</time>
      </trkpt>
      <trkpt lat="46.34564" lon="4.69825">
        <ele>347.4</ele>
        <time>2022-06-25T12:16:10Z</time>
      </trkpt>
      <trkpt lat="46.34562" lon="4.69824">
        <ele>347.6</ele>
        <time>2022-06-25T12:16:11Z</time>
      </trkpt>
      <trkpt lat="46.34559" lon="4.69823">
        <ele>347.6</ele>
        <time>2022-06-25T12:16:12Z</time>
      </trkpt>
      <trkpt lat="46.34557" lon="4.69822">
        <ele>348</ele>
        <time>2022-06-25T12:16:13Z</time>
      </trkpt>
      <trkpt lat="46.34554" lon="4.6982">
        <ele>348.2</ele>
        <time>2022-06-25T12:16:14Z</time>
      </trkpt>
      <trkpt lat="46.34552" lon="4.69818">
        <ele>348.4</ele>
        <time>2022-06-25T12:16:15Z</time>
      </trkpt>
      <trkpt lat="46.3455" lon="4.69816">
        <ele>348.8</ele>
        <time>2022-06-25T12:16:16Z</time>
      </trkpt>
      <trkpt lat="46.34548" lon="4.69814">
        <ele>349</ele>
        <time>2022-06-25T12:16:17Z</time>
      </trkpt>
      <trkpt lat="46.34546" lon="4.69812">
        <ele>349.2</ele>
        <time>2022-06-25T12:16:18Z</time>
      </trkpt>
      <trkpt lat="46.34544" lon="4.69811">
        <ele>349.4</ele>
        <time>2022-06-25T12:16:19Z</time>
      </trkpt>
      <trkpt lat="46.34541" lon="4.69809">
        <ele>349.6</ele>
        <time>2022-06-25T12:16:20Z</time>
      </trkpt>
      <trkpt lat="46.34539" lon="4.69808">
        <ele>349.8</ele>
        <time>2022-06-25T12:16:21Z</time>
      </trkpt>
      <trkpt lat="46.34537" lon="4.69807">
        <ele>349.8</ele>
        <time>2022-06-25T12:16:22Z</time>
      </trkpt>
      <trkpt lat="46.34534" lon="4.69806">
        <ele>350.2</ele>
        <time>2022-06-25T12:16:23Z</time>
      </trkpt>
      <trkpt lat="46.34532" lon="4.69806">
        <ele>350.2</ele>
        <time>2022-06-25T12:16:24Z</time>
      </trkpt>
      <trkpt lat="46.34529" lon="4.69806">
        <ele>350.2</ele>
        <time>2022-06-25T12:16:25Z</time>
      </trkpt>
      <trkpt lat="46.34526" lon="4.69806">
        <ele>350.6</ele>
        <time>2022-06-25T12:16:26Z</time>
      </trkpt>
      <trkpt lat="46.34523" lon="4.69807">
        <ele>350.6</ele>
        <time>2022-06-25T12:16:27Z</time>
      </trkpt>
      <trkpt lat="46.3452" lon="4.69807">
        <ele>351</ele>
        <time>2022-06-25T12:16:28Z</time>
      </trkpt>
      <trkpt lat="46.34517" lon="4.69809">
        <ele>351</ele>
        <time>2022-06-25T12:16:29Z</time>
      </trkpt>
      <trkpt lat="46.34513" lon="4.6981">
        <ele>351.2</ele>
        <time>2022-06-25T12:16:30Z</time>
      </trkpt>
      <trkpt lat="46.3451" lon="4.69811">
        <ele>351.2</ele>
        <time>2022-06-25T12:16:31Z</time>
      </trkpt>
      <trkpt lat="46.34507" lon="4.69813">
        <ele>351.6</ele>
        <time>2022-06-25T12:16:32Z</time>
      </trkpt>
      <trkpt lat="46.34504" lon="4.69814">
        <ele>351.6</ele>
        <time>2022-06-25T12:16:33Z</time>
      </trkpt>
      <trkpt lat="46.345" lon="4.69815">
        <ele>351.8</ele>
        <time>2022-06-25T12:16:34Z</time>
      </trkpt>
      <trkpt lat="46.34497" lon="4.69816">
        <ele>351.8</ele>
        <time>2022-06-25T12:16:35Z</time>
      </trkpt>
      <trkpt lat="46.34494" lon="4.69817">
        <ele>351.8</ele>
        <time>2022-06-25T12:16:36Z</time>
      </trkpt>
      <trkpt lat="46.3449" lon="4.69819">
        <ele>352</ele>
        <time>2022-06-25T12:16:37Z</time>
      </trkpt>
      <trkpt lat="46.34487" lon="4.6982">
        <ele>352</ele>
        <time>2022-06-25T12:16:38Z</time>
      </trkpt>
      <trkpt lat="46.34483" lon="4.69821">
        <ele>352</ele>
        <time>2022-06-25T12:16:39Z</time>
      </trkpt>
      <trkpt lat="46.3448" lon="4.69822">
        <ele>352.2</ele>
        <time>2022-06-25T12:16:40Z</time>
      </trkpt>
      <trkpt lat="46.34476" lon="4.69822">
        <ele>352.2</ele>
        <time>2022-06-25T12:16:41Z</time>
      </trkpt>
      <trkpt lat="46.34472" lon="4.69823">
        <ele>352.2</ele>
        <time>2022-06-25T12:16:42Z</time>
      </trkpt>
      <trkpt lat="46.34468" lon="4.69823">
        <ele>352.2</ele>
        <time>2022-06-25T12:16:43Z</time>
      </trkpt>
      <trkpt lat="46.34464" lon="4.69824">
        <ele>352.2</ele>
        <time>2022-06-25T12:16:44Z</time>
      </trkpt>
      <trkpt lat="46.3446" lon="4.69824">
        <ele>352.2</ele>
        <time>2022-06-25T12:16:45Z</time>
      </trkpt>
      <trkpt lat="46.34455" lon="4.69823">
        <ele>352.2</ele>
        <time>2022-06-25T12:16:46Z</time>
      </trkpt>
      <trkpt lat="46.34451" lon="4.69823">
        <ele>352.2</ele>
        <time>2022-06-25T12:16:47Z</time>
      </trkpt>
      <trkpt lat="46.34446" lon="4.69823">
        <ele>352.2</ele>
        <time>2022-06-25T12:16:48Z</time>
      </trkpt>
      <trkpt lat="46.34441" lon="4.69823">
        <ele>352.2</ele>
        <time>2022-06-25T12:16:49Z</time>
      </trkpt>
      <trkpt lat="46.34436" lon="4.69822">
        <ele>352.2</ele>
        <time>2022-06-25T12:16:50Z</time>
      </trkpt>
      <trkpt lat="46.34431" lon="4.69821">
        <ele>352</ele>
        <time>2022-06-25T12:16:51Z</time>
      </trkpt>
      <trkpt lat="46.34426" lon="4.6982">
        <ele>352</ele>
        <time>2022-06-25T12:16:52Z</time>
      </trkpt>
      <trkpt lat="46.34421" lon="4.69818">
        <ele>351.6</ele>
        <time>2022-06-25T12:16:53Z</time>
      </trkpt>
      <trkpt lat="46.34416" lon="4.69815">
        <ele>351.6</ele>
        <time>2022-06-25T12:16:54Z</time>
      </trkpt>
      <trkpt lat="46.34411" lon="4.69812">
        <ele>351.4</ele>
        <time>2022-06-25T12:16:55Z</time>
      </trkpt>
      <trkpt lat="46.34405" lon="4.69808">
        <ele>351.4</ele>
        <time>2022-06-25T12:16:56Z</time>
      </trkpt>
      <trkpt lat="46.344" lon="4.69804">
        <ele>351.4</ele>
        <time>2022-06-25T12:16:57Z</time>
      </trkpt>
      <trkpt lat="46.34395" lon="4.698">
        <ele>351.4</ele>
        <time>2022-06-25T12:16:58Z</time>
      </trkpt>
      <trkpt lat="46.3439" lon="4.69796">
        <ele>351.4</ele>
        <time>2022-06-25T12:16:59Z</time>
      </trkpt>
      <trkpt lat="46.34385" lon="4.69791">
        <ele>351.2</ele>
        <time>2022-06-25T12:17:00Z</time>
      </trkpt>
      <trkpt lat="46.3438" lon="4.69787">
        <ele>351.2</ele>
        <time>2022-06-25T12:17:01Z</time>
      </trkpt>
      <trkpt lat="46.34375" lon="4.69783">
        <ele>351.2</ele>
        <time>2022-06-25T12:17:02Z</time>
      </trkpt>
      <trkpt lat="46.34369" lon="4.6978">
        <ele>351.2</ele>
        <time>2022-06-25T12:17:03Z</time>
      </trkpt>
      <trkpt lat="46.34364" lon="4.69777">
        <ele>351.4</ele>
        <time>2022-06-25T12:17:04Z</time>
      </trkpt>
      <trkpt lat="46.34359" lon="4.69775">
        <ele>351.4</ele>
        <time>2022-06-25T12:17:05Z</time>
      </trkpt>
      <trkpt lat="46.34353" lon="4.69773">
        <ele>351.4</ele>
        <time>2022-06-25T12:17:06Z</time>
      </trkpt>
      <trkpt lat="46.34348" lon="4.69772">
        <ele>351.4</ele>
        <time>2022-06-25T12:17:07Z</time>
      </trkpt>
      <trkpt lat="46.34342" lon="4.69772">
        <ele>351.4</ele>
        <time>2022-06-25T12:17:08Z</time>
      </trkpt>
      <trkpt lat="46.34336" lon="4.69771">
        <ele>351.4</ele>
        <time>2022-06-25T12:17:09Z</time>
      </trkpt>
      <trkpt lat="46.3433" lon="4.69771">
        <ele>351.4</ele>
        <time>2022-06-25T12:17:10Z</time>
      </trkpt>
      <trkpt lat="46.34323" lon="4.6977">
        <ele>351.4</ele>
        <time>2022-06-25T12:17:11Z</time>
      </trkpt>
      <trkpt lat="46.34317" lon="4.6977">
        <ele>351.2</ele>
        <time>2022-06-25T12:17:12Z</time>
      </trkpt>
      <trkpt lat="46.3431" lon="4.69769">
        <ele>351</ele>
        <time>2022-06-25T12:17:13Z</time>
      </trkpt>
      <trkpt lat="46.34303" lon="4.69769">
        <ele>350.8</ele>
        <time>2022-06-25T12:17:14Z</time>
      </trkpt>
      <trkpt lat="46.34296" lon="4.69768">
        <ele>350.4</ele>
        <time>2022-06-25T12:17:15Z</time>
      </trkpt>
      <trkpt lat="46.34289" lon="4.69767">
        <ele>350.2</ele>
        <time>2022-06-25T12:17:16Z</time>
      </trkpt>
      <trkpt lat="46.34282" lon="4.69766">
        <ele>350</ele>
        <time>2022-06-25T12:17:17Z</time>
      </trkpt>
      <trkpt lat="46.34275" lon="4.69764">
        <ele>349.8</ele>
        <time>2022-06-25T12:17:18Z</time>
      </trkpt>
      <trkpt lat="46.34268" lon="4.69761">
        <ele>349.4</ele>
        <time>2022-06-25T12:17:19Z</time>
      </trkpt>
      <trkpt lat="46.34261" lon="4.69758">
        <ele>349.2</ele>
        <time>2022-06-25T12:17:20Z</time>
      </trkpt>
      <trkpt lat="46.34254" lon="4.69755">
        <ele>349</ele>
        <time>2022-06-25T12:17:21Z</time>
      </trkpt>
      <trkpt lat="46.34247" lon="4.69753">
        <ele>348.6</ele>
        <time>2022-06-25T12:17:22Z</time>
      </trkpt>
      <trkpt lat="46.3424" lon="4.69751">
        <ele>348.2</ele>
        <time>2022-06-25T12:17:23Z</time>
      </trkpt>
      <trkpt lat="46.34232" lon="4.6975">
        <ele>348.2</ele>
        <time>2022-06-25T12:17:24Z</time>
      </trkpt>
      <trkpt lat="46.34225" lon="4.6975">
        <ele>348</ele>
        <time>2022-06-25T12:17:25Z</time>
      </trkpt>
      <trkpt lat="46.34217" lon="4.6975">
        <ele>348</ele>
        <time>2022-06-25T12:17:26Z</time>
      </trkpt>
      <trkpt lat="46.3421" lon="4.6975">
        <ele>347.6</ele>
        <time>2022-06-25T12:17:27Z</time>
      </trkpt>
      <trkpt lat="46.34202" lon="4.69752">
        <ele>347.4</ele>
        <time>2022-06-25T12:17:28Z</time>
      </trkpt>
      <trkpt lat="46.34194" lon="4.69753">
        <ele>347.4</ele>
        <time>2022-06-25T12:17:29Z</time>
      </trkpt>
      <trkpt lat="46.34186" lon="4.69755">
        <ele>347</ele>
        <time>2022-06-25T12:17:30Z</time>
      </trkpt>
      <trkpt lat="46.34178" lon="4.69756">
        <ele>347</ele>
        <time>2022-06-25T12:17:31Z</time>
      </trkpt>
      <trkpt lat="46.34171" lon="4.69757">
        <ele>346.6</ele>
        <time>2022-06-25T12:17:32Z</time>
      </trkpt>
      <trkpt lat="46.34163" lon="4.69758">
        <ele>346.6</ele>
        <time>2022-06-25T12:17:33Z</time>
      </trkpt>
      <trkpt lat="46.34156" lon="4.69758">
        <ele>346.4</ele>
        <time>2022-06-25T12:17:34Z</time>
      </trkpt>
      <trkpt lat="46.3415" lon="4.69757">
        <ele>346.4</ele>
        <time>2022-06-25T12:17:35Z</time>
      </trkpt>
      <trkpt lat="46.34144" lon="4.69755">
        <ele>346.4</ele>
        <time>2022-06-25T12:17:36Z</time>
      </trkpt>
      <trkpt lat="46.34138" lon="4.69751">
        <ele>346.4</ele>
        <time>2022-06-25T12:17:37Z</time>
      </trkpt>
      <trkpt lat="46.34133" lon="4.69748">
        <ele>346.4</ele>
        <time>2022-06-25T12:17:38Z</time>
      </trkpt>
      <trkpt lat="46.34128" lon="4.69743">
        <ele>346.6</ele>
        <time>2022-06-25T12:17:39Z</time>
      </trkpt>
      <trkpt lat="46.34124" lon="4.69739">
        <ele>346.6</ele>
        <time>2022-06-25T12:17:40Z</time>
      </trkpt>
      <trkpt lat="46.34121" lon="4.69735">
        <ele>346.8</ele>
        <time>2022-06-25T12:17:41Z</time>
      </trkpt>
      <trkpt lat="46.34117" lon="4.69731">
        <ele>346.8</ele>
        <time>2022-06-25T12:17:42Z</time>
      </trkpt>
      <trkpt lat="46.34114" lon="4.69727">
        <ele>347.2</ele>
        <time>2022-06-25T12:17:43Z</time>
      </trkpt>
      <trkpt lat="46.34111" lon="4.69723">
        <ele>347.2</ele>
        <time>2022-06-25T12:17:44Z</time>
      </trkpt>
      <trkpt lat="46.34108" lon="4.69719">
        <ele>347.4</ele>
        <time>2022-06-25T12:17:45Z</time>
      </trkpt>
      <trkpt lat="46.34105" lon="4.69716">
        <ele>347.4</ele>
        <time>2022-06-25T12:17:46Z</time>
      </trkpt>
      <trkpt lat="46.34102" lon="4.69712">
        <ele>347.6</ele>
        <time>2022-06-25T12:17:47Z</time>
      </trkpt>
      <trkpt lat="46.34098" lon="4.69709">
        <ele>347.6</ele>
        <time>2022-06-25T12:17:48Z</time>
      </trkpt>
      <trkpt lat="46.34095" lon="4.69705">
        <ele>347.6</ele>
        <time>2022-06-25T12:17:49Z</time>
      </trkpt>
      <trkpt lat="46.34092" lon="4.69702">
        <ele>348</ele>
        <time>2022-06-25T12:17:50Z</time>
      </trkpt>
      <trkpt lat="46.34089" lon="4.69699">
        <ele>348</ele>
        <time>2022-06-25T12:17:51Z</time>
      </trkpt>
      <trkpt lat="46.34086" lon="4.69695">
        <ele>348</ele>
        <time>2022-06-25T12:17:52Z</time>
      </trkpt>
      <trkpt lat="46.34083" lon="4.6969">
        <ele>348</ele>
        <time>2022-06-25T12:17:53Z</time>
      </trkpt>
      <trkpt lat="46.34079" lon="4.69685">
        <ele>348</ele>
        <time>2022-06-25T12:17:54Z</time>
      </trkpt>
      <trkpt lat="46.34076" lon="4.6968">
        <ele>348</ele>
        <time>2022-06-25T12:17:55Z</time>
      </trkpt>
      <trkpt lat="46.34073" lon="4.69673">
        <ele>348</ele>
        <time>2022-06-25T12:17:56Z</time>
      </trkpt>
      <trkpt lat="46.34071" lon="4.69666">
        <ele>348</ele>
        <time>2022-06-25T12:17:57Z</time>
      </trkpt>
      <trkpt lat="46.3407" lon="4.69659">
        <ele>348</ele>
        <time>2022-06-25T12:17:58Z</time>
      </trkpt>
      <trkpt lat="46.3407" lon="4.69651">
        <ele>348</ele>
        <time>2022-06-25T12:17:59Z</time>
      </trkpt>
      <trkpt lat="46.3407" lon="4.69644">
        <ele>348</ele>
        <time>2022-06-25T12:18:00Z</time>
      </trkpt>
      <trkpt lat="46.34071" lon="4.69635">
        <ele>348</ele>
        <time>2022-06-25T12:18:01Z</time>
      </trkpt>
      <trkpt lat="46.34071" lon="4.69627">
        <ele>347.8</ele>
        <time>2022-06-25T12:18:02Z</time>
      </trkpt>
      <trkpt lat="46.34072" lon="4.69618">
        <ele>347.8</ele>
        <time>2022-06-25T12:18:03Z</time>
      </trkpt>
      <trkpt lat="46.34072" lon="4.69609">
        <ele>347.8</ele>
        <time>2022-06-25T12:18:04Z</time>
      </trkpt>
      <trkpt lat="46.34072" lon="4.696">
        <ele>347.4</ele>
        <time>2022-06-25T12:18:05Z</time>
      </trkpt>
      <trkpt lat="46.34073" lon="4.69591">
        <ele>347.4</ele>
        <time>2022-06-25T12:18:06Z</time>
      </trkpt>
      <trkpt lat="46.34073" lon="4.69582">
        <ele>347.4</ele>
        <time>2022-06-25T12:18:07Z</time>
      </trkpt>
      <trkpt lat="46.34073" lon="4.69573">
        <ele>347.4</ele>
        <time>2022-06-25T12:18:08Z</time>
      </trkpt>
      <trkpt lat="46.34072" lon="4.69564">
        <ele>347.4</ele>
        <time>2022-06-25T12:18:09Z</time>
      </trkpt>
      <trkpt lat="46.34071" lon="4.69555">
        <ele>347.2</ele>
        <time>2022-06-25T12:18:10Z</time>
      </trkpt>
      <trkpt lat="46.34069" lon="4.69546">
        <ele>347.2</ele>
        <time>2022-06-25T12:18:11Z</time>
      </trkpt>
      <trkpt lat="46.34065" lon="4.69539">
        <ele>347.2</ele>
        <time>2022-06-25T12:18:12Z</time>
      </trkpt>
      <trkpt lat="46.34061" lon="4.69532">
        <ele>347.2</ele>
        <time>2022-06-25T12:18:13Z</time>
      </trkpt>
      <trkpt lat="46.34057" lon="4.69526">
        <ele>347.2</ele>
        <time>2022-06-25T12:18:14Z</time>
      </trkpt>
      <trkpt lat="46.34051" lon="4.69522">
        <ele>346.8</ele>
        <time>2022-06-25T12:18:15Z</time>
      </trkpt>
      <trkpt lat="46.34046" lon="4.69518">
        <ele>346.8</ele>
        <time>2022-06-25T12:18:16Z</time>
      </trkpt>
      <trkpt lat="46.3404" lon="4.69515">
        <ele>346.6</ele>
        <time>2022-06-25T12:18:17Z</time>
      </trkpt>
      <trkpt lat="46.34033" lon="4.69512">
        <ele>346.4</ele>
        <time>2022-06-25T12:18:18Z</time>
      </trkpt>
      <trkpt lat="46.34027" lon="4.6951">
        <ele>346</ele>
        <time>2022-06-25T12:18:19Z</time>
      </trkpt>
      <trkpt lat="46.3402" lon="4.69507">
        <ele>346</ele>
        <time>2022-06-25T12:18:20Z</time>
      </trkpt>
      <trkpt lat="46.34014" lon="4.69504">
        <ele>345.6</ele>
        <time>2022-06-25T12:18:21Z</time>
      </trkpt>
      <trkpt lat="46.34007" lon="4.69501">
        <ele>345.4</ele>
        <time>2022-06-25T12:18:22Z</time>
      </trkpt>
      <trkpt lat="46.34001" lon="4.69498">
        <ele>345.2</ele>
        <time>2022-06-25T12:18:23Z</time>
      </trkpt>
      <trkpt lat="46.33994" lon="4.69495">
        <ele>345.2</ele>
        <time>2022-06-25T12:18:24Z</time>
      </trkpt>
      <trkpt lat="46.33987" lon="4.6949">
        <ele>344.8</ele>
        <time>2022-06-25T12:18:25Z</time>
      </trkpt>
      <trkpt lat="46.33981" lon="4.69486">
        <ele>344.8</ele>
        <time>2022-06-25T12:18:26Z</time>
      </trkpt>
      <trkpt lat="46.33975" lon="4.69481">
        <ele>344.4</ele>
        <time>2022-06-25T12:18:27Z</time>
      </trkpt>
      <trkpt lat="46.33968" lon="4.69476">
        <ele>344.4</ele>
        <time>2022-06-25T12:18:28Z</time>
      </trkpt>
      <trkpt lat="46.33962" lon="4.6947">
        <ele>344.2</ele>
        <time>2022-06-25T12:18:29Z</time>
      </trkpt>
      <trkpt lat="46.33956" lon="4.69465">
        <ele>344.2</ele>
        <time>2022-06-25T12:18:30Z</time>
      </trkpt>
      <trkpt lat="46.33949" lon="4.69459">
        <ele>343.8</ele>
        <time>2022-06-25T12:18:31Z</time>
      </trkpt>
      <trkpt lat="46.33943" lon="4.69453">
        <ele>343.8</ele>
        <time>2022-06-25T12:18:32Z</time>
      </trkpt>
      <trkpt lat="46.33937" lon="4.69448">
        <ele>343.4</ele>
        <time>2022-06-25T12:18:33Z</time>
      </trkpt>
      <trkpt lat="46.3393" lon="4.69442">
        <ele>343.2</ele>
        <time>2022-06-25T12:18:34Z</time>
      </trkpt>
      <trkpt lat="46.33923" lon="4.69436">
        <ele>343</ele>
        <time>2022-06-25T12:18:35Z</time>
      </trkpt>
      <trkpt lat="46.33916" lon="4.6943">
        <ele>342.6</ele>
        <time>2022-06-25T12:18:36Z</time>
      </trkpt>
      <trkpt lat="46.33909" lon="4.69423">
        <ele>342.6</ele>
        <time>2022-06-25T12:18:37Z</time>
      </trkpt>
      <trkpt lat="46.33902" lon="4.69417">
        <ele>342.2</ele>
        <time>2022-06-25T12:18:38Z</time>
      </trkpt>
      <trkpt lat="46.33895" lon="4.69411">
        <ele>342</ele>
        <time>2022-06-25T12:18:39Z</time>
      </trkpt>
      <trkpt lat="46.33887" lon="4.69404">
        <ele>341.6</ele>
        <time>2022-06-25T12:18:40Z</time>
      </trkpt>
      <trkpt lat="46.33879" lon="4.69398">
        <ele>341.4</ele>
        <time>2022-06-25T12:18:41Z</time>
      </trkpt>
      <trkpt lat="46.33872" lon="4.69392">
        <ele>341.4</ele>
        <time>2022-06-25T12:18:42Z</time>
      </trkpt>
      <trkpt lat="46.33864" lon="4.69385">
        <ele>341</ele>
        <time>2022-06-25T12:18:43Z</time>
      </trkpt>
      <trkpt lat="46.33857" lon="4.69378">
        <ele>340.8</ele>
        <time>2022-06-25T12:18:44Z</time>
      </trkpt>
      <trkpt lat="46.3385" lon="4.69369">
        <ele>340.4</ele>
        <time>2022-06-25T12:18:45Z</time>
      </trkpt>
      <trkpt lat="46.33844" lon="4.69359">
        <ele>340.2</ele>
        <time>2022-06-25T12:18:46Z</time>
      </trkpt>
      <trkpt lat="46.33838" lon="4.69346">
        <ele>339.6</ele>
        <time>2022-06-25T12:18:47Z</time>
      </trkpt>
      <trkpt lat="46.33833" lon="4.69335">
        <ele>339.2</ele>
        <time>2022-06-25T12:18:48Z</time>
      </trkpt>
      <trkpt lat="46.33828" lon="4.69323">
        <ele>338.8</ele>
        <time>2022-06-25T12:18:49Z</time>
      </trkpt>
      <trkpt lat="46.33823" lon="4.6931">
        <ele>338.6</ele>
        <time>2022-06-25T12:18:50Z</time>
      </trkpt>
      <trkpt lat="46.33819" lon="4.69298">
        <ele>338.2</ele>
        <time>2022-06-25T12:18:51Z</time>
      </trkpt>
      <trkpt lat="46.33814" lon="4.69287">
        <ele>338</ele>
        <time>2022-06-25T12:18:52Z</time>
      </trkpt>
      <trkpt lat="46.33808" lon="4.69277">
        <ele>337.4</ele>
        <time>2022-06-25T12:18:53Z</time>
      </trkpt>
      <trkpt lat="46.33802" lon="4.69267">
        <ele>337</ele>
        <time>2022-06-25T12:18:54Z</time>
      </trkpt>
      <trkpt lat="46.33795" lon="4.69258">
        <ele>336.8</ele>
        <time>2022-06-25T12:18:55Z</time>
      </trkpt>
      <trkpt lat="46.33788" lon="4.6925">
        <ele>336.2</ele>
        <time>2022-06-25T12:18:56Z</time>
      </trkpt>
      <trkpt lat="46.3378" lon="4.69243">
        <ele>335.6</ele>
        <time>2022-06-25T12:18:57Z</time>
      </trkpt>
      <trkpt lat="46.33774" lon="4.69236">
        <ele>334.8</ele>
        <time>2022-06-25T12:18:58Z</time>
      </trkpt>
      <trkpt lat="46.33768" lon="4.69227">
        <ele>334.2</ele>
        <time>2022-06-25T12:18:59Z</time>
      </trkpt>
      <trkpt lat="46.33763" lon="4.69217">
        <ele>333.6</ele>
        <time>2022-06-25T12:19:00Z</time>
      </trkpt>
      <trkpt lat="46.33759" lon="4.69206">
        <ele>333.2</ele>
        <time>2022-06-25T12:19:01Z</time>
      </trkpt>
      <trkpt lat="46.33757" lon="4.69194">
        <ele>332.2</ele>
        <time>2022-06-25T12:19:03Z</time>
      </trkpt>
      <trkpt lat="46.33754" lon="4.69181">
        <ele>331.8</ele>
        <time>2022-06-25T12:19:04Z</time>
      </trkpt>
      <trkpt lat="46.33752" lon="4.69169">
        <ele>331.6</ele>
        <time>2022-06-25T12:19:05Z</time>
      </trkpt>
      <trkpt lat="46.3375" lon="4.69156">
        <ele>331.2</ele>
        <time>2022-06-25T12:19:06Z</time>
      </trkpt>
      <trkpt lat="46.33748" lon="4.69144">
        <ele>330.6</ele>
        <time>2022-06-25T12:19:07Z</time>
      </trkpt>
      <trkpt lat="46.33745" lon="4.69131">
        <ele>330.2</ele>
        <time>2022-06-25T12:19:08Z</time>
      </trkpt>
      <trkpt lat="46.33744" lon="4.69119">
        <ele>329.8</ele>
        <time>2022-06-25T12:19:09Z</time>
      </trkpt>
      <trkpt lat="46.33743" lon="4.69106">
        <ele>329.4</ele>
        <time>2022-06-25T12:19:10Z</time>
      </trkpt>
      <trkpt lat="46.33742" lon="4.69093">
        <ele>328.8</ele>
        <time>2022-06-25T12:19:11Z</time>
      </trkpt>
      <trkpt lat="46.33741" lon="4.69079">
        <ele>328.2</ele>
        <time>2022-06-25T12:19:12Z</time>
      </trkpt>
      <trkpt lat="46.33739" lon="4.69066">
        <ele>327.8</ele>
        <time>2022-06-25T12:19:13Z</time>
      </trkpt>
      <trkpt lat="46.33738" lon="4.69052">
        <ele>327.4</ele>
        <time>2022-06-25T12:19:14Z</time>
      </trkpt>
      <trkpt lat="46.33735" lon="4.69039">
        <ele>327</ele>
        <time>2022-06-25T12:19:15Z</time>
      </trkpt>
      <trkpt lat="46.33734" lon="4.69026">
        <ele>326.6</ele>
        <time>2022-06-25T12:19:16Z</time>
      </trkpt>
      <trkpt lat="46.33732" lon="4.69014">
        <ele>326.2</ele>
        <time>2022-06-25T12:19:17Z</time>
      </trkpt>
      <trkpt lat="46.33727" lon="4.69003">
        <ele>325.6</ele>
        <time>2022-06-25T12:19:18Z</time>
      </trkpt>
      <trkpt lat="46.33722" lon="4.6899">
        <ele>325.2</ele>
        <time>2022-06-25T12:19:19Z</time>
      </trkpt>
      <trkpt lat="46.33716" lon="4.68979">
        <ele>324.8</ele>
        <time>2022-06-25T12:19:20Z</time>
      </trkpt>
      <trkpt lat="46.33709" lon="4.6897">
        <ele>324.6</ele>
        <time>2022-06-25T12:19:21Z</time>
      </trkpt>
      <trkpt lat="46.337" lon="4.68962">
        <ele>324.2</ele>
        <time>2022-06-25T12:19:22Z</time>
      </trkpt>
      <trkpt lat="46.33692" lon="4.68957">
        <ele>323.6</ele>
        <time>2022-06-25T12:19:23Z</time>
      </trkpt>
      <trkpt lat="46.33682" lon="4.68955">
        <ele>323</ele>
        <time>2022-06-25T12:19:24Z</time>
      </trkpt>
      <trkpt lat="46.33673" lon="4.68956">
        <ele>322.4</ele>
        <time>2022-06-25T12:19:25Z</time>
      </trkpt>
      <trkpt lat="46.33663" lon="4.68957">
        <ele>321.8</ele>
        <time>2022-06-25T12:19:26Z</time>
      </trkpt>
      <trkpt lat="46.33653" lon="4.68958">
        <ele>321.4</ele>
        <time>2022-06-25T12:19:27Z</time>
      </trkpt>
      <trkpt lat="46.33643" lon="4.68958">
        <ele>321</ele>
        <time>2022-06-25T12:19:28Z</time>
      </trkpt>
      <trkpt lat="46.33633" lon="4.68959">
        <ele>320.6</ele>
        <time>2022-06-25T12:19:29Z</time>
      </trkpt>
      <trkpt lat="46.33623" lon="4.6896">
        <ele>320.2</ele>
        <time>2022-06-25T12:19:30Z</time>
      </trkpt>
      <trkpt lat="46.33614" lon="4.68964">
        <ele>319.6</ele>
        <time>2022-06-25T12:19:31Z</time>
      </trkpt>
      <trkpt lat="46.33604" lon="4.68967">
        <ele>319</ele>
        <time>2022-06-25T12:19:32Z</time>
      </trkpt>
      <trkpt lat="46.33595" lon="4.6897">
        <ele>318.4</ele>
        <time>2022-06-25T12:19:33Z</time>
      </trkpt>
      <trkpt lat="46.33586" lon="4.68973">
        <ele>317.8</ele>
        <time>2022-06-25T12:19:34Z</time>
      </trkpt>
      <trkpt lat="46.33578" lon="4.68977">
        <ele>317</ele>
        <time>2022-06-25T12:19:35Z</time>
      </trkpt>
      <trkpt lat="46.33571" lon="4.6898">
        <ele>316.4</ele>
        <time>2022-06-25T12:19:36Z</time>
      </trkpt>
      <trkpt lat="46.33564" lon="4.68983">
        <ele>316</ele>
        <time>2022-06-25T12:19:37Z</time>
      </trkpt>
      <trkpt lat="46.33558" lon="4.68986">
        <ele>315.4</ele>
        <time>2022-06-25T12:19:38Z</time>
      </trkpt>
      <trkpt lat="46.33552" lon="4.68988">
        <ele>314.8</ele>
        <time>2022-06-25T12:19:39Z</time>
      </trkpt>
      <trkpt lat="46.33546" lon="4.68991">
        <ele>314.4</ele>
        <time>2022-06-25T12:19:40Z</time>
      </trkpt>
      <trkpt lat="46.33541" lon="4.68993">
        <ele>314</ele>
        <time>2022-06-25T12:19:41Z</time>
      </trkpt>
      <trkpt lat="46.33536" lon="4.68994">
        <ele>313.6</ele>
        <time>2022-06-25T12:19:42Z</time>
      </trkpt>
      <trkpt lat="46.33531" lon="4.68996">
        <ele>313.2</ele>
        <time>2022-06-25T12:19:43Z</time>
      </trkpt>
      <trkpt lat="46.33526" lon="4.68996">
        <ele>313</ele>
        <time>2022-06-25T12:19:44Z</time>
      </trkpt>
      <trkpt lat="46.33521" lon="4.68996">
        <ele>312.2</ele>
        <time>2022-06-25T12:19:45Z</time>
      </trkpt>
      <trkpt lat="46.33516" lon="4.68995">
        <ele>312</ele>
        <time>2022-06-25T12:19:46Z</time>
      </trkpt>
      <trkpt lat="46.33511" lon="4.68991">
        <ele>311.6</ele>
        <time>2022-06-25T12:19:47Z</time>
      </trkpt>
      <trkpt lat="46.33507" lon="4.68985">
        <ele>311.4</ele>
        <time>2022-06-25T12:19:48Z</time>
      </trkpt>
      <trkpt lat="46.33504" lon="4.68979">
        <ele>311.4</ele>
        <time>2022-06-25T12:19:49Z</time>
      </trkpt>
      <trkpt lat="46.33503" lon="4.68972">
        <ele>311</ele>
        <time>2022-06-25T12:19:50Z</time>
      </trkpt>
      <trkpt lat="46.33502" lon="4.68965">
        <ele>311</ele>
        <time>2022-06-25T12:19:51Z</time>
      </trkpt>
      <trkpt lat="46.33502" lon="4.68958">
        <ele>311</ele>
        <time>2022-06-25T12:19:52Z</time>
      </trkpt>
      <trkpt lat="46.33502" lon="4.6895">
        <ele>310.6</ele>
        <time>2022-06-25T12:19:53Z</time>
      </trkpt>
      <trkpt lat="46.33502" lon="4.68943">
        <ele>310.2</ele>
        <time>2022-06-25T12:19:54Z</time>
      </trkpt>
      <trkpt lat="46.33502" lon="4.68935">
        <ele>310</ele>
        <time>2022-06-25T12:19:55Z</time>
      </trkpt>
      <trkpt lat="46.33502" lon="4.68926">
        <ele>309.6</ele>
        <time>2022-06-25T12:19:56Z</time>
      </trkpt>
      <trkpt lat="46.33502" lon="4.68918">
        <ele>309.4</ele>
        <time>2022-06-25T12:19:57Z</time>
      </trkpt>
      <trkpt lat="46.33502" lon="4.68909">
        <ele>309</ele>
        <time>2022-06-25T12:19:58Z</time>
      </trkpt>
      <trkpt lat="46.33502" lon="4.68899">
        <ele>308.8</ele>
        <time>2022-06-25T12:19:59Z</time>
      </trkpt>
      <trkpt lat="46.33502" lon="4.6889">
        <ele>308.4</ele>
        <time>2022-06-25T12:20:00Z</time>
      </trkpt>
      <trkpt lat="46.33502" lon="4.6888">
        <ele>308.2</ele>
        <time>2022-06-25T12:20:01Z</time>
      </trkpt>
      <trkpt lat="46.33502" lon="4.6887">
        <ele>308</ele>
        <time>2022-06-25T12:20:02Z</time>
      </trkpt>
      <trkpt lat="46.33502" lon="4.6886">
        <ele>307.6</ele>
        <time>2022-06-25T12:20:03Z</time>
      </trkpt>
      <trkpt lat="46.33502" lon="4.68849">
        <ele>307.4</ele>
        <time>2022-06-25T12:20:04Z</time>
      </trkpt>
      <trkpt lat="46.33502" lon="4.68838">
        <ele>307.2</ele>
        <time>2022-06-25T12:20:05Z</time>
      </trkpt>
      <trkpt lat="46.33502" lon="4.68828">
        <ele>306.8</ele>
        <time>2022-06-25T12:20:06Z</time>
      </trkpt>
      <trkpt lat="46.33502" lon="4.68819">
        <ele>306.4</ele>
        <time>2022-06-25T12:20:07Z</time>
      </trkpt>
      <trkpt lat="46.33502" lon="4.68809">
        <ele>306.2</ele>
        <time>2022-06-25T12:20:08Z</time>
      </trkpt>
      <trkpt lat="46.33502" lon="4.688">
        <ele>305.6</ele>
        <time>2022-06-25T12:20:09Z</time>
      </trkpt>
      <trkpt lat="46.33502" lon="4.6879">
        <ele>305.4</ele>
        <time>2022-06-25T12:20:10Z</time>
      </trkpt>
      <trkpt lat="46.33502" lon="4.68781">
        <ele>305</ele>
        <time>2022-06-25T12:20:11Z</time>
      </trkpt>
      <trkpt lat="46.33502" lon="4.68771">
        <ele>304.6</ele>
        <time>2022-06-25T12:20:12Z</time>
      </trkpt>
      <trkpt lat="46.33502" lon="4.68761">
        <ele>304.2</ele>
        <time>2022-06-25T12:20:13Z</time>
      </trkpt>
      <trkpt lat="46.33502" lon="4.6875">
        <ele>303.8</ele>
        <time>2022-06-25T12:20:14Z</time>
      </trkpt>
      <trkpt lat="46.33502" lon="4.68739">
        <ele>303.4</ele>
        <time>2022-06-25T12:20:15Z</time>
      </trkpt>
      <trkpt lat="46.33502" lon="4.68728">
        <ele>303</ele>
        <time>2022-06-25T12:20:16Z</time>
      </trkpt>
      <trkpt lat="46.33502" lon="4.68717">
        <ele>302.6</ele>
        <time>2022-06-25T12:20:17Z</time>
      </trkpt>
      <trkpt lat="46.33502" lon="4.68706">
        <ele>302</ele>
        <time>2022-06-25T12:20:18Z</time>
      </trkpt>
      <trkpt lat="46.33502" lon="4.68695">
        <ele>301.6</ele>
        <time>2022-06-25T12:20:19Z</time>
      </trkpt>
      <trkpt lat="46.33502" lon="4.68686">
        <ele>301.2</ele>
        <time>2022-06-25T12:20:20Z</time>
      </trkpt>
      <trkpt lat="46.33501" lon="4.68677">
        <ele>300.8</ele>
        <time>2022-06-25T12:20:21Z</time>
      </trkpt>
      <trkpt lat="46.33501" lon="4.68668">
        <ele>300.4</ele>
        <time>2022-06-25T12:20:22Z</time>
      </trkpt>
      <trkpt lat="46.33499" lon="4.68661">
        <ele>300</ele>
        <time>2022-06-25T12:20:23Z</time>
      </trkpt>
      <trkpt lat="46.33497" lon="4.68655">
        <ele>299.4</ele>
        <time>2022-06-25T12:20:24Z</time>
      </trkpt>
      <trkpt lat="46.33494" lon="4.6865">
        <ele>299</ele>
        <time>2022-06-25T12:20:25Z</time>
      </trkpt>
      <trkpt lat="46.33492" lon="4.68646">
        <ele>298.6</ele>
        <time>2022-06-25T12:20:26Z</time>
      </trkpt>
      <trkpt lat="46.3349" lon="4.68644">
        <ele>298.2</ele>
        <time>2022-06-25T12:20:27Z</time>
      </trkpt>
      <trkpt lat="46.33488" lon="4.68642">
        <ele>298</ele>
        <time>2022-06-25T12:20:28Z</time>
      </trkpt>
      <trkpt lat="46.33487" lon="4.68641">
        <ele>297.6</ele>
        <time>2022-06-25T12:20:29Z</time>
      </trkpt>
      <trkpt lat="46.33486" lon="4.68641">
        <ele>297.6</ele>
        <time>2022-06-25T12:20:30Z</time>
      </trkpt>
      <trkpt lat="46.33485" lon="4.68642">
        <ele>297.4</ele>
        <time>2022-06-25T12:20:32Z</time>
      </trkpt>
      <trkpt lat="46.33485" lon="4.68643">
        <ele>297.4</ele>
        <time>2022-06-25T12:20:33Z</time>
      </trkpt>
      <trkpt lat="46.33485" lon="4.68643">
        <ele>297.2</ele>
        <time>2022-06-25T12:20:35Z</time>
      </trkpt>
      <trkpt lat="46.33482" lon="4.68645">
        <ele>296.8</ele>
        <time>2022-06-25T12:20:40Z</time>
      </trkpt>
      <trkpt lat="46.3348" lon="4.68647">
        <ele>296.8</ele>
        <time>2022-06-25T12:20:41Z</time>
      </trkpt>
      <trkpt lat="46.33478" lon="4.68649">
        <ele>296.8</ele>
        <time>2022-06-25T12:20:42Z</time>
      </trkpt>
      <trkpt lat="46.33476" lon="4.68651">
        <ele>296.8</ele>
        <time>2022-06-25T12:20:43Z</time>
      </trkpt>
      <trkpt lat="46.33474" lon="4.68654">
        <ele>296.8</ele>
        <time>2022-06-25T12:20:44Z</time>
      </trkpt>
      <trkpt lat="46.33472" lon="4.68658">
        <ele>296.8</ele>
        <time>2022-06-25T12:20:45Z</time>
      </trkpt>
      <trkpt lat="46.3347" lon="4.68661">
        <ele>296.6</ele>
        <time>2022-06-25T12:20:46Z</time>
      </trkpt>
      <trkpt lat="46.33468" lon="4.68665">
        <ele>296.6</ele>
        <time>2022-06-25T12:20:47Z</time>
      </trkpt>
      <trkpt lat="46.33465" lon="4.68669">
        <ele>296.6</ele>
        <time>2022-06-25T12:20:48Z</time>
      </trkpt>
      <trkpt lat="46.33462" lon="4.68673">
        <ele>296.6</ele>
        <time>2022-06-25T12:20:49Z</time>
      </trkpt>
      <trkpt lat="46.3346" lon="4.68678">
        <ele>296.4</ele>
        <time>2022-06-25T12:20:50Z</time>
      </trkpt>
      <trkpt lat="46.33457" lon="4.68682">
        <ele>296.4</ele>
        <time>2022-06-25T12:20:51Z</time>
      </trkpt>
      <trkpt lat="46.33454" lon="4.68687">
        <ele>296.4</ele>
        <time>2022-06-25T12:20:52Z</time>
      </trkpt>
      <trkpt lat="46.33451" lon="4.68692">
        <ele>296.4</ele>
        <time>2022-06-25T12:20:53Z</time>
      </trkpt>
      <trkpt lat="46.33448" lon="4.68697">
        <ele>296.4</ele>
        <time>2022-06-25T12:20:54Z</time>
      </trkpt>
      <trkpt lat="46.33445" lon="4.68703">
        <ele>296.4</ele>
        <time>2022-06-25T12:20:55Z</time>
      </trkpt>
      <trkpt lat="46.33442" lon="4.68708">
        <ele>296.4</ele>
        <time>2022-06-25T12:20:56Z</time>
      </trkpt>
      <trkpt lat="46.33438" lon="4.68713">
        <ele>296.4</ele>
        <time>2022-06-25T12:20:57Z</time>
      </trkpt>
      <trkpt lat="46.33435" lon="4.68718">
        <ele>296.2</ele>
        <time>2022-06-25T12:20:58Z</time>
      </trkpt>
      <trkpt lat="46.33432" lon="4.68723">
        <ele>296.2</ele>
        <time>2022-06-25T12:20:59Z</time>
      </trkpt>
      <trkpt lat="46.33429" lon="4.68728">
        <ele>295.8</ele>
        <time>2022-06-25T12:21:00Z</time>
      </trkpt>
      <trkpt lat="46.33427" lon="4.68733">
        <ele>295.6</ele>
        <time>2022-06-25T12:21:01Z</time>
      </trkpt>
      <trkpt lat="46.33424" lon="4.68737">
        <ele>295.4</ele>
        <time>2022-06-25T12:21:02Z</time>
      </trkpt>
      <trkpt lat="46.33422" lon="4.6874">
        <ele>295</ele>
        <time>2022-06-25T12:21:03Z</time>
      </trkpt>
      <trkpt lat="46.33418" lon="4.68741">
        <ele>294.8</ele>
        <time>2022-06-25T12:21:04Z</time>
      </trkpt>
      <trkpt lat="46.33414" lon="4.68741">
        <ele>294.4</ele>
        <time>2022-06-25T12:21:05Z</time>
      </trkpt>
      <trkpt lat="46.33409" lon="4.6874">
        <ele>294.4</ele>
        <time>2022-06-25T12:21:06Z</time>
      </trkpt>
      <trkpt lat="46.33404" lon="4.68738">
        <ele>294</ele>
        <time>2022-06-25T12:21:07Z</time>
      </trkpt>
      <trkpt lat="46.33398" lon="4.68736">
        <ele>293.8</ele>
        <time>2022-06-25T12:21:08Z</time>
      </trkpt>
      <trkpt lat="46.33393" lon="4.68733">
        <ele>293.4</ele>
        <time>2022-06-25T12:21:09Z</time>
      </trkpt>
      <trkpt lat="46.33387" lon="4.68731">
        <ele>293</ele>
        <time>2022-06-25T12:21:10Z</time>
      </trkpt>
      <trkpt lat="46.33383" lon="4.6873">
        <ele>292.8</ele>
        <time>2022-06-25T12:21:11Z</time>
      </trkpt>
      <trkpt lat="46.33378" lon="4.68728">
        <ele>292.8</ele>
        <time>2022-06-25T12:21:12Z</time>
      </trkpt>
      <trkpt lat="46.33373" lon="4.68726">
        <ele>292.6</ele>
        <time>2022-06-25T12:21:13Z</time>
      </trkpt>
      <trkpt lat="46.33369" lon="4.68724">
        <ele>292.6</ele>
        <time>2022-06-25T12:21:14Z</time>
      </trkpt>
      <trkpt lat="46.33364" lon="4.68722">
        <ele>292.2</ele>
        <time>2022-06-25T12:21:15Z</time>
      </trkpt>
      <trkpt lat="46.3336" lon="4.6872">
        <ele>292.2</ele>
        <time>2022-06-25T12:21:16Z</time>
      </trkpt>
      <trkpt lat="46.33355" lon="4.68717">
        <ele>292</ele>
        <time>2022-06-25T12:21:17Z</time>
      </trkpt>
      <trkpt lat="46.33352" lon="4.68712">
        <ele>292</ele>
        <time>2022-06-25T12:21:18Z</time>
      </trkpt>
      <trkpt lat="46.33348" lon="4.68708">
        <ele>292</ele>
        <time>2022-06-25T12:21:19Z</time>
      </trkpt>
      <trkpt lat="46.33345" lon="4.68703">
        <ele>292</ele>
        <time>2022-06-25T12:21:20Z</time>
      </trkpt>
      <trkpt lat="46.33343" lon="4.68697">
        <ele>292</ele>
        <time>2022-06-25T12:21:21Z</time>
      </trkpt>
      <trkpt lat="46.33341" lon="4.68692">
        <ele>292</ele>
        <time>2022-06-25T12:21:22Z</time>
      </trkpt>
      <trkpt lat="46.33339" lon="4.68686">
        <ele>292</ele>
        <time>2022-06-25T12:21:23Z</time>
      </trkpt>
      <trkpt lat="46.33337" lon="4.68681">
        <ele>292</ele>
        <time>2022-06-25T12:21:24Z</time>
      </trkpt>
      <trkpt lat="46.33335" lon="4.68675">
        <ele>292.2</ele>
        <time>2022-06-25T12:21:25Z</time>
      </trkpt>
      <trkpt lat="46.33334" lon="4.6867">
        <ele>292.2</ele>
        <time>2022-06-25T12:21:26Z</time>
      </trkpt>
      <trkpt lat="46.33332" lon="4.68665">
        <ele>292.4</ele>
        <time>2022-06-25T12:21:27Z</time>
      </trkpt>
      <trkpt lat="46.3333" lon="4.6866">
        <ele>292.4</ele>
        <time>2022-06-25T12:21:28Z</time>
      </trkpt>
      <trkpt lat="46.33328" lon="4.68655">
        <ele>292.6</ele>
        <time>2022-06-25T12:21:29Z</time>
      </trkpt>
      <trkpt lat="46.33326" lon="4.68651">
        <ele>292.6</ele>
        <time>2022-06-25T12:21:30Z</time>
      </trkpt>
      <trkpt lat="46.33324" lon="4.68646">
        <ele>293</ele>
        <time>2022-06-25T12:21:31Z</time>
      </trkpt>
      <trkpt lat="46.33322" lon="4.68642">
        <ele>293</ele>
        <time>2022-06-25T12:21:32Z</time>
      </trkpt>
      <trkpt lat="46.3332" lon="4.68638">
        <ele>293.2</ele>
        <time>2022-06-25T12:21:33Z</time>
      </trkpt>
      <trkpt lat="46.33318" lon="4.68634">
        <ele>293.2</ele>
        <time>2022-06-25T12:21:34Z</time>
      </trkpt>
      <trkpt lat="46.33316" lon="4.6863">
        <ele>293.2</ele>
        <time>2022-06-25T12:21:35Z</time>
      </trkpt>
      <trkpt lat="46.33315" lon="4.68625">
        <ele>293.4</ele>
        <time>2022-06-25T12:21:36Z</time>
      </trkpt>
      <trkpt lat="46.33313" lon="4.68622">
        <ele>293.4</ele>
        <time>2022-06-25T12:21:37Z</time>
      </trkpt>
      <trkpt lat="46.33311" lon="4.68618">
        <ele>293.4</ele>
        <time>2022-06-25T12:21:38Z</time>
      </trkpt>
      <trkpt lat="46.33309" lon="4.68614">
        <ele>293.4</ele>
        <time>2022-06-25T12:21:39Z</time>
      </trkpt>
      <trkpt lat="46.33307" lon="4.68611">
        <ele>293.8</ele>
        <time>2022-06-25T12:21:40Z</time>
      </trkpt>
      <trkpt lat="46.33305" lon="4.68607">
        <ele>293.8</ele>
        <time>2022-06-25T12:21:41Z</time>
      </trkpt>
      <trkpt lat="46.33304" lon="4.68603">
        <ele>294</ele>
        <time>2022-06-25T12:21:42Z</time>
      </trkpt>
      <trkpt lat="46.33302" lon="4.68598">
        <ele>294</ele>
        <time>2022-06-25T12:21:43Z</time>
      </trkpt>
      <trkpt lat="46.33301" lon="4.68594">
        <ele>294.4</ele>
        <time>2022-06-25T12:21:44Z</time>
      </trkpt>
      <trkpt lat="46.33299" lon="4.68589">
        <ele>294.6</ele>
        <time>2022-06-25T12:21:45Z</time>
      </trkpt>
      <trkpt lat="46.33297" lon="4.68585">
        <ele>294.8</ele>
        <time>2022-06-25T12:21:46Z</time>
      </trkpt>
      <trkpt lat="46.33296" lon="4.6858">
        <ele>294.8</ele>
        <time>2022-06-25T12:21:47Z</time>
      </trkpt>
      <trkpt lat="46.33294" lon="4.68575">
        <ele>295</ele>
        <time>2022-06-25T12:21:48Z</time>
      </trkpt>
      <trkpt lat="46.33293" lon="4.6857">
        <ele>295</ele>
        <time>2022-06-25T12:21:49Z</time>
      </trkpt>
      <trkpt lat="46.33292" lon="4.68565">
        <ele>295.4</ele>
        <time>2022-06-25T12:21:50Z</time>
      </trkpt>
      <trkpt lat="46.33292" lon="4.6856">
        <ele>295.4</ele>
        <time>2022-06-25T12:21:51Z</time>
      </trkpt>
      <trkpt lat="46.33291" lon="4.68555">
        <ele>295.6</ele>
        <time>2022-06-25T12:21:52Z</time>
      </trkpt>
      <trkpt lat="46.3329" lon="4.6855">
        <ele>295.6</ele>
        <time>2022-06-25T12:21:53Z</time>
      </trkpt>
      <trkpt lat="46.33289" lon="4.68545">
        <ele>296</ele>
        <time>2022-06-25T12:21:54Z</time>
      </trkpt>
      <trkpt lat="46.33288" lon="4.68541">
        <ele>296</ele>
        <time>2022-06-25T12:21:55Z</time>
      </trkpt>
      <trkpt lat="46.33287" lon="4.68536">
        <ele>296.2</ele>
        <time>2022-06-25T12:21:56Z</time>
      </trkpt>
      <trkpt lat="46.33286" lon="4.68531">
        <ele>296.2</ele>
        <time>2022-06-25T12:21:57Z</time>
      </trkpt>
      <trkpt lat="46.33285" lon="4.68526">
        <ele>296.4</ele>
        <time>2022-06-25T12:21:58Z</time>
      </trkpt>
      <trkpt lat="46.33284" lon="4.68522">
        <ele>296.4</ele>
        <time>2022-06-25T12:21:59Z</time>
      </trkpt>
      <trkpt lat="46.33283" lon="4.68518">
        <ele>296.8</ele>
        <time>2022-06-25T12:22:00Z</time>
      </trkpt>
      <trkpt lat="46.33282" lon="4.68513">
        <ele>296.8</ele>
        <time>2022-06-25T12:22:01Z</time>
      </trkpt>
      <trkpt lat="46.33281" lon="4.68509">
        <ele>296.8</ele>
        <time>2022-06-25T12:22:02Z</time>
      </trkpt>
      <trkpt lat="46.3328" lon="4.68505">
        <ele>296.8</ele>
        <time>2022-06-25T12:22:03Z</time>
      </trkpt>
      <trkpt lat="46.33279" lon="4.68501">
        <ele>297</ele>
        <time>2022-06-25T12:22:04Z</time>
      </trkpt>
      <trkpt lat="46.33278" lon="4.68498">
        <ele>297</ele>
        <time>2022-06-25T12:22:05Z</time>
      </trkpt>
      <trkpt lat="46.33278" lon="4.68493">
        <ele>297.2</ele>
        <time>2022-06-25T12:22:06Z</time>
      </trkpt>
      <trkpt lat="46.33277" lon="4.68489">
        <ele>297.2</ele>
        <time>2022-06-25T12:22:07Z</time>
      </trkpt>
      <trkpt lat="46.33276" lon="4.68485">
        <ele>297.4</ele>
        <time>2022-06-25T12:22:08Z</time>
      </trkpt>
      <trkpt lat="46.33275" lon="4.6848">
        <ele>297.4</ele>
        <time>2022-06-25T12:22:09Z</time>
      </trkpt>
      <trkpt lat="46.33274" lon="4.68477">
        <ele>297.8</ele>
        <time>2022-06-25T12:22:10Z</time>
      </trkpt>
      <trkpt lat="46.33273" lon="4.68473">
        <ele>298</ele>
        <time>2022-06-25T12:22:11Z</time>
      </trkpt>
      <trkpt lat="46.33272" lon="4.68469">
        <ele>298</ele>
        <time>2022-06-25T12:22:12Z</time>
      </trkpt>
      <trkpt lat="46.33271" lon="4.68465">
        <ele>298.2</ele>
        <time>2022-06-25T12:22:13Z</time>
      </trkpt>
      <trkpt lat="46.3327" lon="4.68462">
        <ele>298.2</ele>
        <time>2022-06-25T12:22:14Z</time>
      </trkpt>
      <trkpt lat="46.33269" lon="4.68458">
        <ele>298.6</ele>
        <time>2022-06-25T12:22:15Z</time>
      </trkpt>
      <trkpt lat="46.33268" lon="4.68455">
        <ele>298.6</ele>
        <time>2022-06-25T12:22:16Z</time>
      </trkpt>
      <trkpt lat="46.33267" lon="4.68452">
        <ele>299</ele>
        <time>2022-06-25T12:22:17Z</time>
      </trkpt>
      <trkpt lat="46.33265" lon="4.6845">
        <ele>299.2</ele>
        <time>2022-06-25T12:22:18Z</time>
      </trkpt>
      <trkpt lat="46.33264" lon="4.68447">
        <ele>299.2</ele>
        <time>2022-06-25T12:22:19Z</time>
      </trkpt>
      <trkpt lat="46.33263" lon="4.68445">
        <ele>299.6</ele>
        <time>2022-06-25T12:22:20Z</time>
      </trkpt>
      <trkpt lat="46.33261" lon="4.68443">
        <ele>299.6</ele>
        <time>2022-06-25T12:22:21Z</time>
      </trkpt>
      <trkpt lat="46.3326" lon="4.68441">
        <ele>300</ele>
        <time>2022-06-25T12:22:22Z</time>
      </trkpt>
      <trkpt lat="46.33259" lon="4.68438">
        <ele>300.2</ele>
        <time>2022-06-25T12:22:23Z</time>
      </trkpt>
      <trkpt lat="46.33258" lon="4.68436">
        <ele>300.4</ele>
        <time>2022-06-25T12:22:24Z</time>
      </trkpt>
      <trkpt lat="46.33257" lon="4.68434">
        <ele>300.4</ele>
        <time>2022-06-25T12:22:25Z</time>
      </trkpt>
      <trkpt lat="46.33255" lon="4.68432">
        <ele>300.8</ele>
        <time>2022-06-25T12:22:26Z</time>
      </trkpt>
      <trkpt lat="46.33253" lon="4.6843">
        <ele>300.8</ele>
        <time>2022-06-25T12:22:27Z</time>
      </trkpt>
      <trkpt lat="46.33251" lon="4.68428">
        <ele>301</ele>
        <time>2022-06-25T12:22:28Z</time>
      </trkpt>
      <trkpt lat="46.3325" lon="4.68426">
        <ele>301</ele>
        <time>2022-06-25T12:22:29Z</time>
      </trkpt>
      <trkpt lat="46.33248" lon="4.68424">
        <ele>301.4</ele>
        <time>2022-06-25T12:22:30Z</time>
      </trkpt>
      <trkpt lat="46.33246" lon="4.68422">
        <ele>301.4</ele>
        <time>2022-06-25T12:22:31Z</time>
      </trkpt>
      <trkpt lat="46.33245" lon="4.68421">
        <ele>301.8</ele>
        <time>2022-06-25T12:22:32Z</time>
      </trkpt>
      <trkpt lat="46.33244" lon="4.6842">
        <ele>302</ele>
        <time>2022-06-25T12:22:33Z</time>
      </trkpt>
      <trkpt lat="46.33244" lon="4.6842">
        <ele>302.2</ele>
        <time>2022-06-25T12:22:35Z</time>
      </trkpt>
      <trkpt lat="46.33244" lon="4.68419">
        <ele>302.2</ele>
        <time>2022-06-25T12:22:36Z</time>
      </trkpt>
      <trkpt lat="46.33244" lon="4.68418">
        <ele>303.4</ele>
        <time>2022-06-25T12:22:47Z</time>
      </trkpt>
      <trkpt lat="46.33244" lon="4.68418">
        <ele>303.4</ele>
        <time>2022-06-25T12:22:48Z</time>
      </trkpt>
      <trkpt lat="46.33244" lon="4.68417">
        <ele>303.6</ele>
        <time>2022-06-25T12:22:50Z</time>
      </trkpt>
      <trkpt lat="46.33244" lon="4.68417">
        <ele>303.8</ele>
        <time>2022-06-25T12:22:51Z</time>
      </trkpt>
      <trkpt lat="46.33244" lon="4.68416">
        <ele>304</ele>
        <time>2022-06-25T12:22:53Z</time>
      </trkpt>
      <trkpt lat="46.33244" lon="4.68416">
        <ele>304</ele>
        <time>2022-06-25T12:22:54Z</time>
      </trkpt>
      <trkpt lat="46.33244" lon="4.68415">
        <ele>304.2</ele>
        <time>2022-06-25T12:22:58Z</time>
      </trkpt>
      <trkpt lat="46.33244" lon="4.68415">
        <ele>304.4</ele>
        <time>2022-06-25T12:23:00Z</time>
      </trkpt>
      <trkpt lat="46.33244" lon="4.68414">
        <ele>304.4</ele>
        <time>2022-06-25T12:23:02Z</time>
      </trkpt>
      <trkpt lat="46.33244" lon="4.68414">
        <ele>304.4</ele>
        <time>2022-06-25T12:23:09Z</time>
      </trkpt>
      <trkpt lat="46.33244" lon="4.68413">
        <ele>304.4</ele>
        <time>2022-06-25T12:23:15Z</time>
      </trkpt>
      <trkpt lat="46.33244" lon="4.68413">
        <ele>304.4</ele>
        <time>2022-06-25T12:23:16Z</time>
      </trkpt>
      <trkpt lat="46.33244" lon="4.68412">
        <ele>304.4</ele>
        <time>2022-06-25T12:23:19Z</time>
      </trkpt>
      <trkpt lat="46.33244" lon="4.68412">
        <ele>304.6</ele>
        <time>2022-06-25T12:23:48Z</time>
      </trkpt>
      <trkpt lat="46.33244" lon="4.68411">
        <ele>304.4</ele>
        <time>2022-06-25T12:23:51Z</time>
      </trkpt>
      <trkpt lat="46.33244" lon="4.68411">
        <ele>304.4</ele>
        <time>2022-06-25T12:23:52Z</time>
      </trkpt>
      <trkpt lat="46.33244" lon="4.6841">
        <ele>304.8</ele>
        <time>2022-06-25T12:23:56Z</time>
      </trkpt>
      <trkpt lat="46.33244" lon="4.6841">
        <ele>304.8</ele>
        <time>2022-06-25T12:23:57Z</time>
      </trkpt>
      <trkpt lat="46.33244" lon="4.68409">
        <ele>304.8</ele>
        <time>2022-06-25T12:23:59Z</time>
      </trkpt>
      <trkpt lat="46.33244" lon="4.68409">
        <ele>304.8</ele>
        <time>2022-06-25T12:24:00Z</time>
      </trkpt>
      <trkpt lat="46.33244" lon="4.68408">
        <ele>304.8</ele>
        <time>2022-06-25T12:24:01Z</time>
      </trkpt>
      <trkpt lat="46.33244" lon="4.68408">
        <ele>304.4</ele>
        <time>2022-06-25T12:24:03Z</time>
      </trkpt>
      <trkpt lat="46.33244" lon="4.68407">
        <ele>304.4</ele>
        <time>2022-06-25T12:24:04Z</time>
      </trkpt>
      <trkpt lat="46.33244" lon="4.68407">
        <ele>304.4</ele>
        <time>2022-06-25T12:24:06Z</time>
      </trkpt>
      <trkpt lat="46.33244" lon="4.68406">
        <ele>304.2</ele>
        <time>2022-06-25T12:24:07Z</time>
      </trkpt>
      <trkpt lat="46.33244" lon="4.68406">
        <ele>304.2</ele>
        <time>2022-06-25T12:24:12Z</time>
      </trkpt>
      <trkpt lat="46.33244" lon="4.68405">
        <ele>304.2</ele>
        <time>2022-06-25T12:24:13Z</time>
      </trkpt>
      <trkpt lat="46.33244" lon="4.68408">
        <ele>304</ele>
        <time>2022-06-25T12:24:15Z</time>
      </trkpt>
      <trkpt lat="46.33244" lon="4.68411">
        <ele>303.8</ele>
        <time>2022-06-25T12:24:16Z</time>
      </trkpt>
      <trkpt lat="46.33243" lon="4.68414">
        <ele>303.8</ele>
        <time>2022-06-25T12:24:17Z</time>
      </trkpt>
      <trkpt lat="46.33242" lon="4.68417">
        <ele>303.4</ele>
        <time>2022-06-25T12:24:18Z</time>
      </trkpt>
      <trkpt lat="46.33241" lon="4.68419">
        <ele>303.2</ele>
        <time>2022-06-25T12:24:19Z</time>
      </trkpt>
      <trkpt lat="46.33239" lon="4.6842">
        <ele>303.2</ele>
        <time>2022-06-25T12:24:20Z</time>
      </trkpt>
      <trkpt lat="46.33237" lon="4.68419">
        <ele>303.2</ele>
        <time>2022-06-25T12:24:21Z</time>
      </trkpt>
      <trkpt lat="46.33235" lon="4.68418">
        <ele>303.2</ele>
        <time>2022-06-25T12:24:22Z</time>
      </trkpt>
      <trkpt lat="46.33233" lon="4.68417">
        <ele>303.2</ele>
        <time>2022-06-25T12:24:23Z</time>
      </trkpt>
      <trkpt lat="46.33232" lon="4.68415">
        <ele>303.2</ele>
        <time>2022-06-25T12:24:24Z</time>
      </trkpt>
      <trkpt lat="46.3323" lon="4.68414">
        <ele>303.2</ele>
        <time>2022-06-25T12:24:25Z</time>
      </trkpt>
      <trkpt lat="46.33228" lon="4.68413">
        <ele>303.2</ele>
        <time>2022-06-25T12:24:26Z</time>
      </trkpt>
      <trkpt lat="46.33226" lon="4.68412">
        <ele>303.4</ele>
        <time>2022-06-25T12:24:27Z</time>
      </trkpt>
      <trkpt lat="46.33224" lon="4.68412">
        <ele>303.6</ele>
        <time>2022-06-25T12:24:28Z</time>
      </trkpt>
      <trkpt lat="46.33222" lon="4.68411">
        <ele>303.6</ele>
        <time>2022-06-25T12:24:29Z</time>
      </trkpt>
      <trkpt lat="46.3322" lon="4.6841">
        <ele>304</ele>
        <time>2022-06-25T12:24:30Z</time>
      </trkpt>
      <trkpt lat="46.33218" lon="4.68409">
        <ele>304.2</ele>
        <time>2022-06-25T12:24:31Z</time>
      </trkpt>
      <trkpt lat="46.33215" lon="4.68408">
        <ele>304.2</ele>
        <time>2022-06-25T12:24:32Z</time>
      </trkpt>
      <trkpt lat="46.33213" lon="4.68407">
        <ele>304.6</ele>
        <time>2022-06-25T12:24:33Z</time>
      </trkpt>
      <trkpt lat="46.33211" lon="4.68406">
        <ele>304.8</ele>
        <time>2022-06-25T12:24:34Z</time>
      </trkpt>
      <trkpt lat="46.33208" lon="4.68405">
        <ele>305</ele>
        <time>2022-06-25T12:24:35Z</time>
      </trkpt>
      <trkpt lat="46.33206" lon="4.68404">
        <ele>305.2</ele>
        <time>2022-06-25T12:24:36Z</time>
      </trkpt>
      <trkpt lat="46.33204" lon="4.68403">
        <ele>305.4</ele>
        <time>2022-06-25T12:24:37Z</time>
      </trkpt>
      <trkpt lat="46.33201" lon="4.68402">
        <ele>305.8</ele>
        <time>2022-06-25T12:24:38Z</time>
      </trkpt>
      <trkpt lat="46.33199" lon="4.68401">
        <ele>306</ele>
        <time>2022-06-25T12:24:39Z</time>
      </trkpt>
      <trkpt lat="46.33197" lon="4.684">
        <ele>306.4</ele>
        <time>2022-06-25T12:24:40Z</time>
      </trkpt>
      <trkpt lat="46.33195" lon="4.68399">
        <ele>306.6</ele>
        <time>2022-06-25T12:24:41Z</time>
      </trkpt>
      <trkpt lat="46.33192" lon="4.68399">
        <ele>306.6</ele>
        <time>2022-06-25T12:24:42Z</time>
      </trkpt>
      <trkpt lat="46.3319" lon="4.68399">
        <ele>307</ele>
        <time>2022-06-25T12:24:43Z</time>
      </trkpt>
      <trkpt lat="46.33188" lon="4.68398">
        <ele>307</ele>
        <time>2022-06-25T12:24:44Z</time>
      </trkpt>
      <trkpt lat="46.33186" lon="4.68398">
        <ele>307.4</ele>
        <time>2022-06-25T12:24:45Z</time>
      </trkpt>
      <trkpt lat="46.33183" lon="4.68398">
        <ele>307.4</ele>
        <time>2022-06-25T12:24:46Z</time>
      </trkpt>
      <trkpt lat="46.33181" lon="4.68397">
        <ele>307.6</ele>
        <time>2022-06-25T12:24:47Z</time>
      </trkpt>
      <trkpt lat="46.33179" lon="4.68397">
        <ele>307.6</ele>
        <time>2022-06-25T12:24:48Z</time>
      </trkpt>
      <trkpt lat="46.33177" lon="4.68396">
        <ele>308</ele>
        <time>2022-06-25T12:24:49Z</time>
      </trkpt>
      <trkpt lat="46.33174" lon="4.68395">
        <ele>308</ele>
        <time>2022-06-25T12:24:50Z</time>
      </trkpt>
      <trkpt lat="46.33172" lon="4.68395">
        <ele>308.4</ele>
        <time>2022-06-25T12:24:51Z</time>
      </trkpt>
      <trkpt lat="46.33169" lon="4.68394">
        <ele>308.4</ele>
        <time>2022-06-25T12:24:52Z</time>
      </trkpt>
      <trkpt lat="46.33166" lon="4.68395">
        <ele>308.4</ele>
        <time>2022-06-25T12:24:53Z</time>
      </trkpt>
      <trkpt lat="46.33163" lon="4.68394">
        <ele>308.4</ele>
        <time>2022-06-25T12:24:54Z</time>
      </trkpt>
      <trkpt lat="46.33159" lon="4.68394">
        <ele>308.4</ele>
        <time>2022-06-25T12:24:55Z</time>
      </trkpt>
      <trkpt lat="46.33156" lon="4.68394">
        <ele>308.4</ele>
        <time>2022-06-25T12:24:56Z</time>
      </trkpt>
      <trkpt lat="46.33152" lon="4.68394">
        <ele>308.2</ele>
        <time>2022-06-25T12:24:57Z</time>
      </trkpt>
      <trkpt lat="46.33147" lon="4.68395">
        <ele>308</ele>
        <time>2022-06-25T12:24:58Z</time>
      </trkpt>
      <trkpt lat="46.33142" lon="4.68395">
        <ele>307.4</ele>
        <time>2022-06-25T12:24:59Z</time>
      </trkpt>
      <trkpt lat="46.33137" lon="4.68396">
        <ele>307</ele>
        <time>2022-06-25T12:25:00Z</time>
      </trkpt>
      <trkpt lat="46.33131" lon="4.68396">
        <ele>306.6</ele>
        <time>2022-06-25T12:25:01Z</time>
      </trkpt>
      <trkpt lat="46.33125" lon="4.68396">
        <ele>306.2</ele>
        <time>2022-06-25T12:25:02Z</time>
      </trkpt>
      <trkpt lat="46.33119" lon="4.68397">
        <ele>305.8</ele>
        <time>2022-06-25T12:25:03Z</time>
      </trkpt>
      <trkpt lat="46.33113" lon="4.68396">
        <ele>305.6</ele>
        <time>2022-06-25T12:25:04Z</time>
      </trkpt>
      <trkpt lat="46.33106" lon="4.68396">
        <ele>305.2</ele>
        <time>2022-06-25T12:25:05Z</time>
      </trkpt>
      <trkpt lat="46.331" lon="4.68396">
        <ele>305.2</ele>
        <time>2022-06-25T12:25:06Z</time>
      </trkpt>
      <trkpt lat="46.33094" lon="4.68395">
        <ele>305</ele>
        <time>2022-06-25T12:25:07Z</time>
      </trkpt>
      <trkpt lat="46.33088" lon="4.68395">
        <ele>304.8</ele>
        <time>2022-06-25T12:25:08Z</time>
      </trkpt>
      <trkpt lat="46.33082" lon="4.68395">
        <ele>304.4</ele>
        <time>2022-06-25T12:25:09Z</time>
      </trkpt>
      <trkpt lat="46.33076" lon="4.68394">
        <ele>304</ele>
        <time>2022-06-25T12:25:10Z</time>
      </trkpt>
      <trkpt lat="46.33071" lon="4.68393">
        <ele>303.6</ele>
        <time>2022-06-25T12:25:11Z</time>
      </trkpt>
      <trkpt lat="46.33066" lon="4.68392">
        <ele>303.6</ele>
        <time>2022-06-25T12:25:12Z</time>
      </trkpt>
      <trkpt lat="46.33061" lon="4.68391">
        <ele>303.2</ele>
        <time>2022-06-25T12:25:13Z</time>
      </trkpt>
      <trkpt lat="46.33056" lon="4.6839">
        <ele>303</ele>
        <time>2022-06-25T12:25:14Z</time>
      </trkpt>
      <trkpt lat="46.33052" lon="4.68389">
        <ele>302.6</ele>
        <time>2022-06-25T12:25:15Z</time>
      </trkpt>
      <trkpt lat="46.33049" lon="4.68389">
        <ele>302.4</ele>
        <time>2022-06-25T12:25:16Z</time>
      </trkpt>
      <trkpt lat="46.33046" lon="4.68388">
        <ele>302.2</ele>
        <time>2022-06-25T12:25:17Z</time>
      </trkpt>
      <trkpt lat="46.33044" lon="4.68387">
        <ele>302.2</ele>
        <time>2022-06-25T12:25:18Z</time>
      </trkpt>
      <trkpt lat="46.33043" lon="4.68387">
        <ele>301.8</ele>
        <time>2022-06-25T12:25:19Z</time>
      </trkpt>
      <trkpt lat="46.33042" lon="4.68388">
        <ele>301.6</ele>
        <time>2022-06-25T12:25:20Z</time>
      </trkpt>
      <trkpt lat="46.33042" lon="4.68389">
        <ele>301.6</ele>
        <time>2022-06-25T12:25:22Z</time>
      </trkpt>
      <trkpt lat="46.33041" lon="4.6839">
        <ele>301.4</ele>
        <time>2022-06-25T12:25:23Z</time>
      </trkpt>
      <trkpt lat="46.3304" lon="4.68392">
        <ele>301.4</ele>
        <time>2022-06-25T12:25:24Z</time>
      </trkpt>
      <trkpt lat="46.33039" lon="4.68395">
        <ele>301.4</ele>
        <time>2022-06-25T12:25:25Z</time>
      </trkpt>
      <trkpt lat="46.33039" lon="4.68397">
        <ele>301.4</ele>
        <time>2022-06-25T12:25:26Z</time>
      </trkpt>
      <trkpt lat="46.33038" lon="4.684">
        <ele>301.4</ele>
        <time>2022-06-25T12:25:27Z</time>
      </trkpt>
      <trkpt lat="46.33038" lon="4.68402">
        <ele>301.4</ele>
        <time>2022-06-25T12:25:28Z</time>
      </trkpt>
      <trkpt lat="46.33038" lon="4.68404">
        <ele>301.4</ele>
        <time>2022-06-25T12:25:29Z</time>
      </trkpt>
      <trkpt lat="46.33038" lon="4.68404">
        <ele>301.2</ele>
        <time>2022-06-25T12:25:31Z</time>
      </trkpt>
      <trkpt lat="46.33038" lon="4.68404">
        <ele>301.2</ele>
        <time>2022-06-25T12:25:33Z</time>
      </trkpt>
      <trkpt lat="46.33038" lon="4.68403">
        <ele>301.2</ele>
        <time>2022-06-25T12:25:39Z</time>
      </trkpt>
      <trkpt lat="46.33038" lon="4.68403">
        <ele>301.2</ele>
        <time>2022-06-25T12:25:40Z</time>
      </trkpt>
      <trkpt lat="46.33038" lon="4.68403">
        <ele>301.2</ele>
        <time>2022-06-25T12:25:42Z</time>
      </trkpt>
      <trkpt lat="46.33038" lon="4.68403">
        <ele>301.2</ele>
        <time>2022-06-25T12:25:44Z</time>
      </trkpt>
      <trkpt lat="46.33038" lon="4.68402">
        <ele>301.8</ele>
        <time>2022-06-25T12:30:12Z</time>
      </trkpt>
      <trkpt lat="46.33039" lon="4.68402">
        <ele>301.8</ele>
        <time>2022-06-25T12:30:13Z</time>
      </trkpt>
      <trkpt lat="46.33039" lon="4.68402">
        <ele>301.8</ele>
        <time>2022-06-25T12:30:15Z</time>
      </trkpt>
      <trkpt lat="46.33039" lon="4.68402">
        <ele>301.8</ele>
        <time>2022-06-25T12:30:17Z</time>
      </trkpt>
      <trkpt lat="46.33039" lon="4.68401">
        <ele>301.6</ele>
        <time>2022-06-25T12:30:18Z</time>
      </trkpt>
      <trkpt lat="46.33039" lon="4.68401">
        <ele>301.6</ele>
        <time>2022-06-25T12:30:20Z</time>
      </trkpt>
      <trkpt lat="46.33039" lon="4.68401">
        <ele>301.6</ele>
        <time>2022-06-25T12:30:22Z</time>
      </trkpt>
      <trkpt lat="46.33039" lon="4.684">
        <ele>301.6</ele>
        <time>2022-06-25T12:30:24Z</time>
      </trkpt>
      <trkpt lat="46.33039" lon="4.68398">
        <ele>301.6</ele>
        <time>2022-06-25T12:30:25Z</time>
      </trkpt>
      <trkpt lat="46.33039" lon="4.68396">
        <ele>301.6</ele>
        <time>2022-06-25T12:30:26Z</time>
      </trkpt>
      <trkpt lat="46.33039" lon="4.68394">
        <ele>301.6</ele>
        <time>2022-06-25T12:30:27Z</time>
      </trkpt>
      <trkpt lat="46.33038" lon="4.68392">
        <ele>301.6</ele>
        <time>2022-06-25T12:30:28Z</time>
      </trkpt>
      <trkpt lat="46.33036" lon="4.68389">
        <ele>301.6</ele>
        <time>2022-06-25T12:30:29Z</time>
      </trkpt>
      <trkpt lat="46.33034" lon="4.68387">
        <ele>301.6</ele>
        <time>2022-06-25T12:30:30Z</time>
      </trkpt>
      <trkpt lat="46.33032" lon="4.68385">
        <ele>301.6</ele>
        <time>2022-06-25T12:30:31Z</time>
      </trkpt>
      <trkpt lat="46.33029" lon="4.68384">
        <ele>301.6</ele>
        <time>2022-06-25T12:30:32Z</time>
      </trkpt>
      <trkpt lat="46.33025" lon="4.68383">
        <ele>301.6</ele>
        <time>2022-06-25T12:30:33Z</time>
      </trkpt>
      <trkpt lat="46.33021" lon="4.68381">
        <ele>301.6</ele>
        <time>2022-06-25T12:30:34Z</time>
      </trkpt>
      <trkpt lat="46.33018" lon="4.6838">
        <ele>301.6</ele>
        <time>2022-06-25T12:30:35Z</time>
      </trkpt>
      <trkpt lat="46.33014" lon="4.68379">
        <ele>301.6</ele>
        <time>2022-06-25T12:30:36Z</time>
      </trkpt>
      <trkpt lat="46.3301" lon="4.68377">
        <ele>301.6</ele>
        <time>2022-06-25T12:30:37Z</time>
      </trkpt>
      <trkpt lat="46.33006" lon="4.68376">
        <ele>301.4</ele>
        <time>2022-06-25T12:30:38Z</time>
      </trkpt>
      <trkpt lat="46.33002" lon="4.68374">
        <ele>301.4</ele>
        <time>2022-06-25T12:30:39Z</time>
      </trkpt>
      <trkpt lat="46.32998" lon="4.68373">
        <ele>301.4</ele>
        <time>2022-06-25T12:30:40Z</time>
      </trkpt>
      <trkpt lat="46.32993" lon="4.68371">
        <ele>301.2</ele>
        <time>2022-06-25T12:30:41Z</time>
      </trkpt>
      <trkpt lat="46.32989" lon="4.68369">
        <ele>301.2</ele>
        <time>2022-06-25T12:30:42Z</time>
      </trkpt>
      <trkpt lat="46.32985" lon="4.68367">
        <ele>301.2</ele>
        <time>2022-06-25T12:30:43Z</time>
      </trkpt>
      <trkpt lat="46.3298" lon="4.68365">
        <ele>301.2</ele>
        <time>2022-06-25T12:30:44Z</time>
      </trkpt>
      <trkpt lat="46.32976" lon="4.68363">
        <ele>301</ele>
        <time>2022-06-25T12:30:45Z</time>
      </trkpt>
      <trkpt lat="46.32971" lon="4.68361">
        <ele>300.6</ele>
        <time>2022-06-25T12:30:46Z</time>
      </trkpt>
      <trkpt lat="46.32967" lon="4.68359">
        <ele>300.6</ele>
        <time>2022-06-25T12:30:47Z</time>
      </trkpt>
      <trkpt lat="46.32962" lon="4.68356">
        <ele>300.2</ele>
        <time>2022-06-25T12:30:48Z</time>
      </trkpt>
      <trkpt lat="46.32957" lon="4.68354">
        <ele>300.2</ele>
        <time>2022-06-25T12:30:49Z</time>
      </trkpt>
      <trkpt lat="46.32952" lon="4.68351">
        <ele>300</ele>
        <time>2022-06-25T12:30:50Z</time>
      </trkpt>
      <trkpt lat="46.32947" lon="4.68348">
        <ele>299.6</ele>
        <time>2022-06-25T12:30:51Z</time>
      </trkpt>
      <trkpt lat="46.32941" lon="4.68345">
        <ele>299.4</ele>
        <time>2022-06-25T12:30:52Z</time>
      </trkpt>
      <trkpt lat="46.32935" lon="4.68341">
        <ele>299.2</ele>
        <time>2022-06-25T12:30:53Z</time>
      </trkpt>
      <trkpt lat="46.32928" lon="4.68338">
        <ele>298.8</ele>
        <time>2022-06-25T12:30:54Z</time>
      </trkpt>
      <trkpt lat="46.32921" lon="4.68335">
        <ele>298.4</ele>
        <time>2022-06-25T12:30:55Z</time>
      </trkpt>
      <trkpt lat="46.32914" lon="4.68331">
        <ele>298</ele>
        <time>2022-06-25T12:30:56Z</time>
      </trkpt>
      <trkpt lat="46.32907" lon="4.68328">
        <ele>297.8</ele>
        <time>2022-06-25T12:30:57Z</time>
      </trkpt>
      <trkpt lat="46.32899" lon="4.68326">
        <ele>297.2</ele>
        <time>2022-06-25T12:30:58Z</time>
      </trkpt>
      <trkpt lat="46.32891" lon="4.68325">
        <ele>296.8</ele>
        <time>2022-06-25T12:30:59Z</time>
      </trkpt>
      <trkpt lat="46.32883" lon="4.68325">
        <ele>296.4</ele>
        <time>2022-06-25T12:31:00Z</time>
      </trkpt>
      <trkpt lat="46.32875" lon="4.68327">
        <ele>295.8</ele>
        <time>2022-06-25T12:31:01Z</time>
      </trkpt>
      <trkpt lat="46.32867" lon="4.68328">
        <ele>295.4</ele>
        <time>2022-06-25T12:31:02Z</time>
      </trkpt>
      <trkpt lat="46.32859" lon="4.6833">
        <ele>295.2</ele>
        <time>2022-06-25T12:31:03Z</time>
      </trkpt>
      <trkpt lat="46.32851" lon="4.68331">
        <ele>295</ele>
        <time>2022-06-25T12:31:04Z</time>
      </trkpt>
      <trkpt lat="46.32844" lon="4.68332">
        <ele>295</ele>
        <time>2022-06-25T12:31:05Z</time>
      </trkpt>
      <trkpt lat="46.32837" lon="4.68332">
        <ele>294.6</ele>
        <time>2022-06-25T12:31:06Z</time>
      </trkpt>
      <trkpt lat="46.3283" lon="4.68333">
        <ele>294.6</ele>
        <time>2022-06-25T12:31:07Z</time>
      </trkpt>
      <trkpt lat="46.32823" lon="4.68333">
        <ele>294.6</ele>
        <time>2022-06-25T12:31:08Z</time>
      </trkpt>
      <trkpt lat="46.32816" lon="4.68333">
        <ele>294.4</ele>
        <time>2022-06-25T12:31:09Z</time>
      </trkpt>
      <trkpt lat="46.32809" lon="4.68333">
        <ele>294.4</ele>
        <time>2022-06-25T12:31:10Z</time>
      </trkpt>
      <trkpt lat="46.32802" lon="4.68333">
        <ele>294</ele>
        <time>2022-06-25T12:31:11Z</time>
      </trkpt>
      <trkpt lat="46.32795" lon="4.68334">
        <ele>294</ele>
        <time>2022-06-25T12:31:12Z</time>
      </trkpt>
      <trkpt lat="46.32788" lon="4.68334">
        <ele>294</ele>
        <time>2022-06-25T12:31:13Z</time>
      </trkpt>
      <trkpt lat="46.32781" lon="4.68334">
        <ele>293.8</ele>
        <time>2022-06-25T12:31:14Z</time>
      </trkpt>
      <trkpt lat="46.32774" lon="4.68334">
        <ele>293.8</ele>
        <time>2022-06-25T12:31:15Z</time>
      </trkpt>
      <trkpt lat="46.32767" lon="4.68334">
        <ele>293.4</ele>
        <time>2022-06-25T12:31:16Z</time>
      </trkpt>
      <trkpt lat="46.32761" lon="4.68333">
        <ele>293.2</ele>
        <time>2022-06-25T12:31:17Z</time>
      </trkpt>
      <trkpt lat="46.32754" lon="4.68332">
        <ele>293.2</ele>
        <time>2022-06-25T12:31:18Z</time>
      </trkpt>
      <trkpt lat="46.32746" lon="4.68332">
        <ele>293</ele>
        <time>2022-06-25T12:31:19Z</time>
      </trkpt>
      <trkpt lat="46.32739" lon="4.68332">
        <ele>293</ele>
        <time>2022-06-25T12:31:20Z</time>
      </trkpt>
      <trkpt lat="46.32732" lon="4.68332">
        <ele>293</ele>
        <time>2022-06-25T12:31:21Z</time>
      </trkpt>
      <trkpt lat="46.32725" lon="4.68332">
        <ele>292.6</ele>
        <time>2022-06-25T12:31:22Z</time>
      </trkpt>
      <trkpt lat="46.32719" lon="4.68333">
        <ele>292.6</ele>
        <time>2022-06-25T12:31:23Z</time>
      </trkpt>
      <trkpt lat="46.32712" lon="4.68334">
        <ele>292.6</ele>
        <time>2022-06-25T12:31:24Z</time>
      </trkpt>
      <trkpt lat="46.32705" lon="4.68335">
        <ele>292.4</ele>
        <time>2022-06-25T12:31:25Z</time>
      </trkpt>
      <trkpt lat="46.32698" lon="4.68337">
        <ele>292.4</ele>
        <time>2022-06-25T12:31:26Z</time>
      </trkpt>
      <trkpt lat="46.32691" lon="4.68338">
        <ele>292.4</ele>
        <time>2022-06-25T12:31:27Z</time>
      </trkpt>
      <trkpt lat="46.32685" lon="4.6834">
        <ele>292.4</ele>
        <time>2022-06-25T12:31:28Z</time>
      </trkpt>
      <trkpt lat="46.32678" lon="4.68341">
        <ele>292.2</ele>
        <time>2022-06-25T12:31:29Z</time>
      </trkpt>
      <trkpt lat="46.32672" lon="4.68342">
        <ele>292.2</ele>
        <time>2022-06-25T12:31:30Z</time>
      </trkpt>
      <trkpt lat="46.32665" lon="4.68341">
        <ele>292.2</ele>
        <time>2022-06-25T12:31:31Z</time>
      </trkpt>
      <trkpt lat="46.32659" lon="4.68341">
        <ele>292.2</ele>
        <time>2022-06-25T12:31:32Z</time>
      </trkpt>
      <trkpt lat="46.32653" lon="4.68339">
        <ele>292.2</ele>
        <time>2022-06-25T12:31:33Z</time>
      </trkpt>
      <trkpt lat="46.32647" lon="4.68337">
        <ele>292.2</ele>
        <time>2022-06-25T12:31:34Z</time>
      </trkpt>
      <trkpt lat="46.32642" lon="4.68335">
        <ele>292.2</ele>
        <time>2022-06-25T12:31:35Z</time>
      </trkpt>
      <trkpt lat="46.32637" lon="4.68333">
        <ele>292.4</ele>
        <time>2022-06-25T12:31:36Z</time>
      </trkpt>
      <trkpt lat="46.32631" lon="4.6833">
        <ele>292.4</ele>
        <time>2022-06-25T12:31:37Z</time>
      </trkpt>
      <trkpt lat="46.32627" lon="4.68327">
        <ele>292.4</ele>
        <time>2022-06-25T12:31:38Z</time>
      </trkpt>
      <trkpt lat="46.32622" lon="4.68324">
        <ele>292.4</ele>
        <time>2022-06-25T12:31:39Z</time>
      </trkpt>
      <trkpt lat="46.32617" lon="4.68321">
        <ele>292.4</ele>
        <time>2022-06-25T12:31:40Z</time>
      </trkpt>
      <trkpt lat="46.32612" lon="4.68318">
        <ele>292.6</ele>
        <time>2022-06-25T12:31:41Z</time>
      </trkpt>
      <trkpt lat="46.32608" lon="4.68316">
        <ele>292.6</ele>
        <time>2022-06-25T12:31:42Z</time>
      </trkpt>
      <trkpt lat="46.32603" lon="4.68313">
        <ele>293</ele>
        <time>2022-06-25T12:31:43Z</time>
      </trkpt>
      <trkpt lat="46.32599" lon="4.6831">
        <ele>293</ele>
        <time>2022-06-25T12:31:44Z</time>
      </trkpt>
      <trkpt lat="46.32594" lon="4.68307">
        <ele>293.2</ele>
        <time>2022-06-25T12:31:45Z</time>
      </trkpt>
      <trkpt lat="46.3259" lon="4.68305">
        <ele>293.2</ele>
        <time>2022-06-25T12:31:46Z</time>
      </trkpt>
      <trkpt lat="46.32585" lon="4.68302">
        <ele>293.2</ele>
        <time>2022-06-25T12:31:47Z</time>
      </trkpt>
      <trkpt lat="46.32581" lon="4.68299">
        <ele>293.4</ele>
        <time>2022-06-25T12:31:48Z</time>
      </trkpt>
      <trkpt lat="46.32577" lon="4.68297">
        <ele>293.4</ele>
        <time>2022-06-25T12:31:49Z</time>
      </trkpt>
      <trkpt lat="46.32573" lon="4.68294">
        <ele>293.8</ele>
        <time>2022-06-25T12:31:50Z</time>
      </trkpt>
      <trkpt lat="46.32568" lon="4.68291">
        <ele>293.8</ele>
        <time>2022-06-25T12:31:51Z</time>
      </trkpt>
      <trkpt lat="46.32564" lon="4.68287">
        <ele>294</ele>
        <time>2022-06-25T12:31:52Z</time>
      </trkpt>
      <trkpt lat="46.3256" lon="4.68283">
        <ele>294</ele>
        <time>2022-06-25T12:31:53Z</time>
      </trkpt>
      <trkpt lat="46.32556" lon="4.68279">
        <ele>294</ele>
        <time>2022-06-25T12:31:54Z</time>
      </trkpt>
      <trkpt lat="46.32552" lon="4.68275">
        <ele>294</ele>
        <time>2022-06-25T12:31:55Z</time>
      </trkpt>
      <trkpt lat="46.32549" lon="4.6827">
        <ele>294.2</ele>
        <time>2022-06-25T12:31:56Z</time>
      </trkpt>
      <trkpt lat="46.32545" lon="4.68266">
        <ele>294.2</ele>
        <time>2022-06-25T12:31:57Z</time>
      </trkpt>
      <trkpt lat="46.32541" lon="4.68261">
        <ele>294.4</ele>
        <time>2022-06-25T12:31:58Z</time>
      </trkpt>
      <trkpt lat="46.32538" lon="4.68257">
        <ele>294.6</ele>
        <time>2022-06-25T12:31:59Z</time>
      </trkpt>
      <trkpt lat="46.32534" lon="4.68253">
        <ele>294.6</ele>
        <time>2022-06-25T12:32:00Z</time>
      </trkpt>
      <trkpt lat="46.3253" lon="4.6825">
        <ele>295</ele>
        <time>2022-06-25T12:32:01Z</time>
      </trkpt>
      <trkpt lat="46.32526" lon="4.68247">
        <ele>295.2</ele>
        <time>2022-06-25T12:32:02Z</time>
      </trkpt>
      <trkpt lat="46.32522" lon="4.68245">
        <ele>295.6</ele>
        <time>2022-06-25T12:32:03Z</time>
      </trkpt>
      <trkpt lat="46.32518" lon="4.68243">
        <ele>295.6</ele>
        <time>2022-06-25T12:32:04Z</time>
      </trkpt>
      <trkpt lat="46.32514" lon="4.68241">
        <ele>295.8</ele>
        <time>2022-06-25T12:32:05Z</time>
      </trkpt>
      <trkpt lat="46.3251" lon="4.6824">
        <ele>295.8</ele>
        <time>2022-06-25T12:32:06Z</time>
      </trkpt>
      <trkpt lat="46.32506" lon="4.68238">
        <ele>295.8</ele>
        <time>2022-06-25T12:32:07Z</time>
      </trkpt>
      <trkpt lat="46.32502" lon="4.68238">
        <ele>296</ele>
        <time>2022-06-25T12:32:08Z</time>
      </trkpt>
      <trkpt lat="46.32498" lon="4.68237">
        <ele>296</ele>
        <time>2022-06-25T12:32:09Z</time>
      </trkpt>
      <trkpt lat="46.32494" lon="4.68236">
        <ele>296</ele>
        <time>2022-06-25T12:32:10Z</time>
      </trkpt>
      <trkpt lat="46.3249" lon="4.68235">
        <ele>296</ele>
        <time>2022-06-25T12:32:11Z</time>
      </trkpt>
      <trkpt lat="46.32486" lon="4.68233">
        <ele>296</ele>
        <time>2022-06-25T12:32:12Z</time>
      </trkpt>
      <trkpt lat="46.32482" lon="4.68231">
        <ele>296.2</ele>
        <time>2022-06-25T12:32:13Z</time>
      </trkpt>
      <trkpt lat="46.32477" lon="4.68229">
        <ele>296.2</ele>
        <time>2022-06-25T12:32:14Z</time>
      </trkpt>
      <trkpt lat="46.32473" lon="4.68227">
        <ele>296.2</ele>
        <time>2022-06-25T12:32:15Z</time>
      </trkpt>
      <trkpt lat="46.32468" lon="4.68224">
        <ele>296.2</ele>
        <time>2022-06-25T12:32:16Z</time>
      </trkpt>
      <trkpt lat="46.32464" lon="4.68221">
        <ele>296.2</ele>
        <time>2022-06-25T12:32:17Z</time>
      </trkpt>
      <trkpt lat="46.32459" lon="4.68218">
        <ele>296.2</ele>
        <time>2022-06-25T12:32:18Z</time>
      </trkpt>
      <trkpt lat="46.32455" lon="4.68215">
        <ele>296.2</ele>
        <time>2022-06-25T12:32:19Z</time>
      </trkpt>
      <trkpt lat="46.3245" lon="4.68212">
        <ele>296.2</ele>
        <time>2022-06-25T12:32:20Z</time>
      </trkpt>
      <trkpt lat="46.32446" lon="4.6821">
        <ele>296.2</ele>
        <time>2022-06-25T12:32:21Z</time>
      </trkpt>
      <trkpt lat="46.32443" lon="4.68207">
        <ele>296.2</ele>
        <time>2022-06-25T12:32:22Z</time>
      </trkpt>
      <trkpt lat="46.32439" lon="4.68205">
        <ele>296.6</ele>
        <time>2022-06-25T12:32:23Z</time>
      </trkpt>
      <trkpt lat="46.32435" lon="4.68203">
        <ele>296.6</ele>
        <time>2022-06-25T12:32:24Z</time>
      </trkpt>
      <trkpt lat="46.32431" lon="4.68201">
        <ele>296.6</ele>
        <time>2022-06-25T12:32:25Z</time>
      </trkpt>
      <trkpt lat="46.32426" lon="4.68199">
        <ele>296.8</ele>
        <time>2022-06-25T12:32:26Z</time>
      </trkpt>
      <trkpt lat="46.32422" lon="4.68197">
        <ele>296.8</ele>
        <time>2022-06-25T12:32:27Z</time>
      </trkpt>
      <trkpt lat="46.32417" lon="4.68196">
        <ele>296.8</ele>
        <time>2022-06-25T12:32:28Z</time>
      </trkpt>
      <trkpt lat="46.32413" lon="4.68194">
        <ele>296.8</ele>
        <time>2022-06-25T12:32:29Z</time>
      </trkpt>
      <trkpt lat="46.32408" lon="4.68192">
        <ele>297</ele>
        <time>2022-06-25T12:32:30Z</time>
      </trkpt>
      <trkpt lat="46.32403" lon="4.68191">
        <ele>297</ele>
        <time>2022-06-25T12:32:31Z</time>
      </trkpt>
      <trkpt lat="46.32398" lon="4.68189">
        <ele>297</ele>
        <time>2022-06-25T12:32:32Z</time>
      </trkpt>
      <trkpt lat="46.32393" lon="4.68187">
        <ele>297</ele>
        <time>2022-06-25T12:32:33Z</time>
      </trkpt>
      <trkpt lat="46.32388" lon="4.68186">
        <ele>297</ele>
        <time>2022-06-25T12:32:34Z</time>
      </trkpt>
      <trkpt lat="46.32383" lon="4.68184">
        <ele>297</ele>
        <time>2022-06-25T12:32:35Z</time>
      </trkpt>
      <trkpt lat="46.32378" lon="4.68183">
        <ele>297</ele>
        <time>2022-06-25T12:32:36Z</time>
      </trkpt>
      <trkpt lat="46.32372" lon="4.68182">
        <ele>297</ele>
        <time>2022-06-25T12:32:37Z</time>
      </trkpt>
      <trkpt lat="46.32367" lon="4.6818">
        <ele>297</ele>
        <time>2022-06-25T12:32:38Z</time>
      </trkpt>
      <trkpt lat="46.32362" lon="4.68178">
        <ele>297</ele>
        <time>2022-06-25T12:32:39Z</time>
      </trkpt>
      <trkpt lat="46.32357" lon="4.68177">
        <ele>297</ele>
        <time>2022-06-25T12:32:40Z</time>
      </trkpt>
      <trkpt lat="46.32352" lon="4.68176">
        <ele>297</ele>
        <time>2022-06-25T12:32:41Z</time>
      </trkpt>
      <trkpt lat="46.32346" lon="4.68175">
        <ele>297</ele>
        <time>2022-06-25T12:32:42Z</time>
      </trkpt>
      <trkpt lat="46.32341" lon="4.68174">
        <ele>297</ele>
        <time>2022-06-25T12:32:43Z</time>
      </trkpt>
      <trkpt lat="46.32335" lon="4.68173">
        <ele>297</ele>
        <time>2022-06-25T12:32:44Z</time>
      </trkpt>
      <trkpt lat="46.3233" lon="4.68171">
        <ele>297</ele>
        <time>2022-06-25T12:32:45Z</time>
      </trkpt>
      <trkpt lat="46.32324" lon="4.6817">
        <ele>297</ele>
        <time>2022-06-25T12:32:46Z</time>
      </trkpt>
      <trkpt lat="46.32318" lon="4.68169">
        <ele>297</ele>
        <time>2022-06-25T12:32:47Z</time>
      </trkpt>
      <trkpt lat="46.32313" lon="4.68168">
        <ele>297</ele>
        <time>2022-06-25T12:32:48Z</time>
      </trkpt>
      <trkpt lat="46.32307" lon="4.68167">
        <ele>297</ele>
        <time>2022-06-25T12:32:49Z</time>
      </trkpt>
      <trkpt lat="46.32302" lon="4.68166">
        <ele>297</ele>
        <time>2022-06-25T12:32:50Z</time>
      </trkpt>
      <trkpt lat="46.32297" lon="4.68165">
        <ele>297</ele>
        <time>2022-06-25T12:32:51Z</time>
      </trkpt>
      <trkpt lat="46.32292" lon="4.68165">
        <ele>297</ele>
        <time>2022-06-25T12:32:52Z</time>
      </trkpt>
      <trkpt lat="46.32287" lon="4.68164">
        <ele>297.4</ele>
        <time>2022-06-25T12:32:53Z</time>
      </trkpt>
      <trkpt lat="46.32282" lon="4.68164">
        <ele>297.4</ele>
        <time>2022-06-25T12:32:54Z</time>
      </trkpt>
      <trkpt lat="46.32277" lon="4.68164">
        <ele>297.4</ele>
        <time>2022-06-25T12:32:55Z</time>
      </trkpt>
      <trkpt lat="46.32273" lon="4.68164">
        <ele>297.4</ele>
        <time>2022-06-25T12:32:56Z</time>
      </trkpt>
      <trkpt lat="46.32268" lon="4.68164">
        <ele>297.6</ele>
        <time>2022-06-25T12:32:57Z</time>
      </trkpt>
      <trkpt lat="46.32264" lon="4.68165">
        <ele>297.6</ele>
        <time>2022-06-25T12:32:58Z</time>
      </trkpt>
      <trkpt lat="46.32259" lon="4.68165">
        <ele>298</ele>
        <time>2022-06-25T12:32:59Z</time>
      </trkpt>
      <trkpt lat="46.32255" lon="4.68166">
        <ele>298</ele>
        <time>2022-06-25T12:33:00Z</time>
      </trkpt>
      <trkpt lat="46.3225" lon="4.68167">
        <ele>298</ele>
        <time>2022-06-25T12:33:01Z</time>
      </trkpt>
      <trkpt lat="46.32246" lon="4.68169">
        <ele>298</ele>
        <time>2022-06-25T12:33:02Z</time>
      </trkpt>
      <trkpt lat="46.32242" lon="4.68171">
        <ele>298</ele>
        <time>2022-06-25T12:33:03Z</time>
      </trkpt>
      <trkpt lat="46.32237" lon="4.68173">
        <ele>298.2</ele>
        <time>2022-06-25T12:33:04Z</time>
      </trkpt>
      <trkpt lat="46.32233" lon="4.68175">
        <ele>298.2</ele>
        <time>2022-06-25T12:33:05Z</time>
      </trkpt>
      <trkpt lat="46.32228" lon="4.68177">
        <ele>298.2</ele>
        <time>2022-06-25T12:33:06Z</time>
      </trkpt>
      <trkpt lat="46.32224" lon="4.6818">
        <ele>298.2</ele>
        <time>2022-06-25T12:33:07Z</time>
      </trkpt>
      <trkpt lat="46.32219" lon="4.68182">
        <ele>298.2</ele>
        <time>2022-06-25T12:33:08Z</time>
      </trkpt>
      <trkpt lat="46.32214" lon="4.68185">
        <ele>298.2</ele>
        <time>2022-06-25T12:33:09Z</time>
      </trkpt>
      <trkpt lat="46.32209" lon="4.68187">
        <ele>298.2</ele>
        <time>2022-06-25T12:33:10Z</time>
      </trkpt>
      <trkpt lat="46.32205" lon="4.6819">
        <ele>298.2</ele>
        <time>2022-06-25T12:33:11Z</time>
      </trkpt>
      <trkpt lat="46.322" lon="4.68193">
        <ele>298.6</ele>
        <time>2022-06-25T12:33:12Z</time>
      </trkpt>
      <trkpt lat="46.32195" lon="4.68195">
        <ele>298.6</ele>
        <time>2022-06-25T12:33:13Z</time>
      </trkpt>
      <trkpt lat="46.32191" lon="4.68198">
        <ele>298.6</ele>
        <time>2022-06-25T12:33:14Z</time>
      </trkpt>
      <trkpt lat="46.32186" lon="4.682">
        <ele>298.6</ele>
        <time>2022-06-25T12:33:15Z</time>
      </trkpt>
      <trkpt lat="46.32181" lon="4.68202">
        <ele>299</ele>
        <time>2022-06-25T12:33:16Z</time>
      </trkpt>
      <trkpt lat="46.32177" lon="4.68205">
        <ele>299</ele>
        <time>2022-06-25T12:33:17Z</time>
      </trkpt>
      <trkpt lat="46.32173" lon="4.68207">
        <ele>299.2</ele>
        <time>2022-06-25T12:33:18Z</time>
      </trkpt>
      <trkpt lat="46.32168" lon="4.68209">
        <ele>299.2</ele>
        <time>2022-06-25T12:33:19Z</time>
      </trkpt>
      <trkpt lat="46.32164" lon="4.68211">
        <ele>299.2</ele>
        <time>2022-06-25T12:33:20Z</time>
      </trkpt>
      <trkpt lat="46.3216" lon="4.68213">
        <ele>299.4</ele>
        <time>2022-06-25T12:33:21Z</time>
      </trkpt>
      <trkpt lat="46.32157" lon="4.68215">
        <ele>299.6</ele>
        <time>2022-06-25T12:33:22Z</time>
      </trkpt>
      <trkpt lat="46.32153" lon="4.68218">
        <ele>300</ele>
        <time>2022-06-25T12:33:23Z</time>
      </trkpt>
      <trkpt lat="46.32149" lon="4.68219">
        <ele>300.2</ele>
        <time>2022-06-25T12:33:24Z</time>
      </trkpt>
      <trkpt lat="46.32145" lon="4.68221">
        <ele>300.2</ele>
        <time>2022-06-25T12:33:25Z</time>
      </trkpt>
      <trkpt lat="46.32141" lon="4.68223">
        <ele>300.4</ele>
        <time>2022-06-25T12:33:26Z</time>
      </trkpt>
      <trkpt lat="46.32137" lon="4.68225">
        <ele>300.4</ele>
        <time>2022-06-25T12:33:27Z</time>
      </trkpt>
      <trkpt lat="46.32133" lon="4.68226">
        <ele>300.8</ele>
        <time>2022-06-25T12:33:28Z</time>
      </trkpt>
      <trkpt lat="46.32129" lon="4.68227">
        <ele>301</ele>
        <time>2022-06-25T12:33:29Z</time>
      </trkpt>
      <trkpt lat="46.32125" lon="4.68228">
        <ele>301.2</ele>
        <time>2022-06-25T12:33:30Z</time>
      </trkpt>
      <trkpt lat="46.32121" lon="4.68228">
        <ele>301.2</ele>
        <time>2022-06-25T12:33:31Z</time>
      </trkpt>
      <trkpt lat="46.32117" lon="4.68229">
        <ele>301.8</ele>
        <time>2022-06-25T12:33:32Z</time>
      </trkpt>
      <trkpt lat="46.32113" lon="4.6823">
        <ele>301.8</ele>
        <time>2022-06-25T12:33:33Z</time>
      </trkpt>
      <trkpt lat="46.32109" lon="4.6823">
        <ele>302.4</ele>
        <time>2022-06-25T12:33:35Z</time>
      </trkpt>
      <trkpt lat="46.32105" lon="4.6823">
        <ele>302.4</ele>
        <time>2022-06-25T12:33:36Z</time>
      </trkpt>
      <trkpt lat="46.32101" lon="4.6823">
        <ele>302.8</ele>
        <time>2022-06-25T12:33:37Z</time>
      </trkpt>
      <trkpt lat="46.32096" lon="4.6823">
        <ele>302.8</ele>
        <time>2022-06-25T12:33:38Z</time>
      </trkpt>
      <trkpt lat="46.32092" lon="4.68229">
        <ele>303</ele>
        <time>2022-06-25T12:33:39Z</time>
      </trkpt>
      <trkpt lat="46.32088" lon="4.68229">
        <ele>303</ele>
        <time>2022-06-25T12:33:40Z</time>
      </trkpt>
      <trkpt lat="46.32084" lon="4.68228">
        <ele>303.6</ele>
        <time>2022-06-25T12:33:41Z</time>
      </trkpt>
      <trkpt lat="46.32081" lon="4.68227">
        <ele>303.6</ele>
        <time>2022-06-25T12:33:42Z</time>
      </trkpt>
      <trkpt lat="46.32077" lon="4.68226">
        <ele>303.8</ele>
        <time>2022-06-25T12:33:43Z</time>
      </trkpt>
      <trkpt lat="46.32073" lon="4.68225">
        <ele>303.8</ele>
        <time>2022-06-25T12:33:44Z</time>
      </trkpt>
      <trkpt lat="46.3207" lon="4.68224">
        <ele>304</ele>
        <time>2022-06-25T12:33:45Z</time>
      </trkpt>
      <trkpt lat="46.32066" lon="4.68223">
        <ele>304.2</ele>
        <time>2022-06-25T12:33:46Z</time>
      </trkpt>
      <trkpt lat="46.32063" lon="4.68221">
        <ele>304.2</ele>
        <time>2022-06-25T12:33:47Z</time>
      </trkpt>
      <trkpt lat="46.32059" lon="4.6822">
        <ele>304.6</ele>
        <time>2022-06-25T12:33:48Z</time>
      </trkpt>
      <trkpt lat="46.32055" lon="4.68218">
        <ele>304.6</ele>
        <time>2022-06-25T12:33:49Z</time>
      </trkpt>
      <trkpt lat="46.32052" lon="4.68217">
        <ele>304.8</ele>
        <time>2022-06-25T12:33:50Z</time>
      </trkpt>
      <trkpt lat="46.32048" lon="4.68216">
        <ele>304.8</ele>
        <time>2022-06-25T12:33:51Z</time>
      </trkpt>
      <trkpt lat="46.32044" lon="4.68214">
        <ele>305.2</ele>
        <time>2022-06-25T12:33:52Z</time>
      </trkpt>
      <trkpt lat="46.3204" lon="4.68213">
        <ele>305.2</ele>
        <time>2022-06-25T12:33:53Z</time>
      </trkpt>
      <trkpt lat="46.32037" lon="4.68212">
        <ele>305.6</ele>
        <time>2022-06-25T12:33:54Z</time>
      </trkpt>
      <trkpt lat="46.32033" lon="4.68211">
        <ele>305.8</ele>
        <time>2022-06-25T12:33:55Z</time>
      </trkpt>
      <trkpt lat="46.3203" lon="4.6821">
        <ele>305.8</ele>
        <time>2022-06-25T12:33:56Z</time>
      </trkpt>
      <trkpt lat="46.32026" lon="4.68209">
        <ele>306.2</ele>
        <time>2022-06-25T12:33:57Z</time>
      </trkpt>
      <trkpt lat="46.32022" lon="4.68208">
        <ele>306.2</ele>
        <time>2022-06-25T12:33:58Z</time>
      </trkpt>
      <trkpt lat="46.32019" lon="4.68206">
        <ele>306.4</ele>
        <time>2022-06-25T12:33:59Z</time>
      </trkpt>
      <trkpt lat="46.32015" lon="4.68205">
        <ele>306.4</ele>
        <time>2022-06-25T12:34:00Z</time>
      </trkpt>
      <trkpt lat="46.32011" lon="4.68204">
        <ele>306.8</ele>
        <time>2022-06-25T12:34:01Z</time>
      </trkpt>
      <trkpt lat="46.32008" lon="4.68203">
        <ele>306.8</ele>
        <time>2022-06-25T12:34:02Z</time>
      </trkpt>
      <trkpt lat="46.32004" lon="4.68201">
        <ele>307</ele>
        <time>2022-06-25T12:34:03Z</time>
      </trkpt>
      <trkpt lat="46.32001" lon="4.682">
        <ele>307.2</ele>
        <time>2022-06-25T12:34:04Z</time>
      </trkpt>
      <trkpt lat="46.31997" lon="4.68199">
        <ele>307.4</ele>
        <time>2022-06-25T12:34:05Z</time>
      </trkpt>
      <trkpt lat="46.31994" lon="4.68198">
        <ele>307.6</ele>
        <time>2022-06-25T12:34:06Z</time>
      </trkpt>
      <trkpt lat="46.3199" lon="4.68196">
        <ele>308</ele>
        <time>2022-06-25T12:34:07Z</time>
      </trkpt>
      <trkpt lat="46.31987" lon="4.68195">
        <ele>308</ele>
        <time>2022-06-25T12:34:08Z</time>
      </trkpt>
      <trkpt lat="46.31983" lon="4.68194">
        <ele>308.2</ele>
        <time>2022-06-25T12:34:09Z</time>
      </trkpt>
      <trkpt lat="46.3198" lon="4.68193">
        <ele>308.2</ele>
        <time>2022-06-25T12:34:10Z</time>
      </trkpt>
      <trkpt lat="46.31976" lon="4.68192">
        <ele>308.4</ele>
        <time>2022-06-25T12:34:11Z</time>
      </trkpt>
      <trkpt lat="46.31972" lon="4.68191">
        <ele>308.4</ele>
        <time>2022-06-25T12:34:12Z</time>
      </trkpt>
      <trkpt lat="46.31968" lon="4.68189">
        <ele>308.8</ele>
        <time>2022-06-25T12:34:13Z</time>
      </trkpt>
      <trkpt lat="46.31964" lon="4.68188">
        <ele>308.8</ele>
        <time>2022-06-25T12:34:14Z</time>
      </trkpt>
      <trkpt lat="46.3196" lon="4.68186">
        <ele>309.2</ele>
        <time>2022-06-25T12:34:15Z</time>
      </trkpt>
      <trkpt lat="46.31956" lon="4.68185">
        <ele>309.2</ele>
        <time>2022-06-25T12:34:16Z</time>
      </trkpt>
      <trkpt lat="46.31951" lon="4.68183">
        <ele>309.4</ele>
        <time>2022-06-25T12:34:17Z</time>
      </trkpt>
      <trkpt lat="46.31947" lon="4.68182">
        <ele>309.4</ele>
        <time>2022-06-25T12:34:18Z</time>
      </trkpt>
      <trkpt lat="46.31943" lon="4.68181">
        <ele>309.8</ele>
        <time>2022-06-25T12:34:19Z</time>
      </trkpt>
      <trkpt lat="46.31939" lon="4.6818">
        <ele>309.8</ele>
        <time>2022-06-25T12:34:20Z</time>
      </trkpt>
      <trkpt lat="46.31934" lon="4.68178">
        <ele>310.2</ele>
        <time>2022-06-25T12:34:21Z</time>
      </trkpt>
      <trkpt lat="46.3193" lon="4.68177">
        <ele>310.4</ele>
        <time>2022-06-25T12:34:22Z</time>
      </trkpt>
      <trkpt lat="46.31926" lon="4.68176">
        <ele>310.6</ele>
        <time>2022-06-25T12:34:23Z</time>
      </trkpt>
      <trkpt lat="46.31921" lon="4.68174">
        <ele>311</ele>
        <time>2022-06-25T12:34:24Z</time>
      </trkpt>
      <trkpt lat="46.31917" lon="4.68173">
        <ele>311.2</ele>
        <time>2022-06-25T12:34:25Z</time>
      </trkpt>
      <trkpt lat="46.31913" lon="4.68173">
        <ele>311.2</ele>
        <time>2022-06-25T12:34:26Z</time>
      </trkpt>
      <trkpt lat="46.31909" lon="4.68172">
        <ele>311.2</ele>
        <time>2022-06-25T12:34:27Z</time>
      </trkpt>
      <trkpt lat="46.31904" lon="4.68172">
        <ele>311.4</ele>
        <time>2022-06-25T12:34:28Z</time>
      </trkpt>
      <trkpt lat="46.319" lon="4.68171">
        <ele>311.4</ele>
        <time>2022-06-25T12:34:29Z</time>
      </trkpt>
      <trkpt lat="46.31895" lon="4.68171">
        <ele>311.6</ele>
        <time>2022-06-25T12:34:30Z</time>
      </trkpt>
      <trkpt lat="46.31891" lon="4.68171">
        <ele>311.8</ele>
        <time>2022-06-25T12:34:31Z</time>
      </trkpt>
      <trkpt lat="46.31886" lon="4.68171">
        <ele>311.8</ele>
        <time>2022-06-25T12:34:32Z</time>
      </trkpt>
      <trkpt lat="46.31882" lon="4.68172">
        <ele>312</ele>
        <time>2022-06-25T12:34:33Z</time>
      </trkpt>
      <trkpt lat="46.31878" lon="4.68172">
        <ele>312</ele>
        <time>2022-06-25T12:34:34Z</time>
      </trkpt>
      <trkpt lat="46.31873" lon="4.68172">
        <ele>312.4</ele>
        <time>2022-06-25T12:34:35Z</time>
      </trkpt>
      <trkpt lat="46.31869" lon="4.68173">
        <ele>312.4</ele>
        <time>2022-06-25T12:34:36Z</time>
      </trkpt>
      <trkpt lat="46.31865" lon="4.68173">
        <ele>312.6</ele>
        <time>2022-06-25T12:34:37Z</time>
      </trkpt>
      <trkpt lat="46.31861" lon="4.68174">
        <ele>312.6</ele>
        <time>2022-06-25T12:34:38Z</time>
      </trkpt>
      <trkpt lat="46.31857" lon="4.68174">
        <ele>312.8</ele>
        <time>2022-06-25T12:34:39Z</time>
      </trkpt>
      <trkpt lat="46.31852" lon="4.68175">
        <ele>312.8</ele>
        <time>2022-06-25T12:34:40Z</time>
      </trkpt>
      <trkpt lat="46.31848" lon="4.68175">
        <ele>312.8</ele>
        <time>2022-06-25T12:34:41Z</time>
      </trkpt>
      <trkpt lat="46.31844" lon="4.68175">
        <ele>313.2</ele>
        <time>2022-06-25T12:34:42Z</time>
      </trkpt>
      <trkpt lat="46.31839" lon="4.68176">
        <ele>313.2</ele>
        <time>2022-06-25T12:34:43Z</time>
      </trkpt>
      <trkpt lat="46.31835" lon="4.68176">
        <ele>313.6</ele>
        <time>2022-06-25T12:34:44Z</time>
      </trkpt>
      <trkpt lat="46.3183" lon="4.68176">
        <ele>313.6</ele>
        <time>2022-06-25T12:34:45Z</time>
      </trkpt>
      <trkpt lat="46.31826" lon="4.68176">
        <ele>314</ele>
        <time>2022-06-25T12:34:46Z</time>
      </trkpt>
      <trkpt lat="46.31821" lon="4.68177">
        <ele>314</ele>
        <time>2022-06-25T12:34:47Z</time>
      </trkpt>
      <trkpt lat="46.31817" lon="4.68177">
        <ele>314.2</ele>
        <time>2022-06-25T12:34:48Z</time>
      </trkpt>
      <trkpt lat="46.31813" lon="4.68178">
        <ele>314.2</ele>
        <time>2022-06-25T12:34:49Z</time>
      </trkpt>
      <trkpt lat="46.31808" lon="4.68178">
        <ele>314.4</ele>
        <time>2022-06-25T12:34:50Z</time>
      </trkpt>
      <trkpt lat="46.31804" lon="4.68178">
        <ele>314.4</ele>
        <time>2022-06-25T12:34:51Z</time>
      </trkpt>
      <trkpt lat="46.31799" lon="4.68178">
        <ele>314.8</ele>
        <time>2022-06-25T12:34:52Z</time>
      </trkpt>
      <trkpt lat="46.31795" lon="4.68178">
        <ele>314.8</ele>
        <time>2022-06-25T12:34:53Z</time>
      </trkpt>
      <trkpt lat="46.31791" lon="4.68178">
        <ele>315</ele>
        <time>2022-06-25T12:34:54Z</time>
      </trkpt>
      <trkpt lat="46.31786" lon="4.68178">
        <ele>315</ele>
        <time>2022-06-25T12:34:55Z</time>
      </trkpt>
      <trkpt lat="46.31782" lon="4.68178">
        <ele>315.4</ele>
        <time>2022-06-25T12:34:56Z</time>
      </trkpt>
      <trkpt lat="46.31778" lon="4.68178">
        <ele>315.4</ele>
        <time>2022-06-25T12:34:57Z</time>
      </trkpt>
      <trkpt lat="46.31774" lon="4.68178">
        <ele>315.6</ele>
        <time>2022-06-25T12:34:58Z</time>
      </trkpt>
      <trkpt lat="46.3177" lon="4.68178">
        <ele>315.6</ele>
        <time>2022-06-25T12:34:59Z</time>
      </trkpt>
      <trkpt lat="46.31766" lon="4.68178">
        <ele>315.6</ele>
        <time>2022-06-25T12:35:00Z</time>
      </trkpt>
      <trkpt lat="46.31762" lon="4.68177">
        <ele>315.8</ele>
        <time>2022-06-25T12:35:01Z</time>
      </trkpt>
      <trkpt lat="46.31757" lon="4.68177">
        <ele>315.8</ele>
        <time>2022-06-25T12:35:02Z</time>
      </trkpt>
      <trkpt lat="46.31753" lon="4.68177">
        <ele>316</ele>
        <time>2022-06-25T12:35:03Z</time>
      </trkpt>
      <trkpt lat="46.31749" lon="4.68177">
        <ele>316</ele>
        <time>2022-06-25T12:35:04Z</time>
      </trkpt>
      <trkpt lat="46.31745" lon="4.68178">
        <ele>316.4</ele>
        <time>2022-06-25T12:35:05Z</time>
      </trkpt>
      <trkpt lat="46.31741" lon="4.68178">
        <ele>316.4</ele>
        <time>2022-06-25T12:35:06Z</time>
      </trkpt>
      <trkpt lat="46.31737" lon="4.68179">
        <ele>316.6</ele>
        <time>2022-06-25T12:35:07Z</time>
      </trkpt>
      <trkpt lat="46.31733" lon="4.68179">
        <ele>316.6</ele>
        <time>2022-06-25T12:35:08Z</time>
      </trkpt>
      <trkpt lat="46.31729" lon="4.6818">
        <ele>316.8</ele>
        <time>2022-06-25T12:35:09Z</time>
      </trkpt>
      <trkpt lat="46.31725" lon="4.68181">
        <ele>316.8</ele>
        <time>2022-06-25T12:35:10Z</time>
      </trkpt>
      <trkpt lat="46.31721" lon="4.68183">
        <ele>317.2</ele>
        <time>2022-06-25T12:35:11Z</time>
      </trkpt>
      <trkpt lat="46.31717" lon="4.68184">
        <ele>317.4</ele>
        <time>2022-06-25T12:35:12Z</time>
      </trkpt>
      <trkpt lat="46.31713" lon="4.68185">
        <ele>317.4</ele>
        <time>2022-06-25T12:35:13Z</time>
      </trkpt>
      <trkpt lat="46.31709" lon="4.68186">
        <ele>317.6</ele>
        <time>2022-06-25T12:35:14Z</time>
      </trkpt>
      <trkpt lat="46.31704" lon="4.68186">
        <ele>317.6</ele>
        <time>2022-06-25T12:35:15Z</time>
      </trkpt>
      <trkpt lat="46.317" lon="4.68187">
        <ele>318.2</ele>
        <time>2022-06-25T12:35:16Z</time>
      </trkpt>
      <trkpt lat="46.31696" lon="4.68187">
        <ele>318.2</ele>
        <time>2022-06-25T12:35:17Z</time>
      </trkpt>
      <trkpt lat="46.31692" lon="4.68187">
        <ele>318.2</ele>
        <time>2022-06-25T12:35:18Z</time>
      </trkpt>
      <trkpt lat="46.31688" lon="4.68188">
        <ele>318.4</ele>
        <time>2022-06-25T12:35:19Z</time>
      </trkpt>
      <trkpt lat="46.31684" lon="4.68188">
        <ele>318.4</ele>
        <time>2022-06-25T12:35:20Z</time>
      </trkpt>
      <trkpt lat="46.3168" lon="4.68187">
        <ele>318.6</ele>
        <time>2022-06-25T12:35:21Z</time>
      </trkpt>
      <trkpt lat="46.31676" lon="4.68186">
        <ele>319</ele>
        <time>2022-06-25T12:35:22Z</time>
      </trkpt>
      <trkpt lat="46.31672" lon="4.68185">
        <ele>319</ele>
        <time>2022-06-25T12:35:23Z</time>
      </trkpt>
      <trkpt lat="46.31668" lon="4.68184">
        <ele>319</ele>
        <time>2022-06-25T12:35:24Z</time>
      </trkpt>
      <trkpt lat="46.31664" lon="4.68183">
        <ele>319</ele>
        <time>2022-06-25T12:35:25Z</time>
      </trkpt>
      <trkpt lat="46.3166" lon="4.68182">
        <ele>319.2</ele>
        <time>2022-06-25T12:35:26Z</time>
      </trkpt>
      <trkpt lat="46.31657" lon="4.6818">
        <ele>319.2</ele>
        <time>2022-06-25T12:35:27Z</time>
      </trkpt>
      <trkpt lat="46.31653" lon="4.68178">
        <ele>319.6</ele>
        <time>2022-06-25T12:35:28Z</time>
      </trkpt>
      <trkpt lat="46.31649" lon="4.68176">
        <ele>319.6</ele>
        <time>2022-06-25T12:35:29Z</time>
      </trkpt>
      <trkpt lat="46.31645" lon="4.68174">
        <ele>319.8</ele>
        <time>2022-06-25T12:35:30Z</time>
      </trkpt>
      <trkpt lat="46.31641" lon="4.68172">
        <ele>319.8</ele>
        <time>2022-06-25T12:35:31Z</time>
      </trkpt>
      <trkpt lat="46.31637" lon="4.6817">
        <ele>320.2</ele>
        <time>2022-06-25T12:35:32Z</time>
      </trkpt>
      <trkpt lat="46.31633" lon="4.68167">
        <ele>320.2</ele>
        <time>2022-06-25T12:35:33Z</time>
      </trkpt>
      <trkpt lat="46.3163" lon="4.68165">
        <ele>320.6</ele>
        <time>2022-06-25T12:35:34Z</time>
      </trkpt>
      <trkpt lat="46.31626" lon="4.68162">
        <ele>320.6</ele>
        <time>2022-06-25T12:35:35Z</time>
      </trkpt>
      <trkpt lat="46.31622" lon="4.6816">
        <ele>320.8</ele>
        <time>2022-06-25T12:35:36Z</time>
      </trkpt>
      <trkpt lat="46.31619" lon="4.68158">
        <ele>321</ele>
        <time>2022-06-25T12:35:37Z</time>
      </trkpt>
      <trkpt lat="46.31616" lon="4.68155">
        <ele>321</ele>
        <time>2022-06-25T12:35:38Z</time>
      </trkpt>
      <trkpt lat="46.31612" lon="4.68153">
        <ele>321.4</ele>
        <time>2022-06-25T12:35:39Z</time>
      </trkpt>
      <trkpt lat="46.31609" lon="4.68151">
        <ele>321.4</ele>
        <time>2022-06-25T12:35:40Z</time>
      </trkpt>
      <trkpt lat="46.31606" lon="4.68149">
        <ele>321.8</ele>
        <time>2022-06-25T12:35:41Z</time>
      </trkpt>
      <trkpt lat="46.31602" lon="4.68147">
        <ele>322</ele>
        <time>2022-06-25T12:35:42Z</time>
      </trkpt>
      <trkpt lat="46.31599" lon="4.68144">
        <ele>322</ele>
        <time>2022-06-25T12:35:43Z</time>
      </trkpt>
      <trkpt lat="46.31596" lon="4.68142">
        <ele>322.4</ele>
        <time>2022-06-25T12:35:44Z</time>
      </trkpt>
      <trkpt lat="46.31593" lon="4.6814">
        <ele>322.4</ele>
        <time>2022-06-25T12:35:45Z</time>
      </trkpt>
      <trkpt lat="46.31589" lon="4.68138">
        <ele>322.6</ele>
        <time>2022-06-25T12:35:46Z</time>
      </trkpt>
      <trkpt lat="46.31586" lon="4.68136">
        <ele>322.6</ele>
        <time>2022-06-25T12:35:47Z</time>
      </trkpt>
      <trkpt lat="46.31583" lon="4.68134">
        <ele>323</ele>
        <time>2022-06-25T12:35:48Z</time>
      </trkpt>
      <trkpt lat="46.3158" lon="4.68132">
        <ele>323</ele>
        <time>2022-06-25T12:35:49Z</time>
      </trkpt>
      <trkpt lat="46.31576" lon="4.68131">
        <ele>323.4</ele>
        <time>2022-06-25T12:35:50Z</time>
      </trkpt>
      <trkpt lat="46.31573" lon="4.68129">
        <ele>323.4</ele>
        <time>2022-06-25T12:35:51Z</time>
      </trkpt>
      <trkpt lat="46.3157" lon="4.68128">
        <ele>323.8</ele>
        <time>2022-06-25T12:35:52Z</time>
      </trkpt>
      <trkpt lat="46.31567" lon="4.68126">
        <ele>323.8</ele>
        <time>2022-06-25T12:35:53Z</time>
      </trkpt>
      <trkpt lat="46.31563" lon="4.68125">
        <ele>324</ele>
        <time>2022-06-25T12:35:54Z</time>
      </trkpt>
      <trkpt lat="46.3156" lon="4.68124">
        <ele>324</ele>
        <time>2022-06-25T12:35:55Z</time>
      </trkpt>
      <trkpt lat="46.31557" lon="4.68122">
        <ele>324</ele>
        <time>2022-06-25T12:35:56Z</time>
      </trkpt>
      <trkpt lat="46.31553" lon="4.68121">
        <ele>324.4</ele>
        <time>2022-06-25T12:35:57Z</time>
      </trkpt>
      <trkpt lat="46.3155" lon="4.68119">
        <ele>324.4</ele>
        <time>2022-06-25T12:35:58Z</time>
      </trkpt>
      <trkpt lat="46.31546" lon="4.68118">
        <ele>324.6</ele>
        <time>2022-06-25T12:35:59Z</time>
      </trkpt>
      <trkpt lat="46.31543" lon="4.68118">
        <ele>324.6</ele>
        <time>2022-06-25T12:36:00Z</time>
      </trkpt>
      <trkpt lat="46.31539" lon="4.68117">
        <ele>325</ele>
        <time>2022-06-25T12:36:01Z</time>
      </trkpt>
      <trkpt lat="46.31536" lon="4.68117">
        <ele>325</ele>
        <time>2022-06-25T12:36:02Z</time>
      </trkpt>
      <trkpt lat="46.31533" lon="4.68116">
        <ele>325.4</ele>
        <time>2022-06-25T12:36:03Z</time>
      </trkpt>
      <trkpt lat="46.31529" lon="4.68116">
        <ele>325.6</ele>
        <time>2022-06-25T12:36:04Z</time>
      </trkpt>
      <trkpt lat="46.31525" lon="4.68115">
        <ele>325.6</ele>
        <time>2022-06-25T12:36:05Z</time>
      </trkpt>
      <trkpt lat="46.31522" lon="4.68115">
        <ele>325.8</ele>
        <time>2022-06-25T12:36:06Z</time>
      </trkpt>
      <trkpt lat="46.31518" lon="4.68115">
        <ele>325.8</ele>
        <time>2022-06-25T12:36:07Z</time>
      </trkpt>
      <trkpt lat="46.31515" lon="4.68115">
        <ele>326.2</ele>
        <time>2022-06-25T12:36:08Z</time>
      </trkpt>
      <trkpt lat="46.31511" lon="4.68114">
        <ele>326.4</ele>
        <time>2022-06-25T12:36:09Z</time>
      </trkpt>
      <trkpt lat="46.31508" lon="4.68114">
        <ele>326.4</ele>
        <time>2022-06-25T12:36:10Z</time>
      </trkpt>
      <trkpt lat="46.31504" lon="4.68114">
        <ele>326.6</ele>
        <time>2022-06-25T12:36:11Z</time>
      </trkpt>
      <trkpt lat="46.31501" lon="4.68114">
        <ele>326.6</ele>
        <time>2022-06-25T12:36:12Z</time>
      </trkpt>
      <trkpt lat="46.31497" lon="4.68114">
        <ele>327</ele>
        <time>2022-06-25T12:36:13Z</time>
      </trkpt>
      <trkpt lat="46.31494" lon="4.68115">
        <ele>327</ele>
        <time>2022-06-25T12:36:14Z</time>
      </trkpt>
      <trkpt lat="46.31487" lon="4.68115">
        <ele>327.2</ele>
        <time>2022-06-25T12:36:15Z</time>
      </trkpt>
      <trkpt lat="46.31484" lon="4.68115">
        <ele>327.2</ele>
        <time>2022-06-25T12:36:16Z</time>
      </trkpt>
      <trkpt lat="46.31481" lon="4.68115">
        <ele>327.4</ele>
        <time>2022-06-25T12:36:17Z</time>
      </trkpt>
      <trkpt lat="46.31477" lon="4.68115">
        <ele>327.4</ele>
        <time>2022-06-25T12:36:18Z</time>
      </trkpt>
      <trkpt lat="46.31474" lon="4.68115">
        <ele>327.8</ele>
        <time>2022-06-25T12:36:19Z</time>
      </trkpt>
      <trkpt lat="46.31471" lon="4.68116">
        <ele>328</ele>
        <time>2022-06-25T12:36:20Z</time>
      </trkpt>
      <trkpt lat="46.31467" lon="4.68116">
        <ele>328</ele>
        <time>2022-06-25T12:36:21Z</time>
      </trkpt>
      <trkpt lat="46.31464" lon="4.68116">
        <ele>328.4</ele>
        <time>2022-06-25T12:36:22Z</time>
      </trkpt>
      <trkpt lat="46.3146" lon="4.68115">
        <ele>328.4</ele>
        <time>2022-06-25T12:36:23Z</time>
      </trkpt>
      <trkpt lat="46.31457" lon="4.68114">
        <ele>328.6</ele>
        <time>2022-06-25T12:36:24Z</time>
      </trkpt>
      <trkpt lat="46.31454" lon="4.68114">
        <ele>328.6</ele>
        <time>2022-06-25T12:36:25Z</time>
      </trkpt>
      <trkpt lat="46.3145" lon="4.68113">
        <ele>329</ele>
        <time>2022-06-25T12:36:26Z</time>
      </trkpt>
      <trkpt lat="46.31447" lon="4.68112">
        <ele>329</ele>
        <time>2022-06-25T12:36:27Z</time>
      </trkpt>
      <trkpt lat="46.31444" lon="4.68112">
        <ele>329.2</ele>
        <time>2022-06-25T12:36:28Z</time>
      </trkpt>
      <trkpt lat="46.3144" lon="4.68111">
        <ele>329.2</ele>
        <time>2022-06-25T12:36:29Z</time>
      </trkpt>
      <trkpt lat="46.31437" lon="4.6811">
        <ele>329.4</ele>
        <time>2022-06-25T12:36:30Z</time>
      </trkpt>
      <trkpt lat="46.31434" lon="4.68109">
        <ele>329.4</ele>
        <time>2022-06-25T12:36:31Z</time>
      </trkpt>
      <trkpt lat="46.3143" lon="4.68108">
        <ele>329.6</ele>
        <time>2022-06-25T12:36:32Z</time>
      </trkpt>
      <trkpt lat="46.31427" lon="4.68107">
        <ele>329.6</ele>
        <time>2022-06-25T12:36:33Z</time>
      </trkpt>
      <trkpt lat="46.31423" lon="4.68106">
        <ele>330</ele>
        <time>2022-06-25T12:36:34Z</time>
      </trkpt>
      <trkpt lat="46.3142" lon="4.68105">
        <ele>330</ele>
        <time>2022-06-25T12:36:35Z</time>
      </trkpt>
      <trkpt lat="46.31416" lon="4.68104">
        <ele>330.2</ele>
        <time>2022-06-25T12:36:36Z</time>
      </trkpt>
      <trkpt lat="46.31413" lon="4.68103">
        <ele>330.2</ele>
        <time>2022-06-25T12:36:37Z</time>
      </trkpt>
      <trkpt lat="46.31409" lon="4.68102">
        <ele>330.6</ele>
        <time>2022-06-25T12:36:38Z</time>
      </trkpt>
      <trkpt lat="46.31406" lon="4.681">
        <ele>330.6</ele>
        <time>2022-06-25T12:36:39Z</time>
      </trkpt>
      <trkpt lat="46.31402" lon="4.68099">
        <ele>330.8</ele>
        <time>2022-06-25T12:36:40Z</time>
      </trkpt>
      <trkpt lat="46.31398" lon="4.68098">
        <ele>330.8</ele>
        <time>2022-06-25T12:36:41Z</time>
      </trkpt>
      <trkpt lat="46.31395" lon="4.68097">
        <ele>330.8</ele>
        <time>2022-06-25T12:36:42Z</time>
      </trkpt>
      <trkpt lat="46.31391" lon="4.68096">
        <ele>330.8</ele>
        <time>2022-06-25T12:36:43Z</time>
      </trkpt>
      <trkpt lat="46.31387" lon="4.68095">
        <ele>331.2</ele>
        <time>2022-06-25T12:36:44Z</time>
      </trkpt>
      <trkpt lat="46.31383" lon="4.68094">
        <ele>331.2</ele>
        <time>2022-06-25T12:36:45Z</time>
      </trkpt>
      <trkpt lat="46.3138" lon="4.68092">
        <ele>331.2</ele>
        <time>2022-06-25T12:36:46Z</time>
      </trkpt>
      <trkpt lat="46.31376" lon="4.68091">
        <ele>331.4</ele>
        <time>2022-06-25T12:36:47Z</time>
      </trkpt>
      <trkpt lat="46.31372" lon="4.68089">
        <ele>331.4</ele>
        <time>2022-06-25T12:36:48Z</time>
      </trkpt>
      <trkpt lat="46.31368" lon="4.68088">
        <ele>331.4</ele>
        <time>2022-06-25T12:36:49Z</time>
      </trkpt>
      <trkpt lat="46.31364" lon="4.68087">
        <ele>331.4</ele>
        <time>2022-06-25T12:36:50Z</time>
      </trkpt>
      <trkpt lat="46.3136" lon="4.68086">
        <ele>331.6</ele>
        <time>2022-06-25T12:36:51Z</time>
      </trkpt>
      <trkpt lat="46.31356" lon="4.68084">
        <ele>331.6</ele>
        <time>2022-06-25T12:36:52Z</time>
      </trkpt>
      <trkpt lat="46.31352" lon="4.68083">
        <ele>331.6</ele>
        <time>2022-06-25T12:36:53Z</time>
      </trkpt>
      <trkpt lat="46.31348" lon="4.68082">
        <ele>331.6</ele>
        <time>2022-06-25T12:36:54Z</time>
      </trkpt>
      <trkpt lat="46.31344" lon="4.68081">
        <ele>331.6</ele>
        <time>2022-06-25T12:36:55Z</time>
      </trkpt>
      <trkpt lat="46.3134" lon="4.6808">
        <ele>331.6</ele>
        <time>2022-06-25T12:36:56Z</time>
      </trkpt>
      <trkpt lat="46.31337" lon="4.68079">
        <ele>331.6</ele>
        <time>2022-06-25T12:36:57Z</time>
      </trkpt>
      <trkpt lat="46.31334" lon="4.68077">
        <ele>331.8</ele>
        <time>2022-06-25T12:36:58Z</time>
      </trkpt>
      <trkpt lat="46.31331" lon="4.68076">
        <ele>331.8</ele>
        <time>2022-06-25T12:36:59Z</time>
      </trkpt>
      <trkpt lat="46.31328" lon="4.68075">
        <ele>331.8</ele>
        <time>2022-06-25T12:37:00Z</time>
      </trkpt>
      <trkpt lat="46.31325" lon="4.68074">
        <ele>331.8</ele>
        <time>2022-06-25T12:37:01Z</time>
      </trkpt>
      <trkpt lat="46.31322" lon="4.68072">
        <ele>332.2</ele>
        <time>2022-06-25T12:37:02Z</time>
      </trkpt>
      <trkpt lat="46.3132" lon="4.68071">
        <ele>332.2</ele>
        <time>2022-06-25T12:37:03Z</time>
      </trkpt>
      <trkpt lat="46.31317" lon="4.6807">
        <ele>332.2</ele>
        <time>2022-06-25T12:37:04Z</time>
      </trkpt>
      <trkpt lat="46.31313" lon="4.68069">
        <ele>332.4</ele>
        <time>2022-06-25T12:37:05Z</time>
      </trkpt>
      <trkpt lat="46.3131" lon="4.68068">
        <ele>332.4</ele>
        <time>2022-06-25T12:37:06Z</time>
      </trkpt>
      <trkpt lat="46.31307" lon="4.68067">
        <ele>332.4</ele>
        <time>2022-06-25T12:37:07Z</time>
      </trkpt>
      <trkpt lat="46.31303" lon="4.68065">
        <ele>332.4</ele>
        <time>2022-06-25T12:37:08Z</time>
      </trkpt>
      <trkpt lat="46.31299" lon="4.68064">
        <ele>332.4</ele>
        <time>2022-06-25T12:37:09Z</time>
      </trkpt>
      <trkpt lat="46.31295" lon="4.68063">
        <ele>332.4</ele>
        <time>2022-06-25T12:37:10Z</time>
      </trkpt>
      <trkpt lat="46.31291" lon="4.68061">
        <ele>332.4</ele>
        <time>2022-06-25T12:37:11Z</time>
      </trkpt>
      <trkpt lat="46.31287" lon="4.6806">
        <ele>332.4</ele>
        <time>2022-06-25T12:37:12Z</time>
      </trkpt>
      <trkpt lat="46.31283" lon="4.68058">
        <ele>332.2</ele>
        <time>2022-06-25T12:37:13Z</time>
      </trkpt>
      <trkpt lat="46.31279" lon="4.68056">
        <ele>332.2</ele>
        <time>2022-06-25T12:37:14Z</time>
      </trkpt>
      <trkpt lat="46.31274" lon="4.68054">
        <ele>332</ele>
        <time>2022-06-25T12:37:15Z</time>
      </trkpt>
      <trkpt lat="46.31269" lon="4.68052">
        <ele>332</ele>
        <time>2022-06-25T12:37:16Z</time>
      </trkpt>
      <trkpt lat="46.31264" lon="4.6805">
        <ele>331.6</ele>
        <time>2022-06-25T12:37:17Z</time>
      </trkpt>
      <trkpt lat="46.31259" lon="4.68047">
        <ele>331.4</ele>
        <time>2022-06-25T12:37:18Z</time>
      </trkpt>
      <trkpt lat="46.31253" lon="4.68045">
        <ele>331.2</ele>
        <time>2022-06-25T12:37:19Z</time>
      </trkpt>
      <trkpt lat="46.31247" lon="4.68043">
        <ele>331.2</ele>
        <time>2022-06-25T12:37:20Z</time>
      </trkpt>
      <trkpt lat="46.31241" lon="4.6804">
        <ele>330.8</ele>
        <time>2022-06-25T12:37:21Z</time>
      </trkpt>
      <trkpt lat="46.31234" lon="4.68038">
        <ele>330.6</ele>
        <time>2022-06-25T12:37:22Z</time>
      </trkpt>
      <trkpt lat="46.31228" lon="4.68035">
        <ele>330.2</ele>
        <time>2022-06-25T12:37:23Z</time>
      </trkpt>
      <trkpt lat="46.31221" lon="4.68033">
        <ele>329.8</ele>
        <time>2022-06-25T12:37:24Z</time>
      </trkpt>
      <trkpt lat="46.31214" lon="4.6803">
        <ele>329.4</ele>
        <time>2022-06-25T12:37:25Z</time>
      </trkpt>
      <trkpt lat="46.31207" lon="4.68027">
        <ele>329</ele>
        <time>2022-06-25T12:37:26Z</time>
      </trkpt>
      <trkpt lat="46.312" lon="4.68025">
        <ele>328.6</ele>
        <time>2022-06-25T12:37:27Z</time>
      </trkpt>
      <trkpt lat="46.31192" lon="4.68022">
        <ele>328.2</ele>
        <time>2022-06-25T12:37:28Z</time>
      </trkpt>
      <trkpt lat="46.31185" lon="4.68018">
        <ele>328.2</ele>
        <time>2022-06-25T12:37:29Z</time>
      </trkpt>
      <trkpt lat="46.31178" lon="4.68013">
        <ele>328</ele>
        <time>2022-06-25T12:37:30Z</time>
      </trkpt>
      <trkpt lat="46.31166" lon="4.68002">
        <ele>327.8</ele>
        <time>2022-06-25T12:37:31Z</time>
      </trkpt>
      <trkpt lat="46.3116" lon="4.67995">
        <ele>327.8</ele>
        <time>2022-06-25T12:37:32Z</time>
      </trkpt>
      <trkpt lat="46.31156" lon="4.67987">
        <ele>327.4</ele>
        <time>2022-06-25T12:37:33Z</time>
      </trkpt>
      <trkpt lat="46.31151" lon="4.67979">
        <ele>327.4</ele>
        <time>2022-06-25T12:37:34Z</time>
      </trkpt>
      <trkpt lat="46.31145" lon="4.67972">
        <ele>327.4</ele>
        <time>2022-06-25T12:37:35Z</time>
      </trkpt>
      <trkpt lat="46.3114" lon="4.67964">
        <ele>327.2</ele>
        <time>2022-06-25T12:37:36Z</time>
      </trkpt>
      <trkpt lat="46.31135" lon="4.67957">
        <ele>327.2</ele>
        <time>2022-06-25T12:37:37Z</time>
      </trkpt>
      <trkpt lat="46.3113" lon="4.6795">
        <ele>327.2</ele>
        <time>2022-06-25T12:37:38Z</time>
      </trkpt>
      <trkpt lat="46.31124" lon="4.67944">
        <ele>327.2</ele>
        <time>2022-06-25T12:37:39Z</time>
      </trkpt>
      <trkpt lat="46.31119" lon="4.67938">
        <ele>327.2</ele>
        <time>2022-06-25T12:37:40Z</time>
      </trkpt>
      <trkpt lat="46.31114" lon="4.67931">
        <ele>327.2</ele>
        <time>2022-06-25T12:37:41Z</time>
      </trkpt>
      <trkpt lat="46.31109" lon="4.67924">
        <ele>327.2</ele>
        <time>2022-06-25T12:37:42Z</time>
      </trkpt>
      <trkpt lat="46.31104" lon="4.67918">
        <ele>326.8</ele>
        <time>2022-06-25T12:37:43Z</time>
      </trkpt>
      <trkpt lat="46.31099" lon="4.67912">
        <ele>326.8</ele>
        <time>2022-06-25T12:37:44Z</time>
      </trkpt>
      <trkpt lat="46.31094" lon="4.67906">
        <ele>326.8</ele>
        <time>2022-06-25T12:37:45Z</time>
      </trkpt>
      <trkpt lat="46.31089" lon="4.679">
        <ele>326.8</ele>
        <time>2022-06-25T12:37:46Z</time>
      </trkpt>
      <trkpt lat="46.31084" lon="4.67894">
        <ele>326.8</ele>
        <time>2022-06-25T12:37:47Z</time>
      </trkpt>
      <trkpt lat="46.31078" lon="4.67888">
        <ele>326.8</ele>
        <time>2022-06-25T12:37:48Z</time>
      </trkpt>
      <trkpt lat="46.31073" lon="4.67882">
        <ele>326.8</ele>
        <time>2022-06-25T12:37:49Z</time>
      </trkpt>
      <trkpt lat="46.31068" lon="4.67876">
        <ele>326.8</ele>
        <time>2022-06-25T12:37:50Z</time>
      </trkpt>
      <trkpt lat="46.31062" lon="4.6787">
        <ele>326.8</ele>
        <time>2022-06-25T12:37:51Z</time>
      </trkpt>
      <trkpt lat="46.31057" lon="4.67865">
        <ele>326.8</ele>
        <time>2022-06-25T12:37:52Z</time>
      </trkpt>
      <trkpt lat="46.31052" lon="4.67858">
        <ele>326.8</ele>
        <time>2022-06-25T12:37:53Z</time>
      </trkpt>
      <trkpt lat="46.31047" lon="4.67852">
        <ele>326.6</ele>
        <time>2022-06-25T12:37:54Z</time>
      </trkpt>
      <trkpt lat="46.31042" lon="4.67847">
        <ele>326.6</ele>
        <time>2022-06-25T12:37:55Z</time>
      </trkpt>
      <trkpt lat="46.31036" lon="4.67841">
        <ele>326.6</ele>
        <time>2022-06-25T12:37:56Z</time>
      </trkpt>
      <trkpt lat="46.31031" lon="4.67835">
        <ele>326.6</ele>
        <time>2022-06-25T12:37:57Z</time>
      </trkpt>
      <trkpt lat="46.31026" lon="4.67829">
        <ele>326.6</ele>
        <time>2022-06-25T12:37:58Z</time>
      </trkpt>
      <trkpt lat="46.31021" lon="4.67824">
        <ele>326.4</ele>
        <time>2022-06-25T12:37:59Z</time>
      </trkpt>
      <trkpt lat="46.31016" lon="4.67818">
        <ele>326.4</ele>
        <time>2022-06-25T12:38:00Z</time>
      </trkpt>
      <trkpt lat="46.31011" lon="4.67812">
        <ele>326.4</ele>
        <time>2022-06-25T12:38:01Z</time>
      </trkpt>
      <trkpt lat="46.31007" lon="4.67807">
        <ele>326.4</ele>
        <time>2022-06-25T12:38:02Z</time>
      </trkpt>
      <trkpt lat="46.31002" lon="4.67802">
        <ele>326.4</ele>
        <time>2022-06-25T12:38:03Z</time>
      </trkpt>
      <trkpt lat="46.30997" lon="4.67796">
        <ele>326.4</ele>
        <time>2022-06-25T12:38:04Z</time>
      </trkpt>
      <trkpt lat="46.30993" lon="4.67791">
        <ele>326.4</ele>
        <time>2022-06-25T12:38:05Z</time>
      </trkpt>
      <trkpt lat="46.30988" lon="4.67785">
        <ele>326.4</ele>
        <time>2022-06-25T12:38:06Z</time>
      </trkpt>
      <trkpt lat="46.30983" lon="4.67779">
        <ele>326.6</ele>
        <time>2022-06-25T12:38:07Z</time>
      </trkpt>
      <trkpt lat="46.30978" lon="4.67774">
        <ele>326.6</ele>
        <time>2022-06-25T12:38:08Z</time>
      </trkpt>
      <trkpt lat="46.30974" lon="4.67769">
        <ele>326.6</ele>
        <time>2022-06-25T12:38:09Z</time>
      </trkpt>
      <trkpt lat="46.30969" lon="4.67764">
        <ele>326.6</ele>
        <time>2022-06-25T12:38:10Z</time>
      </trkpt>
      <trkpt lat="46.30964" lon="4.67759">
        <ele>327</ele>
        <time>2022-06-25T12:38:11Z</time>
      </trkpt>
      <trkpt lat="46.3096" lon="4.67754">
        <ele>327</ele>
        <time>2022-06-25T12:38:12Z</time>
      </trkpt>
      <trkpt lat="46.30955" lon="4.67748">
        <ele>327</ele>
        <time>2022-06-25T12:38:13Z</time>
      </trkpt>
      <trkpt lat="46.30951" lon="4.67743">
        <ele>327.2</ele>
        <time>2022-06-25T12:38:14Z</time>
      </trkpt>
      <trkpt lat="46.30946" lon="4.67738">
        <ele>327.2</ele>
        <time>2022-06-25T12:38:15Z</time>
      </trkpt>
      <trkpt lat="46.30942" lon="4.67733">
        <ele>327.2</ele>
        <time>2022-06-25T12:38:16Z</time>
      </trkpt>
      <trkpt lat="46.30938" lon="4.67729">
        <ele>327.2</ele>
        <time>2022-06-25T12:38:17Z</time>
      </trkpt>
      <trkpt lat="46.30934" lon="4.67724">
        <ele>327.2</ele>
        <time>2022-06-25T12:38:18Z</time>
      </trkpt>
      <trkpt lat="46.3093" lon="4.6772">
        <ele>327.2</ele>
        <time>2022-06-25T12:38:19Z</time>
      </trkpt>
      <trkpt lat="46.30926" lon="4.67715">
        <ele>327.4</ele>
        <time>2022-06-25T12:38:20Z</time>
      </trkpt>
      <trkpt lat="46.30923" lon="4.6771">
        <ele>327.4</ele>
        <time>2022-06-25T12:38:21Z</time>
      </trkpt>
      <trkpt lat="46.30919" lon="4.67706">
        <ele>327.4</ele>
        <time>2022-06-25T12:38:22Z</time>
      </trkpt>
      <trkpt lat="46.30915" lon="4.67701">
        <ele>327.4</ele>
        <time>2022-06-25T12:38:23Z</time>
      </trkpt>
      <trkpt lat="46.30911" lon="4.67697">
        <ele>327.4</ele>
        <time>2022-06-25T12:38:24Z</time>
      </trkpt>
      <trkpt lat="46.30908" lon="4.67694">
        <ele>327.4</ele>
        <time>2022-06-25T12:38:25Z</time>
      </trkpt>
      <trkpt lat="46.30905" lon="4.6769">
        <ele>327.6</ele>
        <time>2022-06-25T12:38:26Z</time>
      </trkpt>
      <trkpt lat="46.30901" lon="4.67689">
        <ele>327.6</ele>
        <time>2022-06-25T12:38:27Z</time>
      </trkpt>
      <trkpt lat="46.30898" lon="4.67689">
        <ele>327.6</ele>
        <time>2022-06-25T12:38:28Z</time>
      </trkpt>
      <trkpt lat="46.30895" lon="4.67692">
        <ele>327.6</ele>
        <time>2022-06-25T12:38:29Z</time>
      </trkpt>
      <trkpt lat="46.30893" lon="4.67696">
        <ele>327.8</ele>
        <time>2022-06-25T12:38:30Z</time>
      </trkpt>
      <trkpt lat="46.30891" lon="4.67701">
        <ele>327.8</ele>
        <time>2022-06-25T12:38:31Z</time>
      </trkpt>
      <trkpt lat="46.3089" lon="4.67705">
        <ele>327.8</ele>
        <time>2022-06-25T12:38:32Z</time>
      </trkpt>
      <trkpt lat="46.30889" lon="4.67709">
        <ele>328.2</ele>
        <time>2022-06-25T12:38:33Z</time>
      </trkpt>
      <trkpt lat="46.30888" lon="4.67714">
        <ele>328.2</ele>
        <time>2022-06-25T12:38:34Z</time>
      </trkpt>
      <trkpt lat="46.30886" lon="4.67718">
        <ele>328.6</ele>
        <time>2022-06-25T12:38:35Z</time>
      </trkpt>
      <trkpt lat="46.30885" lon="4.67723">
        <ele>328.6</ele>
        <time>2022-06-25T12:38:36Z</time>
      </trkpt>
      <trkpt lat="46.30884" lon="4.67728">
        <ele>329</ele>
        <time>2022-06-25T12:38:37Z</time>
      </trkpt>
      <trkpt lat="46.30883" lon="4.67733">
        <ele>329</ele>
        <time>2022-06-25T12:38:38Z</time>
      </trkpt>
      <trkpt lat="46.30882" lon="4.67738">
        <ele>329.2</ele>
        <time>2022-06-25T12:38:39Z</time>
      </trkpt>
      <trkpt lat="46.30881" lon="4.67743">
        <ele>329.4</ele>
        <time>2022-06-25T12:38:40Z</time>
      </trkpt>
      <trkpt lat="46.3088" lon="4.67748">
        <ele>329.4</ele>
        <time>2022-06-25T12:38:41Z</time>
      </trkpt>
      <trkpt lat="46.30879" lon="4.67752">
        <ele>329.8</ele>
        <time>2022-06-25T12:38:42Z</time>
      </trkpt>
      <trkpt lat="46.30878" lon="4.67757">
        <ele>330</ele>
        <time>2022-06-25T12:38:43Z</time>
      </trkpt>
      <trkpt lat="46.30877" lon="4.67761">
        <ele>330</ele>
        <time>2022-06-25T12:38:44Z</time>
      </trkpt>
      <trkpt lat="46.30876" lon="4.67765">
        <ele>330.4</ele>
        <time>2022-06-25T12:38:45Z</time>
      </trkpt>
      <trkpt lat="46.30875" lon="4.6777">
        <ele>330.4</ele>
        <time>2022-06-25T12:38:46Z</time>
      </trkpt>
      <trkpt lat="46.30874" lon="4.67774">
        <ele>330.6</ele>
        <time>2022-06-25T12:38:47Z</time>
      </trkpt>
      <trkpt lat="46.30873" lon="4.67778">
        <ele>331</ele>
        <time>2022-06-25T12:38:48Z</time>
      </trkpt>
      <trkpt lat="46.30872" lon="4.67782">
        <ele>331</ele>
        <time>2022-06-25T12:38:49Z</time>
      </trkpt>
      <trkpt lat="46.30871" lon="4.67786">
        <ele>331.4</ele>
        <time>2022-06-25T12:38:50Z</time>
      </trkpt>
      <trkpt lat="46.3087" lon="4.6779">
        <ele>331.4</ele>
        <time>2022-06-25T12:38:51Z</time>
      </trkpt>
      <trkpt lat="46.30869" lon="4.67795">
        <ele>331.6</ele>
        <time>2022-06-25T12:38:52Z</time>
      </trkpt>
      <trkpt lat="46.30868" lon="4.67799">
        <ele>331.6</ele>
        <time>2022-06-25T12:38:53Z</time>
      </trkpt>
      <trkpt lat="46.30866" lon="4.67803">
        <ele>332.4</ele>
        <time>2022-06-25T12:38:54Z</time>
      </trkpt>
      <trkpt lat="46.30865" lon="4.67808">
        <ele>332.4</ele>
        <time>2022-06-25T12:38:55Z</time>
      </trkpt>
      <trkpt lat="46.30864" lon="4.67812">
        <ele>332.6</ele>
        <time>2022-06-25T12:38:56Z</time>
      </trkpt>
      <trkpt lat="46.30863" lon="4.67816">
        <ele>332.8</ele>
        <time>2022-06-25T12:38:57Z</time>
      </trkpt>
      <trkpt lat="46.30863" lon="4.67821">
        <ele>332.8</ele>
        <time>2022-06-25T12:38:58Z</time>
      </trkpt>
      <trkpt lat="46.30862" lon="4.67825">
        <ele>333.2</ele>
        <time>2022-06-25T12:38:59Z</time>
      </trkpt>
      <trkpt lat="46.30861" lon="4.67829">
        <ele>333.4</ele>
        <time>2022-06-25T12:39:00Z</time>
      </trkpt>
      <trkpt lat="46.3086" lon="4.67833">
        <ele>333.4</ele>
        <time>2022-06-25T12:39:01Z</time>
      </trkpt>
      <trkpt lat="46.30858" lon="4.67837">
        <ele>333.8</ele>
        <time>2022-06-25T12:39:02Z</time>
      </trkpt>
      <trkpt lat="46.30857" lon="4.67841">
        <ele>333.8</ele>
        <time>2022-06-25T12:39:03Z</time>
      </trkpt>
      <trkpt lat="46.30856" lon="4.67846">
        <ele>334.2</ele>
        <time>2022-06-25T12:39:04Z</time>
      </trkpt>
      <trkpt lat="46.30855" lon="4.6785">
        <ele>334.2</ele>
        <time>2022-06-25T12:39:05Z</time>
      </trkpt>
      <trkpt lat="46.30854" lon="4.67854">
        <ele>334.6</ele>
        <time>2022-06-25T12:39:06Z</time>
      </trkpt>
      <trkpt lat="46.30853" lon="4.67859">
        <ele>334.8</ele>
        <time>2022-06-25T12:39:07Z</time>
      </trkpt>
      <trkpt lat="46.30852" lon="4.67863">
        <ele>335</ele>
        <time>2022-06-25T12:39:08Z</time>
      </trkpt>
      <trkpt lat="46.30851" lon="4.67867">
        <ele>335</ele>
        <time>2022-06-25T12:39:09Z</time>
      </trkpt>
      <trkpt lat="46.3085" lon="4.67872">
        <ele>335.4</ele>
        <time>2022-06-25T12:39:10Z</time>
      </trkpt>
      <trkpt lat="46.30849" lon="4.67876">
        <ele>335.6</ele>
        <time>2022-06-25T12:39:11Z</time>
      </trkpt>
      <trkpt lat="46.30848" lon="4.6788">
        <ele>336</ele>
        <time>2022-06-25T12:39:12Z</time>
      </trkpt>
      <trkpt lat="46.30847" lon="4.67884">
        <ele>336.2</ele>
        <time>2022-06-25T12:39:13Z</time>
      </trkpt>
      <trkpt lat="46.30846" lon="4.67888">
        <ele>336.4</ele>
        <time>2022-06-25T12:39:14Z</time>
      </trkpt>
      <trkpt lat="46.30845" lon="4.67892">
        <ele>336.8</ele>
        <time>2022-06-25T12:39:15Z</time>
      </trkpt>
      <trkpt lat="46.30843" lon="4.67897">
        <ele>337.2</ele>
        <time>2022-06-25T12:39:17Z</time>
      </trkpt>
      <trkpt lat="46.30842" lon="4.67901">
        <ele>337.4</ele>
        <time>2022-06-25T12:39:18Z</time>
      </trkpt>
      <trkpt lat="46.30841" lon="4.67905">
        <ele>337.6</ele>
        <time>2022-06-25T12:39:19Z</time>
      </trkpt>
      <trkpt lat="46.3084" lon="4.67909">
        <ele>337.8</ele>
        <time>2022-06-25T12:39:20Z</time>
      </trkpt>
      <trkpt lat="46.30839" lon="4.67913">
        <ele>337.8</ele>
        <time>2022-06-25T12:39:21Z</time>
      </trkpt>
      <trkpt lat="46.30837" lon="4.67917">
        <ele>338.2</ele>
        <time>2022-06-25T12:39:22Z</time>
      </trkpt>
      <trkpt lat="46.30836" lon="4.67921">
        <ele>338.4</ele>
        <time>2022-06-25T12:39:23Z</time>
      </trkpt>
      <trkpt lat="46.30835" lon="4.67925">
        <ele>338.6</ele>
        <time>2022-06-25T12:39:24Z</time>
      </trkpt>
      <trkpt lat="46.30834" lon="4.67929">
        <ele>339</ele>
        <time>2022-06-25T12:39:25Z</time>
      </trkpt>
      <trkpt lat="46.30833" lon="4.67933">
        <ele>339.2</ele>
        <time>2022-06-25T12:39:26Z</time>
      </trkpt>
      <trkpt lat="46.30831" lon="4.67938">
        <ele>339.2</ele>
        <time>2022-06-25T12:39:27Z</time>
      </trkpt>
      <trkpt lat="46.3083" lon="4.67941">
        <ele>339.6</ele>
        <time>2022-06-25T12:39:28Z</time>
      </trkpt>
      <trkpt lat="46.30829" lon="4.67945">
        <ele>339.6</ele>
        <time>2022-06-25T12:39:29Z</time>
      </trkpt>
      <trkpt lat="46.30827" lon="4.67948">
        <ele>339.8</ele>
        <time>2022-06-25T12:39:30Z</time>
      </trkpt>
      <trkpt lat="46.30825" lon="4.67952">
        <ele>339.8</ele>
        <time>2022-06-25T12:39:31Z</time>
      </trkpt>
      <trkpt lat="46.30824" lon="4.67955">
        <ele>340.2</ele>
        <time>2022-06-25T12:39:32Z</time>
      </trkpt>
      <trkpt lat="46.30822" lon="4.67959">
        <ele>340.4</ele>
        <time>2022-06-25T12:39:33Z</time>
      </trkpt>
      <trkpt lat="46.3082" lon="4.67961">
        <ele>340.6</ele>
        <time>2022-06-25T12:39:34Z</time>
      </trkpt>
      <trkpt lat="46.30818" lon="4.67964">
        <ele>341</ele>
        <time>2022-06-25T12:39:35Z</time>
      </trkpt>
      <trkpt lat="46.30816" lon="4.67967">
        <ele>341.2</ele>
        <time>2022-06-25T12:39:36Z</time>
      </trkpt>
      <trkpt lat="46.30813" lon="4.67969">
        <ele>341.2</ele>
        <time>2022-06-25T12:39:37Z</time>
      </trkpt>
      <trkpt lat="46.3081" lon="4.67972">
        <ele>341.4</ele>
        <time>2022-06-25T12:39:38Z</time>
      </trkpt>
      <trkpt lat="46.30808" lon="4.67975">
        <ele>341.8</ele>
        <time>2022-06-25T12:39:39Z</time>
      </trkpt>
      <trkpt lat="46.30805" lon="4.67978">
        <ele>342</ele>
        <time>2022-06-25T12:39:40Z</time>
      </trkpt>
      <trkpt lat="46.30802" lon="4.6798">
        <ele>342</ele>
        <time>2022-06-25T12:39:41Z</time>
      </trkpt>
      <trkpt lat="46.30799" lon="4.67983">
        <ele>342.6</ele>
        <time>2022-06-25T12:39:42Z</time>
      </trkpt>
      <trkpt lat="46.30796" lon="4.67985">
        <ele>342.6</ele>
        <time>2022-06-25T12:39:43Z</time>
      </trkpt>
      <trkpt lat="46.30793" lon="4.67988">
        <ele>343</ele>
        <time>2022-06-25T12:39:44Z</time>
      </trkpt>
      <trkpt lat="46.3079" lon="4.6799">
        <ele>343.2</ele>
        <time>2022-06-25T12:39:45Z</time>
      </trkpt>
      <trkpt lat="46.30787" lon="4.67993">
        <ele>343.4</ele>
        <time>2022-06-25T12:39:46Z</time>
      </trkpt>
      <trkpt lat="46.30784" lon="4.67995">
        <ele>343.8</ele>
        <time>2022-06-25T12:39:47Z</time>
      </trkpt>
      <trkpt lat="46.30781" lon="4.67997">
        <ele>344</ele>
        <time>2022-06-25T12:39:48Z</time>
      </trkpt>
      <trkpt lat="46.30778" lon="4.68">
        <ele>344</ele>
        <time>2022-06-25T12:39:49Z</time>
      </trkpt>
      <trkpt lat="46.30775" lon="4.68002">
        <ele>344.2</ele>
        <time>2022-06-25T12:39:50Z</time>
      </trkpt>
      <trkpt lat="46.30772" lon="4.68005">
        <ele>344.6</ele>
        <time>2022-06-25T12:39:51Z</time>
      </trkpt>
      <trkpt lat="46.30769" lon="4.68007">
        <ele>344.6</ele>
        <time>2022-06-25T12:39:52Z</time>
      </trkpt>
      <trkpt lat="46.30766" lon="4.6801">
        <ele>345</ele>
        <time>2022-06-25T12:39:53Z</time>
      </trkpt>
      <trkpt lat="46.30763" lon="4.68012">
        <ele>345.2</ele>
        <time>2022-06-25T12:39:54Z</time>
      </trkpt>
      <trkpt lat="46.3076" lon="4.68015">
        <ele>345.4</ele>
        <time>2022-06-25T12:39:55Z</time>
      </trkpt>
      <trkpt lat="46.30757" lon="4.68017">
        <ele>345.6</ele>
        <time>2022-06-25T12:39:56Z</time>
      </trkpt>
      <trkpt lat="46.30754" lon="4.6802">
        <ele>346</ele>
        <time>2022-06-25T12:39:57Z</time>
      </trkpt>
      <trkpt lat="46.30751" lon="4.68022">
        <ele>346.2</ele>
        <time>2022-06-25T12:39:58Z</time>
      </trkpt>
      <trkpt lat="46.30748" lon="4.68025">
        <ele>346.4</ele>
        <time>2022-06-25T12:39:59Z</time>
      </trkpt>
      <trkpt lat="46.30745" lon="4.68027">
        <ele>346.6</ele>
        <time>2022-06-25T12:40:00Z</time>
      </trkpt>
      <trkpt lat="46.30742" lon="4.68029">
        <ele>347</ele>
        <time>2022-06-25T12:40:01Z</time>
      </trkpt>
      <trkpt lat="46.30739" lon="4.68031">
        <ele>347.2</ele>
        <time>2022-06-25T12:40:02Z</time>
      </trkpt>
      <trkpt lat="46.30736" lon="4.68034">
        <ele>347.4</ele>
        <time>2022-06-25T12:40:03Z</time>
      </trkpt>
      <trkpt lat="46.30733" lon="4.68036">
        <ele>347.6</ele>
        <time>2022-06-25T12:40:04Z</time>
      </trkpt>
      <trkpt lat="46.3073" lon="4.68038">
        <ele>347.6</ele>
        <time>2022-06-25T12:40:05Z</time>
      </trkpt>
      <trkpt lat="46.30727" lon="4.6804">
        <ele>348</ele>
        <time>2022-06-25T12:40:06Z</time>
      </trkpt>
      <trkpt lat="46.30724" lon="4.68043">
        <ele>348.2</ele>
        <time>2022-06-25T12:40:07Z</time>
      </trkpt>
      <trkpt lat="46.30722" lon="4.68045">
        <ele>348.4</ele>
        <time>2022-06-25T12:40:08Z</time>
      </trkpt>
      <trkpt lat="46.30719" lon="4.68047">
        <ele>348.6</ele>
        <time>2022-06-25T12:40:09Z</time>
      </trkpt>
      <trkpt lat="46.30716" lon="4.68049">
        <ele>348.6</ele>
        <time>2022-06-25T12:40:10Z</time>
      </trkpt>
      <trkpt lat="46.30713" lon="4.68052">
        <ele>349.2</ele>
        <time>2022-06-25T12:40:11Z</time>
      </trkpt>
      <trkpt lat="46.30711" lon="4.68054">
        <ele>349.4</ele>
        <time>2022-06-25T12:40:12Z</time>
      </trkpt>
      <trkpt lat="46.30708" lon="4.68056">
        <ele>349.6</ele>
        <time>2022-06-25T12:40:13Z</time>
      </trkpt>
      <trkpt lat="46.30705" lon="4.68058">
        <ele>349.6</ele>
        <time>2022-06-25T12:40:14Z</time>
      </trkpt>
      <trkpt lat="46.30703" lon="4.6806">
        <ele>350</ele>
        <time>2022-06-25T12:40:15Z</time>
      </trkpt>
      <trkpt lat="46.307" lon="4.68063">
        <ele>350.2</ele>
        <time>2022-06-25T12:40:16Z</time>
      </trkpt>
      <trkpt lat="46.30697" lon="4.68064">
        <ele>350.4</ele>
        <time>2022-06-25T12:40:17Z</time>
      </trkpt>
      <trkpt lat="46.30694" lon="4.68066">
        <ele>350.6</ele>
        <time>2022-06-25T12:40:18Z</time>
      </trkpt>
      <trkpt lat="46.30691" lon="4.68068">
        <ele>350.8</ele>
        <time>2022-06-25T12:40:19Z</time>
      </trkpt>
      <trkpt lat="46.30688" lon="4.6807">
        <ele>350.8</ele>
        <time>2022-06-25T12:40:20Z</time>
      </trkpt>
      <trkpt lat="46.30685" lon="4.68073">
        <ele>351.2</ele>
        <time>2022-06-25T12:40:21Z</time>
      </trkpt>
      <trkpt lat="46.30683" lon="4.68074">
        <ele>351.4</ele>
        <time>2022-06-25T12:40:22Z</time>
      </trkpt>
      <trkpt lat="46.3068" lon="4.68076">
        <ele>351.6</ele>
        <time>2022-06-25T12:40:23Z</time>
      </trkpt>
      <trkpt lat="46.30677" lon="4.68078">
        <ele>351.8</ele>
        <time>2022-06-25T12:40:24Z</time>
      </trkpt>
      <trkpt lat="46.30675" lon="4.6808">
        <ele>352.2</ele>
        <time>2022-06-25T12:40:25Z</time>
      </trkpt>
      <trkpt lat="46.30672" lon="4.68082">
        <ele>352.4</ele>
        <time>2022-06-25T12:40:26Z</time>
      </trkpt>
      <trkpt lat="46.3067" lon="4.68085">
        <ele>352.4</ele>
        <time>2022-06-25T12:40:27Z</time>
      </trkpt>
      <trkpt lat="46.30668" lon="4.68087">
        <ele>352.8</ele>
        <time>2022-06-25T12:40:28Z</time>
      </trkpt>
      <trkpt lat="46.30666" lon="4.68088">
        <ele>353</ele>
        <time>2022-06-25T12:40:29Z</time>
      </trkpt>
      <trkpt lat="46.30664" lon="4.6809">
        <ele>353</ele>
        <time>2022-06-25T12:40:30Z</time>
      </trkpt>
      <trkpt lat="46.30661" lon="4.68092">
        <ele>353.4</ele>
        <time>2022-06-25T12:40:31Z</time>
      </trkpt>
      <trkpt lat="46.30658" lon="4.68094">
        <ele>353.4</ele>
        <time>2022-06-25T12:40:32Z</time>
      </trkpt>
      <trkpt lat="46.30656" lon="4.68097">
        <ele>353.8</ele>
        <time>2022-06-25T12:40:33Z</time>
      </trkpt>
      <trkpt lat="46.30653" lon="4.68099">
        <ele>354</ele>
        <time>2022-06-25T12:40:34Z</time>
      </trkpt>
      <trkpt lat="46.3065" lon="4.68102">
        <ele>354.4</ele>
        <time>2022-06-25T12:40:35Z</time>
      </trkpt>
      <trkpt lat="46.30648" lon="4.68104">
        <ele>354.6</ele>
        <time>2022-06-25T12:40:36Z</time>
      </trkpt>
      <trkpt lat="46.30645" lon="4.68106">
        <ele>354.8</ele>
        <time>2022-06-25T12:40:37Z</time>
      </trkpt>
      <trkpt lat="46.30642" lon="4.68107">
        <ele>355</ele>
        <time>2022-06-25T12:40:38Z</time>
      </trkpt>
      <trkpt lat="46.3064" lon="4.68109">
        <ele>355.2</ele>
        <time>2022-06-25T12:40:39Z</time>
      </trkpt>
      <trkpt lat="46.30637" lon="4.68111">
        <ele>355.2</ele>
        <time>2022-06-25T12:40:40Z</time>
      </trkpt>
      <trkpt lat="46.30635" lon="4.68113">
        <ele>355.6</ele>
        <time>2022-06-25T12:40:41Z</time>
      </trkpt>
      <trkpt lat="46.30632" lon="4.68114">
        <ele>355.6</ele>
        <time>2022-06-25T12:40:42Z</time>
      </trkpt>
      <trkpt lat="46.30629" lon="4.68116">
        <ele>356</ele>
        <time>2022-06-25T12:40:43Z</time>
      </trkpt>
      <trkpt lat="46.30626" lon="4.68117">
        <ele>356.4</ele>
        <time>2022-06-25T12:40:44Z</time>
      </trkpt>
      <trkpt lat="46.30623" lon="4.68119">
        <ele>356.6</ele>
        <time>2022-06-25T12:40:45Z</time>
      </trkpt>
      <trkpt lat="46.30621" lon="4.6812">
        <ele>356.6</ele>
        <time>2022-06-25T12:40:46Z</time>
      </trkpt>
      <trkpt lat="46.30618" lon="4.6812">
        <ele>357</ele>
        <time>2022-06-25T12:40:47Z</time>
      </trkpt>
      <trkpt lat="46.30615" lon="4.68121">
        <ele>357</ele>
        <time>2022-06-25T12:40:48Z</time>
      </trkpt>
      <trkpt lat="46.30612" lon="4.68122">
        <ele>357.4</ele>
        <time>2022-06-25T12:40:49Z</time>
      </trkpt>
      <trkpt lat="46.30609" lon="4.68123">
        <ele>357.6</ele>
        <time>2022-06-25T12:40:50Z</time>
      </trkpt>
      <trkpt lat="46.30606" lon="4.68124">
        <ele>357.6</ele>
        <time>2022-06-25T12:40:51Z</time>
      </trkpt>
      <trkpt lat="46.30603" lon="4.68124">
        <ele>358</ele>
        <time>2022-06-25T12:40:52Z</time>
      </trkpt>
      <trkpt lat="46.306" lon="4.68125">
        <ele>358.2</ele>
        <time>2022-06-25T12:40:53Z</time>
      </trkpt>
      <trkpt lat="46.30597" lon="4.68125">
        <ele>358.2</ele>
        <time>2022-06-25T12:40:54Z</time>
      </trkpt>
      <trkpt lat="46.30594" lon="4.68126">
        <ele>358.6</ele>
        <time>2022-06-25T12:40:55Z</time>
      </trkpt>
      <trkpt lat="46.30591" lon="4.68126">
        <ele>358.6</ele>
        <time>2022-06-25T12:40:56Z</time>
      </trkpt>
      <trkpt lat="46.30588" lon="4.68127">
        <ele>358.8</ele>
        <time>2022-06-25T12:40:57Z</time>
      </trkpt>
      <trkpt lat="46.30585" lon="4.68128">
        <ele>359.2</ele>
        <time>2022-06-25T12:40:58Z</time>
      </trkpt>
      <trkpt lat="46.30582" lon="4.68129">
        <ele>359.4</ele>
        <time>2022-06-25T12:40:59Z</time>
      </trkpt>
      <trkpt lat="46.30579" lon="4.6813">
        <ele>359.4</ele>
        <time>2022-06-25T12:41:00Z</time>
      </trkpt>
      <trkpt lat="46.30575" lon="4.68131">
        <ele>359.8</ele>
        <time>2022-06-25T12:41:01Z</time>
      </trkpt>
      <trkpt lat="46.30572" lon="4.68131">
        <ele>360</ele>
        <time>2022-06-25T12:41:02Z</time>
      </trkpt>
      <trkpt lat="46.30569" lon="4.68132">
        <ele>360</ele>
        <time>2022-06-25T12:41:03Z</time>
      </trkpt>
      <trkpt lat="46.30565" lon="4.68133">
        <ele>360.4</ele>
        <time>2022-06-25T12:41:04Z</time>
      </trkpt>
      <trkpt lat="46.30562" lon="4.68135">
        <ele>360.6</ele>
        <time>2022-06-25T12:41:05Z</time>
      </trkpt>
      <trkpt lat="46.30558" lon="4.68138">
        <ele>360.8</ele>
        <time>2022-06-25T12:41:06Z</time>
      </trkpt>
      <trkpt lat="46.30555" lon="4.68141">
        <ele>361.2</ele>
        <time>2022-06-25T12:41:07Z</time>
      </trkpt>
      <trkpt lat="46.30551" lon="4.68144">
        <ele>361.4</ele>
        <time>2022-06-25T12:41:08Z</time>
      </trkpt>
      <trkpt lat="46.30548" lon="4.68148">
        <ele>361.6</ele>
        <time>2022-06-25T12:41:09Z</time>
      </trkpt>
      <trkpt lat="46.30546" lon="4.68152">
        <ele>362</ele>
        <time>2022-06-25T12:41:10Z</time>
      </trkpt>
      <trkpt lat="46.30543" lon="4.68155">
        <ele>362.2</ele>
        <time>2022-06-25T12:41:11Z</time>
      </trkpt>
      <trkpt lat="46.3054" lon="4.68159">
        <ele>362.2</ele>
        <time>2022-06-25T12:41:12Z</time>
      </trkpt>
      <trkpt lat="46.30537" lon="4.68162">
        <ele>362.6</ele>
        <time>2022-06-25T12:41:13Z</time>
      </trkpt>
      <trkpt lat="46.30534" lon="4.68166">
        <ele>362.8</ele>
        <time>2022-06-25T12:41:14Z</time>
      </trkpt>
      <trkpt lat="46.30532" lon="4.6817">
        <ele>363</ele>
        <time>2022-06-25T12:41:15Z</time>
      </trkpt>
      <trkpt lat="46.3053" lon="4.68174">
        <ele>363</ele>
        <time>2022-06-25T12:41:16Z</time>
      </trkpt>
      <trkpt lat="46.30527" lon="4.68177">
        <ele>363.4</ele>
        <time>2022-06-25T12:41:17Z</time>
      </trkpt>
      <trkpt lat="46.30525" lon="4.68181">
        <ele>363.4</ele>
        <time>2022-06-25T12:41:18Z</time>
      </trkpt>
      <trkpt lat="46.30522" lon="4.68185">
        <ele>363.8</ele>
        <time>2022-06-25T12:41:19Z</time>
      </trkpt>
      <trkpt lat="46.3052" lon="4.68189">
        <ele>364</ele>
        <time>2022-06-25T12:41:20Z</time>
      </trkpt>
      <trkpt lat="46.30517" lon="4.68192">
        <ele>364.2</ele>
        <time>2022-06-25T12:41:21Z</time>
      </trkpt>
      <trkpt lat="46.30515" lon="4.68195">
        <ele>364.6</ele>
        <time>2022-06-25T12:41:22Z</time>
      </trkpt>
      <trkpt lat="46.30513" lon="4.68199">
        <ele>364.8</ele>
        <time>2022-06-25T12:41:23Z</time>
      </trkpt>
      <trkpt lat="46.3051" lon="4.68202">
        <ele>365</ele>
        <time>2022-06-25T12:41:24Z</time>
      </trkpt>
      <trkpt lat="46.30508" lon="4.68206">
        <ele>365.2</ele>
        <time>2022-06-25T12:41:25Z</time>
      </trkpt>
      <trkpt lat="46.30505" lon="4.6821">
        <ele>365.4</ele>
        <time>2022-06-25T12:41:26Z</time>
      </trkpt>
      <trkpt lat="46.30503" lon="4.68213">
        <ele>365.8</ele>
        <time>2022-06-25T12:41:27Z</time>
      </trkpt>
      <trkpt lat="46.305" lon="4.68217">
        <ele>366</ele>
        <time>2022-06-25T12:41:28Z</time>
      </trkpt>
      <trkpt lat="46.30498" lon="4.6822">
        <ele>366</ele>
        <time>2022-06-25T12:41:29Z</time>
      </trkpt>
      <trkpt lat="46.30496" lon="4.68223">
        <ele>366.4</ele>
        <time>2022-06-25T12:41:30Z</time>
      </trkpt>
      <trkpt lat="46.30493" lon="4.68226">
        <ele>366.6</ele>
        <time>2022-06-25T12:41:31Z</time>
      </trkpt>
      <trkpt lat="46.30491" lon="4.68229">
        <ele>366.8</ele>
        <time>2022-06-25T12:41:32Z</time>
      </trkpt>
      <trkpt lat="46.30488" lon="4.68232">
        <ele>367</ele>
        <time>2022-06-25T12:41:33Z</time>
      </trkpt>
      <trkpt lat="46.30486" lon="4.68235">
        <ele>367</ele>
        <time>2022-06-25T12:41:34Z</time>
      </trkpt>
      <trkpt lat="46.30483" lon="4.68238">
        <ele>367.4</ele>
        <time>2022-06-25T12:41:35Z</time>
      </trkpt>
      <trkpt lat="46.3048" lon="4.6824">
        <ele>367.4</ele>
        <time>2022-06-25T12:41:36Z</time>
      </trkpt>
      <trkpt lat="46.30477" lon="4.68242">
        <ele>367.8</ele>
        <time>2022-06-25T12:41:37Z</time>
      </trkpt>
      <trkpt lat="46.30474" lon="4.68244">
        <ele>368</ele>
        <time>2022-06-25T12:41:38Z</time>
      </trkpt>
      <trkpt lat="46.30471" lon="4.68246">
        <ele>368</ele>
        <time>2022-06-25T12:41:39Z</time>
      </trkpt>
      <trkpt lat="46.30468" lon="4.68247">
        <ele>368.2</ele>
        <time>2022-06-25T12:41:40Z</time>
      </trkpt>
      <trkpt lat="46.30465" lon="4.68249">
        <ele>368.4</ele>
        <time>2022-06-25T12:41:41Z</time>
      </trkpt>
      <trkpt lat="46.30462" lon="4.68251">
        <ele>368.4</ele>
        <time>2022-06-25T12:41:42Z</time>
      </trkpt>
      <trkpt lat="46.30459" lon="4.68252">
        <ele>368.8</ele>
        <time>2022-06-25T12:41:43Z</time>
      </trkpt>
      <trkpt lat="46.30455" lon="4.68254">
        <ele>369</ele>
        <time>2022-06-25T12:41:44Z</time>
      </trkpt>
      <trkpt lat="46.30452" lon="4.68256">
        <ele>369.4</ele>
        <time>2022-06-25T12:41:45Z</time>
      </trkpt>
      <trkpt lat="46.30449" lon="4.68257">
        <ele>369.4</ele>
        <time>2022-06-25T12:41:46Z</time>
      </trkpt>
      <trkpt lat="46.30446" lon="4.68258">
        <ele>369.6</ele>
        <time>2022-06-25T12:41:47Z</time>
      </trkpt>
      <trkpt lat="46.30443" lon="4.68259">
        <ele>369.6</ele>
        <time>2022-06-25T12:41:48Z</time>
      </trkpt>
      <trkpt lat="46.30439" lon="4.68259">
        <ele>370.2</ele>
        <time>2022-06-25T12:41:49Z</time>
      </trkpt>
      <trkpt lat="46.30436" lon="4.6826">
        <ele>370.4</ele>
        <time>2022-06-25T12:41:50Z</time>
      </trkpt>
      <trkpt lat="46.30433" lon="4.6826">
        <ele>370.4</ele>
        <time>2022-06-25T12:41:51Z</time>
      </trkpt>
      <trkpt lat="46.30429" lon="4.68261">
        <ele>370.6</ele>
        <time>2022-06-25T12:41:52Z</time>
      </trkpt>
      <trkpt lat="46.30426" lon="4.68262">
        <ele>371</ele>
        <time>2022-06-25T12:41:53Z</time>
      </trkpt>
      <trkpt lat="46.30422" lon="4.68262">
        <ele>371</ele>
        <time>2022-06-25T12:41:54Z</time>
      </trkpt>
      <trkpt lat="46.30419" lon="4.68263">
        <ele>371.2</ele>
        <time>2022-06-25T12:41:55Z</time>
      </trkpt>
      <trkpt lat="46.30415" lon="4.68263">
        <ele>371.4</ele>
        <time>2022-06-25T12:41:56Z</time>
      </trkpt>
      <trkpt lat="46.30412" lon="4.68263">
        <ele>371.6</ele>
        <time>2022-06-25T12:41:57Z</time>
      </trkpt>
      <trkpt lat="46.30409" lon="4.68264">
        <ele>371.8</ele>
        <time>2022-06-25T12:41:58Z</time>
      </trkpt>
      <trkpt lat="46.30405" lon="4.68264">
        <ele>371.8</ele>
        <time>2022-06-25T12:41:59Z</time>
      </trkpt>
      <trkpt lat="46.30402" lon="4.68264">
        <ele>372.4</ele>
        <time>2022-06-25T12:42:00Z</time>
      </trkpt>
      <trkpt lat="46.30399" lon="4.68264">
        <ele>372.6</ele>
        <time>2022-06-25T12:42:01Z</time>
      </trkpt>
      <trkpt lat="46.30395" lon="4.68264">
        <ele>372.8</ele>
        <time>2022-06-25T12:42:02Z</time>
      </trkpt>
      <trkpt lat="46.30392" lon="4.68264">
        <ele>373</ele>
        <time>2022-06-25T12:42:03Z</time>
      </trkpt>
      <trkpt lat="46.30389" lon="4.68264">
        <ele>373.4</ele>
        <time>2022-06-25T12:42:04Z</time>
      </trkpt>
      <trkpt lat="46.30386" lon="4.68265">
        <ele>373.6</ele>
        <time>2022-06-25T12:42:05Z</time>
      </trkpt>
      <trkpt lat="46.30383" lon="4.68265">
        <ele>373.8</ele>
        <time>2022-06-25T12:42:06Z</time>
      </trkpt>
      <trkpt lat="46.30379" lon="4.68265">
        <ele>374.2</ele>
        <time>2022-06-25T12:42:07Z</time>
      </trkpt>
      <trkpt lat="46.30376" lon="4.68266">
        <ele>374.4</ele>
        <time>2022-06-25T12:42:08Z</time>
      </trkpt>
      <trkpt lat="46.30373" lon="4.68266">
        <ele>374.6</ele>
        <time>2022-06-25T12:42:09Z</time>
      </trkpt>
      <trkpt lat="46.3037" lon="4.68266">
        <ele>375</ele>
        <time>2022-06-25T12:42:10Z</time>
      </trkpt>
      <trkpt lat="46.30366" lon="4.68267">
        <ele>375.2</ele>
        <time>2022-06-25T12:42:11Z</time>
      </trkpt>
      <trkpt lat="46.30363" lon="4.68267">
        <ele>375.2</ele>
        <time>2022-06-25T12:42:12Z</time>
      </trkpt>
      <trkpt lat="46.3036" lon="4.68268">
        <ele>375.6</ele>
        <time>2022-06-25T12:42:13Z</time>
      </trkpt>
      <trkpt lat="46.30357" lon="4.68269">
        <ele>376</ele>
        <time>2022-06-25T12:42:14Z</time>
      </trkpt>
      <trkpt lat="46.30354" lon="4.6827">
        <ele>376.2</ele>
        <time>2022-06-25T12:42:15Z</time>
      </trkpt>
      <trkpt lat="46.3035" lon="4.68272">
        <ele>376.4</ele>
        <time>2022-06-25T12:42:16Z</time>
      </trkpt>
      <trkpt lat="46.30347" lon="4.68272">
        <ele>376.6</ele>
        <time>2022-06-25T12:42:17Z</time>
      </trkpt>
      <trkpt lat="46.30344" lon="4.68273">
        <ele>376.8</ele>
        <time>2022-06-25T12:42:18Z</time>
      </trkpt>
      <trkpt lat="46.30341" lon="4.68273">
        <ele>376.8</ele>
        <time>2022-06-25T12:42:19Z</time>
      </trkpt>
      <trkpt lat="46.30338" lon="4.68273">
        <ele>377.2</ele>
        <time>2022-06-25T12:42:20Z</time>
      </trkpt>
      <trkpt lat="46.30335" lon="4.68273">
        <ele>377.2</ele>
        <time>2022-06-25T12:42:21Z</time>
      </trkpt>
      <trkpt lat="46.30331" lon="4.68274">
        <ele>377.4</ele>
        <time>2022-06-25T12:42:22Z</time>
      </trkpt>
      <trkpt lat="46.30328" lon="4.68274">
        <ele>377.4</ele>
        <time>2022-06-25T12:42:23Z</time>
      </trkpt>
      <trkpt lat="46.30325" lon="4.68274">
        <ele>377.6</ele>
        <time>2022-06-25T12:42:24Z</time>
      </trkpt>
      <trkpt lat="46.30322" lon="4.68274">
        <ele>378</ele>
        <time>2022-06-25T12:42:25Z</time>
      </trkpt>
      <trkpt lat="46.30319" lon="4.68273">
        <ele>378</ele>
        <time>2022-06-25T12:42:26Z</time>
      </trkpt>
      <trkpt lat="46.30316" lon="4.68273">
        <ele>378.4</ele>
        <time>2022-06-25T12:42:27Z</time>
      </trkpt>
      <trkpt lat="46.30313" lon="4.68273">
        <ele>378.6</ele>
        <time>2022-06-25T12:42:28Z</time>
      </trkpt>
      <trkpt lat="46.30311" lon="4.68272">
        <ele>378.8</ele>
        <time>2022-06-25T12:42:29Z</time>
      </trkpt>
      <trkpt lat="46.30308" lon="4.68272">
        <ele>379.2</ele>
        <time>2022-06-25T12:42:30Z</time>
      </trkpt>
      <trkpt lat="46.30305" lon="4.68272">
        <ele>379.4</ele>
        <time>2022-06-25T12:42:31Z</time>
      </trkpt>
      <trkpt lat="46.30302" lon="4.68271">
        <ele>379.6</ele>
        <time>2022-06-25T12:42:32Z</time>
      </trkpt>
      <trkpt lat="46.30299" lon="4.68271">
        <ele>379.8</ele>
        <time>2022-06-25T12:42:33Z</time>
      </trkpt>
      <trkpt lat="46.30296" lon="4.68271">
        <ele>380.2</ele>
        <time>2022-06-25T12:42:34Z</time>
      </trkpt>
      <trkpt lat="46.30293" lon="4.68271">
        <ele>380.4</ele>
        <time>2022-06-25T12:42:35Z</time>
      </trkpt>
      <trkpt lat="46.3029" lon="4.68271">
        <ele>380.6</ele>
        <time>2022-06-25T12:42:36Z</time>
      </trkpt>
      <trkpt lat="46.30286" lon="4.68272">
        <ele>380.8</ele>
        <time>2022-06-25T12:42:37Z</time>
      </trkpt>
      <trkpt lat="46.30283" lon="4.68272">
        <ele>381.2</ele>
        <time>2022-06-25T12:42:38Z</time>
      </trkpt>
      <trkpt lat="46.3028" lon="4.68273">
        <ele>381.4</ele>
        <time>2022-06-25T12:42:39Z</time>
      </trkpt>
      <trkpt lat="46.30277" lon="4.68274">
        <ele>381.4</ele>
        <time>2022-06-25T12:42:40Z</time>
      </trkpt>
      <trkpt lat="46.30274" lon="4.68275">
        <ele>381.8</ele>
        <time>2022-06-25T12:42:41Z</time>
      </trkpt>
      <trkpt lat="46.30271" lon="4.68275">
        <ele>382</ele>
        <time>2022-06-25T12:42:42Z</time>
      </trkpt>
      <trkpt lat="46.30267" lon="4.68276">
        <ele>382.2</ele>
        <time>2022-06-25T12:42:43Z</time>
      </trkpt>
      <trkpt lat="46.30264" lon="4.68277">
        <ele>382.4</ele>
        <time>2022-06-25T12:42:44Z</time>
      </trkpt>
      <trkpt lat="46.30261" lon="4.68277">
        <ele>382.8</ele>
        <time>2022-06-25T12:42:45Z</time>
      </trkpt>
      <trkpt lat="46.30258" lon="4.68278">
        <ele>383</ele>
        <time>2022-06-25T12:42:46Z</time>
      </trkpt>
      <trkpt lat="46.30255" lon="4.68279">
        <ele>383.2</ele>
        <time>2022-06-25T12:42:47Z</time>
      </trkpt>
      <trkpt lat="46.30252" lon="4.6828">
        <ele>383.2</ele>
        <time>2022-06-25T12:42:48Z</time>
      </trkpt>
      <trkpt lat="46.30249" lon="4.68281">
        <ele>383.6</ele>
        <time>2022-06-25T12:42:49Z</time>
      </trkpt>
      <trkpt lat="46.30246" lon="4.68282">
        <ele>383.8</ele>
        <time>2022-06-25T12:42:50Z</time>
      </trkpt>
      <trkpt lat="46.30243" lon="4.68282">
        <ele>383.8</ele>
        <time>2022-06-25T12:42:51Z</time>
      </trkpt>
      <trkpt lat="46.3024" lon="4.68283">
        <ele>384.2</ele>
        <time>2022-06-25T12:42:52Z</time>
      </trkpt>
      <trkpt lat="46.30237" lon="4.68283">
        <ele>384.4</ele>
        <time>2022-06-25T12:42:53Z</time>
      </trkpt>
      <trkpt lat="46.30234" lon="4.68284">
        <ele>384.6</ele>
        <time>2022-06-25T12:42:54Z</time>
      </trkpt>
      <trkpt lat="46.30232" lon="4.68285">
        <ele>385</ele>
        <time>2022-06-25T12:42:55Z</time>
      </trkpt>
      <trkpt lat="46.30229" lon="4.68286">
        <ele>385.2</ele>
        <time>2022-06-25T12:42:56Z</time>
      </trkpt>
      <trkpt lat="46.30226" lon="4.68286">
        <ele>385.4</ele>
        <time>2022-06-25T12:42:57Z</time>
      </trkpt>
      <trkpt lat="46.30223" lon="4.68287">
        <ele>385.8</ele>
        <time>2022-06-25T12:42:58Z</time>
      </trkpt>
      <trkpt lat="46.3022" lon="4.68287">
        <ele>386</ele>
        <time>2022-06-25T12:42:59Z</time>
      </trkpt>
      <trkpt lat="46.30217" lon="4.68287">
        <ele>386.2</ele>
        <time>2022-06-25T12:43:00Z</time>
      </trkpt>
      <trkpt lat="46.30214" lon="4.68286">
        <ele>386.6</ele>
        <time>2022-06-25T12:43:01Z</time>
      </trkpt>
      <trkpt lat="46.30211" lon="4.68286">
        <ele>386.8</ele>
        <time>2022-06-25T12:43:02Z</time>
      </trkpt>
      <trkpt lat="46.30208" lon="4.68286">
        <ele>387.2</ele>
        <time>2022-06-25T12:43:03Z</time>
      </trkpt>
      <trkpt lat="46.30205" lon="4.68285">
        <ele>387.4</ele>
        <time>2022-06-25T12:43:04Z</time>
      </trkpt>
      <trkpt lat="46.30202" lon="4.68285">
        <ele>387.6</ele>
        <time>2022-06-25T12:43:05Z</time>
      </trkpt>
      <trkpt lat="46.30199" lon="4.68284">
        <ele>388</ele>
        <time>2022-06-25T12:43:06Z</time>
      </trkpt>
      <trkpt lat="46.30196" lon="4.68283">
        <ele>388.2</ele>
        <time>2022-06-25T12:43:07Z</time>
      </trkpt>
      <trkpt lat="46.30193" lon="4.68283">
        <ele>388.4</ele>
        <time>2022-06-25T12:43:08Z</time>
      </trkpt>
      <trkpt lat="46.3019" lon="4.68282">
        <ele>388.6</ele>
        <time>2022-06-25T12:43:09Z</time>
      </trkpt>
      <trkpt lat="46.30187" lon="4.68281">
        <ele>389</ele>
        <time>2022-06-25T12:43:10Z</time>
      </trkpt>
      <trkpt lat="46.30185" lon="4.6828">
        <ele>389.2</ele>
        <time>2022-06-25T12:43:11Z</time>
      </trkpt>
      <trkpt lat="46.30182" lon="4.68279">
        <ele>389.4</ele>
        <time>2022-06-25T12:43:12Z</time>
      </trkpt>
      <trkpt lat="46.30179" lon="4.68278">
        <ele>389.6</ele>
        <time>2022-06-25T12:43:13Z</time>
      </trkpt>
      <trkpt lat="46.30176" lon="4.68277">
        <ele>390</ele>
        <time>2022-06-25T12:43:14Z</time>
      </trkpt>
      <trkpt lat="46.30173" lon="4.68276">
        <ele>390.2</ele>
        <time>2022-06-25T12:43:15Z</time>
      </trkpt>
      <trkpt lat="46.3017" lon="4.68275">
        <ele>390.4</ele>
        <time>2022-06-25T12:43:16Z</time>
      </trkpt>
      <trkpt lat="46.30167" lon="4.68273">
        <ele>390.4</ele>
        <time>2022-06-25T12:43:17Z</time>
      </trkpt>
      <trkpt lat="46.30165" lon="4.68272">
        <ele>390.8</ele>
        <time>2022-06-25T12:43:18Z</time>
      </trkpt>
      <trkpt lat="46.30162" lon="4.68271">
        <ele>391</ele>
        <time>2022-06-25T12:43:19Z</time>
      </trkpt>
      <trkpt lat="46.30159" lon="4.6827">
        <ele>391</ele>
        <time>2022-06-25T12:43:20Z</time>
      </trkpt>
      <trkpt lat="46.30157" lon="4.68269">
        <ele>391.4</ele>
        <time>2022-06-25T12:43:21Z</time>
      </trkpt>
      <trkpt lat="46.30154" lon="4.68267">
        <ele>391.6</ele>
        <time>2022-06-25T12:43:22Z</time>
      </trkpt>
      <trkpt lat="46.30151" lon="4.68266">
        <ele>391.6</ele>
        <time>2022-06-25T12:43:23Z</time>
      </trkpt>
      <trkpt lat="46.30148" lon="4.68265">
        <ele>392</ele>
        <time>2022-06-25T12:43:24Z</time>
      </trkpt>
      <trkpt lat="46.30146" lon="4.68263">
        <ele>392.2</ele>
        <time>2022-06-25T12:43:25Z</time>
      </trkpt>
      <trkpt lat="46.30143" lon="4.68262">
        <ele>392.6</ele>
        <time>2022-06-25T12:43:26Z</time>
      </trkpt>
      <trkpt lat="46.3014" lon="4.68261">
        <ele>392.8</ele>
        <time>2022-06-25T12:43:27Z</time>
      </trkpt>
      <trkpt lat="46.30138" lon="4.6826">
        <ele>393.2</ele>
        <time>2022-06-25T12:43:28Z</time>
      </trkpt>
      <trkpt lat="46.30135" lon="4.68258">
        <ele>393.4</ele>
        <time>2022-06-25T12:43:29Z</time>
      </trkpt>
      <trkpt lat="46.30132" lon="4.68257">
        <ele>393.8</ele>
        <time>2022-06-25T12:43:30Z</time>
      </trkpt>
      <trkpt lat="46.3013" lon="4.68256">
        <ele>394</ele>
        <time>2022-06-25T12:43:31Z</time>
      </trkpt>
      <trkpt lat="46.30127" lon="4.68255">
        <ele>394.2</ele>
        <time>2022-06-25T12:43:32Z</time>
      </trkpt>
      <trkpt lat="46.30124" lon="4.68254">
        <ele>394.4</ele>
        <time>2022-06-25T12:43:33Z</time>
      </trkpt>
      <trkpt lat="46.30121" lon="4.68253">
        <ele>394.8</ele>
        <time>2022-06-25T12:43:34Z</time>
      </trkpt>
      <trkpt lat="46.30118" lon="4.68253">
        <ele>395</ele>
        <time>2022-06-25T12:43:35Z</time>
      </trkpt>
      <trkpt lat="46.30115" lon="4.68253">
        <ele>395.2</ele>
        <time>2022-06-25T12:43:36Z</time>
      </trkpt>
      <trkpt lat="46.30112" lon="4.68254">
        <ele>395.2</ele>
        <time>2022-06-25T12:43:37Z</time>
      </trkpt>
      <trkpt lat="46.30109" lon="4.68254">
        <ele>395.6</ele>
        <time>2022-06-25T12:43:38Z</time>
      </trkpt>
      <trkpt lat="46.30106" lon="4.68255">
        <ele>395.8</ele>
        <time>2022-06-25T12:43:39Z</time>
      </trkpt>
      <trkpt lat="46.30103" lon="4.68255">
        <ele>396</ele>
        <time>2022-06-25T12:43:40Z</time>
      </trkpt>
      <trkpt lat="46.30101" lon="4.68257">
        <ele>396.4</ele>
        <time>2022-06-25T12:43:41Z</time>
      </trkpt>
      <trkpt lat="46.30098" lon="4.68259">
        <ele>396.6</ele>
        <time>2022-06-25T12:43:42Z</time>
      </trkpt>
      <trkpt lat="46.30095" lon="4.6826">
        <ele>396.8</ele>
        <time>2022-06-25T12:43:43Z</time>
      </trkpt>
      <trkpt lat="46.30092" lon="4.68262">
        <ele>397</ele>
        <time>2022-06-25T12:43:44Z</time>
      </trkpt>
      <trkpt lat="46.30089" lon="4.68264">
        <ele>397.2</ele>
        <time>2022-06-25T12:43:45Z</time>
      </trkpt>
      <trkpt lat="46.30087" lon="4.68266">
        <ele>397.2</ele>
        <time>2022-06-25T12:43:46Z</time>
      </trkpt>
      <trkpt lat="46.30084" lon="4.68268">
        <ele>397.6</ele>
        <time>2022-06-25T12:43:47Z</time>
      </trkpt>
      <trkpt lat="46.30081" lon="4.68269">
        <ele>397.6</ele>
        <time>2022-06-25T12:43:48Z</time>
      </trkpt>
      <trkpt lat="46.30079" lon="4.68271">
        <ele>398</ele>
        <time>2022-06-25T12:43:49Z</time>
      </trkpt>
      <trkpt lat="46.30076" lon="4.68273">
        <ele>398.2</ele>
        <time>2022-06-25T12:43:50Z</time>
      </trkpt>
      <trkpt lat="46.30074" lon="4.68275">
        <ele>398.6</ele>
        <time>2022-06-25T12:43:51Z</time>
      </trkpt>
      <trkpt lat="46.30071" lon="4.68277">
        <ele>398.6</ele>
        <time>2022-06-25T12:43:52Z</time>
      </trkpt>
      <trkpt lat="46.30068" lon="4.68279">
        <ele>398.8</ele>
        <time>2022-06-25T12:43:53Z</time>
      </trkpt>
      <trkpt lat="46.30065" lon="4.68281">
        <ele>399</ele>
        <time>2022-06-25T12:43:54Z</time>
      </trkpt>
      <trkpt lat="46.30063" lon="4.68283">
        <ele>399.2</ele>
        <time>2022-06-25T12:43:55Z</time>
      </trkpt>
      <trkpt lat="46.3006" lon="4.68285">
        <ele>399.4</ele>
        <time>2022-06-25T12:43:56Z</time>
      </trkpt>
      <trkpt lat="46.30057" lon="4.68286">
        <ele>399.8</ele>
        <time>2022-06-25T12:43:57Z</time>
      </trkpt>
      <trkpt lat="46.30055" lon="4.68288">
        <ele>399.8</ele>
        <time>2022-06-25T12:43:58Z</time>
      </trkpt>
      <trkpt lat="46.30052" lon="4.6829">
        <ele>400.2</ele>
        <time>2022-06-25T12:43:59Z</time>
      </trkpt>
      <trkpt lat="46.3005" lon="4.68292">
        <ele>400.4</ele>
        <time>2022-06-25T12:44:00Z</time>
      </trkpt>
      <trkpt lat="46.30047" lon="4.68294">
        <ele>400.6</ele>
        <time>2022-06-25T12:44:01Z</time>
      </trkpt>
      <trkpt lat="46.30045" lon="4.68295">
        <ele>400.8</ele>
        <time>2022-06-25T12:44:02Z</time>
      </trkpt>
      <trkpt lat="46.30043" lon="4.68297">
        <ele>400.8</ele>
        <time>2022-06-25T12:44:03Z</time>
      </trkpt>
      <trkpt lat="46.30041" lon="4.68298">
        <ele>401.2</ele>
        <time>2022-06-25T12:44:04Z</time>
      </trkpt>
      <trkpt lat="46.30039" lon="4.68299">
        <ele>401.4</ele>
        <time>2022-06-25T12:44:05Z</time>
      </trkpt>
      <trkpt lat="46.30037" lon="4.683">
        <ele>401.4</ele>
        <time>2022-06-25T12:44:06Z</time>
      </trkpt>
      <trkpt lat="46.30035" lon="4.68301">
        <ele>401.6</ele>
        <time>2022-06-25T12:44:07Z</time>
      </trkpt>
      <trkpt lat="46.30032" lon="4.68302">
        <ele>401.8</ele>
        <time>2022-06-25T12:44:08Z</time>
      </trkpt>
      <trkpt lat="46.3003" lon="4.68303">
        <ele>402.2</ele>
        <time>2022-06-25T12:44:09Z</time>
      </trkpt>
      <trkpt lat="46.30027" lon="4.68304">
        <ele>402.4</ele>
        <time>2022-06-25T12:44:10Z</time>
      </trkpt>
      <trkpt lat="46.30025" lon="4.68306">
        <ele>402.6</ele>
        <time>2022-06-25T12:44:11Z</time>
      </trkpt>
      <trkpt lat="46.30022" lon="4.68308">
        <ele>402.8</ele>
        <time>2022-06-25T12:44:12Z</time>
      </trkpt>
      <trkpt lat="46.3002" lon="4.68309">
        <ele>403.2</ele>
        <time>2022-06-25T12:44:13Z</time>
      </trkpt>
      <trkpt lat="46.30017" lon="4.68311">
        <ele>403.2</ele>
        <time>2022-06-25T12:44:14Z</time>
      </trkpt>
      <trkpt lat="46.30014" lon="4.68312">
        <ele>403.4</ele>
        <time>2022-06-25T12:44:15Z</time>
      </trkpt>
      <trkpt lat="46.30012" lon="4.68313">
        <ele>403.8</ele>
        <time>2022-06-25T12:44:16Z</time>
      </trkpt>
      <trkpt lat="46.30009" lon="4.68314">
        <ele>404</ele>
        <time>2022-06-25T12:44:17Z</time>
      </trkpt>
      <trkpt lat="46.30006" lon="4.68316">
        <ele>404.2</ele>
        <time>2022-06-25T12:44:18Z</time>
      </trkpt>
      <trkpt lat="46.30003" lon="4.68317">
        <ele>404.2</ele>
        <time>2022-06-25T12:44:19Z</time>
      </trkpt>
      <trkpt lat="46.30001" lon="4.68319">
        <ele>404.4</ele>
        <time>2022-06-25T12:44:20Z</time>
      </trkpt>
      <trkpt lat="46.29998" lon="4.6832">
        <ele>404.4</ele>
        <time>2022-06-25T12:44:21Z</time>
      </trkpt>
      <trkpt lat="46.29995" lon="4.68322">
        <ele>404.8</ele>
        <time>2022-06-25T12:44:22Z</time>
      </trkpt>
      <trkpt lat="46.29992" lon="4.68323">
        <ele>405.2</ele>
        <time>2022-06-25T12:44:23Z</time>
      </trkpt>
      <trkpt lat="46.2999" lon="4.68324">
        <ele>405.4</ele>
        <time>2022-06-25T12:44:24Z</time>
      </trkpt>
      <trkpt lat="46.29987" lon="4.68326">
        <ele>405.4</ele>
        <time>2022-06-25T12:44:25Z</time>
      </trkpt>
      <trkpt lat="46.29984" lon="4.68328">
        <ele>405.8</ele>
        <time>2022-06-25T12:44:26Z</time>
      </trkpt>
      <trkpt lat="46.29982" lon="4.68329">
        <ele>406</ele>
        <time>2022-06-25T12:44:27Z</time>
      </trkpt>
      <trkpt lat="46.29979" lon="4.68331">
        <ele>406.2</ele>
        <time>2022-06-25T12:44:28Z</time>
      </trkpt>
      <trkpt lat="46.29976" lon="4.68332">
        <ele>406.2</ele>
        <time>2022-06-25T12:44:29Z</time>
      </trkpt>
      <trkpt lat="46.29973" lon="4.68333">
        <ele>406.6</ele>
        <time>2022-06-25T12:44:30Z</time>
      </trkpt>
      <trkpt lat="46.2997" lon="4.68334">
        <ele>406.8</ele>
        <time>2022-06-25T12:44:31Z</time>
      </trkpt>
      <trkpt lat="46.29967" lon="4.68335">
        <ele>406.8</ele>
        <time>2022-06-25T12:44:32Z</time>
      </trkpt>
      <trkpt lat="46.29964" lon="4.68336">
        <ele>407.2</ele>
        <time>2022-06-25T12:44:33Z</time>
      </trkpt>
      <trkpt lat="46.29961" lon="4.68337">
        <ele>407.2</ele>
        <time>2022-06-25T12:44:34Z</time>
      </trkpt>
      <trkpt lat="46.29958" lon="4.68337">
        <ele>407.6</ele>
        <time>2022-06-25T12:44:35Z</time>
      </trkpt>
      <trkpt lat="46.29955" lon="4.68336">
        <ele>407.8</ele>
        <time>2022-06-25T12:44:36Z</time>
      </trkpt>
      <trkpt lat="46.29953" lon="4.68335">
        <ele>408</ele>
        <time>2022-06-25T12:44:37Z</time>
      </trkpt>
      <trkpt lat="46.2995" lon="4.68333">
        <ele>408</ele>
        <time>2022-06-25T12:44:38Z</time>
      </trkpt>
      <trkpt lat="46.29949" lon="4.6833">
        <ele>408.6</ele>
        <time>2022-06-25T12:44:39Z</time>
      </trkpt>
      <trkpt lat="46.29948" lon="4.68327">
        <ele>408.6</ele>
        <time>2022-06-25T12:44:40Z</time>
      </trkpt>
      <trkpt lat="46.29947" lon="4.68322">
        <ele>408.8</ele>
        <time>2022-06-25T12:44:41Z</time>
      </trkpt>
      <trkpt lat="46.29946" lon="4.68318">
        <ele>408.8</ele>
        <time>2022-06-25T12:44:42Z</time>
      </trkpt>
      <trkpt lat="46.29946" lon="4.68313">
        <ele>409.2</ele>
        <time>2022-06-25T12:44:43Z</time>
      </trkpt>
      <trkpt lat="46.29947" lon="4.68309">
        <ele>409.4</ele>
        <time>2022-06-25T12:44:44Z</time>
      </trkpt>
      <trkpt lat="46.29948" lon="4.68304">
        <ele>409.6</ele>
        <time>2022-06-25T12:44:45Z</time>
      </trkpt>
      <trkpt lat="46.29949" lon="4.683">
        <ele>409.8</ele>
        <time>2022-06-25T12:44:46Z</time>
      </trkpt>
      <trkpt lat="46.2995" lon="4.68295">
        <ele>409.8</ele>
        <time>2022-06-25T12:44:47Z</time>
      </trkpt>
      <trkpt lat="46.2995" lon="4.68291">
        <ele>410.2</ele>
        <time>2022-06-25T12:44:48Z</time>
      </trkpt>
      <trkpt lat="46.29951" lon="4.68286">
        <ele>410.4</ele>
        <time>2022-06-25T12:44:49Z</time>
      </trkpt>
      <trkpt lat="46.29951" lon="4.68282">
        <ele>410.4</ele>
        <time>2022-06-25T12:44:50Z</time>
      </trkpt>
      <trkpt lat="46.29952" lon="4.68277">
        <ele>410.8</ele>
        <time>2022-06-25T12:44:51Z</time>
      </trkpt>
      <trkpt lat="46.29953" lon="4.68272">
        <ele>410.8</ele>
        <time>2022-06-25T12:44:52Z</time>
      </trkpt>
      <trkpt lat="46.29954" lon="4.68268">
        <ele>411.2</ele>
        <time>2022-06-25T12:44:53Z</time>
      </trkpt>
      <trkpt lat="46.29955" lon="4.68263">
        <ele>411.2</ele>
        <time>2022-06-25T12:44:54Z</time>
      </trkpt>
      <trkpt lat="46.29956" lon="4.68258">
        <ele>411.4</ele>
        <time>2022-06-25T12:44:55Z</time>
      </trkpt>
      <trkpt lat="46.29956" lon="4.68253">
        <ele>411.6</ele>
        <time>2022-06-25T12:44:56Z</time>
      </trkpt>
      <trkpt lat="46.29957" lon="4.68248">
        <ele>411.8</ele>
        <time>2022-06-25T12:44:57Z</time>
      </trkpt>
      <trkpt lat="46.29958" lon="4.68243">
        <ele>412</ele>
        <time>2022-06-25T12:44:58Z</time>
      </trkpt>
      <trkpt lat="46.29959" lon="4.68238">
        <ele>412</ele>
        <time>2022-06-25T12:44:59Z</time>
      </trkpt>
      <trkpt lat="46.2996" lon="4.68234">
        <ele>412.4</ele>
        <time>2022-06-25T12:45:00Z</time>
      </trkpt>
      <trkpt lat="46.2996" lon="4.68229">
        <ele>412.4</ele>
        <time>2022-06-25T12:45:01Z</time>
      </trkpt>
      <trkpt lat="46.29961" lon="4.68225">
        <ele>412.8</ele>
        <time>2022-06-25T12:45:02Z</time>
      </trkpt>
      <trkpt lat="46.29962" lon="4.6822">
        <ele>412.8</ele>
        <time>2022-06-25T12:45:03Z</time>
      </trkpt>
      <trkpt lat="46.29962" lon="4.68215">
        <ele>413.2</ele>
        <time>2022-06-25T12:45:04Z</time>
      </trkpt>
      <trkpt lat="46.29963" lon="4.68211">
        <ele>413.2</ele>
        <time>2022-06-25T12:45:05Z</time>
      </trkpt>
      <trkpt lat="46.29964" lon="4.68206">
        <ele>413.6</ele>
        <time>2022-06-25T12:45:06Z</time>
      </trkpt>
      <trkpt lat="46.29964" lon="4.68202">
        <ele>413.8</ele>
        <time>2022-06-25T12:45:07Z</time>
      </trkpt>
      <trkpt lat="46.29965" lon="4.68197">
        <ele>413.8</ele>
        <time>2022-06-25T12:45:08Z</time>
      </trkpt>
      <trkpt lat="46.29965" lon="4.68192">
        <ele>414.2</ele>
        <time>2022-06-25T12:45:09Z</time>
      </trkpt>
      <trkpt lat="46.29965" lon="4.68188">
        <ele>414.4</ele>
        <time>2022-06-25T12:45:10Z</time>
      </trkpt>
      <trkpt lat="46.29965" lon="4.68183">
        <ele>414.4</ele>
        <time>2022-06-25T12:45:11Z</time>
      </trkpt>
      <trkpt lat="46.29965" lon="4.68179">
        <ele>414.8</ele>
        <time>2022-06-25T12:45:12Z</time>
      </trkpt>
      <trkpt lat="46.29964" lon="4.68174">
        <ele>414.8</ele>
        <time>2022-06-25T12:45:13Z</time>
      </trkpt>
      <trkpt lat="46.29964" lon="4.6817">
        <ele>415.2</ele>
        <time>2022-06-25T12:45:14Z</time>
      </trkpt>
      <trkpt lat="46.29964" lon="4.68165">
        <ele>415.2</ele>
        <time>2022-06-25T12:45:15Z</time>
      </trkpt>
      <trkpt lat="46.29963" lon="4.68159">
        <ele>415.6</ele>
        <time>2022-06-25T12:45:16Z</time>
      </trkpt>
      <trkpt lat="46.29963" lon="4.68156">
        <ele>415.6</ele>
        <time>2022-06-25T12:45:17Z</time>
      </trkpt>
      <trkpt lat="46.29963" lon="4.68152">
        <ele>416</ele>
        <time>2022-06-25T12:45:18Z</time>
      </trkpt>
      <trkpt lat="46.29963" lon="4.68148">
        <ele>416</ele>
        <time>2022-06-25T12:45:19Z</time>
      </trkpt>
      <trkpt lat="46.29963" lon="4.68143">
        <ele>416.2</ele>
        <time>2022-06-25T12:45:20Z</time>
      </trkpt>
      <trkpt lat="46.29962" lon="4.68139">
        <ele>416.4</ele>
        <time>2022-06-25T12:45:21Z</time>
      </trkpt>
      <trkpt lat="46.29961" lon="4.68134">
        <ele>416.8</ele>
        <time>2022-06-25T12:45:22Z</time>
      </trkpt>
      <trkpt lat="46.29961" lon="4.6813">
        <ele>417</ele>
        <time>2022-06-25T12:45:23Z</time>
      </trkpt>
      <trkpt lat="46.29961" lon="4.68126">
        <ele>417</ele>
        <time>2022-06-25T12:45:24Z</time>
      </trkpt>
      <trkpt lat="46.29961" lon="4.68122">
        <ele>417.4</ele>
        <time>2022-06-25T12:45:25Z</time>
      </trkpt>
      <trkpt lat="46.29961" lon="4.68118">
        <ele>417.6</ele>
        <time>2022-06-25T12:45:26Z</time>
      </trkpt>
      <trkpt lat="46.29961" lon="4.68114">
        <ele>417.6</ele>
        <time>2022-06-25T12:45:27Z</time>
      </trkpt>
      <trkpt lat="46.29961" lon="4.6811">
        <ele>417.8</ele>
        <time>2022-06-25T12:45:28Z</time>
      </trkpt>
      <trkpt lat="46.29961" lon="4.68106">
        <ele>417.8</ele>
        <time>2022-06-25T12:45:29Z</time>
      </trkpt>
      <trkpt lat="46.29962" lon="4.68101">
        <ele>418</ele>
        <time>2022-06-25T12:45:30Z</time>
      </trkpt>
      <trkpt lat="46.29962" lon="4.68096">
        <ele>418</ele>
        <time>2022-06-25T12:45:31Z</time>
      </trkpt>
      <trkpt lat="46.29963" lon="4.68092">
        <ele>418.4</ele>
        <time>2022-06-25T12:45:32Z</time>
      </trkpt>
      <trkpt lat="46.29964" lon="4.68087">
        <ele>418.6</ele>
        <time>2022-06-25T12:45:33Z</time>
      </trkpt>
      <trkpt lat="46.29966" lon="4.68084">
        <ele>418.6</ele>
        <time>2022-06-25T12:45:34Z</time>
      </trkpt>
      <trkpt lat="46.29968" lon="4.6808">
        <ele>419</ele>
        <time>2022-06-25T12:45:35Z</time>
      </trkpt>
      <trkpt lat="46.2997" lon="4.68077">
        <ele>419.2</ele>
        <time>2022-06-25T12:45:36Z</time>
      </trkpt>
      <trkpt lat="46.29972" lon="4.68073">
        <ele>419.4</ele>
        <time>2022-06-25T12:45:37Z</time>
      </trkpt>
      <trkpt lat="46.29974" lon="4.6807">
        <ele>419.6</ele>
        <time>2022-06-25T12:45:38Z</time>
      </trkpt>
      <trkpt lat="46.29976" lon="4.68066">
        <ele>419.6</ele>
        <time>2022-06-25T12:45:39Z</time>
      </trkpt>
      <trkpt lat="46.29978" lon="4.68062">
        <ele>420</ele>
        <time>2022-06-25T12:45:40Z</time>
      </trkpt>
      <trkpt lat="46.29979" lon="4.68058">
        <ele>420.2</ele>
        <time>2022-06-25T12:45:41Z</time>
      </trkpt>
      <trkpt lat="46.29982" lon="4.68049">
        <ele>420.6</ele>
        <time>2022-06-25T12:45:42Z</time>
      </trkpt>
      <trkpt lat="46.29983" lon="4.68044">
        <ele>420.8</ele>
        <time>2022-06-25T12:45:43Z</time>
      </trkpt>
      <trkpt lat="46.29984" lon="4.6804">
        <ele>421</ele>
        <time>2022-06-25T12:45:44Z</time>
      </trkpt>
      <trkpt lat="46.29984" lon="4.68035">
        <ele>421.2</ele>
        <time>2022-06-25T12:45:45Z</time>
      </trkpt>
      <trkpt lat="46.29985" lon="4.68031">
        <ele>421.4</ele>
        <time>2022-06-25T12:45:46Z</time>
      </trkpt>
      <trkpt lat="46.29986" lon="4.68026">
        <ele>421.4</ele>
        <time>2022-06-25T12:45:47Z</time>
      </trkpt>
      <trkpt lat="46.29987" lon="4.68022">
        <ele>421.8</ele>
        <time>2022-06-25T12:45:48Z</time>
      </trkpt>
      <trkpt lat="46.29989" lon="4.68018">
        <ele>421.8</ele>
        <time>2022-06-25T12:45:49Z</time>
      </trkpt>
      <trkpt lat="46.2999" lon="4.68014">
        <ele>422.2</ele>
        <time>2022-06-25T12:45:50Z</time>
      </trkpt>
      <trkpt lat="46.29992" lon="4.6801">
        <ele>422.2</ele>
        <time>2022-06-25T12:45:51Z</time>
      </trkpt>
      <trkpt lat="46.29993" lon="4.68006">
        <ele>422.6</ele>
        <time>2022-06-25T12:45:52Z</time>
      </trkpt>
      <trkpt lat="46.29996" lon="4.68003">
        <ele>423</ele>
        <time>2022-06-25T12:45:53Z</time>
      </trkpt>
      <trkpt lat="46.29998" lon="4.68">
        <ele>423.2</ele>
        <time>2022-06-25T12:45:54Z</time>
      </trkpt>
      <trkpt lat="46.3" lon="4.67997">
        <ele>423.4</ele>
        <time>2022-06-25T12:45:55Z</time>
      </trkpt>
      <trkpt lat="46.30003" lon="4.67995">
        <ele>423.6</ele>
        <time>2022-06-25T12:45:56Z</time>
      </trkpt>
      <trkpt lat="46.30006" lon="4.67993">
        <ele>424</ele>
        <time>2022-06-25T12:45:57Z</time>
      </trkpt>
      <trkpt lat="46.30009" lon="4.67992">
        <ele>424</ele>
        <time>2022-06-25T12:45:58Z</time>
      </trkpt>
      <trkpt lat="46.3001" lon="4.67991">
        <ele>424.2</ele>
        <time>2022-06-25T12:45:59Z</time>
      </trkpt>
      <trkpt lat="46.30012" lon="4.67991">
        <ele>424.6</ele>
        <time>2022-06-25T12:46:00Z</time>
      </trkpt>
      <trkpt lat="46.30015" lon="4.6799">
        <ele>424.8</ele>
        <time>2022-06-25T12:46:01Z</time>
      </trkpt>
      <trkpt lat="46.30018" lon="4.6799">
        <ele>425</ele>
        <time>2022-06-25T12:46:02Z</time>
      </trkpt>
      <trkpt lat="46.30021" lon="4.67991">
        <ele>425.2</ele>
        <time>2022-06-25T12:46:03Z</time>
      </trkpt>
      <trkpt lat="46.30024" lon="4.67991">
        <ele>425.2</ele>
        <time>2022-06-25T12:46:04Z</time>
      </trkpt>
      <trkpt lat="46.30026" lon="4.67991">
        <ele>425.6</ele>
        <time>2022-06-25T12:46:05Z</time>
      </trkpt>
      <trkpt lat="46.30029" lon="4.67992">
        <ele>425.8</ele>
        <time>2022-06-25T12:46:06Z</time>
      </trkpt>
      <trkpt lat="46.30032" lon="4.67991">
        <ele>426</ele>
        <time>2022-06-25T12:46:07Z</time>
      </trkpt>
      <trkpt lat="46.30034" lon="4.67991">
        <ele>426.2</ele>
        <time>2022-06-25T12:46:08Z</time>
      </trkpt>
      <trkpt lat="46.30037" lon="4.67991">
        <ele>426.4</ele>
        <time>2022-06-25T12:46:09Z</time>
      </trkpt>
      <trkpt lat="46.3004" lon="4.67991">
        <ele>426.6</ele>
        <time>2022-06-25T12:46:10Z</time>
      </trkpt>
      <trkpt lat="46.30043" lon="4.67991">
        <ele>426.6</ele>
        <time>2022-06-25T12:46:11Z</time>
      </trkpt>
      <trkpt lat="46.30046" lon="4.6799">
        <ele>427</ele>
        <time>2022-06-25T12:46:12Z</time>
      </trkpt>
      <trkpt lat="46.30051" lon="4.67987">
        <ele>427</ele>
        <time>2022-06-25T12:46:13Z</time>
      </trkpt>
      <trkpt lat="46.30054" lon="4.67985">
        <ele>427.4</ele>
        <time>2022-06-25T12:46:14Z</time>
      </trkpt>
      <trkpt lat="46.30056" lon="4.67983">
        <ele>427.4</ele>
        <time>2022-06-25T12:46:15Z</time>
      </trkpt>
      <trkpt lat="46.30058" lon="4.6798">
        <ele>428</ele>
        <time>2022-06-25T12:46:17Z</time>
      </trkpt>
      <trkpt lat="46.3006" lon="4.67977">
        <ele>428.2</ele>
        <time>2022-06-25T12:46:18Z</time>
      </trkpt>
      <trkpt lat="46.30062" lon="4.67974">
        <ele>428.6</ele>
        <time>2022-06-25T12:46:19Z</time>
      </trkpt>
      <trkpt lat="46.30063" lon="4.6797">
        <ele>428.8</ele>
        <time>2022-06-25T12:46:20Z</time>
      </trkpt>
      <trkpt lat="46.30064" lon="4.67966">
        <ele>429</ele>
        <time>2022-06-25T12:46:21Z</time>
      </trkpt>
      <trkpt lat="46.30065" lon="4.67962">
        <ele>429.2</ele>
        <time>2022-06-25T12:46:22Z</time>
      </trkpt>
      <trkpt lat="46.30066" lon="4.67958">
        <ele>429.2</ele>
        <time>2022-06-25T12:46:23Z</time>
      </trkpt>
      <trkpt lat="46.30066" lon="4.67953">
        <ele>429.6</ele>
        <time>2022-06-25T12:46:24Z</time>
      </trkpt>
      <trkpt lat="46.30066" lon="4.67949">
        <ele>429.6</ele>
        <time>2022-06-25T12:46:25Z</time>
      </trkpt>
      <trkpt lat="46.30066" lon="4.67945">
        <ele>430</ele>
        <time>2022-06-25T12:46:26Z</time>
      </trkpt>
      <trkpt lat="46.30066" lon="4.6794">
        <ele>430.2</ele>
        <time>2022-06-25T12:46:27Z</time>
      </trkpt>
      <trkpt lat="46.30066" lon="4.67935">
        <ele>430.4</ele>
        <time>2022-06-25T12:46:28Z</time>
      </trkpt>
      <trkpt lat="46.30066" lon="4.67931">
        <ele>430.4</ele>
        <time>2022-06-25T12:46:29Z</time>
      </trkpt>
      <trkpt lat="46.30066" lon="4.67926">
        <ele>431</ele>
        <time>2022-06-25T12:46:30Z</time>
      </trkpt>
      <trkpt lat="46.30066" lon="4.67921">
        <ele>431.2</ele>
        <time>2022-06-25T12:46:31Z</time>
      </trkpt>
      <trkpt lat="46.30066" lon="4.67917">
        <ele>431.2</ele>
        <time>2022-06-25T12:46:32Z</time>
      </trkpt>
      <trkpt lat="46.30066" lon="4.67912">
        <ele>431.4</ele>
        <time>2022-06-25T12:46:33Z</time>
      </trkpt>
      <trkpt lat="46.30065" lon="4.67908">
        <ele>431.4</ele>
        <time>2022-06-25T12:46:34Z</time>
      </trkpt>
      <trkpt lat="46.30065" lon="4.67903">
        <ele>431.8</ele>
        <time>2022-06-25T12:46:35Z</time>
      </trkpt>
      <trkpt lat="46.30065" lon="4.67899">
        <ele>432</ele>
        <time>2022-06-25T12:46:36Z</time>
      </trkpt>
      <trkpt lat="46.30064" lon="4.67895">
        <ele>432</ele>
        <time>2022-06-25T12:46:37Z</time>
      </trkpt>
      <trkpt lat="46.30064" lon="4.67891">
        <ele>432.4</ele>
        <time>2022-06-25T12:46:38Z</time>
      </trkpt>
      <trkpt lat="46.30064" lon="4.67886">
        <ele>432.8</ele>
        <time>2022-06-25T12:46:39Z</time>
      </trkpt>
      <trkpt lat="46.30063" lon="4.67882">
        <ele>433</ele>
        <time>2022-06-25T12:46:40Z</time>
      </trkpt>
      <trkpt lat="46.30063" lon="4.67878">
        <ele>433</ele>
        <time>2022-06-25T12:46:41Z</time>
      </trkpt>
      <trkpt lat="46.30062" lon="4.67874">
        <ele>433.4</ele>
        <time>2022-06-25T12:46:42Z</time>
      </trkpt>
      <trkpt lat="46.30061" lon="4.6787">
        <ele>433.6</ele>
        <time>2022-06-25T12:46:43Z</time>
      </trkpt>
      <trkpt lat="46.3006" lon="4.67866">
        <ele>433.6</ele>
        <time>2022-06-25T12:46:44Z</time>
      </trkpt>
      <trkpt lat="46.30059" lon="4.67862">
        <ele>434</ele>
        <time>2022-06-25T12:46:45Z</time>
      </trkpt>
      <trkpt lat="46.30058" lon="4.67858">
        <ele>434.2</ele>
        <time>2022-06-25T12:46:46Z</time>
      </trkpt>
      <trkpt lat="46.30057" lon="4.67855">
        <ele>434.4</ele>
        <time>2022-06-25T12:46:47Z</time>
      </trkpt>
      <trkpt lat="46.30055" lon="4.6785">
        <ele>434.4</ele>
        <time>2022-06-25T12:46:48Z</time>
      </trkpt>
      <trkpt lat="46.30053" lon="4.67847">
        <ele>434.8</ele>
        <time>2022-06-25T12:46:49Z</time>
      </trkpt>
      <trkpt lat="46.30051" lon="4.67843">
        <ele>434.8</ele>
        <time>2022-06-25T12:46:50Z</time>
      </trkpt>
      <trkpt lat="46.30049" lon="4.6784">
        <ele>435.2</ele>
        <time>2022-06-25T12:46:51Z</time>
      </trkpt>
      <trkpt lat="46.30046" lon="4.67837">
        <ele>435.4</ele>
        <time>2022-06-25T12:46:52Z</time>
      </trkpt>
      <trkpt lat="46.30043" lon="4.67834">
        <ele>435.6</ele>
        <time>2022-06-25T12:46:53Z</time>
      </trkpt>
      <trkpt lat="46.30039" lon="4.67833">
        <ele>435.8</ele>
        <time>2022-06-25T12:46:54Z</time>
      </trkpt>
      <trkpt lat="46.30036" lon="4.67832">
        <ele>436</ele>
        <time>2022-06-25T12:46:55Z</time>
      </trkpt>
      <trkpt lat="46.30033" lon="4.67831">
        <ele>436.2</ele>
        <time>2022-06-25T12:46:56Z</time>
      </trkpt>
      <trkpt lat="46.30029" lon="4.67831">
        <ele>436.4</ele>
        <time>2022-06-25T12:46:57Z</time>
      </trkpt>
      <trkpt lat="46.30026" lon="4.67832">
        <ele>436.8</ele>
        <time>2022-06-25T12:46:58Z</time>
      </trkpt>
      <trkpt lat="46.30023" lon="4.67832">
        <ele>437</ele>
        <time>2022-06-25T12:46:59Z</time>
      </trkpt>
      <trkpt lat="46.30019" lon="4.67833">
        <ele>437.2</ele>
        <time>2022-06-25T12:47:00Z</time>
      </trkpt>
      <trkpt lat="46.30016" lon="4.67835">
        <ele>437.6</ele>
        <time>2022-06-25T12:47:01Z</time>
      </trkpt>
      <trkpt lat="46.30013" lon="4.67838">
        <ele>437.8</ele>
        <time>2022-06-25T12:47:02Z</time>
      </trkpt>
      <trkpt lat="46.3001" lon="4.67841">
        <ele>438</ele>
        <time>2022-06-25T12:47:03Z</time>
      </trkpt>
      <trkpt lat="46.30007" lon="4.67844">
        <ele>438.4</ele>
        <time>2022-06-25T12:47:04Z</time>
      </trkpt>
      <trkpt lat="46.30005" lon="4.67848">
        <ele>438.6</ele>
        <time>2022-06-25T12:47:05Z</time>
      </trkpt>
      <trkpt lat="46.30003" lon="4.67853">
        <ele>438.8</ele>
        <time>2022-06-25T12:47:06Z</time>
      </trkpt>
      <trkpt lat="46.30001" lon="4.67857">
        <ele>438.8</ele>
        <time>2022-06-25T12:47:07Z</time>
      </trkpt>
      <trkpt lat="46.29999" lon="4.67862">
        <ele>439.2</ele>
        <time>2022-06-25T12:47:08Z</time>
      </trkpt>
      <trkpt lat="46.29997" lon="4.67867">
        <ele>439.4</ele>
        <time>2022-06-25T12:47:09Z</time>
      </trkpt>
      <trkpt lat="46.29995" lon="4.67871">
        <ele>439.4</ele>
        <time>2022-06-25T12:47:10Z</time>
      </trkpt>
      <trkpt lat="46.29993" lon="4.67876">
        <ele>439.8</ele>
        <time>2022-06-25T12:47:11Z</time>
      </trkpt>
      <trkpt lat="46.29991" lon="4.6788">
        <ele>439.8</ele>
        <time>2022-06-25T12:47:12Z</time>
      </trkpt>
      <trkpt lat="46.29989" lon="4.67884">
        <ele>440.2</ele>
        <time>2022-06-25T12:47:13Z</time>
      </trkpt>
      <trkpt lat="46.29986" lon="4.67888">
        <ele>440.2</ele>
        <time>2022-06-25T12:47:14Z</time>
      </trkpt>
      <trkpt lat="46.29984" lon="4.67891">
        <ele>440.6</ele>
        <time>2022-06-25T12:47:15Z</time>
      </trkpt>
      <trkpt lat="46.29981" lon="4.67895">
        <ele>440.8</ele>
        <time>2022-06-25T12:47:16Z</time>
      </trkpt>
      <trkpt lat="46.29979" lon="4.67898">
        <ele>441</ele>
        <time>2022-06-25T12:47:17Z</time>
      </trkpt>
      <trkpt lat="46.29976" lon="4.67902">
        <ele>441.2</ele>
        <time>2022-06-25T12:47:18Z</time>
      </trkpt>
      <trkpt lat="46.29973" lon="4.67905">
        <ele>441.6</ele>
        <time>2022-06-25T12:47:19Z</time>
      </trkpt>
      <trkpt lat="46.2997" lon="4.67908">
        <ele>441.8</ele>
        <time>2022-06-25T12:47:20Z</time>
      </trkpt>
      <trkpt lat="46.29968" lon="4.67911">
        <ele>441.8</ele>
        <time>2022-06-25T12:47:21Z</time>
      </trkpt>
      <trkpt lat="46.29965" lon="4.67913">
        <ele>442.2</ele>
        <time>2022-06-25T12:47:22Z</time>
      </trkpt>
      <trkpt lat="46.29962" lon="4.67916">
        <ele>442.2</ele>
        <time>2022-06-25T12:47:23Z</time>
      </trkpt>
      <trkpt lat="46.29958" lon="4.67919">
        <ele>442.6</ele>
        <time>2022-06-25T12:47:24Z</time>
      </trkpt>
      <trkpt lat="46.29955" lon="4.67921">
        <ele>443</ele>
        <time>2022-06-25T12:47:25Z</time>
      </trkpt>
      <trkpt lat="46.29952" lon="4.67924">
        <ele>443.2</ele>
        <time>2022-06-25T12:47:26Z</time>
      </trkpt>
      <trkpt lat="46.29949" lon="4.67926">
        <ele>443.4</ele>
        <time>2022-06-25T12:47:27Z</time>
      </trkpt>
      <trkpt lat="46.29946" lon="4.67928">
        <ele>443.6</ele>
        <time>2022-06-25T12:47:28Z</time>
      </trkpt>
      <trkpt lat="46.29943" lon="4.6793">
        <ele>443.6</ele>
        <time>2022-06-25T12:47:29Z</time>
      </trkpt>
      <trkpt lat="46.2994" lon="4.67932">
        <ele>444</ele>
        <time>2022-06-25T12:47:30Z</time>
      </trkpt>
      <trkpt lat="46.29937" lon="4.67934">
        <ele>444</ele>
        <time>2022-06-25T12:47:31Z</time>
      </trkpt>
      <trkpt lat="46.29933" lon="4.67935">
        <ele>444.4</ele>
        <time>2022-06-25T12:47:32Z</time>
      </trkpt>
      <trkpt lat="46.2993" lon="4.67937">
        <ele>444.4</ele>
        <time>2022-06-25T12:47:33Z</time>
      </trkpt>
      <trkpt lat="46.29927" lon="4.67939">
        <ele>444.8</ele>
        <time>2022-06-25T12:47:34Z</time>
      </trkpt>
      <trkpt lat="46.29924" lon="4.6794">
        <ele>444.8</ele>
        <time>2022-06-25T12:47:35Z</time>
      </trkpt>
      <trkpt lat="46.29921" lon="4.67941">
        <ele>445</ele>
        <time>2022-06-25T12:47:36Z</time>
      </trkpt>
      <trkpt lat="46.29918" lon="4.67942">
        <ele>445.2</ele>
        <time>2022-06-25T12:47:37Z</time>
      </trkpt>
      <trkpt lat="46.29914" lon="4.67942">
        <ele>445.6</ele>
        <time>2022-06-25T12:47:38Z</time>
      </trkpt>
      <trkpt lat="46.29911" lon="4.67942">
        <ele>445.6</ele>
        <time>2022-06-25T12:47:39Z</time>
      </trkpt>
      <trkpt lat="46.29907" lon="4.67943">
        <ele>445.8</ele>
        <time>2022-06-25T12:47:40Z</time>
      </trkpt>
      <trkpt lat="46.29904" lon="4.67943">
        <ele>446</ele>
        <time>2022-06-25T12:47:41Z</time>
      </trkpt>
      <trkpt lat="46.299" lon="4.67942">
        <ele>446</ele>
        <time>2022-06-25T12:47:42Z</time>
      </trkpt>
      <trkpt lat="46.29897" lon="4.67942">
        <ele>446.4</ele>
        <time>2022-06-25T12:47:43Z</time>
      </trkpt>
      <trkpt lat="46.29893" lon="4.67942">
        <ele>446.4</ele>
        <time>2022-06-25T12:47:44Z</time>
      </trkpt>
      <trkpt lat="46.2989" lon="4.67942">
        <ele>446.8</ele>
        <time>2022-06-25T12:47:45Z</time>
      </trkpt>
      <trkpt lat="46.29887" lon="4.67941">
        <ele>446.8</ele>
        <time>2022-06-25T12:47:46Z</time>
      </trkpt>
      <trkpt lat="46.29884" lon="4.67941">
        <ele>447</ele>
        <time>2022-06-25T12:47:47Z</time>
      </trkpt>
      <trkpt lat="46.29881" lon="4.67941">
        <ele>447.4</ele>
        <time>2022-06-25T12:47:48Z</time>
      </trkpt>
      <trkpt lat="46.29877" lon="4.6794">
        <ele>447.6</ele>
        <time>2022-06-25T12:47:49Z</time>
      </trkpt>
      <trkpt lat="46.29874" lon="4.6794">
        <ele>447.8</ele>
        <time>2022-06-25T12:47:50Z</time>
      </trkpt>
      <trkpt lat="46.29871" lon="4.6794">
        <ele>447.8</ele>
        <time>2022-06-25T12:47:51Z</time>
      </trkpt>
      <trkpt lat="46.29867" lon="4.6794">
        <ele>448.2</ele>
        <time>2022-06-25T12:47:52Z</time>
      </trkpt>
      <trkpt lat="46.29864" lon="4.67941">
        <ele>448.2</ele>
        <time>2022-06-25T12:47:53Z</time>
      </trkpt>
      <trkpt lat="46.29861" lon="4.67941">
        <ele>448.6</ele>
        <time>2022-06-25T12:47:54Z</time>
      </trkpt>
      <trkpt lat="46.29857" lon="4.67942">
        <ele>448.8</ele>
        <time>2022-06-25T12:47:55Z</time>
      </trkpt>
      <trkpt lat="46.29854" lon="4.67942">
        <ele>448.8</ele>
        <time>2022-06-25T12:47:56Z</time>
      </trkpt>
      <trkpt lat="46.2985" lon="4.67943">
        <ele>449.2</ele>
        <time>2022-06-25T12:47:57Z</time>
      </trkpt>
      <trkpt lat="46.29847" lon="4.67944">
        <ele>449.4</ele>
        <time>2022-06-25T12:47:58Z</time>
      </trkpt>
      <trkpt lat="46.29844" lon="4.67946">
        <ele>449.6</ele>
        <time>2022-06-25T12:47:59Z</time>
      </trkpt>
      <trkpt lat="46.29841" lon="4.67948">
        <ele>450</ele>
        <time>2022-06-25T12:48:00Z</time>
      </trkpt>
      <trkpt lat="46.29838" lon="4.6795">
        <ele>450</ele>
        <time>2022-06-25T12:48:01Z</time>
      </trkpt>
      <trkpt lat="46.29835" lon="4.67953">
        <ele>450.4</ele>
        <time>2022-06-25T12:48:02Z</time>
      </trkpt>
      <trkpt lat="46.29832" lon="4.67956">
        <ele>450.6</ele>
        <time>2022-06-25T12:48:03Z</time>
      </trkpt>
      <trkpt lat="46.2983" lon="4.67959">
        <ele>450.8</ele>
        <time>2022-06-25T12:48:04Z</time>
      </trkpt>
      <trkpt lat="46.29827" lon="4.67962">
        <ele>451.2</ele>
        <time>2022-06-25T12:48:05Z</time>
      </trkpt>
      <trkpt lat="46.29825" lon="4.67966">
        <ele>451.4</ele>
        <time>2022-06-25T12:48:06Z</time>
      </trkpt>
      <trkpt lat="46.29823" lon="4.67969">
        <ele>451.6</ele>
        <time>2022-06-25T12:48:07Z</time>
      </trkpt>
      <trkpt lat="46.29821" lon="4.67973">
        <ele>451.8</ele>
        <time>2022-06-25T12:48:08Z</time>
      </trkpt>
      <trkpt lat="46.29819" lon="4.67977">
        <ele>452.2</ele>
        <time>2022-06-25T12:48:09Z</time>
      </trkpt>
      <trkpt lat="46.29816" lon="4.6798">
        <ele>452.4</ele>
        <time>2022-06-25T12:48:10Z</time>
      </trkpt>
      <trkpt lat="46.29814" lon="4.67984">
        <ele>452.6</ele>
        <time>2022-06-25T12:48:11Z</time>
      </trkpt>
      <trkpt lat="46.29812" lon="4.67988">
        <ele>452.8</ele>
        <time>2022-06-25T12:48:12Z</time>
      </trkpt>
      <trkpt lat="46.2981" lon="4.67992">
        <ele>453</ele>
        <time>2022-06-25T12:48:13Z</time>
      </trkpt>
      <trkpt lat="46.29808" lon="4.67996">
        <ele>453</ele>
        <time>2022-06-25T12:48:14Z</time>
      </trkpt>
      <trkpt lat="46.29806" lon="4.67999">
        <ele>453.6</ele>
        <time>2022-06-25T12:48:15Z</time>
      </trkpt>
      <trkpt lat="46.29804" lon="4.68003">
        <ele>453.6</ele>
        <time>2022-06-25T12:48:16Z</time>
      </trkpt>
      <trkpt lat="46.29802" lon="4.68007">
        <ele>454</ele>
        <time>2022-06-25T12:48:17Z</time>
      </trkpt>
      <trkpt lat="46.298" lon="4.68011">
        <ele>454.2</ele>
        <time>2022-06-25T12:48:18Z</time>
      </trkpt>
      <trkpt lat="46.29797" lon="4.68014">
        <ele>454.2</ele>
        <time>2022-06-25T12:48:19Z</time>
      </trkpt>
      <trkpt lat="46.29795" lon="4.68018">
        <ele>454.6</ele>
        <time>2022-06-25T12:48:20Z</time>
      </trkpt>
      <trkpt lat="46.29793" lon="4.68022">
        <ele>454.8</ele>
        <time>2022-06-25T12:48:21Z</time>
      </trkpt>
      <trkpt lat="46.29791" lon="4.68026">
        <ele>455.4</ele>
        <time>2022-06-25T12:48:22Z</time>
      </trkpt>
      <trkpt lat="46.29789" lon="4.6803">
        <ele>455.6</ele>
        <time>2022-06-25T12:48:23Z</time>
      </trkpt>
      <trkpt lat="46.29787" lon="4.68034">
        <ele>455.8</ele>
        <time>2022-06-25T12:48:24Z</time>
      </trkpt>
      <trkpt lat="46.29785" lon="4.68038">
        <ele>456</ele>
        <time>2022-06-25T12:48:25Z</time>
      </trkpt>
      <trkpt lat="46.29782" lon="4.68042">
        <ele>456</ele>
        <time>2022-06-25T12:48:26Z</time>
      </trkpt>
      <trkpt lat="46.2978" lon="4.68045">
        <ele>456.4</ele>
        <time>2022-06-25T12:48:27Z</time>
      </trkpt>
      <trkpt lat="46.29778" lon="4.68049">
        <ele>456.4</ele>
        <time>2022-06-25T12:48:28Z</time>
      </trkpt>
      <trkpt lat="46.29776" lon="4.68052">
        <ele>456.8</ele>
        <time>2022-06-25T12:48:29Z</time>
      </trkpt>
      <trkpt lat="46.29774" lon="4.68056">
        <ele>457</ele>
        <time>2022-06-25T12:48:30Z</time>
      </trkpt>
      <trkpt lat="46.29771" lon="4.6806">
        <ele>457.2</ele>
        <time>2022-06-25T12:48:31Z</time>
      </trkpt>
      <trkpt lat="46.29769" lon="4.68064">
        <ele>457.4</ele>
        <time>2022-06-25T12:48:32Z</time>
      </trkpt>
      <trkpt lat="46.29767" lon="4.68068">
        <ele>457.8</ele>
        <time>2022-06-25T12:48:33Z</time>
      </trkpt>
      <trkpt lat="46.29765" lon="4.68071">
        <ele>458</ele>
        <time>2022-06-25T12:48:34Z</time>
      </trkpt>
      <trkpt lat="46.29763" lon="4.68075">
        <ele>458.2</ele>
        <time>2022-06-25T12:48:35Z</time>
      </trkpt>
      <trkpt lat="46.29761" lon="4.68079">
        <ele>458.4</ele>
        <time>2022-06-25T12:48:36Z</time>
      </trkpt>
      <trkpt lat="46.29759" lon="4.68083">
        <ele>458.8</ele>
        <time>2022-06-25T12:48:37Z</time>
      </trkpt>
      <trkpt lat="46.29757" lon="4.68087">
        <ele>459</ele>
        <time>2022-06-25T12:48:38Z</time>
      </trkpt>
      <trkpt lat="46.29755" lon="4.68091">
        <ele>459</ele>
        <time>2022-06-25T12:48:39Z</time>
      </trkpt>
      <trkpt lat="46.29753" lon="4.68095">
        <ele>459.4</ele>
        <time>2022-06-25T12:48:40Z</time>
      </trkpt>
      <trkpt lat="46.29751" lon="4.68099">
        <ele>459.6</ele>
        <time>2022-06-25T12:48:41Z</time>
      </trkpt>
      <trkpt lat="46.29749" lon="4.68102">
        <ele>459.8</ele>
        <time>2022-06-25T12:48:42Z</time>
      </trkpt>
      <trkpt lat="46.29747" lon="4.68105">
        <ele>460</ele>
        <time>2022-06-25T12:48:43Z</time>
      </trkpt>
      <trkpt lat="46.29744" lon="4.68109">
        <ele>460.2</ele>
        <time>2022-06-25T12:48:44Z</time>
      </trkpt>
      <trkpt lat="46.29742" lon="4.68112">
        <ele>460.4</ele>
        <time>2022-06-25T12:48:45Z</time>
      </trkpt>
      <trkpt lat="46.2974" lon="4.68115">
        <ele>460.4</ele>
        <time>2022-06-25T12:48:46Z</time>
      </trkpt>
      <trkpt lat="46.29738" lon="4.68119">
        <ele>460.8</ele>
        <time>2022-06-25T12:48:47Z</time>
      </trkpt>
      <trkpt lat="46.29736" lon="4.68123">
        <ele>460.8</ele>
        <time>2022-06-25T12:48:48Z</time>
      </trkpt>
      <trkpt lat="46.29734" lon="4.68126">
        <ele>461</ele>
        <time>2022-06-25T12:48:49Z</time>
      </trkpt>
      <trkpt lat="46.29731" lon="4.6813">
        <ele>461</ele>
        <time>2022-06-25T12:48:50Z</time>
      </trkpt>
      <trkpt lat="46.29729" lon="4.68133">
        <ele>461.4</ele>
        <time>2022-06-25T12:48:51Z</time>
      </trkpt>
      <trkpt lat="46.29726" lon="4.68136">
        <ele>461.4</ele>
        <time>2022-06-25T12:48:52Z</time>
      </trkpt>
      <trkpt lat="46.29724" lon="4.68139">
        <ele>461.8</ele>
        <time>2022-06-25T12:48:53Z</time>
      </trkpt>
      <trkpt lat="46.29722" lon="4.68142">
        <ele>462</ele>
        <time>2022-06-25T12:48:54Z</time>
      </trkpt>
      <trkpt lat="46.29719" lon="4.68146">
        <ele>462</ele>
        <time>2022-06-25T12:48:55Z</time>
      </trkpt>
      <trkpt lat="46.29717" lon="4.68149">
        <ele>462.4</ele>
        <time>2022-06-25T12:48:56Z</time>
      </trkpt>
      <trkpt lat="46.29714" lon="4.68152">
        <ele>462.6</ele>
        <time>2022-06-25T12:48:57Z</time>
      </trkpt>
      <trkpt lat="46.29712" lon="4.68155">
        <ele>462.8</ele>
        <time>2022-06-25T12:48:58Z</time>
      </trkpt>
      <trkpt lat="46.2971" lon="4.68158">
        <ele>463</ele>
        <time>2022-06-25T12:48:59Z</time>
      </trkpt>
      <trkpt lat="46.29707" lon="4.68161">
        <ele>463.4</ele>
        <time>2022-06-25T12:49:00Z</time>
      </trkpt>
      <trkpt lat="46.29705" lon="4.68164">
        <ele>463.6</ele>
        <time>2022-06-25T12:49:01Z</time>
      </trkpt>
      <trkpt lat="46.29702" lon="4.68167">
        <ele>463.6</ele>
        <time>2022-06-25T12:49:02Z</time>
      </trkpt>
      <trkpt lat="46.29699" lon="4.6817">
        <ele>464</ele>
        <time>2022-06-25T12:49:03Z</time>
      </trkpt>
      <trkpt lat="46.29697" lon="4.68173">
        <ele>464</ele>
        <time>2022-06-25T12:49:04Z</time>
      </trkpt>
      <trkpt lat="46.29694" lon="4.68176">
        <ele>464.4</ele>
        <time>2022-06-25T12:49:05Z</time>
      </trkpt>
      <trkpt lat="46.29692" lon="4.6818">
        <ele>464.6</ele>
        <time>2022-06-25T12:49:06Z</time>
      </trkpt>
      <trkpt lat="46.29689" lon="4.68183">
        <ele>464.8</ele>
        <time>2022-06-25T12:49:07Z</time>
      </trkpt>
      <trkpt lat="46.29687" lon="4.68186">
        <ele>465</ele>
        <time>2022-06-25T12:49:08Z</time>
      </trkpt>
      <trkpt lat="46.29684" lon="4.68189">
        <ele>465.2</ele>
        <time>2022-06-25T12:49:09Z</time>
      </trkpt>
      <trkpt lat="46.29682" lon="4.68193">
        <ele>465.4</ele>
        <time>2022-06-25T12:49:10Z</time>
      </trkpt>
      <trkpt lat="46.29679" lon="4.68196">
        <ele>465.4</ele>
        <time>2022-06-25T12:49:11Z</time>
      </trkpt>
      <trkpt lat="46.29677" lon="4.682">
        <ele>465.8</ele>
        <time>2022-06-25T12:49:12Z</time>
      </trkpt>
      <trkpt lat="46.29674" lon="4.68203">
        <ele>466.2</ele>
        <time>2022-06-25T12:49:13Z</time>
      </trkpt>
      <trkpt lat="46.29672" lon="4.68206">
        <ele>466.4</ele>
        <time>2022-06-25T12:49:14Z</time>
      </trkpt>
      <trkpt lat="46.2967" lon="4.6821">
        <ele>466.6</ele>
        <time>2022-06-25T12:49:15Z</time>
      </trkpt>
      <trkpt lat="46.29667" lon="4.68213">
        <ele>466.8</ele>
        <time>2022-06-25T12:49:16Z</time>
      </trkpt>
      <trkpt lat="46.29665" lon="4.68217">
        <ele>467.2</ele>
        <time>2022-06-25T12:49:17Z</time>
      </trkpt>
      <trkpt lat="46.29662" lon="4.6822">
        <ele>467.4</ele>
        <time>2022-06-25T12:49:18Z</time>
      </trkpt>
      <trkpt lat="46.2966" lon="4.68224">
        <ele>467.4</ele>
        <time>2022-06-25T12:49:19Z</time>
      </trkpt>
      <trkpt lat="46.29657" lon="4.68227">
        <ele>467.6</ele>
        <time>2022-06-25T12:49:20Z</time>
      </trkpt>
      <trkpt lat="46.29655" lon="4.6823">
        <ele>468</ele>
        <time>2022-06-25T12:49:21Z</time>
      </trkpt>
      <trkpt lat="46.29652" lon="4.68233">
        <ele>468.2</ele>
        <time>2022-06-25T12:49:22Z</time>
      </trkpt>
      <trkpt lat="46.2965" lon="4.68236">
        <ele>468.4</ele>
        <time>2022-06-25T12:49:23Z</time>
      </trkpt>
      <trkpt lat="46.29647" lon="4.68238">
        <ele>468.6</ele>
        <time>2022-06-25T12:49:24Z</time>
      </trkpt>
      <trkpt lat="46.29644" lon="4.68241">
        <ele>468.8</ele>
        <time>2022-06-25T12:49:25Z</time>
      </trkpt>
      <trkpt lat="46.29641" lon="4.68243">
        <ele>468.8</ele>
        <time>2022-06-25T12:49:26Z</time>
      </trkpt>
      <trkpt lat="46.29638" lon="4.68246">
        <ele>469.2</ele>
        <time>2022-06-25T12:49:27Z</time>
      </trkpt>
      <trkpt lat="46.29636" lon="4.68249">
        <ele>469.4</ele>
        <time>2022-06-25T12:49:28Z</time>
      </trkpt>
      <trkpt lat="46.29633" lon="4.68251">
        <ele>469.6</ele>
        <time>2022-06-25T12:49:29Z</time>
      </trkpt>
      <trkpt lat="46.2963" lon="4.68254">
        <ele>469.8</ele>
        <time>2022-06-25T12:49:30Z</time>
      </trkpt>
      <trkpt lat="46.29627" lon="4.68257">
        <ele>470.2</ele>
        <time>2022-06-25T12:49:31Z</time>
      </trkpt>
      <trkpt lat="46.29624" lon="4.6826">
        <ele>470.2</ele>
        <time>2022-06-25T12:49:32Z</time>
      </trkpt>
      <trkpt lat="46.29622" lon="4.68263">
        <ele>470.4</ele>
        <time>2022-06-25T12:49:33Z</time>
      </trkpt>
      <trkpt lat="46.29619" lon="4.68266">
        <ele>470.8</ele>
        <time>2022-06-25T12:49:34Z</time>
      </trkpt>
      <trkpt lat="46.29616" lon="4.68269">
        <ele>471</ele>
        <time>2022-06-25T12:49:35Z</time>
      </trkpt>
      <trkpt lat="46.29614" lon="4.68272">
        <ele>471</ele>
        <time>2022-06-25T12:49:36Z</time>
      </trkpt>
      <trkpt lat="46.29611" lon="4.68275">
        <ele>471.2</ele>
        <time>2022-06-25T12:49:37Z</time>
      </trkpt>
      <trkpt lat="46.29608" lon="4.68278">
        <ele>471.2</ele>
        <time>2022-06-25T12:49:38Z</time>
      </trkpt>
      <trkpt lat="46.29606" lon="4.68281">
        <ele>471.6</ele>
        <time>2022-06-25T12:49:39Z</time>
      </trkpt>
      <trkpt lat="46.29603" lon="4.68284">
        <ele>471.6</ele>
        <time>2022-06-25T12:49:40Z</time>
      </trkpt>
      <trkpt lat="46.29601" lon="4.68287">
        <ele>472</ele>
        <time>2022-06-25T12:49:41Z</time>
      </trkpt>
      <trkpt lat="46.29598" lon="4.68291">
        <ele>472</ele>
        <time>2022-06-25T12:49:42Z</time>
      </trkpt>
      <trkpt lat="46.29596" lon="4.68295">
        <ele>472.4</ele>
        <time>2022-06-25T12:49:43Z</time>
      </trkpt>
      <trkpt lat="46.29594" lon="4.68299">
        <ele>472.6</ele>
        <time>2022-06-25T12:49:44Z</time>
      </trkpt>
      <trkpt lat="46.29592" lon="4.68303">
        <ele>472.8</ele>
        <time>2022-06-25T12:49:45Z</time>
      </trkpt>
      <trkpt lat="46.2959" lon="4.68308">
        <ele>473.2</ele>
        <time>2022-06-25T12:49:46Z</time>
      </trkpt>
      <trkpt lat="46.29588" lon="4.68312">
        <ele>473.4</ele>
        <time>2022-06-25T12:49:47Z</time>
      </trkpt>
      <trkpt lat="46.29586" lon="4.68316">
        <ele>473.6</ele>
        <time>2022-06-25T12:49:48Z</time>
      </trkpt>
      <trkpt lat="46.29584" lon="4.68321">
        <ele>473.8</ele>
        <time>2022-06-25T12:49:49Z</time>
      </trkpt>
      <trkpt lat="46.29582" lon="4.68325">
        <ele>474</ele>
        <time>2022-06-25T12:49:50Z</time>
      </trkpt>
      <trkpt lat="46.2958" lon="4.6833">
        <ele>474.2</ele>
        <time>2022-06-25T12:49:51Z</time>
      </trkpt>
      <trkpt lat="46.29579" lon="4.68334">
        <ele>474.4</ele>
        <time>2022-06-25T12:49:52Z</time>
      </trkpt>
      <trkpt lat="46.29577" lon="4.68339">
        <ele>474.4</ele>
        <time>2022-06-25T12:49:53Z</time>
      </trkpt>
      <trkpt lat="46.29575" lon="4.68343">
        <ele>474.8</ele>
        <time>2022-06-25T12:49:54Z</time>
      </trkpt>
      <trkpt lat="46.29574" lon="4.68347">
        <ele>475</ele>
        <time>2022-06-25T12:49:55Z</time>
      </trkpt>
      <trkpt lat="46.29572" lon="4.68351">
        <ele>475</ele>
        <time>2022-06-25T12:49:56Z</time>
      </trkpt>
      <trkpt lat="46.29571" lon="4.68355">
        <ele>475.4</ele>
        <time>2022-06-25T12:49:57Z</time>
      </trkpt>
      <trkpt lat="46.29569" lon="4.68359">
        <ele>475.4</ele>
        <time>2022-06-25T12:49:58Z</time>
      </trkpt>
      <trkpt lat="46.29567" lon="4.68363">
        <ele>475.8</ele>
        <time>2022-06-25T12:49:59Z</time>
      </trkpt>
      <trkpt lat="46.29566" lon="4.68368">
        <ele>476</ele>
        <time>2022-06-25T12:50:00Z</time>
      </trkpt>
      <trkpt lat="46.29565" lon="4.68373">
        <ele>476.4</ele>
        <time>2022-06-25T12:50:01Z</time>
      </trkpt>
      <trkpt lat="46.29563" lon="4.68377">
        <ele>476.6</ele>
        <time>2022-06-25T12:50:02Z</time>
      </trkpt>
      <trkpt lat="46.29562" lon="4.68381">
        <ele>476.8</ele>
        <time>2022-06-25T12:50:03Z</time>
      </trkpt>
      <trkpt lat="46.2956" lon="4.68385">
        <ele>476.8</ele>
        <time>2022-06-25T12:50:04Z</time>
      </trkpt>
      <trkpt lat="46.29559" lon="4.68389">
        <ele>477.2</ele>
        <time>2022-06-25T12:50:05Z</time>
      </trkpt>
      <trkpt lat="46.29557" lon="4.68394">
        <ele>477.2</ele>
        <time>2022-06-25T12:50:06Z</time>
      </trkpt>
      <trkpt lat="46.29556" lon="4.68398">
        <ele>477.6</ele>
        <time>2022-06-25T12:50:07Z</time>
      </trkpt>
      <trkpt lat="46.29555" lon="4.68403">
        <ele>477.6</ele>
        <time>2022-06-25T12:50:08Z</time>
      </trkpt>
      <trkpt lat="46.29554" lon="4.68408">
        <ele>478</ele>
        <time>2022-06-25T12:50:09Z</time>
      </trkpt>
      <trkpt lat="46.29553" lon="4.68413">
        <ele>478.2</ele>
        <time>2022-06-25T12:50:10Z</time>
      </trkpt>
      <trkpt lat="46.29552" lon="4.68418">
        <ele>478.4</ele>
        <time>2022-06-25T12:50:11Z</time>
      </trkpt>
      <trkpt lat="46.29551" lon="4.68422">
        <ele>478.6</ele>
        <time>2022-06-25T12:50:12Z</time>
      </trkpt>
      <trkpt lat="46.29551" lon="4.68427">
        <ele>478.6</ele>
        <time>2022-06-25T12:50:13Z</time>
      </trkpt>
      <trkpt lat="46.2955" lon="4.68432">
        <ele>479</ele>
        <time>2022-06-25T12:50:14Z</time>
      </trkpt>
      <trkpt lat="46.2955" lon="4.68436">
        <ele>479.4</ele>
        <time>2022-06-25T12:50:15Z</time>
      </trkpt>
      <trkpt lat="46.29549" lon="4.68441">
        <ele>479.6</ele>
        <time>2022-06-25T12:50:16Z</time>
      </trkpt>
      <trkpt lat="46.29549" lon="4.68446">
        <ele>479.6</ele>
        <time>2022-06-25T12:50:17Z</time>
      </trkpt>
      <trkpt lat="46.29548" lon="4.68451">
        <ele>479.8</ele>
        <time>2022-06-25T12:50:18Z</time>
      </trkpt>
      <trkpt lat="46.29546" lon="4.68455">
        <ele>479.8</ele>
        <time>2022-06-25T12:50:19Z</time>
      </trkpt>
      <trkpt lat="46.29546" lon="4.68459">
        <ele>480.2</ele>
        <time>2022-06-25T12:50:20Z</time>
      </trkpt>
      <trkpt lat="46.29545" lon="4.68463">
        <ele>480.4</ele>
        <time>2022-06-25T12:50:21Z</time>
      </trkpt>
      <trkpt lat="46.29543" lon="4.68467">
        <ele>480.4</ele>
        <time>2022-06-25T12:50:22Z</time>
      </trkpt>
      <trkpt lat="46.29543" lon="4.68471">
        <ele>480.8</ele>
        <time>2022-06-25T12:50:23Z</time>
      </trkpt>
      <trkpt lat="46.29541" lon="4.68474">
        <ele>480.8</ele>
        <time>2022-06-25T12:50:24Z</time>
      </trkpt>
      <trkpt lat="46.2954" lon="4.68478">
        <ele>481.2</ele>
        <time>2022-06-25T12:50:25Z</time>
      </trkpt>
      <trkpt lat="46.29539" lon="4.68482">
        <ele>481.2</ele>
        <time>2022-06-25T12:50:26Z</time>
      </trkpt>
      <trkpt lat="46.29538" lon="4.68486">
        <ele>481.8</ele>
        <time>2022-06-25T12:50:27Z</time>
      </trkpt>
      <trkpt lat="46.29536" lon="4.6849">
        <ele>482</ele>
        <time>2022-06-25T12:50:28Z</time>
      </trkpt>
      <trkpt lat="46.29535" lon="4.68494">
        <ele>482.2</ele>
        <time>2022-06-25T12:50:29Z</time>
      </trkpt>
      <trkpt lat="46.29533" lon="4.68498">
        <ele>482.4</ele>
        <time>2022-06-25T12:50:30Z</time>
      </trkpt>
      <trkpt lat="46.29531" lon="4.68501">
        <ele>482.8</ele>
        <time>2022-06-25T12:50:31Z</time>
      </trkpt>
      <trkpt lat="46.29529" lon="4.68504">
        <ele>483</ele>
        <time>2022-06-25T12:50:32Z</time>
      </trkpt>
      <trkpt lat="46.29527" lon="4.68508">
        <ele>483</ele>
        <time>2022-06-25T12:50:33Z</time>
      </trkpt>
      <trkpt lat="46.29526" lon="4.68512">
        <ele>483.4</ele>
        <time>2022-06-25T12:50:34Z</time>
      </trkpt>
      <trkpt lat="46.29525" lon="4.68516">
        <ele>483.6</ele>
        <time>2022-06-25T12:50:35Z</time>
      </trkpt>
      <trkpt lat="46.29524" lon="4.6852">
        <ele>483.6</ele>
        <time>2022-06-25T12:50:36Z</time>
      </trkpt>
      <trkpt lat="46.29522" lon="4.68524">
        <ele>484</ele>
        <time>2022-06-25T12:50:37Z</time>
      </trkpt>
      <trkpt lat="46.29521" lon="4.68528">
        <ele>484</ele>
        <time>2022-06-25T12:50:38Z</time>
      </trkpt>
      <trkpt lat="46.29519" lon="4.68532">
        <ele>484.2</ele>
        <time>2022-06-25T12:50:39Z</time>
      </trkpt>
      <trkpt lat="46.29518" lon="4.68536">
        <ele>484.2</ele>
        <time>2022-06-25T12:50:40Z</time>
      </trkpt>
      <trkpt lat="46.29516" lon="4.6854">
        <ele>484.6</ele>
        <time>2022-06-25T12:50:41Z</time>
      </trkpt>
      <trkpt lat="46.29515" lon="4.68544">
        <ele>484.6</ele>
        <time>2022-06-25T12:50:42Z</time>
      </trkpt>
      <trkpt lat="46.29513" lon="4.68547">
        <ele>485</ele>
        <time>2022-06-25T12:50:43Z</time>
      </trkpt>
      <trkpt lat="46.29511" lon="4.6855">
        <ele>485.2</ele>
        <time>2022-06-25T12:50:44Z</time>
      </trkpt>
      <trkpt lat="46.2951" lon="4.68553">
        <ele>485.2</ele>
        <time>2022-06-25T12:50:45Z</time>
      </trkpt>
      <trkpt lat="46.29508" lon="4.68557">
        <ele>485.4</ele>
        <time>2022-06-25T12:50:46Z</time>
      </trkpt>
      <trkpt lat="46.29507" lon="4.6856">
        <ele>485.6</ele>
        <time>2022-06-25T12:50:47Z</time>
      </trkpt>
      <trkpt lat="46.29506" lon="4.68564">
        <ele>485.6</ele>
        <time>2022-06-25T12:50:48Z</time>
      </trkpt>
      <trkpt lat="46.29504" lon="4.68566">
        <ele>486</ele>
        <time>2022-06-25T12:50:49Z</time>
      </trkpt>
      <trkpt lat="46.29502" lon="4.68569">
        <ele>486</ele>
        <time>2022-06-25T12:50:50Z</time>
      </trkpt>
      <trkpt lat="46.295" lon="4.68572">
        <ele>486.4</ele>
        <time>2022-06-25T12:50:51Z</time>
      </trkpt>
      <trkpt lat="46.29498" lon="4.68575">
        <ele>486.6</ele>
        <time>2022-06-25T12:50:52Z</time>
      </trkpt>
      <trkpt lat="46.29496" lon="4.68578">
        <ele>486.8</ele>
        <time>2022-06-25T12:50:53Z</time>
      </trkpt>
      <trkpt lat="46.29493" lon="4.68581">
        <ele>486.8</ele>
        <time>2022-06-25T12:50:54Z</time>
      </trkpt>
      <trkpt lat="46.2949" lon="4.68584">
        <ele>487.2</ele>
        <time>2022-06-25T12:50:55Z</time>
      </trkpt>
      <trkpt lat="46.29487" lon="4.68587">
        <ele>487.6</ele>
        <time>2022-06-25T12:50:56Z</time>
      </trkpt>
      <trkpt lat="46.29484" lon="4.6859">
        <ele>487.8</ele>
        <time>2022-06-25T12:50:57Z</time>
      </trkpt>
      <trkpt lat="46.29481" lon="4.68592">
        <ele>488</ele>
        <time>2022-06-25T12:50:58Z</time>
      </trkpt>
      <trkpt lat="46.29478" lon="4.68595">
        <ele>488.4</ele>
        <time>2022-06-25T12:50:59Z</time>
      </trkpt>
      <trkpt lat="46.29475" lon="4.68597">
        <ele>488.6</ele>
        <time>2022-06-25T12:51:00Z</time>
      </trkpt>
      <trkpt lat="46.29472" lon="4.68599">
        <ele>488.8</ele>
        <time>2022-06-25T12:51:01Z</time>
      </trkpt>
      <trkpt lat="46.29469" lon="4.68602">
        <ele>488.8</ele>
        <time>2022-06-25T12:51:02Z</time>
      </trkpt>
      <trkpt lat="46.29467" lon="4.68604">
        <ele>489</ele>
        <time>2022-06-25T12:51:03Z</time>
      </trkpt>
      <trkpt lat="46.29464" lon="4.68606">
        <ele>489</ele>
        <time>2022-06-25T12:51:04Z</time>
      </trkpt>
      <trkpt lat="46.29461" lon="4.68608">
        <ele>489.4</ele>
        <time>2022-06-25T12:51:05Z</time>
      </trkpt>
      <trkpt lat="46.29459" lon="4.6861">
        <ele>489.4</ele>
        <time>2022-06-25T12:51:06Z</time>
      </trkpt>
      <trkpt lat="46.29457" lon="4.68612">
        <ele>489.6</ele>
        <time>2022-06-25T12:51:07Z</time>
      </trkpt>
      <trkpt lat="46.29455" lon="4.68614">
        <ele>489.6</ele>
        <time>2022-06-25T12:51:08Z</time>
      </trkpt>
      <trkpt lat="46.29453" lon="4.68617">
        <ele>490</ele>
        <time>2022-06-25T12:51:09Z</time>
      </trkpt>
      <trkpt lat="46.2945" lon="4.6862">
        <ele>490</ele>
        <time>2022-06-25T12:51:10Z</time>
      </trkpt>
      <trkpt lat="46.29448" lon="4.68623">
        <ele>490.4</ele>
        <time>2022-06-25T12:51:11Z</time>
      </trkpt>
      <trkpt lat="46.29446" lon="4.68626">
        <ele>490.6</ele>
        <time>2022-06-25T12:51:12Z</time>
      </trkpt>
      <trkpt lat="46.29444" lon="4.68628">
        <ele>490.6</ele>
        <time>2022-06-25T12:51:13Z</time>
      </trkpt>
      <trkpt lat="46.29442" lon="4.68631">
        <ele>490.8</ele>
        <time>2022-06-25T12:51:14Z</time>
      </trkpt>
      <trkpt lat="46.2944" lon="4.68634">
        <ele>490.8</ele>
        <time>2022-06-25T12:51:15Z</time>
      </trkpt>
      <trkpt lat="46.29438" lon="4.68637">
        <ele>491.4</ele>
        <time>2022-06-25T12:51:16Z</time>
      </trkpt>
      <trkpt lat="46.29436" lon="4.68639">
        <ele>491.4</ele>
        <time>2022-06-25T12:51:17Z</time>
      </trkpt>
      <trkpt lat="46.29434" lon="4.68641">
        <ele>491.6</ele>
        <time>2022-06-25T12:51:18Z</time>
      </trkpt>
      <trkpt lat="46.29432" lon="4.68643">
        <ele>491.8</ele>
        <time>2022-06-25T12:51:19Z</time>
      </trkpt>
      <trkpt lat="46.29429" lon="4.68645">
        <ele>492</ele>
        <time>2022-06-25T12:51:20Z</time>
      </trkpt>
      <trkpt lat="46.29427" lon="4.68646">
        <ele>492</ele>
        <time>2022-06-25T12:51:21Z</time>
      </trkpt>
      <trkpt lat="46.29425" lon="4.68648">
        <ele>492.4</ele>
        <time>2022-06-25T12:51:22Z</time>
      </trkpt>
      <trkpt lat="46.29422" lon="4.6865">
        <ele>492.4</ele>
        <time>2022-06-25T12:51:23Z</time>
      </trkpt>
      <trkpt lat="46.2942" lon="4.68653">
        <ele>492.8</ele>
        <time>2022-06-25T12:51:24Z</time>
      </trkpt>
      <trkpt lat="46.29417" lon="4.68658">
        <ele>492.8</ele>
        <time>2022-06-25T12:51:25Z</time>
      </trkpt>
      <trkpt lat="46.29415" lon="4.68662">
        <ele>493</ele>
        <time>2022-06-25T12:51:26Z</time>
      </trkpt>
      <trkpt lat="46.29413" lon="4.68665">
        <ele>493</ele>
        <time>2022-06-25T12:51:27Z</time>
      </trkpt>
      <trkpt lat="46.29411" lon="4.68668">
        <ele>493.4</ele>
        <time>2022-06-25T12:51:28Z</time>
      </trkpt>
      <trkpt lat="46.29408" lon="4.6867">
        <ele>493.4</ele>
        <time>2022-06-25T12:51:29Z</time>
      </trkpt>
      <trkpt lat="46.29406" lon="4.68673">
        <ele>493.8</ele>
        <time>2022-06-25T12:51:30Z</time>
      </trkpt>
      <trkpt lat="46.29403" lon="4.68675">
        <ele>493.8</ele>
        <time>2022-06-25T12:51:31Z</time>
      </trkpt>
      <trkpt lat="46.29401" lon="4.68678">
        <ele>494.2</ele>
        <time>2022-06-25T12:51:32Z</time>
      </trkpt>
      <trkpt lat="46.29399" lon="4.68681">
        <ele>494.4</ele>
        <time>2022-06-25T12:51:33Z</time>
      </trkpt>
      <trkpt lat="46.29397" lon="4.68684">
        <ele>494.4</ele>
        <time>2022-06-25T12:51:34Z</time>
      </trkpt>
      <trkpt lat="46.29394" lon="4.68686">
        <ele>494.8</ele>
        <time>2022-06-25T12:51:35Z</time>
      </trkpt>
      <trkpt lat="46.29392" lon="4.68688">
        <ele>495</ele>
        <time>2022-06-25T12:51:36Z</time>
      </trkpt>
      <trkpt lat="46.29389" lon="4.6869">
        <ele>495</ele>
        <time>2022-06-25T12:51:37Z</time>
      </trkpt>
      <trkpt lat="46.29387" lon="4.68692">
        <ele>495.4</ele>
        <time>2022-06-25T12:51:38Z</time>
      </trkpt>
      <trkpt lat="46.29385" lon="4.68694">
        <ele>495.4</ele>
        <time>2022-06-25T12:51:39Z</time>
      </trkpt>
      <trkpt lat="46.29383" lon="4.68695">
        <ele>495.8</ele>
        <time>2022-06-25T12:51:40Z</time>
      </trkpt>
      <trkpt lat="46.2938" lon="4.68697">
        <ele>495.8</ele>
        <time>2022-06-25T12:51:41Z</time>
      </trkpt>
      <trkpt lat="46.29378" lon="4.68699">
        <ele>496.2</ele>
        <time>2022-06-25T12:51:42Z</time>
      </trkpt>
      <trkpt lat="46.29376" lon="4.687">
        <ele>496.2</ele>
        <time>2022-06-25T12:51:43Z</time>
      </trkpt>
      <trkpt lat="46.29373" lon="4.68701">
        <ele>496.4</ele>
        <time>2022-06-25T12:51:44Z</time>
      </trkpt>
      <trkpt lat="46.29371" lon="4.68703">
        <ele>496.6</ele>
        <time>2022-06-25T12:51:45Z</time>
      </trkpt>
      <trkpt lat="46.29369" lon="4.68704">
        <ele>496.6</ele>
        <time>2022-06-25T12:51:46Z</time>
      </trkpt>
      <trkpt lat="46.29367" lon="4.68706">
        <ele>497</ele>
        <time>2022-06-25T12:51:47Z</time>
      </trkpt>
      <trkpt lat="46.29364" lon="4.68707">
        <ele>497</ele>
        <time>2022-06-25T12:51:48Z</time>
      </trkpt>
      <trkpt lat="46.29362" lon="4.68709">
        <ele>497.4</ele>
        <time>2022-06-25T12:51:49Z</time>
      </trkpt>
      <trkpt lat="46.2936" lon="4.68711">
        <ele>497.4</ele>
        <time>2022-06-25T12:51:50Z</time>
      </trkpt>
      <trkpt lat="46.29357" lon="4.68712">
        <ele>497.8</ele>
        <time>2022-06-25T12:51:51Z</time>
      </trkpt>
      <trkpt lat="46.29355" lon="4.68714">
        <ele>497.8</ele>
        <time>2022-06-25T12:51:52Z</time>
      </trkpt>
      <trkpt lat="46.29352" lon="4.68715">
        <ele>498</ele>
        <time>2022-06-25T12:51:53Z</time>
      </trkpt>
      <trkpt lat="46.2935" lon="4.68716">
        <ele>498</ele>
        <time>2022-06-25T12:51:54Z</time>
      </trkpt>
      <trkpt lat="46.29347" lon="4.68718">
        <ele>498.4</ele>
        <time>2022-06-25T12:51:55Z</time>
      </trkpt>
      <trkpt lat="46.29342" lon="4.68722">
        <ele>498.4</ele>
        <time>2022-06-25T12:51:56Z</time>
      </trkpt>
      <trkpt lat="46.29339" lon="4.68723">
        <ele>498.6</ele>
        <time>2022-06-25T12:51:57Z</time>
      </trkpt>
      <trkpt lat="46.29336" lon="4.68724">
        <ele>498.6</ele>
        <time>2022-06-25T12:51:58Z</time>
      </trkpt>
      <trkpt lat="46.29333" lon="4.68725">
        <ele>499</ele>
        <time>2022-06-25T12:51:59Z</time>
      </trkpt>
      <trkpt lat="46.2933" lon="4.68725">
        <ele>499</ele>
        <time>2022-06-25T12:52:00Z</time>
      </trkpt>
      <trkpt lat="46.29328" lon="4.68727">
        <ele>499.4</ele>
        <time>2022-06-25T12:52:01Z</time>
      </trkpt>
      <trkpt lat="46.29325" lon="4.68729">
        <ele>499.4</ele>
        <time>2022-06-25T12:52:02Z</time>
      </trkpt>
      <trkpt lat="46.29323" lon="4.68731">
        <ele>499.4</ele>
        <time>2022-06-25T12:52:03Z</time>
      </trkpt>
      <trkpt lat="46.29319" lon="4.68733">
        <ele>499.6</ele>
        <time>2022-06-25T12:52:04Z</time>
      </trkpt>
      <trkpt lat="46.29316" lon="4.68735">
        <ele>499.8</ele>
        <time>2022-06-25T12:52:05Z</time>
      </trkpt>
      <trkpt lat="46.29313" lon="4.68737">
        <ele>499.8</ele>
        <time>2022-06-25T12:52:06Z</time>
      </trkpt>
      <trkpt lat="46.2931" lon="4.68739">
        <ele>500.2</ele>
        <time>2022-06-25T12:52:07Z</time>
      </trkpt>
      <trkpt lat="46.29307" lon="4.68741">
        <ele>500.2</ele>
        <time>2022-06-25T12:52:08Z</time>
      </trkpt>
      <trkpt lat="46.29304" lon="4.68743">
        <ele>500.4</ele>
        <time>2022-06-25T12:52:09Z</time>
      </trkpt>
      <trkpt lat="46.29301" lon="4.68745">
        <ele>500.4</ele>
        <time>2022-06-25T12:52:10Z</time>
      </trkpt>
      <trkpt lat="46.29298" lon="4.68748">
        <ele>500.8</ele>
        <time>2022-06-25T12:52:11Z</time>
      </trkpt>
      <trkpt lat="46.29295" lon="4.68751">
        <ele>500.8</ele>
        <time>2022-06-25T12:52:12Z</time>
      </trkpt>
      <trkpt lat="46.29292" lon="4.68753">
        <ele>501</ele>
        <time>2022-06-25T12:52:13Z</time>
      </trkpt>
      <trkpt lat="46.29289" lon="4.68755">
        <ele>501</ele>
        <time>2022-06-25T12:52:14Z</time>
      </trkpt>
      <trkpt lat="46.29287" lon="4.68757">
        <ele>501.4</ele>
        <time>2022-06-25T12:52:15Z</time>
      </trkpt>
      <trkpt lat="46.29284" lon="4.68759">
        <ele>501.4</ele>
        <time>2022-06-25T12:52:16Z</time>
      </trkpt>
      <trkpt lat="46.29281" lon="4.68762">
        <ele>501.8</ele>
        <time>2022-06-25T12:52:17Z</time>
      </trkpt>
      <trkpt lat="46.29279" lon="4.68764">
        <ele>501.8</ele>
        <time>2022-06-25T12:52:18Z</time>
      </trkpt>
      <trkpt lat="46.29276" lon="4.68767">
        <ele>502</ele>
        <time>2022-06-25T12:52:19Z</time>
      </trkpt>
      <trkpt lat="46.29274" lon="4.68769">
        <ele>502</ele>
        <time>2022-06-25T12:52:20Z</time>
      </trkpt>
      <trkpt lat="46.29271" lon="4.68771">
        <ele>502.4</ele>
        <time>2022-06-25T12:52:21Z</time>
      </trkpt>
      <trkpt lat="46.29269" lon="4.68773">
        <ele>502.4</ele>
        <time>2022-06-25T12:52:22Z</time>
      </trkpt>
      <trkpt lat="46.29266" lon="4.68775">
        <ele>502.8</ele>
        <time>2022-06-25T12:52:23Z</time>
      </trkpt>
      <trkpt lat="46.29263" lon="4.68776">
        <ele>502.8</ele>
        <time>2022-06-25T12:52:24Z</time>
      </trkpt>
      <trkpt lat="46.2926" lon="4.68779">
        <ele>503.2</ele>
        <time>2022-06-25T12:52:25Z</time>
      </trkpt>
      <trkpt lat="46.29257" lon="4.68781">
        <ele>503.2</ele>
        <time>2022-06-25T12:52:26Z</time>
      </trkpt>
      <trkpt lat="46.29254" lon="4.68783">
        <ele>503.6</ele>
        <time>2022-06-25T12:52:27Z</time>
      </trkpt>
      <trkpt lat="46.29251" lon="4.68785">
        <ele>503.6</ele>
        <time>2022-06-25T12:52:28Z</time>
      </trkpt>
      <trkpt lat="46.29249" lon="4.68787">
        <ele>504</ele>
        <time>2022-06-25T12:52:29Z</time>
      </trkpt>
      <trkpt lat="46.29246" lon="4.68789">
        <ele>504</ele>
        <time>2022-06-25T12:52:30Z</time>
      </trkpt>
      <trkpt lat="46.29243" lon="4.68791">
        <ele>504.2</ele>
        <time>2022-06-25T12:52:31Z</time>
      </trkpt>
      <trkpt lat="46.2924" lon="4.68794">
        <ele>504.2</ele>
        <time>2022-06-25T12:52:32Z</time>
      </trkpt>
      <trkpt lat="46.29237" lon="4.68796">
        <ele>504.6</ele>
        <time>2022-06-25T12:52:33Z</time>
      </trkpt>
      <trkpt lat="46.29235" lon="4.68798">
        <ele>504.6</ele>
        <time>2022-06-25T12:52:34Z</time>
      </trkpt>
      <trkpt lat="46.29232" lon="4.68799">
        <ele>505</ele>
        <time>2022-06-25T12:52:35Z</time>
      </trkpt>
      <trkpt lat="46.2923" lon="4.688">
        <ele>505</ele>
        <time>2022-06-25T12:52:36Z</time>
      </trkpt>
      <trkpt lat="46.29227" lon="4.68802">
        <ele>505.2</ele>
        <time>2022-06-25T12:52:37Z</time>
      </trkpt>
      <trkpt lat="46.29224" lon="4.68804">
        <ele>505.2</ele>
        <time>2022-06-25T12:52:38Z</time>
      </trkpt>
      <trkpt lat="46.29222" lon="4.68806">
        <ele>505.6</ele>
        <time>2022-06-25T12:52:39Z</time>
      </trkpt>
      <trkpt lat="46.29219" lon="4.68807">
        <ele>505.6</ele>
        <time>2022-06-25T12:52:40Z</time>
      </trkpt>
      <trkpt lat="46.29217" lon="4.68809">
        <ele>506</ele>
        <time>2022-06-25T12:52:41Z</time>
      </trkpt>
      <trkpt lat="46.29214" lon="4.6881">
        <ele>506</ele>
        <time>2022-06-25T12:52:42Z</time>
      </trkpt>
      <trkpt lat="46.29212" lon="4.68813">
        <ele>506.4</ele>
        <time>2022-06-25T12:52:43Z</time>
      </trkpt>
      <trkpt lat="46.29209" lon="4.68814">
        <ele>506.6</ele>
        <time>2022-06-25T12:52:44Z</time>
      </trkpt>
      <trkpt lat="46.29206" lon="4.68816">
        <ele>506.6</ele>
        <time>2022-06-25T12:52:45Z</time>
      </trkpt>
      <trkpt lat="46.29204" lon="4.68818">
        <ele>506.8</ele>
        <time>2022-06-25T12:52:46Z</time>
      </trkpt>
      <trkpt lat="46.29201" lon="4.68819">
        <ele>507.2</ele>
        <time>2022-06-25T12:52:47Z</time>
      </trkpt>
      <trkpt lat="46.29199" lon="4.6882">
        <ele>507.4</ele>
        <time>2022-06-25T12:52:48Z</time>
      </trkpt>
      <trkpt lat="46.29196" lon="4.68822">
        <ele>507.6</ele>
        <time>2022-06-25T12:52:49Z</time>
      </trkpt>
      <trkpt lat="46.29194" lon="4.68824">
        <ele>507.6</ele>
        <time>2022-06-25T12:52:50Z</time>
      </trkpt>
      <trkpt lat="46.29191" lon="4.68826">
        <ele>508</ele>
        <time>2022-06-25T12:52:51Z</time>
      </trkpt>
      <trkpt lat="46.29188" lon="4.68827">
        <ele>508</ele>
        <time>2022-06-25T12:52:52Z</time>
      </trkpt>
      <trkpt lat="46.29185" lon="4.68829">
        <ele>508.2</ele>
        <time>2022-06-25T12:52:53Z</time>
      </trkpt>
      <trkpt lat="46.29183" lon="4.68831">
        <ele>508.4</ele>
        <time>2022-06-25T12:52:54Z</time>
      </trkpt>
      <trkpt lat="46.2918" lon="4.68833">
        <ele>508.8</ele>
        <time>2022-06-25T12:52:55Z</time>
      </trkpt>
      <trkpt lat="46.29178" lon="4.68835">
        <ele>509</ele>
        <time>2022-06-25T12:52:56Z</time>
      </trkpt>
      <trkpt lat="46.29175" lon="4.68837">
        <ele>509</ele>
        <time>2022-06-25T12:52:57Z</time>
      </trkpt>
      <trkpt lat="46.29173" lon="4.68839">
        <ele>509.4</ele>
        <time>2022-06-25T12:52:58Z</time>
      </trkpt>
      <trkpt lat="46.2917" lon="4.68841">
        <ele>509.4</ele>
        <time>2022-06-25T12:52:59Z</time>
      </trkpt>
      <trkpt lat="46.29168" lon="4.68842">
        <ele>509.6</ele>
        <time>2022-06-25T12:53:00Z</time>
      </trkpt>
      <trkpt lat="46.29165" lon="4.68844">
        <ele>509.6</ele>
        <time>2022-06-25T12:53:01Z</time>
      </trkpt>
      <trkpt lat="46.29163" lon="4.68847">
        <ele>510</ele>
        <time>2022-06-25T12:53:02Z</time>
      </trkpt>
      <trkpt lat="46.29161" lon="4.68849">
        <ele>510.2</ele>
        <time>2022-06-25T12:53:03Z</time>
      </trkpt>
      <trkpt lat="46.29159" lon="4.68851">
        <ele>510.4</ele>
        <time>2022-06-25T12:53:04Z</time>
      </trkpt>
      <trkpt lat="46.29157" lon="4.68853">
        <ele>510.4</ele>
        <time>2022-06-25T12:53:05Z</time>
      </trkpt>
      <trkpt lat="46.29155" lon="4.68856">
        <ele>510.8</ele>
        <time>2022-06-25T12:53:06Z</time>
      </trkpt>
      <trkpt lat="46.29153" lon="4.68858">
        <ele>510.8</ele>
        <time>2022-06-25T12:53:07Z</time>
      </trkpt>
      <trkpt lat="46.29151" lon="4.6886">
        <ele>511.2</ele>
        <time>2022-06-25T12:53:08Z</time>
      </trkpt>
      <trkpt lat="46.29149" lon="4.68862">
        <ele>511.2</ele>
        <time>2022-06-25T12:53:09Z</time>
      </trkpt>
      <trkpt lat="46.29147" lon="4.68865">
        <ele>511.6</ele>
        <time>2022-06-25T12:53:10Z</time>
      </trkpt>
      <trkpt lat="46.29146" lon="4.68868">
        <ele>511.6</ele>
        <time>2022-06-25T12:53:11Z</time>
      </trkpt>
      <trkpt lat="46.29144" lon="4.68871">
        <ele>512</ele>
        <time>2022-06-25T12:53:12Z</time>
      </trkpt>
      <trkpt lat="46.29142" lon="4.68874">
        <ele>512</ele>
        <time>2022-06-25T12:53:13Z</time>
      </trkpt>
      <trkpt lat="46.29141" lon="4.68877">
        <ele>512.2</ele>
        <time>2022-06-25T12:53:14Z</time>
      </trkpt>
      <trkpt lat="46.2914" lon="4.68882">
        <ele>512.2</ele>
        <time>2022-06-25T12:53:15Z</time>
      </trkpt>
      <trkpt lat="46.29139" lon="4.68888">
        <ele>512.6</ele>
        <time>2022-06-25T12:53:16Z</time>
      </trkpt>
      <trkpt lat="46.29138" lon="4.68893">
        <ele>512.6</ele>
        <time>2022-06-25T12:53:17Z</time>
      </trkpt>
      <trkpt lat="46.29137" lon="4.68898">
        <ele>513</ele>
        <time>2022-06-25T12:53:18Z</time>
      </trkpt>
      <trkpt lat="46.29136" lon="4.68902">
        <ele>513</ele>
        <time>2022-06-25T12:53:19Z</time>
      </trkpt>
      <trkpt lat="46.29135" lon="4.68906">
        <ele>513.4</ele>
        <time>2022-06-25T12:53:20Z</time>
      </trkpt>
      <trkpt lat="46.29134" lon="4.6891">
        <ele>513.4</ele>
        <time>2022-06-25T12:53:21Z</time>
      </trkpt>
      <trkpt lat="46.29134" lon="4.68914">
        <ele>513.8</ele>
        <time>2022-06-25T12:53:22Z</time>
      </trkpt>
      <trkpt lat="46.29134" lon="4.68918">
        <ele>513.8</ele>
        <time>2022-06-25T12:53:23Z</time>
      </trkpt>
      <trkpt lat="46.29134" lon="4.68922">
        <ele>514</ele>
        <time>2022-06-25T12:53:24Z</time>
      </trkpt>
      <trkpt lat="46.29133" lon="4.68927">
        <ele>514</ele>
        <time>2022-06-25T12:53:25Z</time>
      </trkpt>
      <trkpt lat="46.29133" lon="4.6893">
        <ele>514.4</ele>
        <time>2022-06-25T12:53:26Z</time>
      </trkpt>
      <trkpt lat="46.29132" lon="4.68935">
        <ele>514.4</ele>
        <time>2022-06-25T12:53:27Z</time>
      </trkpt>
      <trkpt lat="46.29132" lon="4.68939">
        <ele>514.6</ele>
        <time>2022-06-25T12:53:28Z</time>
      </trkpt>
      <trkpt lat="46.29132" lon="4.68943">
        <ele>514.6</ele>
        <time>2022-06-25T12:53:29Z</time>
      </trkpt>
      <trkpt lat="46.29132" lon="4.68947">
        <ele>515</ele>
        <time>2022-06-25T12:53:30Z</time>
      </trkpt>
      <trkpt lat="46.29132" lon="4.68951">
        <ele>515</ele>
        <time>2022-06-25T12:53:31Z</time>
      </trkpt>
      <trkpt lat="46.29132" lon="4.68955">
        <ele>515.2</ele>
        <time>2022-06-25T12:53:32Z</time>
      </trkpt>
      <trkpt lat="46.29132" lon="4.68959">
        <ele>515.2</ele>
        <time>2022-06-25T12:53:33Z</time>
      </trkpt>
      <trkpt lat="46.29132" lon="4.68964">
        <ele>515.6</ele>
        <time>2022-06-25T12:53:34Z</time>
      </trkpt>
      <trkpt lat="46.29133" lon="4.68968">
        <ele>515.6</ele>
        <time>2022-06-25T12:53:35Z</time>
      </trkpt>
      <trkpt lat="46.29132" lon="4.68972">
        <ele>515.8</ele>
        <time>2022-06-25T12:53:36Z</time>
      </trkpt>
      <trkpt lat="46.29132" lon="4.68977">
        <ele>515.8</ele>
        <time>2022-06-25T12:53:37Z</time>
      </trkpt>
      <trkpt lat="46.29132" lon="4.68981">
        <ele>516.2</ele>
        <time>2022-06-25T12:53:38Z</time>
      </trkpt>
      <trkpt lat="46.29132" lon="4.68985">
        <ele>516.2</ele>
        <time>2022-06-25T12:53:39Z</time>
      </trkpt>
      <trkpt lat="46.29133" lon="4.6899">
        <ele>516.6</ele>
        <time>2022-06-25T12:53:40Z</time>
      </trkpt>
      <trkpt lat="46.29133" lon="4.68994">
        <ele>516.6</ele>
        <time>2022-06-25T12:53:41Z</time>
      </trkpt>
      <trkpt lat="46.29133" lon="4.68998">
        <ele>516.8</ele>
        <time>2022-06-25T12:53:42Z</time>
      </trkpt>
      <trkpt lat="46.29133" lon="4.69002">
        <ele>516.8</ele>
        <time>2022-06-25T12:53:43Z</time>
      </trkpt>
      <trkpt lat="46.29134" lon="4.69007">
        <ele>517.2</ele>
        <time>2022-06-25T12:53:44Z</time>
      </trkpt>
      <trkpt lat="46.29134" lon="4.69011">
        <ele>517.4</ele>
        <time>2022-06-25T12:53:45Z</time>
      </trkpt>
      <trkpt lat="46.29135" lon="4.69016">
        <ele>517.6</ele>
        <time>2022-06-25T12:53:46Z</time>
      </trkpt>
      <trkpt lat="46.29136" lon="4.69021">
        <ele>517.6</ele>
        <time>2022-06-25T12:53:47Z</time>
      </trkpt>
      <trkpt lat="46.29137" lon="4.69025">
        <ele>517.6</ele>
        <time>2022-06-25T12:53:48Z</time>
      </trkpt>
      <trkpt lat="46.29138" lon="4.6903">
        <ele>518</ele>
        <time>2022-06-25T12:53:49Z</time>
      </trkpt>
      <trkpt lat="46.2914" lon="4.69034">
        <ele>518</ele>
        <time>2022-06-25T12:53:50Z</time>
      </trkpt>
      <trkpt lat="46.29141" lon="4.69038">
        <ele>518.2</ele>
        <time>2022-06-25T12:53:51Z</time>
      </trkpt>
      <trkpt lat="46.29142" lon="4.69042">
        <ele>518.6</ele>
        <time>2022-06-25T12:53:52Z</time>
      </trkpt>
      <trkpt lat="46.29144" lon="4.69045">
        <ele>518.8</ele>
        <time>2022-06-25T12:53:53Z</time>
      </trkpt>
      <trkpt lat="46.29146" lon="4.69049">
        <ele>518.8</ele>
        <time>2022-06-25T12:53:54Z</time>
      </trkpt>
      <trkpt lat="46.29148" lon="4.69052">
        <ele>519</ele>
        <time>2022-06-25T12:53:55Z</time>
      </trkpt>
      <trkpt lat="46.29149" lon="4.69056">
        <ele>519</ele>
        <time>2022-06-25T12:53:56Z</time>
      </trkpt>
      <trkpt lat="46.29151" lon="4.69059">
        <ele>519.4</ele>
        <time>2022-06-25T12:53:57Z</time>
      </trkpt>
      <trkpt lat="46.29152" lon="4.69063">
        <ele>519.4</ele>
        <time>2022-06-25T12:53:58Z</time>
      </trkpt>
      <trkpt lat="46.29154" lon="4.69066">
        <ele>519.8</ele>
        <time>2022-06-25T12:53:59Z</time>
      </trkpt>
      <trkpt lat="46.29155" lon="4.6907">
        <ele>519.8</ele>
        <time>2022-06-25T12:54:00Z</time>
      </trkpt>
      <trkpt lat="46.29157" lon="4.69073">
        <ele>520</ele>
        <time>2022-06-25T12:54:01Z</time>
      </trkpt>
      <trkpt lat="46.29158" lon="4.69076">
        <ele>520</ele>
        <time>2022-06-25T12:54:02Z</time>
      </trkpt>
      <trkpt lat="46.2916" lon="4.6908">
        <ele>520.4</ele>
        <time>2022-06-25T12:54:03Z</time>
      </trkpt>
      <trkpt lat="46.29161" lon="4.69083">
        <ele>520.4</ele>
        <time>2022-06-25T12:54:04Z</time>
      </trkpt>
      <trkpt lat="46.29163" lon="4.69086">
        <ele>520.6</ele>
        <time>2022-06-25T12:54:05Z</time>
      </trkpt>
      <trkpt lat="46.29164" lon="4.6909">
        <ele>520.8</ele>
        <time>2022-06-25T12:54:06Z</time>
      </trkpt>
      <trkpt lat="46.29166" lon="4.69094">
        <ele>520.8</ele>
        <time>2022-06-25T12:54:07Z</time>
      </trkpt>
      <trkpt lat="46.29167" lon="4.69097">
        <ele>521.2</ele>
        <time>2022-06-25T12:54:08Z</time>
      </trkpt>
      <trkpt lat="46.29168" lon="4.69101">
        <ele>521.4</ele>
        <time>2022-06-25T12:54:09Z</time>
      </trkpt>
      <trkpt lat="46.29169" lon="4.69104">
        <ele>521.4</ele>
        <time>2022-06-25T12:54:10Z</time>
      </trkpt>
      <trkpt lat="46.2917" lon="4.69108">
        <ele>521.8</ele>
        <time>2022-06-25T12:54:11Z</time>
      </trkpt>
      <trkpt lat="46.29171" lon="4.69112">
        <ele>522</ele>
        <time>2022-06-25T12:54:12Z</time>
      </trkpt>
      <trkpt lat="46.29172" lon="4.69116">
        <ele>522</ele>
        <time>2022-06-25T12:54:13Z</time>
      </trkpt>
      <trkpt lat="46.29173" lon="4.69119">
        <ele>522.4</ele>
        <time>2022-06-25T12:54:14Z</time>
      </trkpt>
      <trkpt lat="46.29174" lon="4.69124">
        <ele>522.4</ele>
        <time>2022-06-25T12:54:15Z</time>
      </trkpt>
      <trkpt lat="46.29175" lon="4.69128">
        <ele>522.8</ele>
        <time>2022-06-25T12:54:16Z</time>
      </trkpt>
      <trkpt lat="46.29176" lon="4.69132">
        <ele>522.8</ele>
        <time>2022-06-25T12:54:17Z</time>
      </trkpt>
      <trkpt lat="46.29177" lon="4.69136">
        <ele>523.2</ele>
        <time>2022-06-25T12:54:18Z</time>
      </trkpt>
      <trkpt lat="46.29177" lon="4.6914">
        <ele>523.4</ele>
        <time>2022-06-25T12:54:19Z</time>
      </trkpt>
      <trkpt lat="46.29178" lon="4.69144">
        <ele>523.4</ele>
        <time>2022-06-25T12:54:20Z</time>
      </trkpt>
      <trkpt lat="46.29178" lon="4.69149">
        <ele>523.8</ele>
        <time>2022-06-25T12:54:21Z</time>
      </trkpt>
      <trkpt lat="46.29178" lon="4.69153">
        <ele>524</ele>
        <time>2022-06-25T12:54:22Z</time>
      </trkpt>
      <trkpt lat="46.29179" lon="4.69157">
        <ele>524</ele>
        <time>2022-06-25T12:54:23Z</time>
      </trkpt>
      <trkpt lat="46.29179" lon="4.69161">
        <ele>524.4</ele>
        <time>2022-06-25T12:54:24Z</time>
      </trkpt>
      <trkpt lat="46.2918" lon="4.69165">
        <ele>524.4</ele>
        <time>2022-06-25T12:54:25Z</time>
      </trkpt>
      <trkpt lat="46.2918" lon="4.69169">
        <ele>524.8</ele>
        <time>2022-06-25T12:54:26Z</time>
      </trkpt>
      <trkpt lat="46.2918" lon="4.69173">
        <ele>525</ele>
        <time>2022-06-25T12:54:27Z</time>
      </trkpt>
      <trkpt lat="46.29181" lon="4.69176">
        <ele>525</ele>
        <time>2022-06-25T12:54:28Z</time>
      </trkpt>
      <trkpt lat="46.29181" lon="4.69181">
        <ele>525.4</ele>
        <time>2022-06-25T12:54:29Z</time>
      </trkpt>
      <trkpt lat="46.29182" lon="4.69185">
        <ele>525.4</ele>
        <time>2022-06-25T12:54:30Z</time>
      </trkpt>
      <trkpt lat="46.29182" lon="4.69189">
        <ele>525.8</ele>
        <time>2022-06-25T12:54:31Z</time>
      </trkpt>
      <trkpt lat="46.29182" lon="4.69193">
        <ele>525.8</ele>
        <time>2022-06-25T12:54:32Z</time>
      </trkpt>
      <trkpt lat="46.29183" lon="4.69197">
        <ele>526.2</ele>
        <time>2022-06-25T12:54:33Z</time>
      </trkpt>
      <trkpt lat="46.29183" lon="4.69202">
        <ele>526.4</ele>
        <time>2022-06-25T12:54:34Z</time>
      </trkpt>
      <trkpt lat="46.29184" lon="4.69206">
        <ele>526.4</ele>
        <time>2022-06-25T12:54:35Z</time>
      </trkpt>
      <trkpt lat="46.29185" lon="4.6921">
        <ele>526.8</ele>
        <time>2022-06-25T12:54:36Z</time>
      </trkpt>
      <trkpt lat="46.29185" lon="4.69215">
        <ele>527</ele>
        <time>2022-06-25T12:54:37Z</time>
      </trkpt>
      <trkpt lat="46.29186" lon="4.69219">
        <ele>527</ele>
        <time>2022-06-25T12:54:38Z</time>
      </trkpt>
      <trkpt lat="46.29186" lon="4.69223">
        <ele>527.4</ele>
        <time>2022-06-25T12:54:39Z</time>
      </trkpt>
      <trkpt lat="46.29187" lon="4.69227">
        <ele>527.4</ele>
        <time>2022-06-25T12:54:40Z</time>
      </trkpt>
      <trkpt lat="46.29188" lon="4.69231">
        <ele>527.8</ele>
        <time>2022-06-25T12:54:41Z</time>
      </trkpt>
      <trkpt lat="46.29188" lon="4.69236">
        <ele>527.8</ele>
        <time>2022-06-25T12:54:42Z</time>
      </trkpt>
      <trkpt lat="46.29189" lon="4.6924">
        <ele>528</ele>
        <time>2022-06-25T12:54:43Z</time>
      </trkpt>
      <trkpt lat="46.29189" lon="4.69244">
        <ele>528</ele>
        <time>2022-06-25T12:54:44Z</time>
      </trkpt>
      <trkpt lat="46.29189" lon="4.69249">
        <ele>528.4</ele>
        <time>2022-06-25T12:54:45Z</time>
      </trkpt>
      <trkpt lat="46.29189" lon="4.69253">
        <ele>528.6</ele>
        <time>2022-06-25T12:54:46Z</time>
      </trkpt>
      <trkpt lat="46.29189" lon="4.69257">
        <ele>528.6</ele>
        <time>2022-06-25T12:54:47Z</time>
      </trkpt>
      <trkpt lat="46.29189" lon="4.69262">
        <ele>529</ele>
        <time>2022-06-25T12:54:48Z</time>
      </trkpt>
      <trkpt lat="46.29189" lon="4.69266">
        <ele>529</ele>
        <time>2022-06-25T12:54:49Z</time>
      </trkpt>
      <trkpt lat="46.29189" lon="4.6927">
        <ele>529.2</ele>
        <time>2022-06-25T12:54:50Z</time>
      </trkpt>
      <trkpt lat="46.2919" lon="4.69275">
        <ele>529.2</ele>
        <time>2022-06-25T12:54:51Z</time>
      </trkpt>
      <trkpt lat="46.2919" lon="4.69279">
        <ele>529.6</ele>
        <time>2022-06-25T12:54:52Z</time>
      </trkpt>
      <trkpt lat="46.29191" lon="4.69283">
        <ele>529.6</ele>
        <time>2022-06-25T12:54:53Z</time>
      </trkpt>
      <trkpt lat="46.29191" lon="4.69288">
        <ele>530</ele>
        <time>2022-06-25T12:54:54Z</time>
      </trkpt>
      <trkpt lat="46.29191" lon="4.69292">
        <ele>530</ele>
        <time>2022-06-25T12:54:55Z</time>
      </trkpt>
      <trkpt lat="46.29192" lon="4.69297">
        <ele>530.2</ele>
        <time>2022-06-25T12:54:56Z</time>
      </trkpt>
      <trkpt lat="46.29192" lon="4.69301">
        <ele>530.2</ele>
        <time>2022-06-25T12:54:57Z</time>
      </trkpt>
      <trkpt lat="46.29193" lon="4.69305">
        <ele>530.6</ele>
        <time>2022-06-25T12:54:58Z</time>
      </trkpt>
      <trkpt lat="46.29193" lon="4.6931">
        <ele>530.6</ele>
        <time>2022-06-25T12:54:59Z</time>
      </trkpt>
      <trkpt lat="46.29193" lon="4.69314">
        <ele>531</ele>
        <time>2022-06-25T12:55:00Z</time>
      </trkpt>
      <trkpt lat="46.29193" lon="4.69318">
        <ele>531</ele>
        <time>2022-06-25T12:55:01Z</time>
      </trkpt>
      <trkpt lat="46.29194" lon="4.69322">
        <ele>531.4</ele>
        <time>2022-06-25T12:55:02Z</time>
      </trkpt>
      <trkpt lat="46.29194" lon="4.69326">
        <ele>531.4</ele>
        <time>2022-06-25T12:55:03Z</time>
      </trkpt>
      <trkpt lat="46.29194" lon="4.69331">
        <ele>531.8</ele>
        <time>2022-06-25T12:55:04Z</time>
      </trkpt>
      <trkpt lat="46.29195" lon="4.69335">
        <ele>531.8</ele>
        <time>2022-06-25T12:55:05Z</time>
      </trkpt>
      <trkpt lat="46.29195" lon="4.69339">
        <ele>532.2</ele>
        <time>2022-06-25T12:55:06Z</time>
      </trkpt>
      <trkpt lat="46.29195" lon="4.69343">
        <ele>532.2</ele>
        <time>2022-06-25T12:55:07Z</time>
      </trkpt>
      <trkpt lat="46.29196" lon="4.69347">
        <ele>532.4</ele>
        <time>2022-06-25T12:55:08Z</time>
      </trkpt>
      <trkpt lat="46.29196" lon="4.69351">
        <ele>532.4</ele>
        <time>2022-06-25T12:55:09Z</time>
      </trkpt>
      <trkpt lat="46.29196" lon="4.69355">
        <ele>532.8</ele>
        <time>2022-06-25T12:55:10Z</time>
      </trkpt>
      <trkpt lat="46.29196" lon="4.69359">
        <ele>532.8</ele>
        <time>2022-06-25T12:55:11Z</time>
      </trkpt>
      <trkpt lat="46.29197" lon="4.69364">
        <ele>533</ele>
        <time>2022-06-25T12:55:12Z</time>
      </trkpt>
      <trkpt lat="46.29197" lon="4.69367">
        <ele>533.2</ele>
        <time>2022-06-25T12:55:13Z</time>
      </trkpt>
      <trkpt lat="46.29197" lon="4.69371">
        <ele>533.2</ele>
        <time>2022-06-25T12:55:14Z</time>
      </trkpt>
      <trkpt lat="46.29198" lon="4.69375">
        <ele>533.6</ele>
        <time>2022-06-25T12:55:15Z</time>
      </trkpt>
      <trkpt lat="46.29198" lon="4.69379">
        <ele>533.8</ele>
        <time>2022-06-25T12:55:16Z</time>
      </trkpt>
      <trkpt lat="46.29198" lon="4.69383">
        <ele>534</ele>
        <time>2022-06-25T12:55:17Z</time>
      </trkpt>
      <trkpt lat="46.29198" lon="4.69388">
        <ele>534.2</ele>
        <time>2022-06-25T12:55:18Z</time>
      </trkpt>
      <trkpt lat="46.29198" lon="4.69392">
        <ele>534.4</ele>
        <time>2022-06-25T12:55:19Z</time>
      </trkpt>
      <trkpt lat="46.29199" lon="4.69395">
        <ele>534.4</ele>
        <time>2022-06-25T12:55:20Z</time>
      </trkpt>
      <trkpt lat="46.29199" lon="4.69399">
        <ele>534.8</ele>
        <time>2022-06-25T12:55:21Z</time>
      </trkpt>
      <trkpt lat="46.29199" lon="4.69403">
        <ele>534.8</ele>
        <time>2022-06-25T12:55:22Z</time>
      </trkpt>
      <trkpt lat="46.29199" lon="4.69407">
        <ele>535</ele>
        <time>2022-06-25T12:55:23Z</time>
      </trkpt>
      <trkpt lat="46.292" lon="4.69411">
        <ele>535</ele>
        <time>2022-06-25T12:55:24Z</time>
      </trkpt>
      <trkpt lat="46.292" lon="4.69415">
        <ele>535</ele>
        <time>2022-06-25T12:55:25Z</time>
      </trkpt>
      <trkpt lat="46.292" lon="4.69419">
        <ele>535</ele>
        <time>2022-06-25T12:55:26Z</time>
      </trkpt>
      <trkpt lat="46.292" lon="4.69421">
        <ele>535.4</ele>
        <time>2022-06-25T12:55:27Z</time>
      </trkpt>
      <trkpt lat="46.29201" lon="4.69423">
        <ele>535.4</ele>
        <time>2022-06-25T12:55:28Z</time>
      </trkpt>
      <trkpt lat="46.29201" lon="4.69427">
        <ele>535.6</ele>
        <time>2022-06-25T12:55:29Z</time>
      </trkpt>
      <trkpt lat="46.29201" lon="4.6943">
        <ele>535.6</ele>
        <time>2022-06-25T12:55:30Z</time>
      </trkpt>
      <trkpt lat="46.29201" lon="4.69434">
        <ele>536.2</ele>
        <time>2022-06-25T12:55:31Z</time>
      </trkpt>
      <trkpt lat="46.29202" lon="4.69438">
        <ele>536.4</ele>
        <time>2022-06-25T12:55:32Z</time>
      </trkpt>
      <trkpt lat="46.29202" lon="4.69445">
        <ele>536.6</ele>
        <time>2022-06-25T12:55:33Z</time>
      </trkpt>
      <trkpt lat="46.29202" lon="4.69448">
        <ele>536.8</ele>
        <time>2022-06-25T12:55:34Z</time>
      </trkpt>
      <trkpt lat="46.29203" lon="4.69452">
        <ele>537</ele>
        <time>2022-06-25T12:55:35Z</time>
      </trkpt>
      <trkpt lat="46.29203" lon="4.69455">
        <ele>537</ele>
        <time>2022-06-25T12:55:36Z</time>
      </trkpt>
      <trkpt lat="46.29204" lon="4.69459">
        <ele>537.4</ele>
        <time>2022-06-25T12:55:37Z</time>
      </trkpt>
      <trkpt lat="46.29203" lon="4.69462">
        <ele>537.4</ele>
        <time>2022-06-25T12:55:38Z</time>
      </trkpt>
      <trkpt lat="46.29203" lon="4.69465">
        <ele>537.6</ele>
        <time>2022-06-25T12:55:39Z</time>
      </trkpt>
      <trkpt lat="46.29203" lon="4.69468">
        <ele>537.6</ele>
        <time>2022-06-25T12:55:40Z</time>
      </trkpt>
      <trkpt lat="46.29202" lon="4.69471">
        <ele>538</ele>
        <time>2022-06-25T12:55:41Z</time>
      </trkpt>
      <trkpt lat="46.29201" lon="4.69474">
        <ele>538</ele>
        <time>2022-06-25T12:55:42Z</time>
      </trkpt>
      <trkpt lat="46.29199" lon="4.69476">
        <ele>538.2</ele>
        <time>2022-06-25T12:55:43Z</time>
      </trkpt>
      <trkpt lat="46.29198" lon="4.69478">
        <ele>538.2</ele>
        <time>2022-06-25T12:55:44Z</time>
      </trkpt>
      <trkpt lat="46.29196" lon="4.6948">
        <ele>538.6</ele>
        <time>2022-06-25T12:55:45Z</time>
      </trkpt>
      <trkpt lat="46.29193" lon="4.6948">
        <ele>538.6</ele>
        <time>2022-06-25T12:55:46Z</time>
      </trkpt>
      <trkpt lat="46.29191" lon="4.6948">
        <ele>538.8</ele>
        <time>2022-06-25T12:55:47Z</time>
      </trkpt>
      <trkpt lat="46.29189" lon="4.69481">
        <ele>538.8</ele>
        <time>2022-06-25T12:55:48Z</time>
      </trkpt>
      <trkpt lat="46.29187" lon="4.69482">
        <ele>539.2</ele>
        <time>2022-06-25T12:55:49Z</time>
      </trkpt>
      <trkpt lat="46.29185" lon="4.69484">
        <ele>539.4</ele>
        <time>2022-06-25T12:55:50Z</time>
      </trkpt>
      <trkpt lat="46.29183" lon="4.69486">
        <ele>539.4</ele>
        <time>2022-06-25T12:55:51Z</time>
      </trkpt>
      <trkpt lat="46.29182" lon="4.69488">
        <ele>539.8</ele>
        <time>2022-06-25T12:55:52Z</time>
      </trkpt>
      <trkpt lat="46.2918" lon="4.6949">
        <ele>539.8</ele>
        <time>2022-06-25T12:55:53Z</time>
      </trkpt>
      <trkpt lat="46.29179" lon="4.69493">
        <ele>539.8</ele>
        <time>2022-06-25T12:55:54Z</time>
      </trkpt>
      <trkpt lat="46.29177" lon="4.69495">
        <ele>540</ele>
        <time>2022-06-25T12:55:55Z</time>
      </trkpt>
      <trkpt lat="46.29176" lon="4.69498">
        <ele>540</ele>
        <time>2022-06-25T12:55:56Z</time>
      </trkpt>
      <trkpt lat="46.29175" lon="4.69501">
        <ele>540.4</ele>
        <time>2022-06-25T12:55:57Z</time>
      </trkpt>
      <trkpt lat="46.29174" lon="4.69504">
        <ele>540.4</ele>
        <time>2022-06-25T12:55:58Z</time>
      </trkpt>
      <trkpt lat="46.29173" lon="4.69505">
        <ele>540.8</ele>
        <time>2022-06-25T12:55:59Z</time>
      </trkpt>
      <trkpt lat="46.29173" lon="4.69507">
        <ele>541</ele>
        <time>2022-06-25T12:56:00Z</time>
      </trkpt>
      <trkpt lat="46.29172" lon="4.6951">
        <ele>541.2</ele>
        <time>2022-06-25T12:56:01Z</time>
      </trkpt>
      <trkpt lat="46.2917" lon="4.69513">
        <ele>541.2</ele>
        <time>2022-06-25T12:56:02Z</time>
      </trkpt>
      <trkpt lat="46.29169" lon="4.69516">
        <ele>541.8</ele>
        <time>2022-06-25T12:56:03Z</time>
      </trkpt>
      <trkpt lat="46.29168" lon="4.69518">
        <ele>541.8</ele>
        <time>2022-06-25T12:56:04Z</time>
      </trkpt>
      <trkpt lat="46.29167" lon="4.69521">
        <ele>542</ele>
        <time>2022-06-25T12:56:05Z</time>
      </trkpt>
      <trkpt lat="46.29166" lon="4.69524">
        <ele>542.4</ele>
        <time>2022-06-25T12:56:06Z</time>
      </trkpt>
      <trkpt lat="46.29165" lon="4.69527">
        <ele>542.6</ele>
        <time>2022-06-25T12:56:07Z</time>
      </trkpt>
      <trkpt lat="46.29163" lon="4.6953">
        <ele>542.8</ele>
        <time>2022-06-25T12:56:08Z</time>
      </trkpt>
      <trkpt lat="46.29162" lon="4.69533">
        <ele>543</ele>
        <time>2022-06-25T12:56:09Z</time>
      </trkpt>
      <trkpt lat="46.2916" lon="4.69536">
        <ele>543.4</ele>
        <time>2022-06-25T12:56:10Z</time>
      </trkpt>
      <trkpt lat="46.29158" lon="4.69538">
        <ele>543.6</ele>
        <time>2022-06-25T12:56:11Z</time>
      </trkpt>
      <trkpt lat="46.29157" lon="4.69541">
        <ele>543.8</ele>
        <time>2022-06-25T12:56:12Z</time>
      </trkpt>
      <trkpt lat="46.29155" lon="4.69544">
        <ele>544</ele>
        <time>2022-06-25T12:56:13Z</time>
      </trkpt>
      <trkpt lat="46.29153" lon="4.69547">
        <ele>544</ele>
        <time>2022-06-25T12:56:14Z</time>
      </trkpt>
      <trkpt lat="46.29152" lon="4.6955">
        <ele>544.4</ele>
        <time>2022-06-25T12:56:15Z</time>
      </trkpt>
      <trkpt lat="46.2915" lon="4.69552">
        <ele>544.8</ele>
        <time>2022-06-25T12:56:16Z</time>
      </trkpt>
      <trkpt lat="46.29148" lon="4.69554">
        <ele>545</ele>
        <time>2022-06-25T12:56:17Z</time>
      </trkpt>
      <trkpt lat="46.29147" lon="4.69557">
        <ele>545.2</ele>
        <time>2022-06-25T12:56:18Z</time>
      </trkpt>
      <trkpt lat="46.29146" lon="4.6956">
        <ele>545.2</ele>
        <time>2022-06-25T12:56:19Z</time>
      </trkpt>
      <trkpt lat="46.29144" lon="4.69562">
        <ele>545.6</ele>
        <time>2022-06-25T12:56:20Z</time>
      </trkpt>
      <trkpt lat="46.29142" lon="4.69565">
        <ele>545.6</ele>
        <time>2022-06-25T12:56:21Z</time>
      </trkpt>
      <trkpt lat="46.29141" lon="4.69568">
        <ele>546</ele>
        <time>2022-06-25T12:56:22Z</time>
      </trkpt>
      <trkpt lat="46.29139" lon="4.6957">
        <ele>546.2</ele>
        <time>2022-06-25T12:56:23Z</time>
      </trkpt>
      <trkpt lat="46.29137" lon="4.69573">
        <ele>546.6</ele>
        <time>2022-06-25T12:56:24Z</time>
      </trkpt>
      <trkpt lat="46.29135" lon="4.69575">
        <ele>546.6</ele>
        <time>2022-06-25T12:56:25Z</time>
      </trkpt>
      <trkpt lat="46.29134" lon="4.69577">
        <ele>546.8</ele>
        <time>2022-06-25T12:56:26Z</time>
      </trkpt>
      <trkpt lat="46.29132" lon="4.69579">
        <ele>546.8</ele>
        <time>2022-06-25T12:56:27Z</time>
      </trkpt>
      <trkpt lat="46.29131" lon="4.69581">
        <ele>547.2</ele>
        <time>2022-06-25T12:56:28Z</time>
      </trkpt>
      <trkpt lat="46.29129" lon="4.69583">
        <ele>547.4</ele>
        <time>2022-06-25T12:56:29Z</time>
      </trkpt>
      <trkpt lat="46.29128" lon="4.69585">
        <ele>547.6</ele>
        <time>2022-06-25T12:56:30Z</time>
      </trkpt>
      <trkpt lat="46.29126" lon="4.69586">
        <ele>547.8</ele>
        <time>2022-06-25T12:56:31Z</time>
      </trkpt>
      <trkpt lat="46.29125" lon="4.69588">
        <ele>548</ele>
        <time>2022-06-25T12:56:32Z</time>
      </trkpt>
      <trkpt lat="46.29124" lon="4.6959">
        <ele>548</ele>
        <time>2022-06-25T12:56:33Z</time>
      </trkpt>
      <trkpt lat="46.29122" lon="4.69592">
        <ele>548.4</ele>
        <time>2022-06-25T12:56:34Z</time>
      </trkpt>
      <trkpt lat="46.29121" lon="4.69594">
        <ele>548.4</ele>
        <time>2022-06-25T12:56:35Z</time>
      </trkpt>
      <trkpt lat="46.29119" lon="4.69595">
        <ele>548.8</ele>
        <time>2022-06-25T12:56:36Z</time>
      </trkpt>
      <trkpt lat="46.29117" lon="4.69596">
        <ele>549.2</ele>
        <time>2022-06-25T12:56:37Z</time>
      </trkpt>
      <trkpt lat="46.29116" lon="4.69598">
        <ele>549.4</ele>
        <time>2022-06-25T12:56:38Z</time>
      </trkpt>
      <trkpt lat="46.29114" lon="4.69598">
        <ele>549.4</ele>
        <time>2022-06-25T12:56:39Z</time>
      </trkpt>
      <trkpt lat="46.29111" lon="4.69599">
        <ele>549.6</ele>
        <time>2022-06-25T12:56:40Z</time>
      </trkpt>
      <trkpt lat="46.29109" lon="4.69599">
        <ele>549.6</ele>
        <time>2022-06-25T12:56:41Z</time>
      </trkpt>
      <trkpt lat="46.29107" lon="4.69599">
        <ele>550</ele>
        <time>2022-06-25T12:56:42Z</time>
      </trkpt>
      <trkpt lat="46.29105" lon="4.696">
        <ele>550</ele>
        <time>2022-06-25T12:56:43Z</time>
      </trkpt>
      <trkpt lat="46.29103" lon="4.69601">
        <ele>550</ele>
        <time>2022-06-25T12:56:44Z</time>
      </trkpt>
      <trkpt lat="46.29101" lon="4.69601">
        <ele>550.4</ele>
        <time>2022-06-25T12:56:45Z</time>
      </trkpt>
      <trkpt lat="46.29098" lon="4.69602">
        <ele>550.4</ele>
        <time>2022-06-25T12:56:46Z</time>
      </trkpt>
      <trkpt lat="46.29096" lon="4.69601">
        <ele>550.6</ele>
        <time>2022-06-25T12:56:47Z</time>
      </trkpt>
      <trkpt lat="46.29094" lon="4.69601">
        <ele>550.6</ele>
        <time>2022-06-25T12:56:48Z</time>
      </trkpt>
      <trkpt lat="46.29092" lon="4.696">
        <ele>551</ele>
        <time>2022-06-25T12:56:49Z</time>
      </trkpt>
      <trkpt lat="46.2909" lon="4.69599">
        <ele>551.2</ele>
        <time>2022-06-25T12:56:50Z</time>
      </trkpt>
      <trkpt lat="46.29088" lon="4.69599">
        <ele>551.2</ele>
        <time>2022-06-25T12:56:51Z</time>
      </trkpt>
      <trkpt lat="46.29086" lon="4.69599">
        <ele>551.6</ele>
        <time>2022-06-25T12:56:52Z</time>
      </trkpt>
      <trkpt lat="46.29083" lon="4.69599">
        <ele>551.6</ele>
        <time>2022-06-25T12:56:53Z</time>
      </trkpt>
      <trkpt lat="46.29081" lon="4.69599">
        <ele>552</ele>
        <time>2022-06-25T12:56:54Z</time>
      </trkpt>
      <trkpt lat="46.29079" lon="4.69599">
        <ele>552.2</ele>
        <time>2022-06-25T12:56:55Z</time>
      </trkpt>
      <trkpt lat="46.29077" lon="4.69599">
        <ele>552.2</ele>
        <time>2022-06-25T12:56:56Z</time>
      </trkpt>
      <trkpt lat="46.29074" lon="4.69598">
        <ele>552.4</ele>
        <time>2022-06-25T12:56:57Z</time>
      </trkpt>
      <trkpt lat="46.29072" lon="4.69598">
        <ele>552.8</ele>
        <time>2022-06-25T12:56:58Z</time>
      </trkpt>
      <trkpt lat="46.2907" lon="4.69597">
        <ele>552.8</ele>
        <time>2022-06-25T12:56:59Z</time>
      </trkpt>
      <trkpt lat="46.29068" lon="4.69596">
        <ele>553</ele>
        <time>2022-06-25T12:57:00Z</time>
      </trkpt>
      <trkpt lat="46.29066" lon="4.69596">
        <ele>553</ele>
        <time>2022-06-25T12:57:01Z</time>
      </trkpt>
      <trkpt lat="46.29063" lon="4.69595">
        <ele>553.2</ele>
        <time>2022-06-25T12:57:02Z</time>
      </trkpt>
      <trkpt lat="46.29061" lon="4.69594">
        <ele>553.6</ele>
        <time>2022-06-25T12:57:03Z</time>
      </trkpt>
      <trkpt lat="46.29059" lon="4.69594">
        <ele>553.6</ele>
        <time>2022-06-25T12:57:04Z</time>
      </trkpt>
      <trkpt lat="46.29057" lon="4.69593">
        <ele>553.8</ele>
        <time>2022-06-25T12:57:05Z</time>
      </trkpt>
      <trkpt lat="46.29055" lon="4.69592">
        <ele>553.8</ele>
        <time>2022-06-25T12:57:06Z</time>
      </trkpt>
      <trkpt lat="46.29053" lon="4.69591">
        <ele>554.2</ele>
        <time>2022-06-25T12:57:07Z</time>
      </trkpt>
      <trkpt lat="46.29051" lon="4.6959">
        <ele>554.2</ele>
        <time>2022-06-25T12:57:08Z</time>
      </trkpt>
      <trkpt lat="46.29048" lon="4.69589">
        <ele>554.4</ele>
        <time>2022-06-25T12:57:09Z</time>
      </trkpt>
      <trkpt lat="46.29046" lon="4.69588">
        <ele>554.4</ele>
        <time>2022-06-25T12:57:10Z</time>
      </trkpt>
      <trkpt lat="46.29044" lon="4.69587">
        <ele>554.6</ele>
        <time>2022-06-25T12:57:11Z</time>
      </trkpt>
      <trkpt lat="46.29042" lon="4.69586">
        <ele>554.6</ele>
        <time>2022-06-25T12:57:12Z</time>
      </trkpt>
      <trkpt lat="46.2904" lon="4.69585">
        <ele>554.6</ele>
        <time>2022-06-25T12:57:13Z</time>
      </trkpt>
      <trkpt lat="46.29038" lon="4.69584">
        <ele>555</ele>
        <time>2022-06-25T12:57:14Z</time>
      </trkpt>
      <trkpt lat="46.29036" lon="4.69583">
        <ele>555</ele>
        <time>2022-06-25T12:57:15Z</time>
      </trkpt>
      <trkpt lat="46.29034" lon="4.69582">
        <ele>555.2</ele>
        <time>2022-06-25T12:57:16Z</time>
      </trkpt>
      <trkpt lat="46.29032" lon="4.69581">
        <ele>555.2</ele>
        <time>2022-06-25T12:57:17Z</time>
      </trkpt>
      <trkpt lat="46.2903" lon="4.6958">
        <ele>555.6</ele>
        <time>2022-06-25T12:57:18Z</time>
      </trkpt>
      <trkpt lat="46.29028" lon="4.69579">
        <ele>555.6</ele>
        <time>2022-06-25T12:57:19Z</time>
      </trkpt>
      <trkpt lat="46.29026" lon="4.69579">
        <ele>556</ele>
        <time>2022-06-25T12:57:20Z</time>
      </trkpt>
      <trkpt lat="46.29024" lon="4.69578">
        <ele>556.2</ele>
        <time>2022-06-25T12:57:21Z</time>
      </trkpt>
      <trkpt lat="46.29022" lon="4.69578">
        <ele>556.2</ele>
        <time>2022-06-25T12:57:22Z</time>
      </trkpt>
      <trkpt lat="46.2902" lon="4.69577">
        <ele>556.2</ele>
        <time>2022-06-25T12:57:23Z</time>
      </trkpt>
      <trkpt lat="46.29018" lon="4.69577">
        <ele>556.4</ele>
        <time>2022-06-25T12:57:24Z</time>
      </trkpt>
      <trkpt lat="46.29016" lon="4.69576">
        <ele>556.4</ele>
        <time>2022-06-25T12:57:25Z</time>
      </trkpt>
      <trkpt lat="46.29015" lon="4.69576">
        <ele>556.8</ele>
        <time>2022-06-25T12:57:26Z</time>
      </trkpt>
      <trkpt lat="46.29012" lon="4.69575">
        <ele>556.8</ele>
        <time>2022-06-25T12:57:27Z</time>
      </trkpt>
      <trkpt lat="46.2901" lon="4.69575">
        <ele>557.2</ele>
        <time>2022-06-25T12:57:28Z</time>
      </trkpt>
      <trkpt lat="46.29008" lon="4.69575">
        <ele>557.2</ele>
        <time>2022-06-25T12:57:29Z</time>
      </trkpt>
      <trkpt lat="46.29007" lon="4.69574">
        <ele>557.4</ele>
        <time>2022-06-25T12:57:30Z</time>
      </trkpt>
      <trkpt lat="46.29005" lon="4.69574">
        <ele>557.4</ele>
        <time>2022-06-25T12:57:31Z</time>
      </trkpt>
      <trkpt lat="46.29003" lon="4.69574">
        <ele>557.8</ele>
        <time>2022-06-25T12:57:32Z</time>
      </trkpt>
      <trkpt lat="46.29001" lon="4.69573">
        <ele>557.8</ele>
        <time>2022-06-25T12:57:33Z</time>
      </trkpt>
      <trkpt lat="46.28999" lon="4.69573">
        <ele>558</ele>
        <time>2022-06-25T12:57:34Z</time>
      </trkpt>
      <trkpt lat="46.28996" lon="4.69573">
        <ele>558</ele>
        <time>2022-06-25T12:57:35Z</time>
      </trkpt>
      <trkpt lat="46.28994" lon="4.69573">
        <ele>558.2</ele>
        <time>2022-06-25T12:57:36Z</time>
      </trkpt>
      <trkpt lat="46.28992" lon="4.69572">
        <ele>558.2</ele>
        <time>2022-06-25T12:57:37Z</time>
      </trkpt>
      <trkpt lat="46.2899" lon="4.69571">
        <ele>558.8</ele>
        <time>2022-06-25T12:57:38Z</time>
      </trkpt>
      <trkpt lat="46.28988" lon="4.69571">
        <ele>558.8</ele>
        <time>2022-06-25T12:57:39Z</time>
      </trkpt>
      <trkpt lat="46.28985" lon="4.69571">
        <ele>558.8</ele>
        <time>2022-06-25T12:57:40Z</time>
      </trkpt>
      <trkpt lat="46.28983" lon="4.69571">
        <ele>559</ele>
        <time>2022-06-25T12:57:41Z</time>
      </trkpt>
      <trkpt lat="46.28981" lon="4.69571">
        <ele>559</ele>
        <time>2022-06-25T12:57:42Z</time>
      </trkpt>
      <trkpt lat="46.28979" lon="4.69572">
        <ele>559.4</ele>
        <time>2022-06-25T12:57:43Z</time>
      </trkpt>
      <trkpt lat="46.28977" lon="4.69572">
        <ele>559.4</ele>
        <time>2022-06-25T12:57:44Z</time>
      </trkpt>
      <trkpt lat="46.28975" lon="4.69572">
        <ele>559.8</ele>
        <time>2022-06-25T12:57:45Z</time>
      </trkpt>
      <trkpt lat="46.28972" lon="4.69572">
        <ele>559.8</ele>
        <time>2022-06-25T12:57:46Z</time>
      </trkpt>
      <trkpt lat="46.2897" lon="4.69572">
        <ele>560</ele>
        <time>2022-06-25T12:57:47Z</time>
      </trkpt>
      <trkpt lat="46.28968" lon="4.69572">
        <ele>560</ele>
        <time>2022-06-25T12:57:48Z</time>
      </trkpt>
      <trkpt lat="46.28966" lon="4.69572">
        <ele>560.2</ele>
        <time>2022-06-25T12:57:49Z</time>
      </trkpt>
      <trkpt lat="46.28963" lon="4.69572">
        <ele>560.2</ele>
        <time>2022-06-25T12:57:50Z</time>
      </trkpt>
      <trkpt lat="46.28961" lon="4.69573">
        <ele>560.6</ele>
        <time>2022-06-25T12:57:51Z</time>
      </trkpt>
      <trkpt lat="46.28959" lon="4.69572">
        <ele>560.6</ele>
        <time>2022-06-25T12:57:52Z</time>
      </trkpt>
      <trkpt lat="46.28957" lon="4.69573">
        <ele>561</ele>
        <time>2022-06-25T12:57:53Z</time>
      </trkpt>
      <trkpt lat="46.28954" lon="4.69573">
        <ele>561</ele>
        <time>2022-06-25T12:57:54Z</time>
      </trkpt>
      <trkpt lat="46.28952" lon="4.69573">
        <ele>561.2</ele>
        <time>2022-06-25T12:57:55Z</time>
      </trkpt>
      <trkpt lat="46.2895" lon="4.69574">
        <ele>561.2</ele>
        <time>2022-06-25T12:57:56Z</time>
      </trkpt>
      <trkpt lat="46.28948" lon="4.69574">
        <ele>561.6</ele>
        <time>2022-06-25T12:57:57Z</time>
      </trkpt>
      <trkpt lat="46.28946" lon="4.69574">
        <ele>561.6</ele>
        <time>2022-06-25T12:57:58Z</time>
      </trkpt>
      <trkpt lat="46.28944" lon="4.69574">
        <ele>561.8</ele>
        <time>2022-06-25T12:57:59Z</time>
      </trkpt>
      <trkpt lat="46.28942" lon="4.69573">
        <ele>562</ele>
        <time>2022-06-25T12:58:00Z</time>
      </trkpt>
      <trkpt lat="46.2894" lon="4.69574">
        <ele>562</ele>
        <time>2022-06-25T12:58:01Z</time>
      </trkpt>
      <trkpt lat="46.28938" lon="4.69574">
        <ele>562.4</ele>
        <time>2022-06-25T12:58:02Z</time>
      </trkpt>
      <trkpt lat="46.28936" lon="4.69574">
        <ele>562.4</ele>
        <time>2022-06-25T12:58:03Z</time>
      </trkpt>
      <trkpt lat="46.28934" lon="4.69575">
        <ele>562.6</ele>
        <time>2022-06-25T12:58:04Z</time>
      </trkpt>
      <trkpt lat="46.28932" lon="4.69575">
        <ele>562.6</ele>
        <time>2022-06-25T12:58:05Z</time>
      </trkpt>
      <trkpt lat="46.2893" lon="4.69574">
        <ele>562.8</ele>
        <time>2022-06-25T12:58:06Z</time>
      </trkpt>
      <trkpt lat="46.28928" lon="4.69574">
        <ele>562.8</ele>
        <time>2022-06-25T12:58:07Z</time>
      </trkpt>
      <trkpt lat="46.28926" lon="4.69573">
        <ele>563</ele>
        <time>2022-06-25T12:58:08Z</time>
      </trkpt>
      <trkpt lat="46.28924" lon="4.69573">
        <ele>563</ele>
        <time>2022-06-25T12:58:09Z</time>
      </trkpt>
      <trkpt lat="46.28921" lon="4.69573">
        <ele>563.4</ele>
        <time>2022-06-25T12:58:10Z</time>
      </trkpt>
      <trkpt lat="46.28919" lon="4.69572">
        <ele>563.4</ele>
        <time>2022-06-25T12:58:11Z</time>
      </trkpt>
      <trkpt lat="46.28917" lon="4.69572">
        <ele>563.6</ele>
        <time>2022-06-25T12:58:12Z</time>
      </trkpt>
      <trkpt lat="46.28914" lon="4.69572">
        <ele>563.6</ele>
        <time>2022-06-25T12:58:13Z</time>
      </trkpt>
      <trkpt lat="46.28912" lon="4.69572">
        <ele>564</ele>
        <time>2022-06-25T12:58:14Z</time>
      </trkpt>
      <trkpt lat="46.2891" lon="4.69572">
        <ele>564</ele>
        <time>2022-06-25T12:58:15Z</time>
      </trkpt>
      <trkpt lat="46.28907" lon="4.69571">
        <ele>564</ele>
        <time>2022-06-25T12:58:16Z</time>
      </trkpt>
      <trkpt lat="46.28905" lon="4.69571">
        <ele>564.2</ele>
        <time>2022-06-25T12:58:17Z</time>
      </trkpt>
      <trkpt lat="46.28903" lon="4.6957">
        <ele>564.2</ele>
        <time>2022-06-25T12:58:18Z</time>
      </trkpt>
      <trkpt lat="46.289" lon="4.69569">
        <ele>564.6</ele>
        <time>2022-06-25T12:58:19Z</time>
      </trkpt>
      <trkpt lat="46.28898" lon="4.69569">
        <ele>564.6</ele>
        <time>2022-06-25T12:58:20Z</time>
      </trkpt>
      <trkpt lat="46.28895" lon="4.69569">
        <ele>565</ele>
        <time>2022-06-25T12:58:21Z</time>
      </trkpt>
      <trkpt lat="46.28893" lon="4.69568">
        <ele>565</ele>
        <time>2022-06-25T12:58:22Z</time>
      </trkpt>
      <trkpt lat="46.28891" lon="4.69568">
        <ele>565.4</ele>
        <time>2022-06-25T12:58:23Z</time>
      </trkpt>
      <trkpt lat="46.28888" lon="4.69567">
        <ele>565.4</ele>
        <time>2022-06-25T12:58:24Z</time>
      </trkpt>
      <trkpt lat="46.28886" lon="4.69567">
        <ele>565.6</ele>
        <time>2022-06-25T12:58:25Z</time>
      </trkpt>
      <trkpt lat="46.28883" lon="4.69566">
        <ele>565.6</ele>
        <time>2022-06-25T12:58:26Z</time>
      </trkpt>
      <trkpt lat="46.28881" lon="4.69566">
        <ele>566</ele>
        <time>2022-06-25T12:58:27Z</time>
      </trkpt>
      <trkpt lat="46.28879" lon="4.69565">
        <ele>566.2</ele>
        <time>2022-06-25T12:58:28Z</time>
      </trkpt>
      <trkpt lat="46.28877" lon="4.69564">
        <ele>566.4</ele>
        <time>2022-06-25T12:58:29Z</time>
      </trkpt>
      <trkpt lat="46.28874" lon="4.69563">
        <ele>566.4</ele>
        <time>2022-06-25T12:58:30Z</time>
      </trkpt>
      <trkpt lat="46.28872" lon="4.69563">
        <ele>566.8</ele>
        <time>2022-06-25T12:58:31Z</time>
      </trkpt>
      <trkpt lat="46.2887" lon="4.69562">
        <ele>566.8</ele>
        <time>2022-06-25T12:58:32Z</time>
      </trkpt>
      <trkpt lat="46.28867" lon="4.69561">
        <ele>567.2</ele>
        <time>2022-06-25T12:58:33Z</time>
      </trkpt>
      <trkpt lat="46.28865" lon="4.6956">
        <ele>567.2</ele>
        <time>2022-06-25T12:58:34Z</time>
      </trkpt>
      <trkpt lat="46.28863" lon="4.6956">
        <ele>567.6</ele>
        <time>2022-06-25T12:58:35Z</time>
      </trkpt>
      <trkpt lat="46.28861" lon="4.6956">
        <ele>567.6</ele>
        <time>2022-06-25T12:58:36Z</time>
      </trkpt>
      <trkpt lat="46.28859" lon="4.69559">
        <ele>568</ele>
        <time>2022-06-25T12:58:37Z</time>
      </trkpt>
      <trkpt lat="46.28856" lon="4.69559">
        <ele>568</ele>
        <time>2022-06-25T12:58:38Z</time>
      </trkpt>
      <trkpt lat="46.28854" lon="4.69559">
        <ele>568.2</ele>
        <time>2022-06-25T12:58:39Z</time>
      </trkpt>
      <trkpt lat="46.28852" lon="4.69558">
        <ele>568.6</ele>
        <time>2022-06-25T12:58:41Z</time>
      </trkpt>
      <trkpt lat="46.2885" lon="4.69558">
        <ele>568.8</ele>
        <time>2022-06-25T12:58:42Z</time>
      </trkpt>
      <trkpt lat="46.28847" lon="4.69558">
        <ele>568.8</ele>
        <time>2022-06-25T12:58:43Z</time>
      </trkpt>
      <trkpt lat="46.28845" lon="4.69558">
        <ele>569</ele>
        <time>2022-06-25T12:58:44Z</time>
      </trkpt>
      <trkpt lat="46.28843" lon="4.69558">
        <ele>569</ele>
        <time>2022-06-25T12:58:45Z</time>
      </trkpt>
      <trkpt lat="46.28841" lon="4.69557">
        <ele>569.2</ele>
        <time>2022-06-25T12:58:46Z</time>
      </trkpt>
      <trkpt lat="46.28839" lon="4.69557">
        <ele>569.2</ele>
        <time>2022-06-25T12:58:47Z</time>
      </trkpt>
      <trkpt lat="46.28836" lon="4.69556">
        <ele>569.6</ele>
        <time>2022-06-25T12:58:48Z</time>
      </trkpt>
      <trkpt lat="46.28834" lon="4.69555">
        <ele>569.6</ele>
        <time>2022-06-25T12:58:49Z</time>
      </trkpt>
      <trkpt lat="46.28832" lon="4.69554">
        <ele>569.8</ele>
        <time>2022-06-25T12:58:50Z</time>
      </trkpt>
      <trkpt lat="46.2883" lon="4.69554">
        <ele>570</ele>
        <time>2022-06-25T12:58:51Z</time>
      </trkpt>
      <trkpt lat="46.28827" lon="4.69553">
        <ele>570</ele>
        <time>2022-06-25T12:58:52Z</time>
      </trkpt>
      <trkpt lat="46.28825" lon="4.69553">
        <ele>570.4</ele>
        <time>2022-06-25T12:58:53Z</time>
      </trkpt>
      <trkpt lat="46.28823" lon="4.69552">
        <ele>570.4</ele>
        <time>2022-06-25T12:58:54Z</time>
      </trkpt>
      <trkpt lat="46.28821" lon="4.69551">
        <ele>570.8</ele>
        <time>2022-06-25T12:58:55Z</time>
      </trkpt>
      <trkpt lat="46.28818" lon="4.6955">
        <ele>571</ele>
        <time>2022-06-25T12:58:56Z</time>
      </trkpt>
      <trkpt lat="46.28816" lon="4.69549">
        <ele>571</ele>
        <time>2022-06-25T12:58:57Z</time>
      </trkpt>
      <trkpt lat="46.28814" lon="4.69549">
        <ele>571.2</ele>
        <time>2022-06-25T12:58:58Z</time>
      </trkpt>
      <trkpt lat="46.28812" lon="4.69548">
        <ele>571.2</ele>
        <time>2022-06-25T12:58:59Z</time>
      </trkpt>
      <trkpt lat="46.2881" lon="4.69547">
        <ele>571.6</ele>
        <time>2022-06-25T12:59:00Z</time>
      </trkpt>
      <trkpt lat="46.28808" lon="4.69546">
        <ele>571.6</ele>
        <time>2022-06-25T12:59:01Z</time>
      </trkpt>
      <trkpt lat="46.28806" lon="4.69545">
        <ele>571.8</ele>
        <time>2022-06-25T12:59:02Z</time>
      </trkpt>
      <trkpt lat="46.28804" lon="4.69544">
        <ele>571.8</ele>
        <time>2022-06-25T12:59:03Z</time>
      </trkpt>
      <trkpt lat="46.28802" lon="4.69543">
        <ele>572.2</ele>
        <time>2022-06-25T12:59:04Z</time>
      </trkpt>
      <trkpt lat="46.28799" lon="4.69542">
        <ele>572.2</ele>
        <time>2022-06-25T12:59:05Z</time>
      </trkpt>
      <trkpt lat="46.28797" lon="4.6954">
        <ele>572.4</ele>
        <time>2022-06-25T12:59:06Z</time>
      </trkpt>
      <trkpt lat="46.28795" lon="4.69539">
        <ele>572.4</ele>
        <time>2022-06-25T12:59:07Z</time>
      </trkpt>
      <trkpt lat="46.28793" lon="4.69537">
        <ele>572.8</ele>
        <time>2022-06-25T12:59:08Z</time>
      </trkpt>
      <trkpt lat="46.28791" lon="4.69536">
        <ele>572.8</ele>
        <time>2022-06-25T12:59:09Z</time>
      </trkpt>
      <trkpt lat="46.28789" lon="4.69535">
        <ele>573</ele>
        <time>2022-06-25T12:59:10Z</time>
      </trkpt>
      <trkpt lat="46.28788" lon="4.69534">
        <ele>573</ele>
        <time>2022-06-25T12:59:11Z</time>
      </trkpt>
      <trkpt lat="46.28786" lon="4.69533">
        <ele>573.4</ele>
        <time>2022-06-25T12:59:12Z</time>
      </trkpt>
      <trkpt lat="46.28784" lon="4.69532">
        <ele>573.6</ele>
        <time>2022-06-25T12:59:13Z</time>
      </trkpt>
      <trkpt lat="46.28782" lon="4.69531">
        <ele>573.6</ele>
        <time>2022-06-25T12:59:14Z</time>
      </trkpt>
      <trkpt lat="46.2878" lon="4.6953">
        <ele>573.8</ele>
        <time>2022-06-25T12:59:15Z</time>
      </trkpt>
      <trkpt lat="46.28778" lon="4.69528">
        <ele>574.2</ele>
        <time>2022-06-25T12:59:16Z</time>
      </trkpt>
      <trkpt lat="46.28776" lon="4.69526">
        <ele>574.2</ele>
        <time>2022-06-25T12:59:17Z</time>
      </trkpt>
      <trkpt lat="46.28775" lon="4.69524">
        <ele>574.4</ele>
        <time>2022-06-25T12:59:18Z</time>
      </trkpt>
      <trkpt lat="46.28773" lon="4.69522">
        <ele>574.4</ele>
        <time>2022-06-25T12:59:19Z</time>
      </trkpt>
      <trkpt lat="46.28771" lon="4.69521">
        <ele>574.8</ele>
        <time>2022-06-25T12:59:20Z</time>
      </trkpt>
      <trkpt lat="46.28769" lon="4.6952">
        <ele>574.8</ele>
        <time>2022-06-25T12:59:21Z</time>
      </trkpt>
      <trkpt lat="46.28767" lon="4.69519">
        <ele>575</ele>
        <time>2022-06-25T12:59:22Z</time>
      </trkpt>
      <trkpt lat="46.28766" lon="4.69518">
        <ele>575</ele>
        <time>2022-06-25T12:59:23Z</time>
      </trkpt>
      <trkpt lat="46.28764" lon="4.69517">
        <ele>575.2</ele>
        <time>2022-06-25T12:59:24Z</time>
      </trkpt>
      <trkpt lat="46.28762" lon="4.69515">
        <ele>575.2</ele>
        <time>2022-06-25T12:59:25Z</time>
      </trkpt>
      <trkpt lat="46.2876" lon="4.69514">
        <ele>575.6</ele>
        <time>2022-06-25T12:59:26Z</time>
      </trkpt>
      <trkpt lat="46.28758" lon="4.69513">
        <ele>575.6</ele>
        <time>2022-06-25T12:59:27Z</time>
      </trkpt>
      <trkpt lat="46.28756" lon="4.69512">
        <ele>575.8</ele>
        <time>2022-06-25T12:59:28Z</time>
      </trkpt>
      <trkpt lat="46.28754" lon="4.6951">
        <ele>575.8</ele>
        <time>2022-06-25T12:59:29Z</time>
      </trkpt>
      <trkpt lat="46.28752" lon="4.69508">
        <ele>576</ele>
        <time>2022-06-25T12:59:30Z</time>
      </trkpt>
      <trkpt lat="46.2875" lon="4.69506">
        <ele>576</ele>
        <time>2022-06-25T12:59:31Z</time>
      </trkpt>
      <trkpt lat="46.28747" lon="4.69505">
        <ele>576.2</ele>
        <time>2022-06-25T12:59:32Z</time>
      </trkpt>
      <trkpt lat="46.28745" lon="4.69504">
        <ele>576.2</ele>
        <time>2022-06-25T12:59:33Z</time>
      </trkpt>
      <trkpt lat="46.28743" lon="4.69504">
        <ele>576.6</ele>
        <time>2022-06-25T12:59:34Z</time>
      </trkpt>
      <trkpt lat="46.2874" lon="4.69503">
        <ele>576.6</ele>
        <time>2022-06-25T12:59:35Z</time>
      </trkpt>
      <trkpt lat="46.28738" lon="4.69502">
        <ele>577</ele>
        <time>2022-06-25T12:59:36Z</time>
      </trkpt>
      <trkpt lat="46.28736" lon="4.69501">
        <ele>577</ele>
        <time>2022-06-25T12:59:37Z</time>
      </trkpt>
      <trkpt lat="46.28734" lon="4.695">
        <ele>577.4</ele>
        <time>2022-06-25T12:59:38Z</time>
      </trkpt>
      <trkpt lat="46.28732" lon="4.69499">
        <ele>577.4</ele>
        <time>2022-06-25T12:59:39Z</time>
      </trkpt>
      <trkpt lat="46.2873" lon="4.69498">
        <ele>577.6</ele>
        <time>2022-06-25T12:59:40Z</time>
      </trkpt>
      <trkpt lat="46.28728" lon="4.69497">
        <ele>577.6</ele>
        <time>2022-06-25T12:59:41Z</time>
      </trkpt>
      <trkpt lat="46.28726" lon="4.69496">
        <ele>578</ele>
        <time>2022-06-25T12:59:42Z</time>
      </trkpt>
      <trkpt lat="46.28723" lon="4.69495">
        <ele>578</ele>
        <time>2022-06-25T12:59:43Z</time>
      </trkpt>
      <trkpt lat="46.28721" lon="4.69494">
        <ele>578.2</ele>
        <time>2022-06-25T12:59:44Z</time>
      </trkpt>
      <trkpt lat="46.28719" lon="4.69493">
        <ele>578.2</ele>
        <time>2022-06-25T12:59:45Z</time>
      </trkpt>
      <trkpt lat="46.28717" lon="4.69493">
        <ele>578.6</ele>
        <time>2022-06-25T12:59:46Z</time>
      </trkpt>
      <trkpt lat="46.28715" lon="4.69492">
        <ele>578.6</ele>
        <time>2022-06-25T12:59:47Z</time>
      </trkpt>
      <trkpt lat="46.28713" lon="4.69492">
        <ele>578.8</ele>
        <time>2022-06-25T12:59:48Z</time>
      </trkpt>
      <trkpt lat="46.2871" lon="4.69491">
        <ele>579.2</ele>
        <time>2022-06-25T12:59:49Z</time>
      </trkpt>
      <trkpt lat="46.28708" lon="4.6949">
        <ele>579.2</ele>
        <time>2022-06-25T12:59:50Z</time>
      </trkpt>
      <trkpt lat="46.28706" lon="4.6949">
        <ele>579.4</ele>
        <time>2022-06-25T12:59:51Z</time>
      </trkpt>
      <trkpt lat="46.28704" lon="4.69489">
        <ele>579.4</ele>
        <time>2022-06-25T12:59:52Z</time>
      </trkpt>
      <trkpt lat="46.28702" lon="4.69489">
        <ele>579.6</ele>
        <time>2022-06-25T12:59:53Z</time>
      </trkpt>
      <trkpt lat="46.287" lon="4.69488">
        <ele>580</ele>
        <time>2022-06-25T12:59:54Z</time>
      </trkpt>
      <trkpt lat="46.28698" lon="4.69488">
        <ele>580.2</ele>
        <time>2022-06-25T12:59:55Z</time>
      </trkpt>
      <trkpt lat="46.28696" lon="4.69487">
        <ele>580.4</ele>
        <time>2022-06-25T12:59:56Z</time>
      </trkpt>
      <trkpt lat="46.28694" lon="4.69486">
        <ele>580.4</ele>
        <time>2022-06-25T12:59:57Z</time>
      </trkpt>
      <trkpt lat="46.28692" lon="4.69485">
        <ele>580.8</ele>
        <time>2022-06-25T12:59:58Z</time>
      </trkpt>
      <trkpt lat="46.2869" lon="4.69484">
        <ele>580.8</ele>
        <time>2022-06-25T12:59:59Z</time>
      </trkpt>
      <trkpt lat="46.28688" lon="4.69483">
        <ele>581.2</ele>
        <time>2022-06-25T13:00:00Z</time>
      </trkpt>
      <trkpt lat="46.28687" lon="4.69482">
        <ele>581.4</ele>
        <time>2022-06-25T13:00:01Z</time>
      </trkpt>
      <trkpt lat="46.28685" lon="4.69482">
        <ele>581.4</ele>
        <time>2022-06-25T13:00:02Z</time>
      </trkpt>
      <trkpt lat="46.28683" lon="4.69481">
        <ele>581.8</ele>
        <time>2022-06-25T13:00:03Z</time>
      </trkpt>
      <trkpt lat="46.28681" lon="4.69479">
        <ele>582</ele>
        <time>2022-06-25T13:00:04Z</time>
      </trkpt>
      <trkpt lat="46.28679" lon="4.69478">
        <ele>582</ele>
        <time>2022-06-25T13:00:05Z</time>
      </trkpt>
      <trkpt lat="46.28677" lon="4.69477">
        <ele>582.2</ele>
        <time>2022-06-25T13:00:06Z</time>
      </trkpt>
      <trkpt lat="46.28675" lon="4.69476">
        <ele>582.2</ele>
        <time>2022-06-25T13:00:07Z</time>
      </trkpt>
      <trkpt lat="46.28673" lon="4.69475">
        <ele>582.6</ele>
        <time>2022-06-25T13:00:08Z</time>
      </trkpt>
      <trkpt lat="46.28671" lon="4.69474">
        <ele>582.8</ele>
        <time>2022-06-25T13:00:09Z</time>
      </trkpt>
      <trkpt lat="46.28667" lon="4.69472">
        <ele>583</ele>
        <time>2022-06-25T13:00:10Z</time>
      </trkpt>
      <trkpt lat="46.28665" lon="4.6947">
        <ele>583</ele>
        <time>2022-06-25T13:00:11Z</time>
      </trkpt>
      <trkpt lat="46.28662" lon="4.69469">
        <ele>583.4</ele>
        <time>2022-06-25T13:00:12Z</time>
      </trkpt>
      <trkpt lat="46.2866" lon="4.69468">
        <ele>583.4</ele>
        <time>2022-06-25T13:00:13Z</time>
      </trkpt>
      <trkpt lat="46.28658" lon="4.69467">
        <ele>583.8</ele>
        <time>2022-06-25T13:00:14Z</time>
      </trkpt>
      <trkpt lat="46.28656" lon="4.69466">
        <ele>583.8</ele>
        <time>2022-06-25T13:00:15Z</time>
      </trkpt>
      <trkpt lat="46.28654" lon="4.69465">
        <ele>584.2</ele>
        <time>2022-06-25T13:00:16Z</time>
      </trkpt>
      <trkpt lat="46.28651" lon="4.69464">
        <ele>584.2</ele>
        <time>2022-06-25T13:00:17Z</time>
      </trkpt>
      <trkpt lat="46.28649" lon="4.69463">
        <ele>584.6</ele>
        <time>2022-06-25T13:00:18Z</time>
      </trkpt>
      <trkpt lat="46.28647" lon="4.69462">
        <ele>584.6</ele>
        <time>2022-06-25T13:00:19Z</time>
      </trkpt>
      <trkpt lat="46.28645" lon="4.69461">
        <ele>585</ele>
        <time>2022-06-25T13:00:20Z</time>
      </trkpt>
      <trkpt lat="46.28642" lon="4.6946">
        <ele>585</ele>
        <time>2022-06-25T13:00:21Z</time>
      </trkpt>
      <trkpt lat="46.2864" lon="4.6946">
        <ele>585.2</ele>
        <time>2022-06-25T13:00:22Z</time>
      </trkpt>
      <trkpt lat="46.28638" lon="4.69459">
        <ele>585.2</ele>
        <time>2022-06-25T13:00:23Z</time>
      </trkpt>
      <trkpt lat="46.28635" lon="4.69457">
        <ele>585.4</ele>
        <time>2022-06-25T13:00:24Z</time>
      </trkpt>
      <trkpt lat="46.28633" lon="4.69456">
        <ele>585.4</ele>
        <time>2022-06-25T13:00:25Z</time>
      </trkpt>
      <trkpt lat="46.28631" lon="4.69455">
        <ele>585.8</ele>
        <time>2022-06-25T13:00:26Z</time>
      </trkpt>
      <trkpt lat="46.28629" lon="4.69454">
        <ele>585.8</ele>
        <time>2022-06-25T13:00:27Z</time>
      </trkpt>
      <trkpt lat="46.28627" lon="4.69453">
        <ele>586</ele>
        <time>2022-06-25T13:00:28Z</time>
      </trkpt>
      <trkpt lat="46.28625" lon="4.69452">
        <ele>586</ele>
        <time>2022-06-25T13:00:29Z</time>
      </trkpt>
      <trkpt lat="46.28623" lon="4.69451">
        <ele>586.4</ele>
        <time>2022-06-25T13:00:30Z</time>
      </trkpt>
      <trkpt lat="46.28621" lon="4.6945">
        <ele>586.4</ele>
        <time>2022-06-25T13:00:31Z</time>
      </trkpt>
      <trkpt lat="46.28619" lon="4.69449">
        <ele>586.8</ele>
        <time>2022-06-25T13:00:32Z</time>
      </trkpt>
      <trkpt lat="46.28617" lon="4.69448">
        <ele>586.8</ele>
        <time>2022-06-25T13:00:33Z</time>
      </trkpt>
      <trkpt lat="46.28614" lon="4.69447">
        <ele>587</ele>
        <time>2022-06-25T13:00:34Z</time>
      </trkpt>
      <trkpt lat="46.28612" lon="4.69446">
        <ele>587</ele>
        <time>2022-06-25T13:00:35Z</time>
      </trkpt>
      <trkpt lat="46.2861" lon="4.69445">
        <ele>587.4</ele>
        <time>2022-06-25T13:00:36Z</time>
      </trkpt>
      <trkpt lat="46.28608" lon="4.69445">
        <ele>587.4</ele>
        <time>2022-06-25T13:00:37Z</time>
      </trkpt>
      <trkpt lat="46.28606" lon="4.69444">
        <ele>587.6</ele>
        <time>2022-06-25T13:00:38Z</time>
      </trkpt>
      <trkpt lat="46.28604" lon="4.69444">
        <ele>587.6</ele>
        <time>2022-06-25T13:00:39Z</time>
      </trkpt>
      <trkpt lat="46.28602" lon="4.69443">
        <ele>588</ele>
        <time>2022-06-25T13:00:40Z</time>
      </trkpt>
      <trkpt lat="46.286" lon="4.69443">
        <ele>588</ele>
        <time>2022-06-25T13:00:41Z</time>
      </trkpt>
      <trkpt lat="46.28598" lon="4.69443">
        <ele>588.2</ele>
        <time>2022-06-25T13:00:42Z</time>
      </trkpt>
      <trkpt lat="46.28596" lon="4.69442">
        <ele>588.2</ele>
        <time>2022-06-25T13:00:43Z</time>
      </trkpt>
      <trkpt lat="46.28594" lon="4.69442">
        <ele>588.6</ele>
        <time>2022-06-25T13:00:44Z</time>
      </trkpt>
      <trkpt lat="46.28592" lon="4.69441">
        <ele>588.6</ele>
        <time>2022-06-25T13:00:45Z</time>
      </trkpt>
      <trkpt lat="46.2859" lon="4.69441">
        <ele>588.8</ele>
        <time>2022-06-25T13:00:46Z</time>
      </trkpt>
      <trkpt lat="46.28588" lon="4.69441">
        <ele>589</ele>
        <time>2022-06-25T13:00:47Z</time>
      </trkpt>
      <trkpt lat="46.28585" lon="4.6944">
        <ele>589</ele>
        <time>2022-06-25T13:00:48Z</time>
      </trkpt>
      <trkpt lat="46.28583" lon="4.69439">
        <ele>589.4</ele>
        <time>2022-06-25T13:00:49Z</time>
      </trkpt>
      <trkpt lat="46.28581" lon="4.69438">
        <ele>589.4</ele>
        <time>2022-06-25T13:00:50Z</time>
      </trkpt>
      <trkpt lat="46.28579" lon="4.69437">
        <ele>589.8</ele>
        <time>2022-06-25T13:00:51Z</time>
      </trkpt>
      <trkpt lat="46.28577" lon="4.69436">
        <ele>590</ele>
        <time>2022-06-25T13:00:52Z</time>
      </trkpt>
      <trkpt lat="46.28575" lon="4.69435">
        <ele>590</ele>
        <time>2022-06-25T13:00:53Z</time>
      </trkpt>
      <trkpt lat="46.28573" lon="4.69434">
        <ele>590.2</ele>
        <time>2022-06-25T13:00:54Z</time>
      </trkpt>
      <trkpt lat="46.28571" lon="4.69433">
        <ele>590.2</ele>
        <time>2022-06-25T13:00:55Z</time>
      </trkpt>
      <trkpt lat="46.28569" lon="4.69432">
        <ele>590.6</ele>
        <time>2022-06-25T13:00:56Z</time>
      </trkpt>
      <trkpt lat="46.28567" lon="4.69431">
        <ele>590.6</ele>
        <time>2022-06-25T13:00:57Z</time>
      </trkpt>
      <trkpt lat="46.28565" lon="4.6943">
        <ele>591</ele>
        <time>2022-06-25T13:00:58Z</time>
      </trkpt>
      <trkpt lat="46.28563" lon="4.69429">
        <ele>591</ele>
        <time>2022-06-25T13:00:59Z</time>
      </trkpt>
      <trkpt lat="46.28561" lon="4.69427">
        <ele>591.4</ele>
        <time>2022-06-25T13:01:00Z</time>
      </trkpt>
      <trkpt lat="46.28558" lon="4.69426">
        <ele>591.4</ele>
        <time>2022-06-25T13:01:01Z</time>
      </trkpt>
      <trkpt lat="46.28556" lon="4.69425">
        <ele>591.6</ele>
        <time>2022-06-25T13:01:02Z</time>
      </trkpt>
      <trkpt lat="46.28553" lon="4.69424">
        <ele>591.6</ele>
        <time>2022-06-25T13:01:03Z</time>
      </trkpt>
      <trkpt lat="46.28551" lon="4.69423">
        <ele>592</ele>
        <time>2022-06-25T13:01:04Z</time>
      </trkpt>
      <trkpt lat="46.28548" lon="4.69423">
        <ele>592.2</ele>
        <time>2022-06-25T13:01:05Z</time>
      </trkpt>
      <trkpt lat="46.28546" lon="4.69423">
        <ele>592.2</ele>
        <time>2022-06-25T13:01:06Z</time>
      </trkpt>
      <trkpt lat="46.28543" lon="4.69422">
        <ele>592.6</ele>
        <time>2022-06-25T13:01:07Z</time>
      </trkpt>
      <trkpt lat="46.28541" lon="4.6942">
        <ele>592.6</ele>
        <time>2022-06-25T13:01:08Z</time>
      </trkpt>
      <trkpt lat="46.28539" lon="4.69419">
        <ele>592.8</ele>
        <time>2022-06-25T13:01:09Z</time>
      </trkpt>
      <trkpt lat="46.28537" lon="4.69418">
        <ele>592.8</ele>
        <time>2022-06-25T13:01:10Z</time>
      </trkpt>
      <trkpt lat="46.28534" lon="4.69417">
        <ele>592.8</ele>
        <time>2022-06-25T13:01:11Z</time>
      </trkpt>
      <trkpt lat="46.28532" lon="4.69415">
        <ele>593.2</ele>
        <time>2022-06-25T13:01:12Z</time>
      </trkpt>
      <trkpt lat="46.2853" lon="4.69414">
        <ele>593.2</ele>
        <time>2022-06-25T13:01:13Z</time>
      </trkpt>
      <trkpt lat="46.28528" lon="4.69412">
        <ele>593.4</ele>
        <time>2022-06-25T13:01:14Z</time>
      </trkpt>
      <trkpt lat="46.28526" lon="4.69411">
        <ele>593.4</ele>
        <time>2022-06-25T13:01:15Z</time>
      </trkpt>
      <trkpt lat="46.28524" lon="4.69411">
        <ele>593.6</ele>
        <time>2022-06-25T13:01:16Z</time>
      </trkpt>
      <trkpt lat="46.28522" lon="4.6941">
        <ele>593.6</ele>
        <time>2022-06-25T13:01:17Z</time>
      </trkpt>
      <trkpt lat="46.2852" lon="4.6941">
        <ele>594</ele>
        <time>2022-06-25T13:01:18Z</time>
      </trkpt>
      <trkpt lat="46.28518" lon="4.69409">
        <ele>594</ele>
        <time>2022-06-25T13:01:19Z</time>
      </trkpt>
      <trkpt lat="46.28516" lon="4.69409">
        <ele>594.4</ele>
        <time>2022-06-25T13:01:20Z</time>
      </trkpt>
      <trkpt lat="46.28513" lon="4.69408">
        <ele>594.4</ele>
        <time>2022-06-25T13:01:21Z</time>
      </trkpt>
      <trkpt lat="46.28511" lon="4.69408">
        <ele>594.6</ele>
        <time>2022-06-25T13:01:22Z</time>
      </trkpt>
      <trkpt lat="46.28509" lon="4.69408">
        <ele>594.6</ele>
        <time>2022-06-25T13:01:23Z</time>
      </trkpt>
      <trkpt lat="46.28507" lon="4.69407">
        <ele>595</ele>
        <time>2022-06-25T13:01:24Z</time>
      </trkpt>
      <trkpt lat="46.28505" lon="4.69407">
        <ele>595</ele>
        <time>2022-06-25T13:01:25Z</time>
      </trkpt>
      <trkpt lat="46.28504" lon="4.69406">
        <ele>595.2</ele>
        <time>2022-06-25T13:01:26Z</time>
      </trkpt>
      <trkpt lat="46.28502" lon="4.69405">
        <ele>595.4</ele>
        <time>2022-06-25T13:01:27Z</time>
      </trkpt>
      <trkpt lat="46.285" lon="4.69405">
        <ele>595.6</ele>
        <time>2022-06-25T13:01:28Z</time>
      </trkpt>
      <trkpt lat="46.28499" lon="4.69404">
        <ele>595.6</ele>
        <time>2022-06-25T13:01:29Z</time>
      </trkpt>
      <trkpt lat="46.28497" lon="4.69403">
        <ele>596</ele>
        <time>2022-06-25T13:01:30Z</time>
      </trkpt>
      <trkpt lat="46.28496" lon="4.69401">
        <ele>596</ele>
        <time>2022-06-25T13:01:31Z</time>
      </trkpt>
      <trkpt lat="46.28494" lon="4.694">
        <ele>596.2</ele>
        <time>2022-06-25T13:01:32Z</time>
      </trkpt>
      <trkpt lat="46.28493" lon="4.69399">
        <ele>596.2</ele>
        <time>2022-06-25T13:01:33Z</time>
      </trkpt>
      <trkpt lat="46.28492" lon="4.69399">
        <ele>596.6</ele>
        <time>2022-06-25T13:01:34Z</time>
      </trkpt>
      <trkpt lat="46.2849" lon="4.69398">
        <ele>596.6</ele>
        <time>2022-06-25T13:01:35Z</time>
      </trkpt>
      <trkpt lat="46.28488" lon="4.69398">
        <ele>597</ele>
        <time>2022-06-25T13:01:36Z</time>
      </trkpt>
      <trkpt lat="46.28486" lon="4.69397">
        <ele>597.2</ele>
        <time>2022-06-25T13:01:37Z</time>
      </trkpt>
      <trkpt lat="46.28484" lon="4.69397">
        <ele>597.2</ele>
        <time>2022-06-25T13:01:38Z</time>
      </trkpt>
      <trkpt lat="46.28483" lon="4.69397">
        <ele>597.6</ele>
        <time>2022-06-25T13:01:39Z</time>
      </trkpt>
      <trkpt lat="46.28481" lon="4.69397">
        <ele>597.8</ele>
        <time>2022-06-25T13:01:40Z</time>
      </trkpt>
      <trkpt lat="46.28479" lon="4.69397">
        <ele>597.8</ele>
        <time>2022-06-25T13:01:41Z</time>
      </trkpt>
      <trkpt lat="46.28477" lon="4.69397">
        <ele>598</ele>
        <time>2022-06-25T13:01:42Z</time>
      </trkpt>
      <trkpt lat="46.28476" lon="4.69396">
        <ele>598</ele>
        <time>2022-06-25T13:01:43Z</time>
      </trkpt>
      <trkpt lat="46.28474" lon="4.69396">
        <ele>598.4</ele>
        <time>2022-06-25T13:01:44Z</time>
      </trkpt>
      <trkpt lat="46.28473" lon="4.69396">
        <ele>598.6</ele>
        <time>2022-06-25T13:01:45Z</time>
      </trkpt>
      <trkpt lat="46.2847" lon="4.69396">
        <ele>598.8</ele>
        <time>2022-06-25T13:01:46Z</time>
      </trkpt>
      <trkpt lat="46.28468" lon="4.69396">
        <ele>598.8</ele>
        <time>2022-06-25T13:01:47Z</time>
      </trkpt>
      <trkpt lat="46.28466" lon="4.69397">
        <ele>599</ele>
        <time>2022-06-25T13:01:48Z</time>
      </trkpt>
      <trkpt lat="46.28464" lon="4.69398">
        <ele>599</ele>
        <time>2022-06-25T13:01:49Z</time>
      </trkpt>
      <trkpt lat="46.28462" lon="4.69398">
        <ele>599.4</ele>
        <time>2022-06-25T13:01:50Z</time>
      </trkpt>
      <trkpt lat="46.2846" lon="4.69398">
        <ele>599.4</ele>
        <time>2022-06-25T13:01:51Z</time>
      </trkpt>
      <trkpt lat="46.28457" lon="4.69398">
        <ele>599.6</ele>
        <time>2022-06-25T13:01:52Z</time>
      </trkpt>
      <trkpt lat="46.28456" lon="4.69397">
        <ele>599.6</ele>
        <time>2022-06-25T13:01:53Z</time>
      </trkpt>
      <trkpt lat="46.28454" lon="4.69397">
        <ele>600</ele>
        <time>2022-06-25T13:01:54Z</time>
      </trkpt>
      <trkpt lat="46.28452" lon="4.69397">
        <ele>600</ele>
        <time>2022-06-25T13:01:55Z</time>
      </trkpt>
      <trkpt lat="46.28451" lon="4.69396">
        <ele>600.2</ele>
        <time>2022-06-25T13:01:56Z</time>
      </trkpt>
      <trkpt lat="46.28449" lon="4.69396">
        <ele>600.4</ele>
        <time>2022-06-25T13:01:57Z</time>
      </trkpt>
      <trkpt lat="46.28447" lon="4.69395">
        <ele>600.4</ele>
        <time>2022-06-25T13:01:58Z</time>
      </trkpt>
      <trkpt lat="46.28446" lon="4.69395">
        <ele>600.8</ele>
        <time>2022-06-25T13:01:59Z</time>
      </trkpt>
      <trkpt lat="46.28445" lon="4.69394">
        <ele>600.8</ele>
        <time>2022-06-25T13:02:00Z</time>
      </trkpt>
      <trkpt lat="46.28442" lon="4.69393">
        <ele>601.2</ele>
        <time>2022-06-25T13:02:01Z</time>
      </trkpt>
      <trkpt lat="46.2844" lon="4.69392">
        <ele>601.4</ele>
        <time>2022-06-25T13:02:02Z</time>
      </trkpt>
      <trkpt lat="46.28438" lon="4.69391">
        <ele>601.4</ele>
        <time>2022-06-25T13:02:03Z</time>
      </trkpt>
      <trkpt lat="46.28435" lon="4.6939">
        <ele>601.6</ele>
        <time>2022-06-25T13:02:04Z</time>
      </trkpt>
      <trkpt lat="46.28432" lon="4.69389">
        <ele>601.6</ele>
        <time>2022-06-25T13:02:05Z</time>
      </trkpt>
      <trkpt lat="46.28429" lon="4.69387">
        <ele>601.8</ele>
        <time>2022-06-25T13:02:06Z</time>
      </trkpt>
      <trkpt lat="46.28427" lon="4.69386">
        <ele>602</ele>
        <time>2022-06-25T13:02:07Z</time>
      </trkpt>
      <trkpt lat="46.28424" lon="4.69384">
        <ele>602</ele>
        <time>2022-06-25T13:02:08Z</time>
      </trkpt>
      <trkpt lat="46.28422" lon="4.69383">
        <ele>602.4</ele>
        <time>2022-06-25T13:02:09Z</time>
      </trkpt>
      <trkpt lat="46.28419" lon="4.69382">
        <ele>602.4</ele>
        <time>2022-06-25T13:02:10Z</time>
      </trkpt>
      <trkpt lat="46.28417" lon="4.69381">
        <ele>602.8</ele>
        <time>2022-06-25T13:02:11Z</time>
      </trkpt>
      <trkpt lat="46.28414" lon="4.69379">
        <ele>602.8</ele>
        <time>2022-06-25T13:02:12Z</time>
      </trkpt>
      <trkpt lat="46.28412" lon="4.69378">
        <ele>603</ele>
        <time>2022-06-25T13:02:13Z</time>
      </trkpt>
      <trkpt lat="46.28409" lon="4.69376">
        <ele>603</ele>
        <time>2022-06-25T13:02:14Z</time>
      </trkpt>
      <trkpt lat="46.28407" lon="4.69374">
        <ele>603.4</ele>
        <time>2022-06-25T13:02:15Z</time>
      </trkpt>
      <trkpt lat="46.28405" lon="4.69372">
        <ele>603.4</ele>
        <time>2022-06-25T13:02:16Z</time>
      </trkpt>
      <trkpt lat="46.28403" lon="4.6937">
        <ele>603.6</ele>
        <time>2022-06-25T13:02:17Z</time>
      </trkpt>
      <trkpt lat="46.284" lon="4.69367">
        <ele>603.6</ele>
        <time>2022-06-25T13:02:18Z</time>
      </trkpt>
      <trkpt lat="46.28398" lon="4.69365">
        <ele>604</ele>
        <time>2022-06-25T13:02:19Z</time>
      </trkpt>
      <trkpt lat="46.28396" lon="4.69363">
        <ele>604</ele>
        <time>2022-06-25T13:02:20Z</time>
      </trkpt>
      <trkpt lat="46.28395" lon="4.69361">
        <ele>604.2</ele>
        <time>2022-06-25T13:02:21Z</time>
      </trkpt>
      <trkpt lat="46.28392" lon="4.69359">
        <ele>604.2</ele>
        <time>2022-06-25T13:02:22Z</time>
      </trkpt>
      <trkpt lat="46.2839" lon="4.69358">
        <ele>604.6</ele>
        <time>2022-06-25T13:02:23Z</time>
      </trkpt>
      <trkpt lat="46.28388" lon="4.69356">
        <ele>604.6</ele>
        <time>2022-06-25T13:02:24Z</time>
      </trkpt>
      <trkpt lat="46.28386" lon="4.69354">
        <ele>604.8</ele>
        <time>2022-06-25T13:02:25Z</time>
      </trkpt>
      <trkpt lat="46.28384" lon="4.69352">
        <ele>604.8</ele>
        <time>2022-06-25T13:02:26Z</time>
      </trkpt>
      <trkpt lat="46.28382" lon="4.6935">
        <ele>605.2</ele>
        <time>2022-06-25T13:02:27Z</time>
      </trkpt>
      <trkpt lat="46.2838" lon="4.69348">
        <ele>605.2</ele>
        <time>2022-06-25T13:02:28Z</time>
      </trkpt>
      <trkpt lat="46.28379" lon="4.69346">
        <ele>605.2</ele>
        <time>2022-06-25T13:02:29Z</time>
      </trkpt>
      <trkpt lat="46.28377" lon="4.69344">
        <ele>605.6</ele>
        <time>2022-06-25T13:02:30Z</time>
      </trkpt>
      <trkpt lat="46.28375" lon="4.69342">
        <ele>605.6</ele>
        <time>2022-06-25T13:02:31Z</time>
      </trkpt>
      <trkpt lat="46.28373" lon="4.69341">
        <ele>605.8</ele>
        <time>2022-06-25T13:02:32Z</time>
      </trkpt>
      <trkpt lat="46.28371" lon="4.69339">
        <ele>605.8</ele>
        <time>2022-06-25T13:02:33Z</time>
      </trkpt>
      <trkpt lat="46.2837" lon="4.69337">
        <ele>606.2</ele>
        <time>2022-06-25T13:02:34Z</time>
      </trkpt>
      <trkpt lat="46.28368" lon="4.69334">
        <ele>606.2</ele>
        <time>2022-06-25T13:02:35Z</time>
      </trkpt>
      <trkpt lat="46.28367" lon="4.69332">
        <ele>606.2</ele>
        <time>2022-06-25T13:02:36Z</time>
      </trkpt>
      <trkpt lat="46.28365" lon="4.69329">
        <ele>606.4</ele>
        <time>2022-06-25T13:02:37Z</time>
      </trkpt>
      <trkpt lat="46.28364" lon="4.69327">
        <ele>606.4</ele>
        <time>2022-06-25T13:02:38Z</time>
      </trkpt>
      <trkpt lat="46.28363" lon="4.69324">
        <ele>606.6</ele>
        <time>2022-06-25T13:02:39Z</time>
      </trkpt>
      <trkpt lat="46.28362" lon="4.69321">
        <ele>606.6</ele>
        <time>2022-06-25T13:02:40Z</time>
      </trkpt>
      <trkpt lat="46.2836" lon="4.69319">
        <ele>607</ele>
        <time>2022-06-25T13:02:41Z</time>
      </trkpt>
      <trkpt lat="46.28359" lon="4.69316">
        <ele>607</ele>
        <time>2022-06-25T13:02:42Z</time>
      </trkpt>
      <trkpt lat="46.28358" lon="4.69313">
        <ele>607.4</ele>
        <time>2022-06-25T13:02:43Z</time>
      </trkpt>
      <trkpt lat="46.28357" lon="4.6931">
        <ele>607.4</ele>
        <time>2022-06-25T13:02:44Z</time>
      </trkpt>
      <trkpt lat="46.28356" lon="4.69308">
        <ele>607.8</ele>
        <time>2022-06-25T13:02:45Z</time>
      </trkpt>
      <trkpt lat="46.28355" lon="4.69305">
        <ele>607.8</ele>
        <time>2022-06-25T13:02:46Z</time>
      </trkpt>
      <trkpt lat="46.28354" lon="4.69303">
        <ele>608</ele>
        <time>2022-06-25T13:02:47Z</time>
      </trkpt>
      <trkpt lat="46.28353" lon="4.693">
        <ele>608</ele>
        <time>2022-06-25T13:02:48Z</time>
      </trkpt>
      <trkpt lat="46.28353" lon="4.69297">
        <ele>608</ele>
        <time>2022-06-25T13:02:49Z</time>
      </trkpt>
      <trkpt lat="46.28352" lon="4.69294">
        <ele>608.4</ele>
        <time>2022-06-25T13:02:50Z</time>
      </trkpt>
      <trkpt lat="46.28351" lon="4.69292">
        <ele>608.4</ele>
        <time>2022-06-25T13:02:51Z</time>
      </trkpt>
      <trkpt lat="46.2835" lon="4.69289">
        <ele>608.6</ele>
        <time>2022-06-25T13:02:52Z</time>
      </trkpt>
      <trkpt lat="46.2835" lon="4.69286">
        <ele>608.6</ele>
        <time>2022-06-25T13:02:53Z</time>
      </trkpt>
      <trkpt lat="46.28349" lon="4.69283">
        <ele>608.8</ele>
        <time>2022-06-25T13:02:54Z</time>
      </trkpt>
      <trkpt lat="46.28349" lon="4.6928">
        <ele>608.8</ele>
        <time>2022-06-25T13:02:55Z</time>
      </trkpt>
      <trkpt lat="46.28348" lon="4.69278">
        <ele>609.2</ele>
        <time>2022-06-25T13:02:56Z</time>
      </trkpt>
      <trkpt lat="46.28347" lon="4.69275">
        <ele>609.2</ele>
        <time>2022-06-25T13:02:57Z</time>
      </trkpt>
      <trkpt lat="46.28346" lon="4.69272">
        <ele>609.4</ele>
        <time>2022-06-25T13:02:58Z</time>
      </trkpt>
      <trkpt lat="46.28345" lon="4.6927">
        <ele>609.4</ele>
        <time>2022-06-25T13:02:59Z</time>
      </trkpt>
      <trkpt lat="46.28344" lon="4.69267">
        <ele>609.6</ele>
        <time>2022-06-25T13:03:00Z</time>
      </trkpt>
      <trkpt lat="46.28343" lon="4.69265">
        <ele>610</ele>
        <time>2022-06-25T13:03:01Z</time>
      </trkpt>
      <trkpt lat="46.28342" lon="4.69263">
        <ele>610</ele>
        <time>2022-06-25T13:03:02Z</time>
      </trkpt>
      <trkpt lat="46.28342" lon="4.6926">
        <ele>610.2</ele>
        <time>2022-06-25T13:03:03Z</time>
      </trkpt>
      <trkpt lat="46.28341" lon="4.69258">
        <ele>610.2</ele>
        <time>2022-06-25T13:03:04Z</time>
      </trkpt>
      <trkpt lat="46.28341" lon="4.69255">
        <ele>610.6</ele>
        <time>2022-06-25T13:03:05Z</time>
      </trkpt>
      <trkpt lat="46.28341" lon="4.69252">
        <ele>610.6</ele>
        <time>2022-06-25T13:03:06Z</time>
      </trkpt>
      <trkpt lat="46.28341" lon="4.69249">
        <ele>610.8</ele>
        <time>2022-06-25T13:03:07Z</time>
      </trkpt>
      <trkpt lat="46.2834" lon="4.69246">
        <ele>610.8</ele>
        <time>2022-06-25T13:03:08Z</time>
      </trkpt>
      <trkpt lat="46.28339" lon="4.69244">
        <ele>611.2</ele>
        <time>2022-06-25T13:03:09Z</time>
      </trkpt>
      <trkpt lat="46.28338" lon="4.69241">
        <ele>611.4</ele>
        <time>2022-06-25T13:03:10Z</time>
      </trkpt>
      <trkpt lat="46.28337" lon="4.69239">
        <ele>611.4</ele>
        <time>2022-06-25T13:03:11Z</time>
      </trkpt>
      <trkpt lat="46.28337" lon="4.69236">
        <ele>611.8</ele>
        <time>2022-06-25T13:03:12Z</time>
      </trkpt>
      <trkpt lat="46.28336" lon="4.69234">
        <ele>612</ele>
        <time>2022-06-25T13:03:13Z</time>
      </trkpt>
      <trkpt lat="46.28336" lon="4.69231">
        <ele>612</ele>
        <time>2022-06-25T13:03:14Z</time>
      </trkpt>
      <trkpt lat="46.28336" lon="4.69228">
        <ele>612.4</ele>
        <time>2022-06-25T13:03:15Z</time>
      </trkpt>
      <trkpt lat="46.28335" lon="4.69225">
        <ele>612.4</ele>
        <time>2022-06-25T13:03:16Z</time>
      </trkpt>
      <trkpt lat="46.28335" lon="4.69222">
        <ele>612.6</ele>
        <time>2022-06-25T13:03:17Z</time>
      </trkpt>
      <trkpt lat="46.28335" lon="4.69219">
        <ele>612.6</ele>
        <time>2022-06-25T13:03:18Z</time>
      </trkpt>
      <trkpt lat="46.28335" lon="4.69216">
        <ele>613</ele>
        <time>2022-06-25T13:03:19Z</time>
      </trkpt>
      <trkpt lat="46.28335" lon="4.69213">
        <ele>613</ele>
        <time>2022-06-25T13:03:20Z</time>
      </trkpt>
      <trkpt lat="46.28335" lon="4.69209">
        <ele>613.2</ele>
        <time>2022-06-25T13:03:21Z</time>
      </trkpt>
      <trkpt lat="46.28335" lon="4.69206">
        <ele>613.2</ele>
        <time>2022-06-25T13:03:22Z</time>
      </trkpt>
      <trkpt lat="46.28335" lon="4.69203">
        <ele>613.4</ele>
        <time>2022-06-25T13:03:23Z</time>
      </trkpt>
      <trkpt lat="46.28335" lon="4.692">
        <ele>613.4</ele>
        <time>2022-06-25T13:03:24Z</time>
      </trkpt>
      <trkpt lat="46.28335" lon="4.69197">
        <ele>613.8</ele>
        <time>2022-06-25T13:03:25Z</time>
      </trkpt>
      <trkpt lat="46.28336" lon="4.69193">
        <ele>613.8</ele>
        <time>2022-06-25T13:03:26Z</time>
      </trkpt>
      <trkpt lat="46.28336" lon="4.6919">
        <ele>614.2</ele>
        <time>2022-06-25T13:03:27Z</time>
      </trkpt>
      <trkpt lat="46.28336" lon="4.69187">
        <ele>614.4</ele>
        <time>2022-06-25T13:03:28Z</time>
      </trkpt>
      <trkpt lat="46.28336" lon="4.69184">
        <ele>614.4</ele>
        <time>2022-06-25T13:03:29Z</time>
      </trkpt>
      <trkpt lat="46.28337" lon="4.69181">
        <ele>614.6</ele>
        <time>2022-06-25T13:03:30Z</time>
      </trkpt>
      <trkpt lat="46.28337" lon="4.69178">
        <ele>614.6</ele>
        <time>2022-06-25T13:03:31Z</time>
      </trkpt>
      <trkpt lat="46.28338" lon="4.69175">
        <ele>615</ele>
        <time>2022-06-25T13:03:32Z</time>
      </trkpt>
      <trkpt lat="46.28338" lon="4.69172">
        <ele>615</ele>
        <time>2022-06-25T13:03:33Z</time>
      </trkpt>
      <trkpt lat="46.28339" lon="4.69169">
        <ele>615.2</ele>
        <time>2022-06-25T13:03:34Z</time>
      </trkpt>
      <trkpt lat="46.28339" lon="4.69165">
        <ele>615.4</ele>
        <time>2022-06-25T13:03:35Z</time>
      </trkpt>
      <trkpt lat="46.2834" lon="4.69162">
        <ele>615.4</ele>
        <time>2022-06-25T13:03:36Z</time>
      </trkpt>
      <trkpt lat="46.2834" lon="4.69159">
        <ele>615.8</ele>
        <time>2022-06-25T13:03:37Z</time>
      </trkpt>
      <trkpt lat="46.28341" lon="4.69156">
        <ele>615.8</ele>
        <time>2022-06-25T13:03:38Z</time>
      </trkpt>
      <trkpt lat="46.28342" lon="4.69153">
        <ele>616</ele>
        <time>2022-06-25T13:03:39Z</time>
      </trkpt>
      <trkpt lat="46.28343" lon="4.6915">
        <ele>616</ele>
        <time>2022-06-25T13:03:40Z</time>
      </trkpt>
      <trkpt lat="46.28344" lon="4.69147">
        <ele>616.4</ele>
        <time>2022-06-25T13:03:41Z</time>
      </trkpt>
      <trkpt lat="46.28345" lon="4.69144">
        <ele>616.4</ele>
        <time>2022-06-25T13:03:42Z</time>
      </trkpt>
      <trkpt lat="46.28346" lon="4.69141">
        <ele>616.6</ele>
        <time>2022-06-25T13:03:43Z</time>
      </trkpt>
      <trkpt lat="46.28346" lon="4.69138">
        <ele>617</ele>
        <time>2022-06-25T13:03:44Z</time>
      </trkpt>
      <trkpt lat="46.28347" lon="4.69135">
        <ele>617</ele>
        <time>2022-06-25T13:03:45Z</time>
      </trkpt>
      <trkpt lat="46.28347" lon="4.69132">
        <ele>617.2</ele>
        <time>2022-06-25T13:03:46Z</time>
      </trkpt>
      <trkpt lat="46.28348" lon="4.69129">
        <ele>617.2</ele>
        <time>2022-06-25T13:03:47Z</time>
      </trkpt>
      <trkpt lat="46.28349" lon="4.69125">
        <ele>617.6</ele>
        <time>2022-06-25T13:03:48Z</time>
      </trkpt>
      <trkpt lat="46.2835" lon="4.69122">
        <ele>617.6</ele>
        <time>2022-06-25T13:03:49Z</time>
      </trkpt>
      <trkpt lat="46.28351" lon="4.69119">
        <ele>618</ele>
        <time>2022-06-25T13:03:50Z</time>
      </trkpt>
      <trkpt lat="46.28352" lon="4.69116">
        <ele>618</ele>
        <time>2022-06-25T13:03:51Z</time>
      </trkpt>
      <trkpt lat="46.28353" lon="4.69113">
        <ele>618.2</ele>
        <time>2022-06-25T13:03:52Z</time>
      </trkpt>
      <trkpt lat="46.28354" lon="4.6911">
        <ele>618.2</ele>
        <time>2022-06-25T13:03:53Z</time>
      </trkpt>
      <trkpt lat="46.28355" lon="4.69106">
        <ele>618.6</ele>
        <time>2022-06-25T13:03:54Z</time>
      </trkpt>
      <trkpt lat="46.28356" lon="4.69103">
        <ele>618.6</ele>
        <time>2022-06-25T13:03:55Z</time>
      </trkpt>
      <trkpt lat="46.28356" lon="4.691">
        <ele>619</ele>
        <time>2022-06-25T13:03:56Z</time>
      </trkpt>
      <trkpt lat="46.28357" lon="4.69096">
        <ele>619.2</ele>
        <time>2022-06-25T13:03:57Z</time>
      </trkpt>
      <trkpt lat="46.28358" lon="4.69093">
        <ele>619.4</ele>
        <time>2022-06-25T13:03:58Z</time>
      </trkpt>
      <trkpt lat="46.28358" lon="4.6909">
        <ele>619.6</ele>
        <time>2022-06-25T13:03:59Z</time>
      </trkpt>
      <trkpt lat="46.28359" lon="4.69087">
        <ele>619.6</ele>
        <time>2022-06-25T13:04:00Z</time>
      </trkpt>
      <trkpt lat="46.2836" lon="4.69084">
        <ele>619.8</ele>
        <time>2022-06-25T13:04:01Z</time>
      </trkpt>
      <trkpt lat="46.28361" lon="4.69081">
        <ele>619.8</ele>
        <time>2022-06-25T13:04:02Z</time>
      </trkpt>
      <trkpt lat="46.28362" lon="4.69078">
        <ele>620</ele>
        <time>2022-06-25T13:04:03Z</time>
      </trkpt>
      <trkpt lat="46.28363" lon="4.69075">
        <ele>620</ele>
        <time>2022-06-25T13:04:04Z</time>
      </trkpt>
      <trkpt lat="46.28363" lon="4.69072">
        <ele>620.4</ele>
        <time>2022-06-25T13:04:05Z</time>
      </trkpt>
      <trkpt lat="46.28364" lon="4.69068">
        <ele>620.4</ele>
        <time>2022-06-25T13:04:06Z</time>
      </trkpt>
      <trkpt lat="46.28364" lon="4.69065">
        <ele>620.8</ele>
        <time>2022-06-25T13:04:07Z</time>
      </trkpt>
      <trkpt lat="46.28365" lon="4.69062">
        <ele>621</ele>
        <time>2022-06-25T13:04:08Z</time>
      </trkpt>
      <trkpt lat="46.28366" lon="4.69059">
        <ele>621.2</ele>
        <time>2022-06-25T13:04:09Z</time>
      </trkpt>
      <trkpt lat="46.28367" lon="4.69055">
        <ele>621.2</ele>
        <time>2022-06-25T13:04:10Z</time>
      </trkpt>
      <trkpt lat="46.28368" lon="4.69052">
        <ele>621.6</ele>
        <time>2022-06-25T13:04:11Z</time>
      </trkpt>
      <trkpt lat="46.28368" lon="4.69049">
        <ele>621.8</ele>
        <time>2022-06-25T13:04:12Z</time>
      </trkpt>
      <trkpt lat="46.28369" lon="4.69046">
        <ele>621.8</ele>
        <time>2022-06-25T13:04:13Z</time>
      </trkpt>
      <trkpt lat="46.2837" lon="4.69042">
        <ele>622.2</ele>
        <time>2022-06-25T13:04:14Z</time>
      </trkpt>
      <trkpt lat="46.28371" lon="4.69039">
        <ele>622.2</ele>
        <time>2022-06-25T13:04:15Z</time>
      </trkpt>
      <trkpt lat="46.28372" lon="4.69036">
        <ele>622.6</ele>
        <time>2022-06-25T13:04:16Z</time>
      </trkpt>
      <trkpt lat="46.28372" lon="4.69032">
        <ele>622.6</ele>
        <time>2022-06-25T13:04:17Z</time>
      </trkpt>
      <trkpt lat="46.28373" lon="4.69029">
        <ele>622.8</ele>
        <time>2022-06-25T13:04:18Z</time>
      </trkpt>
      <trkpt lat="46.28374" lon="4.69026">
        <ele>623</ele>
        <time>2022-06-25T13:04:19Z</time>
      </trkpt>
      <trkpt lat="46.28374" lon="4.69022">
        <ele>623</ele>
        <time>2022-06-25T13:04:20Z</time>
      </trkpt>
      <trkpt lat="46.28375" lon="4.69019">
        <ele>623.2</ele>
        <time>2022-06-25T13:04:21Z</time>
      </trkpt>
      <trkpt lat="46.28376" lon="4.69016">
        <ele>623.2</ele>
        <time>2022-06-25T13:04:22Z</time>
      </trkpt>
      <trkpt lat="46.28377" lon="4.69013">
        <ele>623.6</ele>
        <time>2022-06-25T13:04:23Z</time>
      </trkpt>
      <trkpt lat="46.28378" lon="4.6901">
        <ele>623.8</ele>
        <time>2022-06-25T13:04:24Z</time>
      </trkpt>
      <trkpt lat="46.28378" lon="4.69006">
        <ele>624</ele>
        <time>2022-06-25T13:04:25Z</time>
      </trkpt>
      <trkpt lat="46.28379" lon="4.69003">
        <ele>624</ele>
        <time>2022-06-25T13:04:26Z</time>
      </trkpt>
      <trkpt lat="46.28379" lon="4.69">
        <ele>624.4</ele>
        <time>2022-06-25T13:04:27Z</time>
      </trkpt>
      <trkpt lat="46.2838" lon="4.68997">
        <ele>624.4</ele>
        <time>2022-06-25T13:04:28Z</time>
      </trkpt>
      <trkpt lat="46.28381" lon="4.68994">
        <ele>624.8</ele>
        <time>2022-06-25T13:04:29Z</time>
      </trkpt>
      <trkpt lat="46.28381" lon="4.68991">
        <ele>624.8</ele>
        <time>2022-06-25T13:04:30Z</time>
      </trkpt>
      <trkpt lat="46.28382" lon="4.68987">
        <ele>625</ele>
        <time>2022-06-25T13:04:31Z</time>
      </trkpt>
      <trkpt lat="46.28382" lon="4.68984">
        <ele>625</ele>
        <time>2022-06-25T13:04:32Z</time>
      </trkpt>
      <trkpt lat="46.28383" lon="4.68981">
        <ele>625.4</ele>
        <time>2022-06-25T13:04:33Z</time>
      </trkpt>
      <trkpt lat="46.28383" lon="4.68978">
        <ele>625.4</ele>
        <time>2022-06-25T13:04:34Z</time>
      </trkpt>
      <trkpt lat="46.28383" lon="4.68974">
        <ele>625.8</ele>
        <time>2022-06-25T13:04:35Z</time>
      </trkpt>
      <trkpt lat="46.28384" lon="4.68971">
        <ele>626</ele>
        <time>2022-06-25T13:04:36Z</time>
      </trkpt>
      <trkpt lat="46.28384" lon="4.68968">
        <ele>626</ele>
        <time>2022-06-25T13:04:37Z</time>
      </trkpt>
      <trkpt lat="46.28383" lon="4.68964">
        <ele>626.2</ele>
        <time>2022-06-25T13:04:38Z</time>
      </trkpt>
      <trkpt lat="46.28383" lon="4.68961">
        <ele>626.2</ele>
        <time>2022-06-25T13:04:39Z</time>
      </trkpt>
      <trkpt lat="46.28383" lon="4.68958">
        <ele>626.6</ele>
        <time>2022-06-25T13:04:40Z</time>
      </trkpt>
      <trkpt lat="46.28383" lon="4.68955">
        <ele>626.8</ele>
        <time>2022-06-25T13:04:41Z</time>
      </trkpt>
      <trkpt lat="46.28383" lon="4.68952">
        <ele>627.2</ele>
        <time>2022-06-25T13:04:42Z</time>
      </trkpt>
      <trkpt lat="46.28383" lon="4.6895">
        <ele>627.4</ele>
        <time>2022-06-25T13:04:43Z</time>
      </trkpt>
      <trkpt lat="46.28382" lon="4.68947">
        <ele>627.4</ele>
        <time>2022-06-25T13:04:44Z</time>
      </trkpt>
      <trkpt lat="46.28382" lon="4.68944">
        <ele>627.6</ele>
        <time>2022-06-25T13:04:45Z</time>
      </trkpt>
      <trkpt lat="46.28382" lon="4.68941">
        <ele>627.6</ele>
        <time>2022-06-25T13:04:46Z</time>
      </trkpt>
      <trkpt lat="46.28381" lon="4.68939">
        <ele>628</ele>
        <time>2022-06-25T13:04:47Z</time>
      </trkpt>
      <trkpt lat="46.28381" lon="4.68936">
        <ele>628</ele>
        <time>2022-06-25T13:04:48Z</time>
      </trkpt>
      <trkpt lat="46.2838" lon="4.68933">
        <ele>628.4</ele>
        <time>2022-06-25T13:04:49Z</time>
      </trkpt>
      <trkpt lat="46.2838" lon="4.6893">
        <ele>628.4</ele>
        <time>2022-06-25T13:04:50Z</time>
      </trkpt>
      <trkpt lat="46.28379" lon="4.68927">
        <ele>628.8</ele>
        <time>2022-06-25T13:04:51Z</time>
      </trkpt>
      <trkpt lat="46.28379" lon="4.68924">
        <ele>628.8</ele>
        <time>2022-06-25T13:04:52Z</time>
      </trkpt>
      <trkpt lat="46.28378" lon="4.68921">
        <ele>629</ele>
        <time>2022-06-25T13:04:53Z</time>
      </trkpt>
      <trkpt lat="46.28377" lon="4.68918">
        <ele>629</ele>
        <time>2022-06-25T13:04:54Z</time>
      </trkpt>
      <trkpt lat="46.28376" lon="4.68915">
        <ele>629.4</ele>
        <time>2022-06-25T13:04:55Z</time>
      </trkpt>
      <trkpt lat="46.28376" lon="4.68912">
        <ele>629.4</ele>
        <time>2022-06-25T13:04:56Z</time>
      </trkpt>
      <trkpt lat="46.28375" lon="4.6891">
        <ele>629.8</ele>
        <time>2022-06-25T13:04:57Z</time>
      </trkpt>
      <trkpt lat="46.28374" lon="4.68907">
        <ele>629.8</ele>
        <time>2022-06-25T13:04:58Z</time>
      </trkpt>
      <trkpt lat="46.28373" lon="4.68904">
        <ele>630</ele>
        <time>2022-06-25T13:04:59Z</time>
      </trkpt>
      <trkpt lat="46.28372" lon="4.68901">
        <ele>630</ele>
        <time>2022-06-25T13:05:00Z</time>
      </trkpt>
      <trkpt lat="46.28372" lon="4.68898">
        <ele>630.4</ele>
        <time>2022-06-25T13:05:01Z</time>
      </trkpt>
      <trkpt lat="46.28371" lon="4.68895">
        <ele>630.4</ele>
        <time>2022-06-25T13:05:02Z</time>
      </trkpt>
      <trkpt lat="46.2837" lon="4.68892">
        <ele>630.6</ele>
        <time>2022-06-25T13:05:03Z</time>
      </trkpt>
      <trkpt lat="46.28369" lon="4.68889">
        <ele>630.6</ele>
        <time>2022-06-25T13:05:04Z</time>
      </trkpt>
      <trkpt lat="46.28367" lon="4.68886">
        <ele>630.8</ele>
        <time>2022-06-25T13:05:05Z</time>
      </trkpt>
      <trkpt lat="46.28366" lon="4.68883">
        <ele>630.8</ele>
        <time>2022-06-25T13:05:06Z</time>
      </trkpt>
      <trkpt lat="46.28364" lon="4.68881">
        <ele>631.2</ele>
        <time>2022-06-25T13:05:07Z</time>
      </trkpt>
      <trkpt lat="46.28363" lon="4.68878">
        <ele>631.2</ele>
        <time>2022-06-25T13:05:08Z</time>
      </trkpt>
      <trkpt lat="46.28361" lon="4.68875">
        <ele>631.4</ele>
        <time>2022-06-25T13:05:09Z</time>
      </trkpt>
      <trkpt lat="46.2836" lon="4.68872">
        <ele>631.4</ele>
        <time>2022-06-25T13:05:10Z</time>
      </trkpt>
      <trkpt lat="46.28359" lon="4.6887">
        <ele>631.6</ele>
        <time>2022-06-25T13:05:11Z</time>
      </trkpt>
      <trkpt lat="46.28357" lon="4.68867">
        <ele>631.6</ele>
        <time>2022-06-25T13:05:12Z</time>
      </trkpt>
      <trkpt lat="46.28356" lon="4.68864">
        <ele>632</ele>
        <time>2022-06-25T13:05:13Z</time>
      </trkpt>
      <trkpt lat="46.28355" lon="4.68862">
        <ele>632</ele>
        <time>2022-06-25T13:05:14Z</time>
      </trkpt>
      <trkpt lat="46.28354" lon="4.6886">
        <ele>632.4</ele>
        <time>2022-06-25T13:05:15Z</time>
      </trkpt>
      <trkpt lat="46.28353" lon="4.68858">
        <ele>632.4</ele>
        <time>2022-06-25T13:05:16Z</time>
      </trkpt>
      <trkpt lat="46.28352" lon="4.68856">
        <ele>632.8</ele>
        <time>2022-06-25T13:05:17Z</time>
      </trkpt>
      <trkpt lat="46.28351" lon="4.68854">
        <ele>632.8</ele>
        <time>2022-06-25T13:05:18Z</time>
      </trkpt>
      <trkpt lat="46.2835" lon="4.68852">
        <ele>633</ele>
        <time>2022-06-25T13:05:19Z</time>
      </trkpt>
      <trkpt lat="46.28349" lon="4.6885">
        <ele>633.2</ele>
        <time>2022-06-25T13:05:20Z</time>
      </trkpt>
      <trkpt lat="46.28348" lon="4.68848">
        <ele>633.2</ele>
        <time>2022-06-25T13:05:21Z</time>
      </trkpt>
      <trkpt lat="46.28347" lon="4.68846">
        <ele>633.6</ele>
        <time>2022-06-25T13:05:22Z</time>
      </trkpt>
      <trkpt lat="46.28346" lon="4.68844">
        <ele>633.6</ele>
        <time>2022-06-25T13:05:23Z</time>
      </trkpt>
      <trkpt lat="46.28345" lon="4.68843">
        <ele>633.8</ele>
        <time>2022-06-25T13:05:24Z</time>
      </trkpt>
      <trkpt lat="46.28344" lon="4.68841">
        <ele>633.8</ele>
        <time>2022-06-25T13:05:25Z</time>
      </trkpt>
      <trkpt lat="46.28343" lon="4.68839">
        <ele>634.2</ele>
        <time>2022-06-25T13:05:26Z</time>
      </trkpt>
      <trkpt lat="46.28342" lon="4.68838">
        <ele>634.2</ele>
        <time>2022-06-25T13:05:27Z</time>
      </trkpt>
      <trkpt lat="46.28341" lon="4.68836">
        <ele>634.2</ele>
        <time>2022-06-25T13:05:28Z</time>
      </trkpt>
      <trkpt lat="46.2834" lon="4.68834">
        <ele>634.6</ele>
        <time>2022-06-25T13:05:29Z</time>
      </trkpt>
      <trkpt lat="46.28339" lon="4.68833">
        <ele>634.6</ele>
        <time>2022-06-25T13:05:30Z</time>
      </trkpt>
      <trkpt lat="46.28338" lon="4.68831">
        <ele>634.8</ele>
        <time>2022-06-25T13:05:31Z</time>
      </trkpt>
      <trkpt lat="46.28337" lon="4.6883">
        <ele>634.8</ele>
        <time>2022-06-25T13:05:32Z</time>
      </trkpt>
      <trkpt lat="46.28336" lon="4.68828">
        <ele>635.2</ele>
        <time>2022-06-25T13:05:33Z</time>
      </trkpt>
      <trkpt lat="46.28335" lon="4.68826">
        <ele>635.2</ele>
        <time>2022-06-25T13:05:34Z</time>
      </trkpt>
      <trkpt lat="46.28334" lon="4.68824">
        <ele>635.6</ele>
        <time>2022-06-25T13:05:35Z</time>
      </trkpt>
      <trkpt lat="46.28333" lon="4.68822">
        <ele>635.8</ele>
        <time>2022-06-25T13:05:36Z</time>
      </trkpt>
      <trkpt lat="46.28332" lon="4.6882">
        <ele>635.8</ele>
        <time>2022-06-25T13:05:37Z</time>
      </trkpt>
      <trkpt lat="46.2833" lon="4.68818">
        <ele>636.2</ele>
        <time>2022-06-25T13:05:38Z</time>
      </trkpt>
      <trkpt lat="46.28328" lon="4.68815">
        <ele>636.4</ele>
        <time>2022-06-25T13:05:39Z</time>
      </trkpt>
      <trkpt lat="46.28326" lon="4.68812">
        <ele>636.4</ele>
        <time>2022-06-25T13:05:40Z</time>
      </trkpt>
      <trkpt lat="46.28324" lon="4.68809">
        <ele>636.6</ele>
        <time>2022-06-25T13:05:41Z</time>
      </trkpt>
      <trkpt lat="46.28322" lon="4.68808">
        <ele>636.6</ele>
        <time>2022-06-25T13:05:42Z</time>
      </trkpt>
      <trkpt lat="46.2832" lon="4.68805">
        <ele>637</ele>
        <time>2022-06-25T13:05:43Z</time>
      </trkpt>
      <trkpt lat="46.28319" lon="4.68804">
        <ele>637</ele>
        <time>2022-06-25T13:05:44Z</time>
      </trkpt>
      <trkpt lat="46.28318" lon="4.68803">
        <ele>637.2</ele>
        <time>2022-06-25T13:05:45Z</time>
      </trkpt>
      <trkpt lat="46.28317" lon="4.68801">
        <ele>637.2</ele>
        <time>2022-06-25T13:05:46Z</time>
      </trkpt>
      <trkpt lat="46.28316" lon="4.68799">
        <ele>637.6</ele>
        <time>2022-06-25T13:05:47Z</time>
      </trkpt>
      <trkpt lat="46.28315" lon="4.68798">
        <ele>637.6</ele>
        <time>2022-06-25T13:05:48Z</time>
      </trkpt>
      <trkpt lat="46.28314" lon="4.68796">
        <ele>637.8</ele>
        <time>2022-06-25T13:05:49Z</time>
      </trkpt>
      <trkpt lat="46.28312" lon="4.68793">
        <ele>637.8</ele>
        <time>2022-06-25T13:05:50Z</time>
      </trkpt>
      <trkpt lat="46.28311" lon="4.68792">
        <ele>638</ele>
        <time>2022-06-25T13:05:51Z</time>
      </trkpt>
      <trkpt lat="46.28309" lon="4.68789">
        <ele>638</ele>
        <time>2022-06-25T13:05:52Z</time>
      </trkpt>
      <trkpt lat="46.28308" lon="4.68787">
        <ele>638.4</ele>
        <time>2022-06-25T13:05:53Z</time>
      </trkpt>
      <trkpt lat="46.28306" lon="4.68785">
        <ele>638.6</ele>
        <time>2022-06-25T13:05:54Z</time>
      </trkpt>
      <trkpt lat="46.28304" lon="4.68783">
        <ele>638.6</ele>
        <time>2022-06-25T13:05:55Z</time>
      </trkpt>
      <trkpt lat="46.28303" lon="4.68781">
        <ele>638.8</ele>
        <time>2022-06-25T13:05:56Z</time>
      </trkpt>
      <trkpt lat="46.28301" lon="4.68779">
        <ele>639</ele>
        <time>2022-06-25T13:05:57Z</time>
      </trkpt>
      <trkpt lat="46.283" lon="4.68777">
        <ele>639</ele>
        <time>2022-06-25T13:05:58Z</time>
      </trkpt>
      <trkpt lat="46.28297" lon="4.68775">
        <ele>639.4</ele>
        <time>2022-06-25T13:05:59Z</time>
      </trkpt>
      <trkpt lat="46.28294" lon="4.68773">
        <ele>639.6</ele>
        <time>2022-06-25T13:06:00Z</time>
      </trkpt>
      <trkpt lat="46.28292" lon="4.68771">
        <ele>639.6</ele>
        <time>2022-06-25T13:06:01Z</time>
      </trkpt>
      <trkpt lat="46.2829" lon="4.68768">
        <ele>640</ele>
        <time>2022-06-25T13:06:02Z</time>
      </trkpt>
      <trkpt lat="46.28287" lon="4.68766">
        <ele>640</ele>
        <time>2022-06-25T13:06:03Z</time>
      </trkpt>
      <trkpt lat="46.28286" lon="4.68764">
        <ele>640.2</ele>
        <time>2022-06-25T13:06:04Z</time>
      </trkpt>
      <trkpt lat="46.28284" lon="4.68762">
        <ele>640.2</ele>
        <time>2022-06-25T13:06:05Z</time>
      </trkpt>
      <trkpt lat="46.28282" lon="4.6876">
        <ele>640.4</ele>
        <time>2022-06-25T13:06:06Z</time>
      </trkpt>
      <trkpt lat="46.2828" lon="4.68758">
        <ele>640.4</ele>
        <time>2022-06-25T13:06:07Z</time>
      </trkpt>
      <trkpt lat="46.28278" lon="4.68756">
        <ele>640.8</ele>
        <time>2022-06-25T13:06:08Z</time>
      </trkpt>
      <trkpt lat="46.28277" lon="4.68754">
        <ele>640.8</ele>
        <time>2022-06-25T13:06:09Z</time>
      </trkpt>
      <trkpt lat="46.28275" lon="4.68752">
        <ele>640.8</ele>
        <time>2022-06-25T13:06:10Z</time>
      </trkpt>
      <trkpt lat="46.28273" lon="4.6875">
        <ele>641.2</ele>
        <time>2022-06-25T13:06:11Z</time>
      </trkpt>
      <trkpt lat="46.28272" lon="4.68747">
        <ele>641.2</ele>
        <time>2022-06-25T13:06:12Z</time>
      </trkpt>
      <trkpt lat="46.2827" lon="4.68745">
        <ele>641.4</ele>
        <time>2022-06-25T13:06:13Z</time>
      </trkpt>
      <trkpt lat="46.28268" lon="4.68743">
        <ele>641.4</ele>
        <time>2022-06-25T13:06:14Z</time>
      </trkpt>
      <trkpt lat="46.28267" lon="4.68742">
        <ele>641.8</ele>
        <time>2022-06-25T13:06:15Z</time>
      </trkpt>
      <trkpt lat="46.28265" lon="4.6874">
        <ele>641.8</ele>
        <time>2022-06-25T13:06:16Z</time>
      </trkpt>
      <trkpt lat="46.28263" lon="4.68737">
        <ele>642</ele>
        <time>2022-06-25T13:06:17Z</time>
      </trkpt>
      <trkpt lat="46.28261" lon="4.68736">
        <ele>642</ele>
        <time>2022-06-25T13:06:18Z</time>
      </trkpt>
      <trkpt lat="46.28259" lon="4.68733">
        <ele>642.4</ele>
        <time>2022-06-25T13:06:19Z</time>
      </trkpt>
      <trkpt lat="46.28258" lon="4.68731">
        <ele>642.4</ele>
        <time>2022-06-25T13:06:20Z</time>
      </trkpt>
      <trkpt lat="46.28256" lon="4.68729">
        <ele>642.8</ele>
        <time>2022-06-25T13:06:21Z</time>
      </trkpt>
      <trkpt lat="46.28255" lon="4.68727">
        <ele>642.8</ele>
        <time>2022-06-25T13:06:22Z</time>
      </trkpt>
      <trkpt lat="46.28253" lon="4.68725">
        <ele>643</ele>
        <time>2022-06-25T13:06:23Z</time>
      </trkpt>
      <trkpt lat="46.28251" lon="4.68723">
        <ele>643</ele>
        <time>2022-06-25T13:06:24Z</time>
      </trkpt>
      <trkpt lat="46.2825" lon="4.68721">
        <ele>643.4</ele>
        <time>2022-06-25T13:06:25Z</time>
      </trkpt>
      <trkpt lat="46.28248" lon="4.68719">
        <ele>643.4</ele>
        <time>2022-06-25T13:06:26Z</time>
      </trkpt>
      <trkpt lat="46.28247" lon="4.68717">
        <ele>643.4</ele>
        <time>2022-06-25T13:06:27Z</time>
      </trkpt>
      <trkpt lat="46.28246" lon="4.68716">
        <ele>643.6</ele>
        <time>2022-06-25T13:06:28Z</time>
      </trkpt>
      <trkpt lat="46.28244" lon="4.68713">
        <ele>643.6</ele>
        <time>2022-06-25T13:06:29Z</time>
      </trkpt>
      <trkpt lat="46.28243" lon="4.68711">
        <ele>643.8</ele>
        <time>2022-06-25T13:06:30Z</time>
      </trkpt>
      <trkpt lat="46.28242" lon="4.68709">
        <ele>643.8</ele>
        <time>2022-06-25T13:06:31Z</time>
      </trkpt>
      <trkpt lat="46.28241" lon="4.68707">
        <ele>644.2</ele>
        <time>2022-06-25T13:06:32Z</time>
      </trkpt>
      <trkpt lat="46.2824" lon="4.68705">
        <ele>644.2</ele>
        <time>2022-06-25T13:06:33Z</time>
      </trkpt>
      <trkpt lat="46.28239" lon="4.68703">
        <ele>644.4</ele>
        <time>2022-06-25T13:06:34Z</time>
      </trkpt>
      <trkpt lat="46.28238" lon="4.687">
        <ele>644.4</ele>
        <time>2022-06-25T13:06:35Z</time>
      </trkpt>
      <trkpt lat="46.28237" lon="4.68697">
        <ele>644.6</ele>
        <time>2022-06-25T13:06:36Z</time>
      </trkpt>
      <trkpt lat="46.28235" lon="4.68695">
        <ele>644.6</ele>
        <time>2022-06-25T13:06:37Z</time>
      </trkpt>
      <trkpt lat="46.28234" lon="4.68692">
        <ele>644.8</ele>
        <time>2022-06-25T13:06:38Z</time>
      </trkpt>
      <trkpt lat="46.28233" lon="4.68689">
        <ele>644.8</ele>
        <time>2022-06-25T13:06:39Z</time>
      </trkpt>
      <trkpt lat="46.28231" lon="4.68686">
        <ele>645</ele>
        <time>2022-06-25T13:06:40Z</time>
      </trkpt>
      <trkpt lat="46.2823" lon="4.68683">
        <ele>645</ele>
        <time>2022-06-25T13:06:41Z</time>
      </trkpt>
      <trkpt lat="46.28228" lon="4.6868">
        <ele>645.2</ele>
        <time>2022-06-25T13:06:42Z</time>
      </trkpt>
      <trkpt lat="46.28227" lon="4.68678">
        <ele>645.2</ele>
        <time>2022-06-25T13:06:43Z</time>
      </trkpt>
      <trkpt lat="46.28226" lon="4.68675">
        <ele>645.4</ele>
        <time>2022-06-25T13:06:44Z</time>
      </trkpt>
      <trkpt lat="46.28224" lon="4.68672">
        <ele>645.4</ele>
        <time>2022-06-25T13:06:45Z</time>
      </trkpt>
      <trkpt lat="46.28223" lon="4.68668">
        <ele>645.4</ele>
        <time>2022-06-25T13:06:46Z</time>
      </trkpt>
      <trkpt lat="46.28221" lon="4.68665">
        <ele>645.4</ele>
        <time>2022-06-25T13:06:47Z</time>
      </trkpt>
      <trkpt lat="46.2822" lon="4.68661">
        <ele>645.4</ele>
        <time>2022-06-25T13:06:48Z</time>
      </trkpt>
      <trkpt lat="46.28219" lon="4.68657">
        <ele>645.4</ele>
        <time>2022-06-25T13:06:49Z</time>
      </trkpt>
      <trkpt lat="46.28217" lon="4.68653">
        <ele>645.8</ele>
        <time>2022-06-25T13:06:50Z</time>
      </trkpt>
      <trkpt lat="46.28216" lon="4.6865">
        <ele>645.8</ele>
        <time>2022-06-25T13:06:51Z</time>
      </trkpt>
      <trkpt lat="46.28215" lon="4.68646">
        <ele>645.8</ele>
        <time>2022-06-25T13:06:52Z</time>
      </trkpt>
      <trkpt lat="46.28213" lon="4.68642">
        <ele>646</ele>
        <time>2022-06-25T13:06:53Z</time>
      </trkpt>
      <trkpt lat="46.28212" lon="4.68638">
        <ele>646</ele>
        <time>2022-06-25T13:06:54Z</time>
      </trkpt>
      <trkpt lat="46.28211" lon="4.68634">
        <ele>646</ele>
        <time>2022-06-25T13:06:55Z</time>
      </trkpt>
      <trkpt lat="46.2821" lon="4.6863">
        <ele>646.2</ele>
        <time>2022-06-25T13:06:56Z</time>
      </trkpt>
      <trkpt lat="46.28208" lon="4.68626">
        <ele>646.2</ele>
        <time>2022-06-25T13:06:57Z</time>
      </trkpt>
      <trkpt lat="46.28207" lon="4.68622">
        <ele>646.4</ele>
        <time>2022-06-25T13:06:58Z</time>
      </trkpt>
      <trkpt lat="46.28206" lon="4.68619">
        <ele>646.4</ele>
        <time>2022-06-25T13:06:59Z</time>
      </trkpt>
      <trkpt lat="46.28205" lon="4.68615">
        <ele>646.4</ele>
        <time>2022-06-25T13:07:00Z</time>
      </trkpt>
      <trkpt lat="46.28204" lon="4.68611">
        <ele>646.6</ele>
        <time>2022-06-25T13:07:01Z</time>
      </trkpt>
      <trkpt lat="46.28203" lon="4.68607">
        <ele>646.6</ele>
        <time>2022-06-25T13:07:02Z</time>
      </trkpt>
      <trkpt lat="46.28202" lon="4.68603">
        <ele>646.8</ele>
        <time>2022-06-25T13:07:03Z</time>
      </trkpt>
      <trkpt lat="46.28201" lon="4.68599">
        <ele>646.8</ele>
        <time>2022-06-25T13:07:04Z</time>
      </trkpt>
      <trkpt lat="46.282" lon="4.68595">
        <ele>646.8</ele>
        <time>2022-06-25T13:07:05Z</time>
      </trkpt>
      <trkpt lat="46.28199" lon="4.68591">
        <ele>647.2</ele>
        <time>2022-06-25T13:07:06Z</time>
      </trkpt>
      <trkpt lat="46.28198" lon="4.68587">
        <ele>647.2</ele>
        <time>2022-06-25T13:07:07Z</time>
      </trkpt>
      <trkpt lat="46.28197" lon="4.68583">
        <ele>647.4</ele>
        <time>2022-06-25T13:07:08Z</time>
      </trkpt>
      <trkpt lat="46.28197" lon="4.68579">
        <ele>647.4</ele>
        <time>2022-06-25T13:07:09Z</time>
      </trkpt>
      <trkpt lat="46.28196" lon="4.68575">
        <ele>647.6</ele>
        <time>2022-06-25T13:07:10Z</time>
      </trkpt>
      <trkpt lat="46.28194" lon="4.68572">
        <ele>647.6</ele>
        <time>2022-06-25T13:07:11Z</time>
      </trkpt>
      <trkpt lat="46.28193" lon="4.68568">
        <ele>647.8</ele>
        <time>2022-06-25T13:07:12Z</time>
      </trkpt>
      <trkpt lat="46.28192" lon="4.68564">
        <ele>647.8</ele>
        <time>2022-06-25T13:07:13Z</time>
      </trkpt>
      <trkpt lat="46.2819" lon="4.6856">
        <ele>648</ele>
        <time>2022-06-25T13:07:14Z</time>
      </trkpt>
      <trkpt lat="46.28189" lon="4.68557">
        <ele>648</ele>
        <time>2022-06-25T13:07:15Z</time>
      </trkpt>
      <trkpt lat="46.28188" lon="4.68553">
        <ele>648</ele>
        <time>2022-06-25T13:07:16Z</time>
      </trkpt>
      <trkpt lat="46.28186" lon="4.68549">
        <ele>648.2</ele>
        <time>2022-06-25T13:07:17Z</time>
      </trkpt>
      <trkpt lat="46.28185" lon="4.68545">
        <ele>648.2</ele>
        <time>2022-06-25T13:07:18Z</time>
      </trkpt>
      <trkpt lat="46.28184" lon="4.68541">
        <ele>648.4</ele>
        <time>2022-06-25T13:07:19Z</time>
      </trkpt>
      <trkpt lat="46.28182" lon="4.68538">
        <ele>648.4</ele>
        <time>2022-06-25T13:07:20Z</time>
      </trkpt>
      <trkpt lat="46.28181" lon="4.68534">
        <ele>648.8</ele>
        <time>2022-06-25T13:07:21Z</time>
      </trkpt>
      <trkpt lat="46.28179" lon="4.68531">
        <ele>648.8</ele>
        <time>2022-06-25T13:07:22Z</time>
      </trkpt>
      <trkpt lat="46.28177" lon="4.68527">
        <ele>648.8</ele>
        <time>2022-06-25T13:07:23Z</time>
      </trkpt>
      <trkpt lat="46.28175" lon="4.68524">
        <ele>649</ele>
        <time>2022-06-25T13:07:24Z</time>
      </trkpt>
      <trkpt lat="46.28174" lon="4.68521">
        <ele>649</ele>
        <time>2022-06-25T13:07:25Z</time>
      </trkpt>
      <trkpt lat="46.28172" lon="4.68518">
        <ele>649.2</ele>
        <time>2022-06-25T13:07:26Z</time>
      </trkpt>
      <trkpt lat="46.2817" lon="4.68515">
        <ele>649.2</ele>
        <time>2022-06-25T13:07:27Z</time>
      </trkpt>
      <trkpt lat="46.28168" lon="4.68513">
        <ele>649.4</ele>
        <time>2022-06-25T13:07:28Z</time>
      </trkpt>
      <trkpt lat="46.28166" lon="4.6851">
        <ele>649.4</ele>
        <time>2022-06-25T13:07:29Z</time>
      </trkpt>
      <trkpt lat="46.28164" lon="4.68507">
        <ele>649.6</ele>
        <time>2022-06-25T13:07:30Z</time>
      </trkpt>
      <trkpt lat="46.28163" lon="4.68504">
        <ele>649.6</ele>
        <time>2022-06-25T13:07:31Z</time>
      </trkpt>
      <trkpt lat="46.28162" lon="4.68502">
        <ele>650</ele>
        <time>2022-06-25T13:07:32Z</time>
      </trkpt>
      <trkpt lat="46.28161" lon="4.685">
        <ele>650</ele>
        <time>2022-06-25T13:07:33Z</time>
      </trkpt>
      <trkpt lat="46.2816" lon="4.68498">
        <ele>650.2</ele>
        <time>2022-06-25T13:07:34Z</time>
      </trkpt>
      <trkpt lat="46.28159" lon="4.68496">
        <ele>650.4</ele>
        <time>2022-06-25T13:07:35Z</time>
      </trkpt>
      <trkpt lat="46.28158" lon="4.68494">
        <ele>650.4</ele>
        <time>2022-06-25T13:07:36Z</time>
      </trkpt>
      <trkpt lat="46.28158" lon="4.68492">
        <ele>650.4</ele>
        <time>2022-06-25T13:07:37Z</time>
      </trkpt>
      <trkpt lat="46.28157" lon="4.6849">
        <ele>650.8</ele>
        <time>2022-06-25T13:07:38Z</time>
      </trkpt>
      <trkpt lat="46.28155" lon="4.68487">
        <ele>650.8</ele>
        <time>2022-06-25T13:07:39Z</time>
      </trkpt>
      <trkpt lat="46.28154" lon="4.68486">
        <ele>651</ele>
        <time>2022-06-25T13:07:40Z</time>
      </trkpt>
      <trkpt lat="46.28153" lon="4.68484">
        <ele>651</ele>
        <time>2022-06-25T13:07:41Z</time>
      </trkpt>
      <trkpt lat="46.28151" lon="4.68482">
        <ele>651.4</ele>
        <time>2022-06-25T13:07:42Z</time>
      </trkpt>
      <trkpt lat="46.28149" lon="4.6848">
        <ele>651.4</ele>
        <time>2022-06-25T13:07:43Z</time>
      </trkpt>
      <trkpt lat="46.28147" lon="4.68478">
        <ele>651.8</ele>
        <time>2022-06-25T13:07:44Z</time>
      </trkpt>
      <trkpt lat="46.28146" lon="4.68476">
        <ele>651.8</ele>
        <time>2022-06-25T13:07:45Z</time>
      </trkpt>
      <trkpt lat="46.28144" lon="4.68474">
        <ele>652.2</ele>
        <time>2022-06-25T13:07:46Z</time>
      </trkpt>
      <trkpt lat="46.28143" lon="4.68472">
        <ele>652.4</ele>
        <time>2022-06-25T13:07:47Z</time>
      </trkpt>
      <trkpt lat="46.28142" lon="4.68471">
        <ele>652.4</ele>
        <time>2022-06-25T13:07:48Z</time>
      </trkpt>
      <trkpt lat="46.2814" lon="4.68469">
        <ele>652.6</ele>
        <time>2022-06-25T13:07:49Z</time>
      </trkpt>
      <trkpt lat="46.28137" lon="4.68467">
        <ele>653</ele>
        <time>2022-06-25T13:07:50Z</time>
      </trkpt>
      <trkpt lat="46.28136" lon="4.68464">
        <ele>653</ele>
        <time>2022-06-25T13:07:51Z</time>
      </trkpt>
      <trkpt lat="46.28134" lon="4.68461">
        <ele>653.2</ele>
        <time>2022-06-25T13:07:52Z</time>
      </trkpt>
      <trkpt lat="46.28132" lon="4.68459">
        <ele>653.4</ele>
        <time>2022-06-25T13:07:53Z</time>
      </trkpt>
      <trkpt lat="46.28129" lon="4.68457">
        <ele>653.4</ele>
        <time>2022-06-25T13:07:54Z</time>
      </trkpt>
      <trkpt lat="46.28127" lon="4.68455">
        <ele>653.8</ele>
        <time>2022-06-25T13:07:55Z</time>
      </trkpt>
      <trkpt lat="46.28125" lon="4.68452">
        <ele>653.8</ele>
        <time>2022-06-25T13:07:56Z</time>
      </trkpt>
      <trkpt lat="46.28123" lon="4.6845">
        <ele>654</ele>
        <time>2022-06-25T13:07:57Z</time>
      </trkpt>
      <trkpt lat="46.2812" lon="4.68449">
        <ele>654</ele>
        <time>2022-06-25T13:07:58Z</time>
      </trkpt>
      <trkpt lat="46.28118" lon="4.68447">
        <ele>654.2</ele>
        <time>2022-06-25T13:07:59Z</time>
      </trkpt>
      <trkpt lat="46.28116" lon="4.68446">
        <ele>654.2</ele>
        <time>2022-06-25T13:08:00Z</time>
      </trkpt>
      <trkpt lat="46.28114" lon="4.68444">
        <ele>654.6</ele>
        <time>2022-06-25T13:08:01Z</time>
      </trkpt>
      <trkpt lat="46.28111" lon="4.68443">
        <ele>654.6</ele>
        <time>2022-06-25T13:08:02Z</time>
      </trkpt>
      <trkpt lat="46.28109" lon="4.68442">
        <ele>654.8</ele>
        <time>2022-06-25T13:08:03Z</time>
      </trkpt>
      <trkpt lat="46.28106" lon="4.68441">
        <ele>654.8</ele>
        <time>2022-06-25T13:08:04Z</time>
      </trkpt>
      <trkpt lat="46.28103" lon="4.68439">
        <ele>655</ele>
        <time>2022-06-25T13:08:05Z</time>
      </trkpt>
      <trkpt lat="46.28102" lon="4.68439">
        <ele>655</ele>
        <time>2022-06-25T13:08:06Z</time>
      </trkpt>
      <trkpt lat="46.281" lon="4.68437">
        <ele>655.2</ele>
        <time>2022-06-25T13:08:07Z</time>
      </trkpt>
      <trkpt lat="46.28098" lon="4.68436">
        <ele>655.2</ele>
        <time>2022-06-25T13:08:08Z</time>
      </trkpt>
      <trkpt lat="46.28096" lon="4.68435">
        <ele>655.6</ele>
        <time>2022-06-25T13:08:09Z</time>
      </trkpt>
      <trkpt lat="46.28093" lon="4.68434">
        <ele>655.6</ele>
        <time>2022-06-25T13:08:10Z</time>
      </trkpt>
      <trkpt lat="46.28091" lon="4.68433">
        <ele>655.8</ele>
        <time>2022-06-25T13:08:11Z</time>
      </trkpt>
      <trkpt lat="46.28088" lon="4.68433">
        <ele>655.8</ele>
        <time>2022-06-25T13:08:12Z</time>
      </trkpt>
      <trkpt lat="46.28086" lon="4.68433">
        <ele>655.8</ele>
        <time>2022-06-25T13:08:13Z</time>
      </trkpt>
      <trkpt lat="46.28084" lon="4.68433">
        <ele>656</ele>
        <time>2022-06-25T13:08:14Z</time>
      </trkpt>
      <trkpt lat="46.28081" lon="4.68433">
        <ele>656</ele>
        <time>2022-06-25T13:08:15Z</time>
      </trkpt>
      <trkpt lat="46.28078" lon="4.68432">
        <ele>656</ele>
        <time>2022-06-25T13:08:16Z</time>
      </trkpt>
      <trkpt lat="46.28075" lon="4.68431">
        <ele>656</ele>
        <time>2022-06-25T13:08:17Z</time>
      </trkpt>
      <trkpt lat="46.28073" lon="4.68431">
        <ele>656.2</ele>
        <time>2022-06-25T13:08:18Z</time>
      </trkpt>
      <trkpt lat="46.2807" lon="4.68431">
        <ele>656.2</ele>
        <time>2022-06-25T13:08:19Z</time>
      </trkpt>
      <trkpt lat="46.28067" lon="4.68431">
        <ele>656.2</ele>
        <time>2022-06-25T13:08:20Z</time>
      </trkpt>
      <trkpt lat="46.28065" lon="4.68431">
        <ele>656.6</ele>
        <time>2022-06-25T13:08:21Z</time>
      </trkpt>
      <trkpt lat="46.28063" lon="4.68431">
        <ele>656.8</ele>
        <time>2022-06-25T13:08:22Z</time>
      </trkpt>
      <trkpt lat="46.2806" lon="4.68432">
        <ele>656.8</ele>
        <time>2022-06-25T13:08:23Z</time>
      </trkpt>
      <trkpt lat="46.28058" lon="4.68432">
        <ele>657</ele>
        <time>2022-06-25T13:08:24Z</time>
      </trkpt>
      <trkpt lat="46.28055" lon="4.68433">
        <ele>657</ele>
        <time>2022-06-25T13:08:25Z</time>
      </trkpt>
      <trkpt lat="46.28052" lon="4.68434">
        <ele>657.4</ele>
        <time>2022-06-25T13:08:26Z</time>
      </trkpt>
      <trkpt lat="46.2805" lon="4.68434">
        <ele>657.4</ele>
        <time>2022-06-25T13:08:27Z</time>
      </trkpt>
      <trkpt lat="46.28046" lon="4.68435">
        <ele>657.4</ele>
        <time>2022-06-25T13:08:28Z</time>
      </trkpt>
      <trkpt lat="46.28043" lon="4.68435">
        <ele>657.6</ele>
        <time>2022-06-25T13:08:29Z</time>
      </trkpt>
      <trkpt lat="46.2804" lon="4.68435">
        <ele>657.6</ele>
        <time>2022-06-25T13:08:30Z</time>
      </trkpt>
      <trkpt lat="46.28037" lon="4.68434">
        <ele>658</ele>
        <time>2022-06-25T13:08:31Z</time>
      </trkpt>
      <trkpt lat="46.28034" lon="4.68434">
        <ele>658</ele>
        <time>2022-06-25T13:08:32Z</time>
      </trkpt>
      <trkpt lat="46.28031" lon="4.68434">
        <ele>658.2</ele>
        <time>2022-06-25T13:08:33Z</time>
      </trkpt>
      <trkpt lat="46.28028" lon="4.68434">
        <ele>658.4</ele>
        <time>2022-06-25T13:08:34Z</time>
      </trkpt>
      <trkpt lat="46.28025" lon="4.68434">
        <ele>658.4</ele>
        <time>2022-06-25T13:08:35Z</time>
      </trkpt>
      <trkpt lat="46.28023" lon="4.68433">
        <ele>658.6</ele>
        <time>2022-06-25T13:08:36Z</time>
      </trkpt>
      <trkpt lat="46.2802" lon="4.68433">
        <ele>658.6</ele>
        <time>2022-06-25T13:08:37Z</time>
      </trkpt>
      <trkpt lat="46.28017" lon="4.68433">
        <ele>659</ele>
        <time>2022-06-25T13:08:38Z</time>
      </trkpt>
      <trkpt lat="46.28015" lon="4.68432">
        <ele>659</ele>
        <time>2022-06-25T13:08:39Z</time>
      </trkpt>
      <trkpt lat="46.28012" lon="4.68432">
        <ele>659.2</ele>
        <time>2022-06-25T13:08:40Z</time>
      </trkpt>
      <trkpt lat="46.2801" lon="4.68432">
        <ele>659.2</ele>
        <time>2022-06-25T13:08:41Z</time>
      </trkpt>
      <trkpt lat="46.28007" lon="4.68432">
        <ele>659.4</ele>
        <time>2022-06-25T13:08:42Z</time>
      </trkpt>
      <trkpt lat="46.28005" lon="4.68431">
        <ele>659.4</ele>
        <time>2022-06-25T13:08:43Z</time>
      </trkpt>
      <trkpt lat="46.28002" lon="4.68431">
        <ele>659.6</ele>
        <time>2022-06-25T13:08:44Z</time>
      </trkpt>
      <trkpt lat="46.27999" lon="4.68431">
        <ele>659.6</ele>
        <time>2022-06-25T13:08:45Z</time>
      </trkpt>
      <trkpt lat="46.27996" lon="4.68431">
        <ele>659.8</ele>
        <time>2022-06-25T13:08:46Z</time>
      </trkpt>
      <trkpt lat="46.27994" lon="4.6843">
        <ele>659.8</ele>
        <time>2022-06-25T13:08:47Z</time>
      </trkpt>
      <trkpt lat="46.27991" lon="4.68429">
        <ele>660.2</ele>
        <time>2022-06-25T13:08:48Z</time>
      </trkpt>
      <trkpt lat="46.27989" lon="4.68429">
        <ele>660.2</ele>
        <time>2022-06-25T13:08:49Z</time>
      </trkpt>
      <trkpt lat="46.27986" lon="4.68428">
        <ele>660.6</ele>
        <time>2022-06-25T13:08:50Z</time>
      </trkpt>
      <trkpt lat="46.27983" lon="4.68427">
        <ele>660.6</ele>
        <time>2022-06-25T13:08:51Z</time>
      </trkpt>
      <trkpt lat="46.2798" lon="4.68426">
        <ele>660.8</ele>
        <time>2022-06-25T13:08:52Z</time>
      </trkpt>
      <trkpt lat="46.27978" lon="4.68426">
        <ele>660.8</ele>
        <time>2022-06-25T13:08:53Z</time>
      </trkpt>
      <trkpt lat="46.27976" lon="4.68425">
        <ele>661</ele>
        <time>2022-06-25T13:08:54Z</time>
      </trkpt>
      <trkpt lat="46.27973" lon="4.68424">
        <ele>661</ele>
        <time>2022-06-25T13:08:55Z</time>
      </trkpt>
      <trkpt lat="46.2797" lon="4.68423">
        <ele>661.4</ele>
        <time>2022-06-25T13:08:56Z</time>
      </trkpt>
      <trkpt lat="46.27967" lon="4.68422">
        <ele>661.4</ele>
        <time>2022-06-25T13:08:57Z</time>
      </trkpt>
      <trkpt lat="46.27965" lon="4.6842">
        <ele>661.6</ele>
        <time>2022-06-25T13:08:58Z</time>
      </trkpt>
      <trkpt lat="46.27962" lon="4.68418">
        <ele>661.6</ele>
        <time>2022-06-25T13:08:59Z</time>
      </trkpt>
      <trkpt lat="46.2796" lon="4.68416">
        <ele>662</ele>
        <time>2022-06-25T13:09:00Z</time>
      </trkpt>
      <trkpt lat="46.27958" lon="4.68414">
        <ele>662</ele>
        <time>2022-06-25T13:09:01Z</time>
      </trkpt>
      <trkpt lat="46.27956" lon="4.68412">
        <ele>662.2</ele>
        <time>2022-06-25T13:09:02Z</time>
      </trkpt>
      <trkpt lat="46.27953" lon="4.68409">
        <ele>662.2</ele>
        <time>2022-06-25T13:09:03Z</time>
      </trkpt>
      <trkpt lat="46.27952" lon="4.68407">
        <ele>662.4</ele>
        <time>2022-06-25T13:09:04Z</time>
      </trkpt>
      <trkpt lat="46.2795" lon="4.68404">
        <ele>662.4</ele>
        <time>2022-06-25T13:09:05Z</time>
      </trkpt>
      <trkpt lat="46.27948" lon="4.68401">
        <ele>662.8</ele>
        <time>2022-06-25T13:09:06Z</time>
      </trkpt>
      <trkpt lat="46.27946" lon="4.68398">
        <ele>662.8</ele>
        <time>2022-06-25T13:09:07Z</time>
      </trkpt>
      <trkpt lat="46.27945" lon="4.68395">
        <ele>663.2</ele>
        <time>2022-06-25T13:09:08Z</time>
      </trkpt>
      <trkpt lat="46.27944" lon="4.68391">
        <ele>663.4</ele>
        <time>2022-06-25T13:09:09Z</time>
      </trkpt>
      <trkpt lat="46.27942" lon="4.68388">
        <ele>663.4</ele>
        <time>2022-06-25T13:09:10Z</time>
      </trkpt>
      <trkpt lat="46.27941" lon="4.68385">
        <ele>663.6</ele>
        <time>2022-06-25T13:09:11Z</time>
      </trkpt>
      <trkpt lat="46.2794" lon="4.68381">
        <ele>663.6</ele>
        <time>2022-06-25T13:09:12Z</time>
      </trkpt>
      <trkpt lat="46.27939" lon="4.68378">
        <ele>664</ele>
        <time>2022-06-25T13:09:13Z</time>
      </trkpt>
      <trkpt lat="46.27939" lon="4.68374">
        <ele>664</ele>
        <time>2022-06-25T13:09:14Z</time>
      </trkpt>
      <trkpt lat="46.27938" lon="4.68371">
        <ele>664.2</ele>
        <time>2022-06-25T13:09:15Z</time>
      </trkpt>
      <trkpt lat="46.27938" lon="4.68367">
        <ele>664.2</ele>
        <time>2022-06-25T13:09:16Z</time>
      </trkpt>
      <trkpt lat="46.27938" lon="4.68363">
        <ele>664.6</ele>
        <time>2022-06-25T13:09:17Z</time>
      </trkpt>
      <trkpt lat="46.27938" lon="4.6836">
        <ele>664.6</ele>
        <time>2022-06-25T13:09:18Z</time>
      </trkpt>
      <trkpt lat="46.27938" lon="4.68356">
        <ele>664.8</ele>
        <time>2022-06-25T13:09:19Z</time>
      </trkpt>
      <trkpt lat="46.27938" lon="4.68353">
        <ele>664.8</ele>
        <time>2022-06-25T13:09:20Z</time>
      </trkpt>
      <trkpt lat="46.27938" lon="4.6835">
        <ele>665.2</ele>
        <time>2022-06-25T13:09:21Z</time>
      </trkpt>
      <trkpt lat="46.27938" lon="4.68347">
        <ele>665.2</ele>
        <time>2022-06-25T13:09:22Z</time>
      </trkpt>
      <trkpt lat="46.27938" lon="4.68344">
        <ele>665.6</ele>
        <time>2022-06-25T13:09:23Z</time>
      </trkpt>
      <trkpt lat="46.27938" lon="4.68341">
        <ele>665.6</ele>
        <time>2022-06-25T13:09:24Z</time>
      </trkpt>
      <trkpt lat="46.27938" lon="4.68338">
        <ele>666</ele>
        <time>2022-06-25T13:09:25Z</time>
      </trkpt>
      <trkpt lat="46.27938" lon="4.68334">
        <ele>666</ele>
        <time>2022-06-25T13:09:26Z</time>
      </trkpt>
      <trkpt lat="46.27938" lon="4.68331">
        <ele>666.2</ele>
        <time>2022-06-25T13:09:27Z</time>
      </trkpt>
      <trkpt lat="46.27938" lon="4.68327">
        <ele>666.4</ele>
        <time>2022-06-25T13:09:28Z</time>
      </trkpt>
      <trkpt lat="46.27938" lon="4.68323">
        <ele>666.4</ele>
        <time>2022-06-25T13:09:29Z</time>
      </trkpt>
      <trkpt lat="46.27938" lon="4.6832">
        <ele>666.8</ele>
        <time>2022-06-25T13:09:30Z</time>
      </trkpt>
      <trkpt lat="46.27938" lon="4.68316">
        <ele>666.8</ele>
        <time>2022-06-25T13:09:31Z</time>
      </trkpt>
      <trkpt lat="46.27938" lon="4.68312">
        <ele>667</ele>
        <time>2022-06-25T13:09:32Z</time>
      </trkpt>
      <trkpt lat="46.27938" lon="4.68308">
        <ele>667</ele>
        <time>2022-06-25T13:09:33Z</time>
      </trkpt>
      <trkpt lat="46.27939" lon="4.68305">
        <ele>667.2</ele>
        <time>2022-06-25T13:09:34Z</time>
      </trkpt>
      <trkpt lat="46.27939" lon="4.68302">
        <ele>667.2</ele>
        <time>2022-06-25T13:09:35Z</time>
      </trkpt>
      <trkpt lat="46.27939" lon="4.68298">
        <ele>667.6</ele>
        <time>2022-06-25T13:09:36Z</time>
      </trkpt>
      <trkpt lat="46.27939" lon="4.68295">
        <ele>667.8</ele>
        <time>2022-06-25T13:09:37Z</time>
      </trkpt>
      <trkpt lat="46.27939" lon="4.68291">
        <ele>667.8</ele>
        <time>2022-06-25T13:09:38Z</time>
      </trkpt>
      <trkpt lat="46.27939" lon="4.68284">
        <ele>668.2</ele>
        <time>2022-06-25T13:09:39Z</time>
      </trkpt>
      <trkpt lat="46.27938" lon="4.6828">
        <ele>668.4</ele>
        <time>2022-06-25T13:09:40Z</time>
      </trkpt>
      <trkpt lat="46.27938" lon="4.68277">
        <ele>668.4</ele>
        <time>2022-06-25T13:09:41Z</time>
      </trkpt>
      <trkpt lat="46.27938" lon="4.68273">
        <ele>668.8</ele>
        <time>2022-06-25T13:09:42Z</time>
      </trkpt>
      <trkpt lat="46.27938" lon="4.6827">
        <ele>668.8</ele>
        <time>2022-06-25T13:09:43Z</time>
      </trkpt>
      <trkpt lat="46.27939" lon="4.68266">
        <ele>669.2</ele>
        <time>2022-06-25T13:09:44Z</time>
      </trkpt>
      <trkpt lat="46.27939" lon="4.68263">
        <ele>669.2</ele>
        <time>2022-06-25T13:09:45Z</time>
      </trkpt>
      <trkpt lat="46.27939" lon="4.6826">
        <ele>669.4</ele>
        <time>2022-06-25T13:09:46Z</time>
      </trkpt>
      <trkpt lat="46.27939" lon="4.68256">
        <ele>669.4</ele>
        <time>2022-06-25T13:09:47Z</time>
      </trkpt>
      <trkpt lat="46.27939" lon="4.68252">
        <ele>669.8</ele>
        <time>2022-06-25T13:09:48Z</time>
      </trkpt>
      <trkpt lat="46.27939" lon="4.68248">
        <ele>669.8</ele>
        <time>2022-06-25T13:09:49Z</time>
      </trkpt>
      <trkpt lat="46.27939" lon="4.68245">
        <ele>670</ele>
        <time>2022-06-25T13:09:50Z</time>
      </trkpt>
      <trkpt lat="46.27939" lon="4.68241">
        <ele>670</ele>
        <time>2022-06-25T13:09:51Z</time>
      </trkpt>
      <trkpt lat="46.27938" lon="4.68237">
        <ele>670.2</ele>
        <time>2022-06-25T13:09:52Z</time>
      </trkpt>
      <trkpt lat="46.27938" lon="4.68232">
        <ele>670.2</ele>
        <time>2022-06-25T13:09:53Z</time>
      </trkpt>
      <trkpt lat="46.27938" lon="4.6823">
        <ele>670.4</ele>
        <time>2022-06-25T13:09:54Z</time>
      </trkpt>
      <trkpt lat="46.27938" lon="4.68228">
        <ele>670.4</ele>
        <time>2022-06-25T13:09:55Z</time>
      </trkpt>
      <trkpt lat="46.27938" lon="4.68225">
        <ele>670.8</ele>
        <time>2022-06-25T13:09:56Z</time>
      </trkpt>
      <trkpt lat="46.27938" lon="4.68221">
        <ele>670.8</ele>
        <time>2022-06-25T13:09:57Z</time>
      </trkpt>
      <trkpt lat="46.27937" lon="4.68218">
        <ele>671</ele>
        <time>2022-06-25T13:09:58Z</time>
      </trkpt>
      <trkpt lat="46.27937" lon="4.68214">
        <ele>671</ele>
        <time>2022-06-25T13:09:59Z</time>
      </trkpt>
      <trkpt lat="46.27936" lon="4.6821">
        <ele>671.4</ele>
        <time>2022-06-25T13:10:00Z</time>
      </trkpt>
      <trkpt lat="46.27935" lon="4.68206">
        <ele>671.4</ele>
        <time>2022-06-25T13:10:01Z</time>
      </trkpt>
      <trkpt lat="46.27935" lon="4.68203">
        <ele>671.6</ele>
        <time>2022-06-25T13:10:02Z</time>
      </trkpt>
      <trkpt lat="46.27935" lon="4.68199">
        <ele>671.6</ele>
        <time>2022-06-25T13:10:03Z</time>
      </trkpt>
      <trkpt lat="46.27934" lon="4.68195">
        <ele>671.8</ele>
        <time>2022-06-25T13:10:04Z</time>
      </trkpt>
      <trkpt lat="46.27934" lon="4.68191">
        <ele>671.8</ele>
        <time>2022-06-25T13:10:05Z</time>
      </trkpt>
      <trkpt lat="46.27933" lon="4.68187">
        <ele>671.8</ele>
        <time>2022-06-25T13:10:06Z</time>
      </trkpt>
      <trkpt lat="46.27932" lon="4.68184">
        <ele>672.2</ele>
        <time>2022-06-25T13:10:07Z</time>
      </trkpt>
      <trkpt lat="46.27931" lon="4.6818">
        <ele>672.2</ele>
        <time>2022-06-25T13:10:08Z</time>
      </trkpt>
      <trkpt lat="46.2793" lon="4.68177">
        <ele>672.4</ele>
        <time>2022-06-25T13:10:09Z</time>
      </trkpt>
      <trkpt lat="46.27929" lon="4.68173">
        <ele>672.4</ele>
        <time>2022-06-25T13:10:10Z</time>
      </trkpt>
      <trkpt lat="46.27928" lon="4.6817">
        <ele>672.4</ele>
        <time>2022-06-25T13:10:11Z</time>
      </trkpt>
      <trkpt lat="46.27928" lon="4.68167">
        <ele>672.8</ele>
        <time>2022-06-25T13:10:12Z</time>
      </trkpt>
      <trkpt lat="46.27927" lon="4.68165">
        <ele>672.8</ele>
        <time>2022-06-25T13:10:13Z</time>
      </trkpt>
      <trkpt lat="46.27926" lon="4.68163">
        <ele>672.8</ele>
        <time>2022-06-25T13:10:14Z</time>
      </trkpt>
      <trkpt lat="46.27925" lon="4.6816">
        <ele>673</ele>
        <time>2022-06-25T13:10:15Z</time>
      </trkpt>
      <trkpt lat="46.27924" lon="4.68158">
        <ele>673</ele>
        <time>2022-06-25T13:10:16Z</time>
      </trkpt>
      <trkpt lat="46.27923" lon="4.68155">
        <ele>673.4</ele>
        <time>2022-06-25T13:10:17Z</time>
      </trkpt>
      <trkpt lat="46.27922" lon="4.68153">
        <ele>673.6</ele>
        <time>2022-06-25T13:10:18Z</time>
      </trkpt>
      <trkpt lat="46.27922" lon="4.68151">
        <ele>673.6</ele>
        <time>2022-06-25T13:10:19Z</time>
      </trkpt>
      <trkpt lat="46.27921" lon="4.68149">
        <ele>674</ele>
        <time>2022-06-25T13:10:20Z</time>
      </trkpt>
      <trkpt lat="46.2792" lon="4.68147">
        <ele>674</ele>
        <time>2022-06-25T13:10:21Z</time>
      </trkpt>
      <trkpt lat="46.27919" lon="4.68145">
        <ele>674.4</ele>
        <time>2022-06-25T13:10:22Z</time>
      </trkpt>
      <trkpt lat="46.27918" lon="4.68142">
        <ele>674.4</ele>
        <time>2022-06-25T13:10:23Z</time>
      </trkpt>
      <trkpt lat="46.27916" lon="4.68139">
        <ele>674.6</ele>
        <time>2022-06-25T13:10:24Z</time>
      </trkpt>
      <trkpt lat="46.27915" lon="4.68137">
        <ele>674.6</ele>
        <time>2022-06-25T13:10:25Z</time>
      </trkpt>
      <trkpt lat="46.27914" lon="4.68134">
        <ele>675</ele>
        <time>2022-06-25T13:10:26Z</time>
      </trkpt>
      <trkpt lat="46.27913" lon="4.68131">
        <ele>675.2</ele>
        <time>2022-06-25T13:10:27Z</time>
      </trkpt>
      <trkpt lat="46.27912" lon="4.68129">
        <ele>675.2</ele>
        <time>2022-06-25T13:10:28Z</time>
      </trkpt>
      <trkpt lat="46.2791" lon="4.68125">
        <ele>675.6</ele>
        <time>2022-06-25T13:10:29Z</time>
      </trkpt>
      <trkpt lat="46.27908" lon="4.68121">
        <ele>675.6</ele>
        <time>2022-06-25T13:10:30Z</time>
      </trkpt>
      <trkpt lat="46.27906" lon="4.68117">
        <ele>675.8</ele>
        <time>2022-06-25T13:10:31Z</time>
      </trkpt>
      <trkpt lat="46.27905" lon="4.68114">
        <ele>675.8</ele>
        <time>2022-06-25T13:10:32Z</time>
      </trkpt>
      <trkpt lat="46.27902" lon="4.68109">
        <ele>676</ele>
        <time>2022-06-25T13:10:33Z</time>
      </trkpt>
      <trkpt lat="46.279" lon="4.68106">
        <ele>676</ele>
        <time>2022-06-25T13:10:34Z</time>
      </trkpt>
      <trkpt lat="46.27898" lon="4.68102">
        <ele>676.4</ele>
        <time>2022-06-25T13:10:35Z</time>
      </trkpt>
      <trkpt lat="46.27896" lon="4.68099">
        <ele>676.4</ele>
        <time>2022-06-25T13:10:36Z</time>
      </trkpt>
      <trkpt lat="46.27894" lon="4.68095">
        <ele>676.6</ele>
        <time>2022-06-25T13:10:37Z</time>
      </trkpt>
      <trkpt lat="46.27891" lon="4.68091">
        <ele>676.6</ele>
        <time>2022-06-25T13:10:38Z</time>
      </trkpt>
      <trkpt lat="46.27889" lon="4.68088">
        <ele>676.8</ele>
        <time>2022-06-25T13:10:39Z</time>
      </trkpt>
      <trkpt lat="46.27886" lon="4.68085">
        <ele>676.8</ele>
        <time>2022-06-25T13:10:40Z</time>
      </trkpt>
      <trkpt lat="46.27884" lon="4.68083">
        <ele>677.2</ele>
        <time>2022-06-25T13:10:41Z</time>
      </trkpt>
      <trkpt lat="46.27883" lon="4.6808">
        <ele>677.2</ele>
        <time>2022-06-25T13:10:42Z</time>
      </trkpt>
      <trkpt lat="46.27881" lon="4.68078">
        <ele>677.4</ele>
        <time>2022-06-25T13:10:43Z</time>
      </trkpt>
      <trkpt lat="46.27879" lon="4.68075">
        <ele>677.4</ele>
        <time>2022-06-25T13:10:44Z</time>
      </trkpt>
      <trkpt lat="46.27877" lon="4.68072">
        <ele>677.8</ele>
        <time>2022-06-25T13:10:45Z</time>
      </trkpt>
      <trkpt lat="46.27875" lon="4.68069">
        <ele>678</ele>
        <time>2022-06-25T13:10:46Z</time>
      </trkpt>
      <trkpt lat="46.27873" lon="4.68066">
        <ele>678</ele>
        <time>2022-06-25T13:10:47Z</time>
      </trkpt>
      <trkpt lat="46.27871" lon="4.68063">
        <ele>678.2</ele>
        <time>2022-06-25T13:10:48Z</time>
      </trkpt>
      <trkpt lat="46.27868" lon="4.68061">
        <ele>678.2</ele>
        <time>2022-06-25T13:10:49Z</time>
      </trkpt>
      <trkpt lat="46.27866" lon="4.68058">
        <ele>678.6</ele>
        <time>2022-06-25T13:10:50Z</time>
      </trkpt>
      <trkpt lat="46.27864" lon="4.68056">
        <ele>678.6</ele>
        <time>2022-06-25T13:10:51Z</time>
      </trkpt>
      <trkpt lat="46.27862" lon="4.68054">
        <ele>678.8</ele>
        <time>2022-06-25T13:10:52Z</time>
      </trkpt>
      <trkpt lat="46.2786" lon="4.68051">
        <ele>678.8</ele>
        <time>2022-06-25T13:10:53Z</time>
      </trkpt>
      <trkpt lat="46.27856" lon="4.68048">
        <ele>679</ele>
        <time>2022-06-25T13:10:54Z</time>
      </trkpt>
      <trkpt lat="46.27855" lon="4.68047">
        <ele>679</ele>
        <time>2022-06-25T13:10:55Z</time>
      </trkpt>
      <trkpt lat="46.27852" lon="4.68045">
        <ele>679.4</ele>
        <time>2022-06-25T13:10:56Z</time>
      </trkpt>
      <trkpt lat="46.27849" lon="4.68042">
        <ele>679.4</ele>
        <time>2022-06-25T13:10:57Z</time>
      </trkpt>
      <trkpt lat="46.27847" lon="4.6804">
        <ele>679.6</ele>
        <time>2022-06-25T13:10:58Z</time>
      </trkpt>
      <trkpt lat="46.27845" lon="4.68038">
        <ele>679.6</ele>
        <time>2022-06-25T13:10:59Z</time>
      </trkpt>
      <trkpt lat="46.27842" lon="4.68036">
        <ele>680</ele>
        <time>2022-06-25T13:11:00Z</time>
      </trkpt>
      <trkpt lat="46.27839" lon="4.68035">
        <ele>680</ele>
        <time>2022-06-25T13:11:01Z</time>
      </trkpt>
      <trkpt lat="46.27837" lon="4.68033">
        <ele>680</ele>
        <time>2022-06-25T13:11:02Z</time>
      </trkpt>
      <trkpt lat="46.27834" lon="4.68032">
        <ele>680.4</ele>
        <time>2022-06-25T13:11:03Z</time>
      </trkpt>
      <trkpt lat="46.27831" lon="4.6803">
        <ele>680.4</ele>
        <time>2022-06-25T13:11:04Z</time>
      </trkpt>
      <trkpt lat="46.27829" lon="4.68029">
        <ele>680.6</ele>
        <time>2022-06-25T13:11:05Z</time>
      </trkpt>
      <trkpt lat="46.27826" lon="4.68027">
        <ele>680.6</ele>
        <time>2022-06-25T13:11:06Z</time>
      </trkpt>
      <trkpt lat="46.27824" lon="4.68026">
        <ele>680.8</ele>
        <time>2022-06-25T13:11:07Z</time>
      </trkpt>
      <trkpt lat="46.27822" lon="4.68024">
        <ele>680.8</ele>
        <time>2022-06-25T13:11:08Z</time>
      </trkpt>
      <trkpt lat="46.27819" lon="4.68023">
        <ele>681</ele>
        <time>2022-06-25T13:11:09Z</time>
      </trkpt>
      <trkpt lat="46.27817" lon="4.68022">
        <ele>681</ele>
        <time>2022-06-25T13:11:10Z</time>
      </trkpt>
      <trkpt lat="46.27815" lon="4.68021">
        <ele>681.4</ele>
        <time>2022-06-25T13:11:11Z</time>
      </trkpt>
      <trkpt lat="46.27813" lon="4.6802">
        <ele>681.4</ele>
        <time>2022-06-25T13:11:12Z</time>
      </trkpt>
      <trkpt lat="46.27811" lon="4.68019">
        <ele>681.6</ele>
        <time>2022-06-25T13:11:13Z</time>
      </trkpt>
      <trkpt lat="46.2781" lon="4.68018">
        <ele>681.6</ele>
        <time>2022-06-25T13:11:14Z</time>
      </trkpt>
      <trkpt lat="46.27808" lon="4.68017">
        <ele>682</ele>
        <time>2022-06-25T13:11:15Z</time>
      </trkpt>
      <trkpt lat="46.27805" lon="4.68015">
        <ele>682</ele>
        <time>2022-06-25T13:11:16Z</time>
      </trkpt>
      <trkpt lat="46.27803" lon="4.68014">
        <ele>682.4</ele>
        <time>2022-06-25T13:11:17Z</time>
      </trkpt>
      <trkpt lat="46.27801" lon="4.68012">
        <ele>682.4</ele>
        <time>2022-06-25T13:11:18Z</time>
      </trkpt>
      <trkpt lat="46.27799" lon="4.68011">
        <ele>682.6</ele>
        <time>2022-06-25T13:11:19Z</time>
      </trkpt>
      <trkpt lat="46.27797" lon="4.68009">
        <ele>682.6</ele>
        <time>2022-06-25T13:11:20Z</time>
      </trkpt>
      <trkpt lat="46.27794" lon="4.68007">
        <ele>683</ele>
        <time>2022-06-25T13:11:21Z</time>
      </trkpt>
      <trkpt lat="46.27792" lon="4.68006">
        <ele>683</ele>
        <time>2022-06-25T13:11:22Z</time>
      </trkpt>
      <trkpt lat="46.27789" lon="4.68005">
        <ele>683.2</ele>
        <time>2022-06-25T13:11:23Z</time>
      </trkpt>
      <trkpt lat="46.27787" lon="4.68003">
        <ele>683.2</ele>
        <time>2022-06-25T13:11:24Z</time>
      </trkpt>
      <trkpt lat="46.27785" lon="4.68001">
        <ele>683.6</ele>
        <time>2022-06-25T13:11:25Z</time>
      </trkpt>
      <trkpt lat="46.27783" lon="4.67999">
        <ele>683.6</ele>
        <time>2022-06-25T13:11:26Z</time>
      </trkpt>
      <trkpt lat="46.2778" lon="4.67997">
        <ele>684</ele>
        <time>2022-06-25T13:11:27Z</time>
      </trkpt>
      <trkpt lat="46.27778" lon="4.67995">
        <ele>684.2</ele>
        <time>2022-06-25T13:11:28Z</time>
      </trkpt>
      <trkpt lat="46.27775" lon="4.67993">
        <ele>684.4</ele>
        <time>2022-06-25T13:11:29Z</time>
      </trkpt>
      <trkpt lat="46.27772" lon="4.67992">
        <ele>684.4</ele>
        <time>2022-06-25T13:11:30Z</time>
      </trkpt>
      <trkpt lat="46.2777" lon="4.6799">
        <ele>684.8</ele>
        <time>2022-06-25T13:11:31Z</time>
      </trkpt>
      <trkpt lat="46.27768" lon="4.67988">
        <ele>684.8</ele>
        <time>2022-06-25T13:11:32Z</time>
      </trkpt>
      <trkpt lat="46.27765" lon="4.67986">
        <ele>685.2</ele>
        <time>2022-06-25T13:11:33Z</time>
      </trkpt>
      <trkpt lat="46.27763" lon="4.67983">
        <ele>685.2</ele>
        <time>2022-06-25T13:11:34Z</time>
      </trkpt>
      <trkpt lat="46.27762" lon="4.67981">
        <ele>685.4</ele>
        <time>2022-06-25T13:11:35Z</time>
      </trkpt>
      <trkpt lat="46.2776" lon="4.6798">
        <ele>685.6</ele>
        <time>2022-06-25T13:11:36Z</time>
      </trkpt>
      <trkpt lat="46.27758" lon="4.67979">
        <ele>685.6</ele>
        <time>2022-06-25T13:11:37Z</time>
      </trkpt>
      <trkpt lat="46.27757" lon="4.67978">
        <ele>685.8</ele>
        <time>2022-06-25T13:11:38Z</time>
      </trkpt>
      <trkpt lat="46.27755" lon="4.67977">
        <ele>685.8</ele>
        <time>2022-06-25T13:11:39Z</time>
      </trkpt>
      <trkpt lat="46.27754" lon="4.67975">
        <ele>686.2</ele>
        <time>2022-06-25T13:11:40Z</time>
      </trkpt>
      <trkpt lat="46.27752" lon="4.67973">
        <ele>686.2</ele>
        <time>2022-06-25T13:11:41Z</time>
      </trkpt>
      <trkpt lat="46.2775" lon="4.67971">
        <ele>686.4</ele>
        <time>2022-06-25T13:11:42Z</time>
      </trkpt>
      <trkpt lat="46.27748" lon="4.6797">
        <ele>686.4</ele>
        <time>2022-06-25T13:11:43Z</time>
      </trkpt>
      <trkpt lat="46.27746" lon="4.67968">
        <ele>686.8</ele>
        <time>2022-06-25T13:11:44Z</time>
      </trkpt>
      <trkpt lat="46.27744" lon="4.67966">
        <ele>686.8</ele>
        <time>2022-06-25T13:11:45Z</time>
      </trkpt>
      <trkpt lat="46.27742" lon="4.67964">
        <ele>687</ele>
        <time>2022-06-25T13:11:46Z</time>
      </trkpt>
      <trkpt lat="46.2774" lon="4.67962">
        <ele>687</ele>
        <time>2022-06-25T13:11:47Z</time>
      </trkpt>
      <trkpt lat="46.27738" lon="4.67961">
        <ele>687.4</ele>
        <time>2022-06-25T13:11:48Z</time>
      </trkpt>
      <trkpt lat="46.27736" lon="4.67959">
        <ele>687.4</ele>
        <time>2022-06-25T13:11:49Z</time>
      </trkpt>
      <trkpt lat="46.27734" lon="4.67957">
        <ele>687.8</ele>
        <time>2022-06-25T13:11:50Z</time>
      </trkpt>
      <trkpt lat="46.27732" lon="4.67955">
        <ele>687.8</ele>
        <time>2022-06-25T13:11:51Z</time>
      </trkpt>
      <trkpt lat="46.2773" lon="4.67952">
        <ele>688</ele>
        <time>2022-06-25T13:11:52Z</time>
      </trkpt>
      <trkpt lat="46.27727" lon="4.67949">
        <ele>688</ele>
        <time>2022-06-25T13:11:53Z</time>
      </trkpt>
      <trkpt lat="46.27726" lon="4.67946">
        <ele>688.4</ele>
        <time>2022-06-25T13:11:54Z</time>
      </trkpt>
      <trkpt lat="46.27724" lon="4.67944">
        <ele>688.4</ele>
        <time>2022-06-25T13:11:55Z</time>
      </trkpt>
      <trkpt lat="46.27722" lon="4.6794">
        <ele>688.8</ele>
        <time>2022-06-25T13:11:56Z</time>
      </trkpt>
      <trkpt lat="46.27721" lon="4.67937">
        <ele>688.8</ele>
        <time>2022-06-25T13:11:57Z</time>
      </trkpt>
      <trkpt lat="46.2772" lon="4.67935">
        <ele>689</ele>
        <time>2022-06-25T13:11:58Z</time>
      </trkpt>
      <trkpt lat="46.27718" lon="4.67931">
        <ele>689</ele>
        <time>2022-06-25T13:11:59Z</time>
      </trkpt>
      <trkpt lat="46.27716" lon="4.67929">
        <ele>689.4</ele>
        <time>2022-06-25T13:12:00Z</time>
      </trkpt>
      <trkpt lat="46.27714" lon="4.67925">
        <ele>689.4</ele>
        <time>2022-06-25T13:12:01Z</time>
      </trkpt>
      <trkpt lat="46.27713" lon="4.67922">
        <ele>689.8</ele>
        <time>2022-06-25T13:12:02Z</time>
      </trkpt>
      <trkpt lat="46.27712" lon="4.67919">
        <ele>689.8</ele>
        <time>2022-06-25T13:12:03Z</time>
      </trkpt>
      <trkpt lat="46.2771" lon="4.67916">
        <ele>690</ele>
        <time>2022-06-25T13:12:04Z</time>
      </trkpt>
      <trkpt lat="46.27709" lon="4.67913">
        <ele>690</ele>
        <time>2022-06-25T13:12:05Z</time>
      </trkpt>
      <trkpt lat="46.27708" lon="4.6791">
        <ele>690.4</ele>
        <time>2022-06-25T13:12:06Z</time>
      </trkpt>
      <trkpt lat="46.27706" lon="4.67907">
        <ele>690.4</ele>
        <time>2022-06-25T13:12:07Z</time>
      </trkpt>
      <trkpt lat="46.27704" lon="4.67904">
        <ele>690.8</ele>
        <time>2022-06-25T13:12:08Z</time>
      </trkpt>
      <trkpt lat="46.27703" lon="4.67901">
        <ele>690.8</ele>
        <time>2022-06-25T13:12:09Z</time>
      </trkpt>
      <trkpt lat="46.27701" lon="4.67898">
        <ele>691</ele>
        <time>2022-06-25T13:12:10Z</time>
      </trkpt>
      <trkpt lat="46.277" lon="4.67895">
        <ele>691</ele>
        <time>2022-06-25T13:12:11Z</time>
      </trkpt>
      <trkpt lat="46.27698" lon="4.67891">
        <ele>691.4</ele>
        <time>2022-06-25T13:12:12Z</time>
      </trkpt>
      <trkpt lat="46.27695" lon="4.67887">
        <ele>691.4</ele>
        <time>2022-06-25T13:12:13Z</time>
      </trkpt>
      <trkpt lat="46.27692" lon="4.67883">
        <ele>691.6</ele>
        <time>2022-06-25T13:12:14Z</time>
      </trkpt>
      <trkpt lat="46.27689" lon="4.67878">
        <ele>691.6</ele>
        <time>2022-06-25T13:12:15Z</time>
      </trkpt>
      <trkpt lat="46.27685" lon="4.67875">
        <ele>691.6</ele>
        <time>2022-06-25T13:12:16Z</time>
      </trkpt>
      <trkpt lat="46.27683" lon="4.67871">
        <ele>691.8</ele>
        <time>2022-06-25T13:12:17Z</time>
      </trkpt>
      <trkpt lat="46.27679" lon="4.67868">
        <ele>691.8</ele>
        <time>2022-06-25T13:12:18Z</time>
      </trkpt>
      <trkpt lat="46.27676" lon="4.67865">
        <ele>691.8</ele>
        <time>2022-06-25T13:12:19Z</time>
      </trkpt>
      <trkpt lat="46.27674" lon="4.67863">
        <ele>692</ele>
        <time>2022-06-25T13:12:20Z</time>
      </trkpt>
      <trkpt lat="46.27671" lon="4.6786">
        <ele>692</ele>
        <time>2022-06-25T13:12:21Z</time>
      </trkpt>
      <trkpt lat="46.27669" lon="4.67858">
        <ele>692</ele>
        <time>2022-06-25T13:12:22Z</time>
      </trkpt>
      <trkpt lat="46.27666" lon="4.67856">
        <ele>692</ele>
        <time>2022-06-25T13:12:23Z</time>
      </trkpt>
      <trkpt lat="46.27662" lon="4.67853">
        <ele>692.4</ele>
        <time>2022-06-25T13:12:24Z</time>
      </trkpt>
      <trkpt lat="46.27659" lon="4.67852">
        <ele>692.4</ele>
        <time>2022-06-25T13:12:25Z</time>
      </trkpt>
      <trkpt lat="46.27656" lon="4.6785">
        <ele>692.4</ele>
        <time>2022-06-25T13:12:26Z</time>
      </trkpt>
      <trkpt lat="46.27654" lon="4.67848">
        <ele>692.4</ele>
        <time>2022-06-25T13:12:27Z</time>
      </trkpt>
      <trkpt lat="46.27653" lon="4.67847">
        <ele>692</ele>
        <time>2022-06-25T13:12:28Z</time>
      </trkpt>
      <trkpt lat="46.27652" lon="4.67847">
        <ele>692</ele>
        <time>2022-06-25T13:12:29Z</time>
      </trkpt>
      <trkpt lat="46.27652" lon="4.67847">
        <ele>692.2</ele>
        <time>2022-06-25T13:14:21Z</time>
      </trkpt>
      <trkpt lat="46.27652" lon="4.67847">
        <ele>692.4</ele>
        <time>2022-06-25T13:18:40Z</time>
      </trkpt>
      <trkpt lat="46.2765" lon="4.67846">
        <ele>693</ele>
        <time>2022-06-25T13:20:20Z</time>
      </trkpt>
      <trkpt lat="46.27649" lon="4.67845">
        <ele>693</ele>
        <time>2022-06-25T13:20:21Z</time>
      </trkpt>
      <trkpt lat="46.27647" lon="4.67845">
        <ele>693</ele>
        <time>2022-06-25T13:20:22Z</time>
      </trkpt>
      <trkpt lat="46.27645" lon="4.67844">
        <ele>693</ele>
        <time>2022-06-25T13:20:23Z</time>
      </trkpt>
      <trkpt lat="46.27642" lon="4.67844">
        <ele>693</ele>
        <time>2022-06-25T13:20:24Z</time>
      </trkpt>
      <trkpt lat="46.27639" lon="4.67843">
        <ele>693</ele>
        <time>2022-06-25T13:20:25Z</time>
      </trkpt>
      <trkpt lat="46.27636" lon="4.67842">
        <ele>693</ele>
        <time>2022-06-25T13:20:26Z</time>
      </trkpt>
      <trkpt lat="46.27633" lon="4.67842">
        <ele>693</ele>
        <time>2022-06-25T13:20:27Z</time>
      </trkpt>
      <trkpt lat="46.2763" lon="4.67841">
        <ele>693</ele>
        <time>2022-06-25T13:20:28Z</time>
      </trkpt>
      <trkpt lat="46.27627" lon="4.6784">
        <ele>693</ele>
        <time>2022-06-25T13:20:29Z</time>
      </trkpt>
      <trkpt lat="46.27623" lon="4.6784">
        <ele>693</ele>
        <time>2022-06-25T13:20:30Z</time>
      </trkpt>
      <trkpt lat="46.2762" lon="4.67839">
        <ele>693</ele>
        <time>2022-06-25T13:20:31Z</time>
      </trkpt>
      <trkpt lat="46.27616" lon="4.6784">
        <ele>693</ele>
        <time>2022-06-25T13:20:32Z</time>
      </trkpt>
      <trkpt lat="46.27613" lon="4.67841">
        <ele>693</ele>
        <time>2022-06-25T13:20:33Z</time>
      </trkpt>
      <trkpt lat="46.27609" lon="4.67842">
        <ele>693</ele>
        <time>2022-06-25T13:20:34Z</time>
      </trkpt>
      <trkpt lat="46.27605" lon="4.67842">
        <ele>693</ele>
        <time>2022-06-25T13:20:35Z</time>
      </trkpt>
      <trkpt lat="46.27601" lon="4.67843">
        <ele>693</ele>
        <time>2022-06-25T13:20:36Z</time>
      </trkpt>
      <trkpt lat="46.27597" lon="4.67843">
        <ele>692.8</ele>
        <time>2022-06-25T13:20:37Z</time>
      </trkpt>
      <trkpt lat="46.27592" lon="4.67844">
        <ele>692.8</ele>
        <time>2022-06-25T13:20:38Z</time>
      </trkpt>
      <trkpt lat="46.27588" lon="4.67844">
        <ele>692.8</ele>
        <time>2022-06-25T13:20:39Z</time>
      </trkpt>
      <trkpt lat="46.27583" lon="4.67844">
        <ele>692.8</ele>
        <time>2022-06-25T13:20:40Z</time>
      </trkpt>
      <trkpt lat="46.27577" lon="4.67845">
        <ele>692.8</ele>
        <time>2022-06-25T13:20:41Z</time>
      </trkpt>
      <trkpt lat="46.27572" lon="4.67846">
        <ele>692.8</ele>
        <time>2022-06-25T13:20:42Z</time>
      </trkpt>
      <trkpt lat="46.27568" lon="4.67847">
        <ele>692.8</ele>
        <time>2022-06-25T13:20:43Z</time>
      </trkpt>
      <trkpt lat="46.27562" lon="4.67846">
        <ele>692.8</ele>
        <time>2022-06-25T13:20:44Z</time>
      </trkpt>
      <trkpt lat="46.27557" lon="4.67845">
        <ele>692.6</ele>
        <time>2022-06-25T13:20:45Z</time>
      </trkpt>
      <trkpt lat="46.27552" lon="4.67844">
        <ele>692.6</ele>
        <time>2022-06-25T13:20:46Z</time>
      </trkpt>
      <trkpt lat="46.27547" lon="4.67843">
        <ele>692.6</ele>
        <time>2022-06-25T13:20:47Z</time>
      </trkpt>
      <trkpt lat="46.27542" lon="4.67841">
        <ele>692.2</ele>
        <time>2022-06-25T13:20:48Z</time>
      </trkpt>
      <trkpt lat="46.27537" lon="4.6784">
        <ele>692.2</ele>
        <time>2022-06-25T13:20:49Z</time>
      </trkpt>
      <trkpt lat="46.27532" lon="4.67838">
        <ele>692</ele>
        <time>2022-06-25T13:20:50Z</time>
      </trkpt>
      <trkpt lat="46.27526" lon="4.67835">
        <ele>692</ele>
        <time>2022-06-25T13:20:51Z</time>
      </trkpt>
      <trkpt lat="46.27522" lon="4.67833">
        <ele>691.8</ele>
        <time>2022-06-25T13:20:52Z</time>
      </trkpt>
      <trkpt lat="46.27517" lon="4.6783">
        <ele>691.8</ele>
        <time>2022-06-25T13:20:53Z</time>
      </trkpt>
      <trkpt lat="46.27513" lon="4.67827">
        <ele>691.6</ele>
        <time>2022-06-25T13:20:54Z</time>
      </trkpt>
      <trkpt lat="46.27509" lon="4.67823">
        <ele>691.6</ele>
        <time>2022-06-25T13:20:55Z</time>
      </trkpt>
      <trkpt lat="46.27504" lon="4.67819">
        <ele>691.2</ele>
        <time>2022-06-25T13:20:56Z</time>
      </trkpt>
      <trkpt lat="46.275" lon="4.67815">
        <ele>691.2</ele>
        <time>2022-06-25T13:20:57Z</time>
      </trkpt>
      <trkpt lat="46.27495" lon="4.6781">
        <ele>691</ele>
        <time>2022-06-25T13:20:58Z</time>
      </trkpt>
      <trkpt lat="46.27491" lon="4.67804">
        <ele>691</ele>
        <time>2022-06-25T13:20:59Z</time>
      </trkpt>
      <trkpt lat="46.27488" lon="4.67798">
        <ele>690.6</ele>
        <time>2022-06-25T13:21:00Z</time>
      </trkpt>
      <trkpt lat="46.27485" lon="4.67792">
        <ele>690.6</ele>
        <time>2022-06-25T13:21:01Z</time>
      </trkpt>
      <trkpt lat="46.27482" lon="4.67785">
        <ele>690.4</ele>
        <time>2022-06-25T13:21:02Z</time>
      </trkpt>
      <trkpt lat="46.2748" lon="4.67778">
        <ele>690.4</ele>
        <time>2022-06-25T13:21:03Z</time>
      </trkpt>
      <trkpt lat="46.27478" lon="4.6777">
        <ele>690.2</ele>
        <time>2022-06-25T13:21:04Z</time>
      </trkpt>
      <trkpt lat="46.27475" lon="4.67761">
        <ele>690.2</ele>
        <time>2022-06-25T13:21:05Z</time>
      </trkpt>
      <trkpt lat="46.27473" lon="4.67752">
        <ele>690</ele>
        <time>2022-06-25T13:21:06Z</time>
      </trkpt>
      <trkpt lat="46.2747" lon="4.67744">
        <ele>690</ele>
        <time>2022-06-25T13:21:07Z</time>
      </trkpt>
      <trkpt lat="46.27468" lon="4.67735">
        <ele>690</ele>
        <time>2022-06-25T13:21:08Z</time>
      </trkpt>
      <trkpt lat="46.27466" lon="4.67726">
        <ele>689.8</ele>
        <time>2022-06-25T13:21:09Z</time>
      </trkpt>
      <trkpt lat="46.27463" lon="4.67717">
        <ele>689.8</ele>
        <time>2022-06-25T13:21:10Z</time>
      </trkpt>
      <trkpt lat="46.2746" lon="4.67707">
        <ele>689.8</ele>
        <time>2022-06-25T13:21:11Z</time>
      </trkpt>
      <trkpt lat="46.27456" lon="4.67696">
        <ele>689.8</ele>
        <time>2022-06-25T13:21:12Z</time>
      </trkpt>
      <trkpt lat="46.27453" lon="4.67686">
        <ele>689.8</ele>
        <time>2022-06-25T13:21:13Z</time>
      </trkpt>
      <trkpt lat="46.27444" lon="4.67666">
        <ele>689.8</ele>
        <time>2022-06-25T13:21:14Z</time>
      </trkpt>
      <trkpt lat="46.27441" lon="4.67656">
        <ele>689.4</ele>
        <time>2022-06-25T13:21:16Z</time>
      </trkpt>
      <trkpt lat="46.27437" lon="4.67646">
        <ele>689.4</ele>
        <time>2022-06-25T13:21:17Z</time>
      </trkpt>
      <trkpt lat="46.27433" lon="4.67636">
        <ele>689.4</ele>
        <time>2022-06-25T13:21:18Z</time>
      </trkpt>
      <trkpt lat="46.2743" lon="4.67626">
        <ele>689.4</ele>
        <time>2022-06-25T13:21:19Z</time>
      </trkpt>
      <trkpt lat="46.27427" lon="4.67616">
        <ele>689.4</ele>
        <time>2022-06-25T13:21:20Z</time>
      </trkpt>
      <trkpt lat="46.27424" lon="4.67607">
        <ele>689.4</ele>
        <time>2022-06-25T13:21:21Z</time>
      </trkpt>
      <trkpt lat="46.27421" lon="4.67597">
        <ele>689.4</ele>
        <time>2022-06-25T13:21:22Z</time>
      </trkpt>
      <trkpt lat="46.27418" lon="4.67588">
        <ele>689.4</ele>
        <time>2022-06-25T13:21:23Z</time>
      </trkpt>
      <trkpt lat="46.27415" lon="4.67579">
        <ele>689.4</ele>
        <time>2022-06-25T13:21:24Z</time>
      </trkpt>
      <trkpt lat="46.27412" lon="4.6757">
        <ele>689.4</ele>
        <time>2022-06-25T13:21:25Z</time>
      </trkpt>
      <trkpt lat="46.27407" lon="4.67557">
        <ele>689.4</ele>
        <time>2022-06-25T13:21:26Z</time>
      </trkpt>
      <trkpt lat="46.27406" lon="4.67553">
        <ele>689</ele>
        <time>2022-06-25T13:21:27Z</time>
      </trkpt>
      <trkpt lat="46.27403" lon="4.67544">
        <ele>689</ele>
        <time>2022-06-25T13:21:28Z</time>
      </trkpt>
      <trkpt lat="46.27399" lon="4.67537">
        <ele>688.8</ele>
        <time>2022-06-25T13:21:29Z</time>
      </trkpt>
      <trkpt lat="46.27396" lon="4.67529">
        <ele>688.8</ele>
        <time>2022-06-25T13:21:30Z</time>
      </trkpt>
      <trkpt lat="46.27391" lon="4.67522">
        <ele>688.4</ele>
        <time>2022-06-25T13:21:31Z</time>
      </trkpt>
      <trkpt lat="46.27386" lon="4.67515">
        <ele>688.4</ele>
        <time>2022-06-25T13:21:32Z</time>
      </trkpt>
      <trkpt lat="46.27381" lon="4.67508">
        <ele>688.2</ele>
        <time>2022-06-25T13:21:33Z</time>
      </trkpt>
      <trkpt lat="46.27376" lon="4.67501">
        <ele>688</ele>
        <time>2022-06-25T13:21:34Z</time>
      </trkpt>
      <trkpt lat="46.2737" lon="4.67496">
        <ele>687.8</ele>
        <time>2022-06-25T13:21:35Z</time>
      </trkpt>
      <trkpt lat="46.27363" lon="4.67491">
        <ele>687.8</ele>
        <time>2022-06-25T13:21:36Z</time>
      </trkpt>
      <trkpt lat="46.27357" lon="4.67487">
        <ele>687.4</ele>
        <time>2022-06-25T13:21:37Z</time>
      </trkpt>
      <trkpt lat="46.2735" lon="4.67485">
        <ele>687.4</ele>
        <time>2022-06-25T13:21:38Z</time>
      </trkpt>
      <trkpt lat="46.27343" lon="4.67484">
        <ele>687.4</ele>
        <time>2022-06-25T13:21:39Z</time>
      </trkpt>
      <trkpt lat="46.27337" lon="4.67484">
        <ele>687.4</ele>
        <time>2022-06-25T13:21:40Z</time>
      </trkpt>
      <trkpt lat="46.27331" lon="4.67485">
        <ele>687.8</ele>
        <time>2022-06-25T13:21:41Z</time>
      </trkpt>
      <trkpt lat="46.27326" lon="4.67486">
        <ele>688</ele>
        <time>2022-06-25T13:21:42Z</time>
      </trkpt>
      <trkpt lat="46.27321" lon="4.67487">
        <ele>688.2</ele>
        <time>2022-06-25T13:21:43Z</time>
      </trkpt>
      <trkpt lat="46.27316" lon="4.67487">
        <ele>688.4</ele>
        <time>2022-06-25T13:21:44Z</time>
      </trkpt>
      <trkpt lat="46.27311" lon="4.67488">
        <ele>688.6</ele>
        <time>2022-06-25T13:21:45Z</time>
      </trkpt>
      <trkpt lat="46.27306" lon="4.67489">
        <ele>689</ele>
        <time>2022-06-25T13:21:46Z</time>
      </trkpt>
      <trkpt lat="46.27302" lon="4.6749">
        <ele>689.4</ele>
        <time>2022-06-25T13:21:47Z</time>
      </trkpt>
      <trkpt lat="46.27297" lon="4.67491">
        <ele>689.6</ele>
        <time>2022-06-25T13:21:48Z</time>
      </trkpt>
      <trkpt lat="46.27292" lon="4.67491">
        <ele>690</ele>
        <time>2022-06-25T13:21:49Z</time>
      </trkpt>
      <trkpt lat="46.27288" lon="4.67492">
        <ele>690.4</ele>
        <time>2022-06-25T13:21:50Z</time>
      </trkpt>
      <trkpt lat="46.27284" lon="4.67492">
        <ele>690.6</ele>
        <time>2022-06-25T13:21:51Z</time>
      </trkpt>
      <trkpt lat="46.27279" lon="4.67491">
        <ele>691</ele>
        <time>2022-06-25T13:21:52Z</time>
      </trkpt>
      <trkpt lat="46.27275" lon="4.6749">
        <ele>691.4</ele>
        <time>2022-06-25T13:21:53Z</time>
      </trkpt>
      <trkpt lat="46.27271" lon="4.67488">
        <ele>691.6</ele>
        <time>2022-06-25T13:21:54Z</time>
      </trkpt>
      <trkpt lat="46.27267" lon="4.67486">
        <ele>692</ele>
        <time>2022-06-25T13:21:55Z</time>
      </trkpt>
      <trkpt lat="46.27264" lon="4.67483">
        <ele>692</ele>
        <time>2022-06-25T13:21:56Z</time>
      </trkpt>
      <trkpt lat="46.27261" lon="4.6748">
        <ele>692</ele>
        <time>2022-06-25T13:21:57Z</time>
      </trkpt>
      <trkpt lat="46.27258" lon="4.67478">
        <ele>692</ele>
        <time>2022-06-25T13:21:58Z</time>
      </trkpt>
      <trkpt lat="46.27255" lon="4.67475">
        <ele>692.6</ele>
        <time>2022-06-25T13:21:59Z</time>
      </trkpt>
      <trkpt lat="46.27252" lon="4.67473">
        <ele>692.8</ele>
        <time>2022-06-25T13:22:00Z</time>
      </trkpt>
      <trkpt lat="46.2725" lon="4.6747">
        <ele>692.8</ele>
        <time>2022-06-25T13:22:01Z</time>
      </trkpt>
      <trkpt lat="46.27247" lon="4.67467">
        <ele>693.2</ele>
        <time>2022-06-25T13:22:02Z</time>
      </trkpt>
      <trkpt lat="46.27244" lon="4.67464">
        <ele>693.2</ele>
        <time>2022-06-25T13:22:03Z</time>
      </trkpt>
      <trkpt lat="46.27242" lon="4.67461">
        <ele>693.6</ele>
        <time>2022-06-25T13:22:04Z</time>
      </trkpt>
      <trkpt lat="46.27239" lon="4.67458">
        <ele>693.8</ele>
        <time>2022-06-25T13:22:05Z</time>
      </trkpt>
      <trkpt lat="46.27236" lon="4.67455">
        <ele>694</ele>
        <time>2022-06-25T13:22:06Z</time>
      </trkpt>
      <trkpt lat="46.27233" lon="4.67452">
        <ele>694.4</ele>
        <time>2022-06-25T13:22:07Z</time>
      </trkpt>
      <trkpt lat="46.2723" lon="4.67449">
        <ele>694.4</ele>
        <time>2022-06-25T13:22:08Z</time>
      </trkpt>
      <trkpt lat="46.27228" lon="4.67446">
        <ele>694.6</ele>
        <time>2022-06-25T13:22:09Z</time>
      </trkpt>
      <trkpt lat="46.27225" lon="4.67443">
        <ele>694.6</ele>
        <time>2022-06-25T13:22:10Z</time>
      </trkpt>
      <trkpt lat="46.27222" lon="4.67441">
        <ele>695</ele>
        <time>2022-06-25T13:22:11Z</time>
      </trkpt>
      <trkpt lat="46.27219" lon="4.67438">
        <ele>695</ele>
        <time>2022-06-25T13:22:12Z</time>
      </trkpt>
      <trkpt lat="46.27217" lon="4.67435">
        <ele>695.4</ele>
        <time>2022-06-25T13:22:13Z</time>
      </trkpt>
      <trkpt lat="46.27214" lon="4.67433">
        <ele>695.4</ele>
        <time>2022-06-25T13:22:14Z</time>
      </trkpt>
      <trkpt lat="46.27211" lon="4.6743">
        <ele>696</ele>
        <time>2022-06-25T13:22:15Z</time>
      </trkpt>
      <trkpt lat="46.27209" lon="4.67428">
        <ele>696</ele>
        <time>2022-06-25T13:22:16Z</time>
      </trkpt>
      <trkpt lat="46.27206" lon="4.67425">
        <ele>696</ele>
        <time>2022-06-25T13:22:17Z</time>
      </trkpt>
      <trkpt lat="46.27203" lon="4.67422">
        <ele>696.2</ele>
        <time>2022-06-25T13:22:18Z</time>
      </trkpt>
      <trkpt lat="46.272" lon="4.6742">
        <ele>696.2</ele>
        <time>2022-06-25T13:22:19Z</time>
      </trkpt>
      <trkpt lat="46.27198" lon="4.67417">
        <ele>696.4</ele>
        <time>2022-06-25T13:22:20Z</time>
      </trkpt>
      <trkpt lat="46.27195" lon="4.67415">
        <ele>696.4</ele>
        <time>2022-06-25T13:22:21Z</time>
      </trkpt>
      <trkpt lat="46.27193" lon="4.67413">
        <ele>696.8</ele>
        <time>2022-06-25T13:22:22Z</time>
      </trkpt>
      <trkpt lat="46.2719" lon="4.6741">
        <ele>696.8</ele>
        <time>2022-06-25T13:22:23Z</time>
      </trkpt>
      <trkpt lat="46.27187" lon="4.67408">
        <ele>697</ele>
        <time>2022-06-25T13:22:24Z</time>
      </trkpt>
      <trkpt lat="46.27184" lon="4.67406">
        <ele>697</ele>
        <time>2022-06-25T13:22:25Z</time>
      </trkpt>
      <trkpt lat="46.27182" lon="4.67403">
        <ele>697</ele>
        <time>2022-06-25T13:22:26Z</time>
      </trkpt>
      <trkpt lat="46.27179" lon="4.67401">
        <ele>697.4</ele>
        <time>2022-06-25T13:22:27Z</time>
      </trkpt>
      <trkpt lat="46.27176" lon="4.67398">
        <ele>697.4</ele>
        <time>2022-06-25T13:22:28Z</time>
      </trkpt>
      <trkpt lat="46.27173" lon="4.67396">
        <ele>697.6</ele>
        <time>2022-06-25T13:22:29Z</time>
      </trkpt>
      <trkpt lat="46.2717" lon="4.67394">
        <ele>697.6</ele>
        <time>2022-06-25T13:22:30Z</time>
      </trkpt>
      <trkpt lat="46.27168" lon="4.67391">
        <ele>698</ele>
        <time>2022-06-25T13:22:31Z</time>
      </trkpt>
      <trkpt lat="46.27165" lon="4.67389">
        <ele>698</ele>
        <time>2022-06-25T13:22:32Z</time>
      </trkpt>
      <trkpt lat="46.27162" lon="4.67385">
        <ele>698.2</ele>
        <time>2022-06-25T13:22:33Z</time>
      </trkpt>
      <trkpt lat="46.27159" lon="4.67382">
        <ele>698.2</ele>
        <time>2022-06-25T13:22:34Z</time>
      </trkpt>
      <trkpt lat="46.27156" lon="4.67379">
        <ele>698.4</ele>
        <time>2022-06-25T13:22:35Z</time>
      </trkpt>
      <trkpt lat="46.27154" lon="4.67377">
        <ele>698.4</ele>
        <time>2022-06-25T13:22:36Z</time>
      </trkpt>
      <trkpt lat="46.27151" lon="4.67374">
        <ele>698.8</ele>
        <time>2022-06-25T13:22:37Z</time>
      </trkpt>
      <trkpt lat="46.27148" lon="4.67371">
        <ele>698.8</ele>
        <time>2022-06-25T13:22:38Z</time>
      </trkpt>
      <trkpt lat="46.27146" lon="4.67368">
        <ele>699</ele>
        <time>2022-06-25T13:22:39Z</time>
      </trkpt>
      <trkpt lat="46.27143" lon="4.67366">
        <ele>699</ele>
        <time>2022-06-25T13:22:40Z</time>
      </trkpt>
      <trkpt lat="46.2714" lon="4.67363">
        <ele>699.4</ele>
        <time>2022-06-25T13:22:41Z</time>
      </trkpt>
      <trkpt lat="46.27137" lon="4.67361">
        <ele>699.4</ele>
        <time>2022-06-25T13:22:42Z</time>
      </trkpt>
      <trkpt lat="46.27134" lon="4.67359">
        <ele>699.6</ele>
        <time>2022-06-25T13:22:43Z</time>
      </trkpt>
      <trkpt lat="46.27131" lon="4.67357">
        <ele>699.6</ele>
        <time>2022-06-25T13:22:44Z</time>
      </trkpt>
      <trkpt lat="46.27128" lon="4.67356">
        <ele>700</ele>
        <time>2022-06-25T13:22:45Z</time>
      </trkpt>
      <trkpt lat="46.27126" lon="4.67354">
        <ele>700</ele>
        <time>2022-06-25T13:22:46Z</time>
      </trkpt>
      <trkpt lat="46.27123" lon="4.67352">
        <ele>700.2</ele>
        <time>2022-06-25T13:22:47Z</time>
      </trkpt>
      <trkpt lat="46.2712" lon="4.6735">
        <ele>700.2</ele>
        <time>2022-06-25T13:22:48Z</time>
      </trkpt>
      <trkpt lat="46.27117" lon="4.67349">
        <ele>700.4</ele>
        <time>2022-06-25T13:22:49Z</time>
      </trkpt>
      <trkpt lat="46.27114" lon="4.67348">
        <ele>700.4</ele>
        <time>2022-06-25T13:22:50Z</time>
      </trkpt>
      <trkpt lat="46.27111" lon="4.67346">
        <ele>700.8</ele>
        <time>2022-06-25T13:22:51Z</time>
      </trkpt>
      <trkpt lat="46.27108" lon="4.67345">
        <ele>700.8</ele>
        <time>2022-06-25T13:22:52Z</time>
      </trkpt>
      <trkpt lat="46.27105" lon="4.67344">
        <ele>701.2</ele>
        <time>2022-06-25T13:22:53Z</time>
      </trkpt>
      <trkpt lat="46.27102" lon="4.67343">
        <ele>701.4</ele>
        <time>2022-06-25T13:22:54Z</time>
      </trkpt>
      <trkpt lat="46.27099" lon="4.67342">
        <ele>701.4</ele>
        <time>2022-06-25T13:22:55Z</time>
      </trkpt>
      <trkpt lat="46.27096" lon="4.67341">
        <ele>701.8</ele>
        <time>2022-06-25T13:22:56Z</time>
      </trkpt>
      <trkpt lat="46.27093" lon="4.6734">
        <ele>701.8</ele>
        <time>2022-06-25T13:22:57Z</time>
      </trkpt>
      <trkpt lat="46.2709" lon="4.67339">
        <ele>702.2</ele>
        <time>2022-06-25T13:22:58Z</time>
      </trkpt>
      <trkpt lat="46.27088" lon="4.67338">
        <ele>702.2</ele>
        <time>2022-06-25T13:22:59Z</time>
      </trkpt>
      <trkpt lat="46.27085" lon="4.67336">
        <ele>702.4</ele>
        <time>2022-06-25T13:23:00Z</time>
      </trkpt>
      <trkpt lat="46.27082" lon="4.67335">
        <ele>702.8</ele>
        <time>2022-06-25T13:23:01Z</time>
      </trkpt>
      <trkpt lat="46.27079" lon="4.67334">
        <ele>702.8</ele>
        <time>2022-06-25T13:23:02Z</time>
      </trkpt>
      <trkpt lat="46.27076" lon="4.67332">
        <ele>703</ele>
        <time>2022-06-25T13:23:03Z</time>
      </trkpt>
      <trkpt lat="46.27074" lon="4.6733">
        <ele>703</ele>
        <time>2022-06-25T13:23:04Z</time>
      </trkpt>
      <trkpt lat="46.27071" lon="4.67329">
        <ele>703</ele>
        <time>2022-06-25T13:23:05Z</time>
      </trkpt>
      <trkpt lat="46.27068" lon="4.67327">
        <ele>703.2</ele>
        <time>2022-06-25T13:23:06Z</time>
      </trkpt>
      <trkpt lat="46.27065" lon="4.67325">
        <ele>703.2</ele>
        <time>2022-06-25T13:23:07Z</time>
      </trkpt>
      <trkpt lat="46.27062" lon="4.67323">
        <ele>703.2</ele>
        <time>2022-06-25T13:23:08Z</time>
      </trkpt>
      <trkpt lat="46.27059" lon="4.67321">
        <ele>703.6</ele>
        <time>2022-06-25T13:23:09Z</time>
      </trkpt>
      <trkpt lat="46.27056" lon="4.67319">
        <ele>703.6</ele>
        <time>2022-06-25T13:23:10Z</time>
      </trkpt>
      <trkpt lat="46.27053" lon="4.67316">
        <ele>703.6</ele>
        <time>2022-06-25T13:23:11Z</time>
      </trkpt>
      <trkpt lat="46.2705" lon="4.67314">
        <ele>704</ele>
        <time>2022-06-25T13:23:12Z</time>
      </trkpt>
      <trkpt lat="46.27046" lon="4.67312">
        <ele>704</ele>
        <time>2022-06-25T13:23:13Z</time>
      </trkpt>
      <trkpt lat="46.27043" lon="4.6731">
        <ele>704.2</ele>
        <time>2022-06-25T13:23:14Z</time>
      </trkpt>
      <trkpt lat="46.2704" lon="4.67308">
        <ele>704.2</ele>
        <time>2022-06-25T13:23:15Z</time>
      </trkpt>
      <trkpt lat="46.27037" lon="4.67306">
        <ele>704.6</ele>
        <time>2022-06-25T13:23:16Z</time>
      </trkpt>
      <trkpt lat="46.27033" lon="4.67304">
        <ele>704.6</ele>
        <time>2022-06-25T13:23:17Z</time>
      </trkpt>
      <trkpt lat="46.2703" lon="4.67302">
        <ele>704.8</ele>
        <time>2022-06-25T13:23:18Z</time>
      </trkpt>
      <trkpt lat="46.27027" lon="4.67299">
        <ele>704.8</ele>
        <time>2022-06-25T13:23:19Z</time>
      </trkpt>
      <trkpt lat="46.27024" lon="4.67297">
        <ele>705.2</ele>
        <time>2022-06-25T13:23:20Z</time>
      </trkpt>
      <trkpt lat="46.2702" lon="4.67295">
        <ele>705.2</ele>
        <time>2022-06-25T13:23:21Z</time>
      </trkpt>
      <trkpt lat="46.27017" lon="4.67293">
        <ele>705.2</ele>
        <time>2022-06-25T13:23:22Z</time>
      </trkpt>
      <trkpt lat="46.27013" lon="4.67292">
        <ele>705.4</ele>
        <time>2022-06-25T13:23:23Z</time>
      </trkpt>
      <trkpt lat="46.2701" lon="4.6729">
        <ele>705.4</ele>
        <time>2022-06-25T13:23:24Z</time>
      </trkpt>
      <trkpt lat="46.27006" lon="4.67289">
        <ele>705.6</ele>
        <time>2022-06-25T13:23:25Z</time>
      </trkpt>
      <trkpt lat="46.27002" lon="4.67287">
        <ele>705.6</ele>
        <time>2022-06-25T13:23:26Z</time>
      </trkpt>
      <trkpt lat="46.26999" lon="4.67286">
        <ele>706</ele>
        <time>2022-06-25T13:23:27Z</time>
      </trkpt>
      <trkpt lat="46.26995" lon="4.67284">
        <ele>706</ele>
        <time>2022-06-25T13:23:28Z</time>
      </trkpt>
      <trkpt lat="46.26992" lon="4.67282">
        <ele>706</ele>
        <time>2022-06-25T13:23:29Z</time>
      </trkpt>
      <trkpt lat="46.26988" lon="4.67281">
        <ele>706.2</ele>
        <time>2022-06-25T13:23:30Z</time>
      </trkpt>
      <trkpt lat="46.26984" lon="4.6728">
        <ele>706.2</ele>
        <time>2022-06-25T13:23:31Z</time>
      </trkpt>
      <trkpt lat="46.2698" lon="4.67279">
        <ele>706.2</ele>
        <time>2022-06-25T13:23:32Z</time>
      </trkpt>
      <trkpt lat="46.26977" lon="4.67278">
        <ele>706.2</ele>
        <time>2022-06-25T13:23:33Z</time>
      </trkpt>
      <trkpt lat="46.26973" lon="4.67277">
        <ele>706.2</ele>
        <time>2022-06-25T13:23:34Z</time>
      </trkpt>
      <trkpt lat="46.26969" lon="4.67276">
        <ele>706.2</ele>
        <time>2022-06-25T13:23:35Z</time>
      </trkpt>
      <trkpt lat="46.26965" lon="4.67275">
        <ele>706.2</ele>
        <time>2022-06-25T13:23:36Z</time>
      </trkpt>
      <trkpt lat="46.2696" lon="4.67275">
        <ele>706.2</ele>
        <time>2022-06-25T13:23:37Z</time>
      </trkpt>
      <trkpt lat="46.26956" lon="4.67273">
        <ele>706.2</ele>
        <time>2022-06-25T13:23:38Z</time>
      </trkpt>
      <trkpt lat="46.26951" lon="4.67271">
        <ele>706</ele>
        <time>2022-06-25T13:23:39Z</time>
      </trkpt>
      <trkpt lat="46.26947" lon="4.67269">
        <ele>706</ele>
        <time>2022-06-25T13:23:40Z</time>
      </trkpt>
      <trkpt lat="46.26941" lon="4.67268">
        <ele>705.8</ele>
        <time>2022-06-25T13:23:41Z</time>
      </trkpt>
      <trkpt lat="46.26936" lon="4.67266">
        <ele>705.8</ele>
        <time>2022-06-25T13:23:42Z</time>
      </trkpt>
      <trkpt lat="46.2693" lon="4.67263">
        <ele>705.4</ele>
        <time>2022-06-25T13:23:43Z</time>
      </trkpt>
      <trkpt lat="46.26925" lon="4.67261">
        <ele>705.2</ele>
        <time>2022-06-25T13:23:44Z</time>
      </trkpt>
      <trkpt lat="46.26918" lon="4.67258">
        <ele>705.2</ele>
        <time>2022-06-25T13:23:45Z</time>
      </trkpt>
      <trkpt lat="46.26912" lon="4.67255">
        <ele>704.8</ele>
        <time>2022-06-25T13:23:46Z</time>
      </trkpt>
      <trkpt lat="46.26905" lon="4.67251">
        <ele>704.8</ele>
        <time>2022-06-25T13:23:47Z</time>
      </trkpt>
      <trkpt lat="46.26899" lon="4.67247">
        <ele>704.4</ele>
        <time>2022-06-25T13:23:48Z</time>
      </trkpt>
      <trkpt lat="46.26892" lon="4.67243">
        <ele>704.4</ele>
        <time>2022-06-25T13:23:49Z</time>
      </trkpt>
      <trkpt lat="46.26885" lon="4.67239">
        <ele>704.2</ele>
        <time>2022-06-25T13:23:50Z</time>
      </trkpt>
      <trkpt lat="46.26879" lon="4.67234">
        <ele>704.2</ele>
        <time>2022-06-25T13:23:51Z</time>
      </trkpt>
      <trkpt lat="46.26872" lon="4.67229">
        <ele>703.6</ele>
        <time>2022-06-25T13:23:52Z</time>
      </trkpt>
      <trkpt lat="46.26865" lon="4.67224">
        <ele>703.2</ele>
        <time>2022-06-25T13:23:53Z</time>
      </trkpt>
      <trkpt lat="46.26858" lon="4.6722">
        <ele>703</ele>
        <time>2022-06-25T13:23:54Z</time>
      </trkpt>
      <trkpt lat="46.26851" lon="4.67215">
        <ele>702.6</ele>
        <time>2022-06-25T13:23:55Z</time>
      </trkpt>
      <trkpt lat="46.26844" lon="4.6721">
        <ele>702.4</ele>
        <time>2022-06-25T13:23:56Z</time>
      </trkpt>
      <trkpt lat="46.26837" lon="4.67204">
        <ele>702</ele>
        <time>2022-06-25T13:23:57Z</time>
      </trkpt>
      <trkpt lat="46.2683" lon="4.67199">
        <ele>701.6</ele>
        <time>2022-06-25T13:23:58Z</time>
      </trkpt>
      <trkpt lat="46.26822" lon="4.67193">
        <ele>701.2</ele>
        <time>2022-06-25T13:23:59Z</time>
      </trkpt>
      <trkpt lat="46.26815" lon="4.67187">
        <ele>700.6</ele>
        <time>2022-06-25T13:24:00Z</time>
      </trkpt>
      <trkpt lat="46.26807" lon="4.67181">
        <ele>700</ele>
        <time>2022-06-25T13:24:01Z</time>
      </trkpt>
      <trkpt lat="46.26798" lon="4.67175">
        <ele>699.6</ele>
        <time>2022-06-25T13:24:02Z</time>
      </trkpt>
      <trkpt lat="46.26789" lon="4.6717">
        <ele>699.2</ele>
        <time>2022-06-25T13:24:03Z</time>
      </trkpt>
      <trkpt lat="46.26779" lon="4.67164">
        <ele>698.8</ele>
        <time>2022-06-25T13:24:04Z</time>
      </trkpt>
      <trkpt lat="46.2677" lon="4.67157">
        <ele>698.2</ele>
        <time>2022-06-25T13:24:05Z</time>
      </trkpt>
      <trkpt lat="46.2676" lon="4.67151">
        <ele>697.6</ele>
        <time>2022-06-25T13:24:06Z</time>
      </trkpt>
      <trkpt lat="46.26752" lon="4.67146">
        <ele>697</ele>
        <time>2022-06-25T13:24:07Z</time>
      </trkpt>
      <trkpt lat="46.26743" lon="4.67144">
        <ele>696.4</ele>
        <time>2022-06-25T13:24:08Z</time>
      </trkpt>
      <trkpt lat="46.26733" lon="4.67141">
        <ele>696</ele>
        <time>2022-06-25T13:24:09Z</time>
      </trkpt>
      <trkpt lat="46.26722" lon="4.67138">
        <ele>695.4</ele>
        <time>2022-06-25T13:24:10Z</time>
      </trkpt>
      <trkpt lat="46.26712" lon="4.67135">
        <ele>694.6</ele>
        <time>2022-06-25T13:24:11Z</time>
      </trkpt>
      <trkpt lat="46.26701" lon="4.67132">
        <ele>693.8</ele>
        <time>2022-06-25T13:24:12Z</time>
      </trkpt>
      <trkpt lat="46.2669" lon="4.6713">
        <ele>693</ele>
        <time>2022-06-25T13:24:13Z</time>
      </trkpt>
      <trkpt lat="46.26679" lon="4.67129">
        <ele>692.2</ele>
        <time>2022-06-25T13:24:14Z</time>
      </trkpt>
      <trkpt lat="46.26668" lon="4.67128">
        <ele>691.6</ele>
        <time>2022-06-25T13:24:15Z</time>
      </trkpt>
      <trkpt lat="46.26657" lon="4.67127">
        <ele>690.8</ele>
        <time>2022-06-25T13:24:16Z</time>
      </trkpt>
      <trkpt lat="46.26646" lon="4.67126">
        <ele>690.2</ele>
        <time>2022-06-25T13:24:17Z</time>
      </trkpt>
      <trkpt lat="46.26635" lon="4.67124">
        <ele>689.4</ele>
        <time>2022-06-25T13:24:18Z</time>
      </trkpt>
      <trkpt lat="46.26626" lon="4.67121">
        <ele>688.6</ele>
        <time>2022-06-25T13:24:19Z</time>
      </trkpt>
      <trkpt lat="46.26616" lon="4.67118">
        <ele>687.8</ele>
        <time>2022-06-25T13:24:20Z</time>
      </trkpt>
      <trkpt lat="46.26609" lon="4.67114">
        <ele>687</ele>
        <time>2022-06-25T13:24:21Z</time>
      </trkpt>
      <trkpt lat="46.26602" lon="4.67108">
        <ele>686.4</ele>
        <time>2022-06-25T13:24:22Z</time>
      </trkpt>
      <trkpt lat="46.26595" lon="4.671">
        <ele>685.6</ele>
        <time>2022-06-25T13:24:23Z</time>
      </trkpt>
      <trkpt lat="46.26589" lon="4.67092">
        <ele>684.8</ele>
        <time>2022-06-25T13:24:24Z</time>
      </trkpt>
      <trkpt lat="46.26583" lon="4.67083">
        <ele>684.2</ele>
        <time>2022-06-25T13:24:25Z</time>
      </trkpt>
      <trkpt lat="46.26579" lon="4.67073">
        <ele>683.6</ele>
        <time>2022-06-25T13:24:26Z</time>
      </trkpt>
      <trkpt lat="46.26575" lon="4.67062">
        <ele>683</ele>
        <time>2022-06-25T13:24:27Z</time>
      </trkpt>
      <trkpt lat="46.26571" lon="4.67051">
        <ele>682.2</ele>
        <time>2022-06-25T13:24:28Z</time>
      </trkpt>
      <trkpt lat="46.26568" lon="4.67039">
        <ele>681.4</ele>
        <time>2022-06-25T13:24:29Z</time>
      </trkpt>
      <trkpt lat="46.26564" lon="4.67028">
        <ele>680.8</ele>
        <time>2022-06-25T13:24:30Z</time>
      </trkpt>
      <trkpt lat="46.2656" lon="4.67016">
        <ele>680.2</ele>
        <time>2022-06-25T13:24:31Z</time>
      </trkpt>
      <trkpt lat="46.26556" lon="4.67003">
        <ele>679.4</ele>
        <time>2022-06-25T13:24:32Z</time>
      </trkpt>
      <trkpt lat="46.2655" lon="4.66989">
        <ele>678.6</ele>
        <time>2022-06-25T13:24:33Z</time>
      </trkpt>
      <trkpt lat="46.26544" lon="4.66976">
        <ele>678</ele>
        <time>2022-06-25T13:24:34Z</time>
      </trkpt>
      <trkpt lat="46.26537" lon="4.66963">
        <ele>677.4</ele>
        <time>2022-06-25T13:24:35Z</time>
      </trkpt>
      <trkpt lat="46.2653" lon="4.66949">
        <ele>676.8</ele>
        <time>2022-06-25T13:24:36Z</time>
      </trkpt>
      <trkpt lat="46.26523" lon="4.66936">
        <ele>676.2</ele>
        <time>2022-06-25T13:24:37Z</time>
      </trkpt>
      <trkpt lat="46.26517" lon="4.66923">
        <ele>675.4</ele>
        <time>2022-06-25T13:24:38Z</time>
      </trkpt>
      <trkpt lat="46.2651" lon="4.6691">
        <ele>674.8</ele>
        <time>2022-06-25T13:24:39Z</time>
      </trkpt>
      <trkpt lat="46.26504" lon="4.66898">
        <ele>674</ele>
        <time>2022-06-25T13:24:40Z</time>
      </trkpt>
      <trkpt lat="46.26498" lon="4.66888">
        <ele>673.2</ele>
        <time>2022-06-25T13:24:41Z</time>
      </trkpt>
      <trkpt lat="46.26491" lon="4.6688">
        <ele>672.6</ele>
        <time>2022-06-25T13:24:42Z</time>
      </trkpt>
      <trkpt lat="46.26487" lon="4.66872">
        <ele>672</ele>
        <time>2022-06-25T13:24:43Z</time>
      </trkpt>
      <trkpt lat="46.26483" lon="4.66866">
        <ele>671.4</ele>
        <time>2022-06-25T13:24:44Z</time>
      </trkpt>
      <trkpt lat="46.2648" lon="4.66859">
        <ele>671</ele>
        <time>2022-06-25T13:24:45Z</time>
      </trkpt>
      <trkpt lat="46.26476" lon="4.66851">
        <ele>670.4</ele>
        <time>2022-06-25T13:24:46Z</time>
      </trkpt>
      <trkpt lat="46.26471" lon="4.66843">
        <ele>670</ele>
        <time>2022-06-25T13:24:47Z</time>
      </trkpt>
      <trkpt lat="46.26468" lon="4.66833">
        <ele>669.6</ele>
        <time>2022-06-25T13:24:48Z</time>
      </trkpt>
      <trkpt lat="46.26465" lon="4.66823">
        <ele>669.2</ele>
        <time>2022-06-25T13:24:49Z</time>
      </trkpt>
      <trkpt lat="46.26463" lon="4.66812">
        <ele>668.8</ele>
        <time>2022-06-25T13:24:50Z</time>
      </trkpt>
      <trkpt lat="46.26461" lon="4.66801">
        <ele>668.6</ele>
        <time>2022-06-25T13:24:51Z</time>
      </trkpt>
      <trkpt lat="46.26459" lon="4.6679">
        <ele>668.4</ele>
        <time>2022-06-25T13:24:52Z</time>
      </trkpt>
      <trkpt lat="46.26457" lon="4.66779">
        <ele>668</ele>
        <time>2022-06-25T13:24:53Z</time>
      </trkpt>
      <trkpt lat="46.26456" lon="4.66767">
        <ele>667.8</ele>
        <time>2022-06-25T13:24:54Z</time>
      </trkpt>
      <trkpt lat="46.26455" lon="4.66754">
        <ele>667.2</ele>
        <time>2022-06-25T13:24:55Z</time>
      </trkpt>
      <trkpt lat="46.26453" lon="4.66742">
        <ele>666.8</ele>
        <time>2022-06-25T13:24:56Z</time>
      </trkpt>
      <trkpt lat="46.26452" lon="4.66729">
        <ele>666.2</ele>
        <time>2022-06-25T13:24:57Z</time>
      </trkpt>
      <trkpt lat="46.26451" lon="4.66718">
        <ele>665.8</ele>
        <time>2022-06-25T13:24:58Z</time>
      </trkpt>
      <trkpt lat="46.26449" lon="4.66707">
        <ele>665.2</ele>
        <time>2022-06-25T13:24:59Z</time>
      </trkpt>
      <trkpt lat="46.26448" lon="4.66697">
        <ele>664.6</ele>
        <time>2022-06-25T13:25:00Z</time>
      </trkpt>
      <trkpt lat="46.26444" lon="4.66687">
        <ele>664</ele>
        <time>2022-06-25T13:25:01Z</time>
      </trkpt>
      <trkpt lat="46.2644" lon="4.66677">
        <ele>663.6</ele>
        <time>2022-06-25T13:25:02Z</time>
      </trkpt>
      <trkpt lat="46.26434" lon="4.66669">
        <ele>663</ele>
        <time>2022-06-25T13:25:03Z</time>
      </trkpt>
      <trkpt lat="46.26428" lon="4.6666">
        <ele>662.4</ele>
        <time>2022-06-25T13:25:04Z</time>
      </trkpt>
      <trkpt lat="46.26421" lon="4.66652">
        <ele>661.8</ele>
        <time>2022-06-25T13:25:05Z</time>
      </trkpt>
      <trkpt lat="46.26413" lon="4.66645">
        <ele>661.4</ele>
        <time>2022-06-25T13:25:06Z</time>
      </trkpt>
      <trkpt lat="46.26407" lon="4.66637">
        <ele>660.8</ele>
        <time>2022-06-25T13:25:07Z</time>
      </trkpt>
      <trkpt lat="46.26399" lon="4.66629">
        <ele>660.2</ele>
        <time>2022-06-25T13:25:08Z</time>
      </trkpt>
      <trkpt lat="46.26391" lon="4.66621">
        <ele>659.6</ele>
        <time>2022-06-25T13:25:09Z</time>
      </trkpt>
      <trkpt lat="46.26382" lon="4.66614">
        <ele>659.2</ele>
        <time>2022-06-25T13:25:10Z</time>
      </trkpt>
      <trkpt lat="46.26373" lon="4.66607">
        <ele>658.6</ele>
        <time>2022-06-25T13:25:11Z</time>
      </trkpt>
      <trkpt lat="46.26362" lon="4.66599">
        <ele>658</ele>
        <time>2022-06-25T13:25:12Z</time>
      </trkpt>
      <trkpt lat="46.26352" lon="4.6659">
        <ele>657.4</ele>
        <time>2022-06-25T13:25:13Z</time>
      </trkpt>
      <trkpt lat="46.26343" lon="4.66581">
        <ele>656.8</ele>
        <time>2022-06-25T13:25:14Z</time>
      </trkpt>
      <trkpt lat="46.26334" lon="4.66572">
        <ele>656.2</ele>
        <time>2022-06-25T13:25:15Z</time>
      </trkpt>
      <trkpt lat="46.26324" lon="4.66562">
        <ele>655.4</ele>
        <time>2022-06-25T13:25:16Z</time>
      </trkpt>
      <trkpt lat="46.26318" lon="4.66551">
        <ele>654.8</ele>
        <time>2022-06-25T13:25:17Z</time>
      </trkpt>
      <trkpt lat="46.26312" lon="4.66538">
        <ele>654</ele>
        <time>2022-06-25T13:25:18Z</time>
      </trkpt>
      <trkpt lat="46.26306" lon="4.66525">
        <ele>653.2</ele>
        <time>2022-06-25T13:25:19Z</time>
      </trkpt>
      <trkpt lat="46.26301" lon="4.66511">
        <ele>652.6</ele>
        <time>2022-06-25T13:25:20Z</time>
      </trkpt>
      <trkpt lat="46.26295" lon="4.66497">
        <ele>651.8</ele>
        <time>2022-06-25T13:25:21Z</time>
      </trkpt>
      <trkpt lat="46.26287" lon="4.66483">
        <ele>651</ele>
        <time>2022-06-25T13:25:22Z</time>
      </trkpt>
      <trkpt lat="46.26279" lon="4.66468">
        <ele>650.2</ele>
        <time>2022-06-25T13:25:23Z</time>
      </trkpt>
      <trkpt lat="46.26272" lon="4.66455">
        <ele>649.2</ele>
        <time>2022-06-25T13:25:24Z</time>
      </trkpt>
      <trkpt lat="46.26267" lon="4.66442">
        <ele>648.4</ele>
        <time>2022-06-25T13:25:25Z</time>
      </trkpt>
      <trkpt lat="46.26262" lon="4.66429">
        <ele>647.6</ele>
        <time>2022-06-25T13:25:26Z</time>
      </trkpt>
      <trkpt lat="46.26258" lon="4.66416">
        <ele>646.8</ele>
        <time>2022-06-25T13:25:27Z</time>
      </trkpt>
      <trkpt lat="46.26254" lon="4.66406">
        <ele>646.2</ele>
        <time>2022-06-25T13:25:28Z</time>
      </trkpt>
      <trkpt lat="46.26251" lon="4.66397">
        <ele>645.4</ele>
        <time>2022-06-25T13:25:29Z</time>
      </trkpt>
      <trkpt lat="46.26248" lon="4.66389">
        <ele>644.8</ele>
        <time>2022-06-25T13:25:30Z</time>
      </trkpt>
      <trkpt lat="46.26246" lon="4.66382">
        <ele>644.2</ele>
        <time>2022-06-25T13:25:31Z</time>
      </trkpt>
      <trkpt lat="46.26244" lon="4.66376">
        <ele>643.8</ele>
        <time>2022-06-25T13:25:32Z</time>
      </trkpt>
      <trkpt lat="46.26242" lon="4.66371">
        <ele>643.2</ele>
        <time>2022-06-25T13:25:33Z</time>
      </trkpt>
      <trkpt lat="46.26241" lon="4.66368">
        <ele>643</ele>
        <time>2022-06-25T13:25:34Z</time>
      </trkpt>
      <trkpt lat="46.26239" lon="4.66364">
        <ele>642.6</ele>
        <time>2022-06-25T13:25:35Z</time>
      </trkpt>
      <trkpt lat="46.26238" lon="4.66361">
        <ele>642.4</ele>
        <time>2022-06-25T13:25:36Z</time>
      </trkpt>
      <trkpt lat="46.26237" lon="4.66358">
        <ele>642</ele>
        <time>2022-06-25T13:25:37Z</time>
      </trkpt>
      <trkpt lat="46.26236" lon="4.66357">
        <ele>641.8</ele>
        <time>2022-06-25T13:25:38Z</time>
      </trkpt>
      <trkpt lat="46.26234" lon="4.66354">
        <ele>641</ele>
        <time>2022-06-25T13:26:26Z</time>
      </trkpt>
      <trkpt lat="46.26232" lon="4.66352">
        <ele>640.8</ele>
        <time>2022-06-25T13:26:27Z</time>
      </trkpt>
      <trkpt lat="46.26231" lon="4.66349">
        <ele>640.8</ele>
        <time>2022-06-25T13:26:28Z</time>
      </trkpt>
      <trkpt lat="46.26229" lon="4.66345">
        <ele>640.8</ele>
        <time>2022-06-25T13:26:29Z</time>
      </trkpt>
      <trkpt lat="46.26227" lon="4.66341">
        <ele>640.6</ele>
        <time>2022-06-25T13:26:30Z</time>
      </trkpt>
      <trkpt lat="46.26225" lon="4.66337">
        <ele>640.6</ele>
        <time>2022-06-25T13:26:31Z</time>
      </trkpt>
      <trkpt lat="46.26222" lon="4.66332">
        <ele>640.4</ele>
        <time>2022-06-25T13:26:32Z</time>
      </trkpt>
      <trkpt lat="46.26219" lon="4.66327">
        <ele>640.4</ele>
        <time>2022-06-25T13:26:33Z</time>
      </trkpt>
      <trkpt lat="46.26215" lon="4.66322">
        <ele>640</ele>
        <time>2022-06-25T13:26:34Z</time>
      </trkpt>
      <trkpt lat="46.26212" lon="4.66316">
        <ele>639.8</ele>
        <time>2022-06-25T13:26:35Z</time>
      </trkpt>
      <trkpt lat="46.26208" lon="4.6631">
        <ele>639.6</ele>
        <time>2022-06-25T13:26:36Z</time>
      </trkpt>
      <trkpt lat="46.26203" lon="4.66303">
        <ele>639.6</ele>
        <time>2022-06-25T13:26:37Z</time>
      </trkpt>
      <trkpt lat="46.26199" lon="4.66295">
        <ele>638.6</ele>
        <time>2022-06-25T13:26:39Z</time>
      </trkpt>
      <trkpt lat="46.26195" lon="4.66286">
        <ele>638.2</ele>
        <time>2022-06-25T13:26:40Z</time>
      </trkpt>
      <trkpt lat="46.26191" lon="4.66276">
        <ele>637.8</ele>
        <time>2022-06-25T13:26:41Z</time>
      </trkpt>
      <trkpt lat="46.26188" lon="4.66266">
        <ele>637.4</ele>
        <time>2022-06-25T13:26:42Z</time>
      </trkpt>
      <trkpt lat="46.26184" lon="4.66254">
        <ele>637</ele>
        <time>2022-06-25T13:26:43Z</time>
      </trkpt>
      <trkpt lat="46.26182" lon="4.66242">
        <ele>636.6</ele>
        <time>2022-06-25T13:26:44Z</time>
      </trkpt>
      <trkpt lat="46.26181" lon="4.66229">
        <ele>636.2</ele>
        <time>2022-06-25T13:26:45Z</time>
      </trkpt>
      <trkpt lat="46.2618" lon="4.66216">
        <ele>636</ele>
        <time>2022-06-25T13:26:46Z</time>
      </trkpt>
      <trkpt lat="46.2618" lon="4.66202">
        <ele>635.8</ele>
        <time>2022-06-25T13:26:47Z</time>
      </trkpt>
      <trkpt lat="46.2618" lon="4.66187">
        <ele>635.4</ele>
        <time>2022-06-25T13:26:48Z</time>
      </trkpt>
      <trkpt lat="46.2618" lon="4.66173">
        <ele>635.4</ele>
        <time>2022-06-25T13:26:49Z</time>
      </trkpt>
      <trkpt lat="46.2618" lon="4.66158">
        <ele>635</ele>
        <time>2022-06-25T13:26:50Z</time>
      </trkpt>
      <trkpt lat="46.2618" lon="4.66145">
        <ele>634.6</ele>
        <time>2022-06-25T13:26:51Z</time>
      </trkpt>
      <trkpt lat="46.26178" lon="4.66133">
        <ele>634.2</ele>
        <time>2022-06-25T13:26:52Z</time>
      </trkpt>
      <trkpt lat="46.26176" lon="4.66122">
        <ele>633.8</ele>
        <time>2022-06-25T13:26:53Z</time>
      </trkpt>
      <trkpt lat="46.26172" lon="4.6611">
        <ele>633.2</ele>
        <time>2022-06-25T13:26:54Z</time>
      </trkpt>
      <trkpt lat="46.26167" lon="4.66101">
        <ele>632.8</ele>
        <time>2022-06-25T13:26:55Z</time>
      </trkpt>
      <trkpt lat="46.26161" lon="4.66092">
        <ele>632.4</ele>
        <time>2022-06-25T13:26:56Z</time>
      </trkpt>
      <trkpt lat="46.26155" lon="4.66084">
        <ele>632</ele>
        <time>2022-06-25T13:26:57Z</time>
      </trkpt>
      <trkpt lat="46.26149" lon="4.66076">
        <ele>631.4</ele>
        <time>2022-06-25T13:26:58Z</time>
      </trkpt>
      <trkpt lat="46.26144" lon="4.66069">
        <ele>630.8</ele>
        <time>2022-06-25T13:26:59Z</time>
      </trkpt>
      <trkpt lat="46.26138" lon="4.66062">
        <ele>630.2</ele>
        <time>2022-06-25T13:27:00Z</time>
      </trkpt>
      <trkpt lat="46.26133" lon="4.66056">
        <ele>629.8</ele>
        <time>2022-06-25T13:27:01Z</time>
      </trkpt>
      <trkpt lat="46.26129" lon="4.6605">
        <ele>629.4</ele>
        <time>2022-06-25T13:27:02Z</time>
      </trkpt>
      <trkpt lat="46.26125" lon="4.66045">
        <ele>629</ele>
        <time>2022-06-25T13:27:03Z</time>
      </trkpt>
      <trkpt lat="46.26121" lon="4.66041">
        <ele>628.6</ele>
        <time>2022-06-25T13:27:04Z</time>
      </trkpt>
      <trkpt lat="46.26118" lon="4.66038">
        <ele>628.2</ele>
        <time>2022-06-25T13:27:05Z</time>
      </trkpt>
      <trkpt lat="46.26115" lon="4.66035">
        <ele>628</ele>
        <time>2022-06-25T13:27:06Z</time>
      </trkpt>
      <trkpt lat="46.26112" lon="4.66032">
        <ele>628</ele>
        <time>2022-06-25T13:27:07Z</time>
      </trkpt>
      <trkpt lat="46.2611" lon="4.66029">
        <ele>628</ele>
        <time>2022-06-25T13:27:08Z</time>
      </trkpt>
      <trkpt lat="46.26107" lon="4.66027">
        <ele>628</ele>
        <time>2022-06-25T13:27:09Z</time>
      </trkpt>
      <trkpt lat="46.26104" lon="4.66025">
        <ele>628</ele>
        <time>2022-06-25T13:27:10Z</time>
      </trkpt>
      <trkpt lat="46.26101" lon="4.66024">
        <ele>628.4</ele>
        <time>2022-06-25T13:27:11Z</time>
      </trkpt>
      <trkpt lat="46.26097" lon="4.66023">
        <ele>628.4</ele>
        <time>2022-06-25T13:27:12Z</time>
      </trkpt>
      <trkpt lat="46.26094" lon="4.66024">
        <ele>628.8</ele>
        <time>2022-06-25T13:27:13Z</time>
      </trkpt>
      <trkpt lat="46.2609" lon="4.66024">
        <ele>628.8</ele>
        <time>2022-06-25T13:27:14Z</time>
      </trkpt>
      <trkpt lat="46.26087" lon="4.66024">
        <ele>629</ele>
        <time>2022-06-25T13:27:15Z</time>
      </trkpt>
      <trkpt lat="46.26083" lon="4.66025">
        <ele>629</ele>
        <time>2022-06-25T13:27:16Z</time>
      </trkpt>
      <trkpt lat="46.2608" lon="4.66026">
        <ele>629</ele>
        <time>2022-06-25T13:27:17Z</time>
      </trkpt>
      <trkpt lat="46.26077" lon="4.66027">
        <ele>629</ele>
        <time>2022-06-25T13:27:18Z</time>
      </trkpt>
      <trkpt lat="46.26073" lon="4.66028">
        <ele>629</ele>
        <time>2022-06-25T13:27:19Z</time>
      </trkpt>
      <trkpt lat="46.2607" lon="4.66028">
        <ele>629</ele>
        <time>2022-06-25T13:27:20Z</time>
      </trkpt>
      <trkpt lat="46.26067" lon="4.66028">
        <ele>629</ele>
        <time>2022-06-25T13:27:21Z</time>
      </trkpt>
      <trkpt lat="46.26063" lon="4.66028">
        <ele>629</ele>
        <time>2022-06-25T13:27:22Z</time>
      </trkpt>
      <trkpt lat="46.2606" lon="4.66028">
        <ele>628.6</ele>
        <time>2022-06-25T13:27:23Z</time>
      </trkpt>
      <trkpt lat="46.26056" lon="4.66029">
        <ele>628.2</ele>
        <time>2022-06-25T13:27:24Z</time>
      </trkpt>
      <trkpt lat="46.26052" lon="4.6603">
        <ele>628</ele>
        <time>2022-06-25T13:27:25Z</time>
      </trkpt>
      <trkpt lat="46.26049" lon="4.66031">
        <ele>627.6</ele>
        <time>2022-06-25T13:27:26Z</time>
      </trkpt>
      <trkpt lat="46.26046" lon="4.66033">
        <ele>627.2</ele>
        <time>2022-06-25T13:27:27Z</time>
      </trkpt>
      <trkpt lat="46.26044" lon="4.66034">
        <ele>626.8</ele>
        <time>2022-06-25T13:27:28Z</time>
      </trkpt>
      <trkpt lat="46.26043" lon="4.66036">
        <ele>626.6</ele>
        <time>2022-06-25T13:27:29Z</time>
      </trkpt>
      <trkpt lat="46.26042" lon="4.66037">
        <ele>626.4</ele>
        <time>2022-06-25T13:27:30Z</time>
      </trkpt>
      <trkpt lat="46.26042" lon="4.66038">
        <ele>626.4</ele>
        <time>2022-06-25T13:27:32Z</time>
      </trkpt>
      <trkpt lat="46.26042" lon="4.66038">
        <ele>626.2</ele>
        <time>2022-06-25T13:27:53Z</time>
      </trkpt>
      <trkpt lat="46.26042" lon="4.66036">
        <ele>626.2</ele>
        <time>2022-06-25T13:28:37Z</time>
      </trkpt>
      <trkpt lat="46.26042" lon="4.66034">
        <ele>626.2</ele>
        <time>2022-06-25T13:28:39Z</time>
      </trkpt>
      <trkpt lat="46.26042" lon="4.66031">
        <ele>626.2</ele>
        <time>2022-06-25T13:28:40Z</time>
      </trkpt>
      <trkpt lat="46.2604" lon="4.66028">
        <ele>626.2</ele>
        <time>2022-06-25T13:28:41Z</time>
      </trkpt>
      <trkpt lat="46.26037" lon="4.66024">
        <ele>626</ele>
        <time>2022-06-25T13:28:42Z</time>
      </trkpt>
      <trkpt lat="46.26031" lon="4.66018">
        <ele>625.8</ele>
        <time>2022-06-25T13:28:43Z</time>
      </trkpt>
      <trkpt lat="46.26028" lon="4.66016">
        <ele>625.4</ele>
        <time>2022-06-25T13:28:44Z</time>
      </trkpt>
      <trkpt lat="46.26024" lon="4.66013">
        <ele>625.2</ele>
        <time>2022-06-25T13:28:45Z</time>
      </trkpt>
      <trkpt lat="46.26019" lon="4.66008">
        <ele>625</ele>
        <time>2022-06-25T13:28:46Z</time>
      </trkpt>
      <trkpt lat="46.26013" lon="4.66003">
        <ele>624.6</ele>
        <time>2022-06-25T13:28:47Z</time>
      </trkpt>
      <trkpt lat="46.26004" lon="4.65995">
        <ele>624.4</ele>
        <time>2022-06-25T13:28:48Z</time>
      </trkpt>
      <trkpt lat="46.26001" lon="4.65992">
        <ele>624.4</ele>
        <time>2022-06-25T13:28:49Z</time>
      </trkpt>
      <trkpt lat="46.25993" lon="4.65987">
        <ele>624</ele>
        <time>2022-06-25T13:28:50Z</time>
      </trkpt>
      <trkpt lat="46.25986" lon="4.65983">
        <ele>623.8</ele>
        <time>2022-06-25T13:28:51Z</time>
      </trkpt>
      <trkpt lat="46.25974" lon="4.65976">
        <ele>623.4</ele>
        <time>2022-06-25T13:28:52Z</time>
      </trkpt>
      <trkpt lat="46.2597" lon="4.65975">
        <ele>622.8</ele>
        <time>2022-06-25T13:28:53Z</time>
      </trkpt>
      <trkpt lat="46.25962" lon="4.65972">
        <ele>622.2</ele>
        <time>2022-06-25T13:28:54Z</time>
      </trkpt>
      <trkpt lat="46.25953" lon="4.65969">
        <ele>621.8</ele>
        <time>2022-06-25T13:28:55Z</time>
      </trkpt>
      <trkpt lat="46.25944" lon="4.65966">
        <ele>621.4</ele>
        <time>2022-06-25T13:28:56Z</time>
      </trkpt>
      <trkpt lat="46.25934" lon="4.65964">
        <ele>620.6</ele>
        <time>2022-06-25T13:28:57Z</time>
      </trkpt>
      <trkpt lat="46.25919" lon="4.65961">
        <ele>620</ele>
        <time>2022-06-25T13:28:58Z</time>
      </trkpt>
      <trkpt lat="46.25914" lon="4.65961">
        <ele>619.4</ele>
        <time>2022-06-25T13:28:59Z</time>
      </trkpt>
      <trkpt lat="46.259" lon="4.65959">
        <ele>618.8</ele>
        <time>2022-06-25T13:29:00Z</time>
      </trkpt>
      <trkpt lat="46.25895" lon="4.65959">
        <ele>618</ele>
        <time>2022-06-25T13:29:01Z</time>
      </trkpt>
      <trkpt lat="46.25885" lon="4.6596">
        <ele>617.4</ele>
        <time>2022-06-25T13:29:02Z</time>
      </trkpt>
      <trkpt lat="46.25874" lon="4.6596">
        <ele>616.8</ele>
        <time>2022-06-25T13:29:03Z</time>
      </trkpt>
      <trkpt lat="46.25864" lon="4.65961">
        <ele>616.2</ele>
        <time>2022-06-25T13:29:04Z</time>
      </trkpt>
      <trkpt lat="46.25853" lon="4.65962">
        <ele>615.6</ele>
        <time>2022-06-25T13:29:05Z</time>
      </trkpt>
      <trkpt lat="46.25838" lon="4.65963">
        <ele>615.2</ele>
        <time>2022-06-25T13:29:06Z</time>
      </trkpt>
      <trkpt lat="46.25832" lon="4.65963">
        <ele>614.6</ele>
        <time>2022-06-25T13:29:07Z</time>
      </trkpt>
      <trkpt lat="46.25822" lon="4.65964">
        <ele>613.8</ele>
        <time>2022-06-25T13:29:08Z</time>
      </trkpt>
      <trkpt lat="46.25811" lon="4.65966">
        <ele>613</ele>
        <time>2022-06-25T13:29:09Z</time>
      </trkpt>
      <trkpt lat="46.25795" lon="4.65969">
        <ele>612</ele>
        <time>2022-06-25T13:29:10Z</time>
      </trkpt>
      <trkpt lat="46.2579" lon="4.6597">
        <ele>611.2</ele>
        <time>2022-06-25T13:29:11Z</time>
      </trkpt>
      <trkpt lat="46.25779" lon="4.65972">
        <ele>610.4</ele>
        <time>2022-06-25T13:29:12Z</time>
      </trkpt>
      <trkpt lat="46.25769" lon="4.65976">
        <ele>609.4</ele>
        <time>2022-06-25T13:29:13Z</time>
      </trkpt>
      <trkpt lat="46.25759" lon="4.65983">
        <ele>608.6</ele>
        <time>2022-06-25T13:29:14Z</time>
      </trkpt>
      <trkpt lat="46.2575" lon="4.6599">
        <ele>607.8</ele>
        <time>2022-06-25T13:29:15Z</time>
      </trkpt>
      <trkpt lat="46.25737" lon="4.65997">
        <ele>607.2</ele>
        <time>2022-06-25T13:29:16Z</time>
      </trkpt>
      <trkpt lat="46.25732" lon="4.65998">
        <ele>606.4</ele>
        <time>2022-06-25T13:29:17Z</time>
      </trkpt>
      <trkpt lat="46.25723" lon="4.65999">
        <ele>605.8</ele>
        <time>2022-06-25T13:29:18Z</time>
      </trkpt>
      <trkpt lat="46.25715" lon="4.65993">
        <ele>605</ele>
        <time>2022-06-25T13:29:19Z</time>
      </trkpt>
      <trkpt lat="46.25707" lon="4.65987">
        <ele>604.2</ele>
        <time>2022-06-25T13:29:20Z</time>
      </trkpt>
      <trkpt lat="46.257" lon="4.65979">
        <ele>603.4</ele>
        <time>2022-06-25T13:29:21Z</time>
      </trkpt>
      <trkpt lat="46.25696" lon="4.65967">
        <ele>602.8</ele>
        <time>2022-06-25T13:29:22Z</time>
      </trkpt>
      <trkpt lat="46.25691" lon="4.65955">
        <ele>602.2</ele>
        <time>2022-06-25T13:29:23Z</time>
      </trkpt>
      <trkpt lat="46.25688" lon="4.65943">
        <ele>601.4</ele>
        <time>2022-06-25T13:29:24Z</time>
      </trkpt>
      <trkpt lat="46.25684" lon="4.65931">
        <ele>600.8</ele>
        <time>2022-06-25T13:29:25Z</time>
      </trkpt>
      <trkpt lat="46.2568" lon="4.6592">
        <ele>600.2</ele>
        <time>2022-06-25T13:29:26Z</time>
      </trkpt>
      <trkpt lat="46.25675" lon="4.6591">
        <ele>599.4</ele>
        <time>2022-06-25T13:29:27Z</time>
      </trkpt>
      <trkpt lat="46.2567" lon="4.65901">
        <ele>598.8</ele>
        <time>2022-06-25T13:29:28Z</time>
      </trkpt>
      <trkpt lat="46.25665" lon="4.65893">
        <ele>598.2</ele>
        <time>2022-06-25T13:29:29Z</time>
      </trkpt>
      <trkpt lat="46.25658" lon="4.65886">
        <ele>597.6</ele>
        <time>2022-06-25T13:29:30Z</time>
      </trkpt>
      <trkpt lat="46.25652" lon="4.65878">
        <ele>597</ele>
        <time>2022-06-25T13:29:31Z</time>
      </trkpt>
      <trkpt lat="46.25648" lon="4.65868">
        <ele>596.4</ele>
        <time>2022-06-25T13:29:32Z</time>
      </trkpt>
      <trkpt lat="46.25644" lon="4.65858">
        <ele>596.2</ele>
        <time>2022-06-25T13:29:33Z</time>
      </trkpt>
      <trkpt lat="46.25642" lon="4.65848">
        <ele>596.2</ele>
        <time>2022-06-25T13:29:34Z</time>
      </trkpt>
      <trkpt lat="46.25639" lon="4.65838">
        <ele>596.2</ele>
        <time>2022-06-25T13:29:35Z</time>
      </trkpt>
      <trkpt lat="46.25636" lon="4.65828">
        <ele>596.2</ele>
        <time>2022-06-25T13:29:36Z</time>
      </trkpt>
      <trkpt lat="46.25634" lon="4.65819">
        <ele>596.2</ele>
        <time>2022-06-25T13:29:37Z</time>
      </trkpt>
      <trkpt lat="46.25631" lon="4.65812">
        <ele>596.4</ele>
        <time>2022-06-25T13:29:38Z</time>
      </trkpt>
      <trkpt lat="46.25627" lon="4.65805">
        <ele>596.4</ele>
        <time>2022-06-25T13:29:39Z</time>
      </trkpt>
      <trkpt lat="46.25624" lon="4.658">
        <ele>596.8</ele>
        <time>2022-06-25T13:29:40Z</time>
      </trkpt>
      <trkpt lat="46.25621" lon="4.65794">
        <ele>596.8</ele>
        <time>2022-06-25T13:29:41Z</time>
      </trkpt>
      <trkpt lat="46.25618" lon="4.65789">
        <ele>597</ele>
        <time>2022-06-25T13:29:42Z</time>
      </trkpt>
      <trkpt lat="46.25615" lon="4.65785">
        <ele>597.2</ele>
        <time>2022-06-25T13:29:43Z</time>
      </trkpt>
      <trkpt lat="46.25611" lon="4.65781">
        <ele>597.2</ele>
        <time>2022-06-25T13:29:44Z</time>
      </trkpt>
      <trkpt lat="46.25607" lon="4.65776">
        <ele>597.6</ele>
        <time>2022-06-25T13:29:45Z</time>
      </trkpt>
      <trkpt lat="46.25603" lon="4.65772">
        <ele>598</ele>
        <time>2022-06-25T13:29:46Z</time>
      </trkpt>
      <trkpt lat="46.25598" lon="4.65768">
        <ele>598.2</ele>
        <time>2022-06-25T13:29:47Z</time>
      </trkpt>
      <trkpt lat="46.25594" lon="4.65765">
        <ele>598.4</ele>
        <time>2022-06-25T13:29:48Z</time>
      </trkpt>
      <trkpt lat="46.25588" lon="4.65763">
        <ele>598.8</ele>
        <time>2022-06-25T13:29:49Z</time>
      </trkpt>
      <trkpt lat="46.25583" lon="4.65762">
        <ele>599.2</ele>
        <time>2022-06-25T13:29:50Z</time>
      </trkpt>
      <trkpt lat="46.25578" lon="4.65761">
        <ele>599.4</ele>
        <time>2022-06-25T13:29:51Z</time>
      </trkpt>
      <trkpt lat="46.25573" lon="4.6576">
        <ele>599.8</ele>
        <time>2022-06-25T13:29:52Z</time>
      </trkpt>
      <trkpt lat="46.25569" lon="4.65759">
        <ele>600.2</ele>
        <time>2022-06-25T13:29:53Z</time>
      </trkpt>
      <trkpt lat="46.25564" lon="4.65757">
        <ele>600.6</ele>
        <time>2022-06-25T13:29:54Z</time>
      </trkpt>
      <trkpt lat="46.2556" lon="4.65755">
        <ele>600.8</ele>
        <time>2022-06-25T13:29:55Z</time>
      </trkpt>
      <trkpt lat="46.25556" lon="4.65752">
        <ele>601</ele>
        <time>2022-06-25T13:29:56Z</time>
      </trkpt>
      <trkpt lat="46.25552" lon="4.65748">
        <ele>601.4</ele>
        <time>2022-06-25T13:29:57Z</time>
      </trkpt>
      <trkpt lat="46.25548" lon="4.65744">
        <ele>601.6</ele>
        <time>2022-06-25T13:29:58Z</time>
      </trkpt>
      <trkpt lat="46.25544" lon="4.65739">
        <ele>602</ele>
        <time>2022-06-25T13:29:59Z</time>
      </trkpt>
      <trkpt lat="46.25541" lon="4.65734">
        <ele>602</ele>
        <time>2022-06-25T13:30:00Z</time>
      </trkpt>
      <trkpt lat="46.25537" lon="4.6573">
        <ele>602.4</ele>
        <time>2022-06-25T13:30:01Z</time>
      </trkpt>
      <trkpt lat="46.25533" lon="4.65725">
        <ele>602.4</ele>
        <time>2022-06-25T13:30:02Z</time>
      </trkpt>
      <trkpt lat="46.25529" lon="4.65721">
        <ele>602.8</ele>
        <time>2022-06-25T13:30:03Z</time>
      </trkpt>
      <trkpt lat="46.25525" lon="4.65718">
        <ele>602.8</ele>
        <time>2022-06-25T13:30:04Z</time>
      </trkpt>
      <trkpt lat="46.25521" lon="4.65716">
        <ele>603.2</ele>
        <time>2022-06-25T13:30:05Z</time>
      </trkpt>
      <trkpt lat="46.25517" lon="4.65714">
        <ele>603.4</ele>
        <time>2022-06-25T13:30:06Z</time>
      </trkpt>
      <trkpt lat="46.25514" lon="4.65713">
        <ele>603.6</ele>
        <time>2022-06-25T13:30:07Z</time>
      </trkpt>
      <trkpt lat="46.2551" lon="4.65711">
        <ele>604</ele>
        <time>2022-06-25T13:30:08Z</time>
      </trkpt>
      <trkpt lat="46.25507" lon="4.6571">
        <ele>604</ele>
        <time>2022-06-25T13:30:09Z</time>
      </trkpt>
      <trkpt lat="46.25503" lon="4.6571">
        <ele>604.2</ele>
        <time>2022-06-25T13:30:10Z</time>
      </trkpt>
      <trkpt lat="46.255" lon="4.65709">
        <ele>604.4</ele>
        <time>2022-06-25T13:30:11Z</time>
      </trkpt>
      <trkpt lat="46.25496" lon="4.65709">
        <ele>604.4</ele>
        <time>2022-06-25T13:30:12Z</time>
      </trkpt>
      <trkpt lat="46.25493" lon="4.6571">
        <ele>604.8</ele>
        <time>2022-06-25T13:30:13Z</time>
      </trkpt>
      <trkpt lat="46.25489" lon="4.65711">
        <ele>604.8</ele>
        <time>2022-06-25T13:30:14Z</time>
      </trkpt>
      <trkpt lat="46.25486" lon="4.65712">
        <ele>605</ele>
        <time>2022-06-25T13:30:15Z</time>
      </trkpt>
      <trkpt lat="46.25482" lon="4.65714">
        <ele>605.2</ele>
        <time>2022-06-25T13:30:16Z</time>
      </trkpt>
      <trkpt lat="46.25478" lon="4.65715">
        <ele>605.4</ele>
        <time>2022-06-25T13:30:17Z</time>
      </trkpt>
      <trkpt lat="46.25475" lon="4.65716">
        <ele>605.6</ele>
        <time>2022-06-25T13:30:18Z</time>
      </trkpt>
      <trkpt lat="46.25472" lon="4.65718">
        <ele>605.6</ele>
        <time>2022-06-25T13:30:19Z</time>
      </trkpt>
      <trkpt lat="46.25468" lon="4.65719">
        <ele>606</ele>
        <time>2022-06-25T13:30:20Z</time>
      </trkpt>
      <trkpt lat="46.25465" lon="4.65721">
        <ele>606</ele>
        <time>2022-06-25T13:30:21Z</time>
      </trkpt>
      <trkpt lat="46.25462" lon="4.65723">
        <ele>606.4</ele>
        <time>2022-06-25T13:30:22Z</time>
      </trkpt>
      <trkpt lat="46.25459" lon="4.65724">
        <ele>606.6</ele>
        <time>2022-06-25T13:30:23Z</time>
      </trkpt>
      <trkpt lat="46.25455" lon="4.65726">
        <ele>606.6</ele>
        <time>2022-06-25T13:30:24Z</time>
      </trkpt>
      <trkpt lat="46.25452" lon="4.65727">
        <ele>607</ele>
        <time>2022-06-25T13:30:25Z</time>
      </trkpt>
      <trkpt lat="46.25449" lon="4.65729">
        <ele>607.2</ele>
        <time>2022-06-25T13:30:26Z</time>
      </trkpt>
      <trkpt lat="46.25446" lon="4.6573">
        <ele>607.6</ele>
        <time>2022-06-25T13:30:27Z</time>
      </trkpt>
      <trkpt lat="46.25442" lon="4.65733">
        <ele>607.8</ele>
        <time>2022-06-25T13:30:28Z</time>
      </trkpt>
      <trkpt lat="46.25439" lon="4.65735">
        <ele>607.8</ele>
        <time>2022-06-25T13:30:29Z</time>
      </trkpt>
      <trkpt lat="46.25436" lon="4.65738">
        <ele>608.2</ele>
        <time>2022-06-25T13:30:30Z</time>
      </trkpt>
      <trkpt lat="46.25433" lon="4.65741">
        <ele>608.2</ele>
        <time>2022-06-25T13:30:31Z</time>
      </trkpt>
      <trkpt lat="46.2543" lon="4.65744">
        <ele>608.6</ele>
        <time>2022-06-25T13:30:32Z</time>
      </trkpt>
      <trkpt lat="46.25427" lon="4.65747">
        <ele>609</ele>
        <time>2022-06-25T13:30:33Z</time>
      </trkpt>
      <trkpt lat="46.25424" lon="4.6575">
        <ele>609.2</ele>
        <time>2022-06-25T13:30:34Z</time>
      </trkpt>
      <trkpt lat="46.25421" lon="4.65753">
        <ele>609.4</ele>
        <time>2022-06-25T13:30:35Z</time>
      </trkpt>
      <trkpt lat="46.25418" lon="4.65757">
        <ele>609.6</ele>
        <time>2022-06-25T13:30:36Z</time>
      </trkpt>
      <trkpt lat="46.25416" lon="4.6576">
        <ele>610</ele>
        <time>2022-06-25T13:30:37Z</time>
      </trkpt>
      <trkpt lat="46.25413" lon="4.65763">
        <ele>610</ele>
        <time>2022-06-25T13:30:38Z</time>
      </trkpt>
      <trkpt lat="46.2541" lon="4.65766">
        <ele>610.4</ele>
        <time>2022-06-25T13:30:39Z</time>
      </trkpt>
      <trkpt lat="46.25407" lon="4.65769">
        <ele>610.4</ele>
        <time>2022-06-25T13:30:40Z</time>
      </trkpt>
      <trkpt lat="46.25404" lon="4.65772">
        <ele>610.6</ele>
        <time>2022-06-25T13:30:41Z</time>
      </trkpt>
      <trkpt lat="46.25401" lon="4.65774">
        <ele>610.8</ele>
        <time>2022-06-25T13:30:42Z</time>
      </trkpt>
      <trkpt lat="46.25398" lon="4.65775">
        <ele>611.2</ele>
        <time>2022-06-25T13:30:43Z</time>
      </trkpt>
      <trkpt lat="46.25394" lon="4.65776">
        <ele>611.2</ele>
        <time>2022-06-25T13:30:44Z</time>
      </trkpt>
      <trkpt lat="46.25391" lon="4.65777">
        <ele>611.2</ele>
        <time>2022-06-25T13:30:45Z</time>
      </trkpt>
      <trkpt lat="46.25387" lon="4.65777">
        <ele>611.4</ele>
        <time>2022-06-25T13:30:46Z</time>
      </trkpt>
      <trkpt lat="46.25383" lon="4.65776">
        <ele>611.4</ele>
        <time>2022-06-25T13:30:47Z</time>
      </trkpt>
      <trkpt lat="46.2538" lon="4.65774">
        <ele>611.8</ele>
        <time>2022-06-25T13:30:48Z</time>
      </trkpt>
      <trkpt lat="46.25376" lon="4.65772">
        <ele>611.8</ele>
        <time>2022-06-25T13:30:49Z</time>
      </trkpt>
      <trkpt lat="46.25373" lon="4.65771">
        <ele>612</ele>
        <time>2022-06-25T13:30:50Z</time>
      </trkpt>
      <trkpt lat="46.25369" lon="4.65768">
        <ele>612</ele>
        <time>2022-06-25T13:30:51Z</time>
      </trkpt>
      <trkpt lat="46.25366" lon="4.65766">
        <ele>612.4</ele>
        <time>2022-06-25T13:30:52Z</time>
      </trkpt>
      <trkpt lat="46.25362" lon="4.65763">
        <ele>612.6</ele>
        <time>2022-06-25T13:30:53Z</time>
      </trkpt>
      <trkpt lat="46.25359" lon="4.65761">
        <ele>612.8</ele>
        <time>2022-06-25T13:30:54Z</time>
      </trkpt>
      <trkpt lat="46.25356" lon="4.65758">
        <ele>613.2</ele>
        <time>2022-06-25T13:30:55Z</time>
      </trkpt>
      <trkpt lat="46.25352" lon="4.65755">
        <ele>613.4</ele>
        <time>2022-06-25T13:30:56Z</time>
      </trkpt>
      <trkpt lat="46.25349" lon="4.65752">
        <ele>613.6</ele>
        <time>2022-06-25T13:30:57Z</time>
      </trkpt>
      <trkpt lat="46.25347" lon="4.65748">
        <ele>613.8</ele>
        <time>2022-06-25T13:30:58Z</time>
      </trkpt>
      <trkpt lat="46.25344" lon="4.65744">
        <ele>613.8</ele>
        <time>2022-06-25T13:30:59Z</time>
      </trkpt>
      <trkpt lat="46.25341" lon="4.6574">
        <ele>614.2</ele>
        <time>2022-06-25T13:31:00Z</time>
      </trkpt>
      <trkpt lat="46.25338" lon="4.65737">
        <ele>614.4</ele>
        <time>2022-06-25T13:31:01Z</time>
      </trkpt>
      <trkpt lat="46.25335" lon="4.65733">
        <ele>614.8</ele>
        <time>2022-06-25T13:31:02Z</time>
      </trkpt>
      <trkpt lat="46.25333" lon="4.65729">
        <ele>614.8</ele>
        <time>2022-06-25T13:31:03Z</time>
      </trkpt>
      <trkpt lat="46.2533" lon="4.65724">
        <ele>615.2</ele>
        <time>2022-06-25T13:31:04Z</time>
      </trkpt>
      <trkpt lat="46.25328" lon="4.6572">
        <ele>615.4</ele>
        <time>2022-06-25T13:31:05Z</time>
      </trkpt>
      <trkpt lat="46.25326" lon="4.65716">
        <ele>615.4</ele>
        <time>2022-06-25T13:31:06Z</time>
      </trkpt>
      <trkpt lat="46.25324" lon="4.65711">
        <ele>615.8</ele>
        <time>2022-06-25T13:31:07Z</time>
      </trkpt>
      <trkpt lat="46.25322" lon="4.65707">
        <ele>616</ele>
        <time>2022-06-25T13:31:08Z</time>
      </trkpt>
      <trkpt lat="46.2532" lon="4.65703">
        <ele>616.4</ele>
        <time>2022-06-25T13:31:09Z</time>
      </trkpt>
      <trkpt lat="46.25319" lon="4.65698">
        <ele>616.6</ele>
        <time>2022-06-25T13:31:10Z</time>
      </trkpt>
      <trkpt lat="46.25317" lon="4.65694">
        <ele>617</ele>
        <time>2022-06-25T13:31:11Z</time>
      </trkpt>
      <trkpt lat="46.25315" lon="4.6569">
        <ele>617.2</ele>
        <time>2022-06-25T13:31:12Z</time>
      </trkpt>
      <trkpt lat="46.25313" lon="4.65686">
        <ele>617.2</ele>
        <time>2022-06-25T13:31:13Z</time>
      </trkpt>
      <trkpt lat="46.25311" lon="4.65681">
        <ele>617.4</ele>
        <time>2022-06-25T13:31:14Z</time>
      </trkpt>
      <trkpt lat="46.25309" lon="4.65677">
        <ele>617.4</ele>
        <time>2022-06-25T13:31:15Z</time>
      </trkpt>
      <trkpt lat="46.25307" lon="4.65673">
        <ele>617.8</ele>
        <time>2022-06-25T13:31:16Z</time>
      </trkpt>
      <trkpt lat="46.25305" lon="4.65668">
        <ele>617.8</ele>
        <time>2022-06-25T13:31:17Z</time>
      </trkpt>
      <trkpt lat="46.25303" lon="4.65664">
        <ele>618.2</ele>
        <time>2022-06-25T13:31:18Z</time>
      </trkpt>
      <trkpt lat="46.25301" lon="4.65659">
        <ele>618.4</ele>
        <time>2022-06-25T13:31:19Z</time>
      </trkpt>
      <trkpt lat="46.25299" lon="4.65655">
        <ele>618.6</ele>
        <time>2022-06-25T13:31:20Z</time>
      </trkpt>
      <trkpt lat="46.25297" lon="4.6565">
        <ele>618.6</ele>
        <time>2022-06-25T13:31:21Z</time>
      </trkpt>
      <trkpt lat="46.25295" lon="4.65646">
        <ele>619</ele>
        <time>2022-06-25T13:31:22Z</time>
      </trkpt>
      <trkpt lat="46.25293" lon="4.65642">
        <ele>619.2</ele>
        <time>2022-06-25T13:31:23Z</time>
      </trkpt>
      <trkpt lat="46.25291" lon="4.65638">
        <ele>619.4</ele>
        <time>2022-06-25T13:31:24Z</time>
      </trkpt>
      <trkpt lat="46.25289" lon="4.6563">
        <ele>619.4</ele>
        <time>2022-06-25T13:31:25Z</time>
      </trkpt>
      <trkpt lat="46.25288" lon="4.65628">
        <ele>619.8</ele>
        <time>2022-06-25T13:31:26Z</time>
      </trkpt>
      <trkpt lat="46.25287" lon="4.65623">
        <ele>620</ele>
        <time>2022-06-25T13:31:27Z</time>
      </trkpt>
      <trkpt lat="46.25285" lon="4.65618">
        <ele>620</ele>
        <time>2022-06-25T13:31:28Z</time>
      </trkpt>
      <trkpt lat="46.25284" lon="4.65613">
        <ele>620.2</ele>
        <time>2022-06-25T13:31:29Z</time>
      </trkpt>
      <trkpt lat="46.25284" lon="4.65608">
        <ele>620.2</ele>
        <time>2022-06-25T13:31:30Z</time>
      </trkpt>
      <trkpt lat="46.25284" lon="4.65602">
        <ele>620.2</ele>
        <time>2022-06-25T13:31:31Z</time>
      </trkpt>
      <trkpt lat="46.25284" lon="4.65597">
        <ele>620.6</ele>
        <time>2022-06-25T13:31:32Z</time>
      </trkpt>
      <trkpt lat="46.25285" lon="4.65592">
        <ele>620.6</ele>
        <time>2022-06-25T13:31:33Z</time>
      </trkpt>
      <trkpt lat="46.25287" lon="4.65587">
        <ele>620.6</ele>
        <time>2022-06-25T13:31:34Z</time>
      </trkpt>
      <trkpt lat="46.25288" lon="4.65582">
        <ele>621</ele>
        <time>2022-06-25T13:31:35Z</time>
      </trkpt>
      <trkpt lat="46.2529" lon="4.65577">
        <ele>621.2</ele>
        <time>2022-06-25T13:31:36Z</time>
      </trkpt>
      <trkpt lat="46.25292" lon="4.65572">
        <ele>621.2</ele>
        <time>2022-06-25T13:31:37Z</time>
      </trkpt>
      <trkpt lat="46.25295" lon="4.65567">
        <ele>621.4</ele>
        <time>2022-06-25T13:31:38Z</time>
      </trkpt>
      <trkpt lat="46.25297" lon="4.65563">
        <ele>621.4</ele>
        <time>2022-06-25T13:31:39Z</time>
      </trkpt>
      <trkpt lat="46.253" lon="4.65558">
        <ele>621.6</ele>
        <time>2022-06-25T13:31:40Z</time>
      </trkpt>
      <trkpt lat="46.25303" lon="4.65555">
        <ele>621.6</ele>
        <time>2022-06-25T13:31:41Z</time>
      </trkpt>
      <trkpt lat="46.25306" lon="4.65551">
        <ele>622</ele>
        <time>2022-06-25T13:31:42Z</time>
      </trkpt>
      <trkpt lat="46.25309" lon="4.65548">
        <ele>622.4</ele>
        <time>2022-06-25T13:31:43Z</time>
      </trkpt>
      <trkpt lat="46.25312" lon="4.65545">
        <ele>622.6</ele>
        <time>2022-06-25T13:31:44Z</time>
      </trkpt>
      <trkpt lat="46.25315" lon="4.65541">
        <ele>622.6</ele>
        <time>2022-06-25T13:31:45Z</time>
      </trkpt>
      <trkpt lat="46.25318" lon="4.65538">
        <ele>622.8</ele>
        <time>2022-06-25T13:31:46Z</time>
      </trkpt>
      <trkpt lat="46.25321" lon="4.65534">
        <ele>622.8</ele>
        <time>2022-06-25T13:31:47Z</time>
      </trkpt>
      <trkpt lat="46.25325" lon="4.65531">
        <ele>623.2</ele>
        <time>2022-06-25T13:31:48Z</time>
      </trkpt>
      <trkpt lat="46.25328" lon="4.65528">
        <ele>623.2</ele>
        <time>2022-06-25T13:31:49Z</time>
      </trkpt>
      <trkpt lat="46.25331" lon="4.65525">
        <ele>623.4</ele>
        <time>2022-06-25T13:31:50Z</time>
      </trkpt>
      <trkpt lat="46.25334" lon="4.65522">
        <ele>623.4</ele>
        <time>2022-06-25T13:31:51Z</time>
      </trkpt>
      <trkpt lat="46.25337" lon="4.65519">
        <ele>623.8</ele>
        <time>2022-06-25T13:31:52Z</time>
      </trkpt>
      <trkpt lat="46.25341" lon="4.65517">
        <ele>623.8</ele>
        <time>2022-06-25T13:31:53Z</time>
      </trkpt>
      <trkpt lat="46.25344" lon="4.65515">
        <ele>624.2</ele>
        <time>2022-06-25T13:31:54Z</time>
      </trkpt>
      <trkpt lat="46.25348" lon="4.65513">
        <ele>624.2</ele>
        <time>2022-06-25T13:31:55Z</time>
      </trkpt>
      <trkpt lat="46.25352" lon="4.65511">
        <ele>624.4</ele>
        <time>2022-06-25T13:31:56Z</time>
      </trkpt>
      <trkpt lat="46.25355" lon="4.6551">
        <ele>624.4</ele>
        <time>2022-06-25T13:31:57Z</time>
      </trkpt>
      <trkpt lat="46.25359" lon="4.65508">
        <ele>624.4</ele>
        <time>2022-06-25T13:31:58Z</time>
      </trkpt>
      <trkpt lat="46.25363" lon="4.65506">
        <ele>624.8</ele>
        <time>2022-06-25T13:31:59Z</time>
      </trkpt>
      <trkpt lat="46.25367" lon="4.65505">
        <ele>624.8</ele>
        <time>2022-06-25T13:32:00Z</time>
      </trkpt>
      <trkpt lat="46.25371" lon="4.65503">
        <ele>624.8</ele>
        <time>2022-06-25T13:32:01Z</time>
      </trkpt>
      <trkpt lat="46.25375" lon="4.65502">
        <ele>624.8</ele>
        <time>2022-06-25T13:32:02Z</time>
      </trkpt>
      <trkpt lat="46.25379" lon="4.655">
        <ele>625.2</ele>
        <time>2022-06-25T13:32:03Z</time>
      </trkpt>
      <trkpt lat="46.25383" lon="4.65499">
        <ele>625.2</ele>
        <time>2022-06-25T13:32:04Z</time>
      </trkpt>
      <trkpt lat="46.25387" lon="4.65498">
        <ele>625.4</ele>
        <time>2022-06-25T13:32:05Z</time>
      </trkpt>
      <trkpt lat="46.25391" lon="4.65497">
        <ele>625.4</ele>
        <time>2022-06-25T13:32:06Z</time>
      </trkpt>
      <trkpt lat="46.25395" lon="4.65495">
        <ele>625.4</ele>
        <time>2022-06-25T13:32:07Z</time>
      </trkpt>
      <trkpt lat="46.25399" lon="4.65494">
        <ele>625.6</ele>
        <time>2022-06-25T13:32:08Z</time>
      </trkpt>
      <trkpt lat="46.25403" lon="4.65493">
        <ele>625.6</ele>
        <time>2022-06-25T13:32:09Z</time>
      </trkpt>
      <trkpt lat="46.25407" lon="4.65492">
        <ele>625.8</ele>
        <time>2022-06-25T13:32:10Z</time>
      </trkpt>
      <trkpt lat="46.25412" lon="4.6549">
        <ele>625.8</ele>
        <time>2022-06-25T13:32:11Z</time>
      </trkpt>
      <trkpt lat="46.25416" lon="4.65488">
        <ele>625.8</ele>
        <time>2022-06-25T13:32:12Z</time>
      </trkpt>
      <trkpt lat="46.2542" lon="4.65485">
        <ele>625.8</ele>
        <time>2022-06-25T13:32:13Z</time>
      </trkpt>
      <trkpt lat="46.25425" lon="4.65483">
        <ele>625.8</ele>
        <time>2022-06-25T13:32:14Z</time>
      </trkpt>
      <trkpt lat="46.25429" lon="4.65479">
        <ele>625.8</ele>
        <time>2022-06-25T13:32:15Z</time>
      </trkpt>
      <trkpt lat="46.25434" lon="4.65476">
        <ele>625.8</ele>
        <time>2022-06-25T13:32:16Z</time>
      </trkpt>
      <trkpt lat="46.25438" lon="4.65471">
        <ele>625.8</ele>
        <time>2022-06-25T13:32:17Z</time>
      </trkpt>
      <trkpt lat="46.25442" lon="4.65466">
        <ele>625.8</ele>
        <time>2022-06-25T13:32:18Z</time>
      </trkpt>
      <trkpt lat="46.25446" lon="4.65461">
        <ele>625.8</ele>
        <time>2022-06-25T13:32:19Z</time>
      </trkpt>
      <trkpt lat="46.25451" lon="4.65455">
        <ele>625.8</ele>
        <time>2022-06-25T13:32:20Z</time>
      </trkpt>
      <trkpt lat="46.25454" lon="4.6545">
        <ele>625.8</ele>
        <time>2022-06-25T13:32:21Z</time>
      </trkpt>
      <trkpt lat="46.25458" lon="4.65444">
        <ele>625.8</ele>
        <time>2022-06-25T13:32:22Z</time>
      </trkpt>
      <trkpt lat="46.25462" lon="4.65439">
        <ele>626</ele>
        <time>2022-06-25T13:32:23Z</time>
      </trkpt>
      <trkpt lat="46.25466" lon="4.65433">
        <ele>626</ele>
        <time>2022-06-25T13:32:24Z</time>
      </trkpt>
      <trkpt lat="46.2547" lon="4.65427">
        <ele>626</ele>
        <time>2022-06-25T13:32:25Z</time>
      </trkpt>
      <trkpt lat="46.25473" lon="4.6542">
        <ele>626</ele>
        <time>2022-06-25T13:32:26Z</time>
      </trkpt>
      <trkpt lat="46.25476" lon="4.65413">
        <ele>626</ele>
        <time>2022-06-25T13:32:27Z</time>
      </trkpt>
      <trkpt lat="46.25478" lon="4.65405">
        <ele>625.8</ele>
        <time>2022-06-25T13:32:28Z</time>
      </trkpt>
      <trkpt lat="46.2548" lon="4.65396">
        <ele>625.8</ele>
        <time>2022-06-25T13:32:29Z</time>
      </trkpt>
      <trkpt lat="46.2548" lon="4.65387">
        <ele>625.8</ele>
        <time>2022-06-25T13:32:30Z</time>
      </trkpt>
      <trkpt lat="46.2548" lon="4.65378">
        <ele>625.8</ele>
        <time>2022-06-25T13:32:31Z</time>
      </trkpt>
      <trkpt lat="46.25479" lon="4.65369">
        <ele>625.8</ele>
        <time>2022-06-25T13:32:32Z</time>
      </trkpt>
      <trkpt lat="46.25478" lon="4.6536">
        <ele>625.8</ele>
        <time>2022-06-25T13:32:33Z</time>
      </trkpt>
      <trkpt lat="46.25476" lon="4.65351">
        <ele>625.8</ele>
        <time>2022-06-25T13:32:34Z</time>
      </trkpt>
      <trkpt lat="46.25475" lon="4.65342">
        <ele>625.8</ele>
        <time>2022-06-25T13:32:35Z</time>
      </trkpt>
      <trkpt lat="46.25473" lon="4.65333">
        <ele>625.8</ele>
        <time>2022-06-25T13:32:36Z</time>
      </trkpt>
      <trkpt lat="46.25472" lon="4.65324">
        <ele>626.2</ele>
        <time>2022-06-25T13:32:37Z</time>
      </trkpt>
      <trkpt lat="46.25472" lon="4.65314">
        <ele>626.2</ele>
        <time>2022-06-25T13:32:38Z</time>
      </trkpt>
      <trkpt lat="46.25472" lon="4.65303">
        <ele>626.2</ele>
        <time>2022-06-25T13:32:39Z</time>
      </trkpt>
      <trkpt lat="46.25473" lon="4.65293">
        <ele>625.8</ele>
        <time>2022-06-25T13:32:40Z</time>
      </trkpt>
      <trkpt lat="46.25474" lon="4.65283">
        <ele>625.8</ele>
        <time>2022-06-25T13:32:41Z</time>
      </trkpt>
      <trkpt lat="46.25476" lon="4.65273">
        <ele>625.8</ele>
        <time>2022-06-25T13:32:42Z</time>
      </trkpt>
      <trkpt lat="46.25479" lon="4.65263">
        <ele>625.6</ele>
        <time>2022-06-25T13:32:43Z</time>
      </trkpt>
      <trkpt lat="46.25481" lon="4.65253">
        <ele>625.6</ele>
        <time>2022-06-25T13:32:44Z</time>
      </trkpt>
      <trkpt lat="46.25484" lon="4.65242">
        <ele>625.4</ele>
        <time>2022-06-25T13:32:45Z</time>
      </trkpt>
      <trkpt lat="46.25487" lon="4.65233">
        <ele>625.4</ele>
        <time>2022-06-25T13:32:46Z</time>
      </trkpt>
      <trkpt lat="46.25489" lon="4.65222">
        <ele>625</ele>
        <time>2022-06-25T13:32:47Z</time>
      </trkpt>
      <trkpt lat="46.25492" lon="4.65212">
        <ele>624.8</ele>
        <time>2022-06-25T13:32:48Z</time>
      </trkpt>
      <trkpt lat="46.25495" lon="4.65202">
        <ele>624.6</ele>
        <time>2022-06-25T13:32:49Z</time>
      </trkpt>
      <trkpt lat="46.25497" lon="4.65192">
        <ele>624.6</ele>
        <time>2022-06-25T13:32:50Z</time>
      </trkpt>
      <trkpt lat="46.255" lon="4.65183">
        <ele>624.2</ele>
        <time>2022-06-25T13:32:51Z</time>
      </trkpt>
      <trkpt lat="46.25503" lon="4.65173">
        <ele>624.2</ele>
        <time>2022-06-25T13:32:52Z</time>
      </trkpt>
      <trkpt lat="46.25506" lon="4.65163">
        <ele>623.8</ele>
        <time>2022-06-25T13:32:53Z</time>
      </trkpt>
      <trkpt lat="46.25509" lon="4.65154">
        <ele>623.8</ele>
        <time>2022-06-25T13:32:54Z</time>
      </trkpt>
      <trkpt lat="46.25511" lon="4.65144">
        <ele>623.8</ele>
        <time>2022-06-25T13:32:55Z</time>
      </trkpt>
      <trkpt lat="46.25513" lon="4.65134">
        <ele>623.6</ele>
        <time>2022-06-25T13:32:56Z</time>
      </trkpt>
      <trkpt lat="46.25515" lon="4.65125">
        <ele>623.6</ele>
        <time>2022-06-25T13:32:57Z</time>
      </trkpt>
      <trkpt lat="46.25517" lon="4.65115">
        <ele>623.6</ele>
        <time>2022-06-25T13:32:58Z</time>
      </trkpt>
      <trkpt lat="46.2552" lon="4.65107">
        <ele>623.6</ele>
        <time>2022-06-25T13:32:59Z</time>
      </trkpt>
      <trkpt lat="46.25522" lon="4.65098">
        <ele>623.6</ele>
        <time>2022-06-25T13:33:00Z</time>
      </trkpt>
      <trkpt lat="46.25525" lon="4.65085">
        <ele>623.2</ele>
        <time>2022-06-25T13:33:01Z</time>
      </trkpt>
      <trkpt lat="46.25526" lon="4.65081">
        <ele>623.2</ele>
        <time>2022-06-25T13:33:02Z</time>
      </trkpt>
      <trkpt lat="46.25528" lon="4.65072">
        <ele>623.2</ele>
        <time>2022-06-25T13:33:03Z</time>
      </trkpt>
      <trkpt lat="46.25531" lon="4.65064">
        <ele>623</ele>
        <time>2022-06-25T13:33:04Z</time>
      </trkpt>
      <trkpt lat="46.25533" lon="4.65056">
        <ele>623</ele>
        <time>2022-06-25T13:33:05Z</time>
      </trkpt>
      <trkpt lat="46.25535" lon="4.65048">
        <ele>623</ele>
        <time>2022-06-25T13:33:06Z</time>
      </trkpt>
      <trkpt lat="46.25537" lon="4.65041">
        <ele>623</ele>
        <time>2022-06-25T13:33:07Z</time>
      </trkpt>
      <trkpt lat="46.2554" lon="4.65033">
        <ele>623</ele>
        <time>2022-06-25T13:33:08Z</time>
      </trkpt>
      <trkpt lat="46.25542" lon="4.65026">
        <ele>623</ele>
        <time>2022-06-25T13:33:09Z</time>
      </trkpt>
      <trkpt lat="46.25544" lon="4.65018">
        <ele>623</ele>
        <time>2022-06-25T13:33:10Z</time>
      </trkpt>
      <trkpt lat="46.25546" lon="4.6501">
        <ele>623</ele>
        <time>2022-06-25T13:33:11Z</time>
      </trkpt>
      <trkpt lat="46.25549" lon="4.65002">
        <ele>623</ele>
        <time>2022-06-25T13:33:12Z</time>
      </trkpt>
      <trkpt lat="46.25551" lon="4.64994">
        <ele>623</ele>
        <time>2022-06-25T13:33:13Z</time>
      </trkpt>
      <trkpt lat="46.25553" lon="4.64985">
        <ele>623</ele>
        <time>2022-06-25T13:33:14Z</time>
      </trkpt>
      <trkpt lat="46.25555" lon="4.64976">
        <ele>623</ele>
        <time>2022-06-25T13:33:15Z</time>
      </trkpt>
      <trkpt lat="46.25557" lon="4.64968">
        <ele>623</ele>
        <time>2022-06-25T13:33:16Z</time>
      </trkpt>
      <trkpt lat="46.25559" lon="4.64959">
        <ele>623</ele>
        <time>2022-06-25T13:33:17Z</time>
      </trkpt>
      <trkpt lat="46.25561" lon="4.6495">
        <ele>623</ele>
        <time>2022-06-25T13:33:18Z</time>
      </trkpt>
      <trkpt lat="46.25562" lon="4.64941">
        <ele>623</ele>
        <time>2022-06-25T13:33:19Z</time>
      </trkpt>
      <trkpt lat="46.25565" lon="4.64931">
        <ele>623</ele>
        <time>2022-06-25T13:33:20Z</time>
      </trkpt>
      <trkpt lat="46.25567" lon="4.64922">
        <ele>623</ele>
        <time>2022-06-25T13:33:21Z</time>
      </trkpt>
      <trkpt lat="46.25569" lon="4.64912">
        <ele>623.2</ele>
        <time>2022-06-25T13:33:22Z</time>
      </trkpt>
      <trkpt lat="46.25571" lon="4.64903">
        <ele>623.2</ele>
        <time>2022-06-25T13:33:23Z</time>
      </trkpt>
      <trkpt lat="46.25573" lon="4.64893">
        <ele>623.2</ele>
        <time>2022-06-25T13:33:24Z</time>
      </trkpt>
      <trkpt lat="46.25574" lon="4.64882">
        <ele>623.2</ele>
        <time>2022-06-25T13:33:25Z</time>
      </trkpt>
      <trkpt lat="46.25575" lon="4.64871">
        <ele>623.2</ele>
        <time>2022-06-25T13:33:26Z</time>
      </trkpt>
      <trkpt lat="46.25576" lon="4.6486">
        <ele>623.2</ele>
        <time>2022-06-25T13:33:27Z</time>
      </trkpt>
      <trkpt lat="46.25576" lon="4.64849">
        <ele>623.2</ele>
        <time>2022-06-25T13:33:28Z</time>
      </trkpt>
      <trkpt lat="46.25576" lon="4.64838">
        <ele>623.4</ele>
        <time>2022-06-25T13:33:29Z</time>
      </trkpt>
      <trkpt lat="46.25575" lon="4.64827">
        <ele>623.4</ele>
        <time>2022-06-25T13:33:30Z</time>
      </trkpt>
      <trkpt lat="46.25575" lon="4.64816">
        <ele>623.4</ele>
        <time>2022-06-25T13:33:31Z</time>
      </trkpt>
      <trkpt lat="46.25575" lon="4.64805">
        <ele>623.4</ele>
        <time>2022-06-25T13:33:32Z</time>
      </trkpt>
      <trkpt lat="46.25575" lon="4.64794">
        <ele>623.2</ele>
        <time>2022-06-25T13:33:33Z</time>
      </trkpt>
      <trkpt lat="46.25574" lon="4.64784">
        <ele>623.2</ele>
        <time>2022-06-25T13:33:34Z</time>
      </trkpt>
      <trkpt lat="46.25574" lon="4.64773">
        <ele>623</ele>
        <time>2022-06-25T13:33:35Z</time>
      </trkpt>
      <trkpt lat="46.25574" lon="4.64763">
        <ele>623</ele>
        <time>2022-06-25T13:33:36Z</time>
      </trkpt>
      <trkpt lat="46.25573" lon="4.64753">
        <ele>622.6</ele>
        <time>2022-06-25T13:33:37Z</time>
      </trkpt>
      <trkpt lat="46.25572" lon="4.64743">
        <ele>622.6</ele>
        <time>2022-06-25T13:33:38Z</time>
      </trkpt>
      <trkpt lat="46.2557" lon="4.64733">
        <ele>622.4</ele>
        <time>2022-06-25T13:33:39Z</time>
      </trkpt>
      <trkpt lat="46.25568" lon="4.64723">
        <ele>622</ele>
        <time>2022-06-25T13:33:40Z</time>
      </trkpt>
      <trkpt lat="46.25566" lon="4.64714">
        <ele>621.8</ele>
        <time>2022-06-25T13:33:41Z</time>
      </trkpt>
      <trkpt lat="46.25562" lon="4.64705">
        <ele>621.8</ele>
        <time>2022-06-25T13:33:42Z</time>
      </trkpt>
      <trkpt lat="46.25559" lon="4.64696">
        <ele>621.6</ele>
        <time>2022-06-25T13:33:43Z</time>
      </trkpt>
      <trkpt lat="46.25555" lon="4.64688">
        <ele>621.6</ele>
        <time>2022-06-25T13:33:44Z</time>
      </trkpt>
      <trkpt lat="46.25551" lon="4.6468">
        <ele>621.6</ele>
        <time>2022-06-25T13:33:45Z</time>
      </trkpt>
      <trkpt lat="46.25548" lon="4.64671">
        <ele>621.6</ele>
        <time>2022-06-25T13:33:46Z</time>
      </trkpt>
      <trkpt lat="46.25544" lon="4.64662">
        <ele>621.2</ele>
        <time>2022-06-25T13:33:47Z</time>
      </trkpt>
      <trkpt lat="46.2554" lon="4.64654">
        <ele>621.2</ele>
        <time>2022-06-25T13:33:48Z</time>
      </trkpt>
      <trkpt lat="46.25535" lon="4.64647">
        <ele>621.2</ele>
        <time>2022-06-25T13:33:49Z</time>
      </trkpt>
      <trkpt lat="46.25529" lon="4.64641">
        <ele>621</ele>
        <time>2022-06-25T13:33:50Z</time>
      </trkpt>
      <trkpt lat="46.25522" lon="4.64637">
        <ele>621</ele>
        <time>2022-06-25T13:33:51Z</time>
      </trkpt>
      <trkpt lat="46.25515" lon="4.64635">
        <ele>621</ele>
        <time>2022-06-25T13:33:52Z</time>
      </trkpt>
      <trkpt lat="46.25507" lon="4.64633">
        <ele>621</ele>
        <time>2022-06-25T13:33:53Z</time>
      </trkpt>
      <trkpt lat="46.255" lon="4.64632">
        <ele>621</ele>
        <time>2022-06-25T13:33:54Z</time>
      </trkpt>
      <trkpt lat="46.25493" lon="4.64631">
        <ele>620.8</ele>
        <time>2022-06-25T13:33:55Z</time>
      </trkpt>
      <trkpt lat="46.25485" lon="4.64629">
        <ele>620.8</ele>
        <time>2022-06-25T13:33:56Z</time>
      </trkpt>
      <trkpt lat="46.25478" lon="4.64628">
        <ele>620.8</ele>
        <time>2022-06-25T13:33:57Z</time>
      </trkpt>
      <trkpt lat="46.25471" lon="4.64626">
        <ele>620.8</ele>
        <time>2022-06-25T13:33:58Z</time>
      </trkpt>
      <trkpt lat="46.25464" lon="4.64626">
        <ele>620.4</ele>
        <time>2022-06-25T13:33:59Z</time>
      </trkpt>
      <trkpt lat="46.25457" lon="4.64624">
        <ele>620.4</ele>
        <time>2022-06-25T13:34:00Z</time>
      </trkpt>
      <trkpt lat="46.25451" lon="4.6462">
        <ele>620.4</ele>
        <time>2022-06-25T13:34:01Z</time>
      </trkpt>
      <trkpt lat="46.25446" lon="4.64613">
        <ele>620.4</ele>
        <time>2022-06-25T13:34:02Z</time>
      </trkpt>
      <trkpt lat="46.25441" lon="4.64606">
        <ele>620.2</ele>
        <time>2022-06-25T13:34:03Z</time>
      </trkpt>
      <trkpt lat="46.25438" lon="4.64597">
        <ele>620.2</ele>
        <time>2022-06-25T13:34:04Z</time>
      </trkpt>
      <trkpt lat="46.25436" lon="4.64588">
        <ele>620.2</ele>
        <time>2022-06-25T13:34:05Z</time>
      </trkpt>
      <trkpt lat="46.25436" lon="4.64578">
        <ele>620.2</ele>
        <time>2022-06-25T13:34:06Z</time>
      </trkpt>
      <trkpt lat="46.25436" lon="4.64568">
        <ele>620.2</ele>
        <time>2022-06-25T13:34:07Z</time>
      </trkpt>
      <trkpt lat="46.25437" lon="4.64559">
        <ele>620.2</ele>
        <time>2022-06-25T13:34:08Z</time>
      </trkpt>
      <trkpt lat="46.25438" lon="4.6455">
        <ele>620.2</ele>
        <time>2022-06-25T13:34:09Z</time>
      </trkpt>
      <trkpt lat="46.2544" lon="4.64541">
        <ele>620.2</ele>
        <time>2022-06-25T13:34:10Z</time>
      </trkpt>
      <trkpt lat="46.25442" lon="4.64527">
        <ele>620.2</ele>
        <time>2022-06-25T13:34:11Z</time>
      </trkpt>
      <trkpt lat="46.25443" lon="4.64523">
        <ele>620.2</ele>
        <time>2022-06-25T13:34:12Z</time>
      </trkpt>
      <trkpt lat="46.25444" lon="4.64514">
        <ele>620.4</ele>
        <time>2022-06-25T13:34:13Z</time>
      </trkpt>
      <trkpt lat="46.25446" lon="4.64505">
        <ele>620.4</ele>
        <time>2022-06-25T13:34:14Z</time>
      </trkpt>
      <trkpt lat="46.25448" lon="4.64496">
        <ele>620.4</ele>
        <time>2022-06-25T13:34:15Z</time>
      </trkpt>
      <trkpt lat="46.25449" lon="4.64487">
        <ele>620.4</ele>
        <time>2022-06-25T13:34:16Z</time>
      </trkpt>
      <trkpt lat="46.2545" lon="4.64478">
        <ele>620.4</ele>
        <time>2022-06-25T13:34:17Z</time>
      </trkpt>
      <trkpt lat="46.25452" lon="4.6447">
        <ele>620.6</ele>
        <time>2022-06-25T13:34:18Z</time>
      </trkpt>
      <trkpt lat="46.25453" lon="4.64461">
        <ele>620.6</ele>
        <time>2022-06-25T13:34:19Z</time>
      </trkpt>
      <trkpt lat="46.25454" lon="4.64453">
        <ele>621</ele>
        <time>2022-06-25T13:34:20Z</time>
      </trkpt>
      <trkpt lat="46.25456" lon="4.64445">
        <ele>621</ele>
        <time>2022-06-25T13:34:21Z</time>
      </trkpt>
      <trkpt lat="46.25457" lon="4.64437">
        <ele>621.2</ele>
        <time>2022-06-25T13:34:22Z</time>
      </trkpt>
      <trkpt lat="46.25458" lon="4.64429">
        <ele>621.2</ele>
        <time>2022-06-25T13:34:23Z</time>
      </trkpt>
      <trkpt lat="46.25459" lon="4.64421">
        <ele>621.2</ele>
        <time>2022-06-25T13:34:24Z</time>
      </trkpt>
      <trkpt lat="46.2546" lon="4.64414">
        <ele>621.6</ele>
        <time>2022-06-25T13:34:25Z</time>
      </trkpt>
      <trkpt lat="46.25461" lon="4.64407">
        <ele>621.6</ele>
        <time>2022-06-25T13:34:26Z</time>
      </trkpt>
      <trkpt lat="46.25462" lon="4.644">
        <ele>621.8</ele>
        <time>2022-06-25T13:34:27Z</time>
      </trkpt>
      <trkpt lat="46.25463" lon="4.64393">
        <ele>621.8</ele>
        <time>2022-06-25T13:34:28Z</time>
      </trkpt>
      <trkpt lat="46.25464" lon="4.64387">
        <ele>622.2</ele>
        <time>2022-06-25T13:34:29Z</time>
      </trkpt>
      <trkpt lat="46.25464" lon="4.64381">
        <ele>622.2</ele>
        <time>2022-06-25T13:34:30Z</time>
      </trkpt>
      <trkpt lat="46.25465" lon="4.64375">
        <ele>622.6</ele>
        <time>2022-06-25T13:34:31Z</time>
      </trkpt>
      <trkpt lat="46.25466" lon="4.6437">
        <ele>622.6</ele>
        <time>2022-06-25T13:34:32Z</time>
      </trkpt>
      <trkpt lat="46.25467" lon="4.64365">
        <ele>622.8</ele>
        <time>2022-06-25T13:34:33Z</time>
      </trkpt>
      <trkpt lat="46.25468" lon="4.64361">
        <ele>622.8</ele>
        <time>2022-06-25T13:34:34Z</time>
      </trkpt>
      <trkpt lat="46.25469" lon="4.64357">
        <ele>623.2</ele>
        <time>2022-06-25T13:34:35Z</time>
      </trkpt>
      <trkpt lat="46.25469" lon="4.64353">
        <ele>623.2</ele>
        <time>2022-06-25T13:34:36Z</time>
      </trkpt>
      <trkpt lat="46.2547" lon="4.64351">
        <ele>623.6</ele>
        <time>2022-06-25T13:34:37Z</time>
      </trkpt>
      <trkpt lat="46.2547" lon="4.64349">
        <ele>623.6</ele>
        <time>2022-06-25T13:34:38Z</time>
      </trkpt>
      <trkpt lat="46.2547" lon="4.64348">
        <ele>623.8</ele>
        <time>2022-06-25T13:34:39Z</time>
      </trkpt>
      <trkpt lat="46.2547" lon="4.64348">
        <ele>624</ele>
        <time>2022-06-25T13:34:41Z</time>
      </trkpt>
      <trkpt lat="46.25467" lon="4.64347">
        <ele>624</ele>
        <time>2022-06-25T13:34:51Z</time>
      </trkpt>
      <trkpt lat="46.25466" lon="4.64347">
        <ele>624</ele>
        <time>2022-06-25T13:34:52Z</time>
      </trkpt>
      <trkpt lat="46.25465" lon="4.64347">
        <ele>624</ele>
        <time>2022-06-25T13:34:53Z</time>
      </trkpt>
      <trkpt lat="46.25465" lon="4.64348">
        <ele>624</ele>
        <time>2022-06-25T13:34:54Z</time>
      </trkpt>
      <trkpt lat="46.25467" lon="4.6435">
        <ele>624.6</ele>
        <time>2022-06-25T13:36:50Z</time>
      </trkpt>
      <trkpt lat="46.25468" lon="4.64349">
        <ele>624.6</ele>
        <time>2022-06-25T13:36:51Z</time>
      </trkpt>
      <trkpt lat="46.25469" lon="4.64349">
        <ele>624.6</ele>
        <time>2022-06-25T13:36:52Z</time>
      </trkpt>
      <trkpt lat="46.2547" lon="4.64345">
        <ele>624.6</ele>
        <time>2022-06-25T13:36:59Z</time>
      </trkpt>
      <trkpt lat="46.25471" lon="4.64343">
        <ele>624.6</ele>
        <time>2022-06-25T13:37:00Z</time>
      </trkpt>
      <trkpt lat="46.25472" lon="4.6434">
        <ele>624.6</ele>
        <time>2022-06-25T13:37:01Z</time>
      </trkpt>
      <trkpt lat="46.25472" lon="4.64337">
        <ele>624.6</ele>
        <time>2022-06-25T13:37:02Z</time>
      </trkpt>
      <trkpt lat="46.25473" lon="4.64335">
        <ele>624.6</ele>
        <time>2022-06-25T13:37:03Z</time>
      </trkpt>
      <trkpt lat="46.25474" lon="4.64333">
        <ele>624.6</ele>
        <time>2022-06-25T13:37:04Z</time>
      </trkpt>
      <trkpt lat="46.25475" lon="4.6433">
        <ele>624.6</ele>
        <time>2022-06-25T13:37:05Z</time>
      </trkpt>
      <trkpt lat="46.25475" lon="4.64326">
        <ele>624.6</ele>
        <time>2022-06-25T13:37:06Z</time>
      </trkpt>
      <trkpt lat="46.25476" lon="4.64323">
        <ele>624.6</ele>
        <time>2022-06-25T13:37:07Z</time>
      </trkpt>
      <trkpt lat="46.25478" lon="4.64319">
        <ele>625</ele>
        <time>2022-06-25T13:37:08Z</time>
      </trkpt>
      <trkpt lat="46.2548" lon="4.64315">
        <ele>625</ele>
        <time>2022-06-25T13:37:09Z</time>
      </trkpt>
      <trkpt lat="46.25481" lon="4.6431">
        <ele>625.2</ele>
        <time>2022-06-25T13:37:10Z</time>
      </trkpt>
      <trkpt lat="46.25482" lon="4.64305">
        <ele>625.2</ele>
        <time>2022-06-25T13:37:11Z</time>
      </trkpt>
      <trkpt lat="46.25482" lon="4.64299">
        <ele>625.6</ele>
        <time>2022-06-25T13:37:12Z</time>
      </trkpt>
      <trkpt lat="46.25483" lon="4.64293">
        <ele>625.6</ele>
        <time>2022-06-25T13:37:13Z</time>
      </trkpt>
      <trkpt lat="46.25484" lon="4.64287">
        <ele>626</ele>
        <time>2022-06-25T13:37:14Z</time>
      </trkpt>
      <trkpt lat="46.25486" lon="4.6428">
        <ele>626.2</ele>
        <time>2022-06-25T13:37:15Z</time>
      </trkpt>
      <trkpt lat="46.25487" lon="4.64274">
        <ele>626.2</ele>
        <time>2022-06-25T13:37:16Z</time>
      </trkpt>
      <trkpt lat="46.25489" lon="4.64267">
        <ele>626.6</ele>
        <time>2022-06-25T13:37:17Z</time>
      </trkpt>
      <trkpt lat="46.2549" lon="4.6426">
        <ele>626.8</ele>
        <time>2022-06-25T13:37:18Z</time>
      </trkpt>
      <trkpt lat="46.25492" lon="4.64253">
        <ele>626.8</ele>
        <time>2022-06-25T13:37:19Z</time>
      </trkpt>
      <trkpt lat="46.25493" lon="4.64246">
        <ele>627.2</ele>
        <time>2022-06-25T13:37:20Z</time>
      </trkpt>
      <trkpt lat="46.25494" lon="4.64239">
        <ele>627.6</ele>
        <time>2022-06-25T13:37:21Z</time>
      </trkpt>
      <trkpt lat="46.25495" lon="4.64231">
        <ele>627.8</ele>
        <time>2022-06-25T13:37:22Z</time>
      </trkpt>
      <trkpt lat="46.25496" lon="4.64224">
        <ele>628</ele>
        <time>2022-06-25T13:37:23Z</time>
      </trkpt>
      <trkpt lat="46.25497" lon="4.64216">
        <ele>628</ele>
        <time>2022-06-25T13:37:24Z</time>
      </trkpt>
      <trkpt lat="46.25498" lon="4.64208">
        <ele>628.4</ele>
        <time>2022-06-25T13:37:25Z</time>
      </trkpt>
      <trkpt lat="46.25499" lon="4.642">
        <ele>628.4</ele>
        <time>2022-06-25T13:37:26Z</time>
      </trkpt>
      <trkpt lat="46.255" lon="4.64192">
        <ele>628.6</ele>
        <time>2022-06-25T13:37:27Z</time>
      </trkpt>
      <trkpt lat="46.25501" lon="4.64184">
        <ele>628.6</ele>
        <time>2022-06-25T13:37:28Z</time>
      </trkpt>
      <trkpt lat="46.25502" lon="4.64176">
        <ele>628.8</ele>
        <time>2022-06-25T13:37:29Z</time>
      </trkpt>
      <trkpt lat="46.25503" lon="4.64168">
        <ele>628.8</ele>
        <time>2022-06-25T13:37:30Z</time>
      </trkpt>
      <trkpt lat="46.25504" lon="4.6416">
        <ele>628.8</ele>
        <time>2022-06-25T13:37:31Z</time>
      </trkpt>
      <trkpt lat="46.25505" lon="4.64152">
        <ele>628.8</ele>
        <time>2022-06-25T13:37:32Z</time>
      </trkpt>
      <trkpt lat="46.25506" lon="4.64144">
        <ele>629.2</ele>
        <time>2022-06-25T13:37:33Z</time>
      </trkpt>
      <trkpt lat="46.25507" lon="4.64136">
        <ele>629.2</ele>
        <time>2022-06-25T13:37:34Z</time>
      </trkpt>
      <trkpt lat="46.25508" lon="4.64128">
        <ele>629.2</ele>
        <time>2022-06-25T13:37:35Z</time>
      </trkpt>
      <trkpt lat="46.25508" lon="4.64119">
        <ele>629.2</ele>
        <time>2022-06-25T13:37:36Z</time>
      </trkpt>
      <trkpt lat="46.25508" lon="4.6411">
        <ele>629.2</ele>
        <time>2022-06-25T13:37:37Z</time>
      </trkpt>
      <trkpt lat="46.25508" lon="4.64101">
        <ele>629.4</ele>
        <time>2022-06-25T13:37:38Z</time>
      </trkpt>
      <trkpt lat="46.25509" lon="4.64093">
        <ele>629.4</ele>
        <time>2022-06-25T13:37:39Z</time>
      </trkpt>
      <trkpt lat="46.25508" lon="4.64084">
        <ele>629.4</ele>
        <time>2022-06-25T13:37:40Z</time>
      </trkpt>
      <trkpt lat="46.25508" lon="4.64075">
        <ele>629.4</ele>
        <time>2022-06-25T13:37:41Z</time>
      </trkpt>
      <trkpt lat="46.25507" lon="4.64067">
        <ele>629.4</ele>
        <time>2022-06-25T13:37:42Z</time>
      </trkpt>
      <trkpt lat="46.25506" lon="4.64058">
        <ele>629.4</ele>
        <time>2022-06-25T13:37:43Z</time>
      </trkpt>
      <trkpt lat="46.25505" lon="4.6405">
        <ele>629.4</ele>
        <time>2022-06-25T13:37:44Z</time>
      </trkpt>
      <trkpt lat="46.25504" lon="4.64041">
        <ele>629.2</ele>
        <time>2022-06-25T13:37:45Z</time>
      </trkpt>
      <trkpt lat="46.25502" lon="4.64032">
        <ele>629.2</ele>
        <time>2022-06-25T13:37:46Z</time>
      </trkpt>
      <trkpt lat="46.25501" lon="4.64023">
        <ele>629.2</ele>
        <time>2022-06-25T13:37:47Z</time>
      </trkpt>
      <trkpt lat="46.25499" lon="4.64014">
        <ele>629</ele>
        <time>2022-06-25T13:37:48Z</time>
      </trkpt>
      <trkpt lat="46.25497" lon="4.64005">
        <ele>629</ele>
        <time>2022-06-25T13:37:49Z</time>
      </trkpt>
      <trkpt lat="46.25495" lon="4.63996">
        <ele>628.6</ele>
        <time>2022-06-25T13:37:50Z</time>
      </trkpt>
      <trkpt lat="46.25492" lon="4.63986">
        <ele>628.6</ele>
        <time>2022-06-25T13:37:51Z</time>
      </trkpt>
      <trkpt lat="46.25489" lon="4.63976">
        <ele>628.4</ele>
        <time>2022-06-25T13:37:52Z</time>
      </trkpt>
      <trkpt lat="46.25486" lon="4.63967">
        <ele>628.4</ele>
        <time>2022-06-25T13:37:53Z</time>
      </trkpt>
      <trkpt lat="46.25484" lon="4.63958">
        <ele>628.4</ele>
        <time>2022-06-25T13:37:54Z</time>
      </trkpt>
      <trkpt lat="46.25482" lon="4.63949">
        <ele>628.2</ele>
        <time>2022-06-25T13:37:55Z</time>
      </trkpt>
      <trkpt lat="46.2548" lon="4.63939">
        <ele>628.2</ele>
        <time>2022-06-25T13:37:56Z</time>
      </trkpt>
      <trkpt lat="46.25477" lon="4.6393">
        <ele>628.2</ele>
        <time>2022-06-25T13:37:57Z</time>
      </trkpt>
      <trkpt lat="46.25475" lon="4.6392">
        <ele>628</ele>
        <time>2022-06-25T13:37:58Z</time>
      </trkpt>
      <trkpt lat="46.25473" lon="4.63911">
        <ele>628</ele>
        <time>2022-06-25T13:37:59Z</time>
      </trkpt>
      <trkpt lat="46.2547" lon="4.63901">
        <ele>628</ele>
        <time>2022-06-25T13:38:00Z</time>
      </trkpt>
      <trkpt lat="46.25468" lon="4.63892">
        <ele>628</ele>
        <time>2022-06-25T13:38:01Z</time>
      </trkpt>
      <trkpt lat="46.25466" lon="4.63882">
        <ele>627.8</ele>
        <time>2022-06-25T13:38:02Z</time>
      </trkpt>
      <trkpt lat="46.25463" lon="4.63872">
        <ele>627.8</ele>
        <time>2022-06-25T13:38:03Z</time>
      </trkpt>
      <trkpt lat="46.25461" lon="4.63862">
        <ele>627.8</ele>
        <time>2022-06-25T13:38:04Z</time>
      </trkpt>
      <trkpt lat="46.25458" lon="4.63851">
        <ele>627.4</ele>
        <time>2022-06-25T13:38:05Z</time>
      </trkpt>
      <trkpt lat="46.25456" lon="4.63841">
        <ele>627.4</ele>
        <time>2022-06-25T13:38:06Z</time>
      </trkpt>
      <trkpt lat="46.25453" lon="4.63831">
        <ele>627.4</ele>
        <time>2022-06-25T13:38:07Z</time>
      </trkpt>
      <trkpt lat="46.25451" lon="4.63821">
        <ele>627.2</ele>
        <time>2022-06-25T13:38:08Z</time>
      </trkpt>
      <trkpt lat="46.25449" lon="4.63811">
        <ele>627.2</ele>
        <time>2022-06-25T13:38:09Z</time>
      </trkpt>
      <trkpt lat="46.25446" lon="4.63801">
        <ele>627.2</ele>
        <time>2022-06-25T13:38:10Z</time>
      </trkpt>
      <trkpt lat="46.25443" lon="4.63791">
        <ele>627</ele>
        <time>2022-06-25T13:38:11Z</time>
      </trkpt>
      <trkpt lat="46.25441" lon="4.63781">
        <ele>627</ele>
        <time>2022-06-25T13:38:12Z</time>
      </trkpt>
      <trkpt lat="46.25438" lon="4.6377">
        <ele>627</ele>
        <time>2022-06-25T13:38:13Z</time>
      </trkpt>
      <trkpt lat="46.25435" lon="4.63757">
        <ele>626.6</ele>
        <time>2022-06-25T13:38:14Z</time>
      </trkpt>
      <trkpt lat="46.25433" lon="4.63744">
        <ele>626.6</ele>
        <time>2022-06-25T13:38:15Z</time>
      </trkpt>
      <trkpt lat="46.25431" lon="4.63732">
        <ele>626.4</ele>
        <time>2022-06-25T13:38:16Z</time>
      </trkpt>
      <trkpt lat="46.2543" lon="4.6372">
        <ele>626.4</ele>
        <time>2022-06-25T13:38:17Z</time>
      </trkpt>
      <trkpt lat="46.25429" lon="4.63708">
        <ele>626.4</ele>
        <time>2022-06-25T13:38:18Z</time>
      </trkpt>
      <trkpt lat="46.25428" lon="4.63696">
        <ele>626.2</ele>
        <time>2022-06-25T13:38:19Z</time>
      </trkpt>
      <trkpt lat="46.25429" lon="4.63685">
        <ele>626.2</ele>
        <time>2022-06-25T13:38:20Z</time>
      </trkpt>
      <trkpt lat="46.25431" lon="4.63676">
        <ele>626.2</ele>
        <time>2022-06-25T13:38:21Z</time>
      </trkpt>
      <trkpt lat="46.25433" lon="4.63666">
        <ele>626</ele>
        <time>2022-06-25T13:38:22Z</time>
      </trkpt>
      <trkpt lat="46.25435" lon="4.63656">
        <ele>626</ele>
        <time>2022-06-25T13:38:23Z</time>
      </trkpt>
      <trkpt lat="46.25438" lon="4.63647">
        <ele>626</ele>
        <time>2022-06-25T13:38:24Z</time>
      </trkpt>
      <trkpt lat="46.25442" lon="4.63637">
        <ele>626</ele>
        <time>2022-06-25T13:38:25Z</time>
      </trkpt>
      <trkpt lat="46.25446" lon="4.63628">
        <ele>626</ele>
        <time>2022-06-25T13:38:26Z</time>
      </trkpt>
      <trkpt lat="46.2545" lon="4.63619">
        <ele>625.8</ele>
        <time>2022-06-25T13:38:27Z</time>
      </trkpt>
      <trkpt lat="46.25454" lon="4.6361">
        <ele>625.8</ele>
        <time>2022-06-25T13:38:28Z</time>
      </trkpt>
      <trkpt lat="46.25458" lon="4.63601">
        <ele>625.8</ele>
        <time>2022-06-25T13:38:29Z</time>
      </trkpt>
      <trkpt lat="46.25462" lon="4.63592">
        <ele>625.8</ele>
        <time>2022-06-25T13:38:30Z</time>
      </trkpt>
      <trkpt lat="46.25466" lon="4.63584">
        <ele>625.8</ele>
        <time>2022-06-25T13:38:31Z</time>
      </trkpt>
      <trkpt lat="46.2547" lon="4.63574">
        <ele>625.8</ele>
        <time>2022-06-25T13:38:32Z</time>
      </trkpt>
      <trkpt lat="46.25473" lon="4.63564">
        <ele>625.8</ele>
        <time>2022-06-25T13:38:33Z</time>
      </trkpt>
      <trkpt lat="46.25477" lon="4.63554">
        <ele>625.8</ele>
        <time>2022-06-25T13:38:34Z</time>
      </trkpt>
      <trkpt lat="46.25481" lon="4.63544">
        <ele>625.8</ele>
        <time>2022-06-25T13:38:35Z</time>
      </trkpt>
      <trkpt lat="46.25484" lon="4.63535">
        <ele>625.8</ele>
        <time>2022-06-25T13:38:36Z</time>
      </trkpt>
      <trkpt lat="46.25488" lon="4.63525">
        <ele>625.8</ele>
        <time>2022-06-25T13:38:37Z</time>
      </trkpt>
      <trkpt lat="46.25491" lon="4.63516">
        <ele>625.8</ele>
        <time>2022-06-25T13:38:38Z</time>
      </trkpt>
      <trkpt lat="46.25494" lon="4.63506">
        <ele>625.8</ele>
        <time>2022-06-25T13:38:39Z</time>
      </trkpt>
      <trkpt lat="46.25497" lon="4.63496">
        <ele>625.8</ele>
        <time>2022-06-25T13:38:40Z</time>
      </trkpt>
      <trkpt lat="46.25501" lon="4.63487">
        <ele>625.8</ele>
        <time>2022-06-25T13:38:41Z</time>
      </trkpt>
      <trkpt lat="46.25504" lon="4.63478">
        <ele>625.8</ele>
        <time>2022-06-25T13:38:42Z</time>
      </trkpt>
      <trkpt lat="46.25508" lon="4.63469">
        <ele>625.8</ele>
        <time>2022-06-25T13:38:43Z</time>
      </trkpt>
      <trkpt lat="46.25511" lon="4.6346">
        <ele>625.8</ele>
        <time>2022-06-25T13:38:44Z</time>
      </trkpt>
      <trkpt lat="46.25515" lon="4.63451">
        <ele>625.8</ele>
        <time>2022-06-25T13:38:45Z</time>
      </trkpt>
      <trkpt lat="46.25519" lon="4.63443">
        <ele>625.8</ele>
        <time>2022-06-25T13:38:46Z</time>
      </trkpt>
      <trkpt lat="46.25522" lon="4.63435">
        <ele>626</ele>
        <time>2022-06-25T13:38:47Z</time>
      </trkpt>
      <trkpt lat="46.25525" lon="4.63426">
        <ele>626</ele>
        <time>2022-06-25T13:38:48Z</time>
      </trkpt>
      <trkpt lat="46.25528" lon="4.63417">
        <ele>626</ele>
        <time>2022-06-25T13:38:49Z</time>
      </trkpt>
      <trkpt lat="46.25531" lon="4.63409">
        <ele>626.4</ele>
        <time>2022-06-25T13:38:50Z</time>
      </trkpt>
      <trkpt lat="46.25533" lon="4.634">
        <ele>626.4</ele>
        <time>2022-06-25T13:38:51Z</time>
      </trkpt>
      <trkpt lat="46.25535" lon="4.63391">
        <ele>626.4</ele>
        <time>2022-06-25T13:38:52Z</time>
      </trkpt>
      <trkpt lat="46.25537" lon="4.63382">
        <ele>626.4</ele>
        <time>2022-06-25T13:38:53Z</time>
      </trkpt>
      <trkpt lat="46.25539" lon="4.63373">
        <ele>626.2</ele>
        <time>2022-06-25T13:38:54Z</time>
      </trkpt>
      <trkpt lat="46.2554" lon="4.63364">
        <ele>626.2</ele>
        <time>2022-06-25T13:38:55Z</time>
      </trkpt>
      <trkpt lat="46.25541" lon="4.63354">
        <ele>626.2</ele>
        <time>2022-06-25T13:38:56Z</time>
      </trkpt>
      <trkpt lat="46.25542" lon="4.63345">
        <ele>626.2</ele>
        <time>2022-06-25T13:38:57Z</time>
      </trkpt>
      <trkpt lat="46.25543" lon="4.63335">
        <ele>626.2</ele>
        <time>2022-06-25T13:38:58Z</time>
      </trkpt>
      <trkpt lat="46.25543" lon="4.63326">
        <ele>626.2</ele>
        <time>2022-06-25T13:38:59Z</time>
      </trkpt>
      <trkpt lat="46.25543" lon="4.63316">
        <ele>626.2</ele>
        <time>2022-06-25T13:39:00Z</time>
      </trkpt>
      <trkpt lat="46.25543" lon="4.63307">
        <ele>626.2</ele>
        <time>2022-06-25T13:39:01Z</time>
      </trkpt>
      <trkpt lat="46.25543" lon="4.63298">
        <ele>626.2</ele>
        <time>2022-06-25T13:39:02Z</time>
      </trkpt>
      <trkpt lat="46.25542" lon="4.63289">
        <ele>626.2</ele>
        <time>2022-06-25T13:39:03Z</time>
      </trkpt>
      <trkpt lat="46.25541" lon="4.6328">
        <ele>626.2</ele>
        <time>2022-06-25T13:39:04Z</time>
      </trkpt>
      <trkpt lat="46.25541" lon="4.63271">
        <ele>626.2</ele>
        <time>2022-06-25T13:39:05Z</time>
      </trkpt>
      <trkpt lat="46.2554" lon="4.63262">
        <ele>626.4</ele>
        <time>2022-06-25T13:39:06Z</time>
      </trkpt>
      <trkpt lat="46.2554" lon="4.63252">
        <ele>626.4</ele>
        <time>2022-06-25T13:39:07Z</time>
      </trkpt>
      <trkpt lat="46.25539" lon="4.63243">
        <ele>626.4</ele>
        <time>2022-06-25T13:39:08Z</time>
      </trkpt>
      <trkpt lat="46.25539" lon="4.63234">
        <ele>626.6</ele>
        <time>2022-06-25T13:39:09Z</time>
      </trkpt>
      <trkpt lat="46.25538" lon="4.63225">
        <ele>626.6</ele>
        <time>2022-06-25T13:39:10Z</time>
      </trkpt>
      <trkpt lat="46.25537" lon="4.63216">
        <ele>626.6</ele>
        <time>2022-06-25T13:39:11Z</time>
      </trkpt>
      <trkpt lat="46.25537" lon="4.63207">
        <ele>626.6</ele>
        <time>2022-06-25T13:39:12Z</time>
      </trkpt>
      <trkpt lat="46.25536" lon="4.63198">
        <ele>627</ele>
        <time>2022-06-25T13:39:13Z</time>
      </trkpt>
      <trkpt lat="46.25536" lon="4.63189">
        <ele>627</ele>
        <time>2022-06-25T13:39:14Z</time>
      </trkpt>
      <trkpt lat="46.25535" lon="4.6318">
        <ele>627.4</ele>
        <time>2022-06-25T13:39:15Z</time>
      </trkpt>
      <trkpt lat="46.25535" lon="4.63171">
        <ele>627.4</ele>
        <time>2022-06-25T13:39:16Z</time>
      </trkpt>
      <trkpt lat="46.25534" lon="4.63162">
        <ele>627.6</ele>
        <time>2022-06-25T13:39:17Z</time>
      </trkpt>
      <trkpt lat="46.25534" lon="4.63154">
        <ele>627.6</ele>
        <time>2022-06-25T13:39:18Z</time>
      </trkpt>
      <trkpt lat="46.25533" lon="4.63145">
        <ele>627.6</ele>
        <time>2022-06-25T13:39:19Z</time>
      </trkpt>
      <trkpt lat="46.25533" lon="4.63136">
        <ele>627.6</ele>
        <time>2022-06-25T13:39:20Z</time>
      </trkpt>
      <trkpt lat="46.25532" lon="4.63128">
        <ele>627.6</ele>
        <time>2022-06-25T13:39:21Z</time>
      </trkpt>
      <trkpt lat="46.25532" lon="4.63119">
        <ele>627.8</ele>
        <time>2022-06-25T13:39:22Z</time>
      </trkpt>
      <trkpt lat="46.25532" lon="4.63111">
        <ele>627.8</ele>
        <time>2022-06-25T13:39:23Z</time>
      </trkpt>
      <trkpt lat="46.25531" lon="4.63102">
        <ele>628.2</ele>
        <time>2022-06-25T13:39:24Z</time>
      </trkpt>
      <trkpt lat="46.25531" lon="4.63094">
        <ele>628.2</ele>
        <time>2022-06-25T13:39:25Z</time>
      </trkpt>
      <trkpt lat="46.2553" lon="4.63086">
        <ele>628.4</ele>
        <time>2022-06-25T13:39:26Z</time>
      </trkpt>
      <trkpt lat="46.2553" lon="4.63077">
        <ele>628.4</ele>
        <time>2022-06-25T13:39:27Z</time>
      </trkpt>
      <trkpt lat="46.25529" lon="4.63069">
        <ele>628.8</ele>
        <time>2022-06-25T13:39:28Z</time>
      </trkpt>
      <trkpt lat="46.25529" lon="4.63061">
        <ele>628.8</ele>
        <time>2022-06-25T13:39:29Z</time>
      </trkpt>
      <trkpt lat="46.25528" lon="4.63052">
        <ele>629</ele>
        <time>2022-06-25T13:39:30Z</time>
      </trkpt>
      <trkpt lat="46.25528" lon="4.63044">
        <ele>629</ele>
        <time>2022-06-25T13:39:31Z</time>
      </trkpt>
      <trkpt lat="46.25527" lon="4.63036">
        <ele>629.4</ele>
        <time>2022-06-25T13:39:32Z</time>
      </trkpt>
      <trkpt lat="46.25527" lon="4.63028">
        <ele>629.4</ele>
        <time>2022-06-25T13:39:33Z</time>
      </trkpt>
      <trkpt lat="46.25526" lon="4.6302">
        <ele>629.6</ele>
        <time>2022-06-25T13:39:34Z</time>
      </trkpt>
      <trkpt lat="46.25526" lon="4.63012">
        <ele>629.6</ele>
        <time>2022-06-25T13:39:35Z</time>
      </trkpt>
      <trkpt lat="46.25525" lon="4.63004">
        <ele>629.8</ele>
        <time>2022-06-25T13:39:36Z</time>
      </trkpt>
      <trkpt lat="46.25525" lon="4.62996">
        <ele>629.8</ele>
        <time>2022-06-25T13:39:37Z</time>
      </trkpt>
      <trkpt lat="46.25524" lon="4.62987">
        <ele>629.8</ele>
        <time>2022-06-25T13:39:38Z</time>
      </trkpt>
      <trkpt lat="46.25524" lon="4.62979">
        <ele>629.8</ele>
        <time>2022-06-25T13:39:39Z</time>
      </trkpt>
      <trkpt lat="46.25523" lon="4.62971">
        <ele>630.2</ele>
        <time>2022-06-25T13:39:40Z</time>
      </trkpt>
      <trkpt lat="46.25523" lon="4.62963">
        <ele>630.2</ele>
        <time>2022-06-25T13:39:41Z</time>
      </trkpt>
      <trkpt lat="46.25523" lon="4.62955">
        <ele>630.4</ele>
        <time>2022-06-25T13:39:42Z</time>
      </trkpt>
      <trkpt lat="46.25522" lon="4.62946">
        <ele>630.4</ele>
        <time>2022-06-25T13:39:43Z</time>
      </trkpt>
      <trkpt lat="46.25522" lon="4.62938">
        <ele>630.8</ele>
        <time>2022-06-25T13:39:44Z</time>
      </trkpt>
      <trkpt lat="46.25521" lon="4.62931">
        <ele>630.8</ele>
        <time>2022-06-25T13:39:45Z</time>
      </trkpt>
      <trkpt lat="46.25521" lon="4.62923">
        <ele>631</ele>
        <time>2022-06-25T13:39:46Z</time>
      </trkpt>
      <trkpt lat="46.2552" lon="4.62915">
        <ele>631</ele>
        <time>2022-06-25T13:39:47Z</time>
      </trkpt>
      <trkpt lat="46.2552" lon="4.62908">
        <ele>631.4</ele>
        <time>2022-06-25T13:39:48Z</time>
      </trkpt>
      <trkpt lat="46.2552" lon="4.629">
        <ele>631.4</ele>
        <time>2022-06-25T13:39:49Z</time>
      </trkpt>
      <trkpt lat="46.25519" lon="4.62893">
        <ele>631.6</ele>
        <time>2022-06-25T13:39:50Z</time>
      </trkpt>
      <trkpt lat="46.25519" lon="4.62885">
        <ele>631.6</ele>
        <time>2022-06-25T13:39:51Z</time>
      </trkpt>
      <trkpt lat="46.25518" lon="4.62878">
        <ele>632</ele>
        <time>2022-06-25T13:39:52Z</time>
      </trkpt>
      <trkpt lat="46.25518" lon="4.62871">
        <ele>632</ele>
        <time>2022-06-25T13:39:53Z</time>
      </trkpt>
      <trkpt lat="46.25518" lon="4.62864">
        <ele>632.2</ele>
        <time>2022-06-25T13:39:54Z</time>
      </trkpt>
      <trkpt lat="46.25517" lon="4.62856">
        <ele>632.2</ele>
        <time>2022-06-25T13:39:55Z</time>
      </trkpt>
      <trkpt lat="46.25517" lon="4.62849">
        <ele>632.6</ele>
        <time>2022-06-25T13:39:56Z</time>
      </trkpt>
      <trkpt lat="46.25516" lon="4.62842">
        <ele>632.6</ele>
        <time>2022-06-25T13:39:57Z</time>
      </trkpt>
      <trkpt lat="46.25516" lon="4.62835">
        <ele>632.8</ele>
        <time>2022-06-25T13:39:58Z</time>
      </trkpt>
      <trkpt lat="46.25516" lon="4.62827">
        <ele>632.8</ele>
        <time>2022-06-25T13:39:59Z</time>
      </trkpt>
      <trkpt lat="46.25515" lon="4.6282">
        <ele>633</ele>
        <time>2022-06-25T13:40:01Z</time>
      </trkpt>
      <trkpt lat="46.25515" lon="4.62813">
        <ele>633.4</ele>
        <time>2022-06-25T13:40:02Z</time>
      </trkpt>
      <trkpt lat="46.25515" lon="4.62806">
        <ele>633.6</ele>
        <time>2022-06-25T13:40:03Z</time>
      </trkpt>
      <trkpt lat="46.25514" lon="4.62798">
        <ele>633.6</ele>
        <time>2022-06-25T13:40:04Z</time>
      </trkpt>
      <trkpt lat="46.25514" lon="4.62791">
        <ele>634</ele>
        <time>2022-06-25T13:40:05Z</time>
      </trkpt>
      <trkpt lat="46.25513" lon="4.62784">
        <ele>634</ele>
        <time>2022-06-25T13:40:06Z</time>
      </trkpt>
      <trkpt lat="46.25513" lon="4.62777">
        <ele>634</ele>
        <time>2022-06-25T13:40:07Z</time>
      </trkpt>
      <trkpt lat="46.25512" lon="4.62769">
        <ele>634.2</ele>
        <time>2022-06-25T13:40:08Z</time>
      </trkpt>
      <trkpt lat="46.25512" lon="4.62762">
        <ele>634.2</ele>
        <time>2022-06-25T13:40:09Z</time>
      </trkpt>
      <trkpt lat="46.25512" lon="4.62754">
        <ele>634.2</ele>
        <time>2022-06-25T13:40:10Z</time>
      </trkpt>
      <trkpt lat="46.25511" lon="4.62747">
        <ele>634.6</ele>
        <time>2022-06-25T13:40:11Z</time>
      </trkpt>
      <trkpt lat="46.25511" lon="4.62739">
        <ele>634.6</ele>
        <time>2022-06-25T13:40:12Z</time>
      </trkpt>
      <trkpt lat="46.2551" lon="4.62732">
        <ele>634.6</ele>
        <time>2022-06-25T13:40:13Z</time>
      </trkpt>
      <trkpt lat="46.25509" lon="4.62724">
        <ele>634.6</ele>
        <time>2022-06-25T13:40:14Z</time>
      </trkpt>
      <trkpt lat="46.25509" lon="4.62717">
        <ele>634.8</ele>
        <time>2022-06-25T13:40:15Z</time>
      </trkpt>
      <trkpt lat="46.25508" lon="4.6271">
        <ele>634.8</ele>
        <time>2022-06-25T13:40:16Z</time>
      </trkpt>
      <trkpt lat="46.25507" lon="4.62703">
        <ele>635.2</ele>
        <time>2022-06-25T13:40:17Z</time>
      </trkpt>
      <trkpt lat="46.25507" lon="4.62696">
        <ele>635.2</ele>
        <time>2022-06-25T13:40:18Z</time>
      </trkpt>
      <trkpt lat="46.25506" lon="4.62689">
        <ele>635.4</ele>
        <time>2022-06-25T13:40:19Z</time>
      </trkpt>
      <trkpt lat="46.25506" lon="4.62682">
        <ele>635.4</ele>
        <time>2022-06-25T13:40:20Z</time>
      </trkpt>
      <trkpt lat="46.25505" lon="4.62675">
        <ele>635.6</ele>
        <time>2022-06-25T13:40:21Z</time>
      </trkpt>
      <trkpt lat="46.25505" lon="4.62668">
        <ele>635.6</ele>
        <time>2022-06-25T13:40:22Z</time>
      </trkpt>
      <trkpt lat="46.25504" lon="4.62661">
        <ele>635.8</ele>
        <time>2022-06-25T13:40:23Z</time>
      </trkpt>
      <trkpt lat="46.25503" lon="4.62654">
        <ele>635.8</ele>
        <time>2022-06-25T13:40:24Z</time>
      </trkpt>
      <trkpt lat="46.25503" lon="4.62647">
        <ele>636.2</ele>
        <time>2022-06-25T13:40:25Z</time>
      </trkpt>
      <trkpt lat="46.25503" lon="4.6264">
        <ele>636.2</ele>
        <time>2022-06-25T13:40:26Z</time>
      </trkpt>
      <trkpt lat="46.25503" lon="4.62633">
        <ele>636.4</ele>
        <time>2022-06-25T13:40:27Z</time>
      </trkpt>
      <trkpt lat="46.25502" lon="4.62626">
        <ele>636.4</ele>
        <time>2022-06-25T13:40:28Z</time>
      </trkpt>
      <trkpt lat="46.25502" lon="4.62619">
        <ele>636.8</ele>
        <time>2022-06-25T13:40:29Z</time>
      </trkpt>
      <trkpt lat="46.25503" lon="4.62612">
        <ele>636.8</ele>
        <time>2022-06-25T13:40:30Z</time>
      </trkpt>
      <trkpt lat="46.25503" lon="4.62606">
        <ele>637</ele>
        <time>2022-06-25T13:40:31Z</time>
      </trkpt>
      <trkpt lat="46.25503" lon="4.62599">
        <ele>637</ele>
        <time>2022-06-25T13:40:32Z</time>
      </trkpt>
      <trkpt lat="46.25504" lon="4.62592">
        <ele>637.4</ele>
        <time>2022-06-25T13:40:33Z</time>
      </trkpt>
      <trkpt lat="46.25504" lon="4.62586">
        <ele>637.6</ele>
        <time>2022-06-25T13:40:34Z</time>
      </trkpt>
      <trkpt lat="46.25505" lon="4.6258">
        <ele>637.8</ele>
        <time>2022-06-25T13:40:35Z</time>
      </trkpt>
      <trkpt lat="46.25506" lon="4.62574">
        <ele>637.8</ele>
        <time>2022-06-25T13:40:36Z</time>
      </trkpt>
      <trkpt lat="46.25507" lon="4.62568">
        <ele>638.2</ele>
        <time>2022-06-25T13:40:37Z</time>
      </trkpt>
      <trkpt lat="46.25509" lon="4.62562">
        <ele>638.6</ele>
        <time>2022-06-25T13:40:38Z</time>
      </trkpt>
      <trkpt lat="46.2551" lon="4.62556">
        <ele>638.8</ele>
        <time>2022-06-25T13:40:39Z</time>
      </trkpt>
      <trkpt lat="46.25512" lon="4.6255">
        <ele>639</ele>
        <time>2022-06-25T13:40:40Z</time>
      </trkpt>
      <trkpt lat="46.25514" lon="4.62544">
        <ele>639.2</ele>
        <time>2022-06-25T13:40:41Z</time>
      </trkpt>
      <trkpt lat="46.25516" lon="4.62539">
        <ele>639.4</ele>
        <time>2022-06-25T13:40:42Z</time>
      </trkpt>
      <trkpt lat="46.25519" lon="4.62533">
        <ele>639.8</ele>
        <time>2022-06-25T13:40:43Z</time>
      </trkpt>
      <trkpt lat="46.25521" lon="4.62528">
        <ele>640</ele>
        <time>2022-06-25T13:40:44Z</time>
      </trkpt>
      <trkpt lat="46.25524" lon="4.62523">
        <ele>640.2</ele>
        <time>2022-06-25T13:40:45Z</time>
      </trkpt>
      <trkpt lat="46.25526" lon="4.62517">
        <ele>640.6</ele>
        <time>2022-06-25T13:40:46Z</time>
      </trkpt>
      <trkpt lat="46.25528" lon="4.62512">
        <ele>640.8</ele>
        <time>2022-06-25T13:40:47Z</time>
      </trkpt>
      <trkpt lat="46.2553" lon="4.62507">
        <ele>641</ele>
        <time>2022-06-25T13:40:48Z</time>
      </trkpt>
      <trkpt lat="46.25532" lon="4.62502">
        <ele>641</ele>
        <time>2022-06-25T13:40:49Z</time>
      </trkpt>
      <trkpt lat="46.25535" lon="4.62496">
        <ele>641.6</ele>
        <time>2022-06-25T13:40:50Z</time>
      </trkpt>
      <trkpt lat="46.25536" lon="4.62491">
        <ele>641.8</ele>
        <time>2022-06-25T13:40:51Z</time>
      </trkpt>
      <trkpt lat="46.25538" lon="4.62486">
        <ele>641.8</ele>
        <time>2022-06-25T13:40:52Z</time>
      </trkpt>
      <trkpt lat="46.2554" lon="4.6248">
        <ele>642.2</ele>
        <time>2022-06-25T13:40:53Z</time>
      </trkpt>
      <trkpt lat="46.25542" lon="4.62475">
        <ele>642.4</ele>
        <time>2022-06-25T13:40:54Z</time>
      </trkpt>
      <trkpt lat="46.25544" lon="4.6247">
        <ele>642.6</ele>
        <time>2022-06-25T13:40:55Z</time>
      </trkpt>
      <trkpt lat="46.25545" lon="4.62465">
        <ele>643</ele>
        <time>2022-06-25T13:40:56Z</time>
      </trkpt>
      <trkpt lat="46.25547" lon="4.6246">
        <ele>643</ele>
        <time>2022-06-25T13:40:57Z</time>
      </trkpt>
      <trkpt lat="46.25549" lon="4.62456">
        <ele>643.4</ele>
        <time>2022-06-25T13:40:58Z</time>
      </trkpt>
      <trkpt lat="46.25551" lon="4.62451">
        <ele>643.6</ele>
        <time>2022-06-25T13:40:59Z</time>
      </trkpt>
      <trkpt lat="46.25553" lon="4.62447">
        <ele>643.8</ele>
        <time>2022-06-25T13:41:00Z</time>
      </trkpt>
      <trkpt lat="46.25555" lon="4.62443">
        <ele>643.8</ele>
        <time>2022-06-25T13:41:01Z</time>
      </trkpt>
      <trkpt lat="46.25556" lon="4.62438">
        <ele>644.2</ele>
        <time>2022-06-25T13:41:02Z</time>
      </trkpt>
      <trkpt lat="46.25558" lon="4.62434">
        <ele>644.2</ele>
        <time>2022-06-25T13:41:03Z</time>
      </trkpt>
      <trkpt lat="46.25559" lon="4.6243">
        <ele>644.4</ele>
        <time>2022-06-25T13:41:04Z</time>
      </trkpt>
      <trkpt lat="46.25561" lon="4.62426">
        <ele>644.4</ele>
        <time>2022-06-25T13:41:05Z</time>
      </trkpt>
      <trkpt lat="46.25563" lon="4.62422">
        <ele>644.8</ele>
        <time>2022-06-25T13:41:06Z</time>
      </trkpt>
      <trkpt lat="46.25565" lon="4.62418">
        <ele>644.8</ele>
        <time>2022-06-25T13:41:07Z</time>
      </trkpt>
      <trkpt lat="46.25566" lon="4.62414">
        <ele>645.2</ele>
        <time>2022-06-25T13:41:08Z</time>
      </trkpt>
      <trkpt lat="46.25568" lon="4.62409">
        <ele>645.2</ele>
        <time>2022-06-25T13:41:09Z</time>
      </trkpt>
      <trkpt lat="46.25569" lon="4.62405">
        <ele>645.4</ele>
        <time>2022-06-25T13:41:10Z</time>
      </trkpt>
      <trkpt lat="46.25571" lon="4.624">
        <ele>645.4</ele>
        <time>2022-06-25T13:41:11Z</time>
      </trkpt>
      <trkpt lat="46.25572" lon="4.62396">
        <ele>645.6</ele>
        <time>2022-06-25T13:41:12Z</time>
      </trkpt>
      <trkpt lat="46.25574" lon="4.62392">
        <ele>645.6</ele>
        <time>2022-06-25T13:41:13Z</time>
      </trkpt>
      <trkpt lat="46.25575" lon="4.62387">
        <ele>646</ele>
        <time>2022-06-25T13:41:14Z</time>
      </trkpt>
      <trkpt lat="46.25577" lon="4.62383">
        <ele>646</ele>
        <time>2022-06-25T13:41:15Z</time>
      </trkpt>
      <trkpt lat="46.25578" lon="4.62379">
        <ele>646.2</ele>
        <time>2022-06-25T13:41:16Z</time>
      </trkpt>
      <trkpt lat="46.2558" lon="4.62375">
        <ele>646.2</ele>
        <time>2022-06-25T13:41:17Z</time>
      </trkpt>
      <trkpt lat="46.25581" lon="4.6237">
        <ele>646.6</ele>
        <time>2022-06-25T13:41:18Z</time>
      </trkpt>
      <trkpt lat="46.25583" lon="4.62366">
        <ele>646.6</ele>
        <time>2022-06-25T13:41:19Z</time>
      </trkpt>
      <trkpt lat="46.25584" lon="4.62361">
        <ele>647</ele>
        <time>2022-06-25T13:41:20Z</time>
      </trkpt>
      <trkpt lat="46.25586" lon="4.62357">
        <ele>647</ele>
        <time>2022-06-25T13:41:21Z</time>
      </trkpt>
      <trkpt lat="46.25588" lon="4.62353">
        <ele>647.2</ele>
        <time>2022-06-25T13:41:22Z</time>
      </trkpt>
      <trkpt lat="46.25589" lon="4.62349">
        <ele>647.2</ele>
        <time>2022-06-25T13:41:23Z</time>
      </trkpt>
      <trkpt lat="46.25591" lon="4.62344">
        <ele>647.6</ele>
        <time>2022-06-25T13:41:24Z</time>
      </trkpt>
      <trkpt lat="46.25592" lon="4.6234">
        <ele>647.6</ele>
        <time>2022-06-25T13:41:25Z</time>
      </trkpt>
      <trkpt lat="46.25594" lon="4.62336">
        <ele>648</ele>
        <time>2022-06-25T13:41:26Z</time>
      </trkpt>
      <trkpt lat="46.25595" lon="4.62331">
        <ele>648</ele>
        <time>2022-06-25T13:41:27Z</time>
      </trkpt>
      <trkpt lat="46.25597" lon="4.62327">
        <ele>648.2</ele>
        <time>2022-06-25T13:41:28Z</time>
      </trkpt>
      <trkpt lat="46.25599" lon="4.62323">
        <ele>648.2</ele>
        <time>2022-06-25T13:41:29Z</time>
      </trkpt>
      <trkpt lat="46.256" lon="4.62318">
        <ele>648.6</ele>
        <time>2022-06-25T13:41:30Z</time>
      </trkpt>
      <trkpt lat="46.25602" lon="4.62314">
        <ele>648.6</ele>
        <time>2022-06-25T13:41:31Z</time>
      </trkpt>
      <trkpt lat="46.25604" lon="4.6231">
        <ele>648.8</ele>
        <time>2022-06-25T13:41:32Z</time>
      </trkpt>
      <trkpt lat="46.25606" lon="4.62306">
        <ele>648.8</ele>
        <time>2022-06-25T13:41:33Z</time>
      </trkpt>
      <trkpt lat="46.25607" lon="4.62302">
        <ele>649</ele>
        <time>2022-06-25T13:41:34Z</time>
      </trkpt>
      <trkpt lat="46.25609" lon="4.62297">
        <ele>649</ele>
        <time>2022-06-25T13:41:35Z</time>
      </trkpt>
      <trkpt lat="46.25611" lon="4.62293">
        <ele>649.4</ele>
        <time>2022-06-25T13:41:36Z</time>
      </trkpt>
      <trkpt lat="46.25613" lon="4.62289">
        <ele>649.4</ele>
        <time>2022-06-25T13:41:37Z</time>
      </trkpt>
      <trkpt lat="46.25614" lon="4.62284">
        <ele>649.8</ele>
        <time>2022-06-25T13:41:38Z</time>
      </trkpt>
      <trkpt lat="46.25616" lon="4.6228">
        <ele>649.8</ele>
        <time>2022-06-25T13:41:39Z</time>
      </trkpt>
      <trkpt lat="46.25618" lon="4.62276">
        <ele>650</ele>
        <time>2022-06-25T13:41:40Z</time>
      </trkpt>
      <trkpt lat="46.2562" lon="4.62271">
        <ele>650</ele>
        <time>2022-06-25T13:41:41Z</time>
      </trkpt>
      <trkpt lat="46.25622" lon="4.62267">
        <ele>650.4</ele>
        <time>2022-06-25T13:41:42Z</time>
      </trkpt>
      <trkpt lat="46.25624" lon="4.62263">
        <ele>650.4</ele>
        <time>2022-06-25T13:41:43Z</time>
      </trkpt>
      <trkpt lat="46.25626" lon="4.62259">
        <ele>650.8</ele>
        <time>2022-06-25T13:41:44Z</time>
      </trkpt>
      <trkpt lat="46.25628" lon="4.62255">
        <ele>650.8</ele>
        <time>2022-06-25T13:41:45Z</time>
      </trkpt>
      <trkpt lat="46.2563" lon="4.62251">
        <ele>651.2</ele>
        <time>2022-06-25T13:41:46Z</time>
      </trkpt>
      <trkpt lat="46.25632" lon="4.62247">
        <ele>651.2</ele>
        <time>2022-06-25T13:41:47Z</time>
      </trkpt>
      <trkpt lat="46.25634" lon="4.62243">
        <ele>651.4</ele>
        <time>2022-06-25T13:41:48Z</time>
      </trkpt>
      <trkpt lat="46.25636" lon="4.62239">
        <ele>651.8</ele>
        <time>2022-06-25T13:41:49Z</time>
      </trkpt>
      <trkpt lat="46.25638" lon="4.62236">
        <ele>652</ele>
        <time>2022-06-25T13:41:50Z</time>
      </trkpt>
      <trkpt lat="46.2564" lon="4.62232">
        <ele>652.2</ele>
        <time>2022-06-25T13:41:51Z</time>
      </trkpt>
      <trkpt lat="46.25643" lon="4.62229">
        <ele>652.4</ele>
        <time>2022-06-25T13:41:52Z</time>
      </trkpt>
      <trkpt lat="46.25645" lon="4.62227">
        <ele>652.4</ele>
        <time>2022-06-25T13:41:53Z</time>
      </trkpt>
      <trkpt lat="46.25648" lon="4.62223">
        <ele>652.8</ele>
        <time>2022-06-25T13:41:54Z</time>
      </trkpt>
      <trkpt lat="46.2565" lon="4.6222">
        <ele>652.8</ele>
        <time>2022-06-25T13:41:55Z</time>
      </trkpt>
      <trkpt lat="46.25653" lon="4.62217">
        <ele>653</ele>
        <time>2022-06-25T13:41:56Z</time>
      </trkpt>
      <trkpt lat="46.25655" lon="4.62214">
        <ele>653.2</ele>
        <time>2022-06-25T13:41:57Z</time>
      </trkpt>
      <trkpt lat="46.25658" lon="4.62211">
        <ele>653.2</ele>
        <time>2022-06-25T13:41:58Z</time>
      </trkpt>
      <trkpt lat="46.2566" lon="4.62209">
        <ele>653.6</ele>
        <time>2022-06-25T13:41:59Z</time>
      </trkpt>
      <trkpt lat="46.25663" lon="4.62206">
        <ele>653.8</ele>
        <time>2022-06-25T13:42:00Z</time>
      </trkpt>
      <trkpt lat="46.25666" lon="4.62204">
        <ele>653.8</ele>
        <time>2022-06-25T13:42:01Z</time>
      </trkpt>
      <trkpt lat="46.25669" lon="4.62201">
        <ele>654</ele>
        <time>2022-06-25T13:42:02Z</time>
      </trkpt>
      <trkpt lat="46.25672" lon="4.62199">
        <ele>654</ele>
        <time>2022-06-25T13:42:03Z</time>
      </trkpt>
      <trkpt lat="46.25675" lon="4.62196">
        <ele>654.4</ele>
        <time>2022-06-25T13:42:04Z</time>
      </trkpt>
      <trkpt lat="46.25678" lon="4.62194">
        <ele>654.4</ele>
        <time>2022-06-25T13:42:05Z</time>
      </trkpt>
      <trkpt lat="46.2568" lon="4.62192">
        <ele>654.6</ele>
        <time>2022-06-25T13:42:06Z</time>
      </trkpt>
      <trkpt lat="46.25683" lon="4.6219">
        <ele>654.6</ele>
        <time>2022-06-25T13:42:07Z</time>
      </trkpt>
      <trkpt lat="46.25686" lon="4.62188">
        <ele>655</ele>
        <time>2022-06-25T13:42:08Z</time>
      </trkpt>
      <trkpt lat="46.2569" lon="4.62186">
        <ele>655</ele>
        <time>2022-06-25T13:42:09Z</time>
      </trkpt>
      <trkpt lat="46.25693" lon="4.62185">
        <ele>655.4</ele>
        <time>2022-06-25T13:42:10Z</time>
      </trkpt>
      <trkpt lat="46.25697" lon="4.62183">
        <ele>655.4</ele>
        <time>2022-06-25T13:42:11Z</time>
      </trkpt>
      <trkpt lat="46.257" lon="4.62182">
        <ele>655.6</ele>
        <time>2022-06-25T13:42:12Z</time>
      </trkpt>
      <trkpt lat="46.25704" lon="4.62181">
        <ele>656</ele>
        <time>2022-06-25T13:42:13Z</time>
      </trkpt>
      <trkpt lat="46.25707" lon="4.62181">
        <ele>656</ele>
        <time>2022-06-25T13:42:14Z</time>
      </trkpt>
      <trkpt lat="46.25711" lon="4.6218">
        <ele>656.2</ele>
        <time>2022-06-25T13:42:15Z</time>
      </trkpt>
      <trkpt lat="46.25714" lon="4.6218">
        <ele>656.2</ele>
        <time>2022-06-25T13:42:16Z</time>
      </trkpt>
      <trkpt lat="46.25718" lon="4.6218">
        <ele>656.6</ele>
        <time>2022-06-25T13:42:17Z</time>
      </trkpt>
      <trkpt lat="46.25721" lon="4.62181">
        <ele>656.8</ele>
        <time>2022-06-25T13:42:18Z</time>
      </trkpt>
      <trkpt lat="46.25724" lon="4.62181">
        <ele>657</ele>
        <time>2022-06-25T13:42:19Z</time>
      </trkpt>
      <trkpt lat="46.25728" lon="4.62182">
        <ele>657.2</ele>
        <time>2022-06-25T13:42:20Z</time>
      </trkpt>
      <trkpt lat="46.25731" lon="4.62184">
        <ele>657.2</ele>
        <time>2022-06-25T13:42:21Z</time>
      </trkpt>
      <trkpt lat="46.25735" lon="4.62185">
        <ele>657.6</ele>
        <time>2022-06-25T13:42:22Z</time>
      </trkpt>
      <trkpt lat="46.25738" lon="4.62187">
        <ele>657.6</ele>
        <time>2022-06-25T13:42:23Z</time>
      </trkpt>
      <trkpt lat="46.25741" lon="4.62189">
        <ele>657.8</ele>
        <time>2022-06-25T13:42:24Z</time>
      </trkpt>
      <trkpt lat="46.25744" lon="4.62192">
        <ele>657.8</ele>
        <time>2022-06-25T13:42:25Z</time>
      </trkpt>
      <trkpt lat="46.25747" lon="4.62194">
        <ele>658.2</ele>
        <time>2022-06-25T13:42:26Z</time>
      </trkpt>
      <trkpt lat="46.25751" lon="4.62197">
        <ele>658.2</ele>
        <time>2022-06-25T13:42:27Z</time>
      </trkpt>
      <trkpt lat="46.25754" lon="4.62199">
        <ele>658.4</ele>
        <time>2022-06-25T13:42:28Z</time>
      </trkpt>
      <trkpt lat="46.25757" lon="4.62202">
        <ele>658.4</ele>
        <time>2022-06-25T13:42:29Z</time>
      </trkpt>
      <trkpt lat="46.2576" lon="4.62204">
        <ele>658.8</ele>
        <time>2022-06-25T13:42:30Z</time>
      </trkpt>
      <trkpt lat="46.25763" lon="4.62207">
        <ele>658.8</ele>
        <time>2022-06-25T13:42:31Z</time>
      </trkpt>
      <trkpt lat="46.25766" lon="4.62209">
        <ele>658.8</ele>
        <time>2022-06-25T13:42:32Z</time>
      </trkpt>
      <trkpt lat="46.25769" lon="4.62211">
        <ele>659.2</ele>
        <time>2022-06-25T13:42:33Z</time>
      </trkpt>
      <trkpt lat="46.25773" lon="4.62214">
        <ele>659.2</ele>
        <time>2022-06-25T13:42:34Z</time>
      </trkpt>
      <trkpt lat="46.25776" lon="4.62216">
        <ele>659.4</ele>
        <time>2022-06-25T13:42:35Z</time>
      </trkpt>
      <trkpt lat="46.25779" lon="4.62219">
        <ele>659.4</ele>
        <time>2022-06-25T13:42:36Z</time>
      </trkpt>
      <trkpt lat="46.25782" lon="4.62221">
        <ele>659.6</ele>
        <time>2022-06-25T13:42:37Z</time>
      </trkpt>
      <trkpt lat="46.25786" lon="4.62223">
        <ele>659.6</ele>
        <time>2022-06-25T13:42:38Z</time>
      </trkpt>
      <trkpt lat="46.25789" lon="4.62225">
        <ele>659.6</ele>
        <time>2022-06-25T13:42:39Z</time>
      </trkpt>
      <trkpt lat="46.25793" lon="4.62227">
        <ele>659.8</ele>
        <time>2022-06-25T13:42:40Z</time>
      </trkpt>
      <trkpt lat="46.25796" lon="4.6223">
        <ele>659.8</ele>
        <time>2022-06-25T13:42:41Z</time>
      </trkpt>
      <trkpt lat="46.258" lon="4.62232">
        <ele>660</ele>
        <time>2022-06-25T13:42:42Z</time>
      </trkpt>
      <trkpt lat="46.25803" lon="4.62233">
        <ele>660</ele>
        <time>2022-06-25T13:42:43Z</time>
      </trkpt>
      <trkpt lat="46.25806" lon="4.62235">
        <ele>660</ele>
        <time>2022-06-25T13:42:44Z</time>
      </trkpt>
      <trkpt lat="46.2581" lon="4.62237">
        <ele>660</ele>
        <time>2022-06-25T13:42:45Z</time>
      </trkpt>
      <trkpt lat="46.25814" lon="4.62239">
        <ele>660</ele>
        <time>2022-06-25T13:42:46Z</time>
      </trkpt>
      <trkpt lat="46.25817" lon="4.62241">
        <ele>660</ele>
        <time>2022-06-25T13:42:47Z</time>
      </trkpt>
      <trkpt lat="46.25822" lon="4.62242">
        <ele>660</ele>
        <time>2022-06-25T13:42:48Z</time>
      </trkpt>
      <trkpt lat="46.25826" lon="4.62242">
        <ele>660</ele>
        <time>2022-06-25T13:42:49Z</time>
      </trkpt>
      <trkpt lat="46.2583" lon="4.6224">
        <ele>660</ele>
        <time>2022-06-25T13:42:50Z</time>
      </trkpt>
      <trkpt lat="46.25834" lon="4.62236">
        <ele>660</ele>
        <time>2022-06-25T13:42:51Z</time>
      </trkpt>
      <trkpt lat="46.25838" lon="4.6223">
        <ele>660</ele>
        <time>2022-06-25T13:42:52Z</time>
      </trkpt>
      <trkpt lat="46.2584" lon="4.62224">
        <ele>660</ele>
        <time>2022-06-25T13:42:53Z</time>
      </trkpt>
      <trkpt lat="46.25842" lon="4.62217">
        <ele>660</ele>
        <time>2022-06-25T13:42:54Z</time>
      </trkpt>
      <trkpt lat="46.25844" lon="4.6221">
        <ele>660</ele>
        <time>2022-06-25T13:42:55Z</time>
      </trkpt>
      <trkpt lat="46.25845" lon="4.62203">
        <ele>660</ele>
        <time>2022-06-25T13:42:56Z</time>
      </trkpt>
      <trkpt lat="46.25846" lon="4.62195">
        <ele>660</ele>
        <time>2022-06-25T13:42:57Z</time>
      </trkpt>
      <trkpt lat="46.25846" lon="4.62186">
        <ele>660</ele>
        <time>2022-06-25T13:42:58Z</time>
      </trkpt>
      <trkpt lat="46.25847" lon="4.62173">
        <ele>660</ele>
        <time>2022-06-25T13:42:59Z</time>
      </trkpt>
      <trkpt lat="46.25847" lon="4.62169">
        <ele>660</ele>
        <time>2022-06-25T13:43:00Z</time>
      </trkpt>
      <trkpt lat="46.25847" lon="4.6216">
        <ele>660</ele>
        <time>2022-06-25T13:43:01Z</time>
      </trkpt>
      <trkpt lat="46.25846" lon="4.62151">
        <ele>660</ele>
        <time>2022-06-25T13:43:02Z</time>
      </trkpt>
      <trkpt lat="46.25845" lon="4.62143">
        <ele>660</ele>
        <time>2022-06-25T13:43:03Z</time>
      </trkpt>
      <trkpt lat="46.25844" lon="4.62135">
        <ele>660</ele>
        <time>2022-06-25T13:43:04Z</time>
      </trkpt>
      <trkpt lat="46.25843" lon="4.62127">
        <ele>660</ele>
        <time>2022-06-25T13:43:05Z</time>
      </trkpt>
      <trkpt lat="46.25842" lon="4.6212">
        <ele>660.2</ele>
        <time>2022-06-25T13:43:06Z</time>
      </trkpt>
      <trkpt lat="46.25841" lon="4.62113">
        <ele>660.4</ele>
        <time>2022-06-25T13:43:07Z</time>
      </trkpt>
      <trkpt lat="46.2584" lon="4.62106">
        <ele>660.4</ele>
        <time>2022-06-25T13:43:08Z</time>
      </trkpt>
      <trkpt lat="46.25839" lon="4.62101">
        <ele>660.8</ele>
        <time>2022-06-25T13:43:09Z</time>
      </trkpt>
      <trkpt lat="46.25838" lon="4.62096">
        <ele>661.2</ele>
        <time>2022-06-25T13:43:10Z</time>
      </trkpt>
      <trkpt lat="46.25837" lon="4.62091">
        <ele>661.2</ele>
        <time>2022-06-25T13:43:11Z</time>
      </trkpt>
      <trkpt lat="46.25836" lon="4.62088">
        <ele>661.6</ele>
        <time>2022-06-25T13:43:12Z</time>
      </trkpt>
      <trkpt lat="46.25836" lon="4.62084">
        <ele>661.8</ele>
        <time>2022-06-25T13:43:13Z</time>
      </trkpt>
      <trkpt lat="46.25835" lon="4.62081">
        <ele>661.8</ele>
        <time>2022-06-25T13:43:14Z</time>
      </trkpt>
      <trkpt lat="46.25835" lon="4.62078">
        <ele>662</ele>
        <time>2022-06-25T13:43:15Z</time>
      </trkpt>
      <trkpt lat="46.25834" lon="4.62074">
        <ele>662.4</ele>
        <time>2022-06-25T13:43:16Z</time>
      </trkpt>
      <trkpt lat="46.25833" lon="4.6207">
        <ele>662.4</ele>
        <time>2022-06-25T13:43:17Z</time>
      </trkpt>
      <trkpt lat="46.25832" lon="4.62067">
        <ele>662.8</ele>
        <time>2022-06-25T13:43:18Z</time>
      </trkpt>
      <trkpt lat="46.25831" lon="4.62063">
        <ele>662.8</ele>
        <time>2022-06-25T13:43:19Z</time>
      </trkpt>
      <trkpt lat="46.25829" lon="4.62059">
        <ele>663</ele>
        <time>2022-06-25T13:43:20Z</time>
      </trkpt>
      <trkpt lat="46.25828" lon="4.62055">
        <ele>663</ele>
        <time>2022-06-25T13:43:21Z</time>
      </trkpt>
      <trkpt lat="46.25826" lon="4.62052">
        <ele>663.4</ele>
        <time>2022-06-25T13:43:22Z</time>
      </trkpt>
      <trkpt lat="46.25824" lon="4.62049">
        <ele>663.6</ele>
        <time>2022-06-25T13:43:23Z</time>
      </trkpt>
      <trkpt lat="46.25822" lon="4.62045">
        <ele>663.8</ele>
        <time>2022-06-25T13:43:24Z</time>
      </trkpt>
      <trkpt lat="46.2582" lon="4.62042">
        <ele>664.2</ele>
        <time>2022-06-25T13:43:25Z</time>
      </trkpt>
      <trkpt lat="46.25818" lon="4.62039">
        <ele>664.2</ele>
        <time>2022-06-25T13:43:26Z</time>
      </trkpt>
      <trkpt lat="46.25816" lon="4.62036">
        <ele>664.4</ele>
        <time>2022-06-25T13:43:27Z</time>
      </trkpt>
      <trkpt lat="46.25814" lon="4.62033">
        <ele>664.8</ele>
        <time>2022-06-25T13:43:28Z</time>
      </trkpt>
      <trkpt lat="46.25812" lon="4.6203">
        <ele>665</ele>
        <time>2022-06-25T13:43:29Z</time>
      </trkpt>
      <trkpt lat="46.2581" lon="4.62028">
        <ele>665.4</ele>
        <time>2022-06-25T13:43:30Z</time>
      </trkpt>
      <trkpt lat="46.25808" lon="4.62025">
        <ele>665.6</ele>
        <time>2022-06-25T13:43:31Z</time>
      </trkpt>
      <trkpt lat="46.25807" lon="4.62022">
        <ele>665.8</ele>
        <time>2022-06-25T13:43:32Z</time>
      </trkpt>
      <trkpt lat="46.25805" lon="4.62019">
        <ele>666</ele>
        <time>2022-06-25T13:43:33Z</time>
      </trkpt>
      <trkpt lat="46.25803" lon="4.62016">
        <ele>666.4</ele>
        <time>2022-06-25T13:43:34Z</time>
      </trkpt>
      <trkpt lat="46.25801" lon="4.62015">
        <ele>666.4</ele>
        <time>2022-06-25T13:43:35Z</time>
      </trkpt>
      <trkpt lat="46.25799" lon="4.62013">
        <ele>666.8</ele>
        <time>2022-06-25T13:43:36Z</time>
      </trkpt>
      <trkpt lat="46.25797" lon="4.62012">
        <ele>667</ele>
        <time>2022-06-25T13:43:37Z</time>
      </trkpt>
      <trkpt lat="46.25794" lon="4.62011">
        <ele>667</ele>
        <time>2022-06-25T13:43:38Z</time>
      </trkpt>
      <trkpt lat="46.25791" lon="4.62009">
        <ele>667.6</ele>
        <time>2022-06-25T13:43:39Z</time>
      </trkpt>
      <trkpt lat="46.25788" lon="4.62008">
        <ele>667.6</ele>
        <time>2022-06-25T13:43:40Z</time>
      </trkpt>
      <trkpt lat="46.25785" lon="4.62007">
        <ele>667.8</ele>
        <time>2022-06-25T13:43:41Z</time>
      </trkpt>
      <trkpt lat="46.25782" lon="4.62006">
        <ele>667.8</ele>
        <time>2022-06-25T13:43:42Z</time>
      </trkpt>
      <trkpt lat="46.25779" lon="4.62004">
        <ele>668.2</ele>
        <time>2022-06-25T13:43:43Z</time>
      </trkpt>
      <trkpt lat="46.25776" lon="4.62003">
        <ele>668.2</ele>
        <time>2022-06-25T13:43:44Z</time>
      </trkpt>
      <trkpt lat="46.25773" lon="4.62002">
        <ele>668.6</ele>
        <time>2022-06-25T13:43:45Z</time>
      </trkpt>
      <trkpt lat="46.25769" lon="4.62001">
        <ele>668.6</ele>
        <time>2022-06-25T13:43:46Z</time>
      </trkpt>
      <trkpt lat="46.25766" lon="4.62">
        <ele>668.6</ele>
        <time>2022-06-25T13:43:47Z</time>
      </trkpt>
      <trkpt lat="46.25764" lon="4.61999">
        <ele>668.8</ele>
        <time>2022-06-25T13:43:48Z</time>
      </trkpt>
      <trkpt lat="46.25761" lon="4.61998">
        <ele>668.8</ele>
        <time>2022-06-25T13:43:49Z</time>
      </trkpt>
      <trkpt lat="46.25758" lon="4.61997">
        <ele>669</ele>
        <time>2022-06-25T13:43:50Z</time>
      </trkpt>
      <trkpt lat="46.25755" lon="4.61996">
        <ele>669</ele>
        <time>2022-06-25T13:43:51Z</time>
      </trkpt>
      <trkpt lat="46.25752" lon="4.61994">
        <ele>669.4</ele>
        <time>2022-06-25T13:43:52Z</time>
      </trkpt>
      <trkpt lat="46.25749" lon="4.61993">
        <ele>669.4</ele>
        <time>2022-06-25T13:43:53Z</time>
      </trkpt>
      <trkpt lat="46.25746" lon="4.61992">
        <ele>669.6</ele>
        <time>2022-06-25T13:43:54Z</time>
      </trkpt>
      <trkpt lat="46.25743" lon="4.61991">
        <ele>669.6</ele>
        <time>2022-06-25T13:43:55Z</time>
      </trkpt>
      <trkpt lat="46.2574" lon="4.6199">
        <ele>669.8</ele>
        <time>2022-06-25T13:43:56Z</time>
      </trkpt>
      <trkpt lat="46.25737" lon="4.61989">
        <ele>669.8</ele>
        <time>2022-06-25T13:43:57Z</time>
      </trkpt>
      <trkpt lat="46.25734" lon="4.61988">
        <ele>669.8</ele>
        <time>2022-06-25T13:43:58Z</time>
      </trkpt>
      <trkpt lat="46.25731" lon="4.61987">
        <ele>670.2</ele>
        <time>2022-06-25T13:43:59Z</time>
      </trkpt>
      <trkpt lat="46.25728" lon="4.61987">
        <ele>670.2</ele>
        <time>2022-06-25T13:44:00Z</time>
      </trkpt>
      <trkpt lat="46.25725" lon="4.61986">
        <ele>670.2</ele>
        <time>2022-06-25T13:44:01Z</time>
      </trkpt>
      <trkpt lat="46.25722" lon="4.61985">
        <ele>670.4</ele>
        <time>2022-06-25T13:44:02Z</time>
      </trkpt>
      <trkpt lat="46.25719" lon="4.61985">
        <ele>670.4</ele>
        <time>2022-06-25T13:44:03Z</time>
      </trkpt>
      <trkpt lat="46.25716" lon="4.61984">
        <ele>670.6</ele>
        <time>2022-06-25T13:44:04Z</time>
      </trkpt>
      <trkpt lat="46.25713" lon="4.61983">
        <ele>670.8</ele>
        <time>2022-06-25T13:44:05Z</time>
      </trkpt>
      <trkpt lat="46.2571" lon="4.61982">
        <ele>670.8</ele>
        <time>2022-06-25T13:44:06Z</time>
      </trkpt>
      <trkpt lat="46.25707" lon="4.6198">
        <ele>671.2</ele>
        <time>2022-06-25T13:44:07Z</time>
      </trkpt>
      <trkpt lat="46.25704" lon="4.61979">
        <ele>671.4</ele>
        <time>2022-06-25T13:44:08Z</time>
      </trkpt>
      <trkpt lat="46.25701" lon="4.61977">
        <ele>671.6</ele>
        <time>2022-06-25T13:44:09Z</time>
      </trkpt>
      <trkpt lat="46.25698" lon="4.61976">
        <ele>671.8</ele>
        <time>2022-06-25T13:44:10Z</time>
      </trkpt>
      <trkpt lat="46.25695" lon="4.61975">
        <ele>672.2</ele>
        <time>2022-06-25T13:44:11Z</time>
      </trkpt>
      <trkpt lat="46.25692" lon="4.61973">
        <ele>672.4</ele>
        <time>2022-06-25T13:44:12Z</time>
      </trkpt>
      <trkpt lat="46.25689" lon="4.61972">
        <ele>672.6</ele>
        <time>2022-06-25T13:44:13Z</time>
      </trkpt>
      <trkpt lat="46.25686" lon="4.6197">
        <ele>672.8</ele>
        <time>2022-06-25T13:44:14Z</time>
      </trkpt>
      <trkpt lat="46.25683" lon="4.61969">
        <ele>673</ele>
        <time>2022-06-25T13:44:15Z</time>
      </trkpt>
      <trkpt lat="46.25681" lon="4.61968">
        <ele>673.4</ele>
        <time>2022-06-25T13:44:16Z</time>
      </trkpt>
      <trkpt lat="46.25678" lon="4.61966">
        <ele>673.8</ele>
        <time>2022-06-25T13:44:17Z</time>
      </trkpt>
      <trkpt lat="46.25675" lon="4.61965">
        <ele>673.8</ele>
        <time>2022-06-25T13:44:18Z</time>
      </trkpt>
      <trkpt lat="46.25673" lon="4.61963">
        <ele>674.2</ele>
        <time>2022-06-25T13:44:19Z</time>
      </trkpt>
      <trkpt lat="46.2567" lon="4.61962">
        <ele>674.2</ele>
        <time>2022-06-25T13:44:20Z</time>
      </trkpt>
      <trkpt lat="46.25668" lon="4.6196">
        <ele>674.8</ele>
        <time>2022-06-25T13:44:21Z</time>
      </trkpt>
      <trkpt lat="46.25665" lon="4.61959">
        <ele>674.8</ele>
        <time>2022-06-25T13:44:22Z</time>
      </trkpt>
      <trkpt lat="46.25663" lon="4.61958">
        <ele>675</ele>
        <time>2022-06-25T13:44:23Z</time>
      </trkpt>
      <trkpt lat="46.25661" lon="4.61956">
        <ele>675.4</ele>
        <time>2022-06-25T13:44:24Z</time>
      </trkpt>
      <trkpt lat="46.25658" lon="4.61955">
        <ele>675.6</ele>
        <time>2022-06-25T13:44:25Z</time>
      </trkpt>
      <trkpt lat="46.25656" lon="4.61953">
        <ele>675.8</ele>
        <time>2022-06-25T13:44:26Z</time>
      </trkpt>
      <trkpt lat="46.25654" lon="4.61951">
        <ele>675.8</ele>
        <time>2022-06-25T13:44:27Z</time>
      </trkpt>
      <trkpt lat="46.25652" lon="4.6195">
        <ele>676.2</ele>
        <time>2022-06-25T13:44:28Z</time>
      </trkpt>
      <trkpt lat="46.25649" lon="4.61949">
        <ele>676.2</ele>
        <time>2022-06-25T13:44:29Z</time>
      </trkpt>
      <trkpt lat="46.25647" lon="4.61948">
        <ele>676.6</ele>
        <time>2022-06-25T13:44:30Z</time>
      </trkpt>
      <trkpt lat="46.25644" lon="4.61947">
        <ele>676.6</ele>
        <time>2022-06-25T13:44:31Z</time>
      </trkpt>
      <trkpt lat="46.25642" lon="4.61945">
        <ele>676.8</ele>
        <time>2022-06-25T13:44:32Z</time>
      </trkpt>
      <trkpt lat="46.25639" lon="4.61945">
        <ele>676.8</ele>
        <time>2022-06-25T13:44:33Z</time>
      </trkpt>
      <trkpt lat="46.25636" lon="4.61944">
        <ele>677.2</ele>
        <time>2022-06-25T13:44:34Z</time>
      </trkpt>
      <trkpt lat="46.25633" lon="4.61944">
        <ele>677.2</ele>
        <time>2022-06-25T13:44:35Z</time>
      </trkpt>
      <trkpt lat="46.2563" lon="4.61944">
        <ele>677.4</ele>
        <time>2022-06-25T13:44:36Z</time>
      </trkpt>
      <trkpt lat="46.25627" lon="4.61943">
        <ele>677.4</ele>
        <time>2022-06-25T13:44:37Z</time>
      </trkpt>
      <trkpt lat="46.25624" lon="4.61942">
        <ele>677.8</ele>
        <time>2022-06-25T13:44:38Z</time>
      </trkpt>
      <trkpt lat="46.25621" lon="4.61942">
        <ele>677.8</ele>
        <time>2022-06-25T13:44:40Z</time>
      </trkpt>
      <trkpt lat="46.25618" lon="4.61942">
        <ele>677.8</ele>
        <time>2022-06-25T13:44:41Z</time>
      </trkpt>
      <trkpt lat="46.25614" lon="4.61942">
        <ele>678</ele>
        <time>2022-06-25T13:44:42Z</time>
      </trkpt>
      <trkpt lat="46.25611" lon="4.61942">
        <ele>678</ele>
        <time>2022-06-25T13:44:43Z</time>
      </trkpt>
      <trkpt lat="46.25608" lon="4.61942">
        <ele>678</ele>
        <time>2022-06-25T13:44:44Z</time>
      </trkpt>
      <trkpt lat="46.25604" lon="4.61942">
        <ele>678.2</ele>
        <time>2022-06-25T13:44:45Z</time>
      </trkpt>
      <trkpt lat="46.25601" lon="4.61942">
        <ele>678.2</ele>
        <time>2022-06-25T13:44:46Z</time>
      </trkpt>
      <trkpt lat="46.25598" lon="4.61942">
        <ele>678.4</ele>
        <time>2022-06-25T13:44:47Z</time>
      </trkpt>
      <trkpt lat="46.25594" lon="4.61942">
        <ele>678.4</ele>
        <time>2022-06-25T13:44:48Z</time>
      </trkpt>
      <trkpt lat="46.25591" lon="4.61943">
        <ele>678.6</ele>
        <time>2022-06-25T13:44:49Z</time>
      </trkpt>
      <trkpt lat="46.25588" lon="4.61943">
        <ele>678.6</ele>
        <time>2022-06-25T13:44:50Z</time>
      </trkpt>
      <trkpt lat="46.25584" lon="4.61943">
        <ele>679</ele>
        <time>2022-06-25T13:44:51Z</time>
      </trkpt>
      <trkpt lat="46.25581" lon="4.61943">
        <ele>679</ele>
        <time>2022-06-25T13:44:52Z</time>
      </trkpt>
      <trkpt lat="46.25577" lon="4.61943">
        <ele>679</ele>
        <time>2022-06-25T13:44:53Z</time>
      </trkpt>
      <trkpt lat="46.25573" lon="4.61944">
        <ele>679.2</ele>
        <time>2022-06-25T13:44:54Z</time>
      </trkpt>
      <trkpt lat="46.25569" lon="4.61944">
        <ele>679.2</ele>
        <time>2022-06-25T13:44:55Z</time>
      </trkpt>
      <trkpt lat="46.25565" lon="4.61945">
        <ele>679.2</ele>
        <time>2022-06-25T13:44:56Z</time>
      </trkpt>
      <trkpt lat="46.25561" lon="4.61946">
        <ele>679.2</ele>
        <time>2022-06-25T13:44:57Z</time>
      </trkpt>
      <trkpt lat="46.25557" lon="4.61947">
        <ele>679.4</ele>
        <time>2022-06-25T13:44:58Z</time>
      </trkpt>
      <trkpt lat="46.25552" lon="4.61947">
        <ele>679.4</ele>
        <time>2022-06-25T13:44:59Z</time>
      </trkpt>
      <trkpt lat="46.25548" lon="4.61948">
        <ele>679.4</ele>
        <time>2022-06-25T13:45:00Z</time>
      </trkpt>
      <trkpt lat="46.25543" lon="4.61948">
        <ele>679.4</ele>
        <time>2022-06-25T13:45:01Z</time>
      </trkpt>
      <trkpt lat="46.25539" lon="4.61949">
        <ele>679.4</ele>
        <time>2022-06-25T13:45:02Z</time>
      </trkpt>
      <trkpt lat="46.25534" lon="4.61949">
        <ele>679.4</ele>
        <time>2022-06-25T13:45:03Z</time>
      </trkpt>
      <trkpt lat="46.25529" lon="4.61948">
        <ele>679.4</ele>
        <time>2022-06-25T13:45:04Z</time>
      </trkpt>
      <trkpt lat="46.25524" lon="4.61948">
        <ele>679.6</ele>
        <time>2022-06-25T13:45:05Z</time>
      </trkpt>
      <trkpt lat="46.25519" lon="4.61946">
        <ele>679.6</ele>
        <time>2022-06-25T13:45:06Z</time>
      </trkpt>
      <trkpt lat="46.25514" lon="4.61944">
        <ele>679.8</ele>
        <time>2022-06-25T13:45:07Z</time>
      </trkpt>
      <trkpt lat="46.25509" lon="4.61941">
        <ele>679.8</ele>
        <time>2022-06-25T13:45:08Z</time>
      </trkpt>
      <trkpt lat="46.25505" lon="4.61937">
        <ele>679.8</ele>
        <time>2022-06-25T13:45:09Z</time>
      </trkpt>
      <trkpt lat="46.25501" lon="4.61932">
        <ele>679.8</ele>
        <time>2022-06-25T13:45:10Z</time>
      </trkpt>
      <trkpt lat="46.25498" lon="4.61927">
        <ele>679.8</ele>
        <time>2022-06-25T13:45:11Z</time>
      </trkpt>
      <trkpt lat="46.25494" lon="4.61922">
        <ele>680</ele>
        <time>2022-06-25T13:45:12Z</time>
      </trkpt>
      <trkpt lat="46.2549" lon="4.61918">
        <ele>680</ele>
        <time>2022-06-25T13:45:13Z</time>
      </trkpt>
      <trkpt lat="46.25486" lon="4.61913">
        <ele>680</ele>
        <time>2022-06-25T13:45:14Z</time>
      </trkpt>
      <trkpt lat="46.25481" lon="4.61907">
        <ele>680</ele>
        <time>2022-06-25T13:45:15Z</time>
      </trkpt>
      <trkpt lat="46.25477" lon="4.61902">
        <ele>680</ele>
        <time>2022-06-25T13:45:16Z</time>
      </trkpt>
      <trkpt lat="46.25473" lon="4.61897">
        <ele>680</ele>
        <time>2022-06-25T13:45:17Z</time>
      </trkpt>
      <trkpt lat="46.25469" lon="4.61892">
        <ele>680.4</ele>
        <time>2022-06-25T13:45:18Z</time>
      </trkpt>
      <trkpt lat="46.25465" lon="4.61887">
        <ele>680.4</ele>
        <time>2022-06-25T13:45:19Z</time>
      </trkpt>
      <trkpt lat="46.2546" lon="4.61882">
        <ele>680.4</ele>
        <time>2022-06-25T13:45:20Z</time>
      </trkpt>
      <trkpt lat="46.25456" lon="4.61876">
        <ele>680.4</ele>
        <time>2022-06-25T13:45:21Z</time>
      </trkpt>
      <trkpt lat="46.25452" lon="4.61871">
        <ele>680.4</ele>
        <time>2022-06-25T13:45:22Z</time>
      </trkpt>
      <trkpt lat="46.25447" lon="4.61866">
        <ele>680.4</ele>
        <time>2022-06-25T13:45:23Z</time>
      </trkpt>
      <trkpt lat="46.25443" lon="4.61861">
        <ele>680</ele>
        <time>2022-06-25T13:45:24Z</time>
      </trkpt>
      <trkpt lat="46.25438" lon="4.61855">
        <ele>680</ele>
        <time>2022-06-25T13:45:25Z</time>
      </trkpt>
      <trkpt lat="46.25434" lon="4.6185">
        <ele>680</ele>
        <time>2022-06-25T13:45:26Z</time>
      </trkpt>
      <trkpt lat="46.25429" lon="4.61844">
        <ele>679.6</ele>
        <time>2022-06-25T13:45:27Z</time>
      </trkpt>
      <trkpt lat="46.25423" lon="4.61839">
        <ele>679.6</ele>
        <time>2022-06-25T13:45:28Z</time>
      </trkpt>
      <trkpt lat="46.25418" lon="4.61833">
        <ele>679.2</ele>
        <time>2022-06-25T13:45:29Z</time>
      </trkpt>
      <trkpt lat="46.25412" lon="4.61827">
        <ele>679</ele>
        <time>2022-06-25T13:45:30Z</time>
      </trkpt>
      <trkpt lat="46.25406" lon="4.61821">
        <ele>678.6</ele>
        <time>2022-06-25T13:45:31Z</time>
      </trkpt>
      <trkpt lat="46.254" lon="4.61815">
        <ele>678.4</ele>
        <time>2022-06-25T13:45:32Z</time>
      </trkpt>
      <trkpt lat="46.25394" lon="4.61808">
        <ele>678.2</ele>
        <time>2022-06-25T13:45:33Z</time>
      </trkpt>
      <trkpt lat="46.25388" lon="4.61801">
        <ele>677.8</ele>
        <time>2022-06-25T13:45:34Z</time>
      </trkpt>
      <trkpt lat="46.25382" lon="4.61794">
        <ele>677.6</ele>
        <time>2022-06-25T13:45:35Z</time>
      </trkpt>
      <trkpt lat="46.25376" lon="4.61786">
        <ele>677.4</ele>
        <time>2022-06-25T13:45:36Z</time>
      </trkpt>
      <trkpt lat="46.2537" lon="4.61777">
        <ele>676.8</ele>
        <time>2022-06-25T13:45:37Z</time>
      </trkpt>
      <trkpt lat="46.25366" lon="4.61767">
        <ele>676.4</ele>
        <time>2022-06-25T13:45:38Z</time>
      </trkpt>
      <trkpt lat="46.25362" lon="4.61756">
        <ele>675.8</ele>
        <time>2022-06-25T13:45:39Z</time>
      </trkpt>
      <trkpt lat="46.25357" lon="4.61744">
        <ele>675.6</ele>
        <time>2022-06-25T13:45:40Z</time>
      </trkpt>
      <trkpt lat="46.25347" lon="4.61718">
        <ele>674.6</ele>
        <time>2022-06-25T13:45:41Z</time>
      </trkpt>
      <trkpt lat="46.25341" lon="4.61706">
        <ele>674.2</ele>
        <time>2022-06-25T13:45:42Z</time>
      </trkpt>
      <trkpt lat="46.25336" lon="4.61695">
        <ele>673.8</ele>
        <time>2022-06-25T13:45:43Z</time>
      </trkpt>
      <trkpt lat="46.25329" lon="4.61684">
        <ele>673.2</ele>
        <time>2022-06-25T13:45:44Z</time>
      </trkpt>
      <trkpt lat="46.25326" lon="4.61671">
        <ele>672.8</ele>
        <time>2022-06-25T13:45:45Z</time>
      </trkpt>
      <trkpt lat="46.25323" lon="4.61657">
        <ele>672.8</ele>
        <time>2022-06-25T13:45:46Z</time>
      </trkpt>
      <trkpt lat="46.25323" lon="4.61644">
        <ele>672.8</ele>
        <time>2022-06-25T13:45:47Z</time>
      </trkpt>
      <trkpt lat="46.25323" lon="4.61633">
        <ele>672.8</ele>
        <time>2022-06-25T13:45:48Z</time>
      </trkpt>
      <trkpt lat="46.25323" lon="4.61621">
        <ele>672.8</ele>
        <time>2022-06-25T13:45:49Z</time>
      </trkpt>
      <trkpt lat="46.25323" lon="4.61611">
        <ele>673.2</ele>
        <time>2022-06-25T13:45:50Z</time>
      </trkpt>
      <trkpt lat="46.25324" lon="4.61602">
        <ele>673.4</ele>
        <time>2022-06-25T13:45:51Z</time>
      </trkpt>
      <trkpt lat="46.25325" lon="4.61592">
        <ele>673.4</ele>
        <time>2022-06-25T13:45:52Z</time>
      </trkpt>
      <trkpt lat="46.25326" lon="4.61584">
        <ele>673.8</ele>
        <time>2022-06-25T13:45:53Z</time>
      </trkpt>
      <trkpt lat="46.25328" lon="4.61575">
        <ele>673.8</ele>
        <time>2022-06-25T13:45:54Z</time>
      </trkpt>
      <trkpt lat="46.2533" lon="4.61568">
        <ele>674.2</ele>
        <time>2022-06-25T13:45:56Z</time>
      </trkpt>
      <trkpt lat="46.25332" lon="4.61561">
        <ele>674.4</ele>
        <time>2022-06-25T13:45:57Z</time>
      </trkpt>
      <trkpt lat="46.25334" lon="4.61554">
        <ele>674.4</ele>
        <time>2022-06-25T13:45:58Z</time>
      </trkpt>
      <trkpt lat="46.25335" lon="4.61548">
        <ele>674.8</ele>
        <time>2022-06-25T13:45:59Z</time>
      </trkpt>
      <trkpt lat="46.25337" lon="4.61542">
        <ele>675</ele>
        <time>2022-06-25T13:46:00Z</time>
      </trkpt>
      <trkpt lat="46.25338" lon="4.61536">
        <ele>675.4</ele>
        <time>2022-06-25T13:46:01Z</time>
      </trkpt>
      <trkpt lat="46.2534" lon="4.6153">
        <ele>675.6</ele>
        <time>2022-06-25T13:46:02Z</time>
      </trkpt>
      <trkpt lat="46.25341" lon="4.61524">
        <ele>675.8</ele>
        <time>2022-06-25T13:46:03Z</time>
      </trkpt>
      <trkpt lat="46.25342" lon="4.61518">
        <ele>676.2</ele>
        <time>2022-06-25T13:46:04Z</time>
      </trkpt>
      <trkpt lat="46.25342" lon="4.61512">
        <ele>676.4</ele>
        <time>2022-06-25T13:46:05Z</time>
      </trkpt>
      <trkpt lat="46.25343" lon="4.61506">
        <ele>676.8</ele>
        <time>2022-06-25T13:46:06Z</time>
      </trkpt>
      <trkpt lat="46.25344" lon="4.615">
        <ele>677</ele>
        <time>2022-06-25T13:46:07Z</time>
      </trkpt>
      <trkpt lat="46.25345" lon="4.61494">
        <ele>677.4</ele>
        <time>2022-06-25T13:46:08Z</time>
      </trkpt>
      <trkpt lat="46.25345" lon="4.61488">
        <ele>677.6</ele>
        <time>2022-06-25T13:46:09Z</time>
      </trkpt>
      <trkpt lat="46.25345" lon="4.61482">
        <ele>677.8</ele>
        <time>2022-06-25T13:46:10Z</time>
      </trkpt>
      <trkpt lat="46.25344" lon="4.61476">
        <ele>677.8</ele>
        <time>2022-06-25T13:46:11Z</time>
      </trkpt>
      <trkpt lat="46.25343" lon="4.61469">
        <ele>678</ele>
        <time>2022-06-25T13:46:12Z</time>
      </trkpt>
      <trkpt lat="46.25341" lon="4.61463">
        <ele>678</ele>
        <time>2022-06-25T13:46:13Z</time>
      </trkpt>
      <trkpt lat="46.25339" lon="4.61457">
        <ele>678.4</ele>
        <time>2022-06-25T13:46:14Z</time>
      </trkpt>
      <trkpt lat="46.25337" lon="4.61451">
        <ele>678.4</ele>
        <time>2022-06-25T13:46:15Z</time>
      </trkpt>
      <trkpt lat="46.25334" lon="4.61446">
        <ele>678.6</ele>
        <time>2022-06-25T13:46:16Z</time>
      </trkpt>
      <trkpt lat="46.25332" lon="4.61441">
        <ele>678.8</ele>
        <time>2022-06-25T13:46:17Z</time>
      </trkpt>
      <trkpt lat="46.25329" lon="4.61437">
        <ele>679.2</ele>
        <time>2022-06-25T13:46:18Z</time>
      </trkpt>
      <trkpt lat="46.25326" lon="4.61432">
        <ele>679.4</ele>
        <time>2022-06-25T13:46:19Z</time>
      </trkpt>
      <trkpt lat="46.25323" lon="4.61429">
        <ele>679.8</ele>
        <time>2022-06-25T13:46:20Z</time>
      </trkpt>
      <trkpt lat="46.2532" lon="4.61425">
        <ele>680</ele>
        <time>2022-06-25T13:46:21Z</time>
      </trkpt>
      <trkpt lat="46.25317" lon="4.61421">
        <ele>680.2</ele>
        <time>2022-06-25T13:46:22Z</time>
      </trkpt>
      <trkpt lat="46.25314" lon="4.61417">
        <ele>680.4</ele>
        <time>2022-06-25T13:46:23Z</time>
      </trkpt>
      <trkpt lat="46.25311" lon="4.61414">
        <ele>680.4</ele>
        <time>2022-06-25T13:46:24Z</time>
      </trkpt>
      <trkpt lat="46.25308" lon="4.6141">
        <ele>680.8</ele>
        <time>2022-06-25T13:46:25Z</time>
      </trkpt>
      <trkpt lat="46.25304" lon="4.61407">
        <ele>680.8</ele>
        <time>2022-06-25T13:46:26Z</time>
      </trkpt>
      <trkpt lat="46.25301" lon="4.61404">
        <ele>681.2</ele>
        <time>2022-06-25T13:46:27Z</time>
      </trkpt>
      <trkpt lat="46.25298" lon="4.61401">
        <ele>681.2</ele>
        <time>2022-06-25T13:46:28Z</time>
      </trkpt>
      <trkpt lat="46.25292" lon="4.61395">
        <ele>681.6</ele>
        <time>2022-06-25T13:46:29Z</time>
      </trkpt>
      <trkpt lat="46.25288" lon="4.61392">
        <ele>681.6</ele>
        <time>2022-06-25T13:46:30Z</time>
      </trkpt>
      <trkpt lat="46.25285" lon="4.61389">
        <ele>681.8</ele>
        <time>2022-06-25T13:46:31Z</time>
      </trkpt>
      <trkpt lat="46.25282" lon="4.61385">
        <ele>681.8</ele>
        <time>2022-06-25T13:46:32Z</time>
      </trkpt>
      <trkpt lat="46.25279" lon="4.61382">
        <ele>682.2</ele>
        <time>2022-06-25T13:46:33Z</time>
      </trkpt>
      <trkpt lat="46.25277" lon="4.61379">
        <ele>682.4</ele>
        <time>2022-06-25T13:46:34Z</time>
      </trkpt>
      <trkpt lat="46.25274" lon="4.61376">
        <ele>682.8</ele>
        <time>2022-06-25T13:46:35Z</time>
      </trkpt>
      <trkpt lat="46.25271" lon="4.61372">
        <ele>683</ele>
        <time>2022-06-25T13:46:36Z</time>
      </trkpt>
      <trkpt lat="46.25268" lon="4.6137">
        <ele>683.4</ele>
        <time>2022-06-25T13:46:37Z</time>
      </trkpt>
      <trkpt lat="46.25263" lon="4.61364">
        <ele>683.6</ele>
        <time>2022-06-25T13:46:38Z</time>
      </trkpt>
      <trkpt lat="46.2526" lon="4.61361">
        <ele>683.8</ele>
        <time>2022-06-25T13:46:39Z</time>
      </trkpt>
      <trkpt lat="46.25257" lon="4.61359">
        <ele>684.2</ele>
        <time>2022-06-25T13:46:40Z</time>
      </trkpt>
      <trkpt lat="46.25253" lon="4.61357">
        <ele>684.4</ele>
        <time>2022-06-25T13:46:41Z</time>
      </trkpt>
      <trkpt lat="46.2525" lon="4.61356">
        <ele>684.4</ele>
        <time>2022-06-25T13:46:42Z</time>
      </trkpt>
      <trkpt lat="46.25246" lon="4.61356">
        <ele>684.8</ele>
        <time>2022-06-25T13:46:43Z</time>
      </trkpt>
      <trkpt lat="46.25242" lon="4.61357">
        <ele>685</ele>
        <time>2022-06-25T13:46:44Z</time>
      </trkpt>
      <trkpt lat="46.25239" lon="4.61358">
        <ele>685</ele>
        <time>2022-06-25T13:46:45Z</time>
      </trkpt>
      <trkpt lat="46.25235" lon="4.61359">
        <ele>685.2</ele>
        <time>2022-06-25T13:46:46Z</time>
      </trkpt>
      <trkpt lat="46.25231" lon="4.61359">
        <ele>685.2</ele>
        <time>2022-06-25T13:46:47Z</time>
      </trkpt>
      <trkpt lat="46.25227" lon="4.61359">
        <ele>685.6</ele>
        <time>2022-06-25T13:46:48Z</time>
      </trkpt>
      <trkpt lat="46.25224" lon="4.6136">
        <ele>685.6</ele>
        <time>2022-06-25T13:46:49Z</time>
      </trkpt>
      <trkpt lat="46.2522" lon="4.6136">
        <ele>685.8</ele>
        <time>2022-06-25T13:46:50Z</time>
      </trkpt>
      <trkpt lat="46.25216" lon="4.61361">
        <ele>685.8</ele>
        <time>2022-06-25T13:46:51Z</time>
      </trkpt>
      <trkpt lat="46.25212" lon="4.61362">
        <ele>686.2</ele>
        <time>2022-06-25T13:46:52Z</time>
      </trkpt>
      <trkpt lat="46.25209" lon="4.61362">
        <ele>686.2</ele>
        <time>2022-06-25T13:46:53Z</time>
      </trkpt>
      <trkpt lat="46.25205" lon="4.61363">
        <ele>686.4</ele>
        <time>2022-06-25T13:46:54Z</time>
      </trkpt>
      <trkpt lat="46.25201" lon="4.61363">
        <ele>686.4</ele>
        <time>2022-06-25T13:46:55Z</time>
      </trkpt>
      <trkpt lat="46.25197" lon="4.61363">
        <ele>686.6</ele>
        <time>2022-06-25T13:46:56Z</time>
      </trkpt>
      <trkpt lat="46.25193" lon="4.61363">
        <ele>686.6</ele>
        <time>2022-06-25T13:46:57Z</time>
      </trkpt>
      <trkpt lat="46.25189" lon="4.61363">
        <ele>686.8</ele>
        <time>2022-06-25T13:46:58Z</time>
      </trkpt>
      <trkpt lat="46.25185" lon="4.61363">
        <ele>686.8</ele>
        <time>2022-06-25T13:46:59Z</time>
      </trkpt>
      <trkpt lat="46.25182" lon="4.61364">
        <ele>687.2</ele>
        <time>2022-06-25T13:47:00Z</time>
      </trkpt>
      <trkpt lat="46.25178" lon="4.61364">
        <ele>687.2</ele>
        <time>2022-06-25T13:47:01Z</time>
      </trkpt>
      <trkpt lat="46.25175" lon="4.61364">
        <ele>687.6</ele>
        <time>2022-06-25T13:47:02Z</time>
      </trkpt>
      <trkpt lat="46.25171" lon="4.61364">
        <ele>687.8</ele>
        <time>2022-06-25T13:47:03Z</time>
      </trkpt>
      <trkpt lat="46.25168" lon="4.61364">
        <ele>687.8</ele>
        <time>2022-06-25T13:47:04Z</time>
      </trkpt>
      <trkpt lat="46.25164" lon="4.61365">
        <ele>688.2</ele>
        <time>2022-06-25T13:47:05Z</time>
      </trkpt>
      <trkpt lat="46.25161" lon="4.61365">
        <ele>688.4</ele>
        <time>2022-06-25T13:47:06Z</time>
      </trkpt>
      <trkpt lat="46.25157" lon="4.61366">
        <ele>688.8</ele>
        <time>2022-06-25T13:47:07Z</time>
      </trkpt>
      <trkpt lat="46.25153" lon="4.61366">
        <ele>689</ele>
        <time>2022-06-25T13:47:08Z</time>
      </trkpt>
      <trkpt lat="46.2515" lon="4.61367">
        <ele>689.2</ele>
        <time>2022-06-25T13:47:09Z</time>
      </trkpt>
      <trkpt lat="46.25146" lon="4.61369">
        <ele>689.2</ele>
        <time>2022-06-25T13:47:10Z</time>
      </trkpt>
      <trkpt lat="46.25143" lon="4.6137">
        <ele>689.6</ele>
        <time>2022-06-25T13:47:11Z</time>
      </trkpt>
      <trkpt lat="46.25139" lon="4.61371">
        <ele>689.6</ele>
        <time>2022-06-25T13:47:12Z</time>
      </trkpt>
      <trkpt lat="46.25136" lon="4.61372">
        <ele>690</ele>
        <time>2022-06-25T13:47:13Z</time>
      </trkpt>
      <trkpt lat="46.25133" lon="4.61374">
        <ele>690</ele>
        <time>2022-06-25T13:47:14Z</time>
      </trkpt>
      <trkpt lat="46.2513" lon="4.61375">
        <ele>690.4</ele>
        <time>2022-06-25T13:47:15Z</time>
      </trkpt>
      <trkpt lat="46.25127" lon="4.61377">
        <ele>690.4</ele>
        <time>2022-06-25T13:47:16Z</time>
      </trkpt>
      <trkpt lat="46.25124" lon="4.61379">
        <ele>690.6</ele>
        <time>2022-06-25T13:47:17Z</time>
      </trkpt>
      <trkpt lat="46.25121" lon="4.61381">
        <ele>690.6</ele>
        <time>2022-06-25T13:47:18Z</time>
      </trkpt>
      <trkpt lat="46.25118" lon="4.61382">
        <ele>691</ele>
        <time>2022-06-25T13:47:19Z</time>
      </trkpt>
      <trkpt lat="46.25114" lon="4.61384">
        <ele>691.4</ele>
        <time>2022-06-25T13:47:20Z</time>
      </trkpt>
      <trkpt lat="46.25111" lon="4.61385">
        <ele>691.4</ele>
        <time>2022-06-25T13:47:21Z</time>
      </trkpt>
      <trkpt lat="46.25108" lon="4.61386">
        <ele>691.6</ele>
        <time>2022-06-25T13:47:22Z</time>
      </trkpt>
      <trkpt lat="46.25105" lon="4.61386">
        <ele>691.6</ele>
        <time>2022-06-25T13:47:23Z</time>
      </trkpt>
      <trkpt lat="46.25102" lon="4.61385">
        <ele>692</ele>
        <time>2022-06-25T13:47:24Z</time>
      </trkpt>
      <trkpt lat="46.25098" lon="4.61383">
        <ele>692</ele>
        <time>2022-06-25T13:47:25Z</time>
      </trkpt>
      <trkpt lat="46.25095" lon="4.61381">
        <ele>692</ele>
        <time>2022-06-25T13:47:26Z</time>
      </trkpt>
      <trkpt lat="46.25092" lon="4.61377">
        <ele>692.2</ele>
        <time>2022-06-25T13:47:27Z</time>
      </trkpt>
      <trkpt lat="46.25089" lon="4.61371">
        <ele>692.2</ele>
        <time>2022-06-25T13:47:28Z</time>
      </trkpt>
      <trkpt lat="46.25088" lon="4.61365">
        <ele>692.2</ele>
        <time>2022-06-25T13:47:29Z</time>
      </trkpt>
      <trkpt lat="46.25087" lon="4.61362">
        <ele>692</ele>
        <time>2022-06-25T13:47:30Z</time>
      </trkpt>
      <trkpt lat="46.25087" lon="4.61358">
        <ele>691.8</ele>
        <time>2022-06-25T13:47:31Z</time>
      </trkpt>
      <trkpt lat="46.25087" lon="4.6135">
        <ele>691.8</ele>
        <time>2022-06-25T13:47:32Z</time>
      </trkpt>
      <trkpt lat="46.25087" lon="4.61343">
        <ele>691.4</ele>
        <time>2022-06-25T13:47:33Z</time>
      </trkpt>
      <trkpt lat="46.25088" lon="4.61334">
        <ele>691.2</ele>
        <time>2022-06-25T13:47:34Z</time>
      </trkpt>
      <trkpt lat="46.25089" lon="4.61325">
        <ele>690.8</ele>
        <time>2022-06-25T13:47:35Z</time>
      </trkpt>
      <trkpt lat="46.25091" lon="4.61316">
        <ele>690.6</ele>
        <time>2022-06-25T13:47:36Z</time>
      </trkpt>
      <trkpt lat="46.25093" lon="4.61307">
        <ele>690.2</ele>
        <time>2022-06-25T13:47:37Z</time>
      </trkpt>
      <trkpt lat="46.25096" lon="4.61297">
        <ele>690</ele>
        <time>2022-06-25T13:47:38Z</time>
      </trkpt>
      <trkpt lat="46.25098" lon="4.61286">
        <ele>689.6</ele>
        <time>2022-06-25T13:47:39Z</time>
      </trkpt>
      <trkpt lat="46.251" lon="4.61275">
        <ele>689.2</ele>
        <time>2022-06-25T13:47:40Z</time>
      </trkpt>
      <trkpt lat="46.25101" lon="4.61264">
        <ele>688.8</ele>
        <time>2022-06-25T13:47:41Z</time>
      </trkpt>
      <trkpt lat="46.25102" lon="4.61253">
        <ele>688.2</ele>
        <time>2022-06-25T13:47:42Z</time>
      </trkpt>
      <trkpt lat="46.25101" lon="4.61241">
        <ele>687.6</ele>
        <time>2022-06-25T13:47:43Z</time>
      </trkpt>
      <trkpt lat="46.25096" lon="4.61219">
        <ele>687</ele>
        <time>2022-06-25T13:47:44Z</time>
      </trkpt>
      <trkpt lat="46.25092" lon="4.61209">
        <ele>686.6</ele>
        <time>2022-06-25T13:47:45Z</time>
      </trkpt>
      <trkpt lat="46.25087" lon="4.61199">
        <ele>686.2</ele>
        <time>2022-06-25T13:47:46Z</time>
      </trkpt>
      <trkpt lat="46.25082" lon="4.61191">
        <ele>685.6</ele>
        <time>2022-06-25T13:47:47Z</time>
      </trkpt>
      <trkpt lat="46.25075" lon="4.61182">
        <ele>685.2</ele>
        <time>2022-06-25T13:47:48Z</time>
      </trkpt>
      <trkpt lat="46.25069" lon="4.61175">
        <ele>684.8</ele>
        <time>2022-06-25T13:47:49Z</time>
      </trkpt>
      <trkpt lat="46.25061" lon="4.61167">
        <ele>684</ele>
        <time>2022-06-25T13:47:50Z</time>
      </trkpt>
      <trkpt lat="46.25052" lon="4.6116">
        <ele>683.4</ele>
        <time>2022-06-25T13:47:51Z</time>
      </trkpt>
      <trkpt lat="46.25043" lon="4.61154">
        <ele>682.8</ele>
        <time>2022-06-25T13:47:52Z</time>
      </trkpt>
      <trkpt lat="46.25033" lon="4.61148">
        <ele>682.2</ele>
        <time>2022-06-25T13:47:53Z</time>
      </trkpt>
      <trkpt lat="46.25022" lon="4.61142">
        <ele>681.6</ele>
        <time>2022-06-25T13:47:54Z</time>
      </trkpt>
      <trkpt lat="46.25011" lon="4.61138">
        <ele>681</ele>
        <time>2022-06-25T13:47:55Z</time>
      </trkpt>
      <trkpt lat="46.25" lon="4.61136">
        <ele>680.4</ele>
        <time>2022-06-25T13:47:56Z</time>
      </trkpt>
      <trkpt lat="46.2499" lon="4.61134">
        <ele>679.8</ele>
        <time>2022-06-25T13:47:57Z</time>
      </trkpt>
      <trkpt lat="46.24979" lon="4.61133">
        <ele>679.4</ele>
        <time>2022-06-25T13:47:58Z</time>
      </trkpt>
      <trkpt lat="46.24968" lon="4.61132">
        <ele>678.8</ele>
        <time>2022-06-25T13:47:59Z</time>
      </trkpt>
      <trkpt lat="46.24957" lon="4.61133">
        <ele>678.4</ele>
        <time>2022-06-25T13:48:00Z</time>
      </trkpt>
      <trkpt lat="46.24946" lon="4.61136">
        <ele>677.8</ele>
        <time>2022-06-25T13:48:01Z</time>
      </trkpt>
      <trkpt lat="46.24936" lon="4.61138">
        <ele>677.4</ele>
        <time>2022-06-25T13:48:02Z</time>
      </trkpt>
      <trkpt lat="46.24926" lon="4.61142">
        <ele>677.2</ele>
        <time>2022-06-25T13:48:03Z</time>
      </trkpt>
      <trkpt lat="46.24916" lon="4.61146">
        <ele>677</ele>
        <time>2022-06-25T13:48:04Z</time>
      </trkpt>
      <trkpt lat="46.24908" lon="4.61151">
        <ele>677</ele>
        <time>2022-06-25T13:48:05Z</time>
      </trkpt>
      <trkpt lat="46.24899" lon="4.61156">
        <ele>676.6</ele>
        <time>2022-06-25T13:48:06Z</time>
      </trkpt>
      <trkpt lat="46.2489" lon="4.61162">
        <ele>676.6</ele>
        <time>2022-06-25T13:48:07Z</time>
      </trkpt>
      <trkpt lat="46.24882" lon="4.61167">
        <ele>676.6</ele>
        <time>2022-06-25T13:48:08Z</time>
      </trkpt>
      <trkpt lat="46.24874" lon="4.61171">
        <ele>676.6</ele>
        <time>2022-06-25T13:48:09Z</time>
      </trkpt>
      <trkpt lat="46.24867" lon="4.61176">
        <ele>676.6</ele>
        <time>2022-06-25T13:48:11Z</time>
      </trkpt>
      <trkpt lat="46.2486" lon="4.6118">
        <ele>676.6</ele>
        <time>2022-06-25T13:48:12Z</time>
      </trkpt>
      <trkpt lat="46.24853" lon="4.61183">
        <ele>676.8</ele>
        <time>2022-06-25T13:48:13Z</time>
      </trkpt>
      <trkpt lat="46.24847" lon="4.61187">
        <ele>676.8</ele>
        <time>2022-06-25T13:48:14Z</time>
      </trkpt>
      <trkpt lat="46.24841" lon="4.61189">
        <ele>677.2</ele>
        <time>2022-06-25T13:48:15Z</time>
      </trkpt>
      <trkpt lat="46.24835" lon="4.61192">
        <ele>677.2</ele>
        <time>2022-06-25T13:48:16Z</time>
      </trkpt>
      <trkpt lat="46.24829" lon="4.61194">
        <ele>677.4</ele>
        <time>2022-06-25T13:48:17Z</time>
      </trkpt>
      <trkpt lat="46.24817" lon="4.61197">
        <ele>677.8</ele>
        <time>2022-06-25T13:48:18Z</time>
      </trkpt>
      <trkpt lat="46.24811" lon="4.61198">
        <ele>678.2</ele>
        <time>2022-06-25T13:48:19Z</time>
      </trkpt>
      <trkpt lat="46.24805" lon="4.61199">
        <ele>678.4</ele>
        <time>2022-06-25T13:48:20Z</time>
      </trkpt>
      <trkpt lat="46.248" lon="4.61199">
        <ele>678.4</ele>
        <time>2022-06-25T13:48:21Z</time>
      </trkpt>
      <trkpt lat="46.24794" lon="4.612">
        <ele>678.6</ele>
        <time>2022-06-25T13:48:22Z</time>
      </trkpt>
      <trkpt lat="46.24789" lon="4.612">
        <ele>678.6</ele>
        <time>2022-06-25T13:48:23Z</time>
      </trkpt>
      <trkpt lat="46.24784" lon="4.61199">
        <ele>679</ele>
        <time>2022-06-25T13:48:24Z</time>
      </trkpt>
      <trkpt lat="46.24779" lon="4.61199">
        <ele>679</ele>
        <time>2022-06-25T13:48:25Z</time>
      </trkpt>
      <trkpt lat="46.24774" lon="4.61198">
        <ele>679.2</ele>
        <time>2022-06-25T13:48:26Z</time>
      </trkpt>
      <trkpt lat="46.24769" lon="4.61198">
        <ele>679.6</ele>
        <time>2022-06-25T13:48:27Z</time>
      </trkpt>
      <trkpt lat="46.24764" lon="4.61197">
        <ele>679.8</ele>
        <time>2022-06-25T13:48:28Z</time>
      </trkpt>
      <trkpt lat="46.24759" lon="4.61197">
        <ele>680</ele>
        <time>2022-06-25T13:48:29Z</time>
      </trkpt>
      <trkpt lat="46.24755" lon="4.61197">
        <ele>680.2</ele>
        <time>2022-06-25T13:48:30Z</time>
      </trkpt>
      <trkpt lat="46.24751" lon="4.61196">
        <ele>680.4</ele>
        <time>2022-06-25T13:48:31Z</time>
      </trkpt>
      <trkpt lat="46.24747" lon="4.61196">
        <ele>680.4</ele>
        <time>2022-06-25T13:48:32Z</time>
      </trkpt>
      <trkpt lat="46.24744" lon="4.61195">
        <ele>681</ele>
        <time>2022-06-25T13:48:33Z</time>
      </trkpt>
      <trkpt lat="46.2474" lon="4.61195">
        <ele>681.2</ele>
        <time>2022-06-25T13:48:34Z</time>
      </trkpt>
      <trkpt lat="46.24737" lon="4.61194">
        <ele>681.6</ele>
        <time>2022-06-25T13:48:35Z</time>
      </trkpt>
      <trkpt lat="46.24733" lon="4.61194">
        <ele>681.8</ele>
        <time>2022-06-25T13:48:36Z</time>
      </trkpt>
      <trkpt lat="46.2473" lon="4.61193">
        <ele>682</ele>
        <time>2022-06-25T13:48:37Z</time>
      </trkpt>
      <trkpt lat="46.24726" lon="4.61193">
        <ele>682.2</ele>
        <time>2022-06-25T13:48:38Z</time>
      </trkpt>
      <trkpt lat="46.24722" lon="4.61193">
        <ele>682.4</ele>
        <time>2022-06-25T13:48:39Z</time>
      </trkpt>
      <trkpt lat="46.24719" lon="4.61192">
        <ele>682.8</ele>
        <time>2022-06-25T13:48:40Z</time>
      </trkpt>
      <trkpt lat="46.24715" lon="4.61191">
        <ele>683</ele>
        <time>2022-06-25T13:48:41Z</time>
      </trkpt>
      <trkpt lat="46.24712" lon="4.61191">
        <ele>683.2</ele>
        <time>2022-06-25T13:48:42Z</time>
      </trkpt>
      <trkpt lat="46.24708" lon="4.61191">
        <ele>683.6</ele>
        <time>2022-06-25T13:48:43Z</time>
      </trkpt>
      <trkpt lat="46.24705" lon="4.61191">
        <ele>684</ele>
        <time>2022-06-25T13:48:44Z</time>
      </trkpt>
      <trkpt lat="46.24702" lon="4.61192">
        <ele>684.2</ele>
        <time>2022-06-25T13:48:45Z</time>
      </trkpt>
      <trkpt lat="46.24698" lon="4.61193">
        <ele>684.2</ele>
        <time>2022-06-25T13:48:46Z</time>
      </trkpt>
      <trkpt lat="46.24694" lon="4.61193">
        <ele>684.6</ele>
        <time>2022-06-25T13:48:47Z</time>
      </trkpt>
      <trkpt lat="46.24691" lon="4.61195">
        <ele>684.6</ele>
        <time>2022-06-25T13:48:48Z</time>
      </trkpt>
      <trkpt lat="46.24687" lon="4.61196">
        <ele>685.2</ele>
        <time>2022-06-25T13:48:49Z</time>
      </trkpt>
      <trkpt lat="46.24684" lon="4.61198">
        <ele>685.2</ele>
        <time>2022-06-25T13:48:50Z</time>
      </trkpt>
      <trkpt lat="46.24681" lon="4.61199">
        <ele>685.4</ele>
        <time>2022-06-25T13:48:51Z</time>
      </trkpt>
      <trkpt lat="46.24678" lon="4.61201">
        <ele>685.4</ele>
        <time>2022-06-25T13:48:52Z</time>
      </trkpt>
      <trkpt lat="46.24675" lon="4.61204">
        <ele>685.4</ele>
        <time>2022-06-25T13:48:53Z</time>
      </trkpt>
      <trkpt lat="46.24673" lon="4.61206">
        <ele>685.4</ele>
        <time>2022-06-25T13:48:54Z</time>
      </trkpt>
      <trkpt lat="46.24671" lon="4.6121">
        <ele>685.4</ele>
        <time>2022-06-25T13:48:55Z</time>
      </trkpt>
      <trkpt lat="46.24669" lon="4.61214">
        <ele>685.2</ele>
        <time>2022-06-25T13:48:56Z</time>
      </trkpt>
      <trkpt lat="46.24667" lon="4.61219">
        <ele>685.2</ele>
        <time>2022-06-25T13:48:57Z</time>
      </trkpt>
      <trkpt lat="46.24666" lon="4.61224">
        <ele>684.8</ele>
        <time>2022-06-25T13:48:58Z</time>
      </trkpt>
      <trkpt lat="46.24665" lon="4.6123">
        <ele>684.8</ele>
        <time>2022-06-25T13:48:59Z</time>
      </trkpt>
      <trkpt lat="46.24665" lon="4.61236">
        <ele>684.4</ele>
        <time>2022-06-25T13:49:00Z</time>
      </trkpt>
      <trkpt lat="46.24665" lon="4.61243">
        <ele>684.4</ele>
        <time>2022-06-25T13:49:01Z</time>
      </trkpt>
      <trkpt lat="46.24665" lon="4.61249">
        <ele>684</ele>
        <time>2022-06-25T13:49:02Z</time>
      </trkpt>
      <trkpt lat="46.24665" lon="4.61255">
        <ele>684</ele>
        <time>2022-06-25T13:49:03Z</time>
      </trkpt>
      <trkpt lat="46.24665" lon="4.6126">
        <ele>683.8</ele>
        <time>2022-06-25T13:49:04Z</time>
      </trkpt>
      <trkpt lat="46.24664" lon="4.61265">
        <ele>683.8</ele>
        <time>2022-06-25T13:49:05Z</time>
      </trkpt>
      <trkpt lat="46.24664" lon="4.61269">
        <ele>683.6</ele>
        <time>2022-06-25T13:49:06Z</time>
      </trkpt>
      <trkpt lat="46.24664" lon="4.61272">
        <ele>683.6</ele>
        <time>2022-06-25T13:49:07Z</time>
      </trkpt>
      <trkpt lat="46.24664" lon="4.61274">
        <ele>683.6</ele>
        <time>2022-06-25T13:49:08Z</time>
      </trkpt>
      <trkpt lat="46.24665" lon="4.61273">
        <ele>683.2</ele>
        <time>2022-06-25T13:49:10Z</time>
      </trkpt>
      <trkpt lat="46.24665" lon="4.61271">
        <ele>683.2</ele>
        <time>2022-06-25T13:49:11Z</time>
      </trkpt>
      <trkpt lat="46.24664" lon="4.61269">
        <ele>683.2</ele>
        <time>2022-06-25T13:49:12Z</time>
      </trkpt>
      <trkpt lat="46.24664" lon="4.61267">
        <ele>683.2</ele>
        <time>2022-06-25T13:49:13Z</time>
      </trkpt>
      <trkpt lat="46.24664" lon="4.61265">
        <ele>683.2</ele>
        <time>2022-06-25T13:49:14Z</time>
      </trkpt>
      <trkpt lat="46.24663" lon="4.61262">
        <ele>683.2</ele>
        <time>2022-06-25T13:49:15Z</time>
      </trkpt>
      <trkpt lat="46.24663" lon="4.6126">
        <ele>683.2</ele>
        <time>2022-06-25T13:49:16Z</time>
      </trkpt>
      <trkpt lat="46.24663" lon="4.61257">
        <ele>683.2</ele>
        <time>2022-06-25T13:49:17Z</time>
      </trkpt>
      <trkpt lat="46.24662" lon="4.61254">
        <ele>683.2</ele>
        <time>2022-06-25T13:49:18Z</time>
      </trkpt>
      <trkpt lat="46.24662" lon="4.61251">
        <ele>683.2</ele>
        <time>2022-06-25T13:49:19Z</time>
      </trkpt>
      <trkpt lat="46.24663" lon="4.61249">
        <ele>683.2</ele>
        <time>2022-06-25T13:49:20Z</time>
      </trkpt>
      <trkpt lat="46.24663" lon="4.61246">
        <ele>683.2</ele>
        <time>2022-06-25T13:49:21Z</time>
      </trkpt>
      <trkpt lat="46.24664" lon="4.61242">
        <ele>683.2</ele>
        <time>2022-06-25T13:49:22Z</time>
      </trkpt>
      <trkpt lat="46.24664" lon="4.61239">
        <ele>683.2</ele>
        <time>2022-06-25T13:49:23Z</time>
      </trkpt>
      <trkpt lat="46.24664" lon="4.61235">
        <ele>683.2</ele>
        <time>2022-06-25T13:49:24Z</time>
      </trkpt>
      <trkpt lat="46.24664" lon="4.61231">
        <ele>683.2</ele>
        <time>2022-06-25T13:49:25Z</time>
      </trkpt>
      <trkpt lat="46.24665" lon="4.61228">
        <ele>683.2</ele>
        <time>2022-06-25T13:49:26Z</time>
      </trkpt>
      <trkpt lat="46.24665" lon="4.61225">
        <ele>683.6</ele>
        <time>2022-06-25T13:49:27Z</time>
      </trkpt>
      <trkpt lat="46.24664" lon="4.61223">
        <ele>683.6</ele>
        <time>2022-06-25T13:49:28Z</time>
      </trkpt>
      <trkpt lat="46.24663" lon="4.61222">
        <ele>683.6</ele>
        <time>2022-06-25T13:49:29Z</time>
      </trkpt>
      <trkpt lat="46.24662" lon="4.61224">
        <ele>683.6</ele>
        <time>2022-06-25T13:49:30Z</time>
      </trkpt>
      <trkpt lat="46.24662" lon="4.61226">
        <ele>683.8</ele>
        <time>2022-06-25T13:49:31Z</time>
      </trkpt>
      <trkpt lat="46.24662" lon="4.61228">
        <ele>683.8</ele>
        <time>2022-06-25T13:49:32Z</time>
      </trkpt>
      <trkpt lat="46.24662" lon="4.61231">
        <ele>683.8</ele>
        <time>2022-06-25T13:49:33Z</time>
      </trkpt>
      <trkpt lat="46.24663" lon="4.61234">
        <ele>684</ele>
        <time>2022-06-25T13:49:34Z</time>
      </trkpt>
      <trkpt lat="46.24663" lon="4.61238">
        <ele>684</ele>
        <time>2022-06-25T13:49:35Z</time>
      </trkpt>
      <trkpt lat="46.24664" lon="4.61242">
        <ele>684</ele>
        <time>2022-06-25T13:49:36Z</time>
      </trkpt>
      <trkpt lat="46.24664" lon="4.61247">
        <ele>684</ele>
        <time>2022-06-25T13:49:37Z</time>
      </trkpt>
      <trkpt lat="46.24664" lon="4.61251">
        <ele>684</ele>
        <time>2022-06-25T13:49:38Z</time>
      </trkpt>
      <trkpt lat="46.24664" lon="4.61257">
        <ele>684</ele>
        <time>2022-06-25T13:49:39Z</time>
      </trkpt>
      <trkpt lat="46.24664" lon="4.61262">
        <ele>684</ele>
        <time>2022-06-25T13:49:40Z</time>
      </trkpt>
      <trkpt lat="46.24664" lon="4.61268">
        <ele>684</ele>
        <time>2022-06-25T13:49:41Z</time>
      </trkpt>
      <trkpt lat="46.24664" lon="4.61274">
        <ele>684</ele>
        <time>2022-06-25T13:49:42Z</time>
      </trkpt>
      <trkpt lat="46.24664" lon="4.61281">
        <ele>684</ele>
        <time>2022-06-25T13:49:43Z</time>
      </trkpt>
      <trkpt lat="46.24665" lon="4.61288">
        <ele>683.8</ele>
        <time>2022-06-25T13:49:44Z</time>
      </trkpt>
      <trkpt lat="46.24665" lon="4.61295">
        <ele>683.8</ele>
        <time>2022-06-25T13:49:45Z</time>
      </trkpt>
      <trkpt lat="46.24666" lon="4.61302">
        <ele>683.6</ele>
        <time>2022-06-25T13:49:46Z</time>
      </trkpt>
      <trkpt lat="46.24666" lon="4.6131">
        <ele>683.6</ele>
        <time>2022-06-25T13:49:47Z</time>
      </trkpt>
      <trkpt lat="46.24667" lon="4.61319">
        <ele>683.6</ele>
        <time>2022-06-25T13:49:48Z</time>
      </trkpt>
      <trkpt lat="46.24668" lon="4.61327">
        <ele>683.2</ele>
        <time>2022-06-25T13:49:49Z</time>
      </trkpt>
      <trkpt lat="46.24669" lon="4.61336">
        <ele>683</ele>
        <time>2022-06-25T13:49:50Z</time>
      </trkpt>
      <trkpt lat="46.2467" lon="4.61345">
        <ele>682.8</ele>
        <time>2022-06-25T13:49:51Z</time>
      </trkpt>
      <trkpt lat="46.24672" lon="4.61354">
        <ele>682.6</ele>
        <time>2022-06-25T13:49:52Z</time>
      </trkpt>
      <trkpt lat="46.24673" lon="4.61362">
        <ele>682.2</ele>
        <time>2022-06-25T13:49:53Z</time>
      </trkpt>
      <trkpt lat="46.24673" lon="4.61371">
        <ele>681.8</ele>
        <time>2022-06-25T13:49:54Z</time>
      </trkpt>
      <trkpt lat="46.24671" lon="4.6138">
        <ele>681.8</ele>
        <time>2022-06-25T13:49:55Z</time>
      </trkpt>
      <trkpt lat="46.24668" lon="4.61389">
        <ele>681.6</ele>
        <time>2022-06-25T13:49:56Z</time>
      </trkpt>
      <trkpt lat="46.24664" lon="4.61397">
        <ele>681.6</ele>
        <time>2022-06-25T13:49:57Z</time>
      </trkpt>
      <trkpt lat="46.24659" lon="4.61404">
        <ele>681.6</ele>
        <time>2022-06-25T13:49:58Z</time>
      </trkpt>
      <trkpt lat="46.24654" lon="4.6141">
        <ele>681.6</ele>
        <time>2022-06-25T13:49:59Z</time>
      </trkpt>
      <trkpt lat="46.2465" lon="4.61415">
        <ele>681.6</ele>
        <time>2022-06-25T13:50:00Z</time>
      </trkpt>
      <trkpt lat="46.24646" lon="4.6142">
        <ele>681.6</ele>
        <time>2022-06-25T13:50:01Z</time>
      </trkpt>
      <trkpt lat="46.24642" lon="4.61425">
        <ele>682</ele>
        <time>2022-06-25T13:50:02Z</time>
      </trkpt>
      <trkpt lat="46.24638" lon="4.6143">
        <ele>682</ele>
        <time>2022-06-25T13:50:03Z</time>
      </trkpt>
      <trkpt lat="46.24634" lon="4.61434">
        <ele>682</ele>
        <time>2022-06-25T13:50:04Z</time>
      </trkpt>
      <trkpt lat="46.24631" lon="4.61439">
        <ele>682.2</ele>
        <time>2022-06-25T13:50:05Z</time>
      </trkpt>
      <trkpt lat="46.24627" lon="4.61444">
        <ele>682.2</ele>
        <time>2022-06-25T13:50:06Z</time>
      </trkpt>
      <trkpt lat="46.24624" lon="4.61448">
        <ele>682.2</ele>
        <time>2022-06-25T13:50:07Z</time>
      </trkpt>
      <trkpt lat="46.2462" lon="4.61453">
        <ele>682.2</ele>
        <time>2022-06-25T13:50:08Z</time>
      </trkpt>
      <trkpt lat="46.24616" lon="4.61457">
        <ele>682.4</ele>
        <time>2022-06-25T13:50:09Z</time>
      </trkpt>
      <trkpt lat="46.24611" lon="4.61462">
        <ele>682.4</ele>
        <time>2022-06-25T13:50:10Z</time>
      </trkpt>
      <trkpt lat="46.24607" lon="4.61466">
        <ele>682.4</ele>
        <time>2022-06-25T13:50:11Z</time>
      </trkpt>
      <trkpt lat="46.24603" lon="4.6147">
        <ele>682.4</ele>
        <time>2022-06-25T13:50:12Z</time>
      </trkpt>
      <trkpt lat="46.24598" lon="4.61473">
        <ele>682.4</ele>
        <time>2022-06-25T13:50:13Z</time>
      </trkpt>
      <trkpt lat="46.24593" lon="4.61476">
        <ele>682.4</ele>
        <time>2022-06-25T13:50:14Z</time>
      </trkpt>
      <trkpt lat="46.24588" lon="4.61479">
        <ele>682.4</ele>
        <time>2022-06-25T13:50:15Z</time>
      </trkpt>
      <trkpt lat="46.24583" lon="4.61481">
        <ele>682.4</ele>
        <time>2022-06-25T13:50:16Z</time>
      </trkpt>
      <trkpt lat="46.24578" lon="4.61484">
        <ele>682.4</ele>
        <time>2022-06-25T13:50:17Z</time>
      </trkpt>
      <trkpt lat="46.24573" lon="4.61486">
        <ele>682.4</ele>
        <time>2022-06-25T13:50:18Z</time>
      </trkpt>
      <trkpt lat="46.24567" lon="4.61489">
        <ele>682.4</ele>
        <time>2022-06-25T13:50:19Z</time>
      </trkpt>
      <trkpt lat="46.24561" lon="4.61491">
        <ele>682.4</ele>
        <time>2022-06-25T13:50:20Z</time>
      </trkpt>
      <trkpt lat="46.24555" lon="4.61494">
        <ele>682.4</ele>
        <time>2022-06-25T13:50:21Z</time>
      </trkpt>
      <trkpt lat="46.24549" lon="4.61496">
        <ele>682</ele>
        <time>2022-06-25T13:50:22Z</time>
      </trkpt>
      <trkpt lat="46.24542" lon="4.61499">
        <ele>682</ele>
        <time>2022-06-25T13:50:23Z</time>
      </trkpt>
      <trkpt lat="46.24536" lon="4.61501">
        <ele>681.6</ele>
        <time>2022-06-25T13:50:24Z</time>
      </trkpt>
      <trkpt lat="46.24529" lon="4.61504">
        <ele>681.6</ele>
        <time>2022-06-25T13:50:25Z</time>
      </trkpt>
      <trkpt lat="46.24523" lon="4.61506">
        <ele>681.4</ele>
        <time>2022-06-25T13:50:26Z</time>
      </trkpt>
      <trkpt lat="46.24516" lon="4.61508">
        <ele>681.4</ele>
        <time>2022-06-25T13:50:27Z</time>
      </trkpt>
      <trkpt lat="46.24509" lon="4.6151">
        <ele>681.4</ele>
        <time>2022-06-25T13:50:28Z</time>
      </trkpt>
      <trkpt lat="46.24502" lon="4.61511">
        <ele>681.4</ele>
        <time>2022-06-25T13:50:29Z</time>
      </trkpt>
      <trkpt lat="46.24496" lon="4.61513">
        <ele>681.4</ele>
        <time>2022-06-25T13:50:30Z</time>
      </trkpt>
      <trkpt lat="46.2449" lon="4.61514">
        <ele>681.2</ele>
        <time>2022-06-25T13:50:32Z</time>
      </trkpt>
      <trkpt lat="46.24483" lon="4.61515">
        <ele>681.2</ele>
        <time>2022-06-25T13:50:33Z</time>
      </trkpt>
      <trkpt lat="46.24477" lon="4.61516">
        <ele>681.2</ele>
        <time>2022-06-25T13:50:34Z</time>
      </trkpt>
      <trkpt lat="46.24471" lon="4.61517">
        <ele>681</ele>
        <time>2022-06-25T13:50:35Z</time>
      </trkpt>
      <trkpt lat="46.24465" lon="4.61518">
        <ele>681</ele>
        <time>2022-06-25T13:50:36Z</time>
      </trkpt>
      <trkpt lat="46.24459" lon="4.61519">
        <ele>681</ele>
        <time>2022-06-25T13:50:37Z</time>
      </trkpt>
      <trkpt lat="46.24453" lon="4.6152">
        <ele>681</ele>
        <time>2022-06-25T13:50:38Z</time>
      </trkpt>
      <trkpt lat="46.24447" lon="4.61522">
        <ele>681</ele>
        <time>2022-06-25T13:50:39Z</time>
      </trkpt>
      <trkpt lat="46.24441" lon="4.61524">
        <ele>681</ele>
        <time>2022-06-25T13:50:40Z</time>
      </trkpt>
      <trkpt lat="46.24435" lon="4.61526">
        <ele>681</ele>
        <time>2022-06-25T13:50:41Z</time>
      </trkpt>
      <trkpt lat="46.2443" lon="4.61528">
        <ele>681</ele>
        <time>2022-06-25T13:50:42Z</time>
      </trkpt>
      <trkpt lat="46.24424" lon="4.61531">
        <ele>681</ele>
        <time>2022-06-25T13:50:43Z</time>
      </trkpt>
      <trkpt lat="46.24419" lon="4.61533">
        <ele>681</ele>
        <time>2022-06-25T13:50:44Z</time>
      </trkpt>
      <trkpt lat="46.24413" lon="4.61535">
        <ele>681</ele>
        <time>2022-06-25T13:50:45Z</time>
      </trkpt>
      <trkpt lat="46.24407" lon="4.61537">
        <ele>681</ele>
        <time>2022-06-25T13:50:46Z</time>
      </trkpt>
      <trkpt lat="46.24402" lon="4.61539">
        <ele>681</ele>
        <time>2022-06-25T13:50:47Z</time>
      </trkpt>
      <trkpt lat="46.24396" lon="4.61541">
        <ele>681</ele>
        <time>2022-06-25T13:50:48Z</time>
      </trkpt>
      <trkpt lat="46.2439" lon="4.61542">
        <ele>681</ele>
        <time>2022-06-25T13:50:49Z</time>
      </trkpt>
      <trkpt lat="46.24385" lon="4.61544">
        <ele>681</ele>
        <time>2022-06-25T13:50:50Z</time>
      </trkpt>
      <trkpt lat="46.24379" lon="4.61546">
        <ele>681</ele>
        <time>2022-06-25T13:50:51Z</time>
      </trkpt>
      <trkpt lat="46.24373" lon="4.61546">
        <ele>680.8</ele>
        <time>2022-06-25T13:50:52Z</time>
      </trkpt>
      <trkpt lat="46.24367" lon="4.61547">
        <ele>680.8</ele>
        <time>2022-06-25T13:50:53Z</time>
      </trkpt>
      <trkpt lat="46.24361" lon="4.61546">
        <ele>680.4</ele>
        <time>2022-06-25T13:50:54Z</time>
      </trkpt>
      <trkpt lat="46.24355" lon="4.61546">
        <ele>680.4</ele>
        <time>2022-06-25T13:50:55Z</time>
      </trkpt>
      <trkpt lat="46.24349" lon="4.61545">
        <ele>680.2</ele>
        <time>2022-06-25T13:50:56Z</time>
      </trkpt>
      <trkpt lat="46.24344" lon="4.61544">
        <ele>680.2</ele>
        <time>2022-06-25T13:50:57Z</time>
      </trkpt>
      <trkpt lat="46.24338" lon="4.61543">
        <ele>680.2</ele>
        <time>2022-06-25T13:50:58Z</time>
      </trkpt>
      <trkpt lat="46.24332" lon="4.61541">
        <ele>680.2</ele>
        <time>2022-06-25T13:50:59Z</time>
      </trkpt>
      <trkpt lat="46.24326" lon="4.6154">
        <ele>680.2</ele>
        <time>2022-06-25T13:51:00Z</time>
      </trkpt>
      <trkpt lat="46.2432" lon="4.61539">
        <ele>680.2</ele>
        <time>2022-06-25T13:51:01Z</time>
      </trkpt>
      <trkpt lat="46.24314" lon="4.61538">
        <ele>680.2</ele>
        <time>2022-06-25T13:51:02Z</time>
      </trkpt>
      <trkpt lat="46.24308" lon="4.61537">
        <ele>680.2</ele>
        <time>2022-06-25T13:51:03Z</time>
      </trkpt>
      <trkpt lat="46.24303" lon="4.61536">
        <ele>680.2</ele>
        <time>2022-06-25T13:51:04Z</time>
      </trkpt>
      <trkpt lat="46.24297" lon="4.61535">
        <ele>680</ele>
        <time>2022-06-25T13:51:05Z</time>
      </trkpt>
      <trkpt lat="46.24291" lon="4.61534">
        <ele>680</ele>
        <time>2022-06-25T13:51:06Z</time>
      </trkpt>
      <trkpt lat="46.24285" lon="4.61534">
        <ele>680</ele>
        <time>2022-06-25T13:51:07Z</time>
      </trkpt>
      <trkpt lat="46.24279" lon="4.61534">
        <ele>679.8</ele>
        <time>2022-06-25T13:51:08Z</time>
      </trkpt>
      <trkpt lat="46.24273" lon="4.61535">
        <ele>679.8</ele>
        <time>2022-06-25T13:51:09Z</time>
      </trkpt>
      <trkpt lat="46.24268" lon="4.61536">
        <ele>679.4</ele>
        <time>2022-06-25T13:51:10Z</time>
      </trkpt>
      <trkpt lat="46.24262" lon="4.61539">
        <ele>679.4</ele>
        <time>2022-06-25T13:51:11Z</time>
      </trkpt>
      <trkpt lat="46.24257" lon="4.61543">
        <ele>679</ele>
        <time>2022-06-25T13:51:12Z</time>
      </trkpt>
      <trkpt lat="46.24253" lon="4.61549">
        <ele>679</ele>
        <time>2022-06-25T13:51:13Z</time>
      </trkpt>
      <trkpt lat="46.2425" lon="4.61556">
        <ele>678.8</ele>
        <time>2022-06-25T13:51:14Z</time>
      </trkpt>
      <trkpt lat="46.24247" lon="4.61563">
        <ele>678.8</ele>
        <time>2022-06-25T13:51:15Z</time>
      </trkpt>
      <trkpt lat="46.24245" lon="4.61571">
        <ele>678.4</ele>
        <time>2022-06-25T13:51:16Z</time>
      </trkpt>
      <trkpt lat="46.24244" lon="4.6158">
        <ele>678.2</ele>
        <time>2022-06-25T13:51:17Z</time>
      </trkpt>
      <trkpt lat="46.24243" lon="4.61589">
        <ele>678.2</ele>
        <time>2022-06-25T13:51:18Z</time>
      </trkpt>
      <trkpt lat="46.24242" lon="4.61598">
        <ele>678</ele>
        <time>2022-06-25T13:51:19Z</time>
      </trkpt>
      <trkpt lat="46.24242" lon="4.61609">
        <ele>677.6</ele>
        <time>2022-06-25T13:51:20Z</time>
      </trkpt>
      <trkpt lat="46.24242" lon="4.6162">
        <ele>677.2</ele>
        <time>2022-06-25T13:51:21Z</time>
      </trkpt>
      <trkpt lat="46.24243" lon="4.61631">
        <ele>676.6</ele>
        <time>2022-06-25T13:51:22Z</time>
      </trkpt>
      <trkpt lat="46.24243" lon="4.61643">
        <ele>676</ele>
        <time>2022-06-25T13:51:23Z</time>
      </trkpt>
      <trkpt lat="46.24243" lon="4.61656">
        <ele>675.2</ele>
        <time>2022-06-25T13:51:24Z</time>
      </trkpt>
      <trkpt lat="46.24244" lon="4.61671">
        <ele>674.4</ele>
        <time>2022-06-25T13:51:25Z</time>
      </trkpt>
      <trkpt lat="46.24245" lon="4.61684">
        <ele>673.8</ele>
        <time>2022-06-25T13:51:26Z</time>
      </trkpt>
      <trkpt lat="46.24247" lon="4.61697">
        <ele>673.2</ele>
        <time>2022-06-25T13:51:27Z</time>
      </trkpt>
      <trkpt lat="46.24248" lon="4.61707">
        <ele>672.4</ele>
        <time>2022-06-25T13:51:28Z</time>
      </trkpt>
      <trkpt lat="46.24247" lon="4.61718">
        <ele>672</ele>
        <time>2022-06-25T13:51:29Z</time>
      </trkpt>
      <trkpt lat="46.24245" lon="4.61728">
        <ele>671.4</ele>
        <time>2022-06-25T13:51:30Z</time>
      </trkpt>
      <trkpt lat="46.24239" lon="4.61736">
        <ele>670.8</ele>
        <time>2022-06-25T13:51:31Z</time>
      </trkpt>
      <trkpt lat="46.24232" lon="4.61741">
        <ele>670.2</ele>
        <time>2022-06-25T13:51:32Z</time>
      </trkpt>
      <trkpt lat="46.24224" lon="4.61741">
        <ele>669.8</ele>
        <time>2022-06-25T13:51:33Z</time>
      </trkpt>
      <trkpt lat="46.24215" lon="4.61738">
        <ele>669.6</ele>
        <time>2022-06-25T13:51:34Z</time>
      </trkpt>
      <trkpt lat="46.24207" lon="4.61733">
        <ele>669</ele>
        <time>2022-06-25T13:51:35Z</time>
      </trkpt>
      <trkpt lat="46.24199" lon="4.61728">
        <ele>668.6</ele>
        <time>2022-06-25T13:51:36Z</time>
      </trkpt>
      <trkpt lat="46.24191" lon="4.61722">
        <ele>668.2</ele>
        <time>2022-06-25T13:51:37Z</time>
      </trkpt>
      <trkpt lat="46.24183" lon="4.61717">
        <ele>667.8</ele>
        <time>2022-06-25T13:51:38Z</time>
      </trkpt>
      <trkpt lat="46.24176" lon="4.61712">
        <ele>667.2</ele>
        <time>2022-06-25T13:51:39Z</time>
      </trkpt>
      <trkpt lat="46.24168" lon="4.61709">
        <ele>666.6</ele>
        <time>2022-06-25T13:51:40Z</time>
      </trkpt>
      <trkpt lat="46.2416" lon="4.61707">
        <ele>666.2</ele>
        <time>2022-06-25T13:51:41Z</time>
      </trkpt>
      <trkpt lat="46.24152" lon="4.61707">
        <ele>665.6</ele>
        <time>2022-06-25T13:51:42Z</time>
      </trkpt>
      <trkpt lat="46.24143" lon="4.61708">
        <ele>665.2</ele>
        <time>2022-06-25T13:51:43Z</time>
      </trkpt>
      <trkpt lat="46.24134" lon="4.61711">
        <ele>664.6</ele>
        <time>2022-06-25T13:51:44Z</time>
      </trkpt>
      <trkpt lat="46.24125" lon="4.61714">
        <ele>664.2</ele>
        <time>2022-06-25T13:51:45Z</time>
      </trkpt>
      <trkpt lat="46.24116" lon="4.61719">
        <ele>663.4</ele>
        <time>2022-06-25T13:51:46Z</time>
      </trkpt>
      <trkpt lat="46.24107" lon="4.61726">
        <ele>662.8</ele>
        <time>2022-06-25T13:51:47Z</time>
      </trkpt>
      <trkpt lat="46.24099" lon="4.61733">
        <ele>662.2</ele>
        <time>2022-06-25T13:51:48Z</time>
      </trkpt>
      <trkpt lat="46.24092" lon="4.6174">
        <ele>661.4</ele>
        <time>2022-06-25T13:51:49Z</time>
      </trkpt>
      <trkpt lat="46.24085" lon="4.61748">
        <ele>660.6</ele>
        <time>2022-06-25T13:51:50Z</time>
      </trkpt>
      <trkpt lat="46.2408" lon="4.61757">
        <ele>659.8</ele>
        <time>2022-06-25T13:51:51Z</time>
      </trkpt>
      <trkpt lat="46.24075" lon="4.61767">
        <ele>659.2</ele>
        <time>2022-06-25T13:51:52Z</time>
      </trkpt>
      <trkpt lat="46.24071" lon="4.61778">
        <ele>659</ele>
        <time>2022-06-25T13:51:53Z</time>
      </trkpt>
      <trkpt lat="46.24068" lon="4.61789">
        <ele>658.6</ele>
        <time>2022-06-25T13:51:54Z</time>
      </trkpt>
      <trkpt lat="46.24065" lon="4.61801">
        <ele>658.2</ele>
        <time>2022-06-25T13:51:55Z</time>
      </trkpt>
      <trkpt lat="46.24062" lon="4.61811">
        <ele>658.2</ele>
        <time>2022-06-25T13:51:56Z</time>
      </trkpt>
      <trkpt lat="46.24058" lon="4.6182">
        <ele>658</ele>
        <time>2022-06-25T13:51:57Z</time>
      </trkpt>
      <trkpt lat="46.24055" lon="4.61828">
        <ele>658</ele>
        <time>2022-06-25T13:51:58Z</time>
      </trkpt>
      <trkpt lat="46.24051" lon="4.61836">
        <ele>658</ele>
        <time>2022-06-25T13:51:59Z</time>
      </trkpt>
      <trkpt lat="46.24048" lon="4.61844">
        <ele>658.4</ele>
        <time>2022-06-25T13:52:00Z</time>
      </trkpt>
      <trkpt lat="46.24046" lon="4.61851">
        <ele>658.6</ele>
        <time>2022-06-25T13:52:01Z</time>
      </trkpt>
      <trkpt lat="46.24043" lon="4.61857">
        <ele>658.6</ele>
        <time>2022-06-25T13:52:02Z</time>
      </trkpt>
      <trkpt lat="46.24041" lon="4.61863">
        <ele>659.2</ele>
        <time>2022-06-25T13:52:03Z</time>
      </trkpt>
      <trkpt lat="46.24038" lon="4.61869">
        <ele>659.4</ele>
        <time>2022-06-25T13:52:04Z</time>
      </trkpt>
      <trkpt lat="46.24036" lon="4.61875">
        <ele>659.6</ele>
        <time>2022-06-25T13:52:05Z</time>
      </trkpt>
      <trkpt lat="46.24034" lon="4.61881">
        <ele>659.8</ele>
        <time>2022-06-25T13:52:06Z</time>
      </trkpt>
      <trkpt lat="46.24032" lon="4.61887">
        <ele>660.2</ele>
        <time>2022-06-25T13:52:07Z</time>
      </trkpt>
      <trkpt lat="46.2403" lon="4.61892">
        <ele>660.4</ele>
        <time>2022-06-25T13:52:08Z</time>
      </trkpt>
      <trkpt lat="46.24028" lon="4.61898">
        <ele>660.8</ele>
        <time>2022-06-25T13:52:09Z</time>
      </trkpt>
      <trkpt lat="46.24026" lon="4.61903">
        <ele>661</ele>
        <time>2022-06-25T13:52:10Z</time>
      </trkpt>
      <trkpt lat="46.24024" lon="4.61909">
        <ele>661</ele>
        <time>2022-06-25T13:52:11Z</time>
      </trkpt>
      <trkpt lat="46.24022" lon="4.61914">
        <ele>661.4</ele>
        <time>2022-06-25T13:52:12Z</time>
      </trkpt>
      <trkpt lat="46.24021" lon="4.6192">
        <ele>661.6</ele>
        <time>2022-06-25T13:52:13Z</time>
      </trkpt>
      <trkpt lat="46.24019" lon="4.61925">
        <ele>662</ele>
        <time>2022-06-25T13:52:14Z</time>
      </trkpt>
      <trkpt lat="46.24017" lon="4.61931">
        <ele>662.4</ele>
        <time>2022-06-25T13:52:15Z</time>
      </trkpt>
      <trkpt lat="46.24015" lon="4.61936">
        <ele>662.6</ele>
        <time>2022-06-25T13:52:16Z</time>
      </trkpt>
      <trkpt lat="46.24013" lon="4.61941">
        <ele>663</ele>
        <time>2022-06-25T13:52:17Z</time>
      </trkpt>
      <trkpt lat="46.24011" lon="4.61946">
        <ele>663.2</ele>
        <time>2022-06-25T13:52:18Z</time>
      </trkpt>
      <trkpt lat="46.2401" lon="4.61952">
        <ele>663.4</ele>
        <time>2022-06-25T13:52:19Z</time>
      </trkpt>
      <trkpt lat="46.24008" lon="4.61957">
        <ele>663.8</ele>
        <time>2022-06-25T13:52:20Z</time>
      </trkpt>
      <trkpt lat="46.24006" lon="4.61962">
        <ele>664</ele>
        <time>2022-06-25T13:52:21Z</time>
      </trkpt>
      <trkpt lat="46.24005" lon="4.61967">
        <ele>664.2</ele>
        <time>2022-06-25T13:52:22Z</time>
      </trkpt>
      <trkpt lat="46.24003" lon="4.61973">
        <ele>664.6</ele>
        <time>2022-06-25T13:52:23Z</time>
      </trkpt>
      <trkpt lat="46.24002" lon="4.61978">
        <ele>664.8</ele>
        <time>2022-06-25T13:52:24Z</time>
      </trkpt>
      <trkpt lat="46.24" lon="4.61983">
        <ele>664.8</ele>
        <time>2022-06-25T13:52:25Z</time>
      </trkpt>
      <trkpt lat="46.23999" lon="4.61988">
        <ele>665</ele>
        <time>2022-06-25T13:52:26Z</time>
      </trkpt>
      <trkpt lat="46.23998" lon="4.61992">
        <ele>665</ele>
        <time>2022-06-25T13:52:27Z</time>
      </trkpt>
      <trkpt lat="46.23998" lon="4.61996">
        <ele>665.4</ele>
        <time>2022-06-25T13:52:28Z</time>
      </trkpt>
      <trkpt lat="46.23997" lon="4.62001">
        <ele>665.4</ele>
        <time>2022-06-25T13:52:29Z</time>
      </trkpt>
      <trkpt lat="46.23996" lon="4.62005">
        <ele>665.8</ele>
        <time>2022-06-25T13:52:30Z</time>
      </trkpt>
      <trkpt lat="46.23995" lon="4.62009">
        <ele>665.8</ele>
        <time>2022-06-25T13:52:31Z</time>
      </trkpt>
      <trkpt lat="46.23994" lon="4.62014">
        <ele>666.2</ele>
        <time>2022-06-25T13:52:32Z</time>
      </trkpt>
      <trkpt lat="46.23994" lon="4.62018">
        <ele>666.4</ele>
        <time>2022-06-25T13:52:33Z</time>
      </trkpt>
      <trkpt lat="46.23993" lon="4.62023">
        <ele>666.4</ele>
        <time>2022-06-25T13:52:34Z</time>
      </trkpt>
      <trkpt lat="46.23992" lon="4.62028">
        <ele>666.6</ele>
        <time>2022-06-25T13:52:35Z</time>
      </trkpt>
      <trkpt lat="46.23992" lon="4.62032">
        <ele>667</ele>
        <time>2022-06-25T13:52:36Z</time>
      </trkpt>
      <trkpt lat="46.23991" lon="4.62036">
        <ele>667</ele>
        <time>2022-06-25T13:52:37Z</time>
      </trkpt>
      <trkpt lat="46.2399" lon="4.62041">
        <ele>667.2</ele>
        <time>2022-06-25T13:52:38Z</time>
      </trkpt>
      <trkpt lat="46.23989" lon="4.62045">
        <ele>667.2</ele>
        <time>2022-06-25T13:52:39Z</time>
      </trkpt>
      <trkpt lat="46.23989" lon="4.6205">
        <ele>667.6</ele>
        <time>2022-06-25T13:52:40Z</time>
      </trkpt>
      <trkpt lat="46.23988" lon="4.62054">
        <ele>667.6</ele>
        <time>2022-06-25T13:52:41Z</time>
      </trkpt>
      <trkpt lat="46.23987" lon="4.62058">
        <ele>668</ele>
        <time>2022-06-25T13:52:42Z</time>
      </trkpt>
      <trkpt lat="46.23987" lon="4.62063">
        <ele>668.2</ele>
        <time>2022-06-25T13:52:43Z</time>
      </trkpt>
      <trkpt lat="46.23986" lon="4.62067">
        <ele>668.2</ele>
        <time>2022-06-25T13:52:44Z</time>
      </trkpt>
      <trkpt lat="46.23986" lon="4.62071">
        <ele>668.4</ele>
        <time>2022-06-25T13:52:45Z</time>
      </trkpt>
      <trkpt lat="46.23986" lon="4.62076">
        <ele>668.8</ele>
        <time>2022-06-25T13:52:46Z</time>
      </trkpt>
      <trkpt lat="46.23985" lon="4.6208">
        <ele>668.8</ele>
        <time>2022-06-25T13:52:47Z</time>
      </trkpt>
      <trkpt lat="46.23984" lon="4.62084">
        <ele>669</ele>
        <time>2022-06-25T13:52:48Z</time>
      </trkpt>
      <trkpt lat="46.23984" lon="4.62088">
        <ele>669</ele>
        <time>2022-06-25T13:52:49Z</time>
      </trkpt>
      <trkpt lat="46.23983" lon="4.62092">
        <ele>669.4</ele>
        <time>2022-06-25T13:52:50Z</time>
      </trkpt>
      <trkpt lat="46.23982" lon="4.62096">
        <ele>669.4</ele>
        <time>2022-06-25T13:52:51Z</time>
      </trkpt>
      <trkpt lat="46.23982" lon="4.621">
        <ele>669.8</ele>
        <time>2022-06-25T13:52:52Z</time>
      </trkpt>
      <trkpt lat="46.23981" lon="4.62104">
        <ele>669.8</ele>
        <time>2022-06-25T13:52:53Z</time>
      </trkpt>
      <trkpt lat="46.23981" lon="4.62108">
        <ele>670</ele>
        <time>2022-06-25T13:52:54Z</time>
      </trkpt>
      <trkpt lat="46.2398" lon="4.62112">
        <ele>670</ele>
        <time>2022-06-25T13:52:55Z</time>
      </trkpt>
      <trkpt lat="46.23979" lon="4.62116">
        <ele>670.4</ele>
        <time>2022-06-25T13:52:56Z</time>
      </trkpt>
      <trkpt lat="46.23979" lon="4.6212">
        <ele>670.6</ele>
        <time>2022-06-25T13:52:57Z</time>
      </trkpt>
      <trkpt lat="46.23978" lon="4.62124">
        <ele>670.6</ele>
        <time>2022-06-25T13:52:58Z</time>
      </trkpt>
      <trkpt lat="46.23977" lon="4.62128">
        <ele>671</ele>
        <time>2022-06-25T13:52:59Z</time>
      </trkpt>
      <trkpt lat="46.23977" lon="4.62131">
        <ele>671</ele>
        <time>2022-06-25T13:53:00Z</time>
      </trkpt>
      <trkpt lat="46.23976" lon="4.62135">
        <ele>671.4</ele>
        <time>2022-06-25T13:53:01Z</time>
      </trkpt>
      <trkpt lat="46.23975" lon="4.62139">
        <ele>671.4</ele>
        <time>2022-06-25T13:53:02Z</time>
      </trkpt>
      <trkpt lat="46.23974" lon="4.62142">
        <ele>671.6</ele>
        <time>2022-06-25T13:53:03Z</time>
      </trkpt>
      <trkpt lat="46.23973" lon="4.62146">
        <ele>671.6</ele>
        <time>2022-06-25T13:53:04Z</time>
      </trkpt>
      <trkpt lat="46.23972" lon="4.62149">
        <ele>672</ele>
        <time>2022-06-25T13:53:05Z</time>
      </trkpt>
      <trkpt lat="46.23972" lon="4.62153">
        <ele>672</ele>
        <time>2022-06-25T13:53:06Z</time>
      </trkpt>
      <trkpt lat="46.23971" lon="4.62156">
        <ele>672.4</ele>
        <time>2022-06-25T13:53:07Z</time>
      </trkpt>
      <trkpt lat="46.23971" lon="4.6216">
        <ele>672.4</ele>
        <time>2022-06-25T13:53:08Z</time>
      </trkpt>
      <trkpt lat="46.2397" lon="4.62164">
        <ele>672.6</ele>
        <time>2022-06-25T13:53:09Z</time>
      </trkpt>
      <trkpt lat="46.2397" lon="4.62167">
        <ele>673</ele>
        <time>2022-06-25T13:53:10Z</time>
      </trkpt>
      <trkpt lat="46.2397" lon="4.62171">
        <ele>673</ele>
        <time>2022-06-25T13:53:11Z</time>
      </trkpt>
      <trkpt lat="46.23969" lon="4.62175">
        <ele>673.4</ele>
        <time>2022-06-25T13:53:12Z</time>
      </trkpt>
      <trkpt lat="46.23969" lon="4.62179">
        <ele>673.4</ele>
        <time>2022-06-25T13:53:13Z</time>
      </trkpt>
      <trkpt lat="46.23968" lon="4.62182">
        <ele>673.8</ele>
        <time>2022-06-25T13:53:14Z</time>
      </trkpt>
      <trkpt lat="46.23968" lon="4.62186">
        <ele>673.8</ele>
        <time>2022-06-25T13:53:15Z</time>
      </trkpt>
      <trkpt lat="46.23968" lon="4.6219">
        <ele>674</ele>
        <time>2022-06-25T13:53:16Z</time>
      </trkpt>
      <trkpt lat="46.23968" lon="4.62194">
        <ele>674</ele>
        <time>2022-06-25T13:53:17Z</time>
      </trkpt>
      <trkpt lat="46.23967" lon="4.62198">
        <ele>674.4</ele>
        <time>2022-06-25T13:53:18Z</time>
      </trkpt>
      <trkpt lat="46.23967" lon="4.62202">
        <ele>674.4</ele>
        <time>2022-06-25T13:53:19Z</time>
      </trkpt>
      <trkpt lat="46.23967" lon="4.62206">
        <ele>674.6</ele>
        <time>2022-06-25T13:53:20Z</time>
      </trkpt>
      <trkpt lat="46.23967" lon="4.62209">
        <ele>674.6</ele>
        <time>2022-06-25T13:53:21Z</time>
      </trkpt>
      <trkpt lat="46.23967" lon="4.62213">
        <ele>675</ele>
        <time>2022-06-25T13:53:22Z</time>
      </trkpt>
      <trkpt lat="46.23968" lon="4.62217">
        <ele>675</ele>
        <time>2022-06-25T13:53:23Z</time>
      </trkpt>
      <trkpt lat="46.23968" lon="4.62221">
        <ele>675</ele>
        <time>2022-06-25T13:53:24Z</time>
      </trkpt>
      <trkpt lat="46.23969" lon="4.62225">
        <ele>675.2</ele>
        <time>2022-06-25T13:53:25Z</time>
      </trkpt>
      <trkpt lat="46.23969" lon="4.62229">
        <ele>675.2</ele>
        <time>2022-06-25T13:53:26Z</time>
      </trkpt>
      <trkpt lat="46.2397" lon="4.62233">
        <ele>675.2</ele>
        <time>2022-06-25T13:53:27Z</time>
      </trkpt>
      <trkpt lat="46.2397" lon="4.62236">
        <ele>675.4</ele>
        <time>2022-06-25T13:53:28Z</time>
      </trkpt>
      <trkpt lat="46.23971" lon="4.6224">
        <ele>675.4</ele>
        <time>2022-06-25T13:53:29Z</time>
      </trkpt>
      <trkpt lat="46.23972" lon="4.62244">
        <ele>675.4</ele>
        <time>2022-06-25T13:53:30Z</time>
      </trkpt>
      <trkpt lat="46.23972" lon="4.62249">
        <ele>675.4</ele>
        <time>2022-06-25T13:53:31Z</time>
      </trkpt>
      <trkpt lat="46.23973" lon="4.62253">
        <ele>675.4</ele>
        <time>2022-06-25T13:53:32Z</time>
      </trkpt>
      <trkpt lat="46.23974" lon="4.62258">
        <ele>675.4</ele>
        <time>2022-06-25T13:53:33Z</time>
      </trkpt>
      <trkpt lat="46.23974" lon="4.62264">
        <ele>675.4</ele>
        <time>2022-06-25T13:53:34Z</time>
      </trkpt>
      <trkpt lat="46.23975" lon="4.62269">
        <ele>675.4</ele>
        <time>2022-06-25T13:53:35Z</time>
      </trkpt>
      <trkpt lat="46.23975" lon="4.62275">
        <ele>675.4</ele>
        <time>2022-06-25T13:53:36Z</time>
      </trkpt>
      <trkpt lat="46.23975" lon="4.62281">
        <ele>675.4</ele>
        <time>2022-06-25T13:53:37Z</time>
      </trkpt>
      <trkpt lat="46.23974" lon="4.62288">
        <ele>675.2</ele>
        <time>2022-06-25T13:53:38Z</time>
      </trkpt>
      <trkpt lat="46.23973" lon="4.62296">
        <ele>675</ele>
        <time>2022-06-25T13:53:39Z</time>
      </trkpt>
      <trkpt lat="46.23972" lon="4.62303">
        <ele>674.8</ele>
        <time>2022-06-25T13:53:40Z</time>
      </trkpt>
      <trkpt lat="46.23971" lon="4.62311">
        <ele>674.6</ele>
        <time>2022-06-25T13:53:41Z</time>
      </trkpt>
      <trkpt lat="46.23968" lon="4.6232">
        <ele>674.2</ele>
        <time>2022-06-25T13:53:42Z</time>
      </trkpt>
      <trkpt lat="46.23965" lon="4.62328">
        <ele>674</ele>
        <time>2022-06-25T13:53:43Z</time>
      </trkpt>
      <trkpt lat="46.23961" lon="4.62336">
        <ele>673.8</ele>
        <time>2022-06-25T13:53:44Z</time>
      </trkpt>
      <trkpt lat="46.23956" lon="4.62344">
        <ele>673.4</ele>
        <time>2022-06-25T13:53:45Z</time>
      </trkpt>
      <trkpt lat="46.2395" lon="4.62351">
        <ele>673</ele>
        <time>2022-06-25T13:53:46Z</time>
      </trkpt>
      <trkpt lat="46.23944" lon="4.62358">
        <ele>672.6</ele>
        <time>2022-06-25T13:53:47Z</time>
      </trkpt>
      <trkpt lat="46.23937" lon="4.62364">
        <ele>672.2</ele>
        <time>2022-06-25T13:53:48Z</time>
      </trkpt>
      <trkpt lat="46.23931" lon="4.62372">
        <ele>671.8</ele>
        <time>2022-06-25T13:53:49Z</time>
      </trkpt>
      <trkpt lat="46.23924" lon="4.6238">
        <ele>671.2</ele>
        <time>2022-06-25T13:53:50Z</time>
      </trkpt>
      <trkpt lat="46.23918" lon="4.62389">
        <ele>670.8</ele>
        <time>2022-06-25T13:53:51Z</time>
      </trkpt>
      <trkpt lat="46.23912" lon="4.62399">
        <ele>670.4</ele>
        <time>2022-06-25T13:53:52Z</time>
      </trkpt>
      <trkpt lat="46.23905" lon="4.6241">
        <ele>669.8</ele>
        <time>2022-06-25T13:53:53Z</time>
      </trkpt>
      <trkpt lat="46.23899" lon="4.6242">
        <ele>669.2</ele>
        <time>2022-06-25T13:53:54Z</time>
      </trkpt>
      <trkpt lat="46.23893" lon="4.62432">
        <ele>668.8</ele>
        <time>2022-06-25T13:53:55Z</time>
      </trkpt>
      <trkpt lat="46.23888" lon="4.62446">
        <ele>668.4</ele>
        <time>2022-06-25T13:53:56Z</time>
      </trkpt>
      <trkpt lat="46.23884" lon="4.6246">
        <ele>667.8</ele>
        <time>2022-06-25T13:53:57Z</time>
      </trkpt>
      <trkpt lat="46.23881" lon="4.62475">
        <ele>667.2</ele>
        <time>2022-06-25T13:53:58Z</time>
      </trkpt>
      <trkpt lat="46.23877" lon="4.62489">
        <ele>666.8</ele>
        <time>2022-06-25T13:53:59Z</time>
      </trkpt>
      <trkpt lat="46.23873" lon="4.62504">
        <ele>666</ele>
        <time>2022-06-25T13:54:00Z</time>
      </trkpt>
      <trkpt lat="46.23868" lon="4.62518">
        <ele>665.4</ele>
        <time>2022-06-25T13:54:01Z</time>
      </trkpt>
      <trkpt lat="46.23863" lon="4.62532">
        <ele>664.8</ele>
        <time>2022-06-25T13:54:02Z</time>
      </trkpt>
      <trkpt lat="46.23857" lon="4.62546">
        <ele>664</ele>
        <time>2022-06-25T13:54:03Z</time>
      </trkpt>
      <trkpt lat="46.23851" lon="4.6256">
        <ele>663.2</ele>
        <time>2022-06-25T13:54:04Z</time>
      </trkpt>
      <trkpt lat="46.23845" lon="4.62574">
        <ele>662.8</ele>
        <time>2022-06-25T13:54:05Z</time>
      </trkpt>
      <trkpt lat="46.23837" lon="4.62587">
        <ele>662.2</ele>
        <time>2022-06-25T13:54:06Z</time>
      </trkpt>
      <trkpt lat="46.23829" lon="4.62597">
        <ele>661.6</ele>
        <time>2022-06-25T13:54:07Z</time>
      </trkpt>
      <trkpt lat="46.2382" lon="4.62608">
        <ele>660.8</ele>
        <time>2022-06-25T13:54:08Z</time>
      </trkpt>
      <trkpt lat="46.23811" lon="4.62619">
        <ele>660.2</ele>
        <time>2022-06-25T13:54:09Z</time>
      </trkpt>
      <trkpt lat="46.23802" lon="4.62631">
        <ele>659.6</ele>
        <time>2022-06-25T13:54:10Z</time>
      </trkpt>
      <trkpt lat="46.23793" lon="4.62642">
        <ele>659</ele>
        <time>2022-06-25T13:54:11Z</time>
      </trkpt>
      <trkpt lat="46.23785" lon="4.62653">
        <ele>658.4</ele>
        <time>2022-06-25T13:54:12Z</time>
      </trkpt>
      <trkpt lat="46.23776" lon="4.62665">
        <ele>657.8</ele>
        <time>2022-06-25T13:54:13Z</time>
      </trkpt>
      <trkpt lat="46.23769" lon="4.62675">
        <ele>657.2</ele>
        <time>2022-06-25T13:54:14Z</time>
      </trkpt>
      <trkpt lat="46.2376" lon="4.62684">
        <ele>656.4</ele>
        <time>2022-06-25T13:54:15Z</time>
      </trkpt>
      <trkpt lat="46.2375" lon="4.62692">
        <ele>655.8</ele>
        <time>2022-06-25T13:54:16Z</time>
      </trkpt>
      <trkpt lat="46.23739" lon="4.62699">
        <ele>655.2</ele>
        <time>2022-06-25T13:54:17Z</time>
      </trkpt>
      <trkpt lat="46.23728" lon="4.62705">
        <ele>654.6</ele>
        <time>2022-06-25T13:54:18Z</time>
      </trkpt>
      <trkpt lat="46.23717" lon="4.62708">
        <ele>654</ele>
        <time>2022-06-25T13:54:19Z</time>
      </trkpt>
      <trkpt lat="46.23705" lon="4.6271">
        <ele>653.2</ele>
        <time>2022-06-25T13:54:20Z</time>
      </trkpt>
      <trkpt lat="46.23693" lon="4.6271">
        <ele>652.4</ele>
        <time>2022-06-25T13:54:21Z</time>
      </trkpt>
      <trkpt lat="46.23683" lon="4.62708">
        <ele>651.6</ele>
        <time>2022-06-25T13:54:22Z</time>
      </trkpt>
      <trkpt lat="46.23674" lon="4.62707">
        <ele>651</ele>
        <time>2022-06-25T13:54:23Z</time>
      </trkpt>
      <trkpt lat="46.23666" lon="4.62709">
        <ele>650.2</ele>
        <time>2022-06-25T13:54:24Z</time>
      </trkpt>
      <trkpt lat="46.23658" lon="4.62712">
        <ele>649.6</ele>
        <time>2022-06-25T13:54:25Z</time>
      </trkpt>
      <trkpt lat="46.23652" lon="4.62722">
        <ele>649.2</ele>
        <time>2022-06-25T13:54:26Z</time>
      </trkpt>
      <trkpt lat="46.23646" lon="4.62733">
        <ele>648.8</ele>
        <time>2022-06-25T13:54:27Z</time>
      </trkpt>
      <trkpt lat="46.23643" lon="4.62744">
        <ele>648.4</ele>
        <time>2022-06-25T13:54:28Z</time>
      </trkpt>
      <trkpt lat="46.2364" lon="4.62756">
        <ele>648</ele>
        <time>2022-06-25T13:54:29Z</time>
      </trkpt>
      <trkpt lat="46.23638" lon="4.62768">
        <ele>647.6</ele>
        <time>2022-06-25T13:54:30Z</time>
      </trkpt>
      <trkpt lat="46.23637" lon="4.6278">
        <ele>647.2</ele>
        <time>2022-06-25T13:54:31Z</time>
      </trkpt>
      <trkpt lat="46.23638" lon="4.62793">
        <ele>646.8</ele>
        <time>2022-06-25T13:54:32Z</time>
      </trkpt>
      <trkpt lat="46.23642" lon="4.62807">
        <ele>646.4</ele>
        <time>2022-06-25T13:54:33Z</time>
      </trkpt>
      <trkpt lat="46.23645" lon="4.62821">
        <ele>646</ele>
        <time>2022-06-25T13:54:34Z</time>
      </trkpt>
      <trkpt lat="46.2365" lon="4.62836">
        <ele>645.6</ele>
        <time>2022-06-25T13:54:35Z</time>
      </trkpt>
      <trkpt lat="46.23653" lon="4.6285">
        <ele>645.4</ele>
        <time>2022-06-25T13:54:36Z</time>
      </trkpt>
      <trkpt lat="46.23655" lon="4.62865">
        <ele>645</ele>
        <time>2022-06-25T13:54:37Z</time>
      </trkpt>
      <trkpt lat="46.23656" lon="4.62881">
        <ele>644.6</ele>
        <time>2022-06-25T13:54:38Z</time>
      </trkpt>
      <trkpt lat="46.23656" lon="4.62898">
        <ele>644</ele>
        <time>2022-06-25T13:54:39Z</time>
      </trkpt>
      <trkpt lat="46.23653" lon="4.62912">
        <ele>643.6</ele>
        <time>2022-06-25T13:54:40Z</time>
      </trkpt>
      <trkpt lat="46.2365" lon="4.62925">
        <ele>643.2</ele>
        <time>2022-06-25T13:54:41Z</time>
      </trkpt>
      <trkpt lat="46.23645" lon="4.62939">
        <ele>642.6</ele>
        <time>2022-06-25T13:54:42Z</time>
      </trkpt>
      <trkpt lat="46.2364" lon="4.62952">
        <ele>642.2</ele>
        <time>2022-06-25T13:54:43Z</time>
      </trkpt>
      <trkpt lat="46.23632" lon="4.62963">
        <ele>641.6</ele>
        <time>2022-06-25T13:54:44Z</time>
      </trkpt>
      <trkpt lat="46.23625" lon="4.62973">
        <ele>641.2</ele>
        <time>2022-06-25T13:54:45Z</time>
      </trkpt>
      <trkpt lat="46.23617" lon="4.62984">
        <ele>640.8</ele>
        <time>2022-06-25T13:54:46Z</time>
      </trkpt>
      <trkpt lat="46.23609" lon="4.62995">
        <ele>640.2</ele>
        <time>2022-06-25T13:54:47Z</time>
      </trkpt>
      <trkpt lat="46.23601" lon="4.63007">
        <ele>639.8</ele>
        <time>2022-06-25T13:54:48Z</time>
      </trkpt>
      <trkpt lat="46.23596" lon="4.63021">
        <ele>639.2</ele>
        <time>2022-06-25T13:54:49Z</time>
      </trkpt>
      <trkpt lat="46.23591" lon="4.63035">
        <ele>638.8</ele>
        <time>2022-06-25T13:54:50Z</time>
      </trkpt>
      <trkpt lat="46.2359" lon="4.63051">
        <ele>638.2</ele>
        <time>2022-06-25T13:54:51Z</time>
      </trkpt>
      <trkpt lat="46.23592" lon="4.63065">
        <ele>637.8</ele>
        <time>2022-06-25T13:54:52Z</time>
      </trkpt>
      <trkpt lat="46.23593" lon="4.6308">
        <ele>637.2</ele>
        <time>2022-06-25T13:54:53Z</time>
      </trkpt>
      <trkpt lat="46.23595" lon="4.63097">
        <ele>636.8</ele>
        <time>2022-06-25T13:54:54Z</time>
      </trkpt>
      <trkpt lat="46.23596" lon="4.63114">
        <ele>636.4</ele>
        <time>2022-06-25T13:54:55Z</time>
      </trkpt>
      <trkpt lat="46.23596" lon="4.6313">
        <ele>636</ele>
        <time>2022-06-25T13:54:56Z</time>
      </trkpt>
      <trkpt lat="46.23596" lon="4.63147">
        <ele>635.6</ele>
        <time>2022-06-25T13:54:57Z</time>
      </trkpt>
      <trkpt lat="46.23594" lon="4.63163">
        <ele>635</ele>
        <time>2022-06-25T13:54:58Z</time>
      </trkpt>
      <trkpt lat="46.23591" lon="4.63181">
        <ele>634.6</ele>
        <time>2022-06-25T13:54:59Z</time>
      </trkpt>
      <trkpt lat="46.23588" lon="4.63196">
        <ele>634</ele>
        <time>2022-06-25T13:55:00Z</time>
      </trkpt>
      <trkpt lat="46.23585" lon="4.63212">
        <ele>633.4</ele>
        <time>2022-06-25T13:55:01Z</time>
      </trkpt>
      <trkpt lat="46.23583" lon="4.63228">
        <ele>633</ele>
        <time>2022-06-25T13:55:02Z</time>
      </trkpt>
      <trkpt lat="46.2358" lon="4.63244">
        <ele>632.4</ele>
        <time>2022-06-25T13:55:03Z</time>
      </trkpt>
      <trkpt lat="46.23578" lon="4.63258">
        <ele>631.8</ele>
        <time>2022-06-25T13:55:04Z</time>
      </trkpt>
      <trkpt lat="46.23577" lon="4.63273">
        <ele>631.4</ele>
        <time>2022-06-25T13:55:05Z</time>
      </trkpt>
      <trkpt lat="46.23574" lon="4.63285">
        <ele>630.8</ele>
        <time>2022-06-25T13:55:06Z</time>
      </trkpt>
      <trkpt lat="46.23569" lon="4.63295">
        <ele>630.2</ele>
        <time>2022-06-25T13:55:07Z</time>
      </trkpt>
      <trkpt lat="46.23562" lon="4.63306">
        <ele>629.6</ele>
        <time>2022-06-25T13:55:08Z</time>
      </trkpt>
      <trkpt lat="46.23554" lon="4.63315">
        <ele>629</ele>
        <time>2022-06-25T13:55:09Z</time>
      </trkpt>
      <trkpt lat="46.23545" lon="4.63324">
        <ele>628.6</ele>
        <time>2022-06-25T13:55:10Z</time>
      </trkpt>
      <trkpt lat="46.23537" lon="4.63331">
        <ele>628</ele>
        <time>2022-06-25T13:55:11Z</time>
      </trkpt>
      <trkpt lat="46.23528" lon="4.63337">
        <ele>627.6</ele>
        <time>2022-06-25T13:55:12Z</time>
      </trkpt>
      <trkpt lat="46.23518" lon="4.63343">
        <ele>627</ele>
        <time>2022-06-25T13:55:13Z</time>
      </trkpt>
      <trkpt lat="46.23508" lon="4.63347">
        <ele>626.6</ele>
        <time>2022-06-25T13:55:14Z</time>
      </trkpt>
      <trkpt lat="46.23498" lon="4.6335">
        <ele>626.2</ele>
        <time>2022-06-25T13:55:15Z</time>
      </trkpt>
      <trkpt lat="46.23488" lon="4.63352">
        <ele>625.8</ele>
        <time>2022-06-25T13:55:16Z</time>
      </trkpt>
      <trkpt lat="46.23478" lon="4.63354">
        <ele>625.2</ele>
        <time>2022-06-25T13:55:17Z</time>
      </trkpt>
      <trkpt lat="46.23468" lon="4.63354">
        <ele>624.6</ele>
        <time>2022-06-25T13:55:18Z</time>
      </trkpt>
      <trkpt lat="46.23458" lon="4.63355">
        <ele>624</ele>
        <time>2022-06-25T13:55:19Z</time>
      </trkpt>
      <trkpt lat="46.23448" lon="4.63354">
        <ele>623.6</ele>
        <time>2022-06-25T13:55:20Z</time>
      </trkpt>
      <trkpt lat="46.23437" lon="4.63353">
        <ele>623</ele>
        <time>2022-06-25T13:55:21Z</time>
      </trkpt>
      <trkpt lat="46.23427" lon="4.63353">
        <ele>622.6</ele>
        <time>2022-06-25T13:55:22Z</time>
      </trkpt>
      <trkpt lat="46.23417" lon="4.63352">
        <ele>622.2</ele>
        <time>2022-06-25T13:55:23Z</time>
      </trkpt>
      <trkpt lat="46.23407" lon="4.63351">
        <ele>622</ele>
        <time>2022-06-25T13:55:24Z</time>
      </trkpt>
      <trkpt lat="46.23397" lon="4.63349">
        <ele>621.6</ele>
        <time>2022-06-25T13:55:25Z</time>
      </trkpt>
      <trkpt lat="46.23387" lon="4.63347">
        <ele>621.2</ele>
        <time>2022-06-25T13:55:26Z</time>
      </trkpt>
      <trkpt lat="46.23377" lon="4.63345">
        <ele>620.8</ele>
        <time>2022-06-25T13:55:27Z</time>
      </trkpt>
      <trkpt lat="46.23367" lon="4.63342">
        <ele>620</ele>
        <time>2022-06-25T13:55:28Z</time>
      </trkpt>
      <trkpt lat="46.23357" lon="4.63337">
        <ele>619.6</ele>
        <time>2022-06-25T13:55:29Z</time>
      </trkpt>
      <trkpt lat="46.23348" lon="4.63333">
        <ele>619.2</ele>
        <time>2022-06-25T13:55:30Z</time>
      </trkpt>
      <trkpt lat="46.23339" lon="4.63326">
        <ele>618.6</ele>
        <time>2022-06-25T13:55:31Z</time>
      </trkpt>
      <trkpt lat="46.2333" lon="4.63318">
        <ele>618</ele>
        <time>2022-06-25T13:55:32Z</time>
      </trkpt>
      <trkpt lat="46.23322" lon="4.63308">
        <ele>617.2</ele>
        <time>2022-06-25T13:55:33Z</time>
      </trkpt>
      <trkpt lat="46.23315" lon="4.63297">
        <ele>616.6</ele>
        <time>2022-06-25T13:55:34Z</time>
      </trkpt>
      <trkpt lat="46.23308" lon="4.63285">
        <ele>615.8</ele>
        <time>2022-06-25T13:55:35Z</time>
      </trkpt>
      <trkpt lat="46.23302" lon="4.63273">
        <ele>614.8</ele>
        <time>2022-06-25T13:55:36Z</time>
      </trkpt>
      <trkpt lat="46.23296" lon="4.6326">
        <ele>614.2</ele>
        <time>2022-06-25T13:55:37Z</time>
      </trkpt>
      <trkpt lat="46.23291" lon="4.63246">
        <ele>613.8</ele>
        <time>2022-06-25T13:55:38Z</time>
      </trkpt>
      <trkpt lat="46.23286" lon="4.63231">
        <ele>613.2</ele>
        <time>2022-06-25T13:55:39Z</time>
      </trkpt>
      <trkpt lat="46.23281" lon="4.63217">
        <ele>612.8</ele>
        <time>2022-06-25T13:55:40Z</time>
      </trkpt>
      <trkpt lat="46.23276" lon="4.63202">
        <ele>612.4</ele>
        <time>2022-06-25T13:55:41Z</time>
      </trkpt>
      <trkpt lat="46.23271" lon="4.63187">
        <ele>612.2</ele>
        <time>2022-06-25T13:55:42Z</time>
      </trkpt>
      <trkpt lat="46.23265" lon="4.63172">
        <ele>611.8</ele>
        <time>2022-06-25T13:55:43Z</time>
      </trkpt>
      <trkpt lat="46.23253" lon="4.63141">
        <ele>611.2</ele>
        <time>2022-06-25T13:55:44Z</time>
      </trkpt>
      <trkpt lat="46.23248" lon="4.63127">
        <ele>610.6</ele>
        <time>2022-06-25T13:55:45Z</time>
      </trkpt>
      <trkpt lat="46.23244" lon="4.63114">
        <ele>610</ele>
        <time>2022-06-25T13:55:46Z</time>
      </trkpt>
      <trkpt lat="46.2324" lon="4.63103">
        <ele>609.2</ele>
        <time>2022-06-25T13:55:47Z</time>
      </trkpt>
      <trkpt lat="46.23234" lon="4.63094">
        <ele>608.8</ele>
        <time>2022-06-25T13:55:48Z</time>
      </trkpt>
      <trkpt lat="46.23225" lon="4.63087">
        <ele>608.4</ele>
        <time>2022-06-25T13:55:49Z</time>
      </trkpt>
      <trkpt lat="46.23216" lon="4.63082">
        <ele>608</ele>
        <time>2022-06-25T13:55:50Z</time>
      </trkpt>
      <trkpt lat="46.23207" lon="4.6308">
        <ele>607.6</ele>
        <time>2022-06-25T13:55:51Z</time>
      </trkpt>
      <trkpt lat="46.23197" lon="4.63076">
        <ele>607.2</ele>
        <time>2022-06-25T13:55:52Z</time>
      </trkpt>
      <trkpt lat="46.23189" lon="4.6307">
        <ele>606.8</ele>
        <time>2022-06-25T13:55:53Z</time>
      </trkpt>
      <trkpt lat="46.23183" lon="4.63062">
        <ele>606.6</ele>
        <time>2022-06-25T13:55:54Z</time>
      </trkpt>
      <trkpt lat="46.23177" lon="4.63051">
        <ele>606.4</ele>
        <time>2022-06-25T13:55:55Z</time>
      </trkpt>
      <trkpt lat="46.23173" lon="4.63039">
        <ele>606</ele>
        <time>2022-06-25T13:55:56Z</time>
      </trkpt>
      <trkpt lat="46.23169" lon="4.63027">
        <ele>605.8</ele>
        <time>2022-06-25T13:55:57Z</time>
      </trkpt>
      <trkpt lat="46.23167" lon="4.63013">
        <ele>605.4</ele>
        <time>2022-06-25T13:55:58Z</time>
      </trkpt>
      <trkpt lat="46.23166" lon="4.63">
        <ele>605.2</ele>
        <time>2022-06-25T13:55:59Z</time>
      </trkpt>
      <trkpt lat="46.23163" lon="4.62988">
        <ele>604.8</ele>
        <time>2022-06-25T13:56:00Z</time>
      </trkpt>
      <trkpt lat="46.23159" lon="4.62978">
        <ele>604.6</ele>
        <time>2022-06-25T13:56:01Z</time>
      </trkpt>
      <trkpt lat="46.23152" lon="4.62972">
        <ele>604.2</ele>
        <time>2022-06-25T13:56:02Z</time>
      </trkpt>
      <trkpt lat="46.23145" lon="4.62967">
        <ele>604</ele>
        <time>2022-06-25T13:56:03Z</time>
      </trkpt>
      <trkpt lat="46.23136" lon="4.62967">
        <ele>604</ele>
        <time>2022-06-25T13:56:04Z</time>
      </trkpt>
      <trkpt lat="46.23127" lon="4.62971">
        <ele>603.6</ele>
        <time>2022-06-25T13:56:05Z</time>
      </trkpt>
      <trkpt lat="46.2312" lon="4.62978">
        <ele>603.4</ele>
        <time>2022-06-25T13:56:06Z</time>
      </trkpt>
      <trkpt lat="46.23114" lon="4.62987">
        <ele>603</ele>
        <time>2022-06-25T13:56:07Z</time>
      </trkpt>
      <trkpt lat="46.23108" lon="4.62997">
        <ele>602.8</ele>
        <time>2022-06-25T13:56:08Z</time>
      </trkpt>
      <trkpt lat="46.23102" lon="4.63006">
        <ele>602.8</ele>
        <time>2022-06-25T13:56:09Z</time>
      </trkpt>
      <trkpt lat="46.23097" lon="4.63016">
        <ele>602.2</ele>
        <time>2022-06-25T13:56:10Z</time>
      </trkpt>
      <trkpt lat="46.23091" lon="4.63026">
        <ele>601.8</ele>
        <time>2022-06-25T13:56:11Z</time>
      </trkpt>
      <trkpt lat="46.23086" lon="4.63035">
        <ele>601.2</ele>
        <time>2022-06-25T13:56:12Z</time>
      </trkpt>
      <trkpt lat="46.23081" lon="4.63046">
        <ele>600.8</ele>
        <time>2022-06-25T13:56:13Z</time>
      </trkpt>
      <trkpt lat="46.23078" lon="4.63058">
        <ele>600.2</ele>
        <time>2022-06-25T13:56:14Z</time>
      </trkpt>
      <trkpt lat="46.23075" lon="4.6307">
        <ele>599.6</ele>
        <time>2022-06-25T13:56:15Z</time>
      </trkpt>
      <trkpt lat="46.23073" lon="4.63082">
        <ele>599.2</ele>
        <time>2022-06-25T13:56:16Z</time>
      </trkpt>
      <trkpt lat="46.23071" lon="4.63096">
        <ele>598.6</ele>
        <time>2022-06-25T13:56:17Z</time>
      </trkpt>
      <trkpt lat="46.2307" lon="4.63109">
        <ele>598.2</ele>
        <time>2022-06-25T13:56:18Z</time>
      </trkpt>
      <trkpt lat="46.23069" lon="4.63123">
        <ele>597.6</ele>
        <time>2022-06-25T13:56:19Z</time>
      </trkpt>
      <trkpt lat="46.23068" lon="4.63137">
        <ele>597.2</ele>
        <time>2022-06-25T13:56:20Z</time>
      </trkpt>
      <trkpt lat="46.23067" lon="4.6315">
        <ele>596.6</ele>
        <time>2022-06-25T13:56:21Z</time>
      </trkpt>
      <trkpt lat="46.23066" lon="4.63163">
        <ele>596.2</ele>
        <time>2022-06-25T13:56:22Z</time>
      </trkpt>
      <trkpt lat="46.23066" lon="4.63177">
        <ele>595.6</ele>
        <time>2022-06-25T13:56:23Z</time>
      </trkpt>
      <trkpt lat="46.23066" lon="4.63191">
        <ele>595</ele>
        <time>2022-06-25T13:56:24Z</time>
      </trkpt>
      <trkpt lat="46.23065" lon="4.63205">
        <ele>594.6</ele>
        <time>2022-06-25T13:56:25Z</time>
      </trkpt>
      <trkpt lat="46.23065" lon="4.63221">
        <ele>594</ele>
        <time>2022-06-25T13:56:26Z</time>
      </trkpt>
      <trkpt lat="46.23065" lon="4.63236">
        <ele>593.6</ele>
        <time>2022-06-25T13:56:27Z</time>
      </trkpt>
      <trkpt lat="46.23063" lon="4.63251">
        <ele>593</ele>
        <time>2022-06-25T13:56:28Z</time>
      </trkpt>
      <trkpt lat="46.23062" lon="4.63266">
        <ele>592.4</ele>
        <time>2022-06-25T13:56:29Z</time>
      </trkpt>
      <trkpt lat="46.23061" lon="4.63282">
        <ele>591.8</ele>
        <time>2022-06-25T13:56:30Z</time>
      </trkpt>
      <trkpt lat="46.2306" lon="4.63297">
        <ele>591</ele>
        <time>2022-06-25T13:56:31Z</time>
      </trkpt>
      <trkpt lat="46.23059" lon="4.63312">
        <ele>590.4</ele>
        <time>2022-06-25T13:56:32Z</time>
      </trkpt>
      <trkpt lat="46.23058" lon="4.63328">
        <ele>589.8</ele>
        <time>2022-06-25T13:56:33Z</time>
      </trkpt>
      <trkpt lat="46.23058" lon="4.63344">
        <ele>589.2</ele>
        <time>2022-06-25T13:56:34Z</time>
      </trkpt>
      <trkpt lat="46.23055" lon="4.6336">
        <ele>588.4</ele>
        <time>2022-06-25T13:56:35Z</time>
      </trkpt>
      <trkpt lat="46.23052" lon="4.63375">
        <ele>588</ele>
        <time>2022-06-25T13:56:36Z</time>
      </trkpt>
      <trkpt lat="46.23048" lon="4.63391">
        <ele>587.4</ele>
        <time>2022-06-25T13:56:37Z</time>
      </trkpt>
      <trkpt lat="46.23043" lon="4.63407">
        <ele>586.8</ele>
        <time>2022-06-25T13:56:38Z</time>
      </trkpt>
      <trkpt lat="46.23038" lon="4.63423">
        <ele>586.2</ele>
        <time>2022-06-25T13:56:39Z</time>
      </trkpt>
      <trkpt lat="46.23034" lon="4.63439">
        <ele>585.6</ele>
        <time>2022-06-25T13:56:40Z</time>
      </trkpt>
      <trkpt lat="46.23029" lon="4.63456">
        <ele>585</ele>
        <time>2022-06-25T13:56:41Z</time>
      </trkpt>
      <trkpt lat="46.23024" lon="4.63472">
        <ele>584.4</ele>
        <time>2022-06-25T13:56:42Z</time>
      </trkpt>
      <trkpt lat="46.23019" lon="4.63488">
        <ele>583.8</ele>
        <time>2022-06-25T13:56:43Z</time>
      </trkpt>
      <trkpt lat="46.23013" lon="4.63503">
        <ele>583.2</ele>
        <time>2022-06-25T13:56:44Z</time>
      </trkpt>
      <trkpt lat="46.23008" lon="4.63519">
        <ele>582.6</ele>
        <time>2022-06-25T13:56:45Z</time>
      </trkpt>
      <trkpt lat="46.23002" lon="4.63534">
        <ele>582</ele>
        <time>2022-06-25T13:56:46Z</time>
      </trkpt>
      <trkpt lat="46.22996" lon="4.63547">
        <ele>581.4</ele>
        <time>2022-06-25T13:56:47Z</time>
      </trkpt>
      <trkpt lat="46.22991" lon="4.63562">
        <ele>580.8</ele>
        <time>2022-06-25T13:56:48Z</time>
      </trkpt>
      <trkpt lat="46.22987" lon="4.63576">
        <ele>580.2</ele>
        <time>2022-06-25T13:56:49Z</time>
      </trkpt>
      <trkpt lat="46.22979" lon="4.63591">
        <ele>579.4</ele>
        <time>2022-06-25T13:56:50Z</time>
      </trkpt>
      <trkpt lat="46.22971" lon="4.63603">
        <ele>578.8</ele>
        <time>2022-06-25T13:56:51Z</time>
      </trkpt>
      <trkpt lat="46.22964" lon="4.63613">
        <ele>578.2</ele>
        <time>2022-06-25T13:56:52Z</time>
      </trkpt>
      <trkpt lat="46.22957" lon="4.63621">
        <ele>577.6</ele>
        <time>2022-06-25T13:56:53Z</time>
      </trkpt>
      <trkpt lat="46.2295" lon="4.63627">
        <ele>576.8</ele>
        <time>2022-06-25T13:56:54Z</time>
      </trkpt>
      <trkpt lat="46.22942" lon="4.6363">
        <ele>576.2</ele>
        <time>2022-06-25T13:56:55Z</time>
      </trkpt>
      <trkpt lat="46.22934" lon="4.6363">
        <ele>575.6</ele>
        <time>2022-06-25T13:56:56Z</time>
      </trkpt>
      <trkpt lat="46.22926" lon="4.63626">
        <ele>575</ele>
        <time>2022-06-25T13:56:57Z</time>
      </trkpt>
      <trkpt lat="46.22919" lon="4.63619">
        <ele>574.6</ele>
        <time>2022-06-25T13:56:58Z</time>
      </trkpt>
      <trkpt lat="46.22912" lon="4.6361">
        <ele>574</ele>
        <time>2022-06-25T13:56:59Z</time>
      </trkpt>
      <trkpt lat="46.22906" lon="4.63601">
        <ele>573.4</ele>
        <time>2022-06-25T13:57:00Z</time>
      </trkpt>
      <trkpt lat="46.22899" lon="4.63592">
        <ele>572.8</ele>
        <time>2022-06-25T13:57:01Z</time>
      </trkpt>
      <trkpt lat="46.22893" lon="4.63582">
        <ele>572.2</ele>
        <time>2022-06-25T13:57:02Z</time>
      </trkpt>
      <trkpt lat="46.22886" lon="4.63572">
        <ele>571.6</ele>
        <time>2022-06-25T13:57:03Z</time>
      </trkpt>
      <trkpt lat="46.2288" lon="4.63562">
        <ele>571.2</ele>
        <time>2022-06-25T13:57:04Z</time>
      </trkpt>
      <trkpt lat="46.22873" lon="4.63552">
        <ele>570.6</ele>
        <time>2022-06-25T13:57:05Z</time>
      </trkpt>
      <trkpt lat="46.22867" lon="4.63542">
        <ele>570</ele>
        <time>2022-06-25T13:57:06Z</time>
      </trkpt>
      <trkpt lat="46.2286" lon="4.6353">
        <ele>569.6</ele>
        <time>2022-06-25T13:57:07Z</time>
      </trkpt>
      <trkpt lat="46.22855" lon="4.63519">
        <ele>569.2</ele>
        <time>2022-06-25T13:57:08Z</time>
      </trkpt>
      <trkpt lat="46.22849" lon="4.63507">
        <ele>568.8</ele>
        <time>2022-06-25T13:57:09Z</time>
      </trkpt>
      <trkpt lat="46.22844" lon="4.63494">
        <ele>568.2</ele>
        <time>2022-06-25T13:57:10Z</time>
      </trkpt>
      <trkpt lat="46.22838" lon="4.63482">
        <ele>567.8</ele>
        <time>2022-06-25T13:57:11Z</time>
      </trkpt>
      <trkpt lat="46.22832" lon="4.63471">
        <ele>567.2</ele>
        <time>2022-06-25T13:57:12Z</time>
      </trkpt>
      <trkpt lat="46.22824" lon="4.63462">
        <ele>567</ele>
        <time>2022-06-25T13:57:13Z</time>
      </trkpt>
      <trkpt lat="46.22815" lon="4.63454">
        <ele>567</ele>
        <time>2022-06-25T13:57:14Z</time>
      </trkpt>
      <trkpt lat="46.22806" lon="4.63449">
        <ele>566.6</ele>
        <time>2022-06-25T13:57:15Z</time>
      </trkpt>
      <trkpt lat="46.22796" lon="4.63444">
        <ele>566.4</ele>
        <time>2022-06-25T13:57:16Z</time>
      </trkpt>
      <trkpt lat="46.22786" lon="4.63441">
        <ele>566.2</ele>
        <time>2022-06-25T13:57:17Z</time>
      </trkpt>
      <trkpt lat="46.22777" lon="4.6344">
        <ele>565.8</ele>
        <time>2022-06-25T13:57:18Z</time>
      </trkpt>
      <trkpt lat="46.22768" lon="4.6344">
        <ele>565.8</ele>
        <time>2022-06-25T13:57:19Z</time>
      </trkpt>
      <trkpt lat="46.22759" lon="4.63442">
        <ele>565.4</ele>
        <time>2022-06-25T13:57:20Z</time>
      </trkpt>
      <trkpt lat="46.2275" lon="4.63445">
        <ele>565</ele>
        <time>2022-06-25T13:57:21Z</time>
      </trkpt>
      <trkpt lat="46.22741" lon="4.63449">
        <ele>564.8</ele>
        <time>2022-06-25T13:57:22Z</time>
      </trkpt>
      <trkpt lat="46.22732" lon="4.63451">
        <ele>564.6</ele>
        <time>2022-06-25T13:57:23Z</time>
      </trkpt>
      <trkpt lat="46.22724" lon="4.63454">
        <ele>564.6</ele>
        <time>2022-06-25T13:57:24Z</time>
      </trkpt>
      <trkpt lat="46.22715" lon="4.63458">
        <ele>564.2</ele>
        <time>2022-06-25T13:57:25Z</time>
      </trkpt>
      <trkpt lat="46.22706" lon="4.63462">
        <ele>563.8</ele>
        <time>2022-06-25T13:57:26Z</time>
      </trkpt>
      <trkpt lat="46.22698" lon="4.63466">
        <ele>563.6</ele>
        <time>2022-06-25T13:57:27Z</time>
      </trkpt>
      <trkpt lat="46.2269" lon="4.63468">
        <ele>563.2</ele>
        <time>2022-06-25T13:57:28Z</time>
      </trkpt>
      <trkpt lat="46.2268" lon="4.63473">
        <ele>563</ele>
        <time>2022-06-25T13:57:29Z</time>
      </trkpt>
      <trkpt lat="46.22671" lon="4.63478">
        <ele>562.6</ele>
        <time>2022-06-25T13:57:30Z</time>
      </trkpt>
      <trkpt lat="46.22663" lon="4.63483">
        <ele>562.4</ele>
        <time>2022-06-25T13:57:31Z</time>
      </trkpt>
      <trkpt lat="46.22654" lon="4.63489">
        <ele>562</ele>
        <time>2022-06-25T13:57:32Z</time>
      </trkpt>
      <trkpt lat="46.22645" lon="4.63495">
        <ele>561.8</ele>
        <time>2022-06-25T13:57:33Z</time>
      </trkpt>
      <trkpt lat="46.22638" lon="4.63504">
        <ele>561.4</ele>
        <time>2022-06-25T13:57:34Z</time>
      </trkpt>
      <trkpt lat="46.22632" lon="4.63514">
        <ele>561</ele>
        <time>2022-06-25T13:57:35Z</time>
      </trkpt>
      <trkpt lat="46.22627" lon="4.63527">
        <ele>560.8</ele>
        <time>2022-06-25T13:57:36Z</time>
      </trkpt>
      <trkpt lat="46.22621" lon="4.63539">
        <ele>560.4</ele>
        <time>2022-06-25T13:57:37Z</time>
      </trkpt>
      <trkpt lat="46.22616" lon="4.63552">
        <ele>560</ele>
        <time>2022-06-25T13:57:38Z</time>
      </trkpt>
      <trkpt lat="46.22609" lon="4.63565">
        <ele>559.8</ele>
        <time>2022-06-25T13:57:39Z</time>
      </trkpt>
      <trkpt lat="46.22604" lon="4.63577">
        <ele>559.4</ele>
        <time>2022-06-25T13:57:40Z</time>
      </trkpt>
      <trkpt lat="46.22597" lon="4.6359">
        <ele>559</ele>
        <time>2022-06-25T13:57:41Z</time>
      </trkpt>
      <trkpt lat="46.22593" lon="4.63602">
        <ele>558.6</ele>
        <time>2022-06-25T13:57:42Z</time>
      </trkpt>
      <trkpt lat="46.22588" lon="4.63614">
        <ele>558.2</ele>
        <time>2022-06-25T13:57:43Z</time>
      </trkpt>
      <trkpt lat="46.22582" lon="4.63626">
        <ele>557.8</ele>
        <time>2022-06-25T13:57:44Z</time>
      </trkpt>
      <trkpt lat="46.22577" lon="4.63638">
        <ele>557.6</ele>
        <time>2022-06-25T13:57:45Z</time>
      </trkpt>
      <trkpt lat="46.22573" lon="4.6365">
        <ele>557.2</ele>
        <time>2022-06-25T13:57:46Z</time>
      </trkpt>
      <trkpt lat="46.22567" lon="4.63661">
        <ele>556.8</ele>
        <time>2022-06-25T13:57:47Z</time>
      </trkpt>
      <trkpt lat="46.22559" lon="4.63669">
        <ele>556.4</ele>
        <time>2022-06-25T13:57:48Z</time>
      </trkpt>
      <trkpt lat="46.2255" lon="4.63676">
        <ele>556</ele>
        <time>2022-06-25T13:57:49Z</time>
      </trkpt>
      <trkpt lat="46.2254" lon="4.63681">
        <ele>555.8</ele>
        <time>2022-06-25T13:57:50Z</time>
      </trkpt>
      <trkpt lat="46.22529" lon="4.63684">
        <ele>555.4</ele>
        <time>2022-06-25T13:57:51Z</time>
      </trkpt>
      <trkpt lat="46.22519" lon="4.63686">
        <ele>555</ele>
        <time>2022-06-25T13:57:52Z</time>
      </trkpt>
      <trkpt lat="46.22509" lon="4.63689">
        <ele>554.4</ele>
        <time>2022-06-25T13:57:53Z</time>
      </trkpt>
      <trkpt lat="46.22499" lon="4.63693">
        <ele>554</ele>
        <time>2022-06-25T13:57:54Z</time>
      </trkpt>
      <trkpt lat="46.22489" lon="4.63696">
        <ele>553.6</ele>
        <time>2022-06-25T13:57:55Z</time>
      </trkpt>
      <trkpt lat="46.2248" lon="4.63699">
        <ele>553.2</ele>
        <time>2022-06-25T13:57:56Z</time>
      </trkpt>
      <trkpt lat="46.2247" lon="4.63703">
        <ele>552.8</ele>
        <time>2022-06-25T13:57:57Z</time>
      </trkpt>
      <trkpt lat="46.2246" lon="4.63707">
        <ele>552.6</ele>
        <time>2022-06-25T13:57:58Z</time>
      </trkpt>
      <trkpt lat="46.2245" lon="4.63708">
        <ele>552.2</ele>
        <time>2022-06-25T13:57:59Z</time>
      </trkpt>
      <trkpt lat="46.2244" lon="4.63709">
        <ele>551.8</ele>
        <time>2022-06-25T13:58:00Z</time>
      </trkpt>
      <trkpt lat="46.2243" lon="4.63708">
        <ele>551.4</ele>
        <time>2022-06-25T13:58:01Z</time>
      </trkpt>
      <trkpt lat="46.22422" lon="4.63709">
        <ele>550.8</ele>
        <time>2022-06-25T13:58:02Z</time>
      </trkpt>
      <trkpt lat="46.22414" lon="4.63714">
        <ele>550.4</ele>
        <time>2022-06-25T13:58:03Z</time>
      </trkpt>
      <trkpt lat="46.22407" lon="4.6372">
        <ele>550.2</ele>
        <time>2022-06-25T13:58:04Z</time>
      </trkpt>
      <trkpt lat="46.224" lon="4.63729">
        <ele>549.8</ele>
        <time>2022-06-25T13:58:05Z</time>
      </trkpt>
      <trkpt lat="46.22394" lon="4.63739">
        <ele>549.4</ele>
        <time>2022-06-25T13:58:06Z</time>
      </trkpt>
      <trkpt lat="46.22387" lon="4.6375">
        <ele>549.2</ele>
        <time>2022-06-25T13:58:07Z</time>
      </trkpt>
      <trkpt lat="46.2238" lon="4.63761">
        <ele>548.6</ele>
        <time>2022-06-25T13:58:08Z</time>
      </trkpt>
      <trkpt lat="46.22373" lon="4.63772">
        <ele>548.2</ele>
        <time>2022-06-25T13:58:09Z</time>
      </trkpt>
      <trkpt lat="46.22367" lon="4.63782">
        <ele>548</ele>
        <time>2022-06-25T13:58:10Z</time>
      </trkpt>
      <trkpt lat="46.22361" lon="4.63791">
        <ele>547.8</ele>
        <time>2022-06-25T13:58:11Z</time>
      </trkpt>
      <trkpt lat="46.22355" lon="4.63802">
        <ele>547.4</ele>
        <time>2022-06-25T13:58:12Z</time>
      </trkpt>
      <trkpt lat="46.22349" lon="4.63812">
        <ele>547</ele>
        <time>2022-06-25T13:58:13Z</time>
      </trkpt>
      <trkpt lat="46.22342" lon="4.63821">
        <ele>546.6</ele>
        <time>2022-06-25T13:58:14Z</time>
      </trkpt>
      <trkpt lat="46.22336" lon="4.63831">
        <ele>546.2</ele>
        <time>2022-06-25T13:58:15Z</time>
      </trkpt>
      <trkpt lat="46.22329" lon="4.63841">
        <ele>545.6</ele>
        <time>2022-06-25T13:58:16Z</time>
      </trkpt>
      <trkpt lat="46.22323" lon="4.6385">
        <ele>545.2</ele>
        <time>2022-06-25T13:58:17Z</time>
      </trkpt>
      <trkpt lat="46.22317" lon="4.6386">
        <ele>545</ele>
        <time>2022-06-25T13:58:18Z</time>
      </trkpt>
      <trkpt lat="46.22311" lon="4.63868">
        <ele>544.6</ele>
        <time>2022-06-25T13:58:19Z</time>
      </trkpt>
      <trkpt lat="46.22305" lon="4.63877">
        <ele>544</ele>
        <time>2022-06-25T13:58:20Z</time>
      </trkpt>
      <trkpt lat="46.22299" lon="4.63885">
        <ele>543.6</ele>
        <time>2022-06-25T13:58:21Z</time>
      </trkpt>
      <trkpt lat="46.22292" lon="4.63893">
        <ele>543.4</ele>
        <time>2022-06-25T13:58:22Z</time>
      </trkpt>
      <trkpt lat="46.22286" lon="4.63899">
        <ele>543.2</ele>
        <time>2022-06-25T13:58:23Z</time>
      </trkpt>
      <trkpt lat="46.22279" lon="4.63905">
        <ele>542.8</ele>
        <time>2022-06-25T13:58:24Z</time>
      </trkpt>
      <trkpt lat="46.22273" lon="4.63911">
        <ele>542.8</ele>
        <time>2022-06-25T13:58:25Z</time>
      </trkpt>
      <trkpt lat="46.22266" lon="4.63917">
        <ele>542.8</ele>
        <time>2022-06-25T13:58:26Z</time>
      </trkpt>
      <trkpt lat="46.22261" lon="4.63923">
        <ele>542.8</ele>
        <time>2022-06-25T13:58:27Z</time>
      </trkpt>
      <trkpt lat="46.22255" lon="4.63929">
        <ele>542.8</ele>
        <time>2022-06-25T13:58:28Z</time>
      </trkpt>
      <trkpt lat="46.2225" lon="4.63934">
        <ele>542.8</ele>
        <time>2022-06-25T13:58:29Z</time>
      </trkpt>
      <trkpt lat="46.22244" lon="4.63939">
        <ele>542.8</ele>
        <time>2022-06-25T13:58:30Z</time>
      </trkpt>
      <trkpt lat="46.22238" lon="4.63942">
        <ele>542.8</ele>
        <time>2022-06-25T13:58:31Z</time>
      </trkpt>
      <trkpt lat="46.22233" lon="4.63946">
        <ele>542.8</ele>
        <time>2022-06-25T13:58:32Z</time>
      </trkpt>
      <trkpt lat="46.22227" lon="4.6395">
        <ele>543</ele>
        <time>2022-06-25T13:58:33Z</time>
      </trkpt>
      <trkpt lat="46.22221" lon="4.63953">
        <ele>543</ele>
        <time>2022-06-25T13:58:34Z</time>
      </trkpt>
      <trkpt lat="46.22216" lon="4.63956">
        <ele>543</ele>
        <time>2022-06-25T13:58:35Z</time>
      </trkpt>
      <trkpt lat="46.2221" lon="4.63958">
        <ele>543</ele>
        <time>2022-06-25T13:58:36Z</time>
      </trkpt>
      <trkpt lat="46.22205" lon="4.6396">
        <ele>543</ele>
        <time>2022-06-25T13:58:37Z</time>
      </trkpt>
      <trkpt lat="46.22199" lon="4.63962">
        <ele>543</ele>
        <time>2022-06-25T13:58:38Z</time>
      </trkpt>
      <trkpt lat="46.22193" lon="4.63965">
        <ele>543.2</ele>
        <time>2022-06-25T13:58:39Z</time>
      </trkpt>
      <trkpt lat="46.22188" lon="4.63967">
        <ele>543.2</ele>
        <time>2022-06-25T13:58:40Z</time>
      </trkpt>
      <trkpt lat="46.22182" lon="4.63969">
        <ele>543.2</ele>
        <time>2022-06-25T13:58:41Z</time>
      </trkpt>
      <trkpt lat="46.22176" lon="4.63971">
        <ele>543.2</ele>
        <time>2022-06-25T13:58:42Z</time>
      </trkpt>
      <trkpt lat="46.22171" lon="4.63974">
        <ele>543.4</ele>
        <time>2022-06-25T13:58:43Z</time>
      </trkpt>
      <trkpt lat="46.22165" lon="4.63976">
        <ele>543.4</ele>
        <time>2022-06-25T13:58:44Z</time>
      </trkpt>
      <trkpt lat="46.2216" lon="4.63978">
        <ele>543.4</ele>
        <time>2022-06-25T13:58:45Z</time>
      </trkpt>
      <trkpt lat="46.22155" lon="4.6398">
        <ele>543.8</ele>
        <time>2022-06-25T13:58:46Z</time>
      </trkpt>
      <trkpt lat="46.2215" lon="4.63982">
        <ele>543.8</ele>
        <time>2022-06-25T13:58:47Z</time>
      </trkpt>
      <trkpt lat="46.22145" lon="4.63984">
        <ele>544</ele>
        <time>2022-06-25T13:58:48Z</time>
      </trkpt>
      <trkpt lat="46.2214" lon="4.63986">
        <ele>544</ele>
        <time>2022-06-25T13:58:49Z</time>
      </trkpt>
      <trkpt lat="46.22136" lon="4.63988">
        <ele>544</ele>
        <time>2022-06-25T13:58:50Z</time>
      </trkpt>
      <trkpt lat="46.22132" lon="4.6399">
        <ele>544</ele>
        <time>2022-06-25T13:58:51Z</time>
      </trkpt>
      <trkpt lat="46.22129" lon="4.63993">
        <ele>544</ele>
        <time>2022-06-25T13:58:52Z</time>
      </trkpt>
      <trkpt lat="46.22125" lon="4.63996">
        <ele>544</ele>
        <time>2022-06-25T13:58:53Z</time>
      </trkpt>
      <trkpt lat="46.22122" lon="4.63998">
        <ele>544.2</ele>
        <time>2022-06-25T13:58:54Z</time>
      </trkpt>
      <trkpt lat="46.22119" lon="4.64001">
        <ele>544.2</ele>
        <time>2022-06-25T13:58:55Z</time>
      </trkpt>
      <trkpt lat="46.22117" lon="4.64003">
        <ele>544.2</ele>
        <time>2022-06-25T13:58:56Z</time>
      </trkpt>
      <trkpt lat="46.22115" lon="4.64005">
        <ele>544.2</ele>
        <time>2022-06-25T13:58:57Z</time>
      </trkpt>
      <trkpt lat="46.22114" lon="4.64006">
        <ele>544.2</ele>
        <time>2022-06-25T13:58:58Z</time>
      </trkpt>
      <trkpt lat="46.22114" lon="4.64006">
        <ele>544.2</ele>
        <time>2022-06-25T13:59:00Z</time>
      </trkpt>
      <trkpt lat="46.2211" lon="4.64009">
        <ele>544.6</ele>
        <time>2022-06-25T13:59:47Z</time>
      </trkpt>
      <trkpt lat="46.22109" lon="4.6401">
        <ele>544.6</ele>
        <time>2022-06-25T13:59:48Z</time>
      </trkpt>
      <trkpt lat="46.22107" lon="4.64011">
        <ele>544.6</ele>
        <time>2022-06-25T13:59:49Z</time>
      </trkpt>
      <trkpt lat="46.22105" lon="4.64012">
        <ele>544.6</ele>
        <time>2022-06-25T13:59:50Z</time>
      </trkpt>
      <trkpt lat="46.22102" lon="4.64014">
        <ele>544.6</ele>
        <time>2022-06-25T13:59:51Z</time>
      </trkpt>
      <trkpt lat="46.221" lon="4.64016">
        <ele>545</ele>
        <time>2022-06-25T13:59:52Z</time>
      </trkpt>
      <trkpt lat="46.22098" lon="4.64017">
        <ele>545</ele>
        <time>2022-06-25T13:59:53Z</time>
      </trkpt>
      <trkpt lat="46.22096" lon="4.64019">
        <ele>545</ele>
        <time>2022-06-25T13:59:54Z</time>
      </trkpt>
      <trkpt lat="46.22093" lon="4.64022">
        <ele>545</ele>
        <time>2022-06-25T13:59:55Z</time>
      </trkpt>
      <trkpt lat="46.22091" lon="4.64024">
        <ele>545.2</ele>
        <time>2022-06-25T13:59:56Z</time>
      </trkpt>
      <trkpt lat="46.22088" lon="4.64027">
        <ele>545.2</ele>
        <time>2022-06-25T13:59:57Z</time>
      </trkpt>
      <trkpt lat="46.22085" lon="4.64029">
        <ele>545.2</ele>
        <time>2022-06-25T13:59:58Z</time>
      </trkpt>
      <trkpt lat="46.22082" lon="4.64032">
        <ele>545.2</ele>
        <time>2022-06-25T13:59:59Z</time>
      </trkpt>
      <trkpt lat="46.22079" lon="4.64035">
        <ele>545.4</ele>
        <time>2022-06-25T14:00:00Z</time>
      </trkpt>
      <trkpt lat="46.22076" lon="4.64038">
        <ele>545.4</ele>
        <time>2022-06-25T14:00:01Z</time>
      </trkpt>
      <trkpt lat="46.22073" lon="4.6404">
        <ele>545.6</ele>
        <time>2022-06-25T14:00:02Z</time>
      </trkpt>
      <trkpt lat="46.2207" lon="4.64043">
        <ele>545.6</ele>
        <time>2022-06-25T14:00:03Z</time>
      </trkpt>
      <trkpt lat="46.22066" lon="4.64045">
        <ele>545.8</ele>
        <time>2022-06-25T14:00:04Z</time>
      </trkpt>
      <trkpt lat="46.22063" lon="4.64047">
        <ele>545.8</ele>
        <time>2022-06-25T14:00:05Z</time>
      </trkpt>
      <trkpt lat="46.22059" lon="4.64049">
        <ele>545.8</ele>
        <time>2022-06-25T14:00:06Z</time>
      </trkpt>
      <trkpt lat="46.22056" lon="4.64051">
        <ele>545.8</ele>
        <time>2022-06-25T14:00:07Z</time>
      </trkpt>
      <trkpt lat="46.22052" lon="4.64054">
        <ele>546</ele>
        <time>2022-06-25T14:00:08Z</time>
      </trkpt>
      <trkpt lat="46.22049" lon="4.64057">
        <ele>546</ele>
        <time>2022-06-25T14:00:09Z</time>
      </trkpt>
      <trkpt lat="46.22046" lon="4.64061">
        <ele>546</ele>
        <time>2022-06-25T14:00:10Z</time>
      </trkpt>
      <trkpt lat="46.22043" lon="4.64065">
        <ele>546.4</ele>
        <time>2022-06-25T14:00:11Z</time>
      </trkpt>
      <trkpt lat="46.2204" lon="4.64068">
        <ele>546.4</ele>
        <time>2022-06-25T14:00:12Z</time>
      </trkpt>
      <trkpt lat="46.22036" lon="4.64071">
        <ele>546.4</ele>
        <time>2022-06-25T14:00:13Z</time>
      </trkpt>
      <trkpt lat="46.22032" lon="4.64074">
        <ele>546.4</ele>
        <time>2022-06-25T14:00:14Z</time>
      </trkpt>
      <trkpt lat="46.22028" lon="4.64077">
        <ele>546.6</ele>
        <time>2022-06-25T14:00:15Z</time>
      </trkpt>
      <trkpt lat="46.22024" lon="4.6408">
        <ele>546.6</ele>
        <time>2022-06-25T14:00:16Z</time>
      </trkpt>
      <trkpt lat="46.2202" lon="4.64083">
        <ele>546.8</ele>
        <time>2022-06-25T14:00:17Z</time>
      </trkpt>
      <trkpt lat="46.22017" lon="4.64086">
        <ele>546.8</ele>
        <time>2022-06-25T14:00:18Z</time>
      </trkpt>
      <trkpt lat="46.22013" lon="4.64089">
        <ele>546.8</ele>
        <time>2022-06-25T14:00:19Z</time>
      </trkpt>
      <trkpt lat="46.22009" lon="4.64092">
        <ele>547</ele>
        <time>2022-06-25T14:00:20Z</time>
      </trkpt>
      <trkpt lat="46.22005" lon="4.64096">
        <ele>547</ele>
        <time>2022-06-25T14:00:21Z</time>
      </trkpt>
      <trkpt lat="46.22001" lon="4.641">
        <ele>547</ele>
        <time>2022-06-25T14:00:22Z</time>
      </trkpt>
      <trkpt lat="46.21997" lon="4.64103">
        <ele>547</ele>
        <time>2022-06-25T14:00:23Z</time>
      </trkpt>
      <trkpt lat="46.21995" lon="4.64105">
        <ele>547</ele>
        <time>2022-06-25T14:00:24Z</time>
      </trkpt>
      <trkpt lat="46.21993" lon="4.64107">
        <ele>547.4</ele>
        <time>2022-06-25T14:00:25Z</time>
      </trkpt>
      <trkpt lat="46.21988" lon="4.64111">
        <ele>547.4</ele>
        <time>2022-06-25T14:00:26Z</time>
      </trkpt>
      <trkpt lat="46.21984" lon="4.64115">
        <ele>547.4</ele>
        <time>2022-06-25T14:00:27Z</time>
      </trkpt>
      <trkpt lat="46.2198" lon="4.64118">
        <ele>547.4</ele>
        <time>2022-06-25T14:00:28Z</time>
      </trkpt>
      <trkpt lat="46.21975" lon="4.64121">
        <ele>547.4</ele>
        <time>2022-06-25T14:00:29Z</time>
      </trkpt>
      <trkpt lat="46.2197" lon="4.64124">
        <ele>547.4</ele>
        <time>2022-06-25T14:00:30Z</time>
      </trkpt>
      <trkpt lat="46.21965" lon="4.64127">
        <ele>547.6</ele>
        <time>2022-06-25T14:00:31Z</time>
      </trkpt>
      <trkpt lat="46.2196" lon="4.64129">
        <ele>547.6</ele>
        <time>2022-06-25T14:00:32Z</time>
      </trkpt>
      <trkpt lat="46.21955" lon="4.64132">
        <ele>547.6</ele>
        <time>2022-06-25T14:00:33Z</time>
      </trkpt>
      <trkpt lat="46.2195" lon="4.64134">
        <ele>547.6</ele>
        <time>2022-06-25T14:00:34Z</time>
      </trkpt>
      <trkpt lat="46.21944" lon="4.64135">
        <ele>547.6</ele>
        <time>2022-06-25T14:00:35Z</time>
      </trkpt>
      <trkpt lat="46.21939" lon="4.64136">
        <ele>547.6</ele>
        <time>2022-06-25T14:00:36Z</time>
      </trkpt>
      <trkpt lat="46.21934" lon="4.64136">
        <ele>547.6</ele>
        <time>2022-06-25T14:00:37Z</time>
      </trkpt>
      <trkpt lat="46.21928" lon="4.64136">
        <ele>547.8</ele>
        <time>2022-06-25T14:00:38Z</time>
      </trkpt>
      <trkpt lat="46.21923" lon="4.64136">
        <ele>547.8</ele>
        <time>2022-06-25T14:00:39Z</time>
      </trkpt>
      <trkpt lat="46.21918" lon="4.64135">
        <ele>547.8</ele>
        <time>2022-06-25T14:00:40Z</time>
      </trkpt>
      <trkpt lat="46.21913" lon="4.64134">
        <ele>547.8</ele>
        <time>2022-06-25T14:00:41Z</time>
      </trkpt>
      <trkpt lat="46.21908" lon="4.64134">
        <ele>548</ele>
        <time>2022-06-25T14:00:42Z</time>
      </trkpt>
      <trkpt lat="46.21903" lon="4.64133">
        <ele>548</ele>
        <time>2022-06-25T14:00:43Z</time>
      </trkpt>
      <trkpt lat="46.21898" lon="4.64132">
        <ele>548</ele>
        <time>2022-06-25T14:00:44Z</time>
      </trkpt>
      <trkpt lat="46.21893" lon="4.6413">
        <ele>548</ele>
        <time>2022-06-25T14:00:45Z</time>
      </trkpt>
      <trkpt lat="46.21888" lon="4.64128">
        <ele>548</ele>
        <time>2022-06-25T14:00:46Z</time>
      </trkpt>
      <trkpt lat="46.21883" lon="4.64127">
        <ele>548.2</ele>
        <time>2022-06-25T14:00:47Z</time>
      </trkpt>
      <trkpt lat="46.21878" lon="4.64126">
        <ele>548.2</ele>
        <time>2022-06-25T14:00:48Z</time>
      </trkpt>
      <trkpt lat="46.21872" lon="4.64126">
        <ele>548.4</ele>
        <time>2022-06-25T14:00:49Z</time>
      </trkpt>
      <trkpt lat="46.21867" lon="4.64124">
        <ele>548.4</ele>
        <time>2022-06-25T14:00:50Z</time>
      </trkpt>
      <trkpt lat="46.21862" lon="4.64123">
        <ele>548.4</ele>
        <time>2022-06-25T14:00:51Z</time>
      </trkpt>
      <trkpt lat="46.21857" lon="4.6412">
        <ele>548.6</ele>
        <time>2022-06-25T14:00:52Z</time>
      </trkpt>
      <trkpt lat="46.21852" lon="4.64118">
        <ele>548.6</ele>
        <time>2022-06-25T14:00:53Z</time>
      </trkpt>
      <trkpt lat="46.21847" lon="4.64115">
        <ele>548.6</ele>
        <time>2022-06-25T14:00:54Z</time>
      </trkpt>
      <trkpt lat="46.21842" lon="4.64112">
        <ele>548.6</ele>
        <time>2022-06-25T14:00:55Z</time>
      </trkpt>
      <trkpt lat="46.21837" lon="4.64108">
        <ele>549</ele>
        <time>2022-06-25T14:00:56Z</time>
      </trkpt>
      <trkpt lat="46.21833" lon="4.64104">
        <ele>549</ele>
        <time>2022-06-25T14:00:57Z</time>
      </trkpt>
      <trkpt lat="46.21829" lon="4.64099">
        <ele>549</ele>
        <time>2022-06-25T14:00:58Z</time>
      </trkpt>
      <trkpt lat="46.21823" lon="4.64091">
        <ele>549.2</ele>
        <time>2022-06-25T14:00:59Z</time>
      </trkpt>
      <trkpt lat="46.21822" lon="4.64088">
        <ele>549.2</ele>
        <time>2022-06-25T14:01:00Z</time>
      </trkpt>
      <trkpt lat="46.21818" lon="4.64081">
        <ele>549.2</ele>
        <time>2022-06-25T14:01:01Z</time>
      </trkpt>
      <trkpt lat="46.21815" lon="4.64075">
        <ele>549.2</ele>
        <time>2022-06-25T14:01:02Z</time>
      </trkpt>
      <trkpt lat="46.21813" lon="4.64068">
        <ele>549.4</ele>
        <time>2022-06-25T14:01:03Z</time>
      </trkpt>
      <trkpt lat="46.2181" lon="4.64062">
        <ele>549.4</ele>
        <time>2022-06-25T14:01:04Z</time>
      </trkpt>
      <trkpt lat="46.21807" lon="4.64055">
        <ele>549.4</ele>
        <time>2022-06-25T14:01:05Z</time>
      </trkpt>
      <trkpt lat="46.21804" lon="4.64048">
        <ele>549.6</ele>
        <time>2022-06-25T14:01:06Z</time>
      </trkpt>
      <trkpt lat="46.21801" lon="4.64042">
        <ele>549.6</ele>
        <time>2022-06-25T14:01:07Z</time>
      </trkpt>
      <trkpt lat="46.21799" lon="4.64035">
        <ele>550</ele>
        <time>2022-06-25T14:01:08Z</time>
      </trkpt>
      <trkpt lat="46.21796" lon="4.64029">
        <ele>550</ele>
        <time>2022-06-25T14:01:09Z</time>
      </trkpt>
      <trkpt lat="46.21794" lon="4.64022">
        <ele>550</ele>
        <time>2022-06-25T14:01:10Z</time>
      </trkpt>
      <trkpt lat="46.21791" lon="4.64015">
        <ele>550</ele>
        <time>2022-06-25T14:01:11Z</time>
      </trkpt>
      <trkpt lat="46.21788" lon="4.64009">
        <ele>550</ele>
        <time>2022-06-25T14:01:12Z</time>
      </trkpt>
      <trkpt lat="46.21785" lon="4.64003">
        <ele>550.2</ele>
        <time>2022-06-25T14:01:13Z</time>
      </trkpt>
      <trkpt lat="46.21781" lon="4.63997">
        <ele>550.2</ele>
        <time>2022-06-25T14:01:14Z</time>
      </trkpt>
      <trkpt lat="46.21777" lon="4.63991">
        <ele>550.2</ele>
        <time>2022-06-25T14:01:15Z</time>
      </trkpt>
      <trkpt lat="46.21773" lon="4.63986">
        <ele>550.2</ele>
        <time>2022-06-25T14:01:16Z</time>
      </trkpt>
      <trkpt lat="46.21769" lon="4.63981">
        <ele>550.2</ele>
        <time>2022-06-25T14:01:17Z</time>
      </trkpt>
      <trkpt lat="46.21764" lon="4.63976">
        <ele>550.2</ele>
        <time>2022-06-25T14:01:18Z</time>
      </trkpt>
      <trkpt lat="46.21758" lon="4.63972">
        <ele>550.2</ele>
        <time>2022-06-25T14:01:19Z</time>
      </trkpt>
      <trkpt lat="46.21753" lon="4.63969">
        <ele>550.2</ele>
        <time>2022-06-25T14:01:20Z</time>
      </trkpt>
      <trkpt lat="46.21747" lon="4.63966">
        <ele>550.2</ele>
        <time>2022-06-25T14:01:21Z</time>
      </trkpt>
      <trkpt lat="46.21741" lon="4.63966">
        <ele>550.2</ele>
        <time>2022-06-25T14:01:22Z</time>
      </trkpt>
      <trkpt lat="46.21735" lon="4.63965">
        <ele>550.2</ele>
        <time>2022-06-25T14:01:23Z</time>
      </trkpt>
      <trkpt lat="46.21728" lon="4.63965">
        <ele>550.2</ele>
        <time>2022-06-25T14:01:24Z</time>
      </trkpt>
      <trkpt lat="46.21722" lon="4.63967">
        <ele>550</ele>
        <time>2022-06-25T14:01:25Z</time>
      </trkpt>
      <trkpt lat="46.21716" lon="4.63969">
        <ele>550</ele>
        <time>2022-06-25T14:01:26Z</time>
      </trkpt>
      <trkpt lat="46.21709" lon="4.6397">
        <ele>549.8</ele>
        <time>2022-06-25T14:01:27Z</time>
      </trkpt>
      <trkpt lat="46.21702" lon="4.63972">
        <ele>549.8</ele>
        <time>2022-06-25T14:01:28Z</time>
      </trkpt>
      <trkpt lat="46.21696" lon="4.63974">
        <ele>549.8</ele>
        <time>2022-06-25T14:01:29Z</time>
      </trkpt>
      <trkpt lat="46.21689" lon="4.63976">
        <ele>549.6</ele>
        <time>2022-06-25T14:01:30Z</time>
      </trkpt>
      <trkpt lat="46.21682" lon="4.63978">
        <ele>549.6</ele>
        <time>2022-06-25T14:01:31Z</time>
      </trkpt>
      <trkpt lat="46.21675" lon="4.63979">
        <ele>549.6</ele>
        <time>2022-06-25T14:01:32Z</time>
      </trkpt>
      <trkpt lat="46.21668" lon="4.63981">
        <ele>549.6</ele>
        <time>2022-06-25T14:01:33Z</time>
      </trkpt>
      <trkpt lat="46.21662" lon="4.63983">
        <ele>549.6</ele>
        <time>2022-06-25T14:01:34Z</time>
      </trkpt>
      <trkpt lat="46.21655" lon="4.63986">
        <ele>549.6</ele>
        <time>2022-06-25T14:01:35Z</time>
      </trkpt>
      <trkpt lat="46.21648" lon="4.63988">
        <ele>549.4</ele>
        <time>2022-06-25T14:01:36Z</time>
      </trkpt>
      <trkpt lat="46.21642" lon="4.63992">
        <ele>549.4</ele>
        <time>2022-06-25T14:01:37Z</time>
      </trkpt>
      <trkpt lat="46.21635" lon="4.63996">
        <ele>549.4</ele>
        <time>2022-06-25T14:01:38Z</time>
      </trkpt>
      <trkpt lat="46.21629" lon="4.64002">
        <ele>549.2</ele>
        <time>2022-06-25T14:01:39Z</time>
      </trkpt>
      <trkpt lat="46.21623" lon="4.64008">
        <ele>549.2</ele>
        <time>2022-06-25T14:01:40Z</time>
      </trkpt>
      <trkpt lat="46.21618" lon="4.64015">
        <ele>549.2</ele>
        <time>2022-06-25T14:01:41Z</time>
      </trkpt>
      <trkpt lat="46.21613" lon="4.64022">
        <ele>548.8</ele>
        <time>2022-06-25T14:01:42Z</time>
      </trkpt>
      <trkpt lat="46.21608" lon="4.64031">
        <ele>548.8</ele>
        <time>2022-06-25T14:01:43Z</time>
      </trkpt>
      <trkpt lat="46.21605" lon="4.6404">
        <ele>548.8</ele>
        <time>2022-06-25T14:01:44Z</time>
      </trkpt>
      <trkpt lat="46.21601" lon="4.6405">
        <ele>548.6</ele>
        <time>2022-06-25T14:01:45Z</time>
      </trkpt>
      <trkpt lat="46.21599" lon="4.6406">
        <ele>548.6</ele>
        <time>2022-06-25T14:01:46Z</time>
      </trkpt>
      <trkpt lat="46.21597" lon="4.6407">
        <ele>548.6</ele>
        <time>2022-06-25T14:01:47Z</time>
      </trkpt>
      <trkpt lat="46.21596" lon="4.6408">
        <ele>548.4</ele>
        <time>2022-06-25T14:01:48Z</time>
      </trkpt>
      <trkpt lat="46.21595" lon="4.6409">
        <ele>548.4</ele>
        <time>2022-06-25T14:01:49Z</time>
      </trkpt>
      <trkpt lat="46.21594" lon="4.64101">
        <ele>548.2</ele>
        <time>2022-06-25T14:01:50Z</time>
      </trkpt>
      <trkpt lat="46.21593" lon="4.64113">
        <ele>548.2</ele>
        <time>2022-06-25T14:01:51Z</time>
      </trkpt>
      <trkpt lat="46.21592" lon="4.64124">
        <ele>547.8</ele>
        <time>2022-06-25T14:01:52Z</time>
      </trkpt>
      <trkpt lat="46.21591" lon="4.64135">
        <ele>547.8</ele>
        <time>2022-06-25T14:01:53Z</time>
      </trkpt>
      <trkpt lat="46.2159" lon="4.64146">
        <ele>547.6</ele>
        <time>2022-06-25T14:01:54Z</time>
      </trkpt>
      <trkpt lat="46.21588" lon="4.64157">
        <ele>547.6</ele>
        <time>2022-06-25T14:01:55Z</time>
      </trkpt>
      <trkpt lat="46.21587" lon="4.64168">
        <ele>547.4</ele>
        <time>2022-06-25T14:01:56Z</time>
      </trkpt>
      <trkpt lat="46.21585" lon="4.64178">
        <ele>547.4</ele>
        <time>2022-06-25T14:01:57Z</time>
      </trkpt>
      <trkpt lat="46.21584" lon="4.6419">
        <ele>547.2</ele>
        <time>2022-06-25T14:01:58Z</time>
      </trkpt>
      <trkpt lat="46.21582" lon="4.642">
        <ele>547.2</ele>
        <time>2022-06-25T14:01:59Z</time>
      </trkpt>
      <trkpt lat="46.2158" lon="4.64211">
        <ele>546.8</ele>
        <time>2022-06-25T14:02:00Z</time>
      </trkpt>
      <trkpt lat="46.21578" lon="4.64222">
        <ele>546.8</ele>
        <time>2022-06-25T14:02:01Z</time>
      </trkpt>
      <trkpt lat="46.21576" lon="4.64233">
        <ele>546.6</ele>
        <time>2022-06-25T14:02:02Z</time>
      </trkpt>
      <trkpt lat="46.21574" lon="4.64243">
        <ele>546.6</ele>
        <time>2022-06-25T14:02:03Z</time>
      </trkpt>
      <trkpt lat="46.21572" lon="4.64254">
        <ele>546.4</ele>
        <time>2022-06-25T14:02:04Z</time>
      </trkpt>
      <trkpt lat="46.2157" lon="4.64265">
        <ele>546.4</ele>
        <time>2022-06-25T14:02:05Z</time>
      </trkpt>
      <trkpt lat="46.21568" lon="4.64276">
        <ele>546</ele>
        <time>2022-06-25T14:02:06Z</time>
      </trkpt>
      <trkpt lat="46.21567" lon="4.64286">
        <ele>546</ele>
        <time>2022-06-25T14:02:07Z</time>
      </trkpt>
      <trkpt lat="46.21565" lon="4.64297">
        <ele>545.8</ele>
        <time>2022-06-25T14:02:08Z</time>
      </trkpt>
      <trkpt lat="46.21564" lon="4.64308">
        <ele>545.8</ele>
        <time>2022-06-25T14:02:09Z</time>
      </trkpt>
      <trkpt lat="46.21563" lon="4.64317">
        <ele>545.8</ele>
        <time>2022-06-25T14:02:10Z</time>
      </trkpt>
      <trkpt lat="46.21562" lon="4.64327">
        <ele>545.4</ele>
        <time>2022-06-25T14:02:11Z</time>
      </trkpt>
      <trkpt lat="46.21561" lon="4.64338">
        <ele>545.4</ele>
        <time>2022-06-25T14:02:12Z</time>
      </trkpt>
      <trkpt lat="46.21559" lon="4.64348">
        <ele>545.2</ele>
        <time>2022-06-25T14:02:13Z</time>
      </trkpt>
      <trkpt lat="46.21558" lon="4.64358">
        <ele>545.2</ele>
        <time>2022-06-25T14:02:14Z</time>
      </trkpt>
      <trkpt lat="46.21557" lon="4.64368">
        <ele>544.8</ele>
        <time>2022-06-25T14:02:15Z</time>
      </trkpt>
      <trkpt lat="46.21557" lon="4.64378">
        <ele>544.8</ele>
        <time>2022-06-25T14:02:16Z</time>
      </trkpt>
      <trkpt lat="46.21556" lon="4.64387">
        <ele>544.6</ele>
        <time>2022-06-25T14:02:17Z</time>
      </trkpt>
      <trkpt lat="46.21555" lon="4.64396">
        <ele>544.6</ele>
        <time>2022-06-25T14:02:18Z</time>
      </trkpt>
      <trkpt lat="46.21554" lon="4.64404">
        <ele>544.4</ele>
        <time>2022-06-25T14:02:19Z</time>
      </trkpt>
      <trkpt lat="46.21554" lon="4.64414">
        <ele>544.4</ele>
        <time>2022-06-25T14:02:20Z</time>
      </trkpt>
      <trkpt lat="46.21555" lon="4.64423">
        <ele>544</ele>
        <time>2022-06-25T14:02:21Z</time>
      </trkpt>
      <trkpt lat="46.21556" lon="4.64434">
        <ele>544</ele>
        <time>2022-06-25T14:02:22Z</time>
      </trkpt>
      <trkpt lat="46.21557" lon="4.64444">
        <ele>543.8</ele>
        <time>2022-06-25T14:02:23Z</time>
      </trkpt>
      <trkpt lat="46.21558" lon="4.64455">
        <ele>543.8</ele>
        <time>2022-06-25T14:02:24Z</time>
      </trkpt>
      <trkpt lat="46.21559" lon="4.64464">
        <ele>543.8</ele>
        <time>2022-06-25T14:02:25Z</time>
      </trkpt>
      <trkpt lat="46.21559" lon="4.64474">
        <ele>543.4</ele>
        <time>2022-06-25T14:02:26Z</time>
      </trkpt>
      <trkpt lat="46.21559" lon="4.64485">
        <ele>543.4</ele>
        <time>2022-06-25T14:02:27Z</time>
      </trkpt>
      <trkpt lat="46.21559" lon="4.64495">
        <ele>543.4</ele>
        <time>2022-06-25T14:02:28Z</time>
      </trkpt>
      <trkpt lat="46.21558" lon="4.64505">
        <ele>543.4</ele>
        <time>2022-06-25T14:02:29Z</time>
      </trkpt>
      <trkpt lat="46.21556" lon="4.64515">
        <ele>543.4</ele>
        <time>2022-06-25T14:02:30Z</time>
      </trkpt>
      <trkpt lat="46.21554" lon="4.64525">
        <ele>543.4</ele>
        <time>2022-06-25T14:02:31Z</time>
      </trkpt>
      <trkpt lat="46.21551" lon="4.64534">
        <ele>543.2</ele>
        <time>2022-06-25T14:02:32Z</time>
      </trkpt>
      <trkpt lat="46.21549" lon="4.64544">
        <ele>543.2</ele>
        <time>2022-06-25T14:02:33Z</time>
      </trkpt>
      <trkpt lat="46.21546" lon="4.64553">
        <ele>542.8</ele>
        <time>2022-06-25T14:02:34Z</time>
      </trkpt>
      <trkpt lat="46.21542" lon="4.64562">
        <ele>542.8</ele>
        <time>2022-06-25T14:02:35Z</time>
      </trkpt>
      <trkpt lat="46.21538" lon="4.64571">
        <ele>542.8</ele>
        <time>2022-06-25T14:02:36Z</time>
      </trkpt>
      <trkpt lat="46.21534" lon="4.6458">
        <ele>542.8</ele>
        <time>2022-06-25T14:02:37Z</time>
      </trkpt>
      <trkpt lat="46.21529" lon="4.64588">
        <ele>542.6</ele>
        <time>2022-06-25T14:02:38Z</time>
      </trkpt>
      <trkpt lat="46.21523" lon="4.64595">
        <ele>542.6</ele>
        <time>2022-06-25T14:02:39Z</time>
      </trkpt>
      <trkpt lat="46.21518" lon="4.64602">
        <ele>542.6</ele>
        <time>2022-06-25T14:02:40Z</time>
      </trkpt>
      <trkpt lat="46.21512" lon="4.64609">
        <ele>542.6</ele>
        <time>2022-06-25T14:02:41Z</time>
      </trkpt>
      <trkpt lat="46.21506" lon="4.64616">
        <ele>542.6</ele>
        <time>2022-06-25T14:02:42Z</time>
      </trkpt>
      <trkpt lat="46.21501" lon="4.64623">
        <ele>542</ele>
        <time>2022-06-25T14:02:43Z</time>
      </trkpt>
      <trkpt lat="46.21496" lon="4.64631">
        <ele>542</ele>
        <time>2022-06-25T14:02:44Z</time>
      </trkpt>
      <trkpt lat="46.21491" lon="4.64638">
        <ele>541.8</ele>
        <time>2022-06-25T14:02:45Z</time>
      </trkpt>
      <trkpt lat="46.21486" lon="4.64646">
        <ele>541.8</ele>
        <time>2022-06-25T14:02:46Z</time>
      </trkpt>
      <trkpt lat="46.21482" lon="4.64654">
        <ele>541.6</ele>
        <time>2022-06-25T14:02:47Z</time>
      </trkpt>
      <trkpt lat="46.21478" lon="4.64663">
        <ele>541.6</ele>
        <time>2022-06-25T14:02:48Z</time>
      </trkpt>
      <trkpt lat="46.21474" lon="4.64672">
        <ele>541.6</ele>
        <time>2022-06-25T14:02:49Z</time>
      </trkpt>
      <trkpt lat="46.21471" lon="4.64681">
        <ele>541.4</ele>
        <time>2022-06-25T14:02:50Z</time>
      </trkpt>
      <trkpt lat="46.21469" lon="4.64691">
        <ele>541.4</ele>
        <time>2022-06-25T14:02:51Z</time>
      </trkpt>
      <trkpt lat="46.21466" lon="4.64701">
        <ele>541.4</ele>
        <time>2022-06-25T14:02:52Z</time>
      </trkpt>
      <trkpt lat="46.21464" lon="4.64711">
        <ele>541</ele>
        <time>2022-06-25T14:02:53Z</time>
      </trkpt>
      <trkpt lat="46.21461" lon="4.64721">
        <ele>541</ele>
        <time>2022-06-25T14:02:54Z</time>
      </trkpt>
      <trkpt lat="46.21458" lon="4.64731">
        <ele>540.8</ele>
        <time>2022-06-25T14:02:55Z</time>
      </trkpt>
      <trkpt lat="46.21455" lon="4.64741">
        <ele>540.8</ele>
        <time>2022-06-25T14:02:56Z</time>
      </trkpt>
      <trkpt lat="46.21451" lon="4.6475">
        <ele>540.8</ele>
        <time>2022-06-25T14:02:57Z</time>
      </trkpt>
      <trkpt lat="46.21447" lon="4.64758">
        <ele>540.8</ele>
        <time>2022-06-25T14:02:58Z</time>
      </trkpt>
      <trkpt lat="46.21443" lon="4.64766">
        <ele>540.8</ele>
        <time>2022-06-25T14:02:59Z</time>
      </trkpt>
      <trkpt lat="46.21437" lon="4.64774">
        <ele>540.6</ele>
        <time>2022-06-25T14:03:00Z</time>
      </trkpt>
      <trkpt lat="46.21432" lon="4.64781">
        <ele>540.6</ele>
        <time>2022-06-25T14:03:01Z</time>
      </trkpt>
      <trkpt lat="46.21426" lon="4.64787">
        <ele>540.2</ele>
        <time>2022-06-25T14:03:02Z</time>
      </trkpt>
      <trkpt lat="46.2142" lon="4.64792">
        <ele>540.2</ele>
        <time>2022-06-25T14:03:03Z</time>
      </trkpt>
      <trkpt lat="46.21415" lon="4.64797">
        <ele>540</ele>
        <time>2022-06-25T14:03:04Z</time>
      </trkpt>
      <trkpt lat="46.21409" lon="4.64802">
        <ele>540</ele>
        <time>2022-06-25T14:03:05Z</time>
      </trkpt>
      <trkpt lat="46.21403" lon="4.64808">
        <ele>540</ele>
        <time>2022-06-25T14:03:06Z</time>
      </trkpt>
      <trkpt lat="46.21397" lon="4.64814">
        <ele>539.8</ele>
        <time>2022-06-25T14:03:07Z</time>
      </trkpt>
      <trkpt lat="46.21392" lon="4.6482">
        <ele>539.8</ele>
        <time>2022-06-25T14:03:08Z</time>
      </trkpt>
      <trkpt lat="46.21387" lon="4.64827">
        <ele>539.4</ele>
        <time>2022-06-25T14:03:09Z</time>
      </trkpt>
      <trkpt lat="46.21382" lon="4.64835">
        <ele>539.4</ele>
        <time>2022-06-25T14:03:10Z</time>
      </trkpt>
      <trkpt lat="46.21378" lon="4.64843">
        <ele>539.4</ele>
        <time>2022-06-25T14:03:11Z</time>
      </trkpt>
      <trkpt lat="46.21373" lon="4.64851">
        <ele>539</ele>
        <time>2022-06-25T14:03:12Z</time>
      </trkpt>
      <trkpt lat="46.21369" lon="4.6486">
        <ele>539</ele>
        <time>2022-06-25T14:03:13Z</time>
      </trkpt>
      <trkpt lat="46.21365" lon="4.64869">
        <ele>538.8</ele>
        <time>2022-06-25T14:03:14Z</time>
      </trkpt>
      <trkpt lat="46.21361" lon="4.64878">
        <ele>538.8</ele>
        <time>2022-06-25T14:03:15Z</time>
      </trkpt>
      <trkpt lat="46.21357" lon="4.64887">
        <ele>538.8</ele>
        <time>2022-06-25T14:03:16Z</time>
      </trkpt>
      <trkpt lat="46.21353" lon="4.64896">
        <ele>538.6</ele>
        <time>2022-06-25T14:03:17Z</time>
      </trkpt>
      <trkpt lat="46.21349" lon="4.64904">
        <ele>538.6</ele>
        <time>2022-06-25T14:03:18Z</time>
      </trkpt>
      <trkpt lat="46.21345" lon="4.64913">
        <ele>538.4</ele>
        <time>2022-06-25T14:03:19Z</time>
      </trkpt>
      <trkpt lat="46.21341" lon="4.64921">
        <ele>538.4</ele>
        <time>2022-06-25T14:03:20Z</time>
      </trkpt>
      <trkpt lat="46.21336" lon="4.64928">
        <ele>538.4</ele>
        <time>2022-06-25T14:03:21Z</time>
      </trkpt>
      <trkpt lat="46.2133" lon="4.64933">
        <ele>538</ele>
        <time>2022-06-25T14:03:22Z</time>
      </trkpt>
      <trkpt lat="46.21323" lon="4.64936">
        <ele>538</ele>
        <time>2022-06-25T14:03:23Z</time>
      </trkpt>
      <trkpt lat="46.21316" lon="4.64937">
        <ele>537.8</ele>
        <time>2022-06-25T14:03:24Z</time>
      </trkpt>
      <trkpt lat="46.2131" lon="4.64936">
        <ele>537.8</ele>
        <time>2022-06-25T14:03:25Z</time>
      </trkpt>
      <trkpt lat="46.21304" lon="4.64932">
        <ele>537.4</ele>
        <time>2022-06-25T14:03:26Z</time>
      </trkpt>
      <trkpt lat="46.21298" lon="4.64926">
        <ele>537.2</ele>
        <time>2022-06-25T14:03:27Z</time>
      </trkpt>
      <trkpt lat="46.21293" lon="4.64919">
        <ele>537.2</ele>
        <time>2022-06-25T14:03:28Z</time>
      </trkpt>
      <trkpt lat="46.21289" lon="4.64912">
        <ele>537</ele>
        <time>2022-06-25T14:03:29Z</time>
      </trkpt>
      <trkpt lat="46.21284" lon="4.64904">
        <ele>537</ele>
        <time>2022-06-25T14:03:30Z</time>
      </trkpt>
      <trkpt lat="46.21279" lon="4.64897">
        <ele>537</ele>
        <time>2022-06-25T14:03:31Z</time>
      </trkpt>
      <trkpt lat="46.21273" lon="4.64891">
        <ele>537</ele>
        <time>2022-06-25T14:03:32Z</time>
      </trkpt>
      <trkpt lat="46.21268" lon="4.64885">
        <ele>537</ele>
        <time>2022-06-25T14:03:33Z</time>
      </trkpt>
      <trkpt lat="46.21263" lon="4.64878">
        <ele>536.6</ele>
        <time>2022-06-25T14:03:34Z</time>
      </trkpt>
      <trkpt lat="46.21257" lon="4.64872">
        <ele>536.6</ele>
        <time>2022-06-25T14:03:35Z</time>
      </trkpt>
      <trkpt lat="46.21252" lon="4.64866">
        <ele>536.4</ele>
        <time>2022-06-25T14:03:36Z</time>
      </trkpt>
      <trkpt lat="46.21247" lon="4.64859">
        <ele>536.4</ele>
        <time>2022-06-25T14:03:37Z</time>
      </trkpt>
      <trkpt lat="46.21242" lon="4.64852">
        <ele>536</ele>
        <time>2022-06-25T14:03:38Z</time>
      </trkpt>
      <trkpt lat="46.21238" lon="4.64845">
        <ele>535.8</ele>
        <time>2022-06-25T14:03:39Z</time>
      </trkpt>
      <trkpt lat="46.21234" lon="4.64837">
        <ele>535.8</ele>
        <time>2022-06-25T14:03:40Z</time>
      </trkpt>
      <trkpt lat="46.21231" lon="4.6483">
        <ele>535.4</ele>
        <time>2022-06-25T14:03:41Z</time>
      </trkpt>
      <trkpt lat="46.21229" lon="4.64822">
        <ele>535.4</ele>
        <time>2022-06-25T14:03:42Z</time>
      </trkpt>
      <trkpt lat="46.21227" lon="4.64815">
        <ele>535.2</ele>
        <time>2022-06-25T14:03:43Z</time>
      </trkpt>
      <trkpt lat="46.21225" lon="4.64808">
        <ele>535</ele>
        <time>2022-06-25T14:03:44Z</time>
      </trkpt>
      <trkpt lat="46.21224" lon="4.64802">
        <ele>534.6</ele>
        <time>2022-06-25T14:03:45Z</time>
      </trkpt>
      <trkpt lat="46.21223" lon="4.64797">
        <ele>534.4</ele>
        <time>2022-06-25T14:03:46Z</time>
      </trkpt>
      <trkpt lat="46.21222" lon="4.64793">
        <ele>534.4</ele>
        <time>2022-06-25T14:03:47Z</time>
      </trkpt>
      <trkpt lat="46.21221" lon="4.64789">
        <ele>534.2</ele>
        <time>2022-06-25T14:03:48Z</time>
      </trkpt>
      <trkpt lat="46.21221" lon="4.64787">
        <ele>534.2</ele>
        <time>2022-06-25T14:03:49Z</time>
      </trkpt>
      <trkpt lat="46.2122" lon="4.64785">
        <ele>534.2</ele>
        <time>2022-06-25T14:03:50Z</time>
      </trkpt>
      <trkpt lat="46.2122" lon="4.64785">
        <ele>534.2</ele>
        <time>2022-06-25T14:03:52Z</time>
      </trkpt>
      <trkpt lat="46.21221" lon="4.64784">
        <ele>533.8</ele>
        <time>2022-06-25T14:04:29Z</time>
      </trkpt>
      <trkpt lat="46.21221" lon="4.64781">
        <ele>533.8</ele>
        <time>2022-06-25T14:04:30Z</time>
      </trkpt>
      <trkpt lat="46.21221" lon="4.64778">
        <ele>533.8</ele>
        <time>2022-06-25T14:04:31Z</time>
      </trkpt>
      <trkpt lat="46.21221" lon="4.64774">
        <ele>533.8</ele>
        <time>2022-06-25T14:04:32Z</time>
      </trkpt>
      <trkpt lat="46.21221" lon="4.6477">
        <ele>533.8</ele>
        <time>2022-06-25T14:04:33Z</time>
      </trkpt>
      <trkpt lat="46.2122" lon="4.64765">
        <ele>533.8</ele>
        <time>2022-06-25T14:04:34Z</time>
      </trkpt>
      <trkpt lat="46.21218" lon="4.6476">
        <ele>533.8</ele>
        <time>2022-06-25T14:04:35Z</time>
      </trkpt>
      <trkpt lat="46.21217" lon="4.64755">
        <ele>533.8</ele>
        <time>2022-06-25T14:04:36Z</time>
      </trkpt>
      <trkpt lat="46.21217" lon="4.6475">
        <ele>533.8</ele>
        <time>2022-06-25T14:04:37Z</time>
      </trkpt>
      <trkpt lat="46.21216" lon="4.64745">
        <ele>533.8</ele>
        <time>2022-06-25T14:04:38Z</time>
      </trkpt>
      <trkpt lat="46.21215" lon="4.6474">
        <ele>533.6</ele>
        <time>2022-06-25T14:04:39Z</time>
      </trkpt>
      <trkpt lat="46.21214" lon="4.64735">
        <ele>533.6</ele>
        <time>2022-06-25T14:04:40Z</time>
      </trkpt>
      <trkpt lat="46.21213" lon="4.64729">
        <ele>533.4</ele>
        <time>2022-06-25T14:04:41Z</time>
      </trkpt>
      <trkpt lat="46.21212" lon="4.64724">
        <ele>533.4</ele>
        <time>2022-06-25T14:04:42Z</time>
      </trkpt>
      <trkpt lat="46.21211" lon="4.64718">
        <ele>533.2</ele>
        <time>2022-06-25T14:04:43Z</time>
      </trkpt>
      <trkpt lat="46.2121" lon="4.64712">
        <ele>533.2</ele>
        <time>2022-06-25T14:04:44Z</time>
      </trkpt>
      <trkpt lat="46.2121" lon="4.64706">
        <ele>533.2</ele>
        <time>2022-06-25T14:04:45Z</time>
      </trkpt>
      <trkpt lat="46.21209" lon="4.647">
        <ele>533.2</ele>
        <time>2022-06-25T14:04:46Z</time>
      </trkpt>
      <trkpt lat="46.21208" lon="4.64693">
        <ele>532.8</ele>
        <time>2022-06-25T14:04:47Z</time>
      </trkpt>
      <trkpt lat="46.21207" lon="4.64686">
        <ele>532.8</ele>
        <time>2022-06-25T14:04:48Z</time>
      </trkpt>
      <trkpt lat="46.21206" lon="4.64679">
        <ele>532.8</ele>
        <time>2022-06-25T14:04:49Z</time>
      </trkpt>
      <trkpt lat="46.21204" lon="4.64671">
        <ele>532.8</ele>
        <time>2022-06-25T14:04:50Z</time>
      </trkpt>
      <trkpt lat="46.21203" lon="4.64663">
        <ele>532.8</ele>
        <time>2022-06-25T14:04:51Z</time>
      </trkpt>
      <trkpt lat="46.21201" lon="4.64656">
        <ele>532.8</ele>
        <time>2022-06-25T14:04:52Z</time>
      </trkpt>
      <trkpt lat="46.21198" lon="4.64648">
        <ele>532.8</ele>
        <time>2022-06-25T14:04:53Z</time>
      </trkpt>
      <trkpt lat="46.21194" lon="4.64641">
        <ele>532.8</ele>
        <time>2022-06-25T14:04:54Z</time>
      </trkpt>
      <trkpt lat="46.2119" lon="4.64635">
        <ele>532.6</ele>
        <time>2022-06-25T14:04:55Z</time>
      </trkpt>
      <trkpt lat="46.21185" lon="4.64628">
        <ele>532.6</ele>
        <time>2022-06-25T14:04:56Z</time>
      </trkpt>
      <trkpt lat="46.2118" lon="4.64622">
        <ele>532.4</ele>
        <time>2022-06-25T14:04:57Z</time>
      </trkpt>
      <trkpt lat="46.21175" lon="4.64616">
        <ele>532.4</ele>
        <time>2022-06-25T14:04:58Z</time>
      </trkpt>
      <trkpt lat="46.2117" lon="4.6461">
        <ele>532.2</ele>
        <time>2022-06-25T14:04:59Z</time>
      </trkpt>
      <trkpt lat="46.21165" lon="4.64603">
        <ele>532.2</ele>
        <time>2022-06-25T14:05:00Z</time>
      </trkpt>
      <trkpt lat="46.2116" lon="4.64597">
        <ele>532.2</ele>
        <time>2022-06-25T14:05:01Z</time>
      </trkpt>
      <trkpt lat="46.21155" lon="4.64591">
        <ele>532.2</ele>
        <time>2022-06-25T14:05:02Z</time>
      </trkpt>
      <trkpt lat="46.21149" lon="4.64585">
        <ele>532.2</ele>
        <time>2022-06-25T14:05:03Z</time>
      </trkpt>
      <trkpt lat="46.21144" lon="4.64579">
        <ele>532.2</ele>
        <time>2022-06-25T14:05:04Z</time>
      </trkpt>
      <trkpt lat="46.21138" lon="4.64573">
        <ele>532.2</ele>
        <time>2022-06-25T14:05:05Z</time>
      </trkpt>
      <trkpt lat="46.21133" lon="4.64566">
        <ele>532.2</ele>
        <time>2022-06-25T14:05:06Z</time>
      </trkpt>
      <trkpt lat="46.21128" lon="4.6456">
        <ele>532.2</ele>
        <time>2022-06-25T14:05:07Z</time>
      </trkpt>
      <trkpt lat="46.21123" lon="4.64554">
        <ele>531.8</ele>
        <time>2022-06-25T14:05:08Z</time>
      </trkpt>
      <trkpt lat="46.21118" lon="4.64547">
        <ele>531.8</ele>
        <time>2022-06-25T14:05:09Z</time>
      </trkpt>
      <trkpt lat="46.21114" lon="4.6454">
        <ele>531.8</ele>
        <time>2022-06-25T14:05:10Z</time>
      </trkpt>
      <trkpt lat="46.21109" lon="4.64534">
        <ele>531.8</ele>
        <time>2022-06-25T14:05:11Z</time>
      </trkpt>
      <trkpt lat="46.21105" lon="4.64526">
        <ele>531.8</ele>
        <time>2022-06-25T14:05:12Z</time>
      </trkpt>
      <trkpt lat="46.21101" lon="4.64519">
        <ele>531.8</ele>
        <time>2022-06-25T14:05:13Z</time>
      </trkpt>
      <trkpt lat="46.21097" lon="4.64512">
        <ele>531.6</ele>
        <time>2022-06-25T14:05:14Z</time>
      </trkpt>
      <trkpt lat="46.21094" lon="4.64505">
        <ele>531.6</ele>
        <time>2022-06-25T14:05:15Z</time>
      </trkpt>
      <trkpt lat="46.21091" lon="4.64498">
        <ele>531.6</ele>
        <time>2022-06-25T14:05:16Z</time>
      </trkpt>
      <trkpt lat="46.21088" lon="4.64491">
        <ele>531.6</ele>
        <time>2022-06-25T14:05:17Z</time>
      </trkpt>
      <trkpt lat="46.21085" lon="4.64484">
        <ele>531.6</ele>
        <time>2022-06-25T14:05:18Z</time>
      </trkpt>
      <trkpt lat="46.21082" lon="4.64477">
        <ele>531.8</ele>
        <time>2022-06-25T14:05:19Z</time>
      </trkpt>
      <trkpt lat="46.2108" lon="4.64471">
        <ele>531.8</ele>
        <time>2022-06-25T14:05:20Z</time>
      </trkpt>
      <trkpt lat="46.21077" lon="4.64465">
        <ele>531.8</ele>
        <time>2022-06-25T14:05:21Z</time>
      </trkpt>
      <trkpt lat="46.21075" lon="4.64459">
        <ele>531.8</ele>
        <time>2022-06-25T14:05:22Z</time>
      </trkpt>
      <trkpt lat="46.21073" lon="4.64453">
        <ele>532.2</ele>
        <time>2022-06-25T14:05:23Z</time>
      </trkpt>
      <trkpt lat="46.21071" lon="4.64449">
        <ele>532.2</ele>
        <time>2022-06-25T14:05:24Z</time>
      </trkpt>
      <trkpt lat="46.21069" lon="4.64445">
        <ele>532.2</ele>
        <time>2022-06-25T14:05:25Z</time>
      </trkpt>
      <trkpt lat="46.21068" lon="4.64441">
        <ele>532.2</ele>
        <time>2022-06-25T14:05:26Z</time>
      </trkpt>
      <trkpt lat="46.21066" lon="4.64437">
        <ele>532.2</ele>
        <time>2022-06-25T14:05:27Z</time>
      </trkpt>
      <trkpt lat="46.21064" lon="4.64433">
        <ele>532.2</ele>
        <time>2022-06-25T14:05:28Z</time>
      </trkpt>
      <trkpt lat="46.21061" lon="4.64429">
        <ele>532.2</ele>
        <time>2022-06-25T14:05:29Z</time>
      </trkpt>
      <trkpt lat="46.21058" lon="4.64426">
        <ele>532.2</ele>
        <time>2022-06-25T14:05:30Z</time>
      </trkpt>
      <trkpt lat="46.21054" lon="4.64423">
        <ele>532.2</ele>
        <time>2022-06-25T14:05:31Z</time>
      </trkpt>
      <trkpt lat="46.2105" lon="4.64419">
        <ele>532.2</ele>
        <time>2022-06-25T14:05:32Z</time>
      </trkpt>
      <trkpt lat="46.21046" lon="4.64416">
        <ele>532.2</ele>
        <time>2022-06-25T14:05:33Z</time>
      </trkpt>
      <trkpt lat="46.21042" lon="4.64413">
        <ele>532.2</ele>
        <time>2022-06-25T14:05:34Z</time>
      </trkpt>
      <trkpt lat="46.21038" lon="4.6441">
        <ele>532.2</ele>
        <time>2022-06-25T14:05:35Z</time>
      </trkpt>
      <trkpt lat="46.21034" lon="4.64407">
        <ele>532.2</ele>
        <time>2022-06-25T14:05:36Z</time>
      </trkpt>
      <trkpt lat="46.2103" lon="4.64405">
        <ele>532.2</ele>
        <time>2022-06-25T14:05:37Z</time>
      </trkpt>
      <trkpt lat="46.21026" lon="4.64402">
        <ele>531.8</ele>
        <time>2022-06-25T14:05:38Z</time>
      </trkpt>
      <trkpt lat="46.21021" lon="4.64399">
        <ele>531.8</ele>
        <time>2022-06-25T14:05:39Z</time>
      </trkpt>
      <trkpt lat="46.21017" lon="4.64396">
        <ele>531.8</ele>
        <time>2022-06-25T14:05:40Z</time>
      </trkpt>
      <trkpt lat="46.21012" lon="4.64393">
        <ele>531.6</ele>
        <time>2022-06-25T14:05:41Z</time>
      </trkpt>
      <trkpt lat="46.21006" lon="4.64391">
        <ele>531.6</ele>
        <time>2022-06-25T14:05:42Z</time>
      </trkpt>
      <trkpt lat="46.21" lon="4.64388">
        <ele>531.2</ele>
        <time>2022-06-25T14:05:43Z</time>
      </trkpt>
      <trkpt lat="46.20995" lon="4.64384">
        <ele>530.8</ele>
        <time>2022-06-25T14:05:44Z</time>
      </trkpt>
      <trkpt lat="46.20989" lon="4.64381">
        <ele>530.6</ele>
        <time>2022-06-25T14:05:45Z</time>
      </trkpt>
      <trkpt lat="46.20983" lon="4.64377">
        <ele>530.2</ele>
        <time>2022-06-25T14:05:46Z</time>
      </trkpt>
      <trkpt lat="46.20977" lon="4.64373">
        <ele>529.8</ele>
        <time>2022-06-25T14:05:47Z</time>
      </trkpt>
      <trkpt lat="46.2097" lon="4.64369">
        <ele>529.6</ele>
        <time>2022-06-25T14:05:48Z</time>
      </trkpt>
      <trkpt lat="46.20965" lon="4.64365">
        <ele>529.2</ele>
        <time>2022-06-25T14:05:49Z</time>
      </trkpt>
      <trkpt lat="46.20961" lon="4.6436">
        <ele>529</ele>
        <time>2022-06-25T14:05:50Z</time>
      </trkpt>
      <trkpt lat="46.20958" lon="4.64356">
        <ele>528.6</ele>
        <time>2022-06-25T14:05:51Z</time>
      </trkpt>
      <trkpt lat="46.20955" lon="4.64353">
        <ele>528.4</ele>
        <time>2022-06-25T14:05:52Z</time>
      </trkpt>
      <trkpt lat="46.20954" lon="4.64351">
        <ele>528.2</ele>
        <time>2022-06-25T14:05:53Z</time>
      </trkpt>
      <trkpt lat="46.20952" lon="4.6435">
        <ele>528</ele>
        <time>2022-06-25T14:05:54Z</time>
      </trkpt>
      <trkpt lat="46.20951" lon="4.64351">
        <ele>528</ele>
        <time>2022-06-25T14:05:55Z</time>
      </trkpt>
      <trkpt lat="46.2095" lon="4.64353">
        <ele>527.6</ele>
        <time>2022-06-25T14:05:56Z</time>
      </trkpt>
      <trkpt lat="46.2095" lon="4.64355">
        <ele>527.6</ele>
        <time>2022-06-25T14:05:57Z</time>
      </trkpt>
      <trkpt lat="46.20951" lon="4.64357">
        <ele>527.6</ele>
        <time>2022-06-25T14:05:58Z</time>
      </trkpt>
      <trkpt lat="46.20951" lon="4.64358">
        <ele>527.6</ele>
        <time>2022-06-25T14:06:00Z</time>
      </trkpt>
      <trkpt lat="46.20952" lon="4.64358">
        <ele>527.6</ele>
        <time>2022-06-25T14:06:01Z</time>
      </trkpt>
      <trkpt lat="46.20952" lon="4.64358">
        <ele>527.8</ele>
        <time>2022-06-25T14:06:37Z</time>
      </trkpt>
      <trkpt lat="46.20952" lon="4.64358">
        <ele>527.6</ele>
        <time>2022-06-25T14:07:17Z</time>
      </trkpt>
      <trkpt lat="46.20952" lon="4.64358">
        <ele>527.6</ele>
        <time>2022-06-25T14:07:56Z</time>
      </trkpt>
      <trkpt lat="46.20952" lon="4.64358">
        <ele>527.6</ele>
        <time>2022-06-25T14:08:31Z</time>
      </trkpt>
      <trkpt lat="46.2095" lon="4.64354">
        <ele>527.4</ele>
        <time>2022-06-25T14:09:02Z</time>
      </trkpt>
      <trkpt lat="46.20948" lon="4.64352">
        <ele>527.4</ele>
        <time>2022-06-25T14:09:03Z</time>
      </trkpt>
      <trkpt lat="46.20946" lon="4.6435">
        <ele>527.4</ele>
        <time>2022-06-25T14:09:04Z</time>
      </trkpt>
      <trkpt lat="46.20943" lon="4.64348">
        <ele>527.2</ele>
        <time>2022-06-25T14:09:05Z</time>
      </trkpt>
      <trkpt lat="46.2094" lon="4.64346">
        <ele>527.2</ele>
        <time>2022-06-25T14:09:06Z</time>
      </trkpt>
      <trkpt lat="46.20936" lon="4.64344">
        <ele>527</ele>
        <time>2022-06-25T14:09:07Z</time>
      </trkpt>
      <trkpt lat="46.20933" lon="4.64341">
        <ele>527</ele>
        <time>2022-06-25T14:09:08Z</time>
      </trkpt>
      <trkpt lat="46.20929" lon="4.64338">
        <ele>527</ele>
        <time>2022-06-25T14:09:09Z</time>
      </trkpt>
      <trkpt lat="46.20925" lon="4.64336">
        <ele>526.6</ele>
        <time>2022-06-25T14:09:10Z</time>
      </trkpt>
      <trkpt lat="46.20921" lon="4.64332">
        <ele>526.6</ele>
        <time>2022-06-25T14:09:11Z</time>
      </trkpt>
      <trkpt lat="46.20917" lon="4.64329">
        <ele>526.2</ele>
        <time>2022-06-25T14:09:12Z</time>
      </trkpt>
      <trkpt lat="46.20913" lon="4.64324">
        <ele>526.2</ele>
        <time>2022-06-25T14:09:13Z</time>
      </trkpt>
      <trkpt lat="46.20909" lon="4.64317">
        <ele>525.8</ele>
        <time>2022-06-25T14:09:14Z</time>
      </trkpt>
      <trkpt lat="46.20905" lon="4.64311">
        <ele>525.6</ele>
        <time>2022-06-25T14:09:15Z</time>
      </trkpt>
      <trkpt lat="46.20901" lon="4.64304">
        <ele>525.4</ele>
        <time>2022-06-25T14:09:16Z</time>
      </trkpt>
      <trkpt lat="46.20897" lon="4.64297">
        <ele>525.4</ele>
        <time>2022-06-25T14:09:17Z</time>
      </trkpt>
      <trkpt lat="46.20893" lon="4.6429">
        <ele>525.2</ele>
        <time>2022-06-25T14:09:18Z</time>
      </trkpt>
      <trkpt lat="46.20888" lon="4.64283">
        <ele>524.8</ele>
        <time>2022-06-25T14:09:19Z</time>
      </trkpt>
      <trkpt lat="46.20884" lon="4.64276">
        <ele>524.4</ele>
        <time>2022-06-25T14:09:20Z</time>
      </trkpt>
      <trkpt lat="46.20879" lon="4.64269">
        <ele>524.2</ele>
        <time>2022-06-25T14:09:21Z</time>
      </trkpt>
      <trkpt lat="46.20873" lon="4.64264">
        <ele>523.8</ele>
        <time>2022-06-25T14:09:22Z</time>
      </trkpt>
      <trkpt lat="46.20866" lon="4.64259">
        <ele>523.4</ele>
        <time>2022-06-25T14:09:23Z</time>
      </trkpt>
      <trkpt lat="46.20859" lon="4.64254">
        <ele>523.2</ele>
        <time>2022-06-25T14:09:24Z</time>
      </trkpt>
      <trkpt lat="46.20852" lon="4.64251">
        <ele>523</ele>
        <time>2022-06-25T14:09:25Z</time>
      </trkpt>
      <trkpt lat="46.20844" lon="4.64249">
        <ele>522.6</ele>
        <time>2022-06-25T14:09:26Z</time>
      </trkpt>
      <trkpt lat="46.20836" lon="4.64249">
        <ele>522.2</ele>
        <time>2022-06-25T14:09:27Z</time>
      </trkpt>
      <trkpt lat="46.20828" lon="4.64251">
        <ele>522</ele>
        <time>2022-06-25T14:09:28Z</time>
      </trkpt>
      <trkpt lat="46.2082" lon="4.64255">
        <ele>521.6</ele>
        <time>2022-06-25T14:09:29Z</time>
      </trkpt>
      <trkpt lat="46.20812" lon="4.64262">
        <ele>521</ele>
        <time>2022-06-25T14:09:30Z</time>
      </trkpt>
      <trkpt lat="46.20806" lon="4.6427">
        <ele>520.6</ele>
        <time>2022-06-25T14:09:31Z</time>
      </trkpt>
      <trkpt lat="46.208" lon="4.6428">
        <ele>520</ele>
        <time>2022-06-25T14:09:32Z</time>
      </trkpt>
      <trkpt lat="46.20794" lon="4.64292">
        <ele>519.6</ele>
        <time>2022-06-25T14:09:33Z</time>
      </trkpt>
      <trkpt lat="46.20788" lon="4.64304">
        <ele>519</ele>
        <time>2022-06-25T14:09:34Z</time>
      </trkpt>
      <trkpt lat="46.20782" lon="4.64314">
        <ele>518.6</ele>
        <time>2022-06-25T14:09:35Z</time>
      </trkpt>
      <trkpt lat="46.20776" lon="4.64326">
        <ele>518.2</ele>
        <time>2022-06-25T14:09:36Z</time>
      </trkpt>
      <trkpt lat="46.20771" lon="4.64337">
        <ele>517.6</ele>
        <time>2022-06-25T14:09:37Z</time>
      </trkpt>
      <trkpt lat="46.20764" lon="4.6435">
        <ele>517</ele>
        <time>2022-06-25T14:09:38Z</time>
      </trkpt>
      <trkpt lat="46.20758" lon="4.64361">
        <ele>516.6</ele>
        <time>2022-06-25T14:09:39Z</time>
      </trkpt>
      <trkpt lat="46.20752" lon="4.64373">
        <ele>516.2</ele>
        <time>2022-06-25T14:09:40Z</time>
      </trkpt>
      <trkpt lat="46.20747" lon="4.64385">
        <ele>515.8</ele>
        <time>2022-06-25T14:09:41Z</time>
      </trkpt>
      <trkpt lat="46.20741" lon="4.64395">
        <ele>515.8</ele>
        <time>2022-06-25T14:09:42Z</time>
      </trkpt>
      <trkpt lat="46.20736" lon="4.64403">
        <ele>515.8</ele>
        <time>2022-06-25T14:09:43Z</time>
      </trkpt>
      <trkpt lat="46.20731" lon="4.64411">
        <ele>515.8</ele>
        <time>2022-06-25T14:09:44Z</time>
      </trkpt>
      <trkpt lat="46.20726" lon="4.64418">
        <ele>515.8</ele>
        <time>2022-06-25T14:09:45Z</time>
      </trkpt>
      <trkpt lat="46.20721" lon="4.64424">
        <ele>516</ele>
        <time>2022-06-25T14:09:46Z</time>
      </trkpt>
      <trkpt lat="46.20717" lon="4.6443">
        <ele>516.4</ele>
        <time>2022-06-25T14:09:47Z</time>
      </trkpt>
      <trkpt lat="46.20714" lon="4.64435">
        <ele>516.6</ele>
        <time>2022-06-25T14:09:48Z</time>
      </trkpt>
      <trkpt lat="46.2071" lon="4.64439">
        <ele>517</ele>
        <time>2022-06-25T14:09:49Z</time>
      </trkpt>
      <trkpt lat="46.20707" lon="4.64443">
        <ele>517.2</ele>
        <time>2022-06-25T14:09:50Z</time>
      </trkpt>
      <trkpt lat="46.20704" lon="4.64447">
        <ele>517.6</ele>
        <time>2022-06-25T14:09:51Z</time>
      </trkpt>
      <trkpt lat="46.20701" lon="4.6445">
        <ele>517.8</ele>
        <time>2022-06-25T14:09:52Z</time>
      </trkpt>
      <trkpt lat="46.20698" lon="4.64454">
        <ele>518.2</ele>
        <time>2022-06-25T14:09:53Z</time>
      </trkpt>
      <trkpt lat="46.20696" lon="4.64457">
        <ele>518.4</ele>
        <time>2022-06-25T14:09:54Z</time>
      </trkpt>
      <trkpt lat="46.20693" lon="4.6446">
        <ele>518.6</ele>
        <time>2022-06-25T14:09:55Z</time>
      </trkpt>
      <trkpt lat="46.2069" lon="4.64463">
        <ele>518.8</ele>
        <time>2022-06-25T14:09:56Z</time>
      </trkpt>
      <trkpt lat="46.20688" lon="4.64466">
        <ele>519.2</ele>
        <time>2022-06-25T14:09:57Z</time>
      </trkpt>
      <trkpt lat="46.20685" lon="4.64468">
        <ele>519.4</ele>
        <time>2022-06-25T14:09:58Z</time>
      </trkpt>
      <trkpt lat="46.20683" lon="4.64471">
        <ele>519.8</ele>
        <time>2022-06-25T14:09:59Z</time>
      </trkpt>
      <trkpt lat="46.2068" lon="4.64473">
        <ele>520</ele>
        <time>2022-06-25T14:10:00Z</time>
      </trkpt>
      <trkpt lat="46.20677" lon="4.64475">
        <ele>520.2</ele>
        <time>2022-06-25T14:10:01Z</time>
      </trkpt>
      <trkpt lat="46.20675" lon="4.64478">
        <ele>520.2</ele>
        <time>2022-06-25T14:10:02Z</time>
      </trkpt>
      <trkpt lat="46.20672" lon="4.6448">
        <ele>520.6</ele>
        <time>2022-06-25T14:10:03Z</time>
      </trkpt>
      <trkpt lat="46.2067" lon="4.64483">
        <ele>520.6</ele>
        <time>2022-06-25T14:10:04Z</time>
      </trkpt>
      <trkpt lat="46.20667" lon="4.64486">
        <ele>521</ele>
        <time>2022-06-25T14:10:05Z</time>
      </trkpt>
      <trkpt lat="46.20665" lon="4.64488">
        <ele>521</ele>
        <time>2022-06-25T14:10:06Z</time>
      </trkpt>
      <trkpt lat="46.20662" lon="4.64491">
        <ele>521.4</ele>
        <time>2022-06-25T14:10:07Z</time>
      </trkpt>
      <trkpt lat="46.2066" lon="4.64493">
        <ele>521.4</ele>
        <time>2022-06-25T14:10:08Z</time>
      </trkpt>
      <trkpt lat="46.20657" lon="4.64495">
        <ele>521.8</ele>
        <time>2022-06-25T14:10:09Z</time>
      </trkpt>
      <trkpt lat="46.20654" lon="4.64497">
        <ele>522</ele>
        <time>2022-06-25T14:10:10Z</time>
      </trkpt>
      <trkpt lat="46.20651" lon="4.645">
        <ele>522.4</ele>
        <time>2022-06-25T14:10:11Z</time>
      </trkpt>
      <trkpt lat="46.20648" lon="4.64502">
        <ele>522.6</ele>
        <time>2022-06-25T14:10:12Z</time>
      </trkpt>
      <trkpt lat="46.20645" lon="4.64503">
        <ele>522.6</ele>
        <time>2022-06-25T14:10:13Z</time>
      </trkpt>
      <trkpt lat="46.20642" lon="4.64504">
        <ele>523</ele>
        <time>2022-06-25T14:10:14Z</time>
      </trkpt>
      <trkpt lat="46.20639" lon="4.64505">
        <ele>523.4</ele>
        <time>2022-06-25T14:10:15Z</time>
      </trkpt>
      <trkpt lat="46.20636" lon="4.64505">
        <ele>523.6</ele>
        <time>2022-06-25T14:10:16Z</time>
      </trkpt>
      <trkpt lat="46.20633" lon="4.64506">
        <ele>523.6</ele>
        <time>2022-06-25T14:10:17Z</time>
      </trkpt>
      <trkpt lat="46.20631" lon="4.64507">
        <ele>524</ele>
        <time>2022-06-25T14:10:18Z</time>
      </trkpt>
      <trkpt lat="46.20628" lon="4.64507">
        <ele>524.2</ele>
        <time>2022-06-25T14:10:19Z</time>
      </trkpt>
      <trkpt lat="46.20625" lon="4.64507">
        <ele>524.6</ele>
        <time>2022-06-25T14:10:20Z</time>
      </trkpt>
      <trkpt lat="46.20622" lon="4.64507">
        <ele>524.6</ele>
        <time>2022-06-25T14:10:21Z</time>
      </trkpt>
      <trkpt lat="46.20619" lon="4.64507">
        <ele>524.8</ele>
        <time>2022-06-25T14:10:22Z</time>
      </trkpt>
      <trkpt lat="46.20616" lon="4.64507">
        <ele>524.8</ele>
        <time>2022-06-25T14:10:23Z</time>
      </trkpt>
      <trkpt lat="46.20614" lon="4.64507">
        <ele>525.2</ele>
        <time>2022-06-25T14:10:24Z</time>
      </trkpt>
      <trkpt lat="46.20611" lon="4.64506">
        <ele>525.4</ele>
        <time>2022-06-25T14:10:25Z</time>
      </trkpt>
      <trkpt lat="46.20608" lon="4.64505">
        <ele>525.4</ele>
        <time>2022-06-25T14:10:26Z</time>
      </trkpt>
      <trkpt lat="46.20605" lon="4.64505">
        <ele>525.8</ele>
        <time>2022-06-25T14:10:27Z</time>
      </trkpt>
      <trkpt lat="46.20602" lon="4.64505">
        <ele>525.8</ele>
        <time>2022-06-25T14:10:28Z</time>
      </trkpt>
      <trkpt lat="46.206" lon="4.64505">
        <ele>526</ele>
        <time>2022-06-25T14:10:29Z</time>
      </trkpt>
      <trkpt lat="46.20597" lon="4.64504">
        <ele>526</ele>
        <time>2022-06-25T14:10:30Z</time>
      </trkpt>
      <trkpt lat="46.20595" lon="4.64503">
        <ele>526.4</ele>
        <time>2022-06-25T14:10:31Z</time>
      </trkpt>
      <trkpt lat="46.20592" lon="4.64502">
        <ele>526.4</ele>
        <time>2022-06-25T14:10:32Z</time>
      </trkpt>
      <trkpt lat="46.2059" lon="4.645">
        <ele>526.8</ele>
        <time>2022-06-25T14:10:33Z</time>
      </trkpt>
      <trkpt lat="46.20587" lon="4.64499">
        <ele>526.8</ele>
        <time>2022-06-25T14:10:34Z</time>
      </trkpt>
      <trkpt lat="46.20585" lon="4.64497">
        <ele>527.2</ele>
        <time>2022-06-25T14:10:35Z</time>
      </trkpt>
      <trkpt lat="46.20583" lon="4.64495">
        <ele>527.2</ele>
        <time>2022-06-25T14:10:36Z</time>
      </trkpt>
      <trkpt lat="46.20581" lon="4.64493">
        <ele>527.6</ele>
        <time>2022-06-25T14:10:37Z</time>
      </trkpt>
      <trkpt lat="46.20578" lon="4.64492">
        <ele>527.8</ele>
        <time>2022-06-25T14:10:38Z</time>
      </trkpt>
      <trkpt lat="46.20576" lon="4.6449">
        <ele>527.8</ele>
        <time>2022-06-25T14:10:39Z</time>
      </trkpt>
      <trkpt lat="46.20574" lon="4.64489">
        <ele>528</ele>
        <time>2022-06-25T14:10:40Z</time>
      </trkpt>
      <trkpt lat="46.20571" lon="4.64487">
        <ele>528</ele>
        <time>2022-06-25T14:10:41Z</time>
      </trkpt>
      <trkpt lat="46.20569" lon="4.64486">
        <ele>528.4</ele>
        <time>2022-06-25T14:10:42Z</time>
      </trkpt>
      <trkpt lat="46.20567" lon="4.64485">
        <ele>528.4</ele>
        <time>2022-06-25T14:10:43Z</time>
      </trkpt>
      <trkpt lat="46.20565" lon="4.64484">
        <ele>528.8</ele>
        <time>2022-06-25T14:10:44Z</time>
      </trkpt>
      <trkpt lat="46.20563" lon="4.64482">
        <ele>528.8</ele>
        <time>2022-06-25T14:10:45Z</time>
      </trkpt>
      <trkpt lat="46.20561" lon="4.64481">
        <ele>529.2</ele>
        <time>2022-06-25T14:10:46Z</time>
      </trkpt>
      <trkpt lat="46.20558" lon="4.64479">
        <ele>529.4</ele>
        <time>2022-06-25T14:10:47Z</time>
      </trkpt>
      <trkpt lat="46.20556" lon="4.64478">
        <ele>529.4</ele>
        <time>2022-06-25T14:10:48Z</time>
      </trkpt>
      <trkpt lat="46.20554" lon="4.64476">
        <ele>529.8</ele>
        <time>2022-06-25T14:10:49Z</time>
      </trkpt>
      <trkpt lat="46.20552" lon="4.64474">
        <ele>530</ele>
        <time>2022-06-25T14:10:50Z</time>
      </trkpt>
      <trkpt lat="46.2055" lon="4.64472">
        <ele>530</ele>
        <time>2022-06-25T14:10:51Z</time>
      </trkpt>
      <trkpt lat="46.20548" lon="4.6447">
        <ele>530.2</ele>
        <time>2022-06-25T14:10:52Z</time>
      </trkpt>
      <trkpt lat="46.20546" lon="4.64469">
        <ele>530.2</ele>
        <time>2022-06-25T14:10:53Z</time>
      </trkpt>
      <trkpt lat="46.20543" lon="4.64467">
        <ele>530.6</ele>
        <time>2022-06-25T14:10:54Z</time>
      </trkpt>
      <trkpt lat="46.20541" lon="4.64466">
        <ele>530.8</ele>
        <time>2022-06-25T14:10:55Z</time>
      </trkpt>
      <trkpt lat="46.20538" lon="4.64465">
        <ele>531</ele>
        <time>2022-06-25T14:10:56Z</time>
      </trkpt>
      <trkpt lat="46.20536" lon="4.64464">
        <ele>531</ele>
        <time>2022-06-25T14:10:57Z</time>
      </trkpt>
      <trkpt lat="46.20533" lon="4.64463">
        <ele>531.2</ele>
        <time>2022-06-25T14:10:58Z</time>
      </trkpt>
      <trkpt lat="46.20531" lon="4.64461">
        <ele>531.2</ele>
        <time>2022-06-25T14:10:59Z</time>
      </trkpt>
      <trkpt lat="46.20529" lon="4.64458">
        <ele>531.6</ele>
        <time>2022-06-25T14:11:00Z</time>
      </trkpt>
      <trkpt lat="46.20528" lon="4.64455">
        <ele>531.8</ele>
        <time>2022-06-25T14:11:01Z</time>
      </trkpt>
      <trkpt lat="46.20526" lon="4.64452">
        <ele>532</ele>
        <time>2022-06-25T14:11:02Z</time>
      </trkpt>
      <trkpt lat="46.20524" lon="4.64449">
        <ele>532.2</ele>
        <time>2022-06-25T14:11:03Z</time>
      </trkpt>
      <trkpt lat="46.20523" lon="4.64446">
        <ele>532.2</ele>
        <time>2022-06-25T14:11:04Z</time>
      </trkpt>
      <trkpt lat="46.20521" lon="4.64443">
        <ele>532.6</ele>
        <time>2022-06-25T14:11:05Z</time>
      </trkpt>
      <trkpt lat="46.20519" lon="4.6444">
        <ele>532.6</ele>
        <time>2022-06-25T14:11:06Z</time>
      </trkpt>
      <trkpt lat="46.20518" lon="4.64437">
        <ele>533</ele>
        <time>2022-06-25T14:11:07Z</time>
      </trkpt>
      <trkpt lat="46.20517" lon="4.64434">
        <ele>533.2</ele>
        <time>2022-06-25T14:11:08Z</time>
      </trkpt>
      <trkpt lat="46.20515" lon="4.64431">
        <ele>533.2</ele>
        <time>2022-06-25T14:11:09Z</time>
      </trkpt>
      <trkpt lat="46.20513" lon="4.64427">
        <ele>533.6</ele>
        <time>2022-06-25T14:11:10Z</time>
      </trkpt>
      <trkpt lat="46.20512" lon="4.64424">
        <ele>533.6</ele>
        <time>2022-06-25T14:11:11Z</time>
      </trkpt>
      <trkpt lat="46.20511" lon="4.64421">
        <ele>534</ele>
        <time>2022-06-25T14:11:12Z</time>
      </trkpt>
      <trkpt lat="46.20509" lon="4.64418">
        <ele>534.2</ele>
        <time>2022-06-25T14:11:13Z</time>
      </trkpt>
      <trkpt lat="46.20507" lon="4.64416">
        <ele>534.2</ele>
        <time>2022-06-25T14:11:14Z</time>
      </trkpt>
      <trkpt lat="46.20505" lon="4.64413">
        <ele>534.4</ele>
        <time>2022-06-25T14:11:15Z</time>
      </trkpt>
      <trkpt lat="46.20503" lon="4.64411">
        <ele>534.8</ele>
        <time>2022-06-25T14:11:16Z</time>
      </trkpt>
      <trkpt lat="46.20501" lon="4.64409">
        <ele>535</ele>
        <time>2022-06-25T14:11:17Z</time>
      </trkpt>
      <trkpt lat="46.20499" lon="4.64407">
        <ele>535.2</ele>
        <time>2022-06-25T14:11:18Z</time>
      </trkpt>
      <trkpt lat="46.20496" lon="4.64405">
        <ele>535.2</ele>
        <time>2022-06-25T14:11:19Z</time>
      </trkpt>
      <trkpt lat="46.20494" lon="4.64403">
        <ele>535.6</ele>
        <time>2022-06-25T14:11:20Z</time>
      </trkpt>
      <trkpt lat="46.20491" lon="4.64402">
        <ele>535.8</ele>
        <time>2022-06-25T14:11:21Z</time>
      </trkpt>
      <trkpt lat="46.20489" lon="4.64401">
        <ele>535.8</ele>
        <time>2022-06-25T14:11:22Z</time>
      </trkpt>
      <trkpt lat="46.20486" lon="4.64399">
        <ele>536.2</ele>
        <time>2022-06-25T14:11:23Z</time>
      </trkpt>
      <trkpt lat="46.20483" lon="4.64399">
        <ele>536.2</ele>
        <time>2022-06-25T14:11:24Z</time>
      </trkpt>
      <trkpt lat="46.2048" lon="4.64398">
        <ele>536.6</ele>
        <time>2022-06-25T14:11:25Z</time>
      </trkpt>
      <trkpt lat="46.20477" lon="4.64397">
        <ele>536.8</ele>
        <time>2022-06-25T14:11:26Z</time>
      </trkpt>
      <trkpt lat="46.20475" lon="4.64396">
        <ele>536.8</ele>
        <time>2022-06-25T14:11:27Z</time>
      </trkpt>
      <trkpt lat="46.20472" lon="4.64396">
        <ele>537.2</ele>
        <time>2022-06-25T14:11:28Z</time>
      </trkpt>
      <trkpt lat="46.20468" lon="4.64397">
        <ele>537.2</ele>
        <time>2022-06-25T14:11:29Z</time>
      </trkpt>
      <trkpt lat="46.20465" lon="4.64397">
        <ele>537.4</ele>
        <time>2022-06-25T14:11:30Z</time>
      </trkpt>
      <trkpt lat="46.20461" lon="4.64397">
        <ele>537.4</ele>
        <time>2022-06-25T14:11:31Z</time>
      </trkpt>
      <trkpt lat="46.20458" lon="4.64397">
        <ele>537.8</ele>
        <time>2022-06-25T14:11:32Z</time>
      </trkpt>
      <trkpt lat="46.20454" lon="4.64397">
        <ele>537.8</ele>
        <time>2022-06-25T14:11:33Z</time>
      </trkpt>
      <trkpt lat="46.20451" lon="4.64396">
        <ele>538</ele>
        <time>2022-06-25T14:11:34Z</time>
      </trkpt>
      <trkpt lat="46.20447" lon="4.64395">
        <ele>538</ele>
        <time>2022-06-25T14:11:35Z</time>
      </trkpt>
      <trkpt lat="46.20444" lon="4.64395">
        <ele>538.2</ele>
        <time>2022-06-25T14:11:36Z</time>
      </trkpt>
      <trkpt lat="46.20441" lon="4.64394">
        <ele>538.2</ele>
        <time>2022-06-25T14:11:37Z</time>
      </trkpt>
      <trkpt lat="46.20438" lon="4.64393">
        <ele>538.2</ele>
        <time>2022-06-25T14:11:38Z</time>
      </trkpt>
      <trkpt lat="46.20434" lon="4.64393">
        <ele>538.6</ele>
        <time>2022-06-25T14:11:39Z</time>
      </trkpt>
      <trkpt lat="46.20431" lon="4.64392">
        <ele>538.6</ele>
        <time>2022-06-25T14:11:40Z</time>
      </trkpt>
      <trkpt lat="46.20428" lon="4.6439">
        <ele>538.8</ele>
        <time>2022-06-25T14:11:41Z</time>
      </trkpt>
      <trkpt lat="46.20425" lon="4.64389">
        <ele>538.8</ele>
        <time>2022-06-25T14:11:42Z</time>
      </trkpt>
      <trkpt lat="46.20422" lon="4.64388">
        <ele>539.2</ele>
        <time>2022-06-25T14:11:43Z</time>
      </trkpt>
      <trkpt lat="46.20419" lon="4.64386">
        <ele>539.2</ele>
        <time>2022-06-25T14:11:44Z</time>
      </trkpt>
      <trkpt lat="46.20416" lon="4.64385">
        <ele>539.4</ele>
        <time>2022-06-25T14:11:45Z</time>
      </trkpt>
      <trkpt lat="46.20413" lon="4.64383">
        <ele>539.4</ele>
        <time>2022-06-25T14:11:46Z</time>
      </trkpt>
      <trkpt lat="46.2041" lon="4.64381">
        <ele>539.6</ele>
        <time>2022-06-25T14:11:47Z</time>
      </trkpt>
      <trkpt lat="46.20407" lon="4.6438">
        <ele>539.6</ele>
        <time>2022-06-25T14:11:48Z</time>
      </trkpt>
      <trkpt lat="46.20404" lon="4.64379">
        <ele>539.8</ele>
        <time>2022-06-25T14:11:49Z</time>
      </trkpt>
      <trkpt lat="46.20401" lon="4.64378">
        <ele>539.8</ele>
        <time>2022-06-25T14:11:50Z</time>
      </trkpt>
      <trkpt lat="46.20398" lon="4.64378">
        <ele>540.2</ele>
        <time>2022-06-25T14:11:51Z</time>
      </trkpt>
      <trkpt lat="46.20395" lon="4.64378">
        <ele>540.2</ele>
        <time>2022-06-25T14:11:52Z</time>
      </trkpt>
      <trkpt lat="46.20392" lon="4.64378">
        <ele>540.6</ele>
        <time>2022-06-25T14:11:53Z</time>
      </trkpt>
      <trkpt lat="46.20389" lon="4.64378">
        <ele>540.6</ele>
        <time>2022-06-25T14:11:54Z</time>
      </trkpt>
      <trkpt lat="46.20385" lon="4.64379">
        <ele>540.8</ele>
        <time>2022-06-25T14:11:55Z</time>
      </trkpt>
      <trkpt lat="46.20382" lon="4.6438">
        <ele>540.8</ele>
        <time>2022-06-25T14:11:56Z</time>
      </trkpt>
      <trkpt lat="46.2038" lon="4.64381">
        <ele>541.2</ele>
        <time>2022-06-25T14:11:57Z</time>
      </trkpt>
      <trkpt lat="46.20377" lon="4.64382">
        <ele>541.4</ele>
        <time>2022-06-25T14:11:58Z</time>
      </trkpt>
      <trkpt lat="46.20374" lon="4.64384">
        <ele>541.4</ele>
        <time>2022-06-25T14:11:59Z</time>
      </trkpt>
      <trkpt lat="46.20372" lon="4.64384">
        <ele>541.8</ele>
        <time>2022-06-25T14:12:00Z</time>
      </trkpt>
      <trkpt lat="46.20369" lon="4.64386">
        <ele>542</ele>
        <time>2022-06-25T14:12:01Z</time>
      </trkpt>
      <trkpt lat="46.20366" lon="4.64387">
        <ele>542</ele>
        <time>2022-06-25T14:12:02Z</time>
      </trkpt>
      <trkpt lat="46.20363" lon="4.64388">
        <ele>542.4</ele>
        <time>2022-06-25T14:12:03Z</time>
      </trkpt>
      <trkpt lat="46.2036" lon="4.64388">
        <ele>542.4</ele>
        <time>2022-06-25T14:12:04Z</time>
      </trkpt>
      <trkpt lat="46.20357" lon="4.64389">
        <ele>542.6</ele>
        <time>2022-06-25T14:12:05Z</time>
      </trkpt>
      <trkpt lat="46.20354" lon="4.6439">
        <ele>542.6</ele>
        <time>2022-06-25T14:12:06Z</time>
      </trkpt>
      <trkpt lat="46.2035" lon="4.64391">
        <ele>543</ele>
        <time>2022-06-25T14:12:07Z</time>
      </trkpt>
      <trkpt lat="46.20347" lon="4.64392">
        <ele>543</ele>
        <time>2022-06-25T14:12:08Z</time>
      </trkpt>
      <trkpt lat="46.20344" lon="4.64392">
        <ele>543.2</ele>
        <time>2022-06-25T14:12:09Z</time>
      </trkpt>
      <trkpt lat="46.20341" lon="4.64392">
        <ele>543.2</ele>
        <time>2022-06-25T14:12:10Z</time>
      </trkpt>
      <trkpt lat="46.20338" lon="4.64392">
        <ele>543.2</ele>
        <time>2022-06-25T14:12:11Z</time>
      </trkpt>
      <trkpt lat="46.20335" lon="4.64392">
        <ele>543.6</ele>
        <time>2022-06-25T14:12:12Z</time>
      </trkpt>
      <trkpt lat="46.20332" lon="4.64392">
        <ele>543.8</ele>
        <time>2022-06-25T14:12:13Z</time>
      </trkpt>
      <trkpt lat="46.20328" lon="4.64392">
        <ele>543.8</ele>
        <time>2022-06-25T14:12:14Z</time>
      </trkpt>
      <trkpt lat="46.20325" lon="4.64392">
        <ele>543.8</ele>
        <time>2022-06-25T14:12:15Z</time>
      </trkpt>
      <trkpt lat="46.20321" lon="4.64393">
        <ele>544.2</ele>
        <time>2022-06-25T14:12:16Z</time>
      </trkpt>
      <trkpt lat="46.20318" lon="4.64393">
        <ele>544.2</ele>
        <time>2022-06-25T14:12:17Z</time>
      </trkpt>
      <trkpt lat="46.20315" lon="4.64394">
        <ele>544.4</ele>
        <time>2022-06-25T14:12:18Z</time>
      </trkpt>
      <trkpt lat="46.20311" lon="4.64394">
        <ele>544.4</ele>
        <time>2022-06-25T14:12:19Z</time>
      </trkpt>
      <trkpt lat="46.20308" lon="4.64393">
        <ele>544.4</ele>
        <time>2022-06-25T14:12:20Z</time>
      </trkpt>
      <trkpt lat="46.20304" lon="4.64393">
        <ele>544.6</ele>
        <time>2022-06-25T14:12:21Z</time>
      </trkpt>
      <trkpt lat="46.203" lon="4.64392">
        <ele>544.6</ele>
        <time>2022-06-25T14:12:22Z</time>
      </trkpt>
      <trkpt lat="46.20297" lon="4.64391">
        <ele>544.6</ele>
        <time>2022-06-25T14:12:23Z</time>
      </trkpt>
      <trkpt lat="46.20293" lon="4.6439">
        <ele>545</ele>
        <time>2022-06-25T14:12:24Z</time>
      </trkpt>
      <trkpt lat="46.2029" lon="4.64388">
        <ele>545</ele>
        <time>2022-06-25T14:12:25Z</time>
      </trkpt>
      <trkpt lat="46.20286" lon="4.64387">
        <ele>545</ele>
        <time>2022-06-25T14:12:26Z</time>
      </trkpt>
      <trkpt lat="46.20283" lon="4.64385">
        <ele>545.2</ele>
        <time>2022-06-25T14:12:27Z</time>
      </trkpt>
      <trkpt lat="46.2028" lon="4.64383">
        <ele>545.2</ele>
        <time>2022-06-25T14:12:28Z</time>
      </trkpt>
      <trkpt lat="46.20277" lon="4.64381">
        <ele>545.2</ele>
        <time>2022-06-25T14:12:29Z</time>
      </trkpt>
      <trkpt lat="46.20274" lon="4.64378">
        <ele>545.4</ele>
        <time>2022-06-25T14:12:30Z</time>
      </trkpt>
      <trkpt lat="46.20271" lon="4.64375">
        <ele>545.4</ele>
        <time>2022-06-25T14:12:31Z</time>
      </trkpt>
      <trkpt lat="46.20268" lon="4.64372">
        <ele>545.4</ele>
        <time>2022-06-25T14:12:32Z</time>
      </trkpt>
      <trkpt lat="46.20265" lon="4.64369">
        <ele>545.6</ele>
        <time>2022-06-25T14:12:33Z</time>
      </trkpt>
      <trkpt lat="46.20262" lon="4.64366">
        <ele>545.6</ele>
        <time>2022-06-25T14:12:34Z</time>
      </trkpt>
      <trkpt lat="46.20259" lon="4.64363">
        <ele>545.6</ele>
        <time>2022-06-25T14:12:35Z</time>
      </trkpt>
      <trkpt lat="46.20256" lon="4.6436">
        <ele>545.8</ele>
        <time>2022-06-25T14:12:36Z</time>
      </trkpt>
      <trkpt lat="46.20253" lon="4.64357">
        <ele>546</ele>
        <time>2022-06-25T14:12:37Z</time>
      </trkpt>
      <trkpt lat="46.20251" lon="4.64354">
        <ele>546</ele>
        <time>2022-06-25T14:12:38Z</time>
      </trkpt>
      <trkpt lat="46.20248" lon="4.64351">
        <ele>546.2</ele>
        <time>2022-06-25T14:12:39Z</time>
      </trkpt>
      <trkpt lat="46.20245" lon="4.64347">
        <ele>546.2</ele>
        <time>2022-06-25T14:12:40Z</time>
      </trkpt>
      <trkpt lat="46.20243" lon="4.64344">
        <ele>546.2</ele>
        <time>2022-06-25T14:12:41Z</time>
      </trkpt>
      <trkpt lat="46.2024" lon="4.6434">
        <ele>546.2</ele>
        <time>2022-06-25T14:12:42Z</time>
      </trkpt>
      <trkpt lat="46.20237" lon="4.64336">
        <ele>546.2</ele>
        <time>2022-06-25T14:12:43Z</time>
      </trkpt>
      <trkpt lat="46.20234" lon="4.64332">
        <ele>546.2</ele>
        <time>2022-06-25T14:12:44Z</time>
      </trkpt>
      <trkpt lat="46.20232" lon="4.64329">
        <ele>546.4</ele>
        <time>2022-06-25T14:12:45Z</time>
      </trkpt>
      <trkpt lat="46.20229" lon="4.64325">
        <ele>546.4</ele>
        <time>2022-06-25T14:12:46Z</time>
      </trkpt>
      <trkpt lat="46.20227" lon="4.64322">
        <ele>546.8</ele>
        <time>2022-06-25T14:12:47Z</time>
      </trkpt>
      <trkpt lat="46.20224" lon="4.64317">
        <ele>546.8</ele>
        <time>2022-06-25T14:12:48Z</time>
      </trkpt>
      <trkpt lat="46.20222" lon="4.64313">
        <ele>546.8</ele>
        <time>2022-06-25T14:12:49Z</time>
      </trkpt>
      <trkpt lat="46.20219" lon="4.64309">
        <ele>547</ele>
        <time>2022-06-25T14:12:50Z</time>
      </trkpt>
      <trkpt lat="46.20216" lon="4.64305">
        <ele>547</ele>
        <time>2022-06-25T14:12:51Z</time>
      </trkpt>
      <trkpt lat="46.20214" lon="4.64301">
        <ele>547</ele>
        <time>2022-06-25T14:12:52Z</time>
      </trkpt>
      <trkpt lat="46.20211" lon="4.64297">
        <ele>547</ele>
        <time>2022-06-25T14:12:53Z</time>
      </trkpt>
      <trkpt lat="46.20208" lon="4.64293">
        <ele>547.2</ele>
        <time>2022-06-25T14:12:54Z</time>
      </trkpt>
      <trkpt lat="46.20205" lon="4.64289">
        <ele>547.2</ele>
        <time>2022-06-25T14:12:55Z</time>
      </trkpt>
      <trkpt lat="46.20202" lon="4.64285">
        <ele>547.6</ele>
        <time>2022-06-25T14:12:56Z</time>
      </trkpt>
      <trkpt lat="46.202" lon="4.6428">
        <ele>547.6</ele>
        <time>2022-06-25T14:12:57Z</time>
      </trkpt>
      <trkpt lat="46.20198" lon="4.64276">
        <ele>547.8</ele>
        <time>2022-06-25T14:12:58Z</time>
      </trkpt>
      <trkpt lat="46.20195" lon="4.64271">
        <ele>547.8</ele>
        <time>2022-06-25T14:12:59Z</time>
      </trkpt>
      <trkpt lat="46.20193" lon="4.64266">
        <ele>548.2</ele>
        <time>2022-06-25T14:13:00Z</time>
      </trkpt>
      <trkpt lat="46.20191" lon="4.64261">
        <ele>548.2</ele>
        <time>2022-06-25T14:13:01Z</time>
      </trkpt>
      <trkpt lat="46.20189" lon="4.64256">
        <ele>548.4</ele>
        <time>2022-06-25T14:13:02Z</time>
      </trkpt>
      <trkpt lat="46.20188" lon="4.64251">
        <ele>548.4</ele>
        <time>2022-06-25T14:13:03Z</time>
      </trkpt>
      <trkpt lat="46.20186" lon="4.64246">
        <ele>548.4</ele>
        <time>2022-06-25T14:13:04Z</time>
      </trkpt>
      <trkpt lat="46.20185" lon="4.6424">
        <ele>548.4</ele>
        <time>2022-06-25T14:13:05Z</time>
      </trkpt>
      <trkpt lat="46.20183" lon="4.64235">
        <ele>548.4</ele>
        <time>2022-06-25T14:13:06Z</time>
      </trkpt>
      <trkpt lat="46.20182" lon="4.64229">
        <ele>548.4</ele>
        <time>2022-06-25T14:13:07Z</time>
      </trkpt>
      <trkpt lat="46.2018" lon="4.64224">
        <ele>548.4</ele>
        <time>2022-06-25T14:13:08Z</time>
      </trkpt>
      <trkpt lat="46.20178" lon="4.64218">
        <ele>548.4</ele>
        <time>2022-06-25T14:13:09Z</time>
      </trkpt>
      <trkpt lat="46.20176" lon="4.64212">
        <ele>548.4</ele>
        <time>2022-06-25T14:13:10Z</time>
      </trkpt>
      <trkpt lat="46.20174" lon="4.64207">
        <ele>548.4</ele>
        <time>2022-06-25T14:13:11Z</time>
      </trkpt>
      <trkpt lat="46.20171" lon="4.64201">
        <ele>548.4</ele>
        <time>2022-06-25T14:13:12Z</time>
      </trkpt>
      <trkpt lat="46.20168" lon="4.64196">
        <ele>548.4</ele>
        <time>2022-06-25T14:13:13Z</time>
      </trkpt>
      <trkpt lat="46.20164" lon="4.64191">
        <ele>548.4</ele>
        <time>2022-06-25T14:13:14Z</time>
      </trkpt>
      <trkpt lat="46.2016" lon="4.64189">
        <ele>548.4</ele>
        <time>2022-06-25T14:13:15Z</time>
      </trkpt>
      <trkpt lat="46.20155" lon="4.64187">
        <ele>548.4</ele>
        <time>2022-06-25T14:13:16Z</time>
      </trkpt>
      <trkpt lat="46.2015" lon="4.64188">
        <ele>548.4</ele>
        <time>2022-06-25T14:13:17Z</time>
      </trkpt>
      <trkpt lat="46.20146" lon="4.6419">
        <ele>548.8</ele>
        <time>2022-06-25T14:13:18Z</time>
      </trkpt>
      <trkpt lat="46.20141" lon="4.64194">
        <ele>548.8</ele>
        <time>2022-06-25T14:13:19Z</time>
      </trkpt>
      <trkpt lat="46.20138" lon="4.64199">
        <ele>548.8</ele>
        <time>2022-06-25T14:13:20Z</time>
      </trkpt>
      <trkpt lat="46.20135" lon="4.64204">
        <ele>549</ele>
        <time>2022-06-25T14:13:21Z</time>
      </trkpt>
      <trkpt lat="46.20133" lon="4.6421">
        <ele>549</ele>
        <time>2022-06-25T14:13:22Z</time>
      </trkpt>
      <trkpt lat="46.20132" lon="4.64215">
        <ele>549.2</ele>
        <time>2022-06-25T14:13:23Z</time>
      </trkpt>
      <trkpt lat="46.2013" lon="4.64221">
        <ele>549.2</ele>
        <time>2022-06-25T14:13:24Z</time>
      </trkpt>
      <trkpt lat="46.20129" lon="4.64226">
        <ele>549.2</ele>
        <time>2022-06-25T14:13:25Z</time>
      </trkpt>
      <trkpt lat="46.20128" lon="4.64232">
        <ele>549.4</ele>
        <time>2022-06-25T14:13:26Z</time>
      </trkpt>
      <trkpt lat="46.20127" lon="4.64238">
        <ele>549.4</ele>
        <time>2022-06-25T14:13:27Z</time>
      </trkpt>
      <trkpt lat="46.20125" lon="4.64244">
        <ele>549.8</ele>
        <time>2022-06-25T14:13:28Z</time>
      </trkpt>
      <trkpt lat="46.20124" lon="4.64249">
        <ele>549.8</ele>
        <time>2022-06-25T14:13:29Z</time>
      </trkpt>
      <trkpt lat="46.20122" lon="4.64255">
        <ele>549.8</ele>
        <time>2022-06-25T14:13:30Z</time>
      </trkpt>
      <trkpt lat="46.20121" lon="4.6426">
        <ele>550</ele>
        <time>2022-06-25T14:13:31Z</time>
      </trkpt>
      <trkpt lat="46.20119" lon="4.64265">
        <ele>550</ele>
        <time>2022-06-25T14:13:32Z</time>
      </trkpt>
      <trkpt lat="46.20118" lon="4.64271">
        <ele>550</ele>
        <time>2022-06-25T14:13:33Z</time>
      </trkpt>
      <trkpt lat="46.20116" lon="4.64276">
        <ele>550.2</ele>
        <time>2022-06-25T14:13:34Z</time>
      </trkpt>
      <trkpt lat="46.20114" lon="4.64281">
        <ele>550.2</ele>
        <time>2022-06-25T14:13:35Z</time>
      </trkpt>
      <trkpt lat="46.20112" lon="4.64286">
        <ele>550.2</ele>
        <time>2022-06-25T14:13:36Z</time>
      </trkpt>
      <trkpt lat="46.2011" lon="4.6429">
        <ele>550.6</ele>
        <time>2022-06-25T14:13:37Z</time>
      </trkpt>
      <trkpt lat="46.20108" lon="4.64294">
        <ele>550.6</ele>
        <time>2022-06-25T14:13:38Z</time>
      </trkpt>
      <trkpt lat="46.20106" lon="4.64297">
        <ele>550.6</ele>
        <time>2022-06-25T14:13:39Z</time>
      </trkpt>
      <trkpt lat="46.20104" lon="4.64301">
        <ele>550.8</ele>
        <time>2022-06-25T14:13:40Z</time>
      </trkpt>
      <trkpt lat="46.20102" lon="4.64305">
        <ele>550.8</ele>
        <time>2022-06-25T14:13:41Z</time>
      </trkpt>
      <trkpt lat="46.201" lon="4.64308">
        <ele>550.8</ele>
        <time>2022-06-25T14:13:42Z</time>
      </trkpt>
      <trkpt lat="46.20097" lon="4.64312">
        <ele>551</ele>
        <time>2022-06-25T14:13:43Z</time>
      </trkpt>
      <trkpt lat="46.20095" lon="4.64317">
        <ele>551</ele>
        <time>2022-06-25T14:13:44Z</time>
      </trkpt>
      <trkpt lat="46.20093" lon="4.64321">
        <ele>551</ele>
        <time>2022-06-25T14:13:45Z</time>
      </trkpt>
      <trkpt lat="46.20091" lon="4.64325">
        <ele>551.2</ele>
        <time>2022-06-25T14:13:46Z</time>
      </trkpt>
      <trkpt lat="46.20089" lon="4.6433">
        <ele>551.2</ele>
        <time>2022-06-25T14:13:47Z</time>
      </trkpt>
      <trkpt lat="46.20087" lon="4.64334">
        <ele>551.2</ele>
        <time>2022-06-25T14:13:48Z</time>
      </trkpt>
      <trkpt lat="46.20085" lon="4.64339">
        <ele>551.6</ele>
        <time>2022-06-25T14:13:49Z</time>
      </trkpt>
      <trkpt lat="46.20082" lon="4.64344">
        <ele>551.6</ele>
        <time>2022-06-25T14:13:50Z</time>
      </trkpt>
      <trkpt lat="46.2008" lon="4.64348">
        <ele>551.8</ele>
        <time>2022-06-25T14:13:51Z</time>
      </trkpt>
      <trkpt lat="46.20077" lon="4.64353">
        <ele>551.8</ele>
        <time>2022-06-25T14:13:52Z</time>
      </trkpt>
      <trkpt lat="46.20075" lon="4.64357">
        <ele>551.8</ele>
        <time>2022-06-25T14:13:53Z</time>
      </trkpt>
      <trkpt lat="46.20072" lon="4.64362">
        <ele>552</ele>
        <time>2022-06-25T14:13:54Z</time>
      </trkpt>
      <trkpt lat="46.20069" lon="4.64367">
        <ele>552</ele>
        <time>2022-06-25T14:13:55Z</time>
      </trkpt>
      <trkpt lat="46.20067" lon="4.64372">
        <ele>552.2</ele>
        <time>2022-06-25T14:13:56Z</time>
      </trkpt>
      <trkpt lat="46.20064" lon="4.64377">
        <ele>552.2</ele>
        <time>2022-06-25T14:13:57Z</time>
      </trkpt>
      <trkpt lat="46.20061" lon="4.64383">
        <ele>552.4</ele>
        <time>2022-06-25T14:13:58Z</time>
      </trkpt>
      <trkpt lat="46.20058" lon="4.64389">
        <ele>552.4</ele>
        <time>2022-06-25T14:13:59Z</time>
      </trkpt>
      <trkpt lat="46.20055" lon="4.64394">
        <ele>552.4</ele>
        <time>2022-06-25T14:14:00Z</time>
      </trkpt>
      <trkpt lat="46.20052" lon="4.64399">
        <ele>552.6</ele>
        <time>2022-06-25T14:14:01Z</time>
      </trkpt>
      <trkpt lat="46.20049" lon="4.64404">
        <ele>552.6</ele>
        <time>2022-06-25T14:14:02Z</time>
      </trkpt>
      <trkpt lat="46.20045" lon="4.64409">
        <ele>553</ele>
        <time>2022-06-25T14:14:03Z</time>
      </trkpt>
      <trkpt lat="46.20042" lon="4.64413">
        <ele>553</ele>
        <time>2022-06-25T14:14:04Z</time>
      </trkpt>
      <trkpt lat="46.20039" lon="4.64418">
        <ele>553</ele>
        <time>2022-06-25T14:14:05Z</time>
      </trkpt>
      <trkpt lat="46.20035" lon="4.64422">
        <ele>553.2</ele>
        <time>2022-06-25T14:14:06Z</time>
      </trkpt>
      <trkpt lat="46.20032" lon="4.64427">
        <ele>553.2</ele>
        <time>2022-06-25T14:14:07Z</time>
      </trkpt>
      <trkpt lat="46.20028" lon="4.64431">
        <ele>553.2</ele>
        <time>2022-06-25T14:14:08Z</time>
      </trkpt>
      <trkpt lat="46.20025" lon="4.64435">
        <ele>553.4</ele>
        <time>2022-06-25T14:14:09Z</time>
      </trkpt>
      <trkpt lat="46.20021" lon="4.64439">
        <ele>553.4</ele>
        <time>2022-06-25T14:14:10Z</time>
      </trkpt>
      <trkpt lat="46.20017" lon="4.64443">
        <ele>553.4</ele>
        <time>2022-06-25T14:14:11Z</time>
      </trkpt>
      <trkpt lat="46.20013" lon="4.64447">
        <ele>553.8</ele>
        <time>2022-06-25T14:14:12Z</time>
      </trkpt>
      <trkpt lat="46.2001" lon="4.64451">
        <ele>553.8</ele>
        <time>2022-06-25T14:14:13Z</time>
      </trkpt>
      <trkpt lat="46.20006" lon="4.64454">
        <ele>554</ele>
        <time>2022-06-25T14:14:14Z</time>
      </trkpt>
      <trkpt lat="46.20001" lon="4.64457">
        <ele>554</ele>
        <time>2022-06-25T14:14:15Z</time>
      </trkpt>
      <trkpt lat="46.19997" lon="4.64458">
        <ele>554</ele>
        <time>2022-06-25T14:14:16Z</time>
      </trkpt>
      <trkpt lat="46.19992" lon="4.64459">
        <ele>554.2</ele>
        <time>2022-06-25T14:14:17Z</time>
      </trkpt>
      <trkpt lat="46.19987" lon="4.6446">
        <ele>554.2</ele>
        <time>2022-06-25T14:14:18Z</time>
      </trkpt>
      <trkpt lat="46.19982" lon="4.64459">
        <ele>554.2</ele>
        <time>2022-06-25T14:14:19Z</time>
      </trkpt>
      <trkpt lat="46.19977" lon="4.64458">
        <ele>554.2</ele>
        <time>2022-06-25T14:14:20Z</time>
      </trkpt>
      <trkpt lat="46.19973" lon="4.64456">
        <ele>554.2</ele>
        <time>2022-06-25T14:14:21Z</time>
      </trkpt>
      <trkpt lat="46.19968" lon="4.64452">
        <ele>554.2</ele>
        <time>2022-06-25T14:14:22Z</time>
      </trkpt>
      <trkpt lat="46.19964" lon="4.64448">
        <ele>554</ele>
        <time>2022-06-25T14:14:23Z</time>
      </trkpt>
      <trkpt lat="46.1996" lon="4.64444">
        <ele>554</ele>
        <time>2022-06-25T14:14:24Z</time>
      </trkpt>
      <trkpt lat="46.19956" lon="4.64439">
        <ele>554</ele>
        <time>2022-06-25T14:14:25Z</time>
      </trkpt>
      <trkpt lat="46.19951" lon="4.64434">
        <ele>553.8</ele>
        <time>2022-06-25T14:14:26Z</time>
      </trkpt>
      <trkpt lat="46.19946" lon="4.64429">
        <ele>553.6</ele>
        <time>2022-06-25T14:14:27Z</time>
      </trkpt>
      <trkpt lat="46.19942" lon="4.64425">
        <ele>553.2</ele>
        <time>2022-06-25T14:14:28Z</time>
      </trkpt>
      <trkpt lat="46.19937" lon="4.64421">
        <ele>553.2</ele>
        <time>2022-06-25T14:14:29Z</time>
      </trkpt>
      <trkpt lat="46.19931" lon="4.64417">
        <ele>552.8</ele>
        <time>2022-06-25T14:14:30Z</time>
      </trkpt>
      <trkpt lat="46.19925" lon="4.64414">
        <ele>552.6</ele>
        <time>2022-06-25T14:14:32Z</time>
      </trkpt>
      <trkpt lat="46.19919" lon="4.64412">
        <ele>552.4</ele>
        <time>2022-06-25T14:14:33Z</time>
      </trkpt>
      <trkpt lat="46.19912" lon="4.6441">
        <ele>552.4</ele>
        <time>2022-06-25T14:14:34Z</time>
      </trkpt>
      <trkpt lat="46.19906" lon="4.64408">
        <ele>552.4</ele>
        <time>2022-06-25T14:14:35Z</time>
      </trkpt>
      <trkpt lat="46.19899" lon="4.64407">
        <ele>552</ele>
        <time>2022-06-25T14:14:36Z</time>
      </trkpt>
      <trkpt lat="46.19892" lon="4.64405">
        <ele>552</ele>
        <time>2022-06-25T14:14:37Z</time>
      </trkpt>
      <trkpt lat="46.19885" lon="4.64403">
        <ele>551.6</ele>
        <time>2022-06-25T14:14:38Z</time>
      </trkpt>
      <trkpt lat="46.19878" lon="4.64401">
        <ele>551.6</ele>
        <time>2022-06-25T14:14:39Z</time>
      </trkpt>
      <trkpt lat="46.19871" lon="4.64399">
        <ele>551.4</ele>
        <time>2022-06-25T14:14:40Z</time>
      </trkpt>
      <trkpt lat="46.19863" lon="4.64397">
        <ele>551</ele>
        <time>2022-06-25T14:14:41Z</time>
      </trkpt>
      <trkpt lat="46.19856" lon="4.64395">
        <ele>550.8</ele>
        <time>2022-06-25T14:14:42Z</time>
      </trkpt>
      <trkpt lat="46.19849" lon="4.64392">
        <ele>550.4</ele>
        <time>2022-06-25T14:14:43Z</time>
      </trkpt>
      <trkpt lat="46.19842" lon="4.64389">
        <ele>550.2</ele>
        <time>2022-06-25T14:14:44Z</time>
      </trkpt>
      <trkpt lat="46.19835" lon="4.64386">
        <ele>549.8</ele>
        <time>2022-06-25T14:14:45Z</time>
      </trkpt>
      <trkpt lat="46.19828" lon="4.6438">
        <ele>549.4</ele>
        <time>2022-06-25T14:14:46Z</time>
      </trkpt>
      <trkpt lat="46.19822" lon="4.64373">
        <ele>549.2</ele>
        <time>2022-06-25T14:14:47Z</time>
      </trkpt>
      <trkpt lat="46.19817" lon="4.64364">
        <ele>549</ele>
        <time>2022-06-25T14:14:48Z</time>
      </trkpt>
      <trkpt lat="46.19813" lon="4.64354">
        <ele>548.6</ele>
        <time>2022-06-25T14:14:49Z</time>
      </trkpt>
      <trkpt lat="46.1981" lon="4.64344">
        <ele>548.4</ele>
        <time>2022-06-25T14:14:50Z</time>
      </trkpt>
      <trkpt lat="46.19807" lon="4.64333">
        <ele>548</ele>
        <time>2022-06-25T14:14:51Z</time>
      </trkpt>
      <trkpt lat="46.19805" lon="4.64323">
        <ele>547.8</ele>
        <time>2022-06-25T14:14:52Z</time>
      </trkpt>
      <trkpt lat="46.19802" lon="4.64312">
        <ele>547.6</ele>
        <time>2022-06-25T14:14:53Z</time>
      </trkpt>
      <trkpt lat="46.198" lon="4.64301">
        <ele>547.2</ele>
        <time>2022-06-25T14:14:54Z</time>
      </trkpt>
      <trkpt lat="46.19798" lon="4.64289">
        <ele>546.6</ele>
        <time>2022-06-25T14:14:55Z</time>
      </trkpt>
      <trkpt lat="46.19795" lon="4.64277">
        <ele>546.4</ele>
        <time>2022-06-25T14:14:56Z</time>
      </trkpt>
      <trkpt lat="46.19793" lon="4.64266">
        <ele>545.8</ele>
        <time>2022-06-25T14:14:57Z</time>
      </trkpt>
      <trkpt lat="46.1979" lon="4.64254">
        <ele>545.6</ele>
        <time>2022-06-25T14:14:58Z</time>
      </trkpt>
      <trkpt lat="46.19787" lon="4.64241">
        <ele>545.2</ele>
        <time>2022-06-25T14:14:59Z</time>
      </trkpt>
      <trkpt lat="46.19784" lon="4.64229">
        <ele>544.6</ele>
        <time>2022-06-25T14:15:00Z</time>
      </trkpt>
      <trkpt lat="46.19781" lon="4.64216">
        <ele>544.2</ele>
        <time>2022-06-25T14:15:01Z</time>
      </trkpt>
      <trkpt lat="46.19778" lon="4.64203">
        <ele>543.6</ele>
        <time>2022-06-25T14:15:02Z</time>
      </trkpt>
      <trkpt lat="46.19775" lon="4.6419">
        <ele>543.2</ele>
        <time>2022-06-25T14:15:03Z</time>
      </trkpt>
      <trkpt lat="46.19771" lon="4.64178">
        <ele>542.6</ele>
        <time>2022-06-25T14:15:04Z</time>
      </trkpt>
      <trkpt lat="46.19766" lon="4.64165">
        <ele>542.2</ele>
        <time>2022-06-25T14:15:05Z</time>
      </trkpt>
      <trkpt lat="46.19762" lon="4.64151">
        <ele>541.6</ele>
        <time>2022-06-25T14:15:06Z</time>
      </trkpt>
      <trkpt lat="46.19758" lon="4.64138">
        <ele>541.2</ele>
        <time>2022-06-25T14:15:07Z</time>
      </trkpt>
      <trkpt lat="46.19753" lon="4.64125">
        <ele>540.6</ele>
        <time>2022-06-25T14:15:08Z</time>
      </trkpt>
      <trkpt lat="46.19748" lon="4.64114">
        <ele>540.2</ele>
        <time>2022-06-25T14:15:09Z</time>
      </trkpt>
      <trkpt lat="46.19742" lon="4.64106">
        <ele>539.8</ele>
        <time>2022-06-25T14:15:10Z</time>
      </trkpt>
      <trkpt lat="46.19734" lon="4.641">
        <ele>539.6</ele>
        <time>2022-06-25T14:15:11Z</time>
      </trkpt>
      <trkpt lat="46.19726" lon="4.64097">
        <ele>539.2</ele>
        <time>2022-06-25T14:15:12Z</time>
      </trkpt>
      <trkpt lat="46.19717" lon="4.64098">
        <ele>539.2</ele>
        <time>2022-06-25T14:15:13Z</time>
      </trkpt>
      <trkpt lat="46.19709" lon="4.64102">
        <ele>539</ele>
        <time>2022-06-25T14:15:14Z</time>
      </trkpt>
      <trkpt lat="46.19702" lon="4.64109">
        <ele>539</ele>
        <time>2022-06-25T14:15:15Z</time>
      </trkpt>
      <trkpt lat="46.19696" lon="4.64117">
        <ele>539</ele>
        <time>2022-06-25T14:15:16Z</time>
      </trkpt>
      <trkpt lat="46.19691" lon="4.64126">
        <ele>539</ele>
        <time>2022-06-25T14:15:17Z</time>
      </trkpt>
      <trkpt lat="46.19686" lon="4.64134">
        <ele>539.4</ele>
        <time>2022-06-25T14:15:18Z</time>
      </trkpt>
      <trkpt lat="46.19681" lon="4.64142">
        <ele>539.4</ele>
        <time>2022-06-25T14:15:19Z</time>
      </trkpt>
      <trkpt lat="46.19677" lon="4.6415">
        <ele>539.4</ele>
        <time>2022-06-25T14:15:20Z</time>
      </trkpt>
      <trkpt lat="46.19672" lon="4.64158">
        <ele>539.6</ele>
        <time>2022-06-25T14:15:21Z</time>
      </trkpt>
      <trkpt lat="46.19668" lon="4.64164">
        <ele>539.6</ele>
        <time>2022-06-25T14:15:22Z</time>
      </trkpt>
      <trkpt lat="46.19664" lon="4.64171">
        <ele>540</ele>
        <time>2022-06-25T14:15:23Z</time>
      </trkpt>
      <trkpt lat="46.1966" lon="4.64177">
        <ele>540</ele>
        <time>2022-06-25T14:15:24Z</time>
      </trkpt>
      <trkpt lat="46.19656" lon="4.64184">
        <ele>540.2</ele>
        <time>2022-06-25T14:15:25Z</time>
      </trkpt>
      <trkpt lat="46.19652" lon="4.64191">
        <ele>540.4</ele>
        <time>2022-06-25T14:15:26Z</time>
      </trkpt>
      <trkpt lat="46.19648" lon="4.64197">
        <ele>540.4</ele>
        <time>2022-06-25T14:15:27Z</time>
      </trkpt>
      <trkpt lat="46.19644" lon="4.64203">
        <ele>540.6</ele>
        <time>2022-06-25T14:15:28Z</time>
      </trkpt>
      <trkpt lat="46.1964" lon="4.64209">
        <ele>540.6</ele>
        <time>2022-06-25T14:15:29Z</time>
      </trkpt>
      <trkpt lat="46.19637" lon="4.64215">
        <ele>541</ele>
        <time>2022-06-25T14:15:30Z</time>
      </trkpt>
      <trkpt lat="46.19633" lon="4.64221">
        <ele>541</ele>
        <time>2022-06-25T14:15:31Z</time>
      </trkpt>
      <trkpt lat="46.19629" lon="4.64227">
        <ele>541.4</ele>
        <time>2022-06-25T14:15:32Z</time>
      </trkpt>
      <trkpt lat="46.19626" lon="4.64233">
        <ele>541.4</ele>
        <time>2022-06-25T14:15:33Z</time>
      </trkpt>
      <trkpt lat="46.19622" lon="4.64238">
        <ele>541.6</ele>
        <time>2022-06-25T14:15:34Z</time>
      </trkpt>
      <trkpt lat="46.19619" lon="4.64244">
        <ele>541.6</ele>
        <time>2022-06-25T14:15:35Z</time>
      </trkpt>
      <trkpt lat="46.19615" lon="4.64249">
        <ele>541.8</ele>
        <time>2022-06-25T14:15:36Z</time>
      </trkpt>
      <trkpt lat="46.19612" lon="4.64255">
        <ele>541.8</ele>
        <time>2022-06-25T14:15:37Z</time>
      </trkpt>
      <trkpt lat="46.19609" lon="4.6426">
        <ele>541.8</ele>
        <time>2022-06-25T14:15:38Z</time>
      </trkpt>
      <trkpt lat="46.19606" lon="4.64266">
        <ele>542.2</ele>
        <time>2022-06-25T14:15:39Z</time>
      </trkpt>
      <trkpt lat="46.19603" lon="4.64271">
        <ele>542.2</ele>
        <time>2022-06-25T14:15:40Z</time>
      </trkpt>
      <trkpt lat="46.196" lon="4.64276">
        <ele>542.4</ele>
        <time>2022-06-25T14:15:41Z</time>
      </trkpt>
      <trkpt lat="46.19597" lon="4.64282">
        <ele>542.4</ele>
        <time>2022-06-25T14:15:42Z</time>
      </trkpt>
      <trkpt lat="46.19593" lon="4.64287">
        <ele>542.4</ele>
        <time>2022-06-25T14:15:43Z</time>
      </trkpt>
      <trkpt lat="46.1959" lon="4.64291">
        <ele>542.8</ele>
        <time>2022-06-25T14:15:44Z</time>
      </trkpt>
      <trkpt lat="46.19587" lon="4.64295">
        <ele>542.8</ele>
        <time>2022-06-25T14:15:45Z</time>
      </trkpt>
      <trkpt lat="46.19584" lon="4.64299">
        <ele>543</ele>
        <time>2022-06-25T14:15:46Z</time>
      </trkpt>
      <trkpt lat="46.19581" lon="4.64303">
        <ele>543</ele>
        <time>2022-06-25T14:15:47Z</time>
      </trkpt>
      <trkpt lat="46.19578" lon="4.64307">
        <ele>543.2</ele>
        <time>2022-06-25T14:15:48Z</time>
      </trkpt>
      <trkpt lat="46.19574" lon="4.6431">
        <ele>543.2</ele>
        <time>2022-06-25T14:15:49Z</time>
      </trkpt>
      <trkpt lat="46.1957" lon="4.64313">
        <ele>543.6</ele>
        <time>2022-06-25T14:15:50Z</time>
      </trkpt>
      <trkpt lat="46.19567" lon="4.64316">
        <ele>543.6</ele>
        <time>2022-06-25T14:15:51Z</time>
      </trkpt>
      <trkpt lat="46.19564" lon="4.64319">
        <ele>543.8</ele>
        <time>2022-06-25T14:15:52Z</time>
      </trkpt>
      <trkpt lat="46.19561" lon="4.64323">
        <ele>543.8</ele>
        <time>2022-06-25T14:15:53Z</time>
      </trkpt>
      <trkpt lat="46.19557" lon="4.64327">
        <ele>544.2</ele>
        <time>2022-06-25T14:15:54Z</time>
      </trkpt>
      <trkpt lat="46.19554" lon="4.64332">
        <ele>544.2</ele>
        <time>2022-06-25T14:15:55Z</time>
      </trkpt>
      <trkpt lat="46.19551" lon="4.64338">
        <ele>544.2</ele>
        <time>2022-06-25T14:15:56Z</time>
      </trkpt>
      <trkpt lat="46.19549" lon="4.64343">
        <ele>544.4</ele>
        <time>2022-06-25T14:15:57Z</time>
      </trkpt>
      <trkpt lat="46.19547" lon="4.64349">
        <ele>544.4</ele>
        <time>2022-06-25T14:15:58Z</time>
      </trkpt>
      <trkpt lat="46.19546" lon="4.64355">
        <ele>544.8</ele>
        <time>2022-06-25T14:15:59Z</time>
      </trkpt>
      <trkpt lat="46.19546" lon="4.64361">
        <ele>544.8</ele>
        <time>2022-06-25T14:16:00Z</time>
      </trkpt>
      <trkpt lat="46.19546" lon="4.64367">
        <ele>545</ele>
        <time>2022-06-25T14:16:01Z</time>
      </trkpt>
      <trkpt lat="46.19546" lon="4.64374">
        <ele>545</ele>
        <time>2022-06-25T14:16:02Z</time>
      </trkpt>
      <trkpt lat="46.19547" lon="4.64382">
        <ele>545.4</ele>
        <time>2022-06-25T14:16:03Z</time>
      </trkpt>
      <trkpt lat="46.19548" lon="4.64389">
        <ele>545.4</ele>
        <time>2022-06-25T14:16:04Z</time>
      </trkpt>
      <trkpt lat="46.19549" lon="4.64396">
        <ele>545.8</ele>
        <time>2022-06-25T14:16:05Z</time>
      </trkpt>
      <trkpt lat="46.1955" lon="4.64403">
        <ele>545.8</ele>
        <time>2022-06-25T14:16:06Z</time>
      </trkpt>
      <trkpt lat="46.1955" lon="4.6441">
        <ele>546</ele>
        <time>2022-06-25T14:16:07Z</time>
      </trkpt>
      <trkpt lat="46.19551" lon="4.64418">
        <ele>546</ele>
        <time>2022-06-25T14:16:08Z</time>
      </trkpt>
      <trkpt lat="46.19552" lon="4.64424">
        <ele>546.2</ele>
        <time>2022-06-25T14:16:09Z</time>
      </trkpt>
      <trkpt lat="46.19553" lon="4.64431">
        <ele>546.2</ele>
        <time>2022-06-25T14:16:10Z</time>
      </trkpt>
      <trkpt lat="46.19553" lon="4.64438">
        <ele>546.2</ele>
        <time>2022-06-25T14:16:11Z</time>
      </trkpt>
      <trkpt lat="46.19553" lon="4.64445">
        <ele>546.4</ele>
        <time>2022-06-25T14:16:12Z</time>
      </trkpt>
      <trkpt lat="46.19553" lon="4.64452">
        <ele>546.4</ele>
        <time>2022-06-25T14:16:13Z</time>
      </trkpt>
      <trkpt lat="46.19554" lon="4.64458">
        <ele>546.4</ele>
        <time>2022-06-25T14:16:14Z</time>
      </trkpt>
      <trkpt lat="46.19554" lon="4.64465">
        <ele>546.8</ele>
        <time>2022-06-25T14:16:15Z</time>
      </trkpt>
      <trkpt lat="46.19555" lon="4.64471">
        <ele>546.8</ele>
        <time>2022-06-25T14:16:16Z</time>
      </trkpt>
      <trkpt lat="46.19556" lon="4.64477">
        <ele>547</ele>
        <time>2022-06-25T14:16:17Z</time>
      </trkpt>
      <trkpt lat="46.19556" lon="4.64483">
        <ele>547</ele>
        <time>2022-06-25T14:16:18Z</time>
      </trkpt>
      <trkpt lat="46.19556" lon="4.6449">
        <ele>547.2</ele>
        <time>2022-06-25T14:16:19Z</time>
      </trkpt>
      <trkpt lat="46.19557" lon="4.64496">
        <ele>547.2</ele>
        <time>2022-06-25T14:16:20Z</time>
      </trkpt>
      <trkpt lat="46.19558" lon="4.64502">
        <ele>547.6</ele>
        <time>2022-06-25T14:16:21Z</time>
      </trkpt>
      <trkpt lat="46.19559" lon="4.64508">
        <ele>547.6</ele>
        <time>2022-06-25T14:16:22Z</time>
      </trkpt>
      <trkpt lat="46.1956" lon="4.64514">
        <ele>547.6</ele>
        <time>2022-06-25T14:16:23Z</time>
      </trkpt>
      <trkpt lat="46.19561" lon="4.6452">
        <ele>547.8</ele>
        <time>2022-06-25T14:16:24Z</time>
      </trkpt>
      <trkpt lat="46.19562" lon="4.64526">
        <ele>547.8</ele>
        <time>2022-06-25T14:16:25Z</time>
      </trkpt>
      <trkpt lat="46.19563" lon="4.64532">
        <ele>547.8</ele>
        <time>2022-06-25T14:16:26Z</time>
      </trkpt>
      <trkpt lat="46.19563" lon="4.64538">
        <ele>548.2</ele>
        <time>2022-06-25T14:16:27Z</time>
      </trkpt>
      <trkpt lat="46.19563" lon="4.64544">
        <ele>548.2</ele>
        <time>2022-06-25T14:16:28Z</time>
      </trkpt>
      <trkpt lat="46.19564" lon="4.64551">
        <ele>548.2</ele>
        <time>2022-06-25T14:16:29Z</time>
      </trkpt>
      <trkpt lat="46.19564" lon="4.64557">
        <ele>548.4</ele>
        <time>2022-06-25T14:16:30Z</time>
      </trkpt>
      <trkpt lat="46.19564" lon="4.64563">
        <ele>548.4</ele>
        <time>2022-06-25T14:16:31Z</time>
      </trkpt>
      <trkpt lat="46.19564" lon="4.64569">
        <ele>548.6</ele>
        <time>2022-06-25T14:16:32Z</time>
      </trkpt>
      <trkpt lat="46.19563" lon="4.64575">
        <ele>548.6</ele>
        <time>2022-06-25T14:16:33Z</time>
      </trkpt>
      <trkpt lat="46.19562" lon="4.64581">
        <ele>548.6</ele>
        <time>2022-06-25T14:16:34Z</time>
      </trkpt>
      <trkpt lat="46.19562" lon="4.64588">
        <ele>549</ele>
        <time>2022-06-25T14:16:35Z</time>
      </trkpt>
      <trkpt lat="46.19561" lon="4.64594">
        <ele>549</ele>
        <time>2022-06-25T14:16:36Z</time>
      </trkpt>
      <trkpt lat="46.19561" lon="4.646">
        <ele>549.2</ele>
        <time>2022-06-25T14:16:37Z</time>
      </trkpt>
      <trkpt lat="46.1956" lon="4.64606">
        <ele>549.2</ele>
        <time>2022-06-25T14:16:38Z</time>
      </trkpt>
      <trkpt lat="46.19559" lon="4.64612">
        <ele>549.4</ele>
        <time>2022-06-25T14:16:39Z</time>
      </trkpt>
      <trkpt lat="46.19558" lon="4.64618">
        <ele>549.4</ele>
        <time>2022-06-25T14:16:40Z</time>
      </trkpt>
      <trkpt lat="46.19557" lon="4.64623">
        <ele>549.4</ele>
        <time>2022-06-25T14:16:41Z</time>
      </trkpt>
      <trkpt lat="46.19556" lon="4.64629">
        <ele>549.8</ele>
        <time>2022-06-25T14:16:42Z</time>
      </trkpt>
      <trkpt lat="46.19555" lon="4.64635">
        <ele>549.8</ele>
        <time>2022-06-25T14:16:43Z</time>
      </trkpt>
      <trkpt lat="46.19554" lon="4.64641">
        <ele>550.2</ele>
        <time>2022-06-25T14:16:44Z</time>
      </trkpt>
      <trkpt lat="46.19553" lon="4.64647">
        <ele>550.2</ele>
        <time>2022-06-25T14:16:45Z</time>
      </trkpt>
      <trkpt lat="46.19552" lon="4.64653">
        <ele>550.2</ele>
        <time>2022-06-25T14:16:46Z</time>
      </trkpt>
      <trkpt lat="46.19551" lon="4.64659">
        <ele>550.4</ele>
        <time>2022-06-25T14:16:47Z</time>
      </trkpt>
      <trkpt lat="46.1955" lon="4.64664">
        <ele>550.4</ele>
        <time>2022-06-25T14:16:48Z</time>
      </trkpt>
      <trkpt lat="46.19549" lon="4.6467">
        <ele>550.4</ele>
        <time>2022-06-25T14:16:49Z</time>
      </trkpt>
      <trkpt lat="46.19547" lon="4.64675">
        <ele>550.6</ele>
        <time>2022-06-25T14:16:50Z</time>
      </trkpt>
      <trkpt lat="46.19545" lon="4.64681">
        <ele>550.8</ele>
        <time>2022-06-25T14:16:51Z</time>
      </trkpt>
      <trkpt lat="46.19542" lon="4.64685">
        <ele>551</ele>
        <time>2022-06-25T14:16:52Z</time>
      </trkpt>
      <trkpt lat="46.19539" lon="4.64689">
        <ele>551</ele>
        <time>2022-06-25T14:16:53Z</time>
      </trkpt>
      <trkpt lat="46.19536" lon="4.64692">
        <ele>551.4</ele>
        <time>2022-06-25T14:16:54Z</time>
      </trkpt>
      <trkpt lat="46.19533" lon="4.64694">
        <ele>551.4</ele>
        <time>2022-06-25T14:16:55Z</time>
      </trkpt>
      <trkpt lat="46.1953" lon="4.64697">
        <ele>551.6</ele>
        <time>2022-06-25T14:16:56Z</time>
      </trkpt>
      <trkpt lat="46.19526" lon="4.64699">
        <ele>551.8</ele>
        <time>2022-06-25T14:16:57Z</time>
      </trkpt>
      <trkpt lat="46.19523" lon="4.64701">
        <ele>552.2</ele>
        <time>2022-06-25T14:16:58Z</time>
      </trkpt>
      <trkpt lat="46.19519" lon="4.64702">
        <ele>552.4</ele>
        <time>2022-06-25T14:16:59Z</time>
      </trkpt>
      <trkpt lat="46.19516" lon="4.64704">
        <ele>552.4</ele>
        <time>2022-06-25T14:17:00Z</time>
      </trkpt>
      <trkpt lat="46.19512" lon="4.64704">
        <ele>552.8</ele>
        <time>2022-06-25T14:17:01Z</time>
      </trkpt>
      <trkpt lat="46.19508" lon="4.64705">
        <ele>552.8</ele>
        <time>2022-06-25T14:17:02Z</time>
      </trkpt>
      <trkpt lat="46.19504" lon="4.64706">
        <ele>553</ele>
        <time>2022-06-25T14:17:03Z</time>
      </trkpt>
      <trkpt lat="46.195" lon="4.64707">
        <ele>553</ele>
        <time>2022-06-25T14:17:04Z</time>
      </trkpt>
      <trkpt lat="46.19496" lon="4.64708">
        <ele>553</ele>
        <time>2022-06-25T14:17:05Z</time>
      </trkpt>
      <trkpt lat="46.19492" lon="4.64709">
        <ele>553.2</ele>
        <time>2022-06-25T14:17:06Z</time>
      </trkpt>
      <trkpt lat="46.19488" lon="4.6471">
        <ele>553.2</ele>
        <time>2022-06-25T14:17:07Z</time>
      </trkpt>
      <trkpt lat="46.19483" lon="4.6471">
        <ele>553.6</ele>
        <time>2022-06-25T14:17:08Z</time>
      </trkpt>
      <trkpt lat="46.19479" lon="4.6471">
        <ele>553.8</ele>
        <time>2022-06-25T14:17:09Z</time>
      </trkpt>
      <trkpt lat="46.19475" lon="4.64711">
        <ele>553.8</ele>
        <time>2022-06-25T14:17:10Z</time>
      </trkpt>
      <trkpt lat="46.19471" lon="4.64711">
        <ele>554</ele>
        <time>2022-06-25T14:17:11Z</time>
      </trkpt>
      <trkpt lat="46.19466" lon="4.64711">
        <ele>554</ele>
        <time>2022-06-25T14:17:12Z</time>
      </trkpt>
      <trkpt lat="46.19462" lon="4.64711">
        <ele>554.2</ele>
        <time>2022-06-25T14:17:13Z</time>
      </trkpt>
      <trkpt lat="46.19458" lon="4.64711">
        <ele>554.2</ele>
        <time>2022-06-25T14:17:14Z</time>
      </trkpt>
      <trkpt lat="46.19453" lon="4.6471">
        <ele>554.4</ele>
        <time>2022-06-25T14:17:15Z</time>
      </trkpt>
      <trkpt lat="46.19449" lon="4.6471">
        <ele>554.4</ele>
        <time>2022-06-25T14:17:16Z</time>
      </trkpt>
      <trkpt lat="46.19445" lon="4.64709">
        <ele>554.8</ele>
        <time>2022-06-25T14:17:17Z</time>
      </trkpt>
      <trkpt lat="46.1944" lon="4.64708">
        <ele>554.8</ele>
        <time>2022-06-25T14:17:18Z</time>
      </trkpt>
      <trkpt lat="46.19436" lon="4.64707">
        <ele>555.2</ele>
        <time>2022-06-25T14:17:19Z</time>
      </trkpt>
      <trkpt lat="46.19432" lon="4.64705">
        <ele>555.2</ele>
        <time>2022-06-25T14:17:20Z</time>
      </trkpt>
      <trkpt lat="46.19428" lon="4.64704">
        <ele>555.4</ele>
        <time>2022-06-25T14:17:21Z</time>
      </trkpt>
      <trkpt lat="46.19424" lon="4.64703">
        <ele>555.4</ele>
        <time>2022-06-25T14:17:22Z</time>
      </trkpt>
      <trkpt lat="46.19419" lon="4.64702">
        <ele>555.8</ele>
        <time>2022-06-25T14:17:23Z</time>
      </trkpt>
      <trkpt lat="46.19415" lon="4.64702">
        <ele>555.8</ele>
        <time>2022-06-25T14:17:24Z</time>
      </trkpt>
      <trkpt lat="46.19411" lon="4.64702">
        <ele>556.2</ele>
        <time>2022-06-25T14:17:25Z</time>
      </trkpt>
      <trkpt lat="46.19407" lon="4.64702">
        <ele>556.2</ele>
        <time>2022-06-25T14:17:26Z</time>
      </trkpt>
      <trkpt lat="46.19402" lon="4.64703">
        <ele>556.4</ele>
        <time>2022-06-25T14:17:27Z</time>
      </trkpt>
      <trkpt lat="46.19398" lon="4.64704">
        <ele>556.6</ele>
        <time>2022-06-25T14:17:28Z</time>
      </trkpt>
      <trkpt lat="46.19394" lon="4.64705">
        <ele>556.6</ele>
        <time>2022-06-25T14:17:29Z</time>
      </trkpt>
      <trkpt lat="46.1939" lon="4.64706">
        <ele>557</ele>
        <time>2022-06-25T14:17:30Z</time>
      </trkpt>
      <trkpt lat="46.19386" lon="4.64707">
        <ele>557</ele>
        <time>2022-06-25T14:17:31Z</time>
      </trkpt>
      <trkpt lat="46.19382" lon="4.64708">
        <ele>557.4</ele>
        <time>2022-06-25T14:17:32Z</time>
      </trkpt>
      <trkpt lat="46.19378" lon="4.64709">
        <ele>557.4</ele>
        <time>2022-06-25T14:17:33Z</time>
      </trkpt>
      <trkpt lat="46.19375" lon="4.6471">
        <ele>557.8</ele>
        <time>2022-06-25T14:17:34Z</time>
      </trkpt>
      <trkpt lat="46.19371" lon="4.64711">
        <ele>557.8</ele>
        <time>2022-06-25T14:17:35Z</time>
      </trkpt>
      <trkpt lat="46.19367" lon="4.64713">
        <ele>558.2</ele>
        <time>2022-06-25T14:17:36Z</time>
      </trkpt>
      <trkpt lat="46.19364" lon="4.64715">
        <ele>558.2</ele>
        <time>2022-06-25T14:17:37Z</time>
      </trkpt>
      <trkpt lat="46.19361" lon="4.64718">
        <ele>558.4</ele>
        <time>2022-06-25T14:17:38Z</time>
      </trkpt>
      <trkpt lat="46.19357" lon="4.64721">
        <ele>558.4</ele>
        <time>2022-06-25T14:17:39Z</time>
      </trkpt>
      <trkpt lat="46.19353" lon="4.64724">
        <ele>558.8</ele>
        <time>2022-06-25T14:17:40Z</time>
      </trkpt>
      <trkpt lat="46.1935" lon="4.64728">
        <ele>558.8</ele>
        <time>2022-06-25T14:17:41Z</time>
      </trkpt>
      <trkpt lat="46.19347" lon="4.64732">
        <ele>559</ele>
        <time>2022-06-25T14:17:42Z</time>
      </trkpt>
      <trkpt lat="46.19343" lon="4.64735">
        <ele>559</ele>
        <time>2022-06-25T14:17:43Z</time>
      </trkpt>
      <trkpt lat="46.1934" lon="4.64739">
        <ele>559.2</ele>
        <time>2022-06-25T14:17:44Z</time>
      </trkpt>
      <trkpt lat="46.19337" lon="4.64742">
        <ele>559.2</ele>
        <time>2022-06-25T14:17:45Z</time>
      </trkpt>
      <trkpt lat="46.19333" lon="4.64746">
        <ele>559.4</ele>
        <time>2022-06-25T14:17:46Z</time>
      </trkpt>
      <trkpt lat="46.19329" lon="4.64749">
        <ele>559.4</ele>
        <time>2022-06-25T14:17:47Z</time>
      </trkpt>
      <trkpt lat="46.19326" lon="4.64753">
        <ele>559.6</ele>
        <time>2022-06-25T14:17:48Z</time>
      </trkpt>
      <trkpt lat="46.19323" lon="4.64757">
        <ele>559.6</ele>
        <time>2022-06-25T14:17:49Z</time>
      </trkpt>
      <trkpt lat="46.1932" lon="4.64761">
        <ele>560.2</ele>
        <time>2022-06-25T14:17:50Z</time>
      </trkpt>
      <trkpt lat="46.19316" lon="4.64764">
        <ele>560.4</ele>
        <time>2022-06-25T14:17:51Z</time>
      </trkpt>
      <trkpt lat="46.19313" lon="4.64767">
        <ele>560.4</ele>
        <time>2022-06-25T14:17:52Z</time>
      </trkpt>
      <trkpt lat="46.1931" lon="4.64771">
        <ele>560.6</ele>
        <time>2022-06-25T14:17:53Z</time>
      </trkpt>
      <trkpt lat="46.19307" lon="4.64775">
        <ele>560.6</ele>
        <time>2022-06-25T14:17:54Z</time>
      </trkpt>
      <trkpt lat="46.19304" lon="4.64778">
        <ele>560.8</ele>
        <time>2022-06-25T14:17:55Z</time>
      </trkpt>
      <trkpt lat="46.19301" lon="4.64782">
        <ele>560.8</ele>
        <time>2022-06-25T14:17:56Z</time>
      </trkpt>
      <trkpt lat="46.19298" lon="4.64786">
        <ele>560.8</ele>
        <time>2022-06-25T14:17:57Z</time>
      </trkpt>
      <trkpt lat="46.19295" lon="4.64789">
        <ele>561.2</ele>
        <time>2022-06-25T14:17:58Z</time>
      </trkpt>
      <trkpt lat="46.19292" lon="4.64793">
        <ele>561.2</ele>
        <time>2022-06-25T14:17:59Z</time>
      </trkpt>
      <trkpt lat="46.19289" lon="4.64797">
        <ele>561.4</ele>
        <time>2022-06-25T14:18:00Z</time>
      </trkpt>
      <trkpt lat="46.19286" lon="4.648">
        <ele>561.4</ele>
        <time>2022-06-25T14:18:01Z</time>
      </trkpt>
      <trkpt lat="46.19284" lon="4.64804">
        <ele>561.4</ele>
        <time>2022-06-25T14:18:02Z</time>
      </trkpt>
      <trkpt lat="46.19281" lon="4.64807">
        <ele>561.6</ele>
        <time>2022-06-25T14:18:03Z</time>
      </trkpt>
      <trkpt lat="46.19278" lon="4.6481">
        <ele>561.6</ele>
        <time>2022-06-25T14:18:04Z</time>
      </trkpt>
      <trkpt lat="46.19276" lon="4.64814">
        <ele>561.8</ele>
        <time>2022-06-25T14:18:05Z</time>
      </trkpt>
      <trkpt lat="46.19273" lon="4.64817">
        <ele>561.8</ele>
        <time>2022-06-25T14:18:06Z</time>
      </trkpt>
      <trkpt lat="46.1927" lon="4.64819">
        <ele>561.8</ele>
        <time>2022-06-25T14:18:07Z</time>
      </trkpt>
      <trkpt lat="46.19268" lon="4.64821">
        <ele>562.2</ele>
        <time>2022-06-25T14:18:08Z</time>
      </trkpt>
      <trkpt lat="46.19265" lon="4.64822">
        <ele>562.2</ele>
        <time>2022-06-25T14:18:09Z</time>
      </trkpt>
      <trkpt lat="46.19262" lon="4.64822">
        <ele>562.4</ele>
        <time>2022-06-25T14:18:10Z</time>
      </trkpt>
      <trkpt lat="46.19259" lon="4.64822">
        <ele>562.4</ele>
        <time>2022-06-25T14:18:11Z</time>
      </trkpt>
      <trkpt lat="46.19256" lon="4.64821">
        <ele>562.6</ele>
        <time>2022-06-25T14:18:12Z</time>
      </trkpt>
      <trkpt lat="46.19253" lon="4.6482">
        <ele>562.6</ele>
        <time>2022-06-25T14:18:13Z</time>
      </trkpt>
      <trkpt lat="46.19251" lon="4.64819">
        <ele>562.6</ele>
        <time>2022-06-25T14:18:14Z</time>
      </trkpt>
      <trkpt lat="46.19249" lon="4.64818">
        <ele>562.6</ele>
        <time>2022-06-25T14:18:15Z</time>
      </trkpt>
      <trkpt lat="46.19247" lon="4.64816">
        <ele>562.6</ele>
        <time>2022-06-25T14:18:16Z</time>
      </trkpt>
      <trkpt lat="46.19247" lon="4.64816">
        <ele>562.6</ele>
        <time>2022-06-25T14:18:18Z</time>
      </trkpt>
      <trkpt lat="46.19247" lon="4.64815">
        <ele>562.8</ele>
        <time>2022-06-25T14:18:19Z</time>
      </trkpt>
      <trkpt lat="46.19248" lon="4.64812">
        <ele>563.4</ele>
        <time>2022-06-25T14:19:24Z</time>
      </trkpt>
      <trkpt lat="46.19248" lon="4.6481">
        <ele>563.4</ele>
        <time>2022-06-25T14:19:25Z</time>
      </trkpt>
      <trkpt lat="46.19247" lon="4.64807">
        <ele>563.6</ele>
        <time>2022-06-25T14:19:26Z</time>
      </trkpt>
      <trkpt lat="46.19246" lon="4.64804">
        <ele>563.6</ele>
        <time>2022-06-25T14:19:27Z</time>
      </trkpt>
      <trkpt lat="46.19245" lon="4.64801">
        <ele>563.6</ele>
        <time>2022-06-25T14:19:28Z</time>
      </trkpt>
      <trkpt lat="46.19244" lon="4.64797">
        <ele>563.6</ele>
        <time>2022-06-25T14:19:29Z</time>
      </trkpt>
      <trkpt lat="46.19242" lon="4.64794">
        <ele>563.6</ele>
        <time>2022-06-25T14:19:30Z</time>
      </trkpt>
      <trkpt lat="46.19241" lon="4.6479">
        <ele>563.6</ele>
        <time>2022-06-25T14:19:31Z</time>
      </trkpt>
      <trkpt lat="46.1924" lon="4.64786">
        <ele>563.6</ele>
        <time>2022-06-25T14:19:32Z</time>
      </trkpt>
      <trkpt lat="46.19238" lon="4.64781">
        <ele>563.6</ele>
        <time>2022-06-25T14:19:33Z</time>
      </trkpt>
      <trkpt lat="46.19237" lon="4.64776">
        <ele>563.6</ele>
        <time>2022-06-25T14:19:34Z</time>
      </trkpt>
      <trkpt lat="46.19235" lon="4.64771">
        <ele>563.6</ele>
        <time>2022-06-25T14:19:35Z</time>
      </trkpt>
      <trkpt lat="46.19232" lon="4.64766">
        <ele>563.6</ele>
        <time>2022-06-25T14:19:36Z</time>
      </trkpt>
      <trkpt lat="46.1923" lon="4.64761">
        <ele>563.4</ele>
        <time>2022-06-25T14:19:37Z</time>
      </trkpt>
      <trkpt lat="46.19228" lon="4.64756">
        <ele>563.4</ele>
        <time>2022-06-25T14:19:38Z</time>
      </trkpt>
      <trkpt lat="46.19226" lon="4.64753">
        <ele>563.4</ele>
        <time>2022-06-25T14:19:39Z</time>
      </trkpt>
      <trkpt lat="46.19225" lon="4.64751">
        <ele>563.4</ele>
        <time>2022-06-25T14:19:40Z</time>
      </trkpt>
      <trkpt lat="46.19222" lon="4.64745">
        <ele>563.4</ele>
        <time>2022-06-25T14:19:41Z</time>
      </trkpt>
      <trkpt lat="46.1922" lon="4.6474">
        <ele>563.4</ele>
        <time>2022-06-25T14:19:42Z</time>
      </trkpt>
      <trkpt lat="46.19217" lon="4.64734">
        <ele>563.4</ele>
        <time>2022-06-25T14:19:43Z</time>
      </trkpt>
      <trkpt lat="46.19214" lon="4.64729">
        <ele>563.2</ele>
        <time>2022-06-25T14:19:44Z</time>
      </trkpt>
      <trkpt lat="46.19211" lon="4.64723">
        <ele>563.2</ele>
        <time>2022-06-25T14:19:45Z</time>
      </trkpt>
      <trkpt lat="46.19207" lon="4.64718">
        <ele>563.2</ele>
        <time>2022-06-25T14:19:46Z</time>
      </trkpt>
      <trkpt lat="46.19204" lon="4.64713">
        <ele>563.2</ele>
        <time>2022-06-25T14:19:47Z</time>
      </trkpt>
      <trkpt lat="46.192" lon="4.64708">
        <ele>563</ele>
        <time>2022-06-25T14:19:48Z</time>
      </trkpt>
      <trkpt lat="46.19197" lon="4.64702">
        <ele>563</ele>
        <time>2022-06-25T14:19:49Z</time>
      </trkpt>
      <trkpt lat="46.19193" lon="4.64697">
        <ele>563</ele>
        <time>2022-06-25T14:19:50Z</time>
      </trkpt>
      <trkpt lat="46.19189" lon="4.6469">
        <ele>562.6</ele>
        <time>2022-06-25T14:19:51Z</time>
      </trkpt>
      <trkpt lat="46.19186" lon="4.64683">
        <ele>562.4</ele>
        <time>2022-06-25T14:19:52Z</time>
      </trkpt>
      <trkpt lat="46.19183" lon="4.64675">
        <ele>562.4</ele>
        <time>2022-06-25T14:19:53Z</time>
      </trkpt>
      <trkpt lat="46.19181" lon="4.64666">
        <ele>562</ele>
        <time>2022-06-25T14:19:54Z</time>
      </trkpt>
      <trkpt lat="46.19179" lon="4.64657">
        <ele>562</ele>
        <time>2022-06-25T14:19:55Z</time>
      </trkpt>
      <trkpt lat="46.19178" lon="4.64647">
        <ele>561.6</ele>
        <time>2022-06-25T14:19:56Z</time>
      </trkpt>
      <trkpt lat="46.19177" lon="4.64637">
        <ele>561.6</ele>
        <time>2022-06-25T14:19:57Z</time>
      </trkpt>
      <trkpt lat="46.19177" lon="4.64627">
        <ele>561.4</ele>
        <time>2022-06-25T14:19:58Z</time>
      </trkpt>
      <trkpt lat="46.19176" lon="4.64616">
        <ele>561</ele>
        <time>2022-06-25T14:19:59Z</time>
      </trkpt>
      <trkpt lat="46.19174" lon="4.64606">
        <ele>561</ele>
        <time>2022-06-25T14:20:00Z</time>
      </trkpt>
      <trkpt lat="46.19172" lon="4.64596">
        <ele>560.8</ele>
        <time>2022-06-25T14:20:01Z</time>
      </trkpt>
      <trkpt lat="46.19168" lon="4.64588">
        <ele>560.4</ele>
        <time>2022-06-25T14:20:02Z</time>
      </trkpt>
      <trkpt lat="46.19163" lon="4.6458">
        <ele>560.2</ele>
        <time>2022-06-25T14:20:03Z</time>
      </trkpt>
      <trkpt lat="46.19158" lon="4.64572">
        <ele>560.2</ele>
        <time>2022-06-25T14:20:04Z</time>
      </trkpt>
      <trkpt lat="46.19152" lon="4.64565">
        <ele>559.8</ele>
        <time>2022-06-25T14:20:05Z</time>
      </trkpt>
      <trkpt lat="46.19146" lon="4.64558">
        <ele>559.4</ele>
        <time>2022-06-25T14:20:06Z</time>
      </trkpt>
      <trkpt lat="46.19139" lon="4.6455">
        <ele>559.2</ele>
        <time>2022-06-25T14:20:07Z</time>
      </trkpt>
      <trkpt lat="46.19131" lon="4.64544">
        <ele>558.8</ele>
        <time>2022-06-25T14:20:08Z</time>
      </trkpt>
      <trkpt lat="46.19123" lon="4.64539">
        <ele>558.6</ele>
        <time>2022-06-25T14:20:09Z</time>
      </trkpt>
      <trkpt lat="46.19115" lon="4.64535">
        <ele>558.2</ele>
        <time>2022-06-25T14:20:10Z</time>
      </trkpt>
      <trkpt lat="46.19106" lon="4.64533">
        <ele>557.6</ele>
        <time>2022-06-25T14:20:11Z</time>
      </trkpt>
      <trkpt lat="46.19098" lon="4.64533">
        <ele>557.4</ele>
        <time>2022-06-25T14:20:12Z</time>
      </trkpt>
      <trkpt lat="46.19089" lon="4.64535">
        <ele>557</ele>
        <time>2022-06-25T14:20:13Z</time>
      </trkpt>
      <trkpt lat="46.19081" lon="4.64539">
        <ele>556.6</ele>
        <time>2022-06-25T14:20:14Z</time>
      </trkpt>
      <trkpt lat="46.19071" lon="4.64543">
        <ele>556.2</ele>
        <time>2022-06-25T14:20:15Z</time>
      </trkpt>
      <trkpt lat="46.19061" lon="4.64548">
        <ele>555.8</ele>
        <time>2022-06-25T14:20:16Z</time>
      </trkpt>
      <trkpt lat="46.19052" lon="4.64551">
        <ele>555.4</ele>
        <time>2022-06-25T14:20:17Z</time>
      </trkpt>
      <trkpt lat="46.19042" lon="4.64551">
        <ele>555</ele>
        <time>2022-06-25T14:20:18Z</time>
      </trkpt>
      <trkpt lat="46.19033" lon="4.64552">
        <ele>554.6</ele>
        <time>2022-06-25T14:20:19Z</time>
      </trkpt>
      <trkpt lat="46.19023" lon="4.6455">
        <ele>554.2</ele>
        <time>2022-06-25T14:20:20Z</time>
      </trkpt>
      <trkpt lat="46.19015" lon="4.64544">
        <ele>553.8</ele>
        <time>2022-06-25T14:20:21Z</time>
      </trkpt>
      <trkpt lat="46.19006" lon="4.64539">
        <ele>553.4</ele>
        <time>2022-06-25T14:20:22Z</time>
      </trkpt>
      <trkpt lat="46.18997" lon="4.64533">
        <ele>553.2</ele>
        <time>2022-06-25T14:20:23Z</time>
      </trkpt>
      <trkpt lat="46.18989" lon="4.64526">
        <ele>552.8</ele>
        <time>2022-06-25T14:20:24Z</time>
      </trkpt>
      <trkpt lat="46.18981" lon="4.64518">
        <ele>552.4</ele>
        <time>2022-06-25T14:20:25Z</time>
      </trkpt>
      <trkpt lat="46.18973" lon="4.64508">
        <ele>552.2</ele>
        <time>2022-06-25T14:20:26Z</time>
      </trkpt>
      <trkpt lat="46.18966" lon="4.64498">
        <ele>551.8</ele>
        <time>2022-06-25T14:20:27Z</time>
      </trkpt>
      <trkpt lat="46.18961" lon="4.64487">
        <ele>551.4</ele>
        <time>2022-06-25T14:20:28Z</time>
      </trkpt>
      <trkpt lat="46.18958" lon="4.64476">
        <ele>551</ele>
        <time>2022-06-25T14:20:29Z</time>
      </trkpt>
      <trkpt lat="46.18954" lon="4.64464">
        <ele>550.6</ele>
        <time>2022-06-25T14:20:30Z</time>
      </trkpt>
      <trkpt lat="46.18951" lon="4.64451">
        <ele>550.4</ele>
        <time>2022-06-25T14:20:31Z</time>
      </trkpt>
      <trkpt lat="46.18949" lon="4.64439">
        <ele>550</ele>
        <time>2022-06-25T14:20:32Z</time>
      </trkpt>
      <trkpt lat="46.18948" lon="4.64425">
        <ele>549.8</ele>
        <time>2022-06-25T14:20:33Z</time>
      </trkpt>
      <trkpt lat="46.18948" lon="4.64412">
        <ele>549.4</ele>
        <time>2022-06-25T14:20:34Z</time>
      </trkpt>
      <trkpt lat="46.18949" lon="4.64399">
        <ele>549.4</ele>
        <time>2022-06-25T14:20:35Z</time>
      </trkpt>
      <trkpt lat="46.18951" lon="4.64385">
        <ele>549</ele>
        <time>2022-06-25T14:20:36Z</time>
      </trkpt>
      <trkpt lat="46.18953" lon="4.64373">
        <ele>548.6</ele>
        <time>2022-06-25T14:20:37Z</time>
      </trkpt>
      <trkpt lat="46.18955" lon="4.64361">
        <ele>548.2</ele>
        <time>2022-06-25T14:20:38Z</time>
      </trkpt>
      <trkpt lat="46.18957" lon="4.64348">
        <ele>547.8</ele>
        <time>2022-06-25T14:20:39Z</time>
      </trkpt>
      <trkpt lat="46.18959" lon="4.64336">
        <ele>547.6</ele>
        <time>2022-06-25T14:20:40Z</time>
      </trkpt>
      <trkpt lat="46.18961" lon="4.64324">
        <ele>547.2</ele>
        <time>2022-06-25T14:20:41Z</time>
      </trkpt>
      <trkpt lat="46.18963" lon="4.64312">
        <ele>547.2</ele>
        <time>2022-06-25T14:20:42Z</time>
      </trkpt>
      <trkpt lat="46.18963" lon="4.643">
        <ele>546.6</ele>
        <time>2022-06-25T14:20:43Z</time>
      </trkpt>
      <trkpt lat="46.18961" lon="4.64288">
        <ele>546.2</ele>
        <time>2022-06-25T14:20:44Z</time>
      </trkpt>
      <trkpt lat="46.18958" lon="4.64278">
        <ele>545.8</ele>
        <time>2022-06-25T14:20:45Z</time>
      </trkpt>
      <trkpt lat="46.18953" lon="4.64268">
        <ele>545.4</ele>
        <time>2022-06-25T14:20:46Z</time>
      </trkpt>
      <trkpt lat="46.18946" lon="4.6426">
        <ele>545</ele>
        <time>2022-06-25T14:20:47Z</time>
      </trkpt>
      <trkpt lat="46.18938" lon="4.64253">
        <ele>544.6</ele>
        <time>2022-06-25T14:20:48Z</time>
      </trkpt>
      <trkpt lat="46.1893" lon="4.6425">
        <ele>544</ele>
        <time>2022-06-25T14:20:49Z</time>
      </trkpt>
      <trkpt lat="46.1892" lon="4.64251">
        <ele>543.6</ele>
        <time>2022-06-25T14:20:50Z</time>
      </trkpt>
      <trkpt lat="46.1891" lon="4.64254">
        <ele>543.2</ele>
        <time>2022-06-25T14:20:51Z</time>
      </trkpt>
      <trkpt lat="46.18899" lon="4.64259">
        <ele>542.6</ele>
        <time>2022-06-25T14:20:52Z</time>
      </trkpt>
      <trkpt lat="46.18888" lon="4.64266">
        <ele>542.4</ele>
        <time>2022-06-25T14:20:53Z</time>
      </trkpt>
      <trkpt lat="46.18876" lon="4.64272">
        <ele>542</ele>
        <time>2022-06-25T14:20:54Z</time>
      </trkpt>
      <trkpt lat="46.18866" lon="4.64277">
        <ele>541.8</ele>
        <time>2022-06-25T14:20:55Z</time>
      </trkpt>
      <trkpt lat="46.18858" lon="4.64282">
        <ele>540.6</ele>
        <time>2022-06-25T14:20:56Z</time>
      </trkpt>
      <trkpt lat="46.1885" lon="4.64286">
        <ele>540.4</ele>
        <time>2022-06-25T14:20:57Z</time>
      </trkpt>
      <trkpt lat="46.18835" lon="4.64295">
        <ele>540</ele>
        <time>2022-06-25T14:20:58Z</time>
      </trkpt>
      <trkpt lat="46.18826" lon="4.643">
        <ele>539.6</ele>
        <time>2022-06-25T14:20:59Z</time>
      </trkpt>
      <trkpt lat="46.18816" lon="4.64304">
        <ele>539.2</ele>
        <time>2022-06-25T14:21:00Z</time>
      </trkpt>
      <trkpt lat="46.18806" lon="4.64305">
        <ele>538.8</ele>
        <time>2022-06-25T14:21:01Z</time>
      </trkpt>
      <trkpt lat="46.18795" lon="4.64304">
        <ele>538.4</ele>
        <time>2022-06-25T14:21:02Z</time>
      </trkpt>
      <trkpt lat="46.18786" lon="4.64299">
        <ele>538</ele>
        <time>2022-06-25T14:21:03Z</time>
      </trkpt>
      <trkpt lat="46.18777" lon="4.64291">
        <ele>537.6</ele>
        <time>2022-06-25T14:21:04Z</time>
      </trkpt>
      <trkpt lat="46.18769" lon="4.64283">
        <ele>537.2</ele>
        <time>2022-06-25T14:21:05Z</time>
      </trkpt>
      <trkpt lat="46.18761" lon="4.64275">
        <ele>537</ele>
        <time>2022-06-25T14:21:06Z</time>
      </trkpt>
      <trkpt lat="46.18754" lon="4.64266">
        <ele>536.6</ele>
        <time>2022-06-25T14:21:07Z</time>
      </trkpt>
      <trkpt lat="46.18749" lon="4.64258">
        <ele>536.2</ele>
        <time>2022-06-25T14:21:08Z</time>
      </trkpt>
      <trkpt lat="46.18747" lon="4.64248">
        <ele>536</ele>
        <time>2022-06-25T14:21:09Z</time>
      </trkpt>
      <trkpt lat="46.18747" lon="4.64236">
        <ele>536</ele>
        <time>2022-06-25T14:21:10Z</time>
      </trkpt>
      <trkpt lat="46.18748" lon="4.64225">
        <ele>535.8</ele>
        <time>2022-06-25T14:21:11Z</time>
      </trkpt>
      <trkpt lat="46.1875" lon="4.64215">
        <ele>535.8</ele>
        <time>2022-06-25T14:21:12Z</time>
      </trkpt>
      <trkpt lat="46.18753" lon="4.64205">
        <ele>535.4</ele>
        <time>2022-06-25T14:21:13Z</time>
      </trkpt>
      <trkpt lat="46.18755" lon="4.64195">
        <ele>535.4</ele>
        <time>2022-06-25T14:21:14Z</time>
      </trkpt>
      <trkpt lat="46.18756" lon="4.64184">
        <ele>535.4</ele>
        <time>2022-06-25T14:21:15Z</time>
      </trkpt>
      <trkpt lat="46.18758" lon="4.64174">
        <ele>535.2</ele>
        <time>2022-06-25T14:21:16Z</time>
      </trkpt>
      <trkpt lat="46.18759" lon="4.64164">
        <ele>535.2</ele>
        <time>2022-06-25T14:21:17Z</time>
      </trkpt>
      <trkpt lat="46.18761" lon="4.64153">
        <ele>535</ele>
        <time>2022-06-25T14:21:18Z</time>
      </trkpt>
      <trkpt lat="46.1876" lon="4.64143">
        <ele>535</ele>
        <time>2022-06-25T14:21:19Z</time>
      </trkpt>
      <trkpt lat="46.18758" lon="4.64132">
        <ele>534.8</ele>
        <time>2022-06-25T14:21:20Z</time>
      </trkpt>
      <trkpt lat="46.18754" lon="4.64124">
        <ele>534.8</ele>
        <time>2022-06-25T14:21:21Z</time>
      </trkpt>
      <trkpt lat="46.18748" lon="4.64117">
        <ele>534.4</ele>
        <time>2022-06-25T14:21:22Z</time>
      </trkpt>
      <trkpt lat="46.18741" lon="4.64114">
        <ele>534.4</ele>
        <time>2022-06-25T14:21:23Z</time>
      </trkpt>
      <trkpt lat="46.18734" lon="4.64111">
        <ele>534.4</ele>
        <time>2022-06-25T14:21:24Z</time>
      </trkpt>
      <trkpt lat="46.18727" lon="4.64107">
        <ele>534.2</ele>
        <time>2022-06-25T14:21:25Z</time>
      </trkpt>
      <trkpt lat="46.1872" lon="4.64101">
        <ele>534.2</ele>
        <time>2022-06-25T14:21:26Z</time>
      </trkpt>
      <trkpt lat="46.18714" lon="4.64094">
        <ele>534.2</ele>
        <time>2022-06-25T14:21:27Z</time>
      </trkpt>
      <trkpt lat="46.1871" lon="4.64084">
        <ele>534.2</ele>
        <time>2022-06-25T14:21:28Z</time>
      </trkpt>
      <trkpt lat="46.18708" lon="4.64074">
        <ele>533.8</ele>
        <time>2022-06-25T14:21:29Z</time>
      </trkpt>
      <trkpt lat="46.18706" lon="4.64063">
        <ele>533.8</ele>
        <time>2022-06-25T14:21:30Z</time>
      </trkpt>
      <trkpt lat="46.18705" lon="4.64052">
        <ele>533.8</ele>
        <time>2022-06-25T14:21:31Z</time>
      </trkpt>
      <trkpt lat="46.18705" lon="4.6404">
        <ele>533.8</ele>
        <time>2022-06-25T14:21:32Z</time>
      </trkpt>
      <trkpt lat="46.18705" lon="4.64029">
        <ele>533.6</ele>
        <time>2022-06-25T14:21:33Z</time>
      </trkpt>
      <trkpt lat="46.18705" lon="4.64018">
        <ele>533.6</ele>
        <time>2022-06-25T14:21:34Z</time>
      </trkpt>
      <trkpt lat="46.18705" lon="4.64007">
        <ele>533.6</ele>
        <time>2022-06-25T14:21:35Z</time>
      </trkpt>
      <trkpt lat="46.18705" lon="4.63996">
        <ele>533.6</ele>
        <time>2022-06-25T14:21:36Z</time>
      </trkpt>
      <trkpt lat="46.18705" lon="4.63985">
        <ele>533.6</ele>
        <time>2022-06-25T14:21:37Z</time>
      </trkpt>
      <trkpt lat="46.18704" lon="4.63974">
        <ele>533.6</ele>
        <time>2022-06-25T14:21:38Z</time>
      </trkpt>
      <trkpt lat="46.18702" lon="4.63963">
        <ele>533.6</ele>
        <time>2022-06-25T14:21:39Z</time>
      </trkpt>
      <trkpt lat="46.18699" lon="4.63952">
        <ele>533.4</ele>
        <time>2022-06-25T14:21:40Z</time>
      </trkpt>
      <trkpt lat="46.18696" lon="4.63941">
        <ele>533.4</ele>
        <time>2022-06-25T14:21:41Z</time>
      </trkpt>
      <trkpt lat="46.18693" lon="4.63931">
        <ele>533.4</ele>
        <time>2022-06-25T14:21:42Z</time>
      </trkpt>
      <trkpt lat="46.18689" lon="4.63921">
        <ele>533.4</ele>
        <time>2022-06-25T14:21:43Z</time>
      </trkpt>
      <trkpt lat="46.18686" lon="4.63911">
        <ele>533.2</ele>
        <time>2022-06-25T14:21:44Z</time>
      </trkpt>
      <trkpt lat="46.18682" lon="4.63901">
        <ele>532.8</ele>
        <time>2022-06-25T14:21:45Z</time>
      </trkpt>
      <trkpt lat="46.18679" lon="4.63891">
        <ele>532.8</ele>
        <time>2022-06-25T14:21:46Z</time>
      </trkpt>
      <trkpt lat="46.18675" lon="4.63881">
        <ele>532.6</ele>
        <time>2022-06-25T14:21:47Z</time>
      </trkpt>
      <trkpt lat="46.18672" lon="4.63871">
        <ele>532.6</ele>
        <time>2022-06-25T14:21:48Z</time>
      </trkpt>
      <trkpt lat="46.18668" lon="4.63862">
        <ele>532.4</ele>
        <time>2022-06-25T14:21:49Z</time>
      </trkpt>
      <trkpt lat="46.18664" lon="4.63853">
        <ele>532.4</ele>
        <time>2022-06-25T14:21:50Z</time>
      </trkpt>
      <trkpt lat="46.18659" lon="4.63846">
        <ele>532</ele>
        <time>2022-06-25T14:21:51Z</time>
      </trkpt>
      <trkpt lat="46.18652" lon="4.63843">
        <ele>532</ele>
        <time>2022-06-25T14:21:52Z</time>
      </trkpt>
      <trkpt lat="46.18644" lon="4.63841">
        <ele>531.8</ele>
        <time>2022-06-25T14:21:53Z</time>
      </trkpt>
      <trkpt lat="46.18638" lon="4.63843">
        <ele>531.8</ele>
        <time>2022-06-25T14:21:54Z</time>
      </trkpt>
      <trkpt lat="46.18631" lon="4.63846">
        <ele>531.4</ele>
        <time>2022-06-25T14:21:55Z</time>
      </trkpt>
      <trkpt lat="46.18623" lon="4.63849">
        <ele>531.4</ele>
        <time>2022-06-25T14:21:56Z</time>
      </trkpt>
      <trkpt lat="46.18616" lon="4.6385">
        <ele>531.2</ele>
        <time>2022-06-25T14:21:57Z</time>
      </trkpt>
      <trkpt lat="46.18608" lon="4.63848">
        <ele>531.2</ele>
        <time>2022-06-25T14:21:58Z</time>
      </trkpt>
      <trkpt lat="46.18601" lon="4.63844">
        <ele>531</ele>
        <time>2022-06-25T14:21:59Z</time>
      </trkpt>
      <trkpt lat="46.18594" lon="4.63838">
        <ele>531</ele>
        <time>2022-06-25T14:22:00Z</time>
      </trkpt>
      <trkpt lat="46.18588" lon="4.63833">
        <ele>531</ele>
        <time>2022-06-25T14:22:01Z</time>
      </trkpt>
      <trkpt lat="46.18582" lon="4.63827">
        <ele>530.6</ele>
        <time>2022-06-25T14:22:02Z</time>
      </trkpt>
      <trkpt lat="46.18575" lon="4.63822">
        <ele>530.6</ele>
        <time>2022-06-25T14:22:03Z</time>
      </trkpt>
      <trkpt lat="46.18568" lon="4.63818">
        <ele>530.4</ele>
        <time>2022-06-25T14:22:04Z</time>
      </trkpt>
      <trkpt lat="46.18561" lon="4.63816">
        <ele>530.4</ele>
        <time>2022-06-25T14:22:05Z</time>
      </trkpt>
      <trkpt lat="46.18555" lon="4.63817">
        <ele>530</ele>
        <time>2022-06-25T14:22:06Z</time>
      </trkpt>
      <trkpt lat="46.18548" lon="4.63819">
        <ele>530</ele>
        <time>2022-06-25T14:22:07Z</time>
      </trkpt>
      <trkpt lat="46.18542" lon="4.63825">
        <ele>529.8</ele>
        <time>2022-06-25T14:22:08Z</time>
      </trkpt>
      <trkpt lat="46.18537" lon="4.63832">
        <ele>529.6</ele>
        <time>2022-06-25T14:22:09Z</time>
      </trkpt>
      <trkpt lat="46.18533" lon="4.63841">
        <ele>529.6</ele>
        <time>2022-06-25T14:22:10Z</time>
      </trkpt>
      <trkpt lat="46.1853" lon="4.63851">
        <ele>529.2</ele>
        <time>2022-06-25T14:22:11Z</time>
      </trkpt>
      <trkpt lat="46.18528" lon="4.63861">
        <ele>529.2</ele>
        <time>2022-06-25T14:22:12Z</time>
      </trkpt>
      <trkpt lat="46.18526" lon="4.63872">
        <ele>528.8</ele>
        <time>2022-06-25T14:22:13Z</time>
      </trkpt>
      <trkpt lat="46.18525" lon="4.63884">
        <ele>528.6</ele>
        <time>2022-06-25T14:22:14Z</time>
      </trkpt>
      <trkpt lat="46.18523" lon="4.63895">
        <ele>528.2</ele>
        <time>2022-06-25T14:22:15Z</time>
      </trkpt>
      <trkpt lat="46.1852" lon="4.63907">
        <ele>528.2</ele>
        <time>2022-06-25T14:22:16Z</time>
      </trkpt>
      <trkpt lat="46.18515" lon="4.63917">
        <ele>527.8</ele>
        <time>2022-06-25T14:22:17Z</time>
      </trkpt>
      <trkpt lat="46.18509" lon="4.63926">
        <ele>527.6</ele>
        <time>2022-06-25T14:22:18Z</time>
      </trkpt>
      <trkpt lat="46.18503" lon="4.63935">
        <ele>527.2</ele>
        <time>2022-06-25T14:22:19Z</time>
      </trkpt>
      <trkpt lat="46.18496" lon="4.63943">
        <ele>527</ele>
        <time>2022-06-25T14:22:20Z</time>
      </trkpt>
      <trkpt lat="46.1849" lon="4.63951">
        <ele>526.8</ele>
        <time>2022-06-25T14:22:21Z</time>
      </trkpt>
      <trkpt lat="46.18483" lon="4.63959">
        <ele>526.4</ele>
        <time>2022-06-25T14:22:22Z</time>
      </trkpt>
      <trkpt lat="46.18477" lon="4.63967">
        <ele>526.2</ele>
        <time>2022-06-25T14:22:23Z</time>
      </trkpt>
      <trkpt lat="46.1847" lon="4.63975">
        <ele>525.8</ele>
        <time>2022-06-25T14:22:24Z</time>
      </trkpt>
      <trkpt lat="46.18463" lon="4.63983">
        <ele>525.6</ele>
        <time>2022-06-25T14:22:25Z</time>
      </trkpt>
      <trkpt lat="46.18456" lon="4.6399">
        <ele>525.2</ele>
        <time>2022-06-25T14:22:26Z</time>
      </trkpt>
      <trkpt lat="46.18449" lon="4.63997">
        <ele>525</ele>
        <time>2022-06-25T14:22:27Z</time>
      </trkpt>
      <trkpt lat="46.18441" lon="4.64002">
        <ele>524.8</ele>
        <time>2022-06-25T14:22:28Z</time>
      </trkpt>
      <trkpt lat="46.18433" lon="4.64006">
        <ele>524.4</ele>
        <time>2022-06-25T14:22:29Z</time>
      </trkpt>
      <trkpt lat="46.18424" lon="4.64008">
        <ele>524.2</ele>
        <time>2022-06-25T14:22:30Z</time>
      </trkpt>
      <trkpt lat="46.18416" lon="4.64009">
        <ele>523.8</ele>
        <time>2022-06-25T14:22:31Z</time>
      </trkpt>
      <trkpt lat="46.18407" lon="4.6401">
        <ele>523.6</ele>
        <time>2022-06-25T14:22:32Z</time>
      </trkpt>
      <trkpt lat="46.18399" lon="4.6401">
        <ele>523.4</ele>
        <time>2022-06-25T14:22:33Z</time>
      </trkpt>
      <trkpt lat="46.1839" lon="4.64011">
        <ele>523</ele>
        <time>2022-06-25T14:22:34Z</time>
      </trkpt>
      <trkpt lat="46.18381" lon="4.64011">
        <ele>523</ele>
        <time>2022-06-25T14:22:35Z</time>
      </trkpt>
      <trkpt lat="46.18373" lon="4.64012">
        <ele>522.8</ele>
        <time>2022-06-25T14:22:36Z</time>
      </trkpt>
      <trkpt lat="46.18364" lon="4.64014">
        <ele>522.8</ele>
        <time>2022-06-25T14:22:37Z</time>
      </trkpt>
      <trkpt lat="46.18355" lon="4.64015">
        <ele>522.2</ele>
        <time>2022-06-25T14:22:38Z</time>
      </trkpt>
      <trkpt lat="46.18347" lon="4.64018">
        <ele>522</ele>
        <time>2022-06-25T14:22:39Z</time>
      </trkpt>
      <trkpt lat="46.18339" lon="4.64022">
        <ele>521.8</ele>
        <time>2022-06-25T14:22:40Z</time>
      </trkpt>
      <trkpt lat="46.18331" lon="4.64027">
        <ele>521.4</ele>
        <time>2022-06-25T14:22:41Z</time>
      </trkpt>
      <trkpt lat="46.18324" lon="4.64034">
        <ele>521.2</ele>
        <time>2022-06-25T14:22:42Z</time>
      </trkpt>
      <trkpt lat="46.18318" lon="4.64044">
        <ele>521.2</ele>
        <time>2022-06-25T14:22:43Z</time>
      </trkpt>
      <trkpt lat="46.18313" lon="4.64054">
        <ele>520.8</ele>
        <time>2022-06-25T14:22:44Z</time>
      </trkpt>
      <trkpt lat="46.18308" lon="4.64064">
        <ele>520.4</ele>
        <time>2022-06-25T14:22:45Z</time>
      </trkpt>
      <trkpt lat="46.18303" lon="4.64074">
        <ele>520.2</ele>
        <time>2022-06-25T14:22:46Z</time>
      </trkpt>
      <trkpt lat="46.18298" lon="4.64085">
        <ele>520.2</ele>
        <time>2022-06-25T14:22:47Z</time>
      </trkpt>
      <trkpt lat="46.18293" lon="4.64096">
        <ele>519.6</ele>
        <time>2022-06-25T14:22:48Z</time>
      </trkpt>
      <trkpt lat="46.18288" lon="4.64106">
        <ele>519.4</ele>
        <time>2022-06-25T14:22:49Z</time>
      </trkpt>
      <trkpt lat="46.18283" lon="4.64117">
        <ele>519.2</ele>
        <time>2022-06-25T14:22:50Z</time>
      </trkpt>
      <trkpt lat="46.18277" lon="4.6413">
        <ele>519</ele>
        <time>2022-06-25T14:22:51Z</time>
      </trkpt>
      <trkpt lat="46.18273" lon="4.64142">
        <ele>518.6</ele>
        <time>2022-06-25T14:22:52Z</time>
      </trkpt>
      <trkpt lat="46.18268" lon="4.64153">
        <ele>518.2</ele>
        <time>2022-06-25T14:22:53Z</time>
      </trkpt>
      <trkpt lat="46.18261" lon="4.64161">
        <ele>517.8</ele>
        <time>2022-06-25T14:22:54Z</time>
      </trkpt>
      <trkpt lat="46.18253" lon="4.64169">
        <ele>517.6</ele>
        <time>2022-06-25T14:22:55Z</time>
      </trkpt>
      <trkpt lat="46.18244" lon="4.64173">
        <ele>517.2</ele>
        <time>2022-06-25T14:22:56Z</time>
      </trkpt>
      <trkpt lat="46.18235" lon="4.64175">
        <ele>517</ele>
        <time>2022-06-25T14:22:57Z</time>
      </trkpt>
      <trkpt lat="46.18226" lon="4.64175">
        <ele>516.6</ele>
        <time>2022-06-25T14:22:58Z</time>
      </trkpt>
      <trkpt lat="46.18216" lon="4.64173">
        <ele>516.4</ele>
        <time>2022-06-25T14:22:59Z</time>
      </trkpt>
      <trkpt lat="46.18207" lon="4.64169">
        <ele>516.2</ele>
        <time>2022-06-25T14:23:00Z</time>
      </trkpt>
      <trkpt lat="46.18198" lon="4.64166">
        <ele>515.8</ele>
        <time>2022-06-25T14:23:01Z</time>
      </trkpt>
      <trkpt lat="46.18188" lon="4.64164">
        <ele>515.6</ele>
        <time>2022-06-25T14:23:02Z</time>
      </trkpt>
      <trkpt lat="46.1818" lon="4.64161">
        <ele>515.2</ele>
        <time>2022-06-25T14:23:03Z</time>
      </trkpt>
      <trkpt lat="46.18171" lon="4.64159">
        <ele>515</ele>
        <time>2022-06-25T14:23:04Z</time>
      </trkpt>
      <trkpt lat="46.18162" lon="4.64157">
        <ele>514.6</ele>
        <time>2022-06-25T14:23:05Z</time>
      </trkpt>
      <trkpt lat="46.18152" lon="4.64155">
        <ele>514.2</ele>
        <time>2022-06-25T14:23:06Z</time>
      </trkpt>
      <trkpt lat="46.18143" lon="4.64152">
        <ele>513.8</ele>
        <time>2022-06-25T14:23:07Z</time>
      </trkpt>
      <trkpt lat="46.18134" lon="4.64151">
        <ele>513.6</ele>
        <time>2022-06-25T14:23:08Z</time>
      </trkpt>
      <trkpt lat="46.18126" lon="4.6415">
        <ele>513.6</ele>
        <time>2022-06-25T14:23:09Z</time>
      </trkpt>
      <trkpt lat="46.18116" lon="4.64151">
        <ele>513</ele>
        <time>2022-06-25T14:23:10Z</time>
      </trkpt>
      <trkpt lat="46.18107" lon="4.64153">
        <ele>513</ele>
        <time>2022-06-25T14:23:11Z</time>
      </trkpt>
      <trkpt lat="46.18099" lon="4.64156">
        <ele>512.4</ele>
        <time>2022-06-25T14:23:12Z</time>
      </trkpt>
      <trkpt lat="46.18089" lon="4.6416">
        <ele>512</ele>
        <time>2022-06-25T14:23:13Z</time>
      </trkpt>
      <trkpt lat="46.1808" lon="4.64162">
        <ele>511.8</ele>
        <time>2022-06-25T14:23:14Z</time>
      </trkpt>
      <trkpt lat="46.18071" lon="4.64164">
        <ele>511.4</ele>
        <time>2022-06-25T14:23:15Z</time>
      </trkpt>
      <trkpt lat="46.18061" lon="4.64167">
        <ele>510.8</ele>
        <time>2022-06-25T14:23:16Z</time>
      </trkpt>
      <trkpt lat="46.18052" lon="4.64168">
        <ele>510.4</ele>
        <time>2022-06-25T14:23:17Z</time>
      </trkpt>
      <trkpt lat="46.18042" lon="4.6417">
        <ele>510</ele>
        <time>2022-06-25T14:23:18Z</time>
      </trkpt>
      <trkpt lat="46.18033" lon="4.64172">
        <ele>509.6</ele>
        <time>2022-06-25T14:23:19Z</time>
      </trkpt>
      <trkpt lat="46.18024" lon="4.64173">
        <ele>509</ele>
        <time>2022-06-25T14:23:20Z</time>
      </trkpt>
      <trkpt lat="46.18016" lon="4.64173">
        <ele>508.6</ele>
        <time>2022-06-25T14:23:21Z</time>
      </trkpt>
      <trkpt lat="46.18008" lon="4.64174">
        <ele>508.2</ele>
        <time>2022-06-25T14:23:22Z</time>
      </trkpt>
      <trkpt lat="46.18002" lon="4.64175">
        <ele>507.6</ele>
        <time>2022-06-25T14:23:23Z</time>
      </trkpt>
      <trkpt lat="46.17995" lon="4.64176">
        <ele>507.4</ele>
        <time>2022-06-25T14:23:24Z</time>
      </trkpt>
      <trkpt lat="46.17989" lon="4.64177">
        <ele>507</ele>
        <time>2022-06-25T14:23:25Z</time>
      </trkpt>
      <trkpt lat="46.17983" lon="4.64177">
        <ele>506.6</ele>
        <time>2022-06-25T14:23:26Z</time>
      </trkpt>
      <trkpt lat="46.17978" lon="4.64177">
        <ele>506.4</ele>
        <time>2022-06-25T14:23:27Z</time>
      </trkpt>
      <trkpt lat="46.17974" lon="4.64176">
        <ele>506</ele>
        <time>2022-06-25T14:23:28Z</time>
      </trkpt>
      <trkpt lat="46.1797" lon="4.64175">
        <ele>505.8</ele>
        <time>2022-06-25T14:23:29Z</time>
      </trkpt>
      <trkpt lat="46.17967" lon="4.64174">
        <ele>505.6</ele>
        <time>2022-06-25T14:23:30Z</time>
      </trkpt>
      <trkpt lat="46.17965" lon="4.64172">
        <ele>505.6</ele>
        <time>2022-06-25T14:23:31Z</time>
      </trkpt>
      <trkpt lat="46.17963" lon="4.6417">
        <ele>505.4</ele>
        <time>2022-06-25T14:23:32Z</time>
      </trkpt>
      <trkpt lat="46.17961" lon="4.64167">
        <ele>505.4</ele>
        <time>2022-06-25T14:23:33Z</time>
      </trkpt>
      <trkpt lat="46.17959" lon="4.64165">
        <ele>505.2</ele>
        <time>2022-06-25T14:23:34Z</time>
      </trkpt>
      <trkpt lat="46.17957" lon="4.64161">
        <ele>505.2</ele>
        <time>2022-06-25T14:23:35Z</time>
      </trkpt>
      <trkpt lat="46.17956" lon="4.64157">
        <ele>504.8</ele>
        <time>2022-06-25T14:23:36Z</time>
      </trkpt>
      <trkpt lat="46.17955" lon="4.64152">
        <ele>504.8</ele>
        <time>2022-06-25T14:23:37Z</time>
      </trkpt>
      <trkpt lat="46.17954" lon="4.64147">
        <ele>504.6</ele>
        <time>2022-06-25T14:23:38Z</time>
      </trkpt>
      <trkpt lat="46.17953" lon="4.64142">
        <ele>504.6</ele>
        <time>2022-06-25T14:23:39Z</time>
      </trkpt>
      <trkpt lat="46.17953" lon="4.64136">
        <ele>504.6</ele>
        <time>2022-06-25T14:23:40Z</time>
      </trkpt>
      <trkpt lat="46.17953" lon="4.64129">
        <ele>504.4</ele>
        <time>2022-06-25T14:23:41Z</time>
      </trkpt>
      <trkpt lat="46.17952" lon="4.64123">
        <ele>504.4</ele>
        <time>2022-06-25T14:23:42Z</time>
      </trkpt>
      <trkpt lat="46.17951" lon="4.64116">
        <ele>504.4</ele>
        <time>2022-06-25T14:23:43Z</time>
      </trkpt>
      <trkpt lat="46.1795" lon="4.64108">
        <ele>504</ele>
        <time>2022-06-25T14:23:44Z</time>
      </trkpt>
      <trkpt lat="46.17949" lon="4.641">
        <ele>504</ele>
        <time>2022-06-25T14:23:45Z</time>
      </trkpt>
      <trkpt lat="46.17948" lon="4.64092">
        <ele>503.6</ele>
        <time>2022-06-25T14:23:46Z</time>
      </trkpt>
      <trkpt lat="46.17947" lon="4.64084">
        <ele>503.4</ele>
        <time>2022-06-25T14:23:47Z</time>
      </trkpt>
      <trkpt lat="46.17946" lon="4.64077">
        <ele>503</ele>
        <time>2022-06-25T14:23:48Z</time>
      </trkpt>
      <trkpt lat="46.17945" lon="4.64071">
        <ele>502.8</ele>
        <time>2022-06-25T14:23:49Z</time>
      </trkpt>
      <trkpt lat="46.17943" lon="4.64065">
        <ele>502.4</ele>
        <time>2022-06-25T14:23:50Z</time>
      </trkpt>
      <trkpt lat="46.17942" lon="4.64061">
        <ele>502.2</ele>
        <time>2022-06-25T14:23:51Z</time>
      </trkpt>
      <trkpt lat="46.17941" lon="4.64058">
        <ele>502</ele>
        <time>2022-06-25T14:23:52Z</time>
      </trkpt>
      <trkpt lat="46.1794" lon="4.64056">
        <ele>501.6</ele>
        <time>2022-06-25T14:23:53Z</time>
      </trkpt>
      <trkpt lat="46.1794" lon="4.64054">
        <ele>501.6</ele>
        <time>2022-06-25T14:23:54Z</time>
      </trkpt>
      <trkpt lat="46.17939" lon="4.64054">
        <ele>501.2</ele>
        <time>2022-06-25T14:23:55Z</time>
      </trkpt>
      <trkpt lat="46.1794" lon="4.6405">
        <ele>501.2</ele>
        <time>2022-06-25T14:24:35Z</time>
      </trkpt>
      <trkpt lat="46.17941" lon="4.64047">
        <ele>501.2</ele>
        <time>2022-06-25T14:24:36Z</time>
      </trkpt>
      <trkpt lat="46.17941" lon="4.64043">
        <ele>501.2</ele>
        <time>2022-06-25T14:24:37Z</time>
      </trkpt>
      <trkpt lat="46.17941" lon="4.64039">
        <ele>501.2</ele>
        <time>2022-06-25T14:24:38Z</time>
      </trkpt>
      <trkpt lat="46.17941" lon="4.64034">
        <ele>501.2</ele>
        <time>2022-06-25T14:24:39Z</time>
      </trkpt>
      <trkpt lat="46.1794" lon="4.64028">
        <ele>501.2</ele>
        <time>2022-06-25T14:24:40Z</time>
      </trkpt>
      <trkpt lat="46.1794" lon="4.64022">
        <ele>501</ele>
        <time>2022-06-25T14:24:41Z</time>
      </trkpt>
      <trkpt lat="46.17939" lon="4.64015">
        <ele>501</ele>
        <time>2022-06-25T14:24:42Z</time>
      </trkpt>
      <trkpt lat="46.17939" lon="4.64008">
        <ele>500.8</ele>
        <time>2022-06-25T14:24:43Z</time>
      </trkpt>
      <trkpt lat="46.17939" lon="4.64">
        <ele>500.8</ele>
        <time>2022-06-25T14:24:44Z</time>
      </trkpt>
      <trkpt lat="46.17939" lon="4.63992">
        <ele>500.4</ele>
        <time>2022-06-25T14:24:45Z</time>
      </trkpt>
      <trkpt lat="46.17939" lon="4.63983">
        <ele>500.2</ele>
        <time>2022-06-25T14:24:46Z</time>
      </trkpt>
      <trkpt lat="46.17938" lon="4.63974">
        <ele>500.2</ele>
        <time>2022-06-25T14:24:47Z</time>
      </trkpt>
      <trkpt lat="46.17938" lon="4.63965">
        <ele>499.8</ele>
        <time>2022-06-25T14:24:48Z</time>
      </trkpt>
      <trkpt lat="46.17936" lon="4.63955">
        <ele>499.6</ele>
        <time>2022-06-25T14:24:49Z</time>
      </trkpt>
      <trkpt lat="46.17934" lon="4.63946">
        <ele>499.6</ele>
        <time>2022-06-25T14:24:50Z</time>
      </trkpt>
      <trkpt lat="46.1793" lon="4.63937">
        <ele>499.2</ele>
        <time>2022-06-25T14:24:51Z</time>
      </trkpt>
      <trkpt lat="46.17925" lon="4.63929">
        <ele>499</ele>
        <time>2022-06-25T14:24:52Z</time>
      </trkpt>
      <trkpt lat="46.17919" lon="4.63922">
        <ele>499</ele>
        <time>2022-06-25T14:24:53Z</time>
      </trkpt>
      <trkpt lat="46.17913" lon="4.63917">
        <ele>498.8</ele>
        <time>2022-06-25T14:24:54Z</time>
      </trkpt>
      <trkpt lat="46.17907" lon="4.63913">
        <ele>498.8</ele>
        <time>2022-06-25T14:24:55Z</time>
      </trkpt>
      <trkpt lat="46.179" lon="4.6391">
        <ele>498.8</ele>
        <time>2022-06-25T14:24:56Z</time>
      </trkpt>
      <trkpt lat="46.17893" lon="4.63908">
        <ele>498.8</ele>
        <time>2022-06-25T14:24:57Z</time>
      </trkpt>
      <trkpt lat="46.17887" lon="4.63906">
        <ele>498.8</ele>
        <time>2022-06-25T14:24:58Z</time>
      </trkpt>
      <trkpt lat="46.17881" lon="4.63904">
        <ele>498.8</ele>
        <time>2022-06-25T14:24:59Z</time>
      </trkpt>
      <trkpt lat="46.17874" lon="4.63903">
        <ele>498.8</ele>
        <time>2022-06-25T14:25:00Z</time>
      </trkpt>
      <trkpt lat="46.17868" lon="4.63901">
        <ele>498.8</ele>
        <time>2022-06-25T14:25:01Z</time>
      </trkpt>
      <trkpt lat="46.17865" lon="4.63901">
        <ele>498.8</ele>
        <time>2022-06-25T14:25:02Z</time>
      </trkpt>
      <trkpt lat="46.17862" lon="4.639">
        <ele>498.8</ele>
        <time>2022-06-25T14:25:03Z</time>
      </trkpt>
      <trkpt lat="46.17857" lon="4.639">
        <ele>499.2</ele>
        <time>2022-06-25T14:25:04Z</time>
      </trkpt>
      <trkpt lat="46.17851" lon="4.639">
        <ele>499.2</ele>
        <time>2022-06-25T14:25:05Z</time>
      </trkpt>
      <trkpt lat="46.17846" lon="4.63901">
        <ele>499.2</ele>
        <time>2022-06-25T14:25:06Z</time>
      </trkpt>
      <trkpt lat="46.1784" lon="4.63902">
        <ele>499.4</ele>
        <time>2022-06-25T14:25:07Z</time>
      </trkpt>
      <trkpt lat="46.17835" lon="4.63902">
        <ele>499.4</ele>
        <time>2022-06-25T14:25:08Z</time>
      </trkpt>
      <trkpt lat="46.1783" lon="4.63902">
        <ele>499.4</ele>
        <time>2022-06-25T14:25:09Z</time>
      </trkpt>
      <trkpt lat="46.17825" lon="4.63902">
        <ele>499.6</ele>
        <time>2022-06-25T14:25:10Z</time>
      </trkpt>
      <trkpt lat="46.1782" lon="4.63901">
        <ele>499.6</ele>
        <time>2022-06-25T14:25:11Z</time>
      </trkpt>
      <trkpt lat="46.17814" lon="4.63899">
        <ele>499.6</ele>
        <time>2022-06-25T14:25:12Z</time>
      </trkpt>
      <trkpt lat="46.17809" lon="4.63898">
        <ele>499.6</ele>
        <time>2022-06-25T14:25:13Z</time>
      </trkpt>
      <trkpt lat="46.17803" lon="4.63895">
        <ele>499.6</ele>
        <time>2022-06-25T14:25:14Z</time>
      </trkpt>
      <trkpt lat="46.17797" lon="4.63893">
        <ele>499.4</ele>
        <time>2022-06-25T14:25:15Z</time>
      </trkpt>
      <trkpt lat="46.17791" lon="4.6389">
        <ele>499.4</ele>
        <time>2022-06-25T14:25:16Z</time>
      </trkpt>
      <trkpt lat="46.17785" lon="4.63886">
        <ele>499</ele>
        <time>2022-06-25T14:25:17Z</time>
      </trkpt>
      <trkpt lat="46.1778" lon="4.6388">
        <ele>498.8</ele>
        <time>2022-06-25T14:25:18Z</time>
      </trkpt>
      <trkpt lat="46.17774" lon="4.63873">
        <ele>498.4</ele>
        <time>2022-06-25T14:25:19Z</time>
      </trkpt>
      <trkpt lat="46.1777" lon="4.63865">
        <ele>498.2</ele>
        <time>2022-06-25T14:25:20Z</time>
      </trkpt>
      <trkpt lat="46.17766" lon="4.63856">
        <ele>498</ele>
        <time>2022-06-25T14:25:21Z</time>
      </trkpt>
      <trkpt lat="46.17763" lon="4.63846">
        <ele>497.6</ele>
        <time>2022-06-25T14:25:22Z</time>
      </trkpt>
      <trkpt lat="46.17761" lon="4.63835">
        <ele>497.2</ele>
        <time>2022-06-25T14:25:23Z</time>
      </trkpt>
      <trkpt lat="46.17759" lon="4.63823">
        <ele>497</ele>
        <time>2022-06-25T14:25:24Z</time>
      </trkpt>
      <trkpt lat="46.17757" lon="4.63811">
        <ele>496.6</ele>
        <time>2022-06-25T14:25:25Z</time>
      </trkpt>
      <trkpt lat="46.17755" lon="4.63799">
        <ele>496.2</ele>
        <time>2022-06-25T14:25:26Z</time>
      </trkpt>
      <trkpt lat="46.17754" lon="4.63786">
        <ele>495.8</ele>
        <time>2022-06-25T14:25:27Z</time>
      </trkpt>
      <trkpt lat="46.17753" lon="4.63773">
        <ele>495.2</ele>
        <time>2022-06-25T14:25:28Z</time>
      </trkpt>
      <trkpt lat="46.17753" lon="4.63758">
        <ele>494.8</ele>
        <time>2022-06-25T14:25:29Z</time>
      </trkpt>
      <trkpt lat="46.17754" lon="4.63743">
        <ele>494.4</ele>
        <time>2022-06-25T14:25:30Z</time>
      </trkpt>
      <trkpt lat="46.17756" lon="4.63729">
        <ele>494</ele>
        <time>2022-06-25T14:25:31Z</time>
      </trkpt>
      <trkpt lat="46.17758" lon="4.63715">
        <ele>493.4</ele>
        <time>2022-06-25T14:25:32Z</time>
      </trkpt>
      <trkpt lat="46.1776" lon="4.63702">
        <ele>493</ele>
        <time>2022-06-25T14:25:33Z</time>
      </trkpt>
      <trkpt lat="46.17763" lon="4.63688">
        <ele>492.6</ele>
        <time>2022-06-25T14:25:34Z</time>
      </trkpt>
      <trkpt lat="46.17765" lon="4.63676">
        <ele>492.2</ele>
        <time>2022-06-25T14:25:35Z</time>
      </trkpt>
      <trkpt lat="46.17767" lon="4.63662">
        <ele>491.8</ele>
        <time>2022-06-25T14:25:36Z</time>
      </trkpt>
      <trkpt lat="46.17768" lon="4.6365">
        <ele>491.4</ele>
        <time>2022-06-25T14:25:37Z</time>
      </trkpt>
      <trkpt lat="46.17768" lon="4.63639">
        <ele>491</ele>
        <time>2022-06-25T14:25:38Z</time>
      </trkpt>
      <trkpt lat="46.17767" lon="4.63627">
        <ele>490.6</ele>
        <time>2022-06-25T14:25:39Z</time>
      </trkpt>
      <trkpt lat="46.17763" lon="4.63618">
        <ele>490.4</ele>
        <time>2022-06-25T14:25:40Z</time>
      </trkpt>
      <trkpt lat="46.17758" lon="4.63612">
        <ele>490</ele>
        <time>2022-06-25T14:25:41Z</time>
      </trkpt>
      <trkpt lat="46.17751" lon="4.63609">
        <ele>489.8</ele>
        <time>2022-06-25T14:25:42Z</time>
      </trkpt>
      <trkpt lat="46.17745" lon="4.6361">
        <ele>489.8</ele>
        <time>2022-06-25T14:25:43Z</time>
      </trkpt>
      <trkpt lat="46.1774" lon="4.63614">
        <ele>489.8</ele>
        <time>2022-06-25T14:25:44Z</time>
      </trkpt>
      <trkpt lat="46.17735" lon="4.63618">
        <ele>489.8</ele>
        <time>2022-06-25T14:25:45Z</time>
      </trkpt>
      <trkpt lat="46.17731" lon="4.63623">
        <ele>489.8</ele>
        <time>2022-06-25T14:25:46Z</time>
      </trkpt>
      <trkpt lat="46.17727" lon="4.63628">
        <ele>489.8</ele>
        <time>2022-06-25T14:25:47Z</time>
      </trkpt>
      <trkpt lat="46.17723" lon="4.63634">
        <ele>490</ele>
        <time>2022-06-25T14:25:48Z</time>
      </trkpt>
      <trkpt lat="46.1772" lon="4.63639">
        <ele>490.2</ele>
        <time>2022-06-25T14:25:49Z</time>
      </trkpt>
      <trkpt lat="46.17717" lon="4.63644">
        <ele>490.4</ele>
        <time>2022-06-25T14:25:50Z</time>
      </trkpt>
      <trkpt lat="46.17714" lon="4.63648">
        <ele>490.6</ele>
        <time>2022-06-25T14:25:51Z</time>
      </trkpt>
      <trkpt lat="46.1771" lon="4.63652">
        <ele>491</ele>
        <time>2022-06-25T14:25:52Z</time>
      </trkpt>
      <trkpt lat="46.17707" lon="4.63656">
        <ele>491.2</ele>
        <time>2022-06-25T14:25:53Z</time>
      </trkpt>
      <trkpt lat="46.17703" lon="4.63659">
        <ele>491.4</ele>
        <time>2022-06-25T14:25:54Z</time>
      </trkpt>
      <trkpt lat="46.17699" lon="4.63662">
        <ele>491.4</ele>
        <time>2022-06-25T14:25:55Z</time>
      </trkpt>
      <trkpt lat="46.17695" lon="4.63665">
        <ele>491.8</ele>
        <time>2022-06-25T14:25:56Z</time>
      </trkpt>
      <trkpt lat="46.17691" lon="4.63667">
        <ele>492.2</ele>
        <time>2022-06-25T14:25:57Z</time>
      </trkpt>
      <trkpt lat="46.17686" lon="4.63669">
        <ele>492.4</ele>
        <time>2022-06-25T14:25:58Z</time>
      </trkpt>
      <trkpt lat="46.17682" lon="4.6367">
        <ele>492.6</ele>
        <time>2022-06-25T14:25:59Z</time>
      </trkpt>
      <trkpt lat="46.17677" lon="4.6367">
        <ele>492.8</ele>
        <time>2022-06-25T14:26:00Z</time>
      </trkpt>
      <trkpt lat="46.17673" lon="4.6367">
        <ele>493</ele>
        <time>2022-06-25T14:26:01Z</time>
      </trkpt>
      <trkpt lat="46.17668" lon="4.63669">
        <ele>493.4</ele>
        <time>2022-06-25T14:26:02Z</time>
      </trkpt>
      <trkpt lat="46.17664" lon="4.63668">
        <ele>493.6</ele>
        <time>2022-06-25T14:26:03Z</time>
      </trkpt>
      <trkpt lat="46.1766" lon="4.63667">
        <ele>493.6</ele>
        <time>2022-06-25T14:26:04Z</time>
      </trkpt>
      <trkpt lat="46.17656" lon="4.63667">
        <ele>494.2</ele>
        <time>2022-06-25T14:26:05Z</time>
      </trkpt>
      <trkpt lat="46.17652" lon="4.63667">
        <ele>494.4</ele>
        <time>2022-06-25T14:26:06Z</time>
      </trkpt>
      <trkpt lat="46.17648" lon="4.63666">
        <ele>494.4</ele>
        <time>2022-06-25T14:26:07Z</time>
      </trkpt>
      <trkpt lat="46.17644" lon="4.63665">
        <ele>494.8</ele>
        <time>2022-06-25T14:26:08Z</time>
      </trkpt>
      <trkpt lat="46.1764" lon="4.63665">
        <ele>494.8</ele>
        <time>2022-06-25T14:26:09Z</time>
      </trkpt>
      <trkpt lat="46.17637" lon="4.63664">
        <ele>495.2</ele>
        <time>2022-06-25T14:26:10Z</time>
      </trkpt>
      <trkpt lat="46.17634" lon="4.63664">
        <ele>495.2</ele>
        <time>2022-06-25T14:26:11Z</time>
      </trkpt>
      <trkpt lat="46.1763" lon="4.63664">
        <ele>495.4</ele>
        <time>2022-06-25T14:26:12Z</time>
      </trkpt>
      <trkpt lat="46.17627" lon="4.63664">
        <ele>495.8</ele>
        <time>2022-06-25T14:26:13Z</time>
      </trkpt>
      <trkpt lat="46.17623" lon="4.63664">
        <ele>496</ele>
        <time>2022-06-25T14:26:14Z</time>
      </trkpt>
      <trkpt lat="46.1762" lon="4.63664">
        <ele>496.2</ele>
        <time>2022-06-25T14:26:15Z</time>
      </trkpt>
      <trkpt lat="46.17617" lon="4.63664">
        <ele>496.2</ele>
        <time>2022-06-25T14:26:16Z</time>
      </trkpt>
      <trkpt lat="46.17614" lon="4.63664">
        <ele>496.6</ele>
        <time>2022-06-25T14:26:17Z</time>
      </trkpt>
      <trkpt lat="46.17611" lon="4.63664">
        <ele>496.8</ele>
        <time>2022-06-25T14:26:18Z</time>
      </trkpt>
      <trkpt lat="46.17607" lon="4.63664">
        <ele>497</ele>
        <time>2022-06-25T14:26:19Z</time>
      </trkpt>
      <trkpt lat="46.17604" lon="4.63663">
        <ele>497</ele>
        <time>2022-06-25T14:26:20Z</time>
      </trkpt>
      <trkpt lat="46.17601" lon="4.63663">
        <ele>497.2</ele>
        <time>2022-06-25T14:26:21Z</time>
      </trkpt>
      <trkpt lat="46.17598" lon="4.63663">
        <ele>497.4</ele>
        <time>2022-06-25T14:26:22Z</time>
      </trkpt>
      <trkpt lat="46.17595" lon="4.63663">
        <ele>497.8</ele>
        <time>2022-06-25T14:26:23Z</time>
      </trkpt>
      <trkpt lat="46.17592" lon="4.63663">
        <ele>497.8</ele>
        <time>2022-06-25T14:26:24Z</time>
      </trkpt>
      <trkpt lat="46.17589" lon="4.63663">
        <ele>498</ele>
        <time>2022-06-25T14:26:25Z</time>
      </trkpt>
      <trkpt lat="46.17586" lon="4.63663">
        <ele>498</ele>
        <time>2022-06-25T14:26:26Z</time>
      </trkpt>
      <trkpt lat="46.17583" lon="4.63663">
        <ele>498.4</ele>
        <time>2022-06-25T14:26:27Z</time>
      </trkpt>
      <trkpt lat="46.1758" lon="4.63662">
        <ele>498.4</ele>
        <time>2022-06-25T14:26:28Z</time>
      </trkpt>
      <trkpt lat="46.17577" lon="4.63661">
        <ele>498.6</ele>
        <time>2022-06-25T14:26:29Z</time>
      </trkpt>
      <trkpt lat="46.17574" lon="4.63661">
        <ele>498.6</ele>
        <time>2022-06-25T14:26:30Z</time>
      </trkpt>
      <trkpt lat="46.17571" lon="4.63661">
        <ele>499</ele>
        <time>2022-06-25T14:26:31Z</time>
      </trkpt>
      <trkpt lat="46.17569" lon="4.6366">
        <ele>499</ele>
        <time>2022-06-25T14:26:32Z</time>
      </trkpt>
      <trkpt lat="46.17566" lon="4.63661">
        <ele>499.2</ele>
        <time>2022-06-25T14:26:33Z</time>
      </trkpt>
      <trkpt lat="46.17563" lon="4.63661">
        <ele>499.2</ele>
        <time>2022-06-25T14:26:34Z</time>
      </trkpt>
      <trkpt lat="46.1756" lon="4.63661">
        <ele>499.6</ele>
        <time>2022-06-25T14:26:35Z</time>
      </trkpt>
      <trkpt lat="46.17557" lon="4.6366">
        <ele>499.6</ele>
        <time>2022-06-25T14:26:36Z</time>
      </trkpt>
      <trkpt lat="46.17555" lon="4.63659">
        <ele>499.8</ele>
        <time>2022-06-25T14:26:37Z</time>
      </trkpt>
      <trkpt lat="46.17552" lon="4.63658">
        <ele>499.8</ele>
        <time>2022-06-25T14:26:38Z</time>
      </trkpt>
      <trkpt lat="46.17549" lon="4.63657">
        <ele>500.2</ele>
        <time>2022-06-25T14:26:39Z</time>
      </trkpt>
      <trkpt lat="46.17546" lon="4.63657">
        <ele>500.2</ele>
        <time>2022-06-25T14:26:40Z</time>
      </trkpt>
      <trkpt lat="46.17543" lon="4.63655">
        <ele>500.4</ele>
        <time>2022-06-25T14:26:41Z</time>
      </trkpt>
      <trkpt lat="46.17541" lon="4.63654">
        <ele>500.4</ele>
        <time>2022-06-25T14:26:42Z</time>
      </trkpt>
      <trkpt lat="46.17538" lon="4.63652">
        <ele>500.6</ele>
        <time>2022-06-25T14:26:43Z</time>
      </trkpt>
      <trkpt lat="46.17535" lon="4.63649">
        <ele>500.6</ele>
        <time>2022-06-25T14:26:44Z</time>
      </trkpt>
      <trkpt lat="46.17533" lon="4.63647">
        <ele>501</ele>
        <time>2022-06-25T14:26:45Z</time>
      </trkpt>
      <trkpt lat="46.1753" lon="4.63646">
        <ele>501.2</ele>
        <time>2022-06-25T14:26:46Z</time>
      </trkpt>
      <trkpt lat="46.17527" lon="4.63644">
        <ele>501.2</ele>
        <time>2022-06-25T14:26:47Z</time>
      </trkpt>
      <trkpt lat="46.17524" lon="4.63642">
        <ele>501.4</ele>
        <time>2022-06-25T14:26:48Z</time>
      </trkpt>
      <trkpt lat="46.17521" lon="4.6364">
        <ele>501.4</ele>
        <time>2022-06-25T14:26:49Z</time>
      </trkpt>
      <trkpt lat="46.17518" lon="4.63639">
        <ele>501.6</ele>
        <time>2022-06-25T14:26:50Z</time>
      </trkpt>
      <trkpt lat="46.17515" lon="4.63637">
        <ele>501.6</ele>
        <time>2022-06-25T14:26:51Z</time>
      </trkpt>
      <trkpt lat="46.17512" lon="4.63635">
        <ele>502</ele>
        <time>2022-06-25T14:26:52Z</time>
      </trkpt>
      <trkpt lat="46.17509" lon="4.63633">
        <ele>502</ele>
        <time>2022-06-25T14:26:53Z</time>
      </trkpt>
      <trkpt lat="46.17506" lon="4.63632">
        <ele>502.2</ele>
        <time>2022-06-25T14:26:54Z</time>
      </trkpt>
      <trkpt lat="46.17503" lon="4.63631">
        <ele>502.2</ele>
        <time>2022-06-25T14:26:55Z</time>
      </trkpt>
      <trkpt lat="46.175" lon="4.6363">
        <ele>502.4</ele>
        <time>2022-06-25T14:26:56Z</time>
      </trkpt>
      <trkpt lat="46.17497" lon="4.63629">
        <ele>502.4</ele>
        <time>2022-06-25T14:26:57Z</time>
      </trkpt>
      <trkpt lat="46.17494" lon="4.63627">
        <ele>502.6</ele>
        <time>2022-06-25T14:26:58Z</time>
      </trkpt>
      <trkpt lat="46.1749" lon="4.63625">
        <ele>502.6</ele>
        <time>2022-06-25T14:26:59Z</time>
      </trkpt>
      <trkpt lat="46.17487" lon="4.63623">
        <ele>502.6</ele>
        <time>2022-06-25T14:27:00Z</time>
      </trkpt>
      <trkpt lat="46.17483" lon="4.63621">
        <ele>503</ele>
        <time>2022-06-25T14:27:01Z</time>
      </trkpt>
      <trkpt lat="46.17479" lon="4.63619">
        <ele>503</ele>
        <time>2022-06-25T14:27:02Z</time>
      </trkpt>
      <trkpt lat="46.17476" lon="4.63617">
        <ele>503</ele>
        <time>2022-06-25T14:27:03Z</time>
      </trkpt>
      <trkpt lat="46.17471" lon="4.63615">
        <ele>503</ele>
        <time>2022-06-25T14:27:04Z</time>
      </trkpt>
      <trkpt lat="46.17467" lon="4.63613">
        <ele>503</ele>
        <time>2022-06-25T14:27:05Z</time>
      </trkpt>
      <trkpt lat="46.17463" lon="4.6361">
        <ele>502.8</ele>
        <time>2022-06-25T14:27:06Z</time>
      </trkpt>
      <trkpt lat="46.17459" lon="4.63607">
        <ele>502.8</ele>
        <time>2022-06-25T14:27:07Z</time>
      </trkpt>
      <trkpt lat="46.17456" lon="4.63603">
        <ele>502.8</ele>
        <time>2022-06-25T14:27:08Z</time>
      </trkpt>
      <trkpt lat="46.17452" lon="4.63598">
        <ele>502.6</ele>
        <time>2022-06-25T14:27:09Z</time>
      </trkpt>
      <trkpt lat="46.17449" lon="4.63593">
        <ele>502.2</ele>
        <time>2022-06-25T14:27:10Z</time>
      </trkpt>
      <trkpt lat="46.17446" lon="4.63586">
        <ele>502.2</ele>
        <time>2022-06-25T14:27:11Z</time>
      </trkpt>
      <trkpt lat="46.17444" lon="4.63578">
        <ele>502</ele>
        <time>2022-06-25T14:27:12Z</time>
      </trkpt>
      <trkpt lat="46.17443" lon="4.6357">
        <ele>501.8</ele>
        <time>2022-06-25T14:27:13Z</time>
      </trkpt>
      <trkpt lat="46.17443" lon="4.63561">
        <ele>501.4</ele>
        <time>2022-06-25T14:27:14Z</time>
      </trkpt>
      <trkpt lat="46.17444" lon="4.63552">
        <ele>501.4</ele>
        <time>2022-06-25T14:27:15Z</time>
      </trkpt>
      <trkpt lat="46.17446" lon="4.63543">
        <ele>501.2</ele>
        <time>2022-06-25T14:27:16Z</time>
      </trkpt>
      <trkpt lat="46.17449" lon="4.63534">
        <ele>500.8</ele>
        <time>2022-06-25T14:27:17Z</time>
      </trkpt>
      <trkpt lat="46.17453" lon="4.63524">
        <ele>500.6</ele>
        <time>2022-06-25T14:27:18Z</time>
      </trkpt>
      <trkpt lat="46.17456" lon="4.63515">
        <ele>500.4</ele>
        <time>2022-06-25T14:27:19Z</time>
      </trkpt>
      <trkpt lat="46.1746" lon="4.63505">
        <ele>500</ele>
        <time>2022-06-25T14:27:20Z</time>
      </trkpt>
      <trkpt lat="46.17464" lon="4.63494">
        <ele>499.6</ele>
        <time>2022-06-25T14:27:21Z</time>
      </trkpt>
      <trkpt lat="46.17468" lon="4.63483">
        <ele>499.2</ele>
        <time>2022-06-25T14:27:22Z</time>
      </trkpt>
      <trkpt lat="46.17472" lon="4.63472">
        <ele>498.8</ele>
        <time>2022-06-25T14:27:23Z</time>
      </trkpt>
      <trkpt lat="46.17476" lon="4.63461">
        <ele>498.2</ele>
        <time>2022-06-25T14:27:24Z</time>
      </trkpt>
      <trkpt lat="46.1748" lon="4.6345">
        <ele>497.8</ele>
        <time>2022-06-25T14:27:25Z</time>
      </trkpt>
      <trkpt lat="46.17484" lon="4.63439">
        <ele>497.4</ele>
        <time>2022-06-25T14:27:26Z</time>
      </trkpt>
      <trkpt lat="46.17487" lon="4.63428">
        <ele>497</ele>
        <time>2022-06-25T14:27:27Z</time>
      </trkpt>
      <trkpt lat="46.17488" lon="4.63417">
        <ele>496.6</ele>
        <time>2022-06-25T14:27:28Z</time>
      </trkpt>
      <trkpt lat="46.17488" lon="4.63406">
        <ele>496.2</ele>
        <time>2022-06-25T14:27:29Z</time>
      </trkpt>
      <trkpt lat="46.17485" lon="4.63397">
        <ele>495.8</ele>
        <time>2022-06-25T14:27:30Z</time>
      </trkpt>
      <trkpt lat="46.1748" lon="4.63389">
        <ele>495.6</ele>
        <time>2022-06-25T14:27:31Z</time>
      </trkpt>
      <trkpt lat="46.17474" lon="4.63385">
        <ele>495.4</ele>
        <time>2022-06-25T14:27:32Z</time>
      </trkpt>
      <trkpt lat="46.17467" lon="4.63385">
        <ele>495.4</ele>
        <time>2022-06-25T14:27:33Z</time>
      </trkpt>
      <trkpt lat="46.1746" lon="4.63387">
        <ele>495.2</ele>
        <time>2022-06-25T14:27:34Z</time>
      </trkpt>
      <trkpt lat="46.17454" lon="4.6339">
        <ele>495.2</ele>
        <time>2022-06-25T14:27:35Z</time>
      </trkpt>
      <trkpt lat="46.17449" lon="4.63395">
        <ele>495.2</ele>
        <time>2022-06-25T14:27:36Z</time>
      </trkpt>
      <trkpt lat="46.17444" lon="4.634">
        <ele>495.2</ele>
        <time>2022-06-25T14:27:37Z</time>
      </trkpt>
      <trkpt lat="46.17439" lon="4.63404">
        <ele>495.2</ele>
        <time>2022-06-25T14:27:38Z</time>
      </trkpt>
      <trkpt lat="46.17434" lon="4.63409">
        <ele>495.4</ele>
        <time>2022-06-25T14:27:39Z</time>
      </trkpt>
      <trkpt lat="46.17429" lon="4.63414">
        <ele>495.4</ele>
        <time>2022-06-25T14:27:40Z</time>
      </trkpt>
      <trkpt lat="46.17425" lon="4.63418">
        <ele>495.6</ele>
        <time>2022-06-25T14:27:41Z</time>
      </trkpt>
      <trkpt lat="46.1742" lon="4.63423">
        <ele>495.6</ele>
        <time>2022-06-25T14:27:42Z</time>
      </trkpt>
      <trkpt lat="46.17415" lon="4.63428">
        <ele>495.6</ele>
        <time>2022-06-25T14:27:43Z</time>
      </trkpt>
      <trkpt lat="46.17411" lon="4.63432">
        <ele>495.6</ele>
        <time>2022-06-25T14:27:44Z</time>
      </trkpt>
      <trkpt lat="46.17406" lon="4.63437">
        <ele>495.6</ele>
        <time>2022-06-25T14:27:45Z</time>
      </trkpt>
      <trkpt lat="46.17401" lon="4.63442">
        <ele>495.6</ele>
        <time>2022-06-25T14:27:46Z</time>
      </trkpt>
      <trkpt lat="46.17397" lon="4.63446">
        <ele>495.6</ele>
        <time>2022-06-25T14:27:47Z</time>
      </trkpt>
      <trkpt lat="46.17392" lon="4.63451">
        <ele>495.6</ele>
        <time>2022-06-25T14:27:48Z</time>
      </trkpt>
      <trkpt lat="46.17387" lon="4.63456">
        <ele>495.6</ele>
        <time>2022-06-25T14:27:49Z</time>
      </trkpt>
      <trkpt lat="46.17382" lon="4.63461">
        <ele>495.6</ele>
        <time>2022-06-25T14:27:50Z</time>
      </trkpt>
      <trkpt lat="46.17377" lon="4.63464">
        <ele>495.8</ele>
        <time>2022-06-25T14:27:51Z</time>
      </trkpt>
      <trkpt lat="46.17372" lon="4.63468">
        <ele>495.8</ele>
        <time>2022-06-25T14:27:52Z</time>
      </trkpt>
      <trkpt lat="46.17367" lon="4.6347">
        <ele>495.8</ele>
        <time>2022-06-25T14:27:53Z</time>
      </trkpt>
      <trkpt lat="46.17361" lon="4.63472">
        <ele>495.8</ele>
        <time>2022-06-25T14:27:54Z</time>
      </trkpt>
      <trkpt lat="46.17355" lon="4.63473">
        <ele>495.8</ele>
        <time>2022-06-25T14:27:55Z</time>
      </trkpt>
      <trkpt lat="46.17348" lon="4.63473">
        <ele>495.6</ele>
        <time>2022-06-25T14:27:56Z</time>
      </trkpt>
      <trkpt lat="46.17342" lon="4.63472">
        <ele>495.6</ele>
        <time>2022-06-25T14:27:57Z</time>
      </trkpt>
      <trkpt lat="46.17337" lon="4.6347">
        <ele>495.6</ele>
        <time>2022-06-25T14:27:58Z</time>
      </trkpt>
      <trkpt lat="46.17331" lon="4.63467">
        <ele>495.6</ele>
        <time>2022-06-25T14:27:59Z</time>
      </trkpt>
      <trkpt lat="46.17326" lon="4.63463">
        <ele>495.6</ele>
        <time>2022-06-25T14:28:00Z</time>
      </trkpt>
      <trkpt lat="46.1732" lon="4.63459">
        <ele>495.4</ele>
        <time>2022-06-25T14:28:01Z</time>
      </trkpt>
      <trkpt lat="46.17314" lon="4.63455">
        <ele>495.4</ele>
        <time>2022-06-25T14:28:02Z</time>
      </trkpt>
      <trkpt lat="46.17309" lon="4.63451">
        <ele>495.4</ele>
        <time>2022-06-25T14:28:03Z</time>
      </trkpt>
      <trkpt lat="46.17303" lon="4.63447">
        <ele>495.4</ele>
        <time>2022-06-25T14:28:04Z</time>
      </trkpt>
      <trkpt lat="46.17298" lon="4.63443">
        <ele>495.4</ele>
        <time>2022-06-25T14:28:05Z</time>
      </trkpt>
      <trkpt lat="46.17292" lon="4.63439">
        <ele>495.6</ele>
        <time>2022-06-25T14:28:06Z</time>
      </trkpt>
      <trkpt lat="46.17287" lon="4.63435">
        <ele>495.6</ele>
        <time>2022-06-25T14:28:07Z</time>
      </trkpt>
      <trkpt lat="46.17282" lon="4.6343">
        <ele>495.6</ele>
        <time>2022-06-25T14:28:08Z</time>
      </trkpt>
      <trkpt lat="46.17277" lon="4.63427">
        <ele>495.6</ele>
        <time>2022-06-25T14:28:09Z</time>
      </trkpt>
      <trkpt lat="46.17272" lon="4.63423">
        <ele>495.6</ele>
        <time>2022-06-25T14:28:10Z</time>
      </trkpt>
      <trkpt lat="46.17267" lon="4.6342">
        <ele>495.6</ele>
        <time>2022-06-25T14:28:11Z</time>
      </trkpt>
      <trkpt lat="46.17261" lon="4.63417">
        <ele>495.6</ele>
        <time>2022-06-25T14:28:12Z</time>
      </trkpt>
      <trkpt lat="46.17256" lon="4.63413">
        <ele>495.6</ele>
        <time>2022-06-25T14:28:13Z</time>
      </trkpt>
      <trkpt lat="46.1725" lon="4.6341">
        <ele>495.6</ele>
        <time>2022-06-25T14:28:14Z</time>
      </trkpt>
      <trkpt lat="46.17244" lon="4.63408">
        <ele>495.6</ele>
        <time>2022-06-25T14:28:15Z</time>
      </trkpt>
      <trkpt lat="46.17239" lon="4.63405">
        <ele>495.6</ele>
        <time>2022-06-25T14:28:16Z</time>
      </trkpt>
      <trkpt lat="46.17233" lon="4.63402">
        <ele>495.6</ele>
        <time>2022-06-25T14:28:17Z</time>
      </trkpt>
      <trkpt lat="46.17227" lon="4.63399">
        <ele>495.6</ele>
        <time>2022-06-25T14:28:18Z</time>
      </trkpt>
      <trkpt lat="46.17222" lon="4.63397">
        <ele>495.6</ele>
        <time>2022-06-25T14:28:19Z</time>
      </trkpt>
      <trkpt lat="46.17216" lon="4.63394">
        <ele>495.6</ele>
        <time>2022-06-25T14:28:20Z</time>
      </trkpt>
      <trkpt lat="46.17211" lon="4.63392">
        <ele>495.6</ele>
        <time>2022-06-25T14:28:21Z</time>
      </trkpt>
      <trkpt lat="46.17205" lon="4.63389">
        <ele>495.6</ele>
        <time>2022-06-25T14:28:22Z</time>
      </trkpt>
      <trkpt lat="46.172" lon="4.63386">
        <ele>495.6</ele>
        <time>2022-06-25T14:28:23Z</time>
      </trkpt>
      <trkpt lat="46.17194" lon="4.63382">
        <ele>495.4</ele>
        <time>2022-06-25T14:28:24Z</time>
      </trkpt>
      <trkpt lat="46.17188" lon="4.63379">
        <ele>495.4</ele>
        <time>2022-06-25T14:28:25Z</time>
      </trkpt>
      <trkpt lat="46.17182" lon="4.63376">
        <ele>495.2</ele>
        <time>2022-06-25T14:28:26Z</time>
      </trkpt>
      <trkpt lat="46.17175" lon="4.63373">
        <ele>495.2</ele>
        <time>2022-06-25T14:28:27Z</time>
      </trkpt>
      <trkpt lat="46.17169" lon="4.63369">
        <ele>495.2</ele>
        <time>2022-06-25T14:28:28Z</time>
      </trkpt>
      <trkpt lat="46.17163" lon="4.63365">
        <ele>494.8</ele>
        <time>2022-06-25T14:28:29Z</time>
      </trkpt>
      <trkpt lat="46.17157" lon="4.6336">
        <ele>494.6</ele>
        <time>2022-06-25T14:28:30Z</time>
      </trkpt>
      <trkpt lat="46.17151" lon="4.63355">
        <ele>494.4</ele>
        <time>2022-06-25T14:28:31Z</time>
      </trkpt>
      <trkpt lat="46.17145" lon="4.63349">
        <ele>494.4</ele>
        <time>2022-06-25T14:28:32Z</time>
      </trkpt>
      <trkpt lat="46.1714" lon="4.63342">
        <ele>494</ele>
        <time>2022-06-25T14:28:33Z</time>
      </trkpt>
      <trkpt lat="46.17135" lon="4.63334">
        <ele>493.6</ele>
        <time>2022-06-25T14:28:34Z</time>
      </trkpt>
      <trkpt lat="46.17131" lon="4.63325">
        <ele>493.4</ele>
        <time>2022-06-25T14:28:35Z</time>
      </trkpt>
      <trkpt lat="46.17127" lon="4.63315">
        <ele>493.4</ele>
        <time>2022-06-25T14:28:36Z</time>
      </trkpt>
      <trkpt lat="46.17123" lon="4.63306">
        <ele>493</ele>
        <time>2022-06-25T14:28:37Z</time>
      </trkpt>
      <trkpt lat="46.17119" lon="4.63297">
        <ele>492.8</ele>
        <time>2022-06-25T14:28:38Z</time>
      </trkpt>
      <trkpt lat="46.17115" lon="4.63287">
        <ele>492.6</ele>
        <time>2022-06-25T14:28:39Z</time>
      </trkpt>
      <trkpt lat="46.17111" lon="4.63278">
        <ele>492.2</ele>
        <time>2022-06-25T14:28:40Z</time>
      </trkpt>
      <trkpt lat="46.17107" lon="4.63267">
        <ele>492</ele>
        <time>2022-06-25T14:28:41Z</time>
      </trkpt>
      <trkpt lat="46.17104" lon="4.63257">
        <ele>491.6</ele>
        <time>2022-06-25T14:28:42Z</time>
      </trkpt>
      <trkpt lat="46.17101" lon="4.63245">
        <ele>491.2</ele>
        <time>2022-06-25T14:28:43Z</time>
      </trkpt>
      <trkpt lat="46.17099" lon="4.63234">
        <ele>490.8</ele>
        <time>2022-06-25T14:28:44Z</time>
      </trkpt>
      <trkpt lat="46.17095" lon="4.63222">
        <ele>490.4</ele>
        <time>2022-06-25T14:28:45Z</time>
      </trkpt>
      <trkpt lat="46.17091" lon="4.63211">
        <ele>490.2</ele>
        <time>2022-06-25T14:28:46Z</time>
      </trkpt>
      <trkpt lat="46.17086" lon="4.632">
        <ele>489.6</ele>
        <time>2022-06-25T14:28:47Z</time>
      </trkpt>
      <trkpt lat="46.1708" lon="4.63189">
        <ele>489.2</ele>
        <time>2022-06-25T14:28:48Z</time>
      </trkpt>
      <trkpt lat="46.17074" lon="4.63179">
        <ele>488.8</ele>
        <time>2022-06-25T14:28:49Z</time>
      </trkpt>
      <trkpt lat="46.17067" lon="4.63171">
        <ele>488.4</ele>
        <time>2022-06-25T14:28:50Z</time>
      </trkpt>
      <trkpt lat="46.1706" lon="4.63162">
        <ele>487.8</ele>
        <time>2022-06-25T14:28:51Z</time>
      </trkpt>
      <trkpt lat="46.17053" lon="4.63154">
        <ele>487.4</ele>
        <time>2022-06-25T14:28:52Z</time>
      </trkpt>
      <trkpt lat="46.17046" lon="4.63147">
        <ele>487</ele>
        <time>2022-06-25T14:28:53Z</time>
      </trkpt>
      <trkpt lat="46.17038" lon="4.63144">
        <ele>486.4</ele>
        <time>2022-06-25T14:28:54Z</time>
      </trkpt>
      <trkpt lat="46.1703" lon="4.63144">
        <ele>486</ele>
        <time>2022-06-25T14:28:55Z</time>
      </trkpt>
      <trkpt lat="46.17022" lon="4.63147">
        <ele>485.6</ele>
        <time>2022-06-25T14:28:56Z</time>
      </trkpt>
      <trkpt lat="46.17014" lon="4.63152">
        <ele>485.2</ele>
        <time>2022-06-25T14:28:57Z</time>
      </trkpt>
      <trkpt lat="46.17007" lon="4.63159">
        <ele>484.8</ele>
        <time>2022-06-25T14:28:58Z</time>
      </trkpt>
      <trkpt lat="46.17" lon="4.63167">
        <ele>484.6</ele>
        <time>2022-06-25T14:28:59Z</time>
      </trkpt>
      <trkpt lat="46.16993" lon="4.63175">
        <ele>484.6</ele>
        <time>2022-06-25T14:29:00Z</time>
      </trkpt>
      <trkpt lat="46.16986" lon="4.63183">
        <ele>484</ele>
        <time>2022-06-25T14:29:01Z</time>
      </trkpt>
      <trkpt lat="46.16979" lon="4.6319">
        <ele>483.8</ele>
        <time>2022-06-25T14:29:02Z</time>
      </trkpt>
      <trkpt lat="46.16972" lon="4.63198">
        <ele>483.4</ele>
        <time>2022-06-25T14:29:03Z</time>
      </trkpt>
      <trkpt lat="46.16965" lon="4.63206">
        <ele>483.2</ele>
        <time>2022-06-25T14:29:04Z</time>
      </trkpt>
      <trkpt lat="46.16957" lon="4.63215">
        <ele>483.2</ele>
        <time>2022-06-25T14:29:05Z</time>
      </trkpt>
      <trkpt lat="46.16951" lon="4.63223">
        <ele>483</ele>
        <time>2022-06-25T14:29:06Z</time>
      </trkpt>
      <trkpt lat="46.16945" lon="4.63233">
        <ele>483</ele>
        <time>2022-06-25T14:29:07Z</time>
      </trkpt>
      <trkpt lat="46.16939" lon="4.63243">
        <ele>483</ele>
        <time>2022-06-25T14:29:08Z</time>
      </trkpt>
      <trkpt lat="46.16934" lon="4.63252">
        <ele>483</ele>
        <time>2022-06-25T14:29:09Z</time>
      </trkpt>
      <trkpt lat="46.1693" lon="4.63261">
        <ele>483</ele>
        <time>2022-06-25T14:29:10Z</time>
      </trkpt>
      <trkpt lat="46.16925" lon="4.63269">
        <ele>483</ele>
        <time>2022-06-25T14:29:11Z</time>
      </trkpt>
      <trkpt lat="46.16921" lon="4.63277">
        <ele>483.2</ele>
        <time>2022-06-25T14:29:12Z</time>
      </trkpt>
      <trkpt lat="46.16916" lon="4.63284">
        <ele>483.2</ele>
        <time>2022-06-25T14:29:13Z</time>
      </trkpt>
      <trkpt lat="46.16912" lon="4.63289">
        <ele>483.6</ele>
        <time>2022-06-25T14:29:14Z</time>
      </trkpt>
      <trkpt lat="46.16907" lon="4.63294">
        <ele>483.8</ele>
        <time>2022-06-25T14:29:15Z</time>
      </trkpt>
      <trkpt lat="46.16902" lon="4.63298">
        <ele>484.2</ele>
        <time>2022-06-25T14:29:16Z</time>
      </trkpt>
      <trkpt lat="46.16898" lon="4.63302">
        <ele>484.2</ele>
        <time>2022-06-25T14:29:17Z</time>
      </trkpt>
      <trkpt lat="46.16894" lon="4.63305">
        <ele>484.6</ele>
        <time>2022-06-25T14:29:18Z</time>
      </trkpt>
      <trkpt lat="46.1689" lon="4.63309">
        <ele>484.8</ele>
        <time>2022-06-25T14:29:19Z</time>
      </trkpt>
      <trkpt lat="46.16886" lon="4.63313">
        <ele>485</ele>
        <time>2022-06-25T14:29:20Z</time>
      </trkpt>
      <trkpt lat="46.16882" lon="4.63317">
        <ele>485</ele>
        <time>2022-06-25T14:29:21Z</time>
      </trkpt>
      <trkpt lat="46.16878" lon="4.63321">
        <ele>485.6</ele>
        <time>2022-06-25T14:29:22Z</time>
      </trkpt>
      <trkpt lat="46.16874" lon="4.63324">
        <ele>485.6</ele>
        <time>2022-06-25T14:29:23Z</time>
      </trkpt>
      <trkpt lat="46.1687" lon="4.63327">
        <ele>486</ele>
        <time>2022-06-25T14:29:24Z</time>
      </trkpt>
      <trkpt lat="46.16867" lon="4.63331">
        <ele>486</ele>
        <time>2022-06-25T14:29:25Z</time>
      </trkpt>
      <trkpt lat="46.16863" lon="4.63335">
        <ele>486.2</ele>
        <time>2022-06-25T14:29:26Z</time>
      </trkpt>
      <trkpt lat="46.16859" lon="4.63339">
        <ele>486.4</ele>
        <time>2022-06-25T14:29:27Z</time>
      </trkpt>
      <trkpt lat="46.16856" lon="4.63345">
        <ele>486.6</ele>
        <time>2022-06-25T14:29:28Z</time>
      </trkpt>
      <trkpt lat="46.16853" lon="4.6335">
        <ele>486.8</ele>
        <time>2022-06-25T14:29:29Z</time>
      </trkpt>
      <trkpt lat="46.1685" lon="4.63356">
        <ele>486.8</ele>
        <time>2022-06-25T14:29:30Z</time>
      </trkpt>
      <trkpt lat="46.16848" lon="4.63361">
        <ele>487.2</ele>
        <time>2022-06-25T14:29:31Z</time>
      </trkpt>
      <trkpt lat="46.16845" lon="4.63367">
        <ele>487.4</ele>
        <time>2022-06-25T14:29:32Z</time>
      </trkpt>
      <trkpt lat="46.16843" lon="4.63373">
        <ele>487.8</ele>
        <time>2022-06-25T14:29:33Z</time>
      </trkpt>
      <trkpt lat="46.1684" lon="4.63378">
        <ele>488</ele>
        <time>2022-06-25T14:29:34Z</time>
      </trkpt>
      <trkpt lat="46.16838" lon="4.63384">
        <ele>488.4</ele>
        <time>2022-06-25T14:29:35Z</time>
      </trkpt>
      <trkpt lat="46.16835" lon="4.63389">
        <ele>488.6</ele>
        <time>2022-06-25T14:29:36Z</time>
      </trkpt>
      <trkpt lat="46.16833" lon="4.63394">
        <ele>488.8</ele>
        <time>2022-06-25T14:29:37Z</time>
      </trkpt>
      <trkpt lat="46.1683" lon="4.63399">
        <ele>489</ele>
        <time>2022-06-25T14:29:38Z</time>
      </trkpt>
      <trkpt lat="46.16827" lon="4.63403">
        <ele>489.4</ele>
        <time>2022-06-25T14:29:39Z</time>
      </trkpt>
      <trkpt lat="46.16824" lon="4.63407">
        <ele>489.6</ele>
        <time>2022-06-25T14:29:40Z</time>
      </trkpt>
      <trkpt lat="46.16821" lon="4.63412">
        <ele>489.8</ele>
        <time>2022-06-25T14:29:41Z</time>
      </trkpt>
      <trkpt lat="46.16817" lon="4.63416">
        <ele>490.2</ele>
        <time>2022-06-25T14:29:42Z</time>
      </trkpt>
      <trkpt lat="46.16814" lon="4.6342">
        <ele>490.2</ele>
        <time>2022-06-25T14:29:43Z</time>
      </trkpt>
      <trkpt lat="46.1681" lon="4.63425">
        <ele>490.6</ele>
        <time>2022-06-25T14:29:44Z</time>
      </trkpt>
      <trkpt lat="46.16807" lon="4.6343">
        <ele>490.6</ele>
        <time>2022-06-25T14:29:45Z</time>
      </trkpt>
      <trkpt lat="46.16804" lon="4.63434">
        <ele>491</ele>
        <time>2022-06-25T14:29:46Z</time>
      </trkpt>
      <trkpt lat="46.16801" lon="4.63439">
        <ele>491.2</ele>
        <time>2022-06-25T14:29:47Z</time>
      </trkpt>
      <trkpt lat="46.16797" lon="4.63443">
        <ele>491.2</ele>
        <time>2022-06-25T14:29:48Z</time>
      </trkpt>
      <trkpt lat="46.16794" lon="4.63448">
        <ele>491.6</ele>
        <time>2022-06-25T14:29:49Z</time>
      </trkpt>
      <trkpt lat="46.16791" lon="4.63452">
        <ele>491.8</ele>
        <time>2022-06-25T14:29:50Z</time>
      </trkpt>
      <trkpt lat="46.16787" lon="4.63457">
        <ele>492.2</ele>
        <time>2022-06-25T14:29:51Z</time>
      </trkpt>
      <trkpt lat="46.16784" lon="4.63461">
        <ele>492.2</ele>
        <time>2022-06-25T14:29:52Z</time>
      </trkpt>
      <trkpt lat="46.1678" lon="4.63466">
        <ele>492.4</ele>
        <time>2022-06-25T14:29:53Z</time>
      </trkpt>
      <trkpt lat="46.16777" lon="4.6347">
        <ele>492.4</ele>
        <time>2022-06-25T14:29:54Z</time>
      </trkpt>
      <trkpt lat="46.16774" lon="4.63474">
        <ele>492.6</ele>
        <time>2022-06-25T14:29:55Z</time>
      </trkpt>
      <trkpt lat="46.16771" lon="4.63478">
        <ele>493</ele>
        <time>2022-06-25T14:29:56Z</time>
      </trkpt>
      <trkpt lat="46.16768" lon="4.63481">
        <ele>493.2</ele>
        <time>2022-06-25T14:29:57Z</time>
      </trkpt>
      <trkpt lat="46.16765" lon="4.63485">
        <ele>493.2</ele>
        <time>2022-06-25T14:29:58Z</time>
      </trkpt>
      <trkpt lat="46.16762" lon="4.63489">
        <ele>493.4</ele>
        <time>2022-06-25T14:29:59Z</time>
      </trkpt>
      <trkpt lat="46.16758" lon="4.63492">
        <ele>493.4</ele>
        <time>2022-06-25T14:30:00Z</time>
      </trkpt>
      <trkpt lat="46.16755" lon="4.63495">
        <ele>493.6</ele>
        <time>2022-06-25T14:30:01Z</time>
      </trkpt>
      <trkpt lat="46.16751" lon="4.63497">
        <ele>493.6</ele>
        <time>2022-06-25T14:30:02Z</time>
      </trkpt>
      <trkpt lat="46.16747" lon="4.63497">
        <ele>493.6</ele>
        <time>2022-06-25T14:30:03Z</time>
      </trkpt>
      <trkpt lat="46.16742" lon="4.63497">
        <ele>493.6</ele>
        <time>2022-06-25T14:30:04Z</time>
      </trkpt>
      <trkpt lat="46.16737" lon="4.63495">
        <ele>493.6</ele>
        <time>2022-06-25T14:30:05Z</time>
      </trkpt>
      <trkpt lat="46.16733" lon="4.63492">
        <ele>493.6</ele>
        <time>2022-06-25T14:30:06Z</time>
      </trkpt>
      <trkpt lat="46.16728" lon="4.63486">
        <ele>493.4</ele>
        <time>2022-06-25T14:30:07Z</time>
      </trkpt>
      <trkpt lat="46.16724" lon="4.63481">
        <ele>493.4</ele>
        <time>2022-06-25T14:30:08Z</time>
      </trkpt>
      <trkpt lat="46.1672" lon="4.63475">
        <ele>493</ele>
        <time>2022-06-25T14:30:09Z</time>
      </trkpt>
      <trkpt lat="46.16716" lon="4.63468">
        <ele>492.8</ele>
        <time>2022-06-25T14:30:10Z</time>
      </trkpt>
      <trkpt lat="46.16712" lon="4.63462">
        <ele>492.6</ele>
        <time>2022-06-25T14:30:11Z</time>
      </trkpt>
      <trkpt lat="46.16707" lon="4.63455">
        <ele>492.4</ele>
        <time>2022-06-25T14:30:12Z</time>
      </trkpt>
      <trkpt lat="46.16703" lon="4.63448">
        <ele>492</ele>
        <time>2022-06-25T14:30:13Z</time>
      </trkpt>
      <trkpt lat="46.16698" lon="4.63441">
        <ele>491.8</ele>
        <time>2022-06-25T14:30:14Z</time>
      </trkpt>
      <trkpt lat="46.16693" lon="4.63434">
        <ele>491.6</ele>
        <time>2022-06-25T14:30:15Z</time>
      </trkpt>
      <trkpt lat="46.16687" lon="4.63428">
        <ele>491.2</ele>
        <time>2022-06-25T14:30:16Z</time>
      </trkpt>
      <trkpt lat="46.16681" lon="4.63422">
        <ele>491</ele>
        <time>2022-06-25T14:30:17Z</time>
      </trkpt>
      <trkpt lat="46.16675" lon="4.63417">
        <ele>490.6</ele>
        <time>2022-06-25T14:30:18Z</time>
      </trkpt>
      <trkpt lat="46.16668" lon="4.63412">
        <ele>490.4</ele>
        <time>2022-06-25T14:30:19Z</time>
      </trkpt>
      <trkpt lat="46.16662" lon="4.63408">
        <ele>490</ele>
        <time>2022-06-25T14:30:20Z</time>
      </trkpt>
      <trkpt lat="46.16655" lon="4.63404">
        <ele>489.8</ele>
        <time>2022-06-25T14:30:21Z</time>
      </trkpt>
      <trkpt lat="46.16648" lon="4.63399">
        <ele>489.2</ele>
        <time>2022-06-25T14:30:22Z</time>
      </trkpt>
      <trkpt lat="46.16642" lon="4.63393">
        <ele>489.2</ele>
        <time>2022-06-25T14:30:23Z</time>
      </trkpt>
      <trkpt lat="46.16636" lon="4.63387">
        <ele>488.8</ele>
        <time>2022-06-25T14:30:24Z</time>
      </trkpt>
      <trkpt lat="46.1663" lon="4.63379">
        <ele>488.6</ele>
        <time>2022-06-25T14:30:25Z</time>
      </trkpt>
      <trkpt lat="46.16624" lon="4.63371">
        <ele>488.6</ele>
        <time>2022-06-25T14:30:26Z</time>
      </trkpt>
      <trkpt lat="46.16619" lon="4.63363">
        <ele>488</ele>
        <time>2022-06-25T14:30:27Z</time>
      </trkpt>
      <trkpt lat="46.16614" lon="4.63354">
        <ele>487.8</ele>
        <time>2022-06-25T14:30:28Z</time>
      </trkpt>
      <trkpt lat="46.16609" lon="4.63344">
        <ele>487.4</ele>
        <time>2022-06-25T14:30:29Z</time>
      </trkpt>
      <trkpt lat="46.16605" lon="4.63334">
        <ele>487</ele>
        <time>2022-06-25T14:30:30Z</time>
      </trkpt>
      <trkpt lat="46.16601" lon="4.63324">
        <ele>486.6</ele>
        <time>2022-06-25T14:30:31Z</time>
      </trkpt>
      <trkpt lat="46.16597" lon="4.63313">
        <ele>486.2</ele>
        <time>2022-06-25T14:30:32Z</time>
      </trkpt>
      <trkpt lat="46.16594" lon="4.63302">
        <ele>485.8</ele>
        <time>2022-06-25T14:30:33Z</time>
      </trkpt>
      <trkpt lat="46.16592" lon="4.6329">
        <ele>485.4</ele>
        <time>2022-06-25T14:30:34Z</time>
      </trkpt>
      <trkpt lat="46.16591" lon="4.63277">
        <ele>485</ele>
        <time>2022-06-25T14:30:35Z</time>
      </trkpt>
      <trkpt lat="46.16592" lon="4.63264">
        <ele>484.6</ele>
        <time>2022-06-25T14:30:36Z</time>
      </trkpt>
      <trkpt lat="46.16594" lon="4.63251">
        <ele>484</ele>
        <time>2022-06-25T14:30:37Z</time>
      </trkpt>
      <trkpt lat="46.16597" lon="4.63238">
        <ele>483.8</ele>
        <time>2022-06-25T14:30:38Z</time>
      </trkpt>
      <trkpt lat="46.16599" lon="4.63224">
        <ele>483.4</ele>
        <time>2022-06-25T14:30:39Z</time>
      </trkpt>
      <trkpt lat="46.16599" lon="4.6321">
        <ele>483</ele>
        <time>2022-06-25T14:30:40Z</time>
      </trkpt>
      <trkpt lat="46.16596" lon="4.63197">
        <ele>482.6</ele>
        <time>2022-06-25T14:30:41Z</time>
      </trkpt>
      <trkpt lat="46.16591" lon="4.63185">
        <ele>482.2</ele>
        <time>2022-06-25T14:30:42Z</time>
      </trkpt>
      <trkpt lat="46.16584" lon="4.63175">
        <ele>481.8</ele>
        <time>2022-06-25T14:30:43Z</time>
      </trkpt>
      <trkpt lat="46.16577" lon="4.63166">
        <ele>481.4</ele>
        <time>2022-06-25T14:30:44Z</time>
      </trkpt>
      <trkpt lat="46.16569" lon="4.63157">
        <ele>480.8</ele>
        <time>2022-06-25T14:30:45Z</time>
      </trkpt>
      <trkpt lat="46.16561" lon="4.63148">
        <ele>480.4</ele>
        <time>2022-06-25T14:30:46Z</time>
      </trkpt>
      <trkpt lat="46.16554" lon="4.63138">
        <ele>480</ele>
        <time>2022-06-25T14:30:47Z</time>
      </trkpt>
      <trkpt lat="46.16546" lon="4.63129">
        <ele>479.2</ele>
        <time>2022-06-25T14:30:48Z</time>
      </trkpt>
      <trkpt lat="46.16538" lon="4.6312">
        <ele>479</ele>
        <time>2022-06-25T14:30:49Z</time>
      </trkpt>
      <trkpt lat="46.1653" lon="4.63111">
        <ele>478.6</ele>
        <time>2022-06-25T14:30:50Z</time>
      </trkpt>
      <trkpt lat="46.16523" lon="4.63101">
        <ele>478.6</ele>
        <time>2022-06-25T14:30:51Z</time>
      </trkpt>
      <trkpt lat="46.16516" lon="4.63091">
        <ele>478.2</ele>
        <time>2022-06-25T14:30:52Z</time>
      </trkpt>
      <trkpt lat="46.16509" lon="4.63081">
        <ele>478</ele>
        <time>2022-06-25T14:30:53Z</time>
      </trkpt>
      <trkpt lat="46.16502" lon="4.63071">
        <ele>477.8</ele>
        <time>2022-06-25T14:30:54Z</time>
      </trkpt>
      <trkpt lat="46.16495" lon="4.63063">
        <ele>477.8</ele>
        <time>2022-06-25T14:30:55Z</time>
      </trkpt>
      <trkpt lat="46.16486" lon="4.63056">
        <ele>477.4</ele>
        <time>2022-06-25T14:30:56Z</time>
      </trkpt>
      <trkpt lat="46.16478" lon="4.6305">
        <ele>477.4</ele>
        <time>2022-06-25T14:30:57Z</time>
      </trkpt>
      <trkpt lat="46.1647" lon="4.63044">
        <ele>477.4</ele>
        <time>2022-06-25T14:30:58Z</time>
      </trkpt>
      <trkpt lat="46.16463" lon="4.63038">
        <ele>477.4</ele>
        <time>2022-06-25T14:30:59Z</time>
      </trkpt>
      <trkpt lat="46.16457" lon="4.63031">
        <ele>477.4</ele>
        <time>2022-06-25T14:31:00Z</time>
      </trkpt>
      <trkpt lat="46.16447" lon="4.6302">
        <ele>477.4</ele>
        <time>2022-06-25T14:31:01Z</time>
      </trkpt>
      <trkpt lat="46.16444" lon="4.63016">
        <ele>477.4</ele>
        <time>2022-06-25T14:31:02Z</time>
      </trkpt>
      <trkpt lat="46.16439" lon="4.63009">
        <ele>477.4</ele>
        <time>2022-06-25T14:31:03Z</time>
      </trkpt>
      <trkpt lat="46.16433" lon="4.63001">
        <ele>477.4</ele>
        <time>2022-06-25T14:31:04Z</time>
      </trkpt>
      <trkpt lat="46.16428" lon="4.62993">
        <ele>477.2</ele>
        <time>2022-06-25T14:31:05Z</time>
      </trkpt>
      <trkpt lat="46.16423" lon="4.62985">
        <ele>477.2</ele>
        <time>2022-06-25T14:31:06Z</time>
      </trkpt>
      <trkpt lat="46.16418" lon="4.62977">
        <ele>477.2</ele>
        <time>2022-06-25T14:31:07Z</time>
      </trkpt>
      <trkpt lat="46.16413" lon="4.62969">
        <ele>477</ele>
        <time>2022-06-25T14:31:08Z</time>
      </trkpt>
      <trkpt lat="46.16408" lon="4.62962">
        <ele>476.4</ele>
        <time>2022-06-25T14:31:09Z</time>
      </trkpt>
      <trkpt lat="46.16403" lon="4.62954">
        <ele>476.4</ele>
        <time>2022-06-25T14:31:10Z</time>
      </trkpt>
      <trkpt lat="46.16398" lon="4.62946">
        <ele>476</ele>
        <time>2022-06-25T14:31:11Z</time>
      </trkpt>
      <trkpt lat="46.16392" lon="4.62938">
        <ele>476</ele>
        <time>2022-06-25T14:31:12Z</time>
      </trkpt>
      <trkpt lat="46.16387" lon="4.6293">
        <ele>476</ele>
        <time>2022-06-25T14:31:13Z</time>
      </trkpt>
      <trkpt lat="46.16382" lon="4.62922">
        <ele>475.6</ele>
        <time>2022-06-25T14:31:14Z</time>
      </trkpt>
      <trkpt lat="46.16377" lon="4.62913">
        <ele>475.2</ele>
        <time>2022-06-25T14:31:15Z</time>
      </trkpt>
      <trkpt lat="46.16372" lon="4.62905">
        <ele>475</ele>
        <time>2022-06-25T14:31:16Z</time>
      </trkpt>
      <trkpt lat="46.16366" lon="4.62896">
        <ele>474.6</ele>
        <time>2022-06-25T14:31:17Z</time>
      </trkpt>
      <trkpt lat="46.16361" lon="4.62888">
        <ele>474.4</ele>
        <time>2022-06-25T14:31:18Z</time>
      </trkpt>
      <trkpt lat="46.16355" lon="4.62878">
        <ele>474</ele>
        <time>2022-06-25T14:31:19Z</time>
      </trkpt>
      <trkpt lat="46.16349" lon="4.62869">
        <ele>473.6</ele>
        <time>2022-06-25T14:31:20Z</time>
      </trkpt>
      <trkpt lat="46.16344" lon="4.62859">
        <ele>473.2</ele>
        <time>2022-06-25T14:31:21Z</time>
      </trkpt>
      <trkpt lat="46.16338" lon="4.6285">
        <ele>472.8</ele>
        <time>2022-06-25T14:31:22Z</time>
      </trkpt>
      <trkpt lat="46.16332" lon="4.62839">
        <ele>472.8</ele>
        <time>2022-06-25T14:31:23Z</time>
      </trkpt>
      <trkpt lat="46.16326" lon="4.62828">
        <ele>472.4</ele>
        <time>2022-06-25T14:31:24Z</time>
      </trkpt>
      <trkpt lat="46.16319" lon="4.62819">
        <ele>472.4</ele>
        <time>2022-06-25T14:31:25Z</time>
      </trkpt>
      <trkpt lat="46.16304" lon="4.628">
        <ele>472</ele>
        <time>2022-06-25T14:31:26Z</time>
      </trkpt>
      <trkpt lat="46.16296" lon="4.62792">
        <ele>471.6</ele>
        <time>2022-06-25T14:31:27Z</time>
      </trkpt>
      <trkpt lat="46.16288" lon="4.62783">
        <ele>471</ele>
        <time>2022-06-25T14:31:28Z</time>
      </trkpt>
      <trkpt lat="46.16279" lon="4.62775">
        <ele>470.6</ele>
        <time>2022-06-25T14:31:29Z</time>
      </trkpt>
      <trkpt lat="46.16271" lon="4.62767">
        <ele>470</ele>
        <time>2022-06-25T14:31:30Z</time>
      </trkpt>
      <trkpt lat="46.16262" lon="4.62759">
        <ele>469.6</ele>
        <time>2022-06-25T14:31:31Z</time>
      </trkpt>
      <trkpt lat="46.16253" lon="4.62751">
        <ele>468.8</ele>
        <time>2022-06-25T14:31:32Z</time>
      </trkpt>
      <trkpt lat="46.16243" lon="4.62743">
        <ele>468.2</ele>
        <time>2022-06-25T14:31:33Z</time>
      </trkpt>
      <trkpt lat="46.16235" lon="4.62734">
        <ele>467.6</ele>
        <time>2022-06-25T14:31:34Z</time>
      </trkpt>
      <trkpt lat="46.16226" lon="4.62726">
        <ele>467</ele>
        <time>2022-06-25T14:31:35Z</time>
      </trkpt>
      <trkpt lat="46.16218" lon="4.62717">
        <ele>466.4</ele>
        <time>2022-06-25T14:31:36Z</time>
      </trkpt>
      <trkpt lat="46.16209" lon="4.62709">
        <ele>465.8</ele>
        <time>2022-06-25T14:31:37Z</time>
      </trkpt>
      <trkpt lat="46.162" lon="4.627">
        <ele>465.4</ele>
        <time>2022-06-25T14:31:38Z</time>
      </trkpt>
      <trkpt lat="46.1619" lon="4.62693">
        <ele>465</ele>
        <time>2022-06-25T14:31:39Z</time>
      </trkpt>
      <trkpt lat="46.16181" lon="4.62684">
        <ele>464.6</ele>
        <time>2022-06-25T14:31:40Z</time>
      </trkpt>
      <trkpt lat="46.16172" lon="4.62676">
        <ele>464.4</ele>
        <time>2022-06-25T14:31:41Z</time>
      </trkpt>
      <trkpt lat="46.16163" lon="4.62668">
        <ele>463.8</ele>
        <time>2022-06-25T14:31:42Z</time>
      </trkpt>
      <trkpt lat="46.16154" lon="4.62663">
        <ele>463.6</ele>
        <time>2022-06-25T14:31:43Z</time>
      </trkpt>
      <trkpt lat="46.16145" lon="4.62659">
        <ele>463.2</ele>
        <time>2022-06-25T14:31:44Z</time>
      </trkpt>
      <trkpt lat="46.16136" lon="4.62655">
        <ele>463</ele>
        <time>2022-06-25T14:31:45Z</time>
      </trkpt>
      <trkpt lat="46.16126" lon="4.62652">
        <ele>462.6</ele>
        <time>2022-06-25T14:31:46Z</time>
      </trkpt>
      <trkpt lat="46.16117" lon="4.62649">
        <ele>462.4</ele>
        <time>2022-06-25T14:31:47Z</time>
      </trkpt>
      <trkpt lat="46.16107" lon="4.62645">
        <ele>462</ele>
        <time>2022-06-25T14:31:48Z</time>
      </trkpt>
      <trkpt lat="46.16098" lon="4.62642">
        <ele>461.8</ele>
        <time>2022-06-25T14:31:49Z</time>
      </trkpt>
      <trkpt lat="46.16089" lon="4.6264">
        <ele>461.6</ele>
        <time>2022-06-25T14:31:50Z</time>
      </trkpt>
      <trkpt lat="46.1608" lon="4.62637">
        <ele>461.4</ele>
        <time>2022-06-25T14:31:51Z</time>
      </trkpt>
      <trkpt lat="46.16071" lon="4.62634">
        <ele>461.2</ele>
        <time>2022-06-25T14:31:52Z</time>
      </trkpt>
      <trkpt lat="46.16063" lon="4.62631">
        <ele>461.2</ele>
        <time>2022-06-25T14:31:53Z</time>
      </trkpt>
      <trkpt lat="46.16054" lon="4.62628">
        <ele>461</ele>
        <time>2022-06-25T14:31:54Z</time>
      </trkpt>
      <trkpt lat="46.16045" lon="4.62625">
        <ele>461</ele>
        <time>2022-06-25T14:31:55Z</time>
      </trkpt>
      <trkpt lat="46.16037" lon="4.62623">
        <ele>461</ele>
        <time>2022-06-25T14:31:56Z</time>
      </trkpt>
      <trkpt lat="46.16029" lon="4.6262">
        <ele>460.6</ele>
        <time>2022-06-25T14:31:57Z</time>
      </trkpt>
      <trkpt lat="46.16021" lon="4.62617">
        <ele>460.6</ele>
        <time>2022-06-25T14:31:58Z</time>
      </trkpt>
      <trkpt lat="46.16017" lon="4.62616">
        <ele>460.6</ele>
        <time>2022-06-25T14:31:59Z</time>
      </trkpt>
      <trkpt lat="46.16013" lon="4.62614">
        <ele>460.6</ele>
        <time>2022-06-25T14:32:00Z</time>
      </trkpt>
      <trkpt lat="46.16006" lon="4.6261">
        <ele>460.6</ele>
        <time>2022-06-25T14:32:01Z</time>
      </trkpt>
      <trkpt lat="46.15998" lon="4.62606">
        <ele>460.6</ele>
        <time>2022-06-25T14:32:02Z</time>
      </trkpt>
      <trkpt lat="46.15991" lon="4.62601">
        <ele>460.6</ele>
        <time>2022-06-25T14:32:03Z</time>
      </trkpt>
      <trkpt lat="46.15985" lon="4.62595">
        <ele>460.6</ele>
        <time>2022-06-25T14:32:04Z</time>
      </trkpt>
      <trkpt lat="46.15981" lon="4.62588">
        <ele>460.6</ele>
        <time>2022-06-25T14:32:05Z</time>
      </trkpt>
      <trkpt lat="46.15976" lon="4.6258">
        <ele>460.6</ele>
        <time>2022-06-25T14:32:06Z</time>
      </trkpt>
      <trkpt lat="46.15973" lon="4.62572">
        <ele>461</ele>
        <time>2022-06-25T14:32:07Z</time>
      </trkpt>
      <trkpt lat="46.15969" lon="4.62564">
        <ele>461</ele>
        <time>2022-06-25T14:32:08Z</time>
      </trkpt>
      <trkpt lat="46.15967" lon="4.62554">
        <ele>461</ele>
        <time>2022-06-25T14:32:09Z</time>
      </trkpt>
      <trkpt lat="46.15965" lon="4.62545">
        <ele>461</ele>
        <time>2022-06-25T14:32:10Z</time>
      </trkpt>
      <trkpt lat="46.15963" lon="4.62535">
        <ele>460.6</ele>
        <time>2022-06-25T14:32:11Z</time>
      </trkpt>
      <trkpt lat="46.15961" lon="4.62525">
        <ele>460.6</ele>
        <time>2022-06-25T14:32:12Z</time>
      </trkpt>
      <trkpt lat="46.1596" lon="4.62514">
        <ele>460.4</ele>
        <time>2022-06-25T14:32:13Z</time>
      </trkpt>
      <trkpt lat="46.15958" lon="4.62503">
        <ele>460.2</ele>
        <time>2022-06-25T14:32:14Z</time>
      </trkpt>
      <trkpt lat="46.15957" lon="4.62491">
        <ele>459.8</ele>
        <time>2022-06-25T14:32:15Z</time>
      </trkpt>
      <trkpt lat="46.15956" lon="4.6248">
        <ele>459.6</ele>
        <time>2022-06-25T14:32:16Z</time>
      </trkpt>
      <trkpt lat="46.15955" lon="4.62467">
        <ele>459.2</ele>
        <time>2022-06-25T14:32:17Z</time>
      </trkpt>
      <trkpt lat="46.15955" lon="4.62455">
        <ele>458.8</ele>
        <time>2022-06-25T14:32:18Z</time>
      </trkpt>
      <trkpt lat="46.15954" lon="4.62442">
        <ele>458.4</ele>
        <time>2022-06-25T14:32:19Z</time>
      </trkpt>
      <trkpt lat="46.15955" lon="4.62426">
        <ele>458</ele>
        <time>2022-06-25T14:32:20Z</time>
      </trkpt>
      <trkpt lat="46.15955" lon="4.6241">
        <ele>457.4</ele>
        <time>2022-06-25T14:32:21Z</time>
      </trkpt>
      <trkpt lat="46.15954" lon="4.62395">
        <ele>457</ele>
        <time>2022-06-25T14:32:22Z</time>
      </trkpt>
      <trkpt lat="46.15952" lon="4.62381">
        <ele>456.6</ele>
        <time>2022-06-25T14:32:23Z</time>
      </trkpt>
      <trkpt lat="46.1595" lon="4.62367">
        <ele>456</ele>
        <time>2022-06-25T14:32:24Z</time>
      </trkpt>
      <trkpt lat="46.15948" lon="4.62354">
        <ele>455.6</ele>
        <time>2022-06-25T14:32:25Z</time>
      </trkpt>
      <trkpt lat="46.15945" lon="4.6234">
        <ele>455</ele>
        <time>2022-06-25T14:32:26Z</time>
      </trkpt>
      <trkpt lat="46.15941" lon="4.62326">
        <ele>454.6</ele>
        <time>2022-06-25T14:32:27Z</time>
      </trkpt>
      <trkpt lat="46.15935" lon="4.62312">
        <ele>454.2</ele>
        <time>2022-06-25T14:32:28Z</time>
      </trkpt>
      <trkpt lat="46.15928" lon="4.62299">
        <ele>453.6</ele>
        <time>2022-06-25T14:32:29Z</time>
      </trkpt>
      <trkpt lat="46.15921" lon="4.62288">
        <ele>453.2</ele>
        <time>2022-06-25T14:32:30Z</time>
      </trkpt>
      <trkpt lat="46.15912" lon="4.62279">
        <ele>452.8</ele>
        <time>2022-06-25T14:32:31Z</time>
      </trkpt>
      <trkpt lat="46.15903" lon="4.6227">
        <ele>452.2</ele>
        <time>2022-06-25T14:32:32Z</time>
      </trkpt>
      <trkpt lat="46.15893" lon="4.6226">
        <ele>451.6</ele>
        <time>2022-06-25T14:32:33Z</time>
      </trkpt>
      <trkpt lat="46.15884" lon="4.62249">
        <ele>451.2</ele>
        <time>2022-06-25T14:32:34Z</time>
      </trkpt>
      <trkpt lat="46.15875" lon="4.62238">
        <ele>450.6</ele>
        <time>2022-06-25T14:32:35Z</time>
      </trkpt>
      <trkpt lat="46.15866" lon="4.62227">
        <ele>450</ele>
        <time>2022-06-25T14:32:36Z</time>
      </trkpt>
      <trkpt lat="46.15857" lon="4.62218">
        <ele>449.4</ele>
        <time>2022-06-25T14:32:37Z</time>
      </trkpt>
      <trkpt lat="46.15848" lon="4.6221">
        <ele>448.8</ele>
        <time>2022-06-25T14:32:38Z</time>
      </trkpt>
      <trkpt lat="46.1584" lon="4.62202">
        <ele>448</ele>
        <time>2022-06-25T14:32:39Z</time>
      </trkpt>
      <trkpt lat="46.15833" lon="4.62193">
        <ele>447.4</ele>
        <time>2022-06-25T14:32:40Z</time>
      </trkpt>
      <trkpt lat="46.15826" lon="4.62183">
        <ele>446.8</ele>
        <time>2022-06-25T14:32:41Z</time>
      </trkpt>
      <trkpt lat="46.1582" lon="4.62174">
        <ele>446.2</ele>
        <time>2022-06-25T14:32:42Z</time>
      </trkpt>
      <trkpt lat="46.15816" lon="4.62162">
        <ele>445.6</ele>
        <time>2022-06-25T14:32:43Z</time>
      </trkpt>
      <trkpt lat="46.15812" lon="4.62149">
        <ele>444.8</ele>
        <time>2022-06-25T14:32:44Z</time>
      </trkpt>
      <trkpt lat="46.15808" lon="4.62135">
        <ele>444.2</ele>
        <time>2022-06-25T14:32:45Z</time>
      </trkpt>
      <trkpt lat="46.15806" lon="4.6212">
        <ele>443.6</ele>
        <time>2022-06-25T14:32:46Z</time>
      </trkpt>
      <trkpt lat="46.15803" lon="4.62105">
        <ele>443.2</ele>
        <time>2022-06-25T14:32:47Z</time>
      </trkpt>
      <trkpt lat="46.15799" lon="4.62091">
        <ele>442.6</ele>
        <time>2022-06-25T14:32:48Z</time>
      </trkpt>
      <trkpt lat="46.15793" lon="4.62081">
        <ele>442</ele>
        <time>2022-06-25T14:32:49Z</time>
      </trkpt>
      <trkpt lat="46.15785" lon="4.62072">
        <ele>441.6</ele>
        <time>2022-06-25T14:32:50Z</time>
      </trkpt>
      <trkpt lat="46.15778" lon="4.62063">
        <ele>441.2</ele>
        <time>2022-06-25T14:32:51Z</time>
      </trkpt>
      <trkpt lat="46.1577" lon="4.62053">
        <ele>440.8</ele>
        <time>2022-06-25T14:32:52Z</time>
      </trkpt>
      <trkpt lat="46.15762" lon="4.62043">
        <ele>440.6</ele>
        <time>2022-06-25T14:32:53Z</time>
      </trkpt>
      <trkpt lat="46.15756" lon="4.62032">
        <ele>440.6</ele>
        <time>2022-06-25T14:32:54Z</time>
      </trkpt>
      <trkpt lat="46.15751" lon="4.6202">
        <ele>440.2</ele>
        <time>2022-06-25T14:32:55Z</time>
      </trkpt>
      <trkpt lat="46.15746" lon="4.62007">
        <ele>439.8</ele>
        <time>2022-06-25T14:32:56Z</time>
      </trkpt>
      <trkpt lat="46.15742" lon="4.61995">
        <ele>439.6</ele>
        <time>2022-06-25T14:32:57Z</time>
      </trkpt>
      <trkpt lat="46.15737" lon="4.61983">
        <ele>439.2</ele>
        <time>2022-06-25T14:32:58Z</time>
      </trkpt>
      <trkpt lat="46.15733" lon="4.6197">
        <ele>439</ele>
        <time>2022-06-25T14:32:59Z</time>
      </trkpt>
      <trkpt lat="46.15729" lon="4.61958">
        <ele>438.6</ele>
        <time>2022-06-25T14:33:00Z</time>
      </trkpt>
      <trkpt lat="46.15725" lon="4.61946">
        <ele>438.4</ele>
        <time>2022-06-25T14:33:01Z</time>
      </trkpt>
      <trkpt lat="46.15722" lon="4.61933">
        <ele>438.2</ele>
        <time>2022-06-25T14:33:02Z</time>
      </trkpt>
      <trkpt lat="46.15718" lon="4.61921">
        <ele>438</ele>
        <time>2022-06-25T14:33:03Z</time>
      </trkpt>
      <trkpt lat="46.15714" lon="4.61908">
        <ele>437.8</ele>
        <time>2022-06-25T14:33:04Z</time>
      </trkpt>
      <trkpt lat="46.15711" lon="4.61895">
        <ele>437.8</ele>
        <time>2022-06-25T14:33:05Z</time>
      </trkpt>
      <trkpt lat="46.15707" lon="4.61883">
        <ele>437.4</ele>
        <time>2022-06-25T14:33:06Z</time>
      </trkpt>
      <trkpt lat="46.15703" lon="4.61871">
        <ele>437.4</ele>
        <time>2022-06-25T14:33:07Z</time>
      </trkpt>
      <trkpt lat="46.157" lon="4.61859">
        <ele>437.2</ele>
        <time>2022-06-25T14:33:08Z</time>
      </trkpt>
      <trkpt lat="46.15699" lon="4.61846">
        <ele>437</ele>
        <time>2022-06-25T14:33:09Z</time>
      </trkpt>
      <trkpt lat="46.15698" lon="4.61833">
        <ele>437</ele>
        <time>2022-06-25T14:33:10Z</time>
      </trkpt>
      <trkpt lat="46.15698" lon="4.6182">
        <ele>436.8</ele>
        <time>2022-06-25T14:33:11Z</time>
      </trkpt>
      <trkpt lat="46.15698" lon="4.61807">
        <ele>436.8</ele>
        <time>2022-06-25T14:33:12Z</time>
      </trkpt>
      <trkpt lat="46.15699" lon="4.61794">
        <ele>436.4</ele>
        <time>2022-06-25T14:33:13Z</time>
      </trkpt>
      <trkpt lat="46.157" lon="4.61782">
        <ele>436.4</ele>
        <time>2022-06-25T14:33:14Z</time>
      </trkpt>
      <trkpt lat="46.15701" lon="4.61769">
        <ele>436.4</ele>
        <time>2022-06-25T14:33:15Z</time>
      </trkpt>
      <trkpt lat="46.15701" lon="4.61757">
        <ele>436.2</ele>
        <time>2022-06-25T14:33:16Z</time>
      </trkpt>
      <trkpt lat="46.15702" lon="4.61745">
        <ele>436.2</ele>
        <time>2022-06-25T14:33:17Z</time>
      </trkpt>
      <trkpt lat="46.15701" lon="4.61733">
        <ele>435.8</ele>
        <time>2022-06-25T14:33:18Z</time>
      </trkpt>
      <trkpt lat="46.15698" lon="4.61721">
        <ele>435.6</ele>
        <time>2022-06-25T14:33:20Z</time>
      </trkpt>
      <trkpt lat="46.15695" lon="4.6171">
        <ele>435.6</ele>
        <time>2022-06-25T14:33:21Z</time>
      </trkpt>
      <trkpt lat="46.1569" lon="4.617">
        <ele>435.6</ele>
        <time>2022-06-25T14:33:22Z</time>
      </trkpt>
      <trkpt lat="46.15685" lon="4.61693">
        <ele>435.6</ele>
        <time>2022-06-25T14:33:23Z</time>
      </trkpt>
      <trkpt lat="46.15679" lon="4.61686">
        <ele>435.6</ele>
        <time>2022-06-25T14:33:24Z</time>
      </trkpt>
      <trkpt lat="46.15673" lon="4.61681">
        <ele>435.6</ele>
        <time>2022-06-25T14:33:25Z</time>
      </trkpt>
      <trkpt lat="46.15667" lon="4.61677">
        <ele>435.8</ele>
        <time>2022-06-25T14:33:26Z</time>
      </trkpt>
      <trkpt lat="46.15661" lon="4.61672">
        <ele>435.8</ele>
        <time>2022-06-25T14:33:27Z</time>
      </trkpt>
      <trkpt lat="46.15656" lon="4.61667">
        <ele>436</ele>
        <time>2022-06-25T14:33:28Z</time>
      </trkpt>
      <trkpt lat="46.15651" lon="4.61663">
        <ele>436.2</ele>
        <time>2022-06-25T14:33:29Z</time>
      </trkpt>
      <trkpt lat="46.15647" lon="4.61658">
        <ele>436.2</ele>
        <time>2022-06-25T14:33:30Z</time>
      </trkpt>
      <trkpt lat="46.15643" lon="4.61654">
        <ele>436.6</ele>
        <time>2022-06-25T14:33:31Z</time>
      </trkpt>
      <trkpt lat="46.15639" lon="4.61649">
        <ele>436.6</ele>
        <time>2022-06-25T14:33:32Z</time>
      </trkpt>
      <trkpt lat="46.15635" lon="4.61644">
        <ele>437</ele>
        <time>2022-06-25T14:33:33Z</time>
      </trkpt>
      <trkpt lat="46.15632" lon="4.6164">
        <ele>437</ele>
        <time>2022-06-25T14:33:34Z</time>
      </trkpt>
      <trkpt lat="46.15629" lon="4.61635">
        <ele>437.4</ele>
        <time>2022-06-25T14:33:35Z</time>
      </trkpt>
      <trkpt lat="46.15626" lon="4.61631">
        <ele>437.6</ele>
        <time>2022-06-25T14:33:36Z</time>
      </trkpt>
      <trkpt lat="46.15624" lon="4.61626">
        <ele>438</ele>
        <time>2022-06-25T14:33:37Z</time>
      </trkpt>
      <trkpt lat="46.15622" lon="4.61621">
        <ele>438.2</ele>
        <time>2022-06-25T14:33:38Z</time>
      </trkpt>
      <trkpt lat="46.15621" lon="4.61616">
        <ele>438.2</ele>
        <time>2022-06-25T14:33:39Z</time>
      </trkpt>
      <trkpt lat="46.15619" lon="4.6161">
        <ele>438.6</ele>
        <time>2022-06-25T14:33:40Z</time>
      </trkpt>
      <trkpt lat="46.15618" lon="4.61605">
        <ele>438.6</ele>
        <time>2022-06-25T14:33:41Z</time>
      </trkpt>
      <trkpt lat="46.15617" lon="4.61599">
        <ele>438.6</ele>
        <time>2022-06-25T14:33:42Z</time>
      </trkpt>
      <trkpt lat="46.15616" lon="4.61593">
        <ele>438.6</ele>
        <time>2022-06-25T14:33:43Z</time>
      </trkpt>
      <trkpt lat="46.15615" lon="4.61587">
        <ele>438.8</ele>
        <time>2022-06-25T14:33:44Z</time>
      </trkpt>
      <trkpt lat="46.15615" lon="4.61581">
        <ele>438.8</ele>
        <time>2022-06-25T14:33:45Z</time>
      </trkpt>
      <trkpt lat="46.15614" lon="4.61574">
        <ele>438.8</ele>
        <time>2022-06-25T14:33:46Z</time>
      </trkpt>
      <trkpt lat="46.15613" lon="4.61568">
        <ele>439.2</ele>
        <time>2022-06-25T14:33:47Z</time>
      </trkpt>
      <trkpt lat="46.15612" lon="4.61562">
        <ele>439.2</ele>
        <time>2022-06-25T14:33:48Z</time>
      </trkpt>
      <trkpt lat="46.15611" lon="4.61555">
        <ele>439.2</ele>
        <time>2022-06-25T14:33:49Z</time>
      </trkpt>
      <trkpt lat="46.1561" lon="4.61548">
        <ele>439.2</ele>
        <time>2022-06-25T14:33:50Z</time>
      </trkpt>
      <trkpt lat="46.15609" lon="4.6154">
        <ele>439.2</ele>
        <time>2022-06-25T14:33:51Z</time>
      </trkpt>
      <trkpt lat="46.15609" lon="4.61532">
        <ele>439.2</ele>
        <time>2022-06-25T14:33:52Z</time>
      </trkpt>
      <trkpt lat="46.15609" lon="4.61524">
        <ele>439.2</ele>
        <time>2022-06-25T14:33:53Z</time>
      </trkpt>
      <trkpt lat="46.15608" lon="4.61515">
        <ele>438.8</ele>
        <time>2022-06-25T14:33:54Z</time>
      </trkpt>
      <trkpt lat="46.15608" lon="4.61505">
        <ele>438.6</ele>
        <time>2022-06-25T14:33:55Z</time>
      </trkpt>
      <trkpt lat="46.15609" lon="4.61496">
        <ele>438.4</ele>
        <time>2022-06-25T14:33:56Z</time>
      </trkpt>
      <trkpt lat="46.15609" lon="4.61486">
        <ele>438</ele>
        <time>2022-06-25T14:33:57Z</time>
      </trkpt>
      <trkpt lat="46.1561" lon="4.61475">
        <ele>437.8</ele>
        <time>2022-06-25T14:33:58Z</time>
      </trkpt>
      <trkpt lat="46.15611" lon="4.61465">
        <ele>437.6</ele>
        <time>2022-06-25T14:33:59Z</time>
      </trkpt>
      <trkpt lat="46.15613" lon="4.61455">
        <ele>437.4</ele>
        <time>2022-06-25T14:34:00Z</time>
      </trkpt>
      <trkpt lat="46.15614" lon="4.61444">
        <ele>437</ele>
        <time>2022-06-25T14:34:01Z</time>
      </trkpt>
      <trkpt lat="46.15615" lon="4.61432">
        <ele>436.6</ele>
        <time>2022-06-25T14:34:02Z</time>
      </trkpt>
      <trkpt lat="46.15617" lon="4.61421">
        <ele>436.4</ele>
        <time>2022-06-25T14:34:03Z</time>
      </trkpt>
      <trkpt lat="46.15618" lon="4.61409">
        <ele>436.2</ele>
        <time>2022-06-25T14:34:04Z</time>
      </trkpt>
      <trkpt lat="46.15619" lon="4.61397">
        <ele>435.8</ele>
        <time>2022-06-25T14:34:05Z</time>
      </trkpt>
      <trkpt lat="46.15621" lon="4.61385">
        <ele>435.4</ele>
        <time>2022-06-25T14:34:06Z</time>
      </trkpt>
      <trkpt lat="46.15622" lon="4.61372">
        <ele>435</ele>
        <time>2022-06-25T14:34:07Z</time>
      </trkpt>
      <trkpt lat="46.15622" lon="4.6136">
        <ele>434.6</ele>
        <time>2022-06-25T14:34:08Z</time>
      </trkpt>
      <trkpt lat="46.15623" lon="4.61347">
        <ele>434.4</ele>
        <time>2022-06-25T14:34:09Z</time>
      </trkpt>
      <trkpt lat="46.15622" lon="4.61321">
        <ele>434.2</ele>
        <time>2022-06-25T14:34:10Z</time>
      </trkpt>
      <trkpt lat="46.1562" lon="4.61309">
        <ele>434.2</ele>
        <time>2022-06-25T14:34:11Z</time>
      </trkpt>
      <trkpt lat="46.15619" lon="4.61297">
        <ele>433.8</ele>
        <time>2022-06-25T14:34:12Z</time>
      </trkpt>
      <trkpt lat="46.15618" lon="4.61285">
        <ele>433.8</ele>
        <time>2022-06-25T14:34:13Z</time>
      </trkpt>
      <trkpt lat="46.15617" lon="4.61273">
        <ele>433.8</ele>
        <time>2022-06-25T14:34:14Z</time>
      </trkpt>
      <trkpt lat="46.15616" lon="4.61262">
        <ele>433.8</ele>
        <time>2022-06-25T14:34:15Z</time>
      </trkpt>
      <trkpt lat="46.15615" lon="4.61252">
        <ele>433.8</ele>
        <time>2022-06-25T14:34:16Z</time>
      </trkpt>
      <trkpt lat="46.15614" lon="4.61242">
        <ele>433.8</ele>
        <time>2022-06-25T14:34:17Z</time>
      </trkpt>
      <trkpt lat="46.15613" lon="4.61232">
        <ele>433.8</ele>
        <time>2022-06-25T14:34:18Z</time>
      </trkpt>
      <trkpt lat="46.15612" lon="4.61223">
        <ele>433.8</ele>
        <time>2022-06-25T14:34:19Z</time>
      </trkpt>
      <trkpt lat="46.15611" lon="4.61215">
        <ele>434</ele>
        <time>2022-06-25T14:34:20Z</time>
      </trkpt>
      <trkpt lat="46.1561" lon="4.61207">
        <ele>434</ele>
        <time>2022-06-25T14:34:21Z</time>
      </trkpt>
      <trkpt lat="46.15609" lon="4.61199">
        <ele>434.4</ele>
        <time>2022-06-25T14:34:22Z</time>
      </trkpt>
      <trkpt lat="46.15608" lon="4.61191">
        <ele>434.4</ele>
        <time>2022-06-25T14:34:23Z</time>
      </trkpt>
      <trkpt lat="46.15608" lon="4.61183">
        <ele>434.4</ele>
        <time>2022-06-25T14:34:24Z</time>
      </trkpt>
      <trkpt lat="46.15607" lon="4.61175">
        <ele>434.4</ele>
        <time>2022-06-25T14:34:25Z</time>
      </trkpt>
      <trkpt lat="46.15607" lon="4.61167">
        <ele>434.4</ele>
        <time>2022-06-25T14:34:26Z</time>
      </trkpt>
      <trkpt lat="46.15608" lon="4.61159">
        <ele>434.4</ele>
        <time>2022-06-25T14:34:27Z</time>
      </trkpt>
      <trkpt lat="46.1561" lon="4.61151">
        <ele>434.4</ele>
        <time>2022-06-25T14:34:28Z</time>
      </trkpt>
      <trkpt lat="46.15612" lon="4.61142">
        <ele>434.4</ele>
        <time>2022-06-25T14:34:29Z</time>
      </trkpt>
      <trkpt lat="46.15614" lon="4.61133">
        <ele>434</ele>
        <time>2022-06-25T14:34:30Z</time>
      </trkpt>
      <trkpt lat="46.15616" lon="4.61124">
        <ele>434</ele>
        <time>2022-06-25T14:34:31Z</time>
      </trkpt>
      <trkpt lat="46.15619" lon="4.61115">
        <ele>433.6</ele>
        <time>2022-06-25T14:34:32Z</time>
      </trkpt>
      <trkpt lat="46.15622" lon="4.61107">
        <ele>433.6</ele>
        <time>2022-06-25T14:34:33Z</time>
      </trkpt>
      <trkpt lat="46.15627" lon="4.61099">
        <ele>433.4</ele>
        <time>2022-06-25T14:34:34Z</time>
      </trkpt>
      <trkpt lat="46.15632" lon="4.6109">
        <ele>433.2</ele>
        <time>2022-06-25T14:34:35Z</time>
      </trkpt>
      <trkpt lat="46.15636" lon="4.61082">
        <ele>432.8</ele>
        <time>2022-06-25T14:34:36Z</time>
      </trkpt>
      <trkpt lat="46.15641" lon="4.61073">
        <ele>432.6</ele>
        <time>2022-06-25T14:34:37Z</time>
      </trkpt>
      <trkpt lat="46.15646" lon="4.61064">
        <ele>432.2</ele>
        <time>2022-06-25T14:34:38Z</time>
      </trkpt>
      <trkpt lat="46.15651" lon="4.61055">
        <ele>432</ele>
        <time>2022-06-25T14:34:39Z</time>
      </trkpt>
      <trkpt lat="46.15657" lon="4.61046">
        <ele>431.8</ele>
        <time>2022-06-25T14:34:40Z</time>
      </trkpt>
      <trkpt lat="46.15663" lon="4.61037">
        <ele>431.4</ele>
        <time>2022-06-25T14:34:41Z</time>
      </trkpt>
      <trkpt lat="46.15668" lon="4.61027">
        <ele>431.2</ele>
        <time>2022-06-25T14:34:42Z</time>
      </trkpt>
      <trkpt lat="46.15674" lon="4.61017">
        <ele>430.8</ele>
        <time>2022-06-25T14:34:43Z</time>
      </trkpt>
      <trkpt lat="46.1568" lon="4.61006">
        <ele>430.4</ele>
        <time>2022-06-25T14:34:44Z</time>
      </trkpt>
      <trkpt lat="46.15684" lon="4.60994">
        <ele>430</ele>
        <time>2022-06-25T14:34:45Z</time>
      </trkpt>
      <trkpt lat="46.15685" lon="4.60981">
        <ele>429.4</ele>
        <time>2022-06-25T14:34:46Z</time>
      </trkpt>
      <trkpt lat="46.15683" lon="4.60969">
        <ele>429</ele>
        <time>2022-06-25T14:34:47Z</time>
      </trkpt>
      <trkpt lat="46.1568" lon="4.60958">
        <ele>428.6</ele>
        <time>2022-06-25T14:34:48Z</time>
      </trkpt>
      <trkpt lat="46.15674" lon="4.60948">
        <ele>428.6</ele>
        <time>2022-06-25T14:34:49Z</time>
      </trkpt>
      <trkpt lat="46.15668" lon="4.6094">
        <ele>428.4</ele>
        <time>2022-06-25T14:34:50Z</time>
      </trkpt>
      <trkpt lat="46.15662" lon="4.60933">
        <ele>428.4</ele>
        <time>2022-06-25T14:34:51Z</time>
      </trkpt>
      <trkpt lat="46.15655" lon="4.60926">
        <ele>428.4</ele>
        <time>2022-06-25T14:34:52Z</time>
      </trkpt>
      <trkpt lat="46.15649" lon="4.60919">
        <ele>428.4</ele>
        <time>2022-06-25T14:34:53Z</time>
      </trkpt>
      <trkpt lat="46.15644" lon="4.60912">
        <ele>428.4</ele>
        <time>2022-06-25T14:34:54Z</time>
      </trkpt>
      <trkpt lat="46.1564" lon="4.60905">
        <ele>428.4</ele>
        <time>2022-06-25T14:34:55Z</time>
      </trkpt>
      <trkpt lat="46.15636" lon="4.60898">
        <ele>428.4</ele>
        <time>2022-06-25T14:34:56Z</time>
      </trkpt>
      <trkpt lat="46.15632" lon="4.60891">
        <ele>428.8</ele>
        <time>2022-06-25T14:34:57Z</time>
      </trkpt>
      <trkpt lat="46.15629" lon="4.60883">
        <ele>428.8</ele>
        <time>2022-06-25T14:34:58Z</time>
      </trkpt>
      <trkpt lat="46.15626" lon="4.60876">
        <ele>429</ele>
        <time>2022-06-25T14:34:59Z</time>
      </trkpt>
      <trkpt lat="46.15623" lon="4.60869">
        <ele>429</ele>
        <time>2022-06-25T14:35:00Z</time>
      </trkpt>
      <trkpt lat="46.15621" lon="4.60862">
        <ele>429.4</ele>
        <time>2022-06-25T14:35:01Z</time>
      </trkpt>
      <trkpt lat="46.15618" lon="4.60855">
        <ele>429.4</ele>
        <time>2022-06-25T14:35:02Z</time>
      </trkpt>
      <trkpt lat="46.15615" lon="4.60849">
        <ele>429.6</ele>
        <time>2022-06-25T14:35:03Z</time>
      </trkpt>
      <trkpt lat="46.15613" lon="4.60842">
        <ele>429.6</ele>
        <time>2022-06-25T14:35:04Z</time>
      </trkpt>
      <trkpt lat="46.1561" lon="4.60836">
        <ele>430</ele>
        <time>2022-06-25T14:35:05Z</time>
      </trkpt>
      <trkpt lat="46.15608" lon="4.60829">
        <ele>430.2</ele>
        <time>2022-06-25T14:35:06Z</time>
      </trkpt>
      <trkpt lat="46.15606" lon="4.60823">
        <ele>430.2</ele>
        <time>2022-06-25T14:35:07Z</time>
      </trkpt>
      <trkpt lat="46.15603" lon="4.60817">
        <ele>430.6</ele>
        <time>2022-06-25T14:35:08Z</time>
      </trkpt>
      <trkpt lat="46.15601" lon="4.60811">
        <ele>430.6</ele>
        <time>2022-06-25T14:35:09Z</time>
      </trkpt>
      <trkpt lat="46.15599" lon="4.60806">
        <ele>430.8</ele>
        <time>2022-06-25T14:35:10Z</time>
      </trkpt>
      <trkpt lat="46.15596" lon="4.608">
        <ele>430.8</ele>
        <time>2022-06-25T14:35:11Z</time>
      </trkpt>
      <trkpt lat="46.15593" lon="4.60794">
        <ele>430.8</ele>
        <time>2022-06-25T14:35:12Z</time>
      </trkpt>
      <trkpt lat="46.1559" lon="4.60788">
        <ele>430.8</ele>
        <time>2022-06-25T14:35:13Z</time>
      </trkpt>
      <trkpt lat="46.15586" lon="4.60782">
        <ele>430.8</ele>
        <time>2022-06-25T14:35:14Z</time>
      </trkpt>
      <trkpt lat="46.15583" lon="4.60775">
        <ele>430.8</ele>
        <time>2022-06-25T14:35:15Z</time>
      </trkpt>
      <trkpt lat="46.15579" lon="4.60769">
        <ele>430.8</ele>
        <time>2022-06-25T14:35:16Z</time>
      </trkpt>
      <trkpt lat="46.15575" lon="4.60762">
        <ele>431</ele>
        <time>2022-06-25T14:35:17Z</time>
      </trkpt>
      <trkpt lat="46.15571" lon="4.60755">
        <ele>431</ele>
        <time>2022-06-25T14:35:18Z</time>
      </trkpt>
      <trkpt lat="46.15567" lon="4.60748">
        <ele>431</ele>
        <time>2022-06-25T14:35:19Z</time>
      </trkpt>
      <trkpt lat="46.15563" lon="4.6074">
        <ele>431</ele>
        <time>2022-06-25T14:35:20Z</time>
      </trkpt>
      <trkpt lat="46.15559" lon="4.60733">
        <ele>430.8</ele>
        <time>2022-06-25T14:35:21Z</time>
      </trkpt>
      <trkpt lat="46.15555" lon="4.60726">
        <ele>430.8</ele>
        <time>2022-06-25T14:35:22Z</time>
      </trkpt>
      <trkpt lat="46.15551" lon="4.60718">
        <ele>430.8</ele>
        <time>2022-06-25T14:35:23Z</time>
      </trkpt>
      <trkpt lat="46.15547" lon="4.60711">
        <ele>430.8</ele>
        <time>2022-06-25T14:35:24Z</time>
      </trkpt>
      <trkpt lat="46.15543" lon="4.60703">
        <ele>430.4</ele>
        <time>2022-06-25T14:35:25Z</time>
      </trkpt>
      <trkpt lat="46.15539" lon="4.60696">
        <ele>430.4</ele>
        <time>2022-06-25T14:35:26Z</time>
      </trkpt>
      <trkpt lat="46.15534" lon="4.60688">
        <ele>430.4</ele>
        <time>2022-06-25T14:35:27Z</time>
      </trkpt>
      <trkpt lat="46.1553" lon="4.6068">
        <ele>430.2</ele>
        <time>2022-06-25T14:35:28Z</time>
      </trkpt>
      <trkpt lat="46.15526" lon="4.60673">
        <ele>430.2</ele>
        <time>2022-06-25T14:35:29Z</time>
      </trkpt>
      <trkpt lat="46.15521" lon="4.60666">
        <ele>429.8</ele>
        <time>2022-06-25T14:35:30Z</time>
      </trkpt>
      <trkpt lat="46.15517" lon="4.60658">
        <ele>429.8</ele>
        <time>2022-06-25T14:35:31Z</time>
      </trkpt>
      <trkpt lat="46.15512" lon="4.60651">
        <ele>429.4</ele>
        <time>2022-06-25T14:35:32Z</time>
      </trkpt>
      <trkpt lat="46.15507" lon="4.60644">
        <ele>429.4</ele>
        <time>2022-06-25T14:35:33Z</time>
      </trkpt>
      <trkpt lat="46.15501" lon="4.60636">
        <ele>429</ele>
        <time>2022-06-25T14:35:34Z</time>
      </trkpt>
      <trkpt lat="46.15495" lon="4.6063">
        <ele>428.8</ele>
        <time>2022-06-25T14:35:35Z</time>
      </trkpt>
      <trkpt lat="46.1549" lon="4.60623">
        <ele>428.6</ele>
        <time>2022-06-25T14:35:36Z</time>
      </trkpt>
      <trkpt lat="46.15484" lon="4.60616">
        <ele>428.2</ele>
        <time>2022-06-25T14:35:37Z</time>
      </trkpt>
      <trkpt lat="46.15478" lon="4.60609">
        <ele>428</ele>
        <time>2022-06-25T14:35:38Z</time>
      </trkpt>
      <trkpt lat="46.15472" lon="4.60602">
        <ele>427.8</ele>
        <time>2022-06-25T14:35:39Z</time>
      </trkpt>
      <trkpt lat="46.15466" lon="4.60595">
        <ele>427.6</ele>
        <time>2022-06-25T14:35:40Z</time>
      </trkpt>
      <trkpt lat="46.1546" lon="4.60588">
        <ele>427.2</ele>
        <time>2022-06-25T14:35:41Z</time>
      </trkpt>
      <trkpt lat="46.15454" lon="4.6058">
        <ele>426.8</ele>
        <time>2022-06-25T14:35:42Z</time>
      </trkpt>
      <trkpt lat="46.15448" lon="4.60573">
        <ele>426.6</ele>
        <time>2022-06-25T14:35:43Z</time>
      </trkpt>
      <trkpt lat="46.15442" lon="4.60566">
        <ele>426.4</ele>
        <time>2022-06-25T14:35:44Z</time>
      </trkpt>
      <trkpt lat="46.15435" lon="4.60558">
        <ele>426</ele>
        <time>2022-06-25T14:35:45Z</time>
      </trkpt>
      <trkpt lat="46.15429" lon="4.60551">
        <ele>425.6</ele>
        <time>2022-06-25T14:35:46Z</time>
      </trkpt>
      <trkpt lat="46.15422" lon="4.60543">
        <ele>425.2</ele>
        <time>2022-06-25T14:35:47Z</time>
      </trkpt>
      <trkpt lat="46.15416" lon="4.60535">
        <ele>424.8</ele>
        <time>2022-06-25T14:35:48Z</time>
      </trkpt>
      <trkpt lat="46.15409" lon="4.60526">
        <ele>424.4</ele>
        <time>2022-06-25T14:35:49Z</time>
      </trkpt>
      <trkpt lat="46.15402" lon="4.60518">
        <ele>424</ele>
        <time>2022-06-25T14:35:50Z</time>
      </trkpt>
      <trkpt lat="46.15393" lon="4.60509">
        <ele>423.6</ele>
        <time>2022-06-25T14:35:51Z</time>
      </trkpt>
      <trkpt lat="46.15385" lon="4.60501">
        <ele>423.2</ele>
        <time>2022-06-25T14:35:52Z</time>
      </trkpt>
      <trkpt lat="46.15377" lon="4.60492">
        <ele>422.8</ele>
        <time>2022-06-25T14:35:53Z</time>
      </trkpt>
      <trkpt lat="46.15369" lon="4.60484">
        <ele>422.4</ele>
        <time>2022-06-25T14:35:54Z</time>
      </trkpt>
      <trkpt lat="46.15361" lon="4.60474">
        <ele>421.6</ele>
        <time>2022-06-25T14:35:55Z</time>
      </trkpt>
      <trkpt lat="46.15353" lon="4.60464">
        <ele>421</ele>
        <time>2022-06-25T14:35:56Z</time>
      </trkpt>
      <trkpt lat="46.15345" lon="4.60452">
        <ele>420.4</ele>
        <time>2022-06-25T14:35:57Z</time>
      </trkpt>
      <trkpt lat="46.15337" lon="4.60442">
        <ele>420</ele>
        <time>2022-06-25T14:35:58Z</time>
      </trkpt>
      <trkpt lat="46.15329" lon="4.60432">
        <ele>419.2</ele>
        <time>2022-06-25T14:35:59Z</time>
      </trkpt>
      <trkpt lat="46.15322" lon="4.60423">
        <ele>418.6</ele>
        <time>2022-06-25T14:36:00Z</time>
      </trkpt>
      <trkpt lat="46.15315" lon="4.60411">
        <ele>417.8</ele>
        <time>2022-06-25T14:36:01Z</time>
      </trkpt>
      <trkpt lat="46.15307" lon="4.60404">
        <ele>417</ele>
        <time>2022-06-25T14:36:02Z</time>
      </trkpt>
      <trkpt lat="46.15299" lon="4.60398">
        <ele>416.6</ele>
        <time>2022-06-25T14:36:03Z</time>
      </trkpt>
      <trkpt lat="46.1529" lon="4.60394">
        <ele>416</ele>
        <time>2022-06-25T14:36:04Z</time>
      </trkpt>
      <trkpt lat="46.1528" lon="4.60396">
        <ele>415.6</ele>
        <time>2022-06-25T14:36:05Z</time>
      </trkpt>
      <trkpt lat="46.15271" lon="4.60397">
        <ele>415</ele>
        <time>2022-06-25T14:36:06Z</time>
      </trkpt>
      <trkpt lat="46.15262" lon="4.60398">
        <ele>414.8</ele>
        <time>2022-06-25T14:36:07Z</time>
      </trkpt>
      <trkpt lat="46.15251" lon="4.60399">
        <ele>414.4</ele>
        <time>2022-06-25T14:36:08Z</time>
      </trkpt>
      <trkpt lat="46.15241" lon="4.60401">
        <ele>413.8</ele>
        <time>2022-06-25T14:36:09Z</time>
      </trkpt>
      <trkpt lat="46.15231" lon="4.60403">
        <ele>413.2</ele>
        <time>2022-06-25T14:36:10Z</time>
      </trkpt>
      <trkpt lat="46.15221" lon="4.60405">
        <ele>412.8</ele>
        <time>2022-06-25T14:36:11Z</time>
      </trkpt>
      <trkpt lat="46.15211" lon="4.60407">
        <ele>412.4</ele>
        <time>2022-06-25T14:36:12Z</time>
      </trkpt>
      <trkpt lat="46.15201" lon="4.60409">
        <ele>411.8</ele>
        <time>2022-06-25T14:36:13Z</time>
      </trkpt>
      <trkpt lat="46.15191" lon="4.60411">
        <ele>411.4</ele>
        <time>2022-06-25T14:36:14Z</time>
      </trkpt>
      <trkpt lat="46.15181" lon="4.60414">
        <ele>410.6</ele>
        <time>2022-06-25T14:36:15Z</time>
      </trkpt>
      <trkpt lat="46.15162" lon="4.60426">
        <ele>410.2</ele>
        <time>2022-06-25T14:36:16Z</time>
      </trkpt>
      <trkpt lat="46.15154" lon="4.60434">
        <ele>409.6</ele>
        <time>2022-06-25T14:36:17Z</time>
      </trkpt>
      <trkpt lat="46.15146" lon="4.60444">
        <ele>408.8</ele>
        <time>2022-06-25T14:36:18Z</time>
      </trkpt>
      <trkpt lat="46.15139" lon="4.60456">
        <ele>407.6</ele>
        <time>2022-06-25T14:36:19Z</time>
      </trkpt>
      <trkpt lat="46.15134" lon="4.60469">
        <ele>407</ele>
        <time>2022-06-25T14:36:21Z</time>
      </trkpt>
      <trkpt lat="46.15128" lon="4.60481">
        <ele>406</ele>
        <time>2022-06-25T14:36:22Z</time>
      </trkpt>
      <trkpt lat="46.15121" lon="4.60492">
        <ele>405.4</ele>
        <time>2022-06-25T14:36:23Z</time>
      </trkpt>
      <trkpt lat="46.15114" lon="4.60502">
        <ele>404.6</ele>
        <time>2022-06-25T14:36:24Z</time>
      </trkpt>
      <trkpt lat="46.15106" lon="4.60511">
        <ele>404</ele>
        <time>2022-06-25T14:36:25Z</time>
      </trkpt>
      <trkpt lat="46.15097" lon="4.60517">
        <ele>403.4</ele>
        <time>2022-06-25T14:36:26Z</time>
      </trkpt>
      <trkpt lat="46.15088" lon="4.6052">
        <ele>403</ele>
        <time>2022-06-25T14:36:27Z</time>
      </trkpt>
      <trkpt lat="46.15078" lon="4.60521">
        <ele>402.6</ele>
        <time>2022-06-25T14:36:28Z</time>
      </trkpt>
      <trkpt lat="46.15068" lon="4.60522">
        <ele>402</ele>
        <time>2022-06-25T14:36:29Z</time>
      </trkpt>
      <trkpt lat="46.15057" lon="4.60523">
        <ele>401.6</ele>
        <time>2022-06-25T14:36:30Z</time>
      </trkpt>
      <trkpt lat="46.15048" lon="4.60525">
        <ele>401</ele>
        <time>2022-06-25T14:36:31Z</time>
      </trkpt>
      <trkpt lat="46.15037" lon="4.60527">
        <ele>400.6</ele>
        <time>2022-06-25T14:36:32Z</time>
      </trkpt>
      <trkpt lat="46.15027" lon="4.60529">
        <ele>399.8</ele>
        <time>2022-06-25T14:36:33Z</time>
      </trkpt>
      <trkpt lat="46.15017" lon="4.6053">
        <ele>399.2</ele>
        <time>2022-06-25T14:36:34Z</time>
      </trkpt>
      <trkpt lat="46.15007" lon="4.60531">
        <ele>398.4</ele>
        <time>2022-06-25T14:36:35Z</time>
      </trkpt>
      <trkpt lat="46.14996" lon="4.60527">
        <ele>397.8</ele>
        <time>2022-06-25T14:36:36Z</time>
      </trkpt>
      <trkpt lat="46.14986" lon="4.6052">
        <ele>397.4</ele>
        <time>2022-06-25T14:36:37Z</time>
      </trkpt>
      <trkpt lat="46.14976" lon="4.60512">
        <ele>396.8</ele>
        <time>2022-06-25T14:36:38Z</time>
      </trkpt>
      <trkpt lat="46.14967" lon="4.60503">
        <ele>396.2</ele>
        <time>2022-06-25T14:36:39Z</time>
      </trkpt>
      <trkpt lat="46.14959" lon="4.60493">
        <ele>395.6</ele>
        <time>2022-06-25T14:36:40Z</time>
      </trkpt>
      <trkpt lat="46.14951" lon="4.60484">
        <ele>395</ele>
        <time>2022-06-25T14:36:41Z</time>
      </trkpt>
      <trkpt lat="46.14943" lon="4.60477">
        <ele>394.6</ele>
        <time>2022-06-25T14:36:42Z</time>
      </trkpt>
      <trkpt lat="46.14935" lon="4.6047">
        <ele>394</ele>
        <time>2022-06-25T14:36:43Z</time>
      </trkpt>
      <trkpt lat="46.14928" lon="4.60463">
        <ele>393.4</ele>
        <time>2022-06-25T14:36:44Z</time>
      </trkpt>
      <trkpt lat="46.1492" lon="4.60456">
        <ele>393</ele>
        <time>2022-06-25T14:36:45Z</time>
      </trkpt>
      <trkpt lat="46.14913" lon="4.60449">
        <ele>392.4</ele>
        <time>2022-06-25T14:36:46Z</time>
      </trkpt>
      <trkpt lat="46.14905" lon="4.60442">
        <ele>391.8</ele>
        <time>2022-06-25T14:36:47Z</time>
      </trkpt>
      <trkpt lat="46.14899" lon="4.60436">
        <ele>391.4</ele>
        <time>2022-06-25T14:36:48Z</time>
      </trkpt>
      <trkpt lat="46.14892" lon="4.6043">
        <ele>391</ele>
        <time>2022-06-25T14:36:49Z</time>
      </trkpt>
      <trkpt lat="46.14886" lon="4.60425">
        <ele>390.4</ele>
        <time>2022-06-25T14:36:50Z</time>
      </trkpt>
      <trkpt lat="46.14881" lon="4.60422">
        <ele>389.8</ele>
        <time>2022-06-25T14:36:51Z</time>
      </trkpt>
      <trkpt lat="46.14877" lon="4.60418">
        <ele>389.4</ele>
        <time>2022-06-25T14:36:52Z</time>
      </trkpt>
      <trkpt lat="46.14874" lon="4.60416">
        <ele>388.8</ele>
        <time>2022-06-25T14:36:53Z</time>
      </trkpt>
      <trkpt lat="46.14871" lon="4.60415">
        <ele>388.6</ele>
        <time>2022-06-25T14:36:54Z</time>
      </trkpt>
      <trkpt lat="46.14869" lon="4.60414">
        <ele>388.2</ele>
        <time>2022-06-25T14:36:55Z</time>
      </trkpt>
      <trkpt lat="46.14868" lon="4.60412">
        <ele>388</ele>
        <time>2022-06-25T14:36:56Z</time>
      </trkpt>
      <trkpt lat="46.14867" lon="4.60411">
        <ele>387.8</ele>
        <time>2022-06-25T14:36:57Z</time>
      </trkpt>
      <trkpt lat="46.14866" lon="4.60411">
        <ele>387.4</ele>
        <time>2022-06-25T14:36:58Z</time>
      </trkpt>
      <trkpt lat="46.14866" lon="4.60411">
        <ele>387.2</ele>
        <time>2022-06-25T14:37:00Z</time>
      </trkpt>
      <trkpt lat="46.14863" lon="4.6041">
        <ele>386.8</ele>
        <time>2022-06-25T14:37:49Z</time>
      </trkpt>
      <trkpt lat="46.14861" lon="4.6041">
        <ele>386.8</ele>
        <time>2022-06-25T14:37:50Z</time>
      </trkpt>
      <trkpt lat="46.14859" lon="4.60409">
        <ele>386.8</ele>
        <time>2022-06-25T14:37:51Z</time>
      </trkpt>
      <trkpt lat="46.14857" lon="4.60408">
        <ele>386.8</ele>
        <time>2022-06-25T14:37:52Z</time>
      </trkpt>
      <trkpt lat="46.14854" lon="4.60406">
        <ele>386.6</ele>
        <time>2022-06-25T14:37:53Z</time>
      </trkpt>
      <trkpt lat="46.1485" lon="4.60404">
        <ele>386.6</ele>
        <time>2022-06-25T14:37:54Z</time>
      </trkpt>
      <trkpt lat="46.14847" lon="4.60402">
        <ele>386.6</ele>
        <time>2022-06-25T14:37:55Z</time>
      </trkpt>
      <trkpt lat="46.14842" lon="4.604">
        <ele>386.2</ele>
        <time>2022-06-25T14:37:56Z</time>
      </trkpt>
      <trkpt lat="46.14838" lon="4.60398">
        <ele>386.2</ele>
        <time>2022-06-25T14:37:57Z</time>
      </trkpt>
      <trkpt lat="46.14833" lon="4.60395">
        <ele>386</ele>
        <time>2022-06-25T14:37:58Z</time>
      </trkpt>
      <trkpt lat="46.14827" lon="4.60393">
        <ele>386</ele>
        <time>2022-06-25T14:37:59Z</time>
      </trkpt>
      <trkpt lat="46.14822" lon="4.60391">
        <ele>386</ele>
        <time>2022-06-25T14:38:00Z</time>
      </trkpt>
      <trkpt lat="46.14816" lon="4.60388">
        <ele>385.6</ele>
        <time>2022-06-25T14:38:01Z</time>
      </trkpt>
      <trkpt lat="46.14811" lon="4.60385">
        <ele>385.6</ele>
        <time>2022-06-25T14:38:02Z</time>
      </trkpt>
      <trkpt lat="46.14805" lon="4.60382">
        <ele>385.2</ele>
        <time>2022-06-25T14:38:03Z</time>
      </trkpt>
      <trkpt lat="46.14798" lon="4.60379">
        <ele>385.2</ele>
        <time>2022-06-25T14:38:04Z</time>
      </trkpt>
      <trkpt lat="46.14792" lon="4.60376">
        <ele>384.8</ele>
        <time>2022-06-25T14:38:05Z</time>
      </trkpt>
      <trkpt lat="46.14785" lon="4.60374">
        <ele>384.6</ele>
        <time>2022-06-25T14:38:06Z</time>
      </trkpt>
      <trkpt lat="46.14778" lon="4.60372">
        <ele>384.4</ele>
        <time>2022-06-25T14:38:07Z</time>
      </trkpt>
      <trkpt lat="46.14771" lon="4.60371">
        <ele>384</ele>
        <time>2022-06-25T14:38:08Z</time>
      </trkpt>
      <trkpt lat="46.14763" lon="4.6037">
        <ele>383.8</ele>
        <time>2022-06-25T14:38:09Z</time>
      </trkpt>
      <trkpt lat="46.14756" lon="4.6037">
        <ele>383.6</ele>
        <time>2022-06-25T14:38:10Z</time>
      </trkpt>
      <trkpt lat="46.14748" lon="4.6037">
        <ele>383.2</ele>
        <time>2022-06-25T14:38:11Z</time>
      </trkpt>
      <trkpt lat="46.1474" lon="4.60371">
        <ele>383</ele>
        <time>2022-06-25T14:38:12Z</time>
      </trkpt>
      <trkpt lat="46.14732" lon="4.60373">
        <ele>382.6</ele>
        <time>2022-06-25T14:38:13Z</time>
      </trkpt>
      <trkpt lat="46.14724" lon="4.60374">
        <ele>382.2</ele>
        <time>2022-06-25T14:38:14Z</time>
      </trkpt>
      <trkpt lat="46.14715" lon="4.60375">
        <ele>381.8</ele>
        <time>2022-06-25T14:38:15Z</time>
      </trkpt>
      <trkpt lat="46.14707" lon="4.60377">
        <ele>381.6</ele>
        <time>2022-06-25T14:38:16Z</time>
      </trkpt>
      <trkpt lat="46.14699" lon="4.60378">
        <ele>381.2</ele>
        <time>2022-06-25T14:38:17Z</time>
      </trkpt>
      <trkpt lat="46.1469" lon="4.6038">
        <ele>380.8</ele>
        <time>2022-06-25T14:38:18Z</time>
      </trkpt>
      <trkpt lat="46.14682" lon="4.60382">
        <ele>380.6</ele>
        <time>2022-06-25T14:38:19Z</time>
      </trkpt>
      <trkpt lat="46.14675" lon="4.60383">
        <ele>380.2</ele>
        <time>2022-06-25T14:38:20Z</time>
      </trkpt>
      <trkpt lat="46.14668" lon="4.60383">
        <ele>379.6</ele>
        <time>2022-06-25T14:38:21Z</time>
      </trkpt>
      <trkpt lat="46.14662" lon="4.6038">
        <ele>379.2</ele>
        <time>2022-06-25T14:38:22Z</time>
      </trkpt>
      <trkpt lat="46.14658" lon="4.60375">
        <ele>378.8</ele>
        <time>2022-06-25T14:38:23Z</time>
      </trkpt>
      <trkpt lat="46.14655" lon="4.60367">
        <ele>378.2</ele>
        <time>2022-06-25T14:38:24Z</time>
      </trkpt>
      <trkpt lat="46.14655" lon="4.60359">
        <ele>377.8</ele>
        <time>2022-06-25T14:38:25Z</time>
      </trkpt>
      <trkpt lat="46.14657" lon="4.6035">
        <ele>377.2</ele>
        <time>2022-06-25T14:38:26Z</time>
      </trkpt>
      <trkpt lat="46.14661" lon="4.60342">
        <ele>376.6</ele>
        <time>2022-06-25T14:38:27Z</time>
      </trkpt>
      <trkpt lat="46.14668" lon="4.60337">
        <ele>376.2</ele>
        <time>2022-06-25T14:38:28Z</time>
      </trkpt>
      <trkpt lat="46.14675" lon="4.60333">
        <ele>375.8</ele>
        <time>2022-06-25T14:38:29Z</time>
      </trkpt>
      <trkpt lat="46.14682" lon="4.60329">
        <ele>375.4</ele>
        <time>2022-06-25T14:38:30Z</time>
      </trkpt>
      <trkpt lat="46.1469" lon="4.60326">
        <ele>375</ele>
        <time>2022-06-25T14:38:31Z</time>
      </trkpt>
      <trkpt lat="46.14699" lon="4.60323">
        <ele>374.4</ele>
        <time>2022-06-25T14:38:32Z</time>
      </trkpt>
      <trkpt lat="46.14707" lon="4.60319">
        <ele>374</ele>
        <time>2022-06-25T14:38:33Z</time>
      </trkpt>
      <trkpt lat="46.14716" lon="4.60315">
        <ele>373.6</ele>
        <time>2022-06-25T14:38:34Z</time>
      </trkpt>
      <trkpt lat="46.14725" lon="4.60311">
        <ele>373.2</ele>
        <time>2022-06-25T14:38:35Z</time>
      </trkpt>
      <trkpt lat="46.14735" lon="4.60307">
        <ele>372.6</ele>
        <time>2022-06-25T14:38:36Z</time>
      </trkpt>
      <trkpt lat="46.14745" lon="4.60302">
        <ele>372.2</ele>
        <time>2022-06-25T14:38:37Z</time>
      </trkpt>
      <trkpt lat="46.14756" lon="4.60297">
        <ele>371.6</ele>
        <time>2022-06-25T14:38:38Z</time>
      </trkpt>
      <trkpt lat="46.14766" lon="4.60293">
        <ele>371</ele>
        <time>2022-06-25T14:38:39Z</time>
      </trkpt>
      <trkpt lat="46.14776" lon="4.60289">
        <ele>370.4</ele>
        <time>2022-06-25T14:38:40Z</time>
      </trkpt>
      <trkpt lat="46.14787" lon="4.60284">
        <ele>369.8</ele>
        <time>2022-06-25T14:38:41Z</time>
      </trkpt>
      <trkpt lat="46.14798" lon="4.60279">
        <ele>369.2</ele>
        <time>2022-06-25T14:38:42Z</time>
      </trkpt>
      <trkpt lat="46.14808" lon="4.60275">
        <ele>368.8</ele>
        <time>2022-06-25T14:38:43Z</time>
      </trkpt>
      <trkpt lat="46.14819" lon="4.60272">
        <ele>368.2</ele>
        <time>2022-06-25T14:38:44Z</time>
      </trkpt>
      <trkpt lat="46.14829" lon="4.6027">
        <ele>367.6</ele>
        <time>2022-06-25T14:38:45Z</time>
      </trkpt>
      <trkpt lat="46.14838" lon="4.60268">
        <ele>367</ele>
        <time>2022-06-25T14:38:46Z</time>
      </trkpt>
      <trkpt lat="46.14847" lon="4.60268">
        <ele>366.2</ele>
        <time>2022-06-25T14:38:47Z</time>
      </trkpt>
      <trkpt lat="46.14855" lon="4.60268">
        <ele>365.4</ele>
        <time>2022-06-25T14:38:48Z</time>
      </trkpt>
      <trkpt lat="46.14863" lon="4.60266">
        <ele>364.8</ele>
        <time>2022-06-25T14:38:49Z</time>
      </trkpt>
      <trkpt lat="46.1487" lon="4.60263">
        <ele>364.2</ele>
        <time>2022-06-25T14:38:50Z</time>
      </trkpt>
      <trkpt lat="46.14877" lon="4.60259">
        <ele>363.8</ele>
        <time>2022-06-25T14:38:51Z</time>
      </trkpt>
      <trkpt lat="46.14884" lon="4.60252">
        <ele>363.2</ele>
        <time>2022-06-25T14:38:52Z</time>
      </trkpt>
      <trkpt lat="46.14888" lon="4.60243">
        <ele>362.4</ele>
        <time>2022-06-25T14:38:53Z</time>
      </trkpt>
      <trkpt lat="46.14891" lon="4.60232">
        <ele>361.8</ele>
        <time>2022-06-25T14:38:54Z</time>
      </trkpt>
      <trkpt lat="46.1489" lon="4.60218">
        <ele>361.4</ele>
        <time>2022-06-25T14:38:55Z</time>
      </trkpt>
      <trkpt lat="46.14888" lon="4.60206">
        <ele>360.8</ele>
        <time>2022-06-25T14:38:56Z</time>
      </trkpt>
      <trkpt lat="46.14884" lon="4.60194">
        <ele>360.2</ele>
        <time>2022-06-25T14:38:57Z</time>
      </trkpt>
      <trkpt lat="46.14879" lon="4.60182">
        <ele>359.8</ele>
        <time>2022-06-25T14:38:58Z</time>
      </trkpt>
      <trkpt lat="46.14873" lon="4.60171">
        <ele>359.4</ele>
        <time>2022-06-25T14:38:59Z</time>
      </trkpt>
      <trkpt lat="46.14868" lon="4.60158">
        <ele>358.8</ele>
        <time>2022-06-25T14:39:00Z</time>
      </trkpt>
      <trkpt lat="46.14862" lon="4.60145">
        <ele>358.2</ele>
        <time>2022-06-25T14:39:01Z</time>
      </trkpt>
      <trkpt lat="46.14857" lon="4.60132">
        <ele>357.6</ele>
        <time>2022-06-25T14:39:02Z</time>
      </trkpt>
      <trkpt lat="46.14853" lon="4.6012">
        <ele>357</ele>
        <time>2022-06-25T14:39:03Z</time>
      </trkpt>
      <trkpt lat="46.14849" lon="4.60107">
        <ele>356.4</ele>
        <time>2022-06-25T14:39:04Z</time>
      </trkpt>
      <trkpt lat="46.14847" lon="4.60094">
        <ele>355.8</ele>
        <time>2022-06-25T14:39:05Z</time>
      </trkpt>
      <trkpt lat="46.14847" lon="4.60081">
        <ele>355.2</ele>
        <time>2022-06-25T14:39:06Z</time>
      </trkpt>
      <trkpt lat="46.14849" lon="4.60067">
        <ele>354.6</ele>
        <time>2022-06-25T14:39:07Z</time>
      </trkpt>
      <trkpt lat="46.14852" lon="4.60054">
        <ele>354</ele>
        <time>2022-06-25T14:39:08Z</time>
      </trkpt>
      <trkpt lat="46.14857" lon="4.60041">
        <ele>353.4</ele>
        <time>2022-06-25T14:39:09Z</time>
      </trkpt>
      <trkpt lat="46.14861" lon="4.60029">
        <ele>353</ele>
        <time>2022-06-25T14:39:10Z</time>
      </trkpt>
      <trkpt lat="46.14866" lon="4.60016">
        <ele>352.4</ele>
        <time>2022-06-25T14:39:11Z</time>
      </trkpt>
      <trkpt lat="46.1487" lon="4.60004">
        <ele>351.8</ele>
        <time>2022-06-25T14:39:12Z</time>
      </trkpt>
      <trkpt lat="46.14875" lon="4.59991">
        <ele>351.2</ele>
        <time>2022-06-25T14:39:13Z</time>
      </trkpt>
      <trkpt lat="46.14879" lon="4.59978">
        <ele>350.6</ele>
        <time>2022-06-25T14:39:14Z</time>
      </trkpt>
      <trkpt lat="46.14882" lon="4.59964">
        <ele>350</ele>
        <time>2022-06-25T14:39:15Z</time>
      </trkpt>
      <trkpt lat="46.14885" lon="4.5995">
        <ele>349.4</ele>
        <time>2022-06-25T14:39:16Z</time>
      </trkpt>
      <trkpt lat="46.14887" lon="4.59935">
        <ele>348.8</ele>
        <time>2022-06-25T14:39:17Z</time>
      </trkpt>
      <trkpt lat="46.14888" lon="4.59921">
        <ele>348.2</ele>
        <time>2022-06-25T14:39:18Z</time>
      </trkpt>
      <trkpt lat="46.1489" lon="4.59908">
        <ele>347.4</ele>
        <time>2022-06-25T14:39:19Z</time>
      </trkpt>
      <trkpt lat="46.14891" lon="4.59894">
        <ele>346.6</ele>
        <time>2022-06-25T14:39:20Z</time>
      </trkpt>
      <trkpt lat="46.14893" lon="4.5988">
        <ele>345.8</ele>
        <time>2022-06-25T14:39:21Z</time>
      </trkpt>
      <trkpt lat="46.14895" lon="4.59867">
        <ele>345.2</ele>
        <time>2022-06-25T14:39:22Z</time>
      </trkpt>
      <trkpt lat="46.14897" lon="4.59854">
        <ele>344.4</ele>
        <time>2022-06-25T14:39:23Z</time>
      </trkpt>
      <trkpt lat="46.14899" lon="4.59841">
        <ele>343.8</ele>
        <time>2022-06-25T14:39:24Z</time>
      </trkpt>
      <trkpt lat="46.14902" lon="4.59828">
        <ele>343.2</ele>
        <time>2022-06-25T14:39:25Z</time>
      </trkpt>
      <trkpt lat="46.14905" lon="4.59816">
        <ele>342.6</ele>
        <time>2022-06-25T14:39:26Z</time>
      </trkpt>
      <trkpt lat="46.14909" lon="4.59803">
        <ele>341.8</ele>
        <time>2022-06-25T14:39:27Z</time>
      </trkpt>
      <trkpt lat="46.14913" lon="4.59789">
        <ele>341.2</ele>
        <time>2022-06-25T14:39:28Z</time>
      </trkpt>
      <trkpt lat="46.14917" lon="4.59777">
        <ele>340.8</ele>
        <time>2022-06-25T14:39:29Z</time>
      </trkpt>
      <trkpt lat="46.14921" lon="4.59765">
        <ele>340.2</ele>
        <time>2022-06-25T14:39:30Z</time>
      </trkpt>
      <trkpt lat="46.14926" lon="4.59753">
        <ele>339.6</ele>
        <time>2022-06-25T14:39:31Z</time>
      </trkpt>
      <trkpt lat="46.14931" lon="4.59741">
        <ele>339</ele>
        <time>2022-06-25T14:39:32Z</time>
      </trkpt>
      <trkpt lat="46.14937" lon="4.59731">
        <ele>338.6</ele>
        <time>2022-06-25T14:39:33Z</time>
      </trkpt>
      <trkpt lat="46.14944" lon="4.59722">
        <ele>338</ele>
        <time>2022-06-25T14:39:34Z</time>
      </trkpt>
      <trkpt lat="46.14951" lon="4.59714">
        <ele>337.6</ele>
        <time>2022-06-25T14:39:35Z</time>
      </trkpt>
      <trkpt lat="46.14958" lon="4.59707">
        <ele>337.4</ele>
        <time>2022-06-25T14:39:36Z</time>
      </trkpt>
      <trkpt lat="46.14966" lon="4.59701">
        <ele>337</ele>
        <time>2022-06-25T14:39:37Z</time>
      </trkpt>
      <trkpt lat="46.14974" lon="4.59696">
        <ele>336.6</ele>
        <time>2022-06-25T14:39:38Z</time>
      </trkpt>
      <trkpt lat="46.14982" lon="4.5969">
        <ele>336.4</ele>
        <time>2022-06-25T14:39:39Z</time>
      </trkpt>
      <trkpt lat="46.1499" lon="4.59685">
        <ele>336.2</ele>
        <time>2022-06-25T14:39:40Z</time>
      </trkpt>
      <trkpt lat="46.14998" lon="4.5968">
        <ele>335.8</ele>
        <time>2022-06-25T14:39:41Z</time>
      </trkpt>
      <trkpt lat="46.15007" lon="4.59675">
        <ele>335.8</ele>
        <time>2022-06-25T14:39:42Z</time>
      </trkpt>
      <trkpt lat="46.15015" lon="4.5967">
        <ele>335.4</ele>
        <time>2022-06-25T14:39:43Z</time>
      </trkpt>
      <trkpt lat="46.15023" lon="4.59665">
        <ele>335</ele>
        <time>2022-06-25T14:39:44Z</time>
      </trkpt>
      <trkpt lat="46.1503" lon="4.5966">
        <ele>334.8</ele>
        <time>2022-06-25T14:39:45Z</time>
      </trkpt>
      <trkpt lat="46.15038" lon="4.59656">
        <ele>334.4</ele>
        <time>2022-06-25T14:39:46Z</time>
      </trkpt>
      <trkpt lat="46.15046" lon="4.59651">
        <ele>334</ele>
        <time>2022-06-25T14:39:47Z</time>
      </trkpt>
      <trkpt lat="46.15053" lon="4.59645">
        <ele>333.6</ele>
        <time>2022-06-25T14:39:48Z</time>
      </trkpt>
      <trkpt lat="46.15059" lon="4.59638">
        <ele>333.2</ele>
        <time>2022-06-25T14:39:49Z</time>
      </trkpt>
      <trkpt lat="46.15065" lon="4.5963">
        <ele>332.8</ele>
        <time>2022-06-25T14:39:50Z</time>
      </trkpt>
      <trkpt lat="46.15069" lon="4.5962">
        <ele>332.4</ele>
        <time>2022-06-25T14:39:51Z</time>
      </trkpt>
      <trkpt lat="46.15072" lon="4.59611">
        <ele>332</ele>
        <time>2022-06-25T14:39:52Z</time>
      </trkpt>
      <trkpt lat="46.15074" lon="4.596">
        <ele>331.8</ele>
        <time>2022-06-25T14:39:53Z</time>
      </trkpt>
      <trkpt lat="46.15074" lon="4.59591">
        <ele>331.4</ele>
        <time>2022-06-25T14:39:54Z</time>
      </trkpt>
      <trkpt lat="46.15074" lon="4.59581">
        <ele>331</ele>
        <time>2022-06-25T14:39:55Z</time>
      </trkpt>
      <trkpt lat="46.15075" lon="4.59572">
        <ele>330.6</ele>
        <time>2022-06-25T14:39:56Z</time>
      </trkpt>
      <trkpt lat="46.15075" lon="4.59564">
        <ele>330.4</ele>
        <time>2022-06-25T14:39:57Z</time>
      </trkpt>
      <trkpt lat="46.15076" lon="4.59556">
        <ele>330</ele>
        <time>2022-06-25T14:39:58Z</time>
      </trkpt>
      <trkpt lat="46.15076" lon="4.59549">
        <ele>329.6</ele>
        <time>2022-06-25T14:39:59Z</time>
      </trkpt>
      <trkpt lat="46.15076" lon="4.59543">
        <ele>329.4</ele>
        <time>2022-06-25T14:40:00Z</time>
      </trkpt>
      <trkpt lat="46.15075" lon="4.59539">
        <ele>329</ele>
        <time>2022-06-25T14:40:01Z</time>
      </trkpt>
      <trkpt lat="46.15076" lon="4.59536">
        <ele>328.8</ele>
        <time>2022-06-25T14:40:02Z</time>
      </trkpt>
      <trkpt lat="46.15076" lon="4.59533">
        <ele>328.6</ele>
        <time>2022-06-25T14:40:03Z</time>
      </trkpt>
      <trkpt lat="46.15077" lon="4.5953">
        <ele>328.6</ele>
        <time>2022-06-25T14:40:04Z</time>
      </trkpt>
      <trkpt lat="46.15078" lon="4.59526">
        <ele>328.2</ele>
        <time>2022-06-25T14:40:05Z</time>
      </trkpt>
      <trkpt lat="46.1508" lon="4.59521">
        <ele>328.2</ele>
        <time>2022-06-25T14:40:06Z</time>
      </trkpt>
      <trkpt lat="46.15082" lon="4.59517">
        <ele>328</ele>
        <time>2022-06-25T14:40:07Z</time>
      </trkpt>
      <trkpt lat="46.15085" lon="4.59512">
        <ele>328</ele>
        <time>2022-06-25T14:40:08Z</time>
      </trkpt>
      <trkpt lat="46.15087" lon="4.59507">
        <ele>328</ele>
        <time>2022-06-25T14:40:09Z</time>
      </trkpt>
      <trkpt lat="46.1509" lon="4.59502">
        <ele>328</ele>
        <time>2022-06-25T14:40:10Z</time>
      </trkpt>
      <trkpt lat="46.15092" lon="4.59497">
        <ele>328</ele>
        <time>2022-06-25T14:40:11Z</time>
      </trkpt>
      <trkpt lat="46.15095" lon="4.59492">
        <ele>328</ele>
        <time>2022-06-25T14:40:12Z</time>
      </trkpt>
      <trkpt lat="46.15098" lon="4.59487">
        <ele>328</ele>
        <time>2022-06-25T14:40:13Z</time>
      </trkpt>
      <trkpt lat="46.151" lon="4.59481">
        <ele>328</ele>
        <time>2022-06-25T14:40:14Z</time>
      </trkpt>
      <trkpt lat="46.15103" lon="4.59476">
        <ele>328</ele>
        <time>2022-06-25T14:40:15Z</time>
      </trkpt>
      <trkpt lat="46.15106" lon="4.5947">
        <ele>328</ele>
        <time>2022-06-25T14:40:16Z</time>
      </trkpt>
      <trkpt lat="46.15109" lon="4.59465">
        <ele>328</ele>
        <time>2022-06-25T14:40:17Z</time>
      </trkpt>
      <trkpt lat="46.15112" lon="4.59459">
        <ele>328</ele>
        <time>2022-06-25T14:40:18Z</time>
      </trkpt>
      <trkpt lat="46.15115" lon="4.59454">
        <ele>328</ele>
        <time>2022-06-25T14:40:19Z</time>
      </trkpt>
      <trkpt lat="46.15118" lon="4.59448">
        <ele>328</ele>
        <time>2022-06-25T14:40:20Z</time>
      </trkpt>
      <trkpt lat="46.15121" lon="4.59442">
        <ele>328</ele>
        <time>2022-06-25T14:40:21Z</time>
      </trkpt>
      <trkpt lat="46.15124" lon="4.59437">
        <ele>328</ele>
        <time>2022-06-25T14:40:22Z</time>
      </trkpt>
      <trkpt lat="46.15127" lon="4.59431">
        <ele>328</ele>
        <time>2022-06-25T14:40:23Z</time>
      </trkpt>
      <trkpt lat="46.15131" lon="4.59426">
        <ele>328</ele>
        <time>2022-06-25T14:40:24Z</time>
      </trkpt>
      <trkpt lat="46.15134" lon="4.59421">
        <ele>328.2</ele>
        <time>2022-06-25T14:40:25Z</time>
      </trkpt>
      <trkpt lat="46.15137" lon="4.59416">
        <ele>328.2</ele>
        <time>2022-06-25T14:40:26Z</time>
      </trkpt>
      <trkpt lat="46.15139" lon="4.59411">
        <ele>328.2</ele>
        <time>2022-06-25T14:40:27Z</time>
      </trkpt>
      <trkpt lat="46.15142" lon="4.59406">
        <ele>328.2</ele>
        <time>2022-06-25T14:40:28Z</time>
      </trkpt>
      <trkpt lat="46.15145" lon="4.59401">
        <ele>328.4</ele>
        <time>2022-06-25T14:40:29Z</time>
      </trkpt>
      <trkpt lat="46.15147" lon="4.59394">
        <ele>328.4</ele>
        <time>2022-06-25T14:40:30Z</time>
      </trkpt>
      <trkpt lat="46.1515" lon="4.59389">
        <ele>328.4</ele>
        <time>2022-06-25T14:40:31Z</time>
      </trkpt>
      <trkpt lat="46.15153" lon="4.59383">
        <ele>328.4</ele>
        <time>2022-06-25T14:40:32Z</time>
      </trkpt>
      <trkpt lat="46.15156" lon="4.59377">
        <ele>328.6</ele>
        <time>2022-06-25T14:40:33Z</time>
      </trkpt>
      <trkpt lat="46.1516" lon="4.59371">
        <ele>328.6</ele>
        <time>2022-06-25T14:40:34Z</time>
      </trkpt>
      <trkpt lat="46.15163" lon="4.59365">
        <ele>328.6</ele>
        <time>2022-06-25T14:40:35Z</time>
      </trkpt>
      <trkpt lat="46.15166" lon="4.5936">
        <ele>328.6</ele>
        <time>2022-06-25T14:40:36Z</time>
      </trkpt>
      <trkpt lat="46.15169" lon="4.59354">
        <ele>328.6</ele>
        <time>2022-06-25T14:40:37Z</time>
      </trkpt>
      <trkpt lat="46.15173" lon="4.59348">
        <ele>328.6</ele>
        <time>2022-06-25T14:40:38Z</time>
      </trkpt>
      <trkpt lat="46.15176" lon="4.59343">
        <ele>329</ele>
        <time>2022-06-25T14:40:39Z</time>
      </trkpt>
      <trkpt lat="46.15179" lon="4.59337">
        <ele>329</ele>
        <time>2022-06-25T14:40:40Z</time>
      </trkpt>
      <trkpt lat="46.15182" lon="4.59332">
        <ele>329</ele>
        <time>2022-06-25T14:40:41Z</time>
      </trkpt>
      <trkpt lat="46.15186" lon="4.59327">
        <ele>329</ele>
        <time>2022-06-25T14:40:42Z</time>
      </trkpt>
      <trkpt lat="46.15189" lon="4.59321">
        <ele>329</ele>
        <time>2022-06-25T14:40:43Z</time>
      </trkpt>
      <trkpt lat="46.15193" lon="4.59315">
        <ele>329.2</ele>
        <time>2022-06-25T14:40:44Z</time>
      </trkpt>
      <trkpt lat="46.15196" lon="4.59309">
        <ele>329.2</ele>
        <time>2022-06-25T14:40:45Z</time>
      </trkpt>
      <trkpt lat="46.15199" lon="4.59304">
        <ele>329.2</ele>
        <time>2022-06-25T14:40:46Z</time>
      </trkpt>
      <trkpt lat="46.15203" lon="4.59298">
        <ele>329.2</ele>
        <time>2022-06-25T14:40:47Z</time>
      </trkpt>
      <trkpt lat="46.15206" lon="4.59292">
        <ele>329.2</ele>
        <time>2022-06-25T14:40:48Z</time>
      </trkpt>
      <trkpt lat="46.15209" lon="4.59286">
        <ele>329.4</ele>
        <time>2022-06-25T14:40:49Z</time>
      </trkpt>
      <trkpt lat="46.15212" lon="4.5928">
        <ele>329.4</ele>
        <time>2022-06-25T14:40:50Z</time>
      </trkpt>
      <trkpt lat="46.15216" lon="4.59274">
        <ele>329.4</ele>
        <time>2022-06-25T14:40:51Z</time>
      </trkpt>
      <trkpt lat="46.15219" lon="4.59269">
        <ele>329.4</ele>
        <time>2022-06-25T14:40:52Z</time>
      </trkpt>
      <trkpt lat="46.15222" lon="4.59263">
        <ele>329.6</ele>
        <time>2022-06-25T14:40:53Z</time>
      </trkpt>
      <trkpt lat="46.15226" lon="4.59257">
        <ele>329.6</ele>
        <time>2022-06-25T14:40:54Z</time>
      </trkpt>
      <trkpt lat="46.15229" lon="4.59251">
        <ele>329.6</ele>
        <time>2022-06-25T14:40:55Z</time>
      </trkpt>
      <trkpt lat="46.15233" lon="4.59245">
        <ele>329.8</ele>
        <time>2022-06-25T14:40:56Z</time>
      </trkpt>
      <trkpt lat="46.15236" lon="4.5924">
        <ele>329.8</ele>
        <time>2022-06-25T14:40:57Z</time>
      </trkpt>
      <trkpt lat="46.15239" lon="4.59234">
        <ele>329.8</ele>
        <time>2022-06-25T14:40:58Z</time>
      </trkpt>
      <trkpt lat="46.15243" lon="4.59228">
        <ele>330</ele>
        <time>2022-06-25T14:40:59Z</time>
      </trkpt>
      <trkpt lat="46.15246" lon="4.59222">
        <ele>330</ele>
        <time>2022-06-25T14:41:00Z</time>
      </trkpt>
      <trkpt lat="46.15249" lon="4.59216">
        <ele>330</ele>
        <time>2022-06-25T14:41:01Z</time>
      </trkpt>
      <trkpt lat="46.15252" lon="4.5921">
        <ele>330.2</ele>
        <time>2022-06-25T14:41:02Z</time>
      </trkpt>
      <trkpt lat="46.15256" lon="4.59204">
        <ele>330.2</ele>
        <time>2022-06-25T14:41:03Z</time>
      </trkpt>
      <trkpt lat="46.15259" lon="4.59199">
        <ele>330.2</ele>
        <time>2022-06-25T14:41:04Z</time>
      </trkpt>
      <trkpt lat="46.15262" lon="4.59193">
        <ele>330.2</ele>
        <time>2022-06-25T14:41:05Z</time>
      </trkpt>
      <trkpt lat="46.15265" lon="4.59187">
        <ele>330.6</ele>
        <time>2022-06-25T14:41:06Z</time>
      </trkpt>
      <trkpt lat="46.15269" lon="4.59181">
        <ele>330.6</ele>
        <time>2022-06-25T14:41:07Z</time>
      </trkpt>
      <trkpt lat="46.15272" lon="4.59175">
        <ele>330.8</ele>
        <time>2022-06-25T14:41:08Z</time>
      </trkpt>
      <trkpt lat="46.15275" lon="4.5917">
        <ele>330.8</ele>
        <time>2022-06-25T14:41:09Z</time>
      </trkpt>
      <trkpt lat="46.15279" lon="4.59165">
        <ele>331</ele>
        <time>2022-06-25T14:41:10Z</time>
      </trkpt>
      <trkpt lat="46.15282" lon="4.59159">
        <ele>331</ele>
        <time>2022-06-25T14:41:11Z</time>
      </trkpt>
      <trkpt lat="46.15285" lon="4.59153">
        <ele>331.2</ele>
        <time>2022-06-25T14:41:12Z</time>
      </trkpt>
      <trkpt lat="46.15288" lon="4.59147">
        <ele>331.2</ele>
        <time>2022-06-25T14:41:13Z</time>
      </trkpt>
      <trkpt lat="46.15291" lon="4.59142">
        <ele>331.6</ele>
        <time>2022-06-25T14:41:14Z</time>
      </trkpt>
      <trkpt lat="46.15294" lon="4.59136">
        <ele>331.6</ele>
        <time>2022-06-25T14:41:15Z</time>
      </trkpt>
      <trkpt lat="46.15297" lon="4.59131">
        <ele>331.8</ele>
        <time>2022-06-25T14:41:16Z</time>
      </trkpt>
      <trkpt lat="46.153" lon="4.59126">
        <ele>331.8</ele>
        <time>2022-06-25T14:41:17Z</time>
      </trkpt>
      <trkpt lat="46.15303" lon="4.59121">
        <ele>332</ele>
        <time>2022-06-25T14:41:18Z</time>
      </trkpt>
      <trkpt lat="46.15306" lon="4.59115">
        <ele>332</ele>
        <time>2022-06-25T14:41:19Z</time>
      </trkpt>
      <trkpt lat="46.15309" lon="4.5911">
        <ele>332</ele>
        <time>2022-06-25T14:41:20Z</time>
      </trkpt>
      <trkpt lat="46.15312" lon="4.59105">
        <ele>332.2</ele>
        <time>2022-06-25T14:41:21Z</time>
      </trkpt>
      <trkpt lat="46.15315" lon="4.59099">
        <ele>332.2</ele>
        <time>2022-06-25T14:41:22Z</time>
      </trkpt>
      <trkpt lat="46.15318" lon="4.59094">
        <ele>332.4</ele>
        <time>2022-06-25T14:41:23Z</time>
      </trkpt>
      <trkpt lat="46.15321" lon="4.59089">
        <ele>332.4</ele>
        <time>2022-06-25T14:41:24Z</time>
      </trkpt>
      <trkpt lat="46.15324" lon="4.59084">
        <ele>332.8</ele>
        <time>2022-06-25T14:41:25Z</time>
      </trkpt>
      <trkpt lat="46.15327" lon="4.59079">
        <ele>332.8</ele>
        <time>2022-06-25T14:41:26Z</time>
      </trkpt>
      <trkpt lat="46.1533" lon="4.59073">
        <ele>333</ele>
        <time>2022-06-25T14:41:27Z</time>
      </trkpt>
      <trkpt lat="46.15333" lon="4.59068">
        <ele>333</ele>
        <time>2022-06-25T14:41:28Z</time>
      </trkpt>
      <trkpt lat="46.15335" lon="4.59063">
        <ele>333.4</ele>
        <time>2022-06-25T14:41:29Z</time>
      </trkpt>
      <trkpt lat="46.15338" lon="4.59058">
        <ele>333.4</ele>
        <time>2022-06-25T14:41:30Z</time>
      </trkpt>
      <trkpt lat="46.1534" lon="4.59053">
        <ele>333.6</ele>
        <time>2022-06-25T14:41:31Z</time>
      </trkpt>
      <trkpt lat="46.15343" lon="4.59047">
        <ele>333.6</ele>
        <time>2022-06-25T14:41:32Z</time>
      </trkpt>
      <trkpt lat="46.15346" lon="4.59042">
        <ele>333.8</ele>
        <time>2022-06-25T14:41:33Z</time>
      </trkpt>
      <trkpt lat="46.15348" lon="4.59036">
        <ele>333.8</ele>
        <time>2022-06-25T14:41:34Z</time>
      </trkpt>
      <trkpt lat="46.15351" lon="4.59031">
        <ele>334.2</ele>
        <time>2022-06-25T14:41:35Z</time>
      </trkpt>
      <trkpt lat="46.15353" lon="4.59026">
        <ele>334.2</ele>
        <time>2022-06-25T14:41:36Z</time>
      </trkpt>
      <trkpt lat="46.15356" lon="4.59022">
        <ele>334.4</ele>
        <time>2022-06-25T14:41:37Z</time>
      </trkpt>
      <trkpt lat="46.15359" lon="4.59017">
        <ele>334.6</ele>
        <time>2022-06-25T14:41:38Z</time>
      </trkpt>
      <trkpt lat="46.15362" lon="4.59012">
        <ele>334.6</ele>
        <time>2022-06-25T14:41:39Z</time>
      </trkpt>
      <trkpt lat="46.15365" lon="4.59007">
        <ele>335</ele>
        <time>2022-06-25T14:41:40Z</time>
      </trkpt>
      <trkpt lat="46.15368" lon="4.59002">
        <ele>335</ele>
        <time>2022-06-25T14:41:41Z</time>
      </trkpt>
      <trkpt lat="46.15371" lon="4.58997">
        <ele>335</ele>
        <time>2022-06-25T14:41:42Z</time>
      </trkpt>
      <trkpt lat="46.15374" lon="4.58992">
        <ele>335.2</ele>
        <time>2022-06-25T14:41:43Z</time>
      </trkpt>
      <trkpt lat="46.15377" lon="4.58987">
        <ele>335.2</ele>
        <time>2022-06-25T14:41:44Z</time>
      </trkpt>
      <trkpt lat="46.15381" lon="4.58982">
        <ele>335.2</ele>
        <time>2022-06-25T14:41:45Z</time>
      </trkpt>
      <trkpt lat="46.15385" lon="4.58978">
        <ele>335.2</ele>
        <time>2022-06-25T14:41:46Z</time>
      </trkpt>
      <trkpt lat="46.15389" lon="4.58973">
        <ele>335.4</ele>
        <time>2022-06-25T14:41:47Z</time>
      </trkpt>
      <trkpt lat="46.15393" lon="4.58968">
        <ele>335.4</ele>
        <time>2022-06-25T14:41:48Z</time>
      </trkpt>
      <trkpt lat="46.15397" lon="4.58963">
        <ele>335.4</ele>
        <time>2022-06-25T14:41:49Z</time>
      </trkpt>
      <trkpt lat="46.15401" lon="4.58957">
        <ele>335.4</ele>
        <time>2022-06-25T14:41:50Z</time>
      </trkpt>
      <trkpt lat="46.15405" lon="4.58951">
        <ele>335.4</ele>
        <time>2022-06-25T14:41:51Z</time>
      </trkpt>
      <trkpt lat="46.15408" lon="4.58945">
        <ele>335.4</ele>
        <time>2022-06-25T14:41:52Z</time>
      </trkpt>
      <trkpt lat="46.15413" lon="4.58939">
        <ele>335.4</ele>
        <time>2022-06-25T14:41:53Z</time>
      </trkpt>
      <trkpt lat="46.15416" lon="4.58932">
        <ele>335.4</ele>
        <time>2022-06-25T14:41:54Z</time>
      </trkpt>
      <trkpt lat="46.1542" lon="4.58926">
        <ele>335.2</ele>
        <time>2022-06-25T14:41:55Z</time>
      </trkpt>
      <trkpt lat="46.15423" lon="4.58919">
        <ele>335.2</ele>
        <time>2022-06-25T14:41:56Z</time>
      </trkpt>
      <trkpt lat="46.15427" lon="4.58912">
        <ele>335.2</ele>
        <time>2022-06-25T14:41:57Z</time>
      </trkpt>
      <trkpt lat="46.1543" lon="4.58906">
        <ele>335.2</ele>
        <time>2022-06-25T14:41:58Z</time>
      </trkpt>
      <trkpt lat="46.15434" lon="4.58899">
        <ele>335.2</ele>
        <time>2022-06-25T14:41:59Z</time>
      </trkpt>
      <trkpt lat="46.15438" lon="4.58893">
        <ele>335.2</ele>
        <time>2022-06-25T14:42:00Z</time>
      </trkpt>
      <trkpt lat="46.15441" lon="4.58886">
        <ele>335.4</ele>
        <time>2022-06-25T14:42:01Z</time>
      </trkpt>
      <trkpt lat="46.15445" lon="4.58879">
        <ele>335.4</ele>
        <time>2022-06-25T14:42:02Z</time>
      </trkpt>
      <trkpt lat="46.15448" lon="4.58872">
        <ele>335.4</ele>
        <time>2022-06-25T14:42:03Z</time>
      </trkpt>
      <trkpt lat="46.15452" lon="4.58865">
        <ele>335.6</ele>
        <time>2022-06-25T14:42:04Z</time>
      </trkpt>
      <trkpt lat="46.15455" lon="4.58858">
        <ele>335.6</ele>
        <time>2022-06-25T14:42:05Z</time>
      </trkpt>
      <trkpt lat="46.15459" lon="4.58852">
        <ele>335.6</ele>
        <time>2022-06-25T14:42:06Z</time>
      </trkpt>
      <trkpt lat="46.15462" lon="4.58845">
        <ele>335.8</ele>
        <time>2022-06-25T14:42:07Z</time>
      </trkpt>
      <trkpt lat="46.15465" lon="4.58838">
        <ele>335.8</ele>
        <time>2022-06-25T14:42:08Z</time>
      </trkpt>
      <trkpt lat="46.15469" lon="4.58832">
        <ele>336</ele>
        <time>2022-06-25T14:42:09Z</time>
      </trkpt>
      <trkpt lat="46.15472" lon="4.58825">
        <ele>336</ele>
        <time>2022-06-25T14:42:10Z</time>
      </trkpt>
      <trkpt lat="46.15474" lon="4.58819">
        <ele>336.2</ele>
        <time>2022-06-25T14:42:11Z</time>
      </trkpt>
      <trkpt lat="46.15477" lon="4.58813">
        <ele>336.2</ele>
        <time>2022-06-25T14:42:12Z</time>
      </trkpt>
      <trkpt lat="46.1548" lon="4.58807">
        <ele>336.2</ele>
        <time>2022-06-25T14:42:13Z</time>
      </trkpt>
      <trkpt lat="46.15482" lon="4.58801">
        <ele>336.6</ele>
        <time>2022-06-25T14:42:14Z</time>
      </trkpt>
      <trkpt lat="46.15484" lon="4.58795">
        <ele>336.6</ele>
        <time>2022-06-25T14:42:15Z</time>
      </trkpt>
      <trkpt lat="46.15485" lon="4.58789">
        <ele>336.8</ele>
        <time>2022-06-25T14:42:16Z</time>
      </trkpt>
      <trkpt lat="46.15486" lon="4.58783">
        <ele>336.8</ele>
        <time>2022-06-25T14:42:17Z</time>
      </trkpt>
      <trkpt lat="46.15488" lon="4.58778">
        <ele>337</ele>
        <time>2022-06-25T14:42:18Z</time>
      </trkpt>
      <trkpt lat="46.1549" lon="4.58772">
        <ele>337</ele>
        <time>2022-06-25T14:42:19Z</time>
      </trkpt>
      <trkpt lat="46.15491" lon="4.58766">
        <ele>337.2</ele>
        <time>2022-06-25T14:42:20Z</time>
      </trkpt>
      <trkpt lat="46.15492" lon="4.5876">
        <ele>337.2</ele>
        <time>2022-06-25T14:42:21Z</time>
      </trkpt>
      <trkpt lat="46.15493" lon="4.58754">
        <ele>337.6</ele>
        <time>2022-06-25T14:42:22Z</time>
      </trkpt>
      <trkpt lat="46.15494" lon="4.58748">
        <ele>337.6</ele>
        <time>2022-06-25T14:42:23Z</time>
      </trkpt>
      <trkpt lat="46.15495" lon="4.58743">
        <ele>337.8</ele>
        <time>2022-06-25T14:42:24Z</time>
      </trkpt>
      <trkpt lat="46.15496" lon="4.58737">
        <ele>337.8</ele>
        <time>2022-06-25T14:42:25Z</time>
      </trkpt>
      <trkpt lat="46.15497" lon="4.58732">
        <ele>337.8</ele>
        <time>2022-06-25T14:42:26Z</time>
      </trkpt>
      <trkpt lat="46.15499" lon="4.58726">
        <ele>337.8</ele>
        <time>2022-06-25T14:42:27Z</time>
      </trkpt>
      <trkpt lat="46.15501" lon="4.58721">
        <ele>337.8</ele>
        <time>2022-06-25T14:42:28Z</time>
      </trkpt>
      <trkpt lat="46.15504" lon="4.58716">
        <ele>337.8</ele>
        <time>2022-06-25T14:42:29Z</time>
      </trkpt>
      <trkpt lat="46.15505" lon="4.58711">
        <ele>337.8</ele>
        <time>2022-06-25T14:42:30Z</time>
      </trkpt>
      <trkpt lat="46.15507" lon="4.58705">
        <ele>337.8</ele>
        <time>2022-06-25T14:42:31Z</time>
      </trkpt>
      <trkpt lat="46.15508" lon="4.58698">
        <ele>337.8</ele>
        <time>2022-06-25T14:42:32Z</time>
      </trkpt>
      <trkpt lat="46.1551" lon="4.58692">
        <ele>337.8</ele>
        <time>2022-06-25T14:42:33Z</time>
      </trkpt>
      <trkpt lat="46.15512" lon="4.58685">
        <ele>337.8</ele>
        <time>2022-06-25T14:42:34Z</time>
      </trkpt>
      <trkpt lat="46.15513" lon="4.58679">
        <ele>337.8</ele>
        <time>2022-06-25T14:42:35Z</time>
      </trkpt>
      <trkpt lat="46.15514" lon="4.58672">
        <ele>337.8</ele>
        <time>2022-06-25T14:42:36Z</time>
      </trkpt>
      <trkpt lat="46.15515" lon="4.58665">
        <ele>337.8</ele>
        <time>2022-06-25T14:42:37Z</time>
      </trkpt>
      <trkpt lat="46.15516" lon="4.58659">
        <ele>337.8</ele>
        <time>2022-06-25T14:42:38Z</time>
      </trkpt>
      <trkpt lat="46.15517" lon="4.58653">
        <ele>337.8</ele>
        <time>2022-06-25T14:42:39Z</time>
      </trkpt>
      <trkpt lat="46.15517" lon="4.58647">
        <ele>338</ele>
        <time>2022-06-25T14:42:40Z</time>
      </trkpt>
      <trkpt lat="46.15517" lon="4.58642">
        <ele>338</ele>
        <time>2022-06-25T14:42:41Z</time>
      </trkpt>
      <trkpt lat="46.15518" lon="4.58637">
        <ele>338</ele>
        <time>2022-06-25T14:42:42Z</time>
      </trkpt>
      <trkpt lat="46.15519" lon="4.58631">
        <ele>338.2</ele>
        <time>2022-06-25T14:42:43Z</time>
      </trkpt>
      <trkpt lat="46.15519" lon="4.58627">
        <ele>338.2</ele>
        <time>2022-06-25T14:42:44Z</time>
      </trkpt>
      <trkpt lat="46.15519" lon="4.58624">
        <ele>338.2</ele>
        <time>2022-06-25T14:42:45Z</time>
      </trkpt>
      <trkpt lat="46.15519" lon="4.58621">
        <ele>338.2</ele>
        <time>2022-06-25T14:42:46Z</time>
      </trkpt>
      <trkpt lat="46.1552" lon="4.58619">
        <ele>338.2</ele>
        <time>2022-06-25T14:42:47Z</time>
      </trkpt>
      <trkpt lat="46.15521" lon="4.58617">
        <ele>338.2</ele>
        <time>2022-06-25T14:42:48Z</time>
      </trkpt>
      <trkpt lat="46.15522" lon="4.58616">
        <ele>338.2</ele>
        <time>2022-06-25T14:42:49Z</time>
      </trkpt>
      <trkpt lat="46.15524" lon="4.58614">
        <ele>338.6</ele>
        <time>2022-06-25T14:42:50Z</time>
      </trkpt>
      <trkpt lat="46.15527" lon="4.58613">
        <ele>338.6</ele>
        <time>2022-06-25T14:42:51Z</time>
      </trkpt>
      <trkpt lat="46.1553" lon="4.58611">
        <ele>339</ele>
        <time>2022-06-25T14:42:52Z</time>
      </trkpt>
      <trkpt lat="46.15532" lon="4.58609">
        <ele>339.2</ele>
        <time>2022-06-25T14:42:53Z</time>
      </trkpt>
      <trkpt lat="46.15535" lon="4.58605">
        <ele>339.6</ele>
        <time>2022-06-25T14:42:54Z</time>
      </trkpt>
      <trkpt lat="46.15537" lon="4.58601">
        <ele>339.8</ele>
        <time>2022-06-25T14:42:55Z</time>
      </trkpt>
      <trkpt lat="46.15539" lon="4.58598">
        <ele>340</ele>
        <time>2022-06-25T14:42:56Z</time>
      </trkpt>
      <trkpt lat="46.15541" lon="4.58595">
        <ele>340</ele>
        <time>2022-06-25T14:42:57Z</time>
      </trkpt>
      <trkpt lat="46.15542" lon="4.58591">
        <ele>340.4</ele>
        <time>2022-06-25T14:42:58Z</time>
      </trkpt>
      <trkpt lat="46.15544" lon="4.58589">
        <ele>340.6</ele>
        <time>2022-06-25T14:42:59Z</time>
      </trkpt>
      <trkpt lat="46.15545" lon="4.58586">
        <ele>340.8</ele>
        <time>2022-06-25T14:43:00Z</time>
      </trkpt>
      <trkpt lat="46.15548" lon="4.58583">
        <ele>341</ele>
        <time>2022-06-25T14:43:01Z</time>
      </trkpt>
      <trkpt lat="46.1555" lon="4.5858">
        <ele>341.4</ele>
        <time>2022-06-25T14:43:02Z</time>
      </trkpt>
      <trkpt lat="46.15553" lon="4.58577">
        <ele>341.4</ele>
        <time>2022-06-25T14:43:03Z</time>
      </trkpt>
      <trkpt lat="46.15555" lon="4.58575">
        <ele>341.6</ele>
        <time>2022-06-25T14:43:04Z</time>
      </trkpt>
      <trkpt lat="46.15558" lon="4.58572">
        <ele>341.6</ele>
        <time>2022-06-25T14:43:05Z</time>
      </trkpt>
      <trkpt lat="46.1556" lon="4.58569">
        <ele>341.8</ele>
        <time>2022-06-25T14:43:06Z</time>
      </trkpt>
      <trkpt lat="46.15562" lon="4.58566">
        <ele>341.8</ele>
        <time>2022-06-25T14:43:07Z</time>
      </trkpt>
      <trkpt lat="46.15565" lon="4.58562">
        <ele>342.2</ele>
        <time>2022-06-25T14:43:08Z</time>
      </trkpt>
      <trkpt lat="46.15568" lon="4.58559">
        <ele>342.2</ele>
        <time>2022-06-25T14:43:09Z</time>
      </trkpt>
      <trkpt lat="46.15571" lon="4.58557">
        <ele>342.4</ele>
        <time>2022-06-25T14:43:10Z</time>
      </trkpt>
      <trkpt lat="46.15573" lon="4.58555">
        <ele>342.4</ele>
        <time>2022-06-25T14:43:11Z</time>
      </trkpt>
      <trkpt lat="46.15576" lon="4.58553">
        <ele>342.6</ele>
        <time>2022-06-25T14:43:12Z</time>
      </trkpt>
      <trkpt lat="46.15578" lon="4.58552">
        <ele>342.6</ele>
        <time>2022-06-25T14:43:13Z</time>
      </trkpt>
      <trkpt lat="46.15578" lon="4.5855">
        <ele>342.6</ele>
        <time>2022-06-25T14:43:14Z</time>
      </trkpt>
      <trkpt lat="46.15578" lon="4.58549">
        <ele>342.6</ele>
        <time>2022-06-25T14:43:15Z</time>
      </trkpt>
      <trkpt lat="46.15577" lon="4.58549">
        <ele>342.8</ele>
        <time>2022-06-25T14:43:16Z</time>
      </trkpt>
      <trkpt lat="46.15576" lon="4.58551">
        <ele>342.8</ele>
        <time>2022-06-25T14:43:17Z</time>
      </trkpt>
      <trkpt lat="46.15575" lon="4.58553">
        <ele>342.8</ele>
        <time>2022-06-25T14:43:18Z</time>
      </trkpt>
      <trkpt lat="46.15574" lon="4.58555">
        <ele>342.8</ele>
        <time>2022-06-25T14:43:19Z</time>
      </trkpt>
      <trkpt lat="46.15572" lon="4.58557">
        <ele>342.8</ele>
        <time>2022-06-25T14:43:20Z</time>
      </trkpt>
      <trkpt lat="46.1557" lon="4.5856">
        <ele>342.8</ele>
        <time>2022-06-25T14:43:21Z</time>
      </trkpt>
      <trkpt lat="46.15568" lon="4.58563">
        <ele>342.8</ele>
        <time>2022-06-25T14:43:22Z</time>
      </trkpt>
      <trkpt lat="46.15566" lon="4.58567">
        <ele>342.8</ele>
        <time>2022-06-25T14:43:23Z</time>
      </trkpt>
      <trkpt lat="46.15563" lon="4.58571">
        <ele>342.6</ele>
        <time>2022-06-25T14:43:24Z</time>
      </trkpt>
      <trkpt lat="46.1556" lon="4.58575">
        <ele>342.6</ele>
        <time>2022-06-25T14:43:25Z</time>
      </trkpt>
      <trkpt lat="46.15557" lon="4.58579">
        <ele>342.2</ele>
        <time>2022-06-25T14:43:26Z</time>
      </trkpt>
      <trkpt lat="46.15554" lon="4.58583">
        <ele>342</ele>
        <time>2022-06-25T14:43:27Z</time>
      </trkpt>
      <trkpt lat="46.1555" lon="4.58588">
        <ele>341.8</ele>
        <time>2022-06-25T14:43:28Z</time>
      </trkpt>
      <trkpt lat="46.15546" lon="4.58591">
        <ele>341.6</ele>
        <time>2022-06-25T14:43:29Z</time>
      </trkpt>
      <trkpt lat="46.15542" lon="4.58594">
        <ele>341.2</ele>
        <time>2022-06-25T14:43:30Z</time>
      </trkpt>
      <trkpt lat="46.15539" lon="4.58597">
        <ele>340.8</ele>
        <time>2022-06-25T14:43:31Z</time>
      </trkpt>
      <trkpt lat="46.15537" lon="4.586">
        <ele>340.4</ele>
        <time>2022-06-25T14:43:32Z</time>
      </trkpt>
      <trkpt lat="46.15533" lon="4.586">
        <ele>340.2</ele>
        <time>2022-06-25T14:43:33Z</time>
      </trkpt>
      <trkpt lat="46.1553" lon="4.58601">
        <ele>339.8</ele>
        <time>2022-06-25T14:43:34Z</time>
      </trkpt>
      <trkpt lat="46.15527" lon="4.58601">
        <ele>339.4</ele>
        <time>2022-06-25T14:43:35Z</time>
      </trkpt>
      <trkpt lat="46.15525" lon="4.58601">
        <ele>339</ele>
        <time>2022-06-25T14:43:37Z</time>
      </trkpt>
      <trkpt lat="46.15524" lon="4.58601">
        <ele>338.8</ele>
        <time>2022-06-25T14:43:38Z</time>
      </trkpt>
      <trkpt lat="46.15523" lon="4.58602">
        <ele>338.8</ele>
        <time>2022-06-25T14:43:39Z</time>
      </trkpt>
      <trkpt lat="46.15523" lon="4.58603">
        <ele>338.6</ele>
        <time>2022-06-25T14:43:40Z</time>
      </trkpt>
      <trkpt lat="46.15523" lon="4.58605">
        <ele>338.6</ele>
        <time>2022-06-25T14:43:41Z</time>
      </trkpt>
      <trkpt lat="46.15522" lon="4.58607">
        <ele>338.6</ele>
        <time>2022-06-25T14:43:42Z</time>
      </trkpt>
      <trkpt lat="46.15522" lon="4.58609">
        <ele>338.6</ele>
        <time>2022-06-25T14:43:43Z</time>
      </trkpt>
      <trkpt lat="46.15521" lon="4.58612">
        <ele>338.6</ele>
        <time>2022-06-25T14:43:44Z</time>
      </trkpt>
      <trkpt lat="46.1552" lon="4.58615">
        <ele>338.4</ele>
        <time>2022-06-25T14:43:45Z</time>
      </trkpt>
      <trkpt lat="46.1552" lon="4.58618">
        <ele>338.4</ele>
        <time>2022-06-25T14:43:46Z</time>
      </trkpt>
      <trkpt lat="46.15518" lon="4.58622">
        <ele>338.4</ele>
        <time>2022-06-25T14:43:47Z</time>
      </trkpt>
      <trkpt lat="46.15517" lon="4.58627">
        <ele>338.4</ele>
        <time>2022-06-25T14:43:48Z</time>
      </trkpt>
      <trkpt lat="46.15516" lon="4.58633">
        <ele>338.4</ele>
        <time>2022-06-25T14:43:49Z</time>
      </trkpt>
      <trkpt lat="46.15515" lon="4.58639">
        <ele>338.4</ele>
        <time>2022-06-25T14:43:50Z</time>
      </trkpt>
      <trkpt lat="46.15515" lon="4.58646">
        <ele>338.4</ele>
        <time>2022-06-25T14:43:51Z</time>
      </trkpt>
      <trkpt lat="46.15514" lon="4.58652">
        <ele>338.4</ele>
        <time>2022-06-25T14:43:52Z</time>
      </trkpt>
      <trkpt lat="46.15513" lon="4.58658">
        <ele>338.2</ele>
        <time>2022-06-25T14:43:53Z</time>
      </trkpt>
      <trkpt lat="46.15513" lon="4.58662">
        <ele>338.2</ele>
        <time>2022-06-25T14:43:54Z</time>
      </trkpt>
      <trkpt lat="46.15512" lon="4.58667">
        <ele>338.2</ele>
        <time>2022-06-25T14:43:55Z</time>
      </trkpt>
      <trkpt lat="46.15511" lon="4.58672">
        <ele>338</ele>
        <time>2022-06-25T14:43:56Z</time>
      </trkpt>
      <trkpt lat="46.1551" lon="4.58678">
        <ele>338</ele>
        <time>2022-06-25T14:43:57Z</time>
      </trkpt>
      <trkpt lat="46.15509" lon="4.58683">
        <ele>338</ele>
        <time>2022-06-25T14:43:58Z</time>
      </trkpt>
      <trkpt lat="46.15509" lon="4.58688">
        <ele>338</ele>
        <time>2022-06-25T14:43:59Z</time>
      </trkpt>
      <trkpt lat="46.15509" lon="4.58692">
        <ele>338</ele>
        <time>2022-06-25T14:44:00Z</time>
      </trkpt>
      <trkpt lat="46.15509" lon="4.58696">
        <ele>338</ele>
        <time>2022-06-25T14:44:01Z</time>
      </trkpt>
      <trkpt lat="46.15508" lon="4.58697">
        <ele>337.8</ele>
        <time>2022-06-25T14:44:02Z</time>
      </trkpt>
      <trkpt lat="46.15505" lon="4.58696">
        <ele>337.8</ele>
        <time>2022-06-25T14:44:03Z</time>
      </trkpt>
      <trkpt lat="46.15503" lon="4.58695">
        <ele>337.8</ele>
        <time>2022-06-25T14:44:04Z</time>
      </trkpt>
      <trkpt lat="46.15501" lon="4.58695">
        <ele>337.4</ele>
        <time>2022-06-25T14:44:05Z</time>
      </trkpt>
      <trkpt lat="46.15498" lon="4.58695">
        <ele>337.4</ele>
        <time>2022-06-25T14:44:06Z</time>
      </trkpt>
      <trkpt lat="46.15494" lon="4.58696">
        <ele>337.4</ele>
        <time>2022-06-25T14:44:07Z</time>
      </trkpt>
      <trkpt lat="46.1549" lon="4.58697">
        <ele>337.4</ele>
        <time>2022-06-25T14:44:08Z</time>
      </trkpt>
      <trkpt lat="46.15486" lon="4.58698">
        <ele>337.2</ele>
        <time>2022-06-25T14:44:09Z</time>
      </trkpt>
      <trkpt lat="46.15483" lon="4.58698">
        <ele>337.2</ele>
        <time>2022-06-25T14:44:10Z</time>
      </trkpt>
      <trkpt lat="46.1548" lon="4.58698">
        <ele>337</ele>
        <time>2022-06-25T14:44:11Z</time>
      </trkpt>
      <trkpt lat="46.15476" lon="4.58699">
        <ele>337</ele>
        <time>2022-06-25T14:44:12Z</time>
      </trkpt>
      <trkpt lat="46.15473" lon="4.587">
        <ele>337</ele>
        <time>2022-06-25T14:44:13Z</time>
      </trkpt>
      <trkpt lat="46.15471" lon="4.58702">
        <ele>336.8</ele>
        <time>2022-06-25T14:44:14Z</time>
      </trkpt>
      <trkpt lat="46.15469" lon="4.58703">
        <ele>336.8</ele>
        <time>2022-06-25T14:44:15Z</time>
      </trkpt>
      <trkpt lat="46.15468" lon="4.58705">
        <ele>336.8</ele>
        <time>2022-06-25T14:44:16Z</time>
      </trkpt>
      <trkpt lat="46.15466" lon="4.58707">
        <ele>336.4</ele>
        <time>2022-06-25T14:44:17Z</time>
      </trkpt>
      <trkpt lat="46.15464" lon="4.58709">
        <ele>336.4</ele>
        <time>2022-06-25T14:44:18Z</time>
      </trkpt>
      <trkpt lat="46.15463" lon="4.58711">
        <ele>336.4</ele>
        <time>2022-06-25T14:44:19Z</time>
      </trkpt>
      <trkpt lat="46.15461" lon="4.58713">
        <ele>336.2</ele>
        <time>2022-06-25T14:44:20Z</time>
      </trkpt>
      <trkpt lat="46.15459" lon="4.58715">
        <ele>336.2</ele>
        <time>2022-06-25T14:44:21Z</time>
      </trkpt>
      <trkpt lat="46.15457" lon="4.58717">
        <ele>336.2</ele>
        <time>2022-06-25T14:44:22Z</time>
      </trkpt>
      <trkpt lat="46.15456" lon="4.58719">
        <ele>336.2</ele>
        <time>2022-06-25T14:44:23Z</time>
      </trkpt>
      <trkpt lat="46.15454" lon="4.58721">
        <ele>336</ele>
        <time>2022-06-25T14:44:24Z</time>
      </trkpt>
      <trkpt lat="46.15453" lon="4.58723">
        <ele>336</ele>
        <time>2022-06-25T14:44:25Z</time>
      </trkpt>
      <trkpt lat="46.15451" lon="4.58725">
        <ele>335.8</ele>
        <time>2022-06-25T14:44:26Z</time>
      </trkpt>
      <trkpt lat="46.15449" lon="4.58726">
        <ele>335.8</ele>
        <time>2022-06-25T14:44:27Z</time>
      </trkpt>
      <trkpt lat="46.15447" lon="4.58727">
        <ele>335.8</ele>
        <time>2022-06-25T14:44:28Z</time>
      </trkpt>
      <trkpt lat="46.15445" lon="4.58728">
        <ele>335.4</ele>
        <time>2022-06-25T14:44:29Z</time>
      </trkpt>
      <trkpt lat="46.15443" lon="4.58729">
        <ele>335.4</ele>
        <time>2022-06-25T14:44:30Z</time>
      </trkpt>
      <trkpt lat="46.1544" lon="4.5873">
        <ele>335.2</ele>
        <time>2022-06-25T14:44:31Z</time>
      </trkpt>
      <trkpt lat="46.15438" lon="4.58731">
        <ele>335.2</ele>
        <time>2022-06-25T14:44:32Z</time>
      </trkpt>
      <trkpt lat="46.15437" lon="4.58733">
        <ele>335.2</ele>
        <time>2022-06-25T14:44:33Z</time>
      </trkpt>
      <trkpt lat="46.15435" lon="4.58733">
        <ele>335.2</ele>
        <time>2022-06-25T14:44:34Z</time>
      </trkpt>
      <trkpt lat="46.15433" lon="4.58734">
        <ele>335.2</ele>
        <time>2022-06-25T14:44:35Z</time>
      </trkpt>
      <trkpt lat="46.15431" lon="4.58735">
        <ele>335.2</ele>
        <time>2022-06-25T14:44:36Z</time>
      </trkpt>
      <trkpt lat="46.15432" lon="4.58735">
        <ele>335.2</ele>
        <time>2022-06-25T14:44:38Z</time>
      </trkpt>
      <trkpt lat="46.15432" lon="4.58735">
        <ele>335.2</ele>
        <time>2022-06-25T14:44:39Z</time>
      </trkpt>
      <trkpt lat="46.15432" lon="4.58734">
        <ele>335.2</ele>
        <time>2022-06-25T14:44:40Z</time>
      </trkpt>
      <trkpt lat="46.15433" lon="4.58734">
        <ele>335.2</ele>
        <time>2022-06-25T14:44:41Z</time>
      </trkpt>
      <trkpt lat="46.15433" lon="4.58734">
        <ele>334.8</ele>
        <time>2022-06-25T14:44:43Z</time>
      </trkpt>
      <trkpt lat="46.15434" lon="4.58734">
        <ele>334.8</ele>
        <time>2022-06-25T14:44:44Z</time>
      </trkpt>
      <trkpt lat="46.15434" lon="4.58734">
        <ele>334.8</ele>
        <time>2022-06-25T14:44:46Z</time>
      </trkpt>
      <trkpt lat="46.15435" lon="4.58733">
        <ele>334.8</ele>
        <time>2022-06-25T14:44:47Z</time>
      </trkpt>
      <trkpt lat="46.15435" lon="4.58733">
        <ele>334.8</ele>
        <time>2022-06-25T14:44:49Z</time>
      </trkpt>
      <trkpt lat="46.15436" lon="4.58733">
        <ele>334.8</ele>
        <time>2022-06-25T14:44:51Z</time>
      </trkpt>
      <trkpt lat="46.15436" lon="4.58733">
        <ele>334.8</ele>
        <time>2022-06-25T14:44:52Z</time>
      </trkpt>
      <trkpt lat="46.15437" lon="4.58732">
        <ele>334.8</ele>
        <time>2022-06-25T14:45:41Z</time>
      </trkpt>
      <trkpt lat="46.15437" lon="4.58732">
        <ele>334.8</ele>
        <time>2022-06-25T14:45:42Z</time>
      </trkpt>
      <trkpt lat="46.15438" lon="4.58732">
        <ele>334.8</ele>
        <time>2022-06-25T14:45:46Z</time>
      </trkpt>
      <trkpt lat="46.15438" lon="4.58732">
        <ele>334.8</ele>
        <time>2022-06-25T14:45:47Z</time>
      </trkpt>
      <trkpt lat="46.1544" lon="4.58732">
        <ele>334.8</ele>
        <time>2022-06-25T14:45:48Z</time>
      </trkpt>
      <trkpt lat="46.15441" lon="4.58731">
        <ele>334.8</ele>
        <time>2022-06-25T14:45:49Z</time>
      </trkpt>
      <trkpt lat="46.15443" lon="4.5873">
        <ele>334.8</ele>
        <time>2022-06-25T14:45:50Z</time>
      </trkpt>
      <trkpt lat="46.15444" lon="4.58729">
        <ele>334.8</ele>
        <time>2022-06-25T14:45:51Z</time>
      </trkpt>
      <trkpt lat="46.15446" lon="4.58729">
        <ele>334.8</ele>
        <time>2022-06-25T14:45:52Z</time>
      </trkpt>
      <trkpt lat="46.15448" lon="4.58729">
        <ele>335.2</ele>
        <time>2022-06-25T14:45:53Z</time>
      </trkpt>
      <trkpt lat="46.1545" lon="4.5873">
        <ele>335.2</ele>
        <time>2022-06-25T14:45:54Z</time>
      </trkpt>
      <trkpt lat="46.15451" lon="4.58731">
        <ele>335.2</ele>
        <time>2022-06-25T14:45:55Z</time>
      </trkpt>
      <trkpt lat="46.15452" lon="4.58733">
        <ele>335.4</ele>
        <time>2022-06-25T14:45:56Z</time>
      </trkpt>
      <trkpt lat="46.15454" lon="4.58736">
        <ele>335.4</ele>
        <time>2022-06-25T14:45:57Z</time>
      </trkpt>
      <trkpt lat="46.15455" lon="4.58738">
        <ele>335.4</ele>
        <time>2022-06-25T14:45:58Z</time>
      </trkpt>
      <trkpt lat="46.15457" lon="4.58741">
        <ele>335.4</ele>
        <time>2022-06-25T14:45:59Z</time>
      </trkpt>
      <trkpt lat="46.15458" lon="4.58744">
        <ele>335.6</ele>
        <time>2022-06-25T14:46:00Z</time>
      </trkpt>
      <trkpt lat="46.1546" lon="4.58747">
        <ele>335.6</ele>
        <time>2022-06-25T14:46:01Z</time>
      </trkpt>
      <trkpt lat="46.15461" lon="4.5875">
        <ele>335.6</ele>
        <time>2022-06-25T14:46:02Z</time>
      </trkpt>
      <trkpt lat="46.15463" lon="4.58753">
        <ele>335.6</ele>
        <time>2022-06-25T14:46:03Z</time>
      </trkpt>
      <trkpt lat="46.15464" lon="4.58756">
        <ele>335.6</ele>
        <time>2022-06-25T14:46:04Z</time>
      </trkpt>
      <trkpt lat="46.15465" lon="4.5876">
        <ele>335.6</ele>
        <time>2022-06-25T14:46:05Z</time>
      </trkpt>
      <trkpt lat="46.15467" lon="4.58763">
        <ele>336</ele>
        <time>2022-06-25T14:46:06Z</time>
      </trkpt>
      <trkpt lat="46.15468" lon="4.58766">
        <ele>336</ele>
        <time>2022-06-25T14:46:07Z</time>
      </trkpt>
      <trkpt lat="46.1547" lon="4.58768">
        <ele>336.2</ele>
        <time>2022-06-25T14:46:08Z</time>
      </trkpt>
      <trkpt lat="46.15472" lon="4.5877">
        <ele>336.2</ele>
        <time>2022-06-25T14:46:09Z</time>
      </trkpt>
      <trkpt lat="46.15473" lon="4.58771">
        <ele>336.4</ele>
        <time>2022-06-25T14:46:10Z</time>
      </trkpt>
      <trkpt lat="46.15475" lon="4.58773">
        <ele>336.4</ele>
        <time>2022-06-25T14:46:11Z</time>
      </trkpt>
      <trkpt lat="46.15477" lon="4.58775">
        <ele>336.4</ele>
        <time>2022-06-25T14:46:12Z</time>
      </trkpt>
      <trkpt lat="46.15478" lon="4.58775">
        <ele>336.6</ele>
        <time>2022-06-25T14:46:13Z</time>
      </trkpt>
      <trkpt lat="46.1548" lon="4.58775">
        <ele>336.6</ele>
        <time>2022-06-25T14:46:14Z</time>
      </trkpt>
      <trkpt lat="46.15482" lon="4.58775">
        <ele>336.6</ele>
        <time>2022-06-25T14:46:15Z</time>
      </trkpt>
      <trkpt lat="46.15484" lon="4.58773">
        <ele>337</ele>
        <time>2022-06-25T14:46:16Z</time>
      </trkpt>
      <trkpt lat="46.15486" lon="4.58771">
        <ele>337</ele>
        <time>2022-06-25T14:46:17Z</time>
      </trkpt>
      <trkpt lat="46.15488" lon="4.58769">
        <ele>337</ele>
        <time>2022-06-25T14:46:18Z</time>
      </trkpt>
      <trkpt lat="46.15489" lon="4.58767">
        <ele>337.2</ele>
        <time>2022-06-25T14:46:19Z</time>
      </trkpt>
      <trkpt lat="46.1549" lon="4.58764">
        <ele>337.2</ele>
        <time>2022-06-25T14:46:20Z</time>
      </trkpt>
      <trkpt lat="46.15491" lon="4.5876">
        <ele>337.4</ele>
        <time>2022-06-25T14:46:21Z</time>
      </trkpt>
      <trkpt lat="46.15491" lon="4.58756">
        <ele>337.4</ele>
        <time>2022-06-25T14:46:22Z</time>
      </trkpt>
      <trkpt lat="46.15492" lon="4.58752">
        <ele>337.4</ele>
        <time>2022-06-25T14:46:23Z</time>
      </trkpt>
      <trkpt lat="46.15493" lon="4.58747">
        <ele>337.4</ele>
        <time>2022-06-25T14:46:24Z</time>
      </trkpt>
      <trkpt lat="46.15493" lon="4.58743">
        <ele>337.4</ele>
        <time>2022-06-25T14:46:25Z</time>
      </trkpt>
      <trkpt lat="46.15494" lon="4.58739">
        <ele>337.4</ele>
        <time>2022-06-25T14:46:26Z</time>
      </trkpt>
      <trkpt lat="46.15495" lon="4.58735">
        <ele>337.4</ele>
        <time>2022-06-25T14:46:27Z</time>
      </trkpt>
      <trkpt lat="46.15496" lon="4.5873">
        <ele>337.4</ele>
        <time>2022-06-25T14:46:28Z</time>
      </trkpt>
      <trkpt lat="46.15497" lon="4.58726">
        <ele>337.6</ele>
        <time>2022-06-25T14:46:29Z</time>
      </trkpt>
      <trkpt lat="46.15498" lon="4.58723">
        <ele>337.6</ele>
        <time>2022-06-25T14:46:30Z</time>
      </trkpt>
      <trkpt lat="46.15499" lon="4.58721">
        <ele>337.6</ele>
        <time>2022-06-25T14:46:31Z</time>
      </trkpt>
      <trkpt lat="46.15497" lon="4.58719">
        <ele>337.6</ele>
        <time>2022-06-25T14:46:32Z</time>
      </trkpt>
      <trkpt lat="46.15494" lon="4.58717">
        <ele>337.6</ele>
        <time>2022-06-25T14:46:33Z</time>
      </trkpt>
      <trkpt lat="46.1549" lon="4.58714">
        <ele>337.6</ele>
        <time>2022-06-25T14:46:34Z</time>
      </trkpt>
      <trkpt lat="46.15487" lon="4.58712">
        <ele>337.6</ele>
        <time>2022-06-25T14:46:35Z</time>
      </trkpt>
      <trkpt lat="46.15483" lon="4.58711">
        <ele>337.6</ele>
        <time>2022-06-25T14:46:36Z</time>
      </trkpt>
      <trkpt lat="46.15478" lon="4.58711">
        <ele>337.4</ele>
        <time>2022-06-25T14:46:37Z</time>
      </trkpt>
      <trkpt lat="46.15474" lon="4.58712">
        <ele>337.2</ele>
        <time>2022-06-25T14:46:38Z</time>
      </trkpt>
      <trkpt lat="46.15469" lon="4.58714">
        <ele>337.2</ele>
        <time>2022-06-25T14:46:39Z</time>
      </trkpt>
      <trkpt lat="46.15465" lon="4.58717">
        <ele>336.8</ele>
        <time>2022-06-25T14:46:40Z</time>
      </trkpt>
      <trkpt lat="46.1546" lon="4.58721">
        <ele>336.8</ele>
        <time>2022-06-25T14:46:41Z</time>
      </trkpt>
      <trkpt lat="46.15457" lon="4.58724">
        <ele>336.6</ele>
        <time>2022-06-25T14:46:42Z</time>
      </trkpt>
      <trkpt lat="46.15453" lon="4.58728">
        <ele>336.4</ele>
        <time>2022-06-25T14:46:43Z</time>
      </trkpt>
      <trkpt lat="46.15449" lon="4.58731">
        <ele>336.2</ele>
        <time>2022-06-25T14:46:44Z</time>
      </trkpt>
      <trkpt lat="46.15445" lon="4.58735">
        <ele>335.8</ele>
        <time>2022-06-25T14:46:45Z</time>
      </trkpt>
      <trkpt lat="46.1544" lon="4.58739">
        <ele>335.8</ele>
        <time>2022-06-25T14:46:46Z</time>
      </trkpt>
      <trkpt lat="46.15436" lon="4.58743">
        <ele>335.6</ele>
        <time>2022-06-25T14:46:47Z</time>
      </trkpt>
      <trkpt lat="46.15431" lon="4.58747">
        <ele>335.6</ele>
        <time>2022-06-25T14:46:48Z</time>
      </trkpt>
      <trkpt lat="46.15427" lon="4.58751">
        <ele>335.6</ele>
        <time>2022-06-25T14:46:49Z</time>
      </trkpt>
      <trkpt lat="46.15423" lon="4.58755">
        <ele>335.6</ele>
        <time>2022-06-25T14:46:50Z</time>
      </trkpt>
      <trkpt lat="46.15418" lon="4.58759">
        <ele>335.4</ele>
        <time>2022-06-25T14:46:51Z</time>
      </trkpt>
      <trkpt lat="46.15413" lon="4.58762">
        <ele>335.4</ele>
        <time>2022-06-25T14:46:52Z</time>
      </trkpt>
      <trkpt lat="46.15409" lon="4.58766">
        <ele>335.4</ele>
        <time>2022-06-25T14:46:53Z</time>
      </trkpt>
      <trkpt lat="46.15404" lon="4.58769">
        <ele>335</ele>
        <time>2022-06-25T14:46:54Z</time>
      </trkpt>
      <trkpt lat="46.154" lon="4.58773">
        <ele>335</ele>
        <time>2022-06-25T14:46:55Z</time>
      </trkpt>
      <trkpt lat="46.15395" lon="4.58777">
        <ele>335</ele>
        <time>2022-06-25T14:46:56Z</time>
      </trkpt>
      <trkpt lat="46.1539" lon="4.58781">
        <ele>334.8</ele>
        <time>2022-06-25T14:46:57Z</time>
      </trkpt>
      <trkpt lat="46.15386" lon="4.58785">
        <ele>334.8</ele>
        <time>2022-06-25T14:46:58Z</time>
      </trkpt>
      <trkpt lat="46.15382" lon="4.58788">
        <ele>334.8</ele>
        <time>2022-06-25T14:46:59Z</time>
      </trkpt>
      <trkpt lat="46.15377" lon="4.58792">
        <ele>334.8</ele>
        <time>2022-06-25T14:47:00Z</time>
      </trkpt>
      <trkpt lat="46.15373" lon="4.58795">
        <ele>334.6</ele>
        <time>2022-06-25T14:47:01Z</time>
      </trkpt>
      <trkpt lat="46.15369" lon="4.58799">
        <ele>334.6</ele>
        <time>2022-06-25T14:47:02Z</time>
      </trkpt>
      <trkpt lat="46.15364" lon="4.58801">
        <ele>334.2</ele>
        <time>2022-06-25T14:47:03Z</time>
      </trkpt>
      <trkpt lat="46.15359" lon="4.58804">
        <ele>334.2</ele>
        <time>2022-06-25T14:47:04Z</time>
      </trkpt>
      <trkpt lat="46.15355" lon="4.58807">
        <ele>334</ele>
        <time>2022-06-25T14:47:05Z</time>
      </trkpt>
      <trkpt lat="46.1535" lon="4.58811">
        <ele>334</ele>
        <time>2022-06-25T14:47:06Z</time>
      </trkpt>
      <trkpt lat="46.15345" lon="4.58814">
        <ele>333.8</ele>
        <time>2022-06-25T14:47:07Z</time>
      </trkpt>
      <trkpt lat="46.15341" lon="4.58818">
        <ele>333.8</ele>
        <time>2022-06-25T14:47:08Z</time>
      </trkpt>
      <trkpt lat="46.15336" lon="4.58821">
        <ele>333.8</ele>
        <time>2022-06-25T14:47:09Z</time>
      </trkpt>
      <trkpt lat="46.1533" lon="4.58825">
        <ele>333.4</ele>
        <time>2022-06-25T14:47:10Z</time>
      </trkpt>
      <trkpt lat="46.15325" lon="4.58829">
        <ele>333.4</ele>
        <time>2022-06-25T14:47:11Z</time>
      </trkpt>
      <trkpt lat="46.1532" lon="4.58834">
        <ele>333.2</ele>
        <time>2022-06-25T14:47:12Z</time>
      </trkpt>
      <trkpt lat="46.15315" lon="4.58839">
        <ele>333.2</ele>
        <time>2022-06-25T14:47:13Z</time>
      </trkpt>
      <trkpt lat="46.15311" lon="4.58844">
        <ele>333.2</ele>
        <time>2022-06-25T14:47:14Z</time>
      </trkpt>
      <trkpt lat="46.15306" lon="4.5885">
        <ele>332.8</ele>
        <time>2022-06-25T14:47:15Z</time>
      </trkpt>
      <trkpt lat="46.15302" lon="4.58856">
        <ele>332.8</ele>
        <time>2022-06-25T14:47:16Z</time>
      </trkpt>
      <trkpt lat="46.15298" lon="4.58862">
        <ele>332.8</ele>
        <time>2022-06-25T14:47:17Z</time>
      </trkpt>
      <trkpt lat="46.15295" lon="4.58868">
        <ele>332.8</ele>
        <time>2022-06-25T14:47:18Z</time>
      </trkpt>
      <trkpt lat="46.15291" lon="4.58875">
        <ele>332.8</ele>
        <time>2022-06-25T14:47:19Z</time>
      </trkpt>
      <trkpt lat="46.15288" lon="4.58881">
        <ele>332.8</ele>
        <time>2022-06-25T14:47:20Z</time>
      </trkpt>
      <trkpt lat="46.15285" lon="4.58888">
        <ele>332.8</ele>
        <time>2022-06-25T14:47:21Z</time>
      </trkpt>
      <trkpt lat="46.15282" lon="4.58894">
        <ele>332.8</ele>
        <time>2022-06-25T14:47:22Z</time>
      </trkpt>
      <trkpt lat="46.15279" lon="4.58901">
        <ele>332.8</ele>
        <time>2022-06-25T14:47:23Z</time>
      </trkpt>
      <trkpt lat="46.15278" lon="4.58908">
        <ele>332.8</ele>
        <time>2022-06-25T14:47:24Z</time>
      </trkpt>
      <trkpt lat="46.15277" lon="4.58915">
        <ele>333</ele>
        <time>2022-06-25T14:47:25Z</time>
      </trkpt>
      <trkpt lat="46.15277" lon="4.58923">
        <ele>333</ele>
        <time>2022-06-25T14:47:26Z</time>
      </trkpt>
      <trkpt lat="46.15277" lon="4.58931">
        <ele>333</ele>
        <time>2022-06-25T14:47:27Z</time>
      </trkpt>
      <trkpt lat="46.15278" lon="4.58939">
        <ele>333</ele>
        <time>2022-06-25T14:47:28Z</time>
      </trkpt>
      <trkpt lat="46.15278" lon="4.58947">
        <ele>333</ele>
        <time>2022-06-25T14:47:29Z</time>
      </trkpt>
      <trkpt lat="46.15278" lon="4.58954">
        <ele>333</ele>
        <time>2022-06-25T14:47:30Z</time>
      </trkpt>
      <trkpt lat="46.15278" lon="4.58962">
        <ele>333</ele>
        <time>2022-06-25T14:47:31Z</time>
      </trkpt>
      <trkpt lat="46.15279" lon="4.5897">
        <ele>333</ele>
        <time>2022-06-25T14:47:32Z</time>
      </trkpt>
      <trkpt lat="46.15281" lon="4.58978">
        <ele>332.8</ele>
        <time>2022-06-25T14:47:33Z</time>
      </trkpt>
      <trkpt lat="46.15284" lon="4.58985">
        <ele>332.8</ele>
        <time>2022-06-25T14:47:34Z</time>
      </trkpt>
      <trkpt lat="46.15287" lon="4.58992">
        <ele>332.6</ele>
        <time>2022-06-25T14:47:35Z</time>
      </trkpt>
      <trkpt lat="46.15291" lon="4.58998">
        <ele>332.6</ele>
        <time>2022-06-25T14:47:36Z</time>
      </trkpt>
      <trkpt lat="46.15296" lon="4.59003">
        <ele>332.6</ele>
        <time>2022-06-25T14:47:37Z</time>
      </trkpt>
      <trkpt lat="46.153" lon="4.59007">
        <ele>332.6</ele>
        <time>2022-06-25T14:47:38Z</time>
      </trkpt>
      <trkpt lat="46.15305" lon="4.5901">
        <ele>332.6</ele>
        <time>2022-06-25T14:47:39Z</time>
      </trkpt>
      <trkpt lat="46.15309" lon="4.59014">
        <ele>332.4</ele>
        <time>2022-06-25T14:47:40Z</time>
      </trkpt>
      <trkpt lat="46.15313" lon="4.59017">
        <ele>332.4</ele>
        <time>2022-06-25T14:47:41Z</time>
      </trkpt>
      <trkpt lat="46.15317" lon="4.59021">
        <ele>332.4</ele>
        <time>2022-06-25T14:47:42Z</time>
      </trkpt>
      <trkpt lat="46.15321" lon="4.59025">
        <ele>332.4</ele>
        <time>2022-06-25T14:47:43Z</time>
      </trkpt>
      <trkpt lat="46.15325" lon="4.59028">
        <ele>332.6</ele>
        <time>2022-06-25T14:47:44Z</time>
      </trkpt>
      <trkpt lat="46.15328" lon="4.59032">
        <ele>332.6</ele>
        <time>2022-06-25T14:47:45Z</time>
      </trkpt>
      <trkpt lat="46.1533" lon="4.59035">
        <ele>332.8</ele>
        <time>2022-06-25T14:47:46Z</time>
      </trkpt>
      <trkpt lat="46.15333" lon="4.59038">
        <ele>332.8</ele>
        <time>2022-06-25T14:47:47Z</time>
      </trkpt>
      <trkpt lat="46.15335" lon="4.59041">
        <ele>333.2</ele>
        <time>2022-06-25T14:47:48Z</time>
      </trkpt>
      <trkpt lat="46.15336" lon="4.59043">
        <ele>333.2</ele>
        <time>2022-06-25T14:47:49Z</time>
      </trkpt>
      <trkpt lat="46.15337" lon="4.59045">
        <ele>333.4</ele>
        <time>2022-06-25T14:47:50Z</time>
      </trkpt>
      <trkpt lat="46.15338" lon="4.59047">
        <ele>333.4</ele>
        <time>2022-06-25T14:47:51Z</time>
      </trkpt>
      <trkpt lat="46.15338" lon="4.59049">
        <ele>333.4</ele>
        <time>2022-06-25T14:47:52Z</time>
      </trkpt>
      <trkpt lat="46.15337" lon="4.59051">
        <ele>333.6</ele>
        <time>2022-06-25T14:47:53Z</time>
      </trkpt>
      <trkpt lat="46.15335" lon="4.59054">
        <ele>333.6</ele>
        <time>2022-06-25T14:47:54Z</time>
      </trkpt>
      <trkpt lat="46.15334" lon="4.59057">
        <ele>333.6</ele>
        <time>2022-06-25T14:47:55Z</time>
      </trkpt>
      <trkpt lat="46.15332" lon="4.5906">
        <ele>333.6</ele>
        <time>2022-06-25T14:47:56Z</time>
      </trkpt>
      <trkpt lat="46.15331" lon="4.59063">
        <ele>333.6</ele>
        <time>2022-06-25T14:47:57Z</time>
      </trkpt>
      <trkpt lat="46.1533" lon="4.59065">
        <ele>333.6</ele>
        <time>2022-06-25T14:47:58Z</time>
      </trkpt>
      <trkpt lat="46.15329" lon="4.59067">
        <ele>333.6</ele>
        <time>2022-06-25T14:47:59Z</time>
      </trkpt>
      <trkpt lat="46.1533" lon="4.59068">
        <ele>333.4</ele>
        <time>2022-06-25T14:48:00Z</time>
      </trkpt>
      <trkpt lat="46.1533" lon="4.59068">
        <ele>333.6</ele>
        <time>2022-06-25T14:48:19Z</time>
      </trkpt>
      <trkpt lat="46.1533" lon="4.59068">
        <ele>333.6</ele>
        <time>2022-06-25T14:50:47Z</time>
      </trkpt>
      <trkpt lat="46.1533" lon="4.59068">
        <ele>333.2</ele>
        <time>2022-06-25T14:55:16Z</time>
      </trkpt>
      <trkpt lat="46.1533" lon="4.59068">
        <ele>332.4</ele>
        <time>2022-06-25T14:58:29Z</time>
      </trkpt>
      <trkpt lat="46.1533" lon="4.59068">
        <ele>332.4</ele>
        <time>2022-06-25T14:59:46Z</time>
      </trkpt>
      <trkpt lat="46.1533" lon="4.59068">
        <ele>332.4</ele>
        <time>2022-06-25T15:01:07Z</time>
      </trkpt>
      <trkpt lat="46.1533" lon="4.59068">
        <ele>332.4</ele>
        <time>2022-06-25T15:02:55Z</time>
      </trkpt>
      <trkpt lat="46.1533" lon="4.59068">
        <ele>332</ele>
        <time>2022-06-25T15:05:08Z</time>
      </trkpt>
      <trkpt lat="46.15331" lon="4.59066">
        <ele>331</ele>
        <time>2022-06-25T15:12:13Z</time>
      </trkpt>
      <trkpt lat="46.15329" lon="4.5907">
        <ele>331</ele>
        <time>2022-06-25T15:12:15Z</time>
      </trkpt>
      <trkpt lat="46.15328" lon="4.59071">
        <ele>331</ele>
        <time>2022-06-25T15:12:16Z</time>
      </trkpt>
      <trkpt lat="46.15327" lon="4.59073">
        <ele>331</ele>
        <time>2022-06-25T15:12:17Z</time>
      </trkpt>
      <trkpt lat="46.15326" lon="4.59075">
        <ele>331</ele>
        <time>2022-06-25T15:12:18Z</time>
      </trkpt>
      <trkpt lat="46.15324" lon="4.59078">
        <ele>331</ele>
        <time>2022-06-25T15:12:19Z</time>
      </trkpt>
      <trkpt lat="46.15323" lon="4.5908">
        <ele>331</ele>
        <time>2022-06-25T15:12:20Z</time>
      </trkpt>
      <trkpt lat="46.15321" lon="4.59083">
        <ele>331</ele>
        <time>2022-06-25T15:12:21Z</time>
      </trkpt>
      <trkpt lat="46.15319" lon="4.59086">
        <ele>331</ele>
        <time>2022-06-25T15:12:22Z</time>
      </trkpt>
      <trkpt lat="46.15317" lon="4.59089">
        <ele>330.8</ele>
        <time>2022-06-25T15:12:23Z</time>
      </trkpt>
      <trkpt lat="46.15316" lon="4.59093">
        <ele>330.8</ele>
        <time>2022-06-25T15:12:24Z</time>
      </trkpt>
      <trkpt lat="46.15314" lon="4.59096">
        <ele>330.8</ele>
        <time>2022-06-25T15:12:25Z</time>
      </trkpt>
      <trkpt lat="46.15312" lon="4.591">
        <ele>330.4</ele>
        <time>2022-06-25T15:12:26Z</time>
      </trkpt>
      <trkpt lat="46.15311" lon="4.59103">
        <ele>330.4</ele>
        <time>2022-06-25T15:12:27Z</time>
      </trkpt>
      <trkpt lat="46.15309" lon="4.59107">
        <ele>330.4</ele>
        <time>2022-06-25T15:12:28Z</time>
      </trkpt>
      <trkpt lat="46.15308" lon="4.59109">
        <ele>330.2</ele>
        <time>2022-06-25T15:12:29Z</time>
      </trkpt>
      <trkpt lat="46.15307" lon="4.59112">
        <ele>330.2</ele>
        <time>2022-06-25T15:12:30Z</time>
      </trkpt>
      <trkpt lat="46.15306" lon="4.59114">
        <ele>330.2</ele>
        <time>2022-06-25T15:12:31Z</time>
      </trkpt>
      <trkpt lat="46.15305" lon="4.59118">
        <ele>330</ele>
        <time>2022-06-25T15:12:32Z</time>
      </trkpt>
      <trkpt lat="46.15304" lon="4.59121">
        <ele>330</ele>
        <time>2022-06-25T15:12:33Z</time>
      </trkpt>
      <trkpt lat="46.15302" lon="4.59125">
        <ele>330</ele>
        <time>2022-06-25T15:12:34Z</time>
      </trkpt>
      <trkpt lat="46.153" lon="4.59129">
        <ele>330</ele>
        <time>2022-06-25T15:12:35Z</time>
      </trkpt>
      <trkpt lat="46.15297" lon="4.59134">
        <ele>330</ele>
        <time>2022-06-25T15:12:36Z</time>
      </trkpt>
      <trkpt lat="46.15294" lon="4.59139">
        <ele>330</ele>
        <time>2022-06-25T15:12:37Z</time>
      </trkpt>
      <trkpt lat="46.15292" lon="4.59143">
        <ele>329.8</ele>
        <time>2022-06-25T15:12:38Z</time>
      </trkpt>
      <trkpt lat="46.15289" lon="4.59148">
        <ele>329.8</ele>
        <time>2022-06-25T15:12:39Z</time>
      </trkpt>
      <trkpt lat="46.15286" lon="4.59154">
        <ele>329.6</ele>
        <time>2022-06-25T15:12:40Z</time>
      </trkpt>
      <trkpt lat="46.15283" lon="4.59159">
        <ele>329.2</ele>
        <time>2022-06-25T15:12:41Z</time>
      </trkpt>
      <trkpt lat="46.15281" lon="4.59165">
        <ele>329.2</ele>
        <time>2022-06-25T15:12:42Z</time>
      </trkpt>
      <trkpt lat="46.15279" lon="4.5917">
        <ele>329.2</ele>
        <time>2022-06-25T15:12:43Z</time>
      </trkpt>
      <trkpt lat="46.15276" lon="4.59175">
        <ele>329</ele>
        <time>2022-06-25T15:12:44Z</time>
      </trkpt>
      <trkpt lat="46.15273" lon="4.5918">
        <ele>329</ele>
        <time>2022-06-25T15:12:45Z</time>
      </trkpt>
      <trkpt lat="46.1527" lon="4.59186">
        <ele>329</ele>
        <time>2022-06-25T15:12:46Z</time>
      </trkpt>
      <trkpt lat="46.15267" lon="4.59191">
        <ele>328.6</ele>
        <time>2022-06-25T15:12:47Z</time>
      </trkpt>
      <trkpt lat="46.15264" lon="4.59197">
        <ele>328.6</ele>
        <time>2022-06-25T15:12:48Z</time>
      </trkpt>
      <trkpt lat="46.1526" lon="4.59203">
        <ele>328.6</ele>
        <time>2022-06-25T15:12:49Z</time>
      </trkpt>
      <trkpt lat="46.15257" lon="4.5921">
        <ele>328.4</ele>
        <time>2022-06-25T15:12:50Z</time>
      </trkpt>
      <trkpt lat="46.15253" lon="4.59216">
        <ele>328.4</ele>
        <time>2022-06-25T15:12:51Z</time>
      </trkpt>
      <trkpt lat="46.15249" lon="4.59223">
        <ele>328.4</ele>
        <time>2022-06-25T15:12:52Z</time>
      </trkpt>
      <trkpt lat="46.15245" lon="4.5923">
        <ele>328.4</ele>
        <time>2022-06-25T15:12:53Z</time>
      </trkpt>
      <trkpt lat="46.15241" lon="4.59236">
        <ele>328.2</ele>
        <time>2022-06-25T15:12:54Z</time>
      </trkpt>
      <trkpt lat="46.15238" lon="4.59243">
        <ele>328.2</ele>
        <time>2022-06-25T15:12:55Z</time>
      </trkpt>
      <trkpt lat="46.15234" lon="4.5925">
        <ele>328</ele>
        <time>2022-06-25T15:12:56Z</time>
      </trkpt>
      <trkpt lat="46.1523" lon="4.59257">
        <ele>327.8</ele>
        <time>2022-06-25T15:12:57Z</time>
      </trkpt>
      <trkpt lat="46.15226" lon="4.59263">
        <ele>327.8</ele>
        <time>2022-06-25T15:12:58Z</time>
      </trkpt>
      <trkpt lat="46.15222" lon="4.5927">
        <ele>327.4</ele>
        <time>2022-06-25T15:12:59Z</time>
      </trkpt>
      <trkpt lat="46.15218" lon="4.59277">
        <ele>327.4</ele>
        <time>2022-06-25T15:13:00Z</time>
      </trkpt>
      <trkpt lat="46.15213" lon="4.59282">
        <ele>327.4</ele>
        <time>2022-06-25T15:13:01Z</time>
      </trkpt>
      <trkpt lat="46.15209" lon="4.59288">
        <ele>327.2</ele>
        <time>2022-06-25T15:13:02Z</time>
      </trkpt>
      <trkpt lat="46.15205" lon="4.59295">
        <ele>327.2</ele>
        <time>2022-06-25T15:13:03Z</time>
      </trkpt>
      <trkpt lat="46.15201" lon="4.59301">
        <ele>327.2</ele>
        <time>2022-06-25T15:13:04Z</time>
      </trkpt>
      <trkpt lat="46.15197" lon="4.59307">
        <ele>327.2</ele>
        <time>2022-06-25T15:13:05Z</time>
      </trkpt>
      <trkpt lat="46.15193" lon="4.59314">
        <ele>327</ele>
        <time>2022-06-25T15:13:06Z</time>
      </trkpt>
      <trkpt lat="46.15189" lon="4.59321">
        <ele>327</ele>
        <time>2022-06-25T15:13:07Z</time>
      </trkpt>
      <trkpt lat="46.15186" lon="4.59327">
        <ele>327</ele>
        <time>2022-06-25T15:13:08Z</time>
      </trkpt>
      <trkpt lat="46.15182" lon="4.59333">
        <ele>327</ele>
        <time>2022-06-25T15:13:09Z</time>
      </trkpt>
      <trkpt lat="46.15178" lon="4.59339">
        <ele>327</ele>
        <time>2022-06-25T15:13:10Z</time>
      </trkpt>
      <trkpt lat="46.15175" lon="4.59346">
        <ele>326.6</ele>
        <time>2022-06-25T15:13:11Z</time>
      </trkpt>
      <trkpt lat="46.15172" lon="4.59352">
        <ele>326.6</ele>
        <time>2022-06-25T15:13:12Z</time>
      </trkpt>
      <trkpt lat="46.15168" lon="4.59358">
        <ele>326.4</ele>
        <time>2022-06-25T15:13:13Z</time>
      </trkpt>
      <trkpt lat="46.15165" lon="4.59364">
        <ele>326.4</ele>
        <time>2022-06-25T15:13:14Z</time>
      </trkpt>
      <trkpt lat="46.15162" lon="4.5937">
        <ele>326.4</ele>
        <time>2022-06-25T15:13:15Z</time>
      </trkpt>
      <trkpt lat="46.15159" lon="4.59376">
        <ele>326.2</ele>
        <time>2022-06-25T15:13:16Z</time>
      </trkpt>
      <trkpt lat="46.15155" lon="4.59382">
        <ele>326.2</ele>
        <time>2022-06-25T15:13:17Z</time>
      </trkpt>
      <trkpt lat="46.15152" lon="4.59388">
        <ele>326.2</ele>
        <time>2022-06-25T15:13:18Z</time>
      </trkpt>
      <trkpt lat="46.15148" lon="4.59394">
        <ele>326.2</ele>
        <time>2022-06-25T15:13:19Z</time>
      </trkpt>
      <trkpt lat="46.15145" lon="4.59399">
        <ele>326.2</ele>
        <time>2022-06-25T15:13:20Z</time>
      </trkpt>
      <trkpt lat="46.15142" lon="4.59404">
        <ele>326</ele>
        <time>2022-06-25T15:13:21Z</time>
      </trkpt>
      <trkpt lat="46.15139" lon="4.5941">
        <ele>326</ele>
        <time>2022-06-25T15:13:22Z</time>
      </trkpt>
      <trkpt lat="46.15136" lon="4.59416">
        <ele>326</ele>
        <time>2022-06-25T15:13:23Z</time>
      </trkpt>
      <trkpt lat="46.15132" lon="4.59422">
        <ele>326</ele>
        <time>2022-06-25T15:13:24Z</time>
      </trkpt>
      <trkpt lat="46.15129" lon="4.59428">
        <ele>326</ele>
        <time>2022-06-25T15:13:25Z</time>
      </trkpt>
      <trkpt lat="46.15125" lon="4.59434">
        <ele>326</ele>
        <time>2022-06-25T15:13:26Z</time>
      </trkpt>
      <trkpt lat="46.15122" lon="4.59441">
        <ele>326</ele>
        <time>2022-06-25T15:13:27Z</time>
      </trkpt>
      <trkpt lat="46.15118" lon="4.59448">
        <ele>325.6</ele>
        <time>2022-06-25T15:13:28Z</time>
      </trkpt>
      <trkpt lat="46.15116" lon="4.59451">
        <ele>325.6</ele>
        <time>2022-06-25T15:13:29Z</time>
      </trkpt>
      <trkpt lat="46.15115" lon="4.59455">
        <ele>325.6</ele>
        <time>2022-06-25T15:13:30Z</time>
      </trkpt>
      <trkpt lat="46.15111" lon="4.59461">
        <ele>325.6</ele>
        <time>2022-06-25T15:13:31Z</time>
      </trkpt>
      <trkpt lat="46.15108" lon="4.59468">
        <ele>325.4</ele>
        <time>2022-06-25T15:13:32Z</time>
      </trkpt>
      <trkpt lat="46.15104" lon="4.59474">
        <ele>325.4</ele>
        <time>2022-06-25T15:13:33Z</time>
      </trkpt>
      <trkpt lat="46.15101" lon="4.5948">
        <ele>325.4</ele>
        <time>2022-06-25T15:13:34Z</time>
      </trkpt>
      <trkpt lat="46.15097" lon="4.59486">
        <ele>325.2</ele>
        <time>2022-06-25T15:13:35Z</time>
      </trkpt>
      <trkpt lat="46.15093" lon="4.59492">
        <ele>325.2</ele>
        <time>2022-06-25T15:13:36Z</time>
      </trkpt>
      <trkpt lat="46.15089" lon="4.59498">
        <ele>325.2</ele>
        <time>2022-06-25T15:13:37Z</time>
      </trkpt>
      <trkpt lat="46.15086" lon="4.59503">
        <ele>325.2</ele>
        <time>2022-06-25T15:13:38Z</time>
      </trkpt>
      <trkpt lat="46.15082" lon="4.5951">
        <ele>325.2</ele>
        <time>2022-06-25T15:13:39Z</time>
      </trkpt>
      <trkpt lat="46.15078" lon="4.59516">
        <ele>325.2</ele>
        <time>2022-06-25T15:13:40Z</time>
      </trkpt>
      <trkpt lat="46.15074" lon="4.59523">
        <ele>325.2</ele>
        <time>2022-06-25T15:13:41Z</time>
      </trkpt>
      <trkpt lat="46.1507" lon="4.5953">
        <ele>325.2</ele>
        <time>2022-06-25T15:13:42Z</time>
      </trkpt>
      <trkpt lat="46.15066" lon="4.59536">
        <ele>325.2</ele>
        <time>2022-06-25T15:13:43Z</time>
      </trkpt>
      <trkpt lat="46.15062" lon="4.59543">
        <ele>325.2</ele>
        <time>2022-06-25T15:13:44Z</time>
      </trkpt>
      <trkpt lat="46.15058" lon="4.59549">
        <ele>325.2</ele>
        <time>2022-06-25T15:13:45Z</time>
      </trkpt>
      <trkpt lat="46.15054" lon="4.59556">
        <ele>325.2</ele>
        <time>2022-06-25T15:13:46Z</time>
      </trkpt>
      <trkpt lat="46.1505" lon="4.59563">
        <ele>325.2</ele>
        <time>2022-06-25T15:13:47Z</time>
      </trkpt>
      <trkpt lat="46.15047" lon="4.5957">
        <ele>325</ele>
        <time>2022-06-25T15:13:48Z</time>
      </trkpt>
      <trkpt lat="46.15043" lon="4.59576">
        <ele>325</ele>
        <time>2022-06-25T15:13:49Z</time>
      </trkpt>
      <trkpt lat="46.15039" lon="4.59582">
        <ele>325</ele>
        <time>2022-06-25T15:13:50Z</time>
      </trkpt>
      <trkpt lat="46.15035" lon="4.59588">
        <ele>324.8</ele>
        <time>2022-06-25T15:13:51Z</time>
      </trkpt>
      <trkpt lat="46.15031" lon="4.59594">
        <ele>324.8</ele>
        <time>2022-06-25T15:13:52Z</time>
      </trkpt>
      <trkpt lat="46.15027" lon="4.59599">
        <ele>324.8</ele>
        <time>2022-06-25T15:13:53Z</time>
      </trkpt>
      <trkpt lat="46.15023" lon="4.59604">
        <ele>324.8</ele>
        <time>2022-06-25T15:13:54Z</time>
      </trkpt>
      <trkpt lat="46.15019" lon="4.59609">
        <ele>324.8</ele>
        <time>2022-06-25T15:13:55Z</time>
      </trkpt>
      <trkpt lat="46.15015" lon="4.59613">
        <ele>324.8</ele>
        <time>2022-06-25T15:13:56Z</time>
      </trkpt>
      <trkpt lat="46.1501" lon="4.59617">
        <ele>324.8</ele>
        <time>2022-06-25T15:13:57Z</time>
      </trkpt>
      <trkpt lat="46.15006" lon="4.59622">
        <ele>324.8</ele>
        <time>2022-06-25T15:13:58Z</time>
      </trkpt>
      <trkpt lat="46.15001" lon="4.59626">
        <ele>324.8</ele>
        <time>2022-06-25T15:13:59Z</time>
      </trkpt>
      <trkpt lat="46.14997" lon="4.5963">
        <ele>324.8</ele>
        <time>2022-06-25T15:14:00Z</time>
      </trkpt>
      <trkpt lat="46.14993" lon="4.59634">
        <ele>324.4</ele>
        <time>2022-06-25T15:14:01Z</time>
      </trkpt>
      <trkpt lat="46.14988" lon="4.59639">
        <ele>324.4</ele>
        <time>2022-06-25T15:14:02Z</time>
      </trkpt>
      <trkpt lat="46.14984" lon="4.59643">
        <ele>324.4</ele>
        <time>2022-06-25T15:14:03Z</time>
      </trkpt>
      <trkpt lat="46.1498" lon="4.59646">
        <ele>324.2</ele>
        <time>2022-06-25T15:14:04Z</time>
      </trkpt>
      <trkpt lat="46.14974" lon="4.59649">
        <ele>324.2</ele>
        <time>2022-06-25T15:14:05Z</time>
      </trkpt>
      <trkpt lat="46.14969" lon="4.59652">
        <ele>324</ele>
        <time>2022-06-25T15:14:06Z</time>
      </trkpt>
      <trkpt lat="46.14963" lon="4.59653">
        <ele>324</ele>
        <time>2022-06-25T15:14:07Z</time>
      </trkpt>
      <trkpt lat="46.14957" lon="4.59654">
        <ele>323.8</ele>
        <time>2022-06-25T15:14:08Z</time>
      </trkpt>
      <trkpt lat="46.14951" lon="4.59655">
        <ele>323.8</ele>
        <time>2022-06-25T15:14:09Z</time>
      </trkpt>
      <trkpt lat="46.14944" lon="4.59655">
        <ele>323.4</ele>
        <time>2022-06-25T15:14:10Z</time>
      </trkpt>
      <trkpt lat="46.14938" lon="4.59655">
        <ele>323.2</ele>
        <time>2022-06-25T15:14:11Z</time>
      </trkpt>
      <trkpt lat="46.14932" lon="4.59655">
        <ele>323.2</ele>
        <time>2022-06-25T15:14:12Z</time>
      </trkpt>
      <trkpt lat="46.14926" lon="4.59654">
        <ele>323</ele>
        <time>2022-06-25T15:14:13Z</time>
      </trkpt>
      <trkpt lat="46.14919" lon="4.59652">
        <ele>323</ele>
        <time>2022-06-25T15:14:14Z</time>
      </trkpt>
      <trkpt lat="46.14913" lon="4.5965">
        <ele>322.6</ele>
        <time>2022-06-25T15:14:15Z</time>
      </trkpt>
      <trkpt lat="46.14907" lon="4.59646">
        <ele>322.6</ele>
        <time>2022-06-25T15:14:16Z</time>
      </trkpt>
      <trkpt lat="46.14902" lon="4.59642">
        <ele>322.4</ele>
        <time>2022-06-25T15:14:17Z</time>
      </trkpt>
      <trkpt lat="46.14897" lon="4.59637">
        <ele>322.4</ele>
        <time>2022-06-25T15:14:18Z</time>
      </trkpt>
      <trkpt lat="46.14893" lon="4.59633">
        <ele>322.4</ele>
        <time>2022-06-25T15:14:19Z</time>
      </trkpt>
      <trkpt lat="46.14889" lon="4.59629">
        <ele>322.4</ele>
        <time>2022-06-25T15:14:20Z</time>
      </trkpt>
      <trkpt lat="46.14886" lon="4.59623">
        <ele>322.4</ele>
        <time>2022-06-25T15:14:21Z</time>
      </trkpt>
      <trkpt lat="46.14885" lon="4.59617">
        <ele>322</ele>
        <time>2022-06-25T15:14:22Z</time>
      </trkpt>
      <trkpt lat="46.14884" lon="4.5961">
        <ele>322</ele>
        <time>2022-06-25T15:14:23Z</time>
      </trkpt>
      <trkpt lat="46.14882" lon="4.59604">
        <ele>322</ele>
        <time>2022-06-25T15:14:24Z</time>
      </trkpt>
      <trkpt lat="46.14879" lon="4.59599">
        <ele>322</ele>
        <time>2022-06-25T15:14:25Z</time>
      </trkpt>
      <trkpt lat="46.14875" lon="4.59598">
        <ele>322</ele>
        <time>2022-06-25T15:14:26Z</time>
      </trkpt>
      <trkpt lat="46.14871" lon="4.59599">
        <ele>322</ele>
        <time>2022-06-25T15:14:27Z</time>
      </trkpt>
      <trkpt lat="46.14868" lon="4.59602">
        <ele>322</ele>
        <time>2022-06-25T15:14:28Z</time>
      </trkpt>
      <trkpt lat="46.14865" lon="4.59606">
        <ele>322</ele>
        <time>2022-06-25T15:14:29Z</time>
      </trkpt>
      <trkpt lat="46.14863" lon="4.59611">
        <ele>321.8</ele>
        <time>2022-06-25T15:14:30Z</time>
      </trkpt>
      <trkpt lat="46.14861" lon="4.59618">
        <ele>321.8</ele>
        <time>2022-06-25T15:14:31Z</time>
      </trkpt>
      <trkpt lat="46.14859" lon="4.59625">
        <ele>321.6</ele>
        <time>2022-06-25T15:14:32Z</time>
      </trkpt>
      <trkpt lat="46.14856" lon="4.59631">
        <ele>321.6</ele>
        <time>2022-06-25T15:14:33Z</time>
      </trkpt>
      <trkpt lat="46.14852" lon="4.59638">
        <ele>321.2</ele>
        <time>2022-06-25T15:14:34Z</time>
      </trkpt>
      <trkpt lat="46.14848" lon="4.59645">
        <ele>321</ele>
        <time>2022-06-25T15:14:35Z</time>
      </trkpt>
      <trkpt lat="46.14843" lon="4.59652">
        <ele>320.8</ele>
        <time>2022-06-25T15:14:36Z</time>
      </trkpt>
      <trkpt lat="46.14839" lon="4.59659">
        <ele>320.8</ele>
        <time>2022-06-25T15:14:37Z</time>
      </trkpt>
      <trkpt lat="46.14835" lon="4.59666">
        <ele>320.8</ele>
        <time>2022-06-25T15:14:38Z</time>
      </trkpt>
      <trkpt lat="46.14831" lon="4.59673">
        <ele>320.4</ele>
        <time>2022-06-25T15:14:39Z</time>
      </trkpt>
      <trkpt lat="46.14826" lon="4.5968">
        <ele>320.4</ele>
        <time>2022-06-25T15:14:40Z</time>
      </trkpt>
      <trkpt lat="46.14822" lon="4.59686">
        <ele>320.2</ele>
        <time>2022-06-25T15:14:41Z</time>
      </trkpt>
      <trkpt lat="46.14818" lon="4.59693">
        <ele>320.2</ele>
        <time>2022-06-25T15:14:42Z</time>
      </trkpt>
      <trkpt lat="46.14814" lon="4.597">
        <ele>320.2</ele>
        <time>2022-06-25T15:14:43Z</time>
      </trkpt>
      <trkpt lat="46.14809" lon="4.59707">
        <ele>320.2</ele>
        <time>2022-06-25T15:14:44Z</time>
      </trkpt>
      <trkpt lat="46.14805" lon="4.59715">
        <ele>320.2</ele>
        <time>2022-06-25T15:14:45Z</time>
      </trkpt>
      <trkpt lat="46.148" lon="4.59722">
        <ele>320</ele>
        <time>2022-06-25T15:14:46Z</time>
      </trkpt>
      <trkpt lat="46.14796" lon="4.59729">
        <ele>320</ele>
        <time>2022-06-25T15:14:47Z</time>
      </trkpt>
      <trkpt lat="46.14791" lon="4.59737">
        <ele>320</ele>
        <time>2022-06-25T15:14:48Z</time>
      </trkpt>
      <trkpt lat="46.14787" lon="4.59744">
        <ele>320</ele>
        <time>2022-06-25T15:14:49Z</time>
      </trkpt>
      <trkpt lat="46.14783" lon="4.59751">
        <ele>320</ele>
        <time>2022-06-25T15:14:50Z</time>
      </trkpt>
      <trkpt lat="46.14779" lon="4.59757">
        <ele>320</ele>
        <time>2022-06-25T15:14:51Z</time>
      </trkpt>
      <trkpt lat="46.14776" lon="4.59764">
        <ele>320</ele>
        <time>2022-06-25T15:14:52Z</time>
      </trkpt>
      <trkpt lat="46.14772" lon="4.5977">
        <ele>320</ele>
        <time>2022-06-25T15:14:53Z</time>
      </trkpt>
      <trkpt lat="46.14768" lon="4.59776">
        <ele>320</ele>
        <time>2022-06-25T15:14:54Z</time>
      </trkpt>
      <trkpt lat="46.14764" lon="4.59782">
        <ele>320.2</ele>
        <time>2022-06-25T15:14:55Z</time>
      </trkpt>
      <trkpt lat="46.14759" lon="4.59788">
        <ele>320.2</ele>
        <time>2022-06-25T15:14:56Z</time>
      </trkpt>
      <trkpt lat="46.14755" lon="4.59794">
        <ele>320.2</ele>
        <time>2022-06-25T15:14:57Z</time>
      </trkpt>
      <trkpt lat="46.1475" lon="4.59799">
        <ele>320.2</ele>
        <time>2022-06-25T15:14:58Z</time>
      </trkpt>
      <trkpt lat="46.14745" lon="4.59803">
        <ele>320.2</ele>
        <time>2022-06-25T15:14:59Z</time>
      </trkpt>
      <trkpt lat="46.1474" lon="4.59807">
        <ele>320.4</ele>
        <time>2022-06-25T15:15:00Z</time>
      </trkpt>
      <trkpt lat="46.14734" lon="4.59811">
        <ele>320.4</ele>
        <time>2022-06-25T15:15:01Z</time>
      </trkpt>
      <trkpt lat="46.14729" lon="4.59815">
        <ele>320.4</ele>
        <time>2022-06-25T15:15:02Z</time>
      </trkpt>
      <trkpt lat="46.14724" lon="4.59819">
        <ele>320.4</ele>
        <time>2022-06-25T15:15:03Z</time>
      </trkpt>
      <trkpt lat="46.14719" lon="4.59823">
        <ele>320.6</ele>
        <time>2022-06-25T15:15:04Z</time>
      </trkpt>
      <trkpt lat="46.14713" lon="4.59827">
        <ele>320.6</ele>
        <time>2022-06-25T15:15:05Z</time>
      </trkpt>
      <trkpt lat="46.14708" lon="4.59832">
        <ele>320.6</ele>
        <time>2022-06-25T15:15:06Z</time>
      </trkpt>
      <trkpt lat="46.14702" lon="4.59836">
        <ele>320.6</ele>
        <time>2022-06-25T15:15:07Z</time>
      </trkpt>
      <trkpt lat="46.14696" lon="4.5984">
        <ele>320.6</ele>
        <time>2022-06-25T15:15:08Z</time>
      </trkpt>
      <trkpt lat="46.14691" lon="4.59845">
        <ele>320.6</ele>
        <time>2022-06-25T15:15:09Z</time>
      </trkpt>
      <trkpt lat="46.14685" lon="4.59849">
        <ele>320.6</ele>
        <time>2022-06-25T15:15:10Z</time>
      </trkpt>
      <trkpt lat="46.14679" lon="4.59854">
        <ele>320.6</ele>
        <time>2022-06-25T15:15:11Z</time>
      </trkpt>
      <trkpt lat="46.14673" lon="4.59858">
        <ele>320.6</ele>
        <time>2022-06-25T15:15:12Z</time>
      </trkpt>
      <trkpt lat="46.14666" lon="4.59863">
        <ele>320.4</ele>
        <time>2022-06-25T15:15:13Z</time>
      </trkpt>
      <trkpt lat="46.1466" lon="4.59867">
        <ele>320.4</ele>
        <time>2022-06-25T15:15:14Z</time>
      </trkpt>
      <trkpt lat="46.14654" lon="4.59872">
        <ele>320</ele>
        <time>2022-06-25T15:15:15Z</time>
      </trkpt>
      <trkpt lat="46.14647" lon="4.59876">
        <ele>320</ele>
        <time>2022-06-25T15:15:16Z</time>
      </trkpt>
      <trkpt lat="46.14641" lon="4.59881">
        <ele>319.8</ele>
        <time>2022-06-25T15:15:17Z</time>
      </trkpt>
      <trkpt lat="46.14634" lon="4.59886">
        <ele>319.8</ele>
        <time>2022-06-25T15:15:18Z</time>
      </trkpt>
      <trkpt lat="46.14628" lon="4.59891">
        <ele>319.4</ele>
        <time>2022-06-25T15:15:19Z</time>
      </trkpt>
      <trkpt lat="46.14621" lon="4.59896">
        <ele>319.4</ele>
        <time>2022-06-25T15:15:20Z</time>
      </trkpt>
      <trkpt lat="46.14615" lon="4.59901">
        <ele>319.2</ele>
        <time>2022-06-25T15:15:21Z</time>
      </trkpt>
      <trkpt lat="46.14608" lon="4.59906">
        <ele>319.2</ele>
        <time>2022-06-25T15:15:22Z</time>
      </trkpt>
      <trkpt lat="46.14601" lon="4.59911">
        <ele>319</ele>
        <time>2022-06-25T15:15:23Z</time>
      </trkpt>
      <trkpt lat="46.14594" lon="4.59916">
        <ele>319</ele>
        <time>2022-06-25T15:15:24Z</time>
      </trkpt>
      <trkpt lat="46.14588" lon="4.59921">
        <ele>319</ele>
        <time>2022-06-25T15:15:25Z</time>
      </trkpt>
      <trkpt lat="46.14581" lon="4.59926">
        <ele>318.8</ele>
        <time>2022-06-25T15:15:26Z</time>
      </trkpt>
      <trkpt lat="46.14574" lon="4.59931">
        <ele>318.8</ele>
        <time>2022-06-25T15:15:27Z</time>
      </trkpt>
      <trkpt lat="46.14568" lon="4.59936">
        <ele>318.8</ele>
        <time>2022-06-25T15:15:28Z</time>
      </trkpt>
      <trkpt lat="46.14561" lon="4.59941">
        <ele>318.8</ele>
        <time>2022-06-25T15:15:29Z</time>
      </trkpt>
      <trkpt lat="46.14554" lon="4.59947">
        <ele>318.8</ele>
        <time>2022-06-25T15:15:30Z</time>
      </trkpt>
      <trkpt lat="46.14548" lon="4.59952">
        <ele>318.8</ele>
        <time>2022-06-25T15:15:31Z</time>
      </trkpt>
      <trkpt lat="46.14541" lon="4.59957">
        <ele>318.6</ele>
        <time>2022-06-25T15:15:32Z</time>
      </trkpt>
      <trkpt lat="46.14528" lon="4.59967">
        <ele>318.6</ele>
        <time>2022-06-25T15:15:33Z</time>
      </trkpt>
      <trkpt lat="46.14521" lon="4.59972">
        <ele>318.6</ele>
        <time>2022-06-25T15:15:34Z</time>
      </trkpt>
      <trkpt lat="46.14515" lon="4.59977">
        <ele>318.4</ele>
        <time>2022-06-25T15:15:35Z</time>
      </trkpt>
      <trkpt lat="46.14508" lon="4.59982">
        <ele>318.4</ele>
        <time>2022-06-25T15:15:36Z</time>
      </trkpt>
      <trkpt lat="46.14501" lon="4.59987">
        <ele>318.4</ele>
        <time>2022-06-25T15:15:37Z</time>
      </trkpt>
      <trkpt lat="46.14495" lon="4.59992">
        <ele>318.4</ele>
        <time>2022-06-25T15:15:38Z</time>
      </trkpt>
      <trkpt lat="46.14488" lon="4.59997">
        <ele>318.4</ele>
        <time>2022-06-25T15:15:39Z</time>
      </trkpt>
      <trkpt lat="46.14482" lon="4.60002">
        <ele>318.4</ele>
        <time>2022-06-25T15:15:40Z</time>
      </trkpt>
      <trkpt lat="46.14476" lon="4.60007">
        <ele>318.4</ele>
        <time>2022-06-25T15:15:41Z</time>
      </trkpt>
      <trkpt lat="46.14469" lon="4.60012">
        <ele>318.4</ele>
        <time>2022-06-25T15:15:42Z</time>
      </trkpt>
      <trkpt lat="46.14463" lon="4.60017">
        <ele>318.4</ele>
        <time>2022-06-25T15:15:43Z</time>
      </trkpt>
      <trkpt lat="46.14456" lon="4.60022">
        <ele>318.4</ele>
        <time>2022-06-25T15:15:44Z</time>
      </trkpt>
      <trkpt lat="46.1445" lon="4.60027">
        <ele>318.4</ele>
        <time>2022-06-25T15:15:45Z</time>
      </trkpt>
      <trkpt lat="46.14444" lon="4.60032">
        <ele>318.4</ele>
        <time>2022-06-25T15:15:46Z</time>
      </trkpt>
      <trkpt lat="46.14438" lon="4.60037">
        <ele>318.6</ele>
        <time>2022-06-25T15:15:47Z</time>
      </trkpt>
      <trkpt lat="46.14432" lon="4.60041">
        <ele>318.6</ele>
        <time>2022-06-25T15:15:48Z</time>
      </trkpt>
      <trkpt lat="46.14426" lon="4.60046">
        <ele>318.6</ele>
        <time>2022-06-25T15:15:49Z</time>
      </trkpt>
      <trkpt lat="46.1442" lon="4.6005">
        <ele>318.6</ele>
        <time>2022-06-25T15:15:50Z</time>
      </trkpt>
      <trkpt lat="46.14414" lon="4.60055">
        <ele>318.8</ele>
        <time>2022-06-25T15:15:51Z</time>
      </trkpt>
      <trkpt lat="46.14408" lon="4.6006">
        <ele>318.8</ele>
        <time>2022-06-25T15:15:52Z</time>
      </trkpt>
      <trkpt lat="46.14403" lon="4.60064">
        <ele>318.8</ele>
        <time>2022-06-25T15:15:53Z</time>
      </trkpt>
      <trkpt lat="46.14397" lon="4.60068">
        <ele>318.8</ele>
        <time>2022-06-25T15:15:54Z</time>
      </trkpt>
      <trkpt lat="46.14391" lon="4.60072">
        <ele>318.8</ele>
        <time>2022-06-25T15:15:55Z</time>
      </trkpt>
      <trkpt lat="46.14385" lon="4.60077">
        <ele>319.2</ele>
        <time>2022-06-25T15:15:56Z</time>
      </trkpt>
      <trkpt lat="46.14379" lon="4.60081">
        <ele>319.2</ele>
        <time>2022-06-25T15:15:57Z</time>
      </trkpt>
      <trkpt lat="46.14373" lon="4.60085">
        <ele>319.2</ele>
        <time>2022-06-25T15:15:58Z</time>
      </trkpt>
      <trkpt lat="46.14368" lon="4.6009">
        <ele>319.2</ele>
        <time>2022-06-25T15:15:59Z</time>
      </trkpt>
      <trkpt lat="46.14362" lon="4.60094">
        <ele>319.2</ele>
        <time>2022-06-25T15:16:00Z</time>
      </trkpt>
      <trkpt lat="46.14356" lon="4.60098">
        <ele>319.4</ele>
        <time>2022-06-25T15:16:01Z</time>
      </trkpt>
      <trkpt lat="46.1435" lon="4.60102">
        <ele>319.4</ele>
        <time>2022-06-25T15:16:02Z</time>
      </trkpt>
      <trkpt lat="46.14345" lon="4.60106">
        <ele>319.4</ele>
        <time>2022-06-25T15:16:03Z</time>
      </trkpt>
      <trkpt lat="46.14339" lon="4.6011">
        <ele>319.4</ele>
        <time>2022-06-25T15:16:04Z</time>
      </trkpt>
      <trkpt lat="46.14333" lon="4.60114">
        <ele>319.6</ele>
        <time>2022-06-25T15:16:05Z</time>
      </trkpt>
      <trkpt lat="46.14328" lon="4.60119">
        <ele>319.6</ele>
        <time>2022-06-25T15:16:06Z</time>
      </trkpt>
      <trkpt lat="46.14322" lon="4.60123">
        <ele>319.6</ele>
        <time>2022-06-25T15:16:07Z</time>
      </trkpt>
      <trkpt lat="46.14316" lon="4.60127">
        <ele>319.6</ele>
        <time>2022-06-25T15:16:08Z</time>
      </trkpt>
      <trkpt lat="46.1431" lon="4.60131">
        <ele>319.8</ele>
        <time>2022-06-25T15:16:09Z</time>
      </trkpt>
      <trkpt lat="46.14305" lon="4.60136">
        <ele>319.8</ele>
        <time>2022-06-25T15:16:10Z</time>
      </trkpt>
      <trkpt lat="46.14299" lon="4.6014">
        <ele>319.8</ele>
        <time>2022-06-25T15:16:11Z</time>
      </trkpt>
      <trkpt lat="46.14294" lon="4.60145">
        <ele>319.8</ele>
        <time>2022-06-25T15:16:12Z</time>
      </trkpt>
      <trkpt lat="46.14288" lon="4.60149">
        <ele>319.8</ele>
        <time>2022-06-25T15:16:13Z</time>
      </trkpt>
      <trkpt lat="46.14282" lon="4.60153">
        <ele>320</ele>
        <time>2022-06-25T15:16:14Z</time>
      </trkpt>
      <trkpt lat="46.14277" lon="4.60157">
        <ele>320</ele>
        <time>2022-06-25T15:16:15Z</time>
      </trkpt>
      <trkpt lat="46.14271" lon="4.60161">
        <ele>320</ele>
        <time>2022-06-25T15:16:16Z</time>
      </trkpt>
      <trkpt lat="46.14266" lon="4.60165">
        <ele>320</ele>
        <time>2022-06-25T15:16:17Z</time>
      </trkpt>
      <trkpt lat="46.1426" lon="4.6017">
        <ele>320.4</ele>
        <time>2022-06-25T15:16:18Z</time>
      </trkpt>
      <trkpt lat="46.14254" lon="4.60174">
        <ele>320.4</ele>
        <time>2022-06-25T15:16:19Z</time>
      </trkpt>
      <trkpt lat="46.14248" lon="4.60179">
        <ele>320.4</ele>
        <time>2022-06-25T15:16:20Z</time>
      </trkpt>
      <trkpt lat="46.14242" lon="4.60183">
        <ele>320.4</ele>
        <time>2022-06-25T15:16:21Z</time>
      </trkpt>
      <trkpt lat="46.14236" lon="4.60187">
        <ele>320.4</ele>
        <time>2022-06-25T15:16:22Z</time>
      </trkpt>
      <trkpt lat="46.14231" lon="4.60192">
        <ele>320.4</ele>
        <time>2022-06-25T15:16:23Z</time>
      </trkpt>
      <trkpt lat="46.14225" lon="4.60197">
        <ele>320.4</ele>
        <time>2022-06-25T15:16:24Z</time>
      </trkpt>
      <trkpt lat="46.1422" lon="4.60203">
        <ele>320.4</ele>
        <time>2022-06-25T15:16:25Z</time>
      </trkpt>
      <trkpt lat="46.14215" lon="4.60209">
        <ele>320.4</ele>
        <time>2022-06-25T15:16:26Z</time>
      </trkpt>
      <trkpt lat="46.1421" lon="4.60216">
        <ele>320.6</ele>
        <time>2022-06-25T15:16:27Z</time>
      </trkpt>
      <trkpt lat="46.14205" lon="4.60223">
        <ele>320.6</ele>
        <time>2022-06-25T15:16:28Z</time>
      </trkpt>
      <trkpt lat="46.142" lon="4.6023">
        <ele>320.6</ele>
        <time>2022-06-25T15:16:29Z</time>
      </trkpt>
      <trkpt lat="46.14196" lon="4.60238">
        <ele>320.6</ele>
        <time>2022-06-25T15:16:30Z</time>
      </trkpt>
      <trkpt lat="46.14191" lon="4.60245">
        <ele>320.6</ele>
        <time>2022-06-25T15:16:31Z</time>
      </trkpt>
      <trkpt lat="46.14187" lon="4.60252">
        <ele>320.6</ele>
        <time>2022-06-25T15:16:32Z</time>
      </trkpt>
      <trkpt lat="46.14183" lon="4.6026">
        <ele>320.8</ele>
        <time>2022-06-25T15:16:33Z</time>
      </trkpt>
      <trkpt lat="46.14179" lon="4.60267">
        <ele>320.8</ele>
        <time>2022-06-25T15:16:34Z</time>
      </trkpt>
      <trkpt lat="46.14176" lon="4.60275">
        <ele>320.8</ele>
        <time>2022-06-25T15:16:35Z</time>
      </trkpt>
      <trkpt lat="46.14173" lon="4.60284">
        <ele>320.8</ele>
        <time>2022-06-25T15:16:36Z</time>
      </trkpt>
      <trkpt lat="46.14169" lon="4.60292">
        <ele>320.6</ele>
        <time>2022-06-25T15:16:37Z</time>
      </trkpt>
      <trkpt lat="46.14166" lon="4.60301">
        <ele>320.6</ele>
        <time>2022-06-25T15:16:38Z</time>
      </trkpt>
      <trkpt lat="46.14163" lon="4.6031">
        <ele>320.6</ele>
        <time>2022-06-25T15:16:39Z</time>
      </trkpt>
      <trkpt lat="46.14159" lon="4.60318">
        <ele>320.6</ele>
        <time>2022-06-25T15:16:40Z</time>
      </trkpt>
      <trkpt lat="46.14156" lon="4.60326">
        <ele>320.6</ele>
        <time>2022-06-25T15:16:41Z</time>
      </trkpt>
      <trkpt lat="46.14153" lon="4.60333">
        <ele>320.6</ele>
        <time>2022-06-25T15:16:42Z</time>
      </trkpt>
      <trkpt lat="46.14149" lon="4.60341">
        <ele>320.6</ele>
        <time>2022-06-25T15:16:43Z</time>
      </trkpt>
      <trkpt lat="46.14146" lon="4.60349">
        <ele>320.6</ele>
        <time>2022-06-25T15:16:44Z</time>
      </trkpt>
      <trkpt lat="46.14143" lon="4.60357">
        <ele>320.6</ele>
        <time>2022-06-25T15:16:45Z</time>
      </trkpt>
      <trkpt lat="46.1414" lon="4.60364">
        <ele>320.2</ele>
        <time>2022-06-25T15:16:46Z</time>
      </trkpt>
      <trkpt lat="46.14137" lon="4.60371">
        <ele>320.2</ele>
        <time>2022-06-25T15:16:47Z</time>
      </trkpt>
      <trkpt lat="46.14134" lon="4.60378">
        <ele>320</ele>
        <time>2022-06-25T15:16:48Z</time>
      </trkpt>
      <trkpt lat="46.14131" lon="4.60386">
        <ele>320</ele>
        <time>2022-06-25T15:16:49Z</time>
      </trkpt>
      <trkpt lat="46.14128" lon="4.60394">
        <ele>320</ele>
        <time>2022-06-25T15:16:50Z</time>
      </trkpt>
      <trkpt lat="46.14125" lon="4.60401">
        <ele>320</ele>
        <time>2022-06-25T15:16:51Z</time>
      </trkpt>
      <trkpt lat="46.14121" lon="4.60409">
        <ele>320</ele>
        <time>2022-06-25T15:16:52Z</time>
      </trkpt>
      <trkpt lat="46.14118" lon="4.60418">
        <ele>320</ele>
        <time>2022-06-25T15:16:53Z</time>
      </trkpt>
      <trkpt lat="46.14115" lon="4.60426">
        <ele>320</ele>
        <time>2022-06-25T15:16:54Z</time>
      </trkpt>
      <trkpt lat="46.14111" lon="4.60434">
        <ele>320</ele>
        <time>2022-06-25T15:16:55Z</time>
      </trkpt>
      <trkpt lat="46.14108" lon="4.60442">
        <ele>320</ele>
        <time>2022-06-25T15:16:56Z</time>
      </trkpt>
      <trkpt lat="46.14104" lon="4.60451">
        <ele>320</ele>
        <time>2022-06-25T15:16:57Z</time>
      </trkpt>
      <trkpt lat="46.141" lon="4.60459">
        <ele>320</ele>
        <time>2022-06-25T15:16:58Z</time>
      </trkpt>
      <trkpt lat="46.14097" lon="4.60468">
        <ele>320</ele>
        <time>2022-06-25T15:16:59Z</time>
      </trkpt>
      <trkpt lat="46.14094" lon="4.60477">
        <ele>320</ele>
        <time>2022-06-25T15:17:00Z</time>
      </trkpt>
      <trkpt lat="46.1409" lon="4.60485">
        <ele>320</ele>
        <time>2022-06-25T15:17:01Z</time>
      </trkpt>
      <trkpt lat="46.14086" lon="4.60494">
        <ele>320</ele>
        <time>2022-06-25T15:17:02Z</time>
      </trkpt>
      <trkpt lat="46.14083" lon="4.60503">
        <ele>320</ele>
        <time>2022-06-25T15:17:03Z</time>
      </trkpt>
      <trkpt lat="46.14079" lon="4.60511">
        <ele>320</ele>
        <time>2022-06-25T15:17:04Z</time>
      </trkpt>
      <trkpt lat="46.14076" lon="4.6052">
        <ele>320</ele>
        <time>2022-06-25T15:17:05Z</time>
      </trkpt>
      <trkpt lat="46.14072" lon="4.60529">
        <ele>320</ele>
        <time>2022-06-25T15:17:06Z</time>
      </trkpt>
      <trkpt lat="46.14069" lon="4.60537">
        <ele>320</ele>
        <time>2022-06-25T15:17:07Z</time>
      </trkpt>
      <trkpt lat="46.14065" lon="4.60546">
        <ele>320</ele>
        <time>2022-06-25T15:17:08Z</time>
      </trkpt>
      <trkpt lat="46.14061" lon="4.60555">
        <ele>320</ele>
        <time>2022-06-25T15:17:09Z</time>
      </trkpt>
      <trkpt lat="46.14058" lon="4.60563">
        <ele>320</ele>
        <time>2022-06-25T15:17:10Z</time>
      </trkpt>
      <trkpt lat="46.14055" lon="4.60572">
        <ele>320</ele>
        <time>2022-06-25T15:17:11Z</time>
      </trkpt>
      <trkpt lat="46.14051" lon="4.60581">
        <ele>320</ele>
        <time>2022-06-25T15:17:12Z</time>
      </trkpt>
      <trkpt lat="46.14048" lon="4.60589">
        <ele>320</ele>
        <time>2022-06-25T15:17:13Z</time>
      </trkpt>
      <trkpt lat="46.14044" lon="4.60598">
        <ele>320</ele>
        <time>2022-06-25T15:17:14Z</time>
      </trkpt>
      <trkpt lat="46.14041" lon="4.60607">
        <ele>320</ele>
        <time>2022-06-25T15:17:15Z</time>
      </trkpt>
      <trkpt lat="46.14037" lon="4.60615">
        <ele>320</ele>
        <time>2022-06-25T15:17:16Z</time>
      </trkpt>
      <trkpt lat="46.14033" lon="4.60624">
        <ele>320</ele>
        <time>2022-06-25T15:17:17Z</time>
      </trkpt>
      <trkpt lat="46.1403" lon="4.60633">
        <ele>320</ele>
        <time>2022-06-25T15:17:18Z</time>
      </trkpt>
      <trkpt lat="46.14026" lon="4.60642">
        <ele>320</ele>
        <time>2022-06-25T15:17:19Z</time>
      </trkpt>
      <trkpt lat="46.14023" lon="4.60651">
        <ele>320</ele>
        <time>2022-06-25T15:17:20Z</time>
      </trkpt>
      <trkpt lat="46.14019" lon="4.60659">
        <ele>320</ele>
        <time>2022-06-25T15:17:21Z</time>
      </trkpt>
      <trkpt lat="46.14015" lon="4.60668">
        <ele>320</ele>
        <time>2022-06-25T15:17:22Z</time>
      </trkpt>
      <trkpt lat="46.1401" lon="4.60677">
        <ele>320</ele>
        <time>2022-06-25T15:17:23Z</time>
      </trkpt>
      <trkpt lat="46.14006" lon="4.60686">
        <ele>319.8</ele>
        <time>2022-06-25T15:17:24Z</time>
      </trkpt>
      <trkpt lat="46.14001" lon="4.60695">
        <ele>319.8</ele>
        <time>2022-06-25T15:17:25Z</time>
      </trkpt>
      <trkpt lat="46.13996" lon="4.60705">
        <ele>319.6</ele>
        <time>2022-06-25T15:17:26Z</time>
      </trkpt>
      <trkpt lat="46.13991" lon="4.60714">
        <ele>319.6</ele>
        <time>2022-06-25T15:17:27Z</time>
      </trkpt>
      <trkpt lat="46.13985" lon="4.60724">
        <ele>319.4</ele>
        <time>2022-06-25T15:17:28Z</time>
      </trkpt>
      <trkpt lat="46.13979" lon="4.60734">
        <ele>319.4</ele>
        <time>2022-06-25T15:17:29Z</time>
      </trkpt>
      <trkpt lat="46.13972" lon="4.60744">
        <ele>318.8</ele>
        <time>2022-06-25T15:17:30Z</time>
      </trkpt>
      <trkpt lat="46.13965" lon="4.60755">
        <ele>318.4</ele>
        <time>2022-06-25T15:17:31Z</time>
      </trkpt>
      <trkpt lat="46.13958" lon="4.60765">
        <ele>318</ele>
        <time>2022-06-25T15:17:32Z</time>
      </trkpt>
      <trkpt lat="46.1395" lon="4.60774">
        <ele>317.6</ele>
        <time>2022-06-25T15:17:33Z</time>
      </trkpt>
      <trkpt lat="46.13944" lon="4.60785">
        <ele>317.2</ele>
        <time>2022-06-25T15:17:34Z</time>
      </trkpt>
      <trkpt lat="46.13936" lon="4.60796">
        <ele>316.8</ele>
        <time>2022-06-25T15:17:35Z</time>
      </trkpt>
      <trkpt lat="46.13928" lon="4.60806">
        <ele>316.4</ele>
        <time>2022-06-25T15:17:36Z</time>
      </trkpt>
      <trkpt lat="46.13919" lon="4.60818">
        <ele>316.2</ele>
        <time>2022-06-25T15:17:37Z</time>
      </trkpt>
      <trkpt lat="46.13911" lon="4.6083">
        <ele>315.8</ele>
        <time>2022-06-25T15:17:38Z</time>
      </trkpt>
      <trkpt lat="46.13903" lon="4.6084">
        <ele>315.4</ele>
        <time>2022-06-25T15:17:39Z</time>
      </trkpt>
      <trkpt lat="46.13896" lon="4.60852">
        <ele>315.2</ele>
        <time>2022-06-25T15:17:40Z</time>
      </trkpt>
      <trkpt lat="46.1389" lon="4.60863">
        <ele>315</ele>
        <time>2022-06-25T15:17:41Z</time>
      </trkpt>
      <trkpt lat="46.13883" lon="4.60875">
        <ele>314.6</ele>
        <time>2022-06-25T15:17:42Z</time>
      </trkpt>
      <trkpt lat="46.13878" lon="4.60886">
        <ele>314.4</ele>
        <time>2022-06-25T15:17:43Z</time>
      </trkpt>
      <trkpt lat="46.13873" lon="4.60899">
        <ele>314.2</ele>
        <time>2022-06-25T15:17:44Z</time>
      </trkpt>
      <trkpt lat="46.13867" lon="4.60911">
        <ele>314.2</ele>
        <time>2022-06-25T15:17:45Z</time>
      </trkpt>
      <trkpt lat="46.13862" lon="4.60924">
        <ele>314</ele>
        <time>2022-06-25T15:17:46Z</time>
      </trkpt>
      <trkpt lat="46.13857" lon="4.60935">
        <ele>314</ele>
        <time>2022-06-25T15:17:47Z</time>
      </trkpt>
      <trkpt lat="46.13852" lon="4.60946">
        <ele>314</ele>
        <time>2022-06-25T15:17:48Z</time>
      </trkpt>
      <trkpt lat="46.13847" lon="4.60957">
        <ele>314</ele>
        <time>2022-06-25T15:17:49Z</time>
      </trkpt>
      <trkpt lat="46.13842" lon="4.60968">
        <ele>313.8</ele>
        <time>2022-06-25T15:17:50Z</time>
      </trkpt>
      <trkpt lat="46.13838" lon="4.60979">
        <ele>313.8</ele>
        <time>2022-06-25T15:17:51Z</time>
      </trkpt>
      <trkpt lat="46.13833" lon="4.60989">
        <ele>313.8</ele>
        <time>2022-06-25T15:17:52Z</time>
      </trkpt>
      <trkpt lat="46.13828" lon="4.61">
        <ele>313.8</ele>
        <time>2022-06-25T15:17:53Z</time>
      </trkpt>
      <trkpt lat="46.13824" lon="4.6101">
        <ele>313.8</ele>
        <time>2022-06-25T15:17:54Z</time>
      </trkpt>
      <trkpt lat="46.13819" lon="4.61019">
        <ele>313.8</ele>
        <time>2022-06-25T15:17:55Z</time>
      </trkpt>
      <trkpt lat="46.13815" lon="4.61029">
        <ele>313.8</ele>
        <time>2022-06-25T15:17:56Z</time>
      </trkpt>
      <trkpt lat="46.13811" lon="4.61039">
        <ele>313.8</ele>
        <time>2022-06-25T15:17:57Z</time>
      </trkpt>
      <trkpt lat="46.13806" lon="4.61049">
        <ele>313.8</ele>
        <time>2022-06-25T15:17:58Z</time>
      </trkpt>
      <trkpt lat="46.13802" lon="4.61058">
        <ele>313.8</ele>
        <time>2022-06-25T15:17:59Z</time>
      </trkpt>
      <trkpt lat="46.13798" lon="4.61068">
        <ele>313.8</ele>
        <time>2022-06-25T15:18:00Z</time>
      </trkpt>
      <trkpt lat="46.13794" lon="4.61077">
        <ele>314</ele>
        <time>2022-06-25T15:18:01Z</time>
      </trkpt>
      <trkpt lat="46.1379" lon="4.61086">
        <ele>314</ele>
        <time>2022-06-25T15:18:02Z</time>
      </trkpt>
      <trkpt lat="46.13787" lon="4.61095">
        <ele>314.2</ele>
        <time>2022-06-25T15:18:03Z</time>
      </trkpt>
      <trkpt lat="46.13783" lon="4.61104">
        <ele>314.2</ele>
        <time>2022-06-25T15:18:04Z</time>
      </trkpt>
      <trkpt lat="46.13779" lon="4.61113">
        <ele>314.2</ele>
        <time>2022-06-25T15:18:05Z</time>
      </trkpt>
      <trkpt lat="46.13776" lon="4.61121">
        <ele>314.2</ele>
        <time>2022-06-25T15:18:06Z</time>
      </trkpt>
      <trkpt lat="46.13772" lon="4.61129">
        <ele>314.4</ele>
        <time>2022-06-25T15:18:07Z</time>
      </trkpt>
      <trkpt lat="46.13769" lon="4.61138">
        <ele>314.4</ele>
        <time>2022-06-25T15:18:08Z</time>
      </trkpt>
      <trkpt lat="46.13765" lon="4.61145">
        <ele>314.4</ele>
        <time>2022-06-25T15:18:09Z</time>
      </trkpt>
      <trkpt lat="46.13762" lon="4.61153">
        <ele>314.8</ele>
        <time>2022-06-25T15:18:10Z</time>
      </trkpt>
      <trkpt lat="46.13758" lon="4.61161">
        <ele>314.8</ele>
        <time>2022-06-25T15:18:11Z</time>
      </trkpt>
      <trkpt lat="46.13755" lon="4.61168">
        <ele>314.8</ele>
        <time>2022-06-25T15:18:12Z</time>
      </trkpt>
      <trkpt lat="46.13752" lon="4.61176">
        <ele>315</ele>
        <time>2022-06-25T15:18:13Z</time>
      </trkpt>
      <trkpt lat="46.13749" lon="4.61183">
        <ele>315.2</ele>
        <time>2022-06-25T15:18:14Z</time>
      </trkpt>
      <trkpt lat="46.13745" lon="4.61191">
        <ele>315.2</ele>
        <time>2022-06-25T15:18:15Z</time>
      </trkpt>
      <trkpt lat="46.13742" lon="4.61198">
        <ele>315.2</ele>
        <time>2022-06-25T15:18:16Z</time>
      </trkpt>
      <trkpt lat="46.13739" lon="4.61206">
        <ele>315.4</ele>
        <time>2022-06-25T15:18:17Z</time>
      </trkpt>
      <trkpt lat="46.13736" lon="4.61213">
        <ele>315.4</ele>
        <time>2022-06-25T15:18:18Z</time>
      </trkpt>
      <trkpt lat="46.13733" lon="4.61221">
        <ele>315.4</ele>
        <time>2022-06-25T15:18:19Z</time>
      </trkpt>
      <trkpt lat="46.1373" lon="4.61228">
        <ele>315.4</ele>
        <time>2022-06-25T15:18:20Z</time>
      </trkpt>
      <trkpt lat="46.13727" lon="4.61236">
        <ele>315.8</ele>
        <time>2022-06-25T15:18:21Z</time>
      </trkpt>
      <trkpt lat="46.13724" lon="4.61244">
        <ele>315.8</ele>
        <time>2022-06-25T15:18:22Z</time>
      </trkpt>
      <trkpt lat="46.13721" lon="4.61251">
        <ele>315.8</ele>
        <time>2022-06-25T15:18:23Z</time>
      </trkpt>
      <trkpt lat="46.13718" lon="4.61259">
        <ele>315.8</ele>
        <time>2022-06-25T15:18:24Z</time>
      </trkpt>
      <trkpt lat="46.13715" lon="4.61266">
        <ele>315.8</ele>
        <time>2022-06-25T15:18:25Z</time>
      </trkpt>
      <trkpt lat="46.13712" lon="4.61274">
        <ele>315.8</ele>
        <time>2022-06-25T15:18:26Z</time>
      </trkpt>
      <trkpt lat="46.13709" lon="4.61282">
        <ele>315.8</ele>
        <time>2022-06-25T15:18:27Z</time>
      </trkpt>
      <trkpt lat="46.13706" lon="4.6129">
        <ele>315.8</ele>
        <time>2022-06-25T15:18:28Z</time>
      </trkpt>
      <trkpt lat="46.13703" lon="4.61297">
        <ele>315.8</ele>
        <time>2022-06-25T15:18:29Z</time>
      </trkpt>
      <trkpt lat="46.13699" lon="4.61305">
        <ele>316</ele>
        <time>2022-06-25T15:18:30Z</time>
      </trkpt>
      <trkpt lat="46.13697" lon="4.61312">
        <ele>316</ele>
        <time>2022-06-25T15:18:31Z</time>
      </trkpt>
      <trkpt lat="46.13694" lon="4.6132">
        <ele>316.2</ele>
        <time>2022-06-25T15:18:32Z</time>
      </trkpt>
      <trkpt lat="46.13691" lon="4.61328">
        <ele>316.2</ele>
        <time>2022-06-25T15:18:33Z</time>
      </trkpt>
      <trkpt lat="46.13688" lon="4.61335">
        <ele>316.2</ele>
        <time>2022-06-25T15:18:34Z</time>
      </trkpt>
      <trkpt lat="46.13685" lon="4.61343">
        <ele>316.4</ele>
        <time>2022-06-25T15:18:35Z</time>
      </trkpt>
      <trkpt lat="46.13682" lon="4.6135">
        <ele>316.4</ele>
        <time>2022-06-25T15:18:36Z</time>
      </trkpt>
      <trkpt lat="46.13679" lon="4.61357">
        <ele>316.4</ele>
        <time>2022-06-25T15:18:37Z</time>
      </trkpt>
      <trkpt lat="46.13676" lon="4.61365">
        <ele>316.4</ele>
        <time>2022-06-25T15:18:38Z</time>
      </trkpt>
      <trkpt lat="46.13673" lon="4.61372">
        <ele>316.4</ele>
        <time>2022-06-25T15:18:39Z</time>
      </trkpt>
      <trkpt lat="46.1367" lon="4.6138">
        <ele>317</ele>
        <time>2022-06-25T15:18:40Z</time>
      </trkpt>
      <trkpt lat="46.13667" lon="4.61387">
        <ele>317</ele>
        <time>2022-06-25T15:18:41Z</time>
      </trkpt>
      <trkpt lat="46.13664" lon="4.61394">
        <ele>317</ele>
        <time>2022-06-25T15:18:42Z</time>
      </trkpt>
      <trkpt lat="46.1366" lon="4.61402">
        <ele>317</ele>
        <time>2022-06-25T15:18:43Z</time>
      </trkpt>
      <trkpt lat="46.13656" lon="4.61409">
        <ele>317</ele>
        <time>2022-06-25T15:18:44Z</time>
      </trkpt>
      <trkpt lat="46.13652" lon="4.61416">
        <ele>317</ele>
        <time>2022-06-25T15:18:45Z</time>
      </trkpt>
      <trkpt lat="46.13647" lon="4.61423">
        <ele>317</ele>
        <time>2022-06-25T15:18:46Z</time>
      </trkpt>
      <trkpt lat="46.13643" lon="4.6143">
        <ele>317</ele>
        <time>2022-06-25T15:18:47Z</time>
      </trkpt>
      <trkpt lat="46.13638" lon="4.61436">
        <ele>317</ele>
        <time>2022-06-25T15:18:48Z</time>
      </trkpt>
      <trkpt lat="46.13633" lon="4.61443">
        <ele>316.8</ele>
        <time>2022-06-25T15:18:49Z</time>
      </trkpt>
      <trkpt lat="46.13627" lon="4.6145">
        <ele>316.8</ele>
        <time>2022-06-25T15:18:50Z</time>
      </trkpt>
      <trkpt lat="46.13622" lon="4.61456">
        <ele>316.6</ele>
        <time>2022-06-25T15:18:51Z</time>
      </trkpt>
      <trkpt lat="46.13616" lon="4.61463">
        <ele>316.6</ele>
        <time>2022-06-25T15:18:52Z</time>
      </trkpt>
      <trkpt lat="46.1361" lon="4.61471">
        <ele>316.2</ele>
        <time>2022-06-25T15:18:53Z</time>
      </trkpt>
      <trkpt lat="46.13604" lon="4.61478">
        <ele>316.2</ele>
        <time>2022-06-25T15:18:54Z</time>
      </trkpt>
      <trkpt lat="46.13598" lon="4.61485">
        <ele>316.2</ele>
        <time>2022-06-25T15:18:55Z</time>
      </trkpt>
      <trkpt lat="46.13592" lon="4.61493">
        <ele>316.2</ele>
        <time>2022-06-25T15:18:56Z</time>
      </trkpt>
      <trkpt lat="46.13586" lon="4.615">
        <ele>316</ele>
        <time>2022-06-25T15:18:57Z</time>
      </trkpt>
      <trkpt lat="46.1358" lon="4.61507">
        <ele>316</ele>
        <time>2022-06-25T15:18:58Z</time>
      </trkpt>
      <trkpt lat="46.13574" lon="4.61515">
        <ele>316</ele>
        <time>2022-06-25T15:18:59Z</time>
      </trkpt>
      <trkpt lat="46.13568" lon="4.61523">
        <ele>315.8</ele>
        <time>2022-06-25T15:19:00Z</time>
      </trkpt>
      <trkpt lat="46.13562" lon="4.6153">
        <ele>315.8</ele>
        <time>2022-06-25T15:19:01Z</time>
      </trkpt>
      <trkpt lat="46.13556" lon="4.61538">
        <ele>315.8</ele>
        <time>2022-06-25T15:19:02Z</time>
      </trkpt>
      <trkpt lat="46.13549" lon="4.61546">
        <ele>315.6</ele>
        <time>2022-06-25T15:19:03Z</time>
      </trkpt>
      <trkpt lat="46.13543" lon="4.61554">
        <ele>315.6</ele>
        <time>2022-06-25T15:19:04Z</time>
      </trkpt>
      <trkpt lat="46.13537" lon="4.61562">
        <ele>315.2</ele>
        <time>2022-06-25T15:19:05Z</time>
      </trkpt>
      <trkpt lat="46.1353" lon="4.6157">
        <ele>315.2</ele>
        <time>2022-06-25T15:19:06Z</time>
      </trkpt>
      <trkpt lat="46.13524" lon="4.61578">
        <ele>315.2</ele>
        <time>2022-06-25T15:19:07Z</time>
      </trkpt>
      <trkpt lat="46.13518" lon="4.61586">
        <ele>315</ele>
        <time>2022-06-25T15:19:08Z</time>
      </trkpt>
      <trkpt lat="46.13511" lon="4.61594">
        <ele>315</ele>
        <time>2022-06-25T15:19:09Z</time>
      </trkpt>
      <trkpt lat="46.13505" lon="4.61602">
        <ele>314.6</ele>
        <time>2022-06-25T15:19:10Z</time>
      </trkpt>
      <trkpt lat="46.13499" lon="4.6161">
        <ele>314.6</ele>
        <time>2022-06-25T15:19:11Z</time>
      </trkpt>
      <trkpt lat="46.13492" lon="4.61618">
        <ele>314.4</ele>
        <time>2022-06-25T15:19:12Z</time>
      </trkpt>
      <trkpt lat="46.13486" lon="4.61626">
        <ele>314.4</ele>
        <time>2022-06-25T15:19:13Z</time>
      </trkpt>
      <trkpt lat="46.13479" lon="4.61634">
        <ele>314.2</ele>
        <time>2022-06-25T15:19:14Z</time>
      </trkpt>
      <trkpt lat="46.13473" lon="4.61642">
        <ele>314.2</ele>
        <time>2022-06-25T15:19:15Z</time>
      </trkpt>
      <trkpt lat="46.13467" lon="4.6165">
        <ele>313.8</ele>
        <time>2022-06-25T15:19:16Z</time>
      </trkpt>
      <trkpt lat="46.1346" lon="4.61659">
        <ele>313.6</ele>
        <time>2022-06-25T15:19:17Z</time>
      </trkpt>
      <trkpt lat="46.13454" lon="4.61667">
        <ele>313.6</ele>
        <time>2022-06-25T15:19:18Z</time>
      </trkpt>
      <trkpt lat="46.13447" lon="4.61674">
        <ele>313.4</ele>
        <time>2022-06-25T15:19:19Z</time>
      </trkpt>
      <trkpt lat="46.13441" lon="4.61682">
        <ele>313.4</ele>
        <time>2022-06-25T15:19:20Z</time>
      </trkpt>
      <trkpt lat="46.13435" lon="4.6169">
        <ele>313</ele>
        <time>2022-06-25T15:19:21Z</time>
      </trkpt>
      <trkpt lat="46.13429" lon="4.61698">
        <ele>313</ele>
        <time>2022-06-25T15:19:22Z</time>
      </trkpt>
      <trkpt lat="46.13423" lon="4.61706">
        <ele>312.8</ele>
        <time>2022-06-25T15:19:23Z</time>
      </trkpt>
      <trkpt lat="46.13417" lon="4.61714">
        <ele>312.8</ele>
        <time>2022-06-25T15:19:24Z</time>
      </trkpt>
      <trkpt lat="46.1341" lon="4.61721">
        <ele>312.6</ele>
        <time>2022-06-25T15:19:25Z</time>
      </trkpt>
      <trkpt lat="46.13404" lon="4.61729">
        <ele>312.6</ele>
        <time>2022-06-25T15:19:26Z</time>
      </trkpt>
      <trkpt lat="46.13398" lon="4.61737">
        <ele>312.2</ele>
        <time>2022-06-25T15:19:27Z</time>
      </trkpt>
      <trkpt lat="46.13392" lon="4.61745">
        <ele>312.2</ele>
        <time>2022-06-25T15:19:28Z</time>
      </trkpt>
      <trkpt lat="46.13386" lon="4.61752">
        <ele>312</ele>
        <time>2022-06-25T15:19:29Z</time>
      </trkpt>
      <trkpt lat="46.1338" lon="4.6176">
        <ele>312</ele>
        <time>2022-06-25T15:19:30Z</time>
      </trkpt>
      <trkpt lat="46.13374" lon="4.61768">
        <ele>312</ele>
        <time>2022-06-25T15:19:31Z</time>
      </trkpt>
      <trkpt lat="46.13368" lon="4.61775">
        <ele>311.8</ele>
        <time>2022-06-25T15:19:32Z</time>
      </trkpt>
      <trkpt lat="46.13362" lon="4.61783">
        <ele>311.8</ele>
        <time>2022-06-25T15:19:33Z</time>
      </trkpt>
      <trkpt lat="46.13356" lon="4.61791">
        <ele>311.4</ele>
        <time>2022-06-25T15:19:34Z</time>
      </trkpt>
      <trkpt lat="46.1335" lon="4.61798">
        <ele>311.4</ele>
        <time>2022-06-25T15:19:35Z</time>
      </trkpt>
      <trkpt lat="46.13344" lon="4.61806">
        <ele>311.4</ele>
        <time>2022-06-25T15:19:36Z</time>
      </trkpt>
      <trkpt lat="46.13339" lon="4.61813">
        <ele>311.4</ele>
        <time>2022-06-25T15:19:37Z</time>
      </trkpt>
      <trkpt lat="46.13333" lon="4.6182">
        <ele>311.2</ele>
        <time>2022-06-25T15:19:38Z</time>
      </trkpt>
      <trkpt lat="46.13327" lon="4.61828">
        <ele>311.2</ele>
        <time>2022-06-25T15:19:39Z</time>
      </trkpt>
      <trkpt lat="46.13321" lon="4.61835">
        <ele>311.2</ele>
        <time>2022-06-25T15:19:40Z</time>
      </trkpt>
      <trkpt lat="46.13315" lon="4.61842">
        <ele>311</ele>
        <time>2022-06-25T15:19:41Z</time>
      </trkpt>
      <trkpt lat="46.1331" lon="4.6185">
        <ele>311</ele>
        <time>2022-06-25T15:19:42Z</time>
      </trkpt>
      <trkpt lat="46.13304" lon="4.61857">
        <ele>310.8</ele>
        <time>2022-06-25T15:19:43Z</time>
      </trkpt>
      <trkpt lat="46.13298" lon="4.61865">
        <ele>310.4</ele>
        <time>2022-06-25T15:19:44Z</time>
      </trkpt>
      <trkpt lat="46.13292" lon="4.61872">
        <ele>310.4</ele>
        <time>2022-06-25T15:19:45Z</time>
      </trkpt>
      <trkpt lat="46.13286" lon="4.61879">
        <ele>310.4</ele>
        <time>2022-06-25T15:19:46Z</time>
      </trkpt>
      <trkpt lat="46.1328" lon="4.61887">
        <ele>310.4</ele>
        <time>2022-06-25T15:19:47Z</time>
      </trkpt>
      <trkpt lat="46.13274" lon="4.61894">
        <ele>310.4</ele>
        <time>2022-06-25T15:19:48Z</time>
      </trkpt>
      <trkpt lat="46.13269" lon="4.61902">
        <ele>310</ele>
        <time>2022-06-25T15:19:49Z</time>
      </trkpt>
      <trkpt lat="46.13263" lon="4.61909">
        <ele>310</ele>
        <time>2022-06-25T15:19:50Z</time>
      </trkpt>
      <trkpt lat="46.13257" lon="4.61916">
        <ele>310.4</ele>
        <time>2022-06-25T15:19:51Z</time>
      </trkpt>
      <trkpt lat="46.13251" lon="4.61924">
        <ele>310</ele>
        <time>2022-06-25T15:19:52Z</time>
      </trkpt>
      <trkpt lat="46.13245" lon="4.61931">
        <ele>310</ele>
        <time>2022-06-25T15:19:53Z</time>
      </trkpt>
      <trkpt lat="46.13239" lon="4.61939">
        <ele>310</ele>
        <time>2022-06-25T15:19:54Z</time>
      </trkpt>
      <trkpt lat="46.13233" lon="4.61946">
        <ele>309.8</ele>
        <time>2022-06-25T15:19:55Z</time>
      </trkpt>
      <trkpt lat="46.13227" lon="4.61954">
        <ele>309.8</ele>
        <time>2022-06-25T15:19:56Z</time>
      </trkpt>
      <trkpt lat="46.13221" lon="4.61962">
        <ele>309.4</ele>
        <time>2022-06-25T15:19:57Z</time>
      </trkpt>
      <trkpt lat="46.13215" lon="4.6197">
        <ele>309.4</ele>
        <time>2022-06-25T15:19:58Z</time>
      </trkpt>
      <trkpt lat="46.13209" lon="4.61977">
        <ele>309.4</ele>
        <time>2022-06-25T15:19:59Z</time>
      </trkpt>
      <trkpt lat="46.13203" lon="4.61985">
        <ele>309.4</ele>
        <time>2022-06-25T15:20:00Z</time>
      </trkpt>
      <trkpt lat="46.13197" lon="4.61993">
        <ele>309.2</ele>
        <time>2022-06-25T15:20:01Z</time>
      </trkpt>
      <trkpt lat="46.1319" lon="4.62001">
        <ele>309.2</ele>
        <time>2022-06-25T15:20:02Z</time>
      </trkpt>
      <trkpt lat="46.13184" lon="4.62009">
        <ele>309.2</ele>
        <time>2022-06-25T15:20:03Z</time>
      </trkpt>
      <trkpt lat="46.13178" lon="4.62017">
        <ele>308.8</ele>
        <time>2022-06-25T15:20:04Z</time>
      </trkpt>
      <trkpt lat="46.13172" lon="4.62025">
        <ele>308.8</ele>
        <time>2022-06-25T15:20:05Z</time>
      </trkpt>
      <trkpt lat="46.13166" lon="4.62033">
        <ele>308.8</ele>
        <time>2022-06-25T15:20:06Z</time>
      </trkpt>
      <trkpt lat="46.13159" lon="4.62041">
        <ele>308.8</ele>
        <time>2022-06-25T15:20:07Z</time>
      </trkpt>
      <trkpt lat="46.13153" lon="4.62049">
        <ele>308.6</ele>
        <time>2022-06-25T15:20:08Z</time>
      </trkpt>
      <trkpt lat="46.13147" lon="4.62057">
        <ele>308.6</ele>
        <time>2022-06-25T15:20:09Z</time>
      </trkpt>
      <trkpt lat="46.13141" lon="4.62065">
        <ele>308.4</ele>
        <time>2022-06-25T15:20:10Z</time>
      </trkpt>
      <trkpt lat="46.13135" lon="4.62072">
        <ele>308.4</ele>
        <time>2022-06-25T15:20:11Z</time>
      </trkpt>
      <trkpt lat="46.13128" lon="4.6208">
        <ele>308.4</ele>
        <time>2022-06-25T15:20:12Z</time>
      </trkpt>
      <trkpt lat="46.13122" lon="4.62088">
        <ele>308</ele>
        <time>2022-06-25T15:20:13Z</time>
      </trkpt>
      <trkpt lat="46.13116" lon="4.62095">
        <ele>308</ele>
        <time>2022-06-25T15:20:14Z</time>
      </trkpt>
      <trkpt lat="46.1311" lon="4.62103">
        <ele>308</ele>
        <time>2022-06-25T15:20:15Z</time>
      </trkpt>
      <trkpt lat="46.13104" lon="4.6211">
        <ele>307.8</ele>
        <time>2022-06-25T15:20:16Z</time>
      </trkpt>
      <trkpt lat="46.13098" lon="4.62118">
        <ele>307.8</ele>
        <time>2022-06-25T15:20:17Z</time>
      </trkpt>
      <trkpt lat="46.13092" lon="4.62126">
        <ele>307.4</ele>
        <time>2022-06-25T15:20:18Z</time>
      </trkpt>
      <trkpt lat="46.13086" lon="4.62133">
        <ele>307.4</ele>
        <time>2022-06-25T15:20:19Z</time>
      </trkpt>
      <trkpt lat="46.1308" lon="4.62141">
        <ele>307.2</ele>
        <time>2022-06-25T15:20:20Z</time>
      </trkpt>
      <trkpt lat="46.13075" lon="4.62149">
        <ele>307.2</ele>
        <time>2022-06-25T15:20:21Z</time>
      </trkpt>
      <trkpt lat="46.13069" lon="4.62156">
        <ele>307.2</ele>
        <time>2022-06-25T15:20:22Z</time>
      </trkpt>
      <trkpt lat="46.13063" lon="4.62163">
        <ele>306.8</ele>
        <time>2022-06-25T15:20:23Z</time>
      </trkpt>
      <trkpt lat="46.13057" lon="4.62171">
        <ele>306.8</ele>
        <time>2022-06-25T15:20:24Z</time>
      </trkpt>
      <trkpt lat="46.13051" lon="4.62178">
        <ele>306.8</ele>
        <time>2022-06-25T15:20:25Z</time>
      </trkpt>
      <trkpt lat="46.13045" lon="4.62185">
        <ele>306.8</ele>
        <time>2022-06-25T15:20:26Z</time>
      </trkpt>
      <trkpt lat="46.13039" lon="4.62192">
        <ele>306.8</ele>
        <time>2022-06-25T15:20:27Z</time>
      </trkpt>
      <trkpt lat="46.13033" lon="4.62199">
        <ele>306.6</ele>
        <time>2022-06-25T15:20:28Z</time>
      </trkpt>
      <trkpt lat="46.13028" lon="4.62207">
        <ele>306.6</ele>
        <time>2022-06-25T15:20:29Z</time>
      </trkpt>
      <trkpt lat="46.13022" lon="4.62214">
        <ele>306.6</ele>
        <time>2022-06-25T15:20:30Z</time>
      </trkpt>
      <trkpt lat="46.13016" lon="4.62222">
        <ele>306.4</ele>
        <time>2022-06-25T15:20:31Z</time>
      </trkpt>
      <trkpt lat="46.13011" lon="4.62229">
        <ele>306.4</ele>
        <time>2022-06-25T15:20:32Z</time>
      </trkpt>
      <trkpt lat="46.13005" lon="4.62237">
        <ele>306.4</ele>
        <time>2022-06-25T15:20:33Z</time>
      </trkpt>
      <trkpt lat="46.13" lon="4.62244">
        <ele>306.2</ele>
        <time>2022-06-25T15:20:34Z</time>
      </trkpt>
      <trkpt lat="46.12994" lon="4.62251">
        <ele>306.2</ele>
        <time>2022-06-25T15:20:35Z</time>
      </trkpt>
      <trkpt lat="46.12989" lon="4.62259">
        <ele>306.2</ele>
        <time>2022-06-25T15:20:36Z</time>
      </trkpt>
      <trkpt lat="46.12984" lon="4.62266">
        <ele>306.2</ele>
        <time>2022-06-25T15:20:37Z</time>
      </trkpt>
      <trkpt lat="46.12978" lon="4.62274">
        <ele>306</ele>
        <time>2022-06-25T15:20:38Z</time>
      </trkpt>
      <trkpt lat="46.12973" lon="4.62282">
        <ele>306</ele>
        <time>2022-06-25T15:20:39Z</time>
      </trkpt>
      <trkpt lat="46.12968" lon="4.6229">
        <ele>306</ele>
        <time>2022-06-25T15:20:40Z</time>
      </trkpt>
      <trkpt lat="46.12963" lon="4.62298">
        <ele>306</ele>
        <time>2022-06-25T15:20:41Z</time>
      </trkpt>
      <trkpt lat="46.12958" lon="4.62306">
        <ele>305.8</ele>
        <time>2022-06-25T15:20:42Z</time>
      </trkpt>
      <trkpt lat="46.12953" lon="4.62314">
        <ele>305.8</ele>
        <time>2022-06-25T15:20:43Z</time>
      </trkpt>
      <trkpt lat="46.12949" lon="4.62323">
        <ele>305.8</ele>
        <time>2022-06-25T15:20:44Z</time>
      </trkpt>
      <trkpt lat="46.12944" lon="4.62331">
        <ele>305.8</ele>
        <time>2022-06-25T15:20:45Z</time>
      </trkpt>
      <trkpt lat="46.1294" lon="4.6234">
        <ele>305.6</ele>
        <time>2022-06-25T15:20:46Z</time>
      </trkpt>
      <trkpt lat="46.12935" lon="4.62349">
        <ele>305.6</ele>
        <time>2022-06-25T15:20:47Z</time>
      </trkpt>
      <trkpt lat="46.12931" lon="4.62358">
        <ele>305.4</ele>
        <time>2022-06-25T15:20:48Z</time>
      </trkpt>
      <trkpt lat="46.12926" lon="4.62368">
        <ele>305.4</ele>
        <time>2022-06-25T15:20:49Z</time>
      </trkpt>
      <trkpt lat="46.12922" lon="4.62377">
        <ele>305</ele>
        <time>2022-06-25T15:20:50Z</time>
      </trkpt>
      <trkpt lat="46.12917" lon="4.62386">
        <ele>305</ele>
        <time>2022-06-25T15:20:51Z</time>
      </trkpt>
      <trkpt lat="46.12913" lon="4.62395">
        <ele>304.8</ele>
        <time>2022-06-25T15:20:52Z</time>
      </trkpt>
      <trkpt lat="46.12908" lon="4.62405">
        <ele>304.6</ele>
        <time>2022-06-25T15:20:53Z</time>
      </trkpt>
      <trkpt lat="46.12903" lon="4.62415">
        <ele>304.4</ele>
        <time>2022-06-25T15:20:54Z</time>
      </trkpt>
      <trkpt lat="46.12898" lon="4.62425">
        <ele>304.4</ele>
        <time>2022-06-25T15:20:55Z</time>
      </trkpt>
      <trkpt lat="46.12893" lon="4.62435">
        <ele>304</ele>
        <time>2022-06-25T15:20:56Z</time>
      </trkpt>
      <trkpt lat="46.12888" lon="4.62445">
        <ele>303.6</ele>
        <time>2022-06-25T15:20:57Z</time>
      </trkpt>
      <trkpt lat="46.12883" lon="4.62456">
        <ele>303.2</ele>
        <time>2022-06-25T15:20:58Z</time>
      </trkpt>
      <trkpt lat="46.12878" lon="4.62466">
        <ele>303</ele>
        <time>2022-06-25T15:20:59Z</time>
      </trkpt>
      <trkpt lat="46.12873" lon="4.62477">
        <ele>302.8</ele>
        <time>2022-06-25T15:21:00Z</time>
      </trkpt>
      <trkpt lat="46.12868" lon="4.62488">
        <ele>302.4</ele>
        <time>2022-06-25T15:21:01Z</time>
      </trkpt>
      <trkpt lat="46.12863" lon="4.625">
        <ele>302.2</ele>
        <time>2022-06-25T15:21:02Z</time>
      </trkpt>
      <trkpt lat="46.12857" lon="4.62511">
        <ele>302.2</ele>
        <time>2022-06-25T15:21:03Z</time>
      </trkpt>
      <trkpt lat="46.12852" lon="4.62522">
        <ele>301.6</ele>
        <time>2022-06-25T15:21:04Z</time>
      </trkpt>
      <trkpt lat="46.12847" lon="4.62531">
        <ele>301.4</ele>
        <time>2022-06-25T15:21:05Z</time>
      </trkpt>
      <trkpt lat="46.12842" lon="4.62543">
        <ele>301.2</ele>
        <time>2022-06-25T15:21:06Z</time>
      </trkpt>
      <trkpt lat="46.12836" lon="4.62555">
        <ele>301</ele>
        <time>2022-06-25T15:21:07Z</time>
      </trkpt>
      <trkpt lat="46.12831" lon="4.62566">
        <ele>300.6</ele>
        <time>2022-06-25T15:21:08Z</time>
      </trkpt>
      <trkpt lat="46.12826" lon="4.62576">
        <ele>300.2</ele>
        <time>2022-06-25T15:21:09Z</time>
      </trkpt>
      <trkpt lat="46.1282" lon="4.62587">
        <ele>300</ele>
        <time>2022-06-25T15:21:10Z</time>
      </trkpt>
      <trkpt lat="46.12814" lon="4.62599">
        <ele>299.8</ele>
        <time>2022-06-25T15:21:11Z</time>
      </trkpt>
      <trkpt lat="46.12809" lon="4.6261">
        <ele>299.4</ele>
        <time>2022-06-25T15:21:12Z</time>
      </trkpt>
      <trkpt lat="46.12804" lon="4.62621">
        <ele>299</ele>
        <time>2022-06-25T15:21:13Z</time>
      </trkpt>
      <trkpt lat="46.12798" lon="4.62632">
        <ele>298.6</ele>
        <time>2022-06-25T15:21:14Z</time>
      </trkpt>
      <trkpt lat="46.12793" lon="4.62643">
        <ele>298.2</ele>
        <time>2022-06-25T15:21:15Z</time>
      </trkpt>
      <trkpt lat="46.12787" lon="4.62655">
        <ele>297.8</ele>
        <time>2022-06-25T15:21:16Z</time>
      </trkpt>
      <trkpt lat="46.12781" lon="4.62666">
        <ele>297.6</ele>
        <time>2022-06-25T15:21:17Z</time>
      </trkpt>
      <trkpt lat="46.12776" lon="4.62678">
        <ele>297.4</ele>
        <time>2022-06-25T15:21:18Z</time>
      </trkpt>
      <trkpt lat="46.12771" lon="4.62688">
        <ele>297</ele>
        <time>2022-06-25T15:21:19Z</time>
      </trkpt>
      <trkpt lat="46.12766" lon="4.627">
        <ele>296.6</ele>
        <time>2022-06-25T15:21:20Z</time>
      </trkpt>
      <trkpt lat="46.1276" lon="4.62711">
        <ele>296.4</ele>
        <time>2022-06-25T15:21:21Z</time>
      </trkpt>
      <trkpt lat="46.12754" lon="4.62722">
        <ele>296</ele>
        <time>2022-06-25T15:21:22Z</time>
      </trkpt>
      <trkpt lat="46.12749" lon="4.62734">
        <ele>295.8</ele>
        <time>2022-06-25T15:21:23Z</time>
      </trkpt>
      <trkpt lat="46.12743" lon="4.62745">
        <ele>295.4</ele>
        <time>2022-06-25T15:21:24Z</time>
      </trkpt>
      <trkpt lat="46.12738" lon="4.62756">
        <ele>295.2</ele>
        <time>2022-06-25T15:21:25Z</time>
      </trkpt>
      <trkpt lat="46.12733" lon="4.62767">
        <ele>294.8</ele>
        <time>2022-06-25T15:21:26Z</time>
      </trkpt>
      <trkpt lat="46.12728" lon="4.62778">
        <ele>294.6</ele>
        <time>2022-06-25T15:21:27Z</time>
      </trkpt>
      <trkpt lat="46.12723" lon="4.62788">
        <ele>294</ele>
        <time>2022-06-25T15:21:29Z</time>
      </trkpt>
      <trkpt lat="46.12719" lon="4.62798">
        <ele>294</ele>
        <time>2022-06-25T15:21:30Z</time>
      </trkpt>
      <trkpt lat="46.12714" lon="4.62809">
        <ele>293.6</ele>
        <time>2022-06-25T15:21:31Z</time>
      </trkpt>
      <trkpt lat="46.12708" lon="4.6282">
        <ele>293.6</ele>
        <time>2022-06-25T15:21:32Z</time>
      </trkpt>
      <trkpt lat="46.12702" lon="4.62832">
        <ele>293.4</ele>
        <time>2022-06-25T15:21:33Z</time>
      </trkpt>
      <trkpt lat="46.12696" lon="4.62843">
        <ele>293.2</ele>
        <time>2022-06-25T15:21:34Z</time>
      </trkpt>
      <trkpt lat="46.12691" lon="4.62855">
        <ele>292.8</ele>
        <time>2022-06-25T15:21:35Z</time>
      </trkpt>
      <trkpt lat="46.12686" lon="4.62865">
        <ele>292.8</ele>
        <time>2022-06-25T15:21:36Z</time>
      </trkpt>
      <trkpt lat="46.12681" lon="4.62874">
        <ele>292.6</ele>
        <time>2022-06-25T15:21:37Z</time>
      </trkpt>
      <trkpt lat="46.12675" lon="4.62885">
        <ele>292.6</ele>
        <time>2022-06-25T15:21:38Z</time>
      </trkpt>
      <trkpt lat="46.1267" lon="4.62897">
        <ele>292.2</ele>
        <time>2022-06-25T15:21:39Z</time>
      </trkpt>
      <trkpt lat="46.12665" lon="4.62908">
        <ele>292.2</ele>
        <time>2022-06-25T15:21:40Z</time>
      </trkpt>
      <trkpt lat="46.1266" lon="4.62918">
        <ele>291.8</ele>
        <time>2022-06-25T15:21:41Z</time>
      </trkpt>
      <trkpt lat="46.12655" lon="4.62928">
        <ele>291.8</ele>
        <time>2022-06-25T15:21:42Z</time>
      </trkpt>
      <trkpt lat="46.1265" lon="4.62938">
        <ele>291.8</ele>
        <time>2022-06-25T15:21:43Z</time>
      </trkpt>
      <trkpt lat="46.12645" lon="4.62948">
        <ele>291.8</ele>
        <time>2022-06-25T15:21:44Z</time>
      </trkpt>
      <trkpt lat="46.1264" lon="4.62957">
        <ele>291.8</ele>
        <time>2022-06-25T15:21:45Z</time>
      </trkpt>
      <trkpt lat="46.12636" lon="4.62967">
        <ele>291.6</ele>
        <time>2022-06-25T15:21:46Z</time>
      </trkpt>
      <trkpt lat="46.12631" lon="4.62976">
        <ele>291.6</ele>
        <time>2022-06-25T15:21:47Z</time>
      </trkpt>
      <trkpt lat="46.12627" lon="4.62986">
        <ele>291.6</ele>
        <time>2022-06-25T15:21:48Z</time>
      </trkpt>
      <trkpt lat="46.12622" lon="4.62995">
        <ele>291.6</ele>
        <time>2022-06-25T15:21:49Z</time>
      </trkpt>
      <trkpt lat="46.12618" lon="4.63005">
        <ele>291.6</ele>
        <time>2022-06-25T15:21:50Z</time>
      </trkpt>
      <trkpt lat="46.12614" lon="4.63014">
        <ele>291.6</ele>
        <time>2022-06-25T15:21:51Z</time>
      </trkpt>
      <trkpt lat="46.12609" lon="4.63023">
        <ele>291.6</ele>
        <time>2022-06-25T15:21:52Z</time>
      </trkpt>
      <trkpt lat="46.12605" lon="4.63032">
        <ele>291.6</ele>
        <time>2022-06-25T15:21:53Z</time>
      </trkpt>
      <trkpt lat="46.126" lon="4.63041">
        <ele>291.6</ele>
        <time>2022-06-25T15:21:54Z</time>
      </trkpt>
      <trkpt lat="46.12596" lon="4.6305">
        <ele>291.6</ele>
        <time>2022-06-25T15:21:55Z</time>
      </trkpt>
      <trkpt lat="46.12591" lon="4.63059">
        <ele>291.6</ele>
        <time>2022-06-25T15:21:56Z</time>
      </trkpt>
      <trkpt lat="46.12587" lon="4.63068">
        <ele>291.6</ele>
        <time>2022-06-25T15:21:57Z</time>
      </trkpt>
      <trkpt lat="46.12583" lon="4.63076">
        <ele>291.6</ele>
        <time>2022-06-25T15:21:58Z</time>
      </trkpt>
      <trkpt lat="46.12578" lon="4.63085">
        <ele>291.6</ele>
        <time>2022-06-25T15:21:59Z</time>
      </trkpt>
      <trkpt lat="46.12574" lon="4.63094">
        <ele>291.4</ele>
        <time>2022-06-25T15:22:00Z</time>
      </trkpt>
      <trkpt lat="46.12569" lon="4.63103">
        <ele>291.4</ele>
        <time>2022-06-25T15:22:01Z</time>
      </trkpt>
      <trkpt lat="46.12565" lon="4.63112">
        <ele>291.4</ele>
        <time>2022-06-25T15:22:02Z</time>
      </trkpt>
      <trkpt lat="46.12561" lon="4.6312">
        <ele>291.4</ele>
        <time>2022-06-25T15:22:03Z</time>
      </trkpt>
      <trkpt lat="46.12557" lon="4.63128">
        <ele>291.4</ele>
        <time>2022-06-25T15:22:04Z</time>
      </trkpt>
      <trkpt lat="46.12552" lon="4.63136">
        <ele>291.4</ele>
        <time>2022-06-25T15:22:05Z</time>
      </trkpt>
      <trkpt lat="46.12548" lon="4.63145">
        <ele>291.4</ele>
        <time>2022-06-25T15:22:06Z</time>
      </trkpt>
      <trkpt lat="46.12545" lon="4.63153">
        <ele>291.4</ele>
        <time>2022-06-25T15:22:07Z</time>
      </trkpt>
      <trkpt lat="46.12541" lon="4.63161">
        <ele>291.4</ele>
        <time>2022-06-25T15:22:08Z</time>
      </trkpt>
      <trkpt lat="46.12536" lon="4.63169">
        <ele>291.4</ele>
        <time>2022-06-25T15:22:09Z</time>
      </trkpt>
      <trkpt lat="46.12532" lon="4.63178">
        <ele>291.4</ele>
        <time>2022-06-25T15:22:10Z</time>
      </trkpt>
      <trkpt lat="46.12528" lon="4.63186">
        <ele>291.4</ele>
        <time>2022-06-25T15:22:11Z</time>
      </trkpt>
      <trkpt lat="46.12524" lon="4.63195">
        <ele>291.4</ele>
        <time>2022-06-25T15:22:12Z</time>
      </trkpt>
      <trkpt lat="46.1252" lon="4.63204">
        <ele>291.2</ele>
        <time>2022-06-25T15:22:13Z</time>
      </trkpt>
      <trkpt lat="46.12516" lon="4.63212">
        <ele>291.2</ele>
        <time>2022-06-25T15:22:14Z</time>
      </trkpt>
      <trkpt lat="46.12512" lon="4.6322">
        <ele>290.8</ele>
        <time>2022-06-25T15:22:15Z</time>
      </trkpt>
      <trkpt lat="46.12508" lon="4.63229">
        <ele>290.8</ele>
        <time>2022-06-25T15:22:16Z</time>
      </trkpt>
      <trkpt lat="46.12505" lon="4.63237">
        <ele>290.4</ele>
        <time>2022-06-25T15:22:17Z</time>
      </trkpt>
      <trkpt lat="46.125" lon="4.63245">
        <ele>290.4</ele>
        <time>2022-06-25T15:22:18Z</time>
      </trkpt>
      <trkpt lat="46.12496" lon="4.63253">
        <ele>290.2</ele>
        <time>2022-06-25T15:22:19Z</time>
      </trkpt>
      <trkpt lat="46.12491" lon="4.63262">
        <ele>290</ele>
        <time>2022-06-25T15:22:20Z</time>
      </trkpt>
      <trkpt lat="46.12487" lon="4.63271">
        <ele>290</ele>
        <time>2022-06-25T15:22:21Z</time>
      </trkpt>
      <trkpt lat="46.12482" lon="4.6328">
        <ele>289.6</ele>
        <time>2022-06-25T15:22:22Z</time>
      </trkpt>
      <trkpt lat="46.12478" lon="4.63289">
        <ele>289.4</ele>
        <time>2022-06-25T15:22:23Z</time>
      </trkpt>
      <trkpt lat="46.12473" lon="4.63299">
        <ele>289.4</ele>
        <time>2022-06-25T15:22:24Z</time>
      </trkpt>
      <trkpt lat="46.12468" lon="4.63309">
        <ele>289.2</ele>
        <time>2022-06-25T15:22:25Z</time>
      </trkpt>
      <trkpt lat="46.12464" lon="4.63319">
        <ele>288.8</ele>
        <time>2022-06-25T15:22:26Z</time>
      </trkpt>
      <trkpt lat="46.12459" lon="4.63329">
        <ele>288.8</ele>
        <time>2022-06-25T15:22:27Z</time>
      </trkpt>
      <trkpt lat="46.12453" lon="4.63339">
        <ele>288.6</ele>
        <time>2022-06-25T15:22:28Z</time>
      </trkpt>
      <trkpt lat="46.12448" lon="4.6335">
        <ele>288.2</ele>
        <time>2022-06-25T15:22:29Z</time>
      </trkpt>
      <trkpt lat="46.12443" lon="4.63361">
        <ele>288</ele>
        <time>2022-06-25T15:22:30Z</time>
      </trkpt>
      <trkpt lat="46.12438" lon="4.63373">
        <ele>287.6</ele>
        <time>2022-06-25T15:22:31Z</time>
      </trkpt>
      <trkpt lat="46.12434" lon="4.63384">
        <ele>287.4</ele>
        <time>2022-06-25T15:22:32Z</time>
      </trkpt>
      <trkpt lat="46.12428" lon="4.63394">
        <ele>287.2</ele>
        <time>2022-06-25T15:22:33Z</time>
      </trkpt>
      <trkpt lat="46.12423" lon="4.63405">
        <ele>287</ele>
        <time>2022-06-25T15:22:34Z</time>
      </trkpt>
      <trkpt lat="46.12417" lon="4.63414">
        <ele>287</ele>
        <time>2022-06-25T15:22:35Z</time>
      </trkpt>
      <trkpt lat="46.12412" lon="4.63427">
        <ele>286.6</ele>
        <time>2022-06-25T15:22:36Z</time>
      </trkpt>
      <trkpt lat="46.12407" lon="4.63437">
        <ele>286.4</ele>
        <time>2022-06-25T15:22:37Z</time>
      </trkpt>
      <trkpt lat="46.12401" lon="4.63448">
        <ele>286.4</ele>
        <time>2022-06-25T15:22:38Z</time>
      </trkpt>
      <trkpt lat="46.12396" lon="4.63459">
        <ele>286</ele>
        <time>2022-06-25T15:22:39Z</time>
      </trkpt>
      <trkpt lat="46.12391" lon="4.63471">
        <ele>285.8</ele>
        <time>2022-06-25T15:22:40Z</time>
      </trkpt>
      <trkpt lat="46.12386" lon="4.63481">
        <ele>285.6</ele>
        <time>2022-06-25T15:22:41Z</time>
      </trkpt>
      <trkpt lat="46.12381" lon="4.63492">
        <ele>285.6</ele>
        <time>2022-06-25T15:22:42Z</time>
      </trkpt>
      <trkpt lat="46.12375" lon="4.63504">
        <ele>285</ele>
        <time>2022-06-25T15:22:43Z</time>
      </trkpt>
      <trkpt lat="46.12369" lon="4.63515">
        <ele>284.8</ele>
        <time>2022-06-25T15:22:44Z</time>
      </trkpt>
      <trkpt lat="46.12363" lon="4.63526">
        <ele>284.6</ele>
        <time>2022-06-25T15:22:45Z</time>
      </trkpt>
      <trkpt lat="46.12358" lon="4.63537">
        <ele>284.2</ele>
        <time>2022-06-25T15:22:46Z</time>
      </trkpt>
      <trkpt lat="46.12352" lon="4.63548">
        <ele>284.2</ele>
        <time>2022-06-25T15:22:47Z</time>
      </trkpt>
      <trkpt lat="46.12347" lon="4.63559">
        <ele>283.8</ele>
        <time>2022-06-25T15:22:48Z</time>
      </trkpt>
      <trkpt lat="46.12341" lon="4.6357">
        <ele>283.6</ele>
        <time>2022-06-25T15:22:49Z</time>
      </trkpt>
      <trkpt lat="46.12336" lon="4.6358">
        <ele>283.4</ele>
        <time>2022-06-25T15:22:50Z</time>
      </trkpt>
      <trkpt lat="46.1233" lon="4.63591">
        <ele>283.2</ele>
        <time>2022-06-25T15:22:51Z</time>
      </trkpt>
      <trkpt lat="46.12325" lon="4.63603">
        <ele>283.2</ele>
        <time>2022-06-25T15:22:52Z</time>
      </trkpt>
      <trkpt lat="46.1232" lon="4.63614">
        <ele>282.8</ele>
        <time>2022-06-25T15:22:53Z</time>
      </trkpt>
      <trkpt lat="46.12315" lon="4.63625">
        <ele>282.6</ele>
        <time>2022-06-25T15:22:54Z</time>
      </trkpt>
      <trkpt lat="46.1231" lon="4.63636">
        <ele>282.6</ele>
        <time>2022-06-25T15:22:55Z</time>
      </trkpt>
      <trkpt lat="46.12305" lon="4.63647">
        <ele>282.2</ele>
        <time>2022-06-25T15:22:56Z</time>
      </trkpt>
      <trkpt lat="46.123" lon="4.63658">
        <ele>282</ele>
        <time>2022-06-25T15:22:57Z</time>
      </trkpt>
      <trkpt lat="46.12294" lon="4.63669">
        <ele>282</ele>
        <time>2022-06-25T15:22:58Z</time>
      </trkpt>
      <trkpt lat="46.12289" lon="4.6368">
        <ele>281.6</ele>
        <time>2022-06-25T15:22:59Z</time>
      </trkpt>
      <trkpt lat="46.12284" lon="4.63692">
        <ele>281.2</ele>
        <time>2022-06-25T15:23:00Z</time>
      </trkpt>
      <trkpt lat="46.12279" lon="4.63702">
        <ele>281.2</ele>
        <time>2022-06-25T15:23:01Z</time>
      </trkpt>
      <trkpt lat="46.12273" lon="4.63713">
        <ele>280.8</ele>
        <time>2022-06-25T15:23:02Z</time>
      </trkpt>
      <trkpt lat="46.12268" lon="4.63723">
        <ele>280.8</ele>
        <time>2022-06-25T15:23:03Z</time>
      </trkpt>
      <trkpt lat="46.12263" lon="4.63734">
        <ele>280.4</ele>
        <time>2022-06-25T15:23:04Z</time>
      </trkpt>
      <trkpt lat="46.12257" lon="4.63745">
        <ele>280.4</ele>
        <time>2022-06-25T15:23:05Z</time>
      </trkpt>
      <trkpt lat="46.12252" lon="4.63757">
        <ele>280.2</ele>
        <time>2022-06-25T15:23:06Z</time>
      </trkpt>
      <trkpt lat="46.12247" lon="4.63768">
        <ele>279.8</ele>
        <time>2022-06-25T15:23:07Z</time>
      </trkpt>
      <trkpt lat="46.12242" lon="4.63778">
        <ele>279.6</ele>
        <time>2022-06-25T15:23:08Z</time>
      </trkpt>
      <trkpt lat="46.12237" lon="4.63789">
        <ele>279.6</ele>
        <time>2022-06-25T15:23:09Z</time>
      </trkpt>
      <trkpt lat="46.12231" lon="4.638">
        <ele>279.4</ele>
        <time>2022-06-25T15:23:10Z</time>
      </trkpt>
      <trkpt lat="46.12226" lon="4.6381">
        <ele>279.2</ele>
        <time>2022-06-25T15:23:11Z</time>
      </trkpt>
      <trkpt lat="46.1222" lon="4.63822">
        <ele>278.8</ele>
        <time>2022-06-25T15:23:12Z</time>
      </trkpt>
      <trkpt lat="46.12214" lon="4.63833">
        <ele>278.6</ele>
        <time>2022-06-25T15:23:13Z</time>
      </trkpt>
      <trkpt lat="46.12209" lon="4.63844">
        <ele>278.4</ele>
        <time>2022-06-25T15:23:14Z</time>
      </trkpt>
      <trkpt lat="46.12203" lon="4.63855">
        <ele>278.2</ele>
        <time>2022-06-25T15:23:15Z</time>
      </trkpt>
      <trkpt lat="46.12198" lon="4.63866">
        <ele>278</ele>
        <time>2022-06-25T15:23:16Z</time>
      </trkpt>
      <trkpt lat="46.12192" lon="4.63877">
        <ele>278</ele>
        <time>2022-06-25T15:23:17Z</time>
      </trkpt>
      <trkpt lat="46.12187" lon="4.63888">
        <ele>277.6</ele>
        <time>2022-06-25T15:23:18Z</time>
      </trkpt>
      <trkpt lat="46.12181" lon="4.63899">
        <ele>277.6</ele>
        <time>2022-06-25T15:23:19Z</time>
      </trkpt>
      <trkpt lat="46.12176" lon="4.63911">
        <ele>277.2</ele>
        <time>2022-06-25T15:23:20Z</time>
      </trkpt>
      <trkpt lat="46.12171" lon="4.63922">
        <ele>277</ele>
        <time>2022-06-25T15:23:21Z</time>
      </trkpt>
      <trkpt lat="46.12165" lon="4.63933">
        <ele>277</ele>
        <time>2022-06-25T15:23:22Z</time>
      </trkpt>
      <trkpt lat="46.1216" lon="4.63945">
        <ele>276.6</ele>
        <time>2022-06-25T15:23:23Z</time>
      </trkpt>
      <trkpt lat="46.12155" lon="4.63957">
        <ele>276.4</ele>
        <time>2022-06-25T15:23:24Z</time>
      </trkpt>
      <trkpt lat="46.1215" lon="4.63968">
        <ele>276.2</ele>
        <time>2022-06-25T15:23:25Z</time>
      </trkpt>
      <trkpt lat="46.12144" lon="4.63978">
        <ele>275.8</ele>
        <time>2022-06-25T15:23:26Z</time>
      </trkpt>
      <trkpt lat="46.12139" lon="4.63988">
        <ele>275.6</ele>
        <time>2022-06-25T15:23:27Z</time>
      </trkpt>
      <trkpt lat="46.12134" lon="4.63998">
        <ele>275.4</ele>
        <time>2022-06-25T15:23:28Z</time>
      </trkpt>
      <trkpt lat="46.12129" lon="4.64008">
        <ele>275.2</ele>
        <time>2022-06-25T15:23:29Z</time>
      </trkpt>
      <trkpt lat="46.12124" lon="4.64018">
        <ele>275.2</ele>
        <time>2022-06-25T15:23:30Z</time>
      </trkpt>
      <trkpt lat="46.12119" lon="4.64028">
        <ele>274.8</ele>
        <time>2022-06-25T15:23:31Z</time>
      </trkpt>
      <trkpt lat="46.12114" lon="4.64039">
        <ele>274.6</ele>
        <time>2022-06-25T15:23:32Z</time>
      </trkpt>
      <trkpt lat="46.12109" lon="4.64049">
        <ele>274.6</ele>
        <time>2022-06-25T15:23:33Z</time>
      </trkpt>
      <trkpt lat="46.12104" lon="4.64059">
        <ele>274.2</ele>
        <time>2022-06-25T15:23:34Z</time>
      </trkpt>
      <trkpt lat="46.12099" lon="4.6407">
        <ele>274.2</ele>
        <time>2022-06-25T15:23:35Z</time>
      </trkpt>
      <trkpt lat="46.12093" lon="4.64081">
        <ele>274.2</ele>
        <time>2022-06-25T15:23:36Z</time>
      </trkpt>
      <trkpt lat="46.12088" lon="4.64091">
        <ele>274</ele>
        <time>2022-06-25T15:23:37Z</time>
      </trkpt>
      <trkpt lat="46.12083" lon="4.64102">
        <ele>273.8</ele>
        <time>2022-06-25T15:23:38Z</time>
      </trkpt>
      <trkpt lat="46.12078" lon="4.64112">
        <ele>273.8</ele>
        <time>2022-06-25T15:23:39Z</time>
      </trkpt>
      <trkpt lat="46.12073" lon="4.64122">
        <ele>273.6</ele>
        <time>2022-06-25T15:23:40Z</time>
      </trkpt>
      <trkpt lat="46.12068" lon="4.64132">
        <ele>273.6</ele>
        <time>2022-06-25T15:23:41Z</time>
      </trkpt>
      <trkpt lat="46.12063" lon="4.64143">
        <ele>273.2</ele>
        <time>2022-06-25T15:23:42Z</time>
      </trkpt>
      <trkpt lat="46.12058" lon="4.64153">
        <ele>273.2</ele>
        <time>2022-06-25T15:23:43Z</time>
      </trkpt>
      <trkpt lat="46.12053" lon="4.64163">
        <ele>273</ele>
        <time>2022-06-25T15:23:44Z</time>
      </trkpt>
      <trkpt lat="46.12048" lon="4.64173">
        <ele>273</ele>
        <time>2022-06-25T15:23:45Z</time>
      </trkpt>
      <trkpt lat="46.12043" lon="4.64184">
        <ele>273</ele>
        <time>2022-06-25T15:23:46Z</time>
      </trkpt>
      <trkpt lat="46.12038" lon="4.64194">
        <ele>272.8</ele>
        <time>2022-06-25T15:23:47Z</time>
      </trkpt>
      <trkpt lat="46.12033" lon="4.64204">
        <ele>272.8</ele>
        <time>2022-06-25T15:23:48Z</time>
      </trkpt>
      <trkpt lat="46.12028" lon="4.64214">
        <ele>272.8</ele>
        <time>2022-06-25T15:23:49Z</time>
      </trkpt>
      <trkpt lat="46.12023" lon="4.64225">
        <ele>272.8</ele>
        <time>2022-06-25T15:23:50Z</time>
      </trkpt>
      <trkpt lat="46.12018" lon="4.64234">
        <ele>272.8</ele>
        <time>2022-06-25T15:23:51Z</time>
      </trkpt>
      <trkpt lat="46.12013" lon="4.64244">
        <ele>272.8</ele>
        <time>2022-06-25T15:23:52Z</time>
      </trkpt>
      <trkpt lat="46.12008" lon="4.64254">
        <ele>272.8</ele>
        <time>2022-06-25T15:23:53Z</time>
      </trkpt>
      <trkpt lat="46.12004" lon="4.64264">
        <ele>272.8</ele>
        <time>2022-06-25T15:23:54Z</time>
      </trkpt>
      <trkpt lat="46.11999" lon="4.64274">
        <ele>272.8</ele>
        <time>2022-06-25T15:23:55Z</time>
      </trkpt>
      <trkpt lat="46.11994" lon="4.64283">
        <ele>272.8</ele>
        <time>2022-06-25T15:23:56Z</time>
      </trkpt>
      <trkpt lat="46.1199" lon="4.64292">
        <ele>272.8</ele>
        <time>2022-06-25T15:23:57Z</time>
      </trkpt>
      <trkpt lat="46.11985" lon="4.64302">
        <ele>272.8</ele>
        <time>2022-06-25T15:23:58Z</time>
      </trkpt>
      <trkpt lat="46.11981" lon="4.6431">
        <ele>272.8</ele>
        <time>2022-06-25T15:23:59Z</time>
      </trkpt>
      <trkpt lat="46.11977" lon="4.64319">
        <ele>273</ele>
        <time>2022-06-25T15:24:00Z</time>
      </trkpt>
      <trkpt lat="46.11972" lon="4.64328">
        <ele>273</ele>
        <time>2022-06-25T15:24:01Z</time>
      </trkpt>
      <trkpt lat="46.11968" lon="4.64337">
        <ele>273</ele>
        <time>2022-06-25T15:24:02Z</time>
      </trkpt>
      <trkpt lat="46.11964" lon="4.64345">
        <ele>273</ele>
        <time>2022-06-25T15:24:03Z</time>
      </trkpt>
      <trkpt lat="46.1196" lon="4.64354">
        <ele>273</ele>
        <time>2022-06-25T15:24:04Z</time>
      </trkpt>
      <trkpt lat="46.11954" lon="4.64366">
        <ele>273</ele>
        <time>2022-06-25T15:24:05Z</time>
      </trkpt>
      <trkpt lat="46.11952" lon="4.64371">
        <ele>273</ele>
        <time>2022-06-25T15:24:06Z</time>
      </trkpt>
      <trkpt lat="46.11948" lon="4.64379">
        <ele>273</ele>
        <time>2022-06-25T15:24:07Z</time>
      </trkpt>
      <trkpt lat="46.11944" lon="4.64387">
        <ele>273.2</ele>
        <time>2022-06-25T15:24:08Z</time>
      </trkpt>
      <trkpt lat="46.1194" lon="4.64395">
        <ele>273.2</ele>
        <time>2022-06-25T15:24:09Z</time>
      </trkpt>
      <trkpt lat="46.11936" lon="4.64403">
        <ele>273.2</ele>
        <time>2022-06-25T15:24:10Z</time>
      </trkpt>
      <trkpt lat="46.11932" lon="4.64412">
        <ele>273.2</ele>
        <time>2022-06-25T15:24:11Z</time>
      </trkpt>
      <trkpt lat="46.11928" lon="4.6442">
        <ele>273.2</ele>
        <time>2022-06-25T15:24:12Z</time>
      </trkpt>
      <trkpt lat="46.11924" lon="4.64428">
        <ele>273.2</ele>
        <time>2022-06-25T15:24:13Z</time>
      </trkpt>
      <trkpt lat="46.1192" lon="4.64436">
        <ele>273.2</ele>
        <time>2022-06-25T15:24:14Z</time>
      </trkpt>
      <trkpt lat="46.11916" lon="4.64444">
        <ele>273.2</ele>
        <time>2022-06-25T15:24:15Z</time>
      </trkpt>
      <trkpt lat="46.11912" lon="4.64453">
        <ele>273.2</ele>
        <time>2022-06-25T15:24:16Z</time>
      </trkpt>
      <trkpt lat="46.11908" lon="4.64461">
        <ele>273</ele>
        <time>2022-06-25T15:24:17Z</time>
      </trkpt>
      <trkpt lat="46.11904" lon="4.64469">
        <ele>273</ele>
        <time>2022-06-25T15:24:18Z</time>
      </trkpt>
      <trkpt lat="46.11895" lon="4.64485">
        <ele>273</ele>
        <time>2022-06-25T15:24:19Z</time>
      </trkpt>
      <trkpt lat="46.11891" lon="4.64493">
        <ele>273</ele>
        <time>2022-06-25T15:24:20Z</time>
      </trkpt>
      <trkpt lat="46.11887" lon="4.64501">
        <ele>273</ele>
        <time>2022-06-25T15:24:21Z</time>
      </trkpt>
      <trkpt lat="46.11882" lon="4.64509">
        <ele>273</ele>
        <time>2022-06-25T15:24:22Z</time>
      </trkpt>
      <trkpt lat="46.11878" lon="4.64516">
        <ele>272.8</ele>
        <time>2022-06-25T15:24:23Z</time>
      </trkpt>
      <trkpt lat="46.11873" lon="4.64523">
        <ele>272.8</ele>
        <time>2022-06-25T15:24:24Z</time>
      </trkpt>
      <trkpt lat="46.11869" lon="4.64531">
        <ele>272.8</ele>
        <time>2022-06-25T15:24:25Z</time>
      </trkpt>
      <trkpt lat="46.11865" lon="4.64537">
        <ele>272.8</ele>
        <time>2022-06-25T15:24:26Z</time>
      </trkpt>
      <trkpt lat="46.1186" lon="4.64542">
        <ele>273</ele>
        <time>2022-06-25T15:24:27Z</time>
      </trkpt>
      <trkpt lat="46.11855" lon="4.64544">
        <ele>273</ele>
        <time>2022-06-25T15:24:28Z</time>
      </trkpt>
      <trkpt lat="46.1185" lon="4.64545">
        <ele>273.4</ele>
        <time>2022-06-25T15:24:29Z</time>
      </trkpt>
      <trkpt lat="46.11845" lon="4.64546">
        <ele>273.4</ele>
        <time>2022-06-25T15:24:30Z</time>
      </trkpt>
      <trkpt lat="46.1184" lon="4.64549">
        <ele>273.6</ele>
        <time>2022-06-25T15:24:31Z</time>
      </trkpt>
      <trkpt lat="46.11837" lon="4.64553">
        <ele>273.6</ele>
        <time>2022-06-25T15:24:32Z</time>
      </trkpt>
      <trkpt lat="46.11834" lon="4.64559">
        <ele>273.6</ele>
        <time>2022-06-25T15:24:33Z</time>
      </trkpt>
      <trkpt lat="46.11834" lon="4.64566">
        <ele>273.6</ele>
        <time>2022-06-25T15:24:34Z</time>
      </trkpt>
      <trkpt lat="46.11834" lon="4.64573">
        <ele>273.6</ele>
        <time>2022-06-25T15:24:35Z</time>
      </trkpt>
      <trkpt lat="46.11836" lon="4.64581">
        <ele>273.6</ele>
        <time>2022-06-25T15:24:36Z</time>
      </trkpt>
      <trkpt lat="46.11839" lon="4.64588">
        <ele>273.6</ele>
        <time>2022-06-25T15:24:37Z</time>
      </trkpt>
      <trkpt lat="46.11841" lon="4.64596">
        <ele>273.2</ele>
        <time>2022-06-25T15:24:38Z</time>
      </trkpt>
      <trkpt lat="46.11842" lon="4.64605">
        <ele>273.2</ele>
        <time>2022-06-25T15:24:39Z</time>
      </trkpt>
      <trkpt lat="46.11842" lon="4.64614">
        <ele>273</ele>
        <time>2022-06-25T15:24:40Z</time>
      </trkpt>
      <trkpt lat="46.11842" lon="4.64624">
        <ele>273</ele>
        <time>2022-06-25T15:24:41Z</time>
      </trkpt>
      <trkpt lat="46.11842" lon="4.64633">
        <ele>273</ele>
        <time>2022-06-25T15:24:42Z</time>
      </trkpt>
      <trkpt lat="46.11842" lon="4.64642">
        <ele>273</ele>
        <time>2022-06-25T15:24:43Z</time>
      </trkpt>
      <trkpt lat="46.11842" lon="4.64652">
        <ele>273</ele>
        <time>2022-06-25T15:24:44Z</time>
      </trkpt>
      <trkpt lat="46.11842" lon="4.64661">
        <ele>273</ele>
        <time>2022-06-25T15:24:45Z</time>
      </trkpt>
      <trkpt lat="46.11842" lon="4.64671">
        <ele>273</ele>
        <time>2022-06-25T15:24:46Z</time>
      </trkpt>
      <trkpt lat="46.11842" lon="4.6468">
        <ele>272.8</ele>
        <time>2022-06-25T15:24:47Z</time>
      </trkpt>
      <trkpt lat="46.11843" lon="4.6469">
        <ele>272.8</ele>
        <time>2022-06-25T15:24:48Z</time>
      </trkpt>
      <trkpt lat="46.11844" lon="4.647">
        <ele>272.8</ele>
        <time>2022-06-25T15:24:49Z</time>
      </trkpt>
      <trkpt lat="46.11844" lon="4.6471">
        <ele>272.8</ele>
        <time>2022-06-25T15:24:50Z</time>
      </trkpt>
      <trkpt lat="46.11844" lon="4.64721">
        <ele>272.8</ele>
        <time>2022-06-25T15:24:51Z</time>
      </trkpt>
      <trkpt lat="46.11845" lon="4.64731">
        <ele>272.6</ele>
        <time>2022-06-25T15:24:52Z</time>
      </trkpt>
      <trkpt lat="46.11846" lon="4.64742">
        <ele>272.4</ele>
        <time>2022-06-25T15:24:53Z</time>
      </trkpt>
      <trkpt lat="46.11846" lon="4.64753">
        <ele>272.4</ele>
        <time>2022-06-25T15:24:54Z</time>
      </trkpt>
      <trkpt lat="46.11847" lon="4.64765">
        <ele>272</ele>
        <time>2022-06-25T15:24:55Z</time>
      </trkpt>
      <trkpt lat="46.11848" lon="4.64777">
        <ele>271.6</ele>
        <time>2022-06-25T15:24:56Z</time>
      </trkpt>
      <trkpt lat="46.11848" lon="4.64789">
        <ele>271.6</ele>
        <time>2022-06-25T15:24:57Z</time>
      </trkpt>
      <trkpt lat="46.11849" lon="4.64801">
        <ele>271.4</ele>
        <time>2022-06-25T15:24:58Z</time>
      </trkpt>
      <trkpt lat="46.11849" lon="4.64813">
        <ele>271.4</ele>
        <time>2022-06-25T15:24:59Z</time>
      </trkpt>
      <trkpt lat="46.1185" lon="4.64826">
        <ele>271.2</ele>
        <time>2022-06-25T15:25:00Z</time>
      </trkpt>
      <trkpt lat="46.1185" lon="4.64839">
        <ele>271.2</ele>
        <time>2022-06-25T15:25:01Z</time>
      </trkpt>
      <trkpt lat="46.11851" lon="4.64852">
        <ele>271.2</ele>
        <time>2022-06-25T15:25:02Z</time>
      </trkpt>
      <trkpt lat="46.11852" lon="4.64865">
        <ele>270.6</ele>
        <time>2022-06-25T15:25:03Z</time>
      </trkpt>
      <trkpt lat="46.11853" lon="4.64879">
        <ele>270.4</ele>
        <time>2022-06-25T15:25:04Z</time>
      </trkpt>
      <trkpt lat="46.11854" lon="4.64893">
        <ele>270.2</ele>
        <time>2022-06-25T15:25:05Z</time>
      </trkpt>
      <trkpt lat="46.11855" lon="4.64907">
        <ele>270.2</ele>
        <time>2022-06-25T15:25:06Z</time>
      </trkpt>
      <trkpt lat="46.11855" lon="4.6492">
        <ele>269.8</ele>
        <time>2022-06-25T15:25:07Z</time>
      </trkpt>
      <trkpt lat="46.11855" lon="4.64933">
        <ele>269.8</ele>
        <time>2022-06-25T15:25:08Z</time>
      </trkpt>
      <trkpt lat="46.11856" lon="4.64945">
        <ele>269.4</ele>
        <time>2022-06-25T15:25:09Z</time>
      </trkpt>
      <trkpt lat="46.11857" lon="4.64959">
        <ele>269.4</ele>
        <time>2022-06-25T15:25:10Z</time>
      </trkpt>
      <trkpt lat="46.11858" lon="4.64972">
        <ele>269.4</ele>
        <time>2022-06-25T15:25:11Z</time>
      </trkpt>
      <trkpt lat="46.11858" lon="4.64985">
        <ele>269.2</ele>
        <time>2022-06-25T15:25:12Z</time>
      </trkpt>
      <trkpt lat="46.11859" lon="4.64997">
        <ele>269.2</ele>
        <time>2022-06-25T15:25:13Z</time>
      </trkpt>
      <trkpt lat="46.11859" lon="4.65009">
        <ele>268.8</ele>
        <time>2022-06-25T15:25:14Z</time>
      </trkpt>
      <trkpt lat="46.1186" lon="4.65022">
        <ele>268.8</ele>
        <time>2022-06-25T15:25:15Z</time>
      </trkpt>
      <trkpt lat="46.1186" lon="4.65034">
        <ele>268.4</ele>
        <time>2022-06-25T15:25:16Z</time>
      </trkpt>
      <trkpt lat="46.1186" lon="4.65047">
        <ele>268.4</ele>
        <time>2022-06-25T15:25:17Z</time>
      </trkpt>
      <trkpt lat="46.11861" lon="4.65059">
        <ele>268.4</ele>
        <time>2022-06-25T15:25:18Z</time>
      </trkpt>
      <trkpt lat="46.11861" lon="4.65071">
        <ele>268.4</ele>
        <time>2022-06-25T15:25:19Z</time>
      </trkpt>
      <trkpt lat="46.11862" lon="4.65083">
        <ele>268.2</ele>
        <time>2022-06-25T15:25:20Z</time>
      </trkpt>
      <trkpt lat="46.11862" lon="4.65095">
        <ele>268.2</ele>
        <time>2022-06-25T15:25:21Z</time>
      </trkpt>
      <trkpt lat="46.11863" lon="4.65106">
        <ele>268.2</ele>
        <time>2022-06-25T15:25:22Z</time>
      </trkpt>
      <trkpt lat="46.11864" lon="4.65117">
        <ele>268</ele>
        <time>2022-06-25T15:25:23Z</time>
      </trkpt>
      <trkpt lat="46.11865" lon="4.65128">
        <ele>268</ele>
        <time>2022-06-25T15:25:24Z</time>
      </trkpt>
      <trkpt lat="46.11866" lon="4.65137">
        <ele>267.6</ele>
        <time>2022-06-25T15:25:25Z</time>
      </trkpt>
      <trkpt lat="46.11866" lon="4.65145">
        <ele>267.6</ele>
        <time>2022-06-25T15:25:26Z</time>
      </trkpt>
      <trkpt lat="46.11864" lon="4.65151">
        <ele>267.6</ele>
        <time>2022-06-25T15:25:27Z</time>
      </trkpt>
      <trkpt lat="46.11861" lon="4.65155">
        <ele>267.4</ele>
        <time>2022-06-25T15:25:28Z</time>
      </trkpt>
      <trkpt lat="46.11857" lon="4.65156">
        <ele>267.4</ele>
        <time>2022-06-25T15:25:29Z</time>
      </trkpt>
      <trkpt lat="46.11853" lon="4.65156">
        <ele>267.4</ele>
        <time>2022-06-25T15:25:30Z</time>
      </trkpt>
      <trkpt lat="46.1185" lon="4.65154">
        <ele>267.4</ele>
        <time>2022-06-25T15:25:31Z</time>
      </trkpt>
      <trkpt lat="46.11847" lon="4.65151">
        <ele>267.4</ele>
        <time>2022-06-25T15:25:32Z</time>
      </trkpt>
      <trkpt lat="46.11843" lon="4.6515">
        <ele>267.4</ele>
        <time>2022-06-25T15:25:33Z</time>
      </trkpt>
      <trkpt lat="46.1184" lon="4.65148">
        <ele>267.6</ele>
        <time>2022-06-25T15:25:34Z</time>
      </trkpt>
      <trkpt lat="46.11837" lon="4.65147">
        <ele>267.6</ele>
        <time>2022-06-25T15:25:35Z</time>
      </trkpt>
      <trkpt lat="46.11833" lon="4.65145">
        <ele>267.6</ele>
        <time>2022-06-25T15:25:36Z</time>
      </trkpt>
      <trkpt lat="46.1183" lon="4.65144">
        <ele>268</ele>
        <time>2022-06-25T15:25:37Z</time>
      </trkpt>
      <trkpt lat="46.11827" lon="4.65143">
        <ele>268</ele>
        <time>2022-06-25T15:25:38Z</time>
      </trkpt>
      <trkpt lat="46.11824" lon="4.65141">
        <ele>268.2</ele>
        <time>2022-06-25T15:25:39Z</time>
      </trkpt>
      <trkpt lat="46.11821" lon="4.65139">
        <ele>268.2</ele>
        <time>2022-06-25T15:25:40Z</time>
      </trkpt>
      <trkpt lat="46.11817" lon="4.65138">
        <ele>268.6</ele>
        <time>2022-06-25T15:25:41Z</time>
      </trkpt>
      <trkpt lat="46.11814" lon="4.65137">
        <ele>268.6</ele>
        <time>2022-06-25T15:25:42Z</time>
      </trkpt>
      <trkpt lat="46.11811" lon="4.65136">
        <ele>269</ele>
        <time>2022-06-25T15:25:43Z</time>
      </trkpt>
      <trkpt lat="46.11807" lon="4.65135">
        <ele>269</ele>
        <time>2022-06-25T15:25:44Z</time>
      </trkpt>
      <trkpt lat="46.11804" lon="4.65133">
        <ele>269.2</ele>
        <time>2022-06-25T15:25:45Z</time>
      </trkpt>
      <trkpt lat="46.11801" lon="4.65132">
        <ele>269.2</ele>
        <time>2022-06-25T15:25:46Z</time>
      </trkpt>
      <trkpt lat="46.11797" lon="4.65131">
        <ele>269.6</ele>
        <time>2022-06-25T15:25:47Z</time>
      </trkpt>
      <trkpt lat="46.11794" lon="4.65131">
        <ele>269.8</ele>
        <time>2022-06-25T15:25:48Z</time>
      </trkpt>
      <trkpt lat="46.11791" lon="4.6513">
        <ele>269.8</ele>
        <time>2022-06-25T15:25:49Z</time>
      </trkpt>
      <trkpt lat="46.11788" lon="4.65129">
        <ele>270.2</ele>
        <time>2022-06-25T15:25:50Z</time>
      </trkpt>
      <trkpt lat="46.11784" lon="4.65129">
        <ele>270.4</ele>
        <time>2022-06-25T15:25:51Z</time>
      </trkpt>
      <trkpt lat="46.11781" lon="4.65128">
        <ele>270.6</ele>
        <time>2022-06-25T15:25:52Z</time>
      </trkpt>
      <trkpt lat="46.11779" lon="4.65128">
        <ele>270.6</ele>
        <time>2022-06-25T15:25:53Z</time>
      </trkpt>
      <trkpt lat="46.11776" lon="4.65128">
        <ele>271</ele>
        <time>2022-06-25T15:25:54Z</time>
      </trkpt>
      <trkpt lat="46.11773" lon="4.65127">
        <ele>271.2</ele>
        <time>2022-06-25T15:25:55Z</time>
      </trkpt>
      <trkpt lat="46.1177" lon="4.65127">
        <ele>271.4</ele>
        <time>2022-06-25T15:25:56Z</time>
      </trkpt>
      <trkpt lat="46.11767" lon="4.65127">
        <ele>271.8</ele>
        <time>2022-06-25T15:25:57Z</time>
      </trkpt>
      <trkpt lat="46.11764" lon="4.65128">
        <ele>272</ele>
        <time>2022-06-25T15:25:58Z</time>
      </trkpt>
      <trkpt lat="46.11761" lon="4.65129">
        <ele>272.4</ele>
        <time>2022-06-25T15:25:59Z</time>
      </trkpt>
      <trkpt lat="46.11759" lon="4.6513">
        <ele>272.6</ele>
        <time>2022-06-25T15:26:00Z</time>
      </trkpt>
      <trkpt lat="46.11756" lon="4.65132">
        <ele>273</ele>
        <time>2022-06-25T15:26:01Z</time>
      </trkpt>
      <trkpt lat="46.11753" lon="4.65133">
        <ele>273</ele>
        <time>2022-06-25T15:26:02Z</time>
      </trkpt>
      <trkpt lat="46.11751" lon="4.65135">
        <ele>273.4</ele>
        <time>2022-06-25T15:26:03Z</time>
      </trkpt>
      <trkpt lat="46.11749" lon="4.65136">
        <ele>273.6</ele>
        <time>2022-06-25T15:26:04Z</time>
      </trkpt>
      <trkpt lat="46.11746" lon="4.65138">
        <ele>274</ele>
        <time>2022-06-25T15:26:05Z</time>
      </trkpt>
      <trkpt lat="46.11745" lon="4.65141">
        <ele>274.4</ele>
        <time>2022-06-25T15:26:06Z</time>
      </trkpt>
      <trkpt lat="46.11743" lon="4.65143">
        <ele>274.8</ele>
        <time>2022-06-25T15:26:07Z</time>
      </trkpt>
      <trkpt lat="46.11741" lon="4.65146">
        <ele>275.2</ele>
        <time>2022-06-25T15:26:08Z</time>
      </trkpt>
      <trkpt lat="46.1174" lon="4.65149">
        <ele>275.4</ele>
        <time>2022-06-25T15:26:09Z</time>
      </trkpt>
      <trkpt lat="46.11738" lon="4.65152">
        <ele>275.8</ele>
        <time>2022-06-25T15:26:10Z</time>
      </trkpt>
      <trkpt lat="46.11736" lon="4.65154">
        <ele>276.2</ele>
        <time>2022-06-25T15:26:11Z</time>
      </trkpt>
      <trkpt lat="46.11734" lon="4.65157">
        <ele>276.4</ele>
        <time>2022-06-25T15:26:12Z</time>
      </trkpt>
      <trkpt lat="46.11732" lon="4.65159">
        <ele>276.6</ele>
        <time>2022-06-25T15:26:13Z</time>
      </trkpt>
      <trkpt lat="46.11731" lon="4.65163">
        <ele>277</ele>
        <time>2022-06-25T15:26:14Z</time>
      </trkpt>
      <trkpt lat="46.11729" lon="4.65166">
        <ele>277.2</ele>
        <time>2022-06-25T15:26:15Z</time>
      </trkpt>
      <trkpt lat="46.11728" lon="4.65169">
        <ele>277.4</ele>
        <time>2022-06-25T15:26:16Z</time>
      </trkpt>
      <trkpt lat="46.11726" lon="4.65172">
        <ele>277.6</ele>
        <time>2022-06-25T15:26:17Z</time>
      </trkpt>
      <trkpt lat="46.11724" lon="4.65175">
        <ele>278</ele>
        <time>2022-06-25T15:26:18Z</time>
      </trkpt>
      <trkpt lat="46.11723" lon="4.65177">
        <ele>278.2</ele>
        <time>2022-06-25T15:26:19Z</time>
      </trkpt>
      <trkpt lat="46.11721" lon="4.6518">
        <ele>278.4</ele>
        <time>2022-06-25T15:26:20Z</time>
      </trkpt>
      <trkpt lat="46.1172" lon="4.65183">
        <ele>278.8</ele>
        <time>2022-06-25T15:26:21Z</time>
      </trkpt>
      <trkpt lat="46.11718" lon="4.65185">
        <ele>279</ele>
        <time>2022-06-25T15:26:22Z</time>
      </trkpt>
      <trkpt lat="46.11717" lon="4.65187">
        <ele>279.2</ele>
        <time>2022-06-25T15:26:23Z</time>
      </trkpt>
      <trkpt lat="46.11716" lon="4.65189">
        <ele>279.6</ele>
        <time>2022-06-25T15:26:24Z</time>
      </trkpt>
      <trkpt lat="46.11715" lon="4.65192">
        <ele>279.8</ele>
        <time>2022-06-25T15:26:25Z</time>
      </trkpt>
      <trkpt lat="46.11713" lon="4.65194">
        <ele>280</ele>
        <time>2022-06-25T15:26:26Z</time>
      </trkpt>
      <trkpt lat="46.11712" lon="4.65197">
        <ele>280.2</ele>
        <time>2022-06-25T15:26:27Z</time>
      </trkpt>
      <trkpt lat="46.11711" lon="4.65199">
        <ele>280.6</ele>
        <time>2022-06-25T15:26:28Z</time>
      </trkpt>
      <trkpt lat="46.11711" lon="4.65203">
        <ele>280.8</ele>
        <time>2022-06-25T15:26:29Z</time>
      </trkpt>
      <trkpt lat="46.1171" lon="4.65206">
        <ele>281</ele>
        <time>2022-06-25T15:26:30Z</time>
      </trkpt>
      <trkpt lat="46.1171" lon="4.65209">
        <ele>281.2</ele>
        <time>2022-06-25T15:26:31Z</time>
      </trkpt>
      <trkpt lat="46.11711" lon="4.65213">
        <ele>281.2</ele>
        <time>2022-06-25T15:26:32Z</time>
      </trkpt>
      <trkpt lat="46.11711" lon="4.65216">
        <ele>281.6</ele>
        <time>2022-06-25T15:26:33Z</time>
      </trkpt>
      <trkpt lat="46.11712" lon="4.6522">
        <ele>281.6</ele>
        <time>2022-06-25T15:26:34Z</time>
      </trkpt>
      <trkpt lat="46.11714" lon="4.65224">
        <ele>282</ele>
        <time>2022-06-25T15:26:35Z</time>
      </trkpt>
      <trkpt lat="46.11715" lon="4.65227">
        <ele>282</ele>
        <time>2022-06-25T15:26:36Z</time>
      </trkpt>
      <trkpt lat="46.11716" lon="4.65231">
        <ele>282.4</ele>
        <time>2022-06-25T15:26:37Z</time>
      </trkpt>
      <trkpt lat="46.11717" lon="4.65235">
        <ele>282.4</ele>
        <time>2022-06-25T15:26:38Z</time>
      </trkpt>
      <trkpt lat="46.11718" lon="4.65238">
        <ele>282.6</ele>
        <time>2022-06-25T15:26:39Z</time>
      </trkpt>
      <trkpt lat="46.11718" lon="4.65242">
        <ele>282.8</ele>
        <time>2022-06-25T15:26:40Z</time>
      </trkpt>
      <trkpt lat="46.11719" lon="4.65246">
        <ele>282.8</ele>
        <time>2022-06-25T15:26:41Z</time>
      </trkpt>
      <trkpt lat="46.1172" lon="4.65249">
        <ele>283.2</ele>
        <time>2022-06-25T15:26:42Z</time>
      </trkpt>
      <trkpt lat="46.1172" lon="4.65252">
        <ele>283.6</ele>
        <time>2022-06-25T15:26:43Z</time>
      </trkpt>
      <trkpt lat="46.11721" lon="4.65256">
        <ele>283.8</ele>
        <time>2022-06-25T15:26:44Z</time>
      </trkpt>
      <trkpt lat="46.11721" lon="4.65259">
        <ele>284.2</ele>
        <time>2022-06-25T15:26:45Z</time>
      </trkpt>
      <trkpt lat="46.11721" lon="4.65263">
        <ele>284.6</ele>
        <time>2022-06-25T15:26:46Z</time>
      </trkpt>
      <trkpt lat="46.11722" lon="4.65266">
        <ele>285</ele>
        <time>2022-06-25T15:26:47Z</time>
      </trkpt>
      <trkpt lat="46.11722" lon="4.65269">
        <ele>285.2</ele>
        <time>2022-06-25T15:26:48Z</time>
      </trkpt>
      <trkpt lat="46.11722" lon="4.65272">
        <ele>285.6</ele>
        <time>2022-06-25T15:26:49Z</time>
      </trkpt>
      <trkpt lat="46.11721" lon="4.65276">
        <ele>285.8</ele>
        <time>2022-06-25T15:26:50Z</time>
      </trkpt>
      <trkpt lat="46.1172" lon="4.65279">
        <ele>286.2</ele>
        <time>2022-06-25T15:26:51Z</time>
      </trkpt>
      <trkpt lat="46.11719" lon="4.65281">
        <ele>286.4</ele>
        <time>2022-06-25T15:26:52Z</time>
      </trkpt>
      <trkpt lat="46.11717" lon="4.65283">
        <ele>286.8</ele>
        <time>2022-06-25T15:26:53Z</time>
      </trkpt>
      <trkpt lat="46.11716" lon="4.65286">
        <ele>287</ele>
        <time>2022-06-25T15:26:54Z</time>
      </trkpt>
      <trkpt lat="46.11715" lon="4.65288">
        <ele>287.4</ele>
        <time>2022-06-25T15:26:55Z</time>
      </trkpt>
      <trkpt lat="46.11713" lon="4.65289">
        <ele>287.6</ele>
        <time>2022-06-25T15:26:56Z</time>
      </trkpt>
      <trkpt lat="46.11712" lon="4.65291">
        <ele>288</ele>
        <time>2022-06-25T15:26:57Z</time>
      </trkpt>
      <trkpt lat="46.1171" lon="4.65292">
        <ele>288.4</ele>
        <time>2022-06-25T15:26:58Z</time>
      </trkpt>
      <trkpt lat="46.11709" lon="4.65295">
        <ele>288.8</ele>
        <time>2022-06-25T15:26:59Z</time>
      </trkpt>
      <trkpt lat="46.11708" lon="4.65298">
        <ele>289</ele>
        <time>2022-06-25T15:27:00Z</time>
      </trkpt>
      <trkpt lat="46.11707" lon="4.653">
        <ele>289.4</ele>
        <time>2022-06-25T15:27:01Z</time>
      </trkpt>
      <trkpt lat="46.11706" lon="4.65302">
        <ele>289.6</ele>
        <time>2022-06-25T15:27:02Z</time>
      </trkpt>
      <trkpt lat="46.11704" lon="4.65304">
        <ele>289.8</ele>
        <time>2022-06-25T15:27:03Z</time>
      </trkpt>
      <trkpt lat="46.11702" lon="4.65306">
        <ele>290.2</ele>
        <time>2022-06-25T15:27:04Z</time>
      </trkpt>
      <trkpt lat="46.11701" lon="4.65308">
        <ele>290.2</ele>
        <time>2022-06-25T15:27:05Z</time>
      </trkpt>
      <trkpt lat="46.11698" lon="4.6531">
        <ele>290.4</ele>
        <time>2022-06-25T15:27:06Z</time>
      </trkpt>
      <trkpt lat="46.11696" lon="4.65312">
        <ele>290.4</ele>
        <time>2022-06-25T15:27:07Z</time>
      </trkpt>
      <trkpt lat="46.11693" lon="4.65313">
        <ele>290.8</ele>
        <time>2022-06-25T15:27:08Z</time>
      </trkpt>
      <trkpt lat="46.1169" lon="4.65314">
        <ele>290.8</ele>
        <time>2022-06-25T15:27:09Z</time>
      </trkpt>
      <trkpt lat="46.11687" lon="4.65314">
        <ele>291</ele>
        <time>2022-06-25T15:27:10Z</time>
      </trkpt>
      <trkpt lat="46.11685" lon="4.65315">
        <ele>291</ele>
        <time>2022-06-25T15:27:11Z</time>
      </trkpt>
      <trkpt lat="46.11683" lon="4.65315">
        <ele>291</ele>
        <time>2022-06-25T15:27:12Z</time>
      </trkpt>
      <trkpt lat="46.1168" lon="4.65316">
        <ele>291.4</ele>
        <time>2022-06-25T15:27:13Z</time>
      </trkpt>
      <trkpt lat="46.11678" lon="4.65317">
        <ele>291.4</ele>
        <time>2022-06-25T15:27:14Z</time>
      </trkpt>
      <trkpt lat="46.11676" lon="4.65318">
        <ele>291.8</ele>
        <time>2022-06-25T15:27:15Z</time>
      </trkpt>
      <trkpt lat="46.11674" lon="4.6532">
        <ele>291.8</ele>
        <time>2022-06-25T15:27:16Z</time>
      </trkpt>
      <trkpt lat="46.11672" lon="4.6532">
        <ele>292</ele>
        <time>2022-06-25T15:27:17Z</time>
      </trkpt>
      <trkpt lat="46.1167" lon="4.6532">
        <ele>292</ele>
        <time>2022-06-25T15:27:18Z</time>
      </trkpt>
      <trkpt lat="46.11668" lon="4.65321">
        <ele>292.4</ele>
        <time>2022-06-25T15:27:19Z</time>
      </trkpt>
      <trkpt lat="46.11666" lon="4.65321">
        <ele>292.8</ele>
        <time>2022-06-25T15:27:20Z</time>
      </trkpt>
      <trkpt lat="46.11664" lon="4.65321">
        <ele>293</ele>
        <time>2022-06-25T15:27:21Z</time>
      </trkpt>
      <trkpt lat="46.11662" lon="4.65322">
        <ele>293.4</ele>
        <time>2022-06-25T15:27:22Z</time>
      </trkpt>
      <trkpt lat="46.11661" lon="4.65323">
        <ele>293.6</ele>
        <time>2022-06-25T15:27:23Z</time>
      </trkpt>
      <trkpt lat="46.11659" lon="4.65323">
        <ele>293.8</ele>
        <time>2022-06-25T15:27:24Z</time>
      </trkpt>
      <trkpt lat="46.11657" lon="4.65324">
        <ele>294.2</ele>
        <time>2022-06-25T15:27:25Z</time>
      </trkpt>
      <trkpt lat="46.11655" lon="4.65325">
        <ele>294.4</ele>
        <time>2022-06-25T15:27:26Z</time>
      </trkpt>
      <trkpt lat="46.11653" lon="4.65325">
        <ele>294.4</ele>
        <time>2022-06-25T15:27:27Z</time>
      </trkpt>
      <trkpt lat="46.11651" lon="4.65326">
        <ele>294.8</ele>
        <time>2022-06-25T15:27:28Z</time>
      </trkpt>
      <trkpt lat="46.11649" lon="4.65326">
        <ele>295</ele>
        <time>2022-06-25T15:27:29Z</time>
      </trkpt>
      <trkpt lat="46.11648" lon="4.65326">
        <ele>295.2</ele>
        <time>2022-06-25T15:27:30Z</time>
      </trkpt>
      <trkpt lat="46.11646" lon="4.65327">
        <ele>295.4</ele>
        <time>2022-06-25T15:27:31Z</time>
      </trkpt>
      <trkpt lat="46.11644" lon="4.65328">
        <ele>295.4</ele>
        <time>2022-06-25T15:27:32Z</time>
      </trkpt>
      <trkpt lat="46.11642" lon="4.65328">
        <ele>295.8</ele>
        <time>2022-06-25T15:27:33Z</time>
      </trkpt>
      <trkpt lat="46.1164" lon="4.65329">
        <ele>296</ele>
        <time>2022-06-25T15:27:34Z</time>
      </trkpt>
      <trkpt lat="46.11638" lon="4.65329">
        <ele>296.2</ele>
        <time>2022-06-25T15:27:35Z</time>
      </trkpt>
      <trkpt lat="46.11637" lon="4.65329">
        <ele>296.4</ele>
        <time>2022-06-25T15:27:36Z</time>
      </trkpt>
      <trkpt lat="46.11635" lon="4.6533">
        <ele>296.6</ele>
        <time>2022-06-25T15:27:37Z</time>
      </trkpt>
      <trkpt lat="46.11633" lon="4.6533">
        <ele>296.6</ele>
        <time>2022-06-25T15:27:38Z</time>
      </trkpt>
      <trkpt lat="46.11631" lon="4.6533">
        <ele>297.2</ele>
        <time>2022-06-25T15:27:39Z</time>
      </trkpt>
      <trkpt lat="46.1163" lon="4.65329">
        <ele>297.4</ele>
        <time>2022-06-25T15:27:40Z</time>
      </trkpt>
      <trkpt lat="46.11628" lon="4.6533">
        <ele>297.4</ele>
        <time>2022-06-25T15:27:41Z</time>
      </trkpt>
      <trkpt lat="46.11626" lon="4.6533">
        <ele>297.8</ele>
        <time>2022-06-25T15:27:42Z</time>
      </trkpt>
      <trkpt lat="46.11624" lon="4.6533">
        <ele>298</ele>
        <time>2022-06-25T15:27:43Z</time>
      </trkpt>
      <trkpt lat="46.11622" lon="4.65331">
        <ele>298.2</ele>
        <time>2022-06-25T15:27:44Z</time>
      </trkpt>
      <trkpt lat="46.11621" lon="4.65332">
        <ele>298.2</ele>
        <time>2022-06-25T15:27:45Z</time>
      </trkpt>
      <trkpt lat="46.11619" lon="4.65332">
        <ele>298.6</ele>
        <time>2022-06-25T15:27:46Z</time>
      </trkpt>
      <trkpt lat="46.11617" lon="4.65332">
        <ele>298.6</ele>
        <time>2022-06-25T15:27:47Z</time>
      </trkpt>
      <trkpt lat="46.11616" lon="4.65332">
        <ele>299</ele>
        <time>2022-06-25T15:27:48Z</time>
      </trkpt>
      <trkpt lat="46.11614" lon="4.65332">
        <ele>299.2</ele>
        <time>2022-06-25T15:27:49Z</time>
      </trkpt>
      <trkpt lat="46.11612" lon="4.65332">
        <ele>299.4</ele>
        <time>2022-06-25T15:27:50Z</time>
      </trkpt>
      <trkpt lat="46.1161" lon="4.65332">
        <ele>299.6</ele>
        <time>2022-06-25T15:27:51Z</time>
      </trkpt>
      <trkpt lat="46.11609" lon="4.65332">
        <ele>299.8</ele>
        <time>2022-06-25T15:27:52Z</time>
      </trkpt>
      <trkpt lat="46.11607" lon="4.65332">
        <ele>299.8</ele>
        <time>2022-06-25T15:27:53Z</time>
      </trkpt>
      <trkpt lat="46.11606" lon="4.65332">
        <ele>300.2</ele>
        <time>2022-06-25T15:27:54Z</time>
      </trkpt>
      <trkpt lat="46.11604" lon="4.65332">
        <ele>300.4</ele>
        <time>2022-06-25T15:27:55Z</time>
      </trkpt>
      <trkpt lat="46.11602" lon="4.65332">
        <ele>300.4</ele>
        <time>2022-06-25T15:27:56Z</time>
      </trkpt>
      <trkpt lat="46.11601" lon="4.65332">
        <ele>300.8</ele>
        <time>2022-06-25T15:27:57Z</time>
      </trkpt>
      <trkpt lat="46.11599" lon="4.65332">
        <ele>301</ele>
        <time>2022-06-25T15:27:58Z</time>
      </trkpt>
      <trkpt lat="46.11597" lon="4.65332">
        <ele>301.4</ele>
        <time>2022-06-25T15:27:59Z</time>
      </trkpt>
      <trkpt lat="46.11595" lon="4.65333">
        <ele>301.6</ele>
        <time>2022-06-25T15:28:00Z</time>
      </trkpt>
      <trkpt lat="46.11593" lon="4.65333">
        <ele>301.8</ele>
        <time>2022-06-25T15:28:01Z</time>
      </trkpt>
      <trkpt lat="46.11592" lon="4.65334">
        <ele>302</ele>
        <time>2022-06-25T15:28:02Z</time>
      </trkpt>
      <trkpt lat="46.1159" lon="4.65334">
        <ele>302.2</ele>
        <time>2022-06-25T15:28:03Z</time>
      </trkpt>
      <trkpt lat="46.11588" lon="4.65335">
        <ele>302.6</ele>
        <time>2022-06-25T15:28:04Z</time>
      </trkpt>
      <trkpt lat="46.11587" lon="4.65336">
        <ele>302.8</ele>
        <time>2022-06-25T15:28:05Z</time>
      </trkpt>
      <trkpt lat="46.11585" lon="4.65337">
        <ele>303</ele>
        <time>2022-06-25T15:28:06Z</time>
      </trkpt>
      <trkpt lat="46.11583" lon="4.65337">
        <ele>303.2</ele>
        <time>2022-06-25T15:28:07Z</time>
      </trkpt>
      <trkpt lat="46.11581" lon="4.65338">
        <ele>303.6</ele>
        <time>2022-06-25T15:28:08Z</time>
      </trkpt>
      <trkpt lat="46.1158" lon="4.65339">
        <ele>303.8</ele>
        <time>2022-06-25T15:28:09Z</time>
      </trkpt>
      <trkpt lat="46.11578" lon="4.6534">
        <ele>304</ele>
        <time>2022-06-25T15:28:10Z</time>
      </trkpt>
      <trkpt lat="46.11577" lon="4.65342">
        <ele>304.2</ele>
        <time>2022-06-25T15:28:11Z</time>
      </trkpt>
      <trkpt lat="46.11575" lon="4.65343">
        <ele>304.6</ele>
        <time>2022-06-25T15:28:12Z</time>
      </trkpt>
      <trkpt lat="46.11574" lon="4.65344">
        <ele>304.8</ele>
        <time>2022-06-25T15:28:13Z</time>
      </trkpt>
      <trkpt lat="46.11573" lon="4.65345">
        <ele>305</ele>
        <time>2022-06-25T15:28:14Z</time>
      </trkpt>
      <trkpt lat="46.11571" lon="4.65346">
        <ele>305.4</ele>
        <time>2022-06-25T15:28:15Z</time>
      </trkpt>
      <trkpt lat="46.1157" lon="4.65348">
        <ele>305.6</ele>
        <time>2022-06-25T15:28:16Z</time>
      </trkpt>
      <trkpt lat="46.11569" lon="4.65349">
        <ele>305.8</ele>
        <time>2022-06-25T15:28:17Z</time>
      </trkpt>
      <trkpt lat="46.11568" lon="4.65351">
        <ele>306.2</ele>
        <time>2022-06-25T15:28:18Z</time>
      </trkpt>
      <trkpt lat="46.11567" lon="4.65353">
        <ele>306.4</ele>
        <time>2022-06-25T15:28:19Z</time>
      </trkpt>
      <trkpt lat="46.11566" lon="4.65355">
        <ele>306.6</ele>
        <time>2022-06-25T15:28:20Z</time>
      </trkpt>
      <trkpt lat="46.11564" lon="4.65357">
        <ele>307</ele>
        <time>2022-06-25T15:28:21Z</time>
      </trkpt>
      <trkpt lat="46.11563" lon="4.65358">
        <ele>307.2</ele>
        <time>2022-06-25T15:28:22Z</time>
      </trkpt>
      <trkpt lat="46.11562" lon="4.6536">
        <ele>307.4</ele>
        <time>2022-06-25T15:28:23Z</time>
      </trkpt>
      <trkpt lat="46.11561" lon="4.65362">
        <ele>307.8</ele>
        <time>2022-06-25T15:28:24Z</time>
      </trkpt>
      <trkpt lat="46.1156" lon="4.65364">
        <ele>308</ele>
        <time>2022-06-25T15:28:25Z</time>
      </trkpt>
      <trkpt lat="46.11559" lon="4.65365">
        <ele>308.2</ele>
        <time>2022-06-25T15:28:26Z</time>
      </trkpt>
      <trkpt lat="46.11557" lon="4.65367">
        <ele>308.6</ele>
        <time>2022-06-25T15:28:27Z</time>
      </trkpt>
      <trkpt lat="46.11556" lon="4.65369">
        <ele>309.2</ele>
        <time>2022-06-25T15:28:28Z</time>
      </trkpt>
      <trkpt lat="46.11555" lon="4.6537">
        <ele>309.4</ele>
        <time>2022-06-25T15:28:29Z</time>
      </trkpt>
      <trkpt lat="46.11554" lon="4.65372">
        <ele>309.6</ele>
        <time>2022-06-25T15:28:30Z</time>
      </trkpt>
      <trkpt lat="46.11553" lon="4.65374">
        <ele>309.8</ele>
        <time>2022-06-25T15:28:31Z</time>
      </trkpt>
      <trkpt lat="46.11551" lon="4.65375">
        <ele>310.2</ele>
        <time>2022-06-25T15:28:32Z</time>
      </trkpt>
      <trkpt lat="46.1155" lon="4.65376">
        <ele>310.2</ele>
        <time>2022-06-25T15:28:33Z</time>
      </trkpt>
      <trkpt lat="46.11549" lon="4.65378">
        <ele>310.6</ele>
        <time>2022-06-25T15:28:34Z</time>
      </trkpt>
      <trkpt lat="46.11548" lon="4.65379">
        <ele>310.8</ele>
        <time>2022-06-25T15:28:35Z</time>
      </trkpt>
      <trkpt lat="46.11546" lon="4.6538">
        <ele>310.8</ele>
        <time>2022-06-25T15:28:36Z</time>
      </trkpt>
      <trkpt lat="46.11545" lon="4.65382">
        <ele>311.2</ele>
        <time>2022-06-25T15:28:37Z</time>
      </trkpt>
      <trkpt lat="46.11543" lon="4.65383">
        <ele>311.4</ele>
        <time>2022-06-25T15:28:38Z</time>
      </trkpt>
      <trkpt lat="46.11542" lon="4.65385">
        <ele>311.6</ele>
        <time>2022-06-25T15:28:39Z</time>
      </trkpt>
      <trkpt lat="46.11541" lon="4.65386">
        <ele>312</ele>
        <time>2022-06-25T15:28:40Z</time>
      </trkpt>
      <trkpt lat="46.11539" lon="4.65388">
        <ele>312.2</ele>
        <time>2022-06-25T15:28:41Z</time>
      </trkpt>
      <trkpt lat="46.11538" lon="4.65389">
        <ele>312.4</ele>
        <time>2022-06-25T15:28:42Z</time>
      </trkpt>
      <trkpt lat="46.11537" lon="4.6539">
        <ele>312.6</ele>
        <time>2022-06-25T15:28:43Z</time>
      </trkpt>
      <trkpt lat="46.11535" lon="4.65391">
        <ele>312.8</ele>
        <time>2022-06-25T15:28:44Z</time>
      </trkpt>
      <trkpt lat="46.11534" lon="4.65392">
        <ele>313</ele>
        <time>2022-06-25T15:28:45Z</time>
      </trkpt>
      <trkpt lat="46.11532" lon="4.65394">
        <ele>313.2</ele>
        <time>2022-06-25T15:28:46Z</time>
      </trkpt>
      <trkpt lat="46.11531" lon="4.65395">
        <ele>313.6</ele>
        <time>2022-06-25T15:28:47Z</time>
      </trkpt>
      <trkpt lat="46.1153" lon="4.65396">
        <ele>313.8</ele>
        <time>2022-06-25T15:28:48Z</time>
      </trkpt>
      <trkpt lat="46.11528" lon="4.65397">
        <ele>314</ele>
        <time>2022-06-25T15:28:49Z</time>
      </trkpt>
      <trkpt lat="46.11527" lon="4.65398">
        <ele>314.2</ele>
        <time>2022-06-25T15:28:50Z</time>
      </trkpt>
      <trkpt lat="46.11525" lon="4.65399">
        <ele>314.2</ele>
        <time>2022-06-25T15:28:51Z</time>
      </trkpt>
      <trkpt lat="46.11524" lon="4.654">
        <ele>314.8</ele>
        <time>2022-06-25T15:28:52Z</time>
      </trkpt>
      <trkpt lat="46.11523" lon="4.65402">
        <ele>315</ele>
        <time>2022-06-25T15:28:53Z</time>
      </trkpt>
      <trkpt lat="46.11523" lon="4.65404">
        <ele>315.4</ele>
        <time>2022-06-25T15:28:54Z</time>
      </trkpt>
      <trkpt lat="46.11523" lon="4.65406">
        <ele>315.6</ele>
        <time>2022-06-25T15:28:55Z</time>
      </trkpt>
      <trkpt lat="46.11524" lon="4.65409">
        <ele>315.8</ele>
        <time>2022-06-25T15:28:56Z</time>
      </trkpt>
      <trkpt lat="46.11524" lon="4.65411">
        <ele>315.8</ele>
        <time>2022-06-25T15:28:57Z</time>
      </trkpt>
      <trkpt lat="46.11525" lon="4.65414">
        <ele>316.2</ele>
        <time>2022-06-25T15:28:58Z</time>
      </trkpt>
      <trkpt lat="46.11525" lon="4.65417">
        <ele>316.2</ele>
        <time>2022-06-25T15:28:59Z</time>
      </trkpt>
      <trkpt lat="46.11526" lon="4.6542">
        <ele>316.2</ele>
        <time>2022-06-25T15:29:00Z</time>
      </trkpt>
      <trkpt lat="46.11527" lon="4.65422">
        <ele>316.2</ele>
        <time>2022-06-25T15:29:01Z</time>
      </trkpt>
      <trkpt lat="46.11527" lon="4.65425">
        <ele>316.2</ele>
        <time>2022-06-25T15:29:02Z</time>
      </trkpt>
      <trkpt lat="46.11528" lon="4.65428">
        <ele>316.2</ele>
        <time>2022-06-25T15:29:03Z</time>
      </trkpt>
      <trkpt lat="46.11528" lon="4.65431">
        <ele>316.4</ele>
        <time>2022-06-25T15:29:04Z</time>
      </trkpt>
      <trkpt lat="46.11528" lon="4.65435">
        <ele>316.4</ele>
        <time>2022-06-25T15:29:05Z</time>
      </trkpt>
      <trkpt lat="46.11529" lon="4.65438">
        <ele>316.4</ele>
        <time>2022-06-25T15:29:06Z</time>
      </trkpt>
      <trkpt lat="46.11529" lon="4.65442">
        <ele>316.4</ele>
        <time>2022-06-25T15:29:07Z</time>
      </trkpt>
      <trkpt lat="46.1153" lon="4.65446">
        <ele>316.4</ele>
        <time>2022-06-25T15:29:08Z</time>
      </trkpt>
      <trkpt lat="46.1153" lon="4.6545">
        <ele>316.4</ele>
        <time>2022-06-25T15:29:09Z</time>
      </trkpt>
      <trkpt lat="46.11531" lon="4.65454">
        <ele>316.4</ele>
        <time>2022-06-25T15:29:10Z</time>
      </trkpt>
      <trkpt lat="46.11531" lon="4.65458">
        <ele>316.4</ele>
        <time>2022-06-25T15:29:11Z</time>
      </trkpt>
      <trkpt lat="46.11532" lon="4.65462">
        <ele>316.6</ele>
        <time>2022-06-25T15:29:12Z</time>
      </trkpt>
      <trkpt lat="46.11532" lon="4.65466">
        <ele>316.6</ele>
        <time>2022-06-25T15:29:13Z</time>
      </trkpt>
      <trkpt lat="46.11533" lon="4.65469">
        <ele>316.6</ele>
        <time>2022-06-25T15:29:14Z</time>
      </trkpt>
      <trkpt lat="46.11533" lon="4.65473">
        <ele>316.8</ele>
        <time>2022-06-25T15:29:15Z</time>
      </trkpt>
      <trkpt lat="46.11534" lon="4.65477">
        <ele>316.8</ele>
        <time>2022-06-25T15:29:16Z</time>
      </trkpt>
      <trkpt lat="46.11534" lon="4.65481">
        <ele>317</ele>
        <time>2022-06-25T15:29:17Z</time>
      </trkpt>
      <trkpt lat="46.11535" lon="4.65485">
        <ele>317</ele>
        <time>2022-06-25T15:29:18Z</time>
      </trkpt>
      <trkpt lat="46.11535" lon="4.65489">
        <ele>317</ele>
        <time>2022-06-25T15:29:19Z</time>
      </trkpt>
      <trkpt lat="46.11535" lon="4.65493">
        <ele>317</ele>
        <time>2022-06-25T15:29:20Z</time>
      </trkpt>
      <trkpt lat="46.11536" lon="4.65497">
        <ele>317.4</ele>
        <time>2022-06-25T15:29:21Z</time>
      </trkpt>
      <trkpt lat="46.11537" lon="4.65502">
        <ele>317.4</ele>
        <time>2022-06-25T15:29:22Z</time>
      </trkpt>
      <trkpt lat="46.11537" lon="4.65506">
        <ele>317.4</ele>
        <time>2022-06-25T15:29:23Z</time>
      </trkpt>
      <trkpt lat="46.11538" lon="4.65511">
        <ele>317.6</ele>
        <time>2022-06-25T15:29:24Z</time>
      </trkpt>
      <trkpt lat="46.11539" lon="4.65515">
        <ele>317.6</ele>
        <time>2022-06-25T15:29:25Z</time>
      </trkpt>
      <trkpt lat="46.11539" lon="4.6552">
        <ele>317.8</ele>
        <time>2022-06-25T15:29:26Z</time>
      </trkpt>
      <trkpt lat="46.1154" lon="4.65524">
        <ele>317.8</ele>
        <time>2022-06-25T15:29:27Z</time>
      </trkpt>
      <trkpt lat="46.11541" lon="4.65528">
        <ele>318.2</ele>
        <time>2022-06-25T15:29:28Z</time>
      </trkpt>
      <trkpt lat="46.11542" lon="4.65532">
        <ele>318.2</ele>
        <time>2022-06-25T15:29:29Z</time>
      </trkpt>
      <trkpt lat="46.11543" lon="4.65536">
        <ele>318.6</ele>
        <time>2022-06-25T15:29:30Z</time>
      </trkpt>
      <trkpt lat="46.11544" lon="4.65541">
        <ele>318.6</ele>
        <time>2022-06-25T15:29:31Z</time>
      </trkpt>
      <trkpt lat="46.11544" lon="4.65545">
        <ele>318.8</ele>
        <time>2022-06-25T15:29:32Z</time>
      </trkpt>
      <trkpt lat="46.11545" lon="4.65549">
        <ele>318.8</ele>
        <time>2022-06-25T15:29:33Z</time>
      </trkpt>
      <trkpt lat="46.11546" lon="4.65554">
        <ele>319</ele>
        <time>2022-06-25T15:29:34Z</time>
      </trkpt>
      <trkpt lat="46.11547" lon="4.65558">
        <ele>319</ele>
        <time>2022-06-25T15:29:35Z</time>
      </trkpt>
      <trkpt lat="46.11548" lon="4.65563">
        <ele>319</ele>
        <time>2022-06-25T15:29:36Z</time>
      </trkpt>
      <trkpt lat="46.11549" lon="4.65568">
        <ele>319.2</ele>
        <time>2022-06-25T15:29:37Z</time>
      </trkpt>
      <trkpt lat="46.1155" lon="4.65573">
        <ele>319.2</ele>
        <time>2022-06-25T15:29:38Z</time>
      </trkpt>
      <trkpt lat="46.11551" lon="4.65579">
        <ele>319.2</ele>
        <time>2022-06-25T15:29:39Z</time>
      </trkpt>
      <trkpt lat="46.11552" lon="4.65585">
        <ele>319.2</ele>
        <time>2022-06-25T15:29:40Z</time>
      </trkpt>
      <trkpt lat="46.11554" lon="4.65592">
        <ele>319.2</ele>
        <time>2022-06-25T15:29:41Z</time>
      </trkpt>
      <trkpt lat="46.11555" lon="4.65598">
        <ele>319.2</ele>
        <time>2022-06-25T15:29:42Z</time>
      </trkpt>
      <trkpt lat="46.11557" lon="4.65605">
        <ele>319.2</ele>
        <time>2022-06-25T15:29:43Z</time>
      </trkpt>
      <trkpt lat="46.11558" lon="4.65611">
        <ele>319.2</ele>
        <time>2022-06-25T15:29:44Z</time>
      </trkpt>
      <trkpt lat="46.1156" lon="4.65618">
        <ele>319.2</ele>
        <time>2022-06-25T15:29:45Z</time>
      </trkpt>
      <trkpt lat="46.11561" lon="4.65625">
        <ele>319.2</ele>
        <time>2022-06-25T15:29:46Z</time>
      </trkpt>
      <trkpt lat="46.11563" lon="4.65631">
        <ele>319.2</ele>
        <time>2022-06-25T15:29:47Z</time>
      </trkpt>
      <trkpt lat="46.11565" lon="4.65638">
        <ele>319.2</ele>
        <time>2022-06-25T15:29:48Z</time>
      </trkpt>
      <trkpt lat="46.11566" lon="4.65645">
        <ele>319.2</ele>
        <time>2022-06-25T15:29:49Z</time>
      </trkpt>
      <trkpt lat="46.11568" lon="4.65653">
        <ele>319.2</ele>
        <time>2022-06-25T15:29:50Z</time>
      </trkpt>
      <trkpt lat="46.1157" lon="4.6566">
        <ele>319.2</ele>
        <time>2022-06-25T15:29:51Z</time>
      </trkpt>
      <trkpt lat="46.11572" lon="4.65667">
        <ele>319.2</ele>
        <time>2022-06-25T15:29:52Z</time>
      </trkpt>
      <trkpt lat="46.11574" lon="4.65675">
        <ele>319.2</ele>
        <time>2022-06-25T15:29:53Z</time>
      </trkpt>
      <trkpt lat="46.11577" lon="4.65683">
        <ele>319.2</ele>
        <time>2022-06-25T15:29:54Z</time>
      </trkpt>
      <trkpt lat="46.11578" lon="4.65691">
        <ele>319.2</ele>
        <time>2022-06-25T15:29:55Z</time>
      </trkpt>
      <trkpt lat="46.1158" lon="4.65698">
        <ele>319.2</ele>
        <time>2022-06-25T15:29:56Z</time>
      </trkpt>
      <trkpt lat="46.11583" lon="4.65706">
        <ele>319.4</ele>
        <time>2022-06-25T15:29:57Z</time>
      </trkpt>
      <trkpt lat="46.11585" lon="4.65713">
        <ele>319.4</ele>
        <time>2022-06-25T15:29:58Z</time>
      </trkpt>
      <trkpt lat="46.11587" lon="4.65721">
        <ele>319.4</ele>
        <time>2022-06-25T15:29:59Z</time>
      </trkpt>
      <trkpt lat="46.11589" lon="4.65729">
        <ele>319.4</ele>
        <time>2022-06-25T15:30:00Z</time>
      </trkpt>
      <trkpt lat="46.11592" lon="4.65737">
        <ele>319.4</ele>
        <time>2022-06-25T15:30:01Z</time>
      </trkpt>
      <trkpt lat="46.11594" lon="4.65745">
        <ele>319.4</ele>
        <time>2022-06-25T15:30:02Z</time>
      </trkpt>
      <trkpt lat="46.11596" lon="4.65752">
        <ele>319.4</ele>
        <time>2022-06-25T15:30:03Z</time>
      </trkpt>
      <trkpt lat="46.11599" lon="4.6576">
        <ele>319.4</ele>
        <time>2022-06-25T15:30:04Z</time>
      </trkpt>
      <trkpt lat="46.11601" lon="4.65768">
        <ele>319.4</ele>
        <time>2022-06-25T15:30:05Z</time>
      </trkpt>
      <trkpt lat="46.11603" lon="4.65776">
        <ele>319.4</ele>
        <time>2022-06-25T15:30:06Z</time>
      </trkpt>
      <trkpt lat="46.11606" lon="4.65784">
        <ele>319.4</ele>
        <time>2022-06-25T15:30:07Z</time>
      </trkpt>
      <trkpt lat="46.11608" lon="4.65792">
        <ele>319.4</ele>
        <time>2022-06-25T15:30:08Z</time>
      </trkpt>
      <trkpt lat="46.11611" lon="4.658">
        <ele>319.8</ele>
        <time>2022-06-25T15:30:09Z</time>
      </trkpt>
      <trkpt lat="46.11613" lon="4.65808">
        <ele>319.8</ele>
        <time>2022-06-25T15:30:10Z</time>
      </trkpt>
      <trkpt lat="46.11615" lon="4.65815">
        <ele>320</ele>
        <time>2022-06-25T15:30:11Z</time>
      </trkpt>
      <trkpt lat="46.11616" lon="4.65823">
        <ele>320</ele>
        <time>2022-06-25T15:30:12Z</time>
      </trkpt>
      <trkpt lat="46.11618" lon="4.6583">
        <ele>320</ele>
        <time>2022-06-25T15:30:13Z</time>
      </trkpt>
      <trkpt lat="46.1162" lon="4.65837">
        <ele>320.4</ele>
        <time>2022-06-25T15:30:14Z</time>
      </trkpt>
      <trkpt lat="46.11621" lon="4.65844">
        <ele>320.4</ele>
        <time>2022-06-25T15:30:15Z</time>
      </trkpt>
      <trkpt lat="46.11622" lon="4.65851">
        <ele>320.6</ele>
        <time>2022-06-25T15:30:16Z</time>
      </trkpt>
      <trkpt lat="46.11623" lon="4.65859">
        <ele>320.6</ele>
        <time>2022-06-25T15:30:17Z</time>
      </trkpt>
      <trkpt lat="46.11624" lon="4.65865">
        <ele>320.8</ele>
        <time>2022-06-25T15:30:18Z</time>
      </trkpt>
      <trkpt lat="46.11625" lon="4.65872">
        <ele>320.8</ele>
        <time>2022-06-25T15:30:19Z</time>
      </trkpt>
      <trkpt lat="46.11625" lon="4.65879">
        <ele>321.2</ele>
        <time>2022-06-25T15:30:21Z</time>
      </trkpt>
      <trkpt lat="46.11626" lon="4.65885">
        <ele>321.6</ele>
        <time>2022-06-25T15:30:22Z</time>
      </trkpt>
      <trkpt lat="46.11627" lon="4.65892">
        <ele>321.6</ele>
        <time>2022-06-25T15:30:23Z</time>
      </trkpt>
      <trkpt lat="46.11627" lon="4.65898">
        <ele>322</ele>
        <time>2022-06-25T15:30:24Z</time>
      </trkpt>
      <trkpt lat="46.11627" lon="4.65904">
        <ele>322.2</ele>
        <time>2022-06-25T15:30:25Z</time>
      </trkpt>
      <trkpt lat="46.11628" lon="4.65911">
        <ele>322.4</ele>
        <time>2022-06-25T15:30:26Z</time>
      </trkpt>
      <trkpt lat="46.11628" lon="4.65917">
        <ele>322.4</ele>
        <time>2022-06-25T15:30:27Z</time>
      </trkpt>
      <trkpt lat="46.11627" lon="4.65923">
        <ele>322.8</ele>
        <time>2022-06-25T15:30:28Z</time>
      </trkpt>
      <trkpt lat="46.11627" lon="4.65929">
        <ele>322.8</ele>
        <time>2022-06-25T15:30:29Z</time>
      </trkpt>
      <trkpt lat="46.11627" lon="4.65934">
        <ele>323</ele>
        <time>2022-06-25T15:30:30Z</time>
      </trkpt>
      <trkpt lat="46.11627" lon="4.6594">
        <ele>323.2</ele>
        <time>2022-06-25T15:30:31Z</time>
      </trkpt>
      <trkpt lat="46.11626" lon="4.65945">
        <ele>323.6</ele>
        <time>2022-06-25T15:30:32Z</time>
      </trkpt>
      <trkpt lat="46.11625" lon="4.6595">
        <ele>323.8</ele>
        <time>2022-06-25T15:30:33Z</time>
      </trkpt>
      <trkpt lat="46.11624" lon="4.65956">
        <ele>323.8</ele>
        <time>2022-06-25T15:30:34Z</time>
      </trkpt>
      <trkpt lat="46.11623" lon="4.65961">
        <ele>324.2</ele>
        <time>2022-06-25T15:30:35Z</time>
      </trkpt>
      <trkpt lat="46.11622" lon="4.65966">
        <ele>324.4</ele>
        <time>2022-06-25T15:30:36Z</time>
      </trkpt>
      <trkpt lat="46.11621" lon="4.65971">
        <ele>324.8</ele>
        <time>2022-06-25T15:30:37Z</time>
      </trkpt>
      <trkpt lat="46.1162" lon="4.65976">
        <ele>325</ele>
        <time>2022-06-25T15:30:38Z</time>
      </trkpt>
      <trkpt lat="46.11619" lon="4.65981">
        <ele>325.2</ele>
        <time>2022-06-25T15:30:39Z</time>
      </trkpt>
      <trkpt lat="46.11618" lon="4.65986">
        <ele>325.4</ele>
        <time>2022-06-25T15:30:40Z</time>
      </trkpt>
      <trkpt lat="46.11618" lon="4.65991">
        <ele>325.8</ele>
        <time>2022-06-25T15:30:41Z</time>
      </trkpt>
      <trkpt lat="46.11617" lon="4.65995">
        <ele>326</ele>
        <time>2022-06-25T15:30:42Z</time>
      </trkpt>
      <trkpt lat="46.11616" lon="4.66">
        <ele>326</ele>
        <time>2022-06-25T15:30:43Z</time>
      </trkpt>
      <trkpt lat="46.11616" lon="4.66004">
        <ele>326.4</ele>
        <time>2022-06-25T15:30:44Z</time>
      </trkpt>
      <trkpt lat="46.11615" lon="4.66008">
        <ele>326.4</ele>
        <time>2022-06-25T15:30:45Z</time>
      </trkpt>
      <trkpt lat="46.11615" lon="4.66013">
        <ele>326.8</ele>
        <time>2022-06-25T15:30:46Z</time>
      </trkpt>
      <trkpt lat="46.11614" lon="4.66017">
        <ele>326.8</ele>
        <time>2022-06-25T15:30:47Z</time>
      </trkpt>
      <trkpt lat="46.11614" lon="4.66022">
        <ele>327.2</ele>
        <time>2022-06-25T15:30:48Z</time>
      </trkpt>
      <trkpt lat="46.11613" lon="4.66026">
        <ele>327.2</ele>
        <time>2022-06-25T15:30:49Z</time>
      </trkpt>
      <trkpt lat="46.11613" lon="4.6603">
        <ele>327.6</ele>
        <time>2022-06-25T15:30:50Z</time>
      </trkpt>
      <trkpt lat="46.11612" lon="4.66035">
        <ele>327.6</ele>
        <time>2022-06-25T15:30:51Z</time>
      </trkpt>
      <trkpt lat="46.11612" lon="4.6604">
        <ele>328</ele>
        <time>2022-06-25T15:30:52Z</time>
      </trkpt>
      <trkpt lat="46.11612" lon="4.66044">
        <ele>328</ele>
        <time>2022-06-25T15:30:53Z</time>
      </trkpt>
      <trkpt lat="46.11612" lon="4.66049">
        <ele>328.2</ele>
        <time>2022-06-25T15:30:54Z</time>
      </trkpt>
      <trkpt lat="46.11611" lon="4.66053">
        <ele>328.2</ele>
        <time>2022-06-25T15:30:55Z</time>
      </trkpt>
      <trkpt lat="46.11611" lon="4.66058">
        <ele>328.6</ele>
        <time>2022-06-25T15:30:56Z</time>
      </trkpt>
      <trkpt lat="46.11611" lon="4.66062">
        <ele>328.6</ele>
        <time>2022-06-25T15:30:57Z</time>
      </trkpt>
      <trkpt lat="46.1161" lon="4.66066">
        <ele>329</ele>
        <time>2022-06-25T15:30:58Z</time>
      </trkpt>
      <trkpt lat="46.1161" lon="4.66071">
        <ele>329</ele>
        <time>2022-06-25T15:30:59Z</time>
      </trkpt>
      <trkpt lat="46.11609" lon="4.66076">
        <ele>329.2</ele>
        <time>2022-06-25T15:31:00Z</time>
      </trkpt>
      <trkpt lat="46.11609" lon="4.6608">
        <ele>329.2</ele>
        <time>2022-06-25T15:31:01Z</time>
      </trkpt>
      <trkpt lat="46.11609" lon="4.66085">
        <ele>329.4</ele>
        <time>2022-06-25T15:31:02Z</time>
      </trkpt>
      <trkpt lat="46.11608" lon="4.6609">
        <ele>329.4</ele>
        <time>2022-06-25T15:31:03Z</time>
      </trkpt>
      <trkpt lat="46.11607" lon="4.66094">
        <ele>329.8</ele>
        <time>2022-06-25T15:31:04Z</time>
      </trkpt>
      <trkpt lat="46.11607" lon="4.66099">
        <ele>329.8</ele>
        <time>2022-06-25T15:31:05Z</time>
      </trkpt>
      <trkpt lat="46.11606" lon="4.66105">
        <ele>330</ele>
        <time>2022-06-25T15:31:06Z</time>
      </trkpt>
      <trkpt lat="46.11606" lon="4.6611">
        <ele>330</ele>
        <time>2022-06-25T15:31:07Z</time>
      </trkpt>
      <trkpt lat="46.11605" lon="4.66115">
        <ele>330</ele>
        <time>2022-06-25T15:31:08Z</time>
      </trkpt>
      <trkpt lat="46.11604" lon="4.66121">
        <ele>330.2</ele>
        <time>2022-06-25T15:31:09Z</time>
      </trkpt>
      <trkpt lat="46.11603" lon="4.66126">
        <ele>330.2</ele>
        <time>2022-06-25T15:31:10Z</time>
      </trkpt>
      <trkpt lat="46.11602" lon="4.66132">
        <ele>330.2</ele>
        <time>2022-06-25T15:31:11Z</time>
      </trkpt>
      <trkpt lat="46.11601" lon="4.66138">
        <ele>330.2</ele>
        <time>2022-06-25T15:31:12Z</time>
      </trkpt>
      <trkpt lat="46.116" lon="4.66143">
        <ele>330.2</ele>
        <time>2022-06-25T15:31:13Z</time>
      </trkpt>
      <trkpt lat="46.11599" lon="4.66149">
        <ele>330.4</ele>
        <time>2022-06-25T15:31:14Z</time>
      </trkpt>
      <trkpt lat="46.11599" lon="4.66155">
        <ele>330.4</ele>
        <time>2022-06-25T15:31:15Z</time>
      </trkpt>
      <trkpt lat="46.11598" lon="4.6616">
        <ele>330.4</ele>
        <time>2022-06-25T15:31:16Z</time>
      </trkpt>
      <trkpt lat="46.11597" lon="4.66166">
        <ele>330.4</ele>
        <time>2022-06-25T15:31:17Z</time>
      </trkpt>
      <trkpt lat="46.11595" lon="4.66172">
        <ele>330.4</ele>
        <time>2022-06-25T15:31:18Z</time>
      </trkpt>
      <trkpt lat="46.11594" lon="4.66177">
        <ele>330.4</ele>
        <time>2022-06-25T15:31:19Z</time>
      </trkpt>
      <trkpt lat="46.11593" lon="4.66183">
        <ele>330.8</ele>
        <time>2022-06-25T15:31:20Z</time>
      </trkpt>
      <trkpt lat="46.11591" lon="4.66189">
        <ele>330.8</ele>
        <time>2022-06-25T15:31:21Z</time>
      </trkpt>
      <trkpt lat="46.1159" lon="4.66195">
        <ele>330.8</ele>
        <time>2022-06-25T15:31:22Z</time>
      </trkpt>
      <trkpt lat="46.1159" lon="4.662">
        <ele>331</ele>
        <time>2022-06-25T15:31:23Z</time>
      </trkpt>
      <trkpt lat="46.11588" lon="4.66205">
        <ele>331</ele>
        <time>2022-06-25T15:31:24Z</time>
      </trkpt>
      <trkpt lat="46.11587" lon="4.66211">
        <ele>331</ele>
        <time>2022-06-25T15:31:25Z</time>
      </trkpt>
      <trkpt lat="46.11586" lon="4.66216">
        <ele>331.2</ele>
        <time>2022-06-25T15:31:26Z</time>
      </trkpt>
      <trkpt lat="46.11585" lon="4.66222">
        <ele>331.2</ele>
        <time>2022-06-25T15:31:27Z</time>
      </trkpt>
      <trkpt lat="46.11584" lon="4.66227">
        <ele>331.2</ele>
        <time>2022-06-25T15:31:28Z</time>
      </trkpt>
      <trkpt lat="46.11582" lon="4.66232">
        <ele>331.4</ele>
        <time>2022-06-25T15:31:29Z</time>
      </trkpt>
      <trkpt lat="46.11581" lon="4.66237">
        <ele>331.4</ele>
        <time>2022-06-25T15:31:30Z</time>
      </trkpt>
      <trkpt lat="46.1158" lon="4.66243">
        <ele>331.8</ele>
        <time>2022-06-25T15:31:31Z</time>
      </trkpt>
      <trkpt lat="46.11579" lon="4.66248">
        <ele>331.8</ele>
        <time>2022-06-25T15:31:32Z</time>
      </trkpt>
      <trkpt lat="46.11578" lon="4.66253">
        <ele>331.8</ele>
        <time>2022-06-25T15:31:33Z</time>
      </trkpt>
      <trkpt lat="46.11577" lon="4.66258">
        <ele>332</ele>
        <time>2022-06-25T15:31:34Z</time>
      </trkpt>
      <trkpt lat="46.11576" lon="4.66263">
        <ele>332</ele>
        <time>2022-06-25T15:31:35Z</time>
      </trkpt>
      <trkpt lat="46.11575" lon="4.66269">
        <ele>332.4</ele>
        <time>2022-06-25T15:31:36Z</time>
      </trkpt>
      <trkpt lat="46.11574" lon="4.66274">
        <ele>332.4</ele>
        <time>2022-06-25T15:31:37Z</time>
      </trkpt>
      <trkpt lat="46.11573" lon="4.66279">
        <ele>332.6</ele>
        <time>2022-06-25T15:31:38Z</time>
      </trkpt>
      <trkpt lat="46.11573" lon="4.66284">
        <ele>332.6</ele>
        <time>2022-06-25T15:31:39Z</time>
      </trkpt>
      <trkpt lat="46.11572" lon="4.66289">
        <ele>333</ele>
        <time>2022-06-25T15:31:40Z</time>
      </trkpt>
      <trkpt lat="46.11572" lon="4.66293">
        <ele>333</ele>
        <time>2022-06-25T15:31:41Z</time>
      </trkpt>
      <trkpt lat="46.11571" lon="4.66298">
        <ele>333</ele>
        <time>2022-06-25T15:31:42Z</time>
      </trkpt>
      <trkpt lat="46.1157" lon="4.66303">
        <ele>333</ele>
        <time>2022-06-25T15:31:43Z</time>
      </trkpt>
      <trkpt lat="46.11569" lon="4.66309">
        <ele>333</ele>
        <time>2022-06-25T15:31:44Z</time>
      </trkpt>
      <trkpt lat="46.11569" lon="4.66315">
        <ele>333</ele>
        <time>2022-06-25T15:31:45Z</time>
      </trkpt>
      <trkpt lat="46.11567" lon="4.66322">
        <ele>333</ele>
        <time>2022-06-25T15:31:46Z</time>
      </trkpt>
      <trkpt lat="46.11566" lon="4.66328">
        <ele>333</ele>
        <time>2022-06-25T15:31:47Z</time>
      </trkpt>
      <trkpt lat="46.11564" lon="4.66335">
        <ele>333</ele>
        <time>2022-06-25T15:31:48Z</time>
      </trkpt>
      <trkpt lat="46.11562" lon="4.66342">
        <ele>333</ele>
        <time>2022-06-25T15:31:49Z</time>
      </trkpt>
      <trkpt lat="46.11559" lon="4.66348">
        <ele>333</ele>
        <time>2022-06-25T15:31:50Z</time>
      </trkpt>
      <trkpt lat="46.11556" lon="4.66354">
        <ele>333</ele>
        <time>2022-06-25T15:31:51Z</time>
      </trkpt>
      <trkpt lat="46.11553" lon="4.66358">
        <ele>333</ele>
        <time>2022-06-25T15:31:52Z</time>
      </trkpt>
      <trkpt lat="46.1155" lon="4.66362">
        <ele>333</ele>
        <time>2022-06-25T15:31:53Z</time>
      </trkpt>
      <trkpt lat="46.11547" lon="4.66365">
        <ele>333</ele>
        <time>2022-06-25T15:31:54Z</time>
      </trkpt>
      <trkpt lat="46.11544" lon="4.66369">
        <ele>333</ele>
        <time>2022-06-25T15:31:55Z</time>
      </trkpt>
      <trkpt lat="46.11541" lon="4.66371">
        <ele>333.2</ele>
        <time>2022-06-25T15:31:56Z</time>
      </trkpt>
      <trkpt lat="46.11538" lon="4.66373">
        <ele>333.2</ele>
        <time>2022-06-25T15:31:57Z</time>
      </trkpt>
      <trkpt lat="46.11536" lon="4.66374">
        <ele>333.6</ele>
        <time>2022-06-25T15:31:58Z</time>
      </trkpt>
      <trkpt lat="46.11533" lon="4.66375">
        <ele>333.6</ele>
        <time>2022-06-25T15:31:59Z</time>
      </trkpt>
      <trkpt lat="46.1153" lon="4.66375">
        <ele>333.8</ele>
        <time>2022-06-25T15:32:00Z</time>
      </trkpt>
      <trkpt lat="46.11528" lon="4.66374">
        <ele>334</ele>
        <time>2022-06-25T15:32:01Z</time>
      </trkpt>
      <trkpt lat="46.11525" lon="4.66373">
        <ele>334</ele>
        <time>2022-06-25T15:32:02Z</time>
      </trkpt>
      <trkpt lat="46.11523" lon="4.66372">
        <ele>334.4</ele>
        <time>2022-06-25T15:32:03Z</time>
      </trkpt>
      <trkpt lat="46.1152" lon="4.66372">
        <ele>334.4</ele>
        <time>2022-06-25T15:32:04Z</time>
      </trkpt>
      <trkpt lat="46.11518" lon="4.66371">
        <ele>334.8</ele>
        <time>2022-06-25T15:32:05Z</time>
      </trkpt>
      <trkpt lat="46.11515" lon="4.66371">
        <ele>335</ele>
        <time>2022-06-25T15:32:06Z</time>
      </trkpt>
      <trkpt lat="46.11512" lon="4.6637">
        <ele>335.2</ele>
        <time>2022-06-25T15:32:07Z</time>
      </trkpt>
      <trkpt lat="46.11509" lon="4.6637">
        <ele>335.4</ele>
        <time>2022-06-25T15:32:08Z</time>
      </trkpt>
      <trkpt lat="46.11507" lon="4.66371">
        <ele>335.8</ele>
        <time>2022-06-25T15:32:09Z</time>
      </trkpt>
      <trkpt lat="46.11504" lon="4.66371">
        <ele>336</ele>
        <time>2022-06-25T15:32:10Z</time>
      </trkpt>
      <trkpt lat="46.11501" lon="4.66371">
        <ele>336</ele>
        <time>2022-06-25T15:32:11Z</time>
      </trkpt>
      <trkpt lat="46.11499" lon="4.66372">
        <ele>336.4</ele>
        <time>2022-06-25T15:32:12Z</time>
      </trkpt>
      <trkpt lat="46.11496" lon="4.66372">
        <ele>336.4</ele>
        <time>2022-06-25T15:32:13Z</time>
      </trkpt>
      <trkpt lat="46.11494" lon="4.66372">
        <ele>336.8</ele>
        <time>2022-06-25T15:32:14Z</time>
      </trkpt>
      <trkpt lat="46.11491" lon="4.66373">
        <ele>337</ele>
        <time>2022-06-25T15:32:15Z</time>
      </trkpt>
      <trkpt lat="46.11488" lon="4.66373">
        <ele>337.2</ele>
        <time>2022-06-25T15:32:16Z</time>
      </trkpt>
      <trkpt lat="46.11485" lon="4.66373">
        <ele>337.4</ele>
        <time>2022-06-25T15:32:17Z</time>
      </trkpt>
      <trkpt lat="46.11482" lon="4.66373">
        <ele>337.6</ele>
        <time>2022-06-25T15:32:18Z</time>
      </trkpt>
      <trkpt lat="46.1148" lon="4.66373">
        <ele>337.6</ele>
        <time>2022-06-25T15:32:19Z</time>
      </trkpt>
      <trkpt lat="46.11477" lon="4.66373">
        <ele>338</ele>
        <time>2022-06-25T15:32:20Z</time>
      </trkpt>
      <trkpt lat="46.11474" lon="4.66373">
        <ele>338</ele>
        <time>2022-06-25T15:32:21Z</time>
      </trkpt>
      <trkpt lat="46.11471" lon="4.66373">
        <ele>338.4</ele>
        <time>2022-06-25T15:32:22Z</time>
      </trkpt>
      <trkpt lat="46.11468" lon="4.66374">
        <ele>338.4</ele>
        <time>2022-06-25T15:32:23Z</time>
      </trkpt>
      <trkpt lat="46.11465" lon="4.66374">
        <ele>338.8</ele>
        <time>2022-06-25T15:32:24Z</time>
      </trkpt>
      <trkpt lat="46.11463" lon="4.66375">
        <ele>339</ele>
        <time>2022-06-25T15:32:25Z</time>
      </trkpt>
      <trkpt lat="46.1146" lon="4.66375">
        <ele>339.2</ele>
        <time>2022-06-25T15:32:26Z</time>
      </trkpt>
      <trkpt lat="46.11458" lon="4.66376">
        <ele>339.4</ele>
        <time>2022-06-25T15:32:27Z</time>
      </trkpt>
      <trkpt lat="46.11455" lon="4.66376">
        <ele>339.4</ele>
        <time>2022-06-25T15:32:28Z</time>
      </trkpt>
      <trkpt lat="46.11452" lon="4.66376">
        <ele>339.8</ele>
        <time>2022-06-25T15:32:29Z</time>
      </trkpt>
      <trkpt lat="46.11449" lon="4.66375">
        <ele>339.8</ele>
        <time>2022-06-25T15:32:30Z</time>
      </trkpt>
      <trkpt lat="46.11447" lon="4.66374">
        <ele>340.2</ele>
        <time>2022-06-25T15:32:31Z</time>
      </trkpt>
      <trkpt lat="46.11444" lon="4.66373">
        <ele>340.4</ele>
        <time>2022-06-25T15:32:32Z</time>
      </trkpt>
      <trkpt lat="46.11441" lon="4.66372">
        <ele>340.6</ele>
        <time>2022-06-25T15:32:33Z</time>
      </trkpt>
      <trkpt lat="46.11438" lon="4.66371">
        <ele>340.6</ele>
        <time>2022-06-25T15:32:34Z</time>
      </trkpt>
      <trkpt lat="46.11435" lon="4.66371">
        <ele>341</ele>
        <time>2022-06-25T15:32:35Z</time>
      </trkpt>
      <trkpt lat="46.11432" lon="4.66369">
        <ele>341.2</ele>
        <time>2022-06-25T15:32:36Z</time>
      </trkpt>
      <trkpt lat="46.1143" lon="4.66368">
        <ele>341.6</ele>
        <time>2022-06-25T15:32:37Z</time>
      </trkpt>
      <trkpt lat="46.11427" lon="4.66367">
        <ele>341.8</ele>
        <time>2022-06-25T15:32:38Z</time>
      </trkpt>
      <trkpt lat="46.11425" lon="4.66367">
        <ele>342</ele>
        <time>2022-06-25T15:32:39Z</time>
      </trkpt>
      <trkpt lat="46.11422" lon="4.66366">
        <ele>342.2</ele>
        <time>2022-06-25T15:32:40Z</time>
      </trkpt>
      <trkpt lat="46.1142" lon="4.66365">
        <ele>342.2</ele>
        <time>2022-06-25T15:32:41Z</time>
      </trkpt>
      <trkpt lat="46.11417" lon="4.66363">
        <ele>342.6</ele>
        <time>2022-06-25T15:32:42Z</time>
      </trkpt>
      <trkpt lat="46.11415" lon="4.66362">
        <ele>342.6</ele>
        <time>2022-06-25T15:32:43Z</time>
      </trkpt>
      <trkpt lat="46.11412" lon="4.66361">
        <ele>342.8</ele>
        <time>2022-06-25T15:32:44Z</time>
      </trkpt>
      <trkpt lat="46.1141" lon="4.66361">
        <ele>343</ele>
        <time>2022-06-25T15:32:45Z</time>
      </trkpt>
      <trkpt lat="46.11407" lon="4.66361">
        <ele>343</ele>
        <time>2022-06-25T15:32:46Z</time>
      </trkpt>
      <trkpt lat="46.11404" lon="4.6636">
        <ele>343.4</ele>
        <time>2022-06-25T15:32:47Z</time>
      </trkpt>
      <trkpt lat="46.11402" lon="4.6636">
        <ele>343.4</ele>
        <time>2022-06-25T15:32:48Z</time>
      </trkpt>
      <trkpt lat="46.11399" lon="4.6636">
        <ele>343.8</ele>
        <time>2022-06-25T15:32:49Z</time>
      </trkpt>
      <trkpt lat="46.11396" lon="4.6636">
        <ele>343.8</ele>
        <time>2022-06-25T15:32:50Z</time>
      </trkpt>
      <trkpt lat="46.11394" lon="4.6636">
        <ele>344.2</ele>
        <time>2022-06-25T15:32:51Z</time>
      </trkpt>
      <trkpt lat="46.11391" lon="4.66361">
        <ele>344.2</ele>
        <time>2022-06-25T15:32:52Z</time>
      </trkpt>
      <trkpt lat="46.11389" lon="4.66362">
        <ele>344.6</ele>
        <time>2022-06-25T15:32:53Z</time>
      </trkpt>
      <trkpt lat="46.11386" lon="4.66364">
        <ele>344.8</ele>
        <time>2022-06-25T15:32:54Z</time>
      </trkpt>
      <trkpt lat="46.11384" lon="4.66365">
        <ele>345</ele>
        <time>2022-06-25T15:32:55Z</time>
      </trkpt>
      <trkpt lat="46.11381" lon="4.66367">
        <ele>345.4</ele>
        <time>2022-06-25T15:32:56Z</time>
      </trkpt>
      <trkpt lat="46.11378" lon="4.66369">
        <ele>345.6</ele>
        <time>2022-06-25T15:32:57Z</time>
      </trkpt>
      <trkpt lat="46.11375" lon="4.66371">
        <ele>345.8</ele>
        <time>2022-06-25T15:32:58Z</time>
      </trkpt>
      <trkpt lat="46.11373" lon="4.66373">
        <ele>346</ele>
        <time>2022-06-25T15:32:59Z</time>
      </trkpt>
      <trkpt lat="46.1137" lon="4.66374">
        <ele>346.2</ele>
        <time>2022-06-25T15:33:00Z</time>
      </trkpt>
      <trkpt lat="46.11368" lon="4.66376">
        <ele>346.6</ele>
        <time>2022-06-25T15:33:01Z</time>
      </trkpt>
      <trkpt lat="46.11365" lon="4.66378">
        <ele>346.8</ele>
        <time>2022-06-25T15:33:02Z</time>
      </trkpt>
      <trkpt lat="46.11363" lon="4.6638">
        <ele>346.8</ele>
        <time>2022-06-25T15:33:03Z</time>
      </trkpt>
      <trkpt lat="46.1136" lon="4.66382">
        <ele>347.2</ele>
        <time>2022-06-25T15:33:04Z</time>
      </trkpt>
      <trkpt lat="46.11357" lon="4.66384">
        <ele>347.2</ele>
        <time>2022-06-25T15:33:05Z</time>
      </trkpt>
      <trkpt lat="46.11355" lon="4.66386">
        <ele>347.4</ele>
        <time>2022-06-25T15:33:06Z</time>
      </trkpt>
      <trkpt lat="46.11353" lon="4.66388">
        <ele>347.4</ele>
        <time>2022-06-25T15:33:07Z</time>
      </trkpt>
      <trkpt lat="46.1135" lon="4.6639">
        <ele>347.8</ele>
        <time>2022-06-25T15:33:08Z</time>
      </trkpt>
      <trkpt lat="46.11348" lon="4.66392">
        <ele>348</ele>
        <time>2022-06-25T15:33:09Z</time>
      </trkpt>
      <trkpt lat="46.11346" lon="4.66394">
        <ele>348.2</ele>
        <time>2022-06-25T15:33:10Z</time>
      </trkpt>
      <trkpt lat="46.11343" lon="4.66396">
        <ele>348.4</ele>
        <time>2022-06-25T15:33:11Z</time>
      </trkpt>
      <trkpt lat="46.11341" lon="4.66398">
        <ele>348.6</ele>
        <time>2022-06-25T15:33:12Z</time>
      </trkpt>
      <trkpt lat="46.11339" lon="4.664">
        <ele>348.8</ele>
        <time>2022-06-25T15:33:13Z</time>
      </trkpt>
      <trkpt lat="46.11336" lon="4.66402">
        <ele>349.2</ele>
        <time>2022-06-25T15:33:14Z</time>
      </trkpt>
      <trkpt lat="46.11334" lon="4.66403">
        <ele>349.4</ele>
        <time>2022-06-25T15:33:15Z</time>
      </trkpt>
      <trkpt lat="46.11332" lon="4.66405">
        <ele>349.6</ele>
        <time>2022-06-25T15:33:16Z</time>
      </trkpt>
      <trkpt lat="46.11329" lon="4.66405">
        <ele>349.6</ele>
        <time>2022-06-25T15:33:17Z</time>
      </trkpt>
      <trkpt lat="46.11327" lon="4.66406">
        <ele>349.8</ele>
        <time>2022-06-25T15:33:18Z</time>
      </trkpt>
      <trkpt lat="46.11324" lon="4.66408">
        <ele>349.8</ele>
        <time>2022-06-25T15:33:19Z</time>
      </trkpt>
      <trkpt lat="46.11322" lon="4.6641">
        <ele>350.2</ele>
        <time>2022-06-25T15:33:20Z</time>
      </trkpt>
      <trkpt lat="46.1132" lon="4.66411">
        <ele>350.2</ele>
        <time>2022-06-25T15:33:21Z</time>
      </trkpt>
      <trkpt lat="46.11317" lon="4.66413">
        <ele>350.6</ele>
        <time>2022-06-25T15:33:22Z</time>
      </trkpt>
      <trkpt lat="46.11315" lon="4.66415">
        <ele>350.6</ele>
        <time>2022-06-25T15:33:23Z</time>
      </trkpt>
      <trkpt lat="46.11313" lon="4.66417">
        <ele>351</ele>
        <time>2022-06-25T15:33:24Z</time>
      </trkpt>
      <trkpt lat="46.1131" lon="4.66419">
        <ele>351.4</ele>
        <time>2022-06-25T15:33:25Z</time>
      </trkpt>
      <trkpt lat="46.11307" lon="4.66421">
        <ele>351.4</ele>
        <time>2022-06-25T15:33:26Z</time>
      </trkpt>
      <trkpt lat="46.11305" lon="4.66422">
        <ele>351.8</ele>
        <time>2022-06-25T15:33:27Z</time>
      </trkpt>
      <trkpt lat="46.11302" lon="4.66423">
        <ele>352.2</ele>
        <time>2022-06-25T15:33:28Z</time>
      </trkpt>
      <trkpt lat="46.11299" lon="4.66425">
        <ele>352.4</ele>
        <time>2022-06-25T15:33:29Z</time>
      </trkpt>
      <trkpt lat="46.11297" lon="4.66426">
        <ele>352.6</ele>
        <time>2022-06-25T15:33:30Z</time>
      </trkpt>
      <trkpt lat="46.11294" lon="4.66427">
        <ele>352.8</ele>
        <time>2022-06-25T15:33:31Z</time>
      </trkpt>
      <trkpt lat="46.11291" lon="4.66429">
        <ele>353.2</ele>
        <time>2022-06-25T15:33:32Z</time>
      </trkpt>
      <trkpt lat="46.11289" lon="4.6643">
        <ele>353.2</ele>
        <time>2022-06-25T15:33:33Z</time>
      </trkpt>
      <trkpt lat="46.11286" lon="4.66431">
        <ele>353.6</ele>
        <time>2022-06-25T15:33:34Z</time>
      </trkpt>
      <trkpt lat="46.11284" lon="4.66433">
        <ele>353.8</ele>
        <time>2022-06-25T15:33:35Z</time>
      </trkpt>
      <trkpt lat="46.11281" lon="4.66434">
        <ele>354</ele>
        <time>2022-06-25T15:33:36Z</time>
      </trkpt>
      <trkpt lat="46.11279" lon="4.66435">
        <ele>354.2</ele>
        <time>2022-06-25T15:33:37Z</time>
      </trkpt>
      <trkpt lat="46.11276" lon="4.66437">
        <ele>354.6</ele>
        <time>2022-06-25T15:33:38Z</time>
      </trkpt>
      <trkpt lat="46.11274" lon="4.66439">
        <ele>354.8</ele>
        <time>2022-06-25T15:33:39Z</time>
      </trkpt>
      <trkpt lat="46.11272" lon="4.6644">
        <ele>355</ele>
        <time>2022-06-25T15:33:40Z</time>
      </trkpt>
      <trkpt lat="46.1127" lon="4.66442">
        <ele>355.4</ele>
        <time>2022-06-25T15:33:41Z</time>
      </trkpt>
      <trkpt lat="46.11267" lon="4.66444">
        <ele>355.6</ele>
        <time>2022-06-25T15:33:42Z</time>
      </trkpt>
      <trkpt lat="46.11265" lon="4.66445">
        <ele>355.6</ele>
        <time>2022-06-25T15:33:43Z</time>
      </trkpt>
      <trkpt lat="46.11262" lon="4.66446">
        <ele>356</ele>
        <time>2022-06-25T15:33:44Z</time>
      </trkpt>
      <trkpt lat="46.1126" lon="4.66447">
        <ele>356.2</ele>
        <time>2022-06-25T15:33:45Z</time>
      </trkpt>
      <trkpt lat="46.11258" lon="4.66448">
        <ele>356.4</ele>
        <time>2022-06-25T15:33:46Z</time>
      </trkpt>
      <trkpt lat="46.11255" lon="4.66449">
        <ele>356.8</ele>
        <time>2022-06-25T15:33:47Z</time>
      </trkpt>
      <trkpt lat="46.11253" lon="4.6645">
        <ele>357</ele>
        <time>2022-06-25T15:33:48Z</time>
      </trkpt>
      <trkpt lat="46.11251" lon="4.66451">
        <ele>357</ele>
        <time>2022-06-25T15:33:49Z</time>
      </trkpt>
      <trkpt lat="46.11248" lon="4.66453">
        <ele>357.6</ele>
        <time>2022-06-25T15:33:50Z</time>
      </trkpt>
      <trkpt lat="46.11246" lon="4.66454">
        <ele>357.8</ele>
        <time>2022-06-25T15:33:51Z</time>
      </trkpt>
      <trkpt lat="46.11243" lon="4.66455">
        <ele>358</ele>
        <time>2022-06-25T15:33:52Z</time>
      </trkpt>
      <trkpt lat="46.11241" lon="4.66456">
        <ele>358.4</ele>
        <time>2022-06-25T15:33:53Z</time>
      </trkpt>
      <trkpt lat="46.11236" lon="4.6646">
        <ele>358.6</ele>
        <time>2022-06-25T15:33:54Z</time>
      </trkpt>
      <trkpt lat="46.11233" lon="4.66462">
        <ele>358.8</ele>
        <time>2022-06-25T15:33:55Z</time>
      </trkpt>
      <trkpt lat="46.11231" lon="4.66464">
        <ele>359</ele>
        <time>2022-06-25T15:33:56Z</time>
      </trkpt>
      <trkpt lat="46.11228" lon="4.66465">
        <ele>359.4</ele>
        <time>2022-06-25T15:33:57Z</time>
      </trkpt>
      <trkpt lat="46.11225" lon="4.66466">
        <ele>359.6</ele>
        <time>2022-06-25T15:33:58Z</time>
      </trkpt>
      <trkpt lat="46.11223" lon="4.66467">
        <ele>359.8</ele>
        <time>2022-06-25T15:33:59Z</time>
      </trkpt>
      <trkpt lat="46.1122" lon="4.66468">
        <ele>359.8</ele>
        <time>2022-06-25T15:34:00Z</time>
      </trkpt>
      <trkpt lat="46.11218" lon="4.66469">
        <ele>360.2</ele>
        <time>2022-06-25T15:34:01Z</time>
      </trkpt>
      <trkpt lat="46.11216" lon="4.6647">
        <ele>360.2</ele>
        <time>2022-06-25T15:34:02Z</time>
      </trkpt>
      <trkpt lat="46.11213" lon="4.66471">
        <ele>360.6</ele>
        <time>2022-06-25T15:34:03Z</time>
      </trkpt>
      <trkpt lat="46.1121" lon="4.66471">
        <ele>360.6</ele>
        <time>2022-06-25T15:34:04Z</time>
      </trkpt>
      <trkpt lat="46.11208" lon="4.66471">
        <ele>360.8</ele>
        <time>2022-06-25T15:34:05Z</time>
      </trkpt>
      <trkpt lat="46.11206" lon="4.66471">
        <ele>360.8</ele>
        <time>2022-06-25T15:34:06Z</time>
      </trkpt>
      <trkpt lat="46.11205" lon="4.66472">
        <ele>361.2</ele>
        <time>2022-06-25T15:34:07Z</time>
      </trkpt>
      <trkpt lat="46.11202" lon="4.66472">
        <ele>361.2</ele>
        <time>2022-06-25T15:34:08Z</time>
      </trkpt>
      <trkpt lat="46.11199" lon="4.66474">
        <ele>361.6</ele>
        <time>2022-06-25T15:34:09Z</time>
      </trkpt>
      <trkpt lat="46.11196" lon="4.66475">
        <ele>361.6</ele>
        <time>2022-06-25T15:34:10Z</time>
      </trkpt>
      <trkpt lat="46.11194" lon="4.66475">
        <ele>361.8</ele>
        <time>2022-06-25T15:34:11Z</time>
      </trkpt>
      <trkpt lat="46.11191" lon="4.66476">
        <ele>361.8</ele>
        <time>2022-06-25T15:34:12Z</time>
      </trkpt>
      <trkpt lat="46.11187" lon="4.66477">
        <ele>362.2</ele>
        <time>2022-06-25T15:34:13Z</time>
      </trkpt>
      <trkpt lat="46.11184" lon="4.66478">
        <ele>362.2</ele>
        <time>2022-06-25T15:34:14Z</time>
      </trkpt>
      <trkpt lat="46.11181" lon="4.66478">
        <ele>362.2</ele>
        <time>2022-06-25T15:34:15Z</time>
      </trkpt>
      <trkpt lat="46.11178" lon="4.66479">
        <ele>362.4</ele>
        <time>2022-06-25T15:34:16Z</time>
      </trkpt>
      <trkpt lat="46.11174" lon="4.6648">
        <ele>362.4</ele>
        <time>2022-06-25T15:34:17Z</time>
      </trkpt>
      <trkpt lat="46.11171" lon="4.6648">
        <ele>362.4</ele>
        <time>2022-06-25T15:34:18Z</time>
      </trkpt>
      <trkpt lat="46.11167" lon="4.66481">
        <ele>362.4</ele>
        <time>2022-06-25T15:34:19Z</time>
      </trkpt>
      <trkpt lat="46.11163" lon="4.66481">
        <ele>362.6</ele>
        <time>2022-06-25T15:34:20Z</time>
      </trkpt>
      <trkpt lat="46.1116" lon="4.66482">
        <ele>362.6</ele>
        <time>2022-06-25T15:34:21Z</time>
      </trkpt>
      <trkpt lat="46.11156" lon="4.66483">
        <ele>362.6</ele>
        <time>2022-06-25T15:34:22Z</time>
      </trkpt>
      <trkpt lat="46.11152" lon="4.66484">
        <ele>362.6</ele>
        <time>2022-06-25T15:34:23Z</time>
      </trkpt>
      <trkpt lat="46.11148" lon="4.66484">
        <ele>362.6</ele>
        <time>2022-06-25T15:34:24Z</time>
      </trkpt>
      <trkpt lat="46.11144" lon="4.66484">
        <ele>362.6</ele>
        <time>2022-06-25T15:34:25Z</time>
      </trkpt>
      <trkpt lat="46.1114" lon="4.66484">
        <ele>362.6</ele>
        <time>2022-06-25T15:34:26Z</time>
      </trkpt>
      <trkpt lat="46.11136" lon="4.66483">
        <ele>362.6</ele>
        <time>2022-06-25T15:34:27Z</time>
      </trkpt>
      <trkpt lat="46.11132" lon="4.66482">
        <ele>362.8</ele>
        <time>2022-06-25T15:34:28Z</time>
      </trkpt>
      <trkpt lat="46.11128" lon="4.6648">
        <ele>362.8</ele>
        <time>2022-06-25T15:34:29Z</time>
      </trkpt>
      <trkpt lat="46.11125" lon="4.66476">
        <ele>363.2</ele>
        <time>2022-06-25T15:34:30Z</time>
      </trkpt>
      <trkpt lat="46.11122" lon="4.66473">
        <ele>363.2</ele>
        <time>2022-06-25T15:34:31Z</time>
      </trkpt>
      <trkpt lat="46.1112" lon="4.66469">
        <ele>363.6</ele>
        <time>2022-06-25T15:34:32Z</time>
      </trkpt>
      <trkpt lat="46.11117" lon="4.66465">
        <ele>363.6</ele>
        <time>2022-06-25T15:34:33Z</time>
      </trkpt>
      <trkpt lat="46.11115" lon="4.66462">
        <ele>364</ele>
        <time>2022-06-25T15:34:34Z</time>
      </trkpt>
      <trkpt lat="46.11113" lon="4.66459">
        <ele>364</ele>
        <time>2022-06-25T15:34:35Z</time>
      </trkpt>
      <trkpt lat="46.11111" lon="4.66456">
        <ele>364.4</ele>
        <time>2022-06-25T15:34:36Z</time>
      </trkpt>
      <trkpt lat="46.11109" lon="4.66453">
        <ele>364.8</ele>
        <time>2022-06-25T15:34:37Z</time>
      </trkpt>
      <trkpt lat="46.11106" lon="4.66448">
        <ele>365</ele>
        <time>2022-06-25T15:34:38Z</time>
      </trkpt>
      <trkpt lat="46.11104" lon="4.66445">
        <ele>365.2</ele>
        <time>2022-06-25T15:34:39Z</time>
      </trkpt>
      <trkpt lat="46.11103" lon="4.66443">
        <ele>365.4</ele>
        <time>2022-06-25T15:34:40Z</time>
      </trkpt>
      <trkpt lat="46.11101" lon="4.66441">
        <ele>365.6</ele>
        <time>2022-06-25T15:34:41Z</time>
      </trkpt>
      <trkpt lat="46.11099" lon="4.66438">
        <ele>365.8</ele>
        <time>2022-06-25T15:34:42Z</time>
      </trkpt>
      <trkpt lat="46.11098" lon="4.66435">
        <ele>366.2</ele>
        <time>2022-06-25T15:34:43Z</time>
      </trkpt>
      <trkpt lat="46.11097" lon="4.66432">
        <ele>366.4</ele>
        <time>2022-06-25T15:34:44Z</time>
      </trkpt>
      <trkpt lat="46.11096" lon="4.66429">
        <ele>366.6</ele>
        <time>2022-06-25T15:34:45Z</time>
      </trkpt>
      <trkpt lat="46.11095" lon="4.66426">
        <ele>366.6</ele>
        <time>2022-06-25T15:34:46Z</time>
      </trkpt>
      <trkpt lat="46.11093" lon="4.66423">
        <ele>367</ele>
        <time>2022-06-25T15:34:47Z</time>
      </trkpt>
      <trkpt lat="46.11092" lon="4.66421">
        <ele>367</ele>
        <time>2022-06-25T15:34:48Z</time>
      </trkpt>
      <trkpt lat="46.1109" lon="4.66418">
        <ele>367.4</ele>
        <time>2022-06-25T15:34:49Z</time>
      </trkpt>
      <trkpt lat="46.11089" lon="4.66415">
        <ele>367.4</ele>
        <time>2022-06-25T15:34:50Z</time>
      </trkpt>
      <trkpt lat="46.11088" lon="4.66413">
        <ele>367.6</ele>
        <time>2022-06-25T15:34:51Z</time>
      </trkpt>
      <trkpt lat="46.11086" lon="4.6641">
        <ele>368</ele>
        <time>2022-06-25T15:34:52Z</time>
      </trkpt>
      <trkpt lat="46.11085" lon="4.66407">
        <ele>368.2</ele>
        <time>2022-06-25T15:34:53Z</time>
      </trkpt>
      <trkpt lat="46.11083" lon="4.66405">
        <ele>368.2</ele>
        <time>2022-06-25T15:34:54Z</time>
      </trkpt>
      <trkpt lat="46.11082" lon="4.66402">
        <ele>368.6</ele>
        <time>2022-06-25T15:34:55Z</time>
      </trkpt>
      <trkpt lat="46.11081" lon="4.664">
        <ele>368.8</ele>
        <time>2022-06-25T15:34:56Z</time>
      </trkpt>
      <trkpt lat="46.1108" lon="4.66397">
        <ele>369</ele>
        <time>2022-06-25T15:34:57Z</time>
      </trkpt>
      <trkpt lat="46.11079" lon="4.66394">
        <ele>369</ele>
        <time>2022-06-25T15:34:58Z</time>
      </trkpt>
      <trkpt lat="46.11078" lon="4.66391">
        <ele>369.4</ele>
        <time>2022-06-25T15:34:59Z</time>
      </trkpt>
      <trkpt lat="46.11077" lon="4.66388">
        <ele>369.6</ele>
        <time>2022-06-25T15:35:00Z</time>
      </trkpt>
      <trkpt lat="46.11076" lon="4.66386">
        <ele>369.6</ele>
        <time>2022-06-25T15:35:01Z</time>
      </trkpt>
      <trkpt lat="46.11075" lon="4.66383">
        <ele>370</ele>
        <time>2022-06-25T15:35:02Z</time>
      </trkpt>
      <trkpt lat="46.11074" lon="4.66381">
        <ele>370.2</ele>
        <time>2022-06-25T15:35:03Z</time>
      </trkpt>
      <trkpt lat="46.11072" lon="4.66378">
        <ele>370.2</ele>
        <time>2022-06-25T15:35:04Z</time>
      </trkpt>
      <trkpt lat="46.11071" lon="4.66376">
        <ele>370.4</ele>
        <time>2022-06-25T15:35:05Z</time>
      </trkpt>
      <trkpt lat="46.1107" lon="4.66373">
        <ele>370.6</ele>
        <time>2022-06-25T15:35:06Z</time>
      </trkpt>
      <trkpt lat="46.11069" lon="4.6637">
        <ele>370.6</ele>
        <time>2022-06-25T15:35:07Z</time>
      </trkpt>
      <trkpt lat="46.11068" lon="4.66367">
        <ele>371</ele>
        <time>2022-06-25T15:35:08Z</time>
      </trkpt>
      <trkpt lat="46.11067" lon="4.66364">
        <ele>371.2</ele>
        <time>2022-06-25T15:35:09Z</time>
      </trkpt>
      <trkpt lat="46.11066" lon="4.66361">
        <ele>371.6</ele>
        <time>2022-06-25T15:35:10Z</time>
      </trkpt>
      <trkpt lat="46.11065" lon="4.66357">
        <ele>371.6</ele>
        <time>2022-06-25T15:35:11Z</time>
      </trkpt>
      <trkpt lat="46.11065" lon="4.66354">
        <ele>372</ele>
        <time>2022-06-25T15:35:12Z</time>
      </trkpt>
      <trkpt lat="46.11064" lon="4.66351">
        <ele>372</ele>
        <time>2022-06-25T15:35:13Z</time>
      </trkpt>
      <trkpt lat="46.11062" lon="4.66348">
        <ele>372.4</ele>
        <time>2022-06-25T15:35:14Z</time>
      </trkpt>
      <trkpt lat="46.11061" lon="4.66344">
        <ele>372.4</ele>
        <time>2022-06-25T15:35:15Z</time>
      </trkpt>
      <trkpt lat="46.1106" lon="4.66341">
        <ele>372.8</ele>
        <time>2022-06-25T15:35:16Z</time>
      </trkpt>
      <trkpt lat="46.11058" lon="4.66339">
        <ele>372.8</ele>
        <time>2022-06-25T15:35:17Z</time>
      </trkpt>
      <trkpt lat="46.11057" lon="4.66335">
        <ele>373.2</ele>
        <time>2022-06-25T15:35:18Z</time>
      </trkpt>
      <trkpt lat="46.11056" lon="4.66332">
        <ele>373.2</ele>
        <time>2022-06-25T15:35:19Z</time>
      </trkpt>
      <trkpt lat="46.11055" lon="4.66329">
        <ele>373.6</ele>
        <time>2022-06-25T15:35:20Z</time>
      </trkpt>
      <trkpt lat="46.11054" lon="4.66326">
        <ele>373.6</ele>
        <time>2022-06-25T15:35:21Z</time>
      </trkpt>
      <trkpt lat="46.11053" lon="4.66322">
        <ele>374</ele>
        <time>2022-06-25T15:35:22Z</time>
      </trkpt>
      <trkpt lat="46.11052" lon="4.66319">
        <ele>374.2</ele>
        <time>2022-06-25T15:35:23Z</time>
      </trkpt>
      <trkpt lat="46.11051" lon="4.66316">
        <ele>374.4</ele>
        <time>2022-06-25T15:35:24Z</time>
      </trkpt>
      <trkpt lat="46.1105" lon="4.66313">
        <ele>374.4</ele>
        <time>2022-06-25T15:35:25Z</time>
      </trkpt>
      <trkpt lat="46.11049" lon="4.66309">
        <ele>374.6</ele>
        <time>2022-06-25T15:35:26Z</time>
      </trkpt>
      <trkpt lat="46.11048" lon="4.66306">
        <ele>374.6</ele>
        <time>2022-06-25T15:35:27Z</time>
      </trkpt>
      <trkpt lat="46.11047" lon="4.66302">
        <ele>374.6</ele>
        <time>2022-06-25T15:35:28Z</time>
      </trkpt>
      <trkpt lat="46.11045" lon="4.66299">
        <ele>375</ele>
        <time>2022-06-25T15:35:29Z</time>
      </trkpt>
      <trkpt lat="46.11044" lon="4.66296">
        <ele>375</ele>
        <time>2022-06-25T15:35:30Z</time>
      </trkpt>
      <trkpt lat="46.11043" lon="4.66293">
        <ele>375.4</ele>
        <time>2022-06-25T15:35:31Z</time>
      </trkpt>
      <trkpt lat="46.11042" lon="4.6629">
        <ele>375.4</ele>
        <time>2022-06-25T15:35:32Z</time>
      </trkpt>
      <trkpt lat="46.1104" lon="4.66286">
        <ele>375.6</ele>
        <time>2022-06-25T15:35:33Z</time>
      </trkpt>
      <trkpt lat="46.11039" lon="4.66283">
        <ele>375.8</ele>
        <time>2022-06-25T15:35:34Z</time>
      </trkpt>
      <trkpt lat="46.11038" lon="4.6628">
        <ele>375.8</ele>
        <time>2022-06-25T15:35:35Z</time>
      </trkpt>
      <trkpt lat="46.11036" lon="4.66277">
        <ele>376.2</ele>
        <time>2022-06-25T15:35:36Z</time>
      </trkpt>
      <trkpt lat="46.11035" lon="4.66274">
        <ele>376.4</ele>
        <time>2022-06-25T15:35:37Z</time>
      </trkpt>
      <trkpt lat="46.11034" lon="4.66271">
        <ele>376.4</ele>
        <time>2022-06-25T15:35:38Z</time>
      </trkpt>
      <trkpt lat="46.11033" lon="4.66268">
        <ele>376.6</ele>
        <time>2022-06-25T15:35:39Z</time>
      </trkpt>
      <trkpt lat="46.11032" lon="4.66265">
        <ele>376.6</ele>
        <time>2022-06-25T15:35:40Z</time>
      </trkpt>
      <trkpt lat="46.11031" lon="4.66261">
        <ele>377</ele>
        <time>2022-06-25T15:35:41Z</time>
      </trkpt>
      <trkpt lat="46.1103" lon="4.66258">
        <ele>377.2</ele>
        <time>2022-06-25T15:35:42Z</time>
      </trkpt>
      <trkpt lat="46.11029" lon="4.66255">
        <ele>377.4</ele>
        <time>2022-06-25T15:35:43Z</time>
      </trkpt>
      <trkpt lat="46.11028" lon="4.66251">
        <ele>377.8</ele>
        <time>2022-06-25T15:35:44Z</time>
      </trkpt>
      <trkpt lat="46.11027" lon="4.66248">
        <ele>378</ele>
        <time>2022-06-25T15:35:45Z</time>
      </trkpt>
      <trkpt lat="46.11027" lon="4.66245">
        <ele>378</ele>
        <time>2022-06-25T15:35:46Z</time>
      </trkpt>
      <trkpt lat="46.11026" lon="4.66242">
        <ele>378.2</ele>
        <time>2022-06-25T15:35:47Z</time>
      </trkpt>
      <trkpt lat="46.11025" lon="4.66239">
        <ele>378.4</ele>
        <time>2022-06-25T15:35:48Z</time>
      </trkpt>
      <trkpt lat="46.11024" lon="4.66236">
        <ele>378.8</ele>
        <time>2022-06-25T15:35:49Z</time>
      </trkpt>
      <trkpt lat="46.11024" lon="4.66233">
        <ele>379</ele>
        <time>2022-06-25T15:35:50Z</time>
      </trkpt>
      <trkpt lat="46.11024" lon="4.66231">
        <ele>379.4</ele>
        <time>2022-06-25T15:35:51Z</time>
      </trkpt>
      <trkpt lat="46.11023" lon="4.66228">
        <ele>379.6</ele>
        <time>2022-06-25T15:35:52Z</time>
      </trkpt>
      <trkpt lat="46.11023" lon="4.66225">
        <ele>379.6</ele>
        <time>2022-06-25T15:35:53Z</time>
      </trkpt>
      <trkpt lat="46.11022" lon="4.66222">
        <ele>379.8</ele>
        <time>2022-06-25T15:35:54Z</time>
      </trkpt>
      <trkpt lat="46.11022" lon="4.6622">
        <ele>380.2</ele>
        <time>2022-06-25T15:35:55Z</time>
      </trkpt>
      <trkpt lat="46.11021" lon="4.66217">
        <ele>380.4</ele>
        <time>2022-06-25T15:35:56Z</time>
      </trkpt>
      <trkpt lat="46.11021" lon="4.66214">
        <ele>380.6</ele>
        <time>2022-06-25T15:35:57Z</time>
      </trkpt>
      <trkpt lat="46.1102" lon="4.66212">
        <ele>380.8</ele>
        <time>2022-06-25T15:35:58Z</time>
      </trkpt>
      <trkpt lat="46.1102" lon="4.66209">
        <ele>381.2</ele>
        <time>2022-06-25T15:35:59Z</time>
      </trkpt>
      <trkpt lat="46.1102" lon="4.66207">
        <ele>381.4</ele>
        <time>2022-06-25T15:36:00Z</time>
      </trkpt>
      <trkpt lat="46.11019" lon="4.66204">
        <ele>381.6</ele>
        <time>2022-06-25T15:36:01Z</time>
      </trkpt>
      <trkpt lat="46.11019" lon="4.66201">
        <ele>382</ele>
        <time>2022-06-25T15:36:02Z</time>
      </trkpt>
      <trkpt lat="46.11019" lon="4.66199">
        <ele>382.2</ele>
        <time>2022-06-25T15:36:03Z</time>
      </trkpt>
      <trkpt lat="46.11018" lon="4.66196">
        <ele>382.4</ele>
        <time>2022-06-25T15:36:04Z</time>
      </trkpt>
      <trkpt lat="46.11017" lon="4.66194">
        <ele>382.6</ele>
        <time>2022-06-25T15:36:05Z</time>
      </trkpt>
      <trkpt lat="46.11017" lon="4.66191">
        <ele>382.8</ele>
        <time>2022-06-25T15:36:06Z</time>
      </trkpt>
      <trkpt lat="46.11016" lon="4.66189">
        <ele>383</ele>
        <time>2022-06-25T15:36:07Z</time>
      </trkpt>
      <trkpt lat="46.11016" lon="4.66187">
        <ele>383.4</ele>
        <time>2022-06-25T15:36:08Z</time>
      </trkpt>
      <trkpt lat="46.11015" lon="4.66184">
        <ele>383.6</ele>
        <time>2022-06-25T15:36:09Z</time>
      </trkpt>
      <trkpt lat="46.11015" lon="4.66182">
        <ele>383.8</ele>
        <time>2022-06-25T15:36:10Z</time>
      </trkpt>
      <trkpt lat="46.11015" lon="4.6618">
        <ele>384</ele>
        <time>2022-06-25T15:36:11Z</time>
      </trkpt>
      <trkpt lat="46.11014" lon="4.66177">
        <ele>384.2</ele>
        <time>2022-06-25T15:36:12Z</time>
      </trkpt>
      <trkpt lat="46.11014" lon="4.66175">
        <ele>384.2</ele>
        <time>2022-06-25T15:36:13Z</time>
      </trkpt>
      <trkpt lat="46.11013" lon="4.66172">
        <ele>384.6</ele>
        <time>2022-06-25T15:36:14Z</time>
      </trkpt>
      <trkpt lat="46.11013" lon="4.6617">
        <ele>384.8</ele>
        <time>2022-06-25T15:36:15Z</time>
      </trkpt>
      <trkpt lat="46.11012" lon="4.66168">
        <ele>385.2</ele>
        <time>2022-06-25T15:36:16Z</time>
      </trkpt>
      <trkpt lat="46.11012" lon="4.66165">
        <ele>385.4</ele>
        <time>2022-06-25T15:36:17Z</time>
      </trkpt>
      <trkpt lat="46.11012" lon="4.66163">
        <ele>385.6</ele>
        <time>2022-06-25T15:36:18Z</time>
      </trkpt>
      <trkpt lat="46.11011" lon="4.6616">
        <ele>385.8</ele>
        <time>2022-06-25T15:36:19Z</time>
      </trkpt>
      <trkpt lat="46.11011" lon="4.66158">
        <ele>386.2</ele>
        <time>2022-06-25T15:36:20Z</time>
      </trkpt>
      <trkpt lat="46.11011" lon="4.66155">
        <ele>386.4</ele>
        <time>2022-06-25T15:36:21Z</time>
      </trkpt>
      <trkpt lat="46.11011" lon="4.66153">
        <ele>386.6</ele>
        <time>2022-06-25T15:36:22Z</time>
      </trkpt>
      <trkpt lat="46.1101" lon="4.6615">
        <ele>387</ele>
        <time>2022-06-25T15:36:23Z</time>
      </trkpt>
      <trkpt lat="46.1101" lon="4.66148">
        <ele>387.2</ele>
        <time>2022-06-25T15:36:24Z</time>
      </trkpt>
      <trkpt lat="46.1101" lon="4.66145">
        <ele>387.4</ele>
        <time>2022-06-25T15:36:25Z</time>
      </trkpt>
      <trkpt lat="46.11009" lon="4.66143">
        <ele>387.6</ele>
        <time>2022-06-25T15:36:26Z</time>
      </trkpt>
      <trkpt lat="46.11009" lon="4.66141">
        <ele>388</ele>
        <time>2022-06-25T15:36:27Z</time>
      </trkpt>
      <trkpt lat="46.11009" lon="4.66138">
        <ele>388.2</ele>
        <time>2022-06-25T15:36:28Z</time>
      </trkpt>
      <trkpt lat="46.11008" lon="4.66136">
        <ele>388.4</ele>
        <time>2022-06-25T15:36:29Z</time>
      </trkpt>
      <trkpt lat="46.11008" lon="4.66134">
        <ele>388.6</ele>
        <time>2022-06-25T15:36:30Z</time>
      </trkpt>
      <trkpt lat="46.11008" lon="4.66131">
        <ele>388.6</ele>
        <time>2022-06-25T15:36:31Z</time>
      </trkpt>
      <trkpt lat="46.11008" lon="4.66129">
        <ele>389</ele>
        <time>2022-06-25T15:36:32Z</time>
      </trkpt>
      <trkpt lat="46.11008" lon="4.66127">
        <ele>389.2</ele>
        <time>2022-06-25T15:36:33Z</time>
      </trkpt>
      <trkpt lat="46.11008" lon="4.66125">
        <ele>389.4</ele>
        <time>2022-06-25T15:36:34Z</time>
      </trkpt>
      <trkpt lat="46.11008" lon="4.66122">
        <ele>389.4</ele>
        <time>2022-06-25T15:36:35Z</time>
      </trkpt>
      <trkpt lat="46.11007" lon="4.6612">
        <ele>389.8</ele>
        <time>2022-06-25T15:36:36Z</time>
      </trkpt>
      <trkpt lat="46.11007" lon="4.66117">
        <ele>390.2</ele>
        <time>2022-06-25T15:36:37Z</time>
      </trkpt>
      <trkpt lat="46.11007" lon="4.66115">
        <ele>390.4</ele>
        <time>2022-06-25T15:36:38Z</time>
      </trkpt>
      <trkpt lat="46.11007" lon="4.66112">
        <ele>390.6</ele>
        <time>2022-06-25T15:36:39Z</time>
      </trkpt>
      <trkpt lat="46.11006" lon="4.6611">
        <ele>390.8</ele>
        <time>2022-06-25T15:36:40Z</time>
      </trkpt>
      <trkpt lat="46.11006" lon="4.66108">
        <ele>391</ele>
        <time>2022-06-25T15:36:41Z</time>
      </trkpt>
      <trkpt lat="46.11006" lon="4.66105">
        <ele>391.4</ele>
        <time>2022-06-25T15:36:42Z</time>
      </trkpt>
      <trkpt lat="46.11006" lon="4.66103">
        <ele>391.6</ele>
        <time>2022-06-25T15:36:43Z</time>
      </trkpt>
      <trkpt lat="46.11006" lon="4.66101">
        <ele>391.8</ele>
        <time>2022-06-25T15:36:44Z</time>
      </trkpt>
      <trkpt lat="46.11006" lon="4.66098">
        <ele>392</ele>
        <time>2022-06-25T15:36:45Z</time>
      </trkpt>
      <trkpt lat="46.11006" lon="4.66096">
        <ele>392.2</ele>
        <time>2022-06-25T15:36:46Z</time>
      </trkpt>
      <trkpt lat="46.11005" lon="4.66093">
        <ele>392.6</ele>
        <time>2022-06-25T15:36:47Z</time>
      </trkpt>
      <trkpt lat="46.11005" lon="4.66091">
        <ele>393</ele>
        <time>2022-06-25T15:36:48Z</time>
      </trkpt>
      <trkpt lat="46.11005" lon="4.66089">
        <ele>393.2</ele>
        <time>2022-06-25T15:36:49Z</time>
      </trkpt>
      <trkpt lat="46.11004" lon="4.66086">
        <ele>393.4</ele>
        <time>2022-06-25T15:36:50Z</time>
      </trkpt>
      <trkpt lat="46.11004" lon="4.66084">
        <ele>393.8</ele>
        <time>2022-06-25T15:36:51Z</time>
      </trkpt>
      <trkpt lat="46.11004" lon="4.66082">
        <ele>394</ele>
        <time>2022-06-25T15:36:52Z</time>
      </trkpt>
      <trkpt lat="46.11004" lon="4.6608">
        <ele>394.4</ele>
        <time>2022-06-25T15:36:53Z</time>
      </trkpt>
      <trkpt lat="46.11004" lon="4.66077">
        <ele>394.6</ele>
        <time>2022-06-25T15:36:54Z</time>
      </trkpt>
      <trkpt lat="46.11004" lon="4.66075">
        <ele>395</ele>
        <time>2022-06-25T15:36:55Z</time>
      </trkpt>
      <trkpt lat="46.11004" lon="4.66073">
        <ele>395.2</ele>
        <time>2022-06-25T15:36:56Z</time>
      </trkpt>
      <trkpt lat="46.11005" lon="4.66071">
        <ele>395.6</ele>
        <time>2022-06-25T15:36:57Z</time>
      </trkpt>
      <trkpt lat="46.11006" lon="4.66069">
        <ele>395.8</ele>
        <time>2022-06-25T15:36:58Z</time>
      </trkpt>
      <trkpt lat="46.11008" lon="4.66068">
        <ele>396</ele>
        <time>2022-06-25T15:36:59Z</time>
      </trkpt>
      <trkpt lat="46.11009" lon="4.66067">
        <ele>396.4</ele>
        <time>2022-06-25T15:37:00Z</time>
      </trkpt>
      <trkpt lat="46.11011" lon="4.66067">
        <ele>396.4</ele>
        <time>2022-06-25T15:37:01Z</time>
      </trkpt>
      <trkpt lat="46.11012" lon="4.66069">
        <ele>396.8</ele>
        <time>2022-06-25T15:37:02Z</time>
      </trkpt>
      <trkpt lat="46.11014" lon="4.66071">
        <ele>397</ele>
        <time>2022-06-25T15:37:03Z</time>
      </trkpt>
      <trkpt lat="46.11015" lon="4.66073">
        <ele>397</ele>
        <time>2022-06-25T15:37:04Z</time>
      </trkpt>
      <trkpt lat="46.11017" lon="4.66075">
        <ele>397.2</ele>
        <time>2022-06-25T15:37:05Z</time>
      </trkpt>
      <trkpt lat="46.11018" lon="4.66077">
        <ele>397.4</ele>
        <time>2022-06-25T15:37:06Z</time>
      </trkpt>
      <trkpt lat="46.11019" lon="4.66079">
        <ele>397.8</ele>
        <time>2022-06-25T15:37:07Z</time>
      </trkpt>
      <trkpt lat="46.11021" lon="4.66082">
        <ele>397.8</ele>
        <time>2022-06-25T15:37:08Z</time>
      </trkpt>
      <trkpt lat="46.11022" lon="4.66084">
        <ele>398</ele>
        <time>2022-06-25T15:37:09Z</time>
      </trkpt>
      <trkpt lat="46.11024" lon="4.66086">
        <ele>398</ele>
        <time>2022-06-25T15:37:10Z</time>
      </trkpt>
      <trkpt lat="46.11025" lon="4.66088">
        <ele>398.4</ele>
        <time>2022-06-25T15:37:11Z</time>
      </trkpt>
      <trkpt lat="46.11026" lon="4.6609">
        <ele>398.4</ele>
        <time>2022-06-25T15:37:12Z</time>
      </trkpt>
      <trkpt lat="46.11028" lon="4.66093">
        <ele>398.6</ele>
        <time>2022-06-25T15:37:13Z</time>
      </trkpt>
      <trkpt lat="46.11029" lon="4.66096">
        <ele>398.6</ele>
        <time>2022-06-25T15:37:14Z</time>
      </trkpt>
      <trkpt lat="46.1103" lon="4.66098">
        <ele>399</ele>
        <time>2022-06-25T15:37:15Z</time>
      </trkpt>
      <trkpt lat="46.11032" lon="4.66101">
        <ele>399.2</ele>
        <time>2022-06-25T15:37:16Z</time>
      </trkpt>
      <trkpt lat="46.11033" lon="4.66103">
        <ele>399.4</ele>
        <time>2022-06-25T15:37:17Z</time>
      </trkpt>
      <trkpt lat="46.11035" lon="4.66106">
        <ele>399.4</ele>
        <time>2022-06-25T15:37:18Z</time>
      </trkpt>
      <trkpt lat="46.11037" lon="4.66108">
        <ele>399.8</ele>
        <time>2022-06-25T15:37:19Z</time>
      </trkpt>
      <trkpt lat="46.11038" lon="4.6611">
        <ele>399.8</ele>
        <time>2022-06-25T15:37:20Z</time>
      </trkpt>
      <trkpt lat="46.1104" lon="4.66112">
        <ele>400.2</ele>
        <time>2022-06-25T15:37:21Z</time>
      </trkpt>
      <trkpt lat="46.11041" lon="4.66115">
        <ele>400.2</ele>
        <time>2022-06-25T15:37:22Z</time>
      </trkpt>
      <trkpt lat="46.11042" lon="4.66117">
        <ele>400.6</ele>
        <time>2022-06-25T15:37:23Z</time>
      </trkpt>
      <trkpt lat="46.11043" lon="4.66119">
        <ele>400.8</ele>
        <time>2022-06-25T15:37:24Z</time>
      </trkpt>
      <trkpt lat="46.11045" lon="4.66121">
        <ele>401</ele>
        <time>2022-06-25T15:37:25Z</time>
      </trkpt>
      <trkpt lat="46.11046" lon="4.66124">
        <ele>401</ele>
        <time>2022-06-25T15:37:26Z</time>
      </trkpt>
      <trkpt lat="46.11048" lon="4.66126">
        <ele>401.4</ele>
        <time>2022-06-25T15:37:27Z</time>
      </trkpt>
      <trkpt lat="46.11049" lon="4.66128">
        <ele>401.4</ele>
        <time>2022-06-25T15:37:28Z</time>
      </trkpt>
      <trkpt lat="46.1105" lon="4.6613">
        <ele>401.8</ele>
        <time>2022-06-25T15:37:29Z</time>
      </trkpt>
      <trkpt lat="46.11051" lon="4.66133">
        <ele>401.8</ele>
        <time>2022-06-25T15:37:30Z</time>
      </trkpt>
      <trkpt lat="46.11052" lon="4.66135">
        <ele>402</ele>
        <time>2022-06-25T15:37:31Z</time>
      </trkpt>
      <trkpt lat="46.11053" lon="4.66138">
        <ele>402.2</ele>
        <time>2022-06-25T15:37:32Z</time>
      </trkpt>
      <trkpt lat="46.11055" lon="4.6614">
        <ele>402.2</ele>
        <time>2022-06-25T15:37:33Z</time>
      </trkpt>
      <trkpt lat="46.11057" lon="4.66143">
        <ele>402.6</ele>
        <time>2022-06-25T15:37:34Z</time>
      </trkpt>
      <trkpt lat="46.11058" lon="4.66145">
        <ele>402.6</ele>
        <time>2022-06-25T15:37:35Z</time>
      </trkpt>
      <trkpt lat="46.1106" lon="4.66147">
        <ele>402.8</ele>
        <time>2022-06-25T15:37:36Z</time>
      </trkpt>
      <trkpt lat="46.11062" lon="4.66149">
        <ele>403</ele>
        <time>2022-06-25T15:37:37Z</time>
      </trkpt>
      <trkpt lat="46.11063" lon="4.66152">
        <ele>403</ele>
        <time>2022-06-25T15:37:38Z</time>
      </trkpt>
      <trkpt lat="46.11064" lon="4.66154">
        <ele>403.2</ele>
        <time>2022-06-25T15:37:39Z</time>
      </trkpt>
      <trkpt lat="46.11066" lon="4.66156">
        <ele>403.2</ele>
        <time>2022-06-25T15:37:40Z</time>
      </trkpt>
      <trkpt lat="46.11067" lon="4.66159">
        <ele>403.6</ele>
        <time>2022-06-25T15:37:41Z</time>
      </trkpt>
      <trkpt lat="46.11069" lon="4.66162">
        <ele>403.6</ele>
        <time>2022-06-25T15:37:42Z</time>
      </trkpt>
      <trkpt lat="46.1107" lon="4.66164">
        <ele>403.8</ele>
        <time>2022-06-25T15:37:43Z</time>
      </trkpt>
      <trkpt lat="46.11072" lon="4.66167">
        <ele>403.8</ele>
        <time>2022-06-25T15:37:44Z</time>
      </trkpt>
      <trkpt lat="46.11073" lon="4.66169">
        <ele>404.2</ele>
        <time>2022-06-25T15:37:45Z</time>
      </trkpt>
      <trkpt lat="46.11075" lon="4.66171">
        <ele>404.2</ele>
        <time>2022-06-25T15:37:46Z</time>
      </trkpt>
      <trkpt lat="46.11076" lon="4.66174">
        <ele>404.6</ele>
        <time>2022-06-25T15:37:47Z</time>
      </trkpt>
      <trkpt lat="46.11078" lon="4.66176">
        <ele>404.6</ele>
        <time>2022-06-25T15:37:48Z</time>
      </trkpt>
      <trkpt lat="46.11079" lon="4.66179">
        <ele>404.8</ele>
        <time>2022-06-25T15:37:49Z</time>
      </trkpt>
      <trkpt lat="46.1108" lon="4.66181">
        <ele>404.8</ele>
        <time>2022-06-25T15:37:50Z</time>
      </trkpt>
      <trkpt lat="46.11082" lon="4.66183">
        <ele>405.2</ele>
        <time>2022-06-25T15:37:51Z</time>
      </trkpt>
      <trkpt lat="46.11083" lon="4.66186">
        <ele>405.2</ele>
        <time>2022-06-25T15:37:52Z</time>
      </trkpt>
      <trkpt lat="46.11085" lon="4.66188">
        <ele>405.4</ele>
        <time>2022-06-25T15:37:53Z</time>
      </trkpt>
      <trkpt lat="46.11086" lon="4.6619">
        <ele>405.4</ele>
        <time>2022-06-25T15:37:54Z</time>
      </trkpt>
      <trkpt lat="46.11087" lon="4.66192">
        <ele>405.8</ele>
        <time>2022-06-25T15:37:55Z</time>
      </trkpt>
      <trkpt lat="46.11089" lon="4.66194">
        <ele>405.8</ele>
        <time>2022-06-25T15:37:56Z</time>
      </trkpt>
      <trkpt lat="46.11091" lon="4.66196">
        <ele>406</ele>
        <time>2022-06-25T15:37:57Z</time>
      </trkpt>
      <trkpt lat="46.11092" lon="4.66198">
        <ele>406</ele>
        <time>2022-06-25T15:37:58Z</time>
      </trkpt>
      <trkpt lat="46.11094" lon="4.662">
        <ele>406.4</ele>
        <time>2022-06-25T15:37:59Z</time>
      </trkpt>
      <trkpt lat="46.11096" lon="4.66202">
        <ele>406.6</ele>
        <time>2022-06-25T15:38:00Z</time>
      </trkpt>
      <trkpt lat="46.11098" lon="4.66203">
        <ele>407.2</ele>
        <time>2022-06-25T15:38:01Z</time>
      </trkpt>
      <trkpt lat="46.11099" lon="4.66205">
        <ele>407.2</ele>
        <time>2022-06-25T15:38:02Z</time>
      </trkpt>
      <trkpt lat="46.11101" lon="4.66206">
        <ele>407.4</ele>
        <time>2022-06-25T15:38:03Z</time>
      </trkpt>
      <trkpt lat="46.11103" lon="4.66207">
        <ele>407.8</ele>
        <time>2022-06-25T15:38:04Z</time>
      </trkpt>
      <trkpt lat="46.11105" lon="4.66208">
        <ele>408</ele>
        <time>2022-06-25T15:38:05Z</time>
      </trkpt>
      <trkpt lat="46.11107" lon="4.66209">
        <ele>408</ele>
        <time>2022-06-25T15:38:06Z</time>
      </trkpt>
      <trkpt lat="46.11108" lon="4.6621">
        <ele>408.4</ele>
        <time>2022-06-25T15:38:07Z</time>
      </trkpt>
      <trkpt lat="46.1111" lon="4.66211">
        <ele>408.6</ele>
        <time>2022-06-25T15:38:08Z</time>
      </trkpt>
      <trkpt lat="46.11112" lon="4.66212">
        <ele>408.8</ele>
        <time>2022-06-25T15:38:09Z</time>
      </trkpt>
      <trkpt lat="46.11114" lon="4.66213">
        <ele>408.8</ele>
        <time>2022-06-25T15:38:10Z</time>
      </trkpt>
      <trkpt lat="46.11116" lon="4.66214">
        <ele>409.2</ele>
        <time>2022-06-25T15:38:11Z</time>
      </trkpt>
      <trkpt lat="46.11118" lon="4.66215">
        <ele>409.4</ele>
        <time>2022-06-25T15:38:12Z</time>
      </trkpt>
      <trkpt lat="46.1112" lon="4.66215">
        <ele>409.8</ele>
        <time>2022-06-25T15:38:13Z</time>
      </trkpt>
      <trkpt lat="46.11122" lon="4.66216">
        <ele>410</ele>
        <time>2022-06-25T15:38:14Z</time>
      </trkpt>
      <trkpt lat="46.11124" lon="4.66216">
        <ele>410.2</ele>
        <time>2022-06-25T15:38:15Z</time>
      </trkpt>
      <trkpt lat="46.11126" lon="4.66217">
        <ele>410.6</ele>
        <time>2022-06-25T15:38:16Z</time>
      </trkpt>
      <trkpt lat="46.11128" lon="4.66218">
        <ele>410.8</ele>
        <time>2022-06-25T15:38:17Z</time>
      </trkpt>
      <trkpt lat="46.11131" lon="4.66218">
        <ele>411</ele>
        <time>2022-06-25T15:38:18Z</time>
      </trkpt>
      <trkpt lat="46.11133" lon="4.66219">
        <ele>411.4</ele>
        <time>2022-06-25T15:38:19Z</time>
      </trkpt>
      <trkpt lat="46.11135" lon="4.66219">
        <ele>411.6</ele>
        <time>2022-06-25T15:38:20Z</time>
      </trkpt>
      <trkpt lat="46.11136" lon="4.66218">
        <ele>411.8</ele>
        <time>2022-06-25T15:38:21Z</time>
      </trkpt>
      <trkpt lat="46.11138" lon="4.66218">
        <ele>412.2</ele>
        <time>2022-06-25T15:38:22Z</time>
      </trkpt>
      <trkpt lat="46.1114" lon="4.66217">
        <ele>412.4</ele>
        <time>2022-06-25T15:38:23Z</time>
      </trkpt>
      <trkpt lat="46.11142" lon="4.66217">
        <ele>412.6</ele>
        <time>2022-06-25T15:38:24Z</time>
      </trkpt>
      <trkpt lat="46.11144" lon="4.66216">
        <ele>412.8</ele>
        <time>2022-06-25T15:38:25Z</time>
      </trkpt>
      <trkpt lat="46.11145" lon="4.66215">
        <ele>413.2</ele>
        <time>2022-06-25T15:38:26Z</time>
      </trkpt>
      <trkpt lat="46.11146" lon="4.66213">
        <ele>413.4</ele>
        <time>2022-06-25T15:38:27Z</time>
      </trkpt>
      <trkpt lat="46.11147" lon="4.66211">
        <ele>413.6</ele>
        <time>2022-06-25T15:38:28Z</time>
      </trkpt>
      <trkpt lat="46.11148" lon="4.66209">
        <ele>413.8</ele>
        <time>2022-06-25T15:38:29Z</time>
      </trkpt>
      <trkpt lat="46.11148" lon="4.66207">
        <ele>413.8</ele>
        <time>2022-06-25T15:38:30Z</time>
      </trkpt>
      <trkpt lat="46.11148" lon="4.66204">
        <ele>414.2</ele>
        <time>2022-06-25T15:38:31Z</time>
      </trkpt>
      <trkpt lat="46.11148" lon="4.66201">
        <ele>414.4</ele>
        <time>2022-06-25T15:38:32Z</time>
      </trkpt>
      <trkpt lat="46.11148" lon="4.66198">
        <ele>414.8</ele>
        <time>2022-06-25T15:38:33Z</time>
      </trkpt>
      <trkpt lat="46.11148" lon="4.66196">
        <ele>415</ele>
        <time>2022-06-25T15:38:34Z</time>
      </trkpt>
      <trkpt lat="46.11147" lon="4.66193">
        <ele>415.2</ele>
        <time>2022-06-25T15:38:35Z</time>
      </trkpt>
      <trkpt lat="46.11147" lon="4.6619">
        <ele>415.4</ele>
        <time>2022-06-25T15:38:36Z</time>
      </trkpt>
      <trkpt lat="46.11147" lon="4.66188">
        <ele>415.8</ele>
        <time>2022-06-25T15:38:37Z</time>
      </trkpt>
      <trkpt lat="46.11147" lon="4.66185">
        <ele>416</ele>
        <time>2022-06-25T15:38:38Z</time>
      </trkpt>
      <trkpt lat="46.11147" lon="4.66182">
        <ele>416.4</ele>
        <time>2022-06-25T15:38:39Z</time>
      </trkpt>
      <trkpt lat="46.11146" lon="4.6618">
        <ele>416.6</ele>
        <time>2022-06-25T15:38:40Z</time>
      </trkpt>
      <trkpt lat="46.11146" lon="4.66178">
        <ele>416.8</ele>
        <time>2022-06-25T15:38:41Z</time>
      </trkpt>
      <trkpt lat="46.11145" lon="4.66176">
        <ele>417</ele>
        <time>2022-06-25T15:38:42Z</time>
      </trkpt>
      <trkpt lat="46.11145" lon="4.66173">
        <ele>417.2</ele>
        <time>2022-06-25T15:38:43Z</time>
      </trkpt>
      <trkpt lat="46.11144" lon="4.66171">
        <ele>417.6</ele>
        <time>2022-06-25T15:38:44Z</time>
      </trkpt>
      <trkpt lat="46.11144" lon="4.66169">
        <ele>417.8</ele>
        <time>2022-06-25T15:38:45Z</time>
      </trkpt>
      <trkpt lat="46.11143" lon="4.66167">
        <ele>418</ele>
        <time>2022-06-25T15:38:46Z</time>
      </trkpt>
      <trkpt lat="46.11142" lon="4.66164">
        <ele>418.2</ele>
        <time>2022-06-25T15:38:47Z</time>
      </trkpt>
      <trkpt lat="46.11142" lon="4.66162">
        <ele>418.4</ele>
        <time>2022-06-25T15:38:48Z</time>
      </trkpt>
      <trkpt lat="46.11142" lon="4.6616">
        <ele>418.4</ele>
        <time>2022-06-25T15:38:49Z</time>
      </trkpt>
      <trkpt lat="46.11142" lon="4.66158">
        <ele>418.8</ele>
        <time>2022-06-25T15:38:50Z</time>
      </trkpt>
      <trkpt lat="46.11142" lon="4.66155">
        <ele>419</ele>
        <time>2022-06-25T15:38:51Z</time>
      </trkpt>
      <trkpt lat="46.11143" lon="4.66153">
        <ele>419</ele>
        <time>2022-06-25T15:38:52Z</time>
      </trkpt>
      <trkpt lat="46.11143" lon="4.66151">
        <ele>419.6</ele>
        <time>2022-06-25T15:38:53Z</time>
      </trkpt>
      <trkpt lat="46.11143" lon="4.66149">
        <ele>419.6</ele>
        <time>2022-06-25T15:38:54Z</time>
      </trkpt>
      <trkpt lat="46.11144" lon="4.66147">
        <ele>419.8</ele>
        <time>2022-06-25T15:38:55Z</time>
      </trkpt>
      <trkpt lat="46.11144" lon="4.66144">
        <ele>419.8</ele>
        <time>2022-06-25T15:38:56Z</time>
      </trkpt>
      <trkpt lat="46.11144" lon="4.66142">
        <ele>420.2</ele>
        <time>2022-06-25T15:38:57Z</time>
      </trkpt>
      <trkpt lat="46.11144" lon="4.6614">
        <ele>420.4</ele>
        <time>2022-06-25T15:38:58Z</time>
      </trkpt>
      <trkpt lat="46.11145" lon="4.66138">
        <ele>420.8</ele>
        <time>2022-06-25T15:38:59Z</time>
      </trkpt>
      <trkpt lat="46.11146" lon="4.66135">
        <ele>421</ele>
        <time>2022-06-25T15:39:00Z</time>
      </trkpt>
      <trkpt lat="46.11146" lon="4.66133">
        <ele>421.2</ele>
        <time>2022-06-25T15:39:01Z</time>
      </trkpt>
      <trkpt lat="46.11146" lon="4.66131">
        <ele>421.6</ele>
        <time>2022-06-25T15:39:02Z</time>
      </trkpt>
      <trkpt lat="46.11146" lon="4.66129">
        <ele>421.6</ele>
        <time>2022-06-25T15:39:03Z</time>
      </trkpt>
      <trkpt lat="46.11146" lon="4.66126">
        <ele>421.8</ele>
        <time>2022-06-25T15:39:04Z</time>
      </trkpt>
      <trkpt lat="46.11147" lon="4.66124">
        <ele>422.2</ele>
        <time>2022-06-25T15:39:05Z</time>
      </trkpt>
      <trkpt lat="46.11147" lon="4.66122">
        <ele>422.2</ele>
        <time>2022-06-25T15:39:06Z</time>
      </trkpt>
      <trkpt lat="46.11147" lon="4.6612">
        <ele>422.4</ele>
        <time>2022-06-25T15:39:07Z</time>
      </trkpt>
      <trkpt lat="46.11148" lon="4.66118">
        <ele>422.8</ele>
        <time>2022-06-25T15:39:08Z</time>
      </trkpt>
      <trkpt lat="46.11149" lon="4.66117">
        <ele>422.8</ele>
        <time>2022-06-25T15:39:09Z</time>
      </trkpt>
      <trkpt lat="46.1115" lon="4.66115">
        <ele>423.2</ele>
        <time>2022-06-25T15:39:10Z</time>
      </trkpt>
      <trkpt lat="46.1115" lon="4.66113">
        <ele>423.6</ele>
        <time>2022-06-25T15:39:11Z</time>
      </trkpt>
      <trkpt lat="46.1115" lon="4.66111">
        <ele>423.8</ele>
        <time>2022-06-25T15:39:12Z</time>
      </trkpt>
      <trkpt lat="46.11151" lon="4.66109">
        <ele>424</ele>
        <time>2022-06-25T15:39:13Z</time>
      </trkpt>
      <trkpt lat="46.11151" lon="4.66107">
        <ele>424</ele>
        <time>2022-06-25T15:39:14Z</time>
      </trkpt>
      <trkpt lat="46.11151" lon="4.66104">
        <ele>424.4</ele>
        <time>2022-06-25T15:39:15Z</time>
      </trkpt>
      <trkpt lat="46.11151" lon="4.66102">
        <ele>424.4</ele>
        <time>2022-06-25T15:39:16Z</time>
      </trkpt>
      <trkpt lat="46.11151" lon="4.661">
        <ele>424.8</ele>
        <time>2022-06-25T15:39:17Z</time>
      </trkpt>
      <trkpt lat="46.11152" lon="4.66097">
        <ele>424.8</ele>
        <time>2022-06-25T15:39:18Z</time>
      </trkpt>
      <trkpt lat="46.11152" lon="4.66095">
        <ele>425.2</ele>
        <time>2022-06-25T15:39:19Z</time>
      </trkpt>
      <trkpt lat="46.11152" lon="4.66093">
        <ele>425.2</ele>
        <time>2022-06-25T15:39:20Z</time>
      </trkpt>
      <trkpt lat="46.11153" lon="4.6609">
        <ele>425.6</ele>
        <time>2022-06-25T15:39:21Z</time>
      </trkpt>
      <trkpt lat="46.11153" lon="4.66088">
        <ele>425.8</ele>
        <time>2022-06-25T15:39:22Z</time>
      </trkpt>
      <trkpt lat="46.11154" lon="4.66086">
        <ele>426</ele>
        <time>2022-06-25T15:39:23Z</time>
      </trkpt>
      <trkpt lat="46.11154" lon="4.66083">
        <ele>426.4</ele>
        <time>2022-06-25T15:39:24Z</time>
      </trkpt>
      <trkpt lat="46.11154" lon="4.66081">
        <ele>426.6</ele>
        <time>2022-06-25T15:39:25Z</time>
      </trkpt>
      <trkpt lat="46.11154" lon="4.66079">
        <ele>427</ele>
        <time>2022-06-25T15:39:26Z</time>
      </trkpt>
      <trkpt lat="46.11155" lon="4.66076">
        <ele>427.2</ele>
        <time>2022-06-25T15:39:27Z</time>
      </trkpt>
      <trkpt lat="46.11155" lon="4.66074">
        <ele>427.6</ele>
        <time>2022-06-25T15:39:28Z</time>
      </trkpt>
      <trkpt lat="46.11155" lon="4.66071">
        <ele>428</ele>
        <time>2022-06-25T15:39:29Z</time>
      </trkpt>
      <trkpt lat="46.11156" lon="4.66069">
        <ele>428.2</ele>
        <time>2022-06-25T15:39:30Z</time>
      </trkpt>
      <trkpt lat="46.11156" lon="4.66067">
        <ele>428.4</ele>
        <time>2022-06-25T15:39:31Z</time>
      </trkpt>
      <trkpt lat="46.11156" lon="4.66064">
        <ele>428.8</ele>
        <time>2022-06-25T15:39:32Z</time>
      </trkpt>
      <trkpt lat="46.11157" lon="4.66062">
        <ele>429.2</ele>
        <time>2022-06-25T15:39:33Z</time>
      </trkpt>
      <trkpt lat="46.11157" lon="4.66059">
        <ele>429.4</ele>
        <time>2022-06-25T15:39:34Z</time>
      </trkpt>
      <trkpt lat="46.11157" lon="4.66057">
        <ele>429.8</ele>
        <time>2022-06-25T15:39:35Z</time>
      </trkpt>
      <trkpt lat="46.11157" lon="4.66055">
        <ele>430</ele>
        <time>2022-06-25T15:39:36Z</time>
      </trkpt>
      <trkpt lat="46.11157" lon="4.66052">
        <ele>430.4</ele>
        <time>2022-06-25T15:39:37Z</time>
      </trkpt>
      <trkpt lat="46.11156" lon="4.66051">
        <ele>430.6</ele>
        <time>2022-06-25T15:39:38Z</time>
      </trkpt>
      <trkpt lat="46.11155" lon="4.66049">
        <ele>431</ele>
        <time>2022-06-25T15:39:39Z</time>
      </trkpt>
      <trkpt lat="46.11154" lon="4.66047">
        <ele>431.2</ele>
        <time>2022-06-25T15:39:40Z</time>
      </trkpt>
      <trkpt lat="46.11153" lon="4.66045">
        <ele>431.4</ele>
        <time>2022-06-25T15:39:41Z</time>
      </trkpt>
      <trkpt lat="46.11152" lon="4.66042">
        <ele>431.6</ele>
        <time>2022-06-25T15:39:42Z</time>
      </trkpt>
      <trkpt lat="46.11152" lon="4.6604">
        <ele>431.6</ele>
        <time>2022-06-25T15:39:43Z</time>
      </trkpt>
      <trkpt lat="46.11151" lon="4.66038">
        <ele>432</ele>
        <time>2022-06-25T15:39:44Z</time>
      </trkpt>
      <trkpt lat="46.1115" lon="4.66036">
        <ele>432</ele>
        <time>2022-06-25T15:39:45Z</time>
      </trkpt>
      <trkpt lat="46.11149" lon="4.66033">
        <ele>432.2</ele>
        <time>2022-06-25T15:39:46Z</time>
      </trkpt>
      <trkpt lat="46.11148" lon="4.66031">
        <ele>432.2</ele>
        <time>2022-06-25T15:39:47Z</time>
      </trkpt>
      <trkpt lat="46.11147" lon="4.66029">
        <ele>432.2</ele>
        <time>2022-06-25T15:39:48Z</time>
      </trkpt>
      <trkpt lat="46.11146" lon="4.66027">
        <ele>432.6</ele>
        <time>2022-06-25T15:39:49Z</time>
      </trkpt>
      <trkpt lat="46.11144" lon="4.66024">
        <ele>432.6</ele>
        <time>2022-06-25T15:39:50Z</time>
      </trkpt>
      <trkpt lat="46.11143" lon="4.66022">
        <ele>432.6</ele>
        <time>2022-06-25T15:39:51Z</time>
      </trkpt>
      <trkpt lat="46.11142" lon="4.66019">
        <ele>432.8</ele>
        <time>2022-06-25T15:39:52Z</time>
      </trkpt>
      <trkpt lat="46.11141" lon="4.66016">
        <ele>432.8</ele>
        <time>2022-06-25T15:39:53Z</time>
      </trkpt>
      <trkpt lat="46.1114" lon="4.66012">
        <ele>433</ele>
        <time>2022-06-25T15:39:54Z</time>
      </trkpt>
      <trkpt lat="46.11138" lon="4.66009">
        <ele>433</ele>
        <time>2022-06-25T15:39:55Z</time>
      </trkpt>
      <trkpt lat="46.11137" lon="4.66006">
        <ele>433.2</ele>
        <time>2022-06-25T15:39:56Z</time>
      </trkpt>
      <trkpt lat="46.11136" lon="4.66002">
        <ele>433.2</ele>
        <time>2022-06-25T15:39:57Z</time>
      </trkpt>
      <trkpt lat="46.11134" lon="4.65999">
        <ele>433.4</ele>
        <time>2022-06-25T15:39:58Z</time>
      </trkpt>
      <trkpt lat="46.11133" lon="4.65995">
        <ele>433.4</ele>
        <time>2022-06-25T15:39:59Z</time>
      </trkpt>
      <trkpt lat="46.11132" lon="4.65992">
        <ele>433.4</ele>
        <time>2022-06-25T15:40:00Z</time>
      </trkpt>
      <trkpt lat="46.11131" lon="4.65988">
        <ele>433.8</ele>
        <time>2022-06-25T15:40:01Z</time>
      </trkpt>
      <trkpt lat="46.1113" lon="4.65985">
        <ele>433.8</ele>
        <time>2022-06-25T15:40:02Z</time>
      </trkpt>
      <trkpt lat="46.11129" lon="4.65981">
        <ele>434</ele>
        <time>2022-06-25T15:40:03Z</time>
      </trkpt>
      <trkpt lat="46.11128" lon="4.65978">
        <ele>434</ele>
        <time>2022-06-25T15:40:04Z</time>
      </trkpt>
      <trkpt lat="46.11127" lon="4.65975">
        <ele>434.4</ele>
        <time>2022-06-25T15:40:05Z</time>
      </trkpt>
      <trkpt lat="46.11126" lon="4.65971">
        <ele>434.4</ele>
        <time>2022-06-25T15:40:06Z</time>
      </trkpt>
      <trkpt lat="46.11125" lon="4.65968">
        <ele>434.6</ele>
        <time>2022-06-25T15:40:07Z</time>
      </trkpt>
      <trkpt lat="46.11125" lon="4.65965">
        <ele>434.6</ele>
        <time>2022-06-25T15:40:08Z</time>
      </trkpt>
      <trkpt lat="46.11124" lon="4.65961">
        <ele>435</ele>
        <time>2022-06-25T15:40:09Z</time>
      </trkpt>
      <trkpt lat="46.11124" lon="4.65958">
        <ele>435.2</ele>
        <time>2022-06-25T15:40:10Z</time>
      </trkpt>
      <trkpt lat="46.11123" lon="4.65954">
        <ele>435.2</ele>
        <time>2022-06-25T15:40:11Z</time>
      </trkpt>
      <trkpt lat="46.11123" lon="4.65951">
        <ele>435.6</ele>
        <time>2022-06-25T15:40:12Z</time>
      </trkpt>
      <trkpt lat="46.11122" lon="4.65947">
        <ele>435.8</ele>
        <time>2022-06-25T15:40:13Z</time>
      </trkpt>
      <trkpt lat="46.11122" lon="4.65944">
        <ele>436.2</ele>
        <time>2022-06-25T15:40:14Z</time>
      </trkpt>
      <trkpt lat="46.11122" lon="4.65941">
        <ele>436.4</ele>
        <time>2022-06-25T15:40:15Z</time>
      </trkpt>
      <trkpt lat="46.11121" lon="4.65938">
        <ele>436.6</ele>
        <time>2022-06-25T15:40:16Z</time>
      </trkpt>
      <trkpt lat="46.11121" lon="4.65934">
        <ele>436.8</ele>
        <time>2022-06-25T15:40:17Z</time>
      </trkpt>
      <trkpt lat="46.1112" lon="4.65931">
        <ele>437</ele>
        <time>2022-06-25T15:40:18Z</time>
      </trkpt>
      <trkpt lat="46.1112" lon="4.65928">
        <ele>437.4</ele>
        <time>2022-06-25T15:40:19Z</time>
      </trkpt>
      <trkpt lat="46.1112" lon="4.65925">
        <ele>437.4</ele>
        <time>2022-06-25T15:40:20Z</time>
      </trkpt>
      <trkpt lat="46.11119" lon="4.65921">
        <ele>437.6</ele>
        <time>2022-06-25T15:40:21Z</time>
      </trkpt>
      <trkpt lat="46.11119" lon="4.65918">
        <ele>438</ele>
        <time>2022-06-25T15:40:22Z</time>
      </trkpt>
      <trkpt lat="46.11119" lon="4.65915">
        <ele>438</ele>
        <time>2022-06-25T15:40:23Z</time>
      </trkpt>
      <trkpt lat="46.11118" lon="4.65912">
        <ele>438.2</ele>
        <time>2022-06-25T15:40:24Z</time>
      </trkpt>
      <trkpt lat="46.11117" lon="4.65909">
        <ele>438.4</ele>
        <time>2022-06-25T15:40:25Z</time>
      </trkpt>
      <trkpt lat="46.11116" lon="4.65906">
        <ele>438.4</ele>
        <time>2022-06-25T15:40:26Z</time>
      </trkpt>
      <trkpt lat="46.11115" lon="4.65903">
        <ele>438.8</ele>
        <time>2022-06-25T15:40:27Z</time>
      </trkpt>
      <trkpt lat="46.11113" lon="4.659">
        <ele>438.8</ele>
        <time>2022-06-25T15:40:28Z</time>
      </trkpt>
      <trkpt lat="46.11111" lon="4.65898">
        <ele>438.8</ele>
        <time>2022-06-25T15:40:29Z</time>
      </trkpt>
      <trkpt lat="46.11109" lon="4.65895">
        <ele>439</ele>
        <time>2022-06-25T15:40:30Z</time>
      </trkpt>
      <trkpt lat="46.11107" lon="4.65892">
        <ele>439</ele>
        <time>2022-06-25T15:40:31Z</time>
      </trkpt>
      <trkpt lat="46.11104" lon="4.6589">
        <ele>439</ele>
        <time>2022-06-25T15:40:32Z</time>
      </trkpt>
      <trkpt lat="46.11102" lon="4.65887">
        <ele>439</ele>
        <time>2022-06-25T15:40:33Z</time>
      </trkpt>
      <trkpt lat="46.11099" lon="4.65885">
        <ele>439.2</ele>
        <time>2022-06-25T15:40:34Z</time>
      </trkpt>
      <trkpt lat="46.11096" lon="4.65883">
        <ele>439.2</ele>
        <time>2022-06-25T15:40:36Z</time>
      </trkpt>
      <trkpt lat="46.11093" lon="4.65881">
        <ele>439.4</ele>
        <time>2022-06-25T15:40:37Z</time>
      </trkpt>
      <trkpt lat="46.1109" lon="4.65879">
        <ele>439.4</ele>
        <time>2022-06-25T15:40:38Z</time>
      </trkpt>
      <trkpt lat="46.11087" lon="4.65877">
        <ele>439.4</ele>
        <time>2022-06-25T15:40:39Z</time>
      </trkpt>
      <trkpt lat="46.11085" lon="4.65875">
        <ele>439.4</ele>
        <time>2022-06-25T15:40:40Z</time>
      </trkpt>
      <trkpt lat="46.11082" lon="4.65872">
        <ele>439.8</ele>
        <time>2022-06-25T15:40:41Z</time>
      </trkpt>
      <trkpt lat="46.11079" lon="4.65869">
        <ele>439.8</ele>
        <time>2022-06-25T15:40:42Z</time>
      </trkpt>
      <trkpt lat="46.11076" lon="4.65867">
        <ele>439.8</ele>
        <time>2022-06-25T15:40:43Z</time>
      </trkpt>
      <trkpt lat="46.11074" lon="4.65864">
        <ele>440</ele>
        <time>2022-06-25T15:40:44Z</time>
      </trkpt>
      <trkpt lat="46.11071" lon="4.65862">
        <ele>440</ele>
        <time>2022-06-25T15:40:45Z</time>
      </trkpt>
      <trkpt lat="46.11069" lon="4.65859">
        <ele>440.2</ele>
        <time>2022-06-25T15:40:46Z</time>
      </trkpt>
      <trkpt lat="46.11067" lon="4.65857">
        <ele>440.2</ele>
        <time>2022-06-25T15:40:47Z</time>
      </trkpt>
      <trkpt lat="46.11064" lon="4.65854">
        <ele>440.6</ele>
        <time>2022-06-25T15:40:48Z</time>
      </trkpt>
      <trkpt lat="46.11062" lon="4.65851">
        <ele>440.6</ele>
        <time>2022-06-25T15:40:49Z</time>
      </trkpt>
      <trkpt lat="46.1106" lon="4.65849">
        <ele>440.8</ele>
        <time>2022-06-25T15:40:50Z</time>
      </trkpt>
      <trkpt lat="46.11058" lon="4.65846">
        <ele>440.8</ele>
        <time>2022-06-25T15:40:51Z</time>
      </trkpt>
      <trkpt lat="46.11056" lon="4.65844">
        <ele>441</ele>
        <time>2022-06-25T15:40:52Z</time>
      </trkpt>
      <trkpt lat="46.11053" lon="4.65841">
        <ele>441</ele>
        <time>2022-06-25T15:40:53Z</time>
      </trkpt>
      <trkpt lat="46.11051" lon="4.65839">
        <ele>441.4</ele>
        <time>2022-06-25T15:40:54Z</time>
      </trkpt>
      <trkpt lat="46.11049" lon="4.65836">
        <ele>441.4</ele>
        <time>2022-06-25T15:40:55Z</time>
      </trkpt>
      <trkpt lat="46.11047" lon="4.65834">
        <ele>441.8</ele>
        <time>2022-06-25T15:40:56Z</time>
      </trkpt>
      <trkpt lat="46.11045" lon="4.65832">
        <ele>442</ele>
        <time>2022-06-25T15:40:57Z</time>
      </trkpt>
      <trkpt lat="46.11044" lon="4.65829">
        <ele>442.2</ele>
        <time>2022-06-25T15:40:58Z</time>
      </trkpt>
      <trkpt lat="46.11042" lon="4.65826">
        <ele>442.4</ele>
        <time>2022-06-25T15:40:59Z</time>
      </trkpt>
      <trkpt lat="46.11041" lon="4.65823">
        <ele>442.8</ele>
        <time>2022-06-25T15:41:00Z</time>
      </trkpt>
      <trkpt lat="46.11039" lon="4.65821">
        <ele>442.8</ele>
        <time>2022-06-25T15:41:01Z</time>
      </trkpt>
      <trkpt lat="46.11038" lon="4.65819">
        <ele>443.2</ele>
        <time>2022-06-25T15:41:02Z</time>
      </trkpt>
      <trkpt lat="46.11036" lon="4.65817">
        <ele>443.2</ele>
        <time>2022-06-25T15:41:03Z</time>
      </trkpt>
      <trkpt lat="46.11034" lon="4.65815">
        <ele>443.4</ele>
        <time>2022-06-25T15:41:04Z</time>
      </trkpt>
      <trkpt lat="46.11033" lon="4.65813">
        <ele>443.4</ele>
        <time>2022-06-25T15:41:05Z</time>
      </trkpt>
      <trkpt lat="46.11031" lon="4.65811">
        <ele>443.8</ele>
        <time>2022-06-25T15:41:06Z</time>
      </trkpt>
      <trkpt lat="46.1103" lon="4.65809">
        <ele>443.8</ele>
        <time>2022-06-25T15:41:07Z</time>
      </trkpt>
      <trkpt lat="46.11029" lon="4.65807">
        <ele>444.2</ele>
        <time>2022-06-25T15:41:08Z</time>
      </trkpt>
      <trkpt lat="46.11028" lon="4.65805">
        <ele>444.6</ele>
        <time>2022-06-25T15:41:09Z</time>
      </trkpt>
      <trkpt lat="46.11026" lon="4.65804">
        <ele>444.6</ele>
        <time>2022-06-25T15:41:10Z</time>
      </trkpt>
      <trkpt lat="46.11025" lon="4.65802">
        <ele>444.8</ele>
        <time>2022-06-25T15:41:11Z</time>
      </trkpt>
      <trkpt lat="46.11024" lon="4.658">
        <ele>444.8</ele>
        <time>2022-06-25T15:41:12Z</time>
      </trkpt>
      <trkpt lat="46.11023" lon="4.65799">
        <ele>445.2</ele>
        <time>2022-06-25T15:41:13Z</time>
      </trkpt>
      <trkpt lat="46.11022" lon="4.65797">
        <ele>445.4</ele>
        <time>2022-06-25T15:41:14Z</time>
      </trkpt>
      <trkpt lat="46.11021" lon="4.65795">
        <ele>445.6</ele>
        <time>2022-06-25T15:41:15Z</time>
      </trkpt>
      <trkpt lat="46.1102" lon="4.65792">
        <ele>446</ele>
        <time>2022-06-25T15:41:16Z</time>
      </trkpt>
      <trkpt lat="46.11019" lon="4.6579">
        <ele>446</ele>
        <time>2022-06-25T15:41:17Z</time>
      </trkpt>
      <trkpt lat="46.11019" lon="4.65789">
        <ele>446.4</ele>
        <time>2022-06-25T15:41:18Z</time>
      </trkpt>
      <trkpt lat="46.11019" lon="4.65787">
        <ele>446.6</ele>
        <time>2022-06-25T15:41:19Z</time>
      </trkpt>
      <trkpt lat="46.11019" lon="4.65785">
        <ele>446.6</ele>
        <time>2022-06-25T15:41:20Z</time>
      </trkpt>
      <trkpt lat="46.11019" lon="4.65783">
        <ele>447</ele>
        <time>2022-06-25T15:41:21Z</time>
      </trkpt>
      <trkpt lat="46.11018" lon="4.65781">
        <ele>447.2</ele>
        <time>2022-06-25T15:41:22Z</time>
      </trkpt>
      <trkpt lat="46.11018" lon="4.65779">
        <ele>447.6</ele>
        <time>2022-06-25T15:41:23Z</time>
      </trkpt>
      <trkpt lat="46.11017" lon="4.65778">
        <ele>447.8</ele>
        <time>2022-06-25T15:41:24Z</time>
      </trkpt>
      <trkpt lat="46.11017" lon="4.65776">
        <ele>448.2</ele>
        <time>2022-06-25T15:41:25Z</time>
      </trkpt>
      <trkpt lat="46.11017" lon="4.65774">
        <ele>448.4</ele>
        <time>2022-06-25T15:41:26Z</time>
      </trkpt>
      <trkpt lat="46.11017" lon="4.65772">
        <ele>448.6</ele>
        <time>2022-06-25T15:41:27Z</time>
      </trkpt>
      <trkpt lat="46.11016" lon="4.6577">
        <ele>449</ele>
        <time>2022-06-25T15:41:28Z</time>
      </trkpt>
      <trkpt lat="46.11016" lon="4.65768">
        <ele>449.2</ele>
        <time>2022-06-25T15:41:29Z</time>
      </trkpt>
      <trkpt lat="46.11016" lon="4.65767">
        <ele>449.6</ele>
        <time>2022-06-25T15:41:30Z</time>
      </trkpt>
      <trkpt lat="46.11016" lon="4.65765">
        <ele>449.8</ele>
        <time>2022-06-25T15:41:31Z</time>
      </trkpt>
      <trkpt lat="46.11016" lon="4.65763">
        <ele>450</ele>
        <time>2022-06-25T15:41:32Z</time>
      </trkpt>
      <trkpt lat="46.11016" lon="4.65761">
        <ele>450.4</ele>
        <time>2022-06-25T15:41:33Z</time>
      </trkpt>
      <trkpt lat="46.11017" lon="4.65759">
        <ele>450.6</ele>
        <time>2022-06-25T15:41:34Z</time>
      </trkpt>
      <trkpt lat="46.11017" lon="4.65757">
        <ele>451</ele>
        <time>2022-06-25T15:41:35Z</time>
      </trkpt>
      <trkpt lat="46.11018" lon="4.65756">
        <ele>451.2</ele>
        <time>2022-06-25T15:41:36Z</time>
      </trkpt>
      <trkpt lat="46.11018" lon="4.65753">
        <ele>451.6</ele>
        <time>2022-06-25T15:41:37Z</time>
      </trkpt>
      <trkpt lat="46.11018" lon="4.65751">
        <ele>451.8</ele>
        <time>2022-06-25T15:41:38Z</time>
      </trkpt>
      <trkpt lat="46.11018" lon="4.65749">
        <ele>452.2</ele>
        <time>2022-06-25T15:41:39Z</time>
      </trkpt>
      <trkpt lat="46.11018" lon="4.65747">
        <ele>452.4</ele>
        <time>2022-06-25T15:41:40Z</time>
      </trkpt>
      <trkpt lat="46.11018" lon="4.65745">
        <ele>452.6</ele>
        <time>2022-06-25T15:41:41Z</time>
      </trkpt>
      <trkpt lat="46.11018" lon="4.65743">
        <ele>452.8</ele>
        <time>2022-06-25T15:41:42Z</time>
      </trkpt>
      <trkpt lat="46.11018" lon="4.6574">
        <ele>453</ele>
        <time>2022-06-25T15:41:43Z</time>
      </trkpt>
      <trkpt lat="46.11019" lon="4.65738">
        <ele>453.2</ele>
        <time>2022-06-25T15:41:44Z</time>
      </trkpt>
      <trkpt lat="46.11019" lon="4.65736">
        <ele>453.2</ele>
        <time>2022-06-25T15:41:45Z</time>
      </trkpt>
      <trkpt lat="46.11019" lon="4.65734">
        <ele>453.6</ele>
        <time>2022-06-25T15:41:46Z</time>
      </trkpt>
      <trkpt lat="46.11019" lon="4.65732">
        <ele>454</ele>
        <time>2022-06-25T15:41:47Z</time>
      </trkpt>
      <trkpt lat="46.1102" lon="4.65729">
        <ele>454.2</ele>
        <time>2022-06-25T15:41:48Z</time>
      </trkpt>
      <trkpt lat="46.1102" lon="4.65727">
        <ele>454.4</ele>
        <time>2022-06-25T15:41:49Z</time>
      </trkpt>
      <trkpt lat="46.1102" lon="4.65725">
        <ele>454.6</ele>
        <time>2022-06-25T15:41:50Z</time>
      </trkpt>
      <trkpt lat="46.11021" lon="4.65724">
        <ele>454.8</ele>
        <time>2022-06-25T15:41:51Z</time>
      </trkpt>
      <trkpt lat="46.11021" lon="4.65721">
        <ele>454.8</ele>
        <time>2022-06-25T15:41:52Z</time>
      </trkpt>
      <trkpt lat="46.11022" lon="4.65719">
        <ele>455.2</ele>
        <time>2022-06-25T15:41:53Z</time>
      </trkpt>
      <trkpt lat="46.11022" lon="4.65717">
        <ele>455.4</ele>
        <time>2022-06-25T15:41:54Z</time>
      </trkpt>
      <trkpt lat="46.11022" lon="4.65715">
        <ele>455.6</ele>
        <time>2022-06-25T15:41:55Z</time>
      </trkpt>
      <trkpt lat="46.11023" lon="4.65713">
        <ele>456</ele>
        <time>2022-06-25T15:41:56Z</time>
      </trkpt>
      <trkpt lat="46.11023" lon="4.65711">
        <ele>456.2</ele>
        <time>2022-06-25T15:41:57Z</time>
      </trkpt>
      <trkpt lat="46.11023" lon="4.65709">
        <ele>456.4</ele>
        <time>2022-06-25T15:41:58Z</time>
      </trkpt>
      <trkpt lat="46.11024" lon="4.65706">
        <ele>456.8</ele>
        <time>2022-06-25T15:41:59Z</time>
      </trkpt>
      <trkpt lat="46.11024" lon="4.65703">
        <ele>457</ele>
        <time>2022-06-25T15:42:00Z</time>
      </trkpt>
      <trkpt lat="46.11024" lon="4.65701">
        <ele>457.4</ele>
        <time>2022-06-25T15:42:01Z</time>
      </trkpt>
      <trkpt lat="46.11023" lon="4.657">
        <ele>457.6</ele>
        <time>2022-06-25T15:42:02Z</time>
      </trkpt>
      <trkpt lat="46.11022" lon="4.65698">
        <ele>457.8</ele>
        <time>2022-06-25T15:42:03Z</time>
      </trkpt>
      <trkpt lat="46.11021" lon="4.65696">
        <ele>458.2</ele>
        <time>2022-06-25T15:42:04Z</time>
      </trkpt>
      <trkpt lat="46.1102" lon="4.65695">
        <ele>458.4</ele>
        <time>2022-06-25T15:42:05Z</time>
      </trkpt>
      <trkpt lat="46.11019" lon="4.65694">
        <ele>458.6</ele>
        <time>2022-06-25T15:42:06Z</time>
      </trkpt>
      <trkpt lat="46.11018" lon="4.65693">
        <ele>459</ele>
        <time>2022-06-25T15:42:07Z</time>
      </trkpt>
      <trkpt lat="46.11017" lon="4.65692">
        <ele>459.2</ele>
        <time>2022-06-25T15:42:08Z</time>
      </trkpt>
      <trkpt lat="46.11015" lon="4.65692">
        <ele>459.4</ele>
        <time>2022-06-25T15:42:09Z</time>
      </trkpt>
      <trkpt lat="46.11014" lon="4.65692">
        <ele>459.4</ele>
        <time>2022-06-25T15:42:10Z</time>
      </trkpt>
      <trkpt lat="46.11013" lon="4.65691">
        <ele>459.8</ele>
        <time>2022-06-25T15:42:11Z</time>
      </trkpt>
      <trkpt lat="46.11011" lon="4.65691">
        <ele>459.8</ele>
        <time>2022-06-25T15:42:12Z</time>
      </trkpt>
      <trkpt lat="46.1101" lon="4.65691">
        <ele>460</ele>
        <time>2022-06-25T15:42:13Z</time>
      </trkpt>
      <trkpt lat="46.11008" lon="4.65691">
        <ele>460</ele>
        <time>2022-06-25T15:42:14Z</time>
      </trkpt>
      <trkpt lat="46.11006" lon="4.65691">
        <ele>460.4</ele>
        <time>2022-06-25T15:42:15Z</time>
      </trkpt>
      <trkpt lat="46.11005" lon="4.65691">
        <ele>460.4</ele>
        <time>2022-06-25T15:42:16Z</time>
      </trkpt>
      <trkpt lat="46.11003" lon="4.65691">
        <ele>460.6</ele>
        <time>2022-06-25T15:42:17Z</time>
      </trkpt>
      <trkpt lat="46.11002" lon="4.6569">
        <ele>460.8</ele>
        <time>2022-06-25T15:42:18Z</time>
      </trkpt>
      <trkpt lat="46.11" lon="4.65691">
        <ele>460.8</ele>
        <time>2022-06-25T15:42:19Z</time>
      </trkpt>
      <trkpt lat="46.10998" lon="4.6569">
        <ele>461.2</ele>
        <time>2022-06-25T15:42:20Z</time>
      </trkpt>
      <trkpt lat="46.10997" lon="4.6569">
        <ele>461.2</ele>
        <time>2022-06-25T15:42:21Z</time>
      </trkpt>
      <trkpt lat="46.10995" lon="4.65689">
        <ele>461.6</ele>
        <time>2022-06-25T15:42:22Z</time>
      </trkpt>
      <trkpt lat="46.10994" lon="4.65689">
        <ele>461.6</ele>
        <time>2022-06-25T15:42:23Z</time>
      </trkpt>
      <trkpt lat="46.10992" lon="4.65689">
        <ele>461.8</ele>
        <time>2022-06-25T15:42:24Z</time>
      </trkpt>
      <trkpt lat="46.10991" lon="4.65688">
        <ele>461.8</ele>
        <time>2022-06-25T15:42:25Z</time>
      </trkpt>
      <trkpt lat="46.10989" lon="4.65688">
        <ele>462.2</ele>
        <time>2022-06-25T15:42:26Z</time>
      </trkpt>
      <trkpt lat="46.10988" lon="4.65688">
        <ele>462.2</ele>
        <time>2022-06-25T15:42:27Z</time>
      </trkpt>
      <trkpt lat="46.10986" lon="4.65689">
        <ele>462.2</ele>
        <time>2022-06-25T15:42:28Z</time>
      </trkpt>
      <trkpt lat="46.10984" lon="4.65688">
        <ele>462.6</ele>
        <time>2022-06-25T15:42:29Z</time>
      </trkpt>
      <trkpt lat="46.10982" lon="4.65689">
        <ele>462.6</ele>
        <time>2022-06-25T15:42:30Z</time>
      </trkpt>
      <trkpt lat="46.10981" lon="4.65689">
        <ele>462.8</ele>
        <time>2022-06-25T15:42:31Z</time>
      </trkpt>
      <trkpt lat="46.10979" lon="4.65689">
        <ele>462.8</ele>
        <time>2022-06-25T15:42:32Z</time>
      </trkpt>
      <trkpt lat="46.10977" lon="4.65689">
        <ele>463</ele>
        <time>2022-06-25T15:42:33Z</time>
      </trkpt>
      <trkpt lat="46.10975" lon="4.65689">
        <ele>463</ele>
        <time>2022-06-25T15:42:34Z</time>
      </trkpt>
      <trkpt lat="46.10973" lon="4.65689">
        <ele>463.4</ele>
        <time>2022-06-25T15:42:35Z</time>
      </trkpt>
      <trkpt lat="46.1097" lon="4.65689">
        <ele>463.4</ele>
        <time>2022-06-25T15:42:36Z</time>
      </trkpt>
      <trkpt lat="46.10968" lon="4.65688">
        <ele>463.6</ele>
        <time>2022-06-25T15:42:37Z</time>
      </trkpt>
      <trkpt lat="46.10966" lon="4.65688">
        <ele>463.6</ele>
        <time>2022-06-25T15:42:38Z</time>
      </trkpt>
      <trkpt lat="46.10964" lon="4.65687">
        <ele>463.8</ele>
        <time>2022-06-25T15:42:39Z</time>
      </trkpt>
      <trkpt lat="46.10962" lon="4.65687">
        <ele>463.8</ele>
        <time>2022-06-25T15:42:40Z</time>
      </trkpt>
      <trkpt lat="46.1096" lon="4.65686">
        <ele>464.2</ele>
        <time>2022-06-25T15:42:41Z</time>
      </trkpt>
      <trkpt lat="46.10959" lon="4.65686">
        <ele>464.2</ele>
        <time>2022-06-25T15:42:42Z</time>
      </trkpt>
      <trkpt lat="46.10958" lon="4.65685">
        <ele>464.4</ele>
        <time>2022-06-25T15:42:43Z</time>
      </trkpt>
      <trkpt lat="46.10956" lon="4.65684">
        <ele>464.4</ele>
        <time>2022-06-25T15:42:44Z</time>
      </trkpt>
      <trkpt lat="46.10954" lon="4.65684">
        <ele>464.6</ele>
        <time>2022-06-25T15:42:45Z</time>
      </trkpt>
      <trkpt lat="46.10953" lon="4.65683">
        <ele>464.6</ele>
        <time>2022-06-25T15:42:46Z</time>
      </trkpt>
      <trkpt lat="46.10951" lon="4.65683">
        <ele>465</ele>
        <time>2022-06-25T15:42:47Z</time>
      </trkpt>
      <trkpt lat="46.1095" lon="4.65682">
        <ele>465</ele>
        <time>2022-06-25T15:42:48Z</time>
      </trkpt>
      <trkpt lat="46.10948" lon="4.65682">
        <ele>465.2</ele>
        <time>2022-06-25T15:42:49Z</time>
      </trkpt>
      <trkpt lat="46.10946" lon="4.65681">
        <ele>465.2</ele>
        <time>2022-06-25T15:42:50Z</time>
      </trkpt>
      <trkpt lat="46.10944" lon="4.65681">
        <ele>465.6</ele>
        <time>2022-06-25T15:42:51Z</time>
      </trkpt>
      <trkpt lat="46.10942" lon="4.65681">
        <ele>465.6</ele>
        <time>2022-06-25T15:42:52Z</time>
      </trkpt>
      <trkpt lat="46.1094" lon="4.6568">
        <ele>466</ele>
        <time>2022-06-25T15:42:53Z</time>
      </trkpt>
      <trkpt lat="46.10938" lon="4.65679">
        <ele>466.2</ele>
        <time>2022-06-25T15:42:54Z</time>
      </trkpt>
      <trkpt lat="46.10937" lon="4.65678">
        <ele>466.6</ele>
        <time>2022-06-25T15:42:55Z</time>
      </trkpt>
      <trkpt lat="46.10936" lon="4.65676">
        <ele>466.8</ele>
        <time>2022-06-25T15:42:56Z</time>
      </trkpt>
      <trkpt lat="46.10936" lon="4.65674">
        <ele>467</ele>
        <time>2022-06-25T15:42:57Z</time>
      </trkpt>
      <trkpt lat="46.10937" lon="4.65672">
        <ele>467.4</ele>
        <time>2022-06-25T15:42:58Z</time>
      </trkpt>
      <trkpt lat="46.10937" lon="4.6567">
        <ele>467.6</ele>
        <time>2022-06-25T15:42:59Z</time>
      </trkpt>
      <trkpt lat="46.10938" lon="4.65668">
        <ele>468</ele>
        <time>2022-06-25T15:43:00Z</time>
      </trkpt>
      <trkpt lat="46.10939" lon="4.65666">
        <ele>468.2</ele>
        <time>2022-06-25T15:43:01Z</time>
      </trkpt>
      <trkpt lat="46.1094" lon="4.65665">
        <ele>468.4</ele>
        <time>2022-06-25T15:43:02Z</time>
      </trkpt>
      <trkpt lat="46.10941" lon="4.65664">
        <ele>468.6</ele>
        <time>2022-06-25T15:43:03Z</time>
      </trkpt>
      <trkpt lat="46.10941" lon="4.65663">
        <ele>469</ele>
        <time>2022-06-25T15:43:04Z</time>
      </trkpt>
      <trkpt lat="46.10942" lon="4.65662">
        <ele>469</ele>
        <time>2022-06-25T15:43:05Z</time>
      </trkpt>
      <trkpt lat="46.10943" lon="4.65661">
        <ele>469.2</ele>
        <time>2022-06-25T15:43:06Z</time>
      </trkpt>
      <trkpt lat="46.10944" lon="4.65661">
        <ele>469.4</ele>
        <time>2022-06-25T15:43:07Z</time>
      </trkpt>
      <trkpt lat="46.10945" lon="4.6566">
        <ele>469.4</ele>
        <time>2022-06-25T15:43:08Z</time>
      </trkpt>
      <trkpt lat="46.10945" lon="4.65659">
        <ele>469.8</ele>
        <time>2022-06-25T15:43:09Z</time>
      </trkpt>
      <trkpt lat="46.10947" lon="4.65658">
        <ele>469.8</ele>
        <time>2022-06-25T15:43:10Z</time>
      </trkpt>
      <trkpt lat="46.10947" lon="4.65657">
        <ele>470</ele>
        <time>2022-06-25T15:43:11Z</time>
      </trkpt>
      <trkpt lat="46.10949" lon="4.65656">
        <ele>470.2</ele>
        <time>2022-06-25T15:43:12Z</time>
      </trkpt>
      <trkpt lat="46.10949" lon="4.65655">
        <ele>470.2</ele>
        <time>2022-06-25T15:43:13Z</time>
      </trkpt>
      <trkpt lat="46.1095" lon="4.65653">
        <ele>470.4</ele>
        <time>2022-06-25T15:43:14Z</time>
      </trkpt>
      <trkpt lat="46.10951" lon="4.65651">
        <ele>470.4</ele>
        <time>2022-06-25T15:43:15Z</time>
      </trkpt>
      <trkpt lat="46.10953" lon="4.6565">
        <ele>470.8</ele>
        <time>2022-06-25T15:43:16Z</time>
      </trkpt>
      <trkpt lat="46.10954" lon="4.65649">
        <ele>471</ele>
        <time>2022-06-25T15:43:17Z</time>
      </trkpt>
      <trkpt lat="46.10955" lon="4.65647">
        <ele>471</ele>
        <time>2022-06-25T15:43:18Z</time>
      </trkpt>
      <trkpt lat="46.10956" lon="4.65646">
        <ele>471.2</ele>
        <time>2022-06-25T15:43:19Z</time>
      </trkpt>
      <trkpt lat="46.10958" lon="4.65644">
        <ele>471.2</ele>
        <time>2022-06-25T15:43:20Z</time>
      </trkpt>
      <trkpt lat="46.10959" lon="4.65642">
        <ele>471.4</ele>
        <time>2022-06-25T15:43:21Z</time>
      </trkpt>
      <trkpt lat="46.1096" lon="4.65641">
        <ele>471.4</ele>
        <time>2022-06-25T15:43:22Z</time>
      </trkpt>
      <trkpt lat="46.10962" lon="4.65639">
        <ele>471.8</ele>
        <time>2022-06-25T15:43:23Z</time>
      </trkpt>
      <trkpt lat="46.10963" lon="4.65638">
        <ele>471.8</ele>
        <time>2022-06-25T15:43:24Z</time>
      </trkpt>
      <trkpt lat="46.10964" lon="4.65637">
        <ele>472</ele>
        <time>2022-06-25T15:43:25Z</time>
      </trkpt>
      <trkpt lat="46.10965" lon="4.65635">
        <ele>472</ele>
        <time>2022-06-25T15:43:26Z</time>
      </trkpt>
      <trkpt lat="46.10966" lon="4.65633">
        <ele>472.4</ele>
        <time>2022-06-25T15:43:27Z</time>
      </trkpt>
      <trkpt lat="46.10967" lon="4.65631">
        <ele>472.4</ele>
        <time>2022-06-25T15:43:28Z</time>
      </trkpt>
      <trkpt lat="46.10968" lon="4.65629">
        <ele>472.8</ele>
        <time>2022-06-25T15:43:29Z</time>
      </trkpt>
      <trkpt lat="46.10969" lon="4.65627">
        <ele>473</ele>
        <time>2022-06-25T15:43:30Z</time>
      </trkpt>
      <trkpt lat="46.1097" lon="4.65625">
        <ele>473</ele>
        <time>2022-06-25T15:43:31Z</time>
      </trkpt>
      <trkpt lat="46.10971" lon="4.65623">
        <ele>473.2</ele>
        <time>2022-06-25T15:43:32Z</time>
      </trkpt>
      <trkpt lat="46.10972" lon="4.6562">
        <ele>473.2</ele>
        <time>2022-06-25T15:43:33Z</time>
      </trkpt>
      <trkpt lat="46.10973" lon="4.65618">
        <ele>473.4</ele>
        <time>2022-06-25T15:43:34Z</time>
      </trkpt>
      <trkpt lat="46.10974" lon="4.65616">
        <ele>473.4</ele>
        <time>2022-06-25T15:43:35Z</time>
      </trkpt>
      <trkpt lat="46.10974" lon="4.65613">
        <ele>473.8</ele>
        <time>2022-06-25T15:43:36Z</time>
      </trkpt>
      <trkpt lat="46.10974" lon="4.65611">
        <ele>473.8</ele>
        <time>2022-06-25T15:43:37Z</time>
      </trkpt>
      <trkpt lat="46.10974" lon="4.65609">
        <ele>474.2</ele>
        <time>2022-06-25T15:43:38Z</time>
      </trkpt>
      <trkpt lat="46.10974" lon="4.65607">
        <ele>474.4</ele>
        <time>2022-06-25T15:43:39Z</time>
      </trkpt>
      <trkpt lat="46.10974" lon="4.65606">
        <ele>474.4</ele>
        <time>2022-06-25T15:43:40Z</time>
      </trkpt>
      <trkpt lat="46.10973" lon="4.65605">
        <ele>474.8</ele>
        <time>2022-06-25T15:43:41Z</time>
      </trkpt>
      <trkpt lat="46.10971" lon="4.65605">
        <ele>474.8</ele>
        <time>2022-06-25T15:43:42Z</time>
      </trkpt>
      <trkpt lat="46.1097" lon="4.65605">
        <ele>475.2</ele>
        <time>2022-06-25T15:43:43Z</time>
      </trkpt>
      <trkpt lat="46.10969" lon="4.65605">
        <ele>475.2</ele>
        <time>2022-06-25T15:43:44Z</time>
      </trkpt>
      <trkpt lat="46.10968" lon="4.65606">
        <ele>475.4</ele>
        <time>2022-06-25T15:43:45Z</time>
      </trkpt>
      <trkpt lat="46.10966" lon="4.65606">
        <ele>475.4</ele>
        <time>2022-06-25T15:43:46Z</time>
      </trkpt>
      <trkpt lat="46.10965" lon="4.65606">
        <ele>475.8</ele>
        <time>2022-06-25T15:43:47Z</time>
      </trkpt>
      <trkpt lat="46.10963" lon="4.65607">
        <ele>475.8</ele>
        <time>2022-06-25T15:43:48Z</time>
      </trkpt>
      <trkpt lat="46.10962" lon="4.65607">
        <ele>476.2</ele>
        <time>2022-06-25T15:43:49Z</time>
      </trkpt>
      <trkpt lat="46.1096" lon="4.65607">
        <ele>476.2</ele>
        <time>2022-06-25T15:43:50Z</time>
      </trkpt>
      <trkpt lat="46.10958" lon="4.65607">
        <ele>476.4</ele>
        <time>2022-06-25T15:43:51Z</time>
      </trkpt>
      <trkpt lat="46.10956" lon="4.65607">
        <ele>476.4</ele>
        <time>2022-06-25T15:43:52Z</time>
      </trkpt>
      <trkpt lat="46.10955" lon="4.65607">
        <ele>476.6</ele>
        <time>2022-06-25T15:43:53Z</time>
      </trkpt>
      <trkpt lat="46.10953" lon="4.65607">
        <ele>476.6</ele>
        <time>2022-06-25T15:43:54Z</time>
      </trkpt>
      <trkpt lat="46.10951" lon="4.65607">
        <ele>477</ele>
        <time>2022-06-25T15:43:55Z</time>
      </trkpt>
      <trkpt lat="46.1095" lon="4.65607">
        <ele>477</ele>
        <time>2022-06-25T15:43:56Z</time>
      </trkpt>
      <trkpt lat="46.10948" lon="4.65607">
        <ele>477.2</ele>
        <time>2022-06-25T15:43:57Z</time>
      </trkpt>
      <trkpt lat="46.10947" lon="4.65607">
        <ele>477.2</ele>
        <time>2022-06-25T15:43:58Z</time>
      </trkpt>
      <trkpt lat="46.10945" lon="4.65607">
        <ele>477.6</ele>
        <time>2022-06-25T15:43:59Z</time>
      </trkpt>
      <trkpt lat="46.10945" lon="4.65607">
        <ele>477.6</ele>
        <time>2022-06-25T15:44:01Z</time>
      </trkpt>
      <trkpt lat="46.10943" lon="4.65606">
        <ele>478.2</ele>
        <time>2022-06-25T15:44:40Z</time>
      </trkpt>
      <trkpt lat="46.10941" lon="4.65606">
        <ele>478.2</ele>
        <time>2022-06-25T15:44:41Z</time>
      </trkpt>
      <trkpt lat="46.1094" lon="4.65605">
        <ele>478.4</ele>
        <time>2022-06-25T15:44:42Z</time>
      </trkpt>
      <trkpt lat="46.10938" lon="4.65605">
        <ele>478.4</ele>
        <time>2022-06-25T15:44:43Z</time>
      </trkpt>
      <trkpt lat="46.10937" lon="4.65605">
        <ele>478.6</ele>
        <time>2022-06-25T15:44:44Z</time>
      </trkpt>
      <trkpt lat="46.10935" lon="4.65604">
        <ele>478.6</ele>
        <time>2022-06-25T15:44:45Z</time>
      </trkpt>
      <trkpt lat="46.10934" lon="4.65604">
        <ele>478.6</ele>
        <time>2022-06-25T15:44:46Z</time>
      </trkpt>
      <trkpt lat="46.10933" lon="4.65604">
        <ele>479</ele>
        <time>2022-06-25T15:44:47Z</time>
      </trkpt>
      <trkpt lat="46.10931" lon="4.65603">
        <ele>479</ele>
        <time>2022-06-25T15:44:48Z</time>
      </trkpt>
      <trkpt lat="46.1093" lon="4.65603">
        <ele>479.2</ele>
        <time>2022-06-25T15:44:49Z</time>
      </trkpt>
      <trkpt lat="46.10928" lon="4.65603">
        <ele>479.2</ele>
        <time>2022-06-25T15:44:50Z</time>
      </trkpt>
      <trkpt lat="46.10927" lon="4.65602">
        <ele>479.4</ele>
        <time>2022-06-25T15:44:51Z</time>
      </trkpt>
      <trkpt lat="46.10926" lon="4.65602">
        <ele>479.4</ele>
        <time>2022-06-25T15:44:52Z</time>
      </trkpt>
      <trkpt lat="46.10924" lon="4.65602">
        <ele>479.8</ele>
        <time>2022-06-25T15:44:53Z</time>
      </trkpt>
      <trkpt lat="46.10923" lon="4.65601">
        <ele>479.8</ele>
        <time>2022-06-25T15:44:54Z</time>
      </trkpt>
      <trkpt lat="46.10921" lon="4.65601">
        <ele>479.8</ele>
        <time>2022-06-25T15:44:55Z</time>
      </trkpt>
      <trkpt lat="46.10919" lon="4.656">
        <ele>480.2</ele>
        <time>2022-06-25T15:44:56Z</time>
      </trkpt>
      <trkpt lat="46.10918" lon="4.65599">
        <ele>480.2</ele>
        <time>2022-06-25T15:44:57Z</time>
      </trkpt>
      <trkpt lat="46.10916" lon="4.65599">
        <ele>480.4</ele>
        <time>2022-06-25T15:44:58Z</time>
      </trkpt>
      <trkpt lat="46.10914" lon="4.65598">
        <ele>480.4</ele>
        <time>2022-06-25T15:44:59Z</time>
      </trkpt>
      <trkpt lat="46.10912" lon="4.65597">
        <ele>480.6</ele>
        <time>2022-06-25T15:45:00Z</time>
      </trkpt>
      <trkpt lat="46.10911" lon="4.65597">
        <ele>480.6</ele>
        <time>2022-06-25T15:45:01Z</time>
      </trkpt>
      <trkpt lat="46.1091" lon="4.65597">
        <ele>480.8</ele>
        <time>2022-06-25T15:45:02Z</time>
      </trkpt>
      <trkpt lat="46.10908" lon="4.65596">
        <ele>480.8</ele>
        <time>2022-06-25T15:45:03Z</time>
      </trkpt>
      <trkpt lat="46.10907" lon="4.65596">
        <ele>481.2</ele>
        <time>2022-06-25T15:45:04Z</time>
      </trkpt>
      <trkpt lat="46.10905" lon="4.65595">
        <ele>481.2</ele>
        <time>2022-06-25T15:45:05Z</time>
      </trkpt>
      <trkpt lat="46.10903" lon="4.65594">
        <ele>481.4</ele>
        <time>2022-06-25T15:45:06Z</time>
      </trkpt>
      <trkpt lat="46.10901" lon="4.65593">
        <ele>481.8</ele>
        <time>2022-06-25T15:45:07Z</time>
      </trkpt>
      <trkpt lat="46.109" lon="4.65592">
        <ele>481.8</ele>
        <time>2022-06-25T15:45:08Z</time>
      </trkpt>
      <trkpt lat="46.10898" lon="4.65592">
        <ele>481.8</ele>
        <time>2022-06-25T15:45:09Z</time>
      </trkpt>
      <trkpt lat="46.10896" lon="4.65592">
        <ele>482.2</ele>
        <time>2022-06-25T15:45:10Z</time>
      </trkpt>
      <trkpt lat="46.10895" lon="4.65591">
        <ele>482.4</ele>
        <time>2022-06-25T15:45:11Z</time>
      </trkpt>
      <trkpt lat="46.10894" lon="4.65591">
        <ele>482.4</ele>
        <time>2022-06-25T15:45:12Z</time>
      </trkpt>
      <trkpt lat="46.10893" lon="4.6559">
        <ele>482.8</ele>
        <time>2022-06-25T15:45:13Z</time>
      </trkpt>
      <trkpt lat="46.10892" lon="4.65589">
        <ele>482.8</ele>
        <time>2022-06-25T15:45:14Z</time>
      </trkpt>
      <trkpt lat="46.10891" lon="4.65589">
        <ele>483.2</ele>
        <time>2022-06-25T15:45:15Z</time>
      </trkpt>
      <trkpt lat="46.10889" lon="4.65588">
        <ele>483.4</ele>
        <time>2022-06-25T15:45:16Z</time>
      </trkpt>
      <trkpt lat="46.10888" lon="4.65586">
        <ele>483.6</ele>
        <time>2022-06-25T15:45:17Z</time>
      </trkpt>
      <trkpt lat="46.10887" lon="4.65584">
        <ele>483.8</ele>
        <time>2022-06-25T15:45:18Z</time>
      </trkpt>
      <trkpt lat="46.10887" lon="4.65582">
        <ele>484.2</ele>
        <time>2022-06-25T15:45:19Z</time>
      </trkpt>
      <trkpt lat="46.10886" lon="4.65579">
        <ele>484.4</ele>
        <time>2022-06-25T15:45:20Z</time>
      </trkpt>
      <trkpt lat="46.10886" lon="4.65577">
        <ele>484.8</ele>
        <time>2022-06-25T15:45:21Z</time>
      </trkpt>
      <trkpt lat="46.10886" lon="4.65574">
        <ele>484.8</ele>
        <time>2022-06-25T15:45:22Z</time>
      </trkpt>
      <trkpt lat="46.10887" lon="4.65571">
        <ele>485</ele>
        <time>2022-06-25T15:45:23Z</time>
      </trkpt>
      <trkpt lat="46.10888" lon="4.65569">
        <ele>485</ele>
        <time>2022-06-25T15:45:24Z</time>
      </trkpt>
      <trkpt lat="46.10889" lon="4.65568">
        <ele>485.4</ele>
        <time>2022-06-25T15:45:25Z</time>
      </trkpt>
      <trkpt lat="46.1089" lon="4.65566">
        <ele>485.4</ele>
        <time>2022-06-25T15:45:26Z</time>
      </trkpt>
      <trkpt lat="46.1089" lon="4.65564">
        <ele>486</ele>
        <time>2022-06-25T15:45:27Z</time>
      </trkpt>
      <trkpt lat="46.10891" lon="4.65563">
        <ele>486.2</ele>
        <time>2022-06-25T15:45:28Z</time>
      </trkpt>
      <trkpt lat="46.10892" lon="4.65561">
        <ele>486.4</ele>
        <time>2022-06-25T15:45:29Z</time>
      </trkpt>
      <trkpt lat="46.10892" lon="4.65559">
        <ele>486.6</ele>
        <time>2022-06-25T15:45:30Z</time>
      </trkpt>
      <trkpt lat="46.10893" lon="4.65558">
        <ele>486.6</ele>
        <time>2022-06-25T15:45:31Z</time>
      </trkpt>
      <trkpt lat="46.10894" lon="4.65556">
        <ele>487</ele>
        <time>2022-06-25T15:45:32Z</time>
      </trkpt>
      <trkpt lat="46.10895" lon="4.65554">
        <ele>487</ele>
        <time>2022-06-25T15:45:33Z</time>
      </trkpt>
      <trkpt lat="46.10896" lon="4.65552">
        <ele>487.4</ele>
        <time>2022-06-25T15:45:34Z</time>
      </trkpt>
      <trkpt lat="46.10897" lon="4.6555">
        <ele>487.4</ele>
        <time>2022-06-25T15:45:35Z</time>
      </trkpt>
      <trkpt lat="46.10898" lon="4.65548">
        <ele>487.8</ele>
        <time>2022-06-25T15:45:36Z</time>
      </trkpt>
      <trkpt lat="46.10899" lon="4.65546">
        <ele>488.2</ele>
        <time>2022-06-25T15:45:37Z</time>
      </trkpt>
      <trkpt lat="46.109" lon="4.65544">
        <ele>488.4</ele>
        <time>2022-06-25T15:45:38Z</time>
      </trkpt>
      <trkpt lat="46.10901" lon="4.65543">
        <ele>488.4</ele>
        <time>2022-06-25T15:45:39Z</time>
      </trkpt>
      <trkpt lat="46.10902" lon="4.65541">
        <ele>489</ele>
        <time>2022-06-25T15:45:40Z</time>
      </trkpt>
      <trkpt lat="46.10903" lon="4.65539">
        <ele>489.2</ele>
        <time>2022-06-25T15:45:41Z</time>
      </trkpt>
      <trkpt lat="46.10904" lon="4.65538">
        <ele>489.4</ele>
        <time>2022-06-25T15:45:42Z</time>
      </trkpt>
      <trkpt lat="46.10905" lon="4.65536">
        <ele>489.8</ele>
        <time>2022-06-25T15:45:43Z</time>
      </trkpt>
      <trkpt lat="46.10906" lon="4.65535">
        <ele>490</ele>
        <time>2022-06-25T15:45:44Z</time>
      </trkpt>
      <trkpt lat="46.10908" lon="4.65533">
        <ele>490.2</ele>
        <time>2022-06-25T15:45:45Z</time>
      </trkpt>
      <trkpt lat="46.10909" lon="4.65532">
        <ele>490.4</ele>
        <time>2022-06-25T15:45:46Z</time>
      </trkpt>
      <trkpt lat="46.1091" lon="4.6553">
        <ele>490.6</ele>
        <time>2022-06-25T15:45:47Z</time>
      </trkpt>
      <trkpt lat="46.10911" lon="4.65528">
        <ele>490.6</ele>
        <time>2022-06-25T15:45:48Z</time>
      </trkpt>
      <trkpt lat="46.10912" lon="4.65526">
        <ele>491</ele>
        <time>2022-06-25T15:45:49Z</time>
      </trkpt>
      <trkpt lat="46.10913" lon="4.65525">
        <ele>491.2</ele>
        <time>2022-06-25T15:45:50Z</time>
      </trkpt>
      <trkpt lat="46.10914" lon="4.65523">
        <ele>491.6</ele>
        <time>2022-06-25T15:45:51Z</time>
      </trkpt>
      <trkpt lat="46.10915" lon="4.65521">
        <ele>491.8</ele>
        <time>2022-06-25T15:45:52Z</time>
      </trkpt>
      <trkpt lat="46.10916" lon="4.65519">
        <ele>492</ele>
        <time>2022-06-25T15:45:53Z</time>
      </trkpt>
      <trkpt lat="46.10916" lon="4.65517">
        <ele>492.4</ele>
        <time>2022-06-25T15:45:54Z</time>
      </trkpt>
      <trkpt lat="46.10917" lon="4.65515">
        <ele>492.6</ele>
        <time>2022-06-25T15:45:55Z</time>
      </trkpt>
      <trkpt lat="46.10917" lon="4.65513">
        <ele>492.8</ele>
        <time>2022-06-25T15:45:56Z</time>
      </trkpt>
      <trkpt lat="46.10917" lon="4.65512">
        <ele>493</ele>
        <time>2022-06-25T15:45:57Z</time>
      </trkpt>
      <trkpt lat="46.10916" lon="4.6551">
        <ele>493.4</ele>
        <time>2022-06-25T15:45:58Z</time>
      </trkpt>
      <trkpt lat="46.10916" lon="4.65508">
        <ele>493.6</ele>
        <time>2022-06-25T15:45:59Z</time>
      </trkpt>
      <trkpt lat="46.10915" lon="4.65507">
        <ele>493.8</ele>
        <time>2022-06-25T15:46:00Z</time>
      </trkpt>
      <trkpt lat="46.10913" lon="4.65506">
        <ele>494</ele>
        <time>2022-06-25T15:46:01Z</time>
      </trkpt>
      <trkpt lat="46.10912" lon="4.65505">
        <ele>494.2</ele>
        <time>2022-06-25T15:46:02Z</time>
      </trkpt>
      <trkpt lat="46.10911" lon="4.65504">
        <ele>494.6</ele>
        <time>2022-06-25T15:46:03Z</time>
      </trkpt>
      <trkpt lat="46.10909" lon="4.65504">
        <ele>494.8</ele>
        <time>2022-06-25T15:46:04Z</time>
      </trkpt>
      <trkpt lat="46.10908" lon="4.65504">
        <ele>495</ele>
        <time>2022-06-25T15:46:05Z</time>
      </trkpt>
      <trkpt lat="46.10906" lon="4.65503">
        <ele>495</ele>
        <time>2022-06-25T15:46:06Z</time>
      </trkpt>
      <trkpt lat="46.10905" lon="4.65504">
        <ele>495.4</ele>
        <time>2022-06-25T15:46:07Z</time>
      </trkpt>
      <trkpt lat="46.10903" lon="4.65504">
        <ele>495.4</ele>
        <time>2022-06-25T15:46:08Z</time>
      </trkpt>
      <trkpt lat="46.10901" lon="4.65504">
        <ele>495.8</ele>
        <time>2022-06-25T15:46:09Z</time>
      </trkpt>
      <trkpt lat="46.10899" lon="4.65504">
        <ele>495.8</ele>
        <time>2022-06-25T15:46:10Z</time>
      </trkpt>
      <trkpt lat="46.10897" lon="4.65504">
        <ele>496</ele>
        <time>2022-06-25T15:46:11Z</time>
      </trkpt>
      <trkpt lat="46.10896" lon="4.65504">
        <ele>496</ele>
        <time>2022-06-25T15:46:12Z</time>
      </trkpt>
      <trkpt lat="46.10894" lon="4.65504">
        <ele>496.4</ele>
        <time>2022-06-25T15:46:13Z</time>
      </trkpt>
      <trkpt lat="46.10892" lon="4.65504">
        <ele>496.6</ele>
        <time>2022-06-25T15:46:14Z</time>
      </trkpt>
      <trkpt lat="46.10891" lon="4.65504">
        <ele>496.6</ele>
        <time>2022-06-25T15:46:15Z</time>
      </trkpt>
      <trkpt lat="46.10889" lon="4.65504">
        <ele>496.8</ele>
        <time>2022-06-25T15:46:16Z</time>
      </trkpt>
      <trkpt lat="46.10887" lon="4.65504">
        <ele>496.8</ele>
        <time>2022-06-25T15:46:17Z</time>
      </trkpt>
      <trkpt lat="46.10885" lon="4.65504">
        <ele>497</ele>
        <time>2022-06-25T15:46:18Z</time>
      </trkpt>
      <trkpt lat="46.10883" lon="4.65503">
        <ele>497</ele>
        <time>2022-06-25T15:46:19Z</time>
      </trkpt>
      <trkpt lat="46.10881" lon="4.65503">
        <ele>497.4</ele>
        <time>2022-06-25T15:46:20Z</time>
      </trkpt>
      <trkpt lat="46.10879" lon="4.65503">
        <ele>497.4</ele>
        <time>2022-06-25T15:46:21Z</time>
      </trkpt>
      <trkpt lat="46.10877" lon="4.65503">
        <ele>497.6</ele>
        <time>2022-06-25T15:46:22Z</time>
      </trkpt>
      <trkpt lat="46.10875" lon="4.65502">
        <ele>497.6</ele>
        <time>2022-06-25T15:46:23Z</time>
      </trkpt>
      <trkpt lat="46.10873" lon="4.65501">
        <ele>497.8</ele>
        <time>2022-06-25T15:46:24Z</time>
      </trkpt>
      <trkpt lat="46.10871" lon="4.65501">
        <ele>497.8</ele>
        <time>2022-06-25T15:46:25Z</time>
      </trkpt>
      <trkpt lat="46.10869" lon="4.65501">
        <ele>498</ele>
        <time>2022-06-25T15:46:26Z</time>
      </trkpt>
      <trkpt lat="46.10867" lon="4.655">
        <ele>498</ele>
        <time>2022-06-25T15:46:27Z</time>
      </trkpt>
      <trkpt lat="46.10864" lon="4.655">
        <ele>498.4</ele>
        <time>2022-06-25T15:46:28Z</time>
      </trkpt>
      <trkpt lat="46.10862" lon="4.655">
        <ele>498.4</ele>
        <time>2022-06-25T15:46:29Z</time>
      </trkpt>
      <trkpt lat="46.10861" lon="4.655">
        <ele>498.4</ele>
        <time>2022-06-25T15:46:30Z</time>
      </trkpt>
      <trkpt lat="46.10859" lon="4.655">
        <ele>498.6</ele>
        <time>2022-06-25T15:46:31Z</time>
      </trkpt>
      <trkpt lat="46.10857" lon="4.655">
        <ele>498.6</ele>
        <time>2022-06-25T15:46:32Z</time>
      </trkpt>
      <trkpt lat="46.10855" lon="4.65499">
        <ele>499</ele>
        <time>2022-06-25T15:46:33Z</time>
      </trkpt>
      <trkpt lat="46.10854" lon="4.65498">
        <ele>499</ele>
        <time>2022-06-25T15:46:34Z</time>
      </trkpt>
      <trkpt lat="46.10852" lon="4.65497">
        <ele>499.4</ele>
        <time>2022-06-25T15:46:35Z</time>
      </trkpt>
      <trkpt lat="46.1085" lon="4.65496">
        <ele>499.4</ele>
        <time>2022-06-25T15:46:36Z</time>
      </trkpt>
      <trkpt lat="46.10848" lon="4.65495">
        <ele>499.6</ele>
        <time>2022-06-25T15:46:37Z</time>
      </trkpt>
      <trkpt lat="46.10846" lon="4.65493">
        <ele>499.6</ele>
        <time>2022-06-25T15:46:38Z</time>
      </trkpt>
      <trkpt lat="46.10844" lon="4.65492">
        <ele>500</ele>
        <time>2022-06-25T15:46:39Z</time>
      </trkpt>
      <trkpt lat="46.10843" lon="4.65492">
        <ele>500.2</ele>
        <time>2022-06-25T15:46:40Z</time>
      </trkpt>
      <trkpt lat="46.10841" lon="4.65491">
        <ele>500.6</ele>
        <time>2022-06-25T15:46:41Z</time>
      </trkpt>
      <trkpt lat="46.1084" lon="4.6549">
        <ele>500.8</ele>
        <time>2022-06-25T15:46:42Z</time>
      </trkpt>
      <trkpt lat="46.10839" lon="4.65489">
        <ele>501.2</ele>
        <time>2022-06-25T15:46:43Z</time>
      </trkpt>
      <trkpt lat="46.10837" lon="4.65488">
        <ele>501.4</ele>
        <time>2022-06-25T15:46:44Z</time>
      </trkpt>
      <trkpt lat="46.10836" lon="4.65486">
        <ele>501.4</ele>
        <time>2022-06-25T15:46:45Z</time>
      </trkpt>
      <trkpt lat="46.10835" lon="4.65484">
        <ele>501.8</ele>
        <time>2022-06-25T15:46:46Z</time>
      </trkpt>
      <trkpt lat="46.10834" lon="4.65483">
        <ele>502.2</ele>
        <time>2022-06-25T15:46:47Z</time>
      </trkpt>
      <trkpt lat="46.10833" lon="4.65481">
        <ele>502.4</ele>
        <time>2022-06-25T15:46:48Z</time>
      </trkpt>
      <trkpt lat="46.10832" lon="4.6548">
        <ele>502.4</ele>
        <time>2022-06-25T15:46:49Z</time>
      </trkpt>
      <trkpt lat="46.1083" lon="4.65478">
        <ele>502.6</ele>
        <time>2022-06-25T15:46:50Z</time>
      </trkpt>
      <trkpt lat="46.10829" lon="4.65477">
        <ele>502.6</ele>
        <time>2022-06-25T15:46:51Z</time>
      </trkpt>
      <trkpt lat="46.10828" lon="4.65475">
        <ele>503</ele>
        <time>2022-06-25T15:46:52Z</time>
      </trkpt>
      <trkpt lat="46.10827" lon="4.65474">
        <ele>503</ele>
        <time>2022-06-25T15:46:53Z</time>
      </trkpt>
      <trkpt lat="46.10825" lon="4.65472">
        <ele>503.4</ele>
        <time>2022-06-25T15:46:54Z</time>
      </trkpt>
      <trkpt lat="46.10824" lon="4.65471">
        <ele>503.4</ele>
        <time>2022-06-25T15:46:55Z</time>
      </trkpt>
      <trkpt lat="46.10823" lon="4.65469">
        <ele>503.6</ele>
        <time>2022-06-25T15:46:56Z</time>
      </trkpt>
      <trkpt lat="46.10821" lon="4.65468">
        <ele>503.8</ele>
        <time>2022-06-25T15:46:57Z</time>
      </trkpt>
      <trkpt lat="46.1082" lon="4.65466">
        <ele>503.8</ele>
        <time>2022-06-25T15:46:58Z</time>
      </trkpt>
      <trkpt lat="46.10818" lon="4.65465">
        <ele>504.2</ele>
        <time>2022-06-25T15:46:59Z</time>
      </trkpt>
      <trkpt lat="46.10816" lon="4.65465">
        <ele>504.2</ele>
        <time>2022-06-25T15:47:00Z</time>
      </trkpt>
      <trkpt lat="46.10814" lon="4.65464">
        <ele>504.6</ele>
        <time>2022-06-25T15:47:01Z</time>
      </trkpt>
      <trkpt lat="46.10812" lon="4.65464">
        <ele>504.6</ele>
        <time>2022-06-25T15:47:02Z</time>
      </trkpt>
      <trkpt lat="46.1081" lon="4.65464">
        <ele>504.8</ele>
        <time>2022-06-25T15:47:03Z</time>
      </trkpt>
      <trkpt lat="46.10809" lon="4.65464">
        <ele>505</ele>
        <time>2022-06-25T15:47:04Z</time>
      </trkpt>
      <trkpt lat="46.10807" lon="4.65464">
        <ele>505</ele>
        <time>2022-06-25T15:47:05Z</time>
      </trkpt>
      <trkpt lat="46.10805" lon="4.65464">
        <ele>505.2</ele>
        <time>2022-06-25T15:47:06Z</time>
      </trkpt>
      <trkpt lat="46.10804" lon="4.65464">
        <ele>505.2</ele>
        <time>2022-06-25T15:47:07Z</time>
      </trkpt>
      <trkpt lat="46.10802" lon="4.65464">
        <ele>505.6</ele>
        <time>2022-06-25T15:47:08Z</time>
      </trkpt>
      <trkpt lat="46.108" lon="4.65464">
        <ele>505.8</ele>
        <time>2022-06-25T15:47:09Z</time>
      </trkpt>
      <trkpt lat="46.10799" lon="4.65464">
        <ele>505.8</ele>
        <time>2022-06-25T15:47:10Z</time>
      </trkpt>
      <trkpt lat="46.10797" lon="4.65464">
        <ele>506</ele>
        <time>2022-06-25T15:47:11Z</time>
      </trkpt>
      <trkpt lat="46.10796" lon="4.65465">
        <ele>506</ele>
        <time>2022-06-25T15:47:12Z</time>
      </trkpt>
      <trkpt lat="46.10794" lon="4.65466">
        <ele>506.4</ele>
        <time>2022-06-25T15:47:13Z</time>
      </trkpt>
      <trkpt lat="46.10793" lon="4.65466">
        <ele>506.4</ele>
        <time>2022-06-25T15:47:14Z</time>
      </trkpt>
      <trkpt lat="46.10792" lon="4.65467">
        <ele>506.6</ele>
        <time>2022-06-25T15:47:15Z</time>
      </trkpt>
      <trkpt lat="46.1079" lon="4.65468">
        <ele>506.6</ele>
        <time>2022-06-25T15:47:16Z</time>
      </trkpt>
      <trkpt lat="46.10789" lon="4.65469">
        <ele>507</ele>
        <time>2022-06-25T15:47:17Z</time>
      </trkpt>
      <trkpt lat="46.10787" lon="4.6547">
        <ele>507</ele>
        <time>2022-06-25T15:47:18Z</time>
      </trkpt>
      <trkpt lat="46.10786" lon="4.6547">
        <ele>507.2</ele>
        <time>2022-06-25T15:47:19Z</time>
      </trkpt>
      <trkpt lat="46.10785" lon="4.65471">
        <ele>507.2</ele>
        <time>2022-06-25T15:47:20Z</time>
      </trkpt>
      <trkpt lat="46.10783" lon="4.65471">
        <ele>507.2</ele>
        <time>2022-06-25T15:47:21Z</time>
      </trkpt>
      <trkpt lat="46.10782" lon="4.65472">
        <ele>507.6</ele>
        <time>2022-06-25T15:47:22Z</time>
      </trkpt>
      <trkpt lat="46.10781" lon="4.65473">
        <ele>507.6</ele>
        <time>2022-06-25T15:47:23Z</time>
      </trkpt>
      <trkpt lat="46.10779" lon="4.65474">
        <ele>507.8</ele>
        <time>2022-06-25T15:47:24Z</time>
      </trkpt>
      <trkpt lat="46.10778" lon="4.65475">
        <ele>507.8</ele>
        <time>2022-06-25T15:47:25Z</time>
      </trkpt>
      <trkpt lat="46.10776" lon="4.65477">
        <ele>508</ele>
        <time>2022-06-25T15:47:26Z</time>
      </trkpt>
      <trkpt lat="46.10775" lon="4.65478">
        <ele>508</ele>
        <time>2022-06-25T15:47:27Z</time>
      </trkpt>
      <trkpt lat="46.10774" lon="4.65479">
        <ele>508.4</ele>
        <time>2022-06-25T15:47:28Z</time>
      </trkpt>
      <trkpt lat="46.10773" lon="4.65481">
        <ele>508.4</ele>
        <time>2022-06-25T15:47:29Z</time>
      </trkpt>
      <trkpt lat="46.10772" lon="4.65482">
        <ele>508.6</ele>
        <time>2022-06-25T15:47:30Z</time>
      </trkpt>
      <trkpt lat="46.10771" lon="4.65485">
        <ele>508.6</ele>
        <time>2022-06-25T15:47:31Z</time>
      </trkpt>
      <trkpt lat="46.1077" lon="4.65487">
        <ele>509</ele>
        <time>2022-06-25T15:47:32Z</time>
      </trkpt>
      <trkpt lat="46.10769" lon="4.65489">
        <ele>509</ele>
        <time>2022-06-25T15:47:33Z</time>
      </trkpt>
      <trkpt lat="46.10768" lon="4.65491">
        <ele>509</ele>
        <time>2022-06-25T15:47:34Z</time>
      </trkpt>
      <trkpt lat="46.10768" lon="4.65493">
        <ele>509.4</ele>
        <time>2022-06-25T15:47:35Z</time>
      </trkpt>
      <trkpt lat="46.10767" lon="4.65495">
        <ele>509.4</ele>
        <time>2022-06-25T15:47:36Z</time>
      </trkpt>
      <trkpt lat="46.10765" lon="4.65497">
        <ele>509.4</ele>
        <time>2022-06-25T15:47:37Z</time>
      </trkpt>
      <trkpt lat="46.10764" lon="4.65499">
        <ele>509.6</ele>
        <time>2022-06-25T15:47:38Z</time>
      </trkpt>
      <trkpt lat="46.10762" lon="4.65502">
        <ele>509.6</ele>
        <time>2022-06-25T15:47:39Z</time>
      </trkpt>
      <trkpt lat="46.1076" lon="4.65504">
        <ele>509.6</ele>
        <time>2022-06-25T15:47:40Z</time>
      </trkpt>
      <trkpt lat="46.10758" lon="4.65506">
        <ele>509.8</ele>
        <time>2022-06-25T15:47:41Z</time>
      </trkpt>
      <trkpt lat="46.10756" lon="4.65507">
        <ele>509.8</ele>
        <time>2022-06-25T15:47:42Z</time>
      </trkpt>
      <trkpt lat="46.10754" lon="4.65508">
        <ele>509.8</ele>
        <time>2022-06-25T15:47:43Z</time>
      </trkpt>
      <trkpt lat="46.10753" lon="4.65509">
        <ele>510</ele>
        <time>2022-06-25T15:47:44Z</time>
      </trkpt>
      <trkpt lat="46.10751" lon="4.65509">
        <ele>510</ele>
        <time>2022-06-25T15:47:45Z</time>
      </trkpt>
      <trkpt lat="46.10749" lon="4.6551">
        <ele>510.4</ele>
        <time>2022-06-25T15:47:46Z</time>
      </trkpt>
      <trkpt lat="46.10747" lon="4.6551">
        <ele>510.4</ele>
        <time>2022-06-25T15:47:47Z</time>
      </trkpt>
      <trkpt lat="46.10745" lon="4.6551">
        <ele>510.4</ele>
        <time>2022-06-25T15:47:48Z</time>
      </trkpt>
      <trkpt lat="46.10743" lon="4.6551">
        <ele>510.6</ele>
        <time>2022-06-25T15:47:49Z</time>
      </trkpt>
      <trkpt lat="46.10741" lon="4.6551">
        <ele>510.6</ele>
        <time>2022-06-25T15:47:50Z</time>
      </trkpt>
      <trkpt lat="46.10739" lon="4.65509">
        <ele>510.6</ele>
        <time>2022-06-25T15:47:51Z</time>
      </trkpt>
      <trkpt lat="46.10736" lon="4.65508">
        <ele>510.6</ele>
        <time>2022-06-25T15:47:52Z</time>
      </trkpt>
      <trkpt lat="46.10734" lon="4.65508">
        <ele>510.6</ele>
        <time>2022-06-25T15:47:53Z</time>
      </trkpt>
      <trkpt lat="46.10732" lon="4.65507">
        <ele>510.6</ele>
        <time>2022-06-25T15:47:54Z</time>
      </trkpt>
      <trkpt lat="46.1073" lon="4.65506">
        <ele>510.8</ele>
        <time>2022-06-25T15:47:55Z</time>
      </trkpt>
      <trkpt lat="46.10728" lon="4.65505">
        <ele>510.8</ele>
        <time>2022-06-25T15:47:56Z</time>
      </trkpt>
      <trkpt lat="46.10726" lon="4.65505">
        <ele>510.8</ele>
        <time>2022-06-25T15:47:57Z</time>
      </trkpt>
      <trkpt lat="46.10724" lon="4.65505">
        <ele>510.8</ele>
        <time>2022-06-25T15:47:58Z</time>
      </trkpt>
      <trkpt lat="46.10722" lon="4.65505">
        <ele>510.8</ele>
        <time>2022-06-25T15:47:59Z</time>
      </trkpt>
      <trkpt lat="46.1072" lon="4.65506">
        <ele>510.8</ele>
        <time>2022-06-25T15:48:00Z</time>
      </trkpt>
      <trkpt lat="46.10718" lon="4.65506">
        <ele>510.8</ele>
        <time>2022-06-25T15:48:01Z</time>
      </trkpt>
      <trkpt lat="46.10717" lon="4.65506">
        <ele>510.8</ele>
        <time>2022-06-25T15:48:02Z</time>
      </trkpt>
      <trkpt lat="46.10716" lon="4.65506">
        <ele>510.8</ele>
        <time>2022-06-25T15:48:03Z</time>
      </trkpt>
      <trkpt lat="46.10716" lon="4.65506">
        <ele>510.6</ele>
        <time>2022-06-25T15:48:05Z</time>
      </trkpt>
      <trkpt lat="46.10716" lon="4.65506">
        <ele>510.6</ele>
        <time>2022-06-25T15:49:04Z</time>
      </trkpt>
      <trkpt lat="46.10718" lon="4.65503">
        <ele>510.6</ele>
        <time>2022-06-25T15:49:06Z</time>
      </trkpt>
      <trkpt lat="46.10719" lon="4.65503">
        <ele>510.6</ele>
        <time>2022-06-25T15:49:07Z</time>
      </trkpt>
      <trkpt lat="46.1072" lon="4.65503">
        <ele>510.6</ele>
        <time>2022-06-25T15:49:08Z</time>
      </trkpt>
      <trkpt lat="46.1072" lon="4.65503">
        <ele>510.6</ele>
        <time>2022-06-25T15:49:10Z</time>
      </trkpt>
      <trkpt lat="46.10721" lon="4.65503">
        <ele>510.6</ele>
        <time>2022-06-25T15:49:12Z</time>
      </trkpt>
      <trkpt lat="46.10721" lon="4.65503">
        <ele>510.6</ele>
        <time>2022-06-25T15:49:13Z</time>
      </trkpt>
      <trkpt lat="46.10721" lon="4.65504">
        <ele>510.6</ele>
        <time>2022-06-25T15:49:14Z</time>
      </trkpt>
      <trkpt lat="46.10722" lon="4.65504">
        <ele>510.6</ele>
        <time>2022-06-25T15:49:16Z</time>
      </trkpt>
      <trkpt lat="46.10722" lon="4.65504">
        <ele>510.6</ele>
        <time>2022-06-25T15:49:17Z</time>
      </trkpt>
      <trkpt lat="46.10722" lon="4.65504">
        <ele>510.6</ele>
        <time>2022-06-25T15:49:19Z</time>
      </trkpt>
      <trkpt lat="46.10723" lon="4.65504">
        <ele>510.6</ele>
        <time>2022-06-25T15:49:20Z</time>
      </trkpt>
      <trkpt lat="46.10723" lon="4.65504">
        <ele>510.6</ele>
        <time>2022-06-25T15:49:22Z</time>
      </trkpt>
      <trkpt lat="46.10724" lon="4.65504">
        <ele>510.6</ele>
        <time>2022-06-25T15:49:24Z</time>
      </trkpt>
      <trkpt lat="46.10724" lon="4.65504">
        <ele>510.6</ele>
        <time>2022-06-25T15:49:25Z</time>
      </trkpt>
      <trkpt lat="46.10724" lon="4.65505">
        <ele>510.6</ele>
        <time>2022-06-25T15:49:26Z</time>
      </trkpt>
      <trkpt lat="46.10725" lon="4.65505">
        <ele>510.6</ele>
        <time>2022-06-25T15:49:28Z</time>
      </trkpt>
      <trkpt lat="46.10725" lon="4.65505">
        <ele>510.8</ele>
        <time>2022-06-25T15:49:30Z</time>
      </trkpt>
      <trkpt lat="46.10725" lon="4.65505">
        <ele>510.8</ele>
        <time>2022-06-25T15:49:32Z</time>
      </trkpt>
      <trkpt lat="46.10726" lon="4.65505">
        <ele>510.8</ele>
        <time>2022-06-25T15:49:33Z</time>
      </trkpt>
      <trkpt lat="46.10726" lon="4.65505">
        <ele>510.8</ele>
        <time>2022-06-25T15:49:36Z</time>
      </trkpt>
      <trkpt lat="46.10727" lon="4.65505">
        <ele>511.2</ele>
        <time>2022-06-25T15:50:28Z</time>
      </trkpt>
      <trkpt lat="46.10727" lon="4.65505">
        <ele>511.2</ele>
        <time>2022-06-25T15:50:30Z</time>
      </trkpt>
      <trkpt lat="46.10727" lon="4.65506">
        <ele>511.2</ele>
        <time>2022-06-25T15:50:31Z</time>
      </trkpt>
      <trkpt lat="46.10727" lon="4.65506">
        <ele>511.6</ele>
        <time>2022-06-25T15:51:54Z</time>
      </trkpt>
      <trkpt lat="46.10728" lon="4.65506">
        <ele>511.6</ele>
        <time>2022-06-25T15:51:55Z</time>
      </trkpt>
      <trkpt lat="46.10728" lon="4.65506">
        <ele>511.6</ele>
        <time>2022-06-25T15:51:57Z</time>
      </trkpt>
      <trkpt lat="46.10729" lon="4.65506">
        <ele>511.6</ele>
        <time>2022-06-25T15:51:59Z</time>
      </trkpt>
      <trkpt lat="46.10729" lon="4.65506">
        <ele>510.6</ele>
        <time>2022-06-25T15:56:08Z</time>
      </trkpt>
      <trkpt lat="46.10729" lon="4.65506">
        <ele>510.6</ele>
        <time>2022-06-25T15:56:10Z</time>
      </trkpt>
      <trkpt lat="46.1073" lon="4.65506">
        <ele>510.6</ele>
        <time>2022-06-25T15:56:11Z</time>
      </trkpt>
      <trkpt lat="46.1073" lon="4.65507">
        <ele>510.6</ele>
        <time>2022-06-25T15:56:13Z</time>
      </trkpt>
      <trkpt lat="46.1073" lon="4.65507">
        <ele>510.6</ele>
        <time>2022-06-25T15:56:14Z</time>
      </trkpt>
      <trkpt lat="46.10731" lon="4.65507">
        <ele>510.6</ele>
        <time>2022-06-25T15:56:18Z</time>
      </trkpt>
      <trkpt lat="46.10731" lon="4.65507">
        <ele>510.6</ele>
        <time>2022-06-25T15:56:20Z</time>
      </trkpt>
      <trkpt lat="46.10732" lon="4.65507">
        <ele>510.4</ele>
        <time>2022-06-25T15:56:22Z</time>
      </trkpt>
      <trkpt lat="46.10732" lon="4.65507">
        <ele>510.4</ele>
        <time>2022-06-25T15:56:23Z</time>
      </trkpt>
      <trkpt lat="46.10732" lon="4.65507">
        <ele>510.4</ele>
        <time>2022-06-25T15:56:25Z</time>
      </trkpt>
      <trkpt lat="46.10733" lon="4.65507">
        <ele>510.4</ele>
        <time>2022-06-25T15:56:26Z</time>
      </trkpt>
      <trkpt lat="46.10733" lon="4.65508">
        <ele>510.4</ele>
        <time>2022-06-25T15:56:28Z</time>
      </trkpt>
      <trkpt lat="46.10732" lon="4.65507">
        <ele>510.4</ele>
        <time>2022-06-25T15:56:29Z</time>
      </trkpt>
      <trkpt lat="46.1073" lon="4.65506">
        <ele>510.4</ele>
        <time>2022-06-25T15:56:30Z</time>
      </trkpt>
      <trkpt lat="46.10728" lon="4.65506">
        <ele>510.4</ele>
        <time>2022-06-25T15:56:31Z</time>
      </trkpt>
      <trkpt lat="46.10726" lon="4.65506">
        <ele>510.6</ele>
        <time>2022-06-25T15:56:32Z</time>
      </trkpt>
      <trkpt lat="46.10725" lon="4.65505">
        <ele>510.6</ele>
        <time>2022-06-25T15:56:33Z</time>
      </trkpt>
      <trkpt lat="46.10723" lon="4.65504">
        <ele>510.6</ele>
        <time>2022-06-25T15:56:34Z</time>
      </trkpt>
      <trkpt lat="46.1072" lon="4.65504">
        <ele>510.6</ele>
        <time>2022-06-25T15:56:35Z</time>
      </trkpt>
      <trkpt lat="46.10718" lon="4.65503">
        <ele>510.6</ele>
        <time>2022-06-25T15:56:36Z</time>
      </trkpt>
      <trkpt lat="46.10715" lon="4.65502">
        <ele>510.6</ele>
        <time>2022-06-25T15:56:37Z</time>
      </trkpt>
      <trkpt lat="46.10712" lon="4.65501">
        <ele>510.4</ele>
        <time>2022-06-25T15:56:38Z</time>
      </trkpt>
      <trkpt lat="46.10709" lon="4.65501">
        <ele>510.4</ele>
        <time>2022-06-25T15:56:39Z</time>
      </trkpt>
      <trkpt lat="46.10705" lon="4.65501">
        <ele>510.4</ele>
        <time>2022-06-25T15:56:40Z</time>
      </trkpt>
      <trkpt lat="46.10702" lon="4.65501">
        <ele>510.2</ele>
        <time>2022-06-25T15:56:41Z</time>
      </trkpt>
      <trkpt lat="46.10698" lon="4.65501">
        <ele>509.8</ele>
        <time>2022-06-25T15:56:42Z</time>
      </trkpt>
      <trkpt lat="46.10695" lon="4.65502">
        <ele>509.6</ele>
        <time>2022-06-25T15:56:43Z</time>
      </trkpt>
      <trkpt lat="46.10693" lon="4.65502">
        <ele>509.4</ele>
        <time>2022-06-25T15:56:44Z</time>
      </trkpt>
      <trkpt lat="46.10691" lon="4.65502">
        <ele>509</ele>
        <time>2022-06-25T15:56:45Z</time>
      </trkpt>
      <trkpt lat="46.10689" lon="4.65501">
        <ele>509</ele>
        <time>2022-06-25T15:56:46Z</time>
      </trkpt>
      <trkpt lat="46.10688" lon="4.655">
        <ele>508.6</ele>
        <time>2022-06-25T15:56:47Z</time>
      </trkpt>
      <trkpt lat="46.10686" lon="4.65498">
        <ele>508.6</ele>
        <time>2022-06-25T15:56:48Z</time>
      </trkpt>
      <trkpt lat="46.10685" lon="4.65497">
        <ele>508.2</ele>
        <time>2022-06-25T15:56:49Z</time>
      </trkpt>
      <trkpt lat="46.10684" lon="4.65494">
        <ele>508.2</ele>
        <time>2022-06-25T15:56:50Z</time>
      </trkpt>
      <trkpt lat="46.10683" lon="4.65493">
        <ele>508</ele>
        <time>2022-06-25T15:56:51Z</time>
      </trkpt>
      <trkpt lat="46.10682" lon="4.65492">
        <ele>508</ele>
        <time>2022-06-25T15:56:52Z</time>
      </trkpt>
      <trkpt lat="46.10682" lon="4.65492">
        <ele>508</ele>
        <time>2022-06-25T15:56:54Z</time>
      </trkpt>
      <trkpt lat="46.10682" lon="4.65492">
        <ele>507.4</ele>
        <time>2022-06-25T15:57:54Z</time>
      </trkpt>
      <trkpt lat="46.10682" lon="4.65492">
        <ele>507.8</ele>
        <time>2022-06-25T16:00:47Z</time>
      </trkpt>
      <trkpt lat="46.10682" lon="4.65492">
        <ele>508</ele>
        <time>2022-06-25T16:03:05Z</time>
      </trkpt>
      <trkpt lat="46.10682" lon="4.65492">
        <ele>508.4</ele>
        <time>2022-06-25T16:04:16Z</time>
      </trkpt>
      <trkpt lat="46.10682" lon="4.65492">
        <ele>508.2</ele>
        <time>2022-06-25T16:06:11Z</time>
      </trkpt>
      <trkpt lat="46.10682" lon="4.65492">
        <ele>505.2</ele>
        <time>2022-06-25T16:10:28Z</time>
      </trkpt>
      <trkpt lat="46.10688" lon="4.65502">
        <ele>504.8</ele>
        <time>2022-06-25T16:10:50Z</time>
      </trkpt>
      <trkpt lat="46.10689" lon="4.65502">
        <ele>504.8</ele>
        <time>2022-06-25T16:10:51Z</time>
      </trkpt>
      <trkpt lat="46.10689" lon="4.65502">
        <ele>504.8</ele>
        <time>2022-06-25T16:10:53Z</time>
      </trkpt>
      <trkpt lat="46.10689" lon="4.65502">
        <ele>504.8</ele>
        <time>2022-06-25T16:10:55Z</time>
      </trkpt>
      <trkpt lat="46.1069" lon="4.65502">
        <ele>505</ele>
        <time>2022-06-25T16:10:56Z</time>
      </trkpt>
      <trkpt lat="46.1069" lon="4.65502">
        <ele>505</ele>
        <time>2022-06-25T16:10:58Z</time>
      </trkpt>
      <trkpt lat="46.10691" lon="4.65502">
        <ele>505</ele>
        <time>2022-06-25T16:11:00Z</time>
      </trkpt>
      <trkpt lat="46.10691" lon="4.65502">
        <ele>505.2</ele>
        <time>2022-06-25T16:11:01Z</time>
      </trkpt>
      <trkpt lat="46.10691" lon="4.65502">
        <ele>505.2</ele>
        <time>2022-06-25T16:11:03Z</time>
      </trkpt>
      <trkpt lat="46.10692" lon="4.65501">
        <ele>505.4</ele>
        <time>2022-06-25T16:11:05Z</time>
      </trkpt>
      <trkpt lat="46.10692" lon="4.65501">
        <ele>505.8</ele>
        <time>2022-06-25T16:11:06Z</time>
      </trkpt>
      <trkpt lat="46.10692" lon="4.65501">
        <ele>505.8</ele>
        <time>2022-06-25T16:11:08Z</time>
      </trkpt>
      <trkpt lat="46.10693" lon="4.65501">
        <ele>506</ele>
        <time>2022-06-25T16:11:09Z</time>
      </trkpt>
      <trkpt lat="46.10693" lon="4.65501">
        <ele>506</ele>
        <time>2022-06-25T16:11:11Z</time>
      </trkpt>
      <trkpt lat="46.10693" lon="4.65501">
        <ele>506.2</ele>
        <time>2022-06-25T16:11:13Z</time>
      </trkpt>
      <trkpt lat="46.10694" lon="4.65501">
        <ele>506.2</ele>
        <time>2022-06-25T16:11:14Z</time>
      </trkpt>
      <trkpt lat="46.10694" lon="4.65501">
        <ele>506.4</ele>
        <time>2022-06-25T16:11:16Z</time>
      </trkpt>
      <trkpt lat="46.10695" lon="4.65501">
        <ele>506.6</ele>
        <time>2022-06-25T16:11:18Z</time>
      </trkpt>
      <trkpt lat="46.10695" lon="4.65501">
        <ele>506.6</ele>
        <time>2022-06-25T16:11:19Z</time>
      </trkpt>
      <trkpt lat="46.10695" lon="4.65501">
        <ele>506.6</ele>
        <time>2022-06-25T16:11:21Z</time>
      </trkpt>
      <trkpt lat="46.10696" lon="4.65501">
        <ele>506.6</ele>
        <time>2022-06-25T16:11:23Z</time>
      </trkpt>
      <trkpt lat="46.10696" lon="4.65501">
        <ele>506.6</ele>
        <time>2022-06-25T16:11:24Z</time>
      </trkpt>
      <trkpt lat="46.10696" lon="4.65501">
        <ele>506.8</ele>
        <time>2022-06-25T16:11:26Z</time>
      </trkpt>
      <trkpt lat="46.10697" lon="4.65501">
        <ele>506.8</ele>
        <time>2022-06-25T16:11:28Z</time>
      </trkpt>
      <trkpt lat="46.10697" lon="4.65501">
        <ele>506.8</ele>
        <time>2022-06-25T16:11:29Z</time>
      </trkpt>
      <trkpt lat="46.10697" lon="4.655">
        <ele>506.8</ele>
        <time>2022-06-25T16:11:31Z</time>
      </trkpt>
      <trkpt lat="46.10698" lon="4.655">
        <ele>506.8</ele>
        <time>2022-06-25T16:11:32Z</time>
      </trkpt>
      <trkpt lat="46.10698" lon="4.655">
        <ele>507.2</ele>
        <time>2022-06-25T16:11:35Z</time>
      </trkpt>
      <trkpt lat="46.10698" lon="4.655">
        <ele>507.8</ele>
        <time>2022-06-25T16:11:40Z</time>
      </trkpt>
      <trkpt lat="46.10699" lon="4.655">
        <ele>507.8</ele>
        <time>2022-06-25T16:11:41Z</time>
      </trkpt>
      <trkpt lat="46.10699" lon="4.655">
        <ele>508</ele>
        <time>2022-06-25T16:11:43Z</time>
      </trkpt>
      <trkpt lat="46.107" lon="4.655">
        <ele>508</ele>
        <time>2022-06-25T16:11:45Z</time>
      </trkpt>
      <trkpt lat="46.107" lon="4.655">
        <ele>508</ele>
        <time>2022-06-25T16:11:46Z</time>
      </trkpt>
      <trkpt lat="46.107" lon="4.655">
        <ele>508</ele>
        <time>2022-06-25T16:11:48Z</time>
      </trkpt>
      <trkpt lat="46.10701" lon="4.655">
        <ele>508</ele>
        <time>2022-06-25T16:11:50Z</time>
      </trkpt>
      <trkpt lat="46.10701" lon="4.655">
        <ele>508</ele>
        <time>2022-06-25T16:11:51Z</time>
      </trkpt>
      <trkpt lat="46.10701" lon="4.655">
        <ele>508</ele>
        <time>2022-06-25T16:11:53Z</time>
      </trkpt>
      <trkpt lat="46.10702" lon="4.655">
        <ele>508</ele>
        <time>2022-06-25T16:11:54Z</time>
      </trkpt>
      <trkpt lat="46.10702" lon="4.655">
        <ele>508</ele>
        <time>2022-06-25T16:11:56Z</time>
      </trkpt>
      <trkpt lat="46.10702" lon="4.655">
        <ele>508</ele>
        <time>2022-06-25T16:11:58Z</time>
      </trkpt>
      <trkpt lat="46.10703" lon="4.655">
        <ele>508</ele>
        <time>2022-06-25T16:11:59Z</time>
      </trkpt>
      <trkpt lat="46.10703" lon="4.65499">
        <ele>507.8</ele>
        <time>2022-06-25T16:12:01Z</time>
      </trkpt>
      <trkpt lat="46.10703" lon="4.65499">
        <ele>507.8</ele>
        <time>2022-06-25T16:12:02Z</time>
      </trkpt>
      <trkpt lat="46.10704" lon="4.65499">
        <ele>507.8</ele>
        <time>2022-06-25T16:12:04Z</time>
      </trkpt>
      <trkpt lat="46.10704" lon="4.65499">
        <ele>507.8</ele>
        <time>2022-06-25T16:12:05Z</time>
      </trkpt>
      <trkpt lat="46.10704" lon="4.65499">
        <ele>507.6</ele>
        <time>2022-06-25T16:12:07Z</time>
      </trkpt>
      <trkpt lat="46.10705" lon="4.65499">
        <ele>507.6</ele>
        <time>2022-06-25T16:12:08Z</time>
      </trkpt>
      <trkpt lat="46.10705" lon="4.65499">
        <ele>507.6</ele>
        <time>2022-06-25T16:12:11Z</time>
      </trkpt>
      <trkpt lat="46.10705" lon="4.65499">
        <ele>507.6</ele>
        <time>2022-06-25T16:12:14Z</time>
      </trkpt>
      <trkpt lat="46.10706" lon="4.65499">
        <ele>507.6</ele>
        <time>2022-06-25T16:12:15Z</time>
      </trkpt>
      <trkpt lat="46.10706" lon="4.65499">
        <ele>507.4</ele>
        <time>2022-06-25T16:12:17Z</time>
      </trkpt>
      <trkpt lat="46.10707" lon="4.65499">
        <ele>507.4</ele>
        <time>2022-06-25T16:12:20Z</time>
      </trkpt>
      <trkpt lat="46.10707" lon="4.65499">
        <ele>507.4</ele>
        <time>2022-06-25T16:12:21Z</time>
      </trkpt>
      <trkpt lat="46.10707" lon="4.65499">
        <ele>507.4</ele>
        <time>2022-06-25T16:12:23Z</time>
      </trkpt>
      <trkpt lat="46.10708" lon="4.65499">
        <ele>507.4</ele>
        <time>2022-06-25T16:12:25Z</time>
      </trkpt>
      <trkpt lat="46.10708" lon="4.65499">
        <ele>507.4</ele>
        <time>2022-06-25T16:12:26Z</time>
      </trkpt>
      <trkpt lat="46.10708" lon="4.65499">
        <ele>507.4</ele>
        <time>2022-06-25T16:12:28Z</time>
      </trkpt>
      <trkpt lat="46.10709" lon="4.65499">
        <ele>507.4</ele>
        <time>2022-06-25T16:12:29Z</time>
      </trkpt>
      <trkpt lat="46.10709" lon="4.65498">
        <ele>507.4</ele>
        <time>2022-06-25T16:12:30Z</time>
      </trkpt>
      <trkpt lat="46.10709" lon="4.65498">
        <ele>507.4</ele>
        <time>2022-06-25T16:12:32Z</time>
      </trkpt>
      <trkpt lat="46.1071" lon="4.65498">
        <ele>507.4</ele>
        <time>2022-06-25T16:12:34Z</time>
      </trkpt>
      <trkpt lat="46.1071" lon="4.65498">
        <ele>507.4</ele>
        <time>2022-06-25T16:12:35Z</time>
      </trkpt>
      <trkpt lat="46.1071" lon="4.65498">
        <ele>507.2</ele>
        <time>2022-06-25T16:12:37Z</time>
      </trkpt>
      <trkpt lat="46.10711" lon="4.65498">
        <ele>507.2</ele>
        <time>2022-06-25T16:12:39Z</time>
      </trkpt>
      <trkpt lat="46.10711" lon="4.65498">
        <ele>507.2</ele>
        <time>2022-06-25T16:12:40Z</time>
      </trkpt>
      <trkpt lat="46.10711" lon="4.65498">
        <ele>507.2</ele>
        <time>2022-06-25T16:12:42Z</time>
      </trkpt>
      <trkpt lat="46.10712" lon="4.65498">
        <ele>507.2</ele>
        <time>2022-06-25T16:12:43Z</time>
      </trkpt>
      <trkpt lat="46.10712" lon="4.65498">
        <ele>507.2</ele>
        <time>2022-06-25T16:12:45Z</time>
      </trkpt>
      <trkpt lat="46.10712" lon="4.65498">
        <ele>507.2</ele>
        <time>2022-06-25T16:12:47Z</time>
      </trkpt>
      <trkpt lat="46.10713" lon="4.65498">
        <ele>507.2</ele>
        <time>2022-06-25T16:12:48Z</time>
      </trkpt>
      <trkpt lat="46.10713" lon="4.65498">
        <ele>507.2</ele>
        <time>2022-06-25T16:12:50Z</time>
      </trkpt>
      <trkpt lat="46.10714" lon="4.65498">
        <ele>507.2</ele>
        <time>2022-06-25T16:12:52Z</time>
      </trkpt>
      <trkpt lat="46.10714" lon="4.65498">
        <ele>507.2</ele>
        <time>2022-06-25T16:12:53Z</time>
      </trkpt>
      <trkpt lat="46.10714" lon="4.65498">
        <ele>507.2</ele>
        <time>2022-06-25T16:12:55Z</time>
      </trkpt>
      <trkpt lat="46.10715" lon="4.65497">
        <ele>507.2</ele>
        <time>2022-06-25T16:12:57Z</time>
      </trkpt>
      <trkpt lat="46.10715" lon="4.65497">
        <ele>507.2</ele>
        <time>2022-06-25T16:12:58Z</time>
      </trkpt>
      <trkpt lat="46.10715" lon="4.65497">
        <ele>507.2</ele>
        <time>2022-06-25T16:13:00Z</time>
      </trkpt>
      <trkpt lat="46.10716" lon="4.65497">
        <ele>507.2</ele>
        <time>2022-06-25T16:13:01Z</time>
      </trkpt>
      <trkpt lat="46.10716" lon="4.65497">
        <ele>507.2</ele>
        <time>2022-06-25T16:13:03Z</time>
      </trkpt>
      <trkpt lat="46.10716" lon="4.65497">
        <ele>507.2</ele>
        <time>2022-06-25T16:13:05Z</time>
      </trkpt>
      <trkpt lat="46.10717" lon="4.65497">
        <ele>507</ele>
        <time>2022-06-25T16:13:06Z</time>
      </trkpt>
      <trkpt lat="46.10717" lon="4.65497">
        <ele>507</ele>
        <time>2022-06-25T16:13:08Z</time>
      </trkpt>
      <trkpt lat="46.10717" lon="4.65497">
        <ele>507</ele>
        <time>2022-06-25T16:13:12Z</time>
      </trkpt>
      <trkpt lat="46.10718" lon="4.65497">
        <ele>507</ele>
        <time>2022-06-25T16:13:13Z</time>
      </trkpt>
      <trkpt lat="46.10718" lon="4.65497">
        <ele>507</ele>
        <time>2022-06-25T16:13:15Z</time>
      </trkpt>
      <trkpt lat="46.10719" lon="4.65497">
        <ele>507</ele>
        <time>2022-06-25T16:13:17Z</time>
      </trkpt>
      <trkpt lat="46.10719" lon="4.65497">
        <ele>507</ele>
        <time>2022-06-25T16:13:18Z</time>
      </trkpt>
      <trkpt lat="46.10719" lon="4.65497">
        <ele>507</ele>
        <time>2022-06-25T16:13:20Z</time>
      </trkpt>
      <trkpt lat="46.1072" lon="4.65497">
        <ele>507</ele>
        <time>2022-06-25T16:13:22Z</time>
      </trkpt>
      <trkpt lat="46.1072" lon="4.65497">
        <ele>507</ele>
        <time>2022-06-25T16:13:23Z</time>
      </trkpt>
      <trkpt lat="46.1072" lon="4.65496">
        <ele>507</ele>
        <time>2022-06-25T16:13:25Z</time>
      </trkpt>
      <trkpt lat="46.10721" lon="4.65496">
        <ele>507</ele>
        <time>2022-06-25T16:13:26Z</time>
      </trkpt>
      <trkpt lat="46.10721" lon="4.65496">
        <ele>507</ele>
        <time>2022-06-25T16:13:28Z</time>
      </trkpt>
      <trkpt lat="46.10721" lon="4.65496">
        <ele>507</ele>
        <time>2022-06-25T16:13:31Z</time>
      </trkpt>
      <trkpt lat="46.10722" lon="4.65496">
        <ele>507</ele>
        <time>2022-06-25T16:13:32Z</time>
      </trkpt>
      <trkpt lat="46.10722" lon="4.65496">
        <ele>507</ele>
        <time>2022-06-25T16:13:34Z</time>
      </trkpt>
      <trkpt lat="46.10723" lon="4.65496">
        <ele>507.2</ele>
        <time>2022-06-25T16:13:36Z</time>
      </trkpt>
      <trkpt lat="46.10723" lon="4.65496">
        <ele>507.2</ele>
        <time>2022-06-25T16:13:37Z</time>
      </trkpt>
      <trkpt lat="46.10723" lon="4.65496">
        <ele>507.2</ele>
        <time>2022-06-25T16:13:39Z</time>
      </trkpt>
      <trkpt lat="46.10724" lon="4.65496">
        <ele>507.4</ele>
        <time>2022-06-25T16:13:41Z</time>
      </trkpt>
      <trkpt lat="46.10724" lon="4.65496">
        <ele>507.4</ele>
        <time>2022-06-25T16:13:42Z</time>
      </trkpt>
      <trkpt lat="46.10724" lon="4.65496">
        <ele>507.4</ele>
        <time>2022-06-25T16:13:44Z</time>
      </trkpt>
      <trkpt lat="46.10725" lon="4.65496">
        <ele>507.4</ele>
        <time>2022-06-25T16:13:46Z</time>
      </trkpt>
      <trkpt lat="46.10725" lon="4.65496">
        <ele>507.4</ele>
        <time>2022-06-25T16:13:47Z</time>
      </trkpt>
      <trkpt lat="46.10725" lon="4.65496">
        <ele>507.4</ele>
        <time>2022-06-25T16:13:49Z</time>
      </trkpt>
      <trkpt lat="46.10726" lon="4.65496">
        <ele>507.4</ele>
        <time>2022-06-25T16:13:50Z</time>
      </trkpt>
      <trkpt lat="46.10726" lon="4.65495">
        <ele>507.4</ele>
        <time>2022-06-25T16:13:52Z</time>
      </trkpt>
      <trkpt lat="46.10726" lon="4.65495">
        <ele>507.6</ele>
        <time>2022-06-25T16:13:53Z</time>
      </trkpt>
      <trkpt lat="46.10727" lon="4.65495">
        <ele>507.6</ele>
        <time>2022-06-25T16:13:55Z</time>
      </trkpt>
      <trkpt lat="46.10727" lon="4.65495">
        <ele>507.6</ele>
        <time>2022-06-25T16:13:56Z</time>
      </trkpt>
      <trkpt lat="46.10727" lon="4.65495">
        <ele>507.8</ele>
        <time>2022-06-25T16:14:00Z</time>
      </trkpt>
      <trkpt lat="46.10728" lon="4.65495">
        <ele>508.2</ele>
        <time>2022-06-25T16:14:01Z</time>
      </trkpt>
      <trkpt lat="46.10728" lon="4.65495">
        <ele>508.2</ele>
        <time>2022-06-25T16:14:04Z</time>
      </trkpt>
      <trkpt lat="46.10728" lon="4.65495">
        <ele>508</ele>
        <time>2022-06-25T16:14:06Z</time>
      </trkpt>
      <trkpt lat="46.10729" lon="4.65495">
        <ele>508</ele>
        <time>2022-06-25T16:14:07Z</time>
      </trkpt>
      <trkpt lat="46.10729" lon="4.65495">
        <ele>507.6</ele>
        <time>2022-06-25T16:14:09Z</time>
      </trkpt>
      <trkpt lat="46.1073" lon="4.65495">
        <ele>507.2</ele>
        <time>2022-06-25T16:14:11Z</time>
      </trkpt>
      <trkpt lat="46.1073" lon="4.65495">
        <ele>506.8</ele>
        <time>2022-06-25T16:14:13Z</time>
      </trkpt>
      <trkpt lat="46.1073" lon="4.65495">
        <ele>506.8</ele>
        <time>2022-06-25T16:14:15Z</time>
      </trkpt>
      <trkpt lat="46.10731" lon="4.65495">
        <ele>507</ele>
        <time>2022-06-25T16:14:17Z</time>
      </trkpt>
      <trkpt lat="46.10731" lon="4.65495">
        <ele>507</ele>
        <time>2022-06-25T16:14:18Z</time>
      </trkpt>
      <trkpt lat="46.10731" lon="4.65495">
        <ele>507.4</ele>
        <time>2022-06-25T16:14:20Z</time>
      </trkpt>
      <trkpt lat="46.10732" lon="4.65494">
        <ele>507.6</ele>
        <time>2022-06-25T16:14:22Z</time>
      </trkpt>
      <trkpt lat="46.10732" lon="4.65494">
        <ele>507.6</ele>
        <time>2022-06-25T16:14:23Z</time>
      </trkpt>
      <trkpt lat="46.10732" lon="4.65494">
        <ele>507.6</ele>
        <time>2022-06-25T16:14:25Z</time>
      </trkpt>
      <trkpt lat="46.10733" lon="4.65494">
        <ele>507.4</ele>
        <time>2022-06-25T16:14:26Z</time>
      </trkpt>
      <trkpt lat="46.10733" lon="4.65494">
        <ele>507.4</ele>
        <time>2022-06-25T16:14:28Z</time>
      </trkpt>
      <trkpt lat="46.10733" lon="4.65494">
        <ele>507.4</ele>
        <time>2022-06-25T16:14:30Z</time>
      </trkpt>
      <trkpt lat="46.10734" lon="4.65494">
        <ele>507.4</ele>
        <time>2022-06-25T16:14:32Z</time>
      </trkpt>
      <trkpt lat="46.10734" lon="4.65494">
        <ele>507.4</ele>
        <time>2022-06-25T16:14:36Z</time>
      </trkpt>
      <trkpt lat="46.10735" lon="4.65494">
        <ele>507.2</ele>
        <time>2022-06-25T16:14:41Z</time>
      </trkpt>
      <trkpt lat="46.10735" lon="4.65494">
        <ele>507.2</ele>
        <time>2022-06-25T16:14:42Z</time>
      </trkpt>
      <trkpt lat="46.10735" lon="4.65494">
        <ele>507.2</ele>
        <time>2022-06-25T16:14:50Z</time>
      </trkpt>
      <trkpt lat="46.10736" lon="4.65494">
        <ele>507</ele>
        <time>2022-06-25T16:14:52Z</time>
      </trkpt>
      <trkpt lat="46.10736" lon="4.65494">
        <ele>507</ele>
        <time>2022-06-25T16:14:57Z</time>
      </trkpt>
      <trkpt lat="46.10736" lon="4.65494">
        <ele>507</ele>
        <time>2022-06-25T16:14:59Z</time>
      </trkpt>
      <trkpt lat="46.10737" lon="4.65494">
        <ele>507</ele>
        <time>2022-06-25T16:15:00Z</time>
      </trkpt>
      <trkpt lat="46.10737" lon="4.65494">
        <ele>506.8</ele>
        <time>2022-06-25T16:15:02Z</time>
      </trkpt>
      <trkpt lat="46.10737" lon="4.65493">
        <ele>506.8</ele>
        <time>2022-06-25T16:15:04Z</time>
      </trkpt>
      <trkpt lat="46.10738" lon="4.65493">
        <ele>506.8</ele>
        <time>2022-06-25T16:15:05Z</time>
      </trkpt>
      <trkpt lat="46.10738" lon="4.65493">
        <ele>506.8</ele>
        <time>2022-06-25T16:15:07Z</time>
      </trkpt>
      <trkpt lat="46.10738" lon="4.65493">
        <ele>506.8</ele>
        <time>2022-06-25T16:15:09Z</time>
      </trkpt>
      <trkpt lat="46.10739" lon="4.65493">
        <ele>506.8</ele>
        <time>2022-06-25T16:15:10Z</time>
      </trkpt>
      <trkpt lat="46.10739" lon="4.65493">
        <ele>506.8</ele>
        <time>2022-06-25T16:15:12Z</time>
      </trkpt>
      <trkpt lat="46.1074" lon="4.65493">
        <ele>506.8</ele>
        <time>2022-06-25T16:15:15Z</time>
      </trkpt>
      <trkpt lat="46.1074" lon="4.65493">
        <ele>506.8</ele>
        <time>2022-06-25T16:15:19Z</time>
      </trkpt>
      <trkpt lat="46.1074" lon="4.65493">
        <ele>506.8</ele>
        <time>2022-06-25T16:15:27Z</time>
      </trkpt>
      <trkpt lat="46.10741" lon="4.65493">
        <ele>506.8</ele>
        <time>2022-06-25T16:15:31Z</time>
      </trkpt>
      <trkpt lat="46.10741" lon="4.65493">
        <ele>506.8</ele>
        <time>2022-06-25T16:15:32Z</time>
      </trkpt>
      <trkpt lat="46.10741" lon="4.65492">
        <ele>506.8</ele>
        <time>2022-06-25T16:15:33Z</time>
      </trkpt>
      <trkpt lat="46.10741" lon="4.65492">
        <ele>506.8</ele>
        <time>2022-06-25T16:15:35Z</time>
      </trkpt>
      <trkpt lat="46.10742" lon="4.65492">
        <ele>506.8</ele>
        <time>2022-06-25T16:15:40Z</time>
      </trkpt>
      <trkpt lat="46.10742" lon="4.65492">
        <ele>506.8</ele>
        <time>2022-06-25T16:15:41Z</time>
      </trkpt>
      <trkpt lat="46.10742" lon="4.65492">
        <ele>506.8</ele>
        <time>2022-06-25T16:15:47Z</time>
      </trkpt>
      <trkpt lat="46.10742" lon="4.65491">
        <ele>506.8</ele>
        <time>2022-06-25T16:15:48Z</time>
      </trkpt>
      <trkpt lat="46.10742" lon="4.65491">
        <ele>507</ele>
        <time>2022-06-25T16:15:56Z</time>
      </trkpt>
      <trkpt lat="46.10742" lon="4.65491">
        <ele>507</ele>
        <time>2022-06-25T16:15:58Z</time>
      </trkpt>
      <trkpt lat="46.10743" lon="4.65491">
        <ele>507</ele>
        <time>2022-06-25T16:15:59Z</time>
      </trkpt>
      <trkpt lat="46.10743" lon="4.65491">
        <ele>507</ele>
        <time>2022-06-25T16:16:01Z</time>
      </trkpt>
      <trkpt lat="46.10743" lon="4.6549">
        <ele>507</ele>
        <time>2022-06-25T16:16:03Z</time>
      </trkpt>
      <trkpt lat="46.10743" lon="4.6549">
        <ele>507</ele>
        <time>2022-06-25T16:16:04Z</time>
      </trkpt>
      <trkpt lat="46.10743" lon="4.6549">
        <ele>507.2</ele>
        <time>2022-06-25T16:16:06Z</time>
      </trkpt>
      <trkpt lat="46.10744" lon="4.6549">
        <ele>507.2</ele>
        <time>2022-06-25T16:16:07Z</time>
      </trkpt>
      <trkpt lat="46.10744" lon="4.6549">
        <ele>507.2</ele>
        <time>2022-06-25T16:16:09Z</time>
      </trkpt>
      <trkpt lat="46.10744" lon="4.65489">
        <ele>507.4</ele>
        <time>2022-06-25T16:16:11Z</time>
      </trkpt>
      <trkpt lat="46.10744" lon="4.65489">
        <ele>507.4</ele>
        <time>2022-06-25T16:16:12Z</time>
      </trkpt>
      <trkpt lat="46.10744" lon="4.65489">
        <ele>507.4</ele>
        <time>2022-06-25T16:16:14Z</time>
      </trkpt>
      <trkpt lat="46.10745" lon="4.65489">
        <ele>507.4</ele>
        <time>2022-06-25T16:16:17Z</time>
      </trkpt>
      <trkpt lat="46.10745" lon="4.65489">
        <ele>507.6</ele>
        <time>2022-06-25T16:16:28Z</time>
      </trkpt>
      <trkpt lat="46.10745" lon="4.65489">
        <ele>507.6</ele>
        <time>2022-06-25T16:16:35Z</time>
      </trkpt>
      <trkpt lat="46.10745" lon="4.65488">
        <ele>507.6</ele>
        <time>2022-06-25T16:16:36Z</time>
      </trkpt>
      <trkpt lat="46.10745" lon="4.65488">
        <ele>507.6</ele>
        <time>2022-06-25T16:16:41Z</time>
      </trkpt>
      <trkpt lat="46.10746" lon="4.65488">
        <ele>507.6</ele>
        <time>2022-06-25T16:16:42Z</time>
      </trkpt>
      <trkpt lat="46.10746" lon="4.65488">
        <ele>507.6</ele>
        <time>2022-06-25T16:16:44Z</time>
      </trkpt>
      <trkpt lat="46.10746" lon="4.65488">
        <ele>507.4</ele>
        <time>2022-06-25T16:16:46Z</time>
      </trkpt>
      <trkpt lat="46.10746" lon="4.65487">
        <ele>507.4</ele>
        <time>2022-06-25T16:16:47Z</time>
      </trkpt>
      <trkpt lat="46.10746" lon="4.65487">
        <ele>507.4</ele>
        <time>2022-06-25T16:16:49Z</time>
      </trkpt>
      <trkpt lat="46.10747" lon="4.65487">
        <ele>507.4</ele>
        <time>2022-06-25T16:16:50Z</time>
      </trkpt>
      <trkpt lat="46.10747" lon="4.65487">
        <ele>507.4</ele>
        <time>2022-06-25T16:16:52Z</time>
      </trkpt>
      <trkpt lat="46.10747" lon="4.65487">
        <ele>507.2</ele>
        <time>2022-06-25T16:16:54Z</time>
      </trkpt>
      <trkpt lat="46.10747" lon="4.65486">
        <ele>507.2</ele>
        <time>2022-06-25T16:16:55Z</time>
      </trkpt>
      <trkpt lat="46.10747" lon="4.65486">
        <ele>507.2</ele>
        <time>2022-06-25T16:16:57Z</time>
      </trkpt>
      <trkpt lat="46.10748" lon="4.65486">
        <ele>507.2</ele>
        <time>2022-06-25T16:16:58Z</time>
      </trkpt>
      <trkpt lat="46.10748" lon="4.65486">
        <ele>507.2</ele>
        <time>2022-06-25T16:17:00Z</time>
      </trkpt>
      <trkpt lat="46.10748" lon="4.65486">
        <ele>507.2</ele>
        <time>2022-06-25T16:17:02Z</time>
      </trkpt>
      <trkpt lat="46.10748" lon="4.65485">
        <ele>507.2</ele>
        <time>2022-06-25T16:17:04Z</time>
      </trkpt>
      <trkpt lat="46.10748" lon="4.65485">
        <ele>507.2</ele>
        <time>2022-06-25T16:17:05Z</time>
      </trkpt>
      <trkpt lat="46.10749" lon="4.65485">
        <ele>507.2</ele>
        <time>2022-06-25T16:17:06Z</time>
      </trkpt>
      <trkpt lat="46.10749" lon="4.65485">
        <ele>507.2</ele>
        <time>2022-06-25T16:17:08Z</time>
      </trkpt>
      <trkpt lat="46.10749" lon="4.65485">
        <ele>507.2</ele>
        <time>2022-06-25T16:17:10Z</time>
      </trkpt>
      <trkpt lat="46.10749" lon="4.65485">
        <ele>507.2</ele>
        <time>2022-06-25T16:17:12Z</time>
      </trkpt>
      <trkpt lat="46.10749" lon="4.65485">
        <ele>507.2</ele>
        <time>2022-06-25T16:17:14Z</time>
      </trkpt>
      <trkpt lat="46.10748" lon="4.65485">
        <ele>507.2</ele>
        <time>2022-06-25T16:17:17Z</time>
      </trkpt>
      <trkpt lat="46.10748" lon="4.65485">
        <ele>507.2</ele>
        <time>2022-06-25T16:17:18Z</time>
      </trkpt>
      <trkpt lat="46.10748" lon="4.65485">
        <ele>507.2</ele>
        <time>2022-06-25T16:17:20Z</time>
      </trkpt>
      <trkpt lat="46.10748" lon="4.65485">
        <ele>507.2</ele>
        <time>2022-06-25T16:17:22Z</time>
      </trkpt>
      <trkpt lat="46.10748" lon="4.65485">
        <ele>507.4</ele>
        <time>2022-06-25T16:17:25Z</time>
      </trkpt>
      <trkpt lat="46.10748" lon="4.65485">
        <ele>507.4</ele>
        <time>2022-06-25T16:17:27Z</time>
      </trkpt>
      <trkpt lat="46.10747" lon="4.65485">
        <ele>507.4</ele>
        <time>2022-06-25T16:17:28Z</time>
      </trkpt>
      <trkpt lat="46.10747" lon="4.65485">
        <ele>507.4</ele>
        <time>2022-06-25T16:17:30Z</time>
      </trkpt>
      <trkpt lat="46.10747" lon="4.65485">
        <ele>507.4</ele>
        <time>2022-06-25T16:17:33Z</time>
      </trkpt>
      <trkpt lat="46.10747" lon="4.65485">
        <ele>507.6</ele>
        <time>2022-06-25T16:17:35Z</time>
      </trkpt>
      <trkpt lat="46.10747" lon="4.65485">
        <ele>507.6</ele>
        <time>2022-06-25T16:17:37Z</time>
      </trkpt>
      <trkpt lat="46.10746" lon="4.65485">
        <ele>507.6</ele>
        <time>2022-06-25T16:17:40Z</time>
      </trkpt>
      <trkpt lat="46.10746" lon="4.65485">
        <ele>507.6</ele>
        <time>2022-06-25T16:17:41Z</time>
      </trkpt>
      <trkpt lat="46.10746" lon="4.65485">
        <ele>507.6</ele>
        <time>2022-06-25T16:17:43Z</time>
      </trkpt>
      <trkpt lat="46.10746" lon="4.65485">
        <ele>507.6</ele>
        <time>2022-06-25T16:17:45Z</time>
      </trkpt>
      <trkpt lat="46.10746" lon="4.65485">
        <ele>507.8</ele>
        <time>2022-06-25T16:17:48Z</time>
      </trkpt>
      <trkpt lat="46.10746" lon="4.65485">
        <ele>507.8</ele>
        <time>2022-06-25T16:17:50Z</time>
      </trkpt>
      <trkpt lat="46.10745" lon="4.65485">
        <ele>507.8</ele>
        <time>2022-06-25T16:17:51Z</time>
      </trkpt>
      <trkpt lat="46.10745" lon="4.65485">
        <ele>507.8</ele>
        <time>2022-06-25T16:17:53Z</time>
      </trkpt>
      <trkpt lat="46.10745" lon="4.65485">
        <ele>507.8</ele>
        <time>2022-06-25T16:17:59Z</time>
      </trkpt>
      <trkpt lat="46.10745" lon="4.65485">
        <ele>507.8</ele>
        <time>2022-06-25T16:18:01Z</time>
      </trkpt>
      <trkpt lat="46.10745" lon="4.65485">
        <ele>507.8</ele>
        <time>2022-06-25T16:18:03Z</time>
      </trkpt>
      <trkpt lat="46.10744" lon="4.65485">
        <ele>507.8</ele>
        <time>2022-06-25T16:18:06Z</time>
      </trkpt>
      <trkpt lat="46.10744" lon="4.65485">
        <ele>507.8</ele>
        <time>2022-06-25T16:18:07Z</time>
      </trkpt>
      <trkpt lat="46.10744" lon="4.65485">
        <ele>507.8</ele>
        <time>2022-06-25T16:18:09Z</time>
      </trkpt>
      <trkpt lat="46.10744" lon="4.65485">
        <ele>507.8</ele>
        <time>2022-06-25T16:18:11Z</time>
      </trkpt>
      <trkpt lat="46.10744" lon="4.65485">
        <ele>507.8</ele>
        <time>2022-06-25T16:18:14Z</time>
      </trkpt>
      <trkpt lat="46.10744" lon="4.65485">
        <ele>508.2</ele>
        <time>2022-06-25T16:18:16Z</time>
      </trkpt>
      <trkpt lat="46.10743" lon="4.65485">
        <ele>508.2</ele>
        <time>2022-06-25T16:18:17Z</time>
      </trkpt>
      <trkpt lat="46.10743" lon="4.65485">
        <ele>508.2</ele>
        <time>2022-06-25T16:18:19Z</time>
      </trkpt>
      <trkpt lat="46.10743" lon="4.65485">
        <ele>508.2</ele>
        <time>2022-06-25T16:18:22Z</time>
      </trkpt>
      <trkpt lat="46.10743" lon="4.65485">
        <ele>508.2</ele>
        <time>2022-06-25T16:18:25Z</time>
      </trkpt>
      <trkpt lat="46.10743" lon="4.65485">
        <ele>508.2</ele>
        <time>2022-06-25T16:18:27Z</time>
      </trkpt>
      <trkpt lat="46.10742" lon="4.65485">
        <ele>508.2</ele>
        <time>2022-06-25T16:18:29Z</time>
      </trkpt>
      <trkpt lat="46.10742" lon="4.65485">
        <ele>508.2</ele>
        <time>2022-06-25T16:18:31Z</time>
      </trkpt>
      <trkpt lat="46.10742" lon="4.65485">
        <ele>508.2</ele>
        <time>2022-06-25T16:18:33Z</time>
      </trkpt>
      <trkpt lat="46.10742" lon="4.65485">
        <ele>508.2</ele>
        <time>2022-06-25T16:18:35Z</time>
      </trkpt>
      <trkpt lat="46.10742" lon="4.65485">
        <ele>508.2</ele>
        <time>2022-06-25T16:18:37Z</time>
      </trkpt>
      <trkpt lat="46.10742" lon="4.65485">
        <ele>508.2</ele>
        <time>2022-06-25T16:18:40Z</time>
      </trkpt>
      <trkpt lat="46.10741" lon="4.65485">
        <ele>508.2</ele>
        <time>2022-06-25T16:18:41Z</time>
      </trkpt>
      <trkpt lat="46.10741" lon="4.65485">
        <ele>508.2</ele>
        <time>2022-06-25T16:18:43Z</time>
      </trkpt>
      <trkpt lat="46.10741" lon="4.65485">
        <ele>508.2</ele>
        <time>2022-06-25T16:18:45Z</time>
      </trkpt>
      <trkpt lat="46.10741" lon="4.65485">
        <ele>508.2</ele>
        <time>2022-06-25T16:18:49Z</time>
      </trkpt>
      <trkpt lat="46.10741" lon="4.65485">
        <ele>508.2</ele>
        <time>2022-06-25T16:18:56Z</time>
      </trkpt>
      <trkpt lat="46.1074" lon="4.65485">
        <ele>508.2</ele>
        <time>2022-06-25T16:18:58Z</time>
      </trkpt>
      <trkpt lat="46.1074" lon="4.65485">
        <ele>508.2</ele>
        <time>2022-06-25T16:18:59Z</time>
      </trkpt>
      <trkpt lat="46.1074" lon="4.65485">
        <ele>508.2</ele>
        <time>2022-06-25T16:19:02Z</time>
      </trkpt>
      <trkpt lat="46.1074" lon="4.65484">
        <ele>508.2</ele>
        <time>2022-06-25T16:19:04Z</time>
      </trkpt>
      <trkpt lat="46.1074" lon="4.65484">
        <ele>508.2</ele>
        <time>2022-06-25T16:19:05Z</time>
      </trkpt>
      <trkpt lat="46.1074" lon="4.65485">
        <ele>508.2</ele>
        <time>2022-06-25T16:19:12Z</time>
      </trkpt>
      <trkpt lat="46.1074" lon="4.65485">
        <ele>508.2</ele>
        <time>2022-06-25T16:19:22Z</time>
      </trkpt>
      <trkpt lat="46.1074" lon="4.65485">
        <ele>508.2</ele>
        <time>2022-06-25T16:19:41Z</time>
      </trkpt>
      <trkpt lat="46.1074" lon="4.65485">
        <ele>508.2</ele>
        <time>2022-06-25T16:19:52Z</time>
      </trkpt>
      <trkpt lat="46.1074" lon="4.65485">
        <ele>508.2</ele>
        <time>2022-06-25T16:19:54Z</time>
      </trkpt>
      <trkpt lat="46.1074" lon="4.65485">
        <ele>508.2</ele>
        <time>2022-06-25T16:20:11Z</time>
      </trkpt>
      <trkpt lat="46.10739" lon="4.65485">
        <ele>508.2</ele>
        <time>2022-06-25T16:20:14Z</time>
      </trkpt>
      <trkpt lat="46.10739" lon="4.65485">
        <ele>508.2</ele>
        <time>2022-06-25T16:20:23Z</time>
      </trkpt>
      <trkpt lat="46.10739" lon="4.65486">
        <ele>508.2</ele>
        <time>2022-06-25T16:20:32Z</time>
      </trkpt>
      <trkpt lat="46.10739" lon="4.65486">
        <ele>508.2</ele>
        <time>2022-06-25T16:20:40Z</time>
      </trkpt>
      <trkpt lat="46.10739" lon="4.65486">
        <ele>508.4</ele>
        <time>2022-06-25T16:20:50Z</time>
      </trkpt>
      <trkpt lat="46.10739" lon="4.65486">
        <ele>508.4</ele>
        <time>2022-06-25T16:21:00Z</time>
      </trkpt>
      <trkpt lat="46.10739" lon="4.65486">
        <ele>508.6</ele>
        <time>2022-06-25T16:21:06Z</time>
      </trkpt>
      <trkpt lat="46.10739" lon="4.65486">
        <ele>508.6</ele>
        <time>2022-06-25T16:21:15Z</time>
      </trkpt>
      <trkpt lat="46.10739" lon="4.65486">
        <ele>508.6</ele>
        <time>2022-06-25T16:21:27Z</time>
      </trkpt>
      <trkpt lat="46.10739" lon="4.65486">
        <ele>508.6</ele>
        <time>2022-06-25T16:21:33Z</time>
      </trkpt>
      <trkpt lat="46.10739" lon="4.65487">
        <ele>508.6</ele>
        <time>2022-06-25T16:21:39Z</time>
      </trkpt>
      <trkpt lat="46.10739" lon="4.65487">
        <ele>508.6</ele>
        <time>2022-06-25T16:21:52Z</time>
      </trkpt>
      <trkpt lat="46.10739" lon="4.65487">
        <ele>508.6</ele>
        <time>2022-06-25T16:22:00Z</time>
      </trkpt>
      <trkpt lat="46.10739" lon="4.65487">
        <ele>508.8</ele>
        <time>2022-06-25T16:22:11Z</time>
      </trkpt>
      <trkpt lat="46.10739" lon="4.65487">
        <ele>508.6</ele>
        <time>2022-06-25T16:22:23Z</time>
      </trkpt>
      <trkpt lat="46.10739" lon="4.65487">
        <ele>508.4</ele>
        <time>2022-06-25T16:22:35Z</time>
      </trkpt>
      <trkpt lat="46.10739" lon="4.65487">
        <ele>508.4</ele>
        <time>2022-06-25T16:22:42Z</time>
      </trkpt>
      <trkpt lat="46.10739" lon="4.65488">
        <ele>508.4</ele>
        <time>2022-06-25T16:22:48Z</time>
      </trkpt>
      <trkpt lat="46.10738" lon="4.65488">
        <ele>508.4</ele>
        <time>2022-06-25T16:22:49Z</time>
      </trkpt>
      <trkpt lat="46.10738" lon="4.65488">
        <ele>508.4</ele>
        <time>2022-06-25T16:23:00Z</time>
      </trkpt>
      <trkpt lat="46.10738" lon="4.65488">
        <ele>508</ele>
        <time>2022-06-25T16:23:06Z</time>
      </trkpt>
      <trkpt lat="46.10738" lon="4.65488">
        <ele>507.8</ele>
        <time>2022-06-25T16:23:16Z</time>
      </trkpt>
      <trkpt lat="46.10738" lon="4.65488">
        <ele>507.6</ele>
        <time>2022-06-25T16:23:24Z</time>
      </trkpt>
      <trkpt lat="46.10738" lon="4.65488">
        <ele>507.6</ele>
        <time>2022-06-25T16:23:36Z</time>
      </trkpt>
      <trkpt lat="46.10738" lon="4.65488">
        <ele>507.6</ele>
        <time>2022-06-25T16:23:44Z</time>
      </trkpt>
      <trkpt lat="46.10738" lon="4.65489">
        <ele>507.6</ele>
        <time>2022-06-25T16:23:52Z</time>
      </trkpt>
      <trkpt lat="46.10738" lon="4.65489">
        <ele>507.4</ele>
        <time>2022-06-25T16:23:57Z</time>
      </trkpt>
      <trkpt lat="46.10738" lon="4.65489">
        <ele>507.4</ele>
        <time>2022-06-25T16:24:03Z</time>
      </trkpt>
      <trkpt lat="46.10738" lon="4.65489">
        <ele>507.2</ele>
        <time>2022-06-25T16:24:15Z</time>
      </trkpt>
      <trkpt lat="46.10738" lon="4.65489">
        <ele>507</ele>
        <time>2022-06-25T16:24:27Z</time>
      </trkpt>
      <trkpt lat="46.10738" lon="4.65489">
        <ele>507</ele>
        <time>2022-06-25T16:24:30Z</time>
      </trkpt>
      <trkpt lat="46.10738" lon="4.65489">
        <ele>507.2</ele>
        <time>2022-06-25T16:24:50Z</time>
      </trkpt>
      <trkpt lat="46.10738" lon="4.65489">
        <ele>507</ele>
        <time>2022-06-25T16:24:56Z</time>
      </trkpt>
      <trkpt lat="46.10738" lon="4.6549">
        <ele>506.8</ele>
        <time>2022-06-25T16:25:06Z</time>
      </trkpt>
      <trkpt lat="46.10738" lon="4.6549">
        <ele>506.8</ele>
        <time>2022-06-25T16:25:12Z</time>
      </trkpt>
      <trkpt lat="46.10737" lon="4.6549">
        <ele>507</ele>
        <time>2022-06-25T16:25:28Z</time>
      </trkpt>
      <trkpt lat="46.10737" lon="4.6549">
        <ele>507</ele>
        <time>2022-06-25T16:25:32Z</time>
      </trkpt>
      <trkpt lat="46.10737" lon="4.6549">
        <ele>506.8</ele>
        <time>2022-06-25T16:25:42Z</time>
      </trkpt>
      <trkpt lat="46.10737" lon="4.6549">
        <ele>507</ele>
        <time>2022-06-25T16:25:48Z</time>
      </trkpt>
      <trkpt lat="46.10737" lon="4.6549">
        <ele>507</ele>
        <time>2022-06-25T16:25:57Z</time>
      </trkpt>
      <trkpt lat="46.10737" lon="4.6549">
        <ele>507</ele>
        <time>2022-06-25T16:26:06Z</time>
      </trkpt>
      <trkpt lat="46.10737" lon="4.65491">
        <ele>506.6</ele>
        <time>2022-06-25T16:26:12Z</time>
      </trkpt>
      <trkpt lat="46.10737" lon="4.65491">
        <ele>506.6</ele>
        <time>2022-06-25T16:26:18Z</time>
      </trkpt>
      <trkpt lat="46.10737" lon="4.65491">
        <ele>506.8</ele>
        <time>2022-06-25T16:26:53Z</time>
      </trkpt>
      <trkpt lat="46.10737" lon="4.65491">
        <ele>506.8</ele>
        <time>2022-06-25T16:27:01Z</time>
      </trkpt>
      <trkpt lat="46.10737" lon="4.65491">
        <ele>506.8</ele>
        <time>2022-06-25T16:27:11Z</time>
      </trkpt>
      <trkpt lat="46.10737" lon="4.65491">
        <ele>506.4</ele>
        <time>2022-06-25T16:27:17Z</time>
      </trkpt>
      <trkpt lat="46.10737" lon="4.65491">
        <ele>507</ele>
        <time>2022-06-25T16:27:28Z</time>
      </trkpt>
      <trkpt lat="46.10737" lon="4.65492">
        <ele>507.4</ele>
        <time>2022-06-25T16:27:35Z</time>
      </trkpt>
      <trkpt lat="46.10737" lon="4.65492">
        <ele>507.4</ele>
        <time>2022-06-25T16:27:41Z</time>
      </trkpt>
      <trkpt lat="46.10737" lon="4.65492">
        <ele>508</ele>
        <time>2022-06-25T16:27:48Z</time>
      </trkpt>
      <trkpt lat="46.10737" lon="4.65492">
        <ele>508.2</ele>
        <time>2022-06-25T16:27:56Z</time>
      </trkpt>
      <trkpt lat="46.10737" lon="4.65492">
        <ele>508.4</ele>
        <time>2022-06-25T16:28:11Z</time>
      </trkpt>
      <trkpt lat="46.10736" lon="4.65492">
        <ele>508.6</ele>
        <time>2022-06-25T16:28:15Z</time>
      </trkpt>
      <trkpt lat="46.10736" lon="4.65492">
        <ele>508.4</ele>
        <time>2022-06-25T16:28:23Z</time>
      </trkpt>
      <trkpt lat="46.10736" lon="4.65492">
        <ele>508.6</ele>
        <time>2022-06-25T16:28:39Z</time>
      </trkpt>
      <trkpt lat="46.10736" lon="4.65493">
        <ele>508.6</ele>
        <time>2022-06-25T16:28:46Z</time>
      </trkpt>
      <trkpt lat="46.10736" lon="4.65493">
        <ele>509.2</ele>
        <time>2022-06-25T16:28:48Z</time>
      </trkpt>
      <trkpt lat="46.10736" lon="4.65493">
        <ele>509</ele>
        <time>2022-06-25T16:28:58Z</time>
      </trkpt>
      <trkpt lat="46.10736" lon="4.65493">
        <ele>509.2</ele>
        <time>2022-06-25T16:29:04Z</time>
      </trkpt>
      <trkpt lat="46.10736" lon="4.65493">
        <ele>509.6</ele>
        <time>2022-06-25T16:29:16Z</time>
      </trkpt>
      <trkpt lat="46.10736" lon="4.65493">
        <ele>509.8</ele>
        <time>2022-06-25T16:29:23Z</time>
      </trkpt>
      <trkpt lat="46.10736" lon="4.65493">
        <ele>509.6</ele>
        <time>2022-06-25T16:29:30Z</time>
      </trkpt>
      <trkpt lat="46.10736" lon="4.65493">
        <ele>509.4</ele>
        <time>2022-06-25T16:29:44Z</time>
      </trkpt>
      <trkpt lat="46.10736" lon="4.65494">
        <ele>509.6</ele>
        <time>2022-06-25T16:30:03Z</time>
      </trkpt>
      <trkpt lat="46.10736" lon="4.65494">
        <ele>509</ele>
        <time>2022-06-25T16:30:16Z</time>
      </trkpt>
      <trkpt lat="46.10736" lon="4.65494">
        <ele>509</ele>
        <time>2022-06-25T16:30:22Z</time>
      </trkpt>
      <trkpt lat="46.10736" lon="4.65494">
        <ele>508.8</ele>
        <time>2022-06-25T16:30:54Z</time>
      </trkpt>
      <trkpt lat="46.10736" lon="4.65494">
        <ele>508.6</ele>
        <time>2022-06-25T16:31:23Z</time>
      </trkpt>
      <trkpt lat="46.10736" lon="4.65494">
        <ele>509</ele>
        <time>2022-06-25T16:31:31Z</time>
      </trkpt>
      <trkpt lat="46.10736" lon="4.65494">
        <ele>508</ele>
        <time>2022-06-25T16:32:06Z</time>
      </trkpt>
      <trkpt lat="46.10735" lon="4.65494">
        <ele>508</ele>
        <time>2022-06-25T16:32:09Z</time>
      </trkpt>
      <trkpt lat="46.10735" lon="4.65495">
        <ele>507.8</ele>
        <time>2022-06-25T16:32:18Z</time>
      </trkpt>
      <trkpt lat="46.10735" lon="4.65495">
        <ele>508</ele>
        <time>2022-06-25T16:32:30Z</time>
      </trkpt>
      <trkpt lat="46.10735" lon="4.65495">
        <ele>508</ele>
        <time>2022-06-25T16:32:47Z</time>
      </trkpt>
      <trkpt lat="46.10735" lon="4.65495">
        <ele>507.6</ele>
        <time>2022-06-25T16:33:18Z</time>
      </trkpt>
      <trkpt lat="46.10735" lon="4.65495">
        <ele>507.6</ele>
        <time>2022-06-25T16:33:26Z</time>
      </trkpt>
      <trkpt lat="46.10735" lon="4.65495">
        <ele>507.8</ele>
        <time>2022-06-25T16:33:42Z</time>
      </trkpt>
      <trkpt lat="46.10735" lon="4.65495">
        <ele>507.8</ele>
        <time>2022-06-25T16:33:50Z</time>
      </trkpt>
      <trkpt lat="46.10735" lon="4.65495">
        <ele>507.4</ele>
        <time>2022-06-25T16:33:59Z</time>
      </trkpt>
      <trkpt lat="46.10735" lon="4.65495">
        <ele>508</ele>
        <time>2022-06-25T16:34:09Z</time>
      </trkpt>
      <trkpt lat="46.10735" lon="4.65495">
        <ele>508</ele>
        <time>2022-06-25T16:34:14Z</time>
      </trkpt>
      <trkpt lat="46.10735" lon="4.65495">
        <ele>508.6</ele>
        <time>2022-06-25T16:34:22Z</time>
      </trkpt>
      <trkpt lat="46.10735" lon="4.65495">
        <ele>508.6</ele>
        <time>2022-06-25T16:34:26Z</time>
      </trkpt>
      <trkpt lat="46.10735" lon="4.65494">
        <ele>508.6</ele>
        <time>2022-06-25T16:34:28Z</time>
      </trkpt>
      <trkpt lat="46.10735" lon="4.65494">
        <ele>508.2</ele>
        <time>2022-06-25T16:34:33Z</time>
      </trkpt>
      <trkpt lat="46.10735" lon="4.65494">
        <ele>508.2</ele>
        <time>2022-06-25T16:34:38Z</time>
      </trkpt>
      <trkpt lat="46.10735" lon="4.65494">
        <ele>508.4</ele>
        <time>2022-06-25T16:34:41Z</time>
      </trkpt>
      <trkpt lat="46.10735" lon="4.65494">
        <ele>508.4</ele>
        <time>2022-06-25T16:34:45Z</time>
      </trkpt>
      <trkpt lat="46.10735" lon="4.65494">
        <ele>508.6</ele>
        <time>2022-06-25T16:34:50Z</time>
      </trkpt>
      <trkpt lat="46.10736" lon="4.65494">
        <ele>509</ele>
        <time>2022-06-25T16:34:51Z</time>
      </trkpt>
      <trkpt lat="46.10736" lon="4.65493">
        <ele>509</ele>
        <time>2022-06-25T16:34:53Z</time>
      </trkpt>
      <trkpt lat="46.10736" lon="4.65493">
        <ele>508.8</ele>
        <time>2022-06-25T16:34:58Z</time>
      </trkpt>
      <trkpt lat="46.10736" lon="4.65493">
        <ele>509</ele>
        <time>2022-06-25T16:35:01Z</time>
      </trkpt>
      <trkpt lat="46.10736" lon="4.65493">
        <ele>508.6</ele>
        <time>2022-06-25T16:35:05Z</time>
      </trkpt>
      <trkpt lat="46.10736" lon="4.65493">
        <ele>508.4</ele>
        <time>2022-06-25T16:35:10Z</time>
      </trkpt>
      <trkpt lat="46.10736" lon="4.65493">
        <ele>508.4</ele>
        <time>2022-06-25T16:35:12Z</time>
      </trkpt>
      <trkpt lat="46.10736" lon="4.65492">
        <ele>508</ele>
        <time>2022-06-25T16:35:17Z</time>
      </trkpt>
      <trkpt lat="46.10736" lon="4.65492">
        <ele>508</ele>
        <time>2022-06-25T16:35:21Z</time>
      </trkpt>
      <trkpt lat="46.10736" lon="4.65492">
        <ele>508.4</ele>
        <time>2022-06-25T16:35:24Z</time>
      </trkpt>
      <trkpt lat="46.10736" lon="4.65492">
        <ele>508.2</ele>
        <time>2022-06-25T16:35:29Z</time>
      </trkpt>
      <trkpt lat="46.10736" lon="4.65492">
        <ele>508.2</ele>
        <time>2022-06-25T16:35:33Z</time>
      </trkpt>
      <trkpt lat="46.10736" lon="4.65492">
        <ele>508.6</ele>
        <time>2022-06-25T16:35:36Z</time>
      </trkpt>
      <trkpt lat="46.10736" lon="4.65492">
        <ele>509</ele>
        <time>2022-06-25T16:35:41Z</time>
      </trkpt>
      <trkpt lat="46.10736" lon="4.65491">
        <ele>509</ele>
        <time>2022-06-25T16:35:44Z</time>
      </trkpt>
      <trkpt lat="46.10736" lon="4.65491">
        <ele>509</ele>
        <time>2022-06-25T16:35:46Z</time>
      </trkpt>
      <trkpt lat="46.10736" lon="4.65491">
        <ele>509.6</ele>
        <time>2022-06-25T16:35:51Z</time>
      </trkpt>
      <trkpt lat="46.10736" lon="4.65491">
        <ele>509.2</ele>
        <time>2022-06-25T16:35:54Z</time>
      </trkpt>
      <trkpt lat="46.10736" lon="4.65491">
        <ele>509.2</ele>
        <time>2022-06-25T16:35:59Z</time>
      </trkpt>
      <trkpt lat="46.10736" lon="4.65491">
        <ele>509.6</ele>
        <time>2022-06-25T16:36:03Z</time>
      </trkpt>
      <trkpt lat="46.10736" lon="4.6549">
        <ele>509.2</ele>
        <time>2022-06-25T16:36:08Z</time>
      </trkpt>
      <trkpt lat="46.10736" lon="4.6549">
        <ele>509.2</ele>
        <time>2022-06-25T16:36:11Z</time>
      </trkpt>
      <trkpt lat="46.10736" lon="4.6549">
        <ele>509</ele>
        <time>2022-06-25T16:36:16Z</time>
      </trkpt>
      <trkpt lat="46.10736" lon="4.6549">
        <ele>508.8</ele>
        <time>2022-06-25T16:36:26Z</time>
      </trkpt>
      <trkpt lat="46.10736" lon="4.6549">
        <ele>509</ele>
        <time>2022-06-25T16:36:42Z</time>
      </trkpt>
      <trkpt lat="46.10736" lon="4.6549">
        <ele>508.4</ele>
        <time>2022-06-25T16:36:46Z</time>
      </trkpt>
      <trkpt lat="46.10737" lon="4.65489">
        <ele>508.6</ele>
        <time>2022-06-25T16:36:49Z</time>
      </trkpt>
      <trkpt lat="46.10737" lon="4.65489">
        <ele>508.6</ele>
        <time>2022-06-25T16:36:54Z</time>
      </trkpt>
      <trkpt lat="46.10737" lon="4.65489">
        <ele>508.6</ele>
        <time>2022-06-25T16:36:59Z</time>
      </trkpt>
      <trkpt lat="46.10737" lon="4.65489">
        <ele>508.8</ele>
        <time>2022-06-25T16:37:04Z</time>
      </trkpt>
      <trkpt lat="46.10737" lon="4.65489">
        <ele>508.6</ele>
        <time>2022-06-25T16:37:09Z</time>
      </trkpt>
      <trkpt lat="46.10737" lon="4.65488">
        <ele>508.2</ele>
        <time>2022-06-25T16:37:16Z</time>
      </trkpt>
      <trkpt lat="46.10737" lon="4.65488">
        <ele>508.2</ele>
        <time>2022-06-25T16:37:18Z</time>
      </trkpt>
      <trkpt lat="46.10737" lon="4.65488">
        <ele>507.8</ele>
        <time>2022-06-25T16:37:21Z</time>
      </trkpt>
      <trkpt lat="46.10737" lon="4.65488">
        <ele>507.8</ele>
        <time>2022-06-25T16:37:25Z</time>
      </trkpt>
      <trkpt lat="46.10737" lon="4.65488">
        <ele>507.2</ele>
        <time>2022-06-25T16:37:30Z</time>
      </trkpt>
      <trkpt lat="46.10737" lon="4.65488">
        <ele>507.2</ele>
        <time>2022-06-25T16:37:33Z</time>
      </trkpt>
      <trkpt lat="46.10737" lon="4.65488">
        <ele>507.2</ele>
        <time>2022-06-25T16:37:39Z</time>
      </trkpt>
      <trkpt lat="46.10737" lon="4.65487">
        <ele>507</ele>
        <time>2022-06-25T16:37:44Z</time>
      </trkpt>
      <trkpt lat="46.10737" lon="4.65487">
        <ele>507</ele>
        <time>2022-06-25T16:37:47Z</time>
      </trkpt>
      <trkpt lat="46.10737" lon="4.65487">
        <ele>507.4</ele>
        <time>2022-06-25T16:37:52Z</time>
      </trkpt>
      <trkpt lat="46.10737" lon="4.65487">
        <ele>507.4</ele>
        <time>2022-06-25T16:37:56Z</time>
      </trkpt>
      <trkpt lat="46.10737" lon="4.65487">
        <ele>507</ele>
        <time>2022-06-25T16:38:00Z</time>
      </trkpt>
      <trkpt lat="46.10737" lon="4.65487">
        <ele>507.8</ele>
        <time>2022-06-25T16:38:05Z</time>
      </trkpt>
      <trkpt lat="46.10737" lon="4.65487">
        <ele>507.6</ele>
        <time>2022-06-25T16:38:07Z</time>
      </trkpt>
      <trkpt lat="46.10737" lon="4.65486">
        <ele>507.8</ele>
        <time>2022-06-25T16:38:12Z</time>
      </trkpt>
      <trkpt lat="46.10737" lon="4.65486">
        <ele>507.6</ele>
        <time>2022-06-25T16:38:17Z</time>
      </trkpt>
      <trkpt lat="46.10737" lon="4.65486">
        <ele>507.6</ele>
        <time>2022-06-25T16:38:19Z</time>
      </trkpt>
      <trkpt lat="46.10737" lon="4.65486">
        <ele>508.2</ele>
        <time>2022-06-25T16:38:24Z</time>
      </trkpt>
      <trkpt lat="46.10737" lon="4.65486">
        <ele>508.2</ele>
        <time>2022-06-25T16:38:28Z</time>
      </trkpt>
      <trkpt lat="46.10737" lon="4.65486">
        <ele>508</ele>
        <time>2022-06-25T16:38:31Z</time>
      </trkpt>
      <trkpt lat="46.10737" lon="4.65485">
        <ele>507.6</ele>
        <time>2022-06-25T16:38:38Z</time>
      </trkpt>
      <trkpt lat="46.10738" lon="4.65485">
        <ele>507.6</ele>
        <time>2022-06-25T16:38:40Z</time>
      </trkpt>
      <trkpt lat="46.10738" lon="4.65485">
        <ele>507.6</ele>
        <time>2022-06-25T16:38:43Z</time>
      </trkpt>
      <trkpt lat="46.10738" lon="4.65485">
        <ele>508.2</ele>
        <time>2022-06-25T16:38:48Z</time>
      </trkpt>
      <trkpt lat="46.10738" lon="4.65485">
        <ele>507.8</ele>
        <time>2022-06-25T16:38:53Z</time>
      </trkpt>
      <trkpt lat="46.10738" lon="4.65485">
        <ele>508</ele>
        <time>2022-06-25T16:38:58Z</time>
      </trkpt>
      <trkpt lat="46.10738" lon="4.65484">
        <ele>508.4</ele>
        <time>2022-06-25T16:39:03Z</time>
      </trkpt>
      <trkpt lat="46.10738" lon="4.65484">
        <ele>508.8</ele>
        <time>2022-06-25T16:39:05Z</time>
      </trkpt>
      <trkpt lat="46.10738" lon="4.65484">
        <ele>508.8</ele>
        <time>2022-06-25T16:39:10Z</time>
      </trkpt>
      <trkpt lat="46.10738" lon="4.65484">
        <ele>508.8</ele>
        <time>2022-06-25T16:39:15Z</time>
      </trkpt>
      <trkpt lat="46.10738" lon="4.65484">
        <ele>507.8</ele>
        <time>2022-06-25T16:39:20Z</time>
      </trkpt>
      <trkpt lat="46.10738" lon="4.65484">
        <ele>507.8</ele>
        <time>2022-06-25T16:39:25Z</time>
      </trkpt>
      <trkpt lat="46.10738" lon="4.65483">
        <ele>508.2</ele>
        <time>2022-06-25T16:39:27Z</time>
      </trkpt>
      <trkpt lat="46.10738" lon="4.65483">
        <ele>509</ele>
        <time>2022-06-25T16:39:32Z</time>
      </trkpt>
      <trkpt lat="46.10738" lon="4.65483">
        <ele>509</ele>
        <time>2022-06-25T16:39:36Z</time>
      </trkpt>
      <trkpt lat="46.10738" lon="4.65483">
        <ele>508.8</ele>
        <time>2022-06-25T16:40:08Z</time>
      </trkpt>
      <trkpt lat="46.10738" lon="4.65483">
        <ele>509.6</ele>
        <time>2022-06-25T16:40:48Z</time>
      </trkpt>
      <trkpt lat="46.10738" lon="4.65483">
        <ele>509.4</ele>
        <time>2022-06-25T16:41:20Z</time>
      </trkpt>
      <trkpt lat="46.10738" lon="4.65483">
        <ele>509.6</ele>
        <time>2022-06-25T16:41:58Z</time>
      </trkpt>
      <trkpt lat="46.10738" lon="4.65483">
        <ele>510.2</ele>
        <time>2022-06-25T16:42:30Z</time>
      </trkpt>
      <trkpt lat="46.10738" lon="4.65483">
        <ele>511.4</ele>
        <time>2022-06-25T16:43:08Z</time>
      </trkpt>
      <trkpt lat="46.10738" lon="4.65483">
        <ele>510.6</ele>
        <time>2022-06-25T16:43:43Z</time>
      </trkpt>
      <trkpt lat="46.10738" lon="4.65483">
        <ele>509.6</ele>
        <time>2022-06-25T16:44:16Z</time>
      </trkpt>
      <trkpt lat="46.1073" lon="4.65498">
        <ele>471.4</ele>
        <time>2022-06-25T17:28:12Z</time>
      </trkpt>
      <trkpt lat="46.10729" lon="4.65498">
        <ele>471.4</ele>
        <time>2022-06-25T17:28:16Z</time>
      </trkpt>
      <trkpt lat="46.10729" lon="4.65497">
        <ele>474.2</ele>
        <time>2022-06-25T17:28:18Z</time>
      </trkpt>
      <trkpt lat="46.10728" lon="4.65497">
        <ele>474.2</ele>
        <time>2022-06-25T17:28:19Z</time>
      </trkpt>
      <trkpt lat="46.10727" lon="4.65497">
        <ele>474.2</ele>
        <time>2022-06-25T17:28:20Z</time>
      </trkpt>
      <trkpt lat="46.10725" lon="4.65496">
        <ele>474.2</ele>
        <time>2022-06-25T17:28:21Z</time>
      </trkpt>
      <trkpt lat="46.10723" lon="4.65495">
        <ele>474</ele>
        <time>2022-06-25T17:28:22Z</time>
      </trkpt>
      <trkpt lat="46.10721" lon="4.65494">
        <ele>474</ele>
        <time>2022-06-25T17:28:23Z</time>
      </trkpt>
      <trkpt lat="46.10718" lon="4.65493">
        <ele>474</ele>
        <time>2022-06-25T17:28:24Z</time>
      </trkpt>
      <trkpt lat="46.10715" lon="4.65493">
        <ele>473.6</ele>
        <time>2022-06-25T17:28:25Z</time>
      </trkpt>
      <trkpt lat="46.10711" lon="4.65492">
        <ele>473.4</ele>
        <time>2022-06-25T17:28:26Z</time>
      </trkpt>
      <trkpt lat="46.10707" lon="4.65493">
        <ele>473</ele>
        <time>2022-06-25T17:28:27Z</time>
      </trkpt>
      <trkpt lat="46.10702" lon="4.65493">
        <ele>472.8</ele>
        <time>2022-06-25T17:28:28Z</time>
      </trkpt>
      <trkpt lat="46.10697" lon="4.65494">
        <ele>472.4</ele>
        <time>2022-06-25T17:28:29Z</time>
      </trkpt>
      <trkpt lat="46.10692" lon="4.65494">
        <ele>472.2</ele>
        <time>2022-06-25T17:28:30Z</time>
      </trkpt>
      <trkpt lat="46.10687" lon="4.65494">
        <ele>472</ele>
        <time>2022-06-25T17:28:31Z</time>
      </trkpt>
      <trkpt lat="46.10681" lon="4.65494">
        <ele>471.6</ele>
        <time>2022-06-25T17:28:32Z</time>
      </trkpt>
      <trkpt lat="46.10675" lon="4.65495">
        <ele>471</ele>
        <time>2022-06-25T17:28:33Z</time>
      </trkpt>
      <trkpt lat="46.1067" lon="4.65494">
        <ele>470.8</ele>
        <time>2022-06-25T17:28:34Z</time>
      </trkpt>
      <trkpt lat="46.10665" lon="4.65492">
        <ele>470.2</ele>
        <time>2022-06-25T17:28:35Z</time>
      </trkpt>
      <trkpt lat="46.10661" lon="4.65489">
        <ele>469.8</ele>
        <time>2022-06-25T17:28:36Z</time>
      </trkpt>
      <trkpt lat="46.10657" lon="4.65484">
        <ele>469.8</ele>
        <time>2022-06-25T17:28:37Z</time>
      </trkpt>
      <trkpt lat="46.10654" lon="4.65477">
        <ele>469.6</ele>
        <time>2022-06-25T17:28:38Z</time>
      </trkpt>
      <trkpt lat="46.10652" lon="4.6547">
        <ele>469.2</ele>
        <time>2022-06-25T17:28:39Z</time>
      </trkpt>
      <trkpt lat="46.10652" lon="4.65462">
        <ele>469.2</ele>
        <time>2022-06-25T17:28:40Z</time>
      </trkpt>
      <trkpt lat="46.10652" lon="4.65455">
        <ele>469.2</ele>
        <time>2022-06-25T17:28:41Z</time>
      </trkpt>
      <trkpt lat="46.10654" lon="4.65447">
        <ele>469</ele>
        <time>2022-06-25T17:28:42Z</time>
      </trkpt>
      <trkpt lat="46.10656" lon="4.6544">
        <ele>468.6</ele>
        <time>2022-06-25T17:28:43Z</time>
      </trkpt>
      <trkpt lat="46.10658" lon="4.65433">
        <ele>468.2</ele>
        <time>2022-06-25T17:28:44Z</time>
      </trkpt>
      <trkpt lat="46.10662" lon="4.65425">
        <ele>467.8</ele>
        <time>2022-06-25T17:28:45Z</time>
      </trkpt>
      <trkpt lat="46.10666" lon="4.65418">
        <ele>467.4</ele>
        <time>2022-06-25T17:28:46Z</time>
      </trkpt>
      <trkpt lat="46.1067" lon="4.65411">
        <ele>467</ele>
        <time>2022-06-25T17:28:47Z</time>
      </trkpt>
      <trkpt lat="46.10675" lon="4.65404">
        <ele>466.4</ele>
        <time>2022-06-25T17:28:48Z</time>
      </trkpt>
      <trkpt lat="46.10679" lon="4.65396">
        <ele>465.8</ele>
        <time>2022-06-25T17:28:49Z</time>
      </trkpt>
      <trkpt lat="46.10684" lon="4.65389">
        <ele>465.2</ele>
        <time>2022-06-25T17:28:50Z</time>
      </trkpt>
      <trkpt lat="46.10689" lon="4.65381">
        <ele>464.6</ele>
        <time>2022-06-25T17:28:51Z</time>
      </trkpt>
      <trkpt lat="46.10694" lon="4.65373">
        <ele>464.6</ele>
        <time>2022-06-25T17:28:52Z</time>
      </trkpt>
      <trkpt lat="46.107" lon="4.65366">
        <ele>463.6</ele>
        <time>2022-06-25T17:28:53Z</time>
      </trkpt>
      <trkpt lat="46.10705" lon="4.65358">
        <ele>462.4</ele>
        <time>2022-06-25T17:28:54Z</time>
      </trkpt>
      <trkpt lat="46.1071" lon="4.6535">
        <ele>461.4</ele>
        <time>2022-06-25T17:28:55Z</time>
      </trkpt>
      <trkpt lat="46.10715" lon="4.65342">
        <ele>460.6</ele>
        <time>2022-06-25T17:28:56Z</time>
      </trkpt>
      <trkpt lat="46.1072" lon="4.65335">
        <ele>459.8</ele>
        <time>2022-06-25T17:28:57Z</time>
      </trkpt>
      <trkpt lat="46.10725" lon="4.65329">
        <ele>458.6</ele>
        <time>2022-06-25T17:28:58Z</time>
      </trkpt>
      <trkpt lat="46.10731" lon="4.65323">
        <ele>457.6</ele>
        <time>2022-06-25T17:28:59Z</time>
      </trkpt>
      <trkpt lat="46.10737" lon="4.65317">
        <ele>456.4</ele>
        <time>2022-06-25T17:29:00Z</time>
      </trkpt>
      <trkpt lat="46.10743" lon="4.65312">
        <ele>455.4</ele>
        <time>2022-06-25T17:29:01Z</time>
      </trkpt>
      <trkpt lat="46.10749" lon="4.65308">
        <ele>454.4</ele>
        <time>2022-06-25T17:29:02Z</time>
      </trkpt>
      <trkpt lat="46.10753" lon="4.65303">
        <ele>453.6</ele>
        <time>2022-06-25T17:29:03Z</time>
      </trkpt>
      <trkpt lat="46.10757" lon="4.65298">
        <ele>452.8</ele>
        <time>2022-06-25T17:29:04Z</time>
      </trkpt>
      <trkpt lat="46.10759" lon="4.65292">
        <ele>452.2</ele>
        <time>2022-06-25T17:29:05Z</time>
      </trkpt>
      <trkpt lat="46.1076" lon="4.65286">
        <ele>451.6</ele>
        <time>2022-06-25T17:29:06Z</time>
      </trkpt>
      <trkpt lat="46.1076" lon="4.65278">
        <ele>451.2</ele>
        <time>2022-06-25T17:29:07Z</time>
      </trkpt>
      <trkpt lat="46.10758" lon="4.65271">
        <ele>450.8</ele>
        <time>2022-06-25T17:29:08Z</time>
      </trkpt>
      <trkpt lat="46.10755" lon="4.65265">
        <ele>450.2</ele>
        <time>2022-06-25T17:29:09Z</time>
      </trkpt>
      <trkpt lat="46.10751" lon="4.6526">
        <ele>449.8</ele>
        <time>2022-06-25T17:29:10Z</time>
      </trkpt>
      <trkpt lat="46.10746" lon="4.65257">
        <ele>449.4</ele>
        <time>2022-06-25T17:29:11Z</time>
      </trkpt>
      <trkpt lat="46.10741" lon="4.65256">
        <ele>448.8</ele>
        <time>2022-06-25T17:29:12Z</time>
      </trkpt>
      <trkpt lat="46.10735" lon="4.65258">
        <ele>448.4</ele>
        <time>2022-06-25T17:29:13Z</time>
      </trkpt>
      <trkpt lat="46.10729" lon="4.6526">
        <ele>447.6</ele>
        <time>2022-06-25T17:29:15Z</time>
      </trkpt>
      <trkpt lat="46.10722" lon="4.65262">
        <ele>447</ele>
        <time>2022-06-25T17:29:16Z</time>
      </trkpt>
      <trkpt lat="46.10714" lon="4.65264">
        <ele>446.6</ele>
        <time>2022-06-25T17:29:17Z</time>
      </trkpt>
      <trkpt lat="46.10706" lon="4.65266">
        <ele>446</ele>
        <time>2022-06-25T17:29:18Z</time>
      </trkpt>
      <trkpt lat="46.10698" lon="4.65268">
        <ele>445.4</ele>
        <time>2022-06-25T17:29:19Z</time>
      </trkpt>
      <trkpt lat="46.1069" lon="4.65269">
        <ele>444.8</ele>
        <time>2022-06-25T17:29:20Z</time>
      </trkpt>
      <trkpt lat="46.10682" lon="4.6527">
        <ele>444</ele>
        <time>2022-06-25T17:29:21Z</time>
      </trkpt>
      <trkpt lat="46.10674" lon="4.6527">
        <ele>443.2</ele>
        <time>2022-06-25T17:29:22Z</time>
      </trkpt>
      <trkpt lat="46.10666" lon="4.6527">
        <ele>442.4</ele>
        <time>2022-06-25T17:29:23Z</time>
      </trkpt>
      <trkpt lat="46.10659" lon="4.6527">
        <ele>441.6</ele>
        <time>2022-06-25T17:29:24Z</time>
      </trkpt>
      <trkpt lat="46.10652" lon="4.65268">
        <ele>441</ele>
        <time>2022-06-25T17:29:25Z</time>
      </trkpt>
      <trkpt lat="46.10644" lon="4.65268">
        <ele>440.4</ele>
        <time>2022-06-25T17:29:26Z</time>
      </trkpt>
      <trkpt lat="46.10636" lon="4.65268">
        <ele>439.8</ele>
        <time>2022-06-25T17:29:27Z</time>
      </trkpt>
      <trkpt lat="46.10628" lon="4.65269">
        <ele>439.2</ele>
        <time>2022-06-25T17:29:28Z</time>
      </trkpt>
      <trkpt lat="46.10619" lon="4.65272">
        <ele>438.6</ele>
        <time>2022-06-25T17:29:29Z</time>
      </trkpt>
      <trkpt lat="46.10611" lon="4.65275">
        <ele>438.2</ele>
        <time>2022-06-25T17:29:30Z</time>
      </trkpt>
      <trkpt lat="46.10602" lon="4.6528">
        <ele>438</ele>
        <time>2022-06-25T17:29:31Z</time>
      </trkpt>
      <trkpt lat="46.10594" lon="4.65285">
        <ele>437.6</ele>
        <time>2022-06-25T17:29:32Z</time>
      </trkpt>
      <trkpt lat="46.10586" lon="4.65289">
        <ele>437</ele>
        <time>2022-06-25T17:29:33Z</time>
      </trkpt>
      <trkpt lat="46.10579" lon="4.65293">
        <ele>436.6</ele>
        <time>2022-06-25T17:29:34Z</time>
      </trkpt>
      <trkpt lat="46.10573" lon="4.65296">
        <ele>436.2</ele>
        <time>2022-06-25T17:29:35Z</time>
      </trkpt>
      <trkpt lat="46.10567" lon="4.65299">
        <ele>435.8</ele>
        <time>2022-06-25T17:29:36Z</time>
      </trkpt>
      <trkpt lat="46.10561" lon="4.65301">
        <ele>435.4</ele>
        <time>2022-06-25T17:29:37Z</time>
      </trkpt>
      <trkpt lat="46.10555" lon="4.65303">
        <ele>435</ele>
        <time>2022-06-25T17:29:38Z</time>
      </trkpt>
      <trkpt lat="46.1055" lon="4.65306">
        <ele>434.4</ele>
        <time>2022-06-25T17:29:39Z</time>
      </trkpt>
      <trkpt lat="46.10544" lon="4.6531">
        <ele>434</ele>
        <time>2022-06-25T17:29:40Z</time>
      </trkpt>
      <trkpt lat="46.10539" lon="4.65314">
        <ele>433.6</ele>
        <time>2022-06-25T17:29:41Z</time>
      </trkpt>
      <trkpt lat="46.10533" lon="4.65318">
        <ele>433</ele>
        <time>2022-06-25T17:29:42Z</time>
      </trkpt>
      <trkpt lat="46.10528" lon="4.65323">
        <ele>432.4</ele>
        <time>2022-06-25T17:29:43Z</time>
      </trkpt>
      <trkpt lat="46.10524" lon="4.65328">
        <ele>431.8</ele>
        <time>2022-06-25T17:29:44Z</time>
      </trkpt>
      <trkpt lat="46.10519" lon="4.65333">
        <ele>431.2</ele>
        <time>2022-06-25T17:29:45Z</time>
      </trkpt>
      <trkpt lat="46.10515" lon="4.65338">
        <ele>430.8</ele>
        <time>2022-06-25T17:29:46Z</time>
      </trkpt>
      <trkpt lat="46.10512" lon="4.65342">
        <ele>430</ele>
        <time>2022-06-25T17:29:47Z</time>
      </trkpt>
      <trkpt lat="46.10509" lon="4.65347">
        <ele>429.4</ele>
        <time>2022-06-25T17:29:48Z</time>
      </trkpt>
      <trkpt lat="46.10507" lon="4.65352">
        <ele>428.6</ele>
        <time>2022-06-25T17:29:49Z</time>
      </trkpt>
      <trkpt lat="46.10504" lon="4.65358">
        <ele>427.8</ele>
        <time>2022-06-25T17:29:50Z</time>
      </trkpt>
      <trkpt lat="46.10502" lon="4.65364">
        <ele>427.2</ele>
        <time>2022-06-25T17:29:51Z</time>
      </trkpt>
      <trkpt lat="46.10501" lon="4.65371">
        <ele>426.4</ele>
        <time>2022-06-25T17:29:52Z</time>
      </trkpt>
      <trkpt lat="46.105" lon="4.65378">
        <ele>425.8</ele>
        <time>2022-06-25T17:29:53Z</time>
      </trkpt>
      <trkpt lat="46.10498" lon="4.65385">
        <ele>425.2</ele>
        <time>2022-06-25T17:29:54Z</time>
      </trkpt>
      <trkpt lat="46.10498" lon="4.65393">
        <ele>424.8</ele>
        <time>2022-06-25T17:29:55Z</time>
      </trkpt>
      <trkpt lat="46.10498" lon="4.65402">
        <ele>424.2</ele>
        <time>2022-06-25T17:29:56Z</time>
      </trkpt>
      <trkpt lat="46.10499" lon="4.65411">
        <ele>423.6</ele>
        <time>2022-06-25T17:29:57Z</time>
      </trkpt>
      <trkpt lat="46.105" lon="4.6542">
        <ele>423</ele>
        <time>2022-06-25T17:29:58Z</time>
      </trkpt>
      <trkpt lat="46.10502" lon="4.65429">
        <ele>422.8</ele>
        <time>2022-06-25T17:29:59Z</time>
      </trkpt>
      <trkpt lat="46.10504" lon="4.65437">
        <ele>422.6</ele>
        <time>2022-06-25T17:30:00Z</time>
      </trkpt>
      <trkpt lat="46.10506" lon="4.65445">
        <ele>422.2</ele>
        <time>2022-06-25T17:30:01Z</time>
      </trkpt>
      <trkpt lat="46.10508" lon="4.65452">
        <ele>421.8</ele>
        <time>2022-06-25T17:30:02Z</time>
      </trkpt>
      <trkpt lat="46.1051" lon="4.65459">
        <ele>421.4</ele>
        <time>2022-06-25T17:30:03Z</time>
      </trkpt>
      <trkpt lat="46.10511" lon="4.65466">
        <ele>421</ele>
        <time>2022-06-25T17:30:04Z</time>
      </trkpt>
      <trkpt lat="46.10511" lon="4.65472">
        <ele>420.4</ele>
        <time>2022-06-25T17:30:05Z</time>
      </trkpt>
      <trkpt lat="46.10511" lon="4.65478">
        <ele>419.8</ele>
        <time>2022-06-25T17:30:06Z</time>
      </trkpt>
      <trkpt lat="46.1051" lon="4.65484">
        <ele>419.4</ele>
        <time>2022-06-25T17:30:07Z</time>
      </trkpt>
      <trkpt lat="46.10507" lon="4.6549">
        <ele>418.8</ele>
        <time>2022-06-25T17:30:08Z</time>
      </trkpt>
      <trkpt lat="46.10505" lon="4.65494">
        <ele>418.4</ele>
        <time>2022-06-25T17:30:09Z</time>
      </trkpt>
      <trkpt lat="46.10502" lon="4.65497">
        <ele>417.8</ele>
        <time>2022-06-25T17:30:10Z</time>
      </trkpt>
      <trkpt lat="46.10498" lon="4.65498">
        <ele>417.2</ele>
        <time>2022-06-25T17:30:11Z</time>
      </trkpt>
      <trkpt lat="46.10494" lon="4.65497">
        <ele>416.8</ele>
        <time>2022-06-25T17:30:12Z</time>
      </trkpt>
      <trkpt lat="46.1049" lon="4.65493">
        <ele>416.2</ele>
        <time>2022-06-25T17:30:13Z</time>
      </trkpt>
      <trkpt lat="46.10486" lon="4.65487">
        <ele>415.6</ele>
        <time>2022-06-25T17:30:14Z</time>
      </trkpt>
      <trkpt lat="46.10483" lon="4.65479">
        <ele>415</ele>
        <time>2022-06-25T17:30:15Z</time>
      </trkpt>
      <trkpt lat="46.1048" lon="4.6547">
        <ele>414.6</ele>
        <time>2022-06-25T17:30:16Z</time>
      </trkpt>
      <trkpt lat="46.10477" lon="4.6546">
        <ele>414</ele>
        <time>2022-06-25T17:30:17Z</time>
      </trkpt>
      <trkpt lat="46.10474" lon="4.6545">
        <ele>413.4</ele>
        <time>2022-06-25T17:30:18Z</time>
      </trkpt>
      <trkpt lat="46.10472" lon="4.65439">
        <ele>413</ele>
        <time>2022-06-25T17:30:19Z</time>
      </trkpt>
      <trkpt lat="46.10469" lon="4.65428">
        <ele>412.4</ele>
        <time>2022-06-25T17:30:20Z</time>
      </trkpt>
      <trkpt lat="46.10466" lon="4.65417">
        <ele>411.6</ele>
        <time>2022-06-25T17:30:21Z</time>
      </trkpt>
      <trkpt lat="46.10463" lon="4.65405">
        <ele>411</ele>
        <time>2022-06-25T17:30:22Z</time>
      </trkpt>
      <trkpt lat="46.1046" lon="4.65394">
        <ele>410</ele>
        <time>2022-06-25T17:30:23Z</time>
      </trkpt>
      <trkpt lat="46.10457" lon="4.65383">
        <ele>409.2</ele>
        <time>2022-06-25T17:30:24Z</time>
      </trkpt>
      <trkpt lat="46.10454" lon="4.65373">
        <ele>408.4</ele>
        <time>2022-06-25T17:30:25Z</time>
      </trkpt>
      <trkpt lat="46.10449" lon="4.65356">
        <ele>407</ele>
        <time>2022-06-25T17:30:26Z</time>
      </trkpt>
      <trkpt lat="46.10447" lon="4.65348">
        <ele>406.4</ele>
        <time>2022-06-25T17:30:27Z</time>
      </trkpt>
      <trkpt lat="46.10445" lon="4.65341">
        <ele>405.4</ele>
        <time>2022-06-25T17:30:28Z</time>
      </trkpt>
      <trkpt lat="46.10444" lon="4.65335">
        <ele>404.8</ele>
        <time>2022-06-25T17:30:29Z</time>
      </trkpt>
      <trkpt lat="46.10442" lon="4.65329">
        <ele>404</ele>
        <time>2022-06-25T17:30:30Z</time>
      </trkpt>
      <trkpt lat="46.10441" lon="4.65323">
        <ele>403.4</ele>
        <time>2022-06-25T17:30:31Z</time>
      </trkpt>
      <trkpt lat="46.1044" lon="4.65318">
        <ele>403</ele>
        <time>2022-06-25T17:30:32Z</time>
      </trkpt>
      <trkpt lat="46.10439" lon="4.65314">
        <ele>402.4</ele>
        <time>2022-06-25T17:30:33Z</time>
      </trkpt>
      <trkpt lat="46.10438" lon="4.6531">
        <ele>402</ele>
        <time>2022-06-25T17:30:34Z</time>
      </trkpt>
      <trkpt lat="46.10437" lon="4.65307">
        <ele>401.4</ele>
        <time>2022-06-25T17:30:35Z</time>
      </trkpt>
      <trkpt lat="46.10437" lon="4.65305">
        <ele>400.8</ele>
        <time>2022-06-25T17:30:36Z</time>
      </trkpt>
      <trkpt lat="46.10437" lon="4.65304">
        <ele>400.4</ele>
        <time>2022-06-25T17:30:37Z</time>
      </trkpt>
      <trkpt lat="46.10436" lon="4.65304">
        <ele>399.8</ele>
        <time>2022-06-25T17:30:38Z</time>
      </trkpt>
      <trkpt lat="46.10435" lon="4.65302">
        <ele>399.8</ele>
        <time>2022-06-25T17:30:39Z</time>
      </trkpt>
      <trkpt lat="46.10434" lon="4.653">
        <ele>399.8</ele>
        <time>2022-06-25T17:30:40Z</time>
      </trkpt>
      <trkpt lat="46.10433" lon="4.65296">
        <ele>399.6</ele>
        <time>2022-06-25T17:30:41Z</time>
      </trkpt>
      <trkpt lat="46.10432" lon="4.65292">
        <ele>399.6</ele>
        <time>2022-06-25T17:30:42Z</time>
      </trkpt>
      <trkpt lat="46.10431" lon="4.65286">
        <ele>399.6</ele>
        <time>2022-06-25T17:30:43Z</time>
      </trkpt>
      <trkpt lat="46.1043" lon="4.6528">
        <ele>399.4</ele>
        <time>2022-06-25T17:30:44Z</time>
      </trkpt>
      <trkpt lat="46.10429" lon="4.65273">
        <ele>399</ele>
        <time>2022-06-25T17:30:45Z</time>
      </trkpt>
      <trkpt lat="46.10427" lon="4.65265">
        <ele>398.8</ele>
        <time>2022-06-25T17:30:46Z</time>
      </trkpt>
      <trkpt lat="46.10425" lon="4.65257">
        <ele>398.2</ele>
        <time>2022-06-25T17:30:47Z</time>
      </trkpt>
      <trkpt lat="46.10423" lon="4.65249">
        <ele>397.4</ele>
        <time>2022-06-25T17:30:48Z</time>
      </trkpt>
      <trkpt lat="46.10422" lon="4.65241">
        <ele>396.6</ele>
        <time>2022-06-25T17:30:49Z</time>
      </trkpt>
      <trkpt lat="46.1042" lon="4.65232">
        <ele>396.2</ele>
        <time>2022-06-25T17:30:50Z</time>
      </trkpt>
      <trkpt lat="46.10419" lon="4.65223">
        <ele>395.2</ele>
        <time>2022-06-25T17:30:51Z</time>
      </trkpt>
      <trkpt lat="46.10418" lon="4.65214">
        <ele>394.4</ele>
        <time>2022-06-25T17:30:52Z</time>
      </trkpt>
      <trkpt lat="46.10418" lon="4.65206">
        <ele>393.6</ele>
        <time>2022-06-25T17:30:53Z</time>
      </trkpt>
      <trkpt lat="46.10419" lon="4.65198">
        <ele>392.8</ele>
        <time>2022-06-25T17:30:54Z</time>
      </trkpt>
      <trkpt lat="46.1042" lon="4.65189">
        <ele>392</ele>
        <time>2022-06-25T17:30:55Z</time>
      </trkpt>
      <trkpt lat="46.10423" lon="4.65181">
        <ele>391.2</ele>
        <time>2022-06-25T17:30:56Z</time>
      </trkpt>
      <trkpt lat="46.10426" lon="4.65173">
        <ele>390.4</ele>
        <time>2022-06-25T17:30:57Z</time>
      </trkpt>
      <trkpt lat="46.1043" lon="4.65165">
        <ele>389.8</ele>
        <time>2022-06-25T17:30:58Z</time>
      </trkpt>
      <trkpt lat="46.10434" lon="4.65158">
        <ele>389.2</ele>
        <time>2022-06-25T17:30:59Z</time>
      </trkpt>
      <trkpt lat="46.10439" lon="4.65151">
        <ele>388.4</ele>
        <time>2022-06-25T17:31:00Z</time>
      </trkpt>
      <trkpt lat="46.10444" lon="4.65145">
        <ele>388</ele>
        <time>2022-06-25T17:31:01Z</time>
      </trkpt>
      <trkpt lat="46.1045" lon="4.65139">
        <ele>387.4</ele>
        <time>2022-06-25T17:31:02Z</time>
      </trkpt>
      <trkpt lat="46.10456" lon="4.65132">
        <ele>386.6</ele>
        <time>2022-06-25T17:31:03Z</time>
      </trkpt>
      <trkpt lat="46.10462" lon="4.65125">
        <ele>385.8</ele>
        <time>2022-06-25T17:31:04Z</time>
      </trkpt>
      <trkpt lat="46.10468" lon="4.65117">
        <ele>384.8</ele>
        <time>2022-06-25T17:31:05Z</time>
      </trkpt>
      <trkpt lat="46.10475" lon="4.65109">
        <ele>384</ele>
        <time>2022-06-25T17:31:06Z</time>
      </trkpt>
      <trkpt lat="46.10482" lon="4.65101">
        <ele>383</ele>
        <time>2022-06-25T17:31:07Z</time>
      </trkpt>
      <trkpt lat="46.10489" lon="4.65093">
        <ele>382.2</ele>
        <time>2022-06-25T17:31:08Z</time>
      </trkpt>
      <trkpt lat="46.10495" lon="4.65085">
        <ele>381.2</ele>
        <time>2022-06-25T17:31:09Z</time>
      </trkpt>
      <trkpt lat="46.10502" lon="4.65077">
        <ele>380</ele>
        <time>2022-06-25T17:31:10Z</time>
      </trkpt>
      <trkpt lat="46.10509" lon="4.65068">
        <ele>378.8</ele>
        <time>2022-06-25T17:31:11Z</time>
      </trkpt>
      <trkpt lat="46.10516" lon="4.6506">
        <ele>377.8</ele>
        <time>2022-06-25T17:31:12Z</time>
      </trkpt>
      <trkpt lat="46.10523" lon="4.65052">
        <ele>376.8</ele>
        <time>2022-06-25T17:31:13Z</time>
      </trkpt>
      <trkpt lat="46.10531" lon="4.65045">
        <ele>375.8</ele>
        <time>2022-06-25T17:31:14Z</time>
      </trkpt>
      <trkpt lat="46.10538" lon="4.65036">
        <ele>374.8</ele>
        <time>2022-06-25T17:31:15Z</time>
      </trkpt>
      <trkpt lat="46.10546" lon="4.65029">
        <ele>374</ele>
        <time>2022-06-25T17:31:16Z</time>
      </trkpt>
      <trkpt lat="46.10553" lon="4.65022">
        <ele>373.2</ele>
        <time>2022-06-25T17:31:17Z</time>
      </trkpt>
      <trkpt lat="46.10561" lon="4.65015">
        <ele>372.4</ele>
        <time>2022-06-25T17:31:18Z</time>
      </trkpt>
      <trkpt lat="46.10567" lon="4.65008">
        <ele>371.4</ele>
        <time>2022-06-25T17:31:19Z</time>
      </trkpt>
      <trkpt lat="46.10574" lon="4.65002">
        <ele>370.4</ele>
        <time>2022-06-25T17:31:20Z</time>
      </trkpt>
      <trkpt lat="46.1058" lon="4.64996">
        <ele>369.2</ele>
        <time>2022-06-25T17:31:21Z</time>
      </trkpt>
      <trkpt lat="46.10587" lon="4.64989">
        <ele>368.6</ele>
        <time>2022-06-25T17:31:22Z</time>
      </trkpt>
      <trkpt lat="46.10593" lon="4.64983">
        <ele>367.6</ele>
        <time>2022-06-25T17:31:23Z</time>
      </trkpt>
      <trkpt lat="46.106" lon="4.64977">
        <ele>366.8</ele>
        <time>2022-06-25T17:31:24Z</time>
      </trkpt>
      <trkpt lat="46.10607" lon="4.64972">
        <ele>366</ele>
        <time>2022-06-25T17:31:25Z</time>
      </trkpt>
      <trkpt lat="46.10613" lon="4.64966">
        <ele>365.2</ele>
        <time>2022-06-25T17:31:26Z</time>
      </trkpt>
      <trkpt lat="46.1062" lon="4.64961">
        <ele>364.4</ele>
        <time>2022-06-25T17:31:27Z</time>
      </trkpt>
      <trkpt lat="46.10626" lon="4.64957">
        <ele>363.6</ele>
        <time>2022-06-25T17:31:28Z</time>
      </trkpt>
      <trkpt lat="46.10633" lon="4.64951">
        <ele>362.6</ele>
        <time>2022-06-25T17:31:29Z</time>
      </trkpt>
      <trkpt lat="46.10639" lon="4.64946">
        <ele>361.8</ele>
        <time>2022-06-25T17:31:30Z</time>
      </trkpt>
      <trkpt lat="46.10644" lon="4.6494">
        <ele>361</ele>
        <time>2022-06-25T17:31:31Z</time>
      </trkpt>
      <trkpt lat="46.10649" lon="4.64934">
        <ele>360.2</ele>
        <time>2022-06-25T17:31:32Z</time>
      </trkpt>
      <trkpt lat="46.10654" lon="4.64928">
        <ele>359.6</ele>
        <time>2022-06-25T17:31:33Z</time>
      </trkpt>
      <trkpt lat="46.10658" lon="4.6492">
        <ele>359</ele>
        <time>2022-06-25T17:31:34Z</time>
      </trkpt>
      <trkpt lat="46.10661" lon="4.64911">
        <ele>358.4</ele>
        <time>2022-06-25T17:31:35Z</time>
      </trkpt>
      <trkpt lat="46.10664" lon="4.64902">
        <ele>357.8</ele>
        <time>2022-06-25T17:31:36Z</time>
      </trkpt>
      <trkpt lat="46.10666" lon="4.64892">
        <ele>357.2</ele>
        <time>2022-06-25T17:31:37Z</time>
      </trkpt>
      <trkpt lat="46.10668" lon="4.64883">
        <ele>356.8</ele>
        <time>2022-06-25T17:31:38Z</time>
      </trkpt>
      <trkpt lat="46.1067" lon="4.64874">
        <ele>356.2</ele>
        <time>2022-06-25T17:31:39Z</time>
      </trkpt>
      <trkpt lat="46.10672" lon="4.64867">
        <ele>355.6</ele>
        <time>2022-06-25T17:31:40Z</time>
      </trkpt>
      <trkpt lat="46.10674" lon="4.6486">
        <ele>355</ele>
        <time>2022-06-25T17:31:41Z</time>
      </trkpt>
      <trkpt lat="46.10675" lon="4.64853">
        <ele>354.4</ele>
        <time>2022-06-25T17:31:42Z</time>
      </trkpt>
      <trkpt lat="46.10675" lon="4.64847">
        <ele>353.6</ele>
        <time>2022-06-25T17:31:43Z</time>
      </trkpt>
      <trkpt lat="46.10674" lon="4.64841">
        <ele>353</ele>
        <time>2022-06-25T17:31:44Z</time>
      </trkpt>
      <trkpt lat="46.10673" lon="4.64835">
        <ele>352.2</ele>
        <time>2022-06-25T17:31:45Z</time>
      </trkpt>
      <trkpt lat="46.1067" lon="4.6483">
        <ele>351.8</ele>
        <time>2022-06-25T17:31:46Z</time>
      </trkpt>
      <trkpt lat="46.10666" lon="4.64825">
        <ele>351.2</ele>
        <time>2022-06-25T17:31:47Z</time>
      </trkpt>
      <trkpt lat="46.10661" lon="4.64821">
        <ele>350.4</ele>
        <time>2022-06-25T17:31:48Z</time>
      </trkpt>
      <trkpt lat="46.10656" lon="4.64818">
        <ele>349.8</ele>
        <time>2022-06-25T17:31:49Z</time>
      </trkpt>
      <trkpt lat="46.10651" lon="4.64817">
        <ele>349.2</ele>
        <time>2022-06-25T17:31:50Z</time>
      </trkpt>
      <trkpt lat="46.10647" lon="4.64815">
        <ele>348.4</ele>
        <time>2022-06-25T17:31:51Z</time>
      </trkpt>
      <trkpt lat="46.10642" lon="4.64813">
        <ele>347.8</ele>
        <time>2022-06-25T17:31:52Z</time>
      </trkpt>
      <trkpt lat="46.10638" lon="4.6481">
        <ele>347.4</ele>
        <time>2022-06-25T17:31:53Z</time>
      </trkpt>
      <trkpt lat="46.10635" lon="4.64806">
        <ele>346.8</ele>
        <time>2022-06-25T17:31:54Z</time>
      </trkpt>
      <trkpt lat="46.10633" lon="4.648">
        <ele>346.2</ele>
        <time>2022-06-25T17:31:55Z</time>
      </trkpt>
      <trkpt lat="46.10631" lon="4.64793">
        <ele>345.6</ele>
        <time>2022-06-25T17:31:56Z</time>
      </trkpt>
      <trkpt lat="46.1063" lon="4.64785">
        <ele>344.8</ele>
        <time>2022-06-25T17:31:57Z</time>
      </trkpt>
      <trkpt lat="46.10629" lon="4.64778">
        <ele>344</ele>
        <time>2022-06-25T17:31:58Z</time>
      </trkpt>
      <trkpt lat="46.10628" lon="4.64771">
        <ele>343.4</ele>
        <time>2022-06-25T17:31:59Z</time>
      </trkpt>
      <trkpt lat="46.10627" lon="4.64764">
        <ele>342.6</ele>
        <time>2022-06-25T17:32:00Z</time>
      </trkpt>
      <trkpt lat="46.10626" lon="4.64758">
        <ele>342</ele>
        <time>2022-06-25T17:32:01Z</time>
      </trkpt>
      <trkpt lat="46.10625" lon="4.64752">
        <ele>341.4</ele>
        <time>2022-06-25T17:32:02Z</time>
      </trkpt>
      <trkpt lat="46.10625" lon="4.64747">
        <ele>340.8</ele>
        <time>2022-06-25T17:32:03Z</time>
      </trkpt>
      <trkpt lat="46.10624" lon="4.64743">
        <ele>340.2</ele>
        <time>2022-06-25T17:32:04Z</time>
      </trkpt>
      <trkpt lat="46.10624" lon="4.64739">
        <ele>339.8</ele>
        <time>2022-06-25T17:32:05Z</time>
      </trkpt>
      <trkpt lat="46.10622" lon="4.64737">
        <ele>339.4</ele>
        <time>2022-06-25T17:32:06Z</time>
      </trkpt>
      <trkpt lat="46.1062" lon="4.64736">
        <ele>339</ele>
        <time>2022-06-25T17:32:07Z</time>
      </trkpt>
      <trkpt lat="46.10618" lon="4.64737">
        <ele>338.6</ele>
        <time>2022-06-25T17:32:08Z</time>
      </trkpt>
      <trkpt lat="46.10615" lon="4.6474">
        <ele>338.2</ele>
        <time>2022-06-25T17:32:09Z</time>
      </trkpt>
      <trkpt lat="46.10611" lon="4.64743">
        <ele>337.8</ele>
        <time>2022-06-25T17:32:10Z</time>
      </trkpt>
      <trkpt lat="46.10607" lon="4.64747">
        <ele>337.4</ele>
        <time>2022-06-25T17:32:11Z</time>
      </trkpt>
      <trkpt lat="46.10603" lon="4.64751">
        <ele>337</ele>
        <time>2022-06-25T17:32:12Z</time>
      </trkpt>
      <trkpt lat="46.10599" lon="4.64755">
        <ele>336.6</ele>
        <time>2022-06-25T17:32:13Z</time>
      </trkpt>
      <trkpt lat="46.10595" lon="4.64759">
        <ele>336.2</ele>
        <time>2022-06-25T17:32:14Z</time>
      </trkpt>
      <trkpt lat="46.10592" lon="4.64762">
        <ele>335.6</ele>
        <time>2022-06-25T17:32:15Z</time>
      </trkpt>
      <trkpt lat="46.10588" lon="4.64765">
        <ele>335.2</ele>
        <time>2022-06-25T17:32:16Z</time>
      </trkpt>
      <trkpt lat="46.10585" lon="4.64768">
        <ele>334.8</ele>
        <time>2022-06-25T17:32:17Z</time>
      </trkpt>
      <trkpt lat="46.10582" lon="4.6477">
        <ele>334.4</ele>
        <time>2022-06-25T17:32:18Z</time>
      </trkpt>
      <trkpt lat="46.1058" lon="4.64771">
        <ele>334</ele>
        <time>2022-06-25T17:32:20Z</time>
      </trkpt>
      <trkpt lat="46.10577" lon="4.64772">
        <ele>333.8</ele>
        <time>2022-06-25T17:32:21Z</time>
      </trkpt>
      <trkpt lat="46.10575" lon="4.64773">
        <ele>333.4</ele>
        <time>2022-06-25T17:32:22Z</time>
      </trkpt>
      <trkpt lat="46.10572" lon="4.64774">
        <ele>333.2</ele>
        <time>2022-06-25T17:32:23Z</time>
      </trkpt>
      <trkpt lat="46.10571" lon="4.64773">
        <ele>333</ele>
        <time>2022-06-25T17:32:24Z</time>
      </trkpt>
      <trkpt lat="46.10569" lon="4.6477">
        <ele>332.6</ele>
        <time>2022-06-25T17:32:25Z</time>
      </trkpt>
      <trkpt lat="46.10567" lon="4.64768">
        <ele>332.4</ele>
        <time>2022-06-25T17:32:26Z</time>
      </trkpt>
      <trkpt lat="46.10564" lon="4.64764">
        <ele>332</ele>
        <time>2022-06-25T17:32:27Z</time>
      </trkpt>
      <trkpt lat="46.10561" lon="4.64761">
        <ele>331.6</ele>
        <time>2022-06-25T17:32:28Z</time>
      </trkpt>
      <trkpt lat="46.1056" lon="4.64757">
        <ele>331.2</ele>
        <time>2022-06-25T17:32:29Z</time>
      </trkpt>
      <trkpt lat="46.10558" lon="4.64753">
        <ele>330.8</ele>
        <time>2022-06-25T17:32:30Z</time>
      </trkpt>
      <trkpt lat="46.10555" lon="4.6475">
        <ele>330.2</ele>
        <time>2022-06-25T17:32:31Z</time>
      </trkpt>
      <trkpt lat="46.10552" lon="4.64748">
        <ele>329.6</ele>
        <time>2022-06-25T17:32:32Z</time>
      </trkpt>
      <trkpt lat="46.10548" lon="4.64746">
        <ele>329.2</ele>
        <time>2022-06-25T17:32:33Z</time>
      </trkpt>
      <trkpt lat="46.10544" lon="4.64744">
        <ele>328.6</ele>
        <time>2022-06-25T17:32:34Z</time>
      </trkpt>
      <trkpt lat="46.1054" lon="4.6474">
        <ele>328</ele>
        <time>2022-06-25T17:32:35Z</time>
      </trkpt>
      <trkpt lat="46.10536" lon="4.64738">
        <ele>327.4</ele>
        <time>2022-06-25T17:32:36Z</time>
      </trkpt>
      <trkpt lat="46.10532" lon="4.64735">
        <ele>326.8</ele>
        <time>2022-06-25T17:32:37Z</time>
      </trkpt>
      <trkpt lat="46.10527" lon="4.64733">
        <ele>326.4</ele>
        <time>2022-06-25T17:32:38Z</time>
      </trkpt>
      <trkpt lat="46.10523" lon="4.64729">
        <ele>325.8</ele>
        <time>2022-06-25T17:32:39Z</time>
      </trkpt>
      <trkpt lat="46.10519" lon="4.64727">
        <ele>325.4</ele>
        <time>2022-06-25T17:32:40Z</time>
      </trkpt>
      <trkpt lat="46.10516" lon="4.64724">
        <ele>325</ele>
        <time>2022-06-25T17:32:41Z</time>
      </trkpt>
      <trkpt lat="46.10514" lon="4.64721">
        <ele>324.6</ele>
        <time>2022-06-25T17:32:42Z</time>
      </trkpt>
      <trkpt lat="46.10512" lon="4.64718">
        <ele>324.2</ele>
        <time>2022-06-25T17:32:43Z</time>
      </trkpt>
      <trkpt lat="46.10509" lon="4.64716">
        <ele>323.8</ele>
        <time>2022-06-25T17:32:44Z</time>
      </trkpt>
      <trkpt lat="46.10507" lon="4.64712">
        <ele>323.4</ele>
        <time>2022-06-25T17:32:45Z</time>
      </trkpt>
      <trkpt lat="46.10505" lon="4.64708">
        <ele>323</ele>
        <time>2022-06-25T17:32:46Z</time>
      </trkpt>
      <trkpt lat="46.10503" lon="4.64703">
        <ele>322.6</ele>
        <time>2022-06-25T17:32:47Z</time>
      </trkpt>
      <trkpt lat="46.10501" lon="4.64698">
        <ele>322.2</ele>
        <time>2022-06-25T17:32:48Z</time>
      </trkpt>
      <trkpt lat="46.10499" lon="4.64693">
        <ele>321.8</ele>
        <time>2022-06-25T17:32:49Z</time>
      </trkpt>
      <trkpt lat="46.10497" lon="4.64688">
        <ele>321.2</ele>
        <time>2022-06-25T17:32:50Z</time>
      </trkpt>
      <trkpt lat="46.10495" lon="4.64684">
        <ele>320.8</ele>
        <time>2022-06-25T17:32:51Z</time>
      </trkpt>
      <trkpt lat="46.10494" lon="4.64679">
        <ele>320.2</ele>
        <time>2022-06-25T17:32:52Z</time>
      </trkpt>
      <trkpt lat="46.10492" lon="4.64675">
        <ele>319.6</ele>
        <time>2022-06-25T17:32:53Z</time>
      </trkpt>
      <trkpt lat="46.10491" lon="4.64671">
        <ele>319.2</ele>
        <time>2022-06-25T17:32:54Z</time>
      </trkpt>
      <trkpt lat="46.10491" lon="4.64667">
        <ele>318.6</ele>
        <time>2022-06-25T17:32:55Z</time>
      </trkpt>
      <trkpt lat="46.1049" lon="4.64664">
        <ele>318</ele>
        <time>2022-06-25T17:32:56Z</time>
      </trkpt>
      <trkpt lat="46.10489" lon="4.64662">
        <ele>317.6</ele>
        <time>2022-06-25T17:32:57Z</time>
      </trkpt>
      <trkpt lat="46.10487" lon="4.6466">
        <ele>317.2</ele>
        <time>2022-06-25T17:32:58Z</time>
      </trkpt>
      <trkpt lat="46.10484" lon="4.64661">
        <ele>316.8</ele>
        <time>2022-06-25T17:32:59Z</time>
      </trkpt>
      <trkpt lat="46.10482" lon="4.64662">
        <ele>316</ele>
        <time>2022-06-25T17:33:01Z</time>
      </trkpt>
      <trkpt lat="46.10479" lon="4.64664">
        <ele>315.6</ele>
        <time>2022-06-25T17:33:02Z</time>
      </trkpt>
      <trkpt lat="46.10476" lon="4.64667">
        <ele>315.2</ele>
        <time>2022-06-25T17:33:03Z</time>
      </trkpt>
      <trkpt lat="46.10473" lon="4.6467">
        <ele>314.8</ele>
        <time>2022-06-25T17:33:04Z</time>
      </trkpt>
      <trkpt lat="46.10469" lon="4.64672">
        <ele>314.4</ele>
        <time>2022-06-25T17:33:05Z</time>
      </trkpt>
      <trkpt lat="46.10466" lon="4.64675">
        <ele>314</ele>
        <time>2022-06-25T17:33:06Z</time>
      </trkpt>
      <trkpt lat="46.10463" lon="4.64677">
        <ele>313.6</ele>
        <time>2022-06-25T17:33:07Z</time>
      </trkpt>
      <trkpt lat="46.1046" lon="4.6468">
        <ele>313.2</ele>
        <time>2022-06-25T17:33:08Z</time>
      </trkpt>
      <trkpt lat="46.10457" lon="4.64682">
        <ele>313</ele>
        <time>2022-06-25T17:33:09Z</time>
      </trkpt>
      <trkpt lat="46.10454" lon="4.64685">
        <ele>312.6</ele>
        <time>2022-06-25T17:33:10Z</time>
      </trkpt>
      <trkpt lat="46.1045" lon="4.64687">
        <ele>312.2</ele>
        <time>2022-06-25T17:33:11Z</time>
      </trkpt>
      <trkpt lat="46.10447" lon="4.6469">
        <ele>311.8</ele>
        <time>2022-06-25T17:33:12Z</time>
      </trkpt>
      <trkpt lat="46.1044" lon="4.64695">
        <ele>311.4</ele>
        <time>2022-06-25T17:33:13Z</time>
      </trkpt>
      <trkpt lat="46.10436" lon="4.64698">
        <ele>311.2</ele>
        <time>2022-06-25T17:33:14Z</time>
      </trkpt>
      <trkpt lat="46.10432" lon="4.64701">
        <ele>310.8</ele>
        <time>2022-06-25T17:33:15Z</time>
      </trkpt>
      <trkpt lat="46.10428" lon="4.64704">
        <ele>310.6</ele>
        <time>2022-06-25T17:33:16Z</time>
      </trkpt>
      <trkpt lat="46.10425" lon="4.64707">
        <ele>310.2</ele>
        <time>2022-06-25T17:33:17Z</time>
      </trkpt>
      <trkpt lat="46.10421" lon="4.6471">
        <ele>309.8</ele>
        <time>2022-06-25T17:33:18Z</time>
      </trkpt>
      <trkpt lat="46.10417" lon="4.64713">
        <ele>309.6</ele>
        <time>2022-06-25T17:33:19Z</time>
      </trkpt>
      <trkpt lat="46.10413" lon="4.64716">
        <ele>309.2</ele>
        <time>2022-06-25T17:33:20Z</time>
      </trkpt>
      <trkpt lat="46.10409" lon="4.64719">
        <ele>308.8</ele>
        <time>2022-06-25T17:33:21Z</time>
      </trkpt>
      <trkpt lat="46.10405" lon="4.64721">
        <ele>308.6</ele>
        <time>2022-06-25T17:33:22Z</time>
      </trkpt>
      <trkpt lat="46.104" lon="4.64724">
        <ele>308.4</ele>
        <time>2022-06-25T17:33:23Z</time>
      </trkpt>
      <trkpt lat="46.10396" lon="4.64727">
        <ele>308</ele>
        <time>2022-06-25T17:33:24Z</time>
      </trkpt>
      <trkpt lat="46.10391" lon="4.6473">
        <ele>307.6</ele>
        <time>2022-06-25T17:33:25Z</time>
      </trkpt>
      <trkpt lat="46.10386" lon="4.64733">
        <ele>307.2</ele>
        <time>2022-06-25T17:33:26Z</time>
      </trkpt>
      <trkpt lat="46.1038" lon="4.64737">
        <ele>307</ele>
        <time>2022-06-25T17:33:27Z</time>
      </trkpt>
      <trkpt lat="46.10375" lon="4.6474">
        <ele>306.6</ele>
        <time>2022-06-25T17:33:28Z</time>
      </trkpt>
      <trkpt lat="46.10369" lon="4.64743">
        <ele>306.4</ele>
        <time>2022-06-25T17:33:29Z</time>
      </trkpt>
      <trkpt lat="46.10363" lon="4.64747">
        <ele>306</ele>
        <time>2022-06-25T17:33:30Z</time>
      </trkpt>
      <trkpt lat="46.10358" lon="4.6475">
        <ele>305.8</ele>
        <time>2022-06-25T17:33:31Z</time>
      </trkpt>
      <trkpt lat="46.10353" lon="4.64754">
        <ele>305.6</ele>
        <time>2022-06-25T17:33:32Z</time>
      </trkpt>
      <trkpt lat="46.10347" lon="4.64757">
        <ele>305.2</ele>
        <time>2022-06-25T17:33:33Z</time>
      </trkpt>
      <trkpt lat="46.10342" lon="4.6476">
        <ele>305</ele>
        <time>2022-06-25T17:33:34Z</time>
      </trkpt>
      <trkpt lat="46.10338" lon="4.64764">
        <ele>304.8</ele>
        <time>2022-06-25T17:33:35Z</time>
      </trkpt>
      <trkpt lat="46.10333" lon="4.64767">
        <ele>304.8</ele>
        <time>2022-06-25T17:33:36Z</time>
      </trkpt>
      <trkpt lat="46.10329" lon="4.64771">
        <ele>304.4</ele>
        <time>2022-06-25T17:33:37Z</time>
      </trkpt>
      <trkpt lat="46.10326" lon="4.64775">
        <ele>304.4</ele>
        <time>2022-06-25T17:33:38Z</time>
      </trkpt>
      <trkpt lat="46.10322" lon="4.64779">
        <ele>304</ele>
        <time>2022-06-25T17:33:39Z</time>
      </trkpt>
      <trkpt lat="46.1032" lon="4.64784">
        <ele>303.8</ele>
        <time>2022-06-25T17:33:40Z</time>
      </trkpt>
      <trkpt lat="46.10317" lon="4.64787">
        <ele>303.4</ele>
        <time>2022-06-25T17:33:41Z</time>
      </trkpt>
      <trkpt lat="46.10316" lon="4.6479">
        <ele>303.2</ele>
        <time>2022-06-25T17:33:42Z</time>
      </trkpt>
      <trkpt lat="46.10315" lon="4.64792">
        <ele>303.2</ele>
        <time>2022-06-25T17:33:43Z</time>
      </trkpt>
      <trkpt lat="46.10314" lon="4.64794">
        <ele>303</ele>
        <time>2022-06-25T17:33:45Z</time>
      </trkpt>
      <trkpt lat="46.10313" lon="4.64796">
        <ele>303</ele>
        <time>2022-06-25T17:33:46Z</time>
      </trkpt>
      <trkpt lat="46.10312" lon="4.64799">
        <ele>302.8</ele>
        <time>2022-06-25T17:33:47Z</time>
      </trkpt>
      <trkpt lat="46.1031" lon="4.64802">
        <ele>302.8</ele>
        <time>2022-06-25T17:33:48Z</time>
      </trkpt>
      <trkpt lat="46.10309" lon="4.64805">
        <ele>302.8</ele>
        <time>2022-06-25T17:33:49Z</time>
      </trkpt>
      <trkpt lat="46.10307" lon="4.64808">
        <ele>302.8</ele>
        <time>2022-06-25T17:33:50Z</time>
      </trkpt>
      <trkpt lat="46.10306" lon="4.64812">
        <ele>302.6</ele>
        <time>2022-06-25T17:33:51Z</time>
      </trkpt>
      <trkpt lat="46.10306" lon="4.64815">
        <ele>302.6</ele>
        <time>2022-06-25T17:33:52Z</time>
      </trkpt>
      <trkpt lat="46.10307" lon="4.64816">
        <ele>302.6</ele>
        <time>2022-06-25T17:33:53Z</time>
      </trkpt>
      <trkpt lat="46.10307" lon="4.64816">
        <ele>302.6</ele>
        <time>2022-06-25T17:33:55Z</time>
      </trkpt>
      <trkpt lat="46.10307" lon="4.64817">
        <ele>302.6</ele>
        <time>2022-06-25T17:33:56Z</time>
      </trkpt>
      <trkpt lat="46.10307" lon="4.64817">
        <ele>302.6</ele>
        <time>2022-06-25T17:33:58Z</time>
      </trkpt>
      <trkpt lat="46.10307" lon="4.64817">
        <ele>302.6</ele>
        <time>2022-06-25T17:34:00Z</time>
      </trkpt>
      <trkpt lat="46.10307" lon="4.64817">
        <ele>302.6</ele>
        <time>2022-06-25T17:34:02Z</time>
      </trkpt>
      <trkpt lat="46.10307" lon="4.64818">
        <ele>302.6</ele>
        <time>2022-06-25T17:34:03Z</time>
      </trkpt>
      <trkpt lat="46.10307" lon="4.64818">
        <ele>302.6</ele>
        <time>2022-06-25T17:34:05Z</time>
      </trkpt>
      <trkpt lat="46.10307" lon="4.64818">
        <ele>302.6</ele>
        <time>2022-06-25T17:34:07Z</time>
      </trkpt>
      <trkpt lat="46.10307" lon="4.64819">
        <ele>302.6</ele>
        <time>2022-06-25T17:34:11Z</time>
      </trkpt>
      <trkpt lat="46.10307" lon="4.64819">
        <ele>302.6</ele>
        <time>2022-06-25T17:34:25Z</time>
      </trkpt>
      <trkpt lat="46.10307" lon="4.64819">
        <ele>302.6</ele>
        <time>2022-06-25T17:34:27Z</time>
      </trkpt>
      <trkpt lat="46.10307" lon="4.64819">
        <ele>302.6</ele>
        <time>2022-06-25T17:34:29Z</time>
      </trkpt>
      <trkpt lat="46.10307" lon="4.6482">
        <ele>302.6</ele>
        <time>2022-06-25T17:34:30Z</time>
      </trkpt>
      <trkpt lat="46.10307" lon="4.6482">
        <ele>302.6</ele>
        <time>2022-06-25T17:34:36Z</time>
      </trkpt>
      <trkpt lat="46.10307" lon="4.6482">
        <ele>302.6</ele>
        <time>2022-06-25T17:34:38Z</time>
      </trkpt>
      <trkpt lat="46.10307" lon="4.6482">
        <ele>302.6</ele>
        <time>2022-06-25T17:34:40Z</time>
      </trkpt>
      <trkpt lat="46.10307" lon="4.64821">
        <ele>302.6</ele>
        <time>2022-06-25T17:34:41Z</time>
      </trkpt>
      <trkpt lat="46.10306" lon="4.64821">
        <ele>302.6</ele>
        <time>2022-06-25T17:34:43Z</time>
      </trkpt>
      <trkpt lat="46.10306" lon="4.64821">
        <ele>302.6</ele>
        <time>2022-06-25T17:34:44Z</time>
      </trkpt>
      <trkpt lat="46.10306" lon="4.64821">
        <ele>302.6</ele>
        <time>2022-06-25T17:34:46Z</time>
      </trkpt>
      <trkpt lat="46.10306" lon="4.64822">
        <ele>302.6</ele>
        <time>2022-06-25T17:34:47Z</time>
      </trkpt>
      <trkpt lat="46.10306" lon="4.64822">
        <ele>302.6</ele>
        <time>2022-06-25T17:34:50Z</time>
      </trkpt>
      <trkpt lat="46.10306" lon="4.64822">
        <ele>302.6</ele>
        <time>2022-06-25T17:34:52Z</time>
      </trkpt>
      <trkpt lat="46.10305" lon="4.64824">
        <ele>302.6</ele>
        <time>2022-06-25T17:34:54Z</time>
      </trkpt>
      <trkpt lat="46.10303" lon="4.64827">
        <ele>302.6</ele>
        <time>2022-06-25T17:34:55Z</time>
      </trkpt>
      <trkpt lat="46.10302" lon="4.6483">
        <ele>302.6</ele>
        <time>2022-06-25T17:34:56Z</time>
      </trkpt>
      <trkpt lat="46.103" lon="4.64834">
        <ele>302.6</ele>
        <time>2022-06-25T17:34:57Z</time>
      </trkpt>
      <trkpt lat="46.10299" lon="4.64838">
        <ele>302.6</ele>
        <time>2022-06-25T17:34:58Z</time>
      </trkpt>
      <trkpt lat="46.10297" lon="4.64842">
        <ele>302.8</ele>
        <time>2022-06-25T17:34:59Z</time>
      </trkpt>
      <trkpt lat="46.10296" lon="4.64845">
        <ele>302.8</ele>
        <time>2022-06-25T17:35:00Z</time>
      </trkpt>
      <trkpt lat="46.10294" lon="4.64849">
        <ele>302.8</ele>
        <time>2022-06-25T17:35:01Z</time>
      </trkpt>
      <trkpt lat="46.10292" lon="4.64853">
        <ele>303.2</ele>
        <time>2022-06-25T17:35:02Z</time>
      </trkpt>
      <trkpt lat="46.1029" lon="4.64858">
        <ele>303.2</ele>
        <time>2022-06-25T17:35:03Z</time>
      </trkpt>
      <trkpt lat="46.10288" lon="4.64861">
        <ele>303.2</ele>
        <time>2022-06-25T17:35:04Z</time>
      </trkpt>
      <trkpt lat="46.10285" lon="4.64865">
        <ele>303.4</ele>
        <time>2022-06-25T17:35:05Z</time>
      </trkpt>
      <trkpt lat="46.10282" lon="4.64869">
        <ele>303.4</ele>
        <time>2022-06-25T17:35:06Z</time>
      </trkpt>
      <trkpt lat="46.10279" lon="4.64872">
        <ele>303.6</ele>
        <time>2022-06-25T17:35:07Z</time>
      </trkpt>
      <trkpt lat="46.10275" lon="4.64875">
        <ele>303.8</ele>
        <time>2022-06-25T17:35:08Z</time>
      </trkpt>
      <trkpt lat="46.10272" lon="4.64878">
        <ele>304</ele>
        <time>2022-06-25T17:35:09Z</time>
      </trkpt>
      <trkpt lat="46.10269" lon="4.6488">
        <ele>304</ele>
        <time>2022-06-25T17:35:10Z</time>
      </trkpt>
      <trkpt lat="46.10265" lon="4.64883">
        <ele>304.4</ele>
        <time>2022-06-25T17:35:11Z</time>
      </trkpt>
      <trkpt lat="46.10262" lon="4.64885">
        <ele>304.4</ele>
        <time>2022-06-25T17:35:12Z</time>
      </trkpt>
      <trkpt lat="46.10258" lon="4.64888">
        <ele>304.8</ele>
        <time>2022-06-25T17:35:13Z</time>
      </trkpt>
      <trkpt lat="46.10255" lon="4.64891">
        <ele>304.8</ele>
        <time>2022-06-25T17:35:14Z</time>
      </trkpt>
      <trkpt lat="46.10251" lon="4.64894">
        <ele>305</ele>
        <time>2022-06-25T17:35:15Z</time>
      </trkpt>
      <trkpt lat="46.10248" lon="4.64898">
        <ele>305</ele>
        <time>2022-06-25T17:35:16Z</time>
      </trkpt>
      <trkpt lat="46.10244" lon="4.649">
        <ele>305.2</ele>
        <time>2022-06-25T17:35:17Z</time>
      </trkpt>
      <trkpt lat="46.10241" lon="4.64903">
        <ele>305.2</ele>
        <time>2022-06-25T17:35:18Z</time>
      </trkpt>
      <trkpt lat="46.10238" lon="4.64905">
        <ele>305.6</ele>
        <time>2022-06-25T17:35:19Z</time>
      </trkpt>
      <trkpt lat="46.10235" lon="4.64908">
        <ele>305.8</ele>
        <time>2022-06-25T17:35:20Z</time>
      </trkpt>
      <trkpt lat="46.10232" lon="4.64911">
        <ele>306</ele>
        <time>2022-06-25T17:35:21Z</time>
      </trkpt>
      <trkpt lat="46.10228" lon="4.64913">
        <ele>306.4</ele>
        <time>2022-06-25T17:35:22Z</time>
      </trkpt>
      <trkpt lat="46.10225" lon="4.64916">
        <ele>306.4</ele>
        <time>2022-06-25T17:35:23Z</time>
      </trkpt>
      <trkpt lat="46.10222" lon="4.64918">
        <ele>306.6</ele>
        <time>2022-06-25T17:35:24Z</time>
      </trkpt>
      <trkpt lat="46.10219" lon="4.6492">
        <ele>306.6</ele>
        <time>2022-06-25T17:35:25Z</time>
      </trkpt>
      <trkpt lat="46.10215" lon="4.64923">
        <ele>307</ele>
        <time>2022-06-25T17:35:26Z</time>
      </trkpt>
      <trkpt lat="46.10211" lon="4.64925">
        <ele>307.2</ele>
        <time>2022-06-25T17:35:27Z</time>
      </trkpt>
      <trkpt lat="46.10207" lon="4.64928">
        <ele>307.2</ele>
        <time>2022-06-25T17:35:28Z</time>
      </trkpt>
      <trkpt lat="46.10202" lon="4.64932">
        <ele>307.2</ele>
        <time>2022-06-25T17:35:29Z</time>
      </trkpt>
      <trkpt lat="46.10197" lon="4.64935">
        <ele>307</ele>
        <time>2022-06-25T17:35:30Z</time>
      </trkpt>
      <trkpt lat="46.10192" lon="4.64938">
        <ele>307</ele>
        <time>2022-06-25T17:35:31Z</time>
      </trkpt>
      <trkpt lat="46.10187" lon="4.64943">
        <ele>306.8</ele>
        <time>2022-06-25T17:35:32Z</time>
      </trkpt>
      <trkpt lat="46.10181" lon="4.64948">
        <ele>306.4</ele>
        <time>2022-06-25T17:35:33Z</time>
      </trkpt>
      <trkpt lat="46.10169" lon="4.64959">
        <ele>305.8</ele>
        <time>2022-06-25T17:35:34Z</time>
      </trkpt>
      <trkpt lat="46.10162" lon="4.64966">
        <ele>305.4</ele>
        <time>2022-06-25T17:35:35Z</time>
      </trkpt>
      <trkpt lat="46.10155" lon="4.64973">
        <ele>305.2</ele>
        <time>2022-06-25T17:35:36Z</time>
      </trkpt>
      <trkpt lat="46.10148" lon="4.6498">
        <ele>304.8</ele>
        <time>2022-06-25T17:35:37Z</time>
      </trkpt>
      <trkpt lat="46.10142" lon="4.64989">
        <ele>304.6</ele>
        <time>2022-06-25T17:35:38Z</time>
      </trkpt>
      <trkpt lat="46.10135" lon="4.64997">
        <ele>304.4</ele>
        <time>2022-06-25T17:35:39Z</time>
      </trkpt>
      <trkpt lat="46.10129" lon="4.65007">
        <ele>304</ele>
        <time>2022-06-25T17:35:40Z</time>
      </trkpt>
      <trkpt lat="46.10124" lon="4.65017">
        <ele>304</ele>
        <time>2022-06-25T17:35:41Z</time>
      </trkpt>
      <trkpt lat="46.1012" lon="4.65028">
        <ele>303.8</ele>
        <time>2022-06-25T17:35:42Z</time>
      </trkpt>
      <trkpt lat="46.10116" lon="4.65039">
        <ele>303.8</ele>
        <time>2022-06-25T17:35:43Z</time>
      </trkpt>
      <trkpt lat="46.10113" lon="4.6505">
        <ele>303.8</ele>
        <time>2022-06-25T17:35:44Z</time>
      </trkpt>
      <trkpt lat="46.1011" lon="4.65061">
        <ele>303.8</ele>
        <time>2022-06-25T17:35:45Z</time>
      </trkpt>
      <trkpt lat="46.10107" lon="4.65071">
        <ele>303.8</ele>
        <time>2022-06-25T17:35:46Z</time>
      </trkpt>
      <trkpt lat="46.10104" lon="4.65081">
        <ele>303.8</ele>
        <time>2022-06-25T17:35:47Z</time>
      </trkpt>
      <trkpt lat="46.10101" lon="4.65091">
        <ele>303.8</ele>
        <time>2022-06-25T17:35:48Z</time>
      </trkpt>
      <trkpt lat="46.10098" lon="4.65101">
        <ele>303.8</ele>
        <time>2022-06-25T17:35:49Z</time>
      </trkpt>
      <trkpt lat="46.10094" lon="4.6511">
        <ele>303.8</ele>
        <time>2022-06-25T17:35:50Z</time>
      </trkpt>
      <trkpt lat="46.10091" lon="4.65119">
        <ele>303.8</ele>
        <time>2022-06-25T17:35:51Z</time>
      </trkpt>
      <trkpt lat="46.10086" lon="4.65127">
        <ele>303.8</ele>
        <time>2022-06-25T17:35:52Z</time>
      </trkpt>
      <trkpt lat="46.10082" lon="4.65136">
        <ele>303.4</ele>
        <time>2022-06-25T17:35:53Z</time>
      </trkpt>
      <trkpt lat="46.10077" lon="4.65144">
        <ele>303.4</ele>
        <time>2022-06-25T17:35:54Z</time>
      </trkpt>
      <trkpt lat="46.10071" lon="4.65152">
        <ele>303.2</ele>
        <time>2022-06-25T17:35:55Z</time>
      </trkpt>
      <trkpt lat="46.10066" lon="4.6516">
        <ele>303.2</ele>
        <time>2022-06-25T17:35:56Z</time>
      </trkpt>
      <trkpt lat="46.10061" lon="4.65169">
        <ele>303.2</ele>
        <time>2022-06-25T17:35:57Z</time>
      </trkpt>
      <trkpt lat="46.10056" lon="4.65178">
        <ele>302.8</ele>
        <time>2022-06-25T17:35:58Z</time>
      </trkpt>
      <trkpt lat="46.10051" lon="4.65187">
        <ele>302.8</ele>
        <time>2022-06-25T17:35:59Z</time>
      </trkpt>
      <trkpt lat="46.10047" lon="4.65196">
        <ele>302.4</ele>
        <time>2022-06-25T17:36:00Z</time>
      </trkpt>
      <trkpt lat="46.10043" lon="4.65206">
        <ele>302.4</ele>
        <time>2022-06-25T17:36:01Z</time>
      </trkpt>
      <trkpt lat="46.1004" lon="4.65215">
        <ele>302.2</ele>
        <time>2022-06-25T17:36:02Z</time>
      </trkpt>
      <trkpt lat="46.10037" lon="4.65225">
        <ele>301.8</ele>
        <time>2022-06-25T17:36:03Z</time>
      </trkpt>
      <trkpt lat="46.10035" lon="4.65235">
        <ele>301.4</ele>
        <time>2022-06-25T17:36:04Z</time>
      </trkpt>
      <trkpt lat="46.10033" lon="4.65246">
        <ele>301</ele>
        <time>2022-06-25T17:36:05Z</time>
      </trkpt>
      <trkpt lat="46.10031" lon="4.65257">
        <ele>300.4</ele>
        <time>2022-06-25T17:36:06Z</time>
      </trkpt>
      <trkpt lat="46.1003" lon="4.65269">
        <ele>300</ele>
        <time>2022-06-25T17:36:07Z</time>
      </trkpt>
      <trkpt lat="46.1003" lon="4.65281">
        <ele>299.6</ele>
        <time>2022-06-25T17:36:08Z</time>
      </trkpt>
      <trkpt lat="46.10031" lon="4.65294">
        <ele>299</ele>
        <time>2022-06-25T17:36:09Z</time>
      </trkpt>
      <trkpt lat="46.10032" lon="4.65307">
        <ele>298.4</ele>
        <time>2022-06-25T17:36:10Z</time>
      </trkpt>
      <trkpt lat="46.10033" lon="4.65319">
        <ele>298</ele>
        <time>2022-06-25T17:36:11Z</time>
      </trkpt>
      <trkpt lat="46.10034" lon="4.65332">
        <ele>297.4</ele>
        <time>2022-06-25T17:36:12Z</time>
      </trkpt>
      <trkpt lat="46.10035" lon="4.65343">
        <ele>297.2</ele>
        <time>2022-06-25T17:36:13Z</time>
      </trkpt>
      <trkpt lat="46.10036" lon="4.65355">
        <ele>296.8</ele>
        <time>2022-06-25T17:36:14Z</time>
      </trkpt>
      <trkpt lat="46.10037" lon="4.65367">
        <ele>296.4</ele>
        <time>2022-06-25T17:36:15Z</time>
      </trkpt>
      <trkpt lat="46.10039" lon="4.65379">
        <ele>296</ele>
        <time>2022-06-25T17:36:16Z</time>
      </trkpt>
      <trkpt lat="46.1004" lon="4.65391">
        <ele>295.6</ele>
        <time>2022-06-25T17:36:17Z</time>
      </trkpt>
      <trkpt lat="46.1004" lon="4.65403">
        <ele>295.2</ele>
        <time>2022-06-25T17:36:18Z</time>
      </trkpt>
      <trkpt lat="46.10041" lon="4.65415">
        <ele>294.6</ele>
        <time>2022-06-25T17:36:19Z</time>
      </trkpt>
      <trkpt lat="46.10041" lon="4.65427">
        <ele>294</ele>
        <time>2022-06-25T17:36:20Z</time>
      </trkpt>
      <trkpt lat="46.10041" lon="4.6544">
        <ele>293.6</ele>
        <time>2022-06-25T17:36:21Z</time>
      </trkpt>
      <trkpt lat="46.10041" lon="4.65453">
        <ele>293</ele>
        <time>2022-06-25T17:36:22Z</time>
      </trkpt>
      <trkpt lat="46.10041" lon="4.65467">
        <ele>292.4</ele>
        <time>2022-06-25T17:36:23Z</time>
      </trkpt>
      <trkpt lat="46.10041" lon="4.65482">
        <ele>292</ele>
        <time>2022-06-25T17:36:24Z</time>
      </trkpt>
      <trkpt lat="46.10042" lon="4.65496">
        <ele>291.4</ele>
        <time>2022-06-25T17:36:25Z</time>
      </trkpt>
      <trkpt lat="46.10042" lon="4.65511">
        <ele>290.8</ele>
        <time>2022-06-25T17:36:26Z</time>
      </trkpt>
      <trkpt lat="46.10041" lon="4.65526">
        <ele>290</ele>
        <time>2022-06-25T17:36:27Z</time>
      </trkpt>
      <trkpt lat="46.10041" lon="4.65541">
        <ele>289.2</ele>
        <time>2022-06-25T17:36:28Z</time>
      </trkpt>
      <trkpt lat="46.10041" lon="4.65555">
        <ele>288.6</ele>
        <time>2022-06-25T17:36:29Z</time>
      </trkpt>
      <trkpt lat="46.10041" lon="4.6557">
        <ele>288.2</ele>
        <time>2022-06-25T17:36:30Z</time>
      </trkpt>
      <trkpt lat="46.10041" lon="4.65584">
        <ele>287.6</ele>
        <time>2022-06-25T17:36:31Z</time>
      </trkpt>
      <trkpt lat="46.10041" lon="4.65597">
        <ele>287.2</ele>
        <time>2022-06-25T17:36:32Z</time>
      </trkpt>
      <trkpt lat="46.10041" lon="4.6561">
        <ele>286.8</ele>
        <time>2022-06-25T17:36:33Z</time>
      </trkpt>
      <trkpt lat="46.10041" lon="4.65622">
        <ele>286.6</ele>
        <time>2022-06-25T17:36:34Z</time>
      </trkpt>
      <trkpt lat="46.10041" lon="4.65632">
        <ele>286.2</ele>
        <time>2022-06-25T17:36:35Z</time>
      </trkpt>
      <trkpt lat="46.10041" lon="4.65641">
        <ele>286</ele>
        <time>2022-06-25T17:36:36Z</time>
      </trkpt>
      <trkpt lat="46.10041" lon="4.65649">
        <ele>285.8</ele>
        <time>2022-06-25T17:36:37Z</time>
      </trkpt>
      <trkpt lat="46.10041" lon="4.65656">
        <ele>285.8</ele>
        <time>2022-06-25T17:36:38Z</time>
      </trkpt>
      <trkpt lat="46.10041" lon="4.65661">
        <ele>285.4</ele>
        <time>2022-06-25T17:36:39Z</time>
      </trkpt>
      <trkpt lat="46.10041" lon="4.65665">
        <ele>285.4</ele>
        <time>2022-06-25T17:36:40Z</time>
      </trkpt>
      <trkpt lat="46.1004" lon="4.65666">
        <ele>285.4</ele>
        <time>2022-06-25T17:36:41Z</time>
      </trkpt>
      <trkpt lat="46.10039" lon="4.65666">
        <ele>285.4</ele>
        <time>2022-06-25T17:36:42Z</time>
      </trkpt>
      <trkpt lat="46.10039" lon="4.65667">
        <ele>285.4</ele>
        <time>2022-06-25T17:36:43Z</time>
      </trkpt>
      <trkpt lat="46.10038" lon="4.65667">
        <ele>285.2</ele>
        <time>2022-06-25T17:36:44Z</time>
      </trkpt>
      <trkpt lat="46.10037" lon="4.65667">
        <ele>285</ele>
        <time>2022-06-25T17:36:47Z</time>
      </trkpt>
      <trkpt lat="46.10034" lon="4.6567">
        <ele>284.4</ele>
        <time>2022-06-25T17:36:49Z</time>
      </trkpt>
      <trkpt lat="46.10032" lon="4.65674">
        <ele>283.8</ele>
        <time>2022-06-25T17:36:50Z</time>
      </trkpt>
      <trkpt lat="46.10029" lon="4.6568">
        <ele>283.4</ele>
        <time>2022-06-25T17:36:51Z</time>
      </trkpt>
      <trkpt lat="46.10026" lon="4.65687">
        <ele>282.8</ele>
        <time>2022-06-25T17:36:52Z</time>
      </trkpt>
      <trkpt lat="46.10023" lon="4.65695">
        <ele>282.2</ele>
        <time>2022-06-25T17:36:53Z</time>
      </trkpt>
      <trkpt lat="46.1002" lon="4.65703">
        <ele>281.4</ele>
        <time>2022-06-25T17:36:54Z</time>
      </trkpt>
      <trkpt lat="46.10018" lon="4.65711">
        <ele>280.8</ele>
        <time>2022-06-25T17:36:55Z</time>
      </trkpt>
      <trkpt lat="46.10015" lon="4.65719">
        <ele>280</ele>
        <time>2022-06-25T17:36:56Z</time>
      </trkpt>
      <trkpt lat="46.10012" lon="4.65727">
        <ele>279.2</ele>
        <time>2022-06-25T17:36:57Z</time>
      </trkpt>
      <trkpt lat="46.1001" lon="4.65736">
        <ele>278.6</ele>
        <time>2022-06-25T17:36:58Z</time>
      </trkpt>
      <trkpt lat="46.10007" lon="4.65744">
        <ele>277.8</ele>
        <time>2022-06-25T17:36:59Z</time>
      </trkpt>
      <trkpt lat="46.10004" lon="4.65751">
        <ele>276.8</ele>
        <time>2022-06-25T17:37:00Z</time>
      </trkpt>
      <trkpt lat="46.10001" lon="4.65759">
        <ele>276.2</ele>
        <time>2022-06-25T17:37:01Z</time>
      </trkpt>
      <trkpt lat="46.09997" lon="4.65768">
        <ele>275.2</ele>
        <time>2022-06-25T17:37:02Z</time>
      </trkpt>
      <trkpt lat="46.09993" lon="4.65776">
        <ele>274.2</ele>
        <time>2022-06-25T17:37:03Z</time>
      </trkpt>
      <trkpt lat="46.09989" lon="4.65784">
        <ele>273.2</ele>
        <time>2022-06-25T17:37:04Z</time>
      </trkpt>
      <trkpt lat="46.09985" lon="4.65794">
        <ele>272.2</ele>
        <time>2022-06-25T17:37:05Z</time>
      </trkpt>
      <trkpt lat="46.09982" lon="4.65805">
        <ele>271.2</ele>
        <time>2022-06-25T17:37:06Z</time>
      </trkpt>
      <trkpt lat="46.09979" lon="4.65817">
        <ele>270.4</ele>
        <time>2022-06-25T17:37:07Z</time>
      </trkpt>
      <trkpt lat="46.09977" lon="4.6583">
        <ele>269.4</ele>
        <time>2022-06-25T17:37:08Z</time>
      </trkpt>
      <trkpt lat="46.09975" lon="4.65843">
        <ele>268.6</ele>
        <time>2022-06-25T17:37:09Z</time>
      </trkpt>
      <trkpt lat="46.09974" lon="4.65857">
        <ele>267.8</ele>
        <time>2022-06-25T17:37:10Z</time>
      </trkpt>
      <trkpt lat="46.09972" lon="4.65872">
        <ele>267</ele>
        <time>2022-06-25T17:37:11Z</time>
      </trkpt>
      <trkpt lat="46.09972" lon="4.65885">
        <ele>266.4</ele>
        <time>2022-06-25T17:37:12Z</time>
      </trkpt>
      <trkpt lat="46.09971" lon="4.65898">
        <ele>265.6</ele>
        <time>2022-06-25T17:37:13Z</time>
      </trkpt>
      <trkpt lat="46.0997" lon="4.65912">
        <ele>264.8</ele>
        <time>2022-06-25T17:37:14Z</time>
      </trkpt>
      <trkpt lat="46.09971" lon="4.65926">
        <ele>263.8</ele>
        <time>2022-06-25T17:37:15Z</time>
      </trkpt>
      <trkpt lat="46.09971" lon="4.6594">
        <ele>263.2</ele>
        <time>2022-06-25T17:37:16Z</time>
      </trkpt>
      <trkpt lat="46.09971" lon="4.65955">
        <ele>262.2</ele>
        <time>2022-06-25T17:37:17Z</time>
      </trkpt>
      <trkpt lat="46.09972" lon="4.65969">
        <ele>261.2</ele>
        <time>2022-06-25T17:37:18Z</time>
      </trkpt>
      <trkpt lat="46.09972" lon="4.65983">
        <ele>260.2</ele>
        <time>2022-06-25T17:37:19Z</time>
      </trkpt>
      <trkpt lat="46.09973" lon="4.65997">
        <ele>259</ele>
        <time>2022-06-25T17:37:20Z</time>
      </trkpt>
      <trkpt lat="46.09973" lon="4.66011">
        <ele>258</ele>
        <time>2022-06-25T17:37:21Z</time>
      </trkpt>
      <trkpt lat="46.09973" lon="4.66025">
        <ele>257</ele>
        <time>2022-06-25T17:37:22Z</time>
      </trkpt>
      <trkpt lat="46.09973" lon="4.66038">
        <ele>255.8</ele>
        <time>2022-06-25T17:37:23Z</time>
      </trkpt>
      <trkpt lat="46.09973" lon="4.66051">
        <ele>254.8</ele>
        <time>2022-06-25T17:37:24Z</time>
      </trkpt>
      <trkpt lat="46.09973" lon="4.66063">
        <ele>253.8</ele>
        <time>2022-06-25T17:37:25Z</time>
      </trkpt>
      <trkpt lat="46.09972" lon="4.66075">
        <ele>253.2</ele>
        <time>2022-06-25T17:37:26Z</time>
      </trkpt>
      <trkpt lat="46.09973" lon="4.66086">
        <ele>252.4</ele>
        <time>2022-06-25T17:37:27Z</time>
      </trkpt>
      <trkpt lat="46.09973" lon="4.66097">
        <ele>251.8</ele>
        <time>2022-06-25T17:37:28Z</time>
      </trkpt>
      <trkpt lat="46.09974" lon="4.66108">
        <ele>251</ele>
        <time>2022-06-25T17:37:29Z</time>
      </trkpt>
      <trkpt lat="46.09974" lon="4.66118">
        <ele>250.6</ele>
        <time>2022-06-25T17:37:30Z</time>
      </trkpt>
      <trkpt lat="46.09973" lon="4.66128">
        <ele>250</ele>
        <time>2022-06-25T17:37:31Z</time>
      </trkpt>
      <trkpt lat="46.09972" lon="4.66138">
        <ele>249.6</ele>
        <time>2022-06-25T17:37:32Z</time>
      </trkpt>
      <trkpt lat="46.09971" lon="4.66149">
        <ele>249</ele>
        <time>2022-06-25T17:37:33Z</time>
      </trkpt>
      <trkpt lat="46.09971" lon="4.66161">
        <ele>248.6</ele>
        <time>2022-06-25T17:37:34Z</time>
      </trkpt>
      <trkpt lat="46.09971" lon="4.66172">
        <ele>248.2</ele>
        <time>2022-06-25T17:37:35Z</time>
      </trkpt>
      <trkpt lat="46.09971" lon="4.66184">
        <ele>247.8</ele>
        <time>2022-06-25T17:37:36Z</time>
      </trkpt>
      <trkpt lat="46.0997" lon="4.66196">
        <ele>247.2</ele>
        <time>2022-06-25T17:37:37Z</time>
      </trkpt>
      <trkpt lat="46.0997" lon="4.66206">
        <ele>246.6</ele>
        <time>2022-06-25T17:37:38Z</time>
      </trkpt>
      <trkpt lat="46.09969" lon="4.66216">
        <ele>246.2</ele>
        <time>2022-06-25T17:37:39Z</time>
      </trkpt>
      <trkpt lat="46.09968" lon="4.66226">
        <ele>245.8</ele>
        <time>2022-06-25T17:37:40Z</time>
      </trkpt>
      <trkpt lat="46.09966" lon="4.66234">
        <ele>245.4</ele>
        <time>2022-06-25T17:37:41Z</time>
      </trkpt>
      <trkpt lat="46.09963" lon="4.66242">
        <ele>245</ele>
        <time>2022-06-25T17:37:42Z</time>
      </trkpt>
      <trkpt lat="46.09958" lon="4.66248">
        <ele>244.6</ele>
        <time>2022-06-25T17:37:43Z</time>
      </trkpt>
      <trkpt lat="46.09952" lon="4.66253">
        <ele>244.4</ele>
        <time>2022-06-25T17:37:44Z</time>
      </trkpt>
      <trkpt lat="46.09946" lon="4.66257">
        <ele>244</ele>
        <time>2022-06-25T17:37:45Z</time>
      </trkpt>
      <trkpt lat="46.09939" lon="4.66259">
        <ele>244</ele>
        <time>2022-06-25T17:37:46Z</time>
      </trkpt>
      <trkpt lat="46.09933" lon="4.66262">
        <ele>243.6</ele>
        <time>2022-06-25T17:37:47Z</time>
      </trkpt>
      <trkpt lat="46.09926" lon="4.66263">
        <ele>243.4</ele>
        <time>2022-06-25T17:37:48Z</time>
      </trkpt>
      <trkpt lat="46.0992" lon="4.66265">
        <ele>243.4</ele>
        <time>2022-06-25T17:37:49Z</time>
      </trkpt>
      <trkpt lat="46.09914" lon="4.66267">
        <ele>243</ele>
        <time>2022-06-25T17:37:50Z</time>
      </trkpt>
      <trkpt lat="46.09908" lon="4.66269">
        <ele>242.8</ele>
        <time>2022-06-25T17:37:51Z</time>
      </trkpt>
      <trkpt lat="46.09902" lon="4.66271">
        <ele>242.6</ele>
        <time>2022-06-25T17:37:52Z</time>
      </trkpt>
      <trkpt lat="46.09897" lon="4.66274">
        <ele>242.2</ele>
        <time>2022-06-25T17:37:53Z</time>
      </trkpt>
      <trkpt lat="46.09892" lon="4.66276">
        <ele>242.2</ele>
        <time>2022-06-25T17:37:54Z</time>
      </trkpt>
      <trkpt lat="46.09887" lon="4.66277">
        <ele>242.2</ele>
        <time>2022-06-25T17:37:55Z</time>
      </trkpt>
      <trkpt lat="46.09882" lon="4.66275">
        <ele>242.2</ele>
        <time>2022-06-25T17:37:56Z</time>
      </trkpt>
      <trkpt lat="46.09878" lon="4.66273">
        <ele>242.2</ele>
        <time>2022-06-25T17:37:57Z</time>
      </trkpt>
      <trkpt lat="46.09874" lon="4.66268">
        <ele>242.4</ele>
        <time>2022-06-25T17:37:58Z</time>
      </trkpt>
      <trkpt lat="46.0987" lon="4.66263">
        <ele>242.4</ele>
        <time>2022-06-25T17:37:59Z</time>
      </trkpt>
      <trkpt lat="46.09866" lon="4.66258">
        <ele>243</ele>
        <time>2022-06-25T17:38:00Z</time>
      </trkpt>
      <trkpt lat="46.09862" lon="4.66254">
        <ele>243.2</ele>
        <time>2022-06-25T17:38:01Z</time>
      </trkpt>
      <trkpt lat="46.09858" lon="4.66249">
        <ele>243.2</ele>
        <time>2022-06-25T17:38:02Z</time>
      </trkpt>
      <trkpt lat="46.09854" lon="4.66244">
        <ele>243.2</ele>
        <time>2022-06-25T17:38:03Z</time>
      </trkpt>
      <trkpt lat="46.09851" lon="4.66239">
        <ele>243.4</ele>
        <time>2022-06-25T17:38:04Z</time>
      </trkpt>
      <trkpt lat="46.09847" lon="4.66234">
        <ele>243.6</ele>
        <time>2022-06-25T17:38:05Z</time>
      </trkpt>
      <trkpt lat="46.09843" lon="4.66229">
        <ele>244</ele>
        <time>2022-06-25T17:38:06Z</time>
      </trkpt>
      <trkpt lat="46.0984" lon="4.66225">
        <ele>244</ele>
        <time>2022-06-25T17:38:07Z</time>
      </trkpt>
      <trkpt lat="46.09836" lon="4.66221">
        <ele>244.2</ele>
        <time>2022-06-25T17:38:08Z</time>
      </trkpt>
      <trkpt lat="46.09833" lon="4.66217">
        <ele>244.4</ele>
        <time>2022-06-25T17:38:09Z</time>
      </trkpt>
      <trkpt lat="46.0983" lon="4.66212">
        <ele>244.4</ele>
        <time>2022-06-25T17:38:10Z</time>
      </trkpt>
      <trkpt lat="46.09826" lon="4.66208">
        <ele>245</ele>
        <time>2022-06-25T17:38:11Z</time>
      </trkpt>
      <trkpt lat="46.09823" lon="4.66205">
        <ele>245.2</ele>
        <time>2022-06-25T17:38:12Z</time>
      </trkpt>
      <trkpt lat="46.0982" lon="4.66202">
        <ele>245.4</ele>
        <time>2022-06-25T17:38:13Z</time>
      </trkpt>
      <trkpt lat="46.09816" lon="4.66199">
        <ele>245.8</ele>
        <time>2022-06-25T17:38:14Z</time>
      </trkpt>
      <trkpt lat="46.09812" lon="4.66197">
        <ele>246</ele>
        <time>2022-06-25T17:38:15Z</time>
      </trkpt>
      <trkpt lat="46.09808" lon="4.66195">
        <ele>246</ele>
        <time>2022-06-25T17:38:16Z</time>
      </trkpt>
      <trkpt lat="46.09804" lon="4.66193">
        <ele>246.4</ele>
        <time>2022-06-25T17:38:17Z</time>
      </trkpt>
      <trkpt lat="46.098" lon="4.66191">
        <ele>246.4</ele>
        <time>2022-06-25T17:38:18Z</time>
      </trkpt>
      <trkpt lat="46.09796" lon="4.6619">
        <ele>246.8</ele>
        <time>2022-06-25T17:38:19Z</time>
      </trkpt>
      <trkpt lat="46.09792" lon="4.66188">
        <ele>247</ele>
        <time>2022-06-25T17:38:20Z</time>
      </trkpt>
      <trkpt lat="46.09787" lon="4.66187">
        <ele>247</ele>
        <time>2022-06-25T17:38:21Z</time>
      </trkpt>
      <trkpt lat="46.09783" lon="4.66186">
        <ele>247.4</ele>
        <time>2022-06-25T17:38:22Z</time>
      </trkpt>
      <trkpt lat="46.09779" lon="4.66184">
        <ele>247.8</ele>
        <time>2022-06-25T17:38:23Z</time>
      </trkpt>
      <trkpt lat="46.09775" lon="4.66183">
        <ele>247.8</ele>
        <time>2022-06-25T17:38:24Z</time>
      </trkpt>
      <trkpt lat="46.09771" lon="4.66183">
        <ele>248.2</ele>
        <time>2022-06-25T17:38:25Z</time>
      </trkpt>
      <trkpt lat="46.09766" lon="4.66182">
        <ele>248.4</ele>
        <time>2022-06-25T17:38:26Z</time>
      </trkpt>
      <trkpt lat="46.09763" lon="4.6618">
        <ele>248.6</ele>
        <time>2022-06-25T17:38:27Z</time>
      </trkpt>
      <trkpt lat="46.09759" lon="4.66179">
        <ele>249</ele>
        <time>2022-06-25T17:38:28Z</time>
      </trkpt>
      <trkpt lat="46.09755" lon="4.66178">
        <ele>249.2</ele>
        <time>2022-06-25T17:38:29Z</time>
      </trkpt>
      <trkpt lat="46.09751" lon="4.66177">
        <ele>249.6</ele>
        <time>2022-06-25T17:38:30Z</time>
      </trkpt>
      <trkpt lat="46.09747" lon="4.66176">
        <ele>249.8</ele>
        <time>2022-06-25T17:38:31Z</time>
      </trkpt>
      <trkpt lat="46.09743" lon="4.66174">
        <ele>250.2</ele>
        <time>2022-06-25T17:38:32Z</time>
      </trkpt>
      <trkpt lat="46.09739" lon="4.66173">
        <ele>250.4</ele>
        <time>2022-06-25T17:38:33Z</time>
      </trkpt>
      <trkpt lat="46.09735" lon="4.66171">
        <ele>250.6</ele>
        <time>2022-06-25T17:38:34Z</time>
      </trkpt>
      <trkpt lat="46.09731" lon="4.6617">
        <ele>251</ele>
        <time>2022-06-25T17:38:35Z</time>
      </trkpt>
      <trkpt lat="46.09728" lon="4.66167">
        <ele>251.2</ele>
        <time>2022-06-25T17:38:36Z</time>
      </trkpt>
      <trkpt lat="46.09724" lon="4.66164">
        <ele>251.4</ele>
        <time>2022-06-25T17:38:37Z</time>
      </trkpt>
      <trkpt lat="46.09722" lon="4.6616">
        <ele>251.8</ele>
        <time>2022-06-25T17:38:38Z</time>
      </trkpt>
      <trkpt lat="46.09719" lon="4.66156">
        <ele>252</ele>
        <time>2022-06-25T17:38:39Z</time>
      </trkpt>
      <trkpt lat="46.09717" lon="4.66151">
        <ele>252.4</ele>
        <time>2022-06-25T17:38:40Z</time>
      </trkpt>
      <trkpt lat="46.09716" lon="4.66147">
        <ele>252.6</ele>
        <time>2022-06-25T17:38:41Z</time>
      </trkpt>
      <trkpt lat="46.09715" lon="4.66142">
        <ele>252.8</ele>
        <time>2022-06-25T17:38:42Z</time>
      </trkpt>
      <trkpt lat="46.09715" lon="4.66138">
        <ele>253.2</ele>
        <time>2022-06-25T17:38:43Z</time>
      </trkpt>
      <trkpt lat="46.09715" lon="4.66133">
        <ele>253.2</ele>
        <time>2022-06-25T17:38:44Z</time>
      </trkpt>
      <trkpt lat="46.09715" lon="4.66129">
        <ele>253.4</ele>
        <time>2022-06-25T17:38:45Z</time>
      </trkpt>
      <trkpt lat="46.09715" lon="4.66125">
        <ele>253.8</ele>
        <time>2022-06-25T17:38:46Z</time>
      </trkpt>
      <trkpt lat="46.09715" lon="4.66121">
        <ele>254</ele>
        <time>2022-06-25T17:38:47Z</time>
      </trkpt>
      <trkpt lat="46.09715" lon="4.66118">
        <ele>254.2</ele>
        <time>2022-06-25T17:38:48Z</time>
      </trkpt>
      <trkpt lat="46.09716" lon="4.66115">
        <ele>254.6</ele>
        <time>2022-06-25T17:38:49Z</time>
      </trkpt>
      <trkpt lat="46.09716" lon="4.66112">
        <ele>254.8</ele>
        <time>2022-06-25T17:38:50Z</time>
      </trkpt>
      <trkpt lat="46.09717" lon="4.66109">
        <ele>254.8</ele>
        <time>2022-06-25T17:38:51Z</time>
      </trkpt>
      <trkpt lat="46.09717" lon="4.66106">
        <ele>255.2</ele>
        <time>2022-06-25T17:38:52Z</time>
      </trkpt>
      <trkpt lat="46.09717" lon="4.66103">
        <ele>255.2</ele>
        <time>2022-06-25T17:38:53Z</time>
      </trkpt>
      <trkpt lat="46.09717" lon="4.661">
        <ele>255.4</ele>
        <time>2022-06-25T17:38:54Z</time>
      </trkpt>
      <trkpt lat="46.09716" lon="4.66098">
        <ele>255.4</ele>
        <time>2022-06-25T17:38:55Z</time>
      </trkpt>
      <trkpt lat="46.09715" lon="4.66097">
        <ele>255.6</ele>
        <time>2022-06-25T17:38:56Z</time>
      </trkpt>
      <trkpt lat="46.09714" lon="4.66098">
        <ele>255.6</ele>
        <time>2022-06-25T17:38:57Z</time>
      </trkpt>
      <trkpt lat="46.09714" lon="4.66099">
        <ele>256</ele>
        <time>2022-06-25T17:38:58Z</time>
      </trkpt>
      <trkpt lat="46.09714" lon="4.661">
        <ele>256</ele>
        <time>2022-06-25T17:38:59Z</time>
      </trkpt>
      <trkpt lat="46.09713" lon="4.66105">
        <ele>256.2</ele>
        <time>2022-06-25T17:39:14Z</time>
      </trkpt>
      <trkpt lat="46.09713" lon="4.66109">
        <ele>256</ele>
        <time>2022-06-25T17:39:15Z</time>
      </trkpt>
      <trkpt lat="46.09713" lon="4.66113">
        <ele>256</ele>
        <time>2022-06-25T17:39:16Z</time>
      </trkpt>
      <trkpt lat="46.09712" lon="4.66118">
        <ele>255.8</ele>
        <time>2022-06-25T17:39:17Z</time>
      </trkpt>
      <trkpt lat="46.09712" lon="4.66123">
        <ele>255.8</ele>
        <time>2022-06-25T17:39:18Z</time>
      </trkpt>
      <trkpt lat="46.09712" lon="4.66128">
        <ele>255.2</ele>
        <time>2022-06-25T17:39:19Z</time>
      </trkpt>
      <trkpt lat="46.09712" lon="4.66133">
        <ele>255.2</ele>
        <time>2022-06-25T17:39:20Z</time>
      </trkpt>
      <trkpt lat="46.09712" lon="4.66138">
        <ele>255</ele>
        <time>2022-06-25T17:39:21Z</time>
      </trkpt>
      <trkpt lat="46.09713" lon="4.66143">
        <ele>255</ele>
        <time>2022-06-25T17:39:22Z</time>
      </trkpt>
      <trkpt lat="46.09714" lon="4.66148">
        <ele>254.6</ele>
        <time>2022-06-25T17:39:23Z</time>
      </trkpt>
      <trkpt lat="46.09716" lon="4.66153">
        <ele>254.6</ele>
        <time>2022-06-25T17:39:24Z</time>
      </trkpt>
      <trkpt lat="46.09718" lon="4.66157">
        <ele>254.2</ele>
        <time>2022-06-25T17:39:25Z</time>
      </trkpt>
      <trkpt lat="46.09721" lon="4.66161">
        <ele>254</ele>
        <time>2022-06-25T17:39:26Z</time>
      </trkpt>
      <trkpt lat="46.09723" lon="4.66164">
        <ele>253.8</ele>
        <time>2022-06-25T17:39:27Z</time>
      </trkpt>
      <trkpt lat="46.09725" lon="4.66167">
        <ele>253.8</ele>
        <time>2022-06-25T17:39:28Z</time>
      </trkpt>
      <trkpt lat="46.09728" lon="4.66169">
        <ele>253.4</ele>
        <time>2022-06-25T17:39:29Z</time>
      </trkpt>
      <trkpt lat="46.0973" lon="4.66171">
        <ele>253.2</ele>
        <time>2022-06-25T17:39:30Z</time>
      </trkpt>
      <trkpt lat="46.09733" lon="4.66173">
        <ele>253.2</ele>
        <time>2022-06-25T17:39:31Z</time>
      </trkpt>
      <trkpt lat="46.09735" lon="4.66174">
        <ele>253</ele>
        <time>2022-06-25T17:39:32Z</time>
      </trkpt>
      <trkpt lat="46.09738" lon="4.66176">
        <ele>252.8</ele>
        <time>2022-06-25T17:39:33Z</time>
      </trkpt>
      <trkpt lat="46.09741" lon="4.66177">
        <ele>252.4</ele>
        <time>2022-06-25T17:39:34Z</time>
      </trkpt>
      <trkpt lat="46.09743" lon="4.66177">
        <ele>252.2</ele>
        <time>2022-06-25T17:39:35Z</time>
      </trkpt>
      <trkpt lat="46.09744" lon="4.66177">
        <ele>251.8</ele>
        <time>2022-06-25T17:39:36Z</time>
      </trkpt>
      <trkpt lat="46.09744" lon="4.66175">
        <ele>251.6</ele>
        <time>2022-06-25T17:39:37Z</time>
      </trkpt>
      <trkpt lat="46.09742" lon="4.66174">
        <ele>251.6</ele>
        <time>2022-06-25T17:39:38Z</time>
      </trkpt>
      <trkpt lat="46.09741" lon="4.66173">
        <ele>251.4</ele>
        <time>2022-06-25T17:39:39Z</time>
      </trkpt>
      <trkpt lat="46.09739" lon="4.66172">
        <ele>251.4</ele>
        <time>2022-06-25T17:39:40Z</time>
      </trkpt>
      <trkpt lat="46.09737" lon="4.66171">
        <ele>251.4</ele>
        <time>2022-06-25T17:39:41Z</time>
      </trkpt>
      <trkpt lat="46.09735" lon="4.6617">
        <ele>251.4</ele>
        <time>2022-06-25T17:39:42Z</time>
      </trkpt>
      <trkpt lat="46.09732" lon="4.66169">
        <ele>251.4</ele>
        <time>2022-06-25T17:39:43Z</time>
      </trkpt>
      <trkpt lat="46.0973" lon="4.66167">
        <ele>251.6</ele>
        <time>2022-06-25T17:39:44Z</time>
      </trkpt>
      <trkpt lat="46.09727" lon="4.66164">
        <ele>251.6</ele>
        <time>2022-06-25T17:39:45Z</time>
      </trkpt>
      <trkpt lat="46.09725" lon="4.66161">
        <ele>251.8</ele>
        <time>2022-06-25T17:39:46Z</time>
      </trkpt>
      <trkpt lat="46.09723" lon="4.66158">
        <ele>251.8</ele>
        <time>2022-06-25T17:39:47Z</time>
      </trkpt>
      <trkpt lat="46.09721" lon="4.66155">
        <ele>252.2</ele>
        <time>2022-06-25T17:39:48Z</time>
      </trkpt>
      <trkpt lat="46.09719" lon="4.66151">
        <ele>252.4</ele>
        <time>2022-06-25T17:39:49Z</time>
      </trkpt>
      <trkpt lat="46.09718" lon="4.66148">
        <ele>252.8</ele>
        <time>2022-06-25T17:39:50Z</time>
      </trkpt>
      <trkpt lat="46.09717" lon="4.66144">
        <ele>253</ele>
        <time>2022-06-25T17:39:51Z</time>
      </trkpt>
      <trkpt lat="46.09716" lon="4.6614">
        <ele>253.4</ele>
        <time>2022-06-25T17:39:52Z</time>
      </trkpt>
      <trkpt lat="46.09716" lon="4.66137">
        <ele>253.4</ele>
        <time>2022-06-25T17:39:53Z</time>
      </trkpt>
      <trkpt lat="46.09715" lon="4.66133">
        <ele>253.8</ele>
        <time>2022-06-25T17:39:54Z</time>
      </trkpt>
      <trkpt lat="46.09715" lon="4.66129">
        <ele>254</ele>
        <time>2022-06-25T17:39:55Z</time>
      </trkpt>
      <trkpt lat="46.09715" lon="4.66126">
        <ele>254.4</ele>
        <time>2022-06-25T17:39:56Z</time>
      </trkpt>
      <trkpt lat="46.09716" lon="4.66122">
        <ele>254.4</ele>
        <time>2022-06-25T17:39:57Z</time>
      </trkpt>
      <trkpt lat="46.09716" lon="4.66118">
        <ele>254.8</ele>
        <time>2022-06-25T17:39:58Z</time>
      </trkpt>
      <trkpt lat="46.09716" lon="4.66114">
        <ele>255</ele>
        <time>2022-06-25T17:39:59Z</time>
      </trkpt>
      <trkpt lat="46.09717" lon="4.66111">
        <ele>255</ele>
        <time>2022-06-25T17:40:00Z</time>
      </trkpt>
      <trkpt lat="46.09717" lon="4.66107">
        <ele>255.4</ele>
        <time>2022-06-25T17:40:01Z</time>
      </trkpt>
      <trkpt lat="46.09718" lon="4.66105">
        <ele>255.6</ele>
        <time>2022-06-25T17:40:02Z</time>
      </trkpt>
      <trkpt lat="46.09718" lon="4.66102">
        <ele>255.6</ele>
        <time>2022-06-25T17:40:03Z</time>
      </trkpt>
      <trkpt lat="46.09718" lon="4.66099">
        <ele>256</ele>
        <time>2022-06-25T17:40:04Z</time>
      </trkpt>
      <trkpt lat="46.09719" lon="4.66096">
        <ele>256.2</ele>
        <time>2022-06-25T17:40:05Z</time>
      </trkpt>
      <trkpt lat="46.09719" lon="4.66092">
        <ele>256.6</ele>
        <time>2022-06-25T17:40:06Z</time>
      </trkpt>
      <trkpt lat="46.09719" lon="4.66089">
        <ele>256.8</ele>
        <time>2022-06-25T17:40:07Z</time>
      </trkpt>
      <trkpt lat="46.0972" lon="4.66085">
        <ele>256.8</ele>
        <time>2022-06-25T17:40:08Z</time>
      </trkpt>
      <trkpt lat="46.0972" lon="4.66082">
        <ele>256.8</ele>
        <time>2022-06-25T17:40:09Z</time>
      </trkpt>
      <trkpt lat="46.09721" lon="4.6608">
        <ele>257.2</ele>
        <time>2022-06-25T17:40:10Z</time>
      </trkpt>
      <trkpt lat="46.09721" lon="4.66077">
        <ele>257.2</ele>
        <time>2022-06-25T17:40:11Z</time>
      </trkpt>
      <trkpt lat="46.09721" lon="4.66074">
        <ele>257.4</ele>
        <time>2022-06-25T17:40:12Z</time>
      </trkpt>
      <trkpt lat="46.09721" lon="4.6607">
        <ele>257.6</ele>
        <time>2022-06-25T17:40:13Z</time>
      </trkpt>
      <trkpt lat="46.09722" lon="4.66067">
        <ele>257.6</ele>
        <time>2022-06-25T17:40:14Z</time>
      </trkpt>
      <trkpt lat="46.09722" lon="4.66063">
        <ele>258</ele>
        <time>2022-06-25T17:40:15Z</time>
      </trkpt>
      <trkpt lat="46.09723" lon="4.66059">
        <ele>258</ele>
        <time>2022-06-25T17:40:16Z</time>
      </trkpt>
      <trkpt lat="46.09723" lon="4.66054">
        <ele>258.4</ele>
        <time>2022-06-25T17:40:17Z</time>
      </trkpt>
      <trkpt lat="46.09724" lon="4.6605">
        <ele>258.8</ele>
        <time>2022-06-25T17:40:18Z</time>
      </trkpt>
      <trkpt lat="46.09724" lon="4.66045">
        <ele>259.2</ele>
        <time>2022-06-25T17:40:19Z</time>
      </trkpt>
      <trkpt lat="46.09724" lon="4.66041">
        <ele>259.2</ele>
        <time>2022-06-25T17:40:20Z</time>
      </trkpt>
      <trkpt lat="46.09724" lon="4.66036">
        <ele>259.4</ele>
        <time>2022-06-25T17:40:21Z</time>
      </trkpt>
      <trkpt lat="46.09724" lon="4.66031">
        <ele>259.4</ele>
        <time>2022-06-25T17:40:22Z</time>
      </trkpt>
      <trkpt lat="46.09723" lon="4.66026">
        <ele>259.8</ele>
        <time>2022-06-25T17:40:23Z</time>
      </trkpt>
      <trkpt lat="46.09723" lon="4.66021">
        <ele>259.8</ele>
        <time>2022-06-25T17:40:24Z</time>
      </trkpt>
      <trkpt lat="46.09723" lon="4.66016">
        <ele>260.2</ele>
        <time>2022-06-25T17:40:25Z</time>
      </trkpt>
      <trkpt lat="46.09723" lon="4.6601">
        <ele>260.4</ele>
        <time>2022-06-25T17:40:26Z</time>
      </trkpt>
      <trkpt lat="46.09722" lon="4.66005">
        <ele>260.6</ele>
        <time>2022-06-25T17:40:27Z</time>
      </trkpt>
      <trkpt lat="46.09722" lon="4.66">
        <ele>260.8</ele>
        <time>2022-06-25T17:40:28Z</time>
      </trkpt>
      <trkpt lat="46.09722" lon="4.65994">
        <ele>260.8</ele>
        <time>2022-06-25T17:40:29Z</time>
      </trkpt>
      <trkpt lat="46.09722" lon="4.65989">
        <ele>261.2</ele>
        <time>2022-06-25T17:40:30Z</time>
      </trkpt>
      <trkpt lat="46.09721" lon="4.65984">
        <ele>261.4</ele>
        <time>2022-06-25T17:40:31Z</time>
      </trkpt>
      <trkpt lat="46.09721" lon="4.65979">
        <ele>261.6</ele>
        <time>2022-06-25T17:40:32Z</time>
      </trkpt>
      <trkpt lat="46.0972" lon="4.65974">
        <ele>261.6</ele>
        <time>2022-06-25T17:40:33Z</time>
      </trkpt>
      <trkpt lat="46.09719" lon="4.65969">
        <ele>262.2</ele>
        <time>2022-06-25T17:40:34Z</time>
      </trkpt>
      <trkpt lat="46.09719" lon="4.65964">
        <ele>262.2</ele>
        <time>2022-06-25T17:40:35Z</time>
      </trkpt>
      <trkpt lat="46.09719" lon="4.6596">
        <ele>262.4</ele>
        <time>2022-06-25T17:40:36Z</time>
      </trkpt>
      <trkpt lat="46.09718" lon="4.65955">
        <ele>262.4</ele>
        <time>2022-06-25T17:40:37Z</time>
      </trkpt>
      <trkpt lat="46.09718" lon="4.6595">
        <ele>263</ele>
        <time>2022-06-25T17:40:38Z</time>
      </trkpt>
      <trkpt lat="46.09717" lon="4.65945">
        <ele>263.4</ele>
        <time>2022-06-25T17:40:39Z</time>
      </trkpt>
      <trkpt lat="46.09717" lon="4.65941">
        <ele>263.8</ele>
        <time>2022-06-25T17:40:40Z</time>
      </trkpt>
      <trkpt lat="46.09716" lon="4.65937">
        <ele>263.8</ele>
        <time>2022-06-25T17:40:41Z</time>
      </trkpt>
      <trkpt lat="46.09716" lon="4.65933">
        <ele>264</ele>
        <time>2022-06-25T17:40:42Z</time>
      </trkpt>
      <trkpt lat="46.09716" lon="4.65928">
        <ele>264</ele>
        <time>2022-06-25T17:40:43Z</time>
      </trkpt>
      <trkpt lat="46.09716" lon="4.65924">
        <ele>264.4</ele>
        <time>2022-06-25T17:40:44Z</time>
      </trkpt>
      <trkpt lat="46.09715" lon="4.6592">
        <ele>264.6</ele>
        <time>2022-06-25T17:40:45Z</time>
      </trkpt>
      <trkpt lat="46.09715" lon="4.65915">
        <ele>264.6</ele>
        <time>2022-06-25T17:40:46Z</time>
      </trkpt>
      <trkpt lat="46.09714" lon="4.65911">
        <ele>265</ele>
        <time>2022-06-25T17:40:47Z</time>
      </trkpt>
      <trkpt lat="46.09714" lon="4.65907">
        <ele>265.2</ele>
        <time>2022-06-25T17:40:48Z</time>
      </trkpt>
      <trkpt lat="46.09714" lon="4.65902">
        <ele>265.2</ele>
        <time>2022-06-25T17:40:49Z</time>
      </trkpt>
      <trkpt lat="46.09713" lon="4.65898">
        <ele>265.4</ele>
        <time>2022-06-25T17:40:50Z</time>
      </trkpt>
      <trkpt lat="46.09713" lon="4.65893">
        <ele>265.6</ele>
        <time>2022-06-25T17:40:51Z</time>
      </trkpt>
      <trkpt lat="46.09713" lon="4.65889">
        <ele>266</ele>
        <time>2022-06-25T17:40:52Z</time>
      </trkpt>
      <trkpt lat="46.09713" lon="4.65885">
        <ele>266.2</ele>
        <time>2022-06-25T17:40:53Z</time>
      </trkpt>
      <trkpt lat="46.09713" lon="4.65881">
        <ele>266.4</ele>
        <time>2022-06-25T17:40:54Z</time>
      </trkpt>
      <trkpt lat="46.09713" lon="4.65877">
        <ele>266.8</ele>
        <time>2022-06-25T17:40:55Z</time>
      </trkpt>
      <trkpt lat="46.09713" lon="4.65873">
        <ele>266.8</ele>
        <time>2022-06-25T17:40:56Z</time>
      </trkpt>
      <trkpt lat="46.09712" lon="4.65869">
        <ele>266.8</ele>
        <time>2022-06-25T17:40:57Z</time>
      </trkpt>
      <trkpt lat="46.09712" lon="4.65865">
        <ele>267</ele>
        <time>2022-06-25T17:40:58Z</time>
      </trkpt>
      <trkpt lat="46.09712" lon="4.6586">
        <ele>267</ele>
        <time>2022-06-25T17:40:59Z</time>
      </trkpt>
      <trkpt lat="46.09712" lon="4.65856">
        <ele>267.2</ele>
        <time>2022-06-25T17:41:00Z</time>
      </trkpt>
      <trkpt lat="46.09712" lon="4.65852">
        <ele>267.2</ele>
        <time>2022-06-25T17:41:01Z</time>
      </trkpt>
      <trkpt lat="46.09712" lon="4.65847">
        <ele>267.6</ele>
        <time>2022-06-25T17:41:02Z</time>
      </trkpt>
      <trkpt lat="46.09712" lon="4.65843">
        <ele>267.8</ele>
        <time>2022-06-25T17:41:03Z</time>
      </trkpt>
      <trkpt lat="46.09712" lon="4.65839">
        <ele>268</ele>
        <time>2022-06-25T17:41:04Z</time>
      </trkpt>
      <trkpt lat="46.09712" lon="4.65834">
        <ele>268.6</ele>
        <time>2022-06-25T17:41:05Z</time>
      </trkpt>
      <trkpt lat="46.09712" lon="4.6583">
        <ele>268.8</ele>
        <time>2022-06-25T17:41:06Z</time>
      </trkpt>
      <trkpt lat="46.09712" lon="4.65825">
        <ele>268.8</ele>
        <time>2022-06-25T17:41:07Z</time>
      </trkpt>
      <trkpt lat="46.09712" lon="4.65821">
        <ele>268.8</ele>
        <time>2022-06-25T17:41:08Z</time>
      </trkpt>
      <trkpt lat="46.09712" lon="4.65816">
        <ele>268.8</ele>
        <time>2022-06-25T17:41:09Z</time>
      </trkpt>
      <trkpt lat="46.09712" lon="4.65812">
        <ele>269.2</ele>
        <time>2022-06-25T17:41:10Z</time>
      </trkpt>
      <trkpt lat="46.09712" lon="4.65807">
        <ele>269.2</ele>
        <time>2022-06-25T17:41:11Z</time>
      </trkpt>
      <trkpt lat="46.09712" lon="4.65803">
        <ele>269.4</ele>
        <time>2022-06-25T17:41:13Z</time>
      </trkpt>
      <trkpt lat="46.09712" lon="4.65798">
        <ele>269.4</ele>
        <time>2022-06-25T17:41:14Z</time>
      </trkpt>
      <trkpt lat="46.09712" lon="4.65793">
        <ele>269.4</ele>
        <time>2022-06-25T17:41:15Z</time>
      </trkpt>
      <trkpt lat="46.09711" lon="4.65789">
        <ele>269.8</ele>
        <time>2022-06-25T17:41:16Z</time>
      </trkpt>
      <trkpt lat="46.09711" lon="4.65784">
        <ele>269.8</ele>
        <time>2022-06-25T17:41:17Z</time>
      </trkpt>
      <trkpt lat="46.09711" lon="4.65779">
        <ele>270.4</ele>
        <time>2022-06-25T17:41:18Z</time>
      </trkpt>
      <trkpt lat="46.09711" lon="4.65775">
        <ele>270.6</ele>
        <time>2022-06-25T17:41:19Z</time>
      </trkpt>
      <trkpt lat="46.09711" lon="4.65771">
        <ele>270.8</ele>
        <time>2022-06-25T17:41:20Z</time>
      </trkpt>
      <trkpt lat="46.09711" lon="4.65766">
        <ele>270.8</ele>
        <time>2022-06-25T17:41:21Z</time>
      </trkpt>
      <trkpt lat="46.09711" lon="4.65762">
        <ele>271.2</ele>
        <time>2022-06-25T17:41:22Z</time>
      </trkpt>
      <trkpt lat="46.09711" lon="4.65757">
        <ele>271.2</ele>
        <time>2022-06-25T17:41:23Z</time>
      </trkpt>
      <trkpt lat="46.09711" lon="4.65753">
        <ele>271.2</ele>
        <time>2022-06-25T17:41:24Z</time>
      </trkpt>
      <trkpt lat="46.09711" lon="4.65748">
        <ele>271.6</ele>
        <time>2022-06-25T17:41:25Z</time>
      </trkpt>
      <trkpt lat="46.09711" lon="4.65743">
        <ele>271.6</ele>
        <time>2022-06-25T17:41:26Z</time>
      </trkpt>
      <trkpt lat="46.09711" lon="4.65739">
        <ele>272</ele>
        <time>2022-06-25T17:41:27Z</time>
      </trkpt>
      <trkpt lat="46.09711" lon="4.65734">
        <ele>272</ele>
        <time>2022-06-25T17:41:28Z</time>
      </trkpt>
      <trkpt lat="46.09711" lon="4.65729">
        <ele>272</ele>
        <time>2022-06-25T17:41:29Z</time>
      </trkpt>
      <trkpt lat="46.09711" lon="4.65724">
        <ele>272.2</ele>
        <time>2022-06-25T17:41:30Z</time>
      </trkpt>
      <trkpt lat="46.09711" lon="4.65719">
        <ele>272.2</ele>
        <time>2022-06-25T17:41:31Z</time>
      </trkpt>
      <trkpt lat="46.09711" lon="4.65714">
        <ele>272.4</ele>
        <time>2022-06-25T17:41:32Z</time>
      </trkpt>
      <trkpt lat="46.09711" lon="4.65709">
        <ele>272.4</ele>
        <time>2022-06-25T17:41:33Z</time>
      </trkpt>
      <trkpt lat="46.09711" lon="4.65704">
        <ele>272.4</ele>
        <time>2022-06-25T17:41:34Z</time>
      </trkpt>
      <trkpt lat="46.09711" lon="4.65699">
        <ele>272.4</ele>
        <time>2022-06-25T17:41:35Z</time>
      </trkpt>
      <trkpt lat="46.09711" lon="4.65694">
        <ele>272.8</ele>
        <time>2022-06-25T17:41:36Z</time>
      </trkpt>
      <trkpt lat="46.09711" lon="4.65689">
        <ele>272.8</ele>
        <time>2022-06-25T17:41:37Z</time>
      </trkpt>
      <trkpt lat="46.09711" lon="4.65684">
        <ele>273</ele>
        <time>2022-06-25T17:41:38Z</time>
      </trkpt>
      <trkpt lat="46.09711" lon="4.65679">
        <ele>273</ele>
        <time>2022-06-25T17:41:39Z</time>
      </trkpt>
      <trkpt lat="46.09711" lon="4.65674">
        <ele>273.2</ele>
        <time>2022-06-25T17:41:40Z</time>
      </trkpt>
      <trkpt lat="46.09711" lon="4.65669">
        <ele>273.6</ele>
        <time>2022-06-25T17:41:41Z</time>
      </trkpt>
      <trkpt lat="46.09711" lon="4.65665">
        <ele>273.6</ele>
        <time>2022-06-25T17:41:42Z</time>
      </trkpt>
      <trkpt lat="46.09711" lon="4.6566">
        <ele>273.8</ele>
        <time>2022-06-25T17:41:43Z</time>
      </trkpt>
      <trkpt lat="46.09711" lon="4.65655">
        <ele>273.8</ele>
        <time>2022-06-25T17:41:44Z</time>
      </trkpt>
      <trkpt lat="46.09711" lon="4.6565">
        <ele>274.2</ele>
        <time>2022-06-25T17:41:45Z</time>
      </trkpt>
      <trkpt lat="46.09711" lon="4.65646">
        <ele>274.2</ele>
        <time>2022-06-25T17:41:46Z</time>
      </trkpt>
      <trkpt lat="46.09711" lon="4.65641">
        <ele>274.4</ele>
        <time>2022-06-25T17:41:47Z</time>
      </trkpt>
      <trkpt lat="46.09711" lon="4.65636">
        <ele>274.6</ele>
        <time>2022-06-25T17:41:48Z</time>
      </trkpt>
      <trkpt lat="46.09711" lon="4.65631">
        <ele>275</ele>
        <time>2022-06-25T17:41:49Z</time>
      </trkpt>
      <trkpt lat="46.09711" lon="4.65626">
        <ele>275</ele>
        <time>2022-06-25T17:41:50Z</time>
      </trkpt>
      <trkpt lat="46.09711" lon="4.65621">
        <ele>275</ele>
        <time>2022-06-25T17:41:51Z</time>
      </trkpt>
      <trkpt lat="46.09711" lon="4.65617">
        <ele>275.4</ele>
        <time>2022-06-25T17:41:52Z</time>
      </trkpt>
      <trkpt lat="46.0971" lon="4.65612">
        <ele>275.4</ele>
        <time>2022-06-25T17:41:53Z</time>
      </trkpt>
      <trkpt lat="46.0971" lon="4.65607">
        <ele>275.6</ele>
        <time>2022-06-25T17:41:54Z</time>
      </trkpt>
      <trkpt lat="46.09709" lon="4.65603">
        <ele>275.6</ele>
        <time>2022-06-25T17:41:55Z</time>
      </trkpt>
      <trkpt lat="46.09709" lon="4.65598">
        <ele>276</ele>
        <time>2022-06-25T17:41:56Z</time>
      </trkpt>
      <trkpt lat="46.09709" lon="4.65594">
        <ele>276</ele>
        <time>2022-06-25T17:41:57Z</time>
      </trkpt>
      <trkpt lat="46.09708" lon="4.65589">
        <ele>276.4</ele>
        <time>2022-06-25T17:41:58Z</time>
      </trkpt>
      <trkpt lat="46.09708" lon="4.65585">
        <ele>276.4</ele>
        <time>2022-06-25T17:41:59Z</time>
      </trkpt>
      <trkpt lat="46.09707" lon="4.6558">
        <ele>276.8</ele>
        <time>2022-06-25T17:42:00Z</time>
      </trkpt>
      <trkpt lat="46.09707" lon="4.65576">
        <ele>277.2</ele>
        <time>2022-06-25T17:42:01Z</time>
      </trkpt>
      <trkpt lat="46.09706" lon="4.65572">
        <ele>277.4</ele>
        <time>2022-06-25T17:42:02Z</time>
      </trkpt>
      <trkpt lat="46.09705" lon="4.65567">
        <ele>277.4</ele>
        <time>2022-06-25T17:42:03Z</time>
      </trkpt>
      <trkpt lat="46.09704" lon="4.65563">
        <ele>277.8</ele>
        <time>2022-06-25T17:42:04Z</time>
      </trkpt>
      <trkpt lat="46.09703" lon="4.65558">
        <ele>277.8</ele>
        <time>2022-06-25T17:42:05Z</time>
      </trkpt>
      <trkpt lat="46.09702" lon="4.65554">
        <ele>278.2</ele>
        <time>2022-06-25T17:42:06Z</time>
      </trkpt>
      <trkpt lat="46.09701" lon="4.65549">
        <ele>278.2</ele>
        <time>2022-06-25T17:42:07Z</time>
      </trkpt>
      <trkpt lat="46.097" lon="4.65545">
        <ele>278.4</ele>
        <time>2022-06-25T17:42:08Z</time>
      </trkpt>
      <trkpt lat="46.09699" lon="4.6554">
        <ele>278.4</ele>
        <time>2022-06-25T17:42:09Z</time>
      </trkpt>
      <trkpt lat="46.09698" lon="4.65536">
        <ele>278.8</ele>
        <time>2022-06-25T17:42:10Z</time>
      </trkpt>
      <trkpt lat="46.09698" lon="4.65532">
        <ele>278.8</ele>
        <time>2022-06-25T17:42:11Z</time>
      </trkpt>
      <trkpt lat="46.09697" lon="4.65527">
        <ele>279.2</ele>
        <time>2022-06-25T17:42:12Z</time>
      </trkpt>
      <trkpt lat="46.09696" lon="4.65523">
        <ele>279.2</ele>
        <time>2022-06-25T17:42:13Z</time>
      </trkpt>
      <trkpt lat="46.09695" lon="4.65519">
        <ele>279.6</ele>
        <time>2022-06-25T17:42:14Z</time>
      </trkpt>
      <trkpt lat="46.09694" lon="4.65515">
        <ele>279.6</ele>
        <time>2022-06-25T17:42:15Z</time>
      </trkpt>
      <trkpt lat="46.09693" lon="4.6551">
        <ele>280</ele>
        <time>2022-06-25T17:42:16Z</time>
      </trkpt>
      <trkpt lat="46.09692" lon="4.65506">
        <ele>280.2</ele>
        <time>2022-06-25T17:42:17Z</time>
      </trkpt>
      <trkpt lat="46.09691" lon="4.65502">
        <ele>280.2</ele>
        <time>2022-06-25T17:42:18Z</time>
      </trkpt>
      <trkpt lat="46.0969" lon="4.65498">
        <ele>280.6</ele>
        <time>2022-06-25T17:42:19Z</time>
      </trkpt>
      <trkpt lat="46.09689" lon="4.65494">
        <ele>280.6</ele>
        <time>2022-06-25T17:42:20Z</time>
      </trkpt>
      <trkpt lat="46.09688" lon="4.6549">
        <ele>280.8</ele>
        <time>2022-06-25T17:42:21Z</time>
      </trkpt>
      <trkpt lat="46.09686" lon="4.65485">
        <ele>280.8</ele>
        <time>2022-06-25T17:42:22Z</time>
      </trkpt>
      <trkpt lat="46.09685" lon="4.65481">
        <ele>281.2</ele>
        <time>2022-06-25T17:42:23Z</time>
      </trkpt>
      <trkpt lat="46.09683" lon="4.65477">
        <ele>281.2</ele>
        <time>2022-06-25T17:42:24Z</time>
      </trkpt>
      <trkpt lat="46.09681" lon="4.65473">
        <ele>281.6</ele>
        <time>2022-06-25T17:42:25Z</time>
      </trkpt>
      <trkpt lat="46.09679" lon="4.65469">
        <ele>281.8</ele>
        <time>2022-06-25T17:42:26Z</time>
      </trkpt>
      <trkpt lat="46.09678" lon="4.65465">
        <ele>282</ele>
        <time>2022-06-25T17:42:27Z</time>
      </trkpt>
      <trkpt lat="46.09676" lon="4.65461">
        <ele>282.4</ele>
        <time>2022-06-25T17:42:28Z</time>
      </trkpt>
      <trkpt lat="46.09674" lon="4.65457">
        <ele>282.6</ele>
        <time>2022-06-25T17:42:29Z</time>
      </trkpt>
      <trkpt lat="46.09672" lon="4.65453">
        <ele>282.6</ele>
        <time>2022-06-25T17:42:30Z</time>
      </trkpt>
      <trkpt lat="46.09669" lon="4.65448">
        <ele>282.8</ele>
        <time>2022-06-25T17:42:31Z</time>
      </trkpt>
      <trkpt lat="46.09667" lon="4.65444">
        <ele>283.2</ele>
        <time>2022-06-25T17:42:32Z</time>
      </trkpt>
      <trkpt lat="46.09665" lon="4.6544">
        <ele>283.4</ele>
        <time>2022-06-25T17:42:33Z</time>
      </trkpt>
      <trkpt lat="46.09663" lon="4.65435">
        <ele>283.4</ele>
        <time>2022-06-25T17:42:34Z</time>
      </trkpt>
      <trkpt lat="46.09661" lon="4.65431">
        <ele>283.6</ele>
        <time>2022-06-25T17:42:35Z</time>
      </trkpt>
      <trkpt lat="46.09658" lon="4.65427">
        <ele>283.6</ele>
        <time>2022-06-25T17:42:36Z</time>
      </trkpt>
      <trkpt lat="46.09656" lon="4.65423">
        <ele>284</ele>
        <time>2022-06-25T17:42:37Z</time>
      </trkpt>
      <trkpt lat="46.09654" lon="4.65418">
        <ele>284</ele>
        <time>2022-06-25T17:42:38Z</time>
      </trkpt>
      <trkpt lat="46.09652" lon="4.65414">
        <ele>284</ele>
        <time>2022-06-25T17:42:39Z</time>
      </trkpt>
      <trkpt lat="46.09649" lon="4.6541">
        <ele>284.2</ele>
        <time>2022-06-25T17:42:40Z</time>
      </trkpt>
      <trkpt lat="46.09647" lon="4.65406">
        <ele>284.2</ele>
        <time>2022-06-25T17:42:41Z</time>
      </trkpt>
      <trkpt lat="46.09645" lon="4.65402">
        <ele>284.2</ele>
        <time>2022-06-25T17:42:42Z</time>
      </trkpt>
      <trkpt lat="46.09642" lon="4.65398">
        <ele>284.6</ele>
        <time>2022-06-25T17:42:43Z</time>
      </trkpt>
      <trkpt lat="46.0964" lon="4.65395">
        <ele>284.6</ele>
        <time>2022-06-25T17:42:44Z</time>
      </trkpt>
      <trkpt lat="46.09637" lon="4.65391">
        <ele>285</ele>
        <time>2022-06-25T17:42:45Z</time>
      </trkpt>
      <trkpt lat="46.09635" lon="4.65387">
        <ele>285</ele>
        <time>2022-06-25T17:42:46Z</time>
      </trkpt>
      <trkpt lat="46.09632" lon="4.65383">
        <ele>285.4</ele>
        <time>2022-06-25T17:42:47Z</time>
      </trkpt>
      <trkpt lat="46.0963" lon="4.6538">
        <ele>285.4</ele>
        <time>2022-06-25T17:42:48Z</time>
      </trkpt>
      <trkpt lat="46.09627" lon="4.65376">
        <ele>285.6</ele>
        <time>2022-06-25T17:42:49Z</time>
      </trkpt>
      <trkpt lat="46.09624" lon="4.65373">
        <ele>285.6</ele>
        <time>2022-06-25T17:42:50Z</time>
      </trkpt>
      <trkpt lat="46.09622" lon="4.6537">
        <ele>285.8</ele>
        <time>2022-06-25T17:42:51Z</time>
      </trkpt>
      <trkpt lat="46.09619" lon="4.65366">
        <ele>285.8</ele>
        <time>2022-06-25T17:42:52Z</time>
      </trkpt>
      <trkpt lat="46.09617" lon="4.65362">
        <ele>286.2</ele>
        <time>2022-06-25T17:42:53Z</time>
      </trkpt>
      <trkpt lat="46.09614" lon="4.65358">
        <ele>286.2</ele>
        <time>2022-06-25T17:42:54Z</time>
      </trkpt>
      <trkpt lat="46.09611" lon="4.65355">
        <ele>286.4</ele>
        <time>2022-06-25T17:42:55Z</time>
      </trkpt>
      <trkpt lat="46.09609" lon="4.65351">
        <ele>286.8</ele>
        <time>2022-06-25T17:42:56Z</time>
      </trkpt>
      <trkpt lat="46.09606" lon="4.65348">
        <ele>286.8</ele>
        <time>2022-06-25T17:42:57Z</time>
      </trkpt>
      <trkpt lat="46.09603" lon="4.65344">
        <ele>287</ele>
        <time>2022-06-25T17:42:58Z</time>
      </trkpt>
      <trkpt lat="46.096" lon="4.65341">
        <ele>287</ele>
        <time>2022-06-25T17:42:59Z</time>
      </trkpt>
      <trkpt lat="46.09598" lon="4.65337">
        <ele>287</ele>
        <time>2022-06-25T17:43:00Z</time>
      </trkpt>
      <trkpt lat="46.09595" lon="4.65334">
        <ele>287</ele>
        <time>2022-06-25T17:43:01Z</time>
      </trkpt>
      <trkpt lat="46.09593" lon="4.65331">
        <ele>287.2</ele>
        <time>2022-06-25T17:43:02Z</time>
      </trkpt>
      <trkpt lat="46.0959" lon="4.65327">
        <ele>287.2</ele>
        <time>2022-06-25T17:43:03Z</time>
      </trkpt>
      <trkpt lat="46.09588" lon="4.65324">
        <ele>287.4</ele>
        <time>2022-06-25T17:43:04Z</time>
      </trkpt>
      <trkpt lat="46.09585" lon="4.65321">
        <ele>287.4</ele>
        <time>2022-06-25T17:43:05Z</time>
      </trkpt>
      <trkpt lat="46.09583" lon="4.65318">
        <ele>287.8</ele>
        <time>2022-06-25T17:43:06Z</time>
      </trkpt>
      <trkpt lat="46.0958" lon="4.65315">
        <ele>287.8</ele>
        <time>2022-06-25T17:43:07Z</time>
      </trkpt>
      <trkpt lat="46.09578" lon="4.65312">
        <ele>288</ele>
        <time>2022-06-25T17:43:08Z</time>
      </trkpt>
      <trkpt lat="46.09576" lon="4.65309">
        <ele>288.4</ele>
        <time>2022-06-25T17:43:09Z</time>
      </trkpt>
      <trkpt lat="46.09573" lon="4.65305">
        <ele>288.6</ele>
        <time>2022-06-25T17:43:10Z</time>
      </trkpt>
      <trkpt lat="46.09571" lon="4.65302">
        <ele>288.6</ele>
        <time>2022-06-25T17:43:11Z</time>
      </trkpt>
      <trkpt lat="46.09565" lon="4.65296">
        <ele>288.8</ele>
        <time>2022-06-25T17:43:12Z</time>
      </trkpt>
      <trkpt lat="46.09563" lon="4.65293">
        <ele>289.2</ele>
        <time>2022-06-25T17:43:13Z</time>
      </trkpt>
      <trkpt lat="46.0956" lon="4.65289">
        <ele>289.4</ele>
        <time>2022-06-25T17:43:14Z</time>
      </trkpt>
      <trkpt lat="46.09557" lon="4.65286">
        <ele>289.8</ele>
        <time>2022-06-25T17:43:15Z</time>
      </trkpt>
      <trkpt lat="46.09555" lon="4.65283">
        <ele>290</ele>
        <time>2022-06-25T17:43:16Z</time>
      </trkpt>
      <trkpt lat="46.09552" lon="4.6528">
        <ele>290.2</ele>
        <time>2022-06-25T17:43:17Z</time>
      </trkpt>
      <trkpt lat="46.09549" lon="4.65277">
        <ele>290.4</ele>
        <time>2022-06-25T17:43:18Z</time>
      </trkpt>
      <trkpt lat="46.09546" lon="4.65274">
        <ele>290.8</ele>
        <time>2022-06-25T17:43:19Z</time>
      </trkpt>
      <trkpt lat="46.09543" lon="4.65271">
        <ele>290.8</ele>
        <time>2022-06-25T17:43:20Z</time>
      </trkpt>
      <trkpt lat="46.0954" lon="4.65269">
        <ele>291</ele>
        <time>2022-06-25T17:43:21Z</time>
      </trkpt>
      <trkpt lat="46.09537" lon="4.65266">
        <ele>291</ele>
        <time>2022-06-25T17:43:22Z</time>
      </trkpt>
      <trkpt lat="46.09534" lon="4.65264">
        <ele>291.4</ele>
        <time>2022-06-25T17:43:23Z</time>
      </trkpt>
      <trkpt lat="46.09531" lon="4.65262">
        <ele>291.4</ele>
        <time>2022-06-25T17:43:24Z</time>
      </trkpt>
      <trkpt lat="46.09528" lon="4.65259">
        <ele>291.6</ele>
        <time>2022-06-25T17:43:25Z</time>
      </trkpt>
      <trkpt lat="46.09524" lon="4.65257">
        <ele>291.6</ele>
        <time>2022-06-25T17:43:26Z</time>
      </trkpt>
      <trkpt lat="46.09521" lon="4.65255">
        <ele>291.6</ele>
        <time>2022-06-25T17:43:27Z</time>
      </trkpt>
      <trkpt lat="46.09517" lon="4.65253">
        <ele>292</ele>
        <time>2022-06-25T17:43:28Z</time>
      </trkpt>
      <trkpt lat="46.09513" lon="4.65251">
        <ele>292</ele>
        <time>2022-06-25T17:43:29Z</time>
      </trkpt>
      <trkpt lat="46.09509" lon="4.65249">
        <ele>292</ele>
        <time>2022-06-25T17:43:30Z</time>
      </trkpt>
      <trkpt lat="46.09505" lon="4.65247">
        <ele>292.2</ele>
        <time>2022-06-25T17:43:31Z</time>
      </trkpt>
      <trkpt lat="46.09502" lon="4.65245">
        <ele>292.2</ele>
        <time>2022-06-25T17:43:32Z</time>
      </trkpt>
      <trkpt lat="46.09498" lon="4.65243">
        <ele>292.6</ele>
        <time>2022-06-25T17:43:33Z</time>
      </trkpt>
      <trkpt lat="46.09493" lon="4.65242">
        <ele>292.6</ele>
        <time>2022-06-25T17:43:34Z</time>
      </trkpt>
      <trkpt lat="46.09489" lon="4.6524">
        <ele>292.6</ele>
        <time>2022-06-25T17:43:35Z</time>
      </trkpt>
      <trkpt lat="46.09485" lon="4.65239">
        <ele>292.8</ele>
        <time>2022-06-25T17:43:36Z</time>
      </trkpt>
      <trkpt lat="46.09481" lon="4.65237">
        <ele>292.8</ele>
        <time>2022-06-25T17:43:37Z</time>
      </trkpt>
      <trkpt lat="46.09477" lon="4.65235">
        <ele>293.2</ele>
        <time>2022-06-25T17:43:38Z</time>
      </trkpt>
      <trkpt lat="46.09472" lon="4.65233">
        <ele>293.2</ele>
        <time>2022-06-25T17:43:39Z</time>
      </trkpt>
      <trkpt lat="46.09468" lon="4.65231">
        <ele>293.2</ele>
        <time>2022-06-25T17:43:40Z</time>
      </trkpt>
      <trkpt lat="46.09463" lon="4.65229">
        <ele>293.2</ele>
        <time>2022-06-25T17:43:41Z</time>
      </trkpt>
      <trkpt lat="46.09458" lon="4.65226">
        <ele>293.2</ele>
        <time>2022-06-25T17:43:42Z</time>
      </trkpt>
      <trkpt lat="46.09452" lon="4.65224">
        <ele>293.2</ele>
        <time>2022-06-25T17:43:43Z</time>
      </trkpt>
      <trkpt lat="46.09447" lon="4.65221">
        <ele>293.2</ele>
        <time>2022-06-25T17:43:44Z</time>
      </trkpt>
      <trkpt lat="46.09442" lon="4.65218">
        <ele>293.2</ele>
        <time>2022-06-25T17:43:45Z</time>
      </trkpt>
      <trkpt lat="46.09436" lon="4.65214">
        <ele>293.4</ele>
        <time>2022-06-25T17:43:46Z</time>
      </trkpt>
      <trkpt lat="46.09431" lon="4.65211">
        <ele>293.4</ele>
        <time>2022-06-25T17:43:47Z</time>
      </trkpt>
      <trkpt lat="46.09425" lon="4.65207">
        <ele>293.4</ele>
        <time>2022-06-25T17:43:48Z</time>
      </trkpt>
      <trkpt lat="46.09419" lon="4.65203">
        <ele>293.4</ele>
        <time>2022-06-25T17:43:49Z</time>
      </trkpt>
      <trkpt lat="46.09414" lon="4.65199">
        <ele>293.4</ele>
        <time>2022-06-25T17:43:50Z</time>
      </trkpt>
      <trkpt lat="46.09409" lon="4.65195">
        <ele>293.4</ele>
        <time>2022-06-25T17:43:51Z</time>
      </trkpt>
      <trkpt lat="46.09403" lon="4.65191">
        <ele>293.6</ele>
        <time>2022-06-25T17:43:52Z</time>
      </trkpt>
      <trkpt lat="46.09398" lon="4.65186">
        <ele>293.6</ele>
        <time>2022-06-25T17:43:53Z</time>
      </trkpt>
      <trkpt lat="46.09392" lon="4.65182">
        <ele>293.6</ele>
        <time>2022-06-25T17:43:54Z</time>
      </trkpt>
      <trkpt lat="46.09387" lon="4.65177">
        <ele>293.6</ele>
        <time>2022-06-25T17:43:55Z</time>
      </trkpt>
      <trkpt lat="46.09381" lon="4.65172">
        <ele>293.6</ele>
        <time>2022-06-25T17:43:56Z</time>
      </trkpt>
      <trkpt lat="46.09376" lon="4.65167">
        <ele>293.6</ele>
        <time>2022-06-25T17:43:57Z</time>
      </trkpt>
      <trkpt lat="46.0937" lon="4.65162">
        <ele>293.4</ele>
        <time>2022-06-25T17:43:58Z</time>
      </trkpt>
      <trkpt lat="46.09364" lon="4.65156">
        <ele>293.4</ele>
        <time>2022-06-25T17:43:59Z</time>
      </trkpt>
      <trkpt lat="46.09359" lon="4.65151">
        <ele>293.4</ele>
        <time>2022-06-25T17:44:00Z</time>
      </trkpt>
      <trkpt lat="46.09353" lon="4.65145">
        <ele>293</ele>
        <time>2022-06-25T17:44:01Z</time>
      </trkpt>
      <trkpt lat="46.09348" lon="4.65139">
        <ele>293</ele>
        <time>2022-06-25T17:44:02Z</time>
      </trkpt>
      <trkpt lat="46.09343" lon="4.65132">
        <ele>293</ele>
        <time>2022-06-25T17:44:03Z</time>
      </trkpt>
      <trkpt lat="46.09338" lon="4.65125">
        <ele>293</ele>
        <time>2022-06-25T17:44:04Z</time>
      </trkpt>
      <trkpt lat="46.09333" lon="4.65118">
        <ele>293</ele>
        <time>2022-06-25T17:44:05Z</time>
      </trkpt>
      <trkpt lat="46.09329" lon="4.65112">
        <ele>293.2</ele>
        <time>2022-06-25T17:44:06Z</time>
      </trkpt>
      <trkpt lat="46.09324" lon="4.65106">
        <ele>293.2</ele>
        <time>2022-06-25T17:44:07Z</time>
      </trkpt>
      <trkpt lat="46.09319" lon="4.65101">
        <ele>293.2</ele>
        <time>2022-06-25T17:44:08Z</time>
      </trkpt>
      <trkpt lat="46.09314" lon="4.65095">
        <ele>293.2</ele>
        <time>2022-06-25T17:44:09Z</time>
      </trkpt>
      <trkpt lat="46.09309" lon="4.6509">
        <ele>293.4</ele>
        <time>2022-06-25T17:44:10Z</time>
      </trkpt>
      <trkpt lat="46.09304" lon="4.65085">
        <ele>293.4</ele>
        <time>2022-06-25T17:44:11Z</time>
      </trkpt>
      <trkpt lat="46.09298" lon="4.65079">
        <ele>293.4</ele>
        <time>2022-06-25T17:44:12Z</time>
      </trkpt>
      <trkpt lat="46.09293" lon="4.65074">
        <ele>293.2</ele>
        <time>2022-06-25T17:44:13Z</time>
      </trkpt>
      <trkpt lat="46.09287" lon="4.65069">
        <ele>293.2</ele>
        <time>2022-06-25T17:44:14Z</time>
      </trkpt>
      <trkpt lat="46.09281" lon="4.65064">
        <ele>293.2</ele>
        <time>2022-06-25T17:44:15Z</time>
      </trkpt>
      <trkpt lat="46.09275" lon="4.65059">
        <ele>293.2</ele>
        <time>2022-06-25T17:44:16Z</time>
      </trkpt>
      <trkpt lat="46.09269" lon="4.65055">
        <ele>293.2</ele>
        <time>2022-06-25T17:44:17Z</time>
      </trkpt>
      <trkpt lat="46.09264" lon="4.6505">
        <ele>293.2</ele>
        <time>2022-06-25T17:44:18Z</time>
      </trkpt>
      <trkpt lat="46.09258" lon="4.65045">
        <ele>293.2</ele>
        <time>2022-06-25T17:44:19Z</time>
      </trkpt>
      <trkpt lat="46.09253" lon="4.6504">
        <ele>293.2</ele>
        <time>2022-06-25T17:44:20Z</time>
      </trkpt>
      <trkpt lat="46.09247" lon="4.65035">
        <ele>293</ele>
        <time>2022-06-25T17:44:21Z</time>
      </trkpt>
      <trkpt lat="46.09242" lon="4.6503">
        <ele>293</ele>
        <time>2022-06-25T17:44:22Z</time>
      </trkpt>
      <trkpt lat="46.09237" lon="4.65025">
        <ele>293</ele>
        <time>2022-06-25T17:44:23Z</time>
      </trkpt>
      <trkpt lat="46.09232" lon="4.65019">
        <ele>293</ele>
        <time>2022-06-25T17:44:24Z</time>
      </trkpt>
      <trkpt lat="46.09227" lon="4.65014">
        <ele>293</ele>
        <time>2022-06-25T17:44:25Z</time>
      </trkpt>
      <trkpt lat="46.09221" lon="4.65008">
        <ele>293</ele>
        <time>2022-06-25T17:44:26Z</time>
      </trkpt>
      <trkpt lat="46.09216" lon="4.65003">
        <ele>293</ele>
        <time>2022-06-25T17:44:27Z</time>
      </trkpt>
      <trkpt lat="46.09211" lon="4.64997">
        <ele>293</ele>
        <time>2022-06-25T17:44:28Z</time>
      </trkpt>
      <trkpt lat="46.09206" lon="4.64992">
        <ele>293.2</ele>
        <time>2022-06-25T17:44:29Z</time>
      </trkpt>
      <trkpt lat="46.09201" lon="4.64986">
        <ele>293.2</ele>
        <time>2022-06-25T17:44:30Z</time>
      </trkpt>
      <trkpt lat="46.09196" lon="4.6498">
        <ele>293.2</ele>
        <time>2022-06-25T17:44:31Z</time>
      </trkpt>
      <trkpt lat="46.09192" lon="4.64974">
        <ele>293.2</ele>
        <time>2022-06-25T17:44:32Z</time>
      </trkpt>
      <trkpt lat="46.09187" lon="4.64969">
        <ele>293.2</ele>
        <time>2022-06-25T17:44:33Z</time>
      </trkpt>
      <trkpt lat="46.09182" lon="4.64963">
        <ele>293.2</ele>
        <time>2022-06-25T17:44:34Z</time>
      </trkpt>
      <trkpt lat="46.09177" lon="4.64958">
        <ele>293.6</ele>
        <time>2022-06-25T17:44:35Z</time>
      </trkpt>
      <trkpt lat="46.09172" lon="4.64953">
        <ele>293.6</ele>
        <time>2022-06-25T17:44:36Z</time>
      </trkpt>
      <trkpt lat="46.09168" lon="4.64948">
        <ele>293.6</ele>
        <time>2022-06-25T17:44:37Z</time>
      </trkpt>
      <trkpt lat="46.09163" lon="4.64943">
        <ele>293.6</ele>
        <time>2022-06-25T17:44:38Z</time>
      </trkpt>
      <trkpt lat="46.09158" lon="4.64939">
        <ele>293.8</ele>
        <time>2022-06-25T17:44:39Z</time>
      </trkpt>
      <trkpt lat="46.09153" lon="4.64935">
        <ele>293.8</ele>
        <time>2022-06-25T17:44:40Z</time>
      </trkpt>
      <trkpt lat="46.09149" lon="4.6493">
        <ele>293.8</ele>
        <time>2022-06-25T17:44:41Z</time>
      </trkpt>
      <trkpt lat="46.09144" lon="4.64926">
        <ele>294</ele>
        <time>2022-06-25T17:44:42Z</time>
      </trkpt>
      <trkpt lat="46.09139" lon="4.64922">
        <ele>294</ele>
        <time>2022-06-25T17:44:43Z</time>
      </trkpt>
      <trkpt lat="46.09134" lon="4.64918">
        <ele>294</ele>
        <time>2022-06-25T17:44:44Z</time>
      </trkpt>
      <trkpt lat="46.09129" lon="4.64914">
        <ele>294</ele>
        <time>2022-06-25T17:44:45Z</time>
      </trkpt>
      <trkpt lat="46.09124" lon="4.6491">
        <ele>294</ele>
        <time>2022-06-25T17:44:46Z</time>
      </trkpt>
      <trkpt lat="46.0912" lon="4.64907">
        <ele>294</ele>
        <time>2022-06-25T17:44:47Z</time>
      </trkpt>
      <trkpt lat="46.09115" lon="4.64903">
        <ele>294</ele>
        <time>2022-06-25T17:44:48Z</time>
      </trkpt>
      <trkpt lat="46.0911" lon="4.649">
        <ele>294.4</ele>
        <time>2022-06-25T17:44:49Z</time>
      </trkpt>
      <trkpt lat="46.09106" lon="4.64897">
        <ele>294.4</ele>
        <time>2022-06-25T17:44:50Z</time>
      </trkpt>
      <trkpt lat="46.09101" lon="4.64893">
        <ele>294.4</ele>
        <time>2022-06-25T17:44:51Z</time>
      </trkpt>
      <trkpt lat="46.09096" lon="4.6489">
        <ele>294.4</ele>
        <time>2022-06-25T17:44:52Z</time>
      </trkpt>
      <trkpt lat="46.09092" lon="4.64887">
        <ele>294.6</ele>
        <time>2022-06-25T17:44:53Z</time>
      </trkpt>
      <trkpt lat="46.09087" lon="4.64884">
        <ele>294.6</ele>
        <time>2022-06-25T17:44:54Z</time>
      </trkpt>
      <trkpt lat="46.09082" lon="4.64881">
        <ele>294.6</ele>
        <time>2022-06-25T17:44:55Z</time>
      </trkpt>
      <trkpt lat="46.09077" lon="4.64878">
        <ele>294.6</ele>
        <time>2022-06-25T17:44:56Z</time>
      </trkpt>
      <trkpt lat="46.09073" lon="4.64875">
        <ele>294.8</ele>
        <time>2022-06-25T17:44:57Z</time>
      </trkpt>
      <trkpt lat="46.09068" lon="4.64871">
        <ele>294.8</ele>
        <time>2022-06-25T17:44:58Z</time>
      </trkpt>
      <trkpt lat="46.09063" lon="4.64868">
        <ele>294.8</ele>
        <time>2022-06-25T17:44:59Z</time>
      </trkpt>
      <trkpt lat="46.09058" lon="4.64865">
        <ele>294.8</ele>
        <time>2022-06-25T17:45:00Z</time>
      </trkpt>
      <trkpt lat="46.09053" lon="4.64861">
        <ele>295</ele>
        <time>2022-06-25T17:45:01Z</time>
      </trkpt>
      <trkpt lat="46.09049" lon="4.64857">
        <ele>295</ele>
        <time>2022-06-25T17:45:02Z</time>
      </trkpt>
      <trkpt lat="46.09045" lon="4.64853">
        <ele>295.2</ele>
        <time>2022-06-25T17:45:03Z</time>
      </trkpt>
      <trkpt lat="46.09041" lon="4.64848">
        <ele>295.2</ele>
        <time>2022-06-25T17:45:04Z</time>
      </trkpt>
      <trkpt lat="46.09038" lon="4.64843">
        <ele>295.4</ele>
        <time>2022-06-25T17:45:06Z</time>
      </trkpt>
      <trkpt lat="46.09035" lon="4.64839">
        <ele>295.4</ele>
        <time>2022-06-25T17:45:07Z</time>
      </trkpt>
      <trkpt lat="46.09032" lon="4.64834">
        <ele>295.8</ele>
        <time>2022-06-25T17:45:08Z</time>
      </trkpt>
      <trkpt lat="46.0903" lon="4.64829">
        <ele>295.8</ele>
        <time>2022-06-25T17:45:09Z</time>
      </trkpt>
      <trkpt lat="46.09027" lon="4.64824">
        <ele>295.8</ele>
        <time>2022-06-25T17:45:10Z</time>
      </trkpt>
      <trkpt lat="46.09025" lon="4.6482">
        <ele>296</ele>
        <time>2022-06-25T17:45:11Z</time>
      </trkpt>
      <trkpt lat="46.09023" lon="4.64814">
        <ele>296</ele>
        <time>2022-06-25T17:45:12Z</time>
      </trkpt>
      <trkpt lat="46.0902" lon="4.64809">
        <ele>296</ele>
        <time>2022-06-25T17:45:13Z</time>
      </trkpt>
      <trkpt lat="46.09018" lon="4.64804">
        <ele>296</ele>
        <time>2022-06-25T17:45:14Z</time>
      </trkpt>
      <trkpt lat="46.09015" lon="4.64799">
        <ele>296.2</ele>
        <time>2022-06-25T17:45:15Z</time>
      </trkpt>
      <trkpt lat="46.09012" lon="4.64794">
        <ele>296.2</ele>
        <time>2022-06-25T17:45:16Z</time>
      </trkpt>
      <trkpt lat="46.09009" lon="4.64789">
        <ele>296.2</ele>
        <time>2022-06-25T17:45:17Z</time>
      </trkpt>
      <trkpt lat="46.09007" lon="4.64783">
        <ele>296.2</ele>
        <time>2022-06-25T17:45:18Z</time>
      </trkpt>
      <trkpt lat="46.09004" lon="4.64778">
        <ele>296.2</ele>
        <time>2022-06-25T17:45:19Z</time>
      </trkpt>
      <trkpt lat="46.09001" lon="4.64772">
        <ele>296.2</ele>
        <time>2022-06-25T17:45:20Z</time>
      </trkpt>
      <trkpt lat="46.08999" lon="4.64767">
        <ele>296.4</ele>
        <time>2022-06-25T17:45:21Z</time>
      </trkpt>
      <trkpt lat="46.08996" lon="4.64761">
        <ele>296.4</ele>
        <time>2022-06-25T17:45:22Z</time>
      </trkpt>
      <trkpt lat="46.08993" lon="4.64756">
        <ele>296.4</ele>
        <time>2022-06-25T17:45:23Z</time>
      </trkpt>
      <trkpt lat="46.0899" lon="4.6475">
        <ele>296.4</ele>
        <time>2022-06-25T17:45:24Z</time>
      </trkpt>
      <trkpt lat="46.08987" lon="4.64745">
        <ele>296.4</ele>
        <time>2022-06-25T17:45:25Z</time>
      </trkpt>
      <trkpt lat="46.08984" lon="4.6474">
        <ele>296.4</ele>
        <time>2022-06-25T17:45:26Z</time>
      </trkpt>
      <trkpt lat="46.08981" lon="4.64735">
        <ele>296.4</ele>
        <time>2022-06-25T17:45:27Z</time>
      </trkpt>
      <trkpt lat="46.0898" lon="4.6473">
        <ele>296.2</ele>
        <time>2022-06-25T17:45:28Z</time>
      </trkpt>
      <trkpt lat="46.08978" lon="4.64725">
        <ele>296.2</ele>
        <time>2022-06-25T17:45:29Z</time>
      </trkpt>
      <trkpt lat="46.08978" lon="4.64717">
        <ele>296.2</ele>
        <time>2022-06-25T17:45:30Z</time>
      </trkpt>
      <trkpt lat="46.08979" lon="4.64712">
        <ele>296.2</ele>
        <time>2022-06-25T17:45:31Z</time>
      </trkpt>
      <trkpt lat="46.08979" lon="4.64708">
        <ele>296.6</ele>
        <time>2022-06-25T17:45:32Z</time>
      </trkpt>
      <trkpt lat="46.08978" lon="4.64704">
        <ele>296.6</ele>
        <time>2022-06-25T17:45:33Z</time>
      </trkpt>
      <trkpt lat="46.08977" lon="4.647">
        <ele>296.6</ele>
        <time>2022-06-25T17:45:34Z</time>
      </trkpt>
      <trkpt lat="46.08974" lon="4.64697">
        <ele>296.6</ele>
        <time>2022-06-25T17:45:35Z</time>
      </trkpt>
      <trkpt lat="46.0897" lon="4.64694">
        <ele>296.6</ele>
        <time>2022-06-25T17:45:36Z</time>
      </trkpt>
      <trkpt lat="46.08965" lon="4.64691">
        <ele>296.6</ele>
        <time>2022-06-25T17:45:37Z</time>
      </trkpt>
      <trkpt lat="46.08961" lon="4.64689">
        <ele>296.6</ele>
        <time>2022-06-25T17:45:38Z</time>
      </trkpt>
      <trkpt lat="46.08956" lon="4.64687">
        <ele>296.2</ele>
        <time>2022-06-25T17:45:39Z</time>
      </trkpt>
      <trkpt lat="46.08951" lon="4.64686">
        <ele>296.2</ele>
        <time>2022-06-25T17:45:40Z</time>
      </trkpt>
      <trkpt lat="46.08947" lon="4.64685">
        <ele>295.8</ele>
        <time>2022-06-25T17:45:41Z</time>
      </trkpt>
      <trkpt lat="46.08942" lon="4.64684">
        <ele>295.8</ele>
        <time>2022-06-25T17:45:42Z</time>
      </trkpt>
      <trkpt lat="46.08937" lon="4.64684">
        <ele>295.6</ele>
        <time>2022-06-25T17:45:43Z</time>
      </trkpt>
      <trkpt lat="46.08933" lon="4.64683">
        <ele>295.4</ele>
        <time>2022-06-25T17:45:44Z</time>
      </trkpt>
      <trkpt lat="46.08929" lon="4.64682">
        <ele>295.4</ele>
        <time>2022-06-25T17:45:45Z</time>
      </trkpt>
      <trkpt lat="46.08925" lon="4.6468">
        <ele>295</ele>
        <time>2022-06-25T17:45:46Z</time>
      </trkpt>
      <trkpt lat="46.08922" lon="4.64678">
        <ele>295</ele>
        <time>2022-06-25T17:45:47Z</time>
      </trkpt>
      <trkpt lat="46.08919" lon="4.64676">
        <ele>295</ele>
        <time>2022-06-25T17:45:48Z</time>
      </trkpt>
      <trkpt lat="46.08917" lon="4.64675">
        <ele>295</ele>
        <time>2022-06-25T17:45:49Z</time>
      </trkpt>
      <trkpt lat="46.08915" lon="4.64675">
        <ele>294.8</ele>
        <time>2022-06-25T17:45:50Z</time>
      </trkpt>
      <trkpt lat="46.08913" lon="4.64675">
        <ele>294.8</ele>
        <time>2022-06-25T17:45:51Z</time>
      </trkpt>
      <trkpt lat="46.08913" lon="4.64675">
        <ele>294.8</ele>
        <time>2022-06-25T17:45:57Z</time>
      </trkpt>
      <trkpt lat="46.08913" lon="4.64675">
        <ele>294.8</ele>
        <time>2022-06-25T17:46:01Z</time>
      </trkpt>
      <trkpt lat="46.08913" lon="4.64675">
        <ele>294.6</ele>
        <time>2022-06-25T17:46:05Z</time>
      </trkpt>
      <trkpt lat="46.08913" lon="4.64675">
        <ele>294.8</ele>
        <time>2022-06-25T17:46:11Z</time>
      </trkpt>
      <trkpt lat="46.08913" lon="4.64675">
        <ele>294.8</ele>
        <time>2022-06-25T17:46:16Z</time>
      </trkpt>
      <trkpt lat="46.08913" lon="4.64675">
        <ele>294.8</ele>
        <time>2022-06-25T17:46:21Z</time>
      </trkpt>
      <trkpt lat="46.08912" lon="4.64675">
        <ele>295.2</ele>
        <time>2022-06-25T17:46:53Z</time>
      </trkpt>
      <trkpt lat="46.08912" lon="4.64675">
        <ele>295.2</ele>
        <time>2022-06-25T17:46:57Z</time>
      </trkpt>
      <trkpt lat="46.08912" lon="4.64675">
        <ele>295.6</ele>
        <time>2022-06-25T17:47:05Z</time>
      </trkpt>
      <trkpt lat="46.08912" lon="4.64674">
        <ele>295.6</ele>
        <time>2022-06-25T17:47:22Z</time>
      </trkpt>
      <trkpt lat="46.08912" lon="4.64674">
        <ele>295.6</ele>
        <time>2022-06-25T17:47:25Z</time>
      </trkpt>
      <trkpt lat="46.08912" lon="4.64674">
        <ele>295.8</ele>
        <time>2022-06-25T17:48:05Z</time>
      </trkpt>
      <trkpt lat="46.08911" lon="4.64674">
        <ele>295.8</ele>
        <time>2022-06-25T17:49:13Z</time>
      </trkpt>
      <trkpt lat="46.08911" lon="4.64674">
        <ele>295.8</ele>
        <time>2022-06-25T17:49:16Z</time>
      </trkpt>
      <trkpt lat="46.08911" lon="4.64674">
        <ele>295.8</ele>
        <time>2022-06-25T17:49:23Z</time>
      </trkpt>
      <trkpt lat="46.08911" lon="4.64674">
        <ele>295.4</ele>
        <time>2022-06-25T17:49:44Z</time>
      </trkpt>
      <trkpt lat="46.08911" lon="4.64674">
        <ele>295.4</ele>
        <time>2022-06-25T17:49:51Z</time>
      </trkpt>
      <trkpt lat="46.08911" lon="4.64674">
        <ele>295.2</ele>
        <time>2022-06-25T17:49:57Z</time>
      </trkpt>
      <trkpt lat="46.08911" lon="4.64674">
        <ele>295</ele>
        <time>2022-06-25T17:50:12Z</time>
      </trkpt>
      <trkpt lat="46.08911" lon="4.64674">
        <ele>294.8</ele>
        <time>2022-06-25T17:50:18Z</time>
      </trkpt>
      <trkpt lat="46.0891" lon="4.64674">
        <ele>294.6</ele>
        <time>2022-06-25T17:50:27Z</time>
      </trkpt>
      <trkpt lat="46.0891" lon="4.64674">
        <ele>294.2</ele>
        <time>2022-06-25T17:50:55Z</time>
      </trkpt>
      <trkpt lat="46.0891" lon="4.64674">
        <ele>293.6</ele>
        <time>2022-06-25T17:51:06Z</time>
      </trkpt>
      <trkpt lat="46.0891" lon="4.64674">
        <ele>293</ele>
        <time>2022-06-25T17:52:20Z</time>
      </trkpt>
      <trkpt lat="46.0891" lon="4.64673">
        <ele>293</ele>
        <time>2022-06-25T17:52:22Z</time>
      </trkpt>
      <trkpt lat="46.0891" lon="4.64673">
        <ele>292.8</ele>
        <time>2022-06-25T17:52:32Z</time>
      </trkpt>
      <trkpt lat="46.0891" lon="4.64673">
        <ele>293</ele>
        <time>2022-06-25T17:52:35Z</time>
      </trkpt>
      <trkpt lat="46.0891" lon="4.64673">
        <ele>293</ele>
        <time>2022-06-25T17:52:58Z</time>
      </trkpt>
      <trkpt lat="46.08909" lon="4.64673">
        <ele>292.6</ele>
        <time>2022-06-25T17:53:03Z</time>
      </trkpt>
      <trkpt lat="46.08909" lon="4.64673">
        <ele>292.6</ele>
        <time>2022-06-25T17:53:07Z</time>
      </trkpt>
      <trkpt lat="46.08909" lon="4.64673">
        <ele>292.6</ele>
        <time>2022-06-25T17:53:13Z</time>
      </trkpt>
      <trkpt lat="46.08909" lon="4.64673">
        <ele>292.4</ele>
        <time>2022-06-25T17:54:13Z</time>
      </trkpt>
      <trkpt lat="46.08909" lon="4.64673">
        <ele>292.4</ele>
        <time>2022-06-25T17:54:27Z</time>
      </trkpt>
      <trkpt lat="46.08909" lon="4.64673">
        <ele>292.4</ele>
        <time>2022-06-25T17:54:41Z</time>
      </trkpt>
      <trkpt lat="46.08909" lon="4.64673">
        <ele>292</ele>
        <time>2022-06-25T17:55:30Z</time>
      </trkpt>
      <trkpt lat="46.08908" lon="4.64673">
        <ele>292</ele>
        <time>2022-06-25T17:55:40Z</time>
      </trkpt>
      <trkpt lat="46.08908" lon="4.64673">
        <ele>291.4</ele>
        <time>2022-06-25T17:56:27Z</time>
      </trkpt>
      <trkpt lat="46.08908" lon="4.64673">
        <ele>291.6</ele>
        <time>2022-06-25T17:56:34Z</time>
      </trkpt>
      <trkpt lat="46.08908" lon="4.64672">
        <ele>292</ele>
        <time>2022-06-25T17:56:37Z</time>
      </trkpt>
      <trkpt lat="46.08908" lon="4.64672">
        <ele>292</ele>
        <time>2022-06-25T17:56:43Z</time>
      </trkpt>
      <trkpt lat="46.08906" lon="4.64673">
        <ele>292</ele>
        <time>2022-06-25T17:56:45Z</time>
      </trkpt>
      <trkpt lat="46.08904" lon="4.64673">
        <ele>292</ele>
        <time>2022-06-25T17:56:46Z</time>
      </trkpt>
      <trkpt lat="46.08901" lon="4.64672">
        <ele>292</ele>
        <time>2022-06-25T17:56:47Z</time>
      </trkpt>
      <trkpt lat="46.08899" lon="4.64672">
        <ele>292</ele>
        <time>2022-06-25T17:56:48Z</time>
      </trkpt>
      <trkpt lat="46.08896" lon="4.64671">
        <ele>292</ele>
        <time>2022-06-25T17:56:49Z</time>
      </trkpt>
      <trkpt lat="46.08894" lon="4.6467">
        <ele>292</ele>
        <time>2022-06-25T17:56:50Z</time>
      </trkpt>
      <trkpt lat="46.08891" lon="4.6467">
        <ele>292</ele>
        <time>2022-06-25T17:56:51Z</time>
      </trkpt>
      <trkpt lat="46.08889" lon="4.64671">
        <ele>292</ele>
        <time>2022-06-25T17:56:52Z</time>
      </trkpt>
      <trkpt lat="46.08887" lon="4.64673">
        <ele>292</ele>
        <time>2022-06-25T17:56:53Z</time>
      </trkpt>
      <trkpt lat="46.08885" lon="4.64675">
        <ele>292</ele>
        <time>2022-06-25T17:56:54Z</time>
      </trkpt>
      <trkpt lat="46.08884" lon="4.64678">
        <ele>292</ele>
        <time>2022-06-25T17:56:55Z</time>
      </trkpt>
      <trkpt lat="46.08883" lon="4.64681">
        <ele>292</ele>
        <time>2022-06-25T17:56:56Z</time>
      </trkpt>
      <trkpt lat="46.08882" lon="4.64685">
        <ele>292</ele>
        <time>2022-06-25T17:56:57Z</time>
      </trkpt>
      <trkpt lat="46.08881" lon="4.64689">
        <ele>292</ele>
        <time>2022-06-25T17:56:58Z</time>
      </trkpt>
      <trkpt lat="46.08881" lon="4.64693">
        <ele>291.6</ele>
        <time>2022-06-25T17:56:59Z</time>
      </trkpt>
      <trkpt lat="46.08881" lon="4.64697">
        <ele>291.6</ele>
        <time>2022-06-25T17:57:00Z</time>
      </trkpt>
      <trkpt lat="46.0888" lon="4.64701">
        <ele>291.4</ele>
        <time>2022-06-25T17:57:01Z</time>
      </trkpt>
      <trkpt lat="46.0888" lon="4.64705">
        <ele>291.4</ele>
        <time>2022-06-25T17:57:02Z</time>
      </trkpt>
      <trkpt lat="46.0888" lon="4.64709">
        <ele>291.2</ele>
        <time>2022-06-25T17:57:03Z</time>
      </trkpt>
      <trkpt lat="46.0888" lon="4.64712">
        <ele>291.2</ele>
        <time>2022-06-25T17:57:04Z</time>
      </trkpt>
      <trkpt lat="46.0888" lon="4.64715">
        <ele>291.2</ele>
        <time>2022-06-25T17:57:05Z</time>
      </trkpt>
      <trkpt lat="46.08881" lon="4.64718">
        <ele>290.8</ele>
        <time>2022-06-25T17:57:06Z</time>
      </trkpt>
      <trkpt lat="46.08881" lon="4.6472">
        <ele>290.8</ele>
        <time>2022-06-25T17:57:07Z</time>
      </trkpt>
      <trkpt lat="46.08881" lon="4.64722">
        <ele>290.8</ele>
        <time>2022-06-25T17:57:08Z</time>
      </trkpt>
      <trkpt lat="46.08881" lon="4.64722">
        <ele>290.8</ele>
        <time>2022-06-25T17:57:10Z</time>
      </trkpt>
      <trkpt lat="46.08883" lon="4.64721">
        <ele>288.8</ele>
        <time>2022-06-25T17:58:59Z</time>
      </trkpt>
      <trkpt lat="46.08884" lon="4.64719">
        <ele>288.8</ele>
        <time>2022-06-25T17:59:00Z</time>
      </trkpt>
      <trkpt lat="46.08886" lon="4.64717">
        <ele>288.8</ele>
        <time>2022-06-25T17:59:01Z</time>
      </trkpt>
      <trkpt lat="46.08887" lon="4.64716">
        <ele>288.8</ele>
        <time>2022-06-25T17:59:02Z</time>
      </trkpt>
      <trkpt lat="46.08888" lon="4.64714">
        <ele>288.8</ele>
        <time>2022-06-25T17:59:03Z</time>
      </trkpt>
      <trkpt lat="46.0889" lon="4.64712">
        <ele>288.8</ele>
        <time>2022-06-25T17:59:04Z</time>
      </trkpt>
      <trkpt lat="46.08891" lon="4.6471">
        <ele>288.8</ele>
        <time>2022-06-25T17:59:05Z</time>
      </trkpt>
      <trkpt lat="46.08892" lon="4.64707">
        <ele>289</ele>
        <time>2022-06-25T17:59:06Z</time>
      </trkpt>
      <trkpt lat="46.08894" lon="4.64704">
        <ele>289</ele>
        <time>2022-06-25T17:59:07Z</time>
      </trkpt>
      <trkpt lat="46.08895" lon="4.647">
        <ele>289</ele>
        <time>2022-06-25T17:59:08Z</time>
      </trkpt>
      <trkpt lat="46.08895" lon="4.64697">
        <ele>289</ele>
        <time>2022-06-25T17:59:09Z</time>
      </trkpt>
      <trkpt lat="46.08895" lon="4.64693">
        <ele>289</ele>
        <time>2022-06-25T17:59:10Z</time>
      </trkpt>
      <trkpt lat="46.08895" lon="4.6469">
        <ele>289</ele>
        <time>2022-06-25T17:59:11Z</time>
      </trkpt>
      <trkpt lat="46.08895" lon="4.64687">
        <ele>289.4</ele>
        <time>2022-06-25T17:59:12Z</time>
      </trkpt>
      <trkpt lat="46.08895" lon="4.64684">
        <ele>289.4</ele>
        <time>2022-06-25T17:59:13Z</time>
      </trkpt>
      <trkpt lat="46.08896" lon="4.64682">
        <ele>289.4</ele>
        <time>2022-06-25T17:59:14Z</time>
      </trkpt>
      <trkpt lat="46.08896" lon="4.64681">
        <ele>289.4</ele>
        <time>2022-06-25T17:59:15Z</time>
      </trkpt>
      <trkpt lat="46.08897" lon="4.64679">
        <ele>289.4</ele>
        <time>2022-06-25T17:59:16Z</time>
      </trkpt>
      <trkpt lat="46.08899" lon="4.64678">
        <ele>289.4</ele>
        <time>2022-06-25T17:59:17Z</time>
      </trkpt>
      <trkpt lat="46.08901" lon="4.64678">
        <ele>289.4</ele>
        <time>2022-06-25T17:59:18Z</time>
      </trkpt>
      <trkpt lat="46.08903" lon="4.64679">
        <ele>289.4</ele>
        <time>2022-06-25T17:59:19Z</time>
      </trkpt>
      <trkpt lat="46.08905" lon="4.64679">
        <ele>289.6</ele>
        <time>2022-06-25T17:59:20Z</time>
      </trkpt>
      <trkpt lat="46.08907" lon="4.6468">
        <ele>289.6</ele>
        <time>2022-06-25T17:59:21Z</time>
      </trkpt>
      <trkpt lat="46.08909" lon="4.64681">
        <ele>289.6</ele>
        <time>2022-06-25T17:59:22Z</time>
      </trkpt>
      <trkpt lat="46.08912" lon="4.64681">
        <ele>289.6</ele>
        <time>2022-06-25T17:59:23Z</time>
      </trkpt>
      <trkpt lat="46.08914" lon="4.64682">
        <ele>289.6</ele>
        <time>2022-06-25T17:59:24Z</time>
      </trkpt>
      <trkpt lat="46.08916" lon="4.64682">
        <ele>289.6</ele>
        <time>2022-06-25T17:59:25Z</time>
      </trkpt>
      <trkpt lat="46.08918" lon="4.64683">
        <ele>289.6</ele>
        <time>2022-06-25T17:59:26Z</time>
      </trkpt>
      <trkpt lat="46.08921" lon="4.64684">
        <ele>289.6</ele>
        <time>2022-06-25T17:59:27Z</time>
      </trkpt>
      <trkpt lat="46.08923" lon="4.64684">
        <ele>289.6</ele>
        <time>2022-06-25T17:59:28Z</time>
      </trkpt>
      <trkpt lat="46.08926" lon="4.64685">
        <ele>289.6</ele>
        <time>2022-06-25T17:59:29Z</time>
      </trkpt>
      <trkpt lat="46.08928" lon="4.64686">
        <ele>289.6</ele>
        <time>2022-06-25T17:59:30Z</time>
      </trkpt>
      <trkpt lat="46.08931" lon="4.64686">
        <ele>289.6</ele>
        <time>2022-06-25T17:59:31Z</time>
      </trkpt>
      <trkpt lat="46.08933" lon="4.64687">
        <ele>289.6</ele>
        <time>2022-06-25T17:59:32Z</time>
      </trkpt>
      <trkpt lat="46.08935" lon="4.64688">
        <ele>289.6</ele>
        <time>2022-06-25T17:59:33Z</time>
      </trkpt>
      <trkpt lat="46.08936" lon="4.64689">
        <ele>289.6</ele>
        <time>2022-06-25T17:59:34Z</time>
      </trkpt>
      <trkpt lat="46.08936" lon="4.64689">
        <ele>289.6</ele>
        <time>2022-06-25T17:59:36Z</time>
      </trkpt>
      <trkpt lat="46.08937" lon="4.64689">
        <ele>289.8</ele>
        <time>2022-06-25T17:59:38Z</time>
      </trkpt>
      <trkpt lat="46.08937" lon="4.64689">
        <ele>289.8</ele>
        <time>2022-06-25T17:59:39Z</time>
      </trkpt>
      <trkpt lat="46.08937" lon="4.64689">
        <ele>289.8</ele>
        <time>2022-06-25T17:59:41Z</time>
      </trkpt>
      <trkpt lat="46.08937" lon="4.64689">
        <ele>290</ele>
        <time>2022-06-25T17:59:43Z</time>
      </trkpt>
      <trkpt lat="46.08938" lon="4.64689">
        <ele>290.2</ele>
        <time>2022-06-25T17:59:48Z</time>
      </trkpt>
      <trkpt lat="46.08938" lon="4.64689">
        <ele>290.2</ele>
        <time>2022-06-25T17:59:49Z</time>
      </trkpt>
      <trkpt lat="46.08938" lon="4.64689">
        <ele>290.2</ele>
        <time>2022-06-25T17:59:52Z</time>
      </trkpt>
      <trkpt lat="46.08938" lon="4.64689">
        <ele>290.2</ele>
        <time>2022-06-25T17:59:54Z</time>
      </trkpt>
      <trkpt lat="46.08939" lon="4.64689">
        <ele>290.2</ele>
        <time>2022-06-25T17:59:56Z</time>
      </trkpt>
      <trkpt lat="46.08939" lon="4.64689">
        <ele>290.2</ele>
        <time>2022-06-25T17:59:57Z</time>
      </trkpt>
      <trkpt lat="46.08939" lon="4.64689">
        <ele>290.2</ele>
        <time>2022-06-25T17:59:59Z</time>
      </trkpt>
      <trkpt lat="46.08939" lon="4.64689">
        <ele>290.2</ele>
        <time>2022-06-25T18:00:02Z</time>
      </trkpt>
      <trkpt lat="46.0894" lon="4.64689">
        <ele>290.2</ele>
        <time>2022-06-25T18:00:04Z</time>
      </trkpt>
      <trkpt lat="46.0894" lon="4.64689">
        <ele>290.2</ele>
        <time>2022-06-25T18:00:05Z</time>
      </trkpt>
      <trkpt lat="46.0894" lon="4.64689">
        <ele>290.2</ele>
        <time>2022-06-25T18:00:07Z</time>
      </trkpt>
      <trkpt lat="46.0894" lon="4.64689">
        <ele>290.2</ele>
        <time>2022-06-25T18:00:09Z</time>
      </trkpt>
      <trkpt lat="46.08941" lon="4.64689">
        <ele>290.2</ele>
        <time>2022-06-25T18:00:30Z</time>
      </trkpt>
      <trkpt lat="46.08941" lon="4.64689">
        <ele>290.2</ele>
        <time>2022-06-25T18:00:34Z</time>
      </trkpt>
      <trkpt lat="46.08941" lon="4.64689">
        <ele>290.2</ele>
        <time>2022-06-25T18:00:57Z</time>
      </trkpt>
      <trkpt lat="46.08941" lon="4.64689">
        <ele>290.2</ele>
        <time>2022-06-25T18:01:05Z</time>
      </trkpt>
      <trkpt lat="46.08942" lon="4.64689">
        <ele>290</ele>
        <time>2022-06-25T18:02:27Z</time>
      </trkpt>
      <trkpt lat="46.08942" lon="4.64689">
        <ele>290</ele>
        <time>2022-06-25T18:02:28Z</time>
      </trkpt>
      <trkpt lat="46.08942" lon="4.64689">
        <ele>290</ele>
        <time>2022-06-25T18:02:30Z</time>
      </trkpt>
      <trkpt lat="46.08942" lon="4.64689">
        <ele>290</ele>
        <time>2022-06-25T18:02:32Z</time>
      </trkpt>
      <trkpt lat="46.08943" lon="4.64689">
        <ele>290</ele>
        <time>2022-06-25T18:02:36Z</time>
      </trkpt>
      <trkpt lat="46.08943" lon="4.64689">
        <ele>290</ele>
        <time>2022-06-25T18:02:38Z</time>
      </trkpt>
      <trkpt lat="46.08943" lon="4.64688">
        <ele>290</ele>
        <time>2022-06-25T18:02:40Z</time>
      </trkpt>
      <trkpt lat="46.08943" lon="4.64688">
        <ele>290</ele>
        <time>2022-06-25T18:02:41Z</time>
      </trkpt>
      <trkpt lat="46.08943" lon="4.64688">
        <ele>290</ele>
        <time>2022-06-25T18:02:43Z</time>
      </trkpt>
      <trkpt lat="46.08944" lon="4.64688">
        <ele>290</ele>
        <time>2022-06-25T18:02:44Z</time>
      </trkpt>
      <trkpt lat="46.08944" lon="4.64688">
        <ele>290</ele>
        <time>2022-06-25T18:02:46Z</time>
      </trkpt>
      <trkpt lat="46.08944" lon="4.64688">
        <ele>290</ele>
        <time>2022-06-25T18:02:48Z</time>
      </trkpt>
      <trkpt lat="46.08944" lon="4.64688">
        <ele>290</ele>
        <time>2022-06-25T18:02:50Z</time>
      </trkpt>
      <trkpt lat="46.08945" lon="4.64688">
        <ele>290</ele>
        <time>2022-06-25T18:02:51Z</time>
      </trkpt>
      <trkpt lat="46.08945" lon="4.64688">
        <ele>290</ele>
        <time>2022-06-25T18:02:53Z</time>
      </trkpt>
      <trkpt lat="46.08945" lon="4.64688">
        <ele>290</ele>
        <time>2022-06-25T18:02:55Z</time>
      </trkpt>
      <trkpt lat="46.08945" lon="4.64688">
        <ele>290</ele>
        <time>2022-06-25T18:02:57Z</time>
      </trkpt>
      <trkpt lat="46.08946" lon="4.64688">
        <ele>290</ele>
        <time>2022-06-25T18:02:58Z</time>
      </trkpt>
      <trkpt lat="46.08946" lon="4.64688">
        <ele>290</ele>
        <time>2022-06-25T18:03:00Z</time>
      </trkpt>
      <trkpt lat="46.08946" lon="4.64688">
        <ele>290</ele>
        <time>2022-06-25T18:03:02Z</time>
      </trkpt>
      <trkpt lat="46.08946" lon="4.64688">
        <ele>290</ele>
        <time>2022-06-25T18:03:04Z</time>
      </trkpt>
      <trkpt lat="46.08947" lon="4.64688">
        <ele>290</ele>
        <time>2022-06-25T18:03:05Z</time>
      </trkpt>
      <trkpt lat="46.08947" lon="4.64688">
        <ele>290</ele>
        <time>2022-06-25T18:03:07Z</time>
      </trkpt>
      <trkpt lat="46.08947" lon="4.64688">
        <ele>290</ele>
        <time>2022-06-25T18:03:09Z</time>
      </trkpt>
      <trkpt lat="46.08947" lon="4.64689">
        <ele>290</ele>
        <time>2022-06-25T18:03:10Z</time>
      </trkpt>
      <trkpt lat="46.08947" lon="4.64689">
        <ele>290</ele>
        <time>2022-06-25T18:03:12Z</time>
      </trkpt>
      <trkpt lat="46.08947" lon="4.6469">
        <ele>290</ele>
        <time>2022-06-25T18:03:14Z</time>
      </trkpt>
      <trkpt lat="46.08947" lon="4.6469">
        <ele>290</ele>
        <time>2022-06-25T18:03:15Z</time>
      </trkpt>
      <trkpt lat="46.08947" lon="4.6469">
        <ele>290</ele>
        <time>2022-06-25T18:03:17Z</time>
      </trkpt>
      <trkpt lat="46.08947" lon="4.64691">
        <ele>290</ele>
        <time>2022-06-25T18:03:18Z</time>
      </trkpt>
      <trkpt lat="46.08947" lon="4.64691">
        <ele>289.8</ele>
        <time>2022-06-25T18:03:20Z</time>
      </trkpt>
      <trkpt lat="46.08947" lon="4.64692">
        <ele>289.8</ele>
        <time>2022-06-25T18:03:22Z</time>
      </trkpt>
      <trkpt lat="46.08947" lon="4.64692">
        <ele>289.8</ele>
        <time>2022-06-25T18:03:23Z</time>
      </trkpt>
      <trkpt lat="46.08947" lon="4.64692">
        <ele>289.8</ele>
        <time>2022-06-25T18:03:25Z</time>
      </trkpt>
      <trkpt lat="46.08947" lon="4.64693">
        <ele>289.8</ele>
        <time>2022-06-25T18:03:26Z</time>
      </trkpt>
      <trkpt lat="46.08947" lon="4.64693">
        <ele>289.8</ele>
        <time>2022-06-25T18:03:28Z</time>
      </trkpt>
      <trkpt lat="46.08947" lon="4.64694">
        <ele>289.8</ele>
        <time>2022-06-25T18:03:30Z</time>
      </trkpt>
      <trkpt lat="46.08947" lon="4.64694">
        <ele>289.8</ele>
        <time>2022-06-25T18:03:31Z</time>
      </trkpt>
      <trkpt lat="46.08947" lon="4.64694">
        <ele>289.8</ele>
        <time>2022-06-25T18:03:33Z</time>
      </trkpt>
      <trkpt lat="46.08947" lon="4.64695">
        <ele>289.8</ele>
        <time>2022-06-25T18:03:34Z</time>
      </trkpt>
      <trkpt lat="46.08947" lon="4.64695">
        <ele>289.8</ele>
        <time>2022-06-25T18:03:36Z</time>
      </trkpt>
      <trkpt lat="46.08947" lon="4.64695">
        <ele>289.8</ele>
        <time>2022-06-25T18:03:38Z</time>
      </trkpt>
      <trkpt lat="46.08947" lon="4.64696">
        <ele>289.8</ele>
        <time>2022-06-25T18:03:42Z</time>
      </trkpt>
      <trkpt lat="46.08947" lon="4.64696">
        <ele>289.8</ele>
        <time>2022-06-25T18:03:44Z</time>
      </trkpt>
      <trkpt lat="46.08947" lon="4.64697">
        <ele>289.8</ele>
        <time>2022-06-25T18:03:46Z</time>
      </trkpt>
      <trkpt lat="46.08947" lon="4.64697">
        <ele>289.8</ele>
        <time>2022-06-25T18:03:47Z</time>
      </trkpt>
      <trkpt lat="46.08947" lon="4.64697">
        <ele>289.8</ele>
        <time>2022-06-25T18:03:54Z</time>
      </trkpt>
      <trkpt lat="46.08947" lon="4.64698">
        <ele>289.6</ele>
        <time>2022-06-25T18:03:56Z</time>
      </trkpt>
      <trkpt lat="46.08947" lon="4.64698">
        <ele>289.6</ele>
        <time>2022-06-25T18:03:58Z</time>
      </trkpt>
      <trkpt lat="46.08947" lon="4.64699">
        <ele>289.6</ele>
        <time>2022-06-25T18:04:00Z</time>
      </trkpt>
      <trkpt lat="46.08947" lon="4.64699">
        <ele>289.6</ele>
        <time>2022-06-25T18:04:01Z</time>
      </trkpt>
      <trkpt lat="46.08947" lon="4.64699">
        <ele>289.6</ele>
        <time>2022-06-25T18:04:03Z</time>
      </trkpt>
      <trkpt lat="46.08947" lon="4.647">
        <ele>289.6</ele>
        <time>2022-06-25T18:04:04Z</time>
      </trkpt>
      <trkpt lat="46.08947" lon="4.647">
        <ele>289.6</ele>
        <time>2022-06-25T18:04:06Z</time>
      </trkpt>
      <trkpt lat="46.08947" lon="4.64698">
        <ele>289.6</ele>
        <time>2022-06-25T18:04:07Z</time>
      </trkpt>
      <trkpt lat="46.08947" lon="4.64697">
        <ele>289.6</ele>
        <time>2022-06-25T18:04:08Z</time>
      </trkpt>
      <trkpt lat="46.08947" lon="4.64695">
        <ele>289.6</ele>
        <time>2022-06-25T18:04:09Z</time>
      </trkpt>
      <trkpt lat="46.08947" lon="4.64694">
        <ele>289.6</ele>
        <time>2022-06-25T18:04:10Z</time>
      </trkpt>
      <trkpt lat="46.08947" lon="4.64692">
        <ele>289.6</ele>
        <time>2022-06-25T18:04:11Z</time>
      </trkpt>
      <trkpt lat="46.08947" lon="4.64691">
        <ele>289.6</ele>
        <time>2022-06-25T18:04:14Z</time>
      </trkpt>
      <trkpt lat="46.08947" lon="4.6469">
        <ele>289.6</ele>
        <time>2022-06-25T18:04:15Z</time>
      </trkpt>
      <trkpt lat="46.08947" lon="4.64688">
        <ele>289.6</ele>
        <time>2022-06-25T18:04:16Z</time>
      </trkpt>
      <trkpt lat="46.08947" lon="4.64687">
        <ele>289.6</ele>
        <time>2022-06-25T18:04:17Z</time>
      </trkpt>
      <trkpt lat="46.08947" lon="4.64683">
        <ele>289.6</ele>
        <time>2022-06-25T18:04:18Z</time>
      </trkpt>
      <trkpt lat="46.08948" lon="4.64681">
        <ele>289.6</ele>
        <time>2022-06-25T18:04:19Z</time>
      </trkpt>
      <trkpt lat="46.08948" lon="4.6468">
        <ele>289.6</ele>
        <time>2022-06-25T18:04:20Z</time>
      </trkpt>
      <trkpt lat="46.08949" lon="4.6468">
        <ele>289.6</ele>
        <time>2022-06-25T18:04:21Z</time>
      </trkpt>
      <trkpt lat="46.0895" lon="4.64679">
        <ele>289.6</ele>
        <time>2022-06-25T18:04:24Z</time>
      </trkpt>
      <trkpt lat="46.0895" lon="4.64679">
        <ele>289.6</ele>
        <time>2022-06-25T18:04:25Z</time>
      </trkpt>
      <trkpt lat="46.0895" lon="4.64678">
        <ele>289.6</ele>
        <time>2022-06-25T18:04:26Z</time>
      </trkpt>
      <trkpt lat="46.08951" lon="4.64678">
        <ele>289.6</ele>
        <time>2022-06-25T18:04:27Z</time>
      </trkpt>
      <trkpt lat="46.08951" lon="4.64677">
        <ele>289.6</ele>
        <time>2022-06-25T18:04:28Z</time>
      </trkpt>
      <trkpt lat="46.08952" lon="4.64677">
        <ele>289.6</ele>
        <time>2022-06-25T18:04:29Z</time>
      </trkpt>
      <trkpt lat="46.08953" lon="4.64676">
        <ele>289.6</ele>
        <time>2022-06-25T18:04:31Z</time>
      </trkpt>
      <trkpt lat="46.08953" lon="4.64676">
        <ele>289.6</ele>
        <time>2022-06-25T18:04:32Z</time>
      </trkpt>
      <trkpt lat="46.08953" lon="4.64675">
        <ele>289.6</ele>
        <time>2022-06-25T18:04:33Z</time>
      </trkpt>
      <trkpt lat="46.08954" lon="4.64675">
        <ele>289.2</ele>
        <time>2022-06-25T18:04:34Z</time>
      </trkpt>
      <trkpt lat="46.08955" lon="4.64674">
        <ele>289.2</ele>
        <time>2022-06-25T18:04:36Z</time>
      </trkpt>
      <trkpt lat="46.08955" lon="4.64674">
        <ele>288.8</ele>
        <time>2022-06-25T18:04:37Z</time>
      </trkpt>
      <trkpt lat="46.08957" lon="4.64674">
        <ele>288.8</ele>
        <time>2022-06-25T18:04:38Z</time>
      </trkpt>
      <trkpt lat="46.08958" lon="4.64674">
        <ele>288.8</ele>
        <time>2022-06-25T18:04:39Z</time>
      </trkpt>
      <trkpt lat="46.08959" lon="4.64674">
        <ele>288.6</ele>
        <time>2022-06-25T18:04:40Z</time>
      </trkpt>
      <trkpt lat="46.0896" lon="4.64674">
        <ele>288.6</ele>
        <time>2022-06-25T18:04:41Z</time>
      </trkpt>
      <trkpt lat="46.08961" lon="4.64674">
        <ele>288.6</ele>
        <time>2022-06-25T18:04:43Z</time>
      </trkpt>
      <trkpt lat="46.08962" lon="4.64675">
        <ele>288.6</ele>
        <time>2022-06-25T18:04:44Z</time>
      </trkpt>
      <trkpt lat="46.08963" lon="4.64675">
        <ele>288.6</ele>
        <time>2022-06-25T18:04:45Z</time>
      </trkpt>
      <trkpt lat="46.08964" lon="4.64675">
        <ele>288.6</ele>
        <time>2022-06-25T18:04:46Z</time>
      </trkpt>
      <trkpt lat="46.08965" lon="4.64675">
        <ele>288.6</ele>
        <time>2022-06-25T18:04:47Z</time>
      </trkpt>
      <trkpt lat="46.08966" lon="4.64675">
        <ele>288.6</ele>
        <time>2022-06-25T18:04:48Z</time>
      </trkpt>
      <trkpt lat="46.08967" lon="4.64675">
        <ele>288.6</ele>
        <time>2022-06-25T18:04:49Z</time>
      </trkpt>
      <trkpt lat="46.08968" lon="4.64675">
        <ele>288.6</ele>
        <time>2022-06-25T18:04:50Z</time>
      </trkpt>
      <trkpt lat="46.08969" lon="4.64675">
        <ele>288.6</ele>
        <time>2022-06-25T18:04:51Z</time>
      </trkpt>
      <trkpt lat="46.0897" lon="4.64675">
        <ele>288.6</ele>
        <time>2022-06-25T18:04:52Z</time>
      </trkpt>
      <trkpt lat="46.08971" lon="4.64675">
        <ele>288.6</ele>
        <time>2022-06-25T18:04:53Z</time>
      </trkpt>
      <trkpt lat="46.08973" lon="4.64675">
        <ele>288.6</ele>
        <time>2022-06-25T18:04:54Z</time>
      </trkpt>
      <trkpt lat="46.08972" lon="4.64688">
        <ele>288.6</ele>
        <time>2022-06-25T18:05:09Z</time>
      </trkpt>
      <trkpt lat="46.08972" lon="4.64689">
        <ele>288.6</ele>
        <time>2022-06-25T18:05:10Z</time>
      </trkpt>
      <trkpt lat="46.08973" lon="4.64689">
        <ele>288.6</ele>
        <time>2022-06-25T18:05:12Z</time>
      </trkpt>
      <trkpt lat="46.08966" lon="4.64699">
        <ele>288.6</ele>
        <time>2022-06-25T18:05:21Z</time>
      </trkpt>
      <trkpt lat="46.0896" lon="4.64702">
        <ele>288.6</ele>
        <time>2022-06-25T18:05:22Z</time>
      </trkpt>
      <trkpt lat="46.08958" lon="4.64703">
        <ele>288.6</ele>
        <time>2022-06-25T18:05:23Z</time>
      </trkpt>
      <trkpt lat="46.08957" lon="4.64702">
        <ele>288.6</ele>
        <time>2022-06-25T18:05:24Z</time>
      </trkpt>
      <trkpt lat="46.08958" lon="4.64701">
        <ele>288.6</ele>
        <time>2022-06-25T18:05:25Z</time>
      </trkpt>
      <trkpt lat="46.08958" lon="4.647">
        <ele>288.6</ele>
        <time>2022-06-25T18:05:26Z</time>
      </trkpt>
      <trkpt lat="46.08959" lon="4.64698">
        <ele>288.6</ele>
        <time>2022-06-25T18:05:27Z</time>
      </trkpt>
      <trkpt lat="46.08959" lon="4.64697">
        <ele>288.6</ele>
        <time>2022-06-25T18:05:29Z</time>
      </trkpt>
      <trkpt lat="46.0896" lon="4.64696">
        <ele>288.6</ele>
        <time>2022-06-25T18:05:30Z</time>
      </trkpt>
      <trkpt lat="46.08961" lon="4.64695">
        <ele>288.6</ele>
        <time>2022-06-25T18:05:31Z</time>
      </trkpt>
      <trkpt lat="46.08961" lon="4.64693">
        <ele>288.6</ele>
        <time>2022-06-25T18:05:32Z</time>
      </trkpt>
      <trkpt lat="46.08962" lon="4.64692">
        <ele>288.6</ele>
        <time>2022-06-25T18:05:33Z</time>
      </trkpt>
      <trkpt lat="46.08964" lon="4.64689">
        <ele>288.6</ele>
        <time>2022-06-25T18:05:34Z</time>
      </trkpt>
      <trkpt lat="46.08965" lon="4.64687">
        <ele>288.6</ele>
        <time>2022-06-25T18:05:35Z</time>
      </trkpt>
      <trkpt lat="46.08967" lon="4.64686">
        <ele>288.6</ele>
        <time>2022-06-25T18:05:36Z</time>
      </trkpt>
      <trkpt lat="46.08968" lon="4.64684">
        <ele>288.6</ele>
        <time>2022-06-25T18:05:37Z</time>
      </trkpt>
      <trkpt lat="46.0897" lon="4.64682">
        <ele>288.6</ele>
        <time>2022-06-25T18:05:38Z</time>
      </trkpt>
      <trkpt lat="46.08971" lon="4.6468">
        <ele>288.6</ele>
        <time>2022-06-25T18:05:39Z</time>
      </trkpt>
      <trkpt lat="46.08979" lon="4.64674">
        <ele>288.6</ele>
        <time>2022-06-25T18:05:40Z</time>
      </trkpt>
      <trkpt lat="46.08983" lon="4.64672">
        <ele>288.6</ele>
        <time>2022-06-25T18:05:41Z</time>
      </trkpt>
      <trkpt lat="46.08986" lon="4.64668">
        <ele>288.6</ele>
        <time>2022-06-25T18:05:42Z</time>
      </trkpt>
      <trkpt lat="46.08988" lon="4.64666">
        <ele>288.6</ele>
        <time>2022-06-25T18:05:43Z</time>
      </trkpt>
      <trkpt lat="46.08989" lon="4.64664">
        <ele>288.6</ele>
        <time>2022-06-25T18:05:44Z</time>
      </trkpt>
      <trkpt lat="46.08991" lon="4.64663">
        <ele>288.6</ele>
        <time>2022-06-25T18:05:45Z</time>
      </trkpt>
      <trkpt lat="46.08997" lon="4.64657">
        <ele>288.6</ele>
        <time>2022-06-25T18:05:46Z</time>
      </trkpt>
      <trkpt lat="46.08998" lon="4.64656">
        <ele>288.6</ele>
        <time>2022-06-25T18:05:47Z</time>
      </trkpt>
      <trkpt lat="46.08999" lon="4.64657">
        <ele>288.6</ele>
        <time>2022-06-25T18:05:48Z</time>
      </trkpt>
      <trkpt lat="46.09" lon="4.64657">
        <ele>288.6</ele>
        <time>2022-06-25T18:05:49Z</time>
      </trkpt>
      <trkpt lat="46.09002" lon="4.64655">
        <ele>288.6</ele>
        <time>2022-06-25T18:05:50Z</time>
      </trkpt>
      <trkpt lat="46.09004" lon="4.64654">
        <ele>288.6</ele>
        <time>2022-06-25T18:05:51Z</time>
      </trkpt>
      <trkpt lat="46.09005" lon="4.64652">
        <ele>288.6</ele>
        <time>2022-06-25T18:05:52Z</time>
      </trkpt>
      <trkpt lat="46.09006" lon="4.64652">
        <ele>288.6</ele>
        <time>2022-06-25T18:05:53Z</time>
      </trkpt>
      <trkpt lat="46.09007" lon="4.6465">
        <ele>288.6</ele>
        <time>2022-06-25T18:05:55Z</time>
      </trkpt>
      <trkpt lat="46.09007" lon="4.64649">
        <ele>288.6</ele>
        <time>2022-06-25T18:05:56Z</time>
      </trkpt>
      <trkpt lat="46.09008" lon="4.64648">
        <ele>288.6</ele>
        <time>2022-06-25T18:05:57Z</time>
      </trkpt>
      <trkpt lat="46.09009" lon="4.64647">
        <ele>288.8</ele>
        <time>2022-06-25T18:05:58Z</time>
      </trkpt>
      <trkpt lat="46.09009" lon="4.64645">
        <ele>288.8</ele>
        <time>2022-06-25T18:06:00Z</time>
      </trkpt>
      <trkpt lat="46.0901" lon="4.64645">
        <ele>288.8</ele>
        <time>2022-06-25T18:06:01Z</time>
      </trkpt>
      <trkpt lat="46.0901" lon="4.64644">
        <ele>288.8</ele>
        <time>2022-06-25T18:06:02Z</time>
      </trkpt>
      <trkpt lat="46.0901" lon="4.64643">
        <ele>288.8</ele>
        <time>2022-06-25T18:06:03Z</time>
      </trkpt>
      <trkpt lat="46.0901" lon="4.64644">
        <ele>288.8</ele>
        <time>2022-06-25T18:06:04Z</time>
      </trkpt>
      <trkpt lat="46.09009" lon="4.64644">
        <ele>288.8</ele>
        <time>2022-06-25T18:06:05Z</time>
      </trkpt>
      <trkpt lat="46.09008" lon="4.64646">
        <ele>288.8</ele>
        <time>2022-06-25T18:06:06Z</time>
      </trkpt>
      <trkpt lat="46.09007" lon="4.64647">
        <ele>288.8</ele>
        <time>2022-06-25T18:06:07Z</time>
      </trkpt>
      <trkpt lat="46.09006" lon="4.64649">
        <ele>288.8</ele>
        <time>2022-06-25T18:06:08Z</time>
      </trkpt>
      <trkpt lat="46.09004" lon="4.6465">
        <ele>288.8</ele>
        <time>2022-06-25T18:06:09Z</time>
      </trkpt>
      <trkpt lat="46.09003" lon="4.64652">
        <ele>288.8</ele>
        <time>2022-06-25T18:06:10Z</time>
      </trkpt>
      <trkpt lat="46.09" lon="4.64655">
        <ele>288.8</ele>
        <time>2022-06-25T18:06:11Z</time>
      </trkpt>
      <trkpt lat="46.08998" lon="4.64657">
        <ele>288.8</ele>
        <time>2022-06-25T18:06:12Z</time>
      </trkpt>
      <trkpt lat="46.08985" lon="4.64676">
        <ele>288.8</ele>
        <time>2022-06-25T18:06:20Z</time>
      </trkpt>
      <trkpt lat="46.08984" lon="4.64677">
        <ele>288.8</ele>
        <time>2022-06-25T18:06:21Z</time>
      </trkpt>
      <trkpt lat="46.08982" lon="4.64679">
        <ele>288.8</ele>
        <time>2022-06-25T18:06:22Z</time>
      </trkpt>
      <trkpt lat="46.08981" lon="4.64681">
        <ele>288.8</ele>
        <time>2022-06-25T18:06:23Z</time>
      </trkpt>
      <trkpt lat="46.0898" lon="4.64683">
        <ele>288.8</ele>
        <time>2022-06-25T18:06:24Z</time>
      </trkpt>
      <trkpt lat="46.08979" lon="4.64686">
        <ele>288.8</ele>
        <time>2022-06-25T18:06:25Z</time>
      </trkpt>
      <trkpt lat="46.0892" lon="4.64673">
        <ele>286</ele>
        <time>2022-06-25T19:09:31Z</time>
      </trkpt>
      <trkpt lat="46.08938" lon="4.64689">
        <ele>286.8</ele>
        <time>2022-06-25T19:10:01Z</time>
      </trkpt>
      <trkpt lat="46.08942" lon="4.64689">
        <ele>286.8</ele>
        <time>2022-06-25T19:10:02Z</time>
      </trkpt>
      <trkpt lat="46.08943" lon="4.64689">
        <ele>286.8</ele>
        <time>2022-06-25T19:10:03Z</time>
      </trkpt>
      <trkpt lat="46.08944" lon="4.64688">
        <ele>286.8</ele>
        <time>2022-06-25T19:10:04Z</time>
      </trkpt>
      <trkpt lat="46.08945" lon="4.64687">
        <ele>287</ele>
        <time>2022-06-25T19:10:06Z</time>
      </trkpt>
      <trkpt lat="46.08945" lon="4.64686">
        <ele>287</ele>
        <time>2022-06-25T19:10:07Z</time>
      </trkpt>
      <trkpt lat="46.08946" lon="4.64685">
        <ele>287.2</ele>
        <time>2022-06-25T19:10:08Z</time>
      </trkpt>
      <trkpt lat="46.08947" lon="4.64685">
        <ele>287.2</ele>
        <time>2022-06-25T19:10:09Z</time>
      </trkpt>
      <trkpt lat="46.08947" lon="4.64684">
        <ele>287</ele>
        <time>2022-06-25T19:10:28Z</time>
      </trkpt>
      <trkpt lat="46.08948" lon="4.64683">
        <ele>287</ele>
        <time>2022-06-25T19:10:29Z</time>
      </trkpt>
      <trkpt lat="46.08949" lon="4.64682">
        <ele>287</ele>
        <time>2022-06-25T19:10:30Z</time>
      </trkpt>
      <trkpt lat="46.08949" lon="4.64681">
        <ele>287</ele>
        <time>2022-06-25T19:10:32Z</time>
      </trkpt>
      <trkpt lat="46.08949" lon="4.64681">
        <ele>287</ele>
        <time>2022-06-25T19:10:33Z</time>
      </trkpt>
      <trkpt lat="46.08948" lon="4.64682">
        <ele>287.2</ele>
        <time>2022-06-25T19:10:35Z</time>
      </trkpt>
      <trkpt lat="46.08948" lon="4.64682">
        <ele>287.2</ele>
        <time>2022-06-25T19:10:36Z</time>
      </trkpt>
      <trkpt lat="46.08948" lon="4.64682">
        <ele>287.2</ele>
        <time>2022-06-25T19:10:38Z</time>
      </trkpt>
      <trkpt lat="46.08948" lon="4.64683">
        <ele>287.2</ele>
        <time>2022-06-25T19:10:40Z</time>
      </trkpt>
      <trkpt lat="46.08947" lon="4.64683">
        <ele>287</ele>
        <time>2022-06-25T19:10:44Z</time>
      </trkpt>
      <trkpt lat="46.08947" lon="4.64683">
        <ele>287</ele>
        <time>2022-06-25T19:10:45Z</time>
      </trkpt>
      <trkpt lat="46.08947" lon="4.64684">
        <ele>287</ele>
        <time>2022-06-25T19:10:47Z</time>
      </trkpt>
      <trkpt lat="46.08947" lon="4.64684">
        <ele>287</ele>
        <time>2022-06-25T19:10:49Z</time>
      </trkpt>
      <trkpt lat="46.08947" lon="4.64685">
        <ele>287</ele>
        <time>2022-06-25T19:10:50Z</time>
      </trkpt>
      <trkpt lat="46.08946" lon="4.64685">
        <ele>287</ele>
        <time>2022-06-25T19:10:51Z</time>
      </trkpt>
      <trkpt lat="46.08946" lon="4.64685">
        <ele>287</ele>
        <time>2022-06-25T19:10:53Z</time>
      </trkpt>
      <trkpt lat="46.08946" lon="4.64686">
        <ele>286.6</ele>
        <time>2022-06-25T19:10:54Z</time>
      </trkpt>
      <trkpt lat="46.08946" lon="4.64686">
        <ele>286.6</ele>
        <time>2022-06-25T19:10:56Z</time>
      </trkpt>
      <trkpt lat="46.08945" lon="4.64687">
        <ele>286.8</ele>
        <time>2022-06-25T19:10:58Z</time>
      </trkpt>
      <trkpt lat="46.08945" lon="4.64687">
        <ele>286.8</ele>
        <time>2022-06-25T19:10:59Z</time>
      </trkpt>
      <trkpt lat="46.08945" lon="4.64687">
        <ele>287</ele>
        <time>2022-06-25T19:11:04Z</time>
      </trkpt>
      <trkpt lat="46.08941" lon="4.64696">
        <ele>287</ele>
        <time>2022-06-25T19:11:05Z</time>
      </trkpt>
      <trkpt lat="46.08941" lon="4.64697">
        <ele>287</ele>
        <time>2022-06-25T19:11:06Z</time>
      </trkpt>
      <trkpt lat="46.08941" lon="4.64698">
        <ele>287</ele>
        <time>2022-06-25T19:11:07Z</time>
      </trkpt>
      <trkpt lat="46.08941" lon="4.647">
        <ele>287</ele>
        <time>2022-06-25T19:11:08Z</time>
      </trkpt>
      <trkpt lat="46.0894" lon="4.64701">
        <ele>287</ele>
        <time>2022-06-25T19:11:09Z</time>
      </trkpt>
      <trkpt lat="46.0894" lon="4.64703">
        <ele>287</ele>
        <time>2022-06-25T19:11:10Z</time>
      </trkpt>
      <trkpt lat="46.0894" lon="4.64704">
        <ele>287</ele>
        <time>2022-06-25T19:11:11Z</time>
      </trkpt>
      <trkpt lat="46.0894" lon="4.64705">
        <ele>287</ele>
        <time>2022-06-25T19:11:12Z</time>
      </trkpt>
      <trkpt lat="46.08939" lon="4.64707">
        <ele>287</ele>
        <time>2022-06-25T19:11:13Z</time>
      </trkpt>
      <trkpt lat="46.08939" lon="4.64708">
        <ele>287</ele>
        <time>2022-06-25T19:11:14Z</time>
      </trkpt>
      <trkpt lat="46.08939" lon="4.64709">
        <ele>287</ele>
        <time>2022-06-25T19:11:17Z</time>
      </trkpt>
      <trkpt lat="46.08939" lon="4.64711">
        <ele>287</ele>
        <time>2022-06-25T19:11:18Z</time>
      </trkpt>
      <trkpt lat="46.08938" lon="4.64712">
        <ele>287</ele>
        <time>2022-06-25T19:11:19Z</time>
      </trkpt>
      <trkpt lat="46.08954" lon="4.64727">
        <ele>287</ele>
        <time>2022-06-25T19:11:27Z</time>
      </trkpt>
      <trkpt lat="46.08957" lon="4.64728">
        <ele>287</ele>
        <time>2022-06-25T19:11:28Z</time>
      </trkpt>
      <trkpt lat="46.08959" lon="4.64728">
        <ele>287</ele>
        <time>2022-06-25T19:11:29Z</time>
      </trkpt>
      <trkpt lat="46.08957" lon="4.64719">
        <ele>287</ele>
        <time>2022-06-25T19:11:30Z</time>
      </trkpt>
      <trkpt lat="46.08955" lon="4.64713">
        <ele>287</ele>
        <time>2022-06-25T19:11:31Z</time>
      </trkpt>
      <trkpt lat="46.08954" lon="4.64707">
        <ele>287</ele>
        <time>2022-06-25T19:11:32Z</time>
      </trkpt>
      <trkpt lat="46.08949" lon="4.64688">
        <ele>287</ele>
        <time>2022-06-25T19:11:33Z</time>
      </trkpt>
      <trkpt lat="46.08949" lon="4.64688">
        <ele>287</ele>
        <time>2022-06-25T19:11:36Z</time>
      </trkpt>
      <trkpt lat="46.08949" lon="4.64688">
        <ele>287</ele>
        <time>2022-06-25T19:11:40Z</time>
      </trkpt>
      <trkpt lat="46.0895" lon="4.64688">
        <ele>287</ele>
        <time>2022-06-25T19:11:43Z</time>
      </trkpt>
      <trkpt lat="46.0895" lon="4.64689">
        <ele>287</ele>
        <time>2022-06-25T19:11:46Z</time>
      </trkpt>
      <trkpt lat="46.0895" lon="4.64689">
        <ele>287</ele>
        <time>2022-06-25T19:11:53Z</time>
      </trkpt>
      <trkpt lat="46.0895" lon="4.64689">
        <ele>287</ele>
        <time>2022-06-25T19:11:59Z</time>
      </trkpt>
      <trkpt lat="46.0895" lon="4.64689">
        <ele>287</ele>
        <time>2022-06-25T19:12:03Z</time>
      </trkpt>
      <trkpt lat="46.0895" lon="4.64689">
        <ele>287</ele>
        <time>2022-06-25T19:12:12Z</time>
      </trkpt>
      <trkpt lat="46.0895" lon="4.64689">
        <ele>287.2</ele>
        <time>2022-06-25T19:12:19Z</time>
      </trkpt>
      <trkpt lat="46.0895" lon="4.64689">
        <ele>287.2</ele>
        <time>2022-06-25T19:12:22Z</time>
      </trkpt>
      <trkpt lat="46.0895" lon="4.6469">
        <ele>287.2</ele>
        <time>2022-06-25T19:12:25Z</time>
      </trkpt>
      <trkpt lat="46.0895" lon="4.6469">
        <ele>287.2</ele>
        <time>2022-06-25T19:12:28Z</time>
      </trkpt>
      <trkpt lat="46.08951" lon="4.6469">
        <ele>287.2</ele>
        <time>2022-06-25T19:12:42Z</time>
      </trkpt>
      <trkpt lat="46.08951" lon="4.6469">
        <ele>287.2</ele>
        <time>2022-06-25T19:12:45Z</time>
      </trkpt>
      <trkpt lat="46.08951" lon="4.6469">
        <ele>287.2</ele>
        <time>2022-06-25T19:12:51Z</time>
      </trkpt>
      <trkpt lat="46.08951" lon="4.6469">
        <ele>287.2</ele>
        <time>2022-06-25T19:12:54Z</time>
      </trkpt>
      <trkpt lat="46.08951" lon="4.6469">
        <ele>287.4</ele>
        <time>2022-06-25T19:12:57Z</time>
      </trkpt>
      <trkpt lat="46.08951" lon="4.6469">
        <ele>287.4</ele>
        <time>2022-06-25T19:13:08Z</time>
      </trkpt>
      <trkpt lat="46.08951" lon="4.6469">
        <ele>287.4</ele>
        <time>2022-06-25T19:13:11Z</time>
      </trkpt>
      <trkpt lat="46.08951" lon="4.64691">
        <ele>287.4</ele>
        <time>2022-06-25T19:13:17Z</time>
      </trkpt>
      <trkpt lat="46.08951" lon="4.64691">
        <ele>287</ele>
        <time>2022-06-25T19:13:20Z</time>
      </trkpt>
      <trkpt lat="46.08951" lon="4.64691">
        <ele>287.4</ele>
        <time>2022-06-25T19:13:22Z</time>
      </trkpt>
      <trkpt lat="46.08951" lon="4.64691">
        <ele>287.4</ele>
        <time>2022-06-25T19:13:26Z</time>
      </trkpt>
      <trkpt lat="46.08951" lon="4.64691">
        <ele>287.4</ele>
        <time>2022-06-25T19:13:32Z</time>
      </trkpt>
      <trkpt lat="46.08952" lon="4.64691">
        <ele>287.4</ele>
        <time>2022-06-25T19:13:33Z</time>
      </trkpt>
      <trkpt lat="46.08952" lon="4.64691">
        <ele>287.4</ele>
        <time>2022-06-25T19:13:36Z</time>
      </trkpt>
      <trkpt lat="46.08952" lon="4.64691">
        <ele>287.8</ele>
        <time>2022-06-25T19:13:43Z</time>
      </trkpt>
      <trkpt lat="46.08952" lon="4.64691">
        <ele>287.6</ele>
        <time>2022-06-25T19:13:47Z</time>
      </trkpt>
      <trkpt lat="46.08952" lon="4.64692">
        <ele>287.6</ele>
        <time>2022-06-25T19:13:49Z</time>
      </trkpt>
      <trkpt lat="46.08952" lon="4.64692">
        <ele>287.6</ele>
        <time>2022-06-25T19:13:58Z</time>
      </trkpt>
      <trkpt lat="46.08952" lon="4.64692">
        <ele>287.6</ele>
        <time>2022-06-25T19:14:01Z</time>
      </trkpt>
      <trkpt lat="46.08952" lon="4.64692">
        <ele>287.6</ele>
        <time>2022-06-25T19:14:04Z</time>
      </trkpt>
      <trkpt lat="46.08952" lon="4.64692">
        <ele>287.6</ele>
        <time>2022-06-25T19:14:07Z</time>
      </trkpt>
      <trkpt lat="46.08952" lon="4.64692">
        <ele>287.6</ele>
        <time>2022-06-25T19:14:11Z</time>
      </trkpt>
      <trkpt lat="46.08952" lon="4.64692">
        <ele>287.6</ele>
        <time>2022-06-25T19:14:17Z</time>
      </trkpt>
      <trkpt lat="46.08953" lon="4.64692">
        <ele>287.6</ele>
        <time>2022-06-25T19:14:22Z</time>
      </trkpt>
      <trkpt lat="46.08953" lon="4.64692">
        <ele>287.8</ele>
        <time>2022-06-25T19:14:24Z</time>
      </trkpt>
      <trkpt lat="46.08953" lon="4.64693">
        <ele>287.6</ele>
        <time>2022-06-25T19:14:27Z</time>
      </trkpt>
      <trkpt lat="46.08953" lon="4.64693">
        <ele>287.8</ele>
        <time>2022-06-25T19:14:30Z</time>
      </trkpt>
      <trkpt lat="46.08953" lon="4.64693">
        <ele>287.6</ele>
        <time>2022-06-25T19:14:37Z</time>
      </trkpt>
      <trkpt lat="46.08953" lon="4.64693">
        <ele>287.6</ele>
        <time>2022-06-25T19:14:39Z</time>
      </trkpt>
      <trkpt lat="46.08955" lon="4.64693">
        <ele>287.6</ele>
        <time>2022-06-25T19:14:44Z</time>
      </trkpt>
      <trkpt lat="46.08956" lon="4.64694">
        <ele>287.6</ele>
        <time>2022-06-25T19:14:45Z</time>
      </trkpt>
      <trkpt lat="46.08958" lon="4.64695">
        <ele>287.8</ele>
        <time>2022-06-25T19:14:46Z</time>
      </trkpt>
      <trkpt lat="46.08959" lon="4.64697">
        <ele>287.8</ele>
        <time>2022-06-25T19:14:47Z</time>
      </trkpt>
      <trkpt lat="46.0896" lon="4.64699">
        <ele>287.8</ele>
        <time>2022-06-25T19:14:48Z</time>
      </trkpt>
      <trkpt lat="46.08961" lon="4.64702">
        <ele>287.8</ele>
        <time>2022-06-25T19:14:49Z</time>
      </trkpt>
      <trkpt lat="46.08962" lon="4.64705">
        <ele>288.2</ele>
        <time>2022-06-25T19:14:50Z</time>
      </trkpt>
      <trkpt lat="46.08963" lon="4.64708">
        <ele>288.2</ele>
        <time>2022-06-25T19:14:51Z</time>
      </trkpt>
      <trkpt lat="46.08963" lon="4.64711">
        <ele>288.2</ele>
        <time>2022-06-25T19:14:52Z</time>
      </trkpt>
      <trkpt lat="46.08963" lon="4.64713">
        <ele>288.2</ele>
        <time>2022-06-25T19:14:53Z</time>
      </trkpt>
      <trkpt lat="46.08963" lon="4.64715">
        <ele>288.2</ele>
        <time>2022-06-25T19:14:54Z</time>
      </trkpt>
      <trkpt lat="46.08962" lon="4.64717">
        <ele>288.2</ele>
        <time>2022-06-25T19:14:55Z</time>
      </trkpt>
      <trkpt lat="46.08961" lon="4.6472">
        <ele>288.2</ele>
        <time>2022-06-25T19:14:56Z</time>
      </trkpt>
      <trkpt lat="46.0896" lon="4.64723">
        <ele>288.2</ele>
        <time>2022-06-25T19:14:57Z</time>
      </trkpt>
      <trkpt lat="46.08959" lon="4.64726">
        <ele>288.2</ele>
        <time>2022-06-25T19:14:58Z</time>
      </trkpt>
      <trkpt lat="46.08958" lon="4.64729">
        <ele>288</ele>
        <time>2022-06-25T19:14:59Z</time>
      </trkpt>
      <trkpt lat="46.08957" lon="4.64732">
        <ele>288</ele>
        <time>2022-06-25T19:15:00Z</time>
      </trkpt>
      <trkpt lat="46.08956" lon="4.64735">
        <ele>288</ele>
        <time>2022-06-25T19:15:01Z</time>
      </trkpt>
      <trkpt lat="46.08956" lon="4.64738">
        <ele>287.6</ele>
        <time>2022-06-25T19:15:02Z</time>
      </trkpt>
      <trkpt lat="46.08955" lon="4.6474">
        <ele>287.6</ele>
        <time>2022-06-25T19:15:03Z</time>
      </trkpt>
      <trkpt lat="46.08955" lon="4.64742">
        <ele>287.4</ele>
        <time>2022-06-25T19:15:04Z</time>
      </trkpt>
      <trkpt lat="46.08954" lon="4.64744">
        <ele>287.4</ele>
        <time>2022-06-25T19:15:05Z</time>
      </trkpt>
      <trkpt lat="46.08954" lon="4.64746">
        <ele>287.2</ele>
        <time>2022-06-25T19:15:06Z</time>
      </trkpt>
      <trkpt lat="46.08956" lon="4.64746">
        <ele>287.2</ele>
        <time>2022-06-25T19:15:07Z</time>
      </trkpt>
      <trkpt lat="46.08957" lon="4.64746">
        <ele>287.2</ele>
        <time>2022-06-25T19:15:08Z</time>
      </trkpt>
      <trkpt lat="46.08958" lon="4.64744">
        <ele>287.2</ele>
        <time>2022-06-25T19:15:09Z</time>
      </trkpt>
      <trkpt lat="46.08958" lon="4.64741">
        <ele>287.2</ele>
        <time>2022-06-25T19:15:10Z</time>
      </trkpt>
      <trkpt lat="46.08959" lon="4.64739">
        <ele>287.2</ele>
        <time>2022-06-25T19:15:11Z</time>
      </trkpt>
      <trkpt lat="46.0896" lon="4.64736">
        <ele>287.2</ele>
        <time>2022-06-25T19:15:12Z</time>
      </trkpt>
      <trkpt lat="46.08962" lon="4.64733">
        <ele>287.4</ele>
        <time>2022-06-25T19:15:13Z</time>
      </trkpt>
      <trkpt lat="46.08963" lon="4.64731">
        <ele>287.4</ele>
        <time>2022-06-25T19:15:14Z</time>
      </trkpt>
      <trkpt lat="46.08966" lon="4.6473">
        <ele>287.8</ele>
        <time>2022-06-25T19:15:15Z</time>
      </trkpt>
      <trkpt lat="46.08968" lon="4.64729">
        <ele>287.8</ele>
        <time>2022-06-25T19:15:16Z</time>
      </trkpt>
      <trkpt lat="46.08971" lon="4.6473">
        <ele>288</ele>
        <time>2022-06-25T19:15:17Z</time>
      </trkpt>
      <trkpt lat="46.08973" lon="4.64732">
        <ele>288</ele>
        <time>2022-06-25T19:15:18Z</time>
      </trkpt>
      <trkpt lat="46.08976" lon="4.64734">
        <ele>288</ele>
        <time>2022-06-25T19:15:19Z</time>
      </trkpt>
      <trkpt lat="46.08978" lon="4.64737">
        <ele>288.4</ele>
        <time>2022-06-25T19:15:20Z</time>
      </trkpt>
      <trkpt lat="46.0898" lon="4.64741">
        <ele>288.4</ele>
        <time>2022-06-25T19:15:21Z</time>
      </trkpt>
      <trkpt lat="46.08983" lon="4.64745">
        <ele>288.4</ele>
        <time>2022-06-25T19:15:22Z</time>
      </trkpt>
      <trkpt lat="46.08985" lon="4.64748">
        <ele>288.4</ele>
        <time>2022-06-25T19:15:23Z</time>
      </trkpt>
      <trkpt lat="46.08987" lon="4.64752">
        <ele>288.8</ele>
        <time>2022-06-25T19:15:24Z</time>
      </trkpt>
      <trkpt lat="46.08989" lon="4.64755">
        <ele>288.8</ele>
        <time>2022-06-25T19:15:25Z</time>
      </trkpt>
      <trkpt lat="46.08991" lon="4.64759">
        <ele>288.8</ele>
        <time>2022-06-25T19:15:26Z</time>
      </trkpt>
      <trkpt lat="46.08993" lon="4.64763">
        <ele>288.8</ele>
        <time>2022-06-25T19:15:27Z</time>
      </trkpt>
      <trkpt lat="46.08996" lon="4.64766">
        <ele>288.8</ele>
        <time>2022-06-25T19:15:28Z</time>
      </trkpt>
      <trkpt lat="46.08999" lon="4.64768">
        <ele>288.8</ele>
        <time>2022-06-25T19:15:29Z</time>
      </trkpt>
      <trkpt lat="46.09001" lon="4.64768">
        <ele>288.8</ele>
        <time>2022-06-25T19:15:30Z</time>
      </trkpt>
      <trkpt lat="46.09004" lon="4.64767">
        <ele>288.8</ele>
        <time>2022-06-25T19:15:31Z</time>
      </trkpt>
      <trkpt lat="46.09006" lon="4.64765">
        <ele>289</ele>
        <time>2022-06-25T19:15:32Z</time>
      </trkpt>
      <trkpt lat="46.09008" lon="4.64763">
        <ele>289</ele>
        <time>2022-06-25T19:15:33Z</time>
      </trkpt>
      <trkpt lat="46.09009" lon="4.64761">
        <ele>289.2</ele>
        <time>2022-06-25T19:15:34Z</time>
      </trkpt>
      <trkpt lat="46.0901" lon="4.64758">
        <ele>289.4</ele>
        <time>2022-06-25T19:15:35Z</time>
      </trkpt>
      <trkpt lat="46.09011" lon="4.64756">
        <ele>289.4</ele>
        <time>2022-06-25T19:15:36Z</time>
      </trkpt>
      <trkpt lat="46.09012" lon="4.64754">
        <ele>289.4</ele>
        <time>2022-06-25T19:15:37Z</time>
      </trkpt>
      <trkpt lat="46.09013" lon="4.64751">
        <ele>289.6</ele>
        <time>2022-06-25T19:15:38Z</time>
      </trkpt>
      <trkpt lat="46.09012" lon="4.64749">
        <ele>289.6</ele>
        <time>2022-06-25T19:15:39Z</time>
      </trkpt>
      <trkpt lat="46.09012" lon="4.64747">
        <ele>289.6</ele>
        <time>2022-06-25T19:15:40Z</time>
      </trkpt>
      <trkpt lat="46.09011" lon="4.64745">
        <ele>289.6</ele>
        <time>2022-06-25T19:15:41Z</time>
      </trkpt>
      <trkpt lat="46.0901" lon="4.64744">
        <ele>289.8</ele>
        <time>2022-06-25T19:15:42Z</time>
      </trkpt>
      <trkpt lat="46.0901" lon="4.64743">
        <ele>289.8</ele>
        <time>2022-06-25T19:15:43Z</time>
      </trkpt>
      <trkpt lat="46.0901" lon="4.64742">
        <ele>289.8</ele>
        <time>2022-06-25T19:15:44Z</time>
      </trkpt>
      <trkpt lat="46.0901" lon="4.64742">
        <ele>289.6</ele>
        <time>2022-06-25T19:16:05Z</time>
      </trkpt>
      <trkpt lat="46.0901" lon="4.64742">
        <ele>289.6</ele>
        <time>2022-06-25T19:16:44Z</time>
      </trkpt>
      <trkpt lat="46.09009" lon="4.64747">
        <ele>289.6</ele>
        <time>2022-06-25T19:16:48Z</time>
      </trkpt>
      <trkpt lat="46.09009" lon="4.6475">
        <ele>289.6</ele>
        <time>2022-06-25T19:16:49Z</time>
      </trkpt>
      <trkpt lat="46.09008" lon="4.64753">
        <ele>289.6</ele>
        <time>2022-06-25T19:16:50Z</time>
      </trkpt>
      <trkpt lat="46.09007" lon="4.64757">
        <ele>289.6</ele>
        <time>2022-06-25T19:16:51Z</time>
      </trkpt>
      <trkpt lat="46.09005" lon="4.64759">
        <ele>289.4</ele>
        <time>2022-06-25T19:16:52Z</time>
      </trkpt>
      <trkpt lat="46.09004" lon="4.64762">
        <ele>289.4</ele>
        <time>2022-06-25T19:16:53Z</time>
      </trkpt>
      <trkpt lat="46.09002" lon="4.64764">
        <ele>289.2</ele>
        <time>2022-06-25T19:16:54Z</time>
      </trkpt>
      <trkpt lat="46.09001" lon="4.64765">
        <ele>289.2</ele>
        <time>2022-06-25T19:16:55Z</time>
      </trkpt>
      <trkpt lat="46.08999" lon="4.64766">
        <ele>289.2</ele>
        <time>2022-06-25T19:16:56Z</time>
      </trkpt>
      <trkpt lat="46.08997" lon="4.64765">
        <ele>289</ele>
        <time>2022-06-25T19:16:57Z</time>
      </trkpt>
      <trkpt lat="46.08995" lon="4.64763">
        <ele>289</ele>
        <time>2022-06-25T19:16:58Z</time>
      </trkpt>
      <trkpt lat="46.08994" lon="4.6476">
        <ele>289</ele>
        <time>2022-06-25T19:16:59Z</time>
      </trkpt>
      <trkpt lat="46.08992" lon="4.64757">
        <ele>289</ele>
        <time>2022-06-25T19:17:00Z</time>
      </trkpt>
      <trkpt lat="46.08991" lon="4.64753">
        <ele>289</ele>
        <time>2022-06-25T19:17:01Z</time>
      </trkpt>
      <trkpt lat="46.08989" lon="4.6475">
        <ele>289</ele>
        <time>2022-06-25T19:17:02Z</time>
      </trkpt>
      <trkpt lat="46.08987" lon="4.64746">
        <ele>289</ele>
        <time>2022-06-25T19:17:03Z</time>
      </trkpt>
      <trkpt lat="46.08985" lon="4.64742">
        <ele>289</ele>
        <time>2022-06-25T19:17:04Z</time>
      </trkpt>
      <trkpt lat="46.08982" lon="4.64738">
        <ele>289</ele>
        <time>2022-06-25T19:17:05Z</time>
      </trkpt>
      <trkpt lat="46.0898" lon="4.64734">
        <ele>289</ele>
        <time>2022-06-25T19:17:06Z</time>
      </trkpt>
      <trkpt lat="46.08978" lon="4.6473">
        <ele>289</ele>
        <time>2022-06-25T19:17:07Z</time>
      </trkpt>
      <trkpt lat="46.08976" lon="4.64727">
        <ele>289</ele>
        <time>2022-06-25T19:17:08Z</time>
      </trkpt>
      <trkpt lat="46.08974" lon="4.64724">
        <ele>289</ele>
        <time>2022-06-25T19:17:09Z</time>
      </trkpt>
      <trkpt lat="46.08971" lon="4.64721">
        <ele>288.6</ele>
        <time>2022-06-25T19:17:10Z</time>
      </trkpt>
      <trkpt lat="46.08968" lon="4.64719">
        <ele>288.6</ele>
        <time>2022-06-25T19:17:11Z</time>
      </trkpt>
      <trkpt lat="46.08965" lon="4.64719">
        <ele>288.6</ele>
        <time>2022-06-25T19:17:12Z</time>
      </trkpt>
      <trkpt lat="46.08962" lon="4.64722">
        <ele>288.4</ele>
        <time>2022-06-25T19:17:13Z</time>
      </trkpt>
      <trkpt lat="46.0896" lon="4.64726">
        <ele>288.2</ele>
        <time>2022-06-25T19:17:14Z</time>
      </trkpt>
      <trkpt lat="46.08957" lon="4.64731">
        <ele>288.2</ele>
        <time>2022-06-25T19:17:15Z</time>
      </trkpt>
      <trkpt lat="46.08955" lon="4.64738">
        <ele>288.2</ele>
        <time>2022-06-25T19:17:16Z</time>
      </trkpt>
      <trkpt lat="46.08954" lon="4.64744">
        <ele>287.8</ele>
        <time>2022-06-25T19:17:17Z</time>
      </trkpt>
      <trkpt lat="46.08952" lon="4.6475">
        <ele>287.6</ele>
        <time>2022-06-25T19:17:18Z</time>
      </trkpt>
      <trkpt lat="46.08948" lon="4.64762">
        <ele>287.6</ele>
        <time>2022-06-25T19:17:19Z</time>
      </trkpt>
      <trkpt lat="46.08947" lon="4.64765">
        <ele>287.4</ele>
        <time>2022-06-25T19:17:20Z</time>
      </trkpt>
      <trkpt lat="46.08946" lon="4.64768">
        <ele>287.4</ele>
        <time>2022-06-25T19:17:21Z</time>
      </trkpt>
      <trkpt lat="46.08945" lon="4.64774">
        <ele>287</ele>
        <time>2022-06-25T19:17:22Z</time>
      </trkpt>
      <trkpt lat="46.08944" lon="4.6478">
        <ele>286.8</ele>
        <time>2022-06-25T19:17:23Z</time>
      </trkpt>
      <trkpt lat="46.08942" lon="4.64785">
        <ele>286.8</ele>
        <time>2022-06-25T19:17:24Z</time>
      </trkpt>
      <trkpt lat="46.08941" lon="4.6479">
        <ele>286.2</ele>
        <time>2022-06-25T19:17:25Z</time>
      </trkpt>
      <trkpt lat="46.08939" lon="4.64794">
        <ele>286</ele>
        <time>2022-06-25T19:17:26Z</time>
      </trkpt>
      <trkpt lat="46.08938" lon="4.64798">
        <ele>285.8</ele>
        <time>2022-06-25T19:17:27Z</time>
      </trkpt>
      <trkpt lat="46.08936" lon="4.648">
        <ele>285.8</ele>
        <time>2022-06-25T19:17:28Z</time>
      </trkpt>
      <trkpt lat="46.08935" lon="4.64801">
        <ele>285.6</ele>
        <time>2022-06-25T19:17:29Z</time>
      </trkpt>
      <trkpt lat="46.08932" lon="4.64802">
        <ele>285.6</ele>
        <time>2022-06-25T19:17:30Z</time>
      </trkpt>
      <trkpt lat="46.0893" lon="4.64802">
        <ele>285.6</ele>
        <time>2022-06-25T19:17:31Z</time>
      </trkpt>
      <trkpt lat="46.08927" lon="4.64801">
        <ele>285</ele>
        <time>2022-06-25T19:17:32Z</time>
      </trkpt>
      <trkpt lat="46.08925" lon="4.64799">
        <ele>285</ele>
        <time>2022-06-25T19:17:33Z</time>
      </trkpt>
      <trkpt lat="46.08922" lon="4.64798">
        <ele>284.8</ele>
        <time>2022-06-25T19:17:34Z</time>
      </trkpt>
      <trkpt lat="46.0892" lon="4.64796">
        <ele>284.8</ele>
        <time>2022-06-25T19:17:35Z</time>
      </trkpt>
      <trkpt lat="46.08918" lon="4.64794">
        <ele>284.6</ele>
        <time>2022-06-25T19:17:36Z</time>
      </trkpt>
      <trkpt lat="46.08915" lon="4.64793">
        <ele>284.6</ele>
        <time>2022-06-25T19:17:37Z</time>
      </trkpt>
      <trkpt lat="46.08914" lon="4.64791">
        <ele>284.2</ele>
        <time>2022-06-25T19:17:38Z</time>
      </trkpt>
      <trkpt lat="46.08912" lon="4.64789">
        <ele>284.2</ele>
        <time>2022-06-25T19:17:39Z</time>
      </trkpt>
      <trkpt lat="46.0891" lon="4.64787">
        <ele>284.2</ele>
        <time>2022-06-25T19:17:40Z</time>
      </trkpt>
      <trkpt lat="46.08909" lon="4.64785">
        <ele>284.2</ele>
        <time>2022-06-25T19:17:41Z</time>
      </trkpt>
      <trkpt lat="46.08908" lon="4.64784">
        <ele>284</ele>
        <time>2022-06-25T19:17:42Z</time>
      </trkpt>
      <trkpt lat="46.08906" lon="4.64784">
        <ele>284</ele>
        <time>2022-06-25T19:17:43Z</time>
      </trkpt>
      <trkpt lat="46.08905" lon="4.64785">
        <ele>283.8</ele>
        <time>2022-06-25T19:17:45Z</time>
      </trkpt>
      <trkpt lat="46.08904" lon="4.64786">
        <ele>283.8</ele>
        <time>2022-06-25T19:17:46Z</time>
      </trkpt>
      <trkpt lat="46.08902" lon="4.64785">
        <ele>283.4</ele>
        <time>2022-06-25T19:17:47Z</time>
      </trkpt>
      <trkpt lat="46.089" lon="4.64785">
        <ele>283.2</ele>
        <time>2022-06-25T19:17:48Z</time>
      </trkpt>
      <trkpt lat="46.08898" lon="4.64784">
        <ele>283.2</ele>
        <time>2022-06-25T19:17:49Z</time>
      </trkpt>
      <trkpt lat="46.08895" lon="4.64782">
        <ele>283.2</ele>
        <time>2022-06-25T19:17:50Z</time>
      </trkpt>
      <trkpt lat="46.08893" lon="4.64779">
        <ele>283.2</ele>
        <time>2022-06-25T19:17:51Z</time>
      </trkpt>
      <trkpt lat="46.08891" lon="4.64776">
        <ele>283.2</ele>
        <time>2022-06-25T19:17:52Z</time>
      </trkpt>
      <trkpt lat="46.0889" lon="4.64772">
        <ele>283.2</ele>
        <time>2022-06-25T19:17:53Z</time>
      </trkpt>
      <trkpt lat="46.08889" lon="4.64768">
        <ele>283.2</ele>
        <time>2022-06-25T19:17:54Z</time>
      </trkpt>
      <trkpt lat="46.08888" lon="4.64764">
        <ele>283.2</ele>
        <time>2022-06-25T19:17:55Z</time>
      </trkpt>
      <trkpt lat="46.08888" lon="4.6476">
        <ele>283.2</ele>
        <time>2022-06-25T19:17:56Z</time>
      </trkpt>
      <trkpt lat="46.08887" lon="4.64756">
        <ele>283.2</ele>
        <time>2022-06-25T19:17:57Z</time>
      </trkpt>
      <trkpt lat="46.08887" lon="4.64752">
        <ele>283.2</ele>
        <time>2022-06-25T19:17:58Z</time>
      </trkpt>
      <trkpt lat="46.08887" lon="4.64749">
        <ele>283.2</ele>
        <time>2022-06-25T19:17:59Z</time>
      </trkpt>
      <trkpt lat="46.08887" lon="4.64746">
        <ele>283.2</ele>
        <time>2022-06-25T19:18:00Z</time>
      </trkpt>
      <trkpt lat="46.08887" lon="4.64743">
        <ele>283.2</ele>
        <time>2022-06-25T19:18:01Z</time>
      </trkpt>
      <trkpt lat="46.08887" lon="4.64743">
        <ele>283.2</ele>
        <time>2022-06-25T19:18:03Z</time>
      </trkpt>
      <trkpt lat="46.08887" lon="4.64742">
        <ele>283.2</ele>
        <time>2022-06-25T19:18:04Z</time>
      </trkpt>
      <trkpt lat="46.08887" lon="4.64742">
        <ele>283.2</ele>
        <time>2022-06-25T19:18:06Z</time>
      </trkpt>
      <trkpt lat="46.08887" lon="4.64742">
        <ele>283.2</ele>
        <time>2022-06-25T19:18:09Z</time>
      </trkpt>
      <trkpt lat="46.08887" lon="4.64741">
        <ele>283.2</ele>
        <time>2022-06-25T19:18:10Z</time>
      </trkpt>
      <trkpt lat="46.08887" lon="4.64741">
        <ele>283.2</ele>
        <time>2022-06-25T19:18:12Z</time>
      </trkpt>
      <trkpt lat="46.08887" lon="4.64741">
        <ele>283.2</ele>
        <time>2022-06-25T19:18:14Z</time>
      </trkpt>
      <trkpt lat="46.08887" lon="4.6474">
        <ele>283.2</ele>
        <time>2022-06-25T19:18:16Z</time>
      </trkpt>
      <trkpt lat="46.08887" lon="4.6474">
        <ele>283.2</ele>
        <time>2022-06-25T19:18:17Z</time>
      </trkpt>
      <trkpt lat="46.08887" lon="4.6474">
        <ele>283.2</ele>
        <time>2022-06-25T19:18:19Z</time>
      </trkpt>
      <trkpt lat="46.08887" lon="4.6474">
        <ele>283.2</ele>
        <time>2022-06-25T19:18:21Z</time>
      </trkpt>
      <trkpt lat="46.08887" lon="4.64739">
        <ele>283.2</ele>
        <time>2022-06-25T19:18:22Z</time>
      </trkpt>
      <trkpt lat="46.08887" lon="4.64739">
        <ele>283.2</ele>
        <time>2022-06-25T19:18:24Z</time>
      </trkpt>
      <trkpt lat="46.08887" lon="4.64739">
        <ele>283.2</ele>
        <time>2022-06-25T19:18:26Z</time>
      </trkpt>
      <trkpt lat="46.08887" lon="4.64738">
        <ele>283.2</ele>
        <time>2022-06-25T19:18:27Z</time>
      </trkpt>
      <trkpt lat="46.08887" lon="4.64738">
        <ele>283.2</ele>
        <time>2022-06-25T19:18:29Z</time>
      </trkpt>
      <trkpt lat="46.08887" lon="4.64738">
        <ele>283.2</ele>
        <time>2022-06-25T19:18:31Z</time>
      </trkpt>
      <trkpt lat="46.08887" lon="4.64737">
        <ele>283.2</ele>
        <time>2022-06-25T19:18:33Z</time>
      </trkpt>
      <trkpt lat="46.08887" lon="4.64737">
        <ele>283.2</ele>
        <time>2022-06-25T19:18:34Z</time>
      </trkpt>
      <trkpt lat="46.08887" lon="4.64737">
        <ele>283.2</ele>
        <time>2022-06-25T19:18:36Z</time>
      </trkpt>
      <trkpt lat="46.08887" lon="4.64737">
        <ele>283.2</ele>
        <time>2022-06-25T19:18:39Z</time>
      </trkpt>
      <trkpt lat="46.08887" lon="4.64736">
        <ele>283.2</ele>
        <time>2022-06-25T19:18:40Z</time>
      </trkpt>
      <trkpt lat="46.08887" lon="4.64736">
        <ele>283.2</ele>
        <time>2022-06-25T19:18:42Z</time>
      </trkpt>
      <trkpt lat="46.08887" lon="4.64736">
        <ele>283.2</ele>
        <time>2022-06-25T19:18:44Z</time>
      </trkpt>
      <trkpt lat="46.08887" lon="4.64735">
        <ele>283.2</ele>
        <time>2022-06-25T19:18:47Z</time>
      </trkpt>
      <trkpt lat="46.08887" lon="4.64735">
        <ele>283.2</ele>
        <time>2022-06-25T19:18:48Z</time>
      </trkpt>
      <trkpt lat="46.08887" lon="4.64735">
        <ele>283.2</ele>
        <time>2022-06-25T19:18:50Z</time>
      </trkpt>
      <trkpt lat="46.08887" lon="4.64734">
        <ele>283.2</ele>
        <time>2022-06-25T19:18:52Z</time>
      </trkpt>
      <trkpt lat="46.08887" lon="4.64734">
        <ele>283.2</ele>
        <time>2022-06-25T19:18:53Z</time>
      </trkpt>
      <trkpt lat="46.08887" lon="4.64734">
        <ele>283.2</ele>
        <time>2022-06-25T19:18:55Z</time>
      </trkpt>
      <trkpt lat="46.08887" lon="4.64734">
        <ele>283.2</ele>
        <time>2022-06-25T19:18:57Z</time>
      </trkpt>
      <trkpt lat="46.08887" lon="4.64733">
        <ele>283.2</ele>
        <time>2022-06-25T19:18:58Z</time>
      </trkpt>
      <trkpt lat="46.08887" lon="4.64733">
        <ele>283.2</ele>
        <time>2022-06-25T19:19:01Z</time>
      </trkpt>
      <trkpt lat="46.08887" lon="4.64733">
        <ele>283.2</ele>
        <time>2022-06-25T19:19:03Z</time>
      </trkpt>
      <trkpt lat="46.08887" lon="4.64732">
        <ele>283</ele>
        <time>2022-06-25T19:19:05Z</time>
      </trkpt>
      <trkpt lat="46.08887" lon="4.64732">
        <ele>283</ele>
        <time>2022-06-25T19:19:06Z</time>
      </trkpt>
      <trkpt lat="46.08887" lon="4.64732">
        <ele>283</ele>
        <time>2022-06-25T19:19:08Z</time>
      </trkpt>
      <trkpt lat="46.08887" lon="4.64731">
        <ele>283</ele>
        <time>2022-06-25T19:19:10Z</time>
      </trkpt>
      <trkpt lat="46.08887" lon="4.64731">
        <ele>283</ele>
        <time>2022-06-25T19:19:11Z</time>
      </trkpt>
      <trkpt lat="46.08887" lon="4.64731">
        <ele>282.8</ele>
        <time>2022-06-25T19:19:13Z</time>
      </trkpt>
      <trkpt lat="46.08887" lon="4.64731">
        <ele>282.8</ele>
        <time>2022-06-25T19:19:15Z</time>
      </trkpt>
      <trkpt lat="46.08887" lon="4.6473">
        <ele>282.8</ele>
        <time>2022-06-25T19:19:16Z</time>
      </trkpt>
      <trkpt lat="46.08887" lon="4.6473">
        <ele>282.8</ele>
        <time>2022-06-25T19:19:20Z</time>
      </trkpt>
      <trkpt lat="46.08887" lon="4.6473">
        <ele>282.6</ele>
        <time>2022-06-25T19:19:24Z</time>
      </trkpt>
      <trkpt lat="46.08887" lon="4.64729">
        <ele>282.6</ele>
        <time>2022-06-25T19:19:26Z</time>
      </trkpt>
      <trkpt lat="46.08887" lon="4.64729">
        <ele>282.6</ele>
        <time>2022-06-25T19:19:27Z</time>
      </trkpt>
      <trkpt lat="46.08887" lon="4.64729">
        <ele>282.6</ele>
        <time>2022-06-25T19:19:29Z</time>
      </trkpt>
      <trkpt lat="46.08887" lon="4.64729">
        <ele>282.6</ele>
        <time>2022-06-25T19:19:31Z</time>
      </trkpt>
      <trkpt lat="46.08887" lon="4.64728">
        <ele>282.6</ele>
        <time>2022-06-25T19:19:32Z</time>
      </trkpt>
      <trkpt lat="46.08887" lon="4.64728">
        <ele>282.6</ele>
        <time>2022-06-25T19:19:34Z</time>
      </trkpt>
      <trkpt lat="46.08887" lon="4.64728">
        <ele>282.6</ele>
        <time>2022-06-25T19:19:36Z</time>
      </trkpt>
      <trkpt lat="46.08887" lon="4.64727">
        <ele>282.6</ele>
        <time>2022-06-25T19:19:39Z</time>
      </trkpt>
      <trkpt lat="46.08887" lon="4.64727">
        <ele>282.6</ele>
        <time>2022-06-25T19:19:41Z</time>
      </trkpt>
      <trkpt lat="46.08887" lon="4.64727">
        <ele>282.2</ele>
        <time>2022-06-25T19:19:43Z</time>
      </trkpt>
      <trkpt lat="46.08887" lon="4.64726">
        <ele>282.2</ele>
        <time>2022-06-25T19:19:49Z</time>
      </trkpt>
      <trkpt lat="46.08887" lon="4.64726">
        <ele>282</ele>
        <time>2022-06-25T19:19:53Z</time>
      </trkpt>
      <trkpt lat="46.08887" lon="4.64726">
        <ele>282</ele>
        <time>2022-06-25T19:19:55Z</time>
      </trkpt>
      <trkpt lat="46.08887" lon="4.64726">
        <ele>282</ele>
        <time>2022-06-25T19:20:03Z</time>
      </trkpt>
      <trkpt lat="46.08887" lon="4.64725">
        <ele>281.8</ele>
        <time>2022-06-25T19:20:11Z</time>
      </trkpt>
      <trkpt lat="46.08887" lon="4.64725">
        <ele>281.6</ele>
        <time>2022-06-25T19:20:15Z</time>
      </trkpt>
      <trkpt lat="46.08887" lon="4.64725">
        <ele>280.8</ele>
        <time>2022-06-25T19:21:16Z</time>
      </trkpt>
      <trkpt lat="46.08887" lon="4.64724">
        <ele>280.8</ele>
        <time>2022-06-25T19:21:17Z</time>
      </trkpt>
      <trkpt lat="46.08887" lon="4.64724">
        <ele>280.8</ele>
        <time>2022-06-25T19:21:20Z</time>
      </trkpt>
      <trkpt lat="46.08887" lon="4.64724">
        <ele>280.8</ele>
        <time>2022-06-25T19:21:22Z</time>
      </trkpt>
      <trkpt lat="46.08887" lon="4.64723">
        <ele>280.8</ele>
        <time>2022-06-25T19:21:24Z</time>
      </trkpt>
      <trkpt lat="46.08887" lon="4.64723">
        <ele>280.8</ele>
        <time>2022-06-25T19:21:25Z</time>
      </trkpt>
      <trkpt lat="46.08887" lon="4.64723">
        <ele>280.8</ele>
        <time>2022-06-25T19:21:27Z</time>
      </trkpt>
      <trkpt lat="46.08887" lon="4.64723">
        <ele>280.4</ele>
        <time>2022-06-25T19:21:29Z</time>
      </trkpt>
      <trkpt lat="46.08887" lon="4.64722">
        <ele>280.4</ele>
        <time>2022-06-25T19:21:30Z</time>
      </trkpt>
      <trkpt lat="46.08887" lon="4.64722">
        <ele>280.6</ele>
        <time>2022-06-25T19:21:33Z</time>
      </trkpt>
      <trkpt lat="46.08887" lon="4.64722">
        <ele>281.6</ele>
        <time>2022-06-25T19:21:38Z</time>
      </trkpt>
      <trkpt lat="46.08887" lon="4.64721">
        <ele>281.6</ele>
        <time>2022-06-25T19:21:40Z</time>
      </trkpt>
      <trkpt lat="46.08887" lon="4.64721">
        <ele>281.8</ele>
        <time>2022-06-25T19:21:41Z</time>
      </trkpt>
      <trkpt lat="46.08887" lon="4.64721">
        <ele>282.2</ele>
        <time>2022-06-25T19:21:43Z</time>
      </trkpt>
      <trkpt lat="46.08887" lon="4.6472">
        <ele>282.4</ele>
        <time>2022-06-25T19:21:46Z</time>
      </trkpt>
      <trkpt lat="46.08887" lon="4.6472">
        <ele>282.4</ele>
        <time>2022-06-25T19:21:47Z</time>
      </trkpt>
      <trkpt lat="46.08887" lon="4.6472">
        <ele>282.4</ele>
        <time>2022-06-25T19:21:49Z</time>
      </trkpt>
      <trkpt lat="46.08887" lon="4.6472">
        <ele>282.4</ele>
        <time>2022-06-25T19:22:13Z</time>
      </trkpt>
      <trkpt lat="46.08887" lon="4.64719">
        <ele>282.4</ele>
        <time>2022-06-25T19:22:14Z</time>
      </trkpt>
      <trkpt lat="46.08887" lon="4.64719">
        <ele>282.4</ele>
        <time>2022-06-25T19:22:17Z</time>
      </trkpt>
      <trkpt lat="46.08887" lon="4.64719">
        <ele>282.4</ele>
        <time>2022-06-25T19:22:19Z</time>
      </trkpt>
      <trkpt lat="46.08888" lon="4.64716">
        <ele>282.4</ele>
        <time>2022-06-25T19:22:21Z</time>
      </trkpt>
      <trkpt lat="46.08889" lon="4.64714">
        <ele>282.4</ele>
        <time>2022-06-25T19:22:22Z</time>
      </trkpt>
      <trkpt lat="46.08891" lon="4.64713">
        <ele>282.4</ele>
        <time>2022-06-25T19:22:23Z</time>
      </trkpt>
      <trkpt lat="46.08893" lon="4.6471">
        <ele>282.4</ele>
        <time>2022-06-25T19:22:24Z</time>
      </trkpt>
      <trkpt lat="46.08894" lon="4.64707">
        <ele>282.4</ele>
        <time>2022-06-25T19:22:25Z</time>
      </trkpt>
      <trkpt lat="46.08895" lon="4.64704">
        <ele>282.4</ele>
        <time>2022-06-25T19:22:26Z</time>
      </trkpt>
      <trkpt lat="46.08896" lon="4.64701">
        <ele>282.4</ele>
        <time>2022-06-25T19:22:27Z</time>
      </trkpt>
      <trkpt lat="46.08896" lon="4.64697">
        <ele>282.8</ele>
        <time>2022-06-25T19:22:28Z</time>
      </trkpt>
      <trkpt lat="46.08897" lon="4.64694">
        <ele>282.8</ele>
        <time>2022-06-25T19:22:29Z</time>
      </trkpt>
      <trkpt lat="46.08897" lon="4.6469">
        <ele>282.8</ele>
        <time>2022-06-25T19:22:30Z</time>
      </trkpt>
      <trkpt lat="46.08898" lon="4.64687">
        <ele>282.8</ele>
        <time>2022-06-25T19:22:31Z</time>
      </trkpt>
      <trkpt lat="46.08898" lon="4.64685">
        <ele>283</ele>
        <time>2022-06-25T19:22:32Z</time>
      </trkpt>
      <trkpt lat="46.08898" lon="4.64683">
        <ele>283</ele>
        <time>2022-06-25T19:22:33Z</time>
      </trkpt>
      <trkpt lat="46.08898" lon="4.6468">
        <ele>283</ele>
        <time>2022-06-25T19:22:34Z</time>
      </trkpt>
      <trkpt lat="46.08897" lon="4.64678">
        <ele>283</ele>
        <time>2022-06-25T19:22:35Z</time>
      </trkpt>
      <trkpt lat="46.08896" lon="4.64676">
        <ele>283</ele>
        <time>2022-06-25T19:22:36Z</time>
      </trkpt>
      <trkpt lat="46.08893" lon="4.64675">
        <ele>283</ele>
        <time>2022-06-25T19:22:37Z</time>
      </trkpt>
      <trkpt lat="46.08891" lon="4.64674">
        <ele>283</ele>
        <time>2022-06-25T19:22:38Z</time>
      </trkpt>
      <trkpt lat="46.08887" lon="4.64673">
        <ele>283</ele>
        <time>2022-06-25T19:22:39Z</time>
      </trkpt>
      <trkpt lat="46.08884" lon="4.64672">
        <ele>283</ele>
        <time>2022-06-25T19:22:40Z</time>
      </trkpt>
      <trkpt lat="46.08879" lon="4.64671">
        <ele>283</ele>
        <time>2022-06-25T19:22:41Z</time>
      </trkpt>
      <trkpt lat="46.08875" lon="4.6467">
        <ele>283</ele>
        <time>2022-06-25T19:22:42Z</time>
      </trkpt>
      <trkpt lat="46.0887" lon="4.6467">
        <ele>283</ele>
        <time>2022-06-25T19:22:43Z</time>
      </trkpt>
      <trkpt lat="46.08865" lon="4.64669">
        <ele>283</ele>
        <time>2022-06-25T19:22:44Z</time>
      </trkpt>
      <trkpt lat="46.08861" lon="4.64668">
        <ele>283</ele>
        <time>2022-06-25T19:22:45Z</time>
      </trkpt>
      <trkpt lat="46.08857" lon="4.64668">
        <ele>283</ele>
        <time>2022-06-25T19:22:46Z</time>
      </trkpt>
      <trkpt lat="46.08852" lon="4.64667">
        <ele>283</ele>
        <time>2022-06-25T19:22:47Z</time>
      </trkpt>
      <trkpt lat="46.08848" lon="4.64667">
        <ele>283</ele>
        <time>2022-06-25T19:22:48Z</time>
      </trkpt>
      <trkpt lat="46.08844" lon="4.64667">
        <ele>283</ele>
        <time>2022-06-25T19:22:49Z</time>
      </trkpt>
      <trkpt lat="46.0884" lon="4.64667">
        <ele>283</ele>
        <time>2022-06-25T19:22:50Z</time>
      </trkpt>
      <trkpt lat="46.08836" lon="4.64667">
        <ele>283</ele>
        <time>2022-06-25T19:22:51Z</time>
      </trkpt>
      <trkpt lat="46.08833" lon="4.64668">
        <ele>283</ele>
        <time>2022-06-25T19:22:52Z</time>
      </trkpt>
      <trkpt lat="46.08829" lon="4.64668">
        <ele>283.2</ele>
        <time>2022-06-25T19:22:53Z</time>
      </trkpt>
      <trkpt lat="46.08826" lon="4.64668">
        <ele>283.2</ele>
        <time>2022-06-25T19:22:54Z</time>
      </trkpt>
      <trkpt lat="46.08824" lon="4.64668">
        <ele>283.6</ele>
        <time>2022-06-25T19:22:55Z</time>
      </trkpt>
      <trkpt lat="46.0882" lon="4.64668">
        <ele>283.6</ele>
        <time>2022-06-25T19:22:56Z</time>
      </trkpt>
      <trkpt lat="46.08817" lon="4.64668">
        <ele>283.8</ele>
        <time>2022-06-25T19:22:57Z</time>
      </trkpt>
      <trkpt lat="46.08814" lon="4.64667">
        <ele>283.8</ele>
        <time>2022-06-25T19:22:58Z</time>
      </trkpt>
      <trkpt lat="46.08811" lon="4.64666">
        <ele>284</ele>
        <time>2022-06-25T19:22:59Z</time>
      </trkpt>
      <trkpt lat="46.08808" lon="4.64666">
        <ele>284</ele>
        <time>2022-06-25T19:23:00Z</time>
      </trkpt>
      <trkpt lat="46.08805" lon="4.64665">
        <ele>284.4</ele>
        <time>2022-06-25T19:23:01Z</time>
      </trkpt>
      <trkpt lat="46.08801" lon="4.64665">
        <ele>284.4</ele>
        <time>2022-06-25T19:23:02Z</time>
      </trkpt>
      <trkpt lat="46.08798" lon="4.64664">
        <ele>284.8</ele>
        <time>2022-06-25T19:23:03Z</time>
      </trkpt>
      <trkpt lat="46.08794" lon="4.64664">
        <ele>284.8</ele>
        <time>2022-06-25T19:23:04Z</time>
      </trkpt>
      <trkpt lat="46.08791" lon="4.64664">
        <ele>285</ele>
        <time>2022-06-25T19:23:05Z</time>
      </trkpt>
      <trkpt lat="46.08786" lon="4.64665">
        <ele>285.4</ele>
        <time>2022-06-25T19:23:06Z</time>
      </trkpt>
      <trkpt lat="46.08782" lon="4.64665">
        <ele>285.4</ele>
        <time>2022-06-25T19:23:07Z</time>
      </trkpt>
      <trkpt lat="46.08779" lon="4.64665">
        <ele>285.8</ele>
        <time>2022-06-25T19:23:08Z</time>
      </trkpt>
      <trkpt lat="46.08775" lon="4.64664">
        <ele>285.8</ele>
        <time>2022-06-25T19:23:09Z</time>
      </trkpt>
      <trkpt lat="46.08772" lon="4.64663">
        <ele>286.2</ele>
        <time>2022-06-25T19:23:10Z</time>
      </trkpt>
      <trkpt lat="46.08769" lon="4.64663">
        <ele>286.2</ele>
        <time>2022-06-25T19:23:11Z</time>
      </trkpt>
      <trkpt lat="46.08766" lon="4.64662">
        <ele>286.6</ele>
        <time>2022-06-25T19:23:12Z</time>
      </trkpt>
      <trkpt lat="46.08762" lon="4.64661">
        <ele>286.6</ele>
        <time>2022-06-25T19:23:13Z</time>
      </trkpt>
      <trkpt lat="46.08759" lon="4.64661">
        <ele>286.8</ele>
        <time>2022-06-25T19:23:14Z</time>
      </trkpt>
      <trkpt lat="46.08756" lon="4.6466">
        <ele>286.8</ele>
        <time>2022-06-25T19:23:15Z</time>
      </trkpt>
      <trkpt lat="46.08753" lon="4.6466">
        <ele>287</ele>
        <time>2022-06-25T19:23:16Z</time>
      </trkpt>
      <trkpt lat="46.0875" lon="4.64659">
        <ele>287</ele>
        <time>2022-06-25T19:23:17Z</time>
      </trkpt>
      <trkpt lat="46.08747" lon="4.64658">
        <ele>287.2</ele>
        <time>2022-06-25T19:23:18Z</time>
      </trkpt>
      <trkpt lat="46.08745" lon="4.64656">
        <ele>287.2</ele>
        <time>2022-06-25T19:23:19Z</time>
      </trkpt>
      <trkpt lat="46.08742" lon="4.64655">
        <ele>287.4</ele>
        <time>2022-06-25T19:23:20Z</time>
      </trkpt>
      <trkpt lat="46.08739" lon="4.64654">
        <ele>287.4</ele>
        <time>2022-06-25T19:23:21Z</time>
      </trkpt>
      <trkpt lat="46.08736" lon="4.64654">
        <ele>287.8</ele>
        <time>2022-06-25T19:23:22Z</time>
      </trkpt>
      <trkpt lat="46.08733" lon="4.64652">
        <ele>287.8</ele>
        <time>2022-06-25T19:23:23Z</time>
      </trkpt>
      <trkpt lat="46.0873" lon="4.64651">
        <ele>287.8</ele>
        <time>2022-06-25T19:23:24Z</time>
      </trkpt>
      <trkpt lat="46.08726" lon="4.64649">
        <ele>288</ele>
        <time>2022-06-25T19:23:25Z</time>
      </trkpt>
      <trkpt lat="46.08722" lon="4.64647">
        <ele>288</ele>
        <time>2022-06-25T19:23:26Z</time>
      </trkpt>
      <trkpt lat="46.08718" lon="4.64645">
        <ele>288</ele>
        <time>2022-06-25T19:23:27Z</time>
      </trkpt>
      <trkpt lat="46.08714" lon="4.64642">
        <ele>288</ele>
        <time>2022-06-25T19:23:28Z</time>
      </trkpt>
      <trkpt lat="46.0871" lon="4.6464">
        <ele>288</ele>
        <time>2022-06-25T19:23:29Z</time>
      </trkpt>
      <trkpt lat="46.08706" lon="4.64638">
        <ele>288.4</ele>
        <time>2022-06-25T19:23:30Z</time>
      </trkpt>
      <trkpt lat="46.08702" lon="4.64636">
        <ele>288.4</ele>
        <time>2022-06-25T19:23:31Z</time>
      </trkpt>
      <trkpt lat="46.08697" lon="4.64633">
        <ele>288.4</ele>
        <time>2022-06-25T19:23:32Z</time>
      </trkpt>
      <trkpt lat="46.08693" lon="4.64631">
        <ele>288.4</ele>
        <time>2022-06-25T19:23:33Z</time>
      </trkpt>
      <trkpt lat="46.08688" lon="4.64628">
        <ele>288.4</ele>
        <time>2022-06-25T19:23:34Z</time>
      </trkpt>
      <trkpt lat="46.08684" lon="4.64625">
        <ele>288.4</ele>
        <time>2022-06-25T19:23:35Z</time>
      </trkpt>
      <trkpt lat="46.0868" lon="4.64622">
        <ele>288.4</ele>
        <time>2022-06-25T19:23:36Z</time>
      </trkpt>
      <trkpt lat="46.08675" lon="4.6462">
        <ele>288.4</ele>
        <time>2022-06-25T19:23:37Z</time>
      </trkpt>
      <trkpt lat="46.0867" lon="4.64617">
        <ele>288</ele>
        <time>2022-06-25T19:23:38Z</time>
      </trkpt>
      <trkpt lat="46.08665" lon="4.64615">
        <ele>288</ele>
        <time>2022-06-25T19:23:40Z</time>
      </trkpt>
      <trkpt lat="46.0866" lon="4.64612">
        <ele>288</ele>
        <time>2022-06-25T19:23:41Z</time>
      </trkpt>
      <trkpt lat="46.08655" lon="4.6461">
        <ele>288</ele>
        <time>2022-06-25T19:23:42Z</time>
      </trkpt>
      <trkpt lat="46.0865" lon="4.64607">
        <ele>287.8</ele>
        <time>2022-06-25T19:23:43Z</time>
      </trkpt>
      <trkpt lat="46.08645" lon="4.64604">
        <ele>287.8</ele>
        <time>2022-06-25T19:23:44Z</time>
      </trkpt>
      <trkpt lat="46.0864" lon="4.64601">
        <ele>287.6</ele>
        <time>2022-06-25T19:23:45Z</time>
      </trkpt>
      <trkpt lat="46.08635" lon="4.64598">
        <ele>287.6</ele>
        <time>2022-06-25T19:23:46Z</time>
      </trkpt>
      <trkpt lat="46.0863" lon="4.64596">
        <ele>287.2</ele>
        <time>2022-06-25T19:23:47Z</time>
      </trkpt>
      <trkpt lat="46.08625" lon="4.64593">
        <ele>287.2</ele>
        <time>2022-06-25T19:23:48Z</time>
      </trkpt>
      <trkpt lat="46.0862" lon="4.64589">
        <ele>286.8</ele>
        <time>2022-06-25T19:23:49Z</time>
      </trkpt>
      <trkpt lat="46.08614" lon="4.64586">
        <ele>286.6</ele>
        <time>2022-06-25T19:23:50Z</time>
      </trkpt>
      <trkpt lat="46.08609" lon="4.64583">
        <ele>286.6</ele>
        <time>2022-06-25T19:23:51Z</time>
      </trkpt>
      <trkpt lat="46.08603" lon="4.6458">
        <ele>286.2</ele>
        <time>2022-06-25T19:23:52Z</time>
      </trkpt>
      <trkpt lat="46.08598" lon="4.64577">
        <ele>286.2</ele>
        <time>2022-06-25T19:23:53Z</time>
      </trkpt>
      <trkpt lat="46.08594" lon="4.64575">
        <ele>285.8</ele>
        <time>2022-06-25T19:23:54Z</time>
      </trkpt>
      <trkpt lat="46.08589" lon="4.64572">
        <ele>285.8</ele>
        <time>2022-06-25T19:23:55Z</time>
      </trkpt>
      <trkpt lat="46.08585" lon="4.64569">
        <ele>285.4</ele>
        <time>2022-06-25T19:23:56Z</time>
      </trkpt>
      <trkpt lat="46.08582" lon="4.64566">
        <ele>285.4</ele>
        <time>2022-06-25T19:23:57Z</time>
      </trkpt>
      <trkpt lat="46.08579" lon="4.64561">
        <ele>285</ele>
        <time>2022-06-25T19:23:58Z</time>
      </trkpt>
      <trkpt lat="46.08577" lon="4.64557">
        <ele>285</ele>
        <time>2022-06-25T19:23:59Z</time>
      </trkpt>
      <trkpt lat="46.08576" lon="4.64551">
        <ele>284.8</ele>
        <time>2022-06-25T19:24:00Z</time>
      </trkpt>
      <trkpt lat="46.08576" lon="4.64545">
        <ele>284.8</ele>
        <time>2022-06-25T19:24:01Z</time>
      </trkpt>
      <trkpt lat="46.08576" lon="4.64539">
        <ele>284.8</ele>
        <time>2022-06-25T19:24:02Z</time>
      </trkpt>
      <trkpt lat="46.08577" lon="4.64533">
        <ele>284.8</ele>
        <time>2022-06-25T19:24:03Z</time>
      </trkpt>
      <trkpt lat="46.08579" lon="4.64528">
        <ele>285</ele>
        <time>2022-06-25T19:24:04Z</time>
      </trkpt>
      <trkpt lat="46.08581" lon="4.64523">
        <ele>285</ele>
        <time>2022-06-25T19:24:05Z</time>
      </trkpt>
      <trkpt lat="46.08583" lon="4.64518">
        <ele>285.4</ele>
        <time>2022-06-25T19:24:06Z</time>
      </trkpt>
      <trkpt lat="46.08585" lon="4.64512">
        <ele>285.4</ele>
        <time>2022-06-25T19:24:07Z</time>
      </trkpt>
      <trkpt lat="46.08587" lon="4.64507">
        <ele>285.8</ele>
        <time>2022-06-25T19:24:08Z</time>
      </trkpt>
      <trkpt lat="46.08588" lon="4.64502">
        <ele>286</ele>
        <time>2022-06-25T19:24:09Z</time>
      </trkpt>
      <trkpt lat="46.08591" lon="4.64496">
        <ele>286.2</ele>
        <time>2022-06-25T19:24:10Z</time>
      </trkpt>
      <trkpt lat="46.08593" lon="4.64491">
        <ele>286.2</ele>
        <time>2022-06-25T19:24:11Z</time>
      </trkpt>
      <trkpt lat="46.08595" lon="4.64486">
        <ele>286.6</ele>
        <time>2022-06-25T19:24:12Z</time>
      </trkpt>
      <trkpt lat="46.08596" lon="4.64481">
        <ele>286.8</ele>
        <time>2022-06-25T19:24:13Z</time>
      </trkpt>
      <trkpt lat="46.08598" lon="4.64476">
        <ele>286.8</ele>
        <time>2022-06-25T19:24:14Z</time>
      </trkpt>
      <trkpt lat="46.086" lon="4.6447">
        <ele>287.2</ele>
        <time>2022-06-25T19:24:15Z</time>
      </trkpt>
      <trkpt lat="46.08602" lon="4.64465">
        <ele>287.2</ele>
        <time>2022-06-25T19:24:16Z</time>
      </trkpt>
      <trkpt lat="46.08604" lon="4.6446">
        <ele>287.6</ele>
        <time>2022-06-25T19:24:17Z</time>
      </trkpt>
      <trkpt lat="46.08606" lon="4.64455">
        <ele>287.8</ele>
        <time>2022-06-25T19:24:18Z</time>
      </trkpt>
      <trkpt lat="46.08608" lon="4.6445">
        <ele>287.8</ele>
        <time>2022-06-25T19:24:19Z</time>
      </trkpt>
      <trkpt lat="46.0861" lon="4.64445">
        <ele>288</ele>
        <time>2022-06-25T19:24:20Z</time>
      </trkpt>
      <trkpt lat="46.08612" lon="4.6444">
        <ele>288.4</ele>
        <time>2022-06-25T19:24:21Z</time>
      </trkpt>
      <trkpt lat="46.08614" lon="4.64435">
        <ele>288.6</ele>
        <time>2022-06-25T19:24:22Z</time>
      </trkpt>
      <trkpt lat="46.08616" lon="4.64429">
        <ele>288.6</ele>
        <time>2022-06-25T19:24:23Z</time>
      </trkpt>
      <trkpt lat="46.08618" lon="4.64424">
        <ele>289</ele>
        <time>2022-06-25T19:24:24Z</time>
      </trkpt>
      <trkpt lat="46.0862" lon="4.64419">
        <ele>289.2</ele>
        <time>2022-06-25T19:24:25Z</time>
      </trkpt>
      <trkpt lat="46.08622" lon="4.64414">
        <ele>289.4</ele>
        <time>2022-06-25T19:24:26Z</time>
      </trkpt>
      <trkpt lat="46.08624" lon="4.64409">
        <ele>289.6</ele>
        <time>2022-06-25T19:24:27Z</time>
      </trkpt>
      <trkpt lat="46.08625" lon="4.64404">
        <ele>289.8</ele>
        <time>2022-06-25T19:24:28Z</time>
      </trkpt>
      <trkpt lat="46.08627" lon="4.64399">
        <ele>290.2</ele>
        <time>2022-06-25T19:24:29Z</time>
      </trkpt>
      <trkpt lat="46.08629" lon="4.64394">
        <ele>290.2</ele>
        <time>2022-06-25T19:24:30Z</time>
      </trkpt>
      <trkpt lat="46.08631" lon="4.64389">
        <ele>290.4</ele>
        <time>2022-06-25T19:24:31Z</time>
      </trkpt>
      <trkpt lat="46.08633" lon="4.64384">
        <ele>290.6</ele>
        <time>2022-06-25T19:24:32Z</time>
      </trkpt>
      <trkpt lat="46.08634" lon="4.64379">
        <ele>290.8</ele>
        <time>2022-06-25T19:24:33Z</time>
      </trkpt>
      <trkpt lat="46.08636" lon="4.64374">
        <ele>290.8</ele>
        <time>2022-06-25T19:24:34Z</time>
      </trkpt>
      <trkpt lat="46.08638" lon="4.64369">
        <ele>291.2</ele>
        <time>2022-06-25T19:24:35Z</time>
      </trkpt>
      <trkpt lat="46.0864" lon="4.64365">
        <ele>291.4</ele>
        <time>2022-06-25T19:24:36Z</time>
      </trkpt>
      <trkpt lat="46.08642" lon="4.6436">
        <ele>291.6</ele>
        <time>2022-06-25T19:24:37Z</time>
      </trkpt>
      <trkpt lat="46.08644" lon="4.64355">
        <ele>291.6</ele>
        <time>2022-06-25T19:24:38Z</time>
      </trkpt>
      <trkpt lat="46.08646" lon="4.6435">
        <ele>292</ele>
        <time>2022-06-25T19:24:39Z</time>
      </trkpt>
      <trkpt lat="46.08648" lon="4.64345">
        <ele>292</ele>
        <time>2022-06-25T19:24:40Z</time>
      </trkpt>
      <trkpt lat="46.0865" lon="4.64341">
        <ele>292.2</ele>
        <time>2022-06-25T19:24:41Z</time>
      </trkpt>
      <trkpt lat="46.08652" lon="4.64336">
        <ele>292.2</ele>
        <time>2022-06-25T19:24:42Z</time>
      </trkpt>
      <trkpt lat="46.08654" lon="4.64332">
        <ele>292.6</ele>
        <time>2022-06-25T19:24:43Z</time>
      </trkpt>
      <trkpt lat="46.08656" lon="4.64327">
        <ele>292.6</ele>
        <time>2022-06-25T19:24:44Z</time>
      </trkpt>
      <trkpt lat="46.08657" lon="4.64323">
        <ele>293</ele>
        <time>2022-06-25T19:24:45Z</time>
      </trkpt>
      <trkpt lat="46.08659" lon="4.64319">
        <ele>293</ele>
        <time>2022-06-25T19:24:46Z</time>
      </trkpt>
      <trkpt lat="46.0866" lon="4.64315">
        <ele>293.2</ele>
        <time>2022-06-25T19:24:47Z</time>
      </trkpt>
      <trkpt lat="46.08661" lon="4.64312">
        <ele>293.6</ele>
        <time>2022-06-25T19:24:48Z</time>
      </trkpt>
      <trkpt lat="46.08663" lon="4.64308">
        <ele>293.6</ele>
        <time>2022-06-25T19:24:49Z</time>
      </trkpt>
      <trkpt lat="46.08665" lon="4.64304">
        <ele>293.8</ele>
        <time>2022-06-25T19:24:50Z</time>
      </trkpt>
      <trkpt lat="46.08666" lon="4.64301">
        <ele>293.8</ele>
        <time>2022-06-25T19:24:51Z</time>
      </trkpt>
      <trkpt lat="46.08667" lon="4.64297">
        <ele>294.2</ele>
        <time>2022-06-25T19:24:52Z</time>
      </trkpt>
      <trkpt lat="46.08669" lon="4.64293">
        <ele>294.4</ele>
        <time>2022-06-25T19:24:53Z</time>
      </trkpt>
      <trkpt lat="46.0867" lon="4.6429">
        <ele>294.4</ele>
        <time>2022-06-25T19:24:54Z</time>
      </trkpt>
      <trkpt lat="46.08671" lon="4.64286">
        <ele>294.8</ele>
        <time>2022-06-25T19:24:55Z</time>
      </trkpt>
      <trkpt lat="46.08672" lon="4.64282">
        <ele>294.8</ele>
        <time>2022-06-25T19:24:56Z</time>
      </trkpt>
      <trkpt lat="46.08673" lon="4.64279">
        <ele>295.2</ele>
        <time>2022-06-25T19:24:57Z</time>
      </trkpt>
      <trkpt lat="46.08674" lon="4.64275">
        <ele>295.2</ele>
        <time>2022-06-25T19:24:58Z</time>
      </trkpt>
      <trkpt lat="46.08675" lon="4.64272">
        <ele>295.6</ele>
        <time>2022-06-25T19:24:59Z</time>
      </trkpt>
      <trkpt lat="46.08677" lon="4.64268">
        <ele>295.8</ele>
        <time>2022-06-25T19:25:00Z</time>
      </trkpt>
      <trkpt lat="46.08678" lon="4.64265">
        <ele>296</ele>
        <time>2022-06-25T19:25:01Z</time>
      </trkpt>
      <trkpt lat="46.08679" lon="4.64261">
        <ele>296</ele>
        <time>2022-06-25T19:25:02Z</time>
      </trkpt>
      <trkpt lat="46.0868" lon="4.64258">
        <ele>296.4</ele>
        <time>2022-06-25T19:25:03Z</time>
      </trkpt>
      <trkpt lat="46.08681" lon="4.64255">
        <ele>296.6</ele>
        <time>2022-06-25T19:25:04Z</time>
      </trkpt>
      <trkpt lat="46.08683" lon="4.64252">
        <ele>296.6</ele>
        <time>2022-06-25T19:25:05Z</time>
      </trkpt>
      <trkpt lat="46.08684" lon="4.64249">
        <ele>297</ele>
        <time>2022-06-25T19:25:06Z</time>
      </trkpt>
      <trkpt lat="46.08685" lon="4.64245">
        <ele>297.2</ele>
        <time>2022-06-25T19:25:07Z</time>
      </trkpt>
      <trkpt lat="46.08686" lon="4.64242">
        <ele>297.2</ele>
        <time>2022-06-25T19:25:08Z</time>
      </trkpt>
      <trkpt lat="46.08688" lon="4.64239">
        <ele>297.6</ele>
        <time>2022-06-25T19:25:09Z</time>
      </trkpt>
      <trkpt lat="46.08689" lon="4.64236">
        <ele>297.6</ele>
        <time>2022-06-25T19:25:10Z</time>
      </trkpt>
      <trkpt lat="46.0869" lon="4.64233">
        <ele>298</ele>
        <time>2022-06-25T19:25:11Z</time>
      </trkpt>
      <trkpt lat="46.08691" lon="4.6423">
        <ele>298.2</ele>
        <time>2022-06-25T19:25:12Z</time>
      </trkpt>
      <trkpt lat="46.08693" lon="4.64227">
        <ele>298.4</ele>
        <time>2022-06-25T19:25:13Z</time>
      </trkpt>
      <trkpt lat="46.08694" lon="4.64224">
        <ele>298.4</ele>
        <time>2022-06-25T19:25:14Z</time>
      </trkpt>
      <trkpt lat="46.08695" lon="4.6422">
        <ele>298.6</ele>
        <time>2022-06-25T19:25:15Z</time>
      </trkpt>
      <trkpt lat="46.08696" lon="4.64217">
        <ele>298.8</ele>
        <time>2022-06-25T19:25:16Z</time>
      </trkpt>
      <trkpt lat="46.08698" lon="4.64214">
        <ele>298.8</ele>
        <time>2022-06-25T19:25:17Z</time>
      </trkpt>
      <trkpt lat="46.08699" lon="4.64211">
        <ele>299.2</ele>
        <time>2022-06-25T19:25:18Z</time>
      </trkpt>
      <trkpt lat="46.087" lon="4.64207">
        <ele>299.2</ele>
        <time>2022-06-25T19:25:19Z</time>
      </trkpt>
      <trkpt lat="46.08701" lon="4.64204">
        <ele>299.4</ele>
        <time>2022-06-25T19:25:20Z</time>
      </trkpt>
      <trkpt lat="46.08703" lon="4.64201">
        <ele>299.4</ele>
        <time>2022-06-25T19:25:21Z</time>
      </trkpt>
      <trkpt lat="46.08704" lon="4.64197">
        <ele>299.8</ele>
        <time>2022-06-25T19:25:22Z</time>
      </trkpt>
      <trkpt lat="46.08705" lon="4.64194">
        <ele>299.8</ele>
        <time>2022-06-25T19:25:23Z</time>
      </trkpt>
      <trkpt lat="46.08706" lon="4.64191">
        <ele>300.2</ele>
        <time>2022-06-25T19:25:24Z</time>
      </trkpt>
      <trkpt lat="46.08708" lon="4.64188">
        <ele>300.2</ele>
        <time>2022-06-25T19:25:25Z</time>
      </trkpt>
      <trkpt lat="46.08709" lon="4.64184">
        <ele>300.6</ele>
        <time>2022-06-25T19:25:26Z</time>
      </trkpt>
      <trkpt lat="46.0871" lon="4.64181">
        <ele>300.6</ele>
        <time>2022-06-25T19:25:27Z</time>
      </trkpt>
      <trkpt lat="46.08712" lon="4.64177">
        <ele>300.8</ele>
        <time>2022-06-25T19:25:28Z</time>
      </trkpt>
      <trkpt lat="46.08713" lon="4.64174">
        <ele>300.8</ele>
        <time>2022-06-25T19:25:29Z</time>
      </trkpt>
      <trkpt lat="46.08715" lon="4.64171">
        <ele>301</ele>
        <time>2022-06-25T19:25:30Z</time>
      </trkpt>
      <trkpt lat="46.08716" lon="4.64167">
        <ele>301</ele>
        <time>2022-06-25T19:25:31Z</time>
      </trkpt>
      <trkpt lat="46.08717" lon="4.64163">
        <ele>301.4</ele>
        <time>2022-06-25T19:25:32Z</time>
      </trkpt>
      <trkpt lat="46.08718" lon="4.6416">
        <ele>301.4</ele>
        <time>2022-06-25T19:25:33Z</time>
      </trkpt>
      <trkpt lat="46.08719" lon="4.64157">
        <ele>301.8</ele>
        <time>2022-06-25T19:25:34Z</time>
      </trkpt>
      <trkpt lat="46.0872" lon="4.64153">
        <ele>301.8</ele>
        <time>2022-06-25T19:25:35Z</time>
      </trkpt>
      <trkpt lat="46.08721" lon="4.6415">
        <ele>302.2</ele>
        <time>2022-06-25T19:25:36Z</time>
      </trkpt>
      <trkpt lat="46.08723" lon="4.64146">
        <ele>302.2</ele>
        <time>2022-06-25T19:25:37Z</time>
      </trkpt>
      <trkpt lat="46.08724" lon="4.64143">
        <ele>302.6</ele>
        <time>2022-06-25T19:25:38Z</time>
      </trkpt>
      <trkpt lat="46.08725" lon="4.64139">
        <ele>302.6</ele>
        <time>2022-06-25T19:25:39Z</time>
      </trkpt>
      <trkpt lat="46.08726" lon="4.64136">
        <ele>303</ele>
        <time>2022-06-25T19:25:40Z</time>
      </trkpt>
      <trkpt lat="46.08727" lon="4.64133">
        <ele>303</ele>
        <time>2022-06-25T19:25:41Z</time>
      </trkpt>
      <trkpt lat="46.08728" lon="4.64129">
        <ele>303.2</ele>
        <time>2022-06-25T19:25:42Z</time>
      </trkpt>
      <trkpt lat="46.08729" lon="4.64126">
        <ele>303.2</ele>
        <time>2022-06-25T19:25:43Z</time>
      </trkpt>
      <trkpt lat="46.08731" lon="4.64122">
        <ele>303.6</ele>
        <time>2022-06-25T19:25:44Z</time>
      </trkpt>
      <trkpt lat="46.08732" lon="4.64119">
        <ele>303.6</ele>
        <time>2022-06-25T19:25:45Z</time>
      </trkpt>
      <trkpt lat="46.08734" lon="4.64116">
        <ele>304</ele>
        <time>2022-06-25T19:25:46Z</time>
      </trkpt>
      <trkpt lat="46.08735" lon="4.64112">
        <ele>304.2</ele>
        <time>2022-06-25T19:25:47Z</time>
      </trkpt>
      <trkpt lat="46.08736" lon="4.64108">
        <ele>304.2</ele>
        <time>2022-06-25T19:25:48Z</time>
      </trkpt>
      <trkpt lat="46.08737" lon="4.64105">
        <ele>304.4</ele>
        <time>2022-06-25T19:25:49Z</time>
      </trkpt>
      <trkpt lat="46.08738" lon="4.64102">
        <ele>304.4</ele>
        <time>2022-06-25T19:25:50Z</time>
      </trkpt>
      <trkpt lat="46.0874" lon="4.64099">
        <ele>304.8</ele>
        <time>2022-06-25T19:25:51Z</time>
      </trkpt>
      <trkpt lat="46.08741" lon="4.64095">
        <ele>305</ele>
        <time>2022-06-25T19:25:52Z</time>
      </trkpt>
      <trkpt lat="46.08743" lon="4.64092">
        <ele>305</ele>
        <time>2022-06-25T19:25:53Z</time>
      </trkpt>
      <trkpt lat="46.08744" lon="4.64089">
        <ele>305.4</ele>
        <time>2022-06-25T19:25:54Z</time>
      </trkpt>
      <trkpt lat="46.08745" lon="4.64085">
        <ele>305.4</ele>
        <time>2022-06-25T19:25:55Z</time>
      </trkpt>
      <trkpt lat="46.08746" lon="4.64082">
        <ele>305.8</ele>
        <time>2022-06-25T19:25:56Z</time>
      </trkpt>
      <trkpt lat="46.08747" lon="4.64078">
        <ele>306</ele>
        <time>2022-06-25T19:25:57Z</time>
      </trkpt>
      <trkpt lat="46.08747" lon="4.64075">
        <ele>306</ele>
        <time>2022-06-25T19:25:58Z</time>
      </trkpt>
      <trkpt lat="46.08747" lon="4.64071">
        <ele>306.4</ele>
        <time>2022-06-25T19:25:59Z</time>
      </trkpt>
      <trkpt lat="46.08746" lon="4.64068">
        <ele>306.6</ele>
        <time>2022-06-25T19:26:00Z</time>
      </trkpt>
      <trkpt lat="46.08746" lon="4.64064">
        <ele>307</ele>
        <time>2022-06-25T19:26:01Z</time>
      </trkpt>
      <trkpt lat="46.08745" lon="4.6406">
        <ele>307.2</ele>
        <time>2022-06-25T19:26:02Z</time>
      </trkpt>
      <trkpt lat="46.08744" lon="4.64057">
        <ele>307.4</ele>
        <time>2022-06-25T19:26:03Z</time>
      </trkpt>
      <trkpt lat="46.08743" lon="4.64053">
        <ele>307.4</ele>
        <time>2022-06-25T19:26:04Z</time>
      </trkpt>
      <trkpt lat="46.08742" lon="4.6405">
        <ele>307.6</ele>
        <time>2022-06-25T19:26:05Z</time>
      </trkpt>
      <trkpt lat="46.0874" lon="4.64046">
        <ele>307.6</ele>
        <time>2022-06-25T19:26:06Z</time>
      </trkpt>
      <trkpt lat="46.08739" lon="4.64043">
        <ele>307.8</ele>
        <time>2022-06-25T19:26:07Z</time>
      </trkpt>
      <trkpt lat="46.08737" lon="4.64039">
        <ele>307.8</ele>
        <time>2022-06-25T19:26:08Z</time>
      </trkpt>
      <trkpt lat="46.08735" lon="4.64035">
        <ele>308.2</ele>
        <time>2022-06-25T19:26:09Z</time>
      </trkpt>
      <trkpt lat="46.08733" lon="4.64032">
        <ele>308.2</ele>
        <time>2022-06-25T19:26:10Z</time>
      </trkpt>
      <trkpt lat="46.08731" lon="4.64029">
        <ele>308.4</ele>
        <time>2022-06-25T19:26:11Z</time>
      </trkpt>
      <trkpt lat="46.08728" lon="4.64027">
        <ele>308.4</ele>
        <time>2022-06-25T19:26:12Z</time>
      </trkpt>
      <trkpt lat="46.08725" lon="4.64025">
        <ele>308.8</ele>
        <time>2022-06-25T19:26:13Z</time>
      </trkpt>
      <trkpt lat="46.08722" lon="4.64023">
        <ele>308.8</ele>
        <time>2022-06-25T19:26:14Z</time>
      </trkpt>
      <trkpt lat="46.08719" lon="4.64022">
        <ele>309</ele>
        <time>2022-06-25T19:26:15Z</time>
      </trkpt>
      <trkpt lat="46.08716" lon="4.64022">
        <ele>309</ele>
        <time>2022-06-25T19:26:16Z</time>
      </trkpt>
      <trkpt lat="46.08713" lon="4.64021">
        <ele>309.2</ele>
        <time>2022-06-25T19:26:17Z</time>
      </trkpt>
      <trkpt lat="46.0871" lon="4.6402">
        <ele>309.2</ele>
        <time>2022-06-25T19:26:18Z</time>
      </trkpt>
      <trkpt lat="46.08708" lon="4.6402">
        <ele>309.6</ele>
        <time>2022-06-25T19:26:19Z</time>
      </trkpt>
      <trkpt lat="46.08705" lon="4.64019">
        <ele>309.6</ele>
        <time>2022-06-25T19:26:20Z</time>
      </trkpt>
      <trkpt lat="46.08702" lon="4.64019">
        <ele>309.8</ele>
        <time>2022-06-25T19:26:21Z</time>
      </trkpt>
      <trkpt lat="46.08699" lon="4.64018">
        <ele>309.8</ele>
        <time>2022-06-25T19:26:22Z</time>
      </trkpt>
      <trkpt lat="46.08696" lon="4.64018">
        <ele>310.2</ele>
        <time>2022-06-25T19:26:23Z</time>
      </trkpt>
      <trkpt lat="46.08694" lon="4.64017">
        <ele>310.2</ele>
        <time>2022-06-25T19:26:24Z</time>
      </trkpt>
      <trkpt lat="46.08691" lon="4.64016">
        <ele>310.4</ele>
        <time>2022-06-25T19:26:25Z</time>
      </trkpt>
      <trkpt lat="46.08688" lon="4.64016">
        <ele>310.4</ele>
        <time>2022-06-25T19:26:26Z</time>
      </trkpt>
      <trkpt lat="46.08685" lon="4.64015">
        <ele>310.8</ele>
        <time>2022-06-25T19:26:27Z</time>
      </trkpt>
      <trkpt lat="46.08682" lon="4.64015">
        <ele>310.8</ele>
        <time>2022-06-25T19:26:28Z</time>
      </trkpt>
      <trkpt lat="46.0868" lon="4.64015">
        <ele>311</ele>
        <time>2022-06-25T19:26:29Z</time>
      </trkpt>
      <trkpt lat="46.08677" lon="4.64014">
        <ele>311</ele>
        <time>2022-06-25T19:26:30Z</time>
      </trkpt>
      <trkpt lat="46.08674" lon="4.64014">
        <ele>311</ele>
        <time>2022-06-25T19:26:31Z</time>
      </trkpt>
      <trkpt lat="46.08671" lon="4.64013">
        <ele>311.4</ele>
        <time>2022-06-25T19:26:32Z</time>
      </trkpt>
      <trkpt lat="46.08668" lon="4.64012">
        <ele>311.4</ele>
        <time>2022-06-25T19:26:33Z</time>
      </trkpt>
      <trkpt lat="46.08666" lon="4.64011">
        <ele>311.8</ele>
        <time>2022-06-25T19:26:34Z</time>
      </trkpt>
      <trkpt lat="46.08663" lon="4.6401">
        <ele>311.8</ele>
        <time>2022-06-25T19:26:35Z</time>
      </trkpt>
      <trkpt lat="46.0866" lon="4.64009">
        <ele>312.2</ele>
        <time>2022-06-25T19:26:36Z</time>
      </trkpt>
      <trkpt lat="46.08658" lon="4.64008">
        <ele>312.4</ele>
        <time>2022-06-25T19:26:37Z</time>
      </trkpt>
      <trkpt lat="46.08655" lon="4.64007">
        <ele>312.6</ele>
        <time>2022-06-25T19:26:38Z</time>
      </trkpt>
      <trkpt lat="46.08652" lon="4.64007">
        <ele>312.6</ele>
        <time>2022-06-25T19:26:39Z</time>
      </trkpt>
      <trkpt lat="46.0865" lon="4.64006">
        <ele>312.8</ele>
        <time>2022-06-25T19:26:40Z</time>
      </trkpt>
      <trkpt lat="46.08647" lon="4.64006">
        <ele>312.8</ele>
        <time>2022-06-25T19:26:41Z</time>
      </trkpt>
      <trkpt lat="46.08644" lon="4.64005">
        <ele>313.2</ele>
        <time>2022-06-25T19:26:42Z</time>
      </trkpt>
      <trkpt lat="46.08642" lon="4.64005">
        <ele>313.2</ele>
        <time>2022-06-25T19:26:43Z</time>
      </trkpt>
      <trkpt lat="46.08639" lon="4.64004">
        <ele>313.6</ele>
        <time>2022-06-25T19:26:44Z</time>
      </trkpt>
      <trkpt lat="46.08637" lon="4.64003">
        <ele>313.8</ele>
        <time>2022-06-25T19:26:45Z</time>
      </trkpt>
      <trkpt lat="46.08634" lon="4.64003">
        <ele>313.8</ele>
        <time>2022-06-25T19:26:46Z</time>
      </trkpt>
      <trkpt lat="46.08631" lon="4.64003">
        <ele>314.2</ele>
        <time>2022-06-25T19:26:47Z</time>
      </trkpt>
      <trkpt lat="46.08629" lon="4.64002">
        <ele>314.2</ele>
        <time>2022-06-25T19:26:48Z</time>
      </trkpt>
      <trkpt lat="46.08626" lon="4.64002">
        <ele>314.6</ele>
        <time>2022-06-25T19:26:49Z</time>
      </trkpt>
      <trkpt lat="46.08624" lon="4.64001">
        <ele>314.6</ele>
        <time>2022-06-25T19:26:50Z</time>
      </trkpt>
      <trkpt lat="46.08621" lon="4.64001">
        <ele>315.2</ele>
        <time>2022-06-25T19:26:51Z</time>
      </trkpt>
      <trkpt lat="46.08618" lon="4.64">
        <ele>315.4</ele>
        <time>2022-06-25T19:26:52Z</time>
      </trkpt>
      <trkpt lat="46.08616" lon="4.64">
        <ele>315.6</ele>
        <time>2022-06-25T19:26:53Z</time>
      </trkpt>
      <trkpt lat="46.08613" lon="4.63999">
        <ele>315.6</ele>
        <time>2022-06-25T19:26:54Z</time>
      </trkpt>
      <trkpt lat="46.0861" lon="4.63999">
        <ele>316</ele>
        <time>2022-06-25T19:26:55Z</time>
      </trkpt>
      <trkpt lat="46.08608" lon="4.63998">
        <ele>316</ele>
        <time>2022-06-25T19:26:56Z</time>
      </trkpt>
      <trkpt lat="46.08605" lon="4.63998">
        <ele>316.4</ele>
        <time>2022-06-25T19:26:57Z</time>
      </trkpt>
      <trkpt lat="46.08603" lon="4.63997">
        <ele>316.6</ele>
        <time>2022-06-25T19:26:58Z</time>
      </trkpt>
      <trkpt lat="46.08601" lon="4.63997">
        <ele>316.6</ele>
        <time>2022-06-25T19:26:59Z</time>
      </trkpt>
      <trkpt lat="46.08598" lon="4.63996">
        <ele>316.8</ele>
        <time>2022-06-25T19:27:00Z</time>
      </trkpt>
      <trkpt lat="46.08596" lon="4.63995">
        <ele>316.8</ele>
        <time>2022-06-25T19:27:01Z</time>
      </trkpt>
      <trkpt lat="46.08593" lon="4.63994">
        <ele>317.2</ele>
        <time>2022-06-25T19:27:02Z</time>
      </trkpt>
      <trkpt lat="46.0859" lon="4.63993">
        <ele>317.2</ele>
        <time>2022-06-25T19:27:03Z</time>
      </trkpt>
      <trkpt lat="46.08588" lon="4.63992">
        <ele>317.4</ele>
        <time>2022-06-25T19:27:04Z</time>
      </trkpt>
      <trkpt lat="46.08585" lon="4.63991">
        <ele>317.4</ele>
        <time>2022-06-25T19:27:05Z</time>
      </trkpt>
      <trkpt lat="46.08582" lon="4.63991">
        <ele>317.8</ele>
        <time>2022-06-25T19:27:06Z</time>
      </trkpt>
      <trkpt lat="46.0858" lon="4.6399">
        <ele>317.8</ele>
        <time>2022-06-25T19:27:07Z</time>
      </trkpt>
      <trkpt lat="46.08577" lon="4.6399">
        <ele>318.2</ele>
        <time>2022-06-25T19:27:08Z</time>
      </trkpt>
      <trkpt lat="46.08575" lon="4.6399">
        <ele>318.2</ele>
        <time>2022-06-25T19:27:09Z</time>
      </trkpt>
      <trkpt lat="46.08572" lon="4.63989">
        <ele>318.4</ele>
        <time>2022-06-25T19:27:10Z</time>
      </trkpt>
      <trkpt lat="46.0857" lon="4.63989">
        <ele>318.4</ele>
        <time>2022-06-25T19:27:11Z</time>
      </trkpt>
      <trkpt lat="46.08567" lon="4.63988">
        <ele>318.8</ele>
        <time>2022-06-25T19:27:12Z</time>
      </trkpt>
      <trkpt lat="46.08565" lon="4.63987">
        <ele>318.8</ele>
        <time>2022-06-25T19:27:13Z</time>
      </trkpt>
      <trkpt lat="46.08562" lon="4.63986">
        <ele>319</ele>
        <time>2022-06-25T19:27:14Z</time>
      </trkpt>
      <trkpt lat="46.08559" lon="4.63986">
        <ele>319</ele>
        <time>2022-06-25T19:27:15Z</time>
      </trkpt>
      <trkpt lat="46.08557" lon="4.63985">
        <ele>319.4</ele>
        <time>2022-06-25T19:27:16Z</time>
      </trkpt>
      <trkpt lat="46.08554" lon="4.63985">
        <ele>319.4</ele>
        <time>2022-06-25T19:27:17Z</time>
      </trkpt>
      <trkpt lat="46.08552" lon="4.63984">
        <ele>319.6</ele>
        <time>2022-06-25T19:27:18Z</time>
      </trkpt>
      <trkpt lat="46.08549" lon="4.63984">
        <ele>319.6</ele>
        <time>2022-06-25T19:27:19Z</time>
      </trkpt>
      <trkpt lat="46.08547" lon="4.63984">
        <ele>319.8</ele>
        <time>2022-06-25T19:27:20Z</time>
      </trkpt>
      <trkpt lat="46.08544" lon="4.63984">
        <ele>319.8</ele>
        <time>2022-06-25T19:27:21Z</time>
      </trkpt>
      <trkpt lat="46.08541" lon="4.63983">
        <ele>320</ele>
        <time>2022-06-25T19:27:22Z</time>
      </trkpt>
      <trkpt lat="46.08538" lon="4.63983">
        <ele>320</ele>
        <time>2022-06-25T19:27:23Z</time>
      </trkpt>
      <trkpt lat="46.08535" lon="4.63982">
        <ele>320</ele>
        <time>2022-06-25T19:27:24Z</time>
      </trkpt>
      <trkpt lat="46.08532" lon="4.63981">
        <ele>320.4</ele>
        <time>2022-06-25T19:27:25Z</time>
      </trkpt>
      <trkpt lat="46.08528" lon="4.6398">
        <ele>320.4</ele>
        <time>2022-06-25T19:27:26Z</time>
      </trkpt>
      <trkpt lat="46.08525" lon="4.63979">
        <ele>320.4</ele>
        <time>2022-06-25T19:27:27Z</time>
      </trkpt>
      <trkpt lat="46.08522" lon="4.63978">
        <ele>320.4</ele>
        <time>2022-06-25T19:27:28Z</time>
      </trkpt>
      <trkpt lat="46.08518" lon="4.63976">
        <ele>320.4</ele>
        <time>2022-06-25T19:27:29Z</time>
      </trkpt>
      <trkpt lat="46.08515" lon="4.63974">
        <ele>320.4</ele>
        <time>2022-06-25T19:27:30Z</time>
      </trkpt>
      <trkpt lat="46.08511" lon="4.63972">
        <ele>320.4</ele>
        <time>2022-06-25T19:27:31Z</time>
      </trkpt>
      <trkpt lat="46.08508" lon="4.6397">
        <ele>320.4</ele>
        <time>2022-06-25T19:27:32Z</time>
      </trkpt>
      <trkpt lat="46.08504" lon="4.63968">
        <ele>320.4</ele>
        <time>2022-06-25T19:27:33Z</time>
      </trkpt>
      <trkpt lat="46.085" lon="4.63966">
        <ele>320.6</ele>
        <time>2022-06-25T19:27:34Z</time>
      </trkpt>
      <trkpt lat="46.08496" lon="4.63964">
        <ele>320.6</ele>
        <time>2022-06-25T19:27:35Z</time>
      </trkpt>
      <trkpt lat="46.08493" lon="4.63962">
        <ele>320.6</ele>
        <time>2022-06-25T19:27:36Z</time>
      </trkpt>
      <trkpt lat="46.08489" lon="4.6396">
        <ele>320.6</ele>
        <time>2022-06-25T19:27:37Z</time>
      </trkpt>
      <trkpt lat="46.08485" lon="4.63958">
        <ele>320.8</ele>
        <time>2022-06-25T19:27:38Z</time>
      </trkpt>
      <trkpt lat="46.08481" lon="4.63957">
        <ele>320.8</ele>
        <time>2022-06-25T19:27:39Z</time>
      </trkpt>
      <trkpt lat="46.08478" lon="4.63954">
        <ele>320.8</ele>
        <time>2022-06-25T19:27:40Z</time>
      </trkpt>
      <trkpt lat="46.08474" lon="4.63952">
        <ele>321</ele>
        <time>2022-06-25T19:27:41Z</time>
      </trkpt>
      <trkpt lat="46.0847" lon="4.6395">
        <ele>321</ele>
        <time>2022-06-25T19:27:42Z</time>
      </trkpt>
      <trkpt lat="46.08466" lon="4.63948">
        <ele>321</ele>
        <time>2022-06-25T19:27:43Z</time>
      </trkpt>
      <trkpt lat="46.08462" lon="4.63946">
        <ele>321</ele>
        <time>2022-06-25T19:27:44Z</time>
      </trkpt>
      <trkpt lat="46.08457" lon="4.63943">
        <ele>321</ele>
        <time>2022-06-25T19:27:45Z</time>
      </trkpt>
      <trkpt lat="46.08453" lon="4.63941">
        <ele>321</ele>
        <time>2022-06-25T19:27:46Z</time>
      </trkpt>
      <trkpt lat="46.08448" lon="4.63938">
        <ele>321</ele>
        <time>2022-06-25T19:27:47Z</time>
      </trkpt>
      <trkpt lat="46.08444" lon="4.63935">
        <ele>321.2</ele>
        <time>2022-06-25T19:27:48Z</time>
      </trkpt>
      <trkpt lat="46.0844" lon="4.63933">
        <ele>321.2</ele>
        <time>2022-06-25T19:27:49Z</time>
      </trkpt>
      <trkpt lat="46.08435" lon="4.63931">
        <ele>321.2</ele>
        <time>2022-06-25T19:27:50Z</time>
      </trkpt>
      <trkpt lat="46.08431" lon="4.63928">
        <ele>321.2</ele>
        <time>2022-06-25T19:27:51Z</time>
      </trkpt>
      <trkpt lat="46.08427" lon="4.63925">
        <ele>321.2</ele>
        <time>2022-06-25T19:27:52Z</time>
      </trkpt>
      <trkpt lat="46.08423" lon="4.63922">
        <ele>321.2</ele>
        <time>2022-06-25T19:27:53Z</time>
      </trkpt>
      <trkpt lat="46.08419" lon="4.63919">
        <ele>321.2</ele>
        <time>2022-06-25T19:27:54Z</time>
      </trkpt>
      <trkpt lat="46.08415" lon="4.63916">
        <ele>321.4</ele>
        <time>2022-06-25T19:27:55Z</time>
      </trkpt>
      <trkpt lat="46.0841" lon="4.63912">
        <ele>321.4</ele>
        <time>2022-06-25T19:27:56Z</time>
      </trkpt>
      <trkpt lat="46.08407" lon="4.63908">
        <ele>321.8</ele>
        <time>2022-06-25T19:27:57Z</time>
      </trkpt>
      <trkpt lat="46.08403" lon="4.63905">
        <ele>321.8</ele>
        <time>2022-06-25T19:27:58Z</time>
      </trkpt>
      <trkpt lat="46.08399" lon="4.63901">
        <ele>322</ele>
        <time>2022-06-25T19:27:59Z</time>
      </trkpt>
      <trkpt lat="46.08396" lon="4.63898">
        <ele>322</ele>
        <time>2022-06-25T19:28:00Z</time>
      </trkpt>
      <trkpt lat="46.08392" lon="4.63894">
        <ele>322</ele>
        <time>2022-06-25T19:28:01Z</time>
      </trkpt>
      <trkpt lat="46.08389" lon="4.6389">
        <ele>322.4</ele>
        <time>2022-06-25T19:28:02Z</time>
      </trkpt>
      <trkpt lat="46.08386" lon="4.63886">
        <ele>322.4</ele>
        <time>2022-06-25T19:28:03Z</time>
      </trkpt>
      <trkpt lat="46.08382" lon="4.63882">
        <ele>322.6</ele>
        <time>2022-06-25T19:28:04Z</time>
      </trkpt>
      <trkpt lat="46.08379" lon="4.63879">
        <ele>322.6</ele>
        <time>2022-06-25T19:28:05Z</time>
      </trkpt>
      <trkpt lat="46.08376" lon="4.63875">
        <ele>322.8</ele>
        <time>2022-06-25T19:28:06Z</time>
      </trkpt>
      <trkpt lat="46.08373" lon="4.63872">
        <ele>322.8</ele>
        <time>2022-06-25T19:28:07Z</time>
      </trkpt>
      <trkpt lat="46.0837" lon="4.63868">
        <ele>323</ele>
        <time>2022-06-25T19:28:08Z</time>
      </trkpt>
      <trkpt lat="46.08367" lon="4.63865">
        <ele>323</ele>
        <time>2022-06-25T19:28:09Z</time>
      </trkpt>
      <trkpt lat="46.08365" lon="4.63861">
        <ele>323.4</ele>
        <time>2022-06-25T19:28:10Z</time>
      </trkpt>
      <trkpt lat="46.08362" lon="4.63857">
        <ele>323.4</ele>
        <time>2022-06-25T19:28:11Z</time>
      </trkpt>
      <trkpt lat="46.0836" lon="4.63853">
        <ele>323.6</ele>
        <time>2022-06-25T19:28:12Z</time>
      </trkpt>
      <trkpt lat="46.08357" lon="4.63849">
        <ele>323.6</ele>
        <time>2022-06-25T19:28:13Z</time>
      </trkpt>
      <trkpt lat="46.08354" lon="4.63846">
        <ele>323.8</ele>
        <time>2022-06-25T19:28:14Z</time>
      </trkpt>
      <trkpt lat="46.08352" lon="4.63842">
        <ele>323.8</ele>
        <time>2022-06-25T19:28:15Z</time>
      </trkpt>
      <trkpt lat="46.08349" lon="4.63839">
        <ele>324</ele>
        <time>2022-06-25T19:28:16Z</time>
      </trkpt>
      <trkpt lat="46.08346" lon="4.63835">
        <ele>324</ele>
        <time>2022-06-25T19:28:17Z</time>
      </trkpt>
      <trkpt lat="46.08344" lon="4.63831">
        <ele>324.6</ele>
        <time>2022-06-25T19:28:18Z</time>
      </trkpt>
      <trkpt lat="46.08341" lon="4.63828">
        <ele>324.6</ele>
        <time>2022-06-25T19:28:19Z</time>
      </trkpt>
      <trkpt lat="46.08339" lon="4.63825">
        <ele>324.8</ele>
        <time>2022-06-25T19:28:20Z</time>
      </trkpt>
      <trkpt lat="46.08336" lon="4.63821">
        <ele>324.8</ele>
        <time>2022-06-25T19:28:21Z</time>
      </trkpt>
      <trkpt lat="46.08334" lon="4.63818">
        <ele>325.2</ele>
        <time>2022-06-25T19:28:22Z</time>
      </trkpt>
      <trkpt lat="46.08331" lon="4.63815">
        <ele>325.2</ele>
        <time>2022-06-25T19:28:23Z</time>
      </trkpt>
      <trkpt lat="46.08329" lon="4.63811">
        <ele>325.4</ele>
        <time>2022-06-25T19:28:24Z</time>
      </trkpt>
      <trkpt lat="46.08327" lon="4.63808">
        <ele>325.4</ele>
        <time>2022-06-25T19:28:25Z</time>
      </trkpt>
      <trkpt lat="46.08325" lon="4.63805">
        <ele>325.8</ele>
        <time>2022-06-25T19:28:26Z</time>
      </trkpt>
      <trkpt lat="46.08323" lon="4.63801">
        <ele>325.8</ele>
        <time>2022-06-25T19:28:27Z</time>
      </trkpt>
      <trkpt lat="46.08321" lon="4.63798">
        <ele>326.2</ele>
        <time>2022-06-25T19:28:28Z</time>
      </trkpt>
      <trkpt lat="46.08319" lon="4.63795">
        <ele>326.2</ele>
        <time>2022-06-25T19:28:29Z</time>
      </trkpt>
      <trkpt lat="46.08317" lon="4.63791">
        <ele>326.6</ele>
        <time>2022-06-25T19:28:30Z</time>
      </trkpt>
      <trkpt lat="46.08316" lon="4.63788">
        <ele>326.6</ele>
        <time>2022-06-25T19:28:31Z</time>
      </trkpt>
      <trkpt lat="46.08314" lon="4.63784">
        <ele>327</ele>
        <time>2022-06-25T19:28:32Z</time>
      </trkpt>
      <trkpt lat="46.08313" lon="4.63781">
        <ele>327.2</ele>
        <time>2022-06-25T19:28:33Z</time>
      </trkpt>
      <trkpt lat="46.08311" lon="4.63778">
        <ele>327.4</ele>
        <time>2022-06-25T19:28:34Z</time>
      </trkpt>
      <trkpt lat="46.0831" lon="4.63776">
        <ele>327.4</ele>
        <time>2022-06-25T19:28:35Z</time>
      </trkpt>
      <trkpt lat="46.08309" lon="4.63773">
        <ele>327.8</ele>
        <time>2022-06-25T19:28:36Z</time>
      </trkpt>
      <trkpt lat="46.08308" lon="4.6377">
        <ele>327.8</ele>
        <time>2022-06-25T19:28:37Z</time>
      </trkpt>
      <trkpt lat="46.08307" lon="4.63767">
        <ele>328.2</ele>
        <time>2022-06-25T19:28:38Z</time>
      </trkpt>
      <trkpt lat="46.08306" lon="4.63764">
        <ele>328.2</ele>
        <time>2022-06-25T19:28:39Z</time>
      </trkpt>
      <trkpt lat="46.08305" lon="4.6376">
        <ele>328.4</ele>
        <time>2022-06-25T19:28:40Z</time>
      </trkpt>
      <trkpt lat="46.08304" lon="4.63756">
        <ele>328.4</ele>
        <time>2022-06-25T19:28:41Z</time>
      </trkpt>
      <trkpt lat="46.08302" lon="4.63752">
        <ele>328.4</ele>
        <time>2022-06-25T19:28:42Z</time>
      </trkpt>
      <trkpt lat="46.08301" lon="4.63749">
        <ele>328.8</ele>
        <time>2022-06-25T19:28:43Z</time>
      </trkpt>
      <trkpt lat="46.083" lon="4.63745">
        <ele>329</ele>
        <time>2022-06-25T19:28:44Z</time>
      </trkpt>
      <trkpt lat="46.08299" lon="4.63741">
        <ele>329</ele>
        <time>2022-06-25T19:28:45Z</time>
      </trkpt>
      <trkpt lat="46.08298" lon="4.63737">
        <ele>329.2</ele>
        <time>2022-06-25T19:28:46Z</time>
      </trkpt>
      <trkpt lat="46.08297" lon="4.63733">
        <ele>329.2</ele>
        <time>2022-06-25T19:28:47Z</time>
      </trkpt>
      <trkpt lat="46.08296" lon="4.63729">
        <ele>329.6</ele>
        <time>2022-06-25T19:28:48Z</time>
      </trkpt>
      <trkpt lat="46.08295" lon="4.63725">
        <ele>329.6</ele>
        <time>2022-06-25T19:28:49Z</time>
      </trkpt>
      <trkpt lat="46.08294" lon="4.63721">
        <ele>330</ele>
        <time>2022-06-25T19:28:50Z</time>
      </trkpt>
      <trkpt lat="46.08292" lon="4.63718">
        <ele>330</ele>
        <time>2022-06-25T19:28:51Z</time>
      </trkpt>
      <trkpt lat="46.08291" lon="4.63714">
        <ele>330.2</ele>
        <time>2022-06-25T19:28:52Z</time>
      </trkpt>
      <trkpt lat="46.0829" lon="4.6371">
        <ele>330.2</ele>
        <time>2022-06-25T19:28:53Z</time>
      </trkpt>
      <trkpt lat="46.0829" lon="4.63706">
        <ele>330.6</ele>
        <time>2022-06-25T19:28:54Z</time>
      </trkpt>
      <trkpt lat="46.08289" lon="4.63703">
        <ele>330.6</ele>
        <time>2022-06-25T19:28:55Z</time>
      </trkpt>
      <trkpt lat="46.08288" lon="4.63699">
        <ele>330.8</ele>
        <time>2022-06-25T19:28:56Z</time>
      </trkpt>
      <trkpt lat="46.08287" lon="4.63695">
        <ele>330.8</ele>
        <time>2022-06-25T19:28:57Z</time>
      </trkpt>
      <trkpt lat="46.08286" lon="4.63691">
        <ele>330.8</ele>
        <time>2022-06-25T19:28:58Z</time>
      </trkpt>
      <trkpt lat="46.08285" lon="4.63687">
        <ele>331</ele>
        <time>2022-06-25T19:28:59Z</time>
      </trkpt>
      <trkpt lat="46.08284" lon="4.63683">
        <ele>331</ele>
        <time>2022-06-25T19:29:00Z</time>
      </trkpt>
      <trkpt lat="46.08283" lon="4.6368">
        <ele>331.4</ele>
        <time>2022-06-25T19:29:01Z</time>
      </trkpt>
      <trkpt lat="46.08281" lon="4.63676">
        <ele>331.4</ele>
        <time>2022-06-25T19:29:02Z</time>
      </trkpt>
      <trkpt lat="46.0828" lon="4.63672">
        <ele>331.8</ele>
        <time>2022-06-25T19:29:03Z</time>
      </trkpt>
      <trkpt lat="46.08279" lon="4.63668">
        <ele>331.8</ele>
        <time>2022-06-25T19:29:04Z</time>
      </trkpt>
      <trkpt lat="46.08279" lon="4.63665">
        <ele>332</ele>
        <time>2022-06-25T19:29:05Z</time>
      </trkpt>
      <trkpt lat="46.08278" lon="4.63661">
        <ele>332</ele>
        <time>2022-06-25T19:29:06Z</time>
      </trkpt>
      <trkpt lat="46.08276" lon="4.63657">
        <ele>332.4</ele>
        <time>2022-06-25T19:29:07Z</time>
      </trkpt>
      <trkpt lat="46.08275" lon="4.63653">
        <ele>332.4</ele>
        <time>2022-06-25T19:29:08Z</time>
      </trkpt>
      <trkpt lat="46.08274" lon="4.6365">
        <ele>332.6</ele>
        <time>2022-06-25T19:29:09Z</time>
      </trkpt>
      <trkpt lat="46.08272" lon="4.63647">
        <ele>332.6</ele>
        <time>2022-06-25T19:29:10Z</time>
      </trkpt>
      <trkpt lat="46.08271" lon="4.63643">
        <ele>332.8</ele>
        <time>2022-06-25T19:29:11Z</time>
      </trkpt>
      <trkpt lat="46.08269" lon="4.6364">
        <ele>332.8</ele>
        <time>2022-06-25T19:29:12Z</time>
      </trkpt>
      <trkpt lat="46.08268" lon="4.63636">
        <ele>333.2</ele>
        <time>2022-06-25T19:29:13Z</time>
      </trkpt>
      <trkpt lat="46.08267" lon="4.63633">
        <ele>333.2</ele>
        <time>2022-06-25T19:29:14Z</time>
      </trkpt>
      <trkpt lat="46.08265" lon="4.63629">
        <ele>333.4</ele>
        <time>2022-06-25T19:29:15Z</time>
      </trkpt>
      <trkpt lat="46.08264" lon="4.63626">
        <ele>333.4</ele>
        <time>2022-06-25T19:29:16Z</time>
      </trkpt>
      <trkpt lat="46.08262" lon="4.63622">
        <ele>333.8</ele>
        <time>2022-06-25T19:29:17Z</time>
      </trkpt>
      <trkpt lat="46.08261" lon="4.63619">
        <ele>333.8</ele>
        <time>2022-06-25T19:29:18Z</time>
      </trkpt>
      <trkpt lat="46.08259" lon="4.63616">
        <ele>334.2</ele>
        <time>2022-06-25T19:29:19Z</time>
      </trkpt>
      <trkpt lat="46.08257" lon="4.63613">
        <ele>334.4</ele>
        <time>2022-06-25T19:29:20Z</time>
      </trkpt>
      <trkpt lat="46.08255" lon="4.6361">
        <ele>334.6</ele>
        <time>2022-06-25T19:29:21Z</time>
      </trkpt>
      <trkpt lat="46.08253" lon="4.63607">
        <ele>335</ele>
        <time>2022-06-25T19:29:22Z</time>
      </trkpt>
      <trkpt lat="46.08252" lon="4.63605">
        <ele>335.2</ele>
        <time>2022-06-25T19:29:23Z</time>
      </trkpt>
      <trkpt lat="46.0825" lon="4.63602">
        <ele>335.4</ele>
        <time>2022-06-25T19:29:24Z</time>
      </trkpt>
      <trkpt lat="46.08248" lon="4.63599">
        <ele>335.6</ele>
        <time>2022-06-25T19:29:25Z</time>
      </trkpt>
      <trkpt lat="46.08246" lon="4.63596">
        <ele>335.8</ele>
        <time>2022-06-25T19:29:26Z</time>
      </trkpt>
      <trkpt lat="46.08244" lon="4.63593">
        <ele>335.8</ele>
        <time>2022-06-25T19:29:27Z</time>
      </trkpt>
      <trkpt lat="46.08242" lon="4.6359">
        <ele>336.2</ele>
        <time>2022-06-25T19:29:28Z</time>
      </trkpt>
      <trkpt lat="46.08241" lon="4.63587">
        <ele>336.2</ele>
        <time>2022-06-25T19:29:29Z</time>
      </trkpt>
      <trkpt lat="46.08239" lon="4.63585">
        <ele>336.6</ele>
        <time>2022-06-25T19:29:30Z</time>
      </trkpt>
      <trkpt lat="46.08238" lon="4.63582">
        <ele>336.8</ele>
        <time>2022-06-25T19:29:31Z</time>
      </trkpt>
      <trkpt lat="46.08236" lon="4.63579">
        <ele>337.2</ele>
        <time>2022-06-25T19:29:32Z</time>
      </trkpt>
      <trkpt lat="46.08234" lon="4.63577">
        <ele>337.2</ele>
        <time>2022-06-25T19:29:33Z</time>
      </trkpt>
      <trkpt lat="46.08233" lon="4.63574">
        <ele>337.4</ele>
        <time>2022-06-25T19:29:34Z</time>
      </trkpt>
      <trkpt lat="46.08231" lon="4.63571">
        <ele>337.4</ele>
        <time>2022-06-25T19:29:35Z</time>
      </trkpt>
      <trkpt lat="46.0823" lon="4.63569">
        <ele>337.8</ele>
        <time>2022-06-25T19:29:36Z</time>
      </trkpt>
      <trkpt lat="46.08228" lon="4.63566">
        <ele>337.8</ele>
        <time>2022-06-25T19:29:37Z</time>
      </trkpt>
      <trkpt lat="46.08226" lon="4.63564">
        <ele>338</ele>
        <time>2022-06-25T19:29:38Z</time>
      </trkpt>
      <trkpt lat="46.08225" lon="4.63562">
        <ele>338</ele>
        <time>2022-06-25T19:29:39Z</time>
      </trkpt>
      <trkpt lat="46.08223" lon="4.6356">
        <ele>338.2</ele>
        <time>2022-06-25T19:29:40Z</time>
      </trkpt>
      <trkpt lat="46.08221" lon="4.63557">
        <ele>338.2</ele>
        <time>2022-06-25T19:29:41Z</time>
      </trkpt>
      <trkpt lat="46.0822" lon="4.63555">
        <ele>338.6</ele>
        <time>2022-06-25T19:29:42Z</time>
      </trkpt>
      <trkpt lat="46.08218" lon="4.63552">
        <ele>338.8</ele>
        <time>2022-06-25T19:29:43Z</time>
      </trkpt>
      <trkpt lat="46.08217" lon="4.63549">
        <ele>338.8</ele>
        <time>2022-06-25T19:29:44Z</time>
      </trkpt>
      <trkpt lat="46.08215" lon="4.63546">
        <ele>339.2</ele>
        <time>2022-06-25T19:29:45Z</time>
      </trkpt>
      <trkpt lat="46.08213" lon="4.63543">
        <ele>339.2</ele>
        <time>2022-06-25T19:29:46Z</time>
      </trkpt>
      <trkpt lat="46.08211" lon="4.63541">
        <ele>339.6</ele>
        <time>2022-06-25T19:29:47Z</time>
      </trkpt>
      <trkpt lat="46.0821" lon="4.63538">
        <ele>339.6</ele>
        <time>2022-06-25T19:29:48Z</time>
      </trkpt>
      <trkpt lat="46.08208" lon="4.63536">
        <ele>340</ele>
        <time>2022-06-25T19:29:49Z</time>
      </trkpt>
      <trkpt lat="46.08206" lon="4.63533">
        <ele>340.2</ele>
        <time>2022-06-25T19:29:50Z</time>
      </trkpt>
      <trkpt lat="46.08205" lon="4.6353">
        <ele>340.4</ele>
        <time>2022-06-25T19:29:51Z</time>
      </trkpt>
      <trkpt lat="46.08203" lon="4.63527">
        <ele>340.4</ele>
        <time>2022-06-25T19:29:52Z</time>
      </trkpt>
      <trkpt lat="46.08201" lon="4.63524">
        <ele>340.8</ele>
        <time>2022-06-25T19:29:53Z</time>
      </trkpt>
      <trkpt lat="46.08199" lon="4.63522">
        <ele>340.8</ele>
        <time>2022-06-25T19:29:54Z</time>
      </trkpt>
      <trkpt lat="46.08198" lon="4.63519">
        <ele>341.2</ele>
        <time>2022-06-25T19:29:55Z</time>
      </trkpt>
      <trkpt lat="46.08196" lon="4.63516">
        <ele>341.4</ele>
        <time>2022-06-25T19:29:56Z</time>
      </trkpt>
      <trkpt lat="46.08194" lon="4.63513">
        <ele>341.4</ele>
        <time>2022-06-25T19:29:57Z</time>
      </trkpt>
      <trkpt lat="46.08193" lon="4.6351">
        <ele>341.6</ele>
        <time>2022-06-25T19:29:58Z</time>
      </trkpt>
      <trkpt lat="46.08191" lon="4.63508">
        <ele>342</ele>
        <time>2022-06-25T19:29:59Z</time>
      </trkpt>
      <trkpt lat="46.08189" lon="4.63505">
        <ele>342.2</ele>
        <time>2022-06-25T19:30:00Z</time>
      </trkpt>
      <trkpt lat="46.08187" lon="4.63502">
        <ele>342.2</ele>
        <time>2022-06-25T19:30:01Z</time>
      </trkpt>
      <trkpt lat="46.08185" lon="4.635">
        <ele>342.6</ele>
        <time>2022-06-25T19:30:02Z</time>
      </trkpt>
      <trkpt lat="46.08184" lon="4.63497">
        <ele>342.6</ele>
        <time>2022-06-25T19:30:03Z</time>
      </trkpt>
      <trkpt lat="46.08182" lon="4.63494">
        <ele>342.8</ele>
        <time>2022-06-25T19:30:04Z</time>
      </trkpt>
      <trkpt lat="46.0818" lon="4.63492">
        <ele>342.8</ele>
        <time>2022-06-25T19:30:05Z</time>
      </trkpt>
      <trkpt lat="46.08178" lon="4.63489">
        <ele>343.2</ele>
        <time>2022-06-25T19:30:06Z</time>
      </trkpt>
      <trkpt lat="46.08177" lon="4.63487">
        <ele>343.4</ele>
        <time>2022-06-25T19:30:07Z</time>
      </trkpt>
      <trkpt lat="46.08175" lon="4.63484">
        <ele>343.8</ele>
        <time>2022-06-25T19:30:08Z</time>
      </trkpt>
      <trkpt lat="46.08173" lon="4.63482">
        <ele>344</ele>
        <time>2022-06-25T19:30:09Z</time>
      </trkpt>
      <trkpt lat="46.08172" lon="4.63479">
        <ele>344</ele>
        <time>2022-06-25T19:30:10Z</time>
      </trkpt>
      <trkpt lat="46.0817" lon="4.63477">
        <ele>344.4</ele>
        <time>2022-06-25T19:30:11Z</time>
      </trkpt>
      <trkpt lat="46.08168" lon="4.63474">
        <ele>344.4</ele>
        <time>2022-06-25T19:30:12Z</time>
      </trkpt>
      <trkpt lat="46.08167" lon="4.63471">
        <ele>344.6</ele>
        <time>2022-06-25T19:30:13Z</time>
      </trkpt>
      <trkpt lat="46.08165" lon="4.63469">
        <ele>344.6</ele>
        <time>2022-06-25T19:30:14Z</time>
      </trkpt>
      <trkpt lat="46.08164" lon="4.63466">
        <ele>345</ele>
        <time>2022-06-25T19:30:15Z</time>
      </trkpt>
      <trkpt lat="46.08162" lon="4.63463">
        <ele>345</ele>
        <time>2022-06-25T19:30:16Z</time>
      </trkpt>
      <trkpt lat="46.08161" lon="4.63461">
        <ele>345.2</ele>
        <time>2022-06-25T19:30:17Z</time>
      </trkpt>
      <trkpt lat="46.08159" lon="4.63458">
        <ele>345.2</ele>
        <time>2022-06-25T19:30:18Z</time>
      </trkpt>
      <trkpt lat="46.08158" lon="4.63455">
        <ele>345.6</ele>
        <time>2022-06-25T19:30:19Z</time>
      </trkpt>
      <trkpt lat="46.08156" lon="4.63452">
        <ele>345.6</ele>
        <time>2022-06-25T19:30:20Z</time>
      </trkpt>
      <trkpt lat="46.08154" lon="4.63448">
        <ele>345.8</ele>
        <time>2022-06-25T19:30:21Z</time>
      </trkpt>
      <trkpt lat="46.08152" lon="4.63445">
        <ele>345.8</ele>
        <time>2022-06-25T19:30:22Z</time>
      </trkpt>
      <trkpt lat="46.08151" lon="4.63442">
        <ele>346.2</ele>
        <time>2022-06-25T19:30:23Z</time>
      </trkpt>
      <trkpt lat="46.08149" lon="4.63439">
        <ele>346.2</ele>
        <time>2022-06-25T19:30:24Z</time>
      </trkpt>
      <trkpt lat="46.08147" lon="4.63435">
        <ele>346.4</ele>
        <time>2022-06-25T19:30:25Z</time>
      </trkpt>
      <trkpt lat="46.08145" lon="4.63432">
        <ele>346.4</ele>
        <time>2022-06-25T19:30:26Z</time>
      </trkpt>
      <trkpt lat="46.08143" lon="4.63429">
        <ele>346.6</ele>
        <time>2022-06-25T19:30:27Z</time>
      </trkpt>
      <trkpt lat="46.08142" lon="4.63425">
        <ele>346.6</ele>
        <time>2022-06-25T19:30:28Z</time>
      </trkpt>
      <trkpt lat="46.0814" lon="4.63422">
        <ele>347</ele>
        <time>2022-06-25T19:30:29Z</time>
      </trkpt>
      <trkpt lat="46.08138" lon="4.63419">
        <ele>347</ele>
        <time>2022-06-25T19:30:30Z</time>
      </trkpt>
      <trkpt lat="46.08136" lon="4.63415">
        <ele>347.2</ele>
        <time>2022-06-25T19:30:31Z</time>
      </trkpt>
      <trkpt lat="46.08134" lon="4.63412">
        <ele>347.2</ele>
        <time>2022-06-25T19:30:32Z</time>
      </trkpt>
      <trkpt lat="46.08133" lon="4.63408">
        <ele>347.4</ele>
        <time>2022-06-25T19:30:33Z</time>
      </trkpt>
      <trkpt lat="46.08131" lon="4.63405">
        <ele>347.4</ele>
        <time>2022-06-25T19:30:34Z</time>
      </trkpt>
      <trkpt lat="46.08129" lon="4.63401">
        <ele>347.8</ele>
        <time>2022-06-25T19:30:35Z</time>
      </trkpt>
      <trkpt lat="46.08128" lon="4.63398">
        <ele>347.8</ele>
        <time>2022-06-25T19:30:36Z</time>
      </trkpt>
      <trkpt lat="46.08126" lon="4.63394">
        <ele>348</ele>
        <time>2022-06-25T19:30:37Z</time>
      </trkpt>
      <trkpt lat="46.08124" lon="4.63391">
        <ele>348</ele>
        <time>2022-06-25T19:30:38Z</time>
      </trkpt>
      <trkpt lat="46.08123" lon="4.63387">
        <ele>348.2</ele>
        <time>2022-06-25T19:30:39Z</time>
      </trkpt>
      <trkpt lat="46.08121" lon="4.63384">
        <ele>348.2</ele>
        <time>2022-06-25T19:30:40Z</time>
      </trkpt>
      <trkpt lat="46.0812" lon="4.6338">
        <ele>348.4</ele>
        <time>2022-06-25T19:30:41Z</time>
      </trkpt>
      <trkpt lat="46.08118" lon="4.63377">
        <ele>348.4</ele>
        <time>2022-06-25T19:30:42Z</time>
      </trkpt>
      <trkpt lat="46.08116" lon="4.63373">
        <ele>348.8</ele>
        <time>2022-06-25T19:30:43Z</time>
      </trkpt>
      <trkpt lat="46.08114" lon="4.63369">
        <ele>349</ele>
        <time>2022-06-25T19:30:44Z</time>
      </trkpt>
      <trkpt lat="46.08113" lon="4.63365">
        <ele>349.2</ele>
        <time>2022-06-25T19:30:45Z</time>
      </trkpt>
      <trkpt lat="46.08111" lon="4.63362">
        <ele>349.2</ele>
        <time>2022-06-25T19:30:46Z</time>
      </trkpt>
      <trkpt lat="46.0811" lon="4.63358">
        <ele>349.6</ele>
        <time>2022-06-25T19:30:47Z</time>
      </trkpt>
      <trkpt lat="46.08108" lon="4.63354">
        <ele>349.6</ele>
        <time>2022-06-25T19:30:48Z</time>
      </trkpt>
      <trkpt lat="46.08107" lon="4.6335">
        <ele>350</ele>
        <time>2022-06-25T19:30:49Z</time>
      </trkpt>
      <trkpt lat="46.08106" lon="4.63346">
        <ele>350</ele>
        <time>2022-06-25T19:30:50Z</time>
      </trkpt>
      <trkpt lat="46.08104" lon="4.63342">
        <ele>350.4</ele>
        <time>2022-06-25T19:30:51Z</time>
      </trkpt>
      <trkpt lat="46.08103" lon="4.63338">
        <ele>350.4</ele>
        <time>2022-06-25T19:30:52Z</time>
      </trkpt>
      <trkpt lat="46.08102" lon="4.63333">
        <ele>350.6</ele>
        <time>2022-06-25T19:30:53Z</time>
      </trkpt>
      <trkpt lat="46.08101" lon="4.63329">
        <ele>350.6</ele>
        <time>2022-06-25T19:30:54Z</time>
      </trkpt>
      <trkpt lat="46.081" lon="4.63325">
        <ele>351</ele>
        <time>2022-06-25T19:30:55Z</time>
      </trkpt>
      <trkpt lat="46.08099" lon="4.6332">
        <ele>351</ele>
        <time>2022-06-25T19:30:56Z</time>
      </trkpt>
      <trkpt lat="46.08098" lon="4.63316">
        <ele>351.2</ele>
        <time>2022-06-25T19:30:57Z</time>
      </trkpt>
      <trkpt lat="46.08097" lon="4.63312">
        <ele>351.2</ele>
        <time>2022-06-25T19:30:58Z</time>
      </trkpt>
      <trkpt lat="46.08097" lon="4.63308">
        <ele>351.6</ele>
        <time>2022-06-25T19:30:59Z</time>
      </trkpt>
      <trkpt lat="46.08096" lon="4.63304">
        <ele>351.8</ele>
        <time>2022-06-25T19:31:00Z</time>
      </trkpt>
      <trkpt lat="46.08095" lon="4.633">
        <ele>351.8</ele>
        <time>2022-06-25T19:31:01Z</time>
      </trkpt>
      <trkpt lat="46.08094" lon="4.63296">
        <ele>351.8</ele>
        <time>2022-06-25T19:31:02Z</time>
      </trkpt>
      <trkpt lat="46.08093" lon="4.63292">
        <ele>352.2</ele>
        <time>2022-06-25T19:31:03Z</time>
      </trkpt>
      <trkpt lat="46.08092" lon="4.63287">
        <ele>352.2</ele>
        <time>2022-06-25T19:31:04Z</time>
      </trkpt>
      <trkpt lat="46.08091" lon="4.63283">
        <ele>352.4</ele>
        <time>2022-06-25T19:31:05Z</time>
      </trkpt>
      <trkpt lat="46.0809" lon="4.63278">
        <ele>352.4</ele>
        <time>2022-06-25T19:31:06Z</time>
      </trkpt>
      <trkpt lat="46.0809" lon="4.63274">
        <ele>352.4</ele>
        <time>2022-06-25T19:31:07Z</time>
      </trkpt>
      <trkpt lat="46.08089" lon="4.63269">
        <ele>352.6</ele>
        <time>2022-06-25T19:31:08Z</time>
      </trkpt>
      <trkpt lat="46.08088" lon="4.63264">
        <ele>352.6</ele>
        <time>2022-06-25T19:31:09Z</time>
      </trkpt>
      <trkpt lat="46.08087" lon="4.6326">
        <ele>352.6</ele>
        <time>2022-06-25T19:31:10Z</time>
      </trkpt>
      <trkpt lat="46.08086" lon="4.63255">
        <ele>352.6</ele>
        <time>2022-06-25T19:31:11Z</time>
      </trkpt>
      <trkpt lat="46.08084" lon="4.6325">
        <ele>352.6</ele>
        <time>2022-06-25T19:31:12Z</time>
      </trkpt>
      <trkpt lat="46.08083" lon="4.63246">
        <ele>353</ele>
        <time>2022-06-25T19:31:13Z</time>
      </trkpt>
      <trkpt lat="46.08083" lon="4.63241">
        <ele>353</ele>
        <time>2022-06-25T19:31:14Z</time>
      </trkpt>
      <trkpt lat="46.08082" lon="4.63236">
        <ele>353.2</ele>
        <time>2022-06-25T19:31:15Z</time>
      </trkpt>
      <trkpt lat="46.08081" lon="4.63232">
        <ele>353.2</ele>
        <time>2022-06-25T19:31:16Z</time>
      </trkpt>
      <trkpt lat="46.0808" lon="4.63227">
        <ele>353.4</ele>
        <time>2022-06-25T19:31:17Z</time>
      </trkpt>
      <trkpt lat="46.08079" lon="4.63222">
        <ele>353.4</ele>
        <time>2022-06-25T19:31:18Z</time>
      </trkpt>
      <trkpt lat="46.08078" lon="4.63217">
        <ele>353.4</ele>
        <time>2022-06-25T19:31:19Z</time>
      </trkpt>
      <trkpt lat="46.08077" lon="4.63213">
        <ele>353.4</ele>
        <time>2022-06-25T19:31:20Z</time>
      </trkpt>
      <trkpt lat="46.08076" lon="4.63208">
        <ele>353.4</ele>
        <time>2022-06-25T19:31:21Z</time>
      </trkpt>
      <trkpt lat="46.08075" lon="4.63204">
        <ele>353.6</ele>
        <time>2022-06-25T19:31:22Z</time>
      </trkpt>
      <trkpt lat="46.08073" lon="4.63199">
        <ele>353.6</ele>
        <time>2022-06-25T19:31:23Z</time>
      </trkpt>
      <trkpt lat="46.08072" lon="4.63195">
        <ele>354</ele>
        <time>2022-06-25T19:31:24Z</time>
      </trkpt>
      <trkpt lat="46.08071" lon="4.6319">
        <ele>354</ele>
        <time>2022-06-25T19:31:25Z</time>
      </trkpt>
      <trkpt lat="46.0807" lon="4.63186">
        <ele>354.2</ele>
        <time>2022-06-25T19:31:26Z</time>
      </trkpt>
      <trkpt lat="46.08069" lon="4.63182">
        <ele>354.2</ele>
        <time>2022-06-25T19:31:27Z</time>
      </trkpt>
      <trkpt lat="46.08067" lon="4.63177">
        <ele>354.6</ele>
        <time>2022-06-25T19:31:28Z</time>
      </trkpt>
      <trkpt lat="46.08066" lon="4.63173">
        <ele>354.6</ele>
        <time>2022-06-25T19:31:29Z</time>
      </trkpt>
      <trkpt lat="46.08064" lon="4.63164">
        <ele>354.8</ele>
        <time>2022-06-25T19:31:30Z</time>
      </trkpt>
      <trkpt lat="46.08062" lon="4.6316">
        <ele>354.8</ele>
        <time>2022-06-25T19:31:31Z</time>
      </trkpt>
      <trkpt lat="46.0806" lon="4.63155">
        <ele>354.8</ele>
        <time>2022-06-25T19:31:32Z</time>
      </trkpt>
      <trkpt lat="46.08059" lon="4.63151">
        <ele>355.2</ele>
        <time>2022-06-25T19:31:33Z</time>
      </trkpt>
      <trkpt lat="46.08057" lon="4.63147">
        <ele>355.2</ele>
        <time>2022-06-25T19:31:34Z</time>
      </trkpt>
      <trkpt lat="46.08055" lon="4.63142">
        <ele>355.4</ele>
        <time>2022-06-25T19:31:35Z</time>
      </trkpt>
      <trkpt lat="46.08054" lon="4.63138">
        <ele>355.4</ele>
        <time>2022-06-25T19:31:36Z</time>
      </trkpt>
      <trkpt lat="46.08052" lon="4.63133">
        <ele>355.6</ele>
        <time>2022-06-25T19:31:37Z</time>
      </trkpt>
      <trkpt lat="46.0805" lon="4.63129">
        <ele>355.6</ele>
        <time>2022-06-25T19:31:38Z</time>
      </trkpt>
      <trkpt lat="46.08049" lon="4.63125">
        <ele>355.8</ele>
        <time>2022-06-25T19:31:39Z</time>
      </trkpt>
      <trkpt lat="46.08047" lon="4.6312">
        <ele>355.8</ele>
        <time>2022-06-25T19:31:40Z</time>
      </trkpt>
      <trkpt lat="46.08045" lon="4.63116">
        <ele>355.8</ele>
        <time>2022-06-25T19:31:41Z</time>
      </trkpt>
      <trkpt lat="46.08043" lon="4.63113">
        <ele>356</ele>
        <time>2022-06-25T19:31:42Z</time>
      </trkpt>
      <trkpt lat="46.0804" lon="4.63109">
        <ele>356</ele>
        <time>2022-06-25T19:31:43Z</time>
      </trkpt>
      <trkpt lat="46.08038" lon="4.63105">
        <ele>356</ele>
        <time>2022-06-25T19:31:44Z</time>
      </trkpt>
      <trkpt lat="46.08036" lon="4.63102">
        <ele>356.4</ele>
        <time>2022-06-25T19:31:45Z</time>
      </trkpt>
      <trkpt lat="46.08034" lon="4.63098">
        <ele>356.6</ele>
        <time>2022-06-25T19:31:46Z</time>
      </trkpt>
      <trkpt lat="46.08032" lon="4.63095">
        <ele>356.6</ele>
        <time>2022-06-25T19:31:47Z</time>
      </trkpt>
      <trkpt lat="46.0803" lon="4.63091">
        <ele>356.8</ele>
        <time>2022-06-25T19:31:48Z</time>
      </trkpt>
      <trkpt lat="46.08028" lon="4.63088">
        <ele>356.8</ele>
        <time>2022-06-25T19:31:49Z</time>
      </trkpt>
      <trkpt lat="46.08026" lon="4.63084">
        <ele>357</ele>
        <time>2022-06-25T19:31:50Z</time>
      </trkpt>
      <trkpt lat="46.08024" lon="4.63081">
        <ele>357</ele>
        <time>2022-06-25T19:31:51Z</time>
      </trkpt>
      <trkpt lat="46.08022" lon="4.63078">
        <ele>357.4</ele>
        <time>2022-06-25T19:31:52Z</time>
      </trkpt>
      <trkpt lat="46.0802" lon="4.63075">
        <ele>357.4</ele>
        <time>2022-06-25T19:31:53Z</time>
      </trkpt>
      <trkpt lat="46.08018" lon="4.63072">
        <ele>357.8</ele>
        <time>2022-06-25T19:31:54Z</time>
      </trkpt>
      <trkpt lat="46.08016" lon="4.63069">
        <ele>358</ele>
        <time>2022-06-25T19:31:55Z</time>
      </trkpt>
      <trkpt lat="46.08014" lon="4.63065">
        <ele>358</ele>
        <time>2022-06-25T19:31:56Z</time>
      </trkpt>
      <trkpt lat="46.08012" lon="4.63062">
        <ele>358.2</ele>
        <time>2022-06-25T19:31:57Z</time>
      </trkpt>
      <trkpt lat="46.08011" lon="4.63059">
        <ele>358.6</ele>
        <time>2022-06-25T19:31:58Z</time>
      </trkpt>
      <trkpt lat="46.08009" lon="4.63055">
        <ele>358.6</ele>
        <time>2022-06-25T19:31:59Z</time>
      </trkpt>
      <trkpt lat="46.08007" lon="4.63052">
        <ele>358.8</ele>
        <time>2022-06-25T19:32:00Z</time>
      </trkpt>
      <trkpt lat="46.08005" lon="4.63049">
        <ele>358.8</ele>
        <time>2022-06-25T19:32:01Z</time>
      </trkpt>
      <trkpt lat="46.08003" lon="4.63046">
        <ele>359</ele>
        <time>2022-06-25T19:32:02Z</time>
      </trkpt>
      <trkpt lat="46.08001" lon="4.63043">
        <ele>359</ele>
        <time>2022-06-25T19:32:03Z</time>
      </trkpt>
      <trkpt lat="46.07999" lon="4.6304">
        <ele>359.4</ele>
        <time>2022-06-25T19:32:04Z</time>
      </trkpt>
      <trkpt lat="46.07997" lon="4.63036">
        <ele>359.4</ele>
        <time>2022-06-25T19:32:05Z</time>
      </trkpt>
      <trkpt lat="46.07995" lon="4.63033">
        <ele>359.6</ele>
        <time>2022-06-25T19:32:06Z</time>
      </trkpt>
      <trkpt lat="46.07993" lon="4.6303">
        <ele>359.8</ele>
        <time>2022-06-25T19:32:07Z</time>
      </trkpt>
      <trkpt lat="46.07991" lon="4.63026">
        <ele>359.8</ele>
        <time>2022-06-25T19:32:08Z</time>
      </trkpt>
      <trkpt lat="46.07989" lon="4.63023">
        <ele>360.2</ele>
        <time>2022-06-25T19:32:09Z</time>
      </trkpt>
      <trkpt lat="46.07987" lon="4.6302">
        <ele>360.2</ele>
        <time>2022-06-25T19:32:10Z</time>
      </trkpt>
      <trkpt lat="46.07985" lon="4.63017">
        <ele>360.2</ele>
        <time>2022-06-25T19:32:11Z</time>
      </trkpt>
      <trkpt lat="46.07983" lon="4.63013">
        <ele>360.4</ele>
        <time>2022-06-25T19:32:12Z</time>
      </trkpt>
      <trkpt lat="46.07982" lon="4.6301">
        <ele>360.4</ele>
        <time>2022-06-25T19:32:13Z</time>
      </trkpt>
      <trkpt lat="46.0798" lon="4.63007">
        <ele>360.8</ele>
        <time>2022-06-25T19:32:14Z</time>
      </trkpt>
      <trkpt lat="46.07978" lon="4.63004">
        <ele>360.8</ele>
        <time>2022-06-25T19:32:15Z</time>
      </trkpt>
      <trkpt lat="46.07976" lon="4.63001">
        <ele>360.8</ele>
        <time>2022-06-25T19:32:16Z</time>
      </trkpt>
      <trkpt lat="46.07974" lon="4.62998">
        <ele>361</ele>
        <time>2022-06-25T19:32:17Z</time>
      </trkpt>
      <trkpt lat="46.07972" lon="4.62995">
        <ele>361</ele>
        <time>2022-06-25T19:32:18Z</time>
      </trkpt>
      <trkpt lat="46.0797" lon="4.62991">
        <ele>361</ele>
        <time>2022-06-25T19:32:19Z</time>
      </trkpt>
      <trkpt lat="46.07968" lon="4.62988">
        <ele>361.2</ele>
        <time>2022-06-25T19:32:20Z</time>
      </trkpt>
      <trkpt lat="46.07966" lon="4.62984">
        <ele>361.2</ele>
        <time>2022-06-25T19:32:21Z</time>
      </trkpt>
      <trkpt lat="46.07964" lon="4.62981">
        <ele>361.2</ele>
        <time>2022-06-25T19:32:22Z</time>
      </trkpt>
      <trkpt lat="46.07962" lon="4.62978">
        <ele>361.6</ele>
        <time>2022-06-25T19:32:23Z</time>
      </trkpt>
      <trkpt lat="46.0796" lon="4.62975">
        <ele>361.6</ele>
        <time>2022-06-25T19:32:24Z</time>
      </trkpt>
      <trkpt lat="46.07959" lon="4.62972">
        <ele>361.8</ele>
        <time>2022-06-25T19:32:25Z</time>
      </trkpt>
      <trkpt lat="46.07957" lon="4.62969">
        <ele>361.8</ele>
        <time>2022-06-25T19:32:26Z</time>
      </trkpt>
      <trkpt lat="46.07955" lon="4.62965">
        <ele>361.8</ele>
        <time>2022-06-25T19:32:27Z</time>
      </trkpt>
      <trkpt lat="46.07953" lon="4.62963">
        <ele>361.8</ele>
        <time>2022-06-25T19:32:28Z</time>
      </trkpt>
      <trkpt lat="46.07951" lon="4.6296">
        <ele>361.8</ele>
        <time>2022-06-25T19:32:29Z</time>
      </trkpt>
      <trkpt lat="46.07949" lon="4.62957">
        <ele>362</ele>
        <time>2022-06-25T19:32:30Z</time>
      </trkpt>
      <trkpt lat="46.07947" lon="4.62954">
        <ele>362</ele>
        <time>2022-06-25T19:32:31Z</time>
      </trkpt>
      <trkpt lat="46.07945" lon="4.62952">
        <ele>362.2</ele>
        <time>2022-06-25T19:32:32Z</time>
      </trkpt>
      <trkpt lat="46.07943" lon="4.62949">
        <ele>362.2</ele>
        <time>2022-06-25T19:32:33Z</time>
      </trkpt>
      <trkpt lat="46.0794" lon="4.62946">
        <ele>362.2</ele>
        <time>2022-06-25T19:32:34Z</time>
      </trkpt>
      <trkpt lat="46.07938" lon="4.62944">
        <ele>362.4</ele>
        <time>2022-06-25T19:32:35Z</time>
      </trkpt>
      <trkpt lat="46.07936" lon="4.62941">
        <ele>362.4</ele>
        <time>2022-06-25T19:32:36Z</time>
      </trkpt>
      <trkpt lat="46.07934" lon="4.62939">
        <ele>362.4</ele>
        <time>2022-06-25T19:32:37Z</time>
      </trkpt>
      <trkpt lat="46.07931" lon="4.62937">
        <ele>362.4</ele>
        <time>2022-06-25T19:32:38Z</time>
      </trkpt>
      <trkpt lat="46.07929" lon="4.62935">
        <ele>362.4</ele>
        <time>2022-06-25T19:32:39Z</time>
      </trkpt>
      <trkpt lat="46.07927" lon="4.62934">
        <ele>362.4</ele>
        <time>2022-06-25T19:32:40Z</time>
      </trkpt>
      <trkpt lat="46.07925" lon="4.62932">
        <ele>362.4</ele>
        <time>2022-06-25T19:32:41Z</time>
      </trkpt>
      <trkpt lat="46.07923" lon="4.62931">
        <ele>362.4</ele>
        <time>2022-06-25T19:32:42Z</time>
      </trkpt>
      <trkpt lat="46.0792" lon="4.6293">
        <ele>362.4</ele>
        <time>2022-06-25T19:32:43Z</time>
      </trkpt>
      <trkpt lat="46.07917" lon="4.6293">
        <ele>362.4</ele>
        <time>2022-06-25T19:32:44Z</time>
      </trkpt>
      <trkpt lat="46.07913" lon="4.6293">
        <ele>362.4</ele>
        <time>2022-06-25T19:32:45Z</time>
      </trkpt>
      <trkpt lat="46.0791" lon="4.6293">
        <ele>362.4</ele>
        <time>2022-06-25T19:32:46Z</time>
      </trkpt>
      <trkpt lat="46.07906" lon="4.62931">
        <ele>362.4</ele>
        <time>2022-06-25T19:32:47Z</time>
      </trkpt>
      <trkpt lat="46.07902" lon="4.62932">
        <ele>362.4</ele>
        <time>2022-06-25T19:32:48Z</time>
      </trkpt>
      <trkpt lat="46.07898" lon="4.62933">
        <ele>362.4</ele>
        <time>2022-06-25T19:32:49Z</time>
      </trkpt>
      <trkpt lat="46.07893" lon="4.62934">
        <ele>362.4</ele>
        <time>2022-06-25T19:32:50Z</time>
      </trkpt>
      <trkpt lat="46.07889" lon="4.62934">
        <ele>362.4</ele>
        <time>2022-06-25T19:32:51Z</time>
      </trkpt>
      <trkpt lat="46.07885" lon="4.62935">
        <ele>362.4</ele>
        <time>2022-06-25T19:32:53Z</time>
      </trkpt>
      <trkpt lat="46.07881" lon="4.62935">
        <ele>362.4</ele>
        <time>2022-06-25T19:32:54Z</time>
      </trkpt>
      <trkpt lat="46.07876" lon="4.62936">
        <ele>362.6</ele>
        <time>2022-06-25T19:32:55Z</time>
      </trkpt>
      <trkpt lat="46.07872" lon="4.62937">
        <ele>362.6</ele>
        <time>2022-06-25T19:32:56Z</time>
      </trkpt>
      <trkpt lat="46.07868" lon="4.62938">
        <ele>362.6</ele>
        <time>2022-06-25T19:32:57Z</time>
      </trkpt>
      <trkpt lat="46.07865" lon="4.62939">
        <ele>363</ele>
        <time>2022-06-25T19:32:58Z</time>
      </trkpt>
      <trkpt lat="46.07861" lon="4.62939">
        <ele>363</ele>
        <time>2022-06-25T19:32:59Z</time>
      </trkpt>
      <trkpt lat="46.07857" lon="4.6294">
        <ele>363</ele>
        <time>2022-06-25T19:33:00Z</time>
      </trkpt>
      <trkpt lat="46.07853" lon="4.6294">
        <ele>363</ele>
        <time>2022-06-25T19:33:01Z</time>
      </trkpt>
      <trkpt lat="46.0785" lon="4.62941">
        <ele>363.2</ele>
        <time>2022-06-25T19:33:02Z</time>
      </trkpt>
      <trkpt lat="46.07846" lon="4.62942">
        <ele>363.2</ele>
        <time>2022-06-25T19:33:03Z</time>
      </trkpt>
      <trkpt lat="46.07842" lon="4.62943">
        <ele>363.4</ele>
        <time>2022-06-25T19:33:04Z</time>
      </trkpt>
      <trkpt lat="46.07839" lon="4.62943">
        <ele>363.4</ele>
        <time>2022-06-25T19:33:05Z</time>
      </trkpt>
      <trkpt lat="46.07835" lon="4.62944">
        <ele>363.4</ele>
        <time>2022-06-25T19:33:06Z</time>
      </trkpt>
      <trkpt lat="46.07832" lon="4.62944">
        <ele>363.4</ele>
        <time>2022-06-25T19:33:07Z</time>
      </trkpt>
      <trkpt lat="46.07828" lon="4.62945">
        <ele>363.6</ele>
        <time>2022-06-25T19:33:08Z</time>
      </trkpt>
      <trkpt lat="46.07825" lon="4.62945">
        <ele>363.6</ele>
        <time>2022-06-25T19:33:09Z</time>
      </trkpt>
      <trkpt lat="46.07821" lon="4.62945">
        <ele>363.6</ele>
        <time>2022-06-25T19:33:10Z</time>
      </trkpt>
      <trkpt lat="46.07818" lon="4.62946">
        <ele>364</ele>
        <time>2022-06-25T19:33:11Z</time>
      </trkpt>
      <trkpt lat="46.07815" lon="4.62946">
        <ele>364</ele>
        <time>2022-06-25T19:33:12Z</time>
      </trkpt>
      <trkpt lat="46.07812" lon="4.62947">
        <ele>364.2</ele>
        <time>2022-06-25T19:33:13Z</time>
      </trkpt>
      <trkpt lat="46.07809" lon="4.62948">
        <ele>364.2</ele>
        <time>2022-06-25T19:33:14Z</time>
      </trkpt>
      <trkpt lat="46.07806" lon="4.62949">
        <ele>364.4</ele>
        <time>2022-06-25T19:33:15Z</time>
      </trkpt>
      <trkpt lat="46.07804" lon="4.6295">
        <ele>364.4</ele>
        <time>2022-06-25T19:33:16Z</time>
      </trkpt>
      <trkpt lat="46.07801" lon="4.6295">
        <ele>364.8</ele>
        <time>2022-06-25T19:33:17Z</time>
      </trkpt>
      <trkpt lat="46.07798" lon="4.62951">
        <ele>365</ele>
        <time>2022-06-25T19:33:18Z</time>
      </trkpt>
      <trkpt lat="46.07795" lon="4.62952">
        <ele>365.2</ele>
        <time>2022-06-25T19:33:19Z</time>
      </trkpt>
      <trkpt lat="46.07792" lon="4.62953">
        <ele>365.2</ele>
        <time>2022-06-25T19:33:20Z</time>
      </trkpt>
      <trkpt lat="46.07789" lon="4.62954">
        <ele>365.4</ele>
        <time>2022-06-25T19:33:21Z</time>
      </trkpt>
      <trkpt lat="46.07786" lon="4.62955">
        <ele>365.4</ele>
        <time>2022-06-25T19:33:22Z</time>
      </trkpt>
      <trkpt lat="46.07783" lon="4.62955">
        <ele>365.4</ele>
        <time>2022-06-25T19:33:23Z</time>
      </trkpt>
      <trkpt lat="46.0778" lon="4.62955">
        <ele>365.6</ele>
        <time>2022-06-25T19:33:24Z</time>
      </trkpt>
      <trkpt lat="46.07776" lon="4.62956">
        <ele>365.6</ele>
        <time>2022-06-25T19:33:25Z</time>
      </trkpt>
      <trkpt lat="46.07773" lon="4.62956">
        <ele>365.8</ele>
        <time>2022-06-25T19:33:26Z</time>
      </trkpt>
      <trkpt lat="46.0777" lon="4.62956">
        <ele>365.8</ele>
        <time>2022-06-25T19:33:27Z</time>
      </trkpt>
      <trkpt lat="46.07767" lon="4.62957">
        <ele>366.2</ele>
        <time>2022-06-25T19:33:28Z</time>
      </trkpt>
      <trkpt lat="46.07764" lon="4.62957">
        <ele>366.2</ele>
        <time>2022-06-25T19:33:29Z</time>
      </trkpt>
      <trkpt lat="46.07761" lon="4.62958">
        <ele>366.6</ele>
        <time>2022-06-25T19:33:30Z</time>
      </trkpt>
      <trkpt lat="46.07758" lon="4.62958">
        <ele>366.6</ele>
        <time>2022-06-25T19:33:31Z</time>
      </trkpt>
      <trkpt lat="46.07756" lon="4.6296">
        <ele>366.8</ele>
        <time>2022-06-25T19:33:32Z</time>
      </trkpt>
      <trkpt lat="46.07753" lon="4.6296">
        <ele>366.8</ele>
        <time>2022-06-25T19:33:33Z</time>
      </trkpt>
      <trkpt lat="46.0775" lon="4.62961">
        <ele>367.2</ele>
        <time>2022-06-25T19:33:34Z</time>
      </trkpt>
      <trkpt lat="46.07747" lon="4.62962">
        <ele>367.2</ele>
        <time>2022-06-25T19:33:35Z</time>
      </trkpt>
      <trkpt lat="46.07745" lon="4.62962">
        <ele>367.6</ele>
        <time>2022-06-25T19:33:36Z</time>
      </trkpt>
      <trkpt lat="46.07742" lon="4.62962">
        <ele>367.6</ele>
        <time>2022-06-25T19:33:37Z</time>
      </trkpt>
      <trkpt lat="46.07739" lon="4.62962">
        <ele>367.8</ele>
        <time>2022-06-25T19:33:38Z</time>
      </trkpt>
      <trkpt lat="46.07736" lon="4.62962">
        <ele>367.8</ele>
        <time>2022-06-25T19:33:39Z</time>
      </trkpt>
      <trkpt lat="46.07734" lon="4.62963">
        <ele>368</ele>
        <time>2022-06-25T19:33:40Z</time>
      </trkpt>
      <trkpt lat="46.07732" lon="4.62964">
        <ele>368</ele>
        <time>2022-06-25T19:33:41Z</time>
      </trkpt>
      <trkpt lat="46.0773" lon="4.62965">
        <ele>368</ele>
        <time>2022-06-25T19:33:42Z</time>
      </trkpt>
      <trkpt lat="46.07728" lon="4.62965">
        <ele>368.2</ele>
        <time>2022-06-25T19:33:43Z</time>
      </trkpt>
      <trkpt lat="46.07726" lon="4.62966">
        <ele>368.2</ele>
        <time>2022-06-25T19:33:44Z</time>
      </trkpt>
      <trkpt lat="46.07723" lon="4.62966">
        <ele>368.2</ele>
        <time>2022-06-25T19:33:45Z</time>
      </trkpt>
      <trkpt lat="46.07722" lon="4.62967">
        <ele>368.2</ele>
        <time>2022-06-25T19:33:46Z</time>
      </trkpt>
      <trkpt lat="46.0772" lon="4.62968">
        <ele>368.2</ele>
        <time>2022-06-25T19:33:47Z</time>
      </trkpt>
      <trkpt lat="46.07718" lon="4.62969">
        <ele>368.4</ele>
        <time>2022-06-25T19:33:48Z</time>
      </trkpt>
      <trkpt lat="46.07716" lon="4.62971">
        <ele>368.4</ele>
        <time>2022-06-25T19:33:49Z</time>
      </trkpt>
      <trkpt lat="46.07714" lon="4.62972">
        <ele>368.4</ele>
        <time>2022-06-25T19:33:50Z</time>
      </trkpt>
      <trkpt lat="46.07712" lon="4.62974">
        <ele>368.4</ele>
        <time>2022-06-25T19:33:51Z</time>
      </trkpt>
      <trkpt lat="46.0771" lon="4.62975">
        <ele>368.4</ele>
        <time>2022-06-25T19:33:52Z</time>
      </trkpt>
      <trkpt lat="46.07708" lon="4.62977">
        <ele>368.4</ele>
        <time>2022-06-25T19:33:53Z</time>
      </trkpt>
      <trkpt lat="46.07706" lon="4.62979">
        <ele>368.4</ele>
        <time>2022-06-25T19:33:54Z</time>
      </trkpt>
      <trkpt lat="46.07704" lon="4.62983">
        <ele>368.4</ele>
        <time>2022-06-25T19:33:55Z</time>
      </trkpt>
      <trkpt lat="46.07702" lon="4.62986">
        <ele>368.4</ele>
        <time>2022-06-25T19:33:56Z</time>
      </trkpt>
      <trkpt lat="46.07701" lon="4.62988">
        <ele>368.4</ele>
        <time>2022-06-25T19:33:57Z</time>
      </trkpt>
      <trkpt lat="46.07699" lon="4.6299">
        <ele>368.2</ele>
        <time>2022-06-25T19:33:58Z</time>
      </trkpt>
      <trkpt lat="46.07697" lon="4.62993">
        <ele>368.2</ele>
        <time>2022-06-25T19:33:59Z</time>
      </trkpt>
      <trkpt lat="46.07695" lon="4.62995">
        <ele>368.2</ele>
        <time>2022-06-25T19:34:00Z</time>
      </trkpt>
      <trkpt lat="46.07694" lon="4.62997">
        <ele>368</ele>
        <time>2022-06-25T19:34:01Z</time>
      </trkpt>
      <trkpt lat="46.07693" lon="4.62998">
        <ele>368</ele>
        <time>2022-06-25T19:34:02Z</time>
      </trkpt>
      <trkpt lat="46.07691" lon="4.63">
        <ele>368</ele>
        <time>2022-06-25T19:34:03Z</time>
      </trkpt>
      <trkpt lat="46.0769" lon="4.63002">
        <ele>367.8</ele>
        <time>2022-06-25T19:34:04Z</time>
      </trkpt>
      <trkpt lat="46.07689" lon="4.63004">
        <ele>367.8</ele>
        <time>2022-06-25T19:34:05Z</time>
      </trkpt>
      <trkpt lat="46.07687" lon="4.63006">
        <ele>367.8</ele>
        <time>2022-06-25T19:34:06Z</time>
      </trkpt>
      <trkpt lat="46.07686" lon="4.63008">
        <ele>367.8</ele>
        <time>2022-06-25T19:34:07Z</time>
      </trkpt>
      <trkpt lat="46.07684" lon="4.6301">
        <ele>367.4</ele>
        <time>2022-06-25T19:34:08Z</time>
      </trkpt>
      <trkpt lat="46.07682" lon="4.63013">
        <ele>367.4</ele>
        <time>2022-06-25T19:34:09Z</time>
      </trkpt>
      <trkpt lat="46.0768" lon="4.63015">
        <ele>367.2</ele>
        <time>2022-06-25T19:34:10Z</time>
      </trkpt>
      <trkpt lat="46.07678" lon="4.63018">
        <ele>367.2</ele>
        <time>2022-06-25T19:34:11Z</time>
      </trkpt>
      <trkpt lat="46.07676" lon="4.6302">
        <ele>367</ele>
        <time>2022-06-25T19:34:12Z</time>
      </trkpt>
      <trkpt lat="46.07674" lon="4.63022">
        <ele>367</ele>
        <time>2022-06-25T19:34:13Z</time>
      </trkpt>
      <trkpt lat="46.07671" lon="4.63024">
        <ele>366.6</ele>
        <time>2022-06-25T19:34:14Z</time>
      </trkpt>
      <trkpt lat="46.07669" lon="4.63026">
        <ele>366.6</ele>
        <time>2022-06-25T19:34:15Z</time>
      </trkpt>
      <trkpt lat="46.07666" lon="4.63029">
        <ele>366.4</ele>
        <time>2022-06-25T19:34:16Z</time>
      </trkpt>
      <trkpt lat="46.07664" lon="4.63031">
        <ele>366.4</ele>
        <time>2022-06-25T19:34:17Z</time>
      </trkpt>
      <trkpt lat="46.07662" lon="4.63033">
        <ele>366</ele>
        <time>2022-06-25T19:34:18Z</time>
      </trkpt>
      <trkpt lat="46.07661" lon="4.63036">
        <ele>366</ele>
        <time>2022-06-25T19:34:19Z</time>
      </trkpt>
      <trkpt lat="46.07661" lon="4.63038">
        <ele>366</ele>
        <time>2022-06-25T19:34:20Z</time>
      </trkpt>
      <trkpt lat="46.0766" lon="4.6304">
        <ele>366</ele>
        <time>2022-06-25T19:34:21Z</time>
      </trkpt>
      <trkpt lat="46.0766" lon="4.63042">
        <ele>366</ele>
        <time>2022-06-25T19:34:22Z</time>
      </trkpt>
      <trkpt lat="46.07658" lon="4.63043">
        <ele>366</ele>
        <time>2022-06-25T19:34:23Z</time>
      </trkpt>
      <trkpt lat="46.07657" lon="4.63044">
        <ele>365.8</ele>
        <time>2022-06-25T19:34:24Z</time>
      </trkpt>
      <trkpt lat="46.07655" lon="4.63046">
        <ele>365.8</ele>
        <time>2022-06-25T19:34:25Z</time>
      </trkpt>
      <trkpt lat="46.07654" lon="4.63047">
        <ele>365.8</ele>
        <time>2022-06-25T19:34:26Z</time>
      </trkpt>
      <trkpt lat="46.07652" lon="4.63049">
        <ele>365.8</ele>
        <time>2022-06-25T19:34:27Z</time>
      </trkpt>
      <trkpt lat="46.0765" lon="4.63051">
        <ele>365.8</ele>
        <time>2022-06-25T19:34:28Z</time>
      </trkpt>
      <trkpt lat="46.07649" lon="4.63052">
        <ele>365.8</ele>
        <time>2022-06-25T19:34:29Z</time>
      </trkpt>
      <trkpt lat="46.07647" lon="4.63054">
        <ele>365.6</ele>
        <time>2022-06-25T19:34:30Z</time>
      </trkpt>
      <trkpt lat="46.07645" lon="4.63056">
        <ele>365.6</ele>
        <time>2022-06-25T19:34:31Z</time>
      </trkpt>
      <trkpt lat="46.07644" lon="4.63057">
        <ele>365.6</ele>
        <time>2022-06-25T19:34:32Z</time>
      </trkpt>
      <trkpt lat="46.07643" lon="4.63058">
        <ele>365.6</ele>
        <time>2022-06-25T19:34:33Z</time>
      </trkpt>
      <trkpt lat="46.07641" lon="4.63059">
        <ele>365.6</ele>
        <time>2022-06-25T19:34:34Z</time>
      </trkpt>
      <trkpt lat="46.07641" lon="4.63061">
        <ele>365.6</ele>
        <time>2022-06-25T19:34:35Z</time>
      </trkpt>
      <trkpt lat="46.0764" lon="4.63063">
        <ele>365.6</ele>
        <time>2022-06-25T19:34:36Z</time>
      </trkpt>
      <trkpt lat="46.07641" lon="4.63065">
        <ele>365.4</ele>
        <time>2022-06-25T19:34:37Z</time>
      </trkpt>
      <trkpt lat="46.07642" lon="4.63066">
        <ele>365.4</ele>
        <time>2022-06-25T19:34:38Z</time>
      </trkpt>
      <trkpt lat="46.07643" lon="4.63066">
        <ele>365.4</ele>
        <time>2022-06-25T19:34:39Z</time>
      </trkpt>
      <trkpt lat="46.07645" lon="4.63067">
        <ele>365.4</ele>
        <time>2022-06-25T19:34:40Z</time>
      </trkpt>
      <trkpt lat="46.07646" lon="4.63068">
        <ele>365.4</ele>
        <time>2022-06-25T19:34:41Z</time>
      </trkpt>
      <trkpt lat="46.07648" lon="4.63069">
        <ele>365.6</ele>
        <time>2022-06-25T19:34:42Z</time>
      </trkpt>
      <trkpt lat="46.0765" lon="4.63071">
        <ele>365.6</ele>
        <time>2022-06-25T19:34:43Z</time>
      </trkpt>
      <trkpt lat="46.07652" lon="4.63072">
        <ele>365.6</ele>
        <time>2022-06-25T19:34:44Z</time>
      </trkpt>
      <trkpt lat="46.07654" lon="4.63073">
        <ele>365.8</ele>
        <time>2022-06-25T19:34:45Z</time>
      </trkpt>
      <trkpt lat="46.07656" lon="4.63075">
        <ele>365.8</ele>
        <time>2022-06-25T19:34:46Z</time>
      </trkpt>
      <trkpt lat="46.07658" lon="4.63076">
        <ele>365.8</ele>
        <time>2022-06-25T19:34:47Z</time>
      </trkpt>
      <trkpt lat="46.0766" lon="4.63077">
        <ele>365.8</ele>
        <time>2022-06-25T19:34:48Z</time>
      </trkpt>
      <trkpt lat="46.07662" lon="4.63078">
        <ele>365.8</ele>
        <time>2022-06-25T19:34:49Z</time>
      </trkpt>
      <trkpt lat="46.07663" lon="4.63079">
        <ele>366</ele>
        <time>2022-06-25T19:34:50Z</time>
      </trkpt>
      <trkpt lat="46.07665" lon="4.6308">
        <ele>366</ele>
        <time>2022-06-25T19:34:51Z</time>
      </trkpt>
      <trkpt lat="46.07667" lon="4.63081">
        <ele>366</ele>
        <time>2022-06-25T19:34:52Z</time>
      </trkpt>
      <trkpt lat="46.0767" lon="4.63082">
        <ele>366</ele>
        <time>2022-06-25T19:34:53Z</time>
      </trkpt>
      <trkpt lat="46.07672" lon="4.63083">
        <ele>366</ele>
        <time>2022-06-25T19:34:54Z</time>
      </trkpt>
      <trkpt lat="46.07675" lon="4.63083">
        <ele>366</ele>
        <time>2022-06-25T19:34:55Z</time>
      </trkpt>
      <trkpt lat="46.07677" lon="4.63084">
        <ele>366</ele>
        <time>2022-06-25T19:34:56Z</time>
      </trkpt>
      <trkpt lat="46.07679" lon="4.63085">
        <ele>365.8</ele>
        <time>2022-06-25T19:34:57Z</time>
      </trkpt>
      <trkpt lat="46.0768" lon="4.63086">
        <ele>365.8</ele>
        <time>2022-06-25T19:34:58Z</time>
      </trkpt>
      <trkpt lat="46.07682" lon="4.63086">
        <ele>365.4</ele>
        <time>2022-06-25T19:34:59Z</time>
      </trkpt>
      <trkpt lat="46.07684" lon="4.63087">
        <ele>365.4</ele>
        <time>2022-06-25T19:35:00Z</time>
      </trkpt>
      <trkpt lat="46.07686" lon="4.63087">
        <ele>365.2</ele>
        <time>2022-06-25T19:35:01Z</time>
      </trkpt>
      <trkpt lat="46.07687" lon="4.63087">
        <ele>365.2</ele>
        <time>2022-06-25T19:35:02Z</time>
      </trkpt>
      <trkpt lat="46.07688" lon="4.63086">
        <ele>365.2</ele>
        <time>2022-06-25T19:35:03Z</time>
      </trkpt>
      <trkpt lat="46.0769" lon="4.63085">
        <ele>365.2</ele>
        <time>2022-06-25T19:35:04Z</time>
      </trkpt>
      <trkpt lat="46.07691" lon="4.63082">
        <ele>365.2</ele>
        <time>2022-06-25T19:35:05Z</time>
      </trkpt>
      <trkpt lat="46.07692" lon="4.6308">
        <ele>365.2</ele>
        <time>2022-06-25T19:35:06Z</time>
      </trkpt>
      <trkpt lat="46.07692" lon="4.63076">
        <ele>365.2</ele>
        <time>2022-06-25T19:35:07Z</time>
      </trkpt>
      <trkpt lat="46.07692" lon="4.63073">
        <ele>365.2</ele>
        <time>2022-06-25T19:35:08Z</time>
      </trkpt>
      <trkpt lat="46.07692" lon="4.6307">
        <ele>365.6</ele>
        <time>2022-06-25T19:35:09Z</time>
      </trkpt>
      <trkpt lat="46.07692" lon="4.63067">
        <ele>365.6</ele>
        <time>2022-06-25T19:35:10Z</time>
      </trkpt>
      <trkpt lat="46.07693" lon="4.63064">
        <ele>365.8</ele>
        <time>2022-06-25T19:35:11Z</time>
      </trkpt>
      <trkpt lat="46.07694" lon="4.63061">
        <ele>365.8</ele>
        <time>2022-06-25T19:35:12Z</time>
      </trkpt>
      <trkpt lat="46.07694" lon="4.63058">
        <ele>366.2</ele>
        <time>2022-06-25T19:35:13Z</time>
      </trkpt>
      <trkpt lat="46.07695" lon="4.63055">
        <ele>366.2</ele>
        <time>2022-06-25T19:35:14Z</time>
      </trkpt>
      <trkpt lat="46.07695" lon="4.63051">
        <ele>366.4</ele>
        <time>2022-06-25T19:35:15Z</time>
      </trkpt>
      <trkpt lat="46.07695" lon="4.63048">
        <ele>366.6</ele>
        <time>2022-06-25T19:35:16Z</time>
      </trkpt>
      <trkpt lat="46.07695" lon="4.63044">
        <ele>367</ele>
        <time>2022-06-25T19:35:17Z</time>
      </trkpt>
      <trkpt lat="46.07696" lon="4.6304">
        <ele>367</ele>
        <time>2022-06-25T19:35:18Z</time>
      </trkpt>
      <trkpt lat="46.07696" lon="4.63037">
        <ele>367.2</ele>
        <time>2022-06-25T19:35:19Z</time>
      </trkpt>
      <trkpt lat="46.07696" lon="4.63034">
        <ele>367.4</ele>
        <time>2022-06-25T19:35:20Z</time>
      </trkpt>
      <trkpt lat="46.07697" lon="4.63031">
        <ele>367.8</ele>
        <time>2022-06-25T19:35:21Z</time>
      </trkpt>
      <trkpt lat="46.07697" lon="4.63028">
        <ele>368</ele>
        <time>2022-06-25T19:35:22Z</time>
      </trkpt>
      <trkpt lat="46.07698" lon="4.63025">
        <ele>368.2</ele>
        <time>2022-06-25T19:35:23Z</time>
      </trkpt>
      <trkpt lat="46.07699" lon="4.63023">
        <ele>368.4</ele>
        <time>2022-06-25T19:35:24Z</time>
      </trkpt>
      <trkpt lat="46.07699" lon="4.6302">
        <ele>368.4</ele>
        <time>2022-06-25T19:35:25Z</time>
      </trkpt>
      <trkpt lat="46.07699" lon="4.63017">
        <ele>368.8</ele>
        <time>2022-06-25T19:35:26Z</time>
      </trkpt>
      <trkpt lat="46.077" lon="4.63014">
        <ele>368.8</ele>
        <time>2022-06-25T19:35:27Z</time>
      </trkpt>
      <trkpt lat="46.077" lon="4.6301">
        <ele>368.8</ele>
        <time>2022-06-25T19:35:28Z</time>
      </trkpt>
      <trkpt lat="46.077" lon="4.63007">
        <ele>369</ele>
        <time>2022-06-25T19:35:29Z</time>
      </trkpt>
      <trkpt lat="46.07701" lon="4.63003">
        <ele>369</ele>
        <time>2022-06-25T19:35:30Z</time>
      </trkpt>
      <trkpt lat="46.07702" lon="4.62999">
        <ele>369</ele>
        <time>2022-06-25T19:35:31Z</time>
      </trkpt>
      <trkpt lat="46.07704" lon="4.62995">
        <ele>369</ele>
        <time>2022-06-25T19:35:32Z</time>
      </trkpt>
      <trkpt lat="46.07705" lon="4.62992">
        <ele>369.2</ele>
        <time>2022-06-25T19:35:33Z</time>
      </trkpt>
      <trkpt lat="46.07707" lon="4.62988">
        <ele>369.2</ele>
        <time>2022-06-25T19:35:34Z</time>
      </trkpt>
      <trkpt lat="46.07709" lon="4.62986">
        <ele>369.2</ele>
        <time>2022-06-25T19:35:35Z</time>
      </trkpt>
      <trkpt lat="46.07711" lon="4.62984">
        <ele>369.6</ele>
        <time>2022-06-25T19:35:36Z</time>
      </trkpt>
      <trkpt lat="46.07713" lon="4.62982">
        <ele>369.6</ele>
        <time>2022-06-25T19:35:37Z</time>
      </trkpt>
      <trkpt lat="46.07715" lon="4.6298">
        <ele>369.8</ele>
        <time>2022-06-25T19:35:38Z</time>
      </trkpt>
      <trkpt lat="46.07717" lon="4.62979">
        <ele>369.8</ele>
        <time>2022-06-25T19:35:39Z</time>
      </trkpt>
      <trkpt lat="46.07719" lon="4.62977">
        <ele>370</ele>
        <time>2022-06-25T19:35:40Z</time>
      </trkpt>
      <trkpt lat="46.0772" lon="4.62977">
        <ele>370</ele>
        <time>2022-06-25T19:35:41Z</time>
      </trkpt>
      <trkpt lat="46.07722" lon="4.62977">
        <ele>370</ele>
        <time>2022-06-25T19:35:42Z</time>
      </trkpt>
      <trkpt lat="46.07723" lon="4.62977">
        <ele>370</ele>
        <time>2022-06-25T19:35:43Z</time>
      </trkpt>
      <trkpt lat="46.07725" lon="4.62977">
        <ele>370.2</ele>
        <time>2022-06-25T19:35:44Z</time>
      </trkpt>
      <trkpt lat="46.07726" lon="4.62978">
        <ele>370.2</ele>
        <time>2022-06-25T19:35:45Z</time>
      </trkpt>
      <trkpt lat="46.07728" lon="4.62979">
        <ele>370.2</ele>
        <time>2022-06-25T19:35:46Z</time>
      </trkpt>
      <trkpt lat="46.07728" lon="4.6298">
        <ele>370.2</ele>
        <time>2022-06-25T19:35:47Z</time>
      </trkpt>
      <trkpt lat="46.07729" lon="4.62982">
        <ele>370.2</ele>
        <time>2022-06-25T19:35:48Z</time>
      </trkpt>
      <trkpt lat="46.0773" lon="4.62984">
        <ele>370.2</ele>
        <time>2022-06-25T19:35:49Z</time>
      </trkpt>
      <trkpt lat="46.0773" lon="4.62986">
        <ele>370.4</ele>
        <time>2022-06-25T19:35:50Z</time>
      </trkpt>
      <trkpt lat="46.0773" lon="4.62988">
        <ele>370.4</ele>
        <time>2022-06-25T19:35:51Z</time>
      </trkpt>
      <trkpt lat="46.07731" lon="4.6299">
        <ele>370.4</ele>
        <time>2022-06-25T19:35:52Z</time>
      </trkpt>
      <trkpt lat="46.07731" lon="4.6299">
        <ele>370.4</ele>
        <time>2022-06-25T19:35:54Z</time>
      </trkpt>
      <trkpt lat="46.07729" lon="4.62986">
        <ele>371.6</ele>
        <time>2022-06-25T19:37:01Z</time>
      </trkpt>
      <trkpt lat="46.0773" lon="4.62984">
        <ele>371.6</ele>
        <time>2022-06-25T19:37:02Z</time>
      </trkpt>
      <trkpt lat="46.0773" lon="4.62981">
        <ele>371.6</ele>
        <time>2022-06-25T19:37:03Z</time>
      </trkpt>
      <trkpt lat="46.0773" lon="4.62978">
        <ele>371.6</ele>
        <time>2022-06-25T19:37:04Z</time>
      </trkpt>
      <trkpt lat="46.07731" lon="4.62975">
        <ele>371.6</ele>
        <time>2022-06-25T19:37:05Z</time>
      </trkpt>
      <trkpt lat="46.07732" lon="4.62973">
        <ele>371.6</ele>
        <time>2022-06-25T19:37:06Z</time>
      </trkpt>
      <trkpt lat="46.07734" lon="4.62971">
        <ele>371.6</ele>
        <time>2022-06-25T19:37:07Z</time>
      </trkpt>
      <trkpt lat="46.07736" lon="4.62969">
        <ele>371.6</ele>
        <time>2022-06-25T19:37:08Z</time>
      </trkpt>
      <trkpt lat="46.07739" lon="4.62968">
        <ele>371.6</ele>
        <time>2022-06-25T19:37:09Z</time>
      </trkpt>
      <trkpt lat="46.07742" lon="4.62967">
        <ele>371.4</ele>
        <time>2022-06-25T19:37:10Z</time>
      </trkpt>
      <trkpt lat="46.07745" lon="4.62967">
        <ele>371.4</ele>
        <time>2022-06-25T19:37:11Z</time>
      </trkpt>
      <trkpt lat="46.07748" lon="4.62966">
        <ele>371.4</ele>
        <time>2022-06-25T19:37:12Z</time>
      </trkpt>
      <trkpt lat="46.07752" lon="4.62965">
        <ele>371.4</ele>
        <time>2022-06-25T19:37:13Z</time>
      </trkpt>
      <trkpt lat="46.07756" lon="4.62965">
        <ele>371.4</ele>
        <time>2022-06-25T19:37:14Z</time>
      </trkpt>
      <trkpt lat="46.0776" lon="4.62964">
        <ele>371.2</ele>
        <time>2022-06-25T19:37:15Z</time>
      </trkpt>
      <trkpt lat="46.07764" lon="4.62963">
        <ele>371.2</ele>
        <time>2022-06-25T19:37:16Z</time>
      </trkpt>
      <trkpt lat="46.07769" lon="4.62962">
        <ele>370.8</ele>
        <time>2022-06-25T19:37:17Z</time>
      </trkpt>
      <trkpt lat="46.07774" lon="4.62961">
        <ele>370.8</ele>
        <time>2022-06-25T19:37:18Z</time>
      </trkpt>
      <trkpt lat="46.07779" lon="4.6296">
        <ele>370.6</ele>
        <time>2022-06-25T19:37:19Z</time>
      </trkpt>
      <trkpt lat="46.07785" lon="4.62959">
        <ele>370.4</ele>
        <time>2022-06-25T19:37:20Z</time>
      </trkpt>
      <trkpt lat="46.0779" lon="4.62958">
        <ele>370.2</ele>
        <time>2022-06-25T19:37:21Z</time>
      </trkpt>
      <trkpt lat="46.07796" lon="4.62957">
        <ele>370.2</ele>
        <time>2022-06-25T19:37:22Z</time>
      </trkpt>
      <trkpt lat="46.07801" lon="4.62956">
        <ele>369.8</ele>
        <time>2022-06-25T19:37:23Z</time>
      </trkpt>
      <trkpt lat="46.07805" lon="4.62955">
        <ele>369.8</ele>
        <time>2022-06-25T19:37:24Z</time>
      </trkpt>
      <trkpt lat="46.07809" lon="4.62955">
        <ele>369.4</ele>
        <time>2022-06-25T19:37:25Z</time>
      </trkpt>
      <trkpt lat="46.07811" lon="4.62955">
        <ele>369.2</ele>
        <time>2022-06-25T19:37:26Z</time>
      </trkpt>
      <trkpt lat="46.07813" lon="4.62954">
        <ele>369</ele>
        <time>2022-06-25T19:37:27Z</time>
      </trkpt>
      <trkpt lat="46.07814" lon="4.62952">
        <ele>369</ele>
        <time>2022-06-25T19:37:28Z</time>
      </trkpt>
      <trkpt lat="46.07814" lon="4.6295">
        <ele>368.6</ele>
        <time>2022-06-25T19:37:29Z</time>
      </trkpt>
      <trkpt lat="46.07812" lon="4.62949">
        <ele>368.6</ele>
        <time>2022-06-25T19:37:30Z</time>
      </trkpt>
      <trkpt lat="46.0781" lon="4.6295">
        <ele>368.6</ele>
        <time>2022-06-25T19:37:31Z</time>
      </trkpt>
      <trkpt lat="46.07808" lon="4.62951">
        <ele>368.6</ele>
        <time>2022-06-25T19:37:32Z</time>
      </trkpt>
      <trkpt lat="46.07806" lon="4.62952">
        <ele>368.6</ele>
        <time>2022-06-25T19:37:33Z</time>
      </trkpt>
      <trkpt lat="46.07804" lon="4.62953">
        <ele>368.6</ele>
        <time>2022-06-25T19:37:34Z</time>
      </trkpt>
      <trkpt lat="46.07802" lon="4.62953">
        <ele>368.6</ele>
        <time>2022-06-25T19:37:35Z</time>
      </trkpt>
      <trkpt lat="46.07799" lon="4.62954">
        <ele>368.6</ele>
        <time>2022-06-25T19:37:36Z</time>
      </trkpt>
      <trkpt lat="46.07797" lon="4.62955">
        <ele>368.6</ele>
        <time>2022-06-25T19:37:37Z</time>
      </trkpt>
      <trkpt lat="46.07794" lon="4.62956">
        <ele>368.6</ele>
        <time>2022-06-25T19:37:38Z</time>
      </trkpt>
      <trkpt lat="46.07791" lon="4.62957">
        <ele>368.8</ele>
        <time>2022-06-25T19:37:39Z</time>
      </trkpt>
      <trkpt lat="46.07788" lon="4.62957">
        <ele>368.8</ele>
        <time>2022-06-25T19:37:40Z</time>
      </trkpt>
      <trkpt lat="46.07785" lon="4.62958">
        <ele>368.8</ele>
        <time>2022-06-25T19:37:41Z</time>
      </trkpt>
      <trkpt lat="46.07782" lon="4.62958">
        <ele>369.2</ele>
        <time>2022-06-25T19:37:42Z</time>
      </trkpt>
      <trkpt lat="46.07779" lon="4.62958">
        <ele>369.2</ele>
        <time>2022-06-25T19:37:43Z</time>
      </trkpt>
      <trkpt lat="46.07776" lon="4.62959">
        <ele>369.6</ele>
        <time>2022-06-25T19:37:44Z</time>
      </trkpt>
      <trkpt lat="46.07774" lon="4.62961">
        <ele>369.6</ele>
        <time>2022-06-25T19:37:45Z</time>
      </trkpt>
      <trkpt lat="46.07773" lon="4.62962">
        <ele>370</ele>
        <time>2022-06-25T19:37:46Z</time>
      </trkpt>
      <trkpt lat="46.07774" lon="4.62962">
        <ele>370.2</ele>
        <time>2022-06-25T19:37:48Z</time>
      </trkpt>
      <trkpt lat="46.07774" lon="4.62962">
        <ele>370.2</ele>
        <time>2022-06-25T19:37:49Z</time>
      </trkpt>
      <trkpt lat="46.07774" lon="4.62962">
        <ele>370.4</ele>
        <time>2022-06-25T19:37:52Z</time>
      </trkpt>
      <trkpt lat="46.07775" lon="4.62962">
        <ele>370.4</ele>
        <time>2022-06-25T19:37:54Z</time>
      </trkpt>
      <trkpt lat="46.07775" lon="4.62963">
        <ele>370.4</ele>
        <time>2022-06-25T19:37:55Z</time>
      </trkpt>
      <trkpt lat="46.07775" lon="4.62963">
        <ele>370.6</ele>
        <time>2022-06-25T19:37:57Z</time>
      </trkpt>
      <trkpt lat="46.07776" lon="4.62963">
        <ele>370.6</ele>
        <time>2022-06-25T19:37:59Z</time>
      </trkpt>
      <trkpt lat="46.07776" lon="4.62963">
        <ele>370.6</ele>
        <time>2022-06-25T19:38:00Z</time>
      </trkpt>
      <trkpt lat="46.07776" lon="4.62963">
        <ele>370.6</ele>
        <time>2022-06-25T19:38:02Z</time>
      </trkpt>
      <trkpt lat="46.07777" lon="4.62963">
        <ele>370.6</ele>
        <time>2022-06-25T19:38:04Z</time>
      </trkpt>
      <trkpt lat="46.07777" lon="4.62963">
        <ele>370.6</ele>
        <time>2022-06-25T19:38:05Z</time>
      </trkpt>
      <trkpt lat="46.07779" lon="4.62962">
        <ele>370.6</ele>
        <time>2022-06-25T19:38:06Z</time>
      </trkpt>
      <trkpt lat="46.07782" lon="4.62961">
        <ele>370.6</ele>
        <time>2022-06-25T19:38:07Z</time>
      </trkpt>
      <trkpt lat="46.07785" lon="4.6296">
        <ele>370.6</ele>
        <time>2022-06-25T19:38:08Z</time>
      </trkpt>
      <trkpt lat="46.07788" lon="4.6296">
        <ele>370.6</ele>
        <time>2022-06-25T19:38:09Z</time>
      </trkpt>
      <trkpt lat="46.07792" lon="4.62959">
        <ele>370.6</ele>
        <time>2022-06-25T19:38:10Z</time>
      </trkpt>
      <trkpt lat="46.07796" lon="4.62959">
        <ele>370.6</ele>
        <time>2022-06-25T19:38:11Z</time>
      </trkpt>
      <trkpt lat="46.078" lon="4.62958">
        <ele>370.6</ele>
        <time>2022-06-25T19:38:12Z</time>
      </trkpt>
      <trkpt lat="46.07804" lon="4.62957">
        <ele>370.6</ele>
        <time>2022-06-25T19:38:13Z</time>
      </trkpt>
      <trkpt lat="46.07808" lon="4.62956">
        <ele>370.6</ele>
        <time>2022-06-25T19:38:14Z</time>
      </trkpt>
      <trkpt lat="46.07813" lon="4.62955">
        <ele>370.2</ele>
        <time>2022-06-25T19:38:15Z</time>
      </trkpt>
      <trkpt lat="46.07818" lon="4.62954">
        <ele>370</ele>
        <time>2022-06-25T19:38:16Z</time>
      </trkpt>
      <trkpt lat="46.07823" lon="4.62952">
        <ele>370</ele>
        <time>2022-06-25T19:38:17Z</time>
      </trkpt>
      <trkpt lat="46.07828" lon="4.62951">
        <ele>369.6</ele>
        <time>2022-06-25T19:38:18Z</time>
      </trkpt>
      <trkpt lat="46.07834" lon="4.6295">
        <ele>369.4</ele>
        <time>2022-06-25T19:38:19Z</time>
      </trkpt>
      <trkpt lat="46.07839" lon="4.62949">
        <ele>369.2</ele>
        <time>2022-06-25T19:38:20Z</time>
      </trkpt>
      <trkpt lat="46.07845" lon="4.62947">
        <ele>369.2</ele>
        <time>2022-06-25T19:38:21Z</time>
      </trkpt>
      <trkpt lat="46.0785" lon="4.62946">
        <ele>368.8</ele>
        <time>2022-06-25T19:38:22Z</time>
      </trkpt>
      <trkpt lat="46.07856" lon="4.62944">
        <ele>368.8</ele>
        <time>2022-06-25T19:38:23Z</time>
      </trkpt>
      <trkpt lat="46.07861" lon="4.62943">
        <ele>368.6</ele>
        <time>2022-06-25T19:38:24Z</time>
      </trkpt>
      <trkpt lat="46.07867" lon="4.62942">
        <ele>368.6</ele>
        <time>2022-06-25T19:38:25Z</time>
      </trkpt>
      <trkpt lat="46.07872" lon="4.62942">
        <ele>368.2</ele>
        <time>2022-06-25T19:38:26Z</time>
      </trkpt>
      <trkpt lat="46.07876" lon="4.62941">
        <ele>368.2</ele>
        <time>2022-06-25T19:38:27Z</time>
      </trkpt>
      <trkpt lat="46.0788" lon="4.62939">
        <ele>367.8</ele>
        <time>2022-06-25T19:38:28Z</time>
      </trkpt>
      <trkpt lat="46.07884" lon="4.62937">
        <ele>367.6</ele>
        <time>2022-06-25T19:38:29Z</time>
      </trkpt>
      <trkpt lat="46.07886" lon="4.62935">
        <ele>367.4</ele>
        <time>2022-06-25T19:38:30Z</time>
      </trkpt>
      <trkpt lat="46.07888" lon="4.62932">
        <ele>367.4</ele>
        <time>2022-06-25T19:38:31Z</time>
      </trkpt>
      <trkpt lat="46.0789" lon="4.62929">
        <ele>367.4</ele>
        <time>2022-06-25T19:38:32Z</time>
      </trkpt>
      <trkpt lat="46.07891" lon="4.62926">
        <ele>367.4</ele>
        <time>2022-06-25T19:38:33Z</time>
      </trkpt>
      <trkpt lat="46.07892" lon="4.62922">
        <ele>367</ele>
        <time>2022-06-25T19:38:34Z</time>
      </trkpt>
      <trkpt lat="46.07892" lon="4.62919">
        <ele>367</ele>
        <time>2022-06-25T19:38:35Z</time>
      </trkpt>
      <trkpt lat="46.07891" lon="4.62916">
        <ele>366.8</ele>
        <time>2022-06-25T19:38:36Z</time>
      </trkpt>
      <trkpt lat="46.0789" lon="4.62913">
        <ele>366.8</ele>
        <time>2022-06-25T19:38:37Z</time>
      </trkpt>
      <trkpt lat="46.07887" lon="4.6291">
        <ele>366.4</ele>
        <time>2022-06-25T19:38:38Z</time>
      </trkpt>
      <trkpt lat="46.07884" lon="4.62906">
        <ele>366.4</ele>
        <time>2022-06-25T19:38:39Z</time>
      </trkpt>
      <trkpt lat="46.07879" lon="4.62903">
        <ele>366.2</ele>
        <time>2022-06-25T19:38:40Z</time>
      </trkpt>
      <trkpt lat="46.07875" lon="4.62901">
        <ele>366.2</ele>
        <time>2022-06-25T19:38:41Z</time>
      </trkpt>
      <trkpt lat="46.07869" lon="4.62899">
        <ele>366</ele>
        <time>2022-06-25T19:38:42Z</time>
      </trkpt>
      <trkpt lat="46.07864" lon="4.62897">
        <ele>365.6</ele>
        <time>2022-06-25T19:38:43Z</time>
      </trkpt>
      <trkpt lat="46.07858" lon="4.62896">
        <ele>365.6</ele>
        <time>2022-06-25T19:38:44Z</time>
      </trkpt>
      <trkpt lat="46.07851" lon="4.62895">
        <ele>365.2</ele>
        <time>2022-06-25T19:38:45Z</time>
      </trkpt>
      <trkpt lat="46.07844" lon="4.62894">
        <ele>364.8</ele>
        <time>2022-06-25T19:38:46Z</time>
      </trkpt>
      <trkpt lat="46.07837" lon="4.62894">
        <ele>364.4</ele>
        <time>2022-06-25T19:38:47Z</time>
      </trkpt>
      <trkpt lat="46.0783" lon="4.62894">
        <ele>364.2</ele>
        <time>2022-06-25T19:38:48Z</time>
      </trkpt>
      <trkpt lat="46.07822" lon="4.62894">
        <ele>363.8</ele>
        <time>2022-06-25T19:38:49Z</time>
      </trkpt>
      <trkpt lat="46.07814" lon="4.62895">
        <ele>363.6</ele>
        <time>2022-06-25T19:38:50Z</time>
      </trkpt>
      <trkpt lat="46.07806" lon="4.62896">
        <ele>363.6</ele>
        <time>2022-06-25T19:38:51Z</time>
      </trkpt>
      <trkpt lat="46.07798" lon="4.62897">
        <ele>363</ele>
        <time>2022-06-25T19:38:52Z</time>
      </trkpt>
      <trkpt lat="46.0779" lon="4.62898">
        <ele>362.8</ele>
        <time>2022-06-25T19:38:53Z</time>
      </trkpt>
      <trkpt lat="46.07783" lon="4.62899">
        <ele>362.4</ele>
        <time>2022-06-25T19:38:54Z</time>
      </trkpt>
      <trkpt lat="46.07776" lon="4.629">
        <ele>361.8</ele>
        <time>2022-06-25T19:38:55Z</time>
      </trkpt>
      <trkpt lat="46.07769" lon="4.62901">
        <ele>361.2</ele>
        <time>2022-06-25T19:38:56Z</time>
      </trkpt>
      <trkpt lat="46.07763" lon="4.62902">
        <ele>360.8</ele>
        <time>2022-06-25T19:38:57Z</time>
      </trkpt>
      <trkpt lat="46.07758" lon="4.62903">
        <ele>360.4</ele>
        <time>2022-06-25T19:38:58Z</time>
      </trkpt>
      <trkpt lat="46.07752" lon="4.62903">
        <ele>359.8</ele>
        <time>2022-06-25T19:38:59Z</time>
      </trkpt>
      <trkpt lat="46.07747" lon="4.62904">
        <ele>359.4</ele>
        <time>2022-06-25T19:39:00Z</time>
      </trkpt>
      <trkpt lat="46.07742" lon="4.62905">
        <ele>359</ele>
        <time>2022-06-25T19:39:01Z</time>
      </trkpt>
      <trkpt lat="46.07737" lon="4.62905">
        <ele>358.6</ele>
        <time>2022-06-25T19:39:02Z</time>
      </trkpt>
      <trkpt lat="46.07733" lon="4.62906">
        <ele>358.4</ele>
        <time>2022-06-25T19:39:03Z</time>
      </trkpt>
      <trkpt lat="46.07728" lon="4.62906">
        <ele>358</ele>
        <time>2022-06-25T19:39:04Z</time>
      </trkpt>
      <trkpt lat="46.07725" lon="4.62906">
        <ele>357.6</ele>
        <time>2022-06-25T19:39:05Z</time>
      </trkpt>
      <trkpt lat="46.07722" lon="4.62906">
        <ele>357.4</ele>
        <time>2022-06-25T19:39:06Z</time>
      </trkpt>
      <trkpt lat="46.0772" lon="4.62906">
        <ele>357</ele>
        <time>2022-06-25T19:39:07Z</time>
      </trkpt>
      <trkpt lat="46.07718" lon="4.62906">
        <ele>356.8</ele>
        <time>2022-06-25T19:39:08Z</time>
      </trkpt>
      <trkpt lat="46.07717" lon="4.62907">
        <ele>356.6</ele>
        <time>2022-06-25T19:39:09Z</time>
      </trkpt>
      <trkpt lat="46.07717" lon="4.62907">
        <ele>356.4</ele>
        <time>2022-06-25T19:39:11Z</time>
      </trkpt>
      <trkpt lat="46.07715" lon="4.62908">
        <ele>356.4</ele>
        <time>2022-06-25T19:39:20Z</time>
      </trkpt>
      <trkpt lat="46.07713" lon="4.62908">
        <ele>356.4</ele>
        <time>2022-06-25T19:39:21Z</time>
      </trkpt>
      <trkpt lat="46.0771" lon="4.62909">
        <ele>356.2</ele>
        <time>2022-06-25T19:39:22Z</time>
      </trkpt>
      <trkpt lat="46.07707" lon="4.62909">
        <ele>356.2</ele>
        <time>2022-06-25T19:39:23Z</time>
      </trkpt>
      <trkpt lat="46.07703" lon="4.6291">
        <ele>356</ele>
        <time>2022-06-25T19:39:24Z</time>
      </trkpt>
      <trkpt lat="46.07699" lon="4.62911">
        <ele>356</ele>
        <time>2022-06-25T19:39:25Z</time>
      </trkpt>
      <trkpt lat="46.07694" lon="4.62912">
        <ele>355.6</ele>
        <time>2022-06-25T19:39:26Z</time>
      </trkpt>
      <trkpt lat="46.07689" lon="4.62913">
        <ele>355.6</ele>
        <time>2022-06-25T19:39:27Z</time>
      </trkpt>
      <trkpt lat="46.07683" lon="4.62913">
        <ele>355.2</ele>
        <time>2022-06-25T19:39:28Z</time>
      </trkpt>
      <trkpt lat="46.07677" lon="4.62914">
        <ele>355</ele>
        <time>2022-06-25T19:39:29Z</time>
      </trkpt>
      <trkpt lat="46.07671" lon="4.62915">
        <ele>354.8</ele>
        <time>2022-06-25T19:39:30Z</time>
      </trkpt>
      <trkpt lat="46.07664" lon="4.62915">
        <ele>354.6</ele>
        <time>2022-06-25T19:39:31Z</time>
      </trkpt>
      <trkpt lat="46.07657" lon="4.62916">
        <ele>354.2</ele>
        <time>2022-06-25T19:39:32Z</time>
      </trkpt>
      <trkpt lat="46.0765" lon="4.62917">
        <ele>354</ele>
        <time>2022-06-25T19:39:33Z</time>
      </trkpt>
      <trkpt lat="46.07642" lon="4.62918">
        <ele>353.8</ele>
        <time>2022-06-25T19:39:34Z</time>
      </trkpt>
      <trkpt lat="46.07635" lon="4.62919">
        <ele>353.4</ele>
        <time>2022-06-25T19:39:35Z</time>
      </trkpt>
      <trkpt lat="46.07627" lon="4.6292">
        <ele>353.2</ele>
        <time>2022-06-25T19:39:36Z</time>
      </trkpt>
      <trkpt lat="46.07619" lon="4.62922">
        <ele>352.8</ele>
        <time>2022-06-25T19:39:37Z</time>
      </trkpt>
      <trkpt lat="46.07611" lon="4.62925">
        <ele>352.4</ele>
        <time>2022-06-25T19:39:38Z</time>
      </trkpt>
      <trkpt lat="46.07603" lon="4.62929">
        <ele>352</ele>
        <time>2022-06-25T19:39:39Z</time>
      </trkpt>
      <trkpt lat="46.07595" lon="4.62934">
        <ele>351.6</ele>
        <time>2022-06-25T19:39:40Z</time>
      </trkpt>
      <trkpt lat="46.07586" lon="4.6294">
        <ele>351</ele>
        <time>2022-06-25T19:39:41Z</time>
      </trkpt>
      <trkpt lat="46.07577" lon="4.62947">
        <ele>350.6</ele>
        <time>2022-06-25T19:39:42Z</time>
      </trkpt>
      <trkpt lat="46.07568" lon="4.62954">
        <ele>350.2</ele>
        <time>2022-06-25T19:39:43Z</time>
      </trkpt>
      <trkpt lat="46.0756" lon="4.62962">
        <ele>349.8</ele>
        <time>2022-06-25T19:39:44Z</time>
      </trkpt>
      <trkpt lat="46.07552" lon="4.62969">
        <ele>349.6</ele>
        <time>2022-06-25T19:39:45Z</time>
      </trkpt>
      <trkpt lat="46.07543" lon="4.62978">
        <ele>349</ele>
        <time>2022-06-25T19:39:46Z</time>
      </trkpt>
      <trkpt lat="46.07537" lon="4.62987">
        <ele>348.6</ele>
        <time>2022-06-25T19:39:47Z</time>
      </trkpt>
      <trkpt lat="46.07529" lon="4.62996">
        <ele>348</ele>
        <time>2022-06-25T19:39:48Z</time>
      </trkpt>
      <trkpt lat="46.07523" lon="4.63006">
        <ele>347.4</ele>
        <time>2022-06-25T19:39:49Z</time>
      </trkpt>
      <trkpt lat="46.07515" lon="4.63016">
        <ele>347</ele>
        <time>2022-06-25T19:39:50Z</time>
      </trkpt>
      <trkpt lat="46.07508" lon="4.63027">
        <ele>346.4</ele>
        <time>2022-06-25T19:39:51Z</time>
      </trkpt>
      <trkpt lat="46.07501" lon="4.63036">
        <ele>345.8</ele>
        <time>2022-06-25T19:39:52Z</time>
      </trkpt>
      <trkpt lat="46.07493" lon="4.63047">
        <ele>345.4</ele>
        <time>2022-06-25T19:39:53Z</time>
      </trkpt>
      <trkpt lat="46.07486" lon="4.63058">
        <ele>344.8</ele>
        <time>2022-06-25T19:39:54Z</time>
      </trkpt>
      <trkpt lat="46.07478" lon="4.63069">
        <ele>344.2</ele>
        <time>2022-06-25T19:39:55Z</time>
      </trkpt>
      <trkpt lat="46.07471" lon="4.6308">
        <ele>343.4</ele>
        <time>2022-06-25T19:39:56Z</time>
      </trkpt>
      <trkpt lat="46.07463" lon="4.63089">
        <ele>343</ele>
        <time>2022-06-25T19:39:57Z</time>
      </trkpt>
      <trkpt lat="46.07456" lon="4.63099">
        <ele>342.2</ele>
        <time>2022-06-25T19:39:58Z</time>
      </trkpt>
      <trkpt lat="46.07449" lon="4.63107">
        <ele>341.6</ele>
        <time>2022-06-25T19:39:59Z</time>
      </trkpt>
      <trkpt lat="46.07443" lon="4.63115">
        <ele>340.8</ele>
        <time>2022-06-25T19:40:00Z</time>
      </trkpt>
      <trkpt lat="46.07438" lon="4.63123">
        <ele>340.2</ele>
        <time>2022-06-25T19:40:01Z</time>
      </trkpt>
      <trkpt lat="46.07432" lon="4.63131">
        <ele>339.4</ele>
        <time>2022-06-25T19:40:02Z</time>
      </trkpt>
      <trkpt lat="46.07427" lon="4.63139">
        <ele>338.8</ele>
        <time>2022-06-25T19:40:03Z</time>
      </trkpt>
      <trkpt lat="46.07421" lon="4.63147">
        <ele>338.2</ele>
        <time>2022-06-25T19:40:04Z</time>
      </trkpt>
      <trkpt lat="46.07415" lon="4.63154">
        <ele>337.6</ele>
        <time>2022-06-25T19:40:05Z</time>
      </trkpt>
      <trkpt lat="46.07409" lon="4.63161">
        <ele>337</ele>
        <time>2022-06-25T19:40:06Z</time>
      </trkpt>
      <trkpt lat="46.07403" lon="4.63169">
        <ele>336.4</ele>
        <time>2022-06-25T19:40:07Z</time>
      </trkpt>
      <trkpt lat="46.07397" lon="4.63177">
        <ele>336</ele>
        <time>2022-06-25T19:40:08Z</time>
      </trkpt>
      <trkpt lat="46.07391" lon="4.63185">
        <ele>335.6</ele>
        <time>2022-06-25T19:40:09Z</time>
      </trkpt>
      <trkpt lat="46.07385" lon="4.63192">
        <ele>335</ele>
        <time>2022-06-25T19:40:10Z</time>
      </trkpt>
      <trkpt lat="46.0738" lon="4.632">
        <ele>334.6</ele>
        <time>2022-06-25T19:40:11Z</time>
      </trkpt>
      <trkpt lat="46.07374" lon="4.63207">
        <ele>334</ele>
        <time>2022-06-25T19:40:12Z</time>
      </trkpt>
      <trkpt lat="46.07369" lon="4.63214">
        <ele>333.6</ele>
        <time>2022-06-25T19:40:13Z</time>
      </trkpt>
      <trkpt lat="46.07363" lon="4.63221">
        <ele>333.2</ele>
        <time>2022-06-25T19:40:14Z</time>
      </trkpt>
      <trkpt lat="46.07357" lon="4.63229">
        <ele>332.6</ele>
        <time>2022-06-25T19:40:15Z</time>
      </trkpt>
      <trkpt lat="46.07351" lon="4.63237">
        <ele>332.2</ele>
        <time>2022-06-25T19:40:16Z</time>
      </trkpt>
      <trkpt lat="46.07345" lon="4.63245">
        <ele>331.8</ele>
        <time>2022-06-25T19:40:17Z</time>
      </trkpt>
      <trkpt lat="46.07338" lon="4.63253">
        <ele>331.4</ele>
        <time>2022-06-25T19:40:18Z</time>
      </trkpt>
      <trkpt lat="46.07332" lon="4.63262">
        <ele>331</ele>
        <time>2022-06-25T19:40:19Z</time>
      </trkpt>
      <trkpt lat="46.07325" lon="4.6327">
        <ele>330.6</ele>
        <time>2022-06-25T19:40:20Z</time>
      </trkpt>
      <trkpt lat="46.07318" lon="4.63279">
        <ele>330</ele>
        <time>2022-06-25T19:40:21Z</time>
      </trkpt>
      <trkpt lat="46.07311" lon="4.63288">
        <ele>329.6</ele>
        <time>2022-06-25T19:40:22Z</time>
      </trkpt>
      <trkpt lat="46.07305" lon="4.63297">
        <ele>329.2</ele>
        <time>2022-06-25T19:40:23Z</time>
      </trkpt>
      <trkpt lat="46.07298" lon="4.63306">
        <ele>328.6</ele>
        <time>2022-06-25T19:40:24Z</time>
      </trkpt>
      <trkpt lat="46.07291" lon="4.63316">
        <ele>328.2</ele>
        <time>2022-06-25T19:40:25Z</time>
      </trkpt>
      <trkpt lat="46.07284" lon="4.63324">
        <ele>327.6</ele>
        <time>2022-06-25T19:40:26Z</time>
      </trkpt>
      <trkpt lat="46.07277" lon="4.63333">
        <ele>327</ele>
        <time>2022-06-25T19:40:27Z</time>
      </trkpt>
      <trkpt lat="46.0727" lon="4.63341">
        <ele>326.4</ele>
        <time>2022-06-25T19:40:28Z</time>
      </trkpt>
      <trkpt lat="46.07264" lon="4.63349">
        <ele>326</ele>
        <time>2022-06-25T19:40:29Z</time>
      </trkpt>
      <trkpt lat="46.07257" lon="4.63358">
        <ele>325.4</ele>
        <time>2022-06-25T19:40:30Z</time>
      </trkpt>
      <trkpt lat="46.0725" lon="4.63368">
        <ele>325</ele>
        <time>2022-06-25T19:40:31Z</time>
      </trkpt>
      <trkpt lat="46.07244" lon="4.63377">
        <ele>324.4</ele>
        <time>2022-06-25T19:40:32Z</time>
      </trkpt>
      <trkpt lat="46.07237" lon="4.63385">
        <ele>323.8</ele>
        <time>2022-06-25T19:40:33Z</time>
      </trkpt>
      <trkpt lat="46.0723" lon="4.63395">
        <ele>322.8</ele>
        <time>2022-06-25T19:40:35Z</time>
      </trkpt>
      <trkpt lat="46.07223" lon="4.63405">
        <ele>322.4</ele>
        <time>2022-06-25T19:40:36Z</time>
      </trkpt>
      <trkpt lat="46.07216" lon="4.63414">
        <ele>322.2</ele>
        <time>2022-06-25T19:40:37Z</time>
      </trkpt>
      <trkpt lat="46.07209" lon="4.63422">
        <ele>321.8</ele>
        <time>2022-06-25T19:40:38Z</time>
      </trkpt>
      <trkpt lat="46.07202" lon="4.6343">
        <ele>321.4</ele>
        <time>2022-06-25T19:40:39Z</time>
      </trkpt>
      <trkpt lat="46.07195" lon="4.63439">
        <ele>320.8</ele>
        <time>2022-06-25T19:40:40Z</time>
      </trkpt>
      <trkpt lat="46.07189" lon="4.63447">
        <ele>320.4</ele>
        <time>2022-06-25T19:40:41Z</time>
      </trkpt>
      <trkpt lat="46.07183" lon="4.63455">
        <ele>320</ele>
        <time>2022-06-25T19:40:42Z</time>
      </trkpt>
      <trkpt lat="46.07178" lon="4.63463">
        <ele>319.8</ele>
        <time>2022-06-25T19:40:43Z</time>
      </trkpt>
      <trkpt lat="46.07173" lon="4.63469">
        <ele>319.4</ele>
        <time>2022-06-25T19:40:44Z</time>
      </trkpt>
      <trkpt lat="46.07168" lon="4.63476">
        <ele>319.2</ele>
        <time>2022-06-25T19:40:45Z</time>
      </trkpt>
      <trkpt lat="46.07163" lon="4.63482">
        <ele>318.8</ele>
        <time>2022-06-25T19:40:46Z</time>
      </trkpt>
      <trkpt lat="46.07158" lon="4.63488">
        <ele>318.4</ele>
        <time>2022-06-25T19:40:47Z</time>
      </trkpt>
      <trkpt lat="46.07154" lon="4.63493">
        <ele>318.2</ele>
        <time>2022-06-25T19:40:48Z</time>
      </trkpt>
      <trkpt lat="46.0715" lon="4.63498">
        <ele>318</ele>
        <time>2022-06-25T19:40:49Z</time>
      </trkpt>
      <trkpt lat="46.07146" lon="4.63503">
        <ele>317.8</ele>
        <time>2022-06-25T19:40:50Z</time>
      </trkpt>
      <trkpt lat="46.07143" lon="4.63507">
        <ele>317.6</ele>
        <time>2022-06-25T19:40:51Z</time>
      </trkpt>
      <trkpt lat="46.0714" lon="4.63511">
        <ele>317.4</ele>
        <time>2022-06-25T19:40:52Z</time>
      </trkpt>
      <trkpt lat="46.07137" lon="4.63514">
        <ele>317</ele>
        <time>2022-06-25T19:40:53Z</time>
      </trkpt>
      <trkpt lat="46.07135" lon="4.63517">
        <ele>316.8</ele>
        <time>2022-06-25T19:40:54Z</time>
      </trkpt>
      <trkpt lat="46.07132" lon="4.6352">
        <ele>316.8</ele>
        <time>2022-06-25T19:40:55Z</time>
      </trkpt>
      <trkpt lat="46.0713" lon="4.63524">
        <ele>316.4</ele>
        <time>2022-06-25T19:40:56Z</time>
      </trkpt>
      <trkpt lat="46.07127" lon="4.63527">
        <ele>316.4</ele>
        <time>2022-06-25T19:40:57Z</time>
      </trkpt>
      <trkpt lat="46.07125" lon="4.63529">
        <ele>316.2</ele>
        <time>2022-06-25T19:40:58Z</time>
      </trkpt>
      <trkpt lat="46.07123" lon="4.63532">
        <ele>316.2</ele>
        <time>2022-06-25T19:40:59Z</time>
      </trkpt>
      <trkpt lat="46.0712" lon="4.63535">
        <ele>316</ele>
        <time>2022-06-25T19:41:00Z</time>
      </trkpt>
      <trkpt lat="46.07118" lon="4.63538">
        <ele>316</ele>
        <time>2022-06-25T19:41:01Z</time>
      </trkpt>
      <trkpt lat="46.07116" lon="4.6354">
        <ele>315.8</ele>
        <time>2022-06-25T19:41:02Z</time>
      </trkpt>
      <trkpt lat="46.07115" lon="4.63542">
        <ele>315.8</ele>
        <time>2022-06-25T19:41:03Z</time>
      </trkpt>
      <trkpt lat="46.07113" lon="4.63544">
        <ele>315.8</ele>
        <time>2022-06-25T19:41:04Z</time>
      </trkpt>
      <trkpt lat="46.07112" lon="4.63547">
        <ele>315.4</ele>
        <time>2022-06-25T19:41:05Z</time>
      </trkpt>
      <trkpt lat="46.07111" lon="4.63549">
        <ele>315.4</ele>
        <time>2022-06-25T19:41:06Z</time>
      </trkpt>
      <trkpt lat="46.07108" lon="4.63551">
        <ele>315.4</ele>
        <time>2022-06-25T19:41:07Z</time>
      </trkpt>
      <trkpt lat="46.07106" lon="4.63553">
        <ele>315.4</ele>
        <time>2022-06-25T19:41:08Z</time>
      </trkpt>
      <trkpt lat="46.07103" lon="4.63556">
        <ele>315.4</ele>
        <time>2022-06-25T19:41:09Z</time>
      </trkpt>
      <trkpt lat="46.071" lon="4.63558">
        <ele>315.2</ele>
        <time>2022-06-25T19:41:10Z</time>
      </trkpt>
      <trkpt lat="46.07097" lon="4.63561">
        <ele>315.2</ele>
        <time>2022-06-25T19:41:11Z</time>
      </trkpt>
      <trkpt lat="46.07094" lon="4.63564">
        <ele>315.2</ele>
        <time>2022-06-25T19:41:12Z</time>
      </trkpt>
      <trkpt lat="46.07091" lon="4.63566">
        <ele>315.2</ele>
        <time>2022-06-25T19:41:13Z</time>
      </trkpt>
      <trkpt lat="46.07088" lon="4.63568">
        <ele>315.2</ele>
        <time>2022-06-25T19:41:14Z</time>
      </trkpt>
      <trkpt lat="46.07084" lon="4.63569">
        <ele>315</ele>
        <time>2022-06-25T19:41:15Z</time>
      </trkpt>
      <trkpt lat="46.07081" lon="4.6357">
        <ele>315</ele>
        <time>2022-06-25T19:41:16Z</time>
      </trkpt>
      <trkpt lat="46.07078" lon="4.6357">
        <ele>314.8</ele>
        <time>2022-06-25T19:41:17Z</time>
      </trkpt>
      <trkpt lat="46.07076" lon="4.63571">
        <ele>314.8</ele>
        <time>2022-06-25T19:41:18Z</time>
      </trkpt>
      <trkpt lat="46.07075" lon="4.63573">
        <ele>314.8</ele>
        <time>2022-06-25T19:41:19Z</time>
      </trkpt>
      <trkpt lat="46.07075" lon="4.63575">
        <ele>314.8</ele>
        <time>2022-06-25T19:41:20Z</time>
      </trkpt>
      <trkpt lat="46.07076" lon="4.63575">
        <ele>314.8</ele>
        <time>2022-06-25T19:41:21Z</time>
      </trkpt>
      <trkpt lat="46.07078" lon="4.63575">
        <ele>314.8</ele>
        <time>2022-06-25T19:41:22Z</time>
      </trkpt>
      <trkpt lat="46.0708" lon="4.63574">
        <ele>314.8</ele>
        <time>2022-06-25T19:41:23Z</time>
      </trkpt>
      <trkpt lat="46.07081" lon="4.63573">
        <ele>314.8</ele>
        <time>2022-06-25T19:41:24Z</time>
      </trkpt>
      <trkpt lat="46.07083" lon="4.63572">
        <ele>314.8</ele>
        <time>2022-06-25T19:41:25Z</time>
      </trkpt>
      <trkpt lat="46.07085" lon="4.63571">
        <ele>315</ele>
        <time>2022-06-25T19:41:26Z</time>
      </trkpt>
      <trkpt lat="46.07088" lon="4.6357">
        <ele>315</ele>
        <time>2022-06-25T19:41:27Z</time>
      </trkpt>
      <trkpt lat="46.0709" lon="4.63568">
        <ele>315.2</ele>
        <time>2022-06-25T19:41:28Z</time>
      </trkpt>
      <trkpt lat="46.07093" lon="4.63567">
        <ele>315.2</ele>
        <time>2022-06-25T19:41:29Z</time>
      </trkpt>
      <trkpt lat="46.07096" lon="4.63565">
        <ele>315.2</ele>
        <time>2022-06-25T19:41:30Z</time>
      </trkpt>
      <trkpt lat="46.07099" lon="4.63563">
        <ele>315.6</ele>
        <time>2022-06-25T19:41:31Z</time>
      </trkpt>
      <trkpt lat="46.07101" lon="4.63561">
        <ele>315.6</ele>
        <time>2022-06-25T19:41:32Z</time>
      </trkpt>
      <trkpt lat="46.07104" lon="4.63558">
        <ele>315.6</ele>
        <time>2022-06-25T19:41:33Z</time>
      </trkpt>
      <trkpt lat="46.07106" lon="4.63555">
        <ele>315.6</ele>
        <time>2022-06-25T19:41:34Z</time>
      </trkpt>
      <trkpt lat="46.07109" lon="4.63552">
        <ele>315.8</ele>
        <time>2022-06-25T19:41:35Z</time>
      </trkpt>
      <trkpt lat="46.07112" lon="4.63549">
        <ele>315.8</ele>
        <time>2022-06-25T19:41:36Z</time>
      </trkpt>
      <trkpt lat="46.07115" lon="4.63545">
        <ele>315.8</ele>
        <time>2022-06-25T19:41:37Z</time>
      </trkpt>
      <trkpt lat="46.07118" lon="4.63542">
        <ele>316</ele>
        <time>2022-06-25T19:41:38Z</time>
      </trkpt>
      <trkpt lat="46.07121" lon="4.63538">
        <ele>316</ele>
        <time>2022-06-25T19:41:39Z</time>
      </trkpt>
      <trkpt lat="46.07124" lon="4.63535">
        <ele>316</ele>
        <time>2022-06-25T19:41:40Z</time>
      </trkpt>
      <trkpt lat="46.07127" lon="4.63532">
        <ele>316</ele>
        <time>2022-06-25T19:41:41Z</time>
      </trkpt>
      <trkpt lat="46.07129" lon="4.63528">
        <ele>316.2</ele>
        <time>2022-06-25T19:41:42Z</time>
      </trkpt>
      <trkpt lat="46.07132" lon="4.63524">
        <ele>316.2</ele>
        <time>2022-06-25T19:41:43Z</time>
      </trkpt>
      <trkpt lat="46.07135" lon="4.63521">
        <ele>316.4</ele>
        <time>2022-06-25T19:41:44Z</time>
      </trkpt>
      <trkpt lat="46.07138" lon="4.63517">
        <ele>316.4</ele>
        <time>2022-06-25T19:41:45Z</time>
      </trkpt>
      <trkpt lat="46.07141" lon="4.63514">
        <ele>316.4</ele>
        <time>2022-06-25T19:41:46Z</time>
      </trkpt>
      <trkpt lat="46.07144" lon="4.6351">
        <ele>316.6</ele>
        <time>2022-06-25T19:41:47Z</time>
      </trkpt>
      <trkpt lat="46.07146" lon="4.63507">
        <ele>316.6</ele>
        <time>2022-06-25T19:41:48Z</time>
      </trkpt>
      <trkpt lat="46.07149" lon="4.63503">
        <ele>316.6</ele>
        <time>2022-06-25T19:41:49Z</time>
      </trkpt>
      <trkpt lat="46.07151" lon="4.635">
        <ele>316.6</ele>
        <time>2022-06-25T19:41:50Z</time>
      </trkpt>
      <trkpt lat="46.07153" lon="4.63498">
        <ele>316.8</ele>
        <time>2022-06-25T19:41:51Z</time>
      </trkpt>
      <trkpt lat="46.07154" lon="4.63496">
        <ele>316.8</ele>
        <time>2022-06-25T19:41:52Z</time>
      </trkpt>
      <trkpt lat="46.07156" lon="4.63495">
        <ele>316.8</ele>
        <time>2022-06-25T19:41:53Z</time>
      </trkpt>
      <trkpt lat="46.07157" lon="4.63493">
        <ele>316.8</ele>
        <time>2022-06-25T19:41:54Z</time>
      </trkpt>
      <trkpt lat="46.07157" lon="4.63491">
        <ele>316.8</ele>
        <time>2022-06-25T19:41:55Z</time>
      </trkpt>
      <trkpt lat="46.07158" lon="4.63489">
        <ele>317.2</ele>
        <time>2022-06-25T19:41:56Z</time>
      </trkpt>
      <trkpt lat="46.07158" lon="4.63487">
        <ele>317.2</ele>
        <time>2022-06-25T19:41:57Z</time>
      </trkpt>
      <trkpt lat="46.07158" lon="4.63484">
        <ele>317.2</ele>
        <time>2022-06-25T19:41:58Z</time>
      </trkpt>
      <trkpt lat="46.07157" lon="4.63481">
        <ele>317.2</ele>
        <time>2022-06-25T19:41:59Z</time>
      </trkpt>
      <trkpt lat="46.07156" lon="4.63477">
        <ele>317.2</ele>
        <time>2022-06-25T19:42:00Z</time>
      </trkpt>
      <trkpt lat="46.07154" lon="4.63473">
        <ele>317.2</ele>
        <time>2022-06-25T19:42:01Z</time>
      </trkpt>
      <trkpt lat="46.07153" lon="4.63468">
        <ele>317.2</ele>
        <time>2022-06-25T19:42:02Z</time>
      </trkpt>
      <trkpt lat="46.07151" lon="4.63463">
        <ele>317</ele>
        <time>2022-06-25T19:42:03Z</time>
      </trkpt>
      <trkpt lat="46.07149" lon="4.63457">
        <ele>317</ele>
        <time>2022-06-25T19:42:04Z</time>
      </trkpt>
      <trkpt lat="46.07147" lon="4.6345">
        <ele>316.6</ele>
        <time>2022-06-25T19:42:05Z</time>
      </trkpt>
      <trkpt lat="46.07145" lon="4.63444">
        <ele>316.6</ele>
        <time>2022-06-25T19:42:06Z</time>
      </trkpt>
      <trkpt lat="46.07143" lon="4.63436">
        <ele>316</ele>
        <time>2022-06-25T19:42:07Z</time>
      </trkpt>
      <trkpt lat="46.0714" lon="4.63429">
        <ele>315.8</ele>
        <time>2022-06-25T19:42:08Z</time>
      </trkpt>
      <trkpt lat="46.07138" lon="4.63421">
        <ele>315.6</ele>
        <time>2022-06-25T19:42:09Z</time>
      </trkpt>
      <trkpt lat="46.07136" lon="4.63412">
        <ele>315.6</ele>
        <time>2022-06-25T19:42:10Z</time>
      </trkpt>
      <trkpt lat="46.07133" lon="4.63403">
        <ele>315.2</ele>
        <time>2022-06-25T19:42:11Z</time>
      </trkpt>
      <trkpt lat="46.07131" lon="4.63394">
        <ele>314.8</ele>
        <time>2022-06-25T19:42:12Z</time>
      </trkpt>
      <trkpt lat="46.07128" lon="4.63384">
        <ele>314.4</ele>
        <time>2022-06-25T19:42:13Z</time>
      </trkpt>
      <trkpt lat="46.07125" lon="4.63375">
        <ele>313.8</ele>
        <time>2022-06-25T19:42:14Z</time>
      </trkpt>
      <trkpt lat="46.07122" lon="4.63365">
        <ele>313.8</ele>
        <time>2022-06-25T19:42:15Z</time>
      </trkpt>
      <trkpt lat="46.07119" lon="4.63355">
        <ele>313.4</ele>
        <time>2022-06-25T19:42:16Z</time>
      </trkpt>
      <trkpt lat="46.07115" lon="4.63345">
        <ele>313</ele>
        <time>2022-06-25T19:42:17Z</time>
      </trkpt>
      <trkpt lat="46.07112" lon="4.63334">
        <ele>312.6</ele>
        <time>2022-06-25T19:42:18Z</time>
      </trkpt>
      <trkpt lat="46.07109" lon="4.63323">
        <ele>312.2</ele>
        <time>2022-06-25T19:42:19Z</time>
      </trkpt>
      <trkpt lat="46.07106" lon="4.63312">
        <ele>311.8</ele>
        <time>2022-06-25T19:42:20Z</time>
      </trkpt>
      <trkpt lat="46.07103" lon="4.63301">
        <ele>311.6</ele>
        <time>2022-06-25T19:42:21Z</time>
      </trkpt>
      <trkpt lat="46.071" lon="4.6329">
        <ele>311.2</ele>
        <time>2022-06-25T19:42:22Z</time>
      </trkpt>
      <trkpt lat="46.07097" lon="4.63279">
        <ele>310.8</ele>
        <time>2022-06-25T19:42:23Z</time>
      </trkpt>
      <trkpt lat="46.07093" lon="4.63268">
        <ele>310.2</ele>
        <time>2022-06-25T19:42:24Z</time>
      </trkpt>
      <trkpt lat="46.0709" lon="4.63256">
        <ele>309.8</ele>
        <time>2022-06-25T19:42:25Z</time>
      </trkpt>
      <trkpt lat="46.07087" lon="4.63245">
        <ele>309.4</ele>
        <time>2022-06-25T19:42:26Z</time>
      </trkpt>
      <trkpt lat="46.07085" lon="4.63232">
        <ele>309</ele>
        <time>2022-06-25T19:42:27Z</time>
      </trkpt>
      <trkpt lat="46.07083" lon="4.6322">
        <ele>308.8</ele>
        <time>2022-06-25T19:42:28Z</time>
      </trkpt>
      <trkpt lat="46.07081" lon="4.63207">
        <ele>308.8</ele>
        <time>2022-06-25T19:42:29Z</time>
      </trkpt>
      <trkpt lat="46.0708" lon="4.63195">
        <ele>308.6</ele>
        <time>2022-06-25T19:42:30Z</time>
      </trkpt>
      <trkpt lat="46.0708" lon="4.63182">
        <ele>308</ele>
        <time>2022-06-25T19:42:31Z</time>
      </trkpt>
      <trkpt lat="46.07079" lon="4.63169">
        <ele>307.6</ele>
        <time>2022-06-25T19:42:32Z</time>
      </trkpt>
      <trkpt lat="46.07079" lon="4.63156">
        <ele>307</ele>
        <time>2022-06-25T19:42:33Z</time>
      </trkpt>
      <trkpt lat="46.07079" lon="4.63142">
        <ele>306.4</ele>
        <time>2022-06-25T19:42:34Z</time>
      </trkpt>
      <trkpt lat="46.07079" lon="4.63129">
        <ele>305.8</ele>
        <time>2022-06-25T19:42:35Z</time>
      </trkpt>
      <trkpt lat="46.07079" lon="4.63117">
        <ele>305.4</ele>
        <time>2022-06-25T19:42:36Z</time>
      </trkpt>
      <trkpt lat="46.07078" lon="4.63105">
        <ele>305</ele>
        <time>2022-06-25T19:42:37Z</time>
      </trkpt>
      <trkpt lat="46.07077" lon="4.63093">
        <ele>304.4</ele>
        <time>2022-06-25T19:42:38Z</time>
      </trkpt>
      <trkpt lat="46.07077" lon="4.63082">
        <ele>304</ele>
        <time>2022-06-25T19:42:39Z</time>
      </trkpt>
      <trkpt lat="46.07076" lon="4.6307">
        <ele>303.8</ele>
        <time>2022-06-25T19:42:40Z</time>
      </trkpt>
      <trkpt lat="46.07076" lon="4.63058">
        <ele>303.4</ele>
        <time>2022-06-25T19:42:41Z</time>
      </trkpt>
      <trkpt lat="46.07076" lon="4.63046">
        <ele>303.2</ele>
        <time>2022-06-25T19:42:42Z</time>
      </trkpt>
      <trkpt lat="46.07075" lon="4.63034">
        <ele>302.8</ele>
        <time>2022-06-25T19:42:43Z</time>
      </trkpt>
      <trkpt lat="46.07075" lon="4.63021">
        <ele>302.6</ele>
        <time>2022-06-25T19:42:44Z</time>
      </trkpt>
      <trkpt lat="46.07075" lon="4.63009">
        <ele>302.2</ele>
        <time>2022-06-25T19:42:45Z</time>
      </trkpt>
      <trkpt lat="46.07075" lon="4.62997">
        <ele>302.2</ele>
        <time>2022-06-25T19:42:46Z</time>
      </trkpt>
      <trkpt lat="46.07075" lon="4.62985">
        <ele>301.8</ele>
        <time>2022-06-25T19:42:47Z</time>
      </trkpt>
      <trkpt lat="46.07075" lon="4.62973">
        <ele>301.8</ele>
        <time>2022-06-25T19:42:48Z</time>
      </trkpt>
      <trkpt lat="46.07075" lon="4.62962">
        <ele>301.6</ele>
        <time>2022-06-25T19:42:49Z</time>
      </trkpt>
      <trkpt lat="46.07075" lon="4.62951">
        <ele>301.6</ele>
        <time>2022-06-25T19:42:50Z</time>
      </trkpt>
      <trkpt lat="46.07075" lon="4.62941">
        <ele>301.6</ele>
        <time>2022-06-25T19:42:51Z</time>
      </trkpt>
      <trkpt lat="46.07075" lon="4.62931">
        <ele>301.6</ele>
        <time>2022-06-25T19:42:52Z</time>
      </trkpt>
      <trkpt lat="46.07075" lon="4.62922">
        <ele>301.6</ele>
        <time>2022-06-25T19:42:53Z</time>
      </trkpt>
      <trkpt lat="46.07074" lon="4.62913">
        <ele>301.6</ele>
        <time>2022-06-25T19:42:54Z</time>
      </trkpt>
      <trkpt lat="46.07074" lon="4.62905">
        <ele>301.8</ele>
        <time>2022-06-25T19:42:55Z</time>
      </trkpt>
      <trkpt lat="46.07073" lon="4.62897">
        <ele>301.8</ele>
        <time>2022-06-25T19:42:56Z</time>
      </trkpt>
      <trkpt lat="46.07072" lon="4.62889">
        <ele>302.2</ele>
        <time>2022-06-25T19:42:57Z</time>
      </trkpt>
      <trkpt lat="46.07071" lon="4.62882">
        <ele>302.4</ele>
        <time>2022-06-25T19:42:58Z</time>
      </trkpt>
      <trkpt lat="46.0707" lon="4.62875">
        <ele>302.8</ele>
        <time>2022-06-25T19:42:59Z</time>
      </trkpt>
      <trkpt lat="46.07069" lon="4.62868">
        <ele>303</ele>
        <time>2022-06-25T19:43:00Z</time>
      </trkpt>
      <trkpt lat="46.07068" lon="4.62862">
        <ele>303.4</ele>
        <time>2022-06-25T19:43:01Z</time>
      </trkpt>
      <trkpt lat="46.07066" lon="4.62856">
        <ele>303.6</ele>
        <time>2022-06-25T19:43:02Z</time>
      </trkpt>
      <trkpt lat="46.07065" lon="4.6285">
        <ele>304</ele>
        <time>2022-06-25T19:43:03Z</time>
      </trkpt>
      <trkpt lat="46.07064" lon="4.62844">
        <ele>304.2</ele>
        <time>2022-06-25T19:43:04Z</time>
      </trkpt>
      <trkpt lat="46.07063" lon="4.62838">
        <ele>304.4</ele>
        <time>2022-06-25T19:43:05Z</time>
      </trkpt>
      <trkpt lat="46.07062" lon="4.62832">
        <ele>304.6</ele>
        <time>2022-06-25T19:43:06Z</time>
      </trkpt>
      <trkpt lat="46.07062" lon="4.62826">
        <ele>305</ele>
        <time>2022-06-25T19:43:07Z</time>
      </trkpt>
      <trkpt lat="46.07061" lon="4.6282">
        <ele>305.2</ele>
        <time>2022-06-25T19:43:08Z</time>
      </trkpt>
      <trkpt lat="46.0706" lon="4.62815">
        <ele>305.4</ele>
        <time>2022-06-25T19:43:09Z</time>
      </trkpt>
      <trkpt lat="46.07059" lon="4.6281">
        <ele>305.6</ele>
        <time>2022-06-25T19:43:10Z</time>
      </trkpt>
      <trkpt lat="46.07058" lon="4.62804">
        <ele>305.6</ele>
        <time>2022-06-25T19:43:11Z</time>
      </trkpt>
      <trkpt lat="46.07057" lon="4.62799">
        <ele>306</ele>
        <time>2022-06-25T19:43:12Z</time>
      </trkpt>
      <trkpt lat="46.07056" lon="4.62794">
        <ele>306.2</ele>
        <time>2022-06-25T19:43:13Z</time>
      </trkpt>
      <trkpt lat="46.07056" lon="4.62788">
        <ele>306.2</ele>
        <time>2022-06-25T19:43:14Z</time>
      </trkpt>
      <trkpt lat="46.07055" lon="4.62783">
        <ele>306.6</ele>
        <time>2022-06-25T19:43:15Z</time>
      </trkpt>
      <trkpt lat="46.07054" lon="4.62778">
        <ele>306.8</ele>
        <time>2022-06-25T19:43:16Z</time>
      </trkpt>
      <trkpt lat="46.07054" lon="4.62773">
        <ele>307.2</ele>
        <time>2022-06-25T19:43:17Z</time>
      </trkpt>
      <trkpt lat="46.07053" lon="4.62767">
        <ele>307.4</ele>
        <time>2022-06-25T19:43:18Z</time>
      </trkpt>
      <trkpt lat="46.07052" lon="4.62762">
        <ele>307.6</ele>
        <time>2022-06-25T19:43:19Z</time>
      </trkpt>
      <trkpt lat="46.07051" lon="4.62757">
        <ele>307.8</ele>
        <time>2022-06-25T19:43:20Z</time>
      </trkpt>
      <trkpt lat="46.0705" lon="4.62751">
        <ele>308</ele>
        <time>2022-06-25T19:43:21Z</time>
      </trkpt>
      <trkpt lat="46.07049" lon="4.62746">
        <ele>308</ele>
        <time>2022-06-25T19:43:22Z</time>
      </trkpt>
      <trkpt lat="46.07047" lon="4.62741">
        <ele>308.4</ele>
        <time>2022-06-25T19:43:23Z</time>
      </trkpt>
      <trkpt lat="46.07046" lon="4.62735">
        <ele>308.4</ele>
        <time>2022-06-25T19:43:24Z</time>
      </trkpt>
      <trkpt lat="46.07044" lon="4.6273">
        <ele>308.6</ele>
        <time>2022-06-25T19:43:25Z</time>
      </trkpt>
      <trkpt lat="46.07043" lon="4.62725">
        <ele>308.6</ele>
        <time>2022-06-25T19:43:26Z</time>
      </trkpt>
      <trkpt lat="46.07042" lon="4.6272">
        <ele>309</ele>
        <time>2022-06-25T19:43:27Z</time>
      </trkpt>
      <trkpt lat="46.07041" lon="4.62714">
        <ele>309.2</ele>
        <time>2022-06-25T19:43:28Z</time>
      </trkpt>
      <trkpt lat="46.0704" lon="4.62709">
        <ele>309.6</ele>
        <time>2022-06-25T19:43:29Z</time>
      </trkpt>
      <trkpt lat="46.07038" lon="4.62704">
        <ele>309.8</ele>
        <time>2022-06-25T19:43:30Z</time>
      </trkpt>
      <trkpt lat="46.07037" lon="4.62699">
        <ele>309.8</ele>
        <time>2022-06-25T19:43:31Z</time>
      </trkpt>
      <trkpt lat="46.07036" lon="4.62694">
        <ele>310.2</ele>
        <time>2022-06-25T19:43:32Z</time>
      </trkpt>
      <trkpt lat="46.07035" lon="4.62689">
        <ele>310.4</ele>
        <time>2022-06-25T19:43:33Z</time>
      </trkpt>
      <trkpt lat="46.07034" lon="4.62684">
        <ele>310.4</ele>
        <time>2022-06-25T19:43:34Z</time>
      </trkpt>
      <trkpt lat="46.07034" lon="4.62678">
        <ele>310.8</ele>
        <time>2022-06-25T19:43:35Z</time>
      </trkpt>
      <trkpt lat="46.07033" lon="4.62673">
        <ele>311</ele>
        <time>2022-06-25T19:43:36Z</time>
      </trkpt>
      <trkpt lat="46.07032" lon="4.62668">
        <ele>311.4</ele>
        <time>2022-06-25T19:43:37Z</time>
      </trkpt>
      <trkpt lat="46.07031" lon="4.62664">
        <ele>311.6</ele>
        <time>2022-06-25T19:43:38Z</time>
      </trkpt>
      <trkpt lat="46.0703" lon="4.62659">
        <ele>312</ele>
        <time>2022-06-25T19:43:39Z</time>
      </trkpt>
      <trkpt lat="46.0703" lon="4.62654">
        <ele>312.2</ele>
        <time>2022-06-25T19:43:40Z</time>
      </trkpt>
      <trkpt lat="46.07029" lon="4.6265">
        <ele>312.4</ele>
        <time>2022-06-25T19:43:41Z</time>
      </trkpt>
      <trkpt lat="46.07029" lon="4.62645">
        <ele>312.6</ele>
        <time>2022-06-25T19:43:42Z</time>
      </trkpt>
      <trkpt lat="46.07028" lon="4.62641">
        <ele>313</ele>
        <time>2022-06-25T19:43:43Z</time>
      </trkpt>
      <trkpt lat="46.07028" lon="4.62637">
        <ele>313.2</ele>
        <time>2022-06-25T19:43:44Z</time>
      </trkpt>
      <trkpt lat="46.07028" lon="4.62632">
        <ele>313.6</ele>
        <time>2022-06-25T19:43:45Z</time>
      </trkpt>
      <trkpt lat="46.07027" lon="4.62627">
        <ele>313.6</ele>
        <time>2022-06-25T19:43:46Z</time>
      </trkpt>
      <trkpt lat="46.07027" lon="4.62623">
        <ele>313.8</ele>
        <time>2022-06-25T19:43:47Z</time>
      </trkpt>
      <trkpt lat="46.07026" lon="4.62619">
        <ele>313.8</ele>
        <time>2022-06-25T19:43:48Z</time>
      </trkpt>
      <trkpt lat="46.07026" lon="4.62614">
        <ele>314</ele>
        <time>2022-06-25T19:43:49Z</time>
      </trkpt>
      <trkpt lat="46.07025" lon="4.62609">
        <ele>314</ele>
        <time>2022-06-25T19:43:50Z</time>
      </trkpt>
      <trkpt lat="46.07025" lon="4.62605">
        <ele>314</ele>
        <time>2022-06-25T19:43:51Z</time>
      </trkpt>
      <trkpt lat="46.07024" lon="4.626">
        <ele>314</ele>
        <time>2022-06-25T19:43:52Z</time>
      </trkpt>
      <trkpt lat="46.07024" lon="4.62596">
        <ele>314.2</ele>
        <time>2022-06-25T19:43:53Z</time>
      </trkpt>
      <trkpt lat="46.07023" lon="4.62591">
        <ele>314.2</ele>
        <time>2022-06-25T19:43:54Z</time>
      </trkpt>
      <trkpt lat="46.07023" lon="4.62586">
        <ele>314.2</ele>
        <time>2022-06-25T19:43:55Z</time>
      </trkpt>
      <trkpt lat="46.07022" lon="4.62581">
        <ele>314.2</ele>
        <time>2022-06-25T19:43:56Z</time>
      </trkpt>
      <trkpt lat="46.07022" lon="4.62576">
        <ele>314.2</ele>
        <time>2022-06-25T19:43:57Z</time>
      </trkpt>
      <trkpt lat="46.07021" lon="4.62571">
        <ele>314.6</ele>
        <time>2022-06-25T19:43:58Z</time>
      </trkpt>
      <trkpt lat="46.07021" lon="4.62566">
        <ele>314.6</ele>
        <time>2022-06-25T19:43:59Z</time>
      </trkpt>
      <trkpt lat="46.0702" lon="4.6256">
        <ele>314.6</ele>
        <time>2022-06-25T19:44:00Z</time>
      </trkpt>
      <trkpt lat="46.0702" lon="4.62555">
        <ele>315</ele>
        <time>2022-06-25T19:44:01Z</time>
      </trkpt>
      <trkpt lat="46.07019" lon="4.62549">
        <ele>315</ele>
        <time>2022-06-25T19:44:02Z</time>
      </trkpt>
      <trkpt lat="46.07018" lon="4.62544">
        <ele>315.4</ele>
        <time>2022-06-25T19:44:03Z</time>
      </trkpt>
      <trkpt lat="46.07017" lon="4.62538">
        <ele>315.4</ele>
        <time>2022-06-25T19:44:04Z</time>
      </trkpt>
      <trkpt lat="46.07016" lon="4.62533">
        <ele>315.4</ele>
        <time>2022-06-25T19:44:05Z</time>
      </trkpt>
      <trkpt lat="46.07016" lon="4.62528">
        <ele>315.6</ele>
        <time>2022-06-25T19:44:06Z</time>
      </trkpt>
      <trkpt lat="46.07015" lon="4.62522">
        <ele>315.6</ele>
        <time>2022-06-25T19:44:07Z</time>
      </trkpt>
      <trkpt lat="46.07015" lon="4.62516">
        <ele>315.6</ele>
        <time>2022-06-25T19:44:08Z</time>
      </trkpt>
      <trkpt lat="46.07014" lon="4.6251">
        <ele>316</ele>
        <time>2022-06-25T19:44:09Z</time>
      </trkpt>
      <trkpt lat="46.07014" lon="4.62504">
        <ele>316</ele>
        <time>2022-06-25T19:44:10Z</time>
      </trkpt>
      <trkpt lat="46.07013" lon="4.62499">
        <ele>316.2</ele>
        <time>2022-06-25T19:44:11Z</time>
      </trkpt>
      <trkpt lat="46.07012" lon="4.62493">
        <ele>316.2</ele>
        <time>2022-06-25T19:44:12Z</time>
      </trkpt>
      <trkpt lat="46.07011" lon="4.62488">
        <ele>316.4</ele>
        <time>2022-06-25T19:44:13Z</time>
      </trkpt>
      <trkpt lat="46.07011" lon="4.62483">
        <ele>316.4</ele>
        <time>2022-06-25T19:44:14Z</time>
      </trkpt>
      <trkpt lat="46.0701" lon="4.62477">
        <ele>316.8</ele>
        <time>2022-06-25T19:44:15Z</time>
      </trkpt>
      <trkpt lat="46.0701" lon="4.62472">
        <ele>316.8</ele>
        <time>2022-06-25T19:44:16Z</time>
      </trkpt>
      <trkpt lat="46.0701" lon="4.62466">
        <ele>317</ele>
        <time>2022-06-25T19:44:17Z</time>
      </trkpt>
      <trkpt lat="46.0701" lon="4.6246">
        <ele>317</ele>
        <time>2022-06-25T19:44:18Z</time>
      </trkpt>
      <trkpt lat="46.07009" lon="4.62454">
        <ele>317</ele>
        <time>2022-06-25T19:44:19Z</time>
      </trkpt>
      <trkpt lat="46.07009" lon="4.62448">
        <ele>317.2</ele>
        <time>2022-06-25T19:44:20Z</time>
      </trkpt>
      <trkpt lat="46.07008" lon="4.62443">
        <ele>317.2</ele>
        <time>2022-06-25T19:44:21Z</time>
      </trkpt>
      <trkpt lat="46.07008" lon="4.62437">
        <ele>317.2</ele>
        <time>2022-06-25T19:44:22Z</time>
      </trkpt>
      <trkpt lat="46.07008" lon="4.6243">
        <ele>317.4</ele>
        <time>2022-06-25T19:44:23Z</time>
      </trkpt>
      <trkpt lat="46.07008" lon="4.62424">
        <ele>317.4</ele>
        <time>2022-06-25T19:44:24Z</time>
      </trkpt>
      <trkpt lat="46.07008" lon="4.62418">
        <ele>317.8</ele>
        <time>2022-06-25T19:44:25Z</time>
      </trkpt>
      <trkpt lat="46.07007" lon="4.62412">
        <ele>317.8</ele>
        <time>2022-06-25T19:44:26Z</time>
      </trkpt>
      <trkpt lat="46.07007" lon="4.62406">
        <ele>317.8</ele>
        <time>2022-06-25T19:44:27Z</time>
      </trkpt>
      <trkpt lat="46.07006" lon="4.62399">
        <ele>318</ele>
        <time>2022-06-25T19:44:28Z</time>
      </trkpt>
      <trkpt lat="46.07006" lon="4.62393">
        <ele>318</ele>
        <time>2022-06-25T19:44:29Z</time>
      </trkpt>
      <trkpt lat="46.07006" lon="4.62386">
        <ele>318</ele>
        <time>2022-06-25T19:44:30Z</time>
      </trkpt>
      <trkpt lat="46.07005" lon="4.6238">
        <ele>318.2</ele>
        <time>2022-06-25T19:44:31Z</time>
      </trkpt>
      <trkpt lat="46.07005" lon="4.62373">
        <ele>318.2</ele>
        <time>2022-06-25T19:44:32Z</time>
      </trkpt>
      <trkpt lat="46.07004" lon="4.62367">
        <ele>318.4</ele>
        <time>2022-06-25T19:44:33Z</time>
      </trkpt>
      <trkpt lat="46.07004" lon="4.62361">
        <ele>318.4</ele>
        <time>2022-06-25T19:44:34Z</time>
      </trkpt>
      <trkpt lat="46.07004" lon="4.62354">
        <ele>318.4</ele>
        <time>2022-06-25T19:44:35Z</time>
      </trkpt>
      <trkpt lat="46.07003" lon="4.62348">
        <ele>318.6</ele>
        <time>2022-06-25T19:44:36Z</time>
      </trkpt>
      <trkpt lat="46.07003" lon="4.62342">
        <ele>318.6</ele>
        <time>2022-06-25T19:44:37Z</time>
      </trkpt>
      <trkpt lat="46.07002" lon="4.62335">
        <ele>318.6</ele>
        <time>2022-06-25T19:44:38Z</time>
      </trkpt>
      <trkpt lat="46.07002" lon="4.62329">
        <ele>318.6</ele>
        <time>2022-06-25T19:44:39Z</time>
      </trkpt>
      <trkpt lat="46.07002" lon="4.62322">
        <ele>318.6</ele>
        <time>2022-06-25T19:44:40Z</time>
      </trkpt>
      <trkpt lat="46.07001" lon="4.62316">
        <ele>318.6</ele>
        <time>2022-06-25T19:44:41Z</time>
      </trkpt>
      <trkpt lat="46.07001" lon="4.62309">
        <ele>318.6</ele>
        <time>2022-06-25T19:44:42Z</time>
      </trkpt>
      <trkpt lat="46.07001" lon="4.62303">
        <ele>318.6</ele>
        <time>2022-06-25T19:44:43Z</time>
      </trkpt>
      <trkpt lat="46.07" lon="4.62296">
        <ele>318.6</ele>
        <time>2022-06-25T19:44:44Z</time>
      </trkpt>
      <trkpt lat="46.07" lon="4.62289">
        <ele>318.6</ele>
        <time>2022-06-25T19:44:45Z</time>
      </trkpt>
      <trkpt lat="46.07" lon="4.62282">
        <ele>318.6</ele>
        <time>2022-06-25T19:44:46Z</time>
      </trkpt>
      <trkpt lat="46.06999" lon="4.62275">
        <ele>318.4</ele>
        <time>2022-06-25T19:44:47Z</time>
      </trkpt>
      <trkpt lat="46.06999" lon="4.62269">
        <ele>318.4</ele>
        <time>2022-06-25T19:44:48Z</time>
      </trkpt>
      <trkpt lat="46.06999" lon="4.62262">
        <ele>318.4</ele>
        <time>2022-06-25T19:44:49Z</time>
      </trkpt>
      <trkpt lat="46.06998" lon="4.62255">
        <ele>318.2</ele>
        <time>2022-06-25T19:44:50Z</time>
      </trkpt>
      <trkpt lat="46.06999" lon="4.62247">
        <ele>318.2</ele>
        <time>2022-06-25T19:44:51Z</time>
      </trkpt>
      <trkpt lat="46.06999" lon="4.6224">
        <ele>317.8</ele>
        <time>2022-06-25T19:44:52Z</time>
      </trkpt>
      <trkpt lat="46.07" lon="4.62233">
        <ele>317.6</ele>
        <time>2022-06-25T19:44:53Z</time>
      </trkpt>
      <trkpt lat="46.07001" lon="4.62225">
        <ele>317.6</ele>
        <time>2022-06-25T19:44:54Z</time>
      </trkpt>
      <trkpt lat="46.07004" lon="4.62218">
        <ele>317.2</ele>
        <time>2022-06-25T19:44:55Z</time>
      </trkpt>
      <trkpt lat="46.07006" lon="4.62211">
        <ele>317</ele>
        <time>2022-06-25T19:44:56Z</time>
      </trkpt>
      <trkpt lat="46.07009" lon="4.62204">
        <ele>316.6</ele>
        <time>2022-06-25T19:44:57Z</time>
      </trkpt>
      <trkpt lat="46.07013" lon="4.62198">
        <ele>316.6</ele>
        <time>2022-06-25T19:44:58Z</time>
      </trkpt>
      <trkpt lat="46.07017" lon="4.62192">
        <ele>316.6</ele>
        <time>2022-06-25T19:44:59Z</time>
      </trkpt>
      <trkpt lat="46.07021" lon="4.62186">
        <ele>316.6</ele>
        <time>2022-06-25T19:45:00Z</time>
      </trkpt>
      <trkpt lat="46.07025" lon="4.62181">
        <ele>316.6</ele>
        <time>2022-06-25T19:45:01Z</time>
      </trkpt>
      <trkpt lat="46.0703" lon="4.62176">
        <ele>316.6</ele>
        <time>2022-06-25T19:45:02Z</time>
      </trkpt>
      <trkpt lat="46.07034" lon="4.62171">
        <ele>316.6</ele>
        <time>2022-06-25T19:45:03Z</time>
      </trkpt>
      <trkpt lat="46.07037" lon="4.62165">
        <ele>316.6</ele>
        <time>2022-06-25T19:45:04Z</time>
      </trkpt>
      <trkpt lat="46.07041" lon="4.62159">
        <ele>316.6</ele>
        <time>2022-06-25T19:45:05Z</time>
      </trkpt>
      <trkpt lat="46.07043" lon="4.62152">
        <ele>316.6</ele>
        <time>2022-06-25T19:45:06Z</time>
      </trkpt>
      <trkpt lat="46.07045" lon="4.62145">
        <ele>316.6</ele>
        <time>2022-06-25T19:45:07Z</time>
      </trkpt>
      <trkpt lat="46.07047" lon="4.62137">
        <ele>316.6</ele>
        <time>2022-06-25T19:45:08Z</time>
      </trkpt>
      <trkpt lat="46.07048" lon="4.6213">
        <ele>316.6</ele>
        <time>2022-06-25T19:45:09Z</time>
      </trkpt>
      <trkpt lat="46.07048" lon="4.62122">
        <ele>317</ele>
        <time>2022-06-25T19:45:10Z</time>
      </trkpt>
      <trkpt lat="46.07047" lon="4.62115">
        <ele>317</ele>
        <time>2022-06-25T19:45:11Z</time>
      </trkpt>
      <trkpt lat="46.07045" lon="4.62108">
        <ele>317</ele>
        <time>2022-06-25T19:45:12Z</time>
      </trkpt>
      <trkpt lat="46.07042" lon="4.62102">
        <ele>317</ele>
        <time>2022-06-25T19:45:13Z</time>
      </trkpt>
      <trkpt lat="46.07039" lon="4.62096">
        <ele>317.2</ele>
        <time>2022-06-25T19:45:14Z</time>
      </trkpt>
      <trkpt lat="46.07035" lon="4.62091">
        <ele>317.6</ele>
        <time>2022-06-25T19:45:15Z</time>
      </trkpt>
      <trkpt lat="46.07031" lon="4.62086">
        <ele>317.6</ele>
        <time>2022-06-25T19:45:16Z</time>
      </trkpt>
      <trkpt lat="46.07027" lon="4.62082">
        <ele>317.8</ele>
        <time>2022-06-25T19:45:17Z</time>
      </trkpt>
      <trkpt lat="46.07023" lon="4.62078">
        <ele>318</ele>
        <time>2022-06-25T19:45:18Z</time>
      </trkpt>
      <trkpt lat="46.0702" lon="4.62074">
        <ele>318</ele>
        <time>2022-06-25T19:45:19Z</time>
      </trkpt>
      <trkpt lat="46.07016" lon="4.6207">
        <ele>318.4</ele>
        <time>2022-06-25T19:45:20Z</time>
      </trkpt>
      <trkpt lat="46.07012" lon="4.62065">
        <ele>318.4</ele>
        <time>2022-06-25T19:45:21Z</time>
      </trkpt>
      <trkpt lat="46.07008" lon="4.62061">
        <ele>318.4</ele>
        <time>2022-06-25T19:45:22Z</time>
      </trkpt>
      <trkpt lat="46.07005" lon="4.62057">
        <ele>318.6</ele>
        <time>2022-06-25T19:45:23Z</time>
      </trkpt>
      <trkpt lat="46.07001" lon="4.62053">
        <ele>318.6</ele>
        <time>2022-06-25T19:45:24Z</time>
      </trkpt>
      <trkpt lat="46.06997" lon="4.62049">
        <ele>318.6</ele>
        <time>2022-06-25T19:45:25Z</time>
      </trkpt>
      <trkpt lat="46.06993" lon="4.62045">
        <ele>318.6</ele>
        <time>2022-06-25T19:45:26Z</time>
      </trkpt>
      <trkpt lat="46.0699" lon="4.62041">
        <ele>318.6</ele>
        <time>2022-06-25T19:45:27Z</time>
      </trkpt>
      <trkpt lat="46.06987" lon="4.62036">
        <ele>318.6</ele>
        <time>2022-06-25T19:45:28Z</time>
      </trkpt>
      <trkpt lat="46.06984" lon="4.62031">
        <ele>318.6</ele>
        <time>2022-06-25T19:45:29Z</time>
      </trkpt>
      <trkpt lat="46.06981" lon="4.62025">
        <ele>318.6</ele>
        <time>2022-06-25T19:45:30Z</time>
      </trkpt>
      <trkpt lat="46.06979" lon="4.62019">
        <ele>318.6</ele>
        <time>2022-06-25T19:45:31Z</time>
      </trkpt>
      <trkpt lat="46.06977" lon="4.62013">
        <ele>319</ele>
        <time>2022-06-25T19:45:32Z</time>
      </trkpt>
      <trkpt lat="46.06975" lon="4.62007">
        <ele>319</ele>
        <time>2022-06-25T19:45:33Z</time>
      </trkpt>
      <trkpt lat="46.06973" lon="4.62001">
        <ele>319.2</ele>
        <time>2022-06-25T19:45:34Z</time>
      </trkpt>
      <trkpt lat="46.06971" lon="4.61994">
        <ele>319.2</ele>
        <time>2022-06-25T19:45:35Z</time>
      </trkpt>
      <trkpt lat="46.0697" lon="4.61987">
        <ele>319.2</ele>
        <time>2022-06-25T19:45:36Z</time>
      </trkpt>
      <trkpt lat="46.06969" lon="4.6198">
        <ele>319</ele>
        <time>2022-06-25T19:45:37Z</time>
      </trkpt>
      <trkpt lat="46.06968" lon="4.61973">
        <ele>319</ele>
        <time>2022-06-25T19:45:38Z</time>
      </trkpt>
      <trkpt lat="46.06967" lon="4.61966">
        <ele>319</ele>
        <time>2022-06-25T19:45:39Z</time>
      </trkpt>
      <trkpt lat="46.06965" lon="4.6196">
        <ele>319</ele>
        <time>2022-06-25T19:45:40Z</time>
      </trkpt>
      <trkpt lat="46.06964" lon="4.61953">
        <ele>319</ele>
        <time>2022-06-25T19:45:41Z</time>
      </trkpt>
      <trkpt lat="46.06962" lon="4.61946">
        <ele>319</ele>
        <time>2022-06-25T19:45:42Z</time>
      </trkpt>
      <trkpt lat="46.06961" lon="4.61939">
        <ele>319</ele>
        <time>2022-06-25T19:45:43Z</time>
      </trkpt>
      <trkpt lat="46.0696" lon="4.61933">
        <ele>319</ele>
        <time>2022-06-25T19:45:44Z</time>
      </trkpt>
      <trkpt lat="46.06959" lon="4.61926">
        <ele>319.2</ele>
        <time>2022-06-25T19:45:45Z</time>
      </trkpt>
      <trkpt lat="46.06957" lon="4.6192">
        <ele>319.2</ele>
        <time>2022-06-25T19:45:46Z</time>
      </trkpt>
      <trkpt lat="46.06956" lon="4.61914">
        <ele>319.2</ele>
        <time>2022-06-25T19:45:47Z</time>
      </trkpt>
      <trkpt lat="46.06954" lon="4.61907">
        <ele>319.2</ele>
        <time>2022-06-25T19:45:48Z</time>
      </trkpt>
      <trkpt lat="46.06953" lon="4.61901">
        <ele>319.2</ele>
        <time>2022-06-25T19:45:49Z</time>
      </trkpt>
      <trkpt lat="46.06952" lon="4.61895">
        <ele>319.2</ele>
        <time>2022-06-25T19:45:50Z</time>
      </trkpt>
      <trkpt lat="46.06951" lon="4.61889">
        <ele>319.2</ele>
        <time>2022-06-25T19:45:51Z</time>
      </trkpt>
      <trkpt lat="46.0695" lon="4.61882">
        <ele>319.2</ele>
        <time>2022-06-25T19:45:52Z</time>
      </trkpt>
      <trkpt lat="46.06949" lon="4.61876">
        <ele>319.2</ele>
        <time>2022-06-25T19:45:53Z</time>
      </trkpt>
      <trkpt lat="46.06947" lon="4.6187">
        <ele>319.2</ele>
        <time>2022-06-25T19:45:54Z</time>
      </trkpt>
      <trkpt lat="46.06946" lon="4.61864">
        <ele>319.4</ele>
        <time>2022-06-25T19:45:55Z</time>
      </trkpt>
      <trkpt lat="46.06945" lon="4.61857">
        <ele>319.4</ele>
        <time>2022-06-25T19:45:56Z</time>
      </trkpt>
      <trkpt lat="46.06944" lon="4.61851">
        <ele>319.4</ele>
        <time>2022-06-25T19:45:57Z</time>
      </trkpt>
      <trkpt lat="46.06943" lon="4.61844">
        <ele>319.4</ele>
        <time>2022-06-25T19:45:58Z</time>
      </trkpt>
      <trkpt lat="46.06941" lon="4.61838">
        <ele>319.2</ele>
        <time>2022-06-25T19:45:59Z</time>
      </trkpt>
      <trkpt lat="46.0694" lon="4.61832">
        <ele>319.2</ele>
        <time>2022-06-25T19:46:00Z</time>
      </trkpt>
      <trkpt lat="46.06939" lon="4.61826">
        <ele>319.2</ele>
        <time>2022-06-25T19:46:01Z</time>
      </trkpt>
      <trkpt lat="46.06938" lon="4.61819">
        <ele>319.2</ele>
        <time>2022-06-25T19:46:02Z</time>
      </trkpt>
      <trkpt lat="46.06937" lon="4.61812">
        <ele>319.2</ele>
        <time>2022-06-25T19:46:03Z</time>
      </trkpt>
      <trkpt lat="46.06936" lon="4.61805">
        <ele>319.2</ele>
        <time>2022-06-25T19:46:04Z</time>
      </trkpt>
      <trkpt lat="46.06934" lon="4.61799">
        <ele>319.2</ele>
        <time>2022-06-25T19:46:05Z</time>
      </trkpt>
      <trkpt lat="46.06933" lon="4.61792">
        <ele>319.2</ele>
        <time>2022-06-25T19:46:06Z</time>
      </trkpt>
      <trkpt lat="46.06931" lon="4.61785">
        <ele>319.2</ele>
        <time>2022-06-25T19:46:07Z</time>
      </trkpt>
      <trkpt lat="46.0693" lon="4.61778">
        <ele>319.2</ele>
        <time>2022-06-25T19:46:08Z</time>
      </trkpt>
      <trkpt lat="46.06929" lon="4.61771">
        <ele>319.2</ele>
        <time>2022-06-25T19:46:09Z</time>
      </trkpt>
      <trkpt lat="46.06928" lon="4.61764">
        <ele>319.2</ele>
        <time>2022-06-25T19:46:10Z</time>
      </trkpt>
      <trkpt lat="46.06927" lon="4.61757">
        <ele>319</ele>
        <time>2022-06-25T19:46:11Z</time>
      </trkpt>
      <trkpt lat="46.06927" lon="4.6175">
        <ele>319</ele>
        <time>2022-06-25T19:46:12Z</time>
      </trkpt>
      <trkpt lat="46.06926" lon="4.61742">
        <ele>319</ele>
        <time>2022-06-25T19:46:13Z</time>
      </trkpt>
      <trkpt lat="46.06926" lon="4.61734">
        <ele>319</ele>
        <time>2022-06-25T19:46:14Z</time>
      </trkpt>
      <trkpt lat="46.06925" lon="4.61727">
        <ele>319</ele>
        <time>2022-06-25T19:46:15Z</time>
      </trkpt>
      <trkpt lat="46.06925" lon="4.61719">
        <ele>319</ele>
        <time>2022-06-25T19:46:16Z</time>
      </trkpt>
      <trkpt lat="46.06925" lon="4.61712">
        <ele>319</ele>
        <time>2022-06-25T19:46:17Z</time>
      </trkpt>
      <trkpt lat="46.06925" lon="4.61705">
        <ele>319</ele>
        <time>2022-06-25T19:46:18Z</time>
      </trkpt>
      <trkpt lat="46.06924" lon="4.61698">
        <ele>319.4</ele>
        <time>2022-06-25T19:46:19Z</time>
      </trkpt>
      <trkpt lat="46.06924" lon="4.61691">
        <ele>319.4</ele>
        <time>2022-06-25T19:46:20Z</time>
      </trkpt>
      <trkpt lat="46.06924" lon="4.61685">
        <ele>319.4</ele>
        <time>2022-06-25T19:46:21Z</time>
      </trkpt>
      <trkpt lat="46.06924" lon="4.61678">
        <ele>319.4</ele>
        <time>2022-06-25T19:46:22Z</time>
      </trkpt>
      <trkpt lat="46.06925" lon="4.61671">
        <ele>319.6</ele>
        <time>2022-06-25T19:46:23Z</time>
      </trkpt>
      <trkpt lat="46.06925" lon="4.61664">
        <ele>319.6</ele>
        <time>2022-06-25T19:46:24Z</time>
      </trkpt>
      <trkpt lat="46.06925" lon="4.61657">
        <ele>320</ele>
        <time>2022-06-25T19:46:25Z</time>
      </trkpt>
      <trkpt lat="46.06925" lon="4.6165">
        <ele>320</ele>
        <time>2022-06-25T19:46:26Z</time>
      </trkpt>
      <trkpt lat="46.06925" lon="4.61644">
        <ele>320.2</ele>
        <time>2022-06-25T19:46:27Z</time>
      </trkpt>
      <trkpt lat="46.06925" lon="4.61638">
        <ele>320.2</ele>
        <time>2022-06-25T19:46:28Z</time>
      </trkpt>
      <trkpt lat="46.06925" lon="4.61631">
        <ele>320.2</ele>
        <time>2022-06-25T19:46:29Z</time>
      </trkpt>
      <trkpt lat="46.06925" lon="4.61625">
        <ele>320.2</ele>
        <time>2022-06-25T19:46:30Z</time>
      </trkpt>
      <trkpt lat="46.06925" lon="4.61619">
        <ele>320.4</ele>
        <time>2022-06-25T19:46:31Z</time>
      </trkpt>
      <trkpt lat="46.06924" lon="4.61613">
        <ele>320.4</ele>
        <time>2022-06-25T19:46:32Z</time>
      </trkpt>
      <trkpt lat="46.06924" lon="4.61607">
        <ele>320.4</ele>
        <time>2022-06-25T19:46:33Z</time>
      </trkpt>
      <trkpt lat="46.06924" lon="4.61601">
        <ele>320.4</ele>
        <time>2022-06-25T19:46:34Z</time>
      </trkpt>
      <trkpt lat="46.06924" lon="4.61594">
        <ele>320.8</ele>
        <time>2022-06-25T19:46:35Z</time>
      </trkpt>
      <trkpt lat="46.06924" lon="4.61588">
        <ele>320.8</ele>
        <time>2022-06-25T19:46:36Z</time>
      </trkpt>
      <trkpt lat="46.06923" lon="4.61582">
        <ele>321</ele>
        <time>2022-06-25T19:46:37Z</time>
      </trkpt>
      <trkpt lat="46.06923" lon="4.61576">
        <ele>321</ele>
        <time>2022-06-25T19:46:38Z</time>
      </trkpt>
      <trkpt lat="46.06923" lon="4.6157">
        <ele>321.2</ele>
        <time>2022-06-25T19:46:39Z</time>
      </trkpt>
      <trkpt lat="46.06922" lon="4.61564">
        <ele>321.2</ele>
        <time>2022-06-25T19:46:40Z</time>
      </trkpt>
      <trkpt lat="46.06922" lon="4.61558">
        <ele>321.2</ele>
        <time>2022-06-25T19:46:41Z</time>
      </trkpt>
      <trkpt lat="46.06921" lon="4.61552">
        <ele>321.2</ele>
        <time>2022-06-25T19:46:42Z</time>
      </trkpt>
      <trkpt lat="46.06921" lon="4.61546">
        <ele>321.2</ele>
        <time>2022-06-25T19:46:43Z</time>
      </trkpt>
      <trkpt lat="46.0692" lon="4.6154">
        <ele>321.2</ele>
        <time>2022-06-25T19:46:44Z</time>
      </trkpt>
      <trkpt lat="46.06919" lon="4.61534">
        <ele>321.2</ele>
        <time>2022-06-25T19:46:45Z</time>
      </trkpt>
      <trkpt lat="46.06919" lon="4.61528">
        <ele>321.2</ele>
        <time>2022-06-25T19:46:46Z</time>
      </trkpt>
      <trkpt lat="46.06918" lon="4.61522">
        <ele>321.6</ele>
        <time>2022-06-25T19:46:47Z</time>
      </trkpt>
      <trkpt lat="46.06917" lon="4.61516">
        <ele>321.6</ele>
        <time>2022-06-25T19:46:48Z</time>
      </trkpt>
      <trkpt lat="46.06916" lon="4.61511">
        <ele>321.6</ele>
        <time>2022-06-25T19:46:49Z</time>
      </trkpt>
      <trkpt lat="46.06915" lon="4.61505">
        <ele>321.6</ele>
        <time>2022-06-25T19:46:50Z</time>
      </trkpt>
      <trkpt lat="46.06913" lon="4.615">
        <ele>321.6</ele>
        <time>2022-06-25T19:46:51Z</time>
      </trkpt>
      <trkpt lat="46.06912" lon="4.61495">
        <ele>321.6</ele>
        <time>2022-06-25T19:46:52Z</time>
      </trkpt>
      <trkpt lat="46.0691" lon="4.6149">
        <ele>321.6</ele>
        <time>2022-06-25T19:46:53Z</time>
      </trkpt>
      <trkpt lat="46.06909" lon="4.61485">
        <ele>321.8</ele>
        <time>2022-06-25T19:46:54Z</time>
      </trkpt>
      <trkpt lat="46.06908" lon="4.6148">
        <ele>321.8</ele>
        <time>2022-06-25T19:46:55Z</time>
      </trkpt>
      <trkpt lat="46.06906" lon="4.61474">
        <ele>321.8</ele>
        <time>2022-06-25T19:46:56Z</time>
      </trkpt>
      <trkpt lat="46.06905" lon="4.61468">
        <ele>321.8</ele>
        <time>2022-06-25T19:46:57Z</time>
      </trkpt>
      <trkpt lat="46.06903" lon="4.61462">
        <ele>321.8</ele>
        <time>2022-06-25T19:46:58Z</time>
      </trkpt>
      <trkpt lat="46.06901" lon="4.61456">
        <ele>321.8</ele>
        <time>2022-06-25T19:46:59Z</time>
      </trkpt>
      <trkpt lat="46.06899" lon="4.6145">
        <ele>321.8</ele>
        <time>2022-06-25T19:47:00Z</time>
      </trkpt>
      <trkpt lat="46.06897" lon="4.61443">
        <ele>321.6</ele>
        <time>2022-06-25T19:47:01Z</time>
      </trkpt>
      <trkpt lat="46.06895" lon="4.61437">
        <ele>321.6</ele>
        <time>2022-06-25T19:47:02Z</time>
      </trkpt>
      <trkpt lat="46.06893" lon="4.6143">
        <ele>321.6</ele>
        <time>2022-06-25T19:47:03Z</time>
      </trkpt>
      <trkpt lat="46.06891" lon="4.61424">
        <ele>321.4</ele>
        <time>2022-06-25T19:47:04Z</time>
      </trkpt>
      <trkpt lat="46.06889" lon="4.61417">
        <ele>321.4</ele>
        <time>2022-06-25T19:47:05Z</time>
      </trkpt>
      <trkpt lat="46.06887" lon="4.61411">
        <ele>321.4</ele>
        <time>2022-06-25T19:47:06Z</time>
      </trkpt>
      <trkpt lat="46.06885" lon="4.61404">
        <ele>321.4</ele>
        <time>2022-06-25T19:47:07Z</time>
      </trkpt>
      <trkpt lat="46.06884" lon="4.61398">
        <ele>321.4</ele>
        <time>2022-06-25T19:47:08Z</time>
      </trkpt>
      <trkpt lat="46.06883" lon="4.61392">
        <ele>321.4</ele>
        <time>2022-06-25T19:47:09Z</time>
      </trkpt>
      <trkpt lat="46.06882" lon="4.61386">
        <ele>321.4</ele>
        <time>2022-06-25T19:47:10Z</time>
      </trkpt>
      <trkpt lat="46.06882" lon="4.6138">
        <ele>321.4</ele>
        <time>2022-06-25T19:47:11Z</time>
      </trkpt>
      <trkpt lat="46.06882" lon="4.61374">
        <ele>321.4</ele>
        <time>2022-06-25T19:47:12Z</time>
      </trkpt>
      <trkpt lat="46.06882" lon="4.61367">
        <ele>321.4</ele>
        <time>2022-06-25T19:47:13Z</time>
      </trkpt>
      <trkpt lat="46.06882" lon="4.61361">
        <ele>321.4</ele>
        <time>2022-06-25T19:47:14Z</time>
      </trkpt>
      <trkpt lat="46.06882" lon="4.61355">
        <ele>321.4</ele>
        <time>2022-06-25T19:47:15Z</time>
      </trkpt>
      <trkpt lat="46.06882" lon="4.61349">
        <ele>321.4</ele>
        <time>2022-06-25T19:47:16Z</time>
      </trkpt>
      <trkpt lat="46.06882" lon="4.61343">
        <ele>321.4</ele>
        <time>2022-06-25T19:47:17Z</time>
      </trkpt>
      <trkpt lat="46.06881" lon="4.61336">
        <ele>321.4</ele>
        <time>2022-06-25T19:47:18Z</time>
      </trkpt>
      <trkpt lat="46.06881" lon="4.6133">
        <ele>321.4</ele>
        <time>2022-06-25T19:47:19Z</time>
      </trkpt>
      <trkpt lat="46.0688" lon="4.61324">
        <ele>321.2</ele>
        <time>2022-06-25T19:47:20Z</time>
      </trkpt>
      <trkpt lat="46.06878" lon="4.61318">
        <ele>320.8</ele>
        <time>2022-06-25T19:47:21Z</time>
      </trkpt>
      <trkpt lat="46.06877" lon="4.61311">
        <ele>320.8</ele>
        <time>2022-06-25T19:47:22Z</time>
      </trkpt>
      <trkpt lat="46.06875" lon="4.61305">
        <ele>320.6</ele>
        <time>2022-06-25T19:47:23Z</time>
      </trkpt>
      <trkpt lat="46.06873" lon="4.61298">
        <ele>320.6</ele>
        <time>2022-06-25T19:47:24Z</time>
      </trkpt>
      <trkpt lat="46.06871" lon="4.61291">
        <ele>320.4</ele>
        <time>2022-06-25T19:47:25Z</time>
      </trkpt>
      <trkpt lat="46.06869" lon="4.61284">
        <ele>320.4</ele>
        <time>2022-06-25T19:47:26Z</time>
      </trkpt>
      <trkpt lat="46.06867" lon="4.61276">
        <ele>320.4</ele>
        <time>2022-06-25T19:47:27Z</time>
      </trkpt>
      <trkpt lat="46.06865" lon="4.61269">
        <ele>320.4</ele>
        <time>2022-06-25T19:47:28Z</time>
      </trkpt>
      <trkpt lat="46.06863" lon="4.61262">
        <ele>320</ele>
        <time>2022-06-25T19:47:29Z</time>
      </trkpt>
      <trkpt lat="46.06861" lon="4.61254">
        <ele>320</ele>
        <time>2022-06-25T19:47:30Z</time>
      </trkpt>
      <trkpt lat="46.06859" lon="4.61247">
        <ele>319.8</ele>
        <time>2022-06-25T19:47:31Z</time>
      </trkpt>
      <trkpt lat="46.06857" lon="4.61239">
        <ele>319.8</ele>
        <time>2022-06-25T19:47:32Z</time>
      </trkpt>
      <trkpt lat="46.06855" lon="4.61231">
        <ele>319.4</ele>
        <time>2022-06-25T19:47:33Z</time>
      </trkpt>
      <trkpt lat="46.06854" lon="4.61222">
        <ele>319.4</ele>
        <time>2022-06-25T19:47:34Z</time>
      </trkpt>
      <trkpt lat="46.06852" lon="4.61214">
        <ele>319.4</ele>
        <time>2022-06-25T19:47:35Z</time>
      </trkpt>
      <trkpt lat="46.06851" lon="4.61206">
        <ele>319.4</ele>
        <time>2022-06-25T19:47:36Z</time>
      </trkpt>
      <trkpt lat="46.06849" lon="4.61198">
        <ele>319.4</ele>
        <time>2022-06-25T19:47:37Z</time>
      </trkpt>
      <trkpt lat="46.06847" lon="4.6119">
        <ele>319.2</ele>
        <time>2022-06-25T19:47:38Z</time>
      </trkpt>
      <trkpt lat="46.06844" lon="4.61183">
        <ele>319.2</ele>
        <time>2022-06-25T19:47:39Z</time>
      </trkpt>
      <trkpt lat="46.0684" lon="4.61177">
        <ele>319</ele>
        <time>2022-06-25T19:47:40Z</time>
      </trkpt>
      <trkpt lat="46.06836" lon="4.61172">
        <ele>318.8</ele>
        <time>2022-06-25T19:47:41Z</time>
      </trkpt>
      <trkpt lat="46.06832" lon="4.61169">
        <ele>318.6</ele>
        <time>2022-06-25T19:47:42Z</time>
      </trkpt>
      <trkpt lat="46.06827" lon="4.61165">
        <ele>318.6</ele>
        <time>2022-06-25T19:47:43Z</time>
      </trkpt>
      <trkpt lat="46.06822" lon="4.61163">
        <ele>318.2</ele>
        <time>2022-06-25T19:47:44Z</time>
      </trkpt>
      <trkpt lat="46.06817" lon="4.6116">
        <ele>318.2</ele>
        <time>2022-06-25T19:47:45Z</time>
      </trkpt>
      <trkpt lat="46.06812" lon="4.61158">
        <ele>318.2</ele>
        <time>2022-06-25T19:47:46Z</time>
      </trkpt>
      <trkpt lat="46.06807" lon="4.61155">
        <ele>318.2</ele>
        <time>2022-06-25T19:47:47Z</time>
      </trkpt>
      <trkpt lat="46.06802" lon="4.61152">
        <ele>318.2</ele>
        <time>2022-06-25T19:47:48Z</time>
      </trkpt>
      <trkpt lat="46.06797" lon="4.61149">
        <ele>318</ele>
        <time>2022-06-25T19:47:49Z</time>
      </trkpt>
      <trkpt lat="46.06792" lon="4.61145">
        <ele>318</ele>
        <time>2022-06-25T19:47:50Z</time>
      </trkpt>
      <trkpt lat="46.06788" lon="4.61141">
        <ele>318</ele>
        <time>2022-06-25T19:47:51Z</time>
      </trkpt>
      <trkpt lat="46.06783" lon="4.61137">
        <ele>318</ele>
        <time>2022-06-25T19:47:52Z</time>
      </trkpt>
      <trkpt lat="46.06778" lon="4.61133">
        <ele>317.6</ele>
        <time>2022-06-25T19:47:53Z</time>
      </trkpt>
      <trkpt lat="46.06773" lon="4.61129">
        <ele>317.6</ele>
        <time>2022-06-25T19:47:54Z</time>
      </trkpt>
      <trkpt lat="46.06768" lon="4.61125">
        <ele>317.6</ele>
        <time>2022-06-25T19:47:55Z</time>
      </trkpt>
      <trkpt lat="46.06764" lon="4.6112">
        <ele>317.6</ele>
        <time>2022-06-25T19:47:56Z</time>
      </trkpt>
      <trkpt lat="46.0676" lon="4.61115">
        <ele>317.4</ele>
        <time>2022-06-25T19:47:57Z</time>
      </trkpt>
      <trkpt lat="46.06756" lon="4.61109">
        <ele>317.4</ele>
        <time>2022-06-25T19:47:58Z</time>
      </trkpt>
      <trkpt lat="46.06752" lon="4.61103">
        <ele>317.4</ele>
        <time>2022-06-25T19:47:59Z</time>
      </trkpt>
      <trkpt lat="46.06748" lon="4.61097">
        <ele>317.4</ele>
        <time>2022-06-25T19:48:00Z</time>
      </trkpt>
      <trkpt lat="46.06745" lon="4.61091">
        <ele>317.4</ele>
        <time>2022-06-25T19:48:01Z</time>
      </trkpt>
      <trkpt lat="46.06742" lon="4.61084">
        <ele>317.6</ele>
        <time>2022-06-25T19:48:02Z</time>
      </trkpt>
      <trkpt lat="46.06739" lon="4.61077">
        <ele>317.6</ele>
        <time>2022-06-25T19:48:03Z</time>
      </trkpt>
      <trkpt lat="46.06737" lon="4.6107">
        <ele>317.6</ele>
        <time>2022-06-25T19:48:04Z</time>
      </trkpt>
      <trkpt lat="46.06734" lon="4.61063">
        <ele>317.6</ele>
        <time>2022-06-25T19:48:05Z</time>
      </trkpt>
      <trkpt lat="46.06731" lon="4.61056">
        <ele>317.6</ele>
        <time>2022-06-25T19:48:06Z</time>
      </trkpt>
      <trkpt lat="46.06728" lon="4.61048">
        <ele>317.4</ele>
        <time>2022-06-25T19:48:07Z</time>
      </trkpt>
      <trkpt lat="46.06726" lon="4.61041">
        <ele>317.4</ele>
        <time>2022-06-25T19:48:08Z</time>
      </trkpt>
      <trkpt lat="46.06723" lon="4.61033">
        <ele>317</ele>
        <time>2022-06-25T19:48:09Z</time>
      </trkpt>
      <trkpt lat="46.0672" lon="4.61026">
        <ele>317</ele>
        <time>2022-06-25T19:48:10Z</time>
      </trkpt>
      <trkpt lat="46.06718" lon="4.61019">
        <ele>317</ele>
        <time>2022-06-25T19:48:11Z</time>
      </trkpt>
      <trkpt lat="46.06715" lon="4.61012">
        <ele>317</ele>
        <time>2022-06-25T19:48:12Z</time>
      </trkpt>
      <trkpt lat="46.06712" lon="4.61004">
        <ele>317</ele>
        <time>2022-06-25T19:48:13Z</time>
      </trkpt>
      <trkpt lat="46.0671" lon="4.60997">
        <ele>317</ele>
        <time>2022-06-25T19:48:14Z</time>
      </trkpt>
      <trkpt lat="46.06707" lon="4.6099">
        <ele>317</ele>
        <time>2022-06-25T19:48:15Z</time>
      </trkpt>
      <trkpt lat="46.06704" lon="4.60982">
        <ele>317</ele>
        <time>2022-06-25T19:48:16Z</time>
      </trkpt>
      <trkpt lat="46.06701" lon="4.60975">
        <ele>317</ele>
        <time>2022-06-25T19:48:17Z</time>
      </trkpt>
      <trkpt lat="46.06699" lon="4.60968">
        <ele>317</ele>
        <time>2022-06-25T19:48:18Z</time>
      </trkpt>
      <trkpt lat="46.06696" lon="4.60962">
        <ele>317</ele>
        <time>2022-06-25T19:48:19Z</time>
      </trkpt>
      <trkpt lat="46.06693" lon="4.60955">
        <ele>316.8</ele>
        <time>2022-06-25T19:48:20Z</time>
      </trkpt>
      <trkpt lat="46.06689" lon="4.60948">
        <ele>316.8</ele>
        <time>2022-06-25T19:48:21Z</time>
      </trkpt>
      <trkpt lat="46.06686" lon="4.60942">
        <ele>316.8</ele>
        <time>2022-06-25T19:48:22Z</time>
      </trkpt>
      <trkpt lat="46.06683" lon="4.60935">
        <ele>316.8</ele>
        <time>2022-06-25T19:48:23Z</time>
      </trkpt>
      <trkpt lat="46.06681" lon="4.60929">
        <ele>316.6</ele>
        <time>2022-06-25T19:48:24Z</time>
      </trkpt>
      <trkpt lat="46.06677" lon="4.60923">
        <ele>316.6</ele>
        <time>2022-06-25T19:48:25Z</time>
      </trkpt>
      <trkpt lat="46.06674" lon="4.60917">
        <ele>316.2</ele>
        <time>2022-06-25T19:48:26Z</time>
      </trkpt>
      <trkpt lat="46.06671" lon="4.6091">
        <ele>316.2</ele>
        <time>2022-06-25T19:48:27Z</time>
      </trkpt>
      <trkpt lat="46.06668" lon="4.60904">
        <ele>316.2</ele>
        <time>2022-06-25T19:48:28Z</time>
      </trkpt>
      <trkpt lat="46.06665" lon="4.60897">
        <ele>316</ele>
        <time>2022-06-25T19:48:29Z</time>
      </trkpt>
      <trkpt lat="46.06661" lon="4.60891">
        <ele>316</ele>
        <time>2022-06-25T19:48:30Z</time>
      </trkpt>
      <trkpt lat="46.06658" lon="4.60884">
        <ele>315.6</ele>
        <time>2022-06-25T19:48:31Z</time>
      </trkpt>
      <trkpt lat="46.06655" lon="4.60877">
        <ele>315.4</ele>
        <time>2022-06-25T19:48:32Z</time>
      </trkpt>
      <trkpt lat="46.06651" lon="4.60869">
        <ele>315.4</ele>
        <time>2022-06-25T19:48:33Z</time>
      </trkpt>
      <trkpt lat="46.06648" lon="4.60862">
        <ele>315.2</ele>
        <time>2022-06-25T19:48:34Z</time>
      </trkpt>
      <trkpt lat="46.06644" lon="4.60854">
        <ele>315.2</ele>
        <time>2022-06-25T19:48:35Z</time>
      </trkpt>
      <trkpt lat="46.06641" lon="4.60846">
        <ele>314.8</ele>
        <time>2022-06-25T19:48:36Z</time>
      </trkpt>
      <trkpt lat="46.06638" lon="4.60838">
        <ele>314.8</ele>
        <time>2022-06-25T19:48:37Z</time>
      </trkpt>
      <trkpt lat="46.06635" lon="4.60831">
        <ele>314.6</ele>
        <time>2022-06-25T19:48:38Z</time>
      </trkpt>
      <trkpt lat="46.06633" lon="4.60823">
        <ele>314.6</ele>
        <time>2022-06-25T19:48:39Z</time>
      </trkpt>
      <trkpt lat="46.06631" lon="4.60815">
        <ele>314.4</ele>
        <time>2022-06-25T19:48:40Z</time>
      </trkpt>
      <trkpt lat="46.06629" lon="4.60807">
        <ele>314.4</ele>
        <time>2022-06-25T19:48:41Z</time>
      </trkpt>
      <trkpt lat="46.06627" lon="4.608">
        <ele>314</ele>
        <time>2022-06-25T19:48:42Z</time>
      </trkpt>
      <trkpt lat="46.06625" lon="4.60792">
        <ele>314</ele>
        <time>2022-06-25T19:48:43Z</time>
      </trkpt>
      <trkpt lat="46.06623" lon="4.60785">
        <ele>313.8</ele>
        <time>2022-06-25T19:48:44Z</time>
      </trkpt>
      <trkpt lat="46.06622" lon="4.60778">
        <ele>313.8</ele>
        <time>2022-06-25T19:48:45Z</time>
      </trkpt>
      <trkpt lat="46.0662" lon="4.60771">
        <ele>313.8</ele>
        <time>2022-06-25T19:48:46Z</time>
      </trkpt>
      <trkpt lat="46.06618" lon="4.60765">
        <ele>313.8</ele>
        <time>2022-06-25T19:48:47Z</time>
      </trkpt>
      <trkpt lat="46.06617" lon="4.60758">
        <ele>313.8</ele>
        <time>2022-06-25T19:48:48Z</time>
      </trkpt>
      <trkpt lat="46.06615" lon="4.6075">
        <ele>313.8</ele>
        <time>2022-06-25T19:48:49Z</time>
      </trkpt>
      <trkpt lat="46.06613" lon="4.60743">
        <ele>313.6</ele>
        <time>2022-06-25T19:48:50Z</time>
      </trkpt>
      <trkpt lat="46.06612" lon="4.60735">
        <ele>313.6</ele>
        <time>2022-06-25T19:48:51Z</time>
      </trkpt>
      <trkpt lat="46.0661" lon="4.60727">
        <ele>313.2</ele>
        <time>2022-06-25T19:48:52Z</time>
      </trkpt>
      <trkpt lat="46.06608" lon="4.6072">
        <ele>313.2</ele>
        <time>2022-06-25T19:48:53Z</time>
      </trkpt>
      <trkpt lat="46.06607" lon="4.60711">
        <ele>312.8</ele>
        <time>2022-06-25T19:48:54Z</time>
      </trkpt>
      <trkpt lat="46.06605" lon="4.60703">
        <ele>312.6</ele>
        <time>2022-06-25T19:48:55Z</time>
      </trkpt>
      <trkpt lat="46.06603" lon="4.60694">
        <ele>312.4</ele>
        <time>2022-06-25T19:48:56Z</time>
      </trkpt>
      <trkpt lat="46.06601" lon="4.60685">
        <ele>312.4</ele>
        <time>2022-06-25T19:48:57Z</time>
      </trkpt>
      <trkpt lat="46.06599" lon="4.60676">
        <ele>312</ele>
        <time>2022-06-25T19:48:58Z</time>
      </trkpt>
      <trkpt lat="46.06597" lon="4.60667">
        <ele>311.6</ele>
        <time>2022-06-25T19:48:59Z</time>
      </trkpt>
      <trkpt lat="46.06595" lon="4.60658">
        <ele>311.6</ele>
        <time>2022-06-25T19:49:00Z</time>
      </trkpt>
      <trkpt lat="46.06594" lon="4.60649">
        <ele>311.4</ele>
        <time>2022-06-25T19:49:01Z</time>
      </trkpt>
      <trkpt lat="46.06592" lon="4.6064">
        <ele>311.4</ele>
        <time>2022-06-25T19:49:02Z</time>
      </trkpt>
      <trkpt lat="46.0659" lon="4.60631">
        <ele>311</ele>
        <time>2022-06-25T19:49:03Z</time>
      </trkpt>
      <trkpt lat="46.06587" lon="4.60623">
        <ele>311</ele>
        <time>2022-06-25T19:49:04Z</time>
      </trkpt>
      <trkpt lat="46.06585" lon="4.60614">
        <ele>310.6</ele>
        <time>2022-06-25T19:49:05Z</time>
      </trkpt>
      <trkpt lat="46.06583" lon="4.60605">
        <ele>310.4</ele>
        <time>2022-06-25T19:49:06Z</time>
      </trkpt>
      <trkpt lat="46.06582" lon="4.60595">
        <ele>310.2</ele>
        <time>2022-06-25T19:49:07Z</time>
      </trkpt>
      <trkpt lat="46.0658" lon="4.60586">
        <ele>310</ele>
        <time>2022-06-25T19:49:08Z</time>
      </trkpt>
      <trkpt lat="46.06579" lon="4.60577">
        <ele>310</ele>
        <time>2022-06-25T19:49:09Z</time>
      </trkpt>
      <trkpt lat="46.06578" lon="4.60567">
        <ele>309.6</ele>
        <time>2022-06-25T19:49:10Z</time>
      </trkpt>
      <trkpt lat="46.06578" lon="4.60557">
        <ele>309.2</ele>
        <time>2022-06-25T19:49:11Z</time>
      </trkpt>
      <trkpt lat="46.06577" lon="4.60548">
        <ele>309</ele>
        <time>2022-06-25T19:49:12Z</time>
      </trkpt>
      <trkpt lat="46.06577" lon="4.60539">
        <ele>308.8</ele>
        <time>2022-06-25T19:49:13Z</time>
      </trkpt>
      <trkpt lat="46.06577" lon="4.60531">
        <ele>308.8</ele>
        <time>2022-06-25T19:49:14Z</time>
      </trkpt>
      <trkpt lat="46.06577" lon="4.60522">
        <ele>308.6</ele>
        <time>2022-06-25T19:49:15Z</time>
      </trkpt>
      <trkpt lat="46.06577" lon="4.60513">
        <ele>308.6</ele>
        <time>2022-06-25T19:49:16Z</time>
      </trkpt>
      <trkpt lat="46.06577" lon="4.60505">
        <ele>308.2</ele>
        <time>2022-06-25T19:49:17Z</time>
      </trkpt>
      <trkpt lat="46.06576" lon="4.60496">
        <ele>308.2</ele>
        <time>2022-06-25T19:49:18Z</time>
      </trkpt>
      <trkpt lat="46.06574" lon="4.6048">
        <ele>308</ele>
        <time>2022-06-25T19:49:19Z</time>
      </trkpt>
      <trkpt lat="46.06571" lon="4.60473">
        <ele>308</ele>
        <time>2022-06-25T19:49:20Z</time>
      </trkpt>
      <trkpt lat="46.06568" lon="4.60466">
        <ele>307.6</ele>
        <time>2022-06-25T19:49:21Z</time>
      </trkpt>
      <trkpt lat="46.06564" lon="4.6046">
        <ele>307.2</ele>
        <time>2022-06-25T19:49:22Z</time>
      </trkpt>
      <trkpt lat="46.06559" lon="4.60455">
        <ele>306.8</ele>
        <time>2022-06-25T19:49:23Z</time>
      </trkpt>
      <trkpt lat="46.06554" lon="4.60451">
        <ele>306.4</ele>
        <time>2022-06-25T19:49:24Z</time>
      </trkpt>
      <trkpt lat="46.06548" lon="4.60447">
        <ele>306.2</ele>
        <time>2022-06-25T19:49:25Z</time>
      </trkpt>
      <trkpt lat="46.06542" lon="4.60443">
        <ele>305.8</ele>
        <time>2022-06-25T19:49:26Z</time>
      </trkpt>
      <trkpt lat="46.06537" lon="4.60439">
        <ele>305.4</ele>
        <time>2022-06-25T19:49:27Z</time>
      </trkpt>
      <trkpt lat="46.06531" lon="4.60435">
        <ele>305</ele>
        <time>2022-06-25T19:49:28Z</time>
      </trkpt>
      <trkpt lat="46.06526" lon="4.6043">
        <ele>304.6</ele>
        <time>2022-06-25T19:49:29Z</time>
      </trkpt>
      <trkpt lat="46.0652" lon="4.60425">
        <ele>304.2</ele>
        <time>2022-06-25T19:49:30Z</time>
      </trkpt>
      <trkpt lat="46.06516" lon="4.6042">
        <ele>304</ele>
        <time>2022-06-25T19:49:31Z</time>
      </trkpt>
      <trkpt lat="46.06512" lon="4.60414">
        <ele>303.8</ele>
        <time>2022-06-25T19:49:32Z</time>
      </trkpt>
      <trkpt lat="46.06508" lon="4.60407">
        <ele>303.4</ele>
        <time>2022-06-25T19:49:33Z</time>
      </trkpt>
      <trkpt lat="46.06504" lon="4.60399">
        <ele>303</ele>
        <time>2022-06-25T19:49:34Z</time>
      </trkpt>
      <trkpt lat="46.06501" lon="4.60391">
        <ele>302.8</ele>
        <time>2022-06-25T19:49:35Z</time>
      </trkpt>
      <trkpt lat="46.06498" lon="4.60383">
        <ele>302.6</ele>
        <time>2022-06-25T19:49:36Z</time>
      </trkpt>
      <trkpt lat="46.06496" lon="4.60375">
        <ele>302.2</ele>
        <time>2022-06-25T19:49:37Z</time>
      </trkpt>
      <trkpt lat="46.06493" lon="4.60366">
        <ele>301.8</ele>
        <time>2022-06-25T19:49:38Z</time>
      </trkpt>
      <trkpt lat="46.06492" lon="4.60358">
        <ele>301.4</ele>
        <time>2022-06-25T19:49:39Z</time>
      </trkpt>
      <trkpt lat="46.0649" lon="4.6035">
        <ele>301</ele>
        <time>2022-06-25T19:49:40Z</time>
      </trkpt>
      <trkpt lat="46.06489" lon="4.60342">
        <ele>300.6</ele>
        <time>2022-06-25T19:49:41Z</time>
      </trkpt>
      <trkpt lat="46.06488" lon="4.60333">
        <ele>300.4</ele>
        <time>2022-06-25T19:49:42Z</time>
      </trkpt>
      <trkpt lat="46.06487" lon="4.60325">
        <ele>300.2</ele>
        <time>2022-06-25T19:49:43Z</time>
      </trkpt>
      <trkpt lat="46.06485" lon="4.60317">
        <ele>300</ele>
        <time>2022-06-25T19:49:44Z</time>
      </trkpt>
      <trkpt lat="46.06482" lon="4.60309">
        <ele>299.6</ele>
        <time>2022-06-25T19:49:45Z</time>
      </trkpt>
      <trkpt lat="46.06479" lon="4.60302">
        <ele>299.4</ele>
        <time>2022-06-25T19:49:46Z</time>
      </trkpt>
      <trkpt lat="46.06475" lon="4.60295">
        <ele>299.2</ele>
        <time>2022-06-25T19:49:47Z</time>
      </trkpt>
      <trkpt lat="46.06471" lon="4.60288">
        <ele>298.8</ele>
        <time>2022-06-25T19:49:48Z</time>
      </trkpt>
      <trkpt lat="46.06467" lon="4.60282">
        <ele>298.4</ele>
        <time>2022-06-25T19:49:49Z</time>
      </trkpt>
      <trkpt lat="46.06462" lon="4.60276">
        <ele>298.2</ele>
        <time>2022-06-25T19:49:50Z</time>
      </trkpt>
      <trkpt lat="46.06457" lon="4.6027">
        <ele>298</ele>
        <time>2022-06-25T19:49:51Z</time>
      </trkpt>
      <trkpt lat="46.06453" lon="4.60264">
        <ele>297.6</ele>
        <time>2022-06-25T19:49:52Z</time>
      </trkpt>
      <trkpt lat="46.06448" lon="4.60258">
        <ele>297.4</ele>
        <time>2022-06-25T19:49:53Z</time>
      </trkpt>
      <trkpt lat="46.06444" lon="4.60253">
        <ele>297.2</ele>
        <time>2022-06-25T19:49:54Z</time>
      </trkpt>
      <trkpt lat="46.0644" lon="4.60248">
        <ele>297</ele>
        <time>2022-06-25T19:49:55Z</time>
      </trkpt>
      <trkpt lat="46.06435" lon="4.60242">
        <ele>296.6</ele>
        <time>2022-06-25T19:49:56Z</time>
      </trkpt>
      <trkpt lat="46.06431" lon="4.60237">
        <ele>296.4</ele>
        <time>2022-06-25T19:49:57Z</time>
      </trkpt>
      <trkpt lat="46.06427" lon="4.60231">
        <ele>296.2</ele>
        <time>2022-06-25T19:49:58Z</time>
      </trkpt>
      <trkpt lat="46.06422" lon="4.60226">
        <ele>296.2</ele>
        <time>2022-06-25T19:49:59Z</time>
      </trkpt>
      <trkpt lat="46.06418" lon="4.60221">
        <ele>296</ele>
        <time>2022-06-25T19:50:00Z</time>
      </trkpt>
      <trkpt lat="46.06414" lon="4.60216">
        <ele>296</ele>
        <time>2022-06-25T19:50:01Z</time>
      </trkpt>
      <trkpt lat="46.0641" lon="4.60212">
        <ele>295.6</ele>
        <time>2022-06-25T19:50:02Z</time>
      </trkpt>
      <trkpt lat="46.06406" lon="4.60207">
        <ele>295.6</ele>
        <time>2022-06-25T19:50:03Z</time>
      </trkpt>
      <trkpt lat="46.06403" lon="4.60201">
        <ele>295.4</ele>
        <time>2022-06-25T19:50:04Z</time>
      </trkpt>
      <trkpt lat="46.06399" lon="4.60195">
        <ele>295.4</ele>
        <time>2022-06-25T19:50:05Z</time>
      </trkpt>
      <trkpt lat="46.06396" lon="4.6019">
        <ele>295.4</ele>
        <time>2022-06-25T19:50:06Z</time>
      </trkpt>
      <trkpt lat="46.06393" lon="4.60185">
        <ele>295</ele>
        <time>2022-06-25T19:50:07Z</time>
      </trkpt>
      <trkpt lat="46.0639" lon="4.6018">
        <ele>295</ele>
        <time>2022-06-25T19:50:08Z</time>
      </trkpt>
      <trkpt lat="46.06387" lon="4.60176">
        <ele>294.8</ele>
        <time>2022-06-25T19:50:09Z</time>
      </trkpt>
      <trkpt lat="46.06384" lon="4.60172">
        <ele>294.6</ele>
        <time>2022-06-25T19:50:10Z</time>
      </trkpt>
      <trkpt lat="46.06381" lon="4.60168">
        <ele>294.6</ele>
        <time>2022-06-25T19:50:11Z</time>
      </trkpt>
      <trkpt lat="46.06379" lon="4.60165">
        <ele>294.2</ele>
        <time>2022-06-25T19:50:12Z</time>
      </trkpt>
      <trkpt lat="46.06378" lon="4.60162">
        <ele>294.2</ele>
        <time>2022-06-25T19:50:13Z</time>
      </trkpt>
      <trkpt lat="46.06376" lon="4.6016">
        <ele>294</ele>
        <time>2022-06-25T19:50:14Z</time>
      </trkpt>
      <trkpt lat="46.06374" lon="4.60158">
        <ele>294</ele>
        <time>2022-06-25T19:50:15Z</time>
      </trkpt>
      <trkpt lat="46.06373" lon="4.60155">
        <ele>294</ele>
        <time>2022-06-25T19:50:16Z</time>
      </trkpt>
      <trkpt lat="46.06372" lon="4.60152">
        <ele>294</ele>
        <time>2022-06-25T19:50:17Z</time>
      </trkpt>
      <trkpt lat="46.0637" lon="4.60149">
        <ele>293.8</ele>
        <time>2022-06-25T19:50:18Z</time>
      </trkpt>
      <trkpt lat="46.06369" lon="4.60146">
        <ele>293.8</ele>
        <time>2022-06-25T19:50:19Z</time>
      </trkpt>
      <trkpt lat="46.06368" lon="4.60143">
        <ele>293.4</ele>
        <time>2022-06-25T19:50:20Z</time>
      </trkpt>
      <trkpt lat="46.06367" lon="4.60141">
        <ele>293.4</ele>
        <time>2022-06-25T19:50:21Z</time>
      </trkpt>
      <trkpt lat="46.06366" lon="4.60139">
        <ele>293.4</ele>
        <time>2022-06-25T19:50:22Z</time>
      </trkpt>
      <trkpt lat="46.06365" lon="4.60138">
        <ele>293.2</ele>
        <time>2022-06-25T19:50:23Z</time>
      </trkpt>
      <trkpt lat="46.06364" lon="4.60137">
        <ele>293.2</ele>
        <time>2022-06-25T19:50:24Z</time>
      </trkpt>
      <trkpt lat="46.06364" lon="4.60138">
        <ele>293.2</ele>
        <time>2022-06-25T19:50:25Z</time>
      </trkpt>
      <trkpt lat="46.06364" lon="4.60139">
        <ele>293.2</ele>
        <time>2022-06-25T19:50:26Z</time>
      </trkpt>
      <trkpt lat="46.06365" lon="4.60142">
        <ele>293.2</ele>
        <time>2022-06-25T19:50:28Z</time>
      </trkpt>
      <trkpt lat="46.06366" lon="4.60143">
        <ele>293.2</ele>
        <time>2022-06-25T19:50:29Z</time>
      </trkpt>
      <trkpt lat="46.06367" lon="4.60145">
        <ele>293.2</ele>
        <time>2022-06-25T19:50:30Z</time>
      </trkpt>
      <trkpt lat="46.06368" lon="4.60147">
        <ele>293.2</ele>
        <time>2022-06-25T19:50:31Z</time>
      </trkpt>
      <trkpt lat="46.06369" lon="4.6015">
        <ele>293.2</ele>
        <time>2022-06-25T19:50:32Z</time>
      </trkpt>
      <trkpt lat="46.0637" lon="4.60152">
        <ele>293.2</ele>
        <time>2022-06-25T19:50:33Z</time>
      </trkpt>
      <trkpt lat="46.06371" lon="4.60155">
        <ele>293.2</ele>
        <time>2022-06-25T19:50:34Z</time>
      </trkpt>
      <trkpt lat="46.06373" lon="4.60157">
        <ele>293.4</ele>
        <time>2022-06-25T19:50:35Z</time>
      </trkpt>
      <trkpt lat="46.06374" lon="4.60159">
        <ele>293.4</ele>
        <time>2022-06-25T19:50:36Z</time>
      </trkpt>
      <trkpt lat="46.06375" lon="4.60161">
        <ele>293.6</ele>
        <time>2022-06-25T19:50:37Z</time>
      </trkpt>
      <trkpt lat="46.06377" lon="4.60164">
        <ele>293.6</ele>
        <time>2022-06-25T19:50:38Z</time>
      </trkpt>
      <trkpt lat="46.06379" lon="4.60165">
        <ele>293.6</ele>
        <time>2022-06-25T19:50:39Z</time>
      </trkpt>
      <trkpt lat="46.06381" lon="4.60165">
        <ele>293.8</ele>
        <time>2022-06-25T19:50:40Z</time>
      </trkpt>
      <trkpt lat="46.06383" lon="4.60165">
        <ele>293.8</ele>
        <time>2022-06-25T19:50:41Z</time>
      </trkpt>
      <trkpt lat="46.06385" lon="4.60163">
        <ele>293.8</ele>
        <time>2022-06-25T19:50:42Z</time>
      </trkpt>
      <trkpt lat="46.06386" lon="4.60162">
        <ele>294</ele>
        <time>2022-06-25T19:50:43Z</time>
      </trkpt>
      <trkpt lat="46.06387" lon="4.6016">
        <ele>294.4</ele>
        <time>2022-06-25T19:50:44Z</time>
      </trkpt>
      <trkpt lat="46.06388" lon="4.60159">
        <ele>294.4</ele>
        <time>2022-06-25T19:50:45Z</time>
      </trkpt>
      <trkpt lat="46.06389" lon="4.60158">
        <ele>294.6</ele>
        <time>2022-06-25T19:50:46Z</time>
      </trkpt>
      <trkpt lat="46.06389" lon="4.60157">
        <ele>294.6</ele>
        <time>2022-06-25T19:50:47Z</time>
      </trkpt>
      <trkpt lat="46.06389" lon="4.60156">
        <ele>294.8</ele>
        <time>2022-06-25T19:50:48Z</time>
      </trkpt>
      <trkpt lat="46.06391" lon="4.60154">
        <ele>294.8</ele>
        <time>2022-06-25T19:50:50Z</time>
      </trkpt>
      <trkpt lat="46.06392" lon="4.60153">
        <ele>294.8</ele>
        <time>2022-06-25T19:50:51Z</time>
      </trkpt>
      <trkpt lat="46.06392" lon="4.60153">
        <ele>295</ele>
        <time>2022-06-25T19:50:53Z</time>
      </trkpt>
      <trkpt lat="46.06389" lon="4.60155">
        <ele>295</ele>
        <time>2022-06-25T19:51:05Z</time>
      </trkpt>
      <trkpt lat="46.06388" lon="4.60157">
        <ele>295</ele>
        <time>2022-06-25T19:51:06Z</time>
      </trkpt>
      <trkpt lat="46.06386" lon="4.60159">
        <ele>295</ele>
        <time>2022-06-25T19:51:07Z</time>
      </trkpt>
      <trkpt lat="46.06385" lon="4.6016">
        <ele>295</ele>
        <time>2022-06-25T19:51:08Z</time>
      </trkpt>
      <trkpt lat="46.06383" lon="4.60162">
        <ele>294.8</ele>
        <time>2022-06-25T19:51:09Z</time>
      </trkpt>
      <trkpt lat="46.06381" lon="4.60162">
        <ele>294.8</ele>
        <time>2022-06-25T19:51:10Z</time>
      </trkpt>
      <trkpt lat="46.06379" lon="4.60161">
        <ele>294.6</ele>
        <time>2022-06-25T19:51:11Z</time>
      </trkpt>
      <trkpt lat="46.06377" lon="4.60159">
        <ele>294.6</ele>
        <time>2022-06-25T19:51:12Z</time>
      </trkpt>
      <trkpt lat="46.06375" lon="4.60157">
        <ele>294.4</ele>
        <time>2022-06-25T19:51:13Z</time>
      </trkpt>
      <trkpt lat="46.06374" lon="4.60155">
        <ele>294.4</ele>
        <time>2022-06-25T19:51:14Z</time>
      </trkpt>
      <trkpt lat="46.06373" lon="4.60152">
        <ele>294.2</ele>
        <time>2022-06-25T19:51:15Z</time>
      </trkpt>
      <trkpt lat="46.06372" lon="4.60149">
        <ele>294.2</ele>
        <time>2022-06-25T19:51:16Z</time>
      </trkpt>
      <trkpt lat="46.0637" lon="4.60145">
        <ele>294</ele>
        <time>2022-06-25T19:51:17Z</time>
      </trkpt>
      <trkpt lat="46.06368" lon="4.60141">
        <ele>294</ele>
        <time>2022-06-25T19:51:18Z</time>
      </trkpt>
      <trkpt lat="46.06367" lon="4.60138">
        <ele>294</ele>
        <time>2022-06-25T19:51:19Z</time>
      </trkpt>
      <trkpt lat="46.06365" lon="4.60134">
        <ele>293.6</ele>
        <time>2022-06-25T19:51:20Z</time>
      </trkpt>
      <trkpt lat="46.06364" lon="4.60131">
        <ele>293.6</ele>
        <time>2022-06-25T19:51:21Z</time>
      </trkpt>
      <trkpt lat="46.06362" lon="4.60128">
        <ele>293.6</ele>
        <time>2022-06-25T19:51:22Z</time>
      </trkpt>
      <trkpt lat="46.06361" lon="4.60125">
        <ele>293.4</ele>
        <time>2022-06-25T19:51:23Z</time>
      </trkpt>
      <trkpt lat="46.06361" lon="4.60121">
        <ele>293.4</ele>
        <time>2022-06-25T19:51:24Z</time>
      </trkpt>
      <trkpt lat="46.06359" lon="4.60119">
        <ele>293.4</ele>
        <time>2022-06-25T19:51:25Z</time>
      </trkpt>
      <trkpt lat="46.06358" lon="4.60116">
        <ele>293.2</ele>
        <time>2022-06-25T19:51:26Z</time>
      </trkpt>
      <trkpt lat="46.06357" lon="4.60113">
        <ele>293.2</ele>
        <time>2022-06-25T19:51:27Z</time>
      </trkpt>
      <trkpt lat="46.06355" lon="4.6011">
        <ele>293.2</ele>
        <time>2022-06-25T19:51:28Z</time>
      </trkpt>
      <trkpt lat="46.06354" lon="4.60107">
        <ele>293.2</ele>
        <time>2022-06-25T19:51:29Z</time>
      </trkpt>
      <trkpt lat="46.06352" lon="4.60103">
        <ele>293.2</ele>
        <time>2022-06-25T19:51:30Z</time>
      </trkpt>
      <trkpt lat="46.06351" lon="4.601">
        <ele>293</ele>
        <time>2022-06-25T19:51:31Z</time>
      </trkpt>
      <trkpt lat="46.06349" lon="4.60096">
        <ele>293</ele>
        <time>2022-06-25T19:51:32Z</time>
      </trkpt>
      <trkpt lat="46.06348" lon="4.60092">
        <ele>293</ele>
        <time>2022-06-25T19:51:33Z</time>
      </trkpt>
      <trkpt lat="46.06347" lon="4.60088">
        <ele>292.8</ele>
        <time>2022-06-25T19:51:34Z</time>
      </trkpt>
      <trkpt lat="46.06345" lon="4.60084">
        <ele>292.8</ele>
        <time>2022-06-25T19:51:35Z</time>
      </trkpt>
      <trkpt lat="46.06343" lon="4.6008">
        <ele>292.8</ele>
        <time>2022-06-25T19:51:36Z</time>
      </trkpt>
      <trkpt lat="46.0634" lon="4.60075">
        <ele>292.8</ele>
        <time>2022-06-25T19:51:37Z</time>
      </trkpt>
      <trkpt lat="46.06338" lon="4.6007">
        <ele>292.8</ele>
        <time>2022-06-25T19:51:38Z</time>
      </trkpt>
      <trkpt lat="46.06336" lon="4.60065">
        <ele>292.6</ele>
        <time>2022-06-25T19:51:39Z</time>
      </trkpt>
      <trkpt lat="46.06334" lon="4.6006">
        <ele>292.6</ele>
        <time>2022-06-25T19:51:40Z</time>
      </trkpt>
      <trkpt lat="46.06332" lon="4.60055">
        <ele>292.2</ele>
        <time>2022-06-25T19:51:41Z</time>
      </trkpt>
      <trkpt lat="46.0633" lon="4.6005">
        <ele>292.2</ele>
        <time>2022-06-25T19:51:42Z</time>
      </trkpt>
      <trkpt lat="46.06329" lon="4.60044">
        <ele>292</ele>
        <time>2022-06-25T19:51:43Z</time>
      </trkpt>
      <trkpt lat="46.06326" lon="4.60038">
        <ele>292</ele>
        <time>2022-06-25T19:51:44Z</time>
      </trkpt>
      <trkpt lat="46.06324" lon="4.60033">
        <ele>292</ele>
        <time>2022-06-25T19:51:45Z</time>
      </trkpt>
      <trkpt lat="46.06323" lon="4.60028">
        <ele>292</ele>
        <time>2022-06-25T19:51:46Z</time>
      </trkpt>
      <trkpt lat="46.06321" lon="4.60024">
        <ele>292</ele>
        <time>2022-06-25T19:51:47Z</time>
      </trkpt>
      <trkpt lat="46.06319" lon="4.60019">
        <ele>291.8</ele>
        <time>2022-06-25T19:51:48Z</time>
      </trkpt>
      <trkpt lat="46.06317" lon="4.60015">
        <ele>291.8</ele>
        <time>2022-06-25T19:51:49Z</time>
      </trkpt>
      <trkpt lat="46.06315" lon="4.60011">
        <ele>291.4</ele>
        <time>2022-06-25T19:51:50Z</time>
      </trkpt>
      <trkpt lat="46.06313" lon="4.60007">
        <ele>291.2</ele>
        <time>2022-06-25T19:51:51Z</time>
      </trkpt>
      <trkpt lat="46.06311" lon="4.60004">
        <ele>290.8</ele>
        <time>2022-06-25T19:51:52Z</time>
      </trkpt>
      <trkpt lat="46.0631" lon="4.60002">
        <ele>290.6</ele>
        <time>2022-06-25T19:51:53Z</time>
      </trkpt>
      <trkpt lat="46.06308" lon="4.60001">
        <ele>290.4</ele>
        <time>2022-06-25T19:51:54Z</time>
      </trkpt>
      <trkpt lat="46.06306" lon="4.60002">
        <ele>290.4</ele>
        <time>2022-06-25T19:51:55Z</time>
      </trkpt>
      <trkpt lat="46.06304" lon="4.60003">
        <ele>290</ele>
        <time>2022-06-25T19:51:56Z</time>
      </trkpt>
      <trkpt lat="46.06302" lon="4.60005">
        <ele>290</ele>
        <time>2022-06-25T19:51:57Z</time>
      </trkpt>
      <trkpt lat="46.06301" lon="4.60008">
        <ele>290</ele>
        <time>2022-06-25T19:51:58Z</time>
      </trkpt>
      <trkpt lat="46.063" lon="4.60012">
        <ele>290</ele>
        <time>2022-06-25T19:51:59Z</time>
      </trkpt>
      <trkpt lat="46.063" lon="4.60017">
        <ele>290</ele>
        <time>2022-06-25T19:52:00Z</time>
      </trkpt>
      <trkpt lat="46.06299" lon="4.60022">
        <ele>289.8</ele>
        <time>2022-06-25T19:52:01Z</time>
      </trkpt>
      <trkpt lat="46.06299" lon="4.60027">
        <ele>289.8</ele>
        <time>2022-06-25T19:52:02Z</time>
      </trkpt>
      <trkpt lat="46.06299" lon="4.60032">
        <ele>289.8</ele>
        <time>2022-06-25T19:52:03Z</time>
      </trkpt>
      <trkpt lat="46.06298" lon="4.60037">
        <ele>289.8</ele>
        <time>2022-06-25T19:52:04Z</time>
      </trkpt>
      <trkpt lat="46.06298" lon="4.60043">
        <ele>289.8</ele>
        <time>2022-06-25T19:52:05Z</time>
      </trkpt>
      <trkpt lat="46.06297" lon="4.60048">
        <ele>289.8</ele>
        <time>2022-06-25T19:52:06Z</time>
      </trkpt>
      <trkpt lat="46.06297" lon="4.60054">
        <ele>289.8</ele>
        <time>2022-06-25T19:52:07Z</time>
      </trkpt>
      <trkpt lat="46.06296" lon="4.6006">
        <ele>289.6</ele>
        <time>2022-06-25T19:52:08Z</time>
      </trkpt>
      <trkpt lat="46.06296" lon="4.60066">
        <ele>289.6</ele>
        <time>2022-06-25T19:52:09Z</time>
      </trkpt>
      <trkpt lat="46.06296" lon="4.60072">
        <ele>289.2</ele>
        <time>2022-06-25T19:52:10Z</time>
      </trkpt>
      <trkpt lat="46.06296" lon="4.60077">
        <ele>289.2</ele>
        <time>2022-06-25T19:52:11Z</time>
      </trkpt>
      <trkpt lat="46.06296" lon="4.60083">
        <ele>288.8</ele>
        <time>2022-06-25T19:52:12Z</time>
      </trkpt>
      <trkpt lat="46.06296" lon="4.60088">
        <ele>288.8</ele>
        <time>2022-06-25T19:52:13Z</time>
      </trkpt>
      <trkpt lat="46.06296" lon="4.60092">
        <ele>288.6</ele>
        <time>2022-06-25T19:52:14Z</time>
      </trkpt>
      <trkpt lat="46.06295" lon="4.60096">
        <ele>288.6</ele>
        <time>2022-06-25T19:52:15Z</time>
      </trkpt>
      <trkpt lat="46.06295" lon="4.60099">
        <ele>288.4</ele>
        <time>2022-06-25T19:52:16Z</time>
      </trkpt>
      <trkpt lat="46.06295" lon="4.60103">
        <ele>288.4</ele>
        <time>2022-06-25T19:52:17Z</time>
      </trkpt>
      <trkpt lat="46.06294" lon="4.60107">
        <ele>288.4</ele>
        <time>2022-06-25T19:52:18Z</time>
      </trkpt>
      <trkpt lat="46.06293" lon="4.60111">
        <ele>288</ele>
        <time>2022-06-25T19:52:19Z</time>
      </trkpt>
      <trkpt lat="46.06293" lon="4.60115">
        <ele>288</ele>
        <time>2022-06-25T19:52:20Z</time>
      </trkpt>
      <trkpt lat="46.06292" lon="4.6012">
        <ele>287.6</ele>
        <time>2022-06-25T19:52:21Z</time>
      </trkpt>
      <trkpt lat="46.06292" lon="4.60124">
        <ele>287.6</ele>
        <time>2022-06-25T19:52:22Z</time>
      </trkpt>
      <trkpt lat="46.06292" lon="4.60128">
        <ele>287.6</ele>
        <time>2022-06-25T19:52:23Z</time>
      </trkpt>
      <trkpt lat="46.06291" lon="4.60133">
        <ele>287.6</ele>
        <time>2022-06-25T19:52:24Z</time>
      </trkpt>
      <trkpt lat="46.06291" lon="4.60137">
        <ele>287.4</ele>
        <time>2022-06-25T19:52:26Z</time>
      </trkpt>
      <trkpt lat="46.0629" lon="4.60141">
        <ele>287.4</ele>
        <time>2022-06-25T19:52:27Z</time>
      </trkpt>
      <trkpt lat="46.0629" lon="4.60145">
        <ele>287.2</ele>
        <time>2022-06-25T19:52:28Z</time>
      </trkpt>
      <trkpt lat="46.06289" lon="4.60148">
        <ele>287.2</ele>
        <time>2022-06-25T19:52:29Z</time>
      </trkpt>
      <trkpt lat="46.06287" lon="4.60151">
        <ele>287.2</ele>
        <time>2022-06-25T19:52:30Z</time>
      </trkpt>
      <trkpt lat="46.06287" lon="4.60152">
        <ele>287</ele>
        <time>2022-06-25T19:52:31Z</time>
      </trkpt>
      <trkpt lat="46.06287" lon="4.60153">
        <ele>287</ele>
        <time>2022-06-25T19:52:32Z</time>
      </trkpt>
      <trkpt lat="46.06286" lon="4.60154">
        <ele>287</ele>
        <time>2022-06-25T19:52:33Z</time>
      </trkpt>
      <trkpt lat="46.06286" lon="4.60155">
        <ele>287</ele>
        <time>2022-06-25T19:52:34Z</time>
      </trkpt>
      <trkpt lat="46.06286" lon="4.60156">
        <ele>287</ele>
        <time>2022-06-25T19:52:35Z</time>
      </trkpt>
      <trkpt lat="46.06286" lon="4.60157">
        <ele>287</ele>
        <time>2022-06-25T19:52:36Z</time>
      </trkpt>
      <trkpt lat="46.06285" lon="4.60158">
        <ele>287</ele>
        <time>2022-06-25T19:52:37Z</time>
      </trkpt>
      <trkpt lat="46.06285" lon="4.60159">
        <ele>287</ele>
        <time>2022-06-25T19:52:38Z</time>
      </trkpt>
      <trkpt lat="46.06285" lon="4.6016">
        <ele>287</ele>
        <time>2022-06-25T19:52:40Z</time>
      </trkpt>
      <trkpt lat="46.06284" lon="4.60161">
        <ele>286.8</ele>
        <time>2022-06-25T19:52:41Z</time>
      </trkpt>
      <trkpt lat="46.06284" lon="4.60162">
        <ele>286.8</ele>
        <time>2022-06-25T19:52:42Z</time>
      </trkpt>
      <trkpt lat="46.06283" lon="4.60165">
        <ele>286.8</ele>
        <time>2022-06-25T19:52:43Z</time>
      </trkpt>
      <trkpt lat="46.06283" lon="4.60167">
        <ele>286.8</ele>
        <time>2022-06-25T19:52:44Z</time>
      </trkpt>
      <trkpt lat="46.06282" lon="4.60171">
        <ele>286.6</ele>
        <time>2022-06-25T19:52:45Z</time>
      </trkpt>
      <trkpt lat="46.06282" lon="4.60174">
        <ele>286.6</ele>
        <time>2022-06-25T19:52:46Z</time>
      </trkpt>
      <trkpt lat="46.06282" lon="4.60178">
        <ele>286.6</ele>
        <time>2022-06-25T19:52:47Z</time>
      </trkpt>
      <trkpt lat="46.06283" lon="4.60183">
        <ele>286.6</ele>
        <time>2022-06-25T19:52:48Z</time>
      </trkpt>
      <trkpt lat="46.06283" lon="4.60186">
        <ele>286.2</ele>
        <time>2022-06-25T19:52:49Z</time>
      </trkpt>
      <trkpt lat="46.06283" lon="4.60189">
        <ele>286.2</ele>
        <time>2022-06-25T19:52:50Z</time>
      </trkpt>
      <trkpt lat="46.06281" lon="4.60192">
        <ele>286</ele>
        <time>2022-06-25T19:52:51Z</time>
      </trkpt>
      <trkpt lat="46.0628" lon="4.60194">
        <ele>286</ele>
        <time>2022-06-25T19:52:52Z</time>
      </trkpt>
      <trkpt lat="46.06278" lon="4.60196">
        <ele>285.8</ele>
        <time>2022-06-25T19:52:53Z</time>
      </trkpt>
      <trkpt lat="46.06276" lon="4.60197">
        <ele>285.8</ele>
        <time>2022-06-25T19:52:54Z</time>
      </trkpt>
      <trkpt lat="46.06274" lon="4.60198">
        <ele>285.8</ele>
        <time>2022-06-25T19:52:55Z</time>
      </trkpt>
      <trkpt lat="46.06271" lon="4.60198">
        <ele>285.8</ele>
        <time>2022-06-25T19:52:56Z</time>
      </trkpt>
      <trkpt lat="46.06269" lon="4.60197">
        <ele>285.8</ele>
        <time>2022-06-25T19:52:57Z</time>
      </trkpt>
      <trkpt lat="46.06266" lon="4.60197">
        <ele>285.4</ele>
        <time>2022-06-25T19:52:58Z</time>
      </trkpt>
      <trkpt lat="46.06264" lon="4.60195">
        <ele>285.4</ele>
        <time>2022-06-25T19:52:59Z</time>
      </trkpt>
      <trkpt lat="46.06262" lon="4.60193">
        <ele>285.4</ele>
        <time>2022-06-25T19:53:00Z</time>
      </trkpt>
      <trkpt lat="46.0626" lon="4.6019">
        <ele>285.4</ele>
        <time>2022-06-25T19:53:01Z</time>
      </trkpt>
      <trkpt lat="46.06259" lon="4.60187">
        <ele>285.2</ele>
        <time>2022-06-25T19:53:02Z</time>
      </trkpt>
      <trkpt lat="46.06258" lon="4.60183">
        <ele>285.2</ele>
        <time>2022-06-25T19:53:03Z</time>
      </trkpt>
      <trkpt lat="46.06257" lon="4.60179">
        <ele>285.2</ele>
        <time>2022-06-25T19:53:04Z</time>
      </trkpt>
      <trkpt lat="46.06258" lon="4.60174">
        <ele>285.2</ele>
        <time>2022-06-25T19:53:05Z</time>
      </trkpt>
      <trkpt lat="46.06258" lon="4.6017">
        <ele>285.2</ele>
        <time>2022-06-25T19:53:06Z</time>
      </trkpt>
      <trkpt lat="46.06259" lon="4.60165">
        <ele>285.2</ele>
        <time>2022-06-25T19:53:07Z</time>
      </trkpt>
      <trkpt lat="46.0626" lon="4.60161">
        <ele>285.2</ele>
        <time>2022-06-25T19:53:08Z</time>
      </trkpt>
      <trkpt lat="46.06262" lon="4.60157">
        <ele>285.2</ele>
        <time>2022-06-25T19:53:09Z</time>
      </trkpt>
      <trkpt lat="46.06263" lon="4.60153">
        <ele>285.4</ele>
        <time>2022-06-25T19:53:10Z</time>
      </trkpt>
      <trkpt lat="46.06264" lon="4.6015">
        <ele>285.4</ele>
        <time>2022-06-25T19:53:11Z</time>
      </trkpt>
      <trkpt lat="46.06266" lon="4.60147">
        <ele>285.4</ele>
        <time>2022-06-25T19:53:12Z</time>
      </trkpt>
      <trkpt lat="46.06267" lon="4.60144">
        <ele>285.8</ele>
        <time>2022-06-25T19:53:13Z</time>
      </trkpt>
      <trkpt lat="46.0627" lon="4.60142">
        <ele>285.8</ele>
        <time>2022-06-25T19:53:14Z</time>
      </trkpt>
      <trkpt lat="46.06272" lon="4.6014">
        <ele>286</ele>
        <time>2022-06-25T19:53:15Z</time>
      </trkpt>
      <trkpt lat="46.06274" lon="4.60138">
        <ele>286</ele>
        <time>2022-06-25T19:53:16Z</time>
      </trkpt>
      <trkpt lat="46.06277" lon="4.60137">
        <ele>286.2</ele>
        <time>2022-06-25T19:53:17Z</time>
      </trkpt>
      <trkpt lat="46.0628" lon="4.60137">
        <ele>286.2</ele>
        <time>2022-06-25T19:53:18Z</time>
      </trkpt>
      <trkpt lat="46.06282" lon="4.60137">
        <ele>286.2</ele>
        <time>2022-06-25T19:53:19Z</time>
      </trkpt>
      <trkpt lat="46.06284" lon="4.60137">
        <ele>286.4</ele>
        <time>2022-06-25T19:53:20Z</time>
      </trkpt>
      <trkpt lat="46.06286" lon="4.60137">
        <ele>286.4</ele>
        <time>2022-06-25T19:53:21Z</time>
      </trkpt>
      <trkpt lat="46.06288" lon="4.60136">
        <ele>286.8</ele>
        <time>2022-06-25T19:53:22Z</time>
      </trkpt>
      <trkpt lat="46.06289" lon="4.60134">
        <ele>286.8</ele>
        <time>2022-06-25T19:53:23Z</time>
      </trkpt>
      <trkpt lat="46.0629" lon="4.60132">
        <ele>286.8</ele>
        <time>2022-06-25T19:53:24Z</time>
      </trkpt>
      <trkpt lat="46.0629" lon="4.6013">
        <ele>287</ele>
        <time>2022-06-25T19:53:25Z</time>
      </trkpt>
      <trkpt lat="46.06291" lon="4.60128">
        <ele>287</ele>
        <time>2022-06-25T19:53:26Z</time>
      </trkpt>
      <trkpt lat="46.06291" lon="4.60126">
        <ele>287</ele>
        <time>2022-06-25T19:53:27Z</time>
      </trkpt>
      <trkpt lat="46.06291" lon="4.60126">
        <ele>287</ele>
        <time>2022-06-25T19:53:29Z</time>
      </trkpt>
      <trkpt lat="46.0629" lon="4.60122">
        <ele>287.2</ele>
        <time>2022-06-25T19:53:39Z</time>
      </trkpt>
      <trkpt lat="46.06288" lon="4.60119">
        <ele>287.2</ele>
        <time>2022-06-25T19:53:40Z</time>
      </trkpt>
      <trkpt lat="46.06285" lon="4.60117">
        <ele>287.2</ele>
        <time>2022-06-25T19:53:41Z</time>
      </trkpt>
      <trkpt lat="46.06282" lon="4.60115">
        <ele>287.2</ele>
        <time>2022-06-25T19:53:42Z</time>
      </trkpt>
      <trkpt lat="46.06279" lon="4.60112">
        <ele>286.8</ele>
        <time>2022-06-25T19:53:43Z</time>
      </trkpt>
      <trkpt lat="46.06274" lon="4.6011">
        <ele>286.8</ele>
        <time>2022-06-25T19:53:44Z</time>
      </trkpt>
      <trkpt lat="46.0627" lon="4.60107">
        <ele>286.4</ele>
        <time>2022-06-25T19:53:45Z</time>
      </trkpt>
      <trkpt lat="46.06265" lon="4.60105">
        <ele>286.2</ele>
        <time>2022-06-25T19:53:46Z</time>
      </trkpt>
      <trkpt lat="46.06261" lon="4.60103">
        <ele>285.8</ele>
        <time>2022-06-25T19:53:47Z</time>
      </trkpt>
      <trkpt lat="46.06257" lon="4.60101">
        <ele>285.6</ele>
        <time>2022-06-25T19:53:48Z</time>
      </trkpt>
      <trkpt lat="46.06254" lon="4.60099">
        <ele>285.4</ele>
        <time>2022-06-25T19:53:49Z</time>
      </trkpt>
      <trkpt lat="46.06251" lon="4.60097">
        <ele>285</ele>
        <time>2022-06-25T19:53:50Z</time>
      </trkpt>
      <trkpt lat="46.06249" lon="4.60096">
        <ele>284.8</ele>
        <time>2022-06-25T19:53:51Z</time>
      </trkpt>
      <trkpt lat="46.06248" lon="4.60097">
        <ele>284.6</ele>
        <time>2022-06-25T19:53:52Z</time>
      </trkpt>
      <trkpt lat="46.06249" lon="4.60097">
        <ele>284.4</ele>
        <time>2022-06-25T19:53:54Z</time>
      </trkpt>
      <trkpt lat="46.06249" lon="4.60097">
        <ele>284.4</ele>
        <time>2022-06-25T19:53:55Z</time>
      </trkpt>
      <trkpt lat="46.0625" lon="4.60097">
        <ele>284.4</ele>
        <time>2022-06-25T19:53:57Z</time>
      </trkpt>
      <trkpt lat="46.0625" lon="4.60097">
        <ele>284.2</ele>
        <time>2022-06-25T19:54:03Z</time>
      </trkpt>
      <trkpt lat="46.06251" lon="4.60098">
        <ele>284.2</ele>
        <time>2022-06-25T19:54:04Z</time>
      </trkpt>
      <trkpt lat="46.06251" lon="4.60098">
        <ele>284.2</ele>
        <time>2022-06-25T19:54:06Z</time>
      </trkpt>
      <trkpt lat="46.06252" lon="4.60098">
        <ele>284.2</ele>
        <time>2022-06-25T19:54:07Z</time>
      </trkpt>
      <trkpt lat="46.06253" lon="4.60098">
        <ele>284.2</ele>
        <time>2022-06-25T19:54:09Z</time>
      </trkpt>
      <trkpt lat="46.06253" lon="4.60098">
        <ele>284.6</ele>
        <time>2022-06-25T19:54:13Z</time>
      </trkpt>
      <trkpt lat="46.06254" lon="4.60098">
        <ele>284.6</ele>
        <time>2022-06-25T19:54:14Z</time>
      </trkpt>
      <trkpt lat="46.06255" lon="4.60098">
        <ele>284.6</ele>
        <time>2022-06-25T19:54:15Z</time>
      </trkpt>
      <trkpt lat="46.06256" lon="4.60098">
        <ele>284.6</ele>
        <time>2022-06-25T19:54:16Z</time>
      </trkpt>
      <trkpt lat="46.06257" lon="4.60098">
        <ele>284.6</ele>
        <time>2022-06-25T19:54:17Z</time>
      </trkpt>
      <trkpt lat="46.06258" lon="4.60098">
        <ele>284.8</ele>
        <time>2022-06-25T19:54:18Z</time>
      </trkpt>
      <trkpt lat="46.06258" lon="4.60097">
        <ele>284.8</ele>
        <time>2022-06-25T19:54:20Z</time>
      </trkpt>
      <trkpt lat="46.06258" lon="4.60097">
        <ele>285.4</ele>
        <time>2022-06-25T19:54:36Z</time>
      </trkpt>
      <trkpt lat="46.06256" lon="4.601">
        <ele>284.4</ele>
        <time>2022-06-25T19:55:01Z</time>
      </trkpt>
      <trkpt lat="46.06253" lon="4.60099">
        <ele>284.2</ele>
        <time>2022-06-25T19:55:02Z</time>
      </trkpt>
      <trkpt lat="46.06251" lon="4.60098">
        <ele>284</ele>
        <time>2022-06-25T19:55:03Z</time>
      </trkpt>
      <trkpt lat="46.06248" lon="4.60097">
        <ele>284</ele>
        <time>2022-06-25T19:55:04Z</time>
      </trkpt>
      <trkpt lat="46.06244" lon="4.60095">
        <ele>283.6</ele>
        <time>2022-06-25T19:55:05Z</time>
      </trkpt>
      <trkpt lat="46.06241" lon="4.60094">
        <ele>283.6</ele>
        <time>2022-06-25T19:55:06Z</time>
      </trkpt>
      <trkpt lat="46.06236" lon="4.60091">
        <ele>283.2</ele>
        <time>2022-06-25T19:55:07Z</time>
      </trkpt>
      <trkpt lat="46.06232" lon="4.60089">
        <ele>283</ele>
        <time>2022-06-25T19:55:08Z</time>
      </trkpt>
      <trkpt lat="46.06227" lon="4.60087">
        <ele>282.6</ele>
        <time>2022-06-25T19:55:09Z</time>
      </trkpt>
      <trkpt lat="46.06222" lon="4.60085">
        <ele>282.4</ele>
        <time>2022-06-25T19:55:10Z</time>
      </trkpt>
      <trkpt lat="46.06218" lon="4.60082">
        <ele>282.2</ele>
        <time>2022-06-25T19:55:11Z</time>
      </trkpt>
      <trkpt lat="46.06213" lon="4.60079">
        <ele>281.8</ele>
        <time>2022-06-25T19:55:12Z</time>
      </trkpt>
      <trkpt lat="46.06209" lon="4.60076">
        <ele>281.4</ele>
        <time>2022-06-25T19:55:13Z</time>
      </trkpt>
      <trkpt lat="46.06204" lon="4.60073">
        <ele>281</ele>
        <time>2022-06-25T19:55:14Z</time>
      </trkpt>
      <trkpt lat="46.062" lon="4.60071">
        <ele>280.8</ele>
        <time>2022-06-25T19:55:15Z</time>
      </trkpt>
      <trkpt lat="46.06197" lon="4.60069">
        <ele>280.4</ele>
        <time>2022-06-25T19:55:16Z</time>
      </trkpt>
      <trkpt lat="46.06193" lon="4.60066">
        <ele>280.2</ele>
        <time>2022-06-25T19:55:17Z</time>
      </trkpt>
      <trkpt lat="46.06189" lon="4.60063">
        <ele>279.8</ele>
        <time>2022-06-25T19:55:18Z</time>
      </trkpt>
      <trkpt lat="46.06186" lon="4.6006">
        <ele>279.6</ele>
        <time>2022-06-25T19:55:19Z</time>
      </trkpt>
      <trkpt lat="46.06182" lon="4.60057">
        <ele>279.4</ele>
        <time>2022-06-25T19:55:20Z</time>
      </trkpt>
      <trkpt lat="46.06179" lon="4.60054">
        <ele>279.4</ele>
        <time>2022-06-25T19:55:21Z</time>
      </trkpt>
      <trkpt lat="46.06175" lon="4.60051">
        <ele>279</ele>
        <time>2022-06-25T19:55:22Z</time>
      </trkpt>
      <trkpt lat="46.06172" lon="4.60049">
        <ele>279</ele>
        <time>2022-06-25T19:55:23Z</time>
      </trkpt>
      <trkpt lat="46.0617" lon="4.60047">
        <ele>278.8</ele>
        <time>2022-06-25T19:55:24Z</time>
      </trkpt>
      <trkpt lat="46.06167" lon="4.60044">
        <ele>278.8</ele>
        <time>2022-06-25T19:55:25Z</time>
      </trkpt>
      <trkpt lat="46.06164" lon="4.60042">
        <ele>278.6</ele>
        <time>2022-06-25T19:55:26Z</time>
      </trkpt>
      <trkpt lat="46.06162" lon="4.6004">
        <ele>278.6</ele>
        <time>2022-06-25T19:55:27Z</time>
      </trkpt>
      <trkpt lat="46.0616" lon="4.60037">
        <ele>278.6</ele>
        <time>2022-06-25T19:55:28Z</time>
      </trkpt>
      <trkpt lat="46.06158" lon="4.60035">
        <ele>278.6</ele>
        <time>2022-06-25T19:55:29Z</time>
      </trkpt>
      <trkpt lat="46.06156" lon="4.60033">
        <ele>278.6</ele>
        <time>2022-06-25T19:55:30Z</time>
      </trkpt>
      <trkpt lat="46.06154" lon="4.60031">
        <ele>278.6</ele>
        <time>2022-06-25T19:55:31Z</time>
      </trkpt>
      <trkpt lat="46.06152" lon="4.60029">
        <ele>278.6</ele>
        <time>2022-06-25T19:55:32Z</time>
      </trkpt>
      <trkpt lat="46.06149" lon="4.60027">
        <ele>278.6</ele>
        <time>2022-06-25T19:55:33Z</time>
      </trkpt>
      <trkpt lat="46.06147" lon="4.60025">
        <ele>278.6</ele>
        <time>2022-06-25T19:55:34Z</time>
      </trkpt>
      <trkpt lat="46.06144" lon="4.60023">
        <ele>278.8</ele>
        <time>2022-06-25T19:55:35Z</time>
      </trkpt>
      <trkpt lat="46.0614" lon="4.60021">
        <ele>278.8</ele>
        <time>2022-06-25T19:55:36Z</time>
      </trkpt>
      <trkpt lat="46.06137" lon="4.60018">
        <ele>278.8</ele>
        <time>2022-06-25T19:55:37Z</time>
      </trkpt>
      <trkpt lat="46.06134" lon="4.60016">
        <ele>278.8</ele>
        <time>2022-06-25T19:55:38Z</time>
      </trkpt>
      <trkpt lat="46.06131" lon="4.60013">
        <ele>279</ele>
        <time>2022-06-25T19:55:39Z</time>
      </trkpt>
      <trkpt lat="46.06128" lon="4.60011">
        <ele>279</ele>
        <time>2022-06-25T19:55:40Z</time>
      </trkpt>
      <trkpt lat="46.06125" lon="4.6001">
        <ele>279</ele>
        <time>2022-06-25T19:55:41Z</time>
      </trkpt>
      <trkpt lat="46.06121" lon="4.60009">
        <ele>279.2</ele>
        <time>2022-06-25T19:55:42Z</time>
      </trkpt>
      <trkpt lat="46.06119" lon="4.60008">
        <ele>279.2</ele>
        <time>2022-06-25T19:55:43Z</time>
      </trkpt>
      <trkpt lat="46.06116" lon="4.60008">
        <ele>279.6</ele>
        <time>2022-06-25T19:55:44Z</time>
      </trkpt>
      <trkpt lat="46.06113" lon="4.60008">
        <ele>279.6</ele>
        <time>2022-06-25T19:55:45Z</time>
      </trkpt>
      <trkpt lat="46.0611" lon="4.60008">
        <ele>279.8</ele>
        <time>2022-06-25T19:55:46Z</time>
      </trkpt>
      <trkpt lat="46.06108" lon="4.60009">
        <ele>279.8</ele>
        <time>2022-06-25T19:55:47Z</time>
      </trkpt>
      <trkpt lat="46.06105" lon="4.6001">
        <ele>280.2</ele>
        <time>2022-06-25T19:55:48Z</time>
      </trkpt>
      <trkpt lat="46.06102" lon="4.60011">
        <ele>280.2</ele>
        <time>2022-06-25T19:55:49Z</time>
      </trkpt>
      <trkpt lat="46.061" lon="4.60012">
        <ele>280.4</ele>
        <time>2022-06-25T19:55:50Z</time>
      </trkpt>
      <trkpt lat="46.06097" lon="4.60013">
        <ele>280.4</ele>
        <time>2022-06-25T19:55:51Z</time>
      </trkpt>
      <trkpt lat="46.06095" lon="4.60015">
        <ele>280.8</ele>
        <time>2022-06-25T19:55:52Z</time>
      </trkpt>
      <trkpt lat="46.06093" lon="4.60017">
        <ele>280.8</ele>
        <time>2022-06-25T19:55:53Z</time>
      </trkpt>
      <trkpt lat="46.0609" lon="4.60019">
        <ele>281</ele>
        <time>2022-06-25T19:55:54Z</time>
      </trkpt>
      <trkpt lat="46.06088" lon="4.6002">
        <ele>281</ele>
        <time>2022-06-25T19:55:55Z</time>
      </trkpt>
      <trkpt lat="46.06086" lon="4.60022">
        <ele>281.4</ele>
        <time>2022-06-25T19:55:56Z</time>
      </trkpt>
      <trkpt lat="46.06084" lon="4.60024">
        <ele>281.4</ele>
        <time>2022-06-25T19:55:57Z</time>
      </trkpt>
      <trkpt lat="46.06082" lon="4.60026">
        <ele>281.8</ele>
        <time>2022-06-25T19:55:58Z</time>
      </trkpt>
      <trkpt lat="46.0608" lon="4.60028">
        <ele>281.8</ele>
        <time>2022-06-25T19:55:59Z</time>
      </trkpt>
      <trkpt lat="46.06078" lon="4.60031">
        <ele>282.2</ele>
        <time>2022-06-25T19:56:00Z</time>
      </trkpt>
      <trkpt lat="46.06076" lon="4.60033">
        <ele>282.4</ele>
        <time>2022-06-25T19:56:01Z</time>
      </trkpt>
      <trkpt lat="46.06075" lon="4.60036">
        <ele>282.4</ele>
        <time>2022-06-25T19:56:02Z</time>
      </trkpt>
      <trkpt lat="46.06073" lon="4.60038">
        <ele>282.8</ele>
        <time>2022-06-25T19:56:03Z</time>
      </trkpt>
      <trkpt lat="46.06071" lon="4.60041">
        <ele>283</ele>
        <time>2022-06-25T19:56:04Z</time>
      </trkpt>
      <trkpt lat="46.0607" lon="4.60044">
        <ele>283.2</ele>
        <time>2022-06-25T19:56:05Z</time>
      </trkpt>
      <trkpt lat="46.06068" lon="4.60047">
        <ele>283.4</ele>
        <time>2022-06-25T19:56:06Z</time>
      </trkpt>
      <trkpt lat="46.06066" lon="4.60049">
        <ele>283.4</ele>
        <time>2022-06-25T19:56:07Z</time>
      </trkpt>
      <trkpt lat="46.06065" lon="4.60052">
        <ele>283.8</ele>
        <time>2022-06-25T19:56:08Z</time>
      </trkpt>
      <trkpt lat="46.06063" lon="4.60055">
        <ele>284</ele>
        <time>2022-06-25T19:56:09Z</time>
      </trkpt>
      <trkpt lat="46.06062" lon="4.60058">
        <ele>284</ele>
        <time>2022-06-25T19:56:10Z</time>
      </trkpt>
      <trkpt lat="46.06061" lon="4.60061">
        <ele>284.2</ele>
        <time>2022-06-25T19:56:11Z</time>
      </trkpt>
      <trkpt lat="46.0606" lon="4.60065">
        <ele>284.2</ele>
        <time>2022-06-25T19:56:12Z</time>
      </trkpt>
      <trkpt lat="46.06059" lon="4.60068">
        <ele>284.6</ele>
        <time>2022-06-25T19:56:13Z</time>
      </trkpt>
      <trkpt lat="46.06058" lon="4.60071">
        <ele>284.6</ele>
        <time>2022-06-25T19:56:14Z</time>
      </trkpt>
      <trkpt lat="46.06057" lon="4.60075">
        <ele>285</ele>
        <time>2022-06-25T19:56:15Z</time>
      </trkpt>
      <trkpt lat="46.06056" lon="4.60078">
        <ele>285.2</ele>
        <time>2022-06-25T19:56:16Z</time>
      </trkpt>
      <trkpt lat="46.06055" lon="4.60082">
        <ele>285.2</ele>
        <time>2022-06-25T19:56:17Z</time>
      </trkpt>
      <trkpt lat="46.06055" lon="4.60085">
        <ele>285.4</ele>
        <time>2022-06-25T19:56:18Z</time>
      </trkpt>
      <trkpt lat="46.06054" lon="4.60089">
        <ele>285.4</ele>
        <time>2022-06-25T19:56:19Z</time>
      </trkpt>
      <trkpt lat="46.06053" lon="4.60092">
        <ele>285.6</ele>
        <time>2022-06-25T19:56:20Z</time>
      </trkpt>
      <trkpt lat="46.06052" lon="4.60096">
        <ele>285.6</ele>
        <time>2022-06-25T19:56:21Z</time>
      </trkpt>
      <trkpt lat="46.06049" lon="4.60102">
        <ele>286</ele>
        <time>2022-06-25T19:56:22Z</time>
      </trkpt>
      <trkpt lat="46.06048" lon="4.60106">
        <ele>286.4</ele>
        <time>2022-06-25T19:56:24Z</time>
      </trkpt>
      <trkpt lat="46.06047" lon="4.60109">
        <ele>286.4</ele>
        <time>2022-06-25T19:56:25Z</time>
      </trkpt>
      <trkpt lat="46.06046" lon="4.60112">
        <ele>286.6</ele>
        <time>2022-06-25T19:56:26Z</time>
      </trkpt>
      <trkpt lat="46.06045" lon="4.60116">
        <ele>286.6</ele>
        <time>2022-06-25T19:56:27Z</time>
      </trkpt>
      <trkpt lat="46.06044" lon="4.6012">
        <ele>286.8</ele>
        <time>2022-06-25T19:56:28Z</time>
      </trkpt>
      <trkpt lat="46.06043" lon="4.60123">
        <ele>286.8</ele>
        <time>2022-06-25T19:56:29Z</time>
      </trkpt>
      <trkpt lat="46.06042" lon="4.60126">
        <ele>287.2</ele>
        <time>2022-06-25T19:56:30Z</time>
      </trkpt>
      <trkpt lat="46.06041" lon="4.60129">
        <ele>287.2</ele>
        <time>2022-06-25T19:56:31Z</time>
      </trkpt>
      <trkpt lat="46.06039" lon="4.60132">
        <ele>287.4</ele>
        <time>2022-06-25T19:56:32Z</time>
      </trkpt>
      <trkpt lat="46.06038" lon="4.60136">
        <ele>287.4</ele>
        <time>2022-06-25T19:56:33Z</time>
      </trkpt>
      <trkpt lat="46.06038" lon="4.60139">
        <ele>287.8</ele>
        <time>2022-06-25T19:56:34Z</time>
      </trkpt>
      <trkpt lat="46.06037" lon="4.60143">
        <ele>288</ele>
        <time>2022-06-25T19:56:35Z</time>
      </trkpt>
      <trkpt lat="46.06036" lon="4.60146">
        <ele>288.2</ele>
        <time>2022-06-25T19:56:36Z</time>
      </trkpt>
      <trkpt lat="46.06036" lon="4.6015">
        <ele>288.2</ele>
        <time>2022-06-25T19:56:37Z</time>
      </trkpt>
      <trkpt lat="46.06035" lon="4.60153">
        <ele>288.4</ele>
        <time>2022-06-25T19:56:38Z</time>
      </trkpt>
      <trkpt lat="46.06034" lon="4.60157">
        <ele>288.4</ele>
        <time>2022-06-25T19:56:39Z</time>
      </trkpt>
      <trkpt lat="46.06033" lon="4.6016">
        <ele>288.8</ele>
        <time>2022-06-25T19:56:40Z</time>
      </trkpt>
      <trkpt lat="46.06032" lon="4.60164">
        <ele>288.8</ele>
        <time>2022-06-25T19:56:41Z</time>
      </trkpt>
      <trkpt lat="46.06031" lon="4.60167">
        <ele>289.2</ele>
        <time>2022-06-25T19:56:42Z</time>
      </trkpt>
      <trkpt lat="46.0603" lon="4.6017">
        <ele>289.2</ele>
        <time>2022-06-25T19:56:43Z</time>
      </trkpt>
      <trkpt lat="46.06029" lon="4.60174">
        <ele>289.4</ele>
        <time>2022-06-25T19:56:44Z</time>
      </trkpt>
      <trkpt lat="46.06028" lon="4.60177">
        <ele>289.6</ele>
        <time>2022-06-25T19:56:45Z</time>
      </trkpt>
      <trkpt lat="46.06027" lon="4.60181">
        <ele>289.6</ele>
        <time>2022-06-25T19:56:46Z</time>
      </trkpt>
      <trkpt lat="46.06025" lon="4.60184">
        <ele>290</ele>
        <time>2022-06-25T19:56:47Z</time>
      </trkpt>
      <trkpt lat="46.06024" lon="4.60188">
        <ele>290</ele>
        <time>2022-06-25T19:56:48Z</time>
      </trkpt>
      <trkpt lat="46.06023" lon="4.60191">
        <ele>290.2</ele>
        <time>2022-06-25T19:56:49Z</time>
      </trkpt>
      <trkpt lat="46.06022" lon="4.60195">
        <ele>290.2</ele>
        <time>2022-06-25T19:56:50Z</time>
      </trkpt>
      <trkpt lat="46.06021" lon="4.60198">
        <ele>290.6</ele>
        <time>2022-06-25T19:56:51Z</time>
      </trkpt>
      <trkpt lat="46.06019" lon="4.60202">
        <ele>290.8</ele>
        <time>2022-06-25T19:56:52Z</time>
      </trkpt>
      <trkpt lat="46.06018" lon="4.60205">
        <ele>291</ele>
        <time>2022-06-25T19:56:53Z</time>
      </trkpt>
      <trkpt lat="46.06017" lon="4.60208">
        <ele>291</ele>
        <time>2022-06-25T19:56:54Z</time>
      </trkpt>
      <trkpt lat="46.06015" lon="4.60212">
        <ele>291.4</ele>
        <time>2022-06-25T19:56:55Z</time>
      </trkpt>
      <trkpt lat="46.06014" lon="4.60215">
        <ele>291.4</ele>
        <time>2022-06-25T19:56:56Z</time>
      </trkpt>
      <trkpt lat="46.06012" lon="4.60218">
        <ele>291.6</ele>
        <time>2022-06-25T19:56:57Z</time>
      </trkpt>
      <trkpt lat="46.06011" lon="4.60221">
        <ele>291.8</ele>
        <time>2022-06-25T19:56:58Z</time>
      </trkpt>
      <trkpt lat="46.06009" lon="4.60223">
        <ele>291.8</ele>
        <time>2022-06-25T19:56:59Z</time>
      </trkpt>
      <trkpt lat="46.06007" lon="4.60226">
        <ele>292.2</ele>
        <time>2022-06-25T19:57:00Z</time>
      </trkpt>
      <trkpt lat="46.06005" lon="4.60229">
        <ele>292.2</ele>
        <time>2022-06-25T19:57:01Z</time>
      </trkpt>
      <trkpt lat="46.06003" lon="4.60232">
        <ele>292.4</ele>
        <time>2022-06-25T19:57:02Z</time>
      </trkpt>
      <trkpt lat="46.06001" lon="4.60234">
        <ele>292.4</ele>
        <time>2022-06-25T19:57:03Z</time>
      </trkpt>
      <trkpt lat="46.05999" lon="4.60237">
        <ele>292.6</ele>
        <time>2022-06-25T19:57:04Z</time>
      </trkpt>
      <trkpt lat="46.05998" lon="4.60239">
        <ele>292.6</ele>
        <time>2022-06-25T19:57:05Z</time>
      </trkpt>
      <trkpt lat="46.05996" lon="4.60242">
        <ele>293</ele>
        <time>2022-06-25T19:57:06Z</time>
      </trkpt>
      <trkpt lat="46.05994" lon="4.60244">
        <ele>293.2</ele>
        <time>2022-06-25T19:57:07Z</time>
      </trkpt>
      <trkpt lat="46.05993" lon="4.60247">
        <ele>293.2</ele>
        <time>2022-06-25T19:57:08Z</time>
      </trkpt>
      <trkpt lat="46.05991" lon="4.60249">
        <ele>293.6</ele>
        <time>2022-06-25T19:57:09Z</time>
      </trkpt>
      <trkpt lat="46.05989" lon="4.6025">
        <ele>293.8</ele>
        <time>2022-06-25T19:57:10Z</time>
      </trkpt>
      <trkpt lat="46.05986" lon="4.60252">
        <ele>293.8</ele>
        <time>2022-06-25T19:57:11Z</time>
      </trkpt>
      <trkpt lat="46.05984" lon="4.60253">
        <ele>294.2</ele>
        <time>2022-06-25T19:57:12Z</time>
      </trkpt>
      <trkpt lat="46.05982" lon="4.60253">
        <ele>294.2</ele>
        <time>2022-06-25T19:57:13Z</time>
      </trkpt>
      <trkpt lat="46.05979" lon="4.60254">
        <ele>294.4</ele>
        <time>2022-06-25T19:57:14Z</time>
      </trkpt>
      <trkpt lat="46.05976" lon="4.60255">
        <ele>294.4</ele>
        <time>2022-06-25T19:57:15Z</time>
      </trkpt>
      <trkpt lat="46.05974" lon="4.60257">
        <ele>294.8</ele>
        <time>2022-06-25T19:57:16Z</time>
      </trkpt>
      <trkpt lat="46.05972" lon="4.60258">
        <ele>294.8</ele>
        <time>2022-06-25T19:57:17Z</time>
      </trkpt>
      <trkpt lat="46.05969" lon="4.60259">
        <ele>295.2</ele>
        <time>2022-06-25T19:57:18Z</time>
      </trkpt>
      <trkpt lat="46.05967" lon="4.6026">
        <ele>295.4</ele>
        <time>2022-06-25T19:57:19Z</time>
      </trkpt>
      <trkpt lat="46.05965" lon="4.60261">
        <ele>295.6</ele>
        <time>2022-06-25T19:57:20Z</time>
      </trkpt>
      <trkpt lat="46.05963" lon="4.60262">
        <ele>295.8</ele>
        <time>2022-06-25T19:57:21Z</time>
      </trkpt>
      <trkpt lat="46.0596" lon="4.60262">
        <ele>295.8</ele>
        <time>2022-06-25T19:57:22Z</time>
      </trkpt>
      <trkpt lat="46.05958" lon="4.60263">
        <ele>296.2</ele>
        <time>2022-06-25T19:57:23Z</time>
      </trkpt>
      <trkpt lat="46.05956" lon="4.60264">
        <ele>296.2</ele>
        <time>2022-06-25T19:57:24Z</time>
      </trkpt>
      <trkpt lat="46.05954" lon="4.60265">
        <ele>296.6</ele>
        <time>2022-06-25T19:57:25Z</time>
      </trkpt>
      <trkpt lat="46.05951" lon="4.60266">
        <ele>296.8</ele>
        <time>2022-06-25T19:57:26Z</time>
      </trkpt>
      <trkpt lat="46.05949" lon="4.60266">
        <ele>296.8</ele>
        <time>2022-06-25T19:57:27Z</time>
      </trkpt>
      <trkpt lat="46.05947" lon="4.60266">
        <ele>297.2</ele>
        <time>2022-06-25T19:57:28Z</time>
      </trkpt>
      <trkpt lat="46.05944" lon="4.60266">
        <ele>297.2</ele>
        <time>2022-06-25T19:57:29Z</time>
      </trkpt>
      <trkpt lat="46.05942" lon="4.60266">
        <ele>297.6</ele>
        <time>2022-06-25T19:57:30Z</time>
      </trkpt>
      <trkpt lat="46.05939" lon="4.60266">
        <ele>297.8</ele>
        <time>2022-06-25T19:57:31Z</time>
      </trkpt>
      <trkpt lat="46.05937" lon="4.60266">
        <ele>297.8</ele>
        <time>2022-06-25T19:57:32Z</time>
      </trkpt>
      <trkpt lat="46.05935" lon="4.60265">
        <ele>298.2</ele>
        <time>2022-06-25T19:57:33Z</time>
      </trkpt>
      <trkpt lat="46.05932" lon="4.60265">
        <ele>298.2</ele>
        <time>2022-06-25T19:57:34Z</time>
      </trkpt>
      <trkpt lat="46.0593" lon="4.60265">
        <ele>298.4</ele>
        <time>2022-06-25T19:57:35Z</time>
      </trkpt>
      <trkpt lat="46.05928" lon="4.60264">
        <ele>298.4</ele>
        <time>2022-06-25T19:57:36Z</time>
      </trkpt>
      <trkpt lat="46.05926" lon="4.60263">
        <ele>298.8</ele>
        <time>2022-06-25T19:57:37Z</time>
      </trkpt>
      <trkpt lat="46.05923" lon="4.60262">
        <ele>299</ele>
        <time>2022-06-25T19:57:38Z</time>
      </trkpt>
      <trkpt lat="46.05921" lon="4.6026">
        <ele>299</ele>
        <time>2022-06-25T19:57:39Z</time>
      </trkpt>
      <trkpt lat="46.05919" lon="4.60258">
        <ele>299</ele>
        <time>2022-06-25T19:57:40Z</time>
      </trkpt>
      <trkpt lat="46.05917" lon="4.60255">
        <ele>299.4</ele>
        <time>2022-06-25T19:57:41Z</time>
      </trkpt>
      <trkpt lat="46.05915" lon="4.60253">
        <ele>299.4</ele>
        <time>2022-06-25T19:57:42Z</time>
      </trkpt>
      <trkpt lat="46.05913" lon="4.6025">
        <ele>299.8</ele>
        <time>2022-06-25T19:57:43Z</time>
      </trkpt>
      <trkpt lat="46.05911" lon="4.60248">
        <ele>299.8</ele>
        <time>2022-06-25T19:57:44Z</time>
      </trkpt>
      <trkpt lat="46.05909" lon="4.60245">
        <ele>300</ele>
        <time>2022-06-25T19:57:45Z</time>
      </trkpt>
      <trkpt lat="46.05907" lon="4.60243">
        <ele>300.4</ele>
        <time>2022-06-25T19:57:46Z</time>
      </trkpt>
      <trkpt lat="46.05906" lon="4.6024">
        <ele>300.4</ele>
        <time>2022-06-25T19:57:47Z</time>
      </trkpt>
      <trkpt lat="46.05904" lon="4.60238">
        <ele>300.8</ele>
        <time>2022-06-25T19:57:48Z</time>
      </trkpt>
      <trkpt lat="46.05902" lon="4.60235">
        <ele>301</ele>
        <time>2022-06-25T19:57:49Z</time>
      </trkpt>
      <trkpt lat="46.05901" lon="4.60233">
        <ele>301.2</ele>
        <time>2022-06-25T19:57:50Z</time>
      </trkpt>
      <trkpt lat="46.059" lon="4.6023">
        <ele>301.4</ele>
        <time>2022-06-25T19:57:51Z</time>
      </trkpt>
      <trkpt lat="46.05899" lon="4.60227">
        <ele>301.4</ele>
        <time>2022-06-25T19:57:52Z</time>
      </trkpt>
      <trkpt lat="46.05897" lon="4.60223">
        <ele>301.8</ele>
        <time>2022-06-25T19:57:53Z</time>
      </trkpt>
      <trkpt lat="46.05896" lon="4.6022">
        <ele>302</ele>
        <time>2022-06-25T19:57:54Z</time>
      </trkpt>
      <trkpt lat="46.05895" lon="4.60217">
        <ele>302.2</ele>
        <time>2022-06-25T19:57:55Z</time>
      </trkpt>
      <trkpt lat="46.05893" lon="4.60214">
        <ele>302.2</ele>
        <time>2022-06-25T19:57:56Z</time>
      </trkpt>
      <trkpt lat="46.05892" lon="4.60211">
        <ele>302.4</ele>
        <time>2022-06-25T19:57:57Z</time>
      </trkpt>
      <trkpt lat="46.05891" lon="4.60208">
        <ele>302.4</ele>
        <time>2022-06-25T19:57:58Z</time>
      </trkpt>
      <trkpt lat="46.0589" lon="4.60205">
        <ele>302.8</ele>
        <time>2022-06-25T19:57:59Z</time>
      </trkpt>
      <trkpt lat="46.05889" lon="4.60202">
        <ele>303</ele>
        <time>2022-06-25T19:58:00Z</time>
      </trkpt>
      <trkpt lat="46.05888" lon="4.60199">
        <ele>303</ele>
        <time>2022-06-25T19:58:01Z</time>
      </trkpt>
      <trkpt lat="46.05887" lon="4.60196">
        <ele>303.4</ele>
        <time>2022-06-25T19:58:02Z</time>
      </trkpt>
      <trkpt lat="46.05886" lon="4.60194">
        <ele>303.6</ele>
        <time>2022-06-25T19:58:03Z</time>
      </trkpt>
      <trkpt lat="46.05885" lon="4.60191">
        <ele>303.6</ele>
        <time>2022-06-25T19:58:04Z</time>
      </trkpt>
      <trkpt lat="46.05884" lon="4.60189">
        <ele>304</ele>
        <time>2022-06-25T19:58:05Z</time>
      </trkpt>
      <trkpt lat="46.05883" lon="4.60186">
        <ele>304</ele>
        <time>2022-06-25T19:58:06Z</time>
      </trkpt>
      <trkpt lat="46.05882" lon="4.60183">
        <ele>304.2</ele>
        <time>2022-06-25T19:58:07Z</time>
      </trkpt>
      <trkpt lat="46.05881" lon="4.60181">
        <ele>304.2</ele>
        <time>2022-06-25T19:58:08Z</time>
      </trkpt>
      <trkpt lat="46.0588" lon="4.60179">
        <ele>304.6</ele>
        <time>2022-06-25T19:58:09Z</time>
      </trkpt>
      <trkpt lat="46.05879" lon="4.60176">
        <ele>305</ele>
        <time>2022-06-25T19:58:10Z</time>
      </trkpt>
      <trkpt lat="46.05879" lon="4.60173">
        <ele>305</ele>
        <time>2022-06-25T19:58:11Z</time>
      </trkpt>
      <trkpt lat="46.05878" lon="4.60171">
        <ele>305.2</ele>
        <time>2022-06-25T19:58:12Z</time>
      </trkpt>
      <trkpt lat="46.05878" lon="4.60168">
        <ele>305.2</ele>
        <time>2022-06-25T19:58:13Z</time>
      </trkpt>
      <trkpt lat="46.05877" lon="4.60165">
        <ele>305.6</ele>
        <time>2022-06-25T19:58:14Z</time>
      </trkpt>
      <trkpt lat="46.05876" lon="4.60162">
        <ele>305.6</ele>
        <time>2022-06-25T19:58:15Z</time>
      </trkpt>
      <trkpt lat="46.05875" lon="4.6016">
        <ele>306</ele>
        <time>2022-06-25T19:58:16Z</time>
      </trkpt>
      <trkpt lat="46.05873" lon="4.60158">
        <ele>306</ele>
        <time>2022-06-25T19:58:17Z</time>
      </trkpt>
      <trkpt lat="46.05872" lon="4.60155">
        <ele>306.4</ele>
        <time>2022-06-25T19:58:18Z</time>
      </trkpt>
      <trkpt lat="46.05871" lon="4.60153">
        <ele>306.6</ele>
        <time>2022-06-25T19:58:19Z</time>
      </trkpt>
      <trkpt lat="46.0587" lon="4.60149">
        <ele>306.6</ele>
        <time>2022-06-25T19:58:20Z</time>
      </trkpt>
      <trkpt lat="46.0587" lon="4.60146">
        <ele>306.8</ele>
        <time>2022-06-25T19:58:21Z</time>
      </trkpt>
      <trkpt lat="46.0587" lon="4.60143">
        <ele>306.8</ele>
        <time>2022-06-25T19:58:22Z</time>
      </trkpt>
      <trkpt lat="46.05869" lon="4.6014">
        <ele>307.2</ele>
        <time>2022-06-25T19:58:23Z</time>
      </trkpt>
      <trkpt lat="46.05868" lon="4.60137">
        <ele>307.4</ele>
        <time>2022-06-25T19:58:24Z</time>
      </trkpt>
      <trkpt lat="46.05867" lon="4.60134">
        <ele>307.4</ele>
        <time>2022-06-25T19:58:25Z</time>
      </trkpt>
      <trkpt lat="46.05866" lon="4.60131">
        <ele>307.8</ele>
        <time>2022-06-25T19:58:26Z</time>
      </trkpt>
      <trkpt lat="46.05865" lon="4.60128">
        <ele>307.8</ele>
        <time>2022-06-25T19:58:27Z</time>
      </trkpt>
      <trkpt lat="46.05865" lon="4.60125">
        <ele>308</ele>
        <time>2022-06-25T19:58:28Z</time>
      </trkpt>
      <trkpt lat="46.05864" lon="4.60122">
        <ele>308</ele>
        <time>2022-06-25T19:58:29Z</time>
      </trkpt>
      <trkpt lat="46.05863" lon="4.60119">
        <ele>308.4</ele>
        <time>2022-06-25T19:58:30Z</time>
      </trkpt>
      <trkpt lat="46.05861" lon="4.60116">
        <ele>308.4</ele>
        <time>2022-06-25T19:58:31Z</time>
      </trkpt>
      <trkpt lat="46.0586" lon="4.60113">
        <ele>308.6</ele>
        <time>2022-06-25T19:58:32Z</time>
      </trkpt>
      <trkpt lat="46.05859" lon="4.6011">
        <ele>308.6</ele>
        <time>2022-06-25T19:58:33Z</time>
      </trkpt>
      <trkpt lat="46.05858" lon="4.60107">
        <ele>309</ele>
        <time>2022-06-25T19:58:34Z</time>
      </trkpt>
      <trkpt lat="46.05857" lon="4.60104">
        <ele>309</ele>
        <time>2022-06-25T19:58:35Z</time>
      </trkpt>
      <trkpt lat="46.05856" lon="4.60101">
        <ele>309.2</ele>
        <time>2022-06-25T19:58:36Z</time>
      </trkpt>
      <trkpt lat="46.05854" lon="4.60099">
        <ele>309.2</ele>
        <time>2022-06-25T19:58:37Z</time>
      </trkpt>
      <trkpt lat="46.05853" lon="4.60096">
        <ele>309.4</ele>
        <time>2022-06-25T19:58:38Z</time>
      </trkpt>
      <trkpt lat="46.05851" lon="4.60093">
        <ele>309.4</ele>
        <time>2022-06-25T19:58:39Z</time>
      </trkpt>
      <trkpt lat="46.05849" lon="4.60091">
        <ele>309.8</ele>
        <time>2022-06-25T19:58:40Z</time>
      </trkpt>
      <trkpt lat="46.05847" lon="4.60089">
        <ele>309.8</ele>
        <time>2022-06-25T19:58:41Z</time>
      </trkpt>
      <trkpt lat="46.05845" lon="4.60086">
        <ele>310</ele>
        <time>2022-06-25T19:58:42Z</time>
      </trkpt>
      <trkpt lat="46.05843" lon="4.60084">
        <ele>310</ele>
        <time>2022-06-25T19:58:43Z</time>
      </trkpt>
      <trkpt lat="46.05841" lon="4.60081">
        <ele>310.4</ele>
        <time>2022-06-25T19:58:44Z</time>
      </trkpt>
      <trkpt lat="46.05839" lon="4.60079">
        <ele>310.6</ele>
        <time>2022-06-25T19:58:45Z</time>
      </trkpt>
      <trkpt lat="46.05837" lon="4.60076">
        <ele>310.6</ele>
        <time>2022-06-25T19:58:46Z</time>
      </trkpt>
      <trkpt lat="46.05835" lon="4.60073">
        <ele>310.8</ele>
        <time>2022-06-25T19:58:47Z</time>
      </trkpt>
      <trkpt lat="46.05833" lon="4.60071">
        <ele>310.8</ele>
        <time>2022-06-25T19:58:48Z</time>
      </trkpt>
      <trkpt lat="46.05832" lon="4.60068">
        <ele>310.8</ele>
        <time>2022-06-25T19:58:49Z</time>
      </trkpt>
      <trkpt lat="46.0583" lon="4.60066">
        <ele>311.2</ele>
        <time>2022-06-25T19:58:50Z</time>
      </trkpt>
      <trkpt lat="46.05828" lon="4.60064">
        <ele>311.2</ele>
        <time>2022-06-25T19:58:51Z</time>
      </trkpt>
      <trkpt lat="46.05826" lon="4.60061">
        <ele>311.4</ele>
        <time>2022-06-25T19:58:52Z</time>
      </trkpt>
      <trkpt lat="46.05824" lon="4.60059">
        <ele>311.4</ele>
        <time>2022-06-25T19:58:53Z</time>
      </trkpt>
      <trkpt lat="46.05822" lon="4.60056">
        <ele>311.8</ele>
        <time>2022-06-25T19:58:54Z</time>
      </trkpt>
      <trkpt lat="46.05821" lon="4.60053">
        <ele>311.8</ele>
        <time>2022-06-25T19:58:55Z</time>
      </trkpt>
      <trkpt lat="46.05819" lon="4.6005">
        <ele>312</ele>
        <time>2022-06-25T19:58:56Z</time>
      </trkpt>
      <trkpt lat="46.05818" lon="4.60047">
        <ele>312</ele>
        <time>2022-06-25T19:58:57Z</time>
      </trkpt>
      <trkpt lat="46.05817" lon="4.60044">
        <ele>312.4</ele>
        <time>2022-06-25T19:58:58Z</time>
      </trkpt>
      <trkpt lat="46.05815" lon="4.60041">
        <ele>312.4</ele>
        <time>2022-06-25T19:58:59Z</time>
      </trkpt>
      <trkpt lat="46.05814" lon="4.60038">
        <ele>312.6</ele>
        <time>2022-06-25T19:59:00Z</time>
      </trkpt>
      <trkpt lat="46.05812" lon="4.60035">
        <ele>312.6</ele>
        <time>2022-06-25T19:59:01Z</time>
      </trkpt>
      <trkpt lat="46.05811" lon="4.60032">
        <ele>312.6</ele>
        <time>2022-06-25T19:59:02Z</time>
      </trkpt>
      <trkpt lat="46.05809" lon="4.60029">
        <ele>312.8</ele>
        <time>2022-06-25T19:59:03Z</time>
      </trkpt>
      <trkpt lat="46.05808" lon="4.60026">
        <ele>312.8</ele>
        <time>2022-06-25T19:59:04Z</time>
      </trkpt>
      <trkpt lat="46.05807" lon="4.60023">
        <ele>313.2</ele>
        <time>2022-06-25T19:59:05Z</time>
      </trkpt>
      <trkpt lat="46.05805" lon="4.6002">
        <ele>313.4</ele>
        <time>2022-06-25T19:59:06Z</time>
      </trkpt>
      <trkpt lat="46.05804" lon="4.60017">
        <ele>313.4</ele>
        <time>2022-06-25T19:59:07Z</time>
      </trkpt>
      <trkpt lat="46.05803" lon="4.60014">
        <ele>313.8</ele>
        <time>2022-06-25T19:59:08Z</time>
      </trkpt>
      <trkpt lat="46.05803" lon="4.60011">
        <ele>313.8</ele>
        <time>2022-06-25T19:59:09Z</time>
      </trkpt>
      <trkpt lat="46.05802" lon="4.60008">
        <ele>314</ele>
        <time>2022-06-25T19:59:10Z</time>
      </trkpt>
      <trkpt lat="46.05801" lon="4.60004">
        <ele>314</ele>
        <time>2022-06-25T19:59:11Z</time>
      </trkpt>
      <trkpt lat="46.05801" lon="4.60001">
        <ele>314.4</ele>
        <time>2022-06-25T19:59:12Z</time>
      </trkpt>
      <trkpt lat="46.058" lon="4.59998">
        <ele>314.4</ele>
        <time>2022-06-25T19:59:13Z</time>
      </trkpt>
      <trkpt lat="46.058" lon="4.59994">
        <ele>314.4</ele>
        <time>2022-06-25T19:59:14Z</time>
      </trkpt>
      <trkpt lat="46.058" lon="4.59991">
        <ele>314.6</ele>
        <time>2022-06-25T19:59:15Z</time>
      </trkpt>
      <trkpt lat="46.058" lon="4.59988">
        <ele>314.6</ele>
        <time>2022-06-25T19:59:16Z</time>
      </trkpt>
      <trkpt lat="46.058" lon="4.59985">
        <ele>315</ele>
        <time>2022-06-25T19:59:17Z</time>
      </trkpt>
      <trkpt lat="46.05799" lon="4.59981">
        <ele>315</ele>
        <time>2022-06-25T19:59:18Z</time>
      </trkpt>
      <trkpt lat="46.05799" lon="4.59978">
        <ele>315.4</ele>
        <time>2022-06-25T19:59:19Z</time>
      </trkpt>
      <trkpt lat="46.05799" lon="4.59975">
        <ele>315.6</ele>
        <time>2022-06-25T19:59:20Z</time>
      </trkpt>
      <trkpt lat="46.05799" lon="4.59971">
        <ele>315.8</ele>
        <time>2022-06-25T19:59:21Z</time>
      </trkpt>
      <trkpt lat="46.05799" lon="4.59968">
        <ele>315.8</ele>
        <time>2022-06-25T19:59:22Z</time>
      </trkpt>
      <trkpt lat="46.05798" lon="4.59964">
        <ele>315.8</ele>
        <time>2022-06-25T19:59:23Z</time>
      </trkpt>
      <trkpt lat="46.05798" lon="4.59961">
        <ele>316</ele>
        <time>2022-06-25T19:59:24Z</time>
      </trkpt>
      <trkpt lat="46.05798" lon="4.59957">
        <ele>316</ele>
        <time>2022-06-25T19:59:25Z</time>
      </trkpt>
      <trkpt lat="46.05798" lon="4.59953">
        <ele>316.4</ele>
        <time>2022-06-25T19:59:26Z</time>
      </trkpt>
      <trkpt lat="46.05798" lon="4.59949">
        <ele>316.4</ele>
        <time>2022-06-25T19:59:27Z</time>
      </trkpt>
      <trkpt lat="46.05798" lon="4.59946">
        <ele>316.6</ele>
        <time>2022-06-25T19:59:28Z</time>
      </trkpt>
      <trkpt lat="46.05797" lon="4.59942">
        <ele>316.6</ele>
        <time>2022-06-25T19:59:29Z</time>
      </trkpt>
      <trkpt lat="46.05797" lon="4.59938">
        <ele>316.8</ele>
        <time>2022-06-25T19:59:30Z</time>
      </trkpt>
      <trkpt lat="46.05796" lon="4.59935">
        <ele>316.8</ele>
        <time>2022-06-25T19:59:31Z</time>
      </trkpt>
      <trkpt lat="46.05795" lon="4.59931">
        <ele>316.8</ele>
        <time>2022-06-25T19:59:32Z</time>
      </trkpt>
      <trkpt lat="46.05795" lon="4.59927">
        <ele>317.2</ele>
        <time>2022-06-25T19:59:33Z</time>
      </trkpt>
      <trkpt lat="46.05794" lon="4.59924">
        <ele>317.2</ele>
        <time>2022-06-25T19:59:34Z</time>
      </trkpt>
      <trkpt lat="46.05794" lon="4.5992">
        <ele>317.2</ele>
        <time>2022-06-25T19:59:35Z</time>
      </trkpt>
      <trkpt lat="46.05793" lon="4.59916">
        <ele>317.6</ele>
        <time>2022-06-25T19:59:36Z</time>
      </trkpt>
      <trkpt lat="46.05792" lon="4.59912">
        <ele>317.6</ele>
        <time>2022-06-25T19:59:37Z</time>
      </trkpt>
      <trkpt lat="46.05791" lon="4.59908">
        <ele>317.8</ele>
        <time>2022-06-25T19:59:38Z</time>
      </trkpt>
      <trkpt lat="46.05791" lon="4.59905">
        <ele>317.8</ele>
        <time>2022-06-25T19:59:39Z</time>
      </trkpt>
      <trkpt lat="46.0579" lon="4.59901">
        <ele>317.8</ele>
        <time>2022-06-25T19:59:40Z</time>
      </trkpt>
      <trkpt lat="46.05789" lon="4.59897">
        <ele>318</ele>
        <time>2022-06-25T19:59:41Z</time>
      </trkpt>
      <trkpt lat="46.05788" lon="4.59894">
        <ele>318</ele>
        <time>2022-06-25T19:59:42Z</time>
      </trkpt>
      <trkpt lat="46.05788" lon="4.5989">
        <ele>318</ele>
        <time>2022-06-25T19:59:43Z</time>
      </trkpt>
      <trkpt lat="46.05786" lon="4.59887">
        <ele>318.2</ele>
        <time>2022-06-25T19:59:44Z</time>
      </trkpt>
      <trkpt lat="46.05785" lon="4.59883">
        <ele>318.2</ele>
        <time>2022-06-25T19:59:45Z</time>
      </trkpt>
      <trkpt lat="46.05785" lon="4.5988">
        <ele>318.2</ele>
        <time>2022-06-25T19:59:46Z</time>
      </trkpt>
      <trkpt lat="46.05784" lon="4.59876">
        <ele>318.6</ele>
        <time>2022-06-25T19:59:47Z</time>
      </trkpt>
      <trkpt lat="46.05783" lon="4.59873">
        <ele>318.6</ele>
        <time>2022-06-25T19:59:48Z</time>
      </trkpt>
      <trkpt lat="46.05783" lon="4.59869">
        <ele>318.8</ele>
        <time>2022-06-25T19:59:49Z</time>
      </trkpt>
      <trkpt lat="46.05782" lon="4.59866">
        <ele>319</ele>
        <time>2022-06-25T19:59:50Z</time>
      </trkpt>
      <trkpt lat="46.05782" lon="4.59862">
        <ele>319</ele>
        <time>2022-06-25T19:59:51Z</time>
      </trkpt>
      <trkpt lat="46.05781" lon="4.59859">
        <ele>319</ele>
        <time>2022-06-25T19:59:52Z</time>
      </trkpt>
      <trkpt lat="46.0578" lon="4.59855">
        <ele>319.4</ele>
        <time>2022-06-25T19:59:53Z</time>
      </trkpt>
      <trkpt lat="46.0578" lon="4.59852">
        <ele>319.4</ele>
        <time>2022-06-25T19:59:54Z</time>
      </trkpt>
      <trkpt lat="46.05779" lon="4.59848">
        <ele>319.6</ele>
        <time>2022-06-25T19:59:55Z</time>
      </trkpt>
      <trkpt lat="46.05778" lon="4.59845">
        <ele>319.6</ele>
        <time>2022-06-25T19:59:56Z</time>
      </trkpt>
      <trkpt lat="46.05777" lon="4.59841">
        <ele>319.8</ele>
        <time>2022-06-25T19:59:57Z</time>
      </trkpt>
      <trkpt lat="46.05776" lon="4.59838">
        <ele>319.8</ele>
        <time>2022-06-25T19:59:58Z</time>
      </trkpt>
      <trkpt lat="46.05775" lon="4.59834">
        <ele>319.8</ele>
        <time>2022-06-25T19:59:59Z</time>
      </trkpt>
      <trkpt lat="46.05775" lon="4.59831">
        <ele>320.2</ele>
        <time>2022-06-25T20:00:00Z</time>
      </trkpt>
      <trkpt lat="46.05774" lon="4.59827">
        <ele>320.2</ele>
        <time>2022-06-25T20:00:01Z</time>
      </trkpt>
      <trkpt lat="46.05773" lon="4.59823">
        <ele>320.4</ele>
        <time>2022-06-25T20:00:02Z</time>
      </trkpt>
      <trkpt lat="46.05772" lon="4.5982">
        <ele>320.4</ele>
        <time>2022-06-25T20:00:03Z</time>
      </trkpt>
      <trkpt lat="46.05771" lon="4.59816">
        <ele>320.8</ele>
        <time>2022-06-25T20:00:04Z</time>
      </trkpt>
      <trkpt lat="46.05771" lon="4.59813">
        <ele>320.8</ele>
        <time>2022-06-25T20:00:05Z</time>
      </trkpt>
      <trkpt lat="46.0577" lon="4.59809">
        <ele>321</ele>
        <time>2022-06-25T20:00:06Z</time>
      </trkpt>
      <trkpt lat="46.05769" lon="4.59805">
        <ele>321</ele>
        <time>2022-06-25T20:00:07Z</time>
      </trkpt>
      <trkpt lat="46.05769" lon="4.59802">
        <ele>321</ele>
        <time>2022-06-25T20:00:08Z</time>
      </trkpt>
      <trkpt lat="46.05768" lon="4.59798">
        <ele>321.2</ele>
        <time>2022-06-25T20:00:09Z</time>
      </trkpt>
      <trkpt lat="46.05767" lon="4.59794">
        <ele>321.2</ele>
        <time>2022-06-25T20:00:10Z</time>
      </trkpt>
      <trkpt lat="46.05767" lon="4.5979">
        <ele>321.4</ele>
        <time>2022-06-25T20:00:11Z</time>
      </trkpt>
      <trkpt lat="46.05767" lon="4.59786">
        <ele>321.4</ele>
        <time>2022-06-25T20:00:12Z</time>
      </trkpt>
      <trkpt lat="46.05766" lon="4.59782">
        <ele>321.8</ele>
        <time>2022-06-25T20:00:13Z</time>
      </trkpt>
      <trkpt lat="46.05766" lon="4.59778">
        <ele>321.8</ele>
        <time>2022-06-25T20:00:14Z</time>
      </trkpt>
      <trkpt lat="46.05766" lon="4.59774">
        <ele>322</ele>
        <time>2022-06-25T20:00:15Z</time>
      </trkpt>
      <trkpt lat="46.05765" lon="4.59771">
        <ele>322</ele>
        <time>2022-06-25T20:00:16Z</time>
      </trkpt>
      <trkpt lat="46.05765" lon="4.59767">
        <ele>322.2</ele>
        <time>2022-06-25T20:00:17Z</time>
      </trkpt>
      <trkpt lat="46.05765" lon="4.59763">
        <ele>322.2</ele>
        <time>2022-06-25T20:00:18Z</time>
      </trkpt>
      <trkpt lat="46.05764" lon="4.59759">
        <ele>322.6</ele>
        <time>2022-06-25T20:00:19Z</time>
      </trkpt>
      <trkpt lat="46.05764" lon="4.59756">
        <ele>322.6</ele>
        <time>2022-06-25T20:00:20Z</time>
      </trkpt>
      <trkpt lat="46.05764" lon="4.59752">
        <ele>322.6</ele>
        <time>2022-06-25T20:00:21Z</time>
      </trkpt>
      <trkpt lat="46.05763" lon="4.59748">
        <ele>322.8</ele>
        <time>2022-06-25T20:00:22Z</time>
      </trkpt>
      <trkpt lat="46.05762" lon="4.59745">
        <ele>322.8</ele>
        <time>2022-06-25T20:00:23Z</time>
      </trkpt>
      <trkpt lat="46.05762" lon="4.59741">
        <ele>323</ele>
        <time>2022-06-25T20:00:24Z</time>
      </trkpt>
      <trkpt lat="46.05761" lon="4.59737">
        <ele>323</ele>
        <time>2022-06-25T20:00:25Z</time>
      </trkpt>
      <trkpt lat="46.0576" lon="4.59733">
        <ele>323.4</ele>
        <time>2022-06-25T20:00:26Z</time>
      </trkpt>
      <trkpt lat="46.05759" lon="4.5973">
        <ele>323.4</ele>
        <time>2022-06-25T20:00:27Z</time>
      </trkpt>
      <trkpt lat="46.05758" lon="4.59726">
        <ele>323.8</ele>
        <time>2022-06-25T20:00:28Z</time>
      </trkpt>
      <trkpt lat="46.05757" lon="4.59722">
        <ele>323.8</ele>
        <time>2022-06-25T20:00:29Z</time>
      </trkpt>
      <trkpt lat="46.05756" lon="4.59718">
        <ele>324</ele>
        <time>2022-06-25T20:00:30Z</time>
      </trkpt>
      <trkpt lat="46.05755" lon="4.59715">
        <ele>324</ele>
        <time>2022-06-25T20:00:31Z</time>
      </trkpt>
      <trkpt lat="46.05754" lon="4.59711">
        <ele>324</ele>
        <time>2022-06-25T20:00:32Z</time>
      </trkpt>
      <trkpt lat="46.05752" lon="4.59708">
        <ele>324.2</ele>
        <time>2022-06-25T20:00:33Z</time>
      </trkpt>
      <trkpt lat="46.05751" lon="4.59704">
        <ele>324.2</ele>
        <time>2022-06-25T20:00:34Z</time>
      </trkpt>
      <trkpt lat="46.0575" lon="4.59701">
        <ele>324.4</ele>
        <time>2022-06-25T20:00:35Z</time>
      </trkpt>
      <trkpt lat="46.05748" lon="4.59698">
        <ele>324.4</ele>
        <time>2022-06-25T20:00:36Z</time>
      </trkpt>
      <trkpt lat="46.05747" lon="4.59695">
        <ele>324.8</ele>
        <time>2022-06-25T20:00:37Z</time>
      </trkpt>
      <trkpt lat="46.05745" lon="4.59692">
        <ele>324.8</ele>
        <time>2022-06-25T20:00:38Z</time>
      </trkpt>
      <trkpt lat="46.05744" lon="4.59689">
        <ele>325.2</ele>
        <time>2022-06-25T20:00:39Z</time>
      </trkpt>
      <trkpt lat="46.05742" lon="4.59686">
        <ele>325.2</ele>
        <time>2022-06-25T20:00:40Z</time>
      </trkpt>
      <trkpt lat="46.0574" lon="4.59684">
        <ele>325.6</ele>
        <time>2022-06-25T20:00:41Z</time>
      </trkpt>
      <trkpt lat="46.05738" lon="4.59681">
        <ele>325.6</ele>
        <time>2022-06-25T20:00:42Z</time>
      </trkpt>
      <trkpt lat="46.05737" lon="4.59678">
        <ele>326</ele>
        <time>2022-06-25T20:00:43Z</time>
      </trkpt>
      <trkpt lat="46.05735" lon="4.59675">
        <ele>326.2</ele>
        <time>2022-06-25T20:00:44Z</time>
      </trkpt>
      <trkpt lat="46.05733" lon="4.59673">
        <ele>326.4</ele>
        <time>2022-06-25T20:00:45Z</time>
      </trkpt>
      <trkpt lat="46.05731" lon="4.5967">
        <ele>326.6</ele>
        <time>2022-06-25T20:00:46Z</time>
      </trkpt>
      <trkpt lat="46.0573" lon="4.59667">
        <ele>326.6</ele>
        <time>2022-06-25T20:00:47Z</time>
      </trkpt>
      <trkpt lat="46.05728" lon="4.59665">
        <ele>327</ele>
        <time>2022-06-25T20:00:48Z</time>
      </trkpt>
      <trkpt lat="46.05727" lon="4.59662">
        <ele>327</ele>
        <time>2022-06-25T20:00:49Z</time>
      </trkpt>
      <trkpt lat="46.05725" lon="4.5966">
        <ele>327.4</ele>
        <time>2022-06-25T20:00:50Z</time>
      </trkpt>
      <trkpt lat="46.05724" lon="4.59658">
        <ele>327.4</ele>
        <time>2022-06-25T20:00:51Z</time>
      </trkpt>
      <trkpt lat="46.05722" lon="4.59655">
        <ele>327.6</ele>
        <time>2022-06-25T20:00:52Z</time>
      </trkpt>
      <trkpt lat="46.05721" lon="4.59653">
        <ele>328</ele>
        <time>2022-06-25T20:00:53Z</time>
      </trkpt>
      <trkpt lat="46.0572" lon="4.5965">
        <ele>328.2</ele>
        <time>2022-06-25T20:00:54Z</time>
      </trkpt>
      <trkpt lat="46.05718" lon="4.59648">
        <ele>328.4</ele>
        <time>2022-06-25T20:00:55Z</time>
      </trkpt>
      <trkpt lat="46.05717" lon="4.59646">
        <ele>328.6</ele>
        <time>2022-06-25T20:00:56Z</time>
      </trkpt>
      <trkpt lat="46.05715" lon="4.59643">
        <ele>328.8</ele>
        <time>2022-06-25T20:00:57Z</time>
      </trkpt>
      <trkpt lat="46.05713" lon="4.59641">
        <ele>328.8</ele>
        <time>2022-06-25T20:00:58Z</time>
      </trkpt>
      <trkpt lat="46.05711" lon="4.59639">
        <ele>329.2</ele>
        <time>2022-06-25T20:00:59Z</time>
      </trkpt>
      <trkpt lat="46.0571" lon="4.59637">
        <ele>329.2</ele>
        <time>2022-06-25T20:01:00Z</time>
      </trkpt>
      <trkpt lat="46.05708" lon="4.59635">
        <ele>329.6</ele>
        <time>2022-06-25T20:01:01Z</time>
      </trkpt>
      <trkpt lat="46.05707" lon="4.59633">
        <ele>329.6</ele>
        <time>2022-06-25T20:01:02Z</time>
      </trkpt>
      <trkpt lat="46.05705" lon="4.59631">
        <ele>329.8</ele>
        <time>2022-06-25T20:01:03Z</time>
      </trkpt>
      <trkpt lat="46.05704" lon="4.59629">
        <ele>330.2</ele>
        <time>2022-06-25T20:01:04Z</time>
      </trkpt>
      <trkpt lat="46.05702" lon="4.59627">
        <ele>330.2</ele>
        <time>2022-06-25T20:01:05Z</time>
      </trkpt>
      <trkpt lat="46.05701" lon="4.59625">
        <ele>330.4</ele>
        <time>2022-06-25T20:01:06Z</time>
      </trkpt>
      <trkpt lat="46.057" lon="4.59623">
        <ele>330.4</ele>
        <time>2022-06-25T20:01:07Z</time>
      </trkpt>
      <trkpt lat="46.05698" lon="4.59621">
        <ele>330.8</ele>
        <time>2022-06-25T20:01:08Z</time>
      </trkpt>
      <trkpt lat="46.05697" lon="4.59619">
        <ele>331</ele>
        <time>2022-06-25T20:01:09Z</time>
      </trkpt>
      <trkpt lat="46.05695" lon="4.59617">
        <ele>331</ele>
        <time>2022-06-25T20:01:10Z</time>
      </trkpt>
      <trkpt lat="46.05694" lon="4.59615">
        <ele>331.4</ele>
        <time>2022-06-25T20:01:11Z</time>
      </trkpt>
      <trkpt lat="46.05692" lon="4.59613">
        <ele>331.6</ele>
        <time>2022-06-25T20:01:12Z</time>
      </trkpt>
      <trkpt lat="46.05691" lon="4.59611">
        <ele>331.8</ele>
        <time>2022-06-25T20:01:13Z</time>
      </trkpt>
      <trkpt lat="46.0569" lon="4.59609">
        <ele>331.8</ele>
        <time>2022-06-25T20:01:14Z</time>
      </trkpt>
      <trkpt lat="46.05689" lon="4.59607">
        <ele>332.2</ele>
        <time>2022-06-25T20:01:15Z</time>
      </trkpt>
      <trkpt lat="46.05688" lon="4.59604">
        <ele>332.2</ele>
        <time>2022-06-25T20:01:16Z</time>
      </trkpt>
      <trkpt lat="46.05686" lon="4.59602">
        <ele>332.6</ele>
        <time>2022-06-25T20:01:17Z</time>
      </trkpt>
      <trkpt lat="46.05685" lon="4.596">
        <ele>332.8</ele>
        <time>2022-06-25T20:01:18Z</time>
      </trkpt>
      <trkpt lat="46.05684" lon="4.59598">
        <ele>332.8</ele>
        <time>2022-06-25T20:01:19Z</time>
      </trkpt>
      <trkpt lat="46.05683" lon="4.59596">
        <ele>333.2</ele>
        <time>2022-06-25T20:01:20Z</time>
      </trkpt>
      <trkpt lat="46.05682" lon="4.59593">
        <ele>333.2</ele>
        <time>2022-06-25T20:01:21Z</time>
      </trkpt>
      <trkpt lat="46.05681" lon="4.59591">
        <ele>333.4</ele>
        <time>2022-06-25T20:01:22Z</time>
      </trkpt>
      <trkpt lat="46.0568" lon="4.59589">
        <ele>333.4</ele>
        <time>2022-06-25T20:01:23Z</time>
      </trkpt>
      <trkpt lat="46.0568" lon="4.59586">
        <ele>333.6</ele>
        <time>2022-06-25T20:01:24Z</time>
      </trkpt>
      <trkpt lat="46.05679" lon="4.59584">
        <ele>333.8</ele>
        <time>2022-06-25T20:01:25Z</time>
      </trkpt>
      <trkpt lat="46.05678" lon="4.59581">
        <ele>333.8</ele>
        <time>2022-06-25T20:01:26Z</time>
      </trkpt>
      <trkpt lat="46.05677" lon="4.59579">
        <ele>334.2</ele>
        <time>2022-06-25T20:01:27Z</time>
      </trkpt>
      <trkpt lat="46.05676" lon="4.59577">
        <ele>334.4</ele>
        <time>2022-06-25T20:01:28Z</time>
      </trkpt>
      <trkpt lat="46.05675" lon="4.59575">
        <ele>334.4</ele>
        <time>2022-06-25T20:01:29Z</time>
      </trkpt>
      <trkpt lat="46.05673" lon="4.59573">
        <ele>334.8</ele>
        <time>2022-06-25T20:01:30Z</time>
      </trkpt>
      <trkpt lat="46.05672" lon="4.59571">
        <ele>334.8</ele>
        <time>2022-06-25T20:01:31Z</time>
      </trkpt>
      <trkpt lat="46.05671" lon="4.5957">
        <ele>335.2</ele>
        <time>2022-06-25T20:01:32Z</time>
      </trkpt>
      <trkpt lat="46.0567" lon="4.59568">
        <ele>335.2</ele>
        <time>2022-06-25T20:01:33Z</time>
      </trkpt>
      <trkpt lat="46.05669" lon="4.59566">
        <ele>335.4</ele>
        <time>2022-06-25T20:01:34Z</time>
      </trkpt>
      <trkpt lat="46.05668" lon="4.59563">
        <ele>335.4</ele>
        <time>2022-06-25T20:01:35Z</time>
      </trkpt>
      <trkpt lat="46.05667" lon="4.59561">
        <ele>335.8</ele>
        <time>2022-06-25T20:01:36Z</time>
      </trkpt>
      <trkpt lat="46.05666" lon="4.59559">
        <ele>335.8</ele>
        <time>2022-06-25T20:01:37Z</time>
      </trkpt>
      <trkpt lat="46.05665" lon="4.59557">
        <ele>336.2</ele>
        <time>2022-06-25T20:01:38Z</time>
      </trkpt>
      <trkpt lat="46.05664" lon="4.59555">
        <ele>336.2</ele>
        <time>2022-06-25T20:01:39Z</time>
      </trkpt>
      <trkpt lat="46.05664" lon="4.59552">
        <ele>336.4</ele>
        <time>2022-06-25T20:01:40Z</time>
      </trkpt>
      <trkpt lat="46.05663" lon="4.5955">
        <ele>336.4</ele>
        <time>2022-06-25T20:01:41Z</time>
      </trkpt>
      <trkpt lat="46.05662" lon="4.59548">
        <ele>336.8</ele>
        <time>2022-06-25T20:01:42Z</time>
      </trkpt>
      <trkpt lat="46.05662" lon="4.59546">
        <ele>336.8</ele>
        <time>2022-06-25T20:01:43Z</time>
      </trkpt>
      <trkpt lat="46.05661" lon="4.59543">
        <ele>337.2</ele>
        <time>2022-06-25T20:01:44Z</time>
      </trkpt>
      <trkpt lat="46.05661" lon="4.59541">
        <ele>337.2</ele>
        <time>2022-06-25T20:01:45Z</time>
      </trkpt>
      <trkpt lat="46.0566" lon="4.59538">
        <ele>337.4</ele>
        <time>2022-06-25T20:01:46Z</time>
      </trkpt>
      <trkpt lat="46.0566" lon="4.59536">
        <ele>337.4</ele>
        <time>2022-06-25T20:01:47Z</time>
      </trkpt>
      <trkpt lat="46.05659" lon="4.59534">
        <ele>337.8</ele>
        <time>2022-06-25T20:01:48Z</time>
      </trkpt>
      <trkpt lat="46.05659" lon="4.59531">
        <ele>337.8</ele>
        <time>2022-06-25T20:01:49Z</time>
      </trkpt>
      <trkpt lat="46.05658" lon="4.59528">
        <ele>338</ele>
        <time>2022-06-25T20:01:50Z</time>
      </trkpt>
      <trkpt lat="46.05658" lon="4.59526">
        <ele>338</ele>
        <time>2022-06-25T20:01:51Z</time>
      </trkpt>
      <trkpt lat="46.05658" lon="4.59523">
        <ele>338.4</ele>
        <time>2022-06-25T20:01:52Z</time>
      </trkpt>
      <trkpt lat="46.05657" lon="4.59521">
        <ele>338.4</ele>
        <time>2022-06-25T20:01:53Z</time>
      </trkpt>
      <trkpt lat="46.05657" lon="4.59518">
        <ele>338.8</ele>
        <time>2022-06-25T20:01:54Z</time>
      </trkpt>
      <trkpt lat="46.05657" lon="4.59516">
        <ele>338.8</ele>
        <time>2022-06-25T20:01:55Z</time>
      </trkpt>
      <trkpt lat="46.05657" lon="4.59514">
        <ele>339.2</ele>
        <time>2022-06-25T20:01:56Z</time>
      </trkpt>
      <trkpt lat="46.05657" lon="4.59511">
        <ele>339.2</ele>
        <time>2022-06-25T20:01:57Z</time>
      </trkpt>
      <trkpt lat="46.05657" lon="4.59509">
        <ele>339.4</ele>
        <time>2022-06-25T20:01:58Z</time>
      </trkpt>
      <trkpt lat="46.05657" lon="4.59507">
        <ele>339.4</ele>
        <time>2022-06-25T20:01:59Z</time>
      </trkpt>
      <trkpt lat="46.05657" lon="4.59504">
        <ele>339.6</ele>
        <time>2022-06-25T20:02:00Z</time>
      </trkpt>
      <trkpt lat="46.05657" lon="4.59502">
        <ele>339.6</ele>
        <time>2022-06-25T20:02:01Z</time>
      </trkpt>
      <trkpt lat="46.05657" lon="4.59499">
        <ele>339.8</ele>
        <time>2022-06-25T20:02:02Z</time>
      </trkpt>
      <trkpt lat="46.05657" lon="4.59496">
        <ele>339.8</ele>
        <time>2022-06-25T20:02:03Z</time>
      </trkpt>
      <trkpt lat="46.05657" lon="4.59493">
        <ele>339.8</ele>
        <time>2022-06-25T20:02:04Z</time>
      </trkpt>
      <trkpt lat="46.05657" lon="4.5949">
        <ele>339.8</ele>
        <time>2022-06-25T20:02:05Z</time>
      </trkpt>
      <trkpt lat="46.05657" lon="4.59486">
        <ele>339.8</ele>
        <time>2022-06-25T20:02:06Z</time>
      </trkpt>
      <trkpt lat="46.05656" lon="4.59483">
        <ele>339.8</ele>
        <time>2022-06-25T20:02:07Z</time>
      </trkpt>
      <trkpt lat="46.05656" lon="4.5948">
        <ele>339.8</ele>
        <time>2022-06-25T20:02:08Z</time>
      </trkpt>
      <trkpt lat="46.05655" lon="4.59476">
        <ele>339.8</ele>
        <time>2022-06-25T20:02:09Z</time>
      </trkpt>
      <trkpt lat="46.05655" lon="4.59473">
        <ele>339.8</ele>
        <time>2022-06-25T20:02:10Z</time>
      </trkpt>
      <trkpt lat="46.05655" lon="4.59469">
        <ele>339.8</ele>
        <time>2022-06-25T20:02:11Z</time>
      </trkpt>
      <trkpt lat="46.05655" lon="4.59466">
        <ele>340.2</ele>
        <time>2022-06-25T20:02:12Z</time>
      </trkpt>
      <trkpt lat="46.05654" lon="4.59462">
        <ele>340.2</ele>
        <time>2022-06-25T20:02:13Z</time>
      </trkpt>
      <trkpt lat="46.05654" lon="4.59458">
        <ele>340.2</ele>
        <time>2022-06-25T20:02:14Z</time>
      </trkpt>
      <trkpt lat="46.05654" lon="4.59455">
        <ele>340.2</ele>
        <time>2022-06-25T20:02:15Z</time>
      </trkpt>
      <trkpt lat="46.05653" lon="4.59451">
        <ele>340.2</ele>
        <time>2022-06-25T20:02:16Z</time>
      </trkpt>
      <trkpt lat="46.05653" lon="4.59448">
        <ele>340.2</ele>
        <time>2022-06-25T20:02:17Z</time>
      </trkpt>
      <trkpt lat="46.05652" lon="4.59444">
        <ele>340.2</ele>
        <time>2022-06-25T20:02:18Z</time>
      </trkpt>
      <trkpt lat="46.05651" lon="4.5944">
        <ele>340.2</ele>
        <time>2022-06-25T20:02:19Z</time>
      </trkpt>
      <trkpt lat="46.05651" lon="4.59436">
        <ele>340.2</ele>
        <time>2022-06-25T20:02:20Z</time>
      </trkpt>
      <trkpt lat="46.0565" lon="4.59433">
        <ele>340.2</ele>
        <time>2022-06-25T20:02:21Z</time>
      </trkpt>
      <trkpt lat="46.0565" lon="4.59429">
        <ele>340.2</ele>
        <time>2022-06-25T20:02:22Z</time>
      </trkpt>
      <trkpt lat="46.0565" lon="4.59426">
        <ele>340.2</ele>
        <time>2022-06-25T20:02:23Z</time>
      </trkpt>
      <trkpt lat="46.05649" lon="4.59423">
        <ele>340.2</ele>
        <time>2022-06-25T20:02:24Z</time>
      </trkpt>
      <trkpt lat="46.05648" lon="4.59421">
        <ele>340.2</ele>
        <time>2022-06-25T20:02:25Z</time>
      </trkpt>
      <trkpt lat="46.05648" lon="4.59418">
        <ele>340.2</ele>
        <time>2022-06-25T20:02:26Z</time>
      </trkpt>
      <trkpt lat="46.05647" lon="4.59416">
        <ele>340.2</ele>
        <time>2022-06-25T20:02:27Z</time>
      </trkpt>
      <trkpt lat="46.05647" lon="4.59413">
        <ele>340.2</ele>
        <time>2022-06-25T20:02:28Z</time>
      </trkpt>
      <trkpt lat="46.05647" lon="4.59411">
        <ele>340.2</ele>
        <time>2022-06-25T20:02:29Z</time>
      </trkpt>
      <trkpt lat="46.05646" lon="4.59409">
        <ele>340.4</ele>
        <time>2022-06-25T20:02:30Z</time>
      </trkpt>
      <trkpt lat="46.05645" lon="4.59407">
        <ele>340.4</ele>
        <time>2022-06-25T20:02:31Z</time>
      </trkpt>
      <trkpt lat="46.05644" lon="4.59405">
        <ele>340.4</ele>
        <time>2022-06-25T20:02:32Z</time>
      </trkpt>
      <trkpt lat="46.05644" lon="4.59403">
        <ele>340.6</ele>
        <time>2022-06-25T20:02:33Z</time>
      </trkpt>
      <trkpt lat="46.05644" lon="4.594">
        <ele>340.6</ele>
        <time>2022-06-25T20:02:34Z</time>
      </trkpt>
      <trkpt lat="46.05643" lon="4.59398">
        <ele>340.6</ele>
        <time>2022-06-25T20:02:35Z</time>
      </trkpt>
      <trkpt lat="46.05643" lon="4.59395">
        <ele>341</ele>
        <time>2022-06-25T20:02:36Z</time>
      </trkpt>
      <trkpt lat="46.05642" lon="4.59393">
        <ele>341</ele>
        <time>2022-06-25T20:02:37Z</time>
      </trkpt>
      <trkpt lat="46.05642" lon="4.59391">
        <ele>341.2</ele>
        <time>2022-06-25T20:02:38Z</time>
      </trkpt>
      <trkpt lat="46.05642" lon="4.59388">
        <ele>341.2</ele>
        <time>2022-06-25T20:02:39Z</time>
      </trkpt>
      <trkpt lat="46.05643" lon="4.59386">
        <ele>341.2</ele>
        <time>2022-06-25T20:02:40Z</time>
      </trkpt>
      <trkpt lat="46.05643" lon="4.59384">
        <ele>341.4</ele>
        <time>2022-06-25T20:02:41Z</time>
      </trkpt>
      <trkpt lat="46.05644" lon="4.59381">
        <ele>341.4</ele>
        <time>2022-06-25T20:02:42Z</time>
      </trkpt>
      <trkpt lat="46.05644" lon="4.59378">
        <ele>341.4</ele>
        <time>2022-06-25T20:02:43Z</time>
      </trkpt>
      <trkpt lat="46.05644" lon="4.59376">
        <ele>341.6</ele>
        <time>2022-06-25T20:02:44Z</time>
      </trkpt>
      <trkpt lat="46.05644" lon="4.59373">
        <ele>341.6</ele>
        <time>2022-06-25T20:02:45Z</time>
      </trkpt>
      <trkpt lat="46.05644" lon="4.5937">
        <ele>341.6</ele>
        <time>2022-06-25T20:02:46Z</time>
      </trkpt>
      <trkpt lat="46.05644" lon="4.59368">
        <ele>342</ele>
        <time>2022-06-25T20:02:47Z</time>
      </trkpt>
      <trkpt lat="46.05645" lon="4.59366">
        <ele>342</ele>
        <time>2022-06-25T20:02:48Z</time>
      </trkpt>
      <trkpt lat="46.05645" lon="4.59365">
        <ele>342</ele>
        <time>2022-06-25T20:02:49Z</time>
      </trkpt>
      <trkpt lat="46.05645" lon="4.59351">
        <ele>342.4</ele>
        <time>2022-06-25T20:03:02Z</time>
      </trkpt>
      <trkpt lat="46.05645" lon="4.59349">
        <ele>342.4</ele>
        <time>2022-06-25T20:03:03Z</time>
      </trkpt>
      <trkpt lat="46.05645" lon="4.59348">
        <ele>342.8</ele>
        <time>2022-06-25T20:03:04Z</time>
      </trkpt>
      <trkpt lat="46.05645" lon="4.59346">
        <ele>342.8</ele>
        <time>2022-06-25T20:03:05Z</time>
      </trkpt>
      <trkpt lat="46.05645" lon="4.59344">
        <ele>342.8</ele>
        <time>2022-06-25T20:03:06Z</time>
      </trkpt>
      <trkpt lat="46.05644" lon="4.59342">
        <ele>342.8</ele>
        <time>2022-06-25T20:03:07Z</time>
      </trkpt>
      <trkpt lat="46.05644" lon="4.5934">
        <ele>342.8</ele>
        <time>2022-06-25T20:03:08Z</time>
      </trkpt>
      <trkpt lat="46.05644" lon="4.59338">
        <ele>343</ele>
        <time>2022-06-25T20:03:09Z</time>
      </trkpt>
      <trkpt lat="46.05643" lon="4.59336">
        <ele>343</ele>
        <time>2022-06-25T20:03:10Z</time>
      </trkpt>
      <trkpt lat="46.05643" lon="4.59335">
        <ele>343</ele>
        <time>2022-06-25T20:03:11Z</time>
      </trkpt>
      <trkpt lat="46.05643" lon="4.59333">
        <ele>343.2</ele>
        <time>2022-06-25T20:03:12Z</time>
      </trkpt>
      <trkpt lat="46.05643" lon="4.59332">
        <ele>343.2</ele>
        <time>2022-06-25T20:03:13Z</time>
      </trkpt>
      <trkpt lat="46.05643" lon="4.5933">
        <ele>343.6</ele>
        <time>2022-06-25T20:03:14Z</time>
      </trkpt>
      <trkpt lat="46.05642" lon="4.59329">
        <ele>343.6</ele>
        <time>2022-06-25T20:03:15Z</time>
      </trkpt>
      <trkpt lat="46.05642" lon="4.59327">
        <ele>343.6</ele>
        <time>2022-06-25T20:03:16Z</time>
      </trkpt>
      <trkpt lat="46.05642" lon="4.59325">
        <ele>343.8</ele>
        <time>2022-06-25T20:03:17Z</time>
      </trkpt>
      <trkpt lat="46.05642" lon="4.59324">
        <ele>343.8</ele>
        <time>2022-06-25T20:03:18Z</time>
      </trkpt>
      <trkpt lat="46.05641" lon="4.59322">
        <ele>344</ele>
        <time>2022-06-25T20:03:19Z</time>
      </trkpt>
      <trkpt lat="46.05641" lon="4.5932">
        <ele>344</ele>
        <time>2022-06-25T20:03:20Z</time>
      </trkpt>
      <trkpt lat="46.0564" lon="4.59319">
        <ele>344</ele>
        <time>2022-06-25T20:03:21Z</time>
      </trkpt>
      <trkpt lat="46.0564" lon="4.59317">
        <ele>344.2</ele>
        <time>2022-06-25T20:03:22Z</time>
      </trkpt>
      <trkpt lat="46.0564" lon="4.59315">
        <ele>344.2</ele>
        <time>2022-06-25T20:03:23Z</time>
      </trkpt>
      <trkpt lat="46.0564" lon="4.59313">
        <ele>344.2</ele>
        <time>2022-06-25T20:03:24Z</time>
      </trkpt>
      <trkpt lat="46.0564" lon="4.59311">
        <ele>344.6</ele>
        <time>2022-06-25T20:03:25Z</time>
      </trkpt>
      <trkpt lat="46.0564" lon="4.59309">
        <ele>344.6</ele>
        <time>2022-06-25T20:03:26Z</time>
      </trkpt>
      <trkpt lat="46.05639" lon="4.59307">
        <ele>344.6</ele>
        <time>2022-06-25T20:03:27Z</time>
      </trkpt>
      <trkpt lat="46.05639" lon="4.59305">
        <ele>344.8</ele>
        <time>2022-06-25T20:03:28Z</time>
      </trkpt>
      <trkpt lat="46.05639" lon="4.59303">
        <ele>344.8</ele>
        <time>2022-06-25T20:03:29Z</time>
      </trkpt>
      <trkpt lat="46.05639" lon="4.59301">
        <ele>344.8</ele>
        <time>2022-06-25T20:03:30Z</time>
      </trkpt>
      <trkpt lat="46.05639" lon="4.59299">
        <ele>344.8</ele>
        <time>2022-06-25T20:03:31Z</time>
      </trkpt>
      <trkpt lat="46.05639" lon="4.59297">
        <ele>345</ele>
        <time>2022-06-25T20:03:32Z</time>
      </trkpt>
      <trkpt lat="46.05639" lon="4.59295">
        <ele>345</ele>
        <time>2022-06-25T20:03:33Z</time>
      </trkpt>
      <trkpt lat="46.05639" lon="4.59294">
        <ele>345</ele>
        <time>2022-06-25T20:03:34Z</time>
      </trkpt>
      <trkpt lat="46.05638" lon="4.59292">
        <ele>345.4</ele>
        <time>2022-06-25T20:03:35Z</time>
      </trkpt>
      <trkpt lat="46.05638" lon="4.5929">
        <ele>345.4</ele>
        <time>2022-06-25T20:03:36Z</time>
      </trkpt>
      <trkpt lat="46.05638" lon="4.59288">
        <ele>345.4</ele>
        <time>2022-06-25T20:03:37Z</time>
      </trkpt>
      <trkpt lat="46.05637" lon="4.59287">
        <ele>345.4</ele>
        <time>2022-06-25T20:03:38Z</time>
      </trkpt>
      <trkpt lat="46.05637" lon="4.59285">
        <ele>345.4</ele>
        <time>2022-06-25T20:03:39Z</time>
      </trkpt>
      <trkpt lat="46.05637" lon="4.59283">
        <ele>345.6</ele>
        <time>2022-06-25T20:03:40Z</time>
      </trkpt>
      <trkpt lat="46.05636" lon="4.59281">
        <ele>345.6</ele>
        <time>2022-06-25T20:03:41Z</time>
      </trkpt>
      <trkpt lat="46.05636" lon="4.59279">
        <ele>345.6</ele>
        <time>2022-06-25T20:03:42Z</time>
      </trkpt>
      <trkpt lat="46.05636" lon="4.59278">
        <ele>345.8</ele>
        <time>2022-06-25T20:03:43Z</time>
      </trkpt>
      <trkpt lat="46.05636" lon="4.59276">
        <ele>345.8</ele>
        <time>2022-06-25T20:03:44Z</time>
      </trkpt>
      <trkpt lat="46.05635" lon="4.59274">
        <ele>345.8</ele>
        <time>2022-06-25T20:03:45Z</time>
      </trkpt>
      <trkpt lat="46.05635" lon="4.59272">
        <ele>346</ele>
        <time>2022-06-25T20:03:46Z</time>
      </trkpt>
      <trkpt lat="46.05634" lon="4.5927">
        <ele>346</ele>
        <time>2022-06-25T20:03:47Z</time>
      </trkpt>
      <trkpt lat="46.05634" lon="4.59268">
        <ele>346</ele>
        <time>2022-06-25T20:03:48Z</time>
      </trkpt>
      <trkpt lat="46.05634" lon="4.59267">
        <ele>346</ele>
        <time>2022-06-25T20:03:49Z</time>
      </trkpt>
      <trkpt lat="46.05633" lon="4.59265">
        <ele>346.4</ele>
        <time>2022-06-25T20:03:50Z</time>
      </trkpt>
      <trkpt lat="46.05633" lon="4.59263">
        <ele>346.4</ele>
        <time>2022-06-25T20:03:51Z</time>
      </trkpt>
      <trkpt lat="46.05633" lon="4.59261">
        <ele>346.6</ele>
        <time>2022-06-25T20:03:52Z</time>
      </trkpt>
      <trkpt lat="46.05632" lon="4.5926">
        <ele>346.6</ele>
        <time>2022-06-25T20:03:53Z</time>
      </trkpt>
      <trkpt lat="46.05632" lon="4.59258">
        <ele>346.8</ele>
        <time>2022-06-25T20:03:54Z</time>
      </trkpt>
      <trkpt lat="46.05632" lon="4.59256">
        <ele>346.8</ele>
        <time>2022-06-25T20:03:55Z</time>
      </trkpt>
      <trkpt lat="46.05631" lon="4.59255">
        <ele>347</ele>
        <time>2022-06-25T20:03:56Z</time>
      </trkpt>
      <trkpt lat="46.05631" lon="4.59253">
        <ele>347</ele>
        <time>2022-06-25T20:03:57Z</time>
      </trkpt>
      <trkpt lat="46.0563" lon="4.59251">
        <ele>347</ele>
        <time>2022-06-25T20:03:58Z</time>
      </trkpt>
      <trkpt lat="46.05629" lon="4.5925">
        <ele>347.4</ele>
        <time>2022-06-25T20:03:59Z</time>
      </trkpt>
      <trkpt lat="46.05629" lon="4.59248">
        <ele>347.4</ele>
        <time>2022-06-25T20:04:00Z</time>
      </trkpt>
      <trkpt lat="46.05629" lon="4.59247">
        <ele>347.4</ele>
        <time>2022-06-25T20:04:01Z</time>
      </trkpt>
      <trkpt lat="46.05629" lon="4.59245">
        <ele>347.6</ele>
        <time>2022-06-25T20:04:02Z</time>
      </trkpt>
      <trkpt lat="46.05628" lon="4.59243">
        <ele>347.6</ele>
        <time>2022-06-25T20:04:03Z</time>
      </trkpt>
      <trkpt lat="46.05627" lon="4.59242">
        <ele>347.6</ele>
        <time>2022-06-25T20:04:04Z</time>
      </trkpt>
      <trkpt lat="46.05627" lon="4.59241">
        <ele>347.6</ele>
        <time>2022-06-25T20:04:05Z</time>
      </trkpt>
      <trkpt lat="46.05626" lon="4.59239">
        <ele>347.6</ele>
        <time>2022-06-25T20:04:06Z</time>
      </trkpt>
      <trkpt lat="46.05625" lon="4.59237">
        <ele>347.8</ele>
        <time>2022-06-25T20:04:07Z</time>
      </trkpt>
      <trkpt lat="46.05625" lon="4.59236">
        <ele>347.8</ele>
        <time>2022-06-25T20:04:08Z</time>
      </trkpt>
      <trkpt lat="46.05625" lon="4.59234">
        <ele>347.8</ele>
        <time>2022-06-25T20:04:09Z</time>
      </trkpt>
      <trkpt lat="46.05624" lon="4.59232">
        <ele>347.8</ele>
        <time>2022-06-25T20:04:10Z</time>
      </trkpt>
      <trkpt lat="46.05624" lon="4.5923">
        <ele>347.8</ele>
        <time>2022-06-25T20:04:11Z</time>
      </trkpt>
      <trkpt lat="46.05624" lon="4.59228">
        <ele>347.8</ele>
        <time>2022-06-25T20:04:12Z</time>
      </trkpt>
      <trkpt lat="46.05624" lon="4.59226">
        <ele>348</ele>
        <time>2022-06-25T20:04:13Z</time>
      </trkpt>
      <trkpt lat="46.05624" lon="4.59224">
        <ele>348</ele>
        <time>2022-06-25T20:04:14Z</time>
      </trkpt>
      <trkpt lat="46.05623" lon="4.59223">
        <ele>348.4</ele>
        <time>2022-06-25T20:04:15Z</time>
      </trkpt>
      <trkpt lat="46.05623" lon="4.59221">
        <ele>348.4</ele>
        <time>2022-06-25T20:04:16Z</time>
      </trkpt>
      <trkpt lat="46.05623" lon="4.5922">
        <ele>348.4</ele>
        <time>2022-06-25T20:04:17Z</time>
      </trkpt>
      <trkpt lat="46.05623" lon="4.59218">
        <ele>348.4</ele>
        <time>2022-06-25T20:04:18Z</time>
      </trkpt>
      <trkpt lat="46.05622" lon="4.59217">
        <ele>348.4</ele>
        <time>2022-06-25T20:04:19Z</time>
      </trkpt>
      <trkpt lat="46.05622" lon="4.59215">
        <ele>348.6</ele>
        <time>2022-06-25T20:04:20Z</time>
      </trkpt>
      <trkpt lat="46.05621" lon="4.59213">
        <ele>348.6</ele>
        <time>2022-06-25T20:04:21Z</time>
      </trkpt>
      <trkpt lat="46.05621" lon="4.59212">
        <ele>348.6</ele>
        <time>2022-06-25T20:04:22Z</time>
      </trkpt>
      <trkpt lat="46.0562" lon="4.5921">
        <ele>348.6</ele>
        <time>2022-06-25T20:04:23Z</time>
      </trkpt>
      <trkpt lat="46.0562" lon="4.59208">
        <ele>348.6</ele>
        <time>2022-06-25T20:04:24Z</time>
      </trkpt>
      <trkpt lat="46.0562" lon="4.59206">
        <ele>348.8</ele>
        <time>2022-06-25T20:04:25Z</time>
      </trkpt>
      <trkpt lat="46.05619" lon="4.59204">
        <ele>348.8</ele>
        <time>2022-06-25T20:04:26Z</time>
      </trkpt>
      <trkpt lat="46.05619" lon="4.59203">
        <ele>348.8</ele>
        <time>2022-06-25T20:04:27Z</time>
      </trkpt>
      <trkpt lat="46.05619" lon="4.59201">
        <ele>348.8</ele>
        <time>2022-06-25T20:04:28Z</time>
      </trkpt>
      <trkpt lat="46.05618" lon="4.59199">
        <ele>348.8</ele>
        <time>2022-06-25T20:04:29Z</time>
      </trkpt>
      <trkpt lat="46.05618" lon="4.59198">
        <ele>348.8</ele>
        <time>2022-06-25T20:04:30Z</time>
      </trkpt>
      <trkpt lat="46.05617" lon="4.59196">
        <ele>348.8</ele>
        <time>2022-06-25T20:04:31Z</time>
      </trkpt>
      <trkpt lat="46.05617" lon="4.59195">
        <ele>349.2</ele>
        <time>2022-06-25T20:04:32Z</time>
      </trkpt>
      <trkpt lat="46.05616" lon="4.59194">
        <ele>349.2</ele>
        <time>2022-06-25T20:04:33Z</time>
      </trkpt>
      <trkpt lat="46.05616" lon="4.59193">
        <ele>349.2</ele>
        <time>2022-06-25T20:04:34Z</time>
      </trkpt>
      <trkpt lat="46.05615" lon="4.59188">
        <ele>349.4</ele>
        <time>2022-06-25T20:04:39Z</time>
      </trkpt>
      <trkpt lat="46.05615" lon="4.59187">
        <ele>349.4</ele>
        <time>2022-06-25T20:04:40Z</time>
      </trkpt>
      <trkpt lat="46.05616" lon="4.59186">
        <ele>349.8</ele>
        <time>2022-06-25T20:04:41Z</time>
      </trkpt>
      <trkpt lat="46.05616" lon="4.59184">
        <ele>349.8</ele>
        <time>2022-06-25T20:04:42Z</time>
      </trkpt>
      <trkpt lat="46.05617" lon="4.59183">
        <ele>349.8</ele>
        <time>2022-06-25T20:04:43Z</time>
      </trkpt>
      <trkpt lat="46.05617" lon="4.59182">
        <ele>350</ele>
        <time>2022-06-25T20:04:44Z</time>
      </trkpt>
      <trkpt lat="46.05618" lon="4.59181">
        <ele>350</ele>
        <time>2022-06-25T20:04:45Z</time>
      </trkpt>
      <trkpt lat="46.05618" lon="4.5918">
        <ele>350</ele>
        <time>2022-06-25T20:04:46Z</time>
      </trkpt>
      <trkpt lat="46.05619" lon="4.59179">
        <ele>350</ele>
        <time>2022-06-25T20:04:47Z</time>
      </trkpt>
      <trkpt lat="46.0562" lon="4.59179">
        <ele>350.2</ele>
        <time>2022-06-25T20:04:48Z</time>
      </trkpt>
      <trkpt lat="46.05621" lon="4.5918">
        <ele>350.2</ele>
        <time>2022-06-25T20:04:49Z</time>
      </trkpt>
      <trkpt lat="46.05622" lon="4.59179">
        <ele>350.2</ele>
        <time>2022-06-25T20:04:50Z</time>
      </trkpt>
      <trkpt lat="46.05623" lon="4.59179">
        <ele>350.4</ele>
        <time>2022-06-25T20:04:51Z</time>
      </trkpt>
      <trkpt lat="46.05624" lon="4.59179">
        <ele>350.4</ele>
        <time>2022-06-25T20:04:52Z</time>
      </trkpt>
      <trkpt lat="46.05624" lon="4.59178">
        <ele>350.4</ele>
        <time>2022-06-25T20:04:53Z</time>
      </trkpt>
      <trkpt lat="46.05625" lon="4.59178">
        <ele>350.6</ele>
        <time>2022-06-25T20:04:54Z</time>
      </trkpt>
      <trkpt lat="46.0563" lon="4.5918">
        <ele>351.6</ele>
        <time>2022-06-25T20:05:02Z</time>
      </trkpt>
      <trkpt lat="46.05631" lon="4.59181">
        <ele>351.6</ele>
        <time>2022-06-25T20:05:03Z</time>
      </trkpt>
      <trkpt lat="46.05631" lon="4.59183">
        <ele>352</ele>
        <time>2022-06-25T20:05:04Z</time>
      </trkpt>
      <trkpt lat="46.05631" lon="4.59184">
        <ele>352</ele>
        <time>2022-06-25T20:05:05Z</time>
      </trkpt>
      <trkpt lat="46.05632" lon="4.59185">
        <ele>352</ele>
        <time>2022-06-25T20:05:06Z</time>
      </trkpt>
      <trkpt lat="46.05632" lon="4.59187">
        <ele>352.4</ele>
        <time>2022-06-25T20:05:07Z</time>
      </trkpt>
      <trkpt lat="46.05632" lon="4.59188">
        <ele>352.4</ele>
        <time>2022-06-25T20:05:08Z</time>
      </trkpt>
      <trkpt lat="46.05633" lon="4.5919">
        <ele>352.6</ele>
        <time>2022-06-25T20:05:09Z</time>
      </trkpt>
      <trkpt lat="46.05633" lon="4.59191">
        <ele>352.6</ele>
        <time>2022-06-25T20:05:10Z</time>
      </trkpt>
      <trkpt lat="46.05634" lon="4.59193">
        <ele>352.8</ele>
        <time>2022-06-25T20:05:11Z</time>
      </trkpt>
      <trkpt lat="46.05634" lon="4.59194">
        <ele>352.8</ele>
        <time>2022-06-25T20:05:12Z</time>
      </trkpt>
      <trkpt lat="46.05635" lon="4.59196">
        <ele>352.8</ele>
        <time>2022-06-25T20:05:13Z</time>
      </trkpt>
      <trkpt lat="46.05635" lon="4.59197">
        <ele>353</ele>
        <time>2022-06-25T20:05:14Z</time>
      </trkpt>
      <trkpt lat="46.05635" lon="4.59199">
        <ele>353</ele>
        <time>2022-06-25T20:05:15Z</time>
      </trkpt>
      <trkpt lat="46.05636" lon="4.592">
        <ele>353.2</ele>
        <time>2022-06-25T20:05:16Z</time>
      </trkpt>
      <trkpt lat="46.05636" lon="4.59202">
        <ele>353.2</ele>
        <time>2022-06-25T20:05:17Z</time>
      </trkpt>
      <trkpt lat="46.05637" lon="4.59204">
        <ele>353.2</ele>
        <time>2022-06-25T20:05:18Z</time>
      </trkpt>
      <trkpt lat="46.05637" lon="4.59205">
        <ele>353.6</ele>
        <time>2022-06-25T20:05:19Z</time>
      </trkpt>
      <trkpt lat="46.05638" lon="4.59207">
        <ele>353.6</ele>
        <time>2022-06-25T20:05:20Z</time>
      </trkpt>
      <trkpt lat="46.05638" lon="4.59208">
        <ele>353.6</ele>
        <time>2022-06-25T20:05:21Z</time>
      </trkpt>
      <trkpt lat="46.05639" lon="4.5921">
        <ele>353.6</ele>
        <time>2022-06-25T20:05:22Z</time>
      </trkpt>
      <trkpt lat="46.05639" lon="4.59211">
        <ele>353.8</ele>
        <time>2022-06-25T20:05:23Z</time>
      </trkpt>
      <trkpt lat="46.0564" lon="4.59212">
        <ele>353.8</ele>
        <time>2022-06-25T20:05:24Z</time>
      </trkpt>
      <trkpt lat="46.05641" lon="4.59213">
        <ele>354</ele>
        <time>2022-06-25T20:05:25Z</time>
      </trkpt>
      <trkpt lat="46.05641" lon="4.59215">
        <ele>354</ele>
        <time>2022-06-25T20:05:26Z</time>
      </trkpt>
      <trkpt lat="46.05642" lon="4.59216">
        <ele>354</ele>
        <time>2022-06-25T20:05:27Z</time>
      </trkpt>
      <trkpt lat="46.05643" lon="4.59216">
        <ele>354</ele>
        <time>2022-06-25T20:05:28Z</time>
      </trkpt>
      <trkpt lat="46.05644" lon="4.59217">
        <ele>354.2</ele>
        <time>2022-06-25T20:05:29Z</time>
      </trkpt>
      <trkpt lat="46.05645" lon="4.59218">
        <ele>354.2</ele>
        <time>2022-06-25T20:05:30Z</time>
      </trkpt>
      <trkpt lat="46.05645" lon="4.59219">
        <ele>354.2</ele>
        <time>2022-06-25T20:05:31Z</time>
      </trkpt>
      <trkpt lat="46.05648" lon="4.59218">
        <ele>354.8</ele>
        <time>2022-06-25T20:05:39Z</time>
      </trkpt>
      <trkpt lat="46.05649" lon="4.59216">
        <ele>354.8</ele>
        <time>2022-06-25T20:05:40Z</time>
      </trkpt>
      <trkpt lat="46.0565" lon="4.59215">
        <ele>354.8</ele>
        <time>2022-06-25T20:05:41Z</time>
      </trkpt>
      <trkpt lat="46.0565" lon="4.59214">
        <ele>354.8</ele>
        <time>2022-06-25T20:05:42Z</time>
      </trkpt>
      <trkpt lat="46.05651" lon="4.59213">
        <ele>355</ele>
        <time>2022-06-25T20:05:43Z</time>
      </trkpt>
      <trkpt lat="46.05652" lon="4.59211">
        <ele>355</ele>
        <time>2022-06-25T20:05:44Z</time>
      </trkpt>
      <trkpt lat="46.05652" lon="4.5921">
        <ele>355</ele>
        <time>2022-06-25T20:05:45Z</time>
      </trkpt>
      <trkpt lat="46.05653" lon="4.59209">
        <ele>355.2</ele>
        <time>2022-06-25T20:05:46Z</time>
      </trkpt>
      <trkpt lat="46.05654" lon="4.59208">
        <ele>355.2</ele>
        <time>2022-06-25T20:05:47Z</time>
      </trkpt>
      <trkpt lat="46.05654" lon="4.59207">
        <ele>355.2</ele>
        <time>2022-06-25T20:05:48Z</time>
      </trkpt>
      <trkpt lat="46.05655" lon="4.59206">
        <ele>355.4</ele>
        <time>2022-06-25T20:05:49Z</time>
      </trkpt>
      <trkpt lat="46.05656" lon="4.59206">
        <ele>355.4</ele>
        <time>2022-06-25T20:05:50Z</time>
      </trkpt>
      <trkpt lat="46.05656" lon="4.59205">
        <ele>355.6</ele>
        <time>2022-06-25T20:05:51Z</time>
      </trkpt>
      <trkpt lat="46.05656" lon="4.59205">
        <ele>356.4</ele>
        <time>2022-06-25T20:07:18Z</time>
      </trkpt>
      <trkpt lat="46.05656" lon="4.59205">
        <ele>356.4</ele>
        <time>2022-06-25T20:07:50Z</time>
      </trkpt>
      <trkpt lat="46.05656" lon="4.59205">
        <ele>356.4</ele>
        <time>2022-06-25T20:08:22Z</time>
      </trkpt>
      <trkpt lat="46.05656" lon="4.59205">
        <ele>356.6</ele>
        <time>2022-06-25T20:09:06Z</time>
      </trkpt>
      <trkpt lat="46.05664" lon="4.592">
        <ele>356.4</ele>
        <time>2022-06-25T20:09:59Z</time>
      </trkpt>
      <trkpt lat="46.05664" lon="4.592">
        <ele>356.4</ele>
        <time>2022-06-25T20:10:03Z</time>
      </trkpt>
      <trkpt lat="46.05664" lon="4.592">
        <ele>356.4</ele>
        <time>2022-06-25T20:11:30Z</time>
      </trkpt>
      <trkpt lat="46.05664" lon="4.592">
        <ele>357.2</ele>
        <time>2022-06-25T20:12:52Z</time>
      </trkpt>
      <trkpt lat="46.05664" lon="4.592">
        <ele>358.2</ele>
        <time>2022-06-25T20:13:47Z</time>
      </trkpt>
      <trkpt lat="46.05664" lon="4.592">
        <ele>359</ele>
        <time>2022-06-25T20:14:36Z</time>
      </trkpt>
      <trkpt lat="46.05664" lon="4.592">
        <ele>359.6</ele>
        <time>2022-06-25T20:15:25Z</time>
      </trkpt>
      <trkpt lat="46.05664" lon="4.592">
        <ele>359.6</ele>
        <time>2022-06-25T20:16:23Z</time>
      </trkpt>
      <trkpt lat="46.05664" lon="4.592">
        <ele>359.8</ele>
        <time>2022-06-25T20:17:15Z</time>
      </trkpt>
      <trkpt lat="46.05664" lon="4.592">
        <ele>359.8</ele>
        <time>2022-06-25T20:17:47Z</time>
      </trkpt>
      <trkpt lat="46.05664" lon="4.592">
        <ele>359.6</ele>
        <time>2022-06-25T20:18:23Z</time>
      </trkpt>
      <trkpt lat="46.05664" lon="4.592">
        <ele>360.4</ele>
        <time>2022-06-25T20:19:00Z</time>
      </trkpt>
      <trkpt lat="46.05664" lon="4.592">
        <ele>360</ele>
        <time>2022-06-25T20:19:38Z</time>
      </trkpt>
      <trkpt lat="46.05664" lon="4.592">
        <ele>360.2</ele>
        <time>2022-06-25T20:20:22Z</time>
      </trkpt>
      <trkpt lat="46.05664" lon="4.592">
        <ele>360.2</ele>
        <time>2022-06-25T20:21:00Z</time>
      </trkpt>
      <trkpt lat="46.05664" lon="4.592">
        <ele>358.6</ele>
        <time>2022-06-25T20:24:17Z</time>
      </trkpt>
      <trkpt lat="46.05664" lon="4.592">
        <ele>358.4</ele>
        <time>2022-06-25T20:24:55Z</time>
      </trkpt>
      <trkpt lat="46.05664" lon="4.592">
        <ele>357.4</ele>
        <time>2022-06-25T20:26:12Z</time>
      </trkpt>
      <trkpt lat="46.05664" lon="4.592">
        <ele>356.2</ele>
        <time>2022-06-25T20:28:30Z</time>
      </trkpt>
      <trkpt lat="46.05664" lon="4.592">
        <ele>353.6</ele>
        <time>2022-06-25T20:33:33Z</time>
      </trkpt>
      <trkpt lat="46.05664" lon="4.592">
        <ele>353.6</ele>
        <time>2022-06-25T20:34:10Z</time>
      </trkpt>
      <trkpt lat="46.05664" lon="4.592">
        <ele>354</ele>
        <time>2022-06-25T20:34:45Z</time>
      </trkpt>
      <trkpt lat="46.05664" lon="4.592">
        <ele>354</ele>
        <time>2022-06-25T20:35:20Z</time>
      </trkpt>
      <trkpt lat="46.05664" lon="4.592">
        <ele>354</ele>
        <time>2022-06-25T20:35:52Z</time>
      </trkpt>
      <trkpt lat="46.05664" lon="4.592">
        <ele>354</ele>
        <time>2022-06-25T20:36:25Z</time>
      </trkpt>
      <trkpt lat="46.05664" lon="4.592">
        <ele>353.8</ele>
        <time>2022-06-25T20:36:59Z</time>
      </trkpt>
      <trkpt lat="46.05664" lon="4.592">
        <ele>353.4</ele>
        <time>2022-06-25T20:37:46Z</time>
      </trkpt>
      <trkpt lat="46.05664" lon="4.592">
        <ele>353</ele>
        <time>2022-06-25T20:38:49Z</time>
      </trkpt>
      <trkpt lat="46.05664" lon="4.592">
        <ele>352.6</ele>
        <time>2022-06-25T20:39:33Z</time>
      </trkpt>
      <trkpt lat="46.05664" lon="4.592">
        <ele>352.4</ele>
        <time>2022-06-25T20:40:31Z</time>
      </trkpt>
      <trkpt lat="46.05664" lon="4.592">
        <ele>352.4</ele>
        <time>2022-06-25T20:41:16Z</time>
      </trkpt>
      <trkpt lat="46.05664" lon="4.592">
        <ele>352.4</ele>
        <time>2022-06-25T20:42:01Z</time>
      </trkpt>
      <trkpt lat="46.05664" lon="4.592">
        <ele>352</ele>
        <time>2022-06-25T20:43:09Z</time>
      </trkpt>
      <trkpt lat="46.05664" lon="4.592">
        <ele>351.4</ele>
        <time>2022-06-25T20:44:15Z</time>
      </trkpt>
      <trkpt lat="46.05664" lon="4.592">
        <ele>350</ele>
        <time>2022-06-25T20:46:16Z</time>
      </trkpt>
    </trkseg>
  </trk>
</gpx>